<?xml version="1.0" encoding="UTF-8"?>
<gpx version="1.1" creator="https://www.youtrack.es" xsi:schemaLocation="http://www.topografix.com/GPX/1/1 http://www.topografix.com/GPX/1/1/gpx.xsd http://www.garmin.com/xmlschemas/GpxExtensions/v3 http://www.garmin.com/xmlschemas/GpxExtensionsv3.xsd http://www.garmin.com/xmlschemas/TrackPointExtension/v1 http://www.garmin.com/xmlschemas/TrackPointExtensionv1.xsd" xmlns:gpxtpx="http://www.garmin.com/xmlschemas/TrackPointExtension/v1" xmlns:gpxx="http://www.garmin.com/xmlschemas/GpxExtensions/v3" xmlns:xsi="http://www.w3.org/2001/XMLSchema-instance">
  <metadata>
    <link href="https://www.youtrack.es">
      <text>YouTrack.es</text>
    </link>
    <time>2026-05-08T10:26:00Z</time>
  </metadata>
  <trk>
    <src>https://www.youtrack.es</src>
    <link href="https://www.youtrack.es/ruta/28293-v-a-verde-del-aceite-dia-1">
      <text>YouTrack.es</text>
    </link>
    <trkseg>
      <trkpt lat="37.7831710" lon="-3.8136850">
        <ele>532.4</ele>
        <time>2021-12-27T13:25:35Z</time>
      </trkpt>
      <trkpt lat="37.7831700" lon="-3.8136840">
        <ele>532.4</ele>
        <time>2021-12-27T13:25:44Z</time>
      </trkpt>
      <trkpt lat="37.7831690" lon="-3.8136830">
        <ele>532.4</ele>
        <time>2021-12-27T13:25:47Z</time>
      </trkpt>
      <trkpt lat="37.7831680" lon="-3.8136820">
        <ele>532.4</ele>
        <time>2021-12-27T13:25:48Z</time>
      </trkpt>
      <trkpt lat="37.7831810" lon="-3.8136520">
        <ele>532.4</ele>
        <time>2021-12-27T13:25:49Z</time>
      </trkpt>
      <trkpt lat="37.7831810" lon="-3.8136520">
        <ele>532.4</ele>
        <time>2021-12-27T13:25:50Z</time>
      </trkpt>
      <trkpt lat="37.7831900" lon="-3.8136220">
        <ele>532.4</ele>
        <time>2021-12-27T13:25:51Z</time>
      </trkpt>
      <trkpt lat="37.7831900" lon="-3.8136220">
        <ele>532.2</ele>
        <time>2021-12-27T13:25:52Z</time>
      </trkpt>
      <trkpt lat="37.7831900" lon="-3.8136220">
        <ele>532.2</ele>
        <time>2021-12-27T13:25:53Z</time>
      </trkpt>
      <trkpt lat="37.7831900" lon="-3.8136220">
        <ele>532.2</ele>
        <time>2021-12-27T13:25:54Z</time>
      </trkpt>
      <trkpt lat="37.7831900" lon="-3.8136220">
        <ele>532.2</ele>
        <time>2021-12-27T13:25:55Z</time>
      </trkpt>
      <trkpt lat="37.7831870" lon="-3.8135980">
        <ele>532.0</ele>
        <time>2021-12-27T13:25:56Z</time>
      </trkpt>
      <trkpt lat="37.7831870" lon="-3.8135980">
        <ele>532.0</ele>
        <time>2021-12-27T13:25:57Z</time>
      </trkpt>
      <trkpt lat="37.7831870" lon="-3.8135980">
        <ele>532.0</ele>
        <time>2021-12-27T13:25:58Z</time>
      </trkpt>
      <trkpt lat="37.7831870" lon="-3.8135980">
        <ele>531.8</ele>
        <time>2021-12-27T13:25:59Z</time>
      </trkpt>
      <trkpt lat="37.7831870" lon="-3.8135980">
        <ele>531.8</ele>
        <time>2021-12-27T13:26:00Z</time>
      </trkpt>
      <trkpt lat="37.7831870" lon="-3.8135980">
        <ele>531.8</ele>
        <time>2021-12-27T13:26:01Z</time>
      </trkpt>
      <trkpt lat="37.7831870" lon="-3.8135980">
        <ele>532.0</ele>
        <time>2021-12-27T13:26:02Z</time>
      </trkpt>
      <trkpt lat="37.7831870" lon="-3.8135980">
        <ele>532.0</ele>
        <time>2021-12-27T13:26:03Z</time>
      </trkpt>
      <trkpt lat="37.7831870" lon="-3.8135980">
        <ele>532.0</ele>
        <time>2021-12-27T13:26:04Z</time>
      </trkpt>
      <trkpt lat="37.7831870" lon="-3.8135980">
        <ele>532.0</ele>
        <time>2021-12-27T13:26:05Z</time>
      </trkpt>
      <trkpt lat="37.7831870" lon="-3.8135980">
        <ele>532.0</ele>
        <time>2021-12-27T13:26:06Z</time>
      </trkpt>
      <trkpt lat="37.7831870" lon="-3.8135980">
        <ele>532.2</ele>
        <time>2021-12-27T13:26:07Z</time>
      </trkpt>
      <trkpt lat="37.7831870" lon="-3.8135980">
        <ele>532.0</ele>
        <time>2021-12-27T13:26:08Z</time>
      </trkpt>
      <trkpt lat="37.7831870" lon="-3.8135980">
        <ele>532.0</ele>
        <time>2021-12-27T13:26:09Z</time>
      </trkpt>
      <trkpt lat="37.7831870" lon="-3.8135980">
        <ele>532.0</ele>
        <time>2021-12-27T13:26:10Z</time>
      </trkpt>
      <trkpt lat="37.7831870" lon="-3.8135980">
        <ele>532.0</ele>
        <time>2021-12-27T13:26:11Z</time>
      </trkpt>
      <trkpt lat="37.7831870" lon="-3.8135980">
        <ele>532.0</ele>
        <time>2021-12-27T13:26:12Z</time>
      </trkpt>
      <trkpt lat="37.7831870" lon="-3.8135980">
        <ele>532.0</ele>
        <time>2021-12-27T13:26:13Z</time>
      </trkpt>
      <trkpt lat="37.7831870" lon="-3.8135980">
        <ele>532.0</ele>
        <time>2021-12-27T13:26:14Z</time>
      </trkpt>
      <trkpt lat="37.7831870" lon="-3.8135980">
        <ele>532.0</ele>
        <time>2021-12-27T13:26:15Z</time>
      </trkpt>
      <trkpt lat="37.7831870" lon="-3.8135980">
        <ele>532.0</ele>
        <time>2021-12-27T13:26:16Z</time>
      </trkpt>
      <trkpt lat="37.7831870" lon="-3.8135980">
        <ele>532.0</ele>
        <time>2021-12-27T13:26:17Z</time>
      </trkpt>
      <trkpt lat="37.7831870" lon="-3.8135980">
        <ele>532.0</ele>
        <time>2021-12-27T13:26:18Z</time>
      </trkpt>
      <trkpt lat="37.7831870" lon="-3.8135980">
        <ele>532.0</ele>
        <time>2021-12-27T13:26:19Z</time>
      </trkpt>
      <trkpt lat="37.7831870" lon="-3.8135980">
        <ele>532.0</ele>
        <time>2021-12-27T13:26:20Z</time>
      </trkpt>
      <trkpt lat="37.7831870" lon="-3.8135980">
        <ele>532.2</ele>
        <time>2021-12-27T13:26:21Z</time>
      </trkpt>
      <trkpt lat="37.7831870" lon="-3.8135980">
        <ele>532.2</ele>
        <time>2021-12-27T13:26:22Z</time>
      </trkpt>
      <trkpt lat="37.7831870" lon="-3.8135980">
        <ele>532.2</ele>
        <time>2021-12-27T13:26:23Z</time>
      </trkpt>
      <trkpt lat="37.7831870" lon="-3.8135980">
        <ele>532.2</ele>
        <time>2021-12-27T13:26:24Z</time>
      </trkpt>
      <trkpt lat="37.7831870" lon="-3.8135980">
        <ele>532.2</ele>
        <time>2021-12-27T13:26:25Z</time>
      </trkpt>
      <trkpt lat="37.7831870" lon="-3.8135980">
        <ele>532.2</ele>
        <time>2021-12-27T13:26:26Z</time>
      </trkpt>
      <trkpt lat="37.7831870" lon="-3.8135980">
        <ele>532.2</ele>
        <time>2021-12-27T13:26:27Z</time>
      </trkpt>
      <trkpt lat="37.7831870" lon="-3.8135980">
        <ele>532.2</ele>
        <time>2021-12-27T13:26:28Z</time>
      </trkpt>
      <trkpt lat="37.7831870" lon="-3.8135980">
        <ele>532.2</ele>
        <time>2021-12-27T13:26:29Z</time>
      </trkpt>
      <trkpt lat="37.7831870" lon="-3.8135980">
        <ele>532.2</ele>
        <time>2021-12-27T13:26:30Z</time>
      </trkpt>
      <trkpt lat="37.7831870" lon="-3.8135980">
        <ele>532.2</ele>
        <time>2021-12-27T13:26:31Z</time>
      </trkpt>
      <trkpt lat="37.7831870" lon="-3.8135980">
        <ele>532.2</ele>
        <time>2021-12-27T13:26:32Z</time>
      </trkpt>
      <trkpt lat="37.7831870" lon="-3.8135980">
        <ele>532.2</ele>
        <time>2021-12-27T13:26:33Z</time>
      </trkpt>
      <trkpt lat="37.7831870" lon="-3.8135980">
        <ele>532.2</ele>
        <time>2021-12-27T13:26:34Z</time>
      </trkpt>
      <trkpt lat="37.7831870" lon="-3.8135980">
        <ele>532.2</ele>
        <time>2021-12-27T13:26:35Z</time>
      </trkpt>
      <trkpt lat="37.7831870" lon="-3.8135980">
        <ele>532.2</ele>
        <time>2021-12-27T13:26:36Z</time>
      </trkpt>
      <trkpt lat="37.7831870" lon="-3.8135980">
        <ele>532.0</ele>
        <time>2021-12-27T13:26:37Z</time>
      </trkpt>
      <trkpt lat="37.7831870" lon="-3.8135980">
        <ele>532.0</ele>
        <time>2021-12-27T13:26:38Z</time>
      </trkpt>
      <trkpt lat="37.7831870" lon="-3.8135980">
        <ele>532.0</ele>
        <time>2021-12-27T13:26:39Z</time>
      </trkpt>
      <trkpt lat="37.7831870" lon="-3.8135980">
        <ele>532.0</ele>
        <time>2021-12-27T13:26:40Z</time>
      </trkpt>
      <trkpt lat="37.7831870" lon="-3.8135980">
        <ele>532.0</ele>
        <time>2021-12-27T13:26:41Z</time>
      </trkpt>
      <trkpt lat="37.7831870" lon="-3.8135980">
        <ele>532.0</ele>
        <time>2021-12-27T13:26:42Z</time>
      </trkpt>
      <trkpt lat="37.7831870" lon="-3.8135980">
        <ele>532.0</ele>
        <time>2021-12-27T13:26:43Z</time>
      </trkpt>
      <trkpt lat="37.7831870" lon="-3.8135980">
        <ele>532.0</ele>
        <time>2021-12-27T13:26:44Z</time>
      </trkpt>
      <trkpt lat="37.7831870" lon="-3.8135980">
        <ele>532.0</ele>
        <time>2021-12-27T13:26:45Z</time>
      </trkpt>
      <trkpt lat="37.7831870" lon="-3.8135980">
        <ele>532.0</ele>
        <time>2021-12-27T13:26:46Z</time>
      </trkpt>
      <trkpt lat="37.7831870" lon="-3.8135980">
        <ele>532.0</ele>
        <time>2021-12-27T13:26:47Z</time>
      </trkpt>
      <trkpt lat="37.7831870" lon="-3.8135980">
        <ele>532.0</ele>
        <time>2021-12-27T13:26:48Z</time>
      </trkpt>
      <trkpt lat="37.7831870" lon="-3.8135980">
        <ele>532.0</ele>
        <time>2021-12-27T13:26:49Z</time>
      </trkpt>
      <trkpt lat="37.7831870" lon="-3.8135980">
        <ele>532.0</ele>
        <time>2021-12-27T13:26:50Z</time>
      </trkpt>
      <trkpt lat="37.7831870" lon="-3.8135980">
        <ele>532.0</ele>
        <time>2021-12-27T13:26:51Z</time>
      </trkpt>
      <trkpt lat="37.7831870" lon="-3.8135980">
        <ele>531.8</ele>
        <time>2021-12-27T13:26:52Z</time>
      </trkpt>
      <trkpt lat="37.7831870" lon="-3.8135980">
        <ele>531.8</ele>
        <time>2021-12-27T13:26:53Z</time>
      </trkpt>
      <trkpt lat="37.7831870" lon="-3.8135980">
        <ele>531.8</ele>
        <time>2021-12-27T13:26:54Z</time>
      </trkpt>
      <trkpt lat="37.7831870" lon="-3.8135980">
        <ele>531.8</ele>
        <time>2021-12-27T13:26:55Z</time>
      </trkpt>
      <trkpt lat="37.7831870" lon="-3.8135980">
        <ele>531.8</ele>
        <time>2021-12-27T13:26:56Z</time>
      </trkpt>
      <trkpt lat="37.7831870" lon="-3.8135980">
        <ele>531.8</ele>
        <time>2021-12-27T13:26:57Z</time>
      </trkpt>
      <trkpt lat="37.7831870" lon="-3.8135980">
        <ele>531.8</ele>
        <time>2021-12-27T13:26:58Z</time>
      </trkpt>
      <trkpt lat="37.7831870" lon="-3.8135980">
        <ele>531.8</ele>
        <time>2021-12-27T13:26:59Z</time>
      </trkpt>
      <trkpt lat="37.7831870" lon="-3.8135980">
        <ele>531.8</ele>
        <time>2021-12-27T13:27:00Z</time>
      </trkpt>
      <trkpt lat="37.7831870" lon="-3.8135980">
        <ele>531.8</ele>
        <time>2021-12-27T13:27:01Z</time>
      </trkpt>
      <trkpt lat="37.7831870" lon="-3.8135980">
        <ele>531.8</ele>
        <time>2021-12-27T13:27:02Z</time>
      </trkpt>
      <trkpt lat="37.7831870" lon="-3.8135980">
        <ele>531.8</ele>
        <time>2021-12-27T13:27:03Z</time>
      </trkpt>
      <trkpt lat="37.7831870" lon="-3.8135980">
        <ele>531.8</ele>
        <time>2021-12-27T13:27:04Z</time>
      </trkpt>
      <trkpt lat="37.7831870" lon="-3.8135980">
        <ele>531.8</ele>
        <time>2021-12-27T13:27:05Z</time>
      </trkpt>
      <trkpt lat="37.7831870" lon="-3.8135980">
        <ele>531.8</ele>
        <time>2021-12-27T13:27:06Z</time>
      </trkpt>
      <trkpt lat="37.7831870" lon="-3.8135980">
        <ele>531.8</ele>
        <time>2021-12-27T13:27:07Z</time>
      </trkpt>
      <trkpt lat="37.7831870" lon="-3.8135980">
        <ele>531.8</ele>
        <time>2021-12-27T13:27:08Z</time>
      </trkpt>
      <trkpt lat="37.7831870" lon="-3.8135980">
        <ele>531.8</ele>
        <time>2021-12-27T13:27:09Z</time>
      </trkpt>
      <trkpt lat="37.7831870" lon="-3.8135980">
        <ele>531.8</ele>
        <time>2021-12-27T13:27:10Z</time>
      </trkpt>
      <trkpt lat="37.7831870" lon="-3.8135980">
        <ele>531.8</ele>
        <time>2021-12-27T13:27:11Z</time>
      </trkpt>
      <trkpt lat="37.7831870" lon="-3.8135980">
        <ele>531.8</ele>
        <time>2021-12-27T13:27:12Z</time>
      </trkpt>
      <trkpt lat="37.7831870" lon="-3.8135980">
        <ele>531.8</ele>
        <time>2021-12-27T13:27:13Z</time>
      </trkpt>
      <trkpt lat="37.7831870" lon="-3.8135980">
        <ele>531.8</ele>
        <time>2021-12-27T13:27:14Z</time>
      </trkpt>
      <trkpt lat="37.7831870" lon="-3.8135980">
        <ele>531.8</ele>
        <time>2021-12-27T13:27:15Z</time>
      </trkpt>
      <trkpt lat="37.7831870" lon="-3.8135980">
        <ele>531.8</ele>
        <time>2021-12-27T13:27:16Z</time>
      </trkpt>
      <trkpt lat="37.7831870" lon="-3.8135980">
        <ele>531.8</ele>
        <time>2021-12-27T13:27:17Z</time>
      </trkpt>
      <trkpt lat="37.7831870" lon="-3.8135980">
        <ele>531.8</ele>
        <time>2021-12-27T13:27:18Z</time>
      </trkpt>
      <trkpt lat="37.7831870" lon="-3.8135980">
        <ele>531.8</ele>
        <time>2021-12-27T13:27:19Z</time>
      </trkpt>
      <trkpt lat="37.7831870" lon="-3.8135980">
        <ele>531.8</ele>
        <time>2021-12-27T13:27:20Z</time>
      </trkpt>
      <trkpt lat="37.7831870" lon="-3.8135980">
        <ele>531.8</ele>
        <time>2021-12-27T13:27:21Z</time>
      </trkpt>
      <trkpt lat="37.7831870" lon="-3.8135980">
        <ele>531.8</ele>
        <time>2021-12-27T13:27:22Z</time>
      </trkpt>
      <trkpt lat="37.7831870" lon="-3.8135520">
        <ele>531.8</ele>
        <time>2021-12-27T13:27:23Z</time>
      </trkpt>
      <trkpt lat="37.7831900" lon="-3.8135180">
        <ele>531.8</ele>
        <time>2021-12-27T13:27:24Z</time>
      </trkpt>
      <trkpt lat="37.7831970" lon="-3.8134820">
        <ele>531.8</ele>
        <time>2021-12-27T13:27:25Z</time>
      </trkpt>
      <trkpt lat="37.7832030" lon="-3.8134460">
        <ele>531.8</ele>
        <time>2021-12-27T13:27:26Z</time>
      </trkpt>
      <trkpt lat="37.7832100" lon="-3.8134100">
        <ele>531.8</ele>
        <time>2021-12-27T13:27:27Z</time>
      </trkpt>
      <trkpt lat="37.7832190" lon="-3.8133780">
        <ele>531.8</ele>
        <time>2021-12-27T13:27:28Z</time>
      </trkpt>
      <trkpt lat="37.7832190" lon="-3.8133470">
        <ele>531.8</ele>
        <time>2021-12-27T13:27:29Z</time>
      </trkpt>
      <trkpt lat="37.7832190" lon="-3.8133120">
        <ele>532.0</ele>
        <time>2021-12-27T13:27:30Z</time>
      </trkpt>
      <trkpt lat="37.7832220" lon="-3.8132750">
        <ele>532.0</ele>
        <time>2021-12-27T13:27:31Z</time>
      </trkpt>
      <trkpt lat="37.7832290" lon="-3.8132450">
        <ele>532.0</ele>
        <time>2021-12-27T13:27:32Z</time>
      </trkpt>
      <trkpt lat="37.7832450" lon="-3.8132150">
        <ele>532.0</ele>
        <time>2021-12-27T13:27:33Z</time>
      </trkpt>
      <trkpt lat="37.7832670" lon="-3.8131820">
        <ele>532.0</ele>
        <time>2021-12-27T13:27:34Z</time>
      </trkpt>
      <trkpt lat="37.7832860" lon="-3.8131460">
        <ele>532.0</ele>
        <time>2021-12-27T13:27:35Z</time>
      </trkpt>
      <trkpt lat="37.7833090" lon="-3.8131080">
        <ele>532.0</ele>
        <time>2021-12-27T13:27:36Z</time>
      </trkpt>
      <trkpt lat="37.7833410" lon="-3.8130700">
        <ele>531.8</ele>
        <time>2021-12-27T13:27:37Z</time>
      </trkpt>
      <trkpt lat="37.7833700" lon="-3.8130250">
        <ele>531.8</ele>
        <time>2021-12-27T13:27:38Z</time>
      </trkpt>
      <trkpt lat="37.7834050" lon="-3.8129820">
        <ele>531.8</ele>
        <time>2021-12-27T13:27:39Z</time>
      </trkpt>
      <trkpt lat="37.7834430" lon="-3.8129350">
        <ele>531.6</ele>
        <time>2021-12-27T13:27:40Z</time>
      </trkpt>
      <trkpt lat="37.7834780" lon="-3.8128870">
        <ele>531.6</ele>
        <time>2021-12-27T13:27:41Z</time>
      </trkpt>
      <trkpt lat="37.7835170" lon="-3.8128350">
        <ele>531.6</ele>
        <time>2021-12-27T13:27:42Z</time>
      </trkpt>
      <trkpt lat="37.7835550" lon="-3.8127850">
        <ele>531.6</ele>
        <time>2021-12-27T13:27:43Z</time>
      </trkpt>
      <trkpt lat="37.7836000" lon="-3.8127340">
        <ele>531.4</ele>
        <time>2021-12-27T13:27:44Z</time>
      </trkpt>
      <trkpt lat="37.7836450" lon="-3.8126820">
        <ele>531.2</ele>
        <time>2021-12-27T13:27:45Z</time>
      </trkpt>
      <trkpt lat="37.7836930" lon="-3.8126330">
        <ele>531.2</ele>
        <time>2021-12-27T13:27:46Z</time>
      </trkpt>
      <trkpt lat="37.7837380" lon="-3.8125840">
        <ele>530.8</ele>
        <time>2021-12-27T13:27:47Z</time>
      </trkpt>
      <trkpt lat="37.7837820" lon="-3.8125330">
        <ele>530.6</ele>
        <time>2021-12-27T13:27:48Z</time>
      </trkpt>
      <trkpt lat="37.7838270" lon="-3.8124850">
        <ele>530.4</ele>
        <time>2021-12-27T13:27:49Z</time>
      </trkpt>
      <trkpt lat="37.7838780" lon="-3.8124360">
        <ele>530.2</ele>
        <time>2021-12-27T13:27:50Z</time>
      </trkpt>
      <trkpt lat="37.7839260" lon="-3.8123920">
        <ele>530.0</ele>
        <time>2021-12-27T13:27:51Z</time>
      </trkpt>
      <trkpt lat="37.7839840" lon="-3.8123480">
        <ele>529.8</ele>
        <time>2021-12-27T13:27:52Z</time>
      </trkpt>
      <trkpt lat="37.7840380" lon="-3.8123030">
        <ele>529.6</ele>
        <time>2021-12-27T13:27:53Z</time>
      </trkpt>
      <trkpt lat="37.7840960" lon="-3.8122620">
        <ele>529.6</ele>
        <time>2021-12-27T13:27:54Z</time>
      </trkpt>
      <trkpt lat="37.7841540" lon="-3.8122240">
        <ele>529.4</ele>
        <time>2021-12-27T13:27:55Z</time>
      </trkpt>
      <trkpt lat="37.7842140" lon="-3.8121870">
        <ele>529.2</ele>
        <time>2021-12-27T13:27:56Z</time>
      </trkpt>
      <trkpt lat="37.7842750" lon="-3.8121500">
        <ele>528.8</ele>
        <time>2021-12-27T13:27:57Z</time>
      </trkpt>
      <trkpt lat="37.7843300" lon="-3.8121120">
        <ele>528.6</ele>
        <time>2021-12-27T13:27:58Z</time>
      </trkpt>
      <trkpt lat="37.7843810" lon="-3.8120750">
        <ele>528.4</ele>
        <time>2021-12-27T13:27:59Z</time>
      </trkpt>
      <trkpt lat="37.7844320" lon="-3.8120380">
        <ele>528.2</ele>
        <time>2021-12-27T13:28:00Z</time>
      </trkpt>
      <trkpt lat="37.7844860" lon="-3.8120080">
        <ele>528.0</ele>
        <time>2021-12-27T13:28:01Z</time>
      </trkpt>
      <trkpt lat="37.7845340" lon="-3.8119830">
        <ele>527.8</ele>
        <time>2021-12-27T13:28:02Z</time>
      </trkpt>
      <trkpt lat="37.7845860" lon="-3.8119620">
        <ele>527.6</ele>
        <time>2021-12-27T13:28:03Z</time>
      </trkpt>
      <trkpt lat="37.7846370" lon="-3.8119470">
        <ele>527.4</ele>
        <time>2021-12-27T13:28:04Z</time>
      </trkpt>
      <trkpt lat="37.7846910" lon="-3.8119380">
        <ele>527.2</ele>
        <time>2021-12-27T13:28:05Z</time>
      </trkpt>
      <trkpt lat="37.7847460" lon="-3.8119370">
        <ele>527.0</ele>
        <time>2021-12-27T13:28:06Z</time>
      </trkpt>
      <trkpt lat="37.7847940" lon="-3.8119400">
        <ele>527.0</ele>
        <time>2021-12-27T13:28:07Z</time>
      </trkpt>
      <trkpt lat="37.7848380" lon="-3.8119450">
        <ele>526.8</ele>
        <time>2021-12-27T13:28:08Z</time>
      </trkpt>
      <trkpt lat="37.7848860" lon="-3.8119550">
        <ele>526.6</ele>
        <time>2021-12-27T13:28:09Z</time>
      </trkpt>
      <trkpt lat="37.7849280" lon="-3.8119650">
        <ele>526.4</ele>
        <time>2021-12-27T13:28:10Z</time>
      </trkpt>
      <trkpt lat="37.7849660" lon="-3.8119800">
        <ele>526.2</ele>
        <time>2021-12-27T13:28:11Z</time>
      </trkpt>
      <trkpt lat="37.7849980" lon="-3.8120020">
        <ele>526.0</ele>
        <time>2021-12-27T13:28:12Z</time>
      </trkpt>
      <trkpt lat="37.7850300" lon="-3.8120280">
        <ele>525.8</ele>
        <time>2021-12-27T13:28:13Z</time>
      </trkpt>
      <trkpt lat="37.7850660" lon="-3.8120560">
        <ele>525.6</ele>
        <time>2021-12-27T13:28:14Z</time>
      </trkpt>
      <trkpt lat="37.7850910" lon="-3.8120920">
        <ele>525.4</ele>
        <time>2021-12-27T13:28:15Z</time>
      </trkpt>
      <trkpt lat="37.7851140" lon="-3.8121280">
        <ele>525.2</ele>
        <time>2021-12-27T13:28:16Z</time>
      </trkpt>
      <trkpt lat="37.7851300" lon="-3.8121680">
        <ele>525.2</ele>
        <time>2021-12-27T13:28:17Z</time>
      </trkpt>
      <trkpt lat="37.7851460" lon="-3.8122020">
        <ele>525.0</ele>
        <time>2021-12-27T13:28:18Z</time>
      </trkpt>
      <trkpt lat="37.7851620" lon="-3.8122250">
        <ele>524.8</ele>
        <time>2021-12-27T13:28:19Z</time>
      </trkpt>
      <trkpt lat="37.7851710" lon="-3.8122450">
        <ele>524.8</ele>
        <time>2021-12-27T13:28:20Z</time>
      </trkpt>
      <trkpt lat="37.7851840" lon="-3.8122650">
        <ele>524.6</ele>
        <time>2021-12-27T13:28:21Z</time>
      </trkpt>
      <trkpt lat="37.7851840" lon="-3.8122650">
        <ele>524.6</ele>
        <time>2021-12-27T13:28:22Z</time>
      </trkpt>
      <trkpt lat="37.7851940" lon="-3.8123020">
        <ele>524.6</ele>
        <time>2021-12-27T13:28:23Z</time>
      </trkpt>
      <trkpt lat="37.7851940" lon="-3.8123020">
        <ele>524.4</ele>
        <time>2021-12-27T13:28:24Z</time>
      </trkpt>
      <trkpt lat="37.7851970" lon="-3.8123350">
        <ele>524.2</ele>
        <time>2021-12-27T13:28:25Z</time>
      </trkpt>
      <trkpt lat="37.7851970" lon="-3.8123350">
        <ele>524.0</ele>
        <time>2021-12-27T13:28:26Z</time>
      </trkpt>
      <trkpt lat="37.7852060" lon="-3.8123700">
        <ele>523.8</ele>
        <time>2021-12-27T13:28:27Z</time>
      </trkpt>
      <trkpt lat="37.7852060" lon="-3.8123700">
        <ele>523.8</ele>
        <time>2021-12-27T13:28:28Z</time>
      </trkpt>
      <trkpt lat="37.7852160" lon="-3.8124000">
        <ele>523.6</ele>
        <time>2021-12-27T13:28:29Z</time>
      </trkpt>
      <trkpt lat="37.7852160" lon="-3.8124000">
        <ele>523.4</ele>
        <time>2021-12-27T13:28:30Z</time>
      </trkpt>
      <trkpt lat="37.7852290" lon="-3.8124360">
        <ele>523.2</ele>
        <time>2021-12-27T13:28:31Z</time>
      </trkpt>
      <trkpt lat="37.7852290" lon="-3.8124360">
        <ele>523.0</ele>
        <time>2021-12-27T13:28:32Z</time>
      </trkpt>
      <trkpt lat="37.7852480" lon="-3.8124680">
        <ele>522.8</ele>
        <time>2021-12-27T13:28:33Z</time>
      </trkpt>
      <trkpt lat="37.7852610" lon="-3.8124880">
        <ele>522.6</ele>
        <time>2021-12-27T13:28:34Z</time>
      </trkpt>
      <trkpt lat="37.7852610" lon="-3.8124880">
        <ele>522.6</ele>
        <time>2021-12-27T13:28:35Z</time>
      </trkpt>
      <trkpt lat="37.7852770" lon="-3.8125170">
        <ele>522.4</ele>
        <time>2021-12-27T13:28:36Z</time>
      </trkpt>
      <trkpt lat="37.7852770" lon="-3.8125170">
        <ele>522.4</ele>
        <time>2021-12-27T13:28:37Z</time>
      </trkpt>
      <trkpt lat="37.7852770" lon="-3.8125170">
        <ele>522.2</ele>
        <time>2021-12-27T13:28:38Z</time>
      </trkpt>
      <trkpt lat="37.7852770" lon="-3.8125170">
        <ele>522.0</ele>
        <time>2021-12-27T13:28:39Z</time>
      </trkpt>
      <trkpt lat="37.7853150" lon="-3.8125620">
        <ele>520.8</ele>
        <time>2021-12-27T13:28:58Z</time>
      </trkpt>
      <trkpt lat="37.7853150" lon="-3.8125620">
        <ele>520.6</ele>
        <time>2021-12-27T13:28:59Z</time>
      </trkpt>
      <trkpt lat="37.7853470" lon="-3.8125600">
        <ele>520.6</ele>
        <time>2021-12-27T13:29:00Z</time>
      </trkpt>
      <trkpt lat="37.7853470" lon="-3.8125600">
        <ele>520.6</ele>
        <time>2021-12-27T13:29:01Z</time>
      </trkpt>
      <trkpt lat="37.7853600" lon="-3.8125320">
        <ele>520.4</ele>
        <time>2021-12-27T13:29:02Z</time>
      </trkpt>
      <trkpt lat="37.7853600" lon="-3.8125320">
        <ele>520.4</ele>
        <time>2021-12-27T13:29:03Z</time>
      </trkpt>
      <trkpt lat="37.7853470" lon="-3.8125070">
        <ele>520.2</ele>
        <time>2021-12-27T13:29:04Z</time>
      </trkpt>
      <trkpt lat="37.7853470" lon="-3.8125070">
        <ele>520.0</ele>
        <time>2021-12-27T13:29:05Z</time>
      </trkpt>
      <trkpt lat="37.7853470" lon="-3.8125070">
        <ele>520.0</ele>
        <time>2021-12-27T13:29:06Z</time>
      </trkpt>
      <trkpt lat="37.7853470" lon="-3.8125070">
        <ele>519.8</ele>
        <time>2021-12-27T13:29:07Z</time>
      </trkpt>
      <trkpt lat="37.7853470" lon="-3.8125070">
        <ele>519.8</ele>
        <time>2021-12-27T13:29:08Z</time>
      </trkpt>
      <trkpt lat="37.7853410" lon="-3.8125650">
        <ele>517.4</ele>
        <time>2021-12-27T13:33:30Z</time>
      </trkpt>
      <trkpt lat="37.7853470" lon="-3.8125900">
        <ele>517.4</ele>
        <time>2021-12-27T13:33:31Z</time>
      </trkpt>
      <trkpt lat="37.7853540" lon="-3.8126160">
        <ele>517.4</ele>
        <time>2021-12-27T13:33:32Z</time>
      </trkpt>
      <trkpt lat="37.7853660" lon="-3.8126430">
        <ele>517.4</ele>
        <time>2021-12-27T13:33:33Z</time>
      </trkpt>
      <trkpt lat="37.7853760" lon="-3.8126730">
        <ele>517.2</ele>
        <time>2021-12-27T13:33:34Z</time>
      </trkpt>
      <trkpt lat="37.7853890" lon="-3.8127020">
        <ele>517.2</ele>
        <time>2021-12-27T13:33:35Z</time>
      </trkpt>
      <trkpt lat="37.7854020" lon="-3.8127280">
        <ele>517.2</ele>
        <time>2021-12-27T13:33:36Z</time>
      </trkpt>
      <trkpt lat="37.7854020" lon="-3.8127280">
        <ele>517.0</ele>
        <time>2021-12-27T13:33:37Z</time>
      </trkpt>
      <trkpt lat="37.7854140" lon="-3.8127660">
        <ele>517.0</ele>
        <time>2021-12-27T13:33:38Z</time>
      </trkpt>
      <trkpt lat="37.7854140" lon="-3.8127660">
        <ele>517.0</ele>
        <time>2021-12-27T13:33:39Z</time>
      </trkpt>
      <trkpt lat="37.7854270" lon="-3.8128080">
        <ele>517.0</ele>
        <time>2021-12-27T13:33:40Z</time>
      </trkpt>
      <trkpt lat="37.7854400" lon="-3.8128300">
        <ele>517.0</ele>
        <time>2021-12-27T13:33:41Z</time>
      </trkpt>
      <trkpt lat="37.7854500" lon="-3.8128550">
        <ele>517.0</ele>
        <time>2021-12-27T13:33:42Z</time>
      </trkpt>
      <trkpt lat="37.7854590" lon="-3.8128820">
        <ele>517.0</ele>
        <time>2021-12-27T13:33:43Z</time>
      </trkpt>
      <trkpt lat="37.7854660" lon="-3.8129070">
        <ele>517.0</ele>
        <time>2021-12-27T13:33:44Z</time>
      </trkpt>
      <trkpt lat="37.7854750" lon="-3.8129300">
        <ele>516.8</ele>
        <time>2021-12-27T13:33:45Z</time>
      </trkpt>
      <trkpt lat="37.7854850" lon="-3.8129540">
        <ele>516.8</ele>
        <time>2021-12-27T13:33:46Z</time>
      </trkpt>
      <trkpt lat="37.7854880" lon="-3.8129780">
        <ele>516.8</ele>
        <time>2021-12-27T13:33:47Z</time>
      </trkpt>
      <trkpt lat="37.7854940" lon="-3.8130000">
        <ele>516.6</ele>
        <time>2021-12-27T13:33:48Z</time>
      </trkpt>
      <trkpt lat="37.7854940" lon="-3.8130000">
        <ele>516.6</ele>
        <time>2021-12-27T13:33:49Z</time>
      </trkpt>
      <trkpt lat="37.7855040" lon="-3.8130430">
        <ele>516.8</ele>
        <time>2021-12-27T13:33:50Z</time>
      </trkpt>
      <trkpt lat="37.7855070" lon="-3.8130680">
        <ele>516.8</ele>
        <time>2021-12-27T13:33:51Z</time>
      </trkpt>
      <trkpt lat="37.7855140" lon="-3.8130980">
        <ele>516.8</ele>
        <time>2021-12-27T13:33:52Z</time>
      </trkpt>
      <trkpt lat="37.7855230" lon="-3.8131280">
        <ele>516.8</ele>
        <time>2021-12-27T13:33:53Z</time>
      </trkpt>
      <trkpt lat="37.7855300" lon="-3.8131570">
        <ele>516.8</ele>
        <time>2021-12-27T13:33:54Z</time>
      </trkpt>
      <trkpt lat="37.7855390" lon="-3.8131800">
        <ele>516.8</ele>
        <time>2021-12-27T13:33:55Z</time>
      </trkpt>
      <trkpt lat="37.7855460" lon="-3.8132020">
        <ele>516.8</ele>
        <time>2021-12-27T13:33:56Z</time>
      </trkpt>
      <trkpt lat="37.7855520" lon="-3.8132230">
        <ele>516.8</ele>
        <time>2021-12-27T13:33:57Z</time>
      </trkpt>
      <trkpt lat="37.7855550" lon="-3.8132480">
        <ele>516.8</ele>
        <time>2021-12-27T13:33:58Z</time>
      </trkpt>
      <trkpt lat="37.7855620" lon="-3.8132770">
        <ele>516.8</ele>
        <time>2021-12-27T13:33:59Z</time>
      </trkpt>
      <trkpt lat="37.7855680" lon="-3.8133100">
        <ele>516.6</ele>
        <time>2021-12-27T13:34:00Z</time>
      </trkpt>
      <trkpt lat="37.7855740" lon="-3.8133450">
        <ele>516.6</ele>
        <time>2021-12-27T13:34:01Z</time>
      </trkpt>
      <trkpt lat="37.7855840" lon="-3.8133820">
        <ele>516.6</ele>
        <time>2021-12-27T13:34:02Z</time>
      </trkpt>
      <trkpt lat="37.7855900" lon="-3.8134220">
        <ele>516.4</ele>
        <time>2021-12-27T13:34:03Z</time>
      </trkpt>
      <trkpt lat="37.7856000" lon="-3.8134660">
        <ele>516.4</ele>
        <time>2021-12-27T13:34:04Z</time>
      </trkpt>
      <trkpt lat="37.7856100" lon="-3.8135080">
        <ele>516.4</ele>
        <time>2021-12-27T13:34:05Z</time>
      </trkpt>
      <trkpt lat="37.7856260" lon="-3.8135520">
        <ele>516.4</ele>
        <time>2021-12-27T13:34:06Z</time>
      </trkpt>
      <trkpt lat="37.7856380" lon="-3.8135950">
        <ele>516.4</ele>
        <time>2021-12-27T13:34:07Z</time>
      </trkpt>
      <trkpt lat="37.7856510" lon="-3.8136420">
        <ele>516.4</ele>
        <time>2021-12-27T13:34:08Z</time>
      </trkpt>
      <trkpt lat="37.7856670" lon="-3.8136870">
        <ele>516.2</ele>
        <time>2021-12-27T13:34:09Z</time>
      </trkpt>
      <trkpt lat="37.7856830" lon="-3.8137320">
        <ele>516.2</ele>
        <time>2021-12-27T13:34:10Z</time>
      </trkpt>
      <trkpt lat="37.7857020" lon="-3.8137770">
        <ele>516.0</ele>
        <time>2021-12-27T13:34:11Z</time>
      </trkpt>
      <trkpt lat="37.7857180" lon="-3.8138220">
        <ele>516.0</ele>
        <time>2021-12-27T13:34:12Z</time>
      </trkpt>
      <trkpt lat="37.7857310" lon="-3.8138650">
        <ele>515.8</ele>
        <time>2021-12-27T13:34:13Z</time>
      </trkpt>
      <trkpt lat="37.7857500" lon="-3.8139100">
        <ele>515.8</ele>
        <time>2021-12-27T13:34:14Z</time>
      </trkpt>
      <trkpt lat="37.7857660" lon="-3.8139550">
        <ele>515.6</ele>
        <time>2021-12-27T13:34:15Z</time>
      </trkpt>
      <trkpt lat="37.7857820" lon="-3.8140020">
        <ele>515.6</ele>
        <time>2021-12-27T13:34:16Z</time>
      </trkpt>
      <trkpt lat="37.7857980" lon="-3.8140520">
        <ele>515.4</ele>
        <time>2021-12-27T13:34:17Z</time>
      </trkpt>
      <trkpt lat="37.7858180" lon="-3.8141050">
        <ele>515.4</ele>
        <time>2021-12-27T13:34:18Z</time>
      </trkpt>
      <trkpt lat="37.7858400" lon="-3.8141580">
        <ele>515.2</ele>
        <time>2021-12-27T13:34:19Z</time>
      </trkpt>
      <trkpt lat="37.7858590" lon="-3.8142120">
        <ele>515.2</ele>
        <time>2021-12-27T13:34:20Z</time>
      </trkpt>
      <trkpt lat="37.7858850" lon="-3.8142630">
        <ele>515.2</ele>
        <time>2021-12-27T13:34:21Z</time>
      </trkpt>
      <trkpt lat="37.7859040" lon="-3.8143150">
        <ele>515.2</ele>
        <time>2021-12-27T13:34:22Z</time>
      </trkpt>
      <trkpt lat="37.7859260" lon="-3.8143660">
        <ele>515.2</ele>
        <time>2021-12-27T13:34:23Z</time>
      </trkpt>
      <trkpt lat="37.7859490" lon="-3.8144170">
        <ele>515.2</ele>
        <time>2021-12-27T13:34:24Z</time>
      </trkpt>
      <trkpt lat="37.7859710" lon="-3.8144650">
        <ele>515.2</ele>
        <time>2021-12-27T13:34:25Z</time>
      </trkpt>
      <trkpt lat="37.7860030" lon="-3.8145130">
        <ele>515.0</ele>
        <time>2021-12-27T13:34:26Z</time>
      </trkpt>
      <trkpt lat="37.7860290" lon="-3.8145600">
        <ele>515.0</ele>
        <time>2021-12-27T13:34:27Z</time>
      </trkpt>
      <trkpt lat="37.7860580" lon="-3.8146030">
        <ele>514.8</ele>
        <time>2021-12-27T13:34:28Z</time>
      </trkpt>
      <trkpt lat="37.7860830" lon="-3.8146430">
        <ele>514.8</ele>
        <time>2021-12-27T13:34:29Z</time>
      </trkpt>
      <trkpt lat="37.7861090" lon="-3.8146780">
        <ele>514.8</ele>
        <time>2021-12-27T13:34:30Z</time>
      </trkpt>
      <trkpt lat="37.7861410" lon="-3.8147050">
        <ele>514.8</ele>
        <time>2021-12-27T13:34:31Z</time>
      </trkpt>
      <trkpt lat="37.7861700" lon="-3.8147320">
        <ele>514.6</ele>
        <time>2021-12-27T13:34:32Z</time>
      </trkpt>
      <trkpt lat="37.7862020" lon="-3.8147650">
        <ele>514.6</ele>
        <time>2021-12-27T13:34:33Z</time>
      </trkpt>
      <trkpt lat="37.7862270" lon="-3.8148050">
        <ele>514.6</ele>
        <time>2021-12-27T13:34:34Z</time>
      </trkpt>
      <trkpt lat="37.7862560" lon="-3.8148480">
        <ele>514.4</ele>
        <time>2021-12-27T13:34:35Z</time>
      </trkpt>
      <trkpt lat="37.7862850" lon="-3.8148930">
        <ele>514.4</ele>
        <time>2021-12-27T13:34:36Z</time>
      </trkpt>
      <trkpt lat="37.7863200" lon="-3.8149400">
        <ele>514.2</ele>
        <time>2021-12-27T13:34:37Z</time>
      </trkpt>
      <trkpt lat="37.7863490" lon="-3.8149880">
        <ele>514.2</ele>
        <time>2021-12-27T13:34:38Z</time>
      </trkpt>
      <trkpt lat="37.7863840" lon="-3.8150350">
        <ele>514.0</ele>
        <time>2021-12-27T13:34:39Z</time>
      </trkpt>
      <trkpt lat="37.7864160" lon="-3.8150800">
        <ele>514.0</ele>
        <time>2021-12-27T13:34:40Z</time>
      </trkpt>
      <trkpt lat="37.7864480" lon="-3.8151230">
        <ele>513.8</ele>
        <time>2021-12-27T13:34:41Z</time>
      </trkpt>
      <trkpt lat="37.7864860" lon="-3.8151620">
        <ele>513.8</ele>
        <time>2021-12-27T13:34:42Z</time>
      </trkpt>
      <trkpt lat="37.7865220" lon="-3.8152000">
        <ele>513.6</ele>
        <time>2021-12-27T13:34:43Z</time>
      </trkpt>
      <trkpt lat="37.7865600" lon="-3.8152380">
        <ele>513.6</ele>
        <time>2021-12-27T13:34:44Z</time>
      </trkpt>
      <trkpt lat="37.7865920" lon="-3.8152730">
        <ele>513.4</ele>
        <time>2021-12-27T13:34:45Z</time>
      </trkpt>
      <trkpt lat="37.7866270" lon="-3.8153070">
        <ele>513.2</ele>
        <time>2021-12-27T13:34:46Z</time>
      </trkpt>
      <trkpt lat="37.7866660" lon="-3.8153400">
        <ele>513.2</ele>
        <time>2021-12-27T13:34:47Z</time>
      </trkpt>
      <trkpt lat="37.7867040" lon="-3.8153740">
        <ele>513.0</ele>
        <time>2021-12-27T13:34:48Z</time>
      </trkpt>
      <trkpt lat="37.7867420" lon="-3.8154070">
        <ele>513.0</ele>
        <time>2021-12-27T13:34:49Z</time>
      </trkpt>
      <trkpt lat="37.7867810" lon="-3.8154380">
        <ele>512.8</ele>
        <time>2021-12-27T13:34:50Z</time>
      </trkpt>
      <trkpt lat="37.7868160" lon="-3.8154680">
        <ele>512.8</ele>
        <time>2021-12-27T13:34:51Z</time>
      </trkpt>
      <trkpt lat="37.7868510" lon="-3.8155000">
        <ele>512.8</ele>
        <time>2021-12-27T13:34:52Z</time>
      </trkpt>
      <trkpt lat="37.7868830" lon="-3.8155330">
        <ele>512.6</ele>
        <time>2021-12-27T13:34:53Z</time>
      </trkpt>
      <trkpt lat="37.7869220" lon="-3.8155680">
        <ele>512.4</ele>
        <time>2021-12-27T13:34:54Z</time>
      </trkpt>
      <trkpt lat="37.7869570" lon="-3.8156000">
        <ele>512.4</ele>
        <time>2021-12-27T13:34:55Z</time>
      </trkpt>
      <trkpt lat="37.7869950" lon="-3.8156300">
        <ele>512.2</ele>
        <time>2021-12-27T13:34:56Z</time>
      </trkpt>
      <trkpt lat="37.7870300" lon="-3.8156600">
        <ele>512.0</ele>
        <time>2021-12-27T13:34:57Z</time>
      </trkpt>
      <trkpt lat="37.7870720" lon="-3.8156880">
        <ele>512.0</ele>
        <time>2021-12-27T13:34:58Z</time>
      </trkpt>
      <trkpt lat="37.7871100" lon="-3.8157140">
        <ele>511.8</ele>
        <time>2021-12-27T13:34:59Z</time>
      </trkpt>
      <trkpt lat="37.7871490" lon="-3.8157370">
        <ele>511.8</ele>
        <time>2021-12-27T13:35:00Z</time>
      </trkpt>
      <trkpt lat="37.7871870" lon="-3.8157600">
        <ele>511.6</ele>
        <time>2021-12-27T13:35:01Z</time>
      </trkpt>
      <trkpt lat="37.7872220" lon="-3.8157850">
        <ele>511.6</ele>
        <time>2021-12-27T13:35:02Z</time>
      </trkpt>
      <trkpt lat="37.7872580" lon="-3.8158100">
        <ele>511.4</ele>
        <time>2021-12-27T13:35:03Z</time>
      </trkpt>
      <trkpt lat="37.7872960" lon="-3.8158300">
        <ele>511.4</ele>
        <time>2021-12-27T13:35:04Z</time>
      </trkpt>
      <trkpt lat="37.7873340" lon="-3.8158530">
        <ele>511.2</ele>
        <time>2021-12-27T13:35:05Z</time>
      </trkpt>
      <trkpt lat="37.7873730" lon="-3.8158750">
        <ele>511.2</ele>
        <time>2021-12-27T13:35:06Z</time>
      </trkpt>
      <trkpt lat="37.7874080" lon="-3.8158940">
        <ele>511.0</ele>
        <time>2021-12-27T13:35:07Z</time>
      </trkpt>
      <trkpt lat="37.7874400" lon="-3.8159120">
        <ele>511.0</ele>
        <time>2021-12-27T13:35:08Z</time>
      </trkpt>
      <trkpt lat="37.7874720" lon="-3.8159280">
        <ele>511.0</ele>
        <time>2021-12-27T13:35:09Z</time>
      </trkpt>
      <trkpt lat="37.7875010" lon="-3.8159450">
        <ele>510.8</ele>
        <time>2021-12-27T13:35:10Z</time>
      </trkpt>
      <trkpt lat="37.7875360" lon="-3.8159630">
        <ele>510.8</ele>
        <time>2021-12-27T13:35:11Z</time>
      </trkpt>
      <trkpt lat="37.7875710" lon="-3.8159780">
        <ele>510.8</ele>
        <time>2021-12-27T13:35:12Z</time>
      </trkpt>
      <trkpt lat="37.7876000" lon="-3.8159930">
        <ele>510.6</ele>
        <time>2021-12-27T13:35:13Z</time>
      </trkpt>
      <trkpt lat="37.7876350" lon="-3.8160100">
        <ele>510.6</ele>
        <time>2021-12-27T13:35:14Z</time>
      </trkpt>
      <trkpt lat="37.7876670" lon="-3.8160280">
        <ele>510.6</ele>
        <time>2021-12-27T13:35:15Z</time>
      </trkpt>
      <trkpt lat="37.7876960" lon="-3.8160450">
        <ele>510.4</ele>
        <time>2021-12-27T13:35:16Z</time>
      </trkpt>
      <trkpt lat="37.7877310" lon="-3.8160600">
        <ele>510.4</ele>
        <time>2021-12-27T13:35:17Z</time>
      </trkpt>
      <trkpt lat="37.7877630" lon="-3.8160750">
        <ele>510.4</ele>
        <time>2021-12-27T13:35:18Z</time>
      </trkpt>
      <trkpt lat="37.7877950" lon="-3.8160920">
        <ele>510.4</ele>
        <time>2021-12-27T13:35:19Z</time>
      </trkpt>
      <trkpt lat="37.7878270" lon="-3.8161070">
        <ele>510.2</ele>
        <time>2021-12-27T13:35:20Z</time>
      </trkpt>
      <trkpt lat="37.7878620" lon="-3.8161220">
        <ele>510.2</ele>
        <time>2021-12-27T13:35:21Z</time>
      </trkpt>
      <trkpt lat="37.7878940" lon="-3.8161360">
        <ele>510.2</ele>
        <time>2021-12-27T13:35:22Z</time>
      </trkpt>
      <trkpt lat="37.7879330" lon="-3.8161520">
        <ele>510.2</ele>
        <time>2021-12-27T13:35:23Z</time>
      </trkpt>
      <trkpt lat="37.7879680" lon="-3.8161650">
        <ele>510.0</ele>
        <time>2021-12-27T13:35:24Z</time>
      </trkpt>
      <trkpt lat="37.7879970" lon="-3.8161800">
        <ele>510.0</ele>
        <time>2021-12-27T13:35:25Z</time>
      </trkpt>
      <trkpt lat="37.7880350" lon="-3.8161930">
        <ele>510.0</ele>
        <time>2021-12-27T13:35:26Z</time>
      </trkpt>
      <trkpt lat="37.7880700" lon="-3.8162050">
        <ele>509.8</ele>
        <time>2021-12-27T13:35:27Z</time>
      </trkpt>
      <trkpt lat="37.7881060" lon="-3.8162170">
        <ele>509.8</ele>
        <time>2021-12-27T13:35:28Z</time>
      </trkpt>
      <trkpt lat="37.7881410" lon="-3.8162250">
        <ele>510.0</ele>
        <time>2021-12-27T13:35:29Z</time>
      </trkpt>
      <trkpt lat="37.7881700" lon="-3.8162370">
        <ele>510.0</ele>
        <time>2021-12-27T13:35:30Z</time>
      </trkpt>
      <trkpt lat="37.7882050" lon="-3.8162470">
        <ele>510.0</ele>
        <time>2021-12-27T13:35:31Z</time>
      </trkpt>
      <trkpt lat="37.7882340" lon="-3.8162560">
        <ele>509.8</ele>
        <time>2021-12-27T13:35:32Z</time>
      </trkpt>
      <trkpt lat="37.7882690" lon="-3.8162630">
        <ele>509.8</ele>
        <time>2021-12-27T13:35:33Z</time>
      </trkpt>
      <trkpt lat="37.7883040" lon="-3.8162720">
        <ele>509.8</ele>
        <time>2021-12-27T13:35:34Z</time>
      </trkpt>
      <trkpt lat="37.7883330" lon="-3.8162780">
        <ele>509.8</ele>
        <time>2021-12-27T13:35:35Z</time>
      </trkpt>
      <trkpt lat="37.7883680" lon="-3.8162860">
        <ele>509.8</ele>
        <time>2021-12-27T13:35:36Z</time>
      </trkpt>
      <trkpt lat="37.7884000" lon="-3.8162950">
        <ele>509.8</ele>
        <time>2021-12-27T13:35:37Z</time>
      </trkpt>
      <trkpt lat="37.7884380" lon="-3.8163020">
        <ele>509.8</ele>
        <time>2021-12-27T13:35:38Z</time>
      </trkpt>
      <trkpt lat="37.7884700" lon="-3.8163060">
        <ele>509.8</ele>
        <time>2021-12-27T13:35:39Z</time>
      </trkpt>
      <trkpt lat="37.7885060" lon="-3.8163100">
        <ele>509.8</ele>
        <time>2021-12-27T13:35:40Z</time>
      </trkpt>
      <trkpt lat="37.7885410" lon="-3.8163130">
        <ele>509.8</ele>
        <time>2021-12-27T13:35:41Z</time>
      </trkpt>
      <trkpt lat="37.7885730" lon="-3.8163220">
        <ele>509.8</ele>
        <time>2021-12-27T13:35:42Z</time>
      </trkpt>
      <trkpt lat="37.7886080" lon="-3.8163280">
        <ele>509.8</ele>
        <time>2021-12-27T13:35:43Z</time>
      </trkpt>
      <trkpt lat="37.7886460" lon="-3.8163350">
        <ele>509.6</ele>
        <time>2021-12-27T13:35:44Z</time>
      </trkpt>
      <trkpt lat="37.7886820" lon="-3.8163400">
        <ele>509.6</ele>
        <time>2021-12-27T13:35:45Z</time>
      </trkpt>
      <trkpt lat="37.7887170" lon="-3.8163450">
        <ele>509.6</ele>
        <time>2021-12-27T13:35:46Z</time>
      </trkpt>
      <trkpt lat="37.7887490" lon="-3.8163500">
        <ele>509.6</ele>
        <time>2021-12-27T13:35:47Z</time>
      </trkpt>
      <trkpt lat="37.7887810" lon="-3.8163550">
        <ele>509.4</ele>
        <time>2021-12-27T13:35:48Z</time>
      </trkpt>
      <trkpt lat="37.7888060" lon="-3.8163600">
        <ele>509.4</ele>
        <time>2021-12-27T13:35:49Z</time>
      </trkpt>
      <trkpt lat="37.7888420" lon="-3.8163630">
        <ele>509.4</ele>
        <time>2021-12-27T13:35:50Z</time>
      </trkpt>
      <trkpt lat="37.7888770" lon="-3.8163680">
        <ele>509.4</ele>
        <time>2021-12-27T13:35:51Z</time>
      </trkpt>
      <trkpt lat="37.7889090" lon="-3.8163730">
        <ele>509.4</ele>
        <time>2021-12-27T13:35:52Z</time>
      </trkpt>
      <trkpt lat="37.7889410" lon="-3.8163780">
        <ele>509.4</ele>
        <time>2021-12-27T13:35:53Z</time>
      </trkpt>
      <trkpt lat="37.7889790" lon="-3.8163820">
        <ele>509.4</ele>
        <time>2021-12-27T13:35:54Z</time>
      </trkpt>
      <trkpt lat="37.7890080" lon="-3.8163850">
        <ele>509.4</ele>
        <time>2021-12-27T13:35:55Z</time>
      </trkpt>
      <trkpt lat="37.7890430" lon="-3.8163880">
        <ele>509.4</ele>
        <time>2021-12-27T13:35:56Z</time>
      </trkpt>
      <trkpt lat="37.7890820" lon="-3.8163900">
        <ele>509.2</ele>
        <time>2021-12-27T13:35:57Z</time>
      </trkpt>
      <trkpt lat="37.7891170" lon="-3.8163900">
        <ele>509.2</ele>
        <time>2021-12-27T13:35:58Z</time>
      </trkpt>
      <trkpt lat="37.7891550" lon="-3.8163920">
        <ele>509.2</ele>
        <time>2021-12-27T13:35:59Z</time>
      </trkpt>
      <trkpt lat="37.7891940" lon="-3.8163920">
        <ele>509.2</ele>
        <time>2021-12-27T13:36:00Z</time>
      </trkpt>
      <trkpt lat="37.7892290" lon="-3.8163920">
        <ele>509.2</ele>
        <time>2021-12-27T13:36:01Z</time>
      </trkpt>
      <trkpt lat="37.7892670" lon="-3.8163950">
        <ele>509.2</ele>
        <time>2021-12-27T13:36:02Z</time>
      </trkpt>
      <trkpt lat="37.7893020" lon="-3.8164020">
        <ele>509.2</ele>
        <time>2021-12-27T13:36:03Z</time>
      </trkpt>
      <trkpt lat="37.7893380" lon="-3.8164070">
        <ele>509.2</ele>
        <time>2021-12-27T13:36:04Z</time>
      </trkpt>
      <trkpt lat="37.7893730" lon="-3.8164100">
        <ele>509.2</ele>
        <time>2021-12-27T13:36:05Z</time>
      </trkpt>
      <trkpt lat="37.7894050" lon="-3.8164140">
        <ele>509.2</ele>
        <time>2021-12-27T13:36:06Z</time>
      </trkpt>
      <trkpt lat="37.7894400" lon="-3.8164180">
        <ele>509.2</ele>
        <time>2021-12-27T13:36:07Z</time>
      </trkpt>
      <trkpt lat="37.7894720" lon="-3.8164270">
        <ele>509.0</ele>
        <time>2021-12-27T13:36:08Z</time>
      </trkpt>
      <trkpt lat="37.7895040" lon="-3.8164320">
        <ele>509.0</ele>
        <time>2021-12-27T13:36:09Z</time>
      </trkpt>
      <trkpt lat="37.7895360" lon="-3.8164350">
        <ele>509.0</ele>
        <time>2021-12-27T13:36:10Z</time>
      </trkpt>
      <trkpt lat="37.7895710" lon="-3.8164380">
        <ele>509.0</ele>
        <time>2021-12-27T13:36:11Z</time>
      </trkpt>
      <trkpt lat="37.7895970" lon="-3.8164480">
        <ele>509.0</ele>
        <time>2021-12-27T13:36:12Z</time>
      </trkpt>
      <trkpt lat="37.7896220" lon="-3.8164640">
        <ele>509.0</ele>
        <time>2021-12-27T13:36:13Z</time>
      </trkpt>
      <trkpt lat="37.7896510" lon="-3.8164750">
        <ele>509.0</ele>
        <time>2021-12-27T13:36:14Z</time>
      </trkpt>
      <trkpt lat="37.7896700" lon="-3.8164830">
        <ele>509.0</ele>
        <time>2021-12-27T13:36:15Z</time>
      </trkpt>
      <trkpt lat="37.7896900" lon="-3.8164880">
        <ele>509.0</ele>
        <time>2021-12-27T13:36:16Z</time>
      </trkpt>
      <trkpt lat="37.7897100" lon="-3.8164880">
        <ele>509.0</ele>
        <time>2021-12-27T13:36:17Z</time>
      </trkpt>
      <trkpt lat="37.7897310" lon="-3.8164880">
        <ele>509.0</ele>
        <time>2021-12-27T13:36:18Z</time>
      </trkpt>
      <trkpt lat="37.7897540" lon="-3.8164820">
        <ele>509.0</ele>
        <time>2021-12-27T13:36:19Z</time>
      </trkpt>
      <trkpt lat="37.7897760" lon="-3.8164750">
        <ele>509.0</ele>
        <time>2021-12-27T13:36:20Z</time>
      </trkpt>
      <trkpt lat="37.7898020" lon="-3.8164700">
        <ele>509.0</ele>
        <time>2021-12-27T13:36:21Z</time>
      </trkpt>
      <trkpt lat="37.7898300" lon="-3.8164670">
        <ele>509.0</ele>
        <time>2021-12-27T13:36:22Z</time>
      </trkpt>
      <trkpt lat="37.7898590" lon="-3.8164650">
        <ele>509.0</ele>
        <time>2021-12-27T13:36:23Z</time>
      </trkpt>
      <trkpt lat="37.7898910" lon="-3.8164640">
        <ele>509.0</ele>
        <time>2021-12-27T13:36:24Z</time>
      </trkpt>
      <trkpt lat="37.7899300" lon="-3.8164640">
        <ele>509.0</ele>
        <time>2021-12-27T13:36:25Z</time>
      </trkpt>
      <trkpt lat="37.7899620" lon="-3.8164670">
        <ele>509.0</ele>
        <time>2021-12-27T13:36:26Z</time>
      </trkpt>
      <trkpt lat="37.7899940" lon="-3.8164730">
        <ele>509.0</ele>
        <time>2021-12-27T13:36:27Z</time>
      </trkpt>
      <trkpt lat="37.7900320" lon="-3.8164800">
        <ele>508.8</ele>
        <time>2021-12-27T13:36:28Z</time>
      </trkpt>
      <trkpt lat="37.7900670" lon="-3.8164860">
        <ele>508.8</ele>
        <time>2021-12-27T13:36:29Z</time>
      </trkpt>
      <trkpt lat="37.7901020" lon="-3.8164920">
        <ele>508.8</ele>
        <time>2021-12-27T13:36:30Z</time>
      </trkpt>
      <trkpt lat="37.7901410" lon="-3.8164950">
        <ele>508.8</ele>
        <time>2021-12-27T13:36:31Z</time>
      </trkpt>
      <trkpt lat="37.7901790" lon="-3.8165000">
        <ele>508.8</ele>
        <time>2021-12-27T13:36:32Z</time>
      </trkpt>
      <trkpt lat="37.7902180" lon="-3.8165020">
        <ele>508.6</ele>
        <time>2021-12-27T13:36:33Z</time>
      </trkpt>
      <trkpt lat="37.7902590" lon="-3.8165080">
        <ele>508.6</ele>
        <time>2021-12-27T13:36:34Z</time>
      </trkpt>
      <trkpt lat="37.7903010" lon="-3.8165150">
        <ele>508.6</ele>
        <time>2021-12-27T13:36:35Z</time>
      </trkpt>
      <trkpt lat="37.7903390" lon="-3.8165200">
        <ele>508.6</ele>
        <time>2021-12-27T13:36:36Z</time>
      </trkpt>
      <trkpt lat="37.7903780" lon="-3.8165270">
        <ele>508.6</ele>
        <time>2021-12-27T13:36:37Z</time>
      </trkpt>
      <trkpt lat="37.7904160" lon="-3.8165280">
        <ele>508.6</ele>
        <time>2021-12-27T13:36:38Z</time>
      </trkpt>
      <trkpt lat="37.7904580" lon="-3.8165350">
        <ele>508.6</ele>
        <time>2021-12-27T13:36:39Z</time>
      </trkpt>
      <trkpt lat="37.7904960" lon="-3.8165400">
        <ele>508.6</ele>
        <time>2021-12-27T13:36:40Z</time>
      </trkpt>
      <trkpt lat="37.7905340" lon="-3.8165430">
        <ele>508.6</ele>
        <time>2021-12-27T13:36:41Z</time>
      </trkpt>
      <trkpt lat="37.7905730" lon="-3.8165480">
        <ele>508.6</ele>
        <time>2021-12-27T13:36:42Z</time>
      </trkpt>
      <trkpt lat="37.7906080" lon="-3.8165520">
        <ele>508.6</ele>
        <time>2021-12-27T13:36:43Z</time>
      </trkpt>
      <trkpt lat="37.7906460" lon="-3.8165530">
        <ele>508.6</ele>
        <time>2021-12-27T13:36:44Z</time>
      </trkpt>
      <trkpt lat="37.7906780" lon="-3.8165570">
        <ele>508.8</ele>
        <time>2021-12-27T13:36:45Z</time>
      </trkpt>
      <trkpt lat="37.7907140" lon="-3.8165600">
        <ele>508.8</ele>
        <time>2021-12-27T13:36:46Z</time>
      </trkpt>
      <trkpt lat="37.7907520" lon="-3.8165620">
        <ele>508.8</ele>
        <time>2021-12-27T13:36:47Z</time>
      </trkpt>
      <trkpt lat="37.7907870" lon="-3.8165650">
        <ele>508.8</ele>
        <time>2021-12-27T13:36:48Z</time>
      </trkpt>
      <trkpt lat="37.7908260" lon="-3.8165680">
        <ele>508.6</ele>
        <time>2021-12-27T13:36:49Z</time>
      </trkpt>
      <trkpt lat="37.7908640" lon="-3.8165720">
        <ele>508.6</ele>
        <time>2021-12-27T13:36:50Z</time>
      </trkpt>
      <trkpt lat="37.7909020" lon="-3.8165770">
        <ele>508.6</ele>
        <time>2021-12-27T13:36:51Z</time>
      </trkpt>
      <trkpt lat="37.7909410" lon="-3.8165800">
        <ele>508.8</ele>
        <time>2021-12-27T13:36:52Z</time>
      </trkpt>
      <trkpt lat="37.7909730" lon="-3.8165830">
        <ele>508.6</ele>
        <time>2021-12-27T13:36:53Z</time>
      </trkpt>
      <trkpt lat="37.7910110" lon="-3.8165850">
        <ele>508.6</ele>
        <time>2021-12-27T13:36:54Z</time>
      </trkpt>
      <trkpt lat="37.7910500" lon="-3.8165870">
        <ele>508.6</ele>
        <time>2021-12-27T13:36:55Z</time>
      </trkpt>
      <trkpt lat="37.7910880" lon="-3.8165870">
        <ele>508.8</ele>
        <time>2021-12-27T13:36:56Z</time>
      </trkpt>
      <trkpt lat="37.7911260" lon="-3.8165900">
        <ele>508.8</ele>
        <time>2021-12-27T13:36:57Z</time>
      </trkpt>
      <trkpt lat="37.7911650" lon="-3.8165980">
        <ele>508.6</ele>
        <time>2021-12-27T13:36:58Z</time>
      </trkpt>
      <trkpt lat="37.7912030" lon="-3.8166040">
        <ele>508.6</ele>
        <time>2021-12-27T13:36:59Z</time>
      </trkpt>
      <trkpt lat="37.7912420" lon="-3.8166080">
        <ele>508.6</ele>
        <time>2021-12-27T13:37:00Z</time>
      </trkpt>
      <trkpt lat="37.7912800" lon="-3.8166120">
        <ele>508.6</ele>
        <time>2021-12-27T13:37:01Z</time>
      </trkpt>
      <trkpt lat="37.7913180" lon="-3.8166160">
        <ele>508.6</ele>
        <time>2021-12-27T13:37:02Z</time>
      </trkpt>
      <trkpt lat="37.7913600" lon="-3.8166220">
        <ele>508.6</ele>
        <time>2021-12-27T13:37:03Z</time>
      </trkpt>
      <trkpt lat="37.7913920" lon="-3.8166300">
        <ele>508.6</ele>
        <time>2021-12-27T13:37:04Z</time>
      </trkpt>
      <trkpt lat="37.7914370" lon="-3.8166360">
        <ele>508.4</ele>
        <time>2021-12-27T13:37:05Z</time>
      </trkpt>
      <trkpt lat="37.7914720" lon="-3.8166430">
        <ele>508.4</ele>
        <time>2021-12-27T13:37:06Z</time>
      </trkpt>
      <trkpt lat="37.7915100" lon="-3.8166480">
        <ele>508.2</ele>
        <time>2021-12-27T13:37:07Z</time>
      </trkpt>
      <trkpt lat="37.7915520" lon="-3.8166500">
        <ele>508.2</ele>
        <time>2021-12-27T13:37:08Z</time>
      </trkpt>
      <trkpt lat="37.7915900" lon="-3.8166520">
        <ele>508.0</ele>
        <time>2021-12-27T13:37:09Z</time>
      </trkpt>
      <trkpt lat="37.7916350" lon="-3.8166600">
        <ele>508.0</ele>
        <time>2021-12-27T13:37:10Z</time>
      </trkpt>
      <trkpt lat="37.7916700" lon="-3.8166700">
        <ele>508.0</ele>
        <time>2021-12-27T13:37:11Z</time>
      </trkpt>
      <trkpt lat="37.7917090" lon="-3.8166800">
        <ele>508.0</ele>
        <time>2021-12-27T13:37:12Z</time>
      </trkpt>
      <trkpt lat="37.7917470" lon="-3.8166880">
        <ele>508.0</ele>
        <time>2021-12-27T13:37:13Z</time>
      </trkpt>
      <trkpt lat="37.7917820" lon="-3.8166980">
        <ele>508.0</ele>
        <time>2021-12-27T13:37:14Z</time>
      </trkpt>
      <trkpt lat="37.7918210" lon="-3.8167080">
        <ele>507.8</ele>
        <time>2021-12-27T13:37:15Z</time>
      </trkpt>
      <trkpt lat="37.7918560" lon="-3.8167200">
        <ele>507.8</ele>
        <time>2021-12-27T13:37:16Z</time>
      </trkpt>
      <trkpt lat="37.7918940" lon="-3.8167300">
        <ele>507.8</ele>
        <time>2021-12-27T13:37:17Z</time>
      </trkpt>
      <trkpt lat="37.7919260" lon="-3.8167370">
        <ele>507.8</ele>
        <time>2021-12-27T13:37:18Z</time>
      </trkpt>
      <trkpt lat="37.7919620" lon="-3.8167430">
        <ele>507.8</ele>
        <time>2021-12-27T13:37:19Z</time>
      </trkpt>
      <trkpt lat="37.7920000" lon="-3.8167550">
        <ele>507.6</ele>
        <time>2021-12-27T13:37:20Z</time>
      </trkpt>
      <trkpt lat="37.7920350" lon="-3.8167670">
        <ele>507.6</ele>
        <time>2021-12-27T13:37:21Z</time>
      </trkpt>
      <trkpt lat="37.7920670" lon="-3.8167780">
        <ele>507.6</ele>
        <time>2021-12-27T13:37:22Z</time>
      </trkpt>
      <trkpt lat="37.7921060" lon="-3.8167870">
        <ele>507.4</ele>
        <time>2021-12-27T13:37:23Z</time>
      </trkpt>
      <trkpt lat="37.7921440" lon="-3.8167950">
        <ele>507.4</ele>
        <time>2021-12-27T13:37:24Z</time>
      </trkpt>
      <trkpt lat="37.7921790" lon="-3.8168040">
        <ele>507.4</ele>
        <time>2021-12-27T13:37:25Z</time>
      </trkpt>
      <trkpt lat="37.7922140" lon="-3.8168140">
        <ele>507.4</ele>
        <time>2021-12-27T13:37:26Z</time>
      </trkpt>
      <trkpt lat="37.7922460" lon="-3.8168230">
        <ele>507.4</ele>
        <time>2021-12-27T13:37:27Z</time>
      </trkpt>
      <trkpt lat="37.7922780" lon="-3.8168360">
        <ele>507.4</ele>
        <time>2021-12-27T13:37:28Z</time>
      </trkpt>
      <trkpt lat="37.7923140" lon="-3.8168480">
        <ele>507.2</ele>
        <time>2021-12-27T13:37:29Z</time>
      </trkpt>
      <trkpt lat="37.7923460" lon="-3.8168600">
        <ele>507.2</ele>
        <time>2021-12-27T13:37:30Z</time>
      </trkpt>
      <trkpt lat="37.7923810" lon="-3.8168750">
        <ele>507.2</ele>
        <time>2021-12-27T13:37:31Z</time>
      </trkpt>
      <trkpt lat="37.7924130" lon="-3.8168920">
        <ele>507.2</ele>
        <time>2021-12-27T13:37:32Z</time>
      </trkpt>
      <trkpt lat="37.7924380" lon="-3.8169080">
        <ele>507.2</ele>
        <time>2021-12-27T13:37:33Z</time>
      </trkpt>
      <trkpt lat="37.7924700" lon="-3.8169250">
        <ele>507.4</ele>
        <time>2021-12-27T13:37:34Z</time>
      </trkpt>
      <trkpt lat="37.7924990" lon="-3.8169440">
        <ele>507.4</ele>
        <time>2021-12-27T13:37:35Z</time>
      </trkpt>
      <trkpt lat="37.7925250" lon="-3.8169630">
        <ele>507.4</ele>
        <time>2021-12-27T13:37:36Z</time>
      </trkpt>
      <trkpt lat="37.7925540" lon="-3.8169830">
        <ele>507.6</ele>
        <time>2021-12-27T13:37:37Z</time>
      </trkpt>
      <trkpt lat="37.7925760" lon="-3.8170050">
        <ele>507.6</ele>
        <time>2021-12-27T13:37:38Z</time>
      </trkpt>
      <trkpt lat="37.7926020" lon="-3.8170250">
        <ele>507.6</ele>
        <time>2021-12-27T13:37:39Z</time>
      </trkpt>
      <trkpt lat="37.7926240" lon="-3.8170450">
        <ele>507.6</ele>
        <time>2021-12-27T13:37:40Z</time>
      </trkpt>
      <trkpt lat="37.7926530" lon="-3.8170670">
        <ele>507.6</ele>
        <time>2021-12-27T13:37:41Z</time>
      </trkpt>
      <trkpt lat="37.7926780" lon="-3.8170880">
        <ele>507.6</ele>
        <time>2021-12-27T13:37:42Z</time>
      </trkpt>
      <trkpt lat="37.7927040" lon="-3.8171100">
        <ele>507.6</ele>
        <time>2021-12-27T13:37:43Z</time>
      </trkpt>
      <trkpt lat="37.7927300" lon="-3.8171320">
        <ele>507.6</ele>
        <time>2021-12-27T13:37:44Z</time>
      </trkpt>
      <trkpt lat="37.7927550" lon="-3.8171550">
        <ele>507.4</ele>
        <time>2021-12-27T13:37:45Z</time>
      </trkpt>
      <trkpt lat="37.7927810" lon="-3.8171760">
        <ele>507.4</ele>
        <time>2021-12-27T13:37:46Z</time>
      </trkpt>
      <trkpt lat="37.7928100" lon="-3.8171970">
        <ele>507.4</ele>
        <time>2021-12-27T13:37:47Z</time>
      </trkpt>
      <trkpt lat="37.7928320" lon="-3.8172170">
        <ele>507.4</ele>
        <time>2021-12-27T13:37:48Z</time>
      </trkpt>
      <trkpt lat="37.7928580" lon="-3.8172420">
        <ele>507.4</ele>
        <time>2021-12-27T13:37:49Z</time>
      </trkpt>
      <trkpt lat="37.7928860" lon="-3.8172700">
        <ele>507.4</ele>
        <time>2021-12-27T13:37:50Z</time>
      </trkpt>
      <trkpt lat="37.7929120" lon="-3.8172950">
        <ele>507.4</ele>
        <time>2021-12-27T13:37:51Z</time>
      </trkpt>
      <trkpt lat="37.7929410" lon="-3.8173220">
        <ele>507.2</ele>
        <time>2021-12-27T13:37:52Z</time>
      </trkpt>
      <trkpt lat="37.7929700" lon="-3.8173480">
        <ele>507.2</ele>
        <time>2021-12-27T13:37:53Z</time>
      </trkpt>
      <trkpt lat="37.7929920" lon="-3.8173750">
        <ele>507.2</ele>
        <time>2021-12-27T13:37:54Z</time>
      </trkpt>
      <trkpt lat="37.7930180" lon="-3.8174000">
        <ele>507.2</ele>
        <time>2021-12-27T13:37:55Z</time>
      </trkpt>
      <trkpt lat="37.7930460" lon="-3.8174250">
        <ele>507.2</ele>
        <time>2021-12-27T13:37:56Z</time>
      </trkpt>
      <trkpt lat="37.7930690" lon="-3.8174500">
        <ele>507.2</ele>
        <time>2021-12-27T13:37:57Z</time>
      </trkpt>
      <trkpt lat="37.7930940" lon="-3.8174740">
        <ele>507.2</ele>
        <time>2021-12-27T13:37:58Z</time>
      </trkpt>
      <trkpt lat="37.7931170" lon="-3.8174970">
        <ele>507.2</ele>
        <time>2021-12-27T13:37:59Z</time>
      </trkpt>
      <trkpt lat="37.7931460" lon="-3.8175240">
        <ele>507.2</ele>
        <time>2021-12-27T13:38:00Z</time>
      </trkpt>
      <trkpt lat="37.7931680" lon="-3.8175530">
        <ele>507.2</ele>
        <time>2021-12-27T13:38:01Z</time>
      </trkpt>
      <trkpt lat="37.7931900" lon="-3.8175830">
        <ele>507.2</ele>
        <time>2021-12-27T13:38:02Z</time>
      </trkpt>
      <trkpt lat="37.7932160" lon="-3.8176130">
        <ele>507.2</ele>
        <time>2021-12-27T13:38:03Z</time>
      </trkpt>
      <trkpt lat="37.7932450" lon="-3.8176420">
        <ele>507.4</ele>
        <time>2021-12-27T13:38:04Z</time>
      </trkpt>
      <trkpt lat="37.7932700" lon="-3.8176720">
        <ele>507.4</ele>
        <time>2021-12-27T13:38:05Z</time>
      </trkpt>
      <trkpt lat="37.7932960" lon="-3.8177030">
        <ele>507.4</ele>
        <time>2021-12-27T13:38:06Z</time>
      </trkpt>
      <trkpt lat="37.7933280" lon="-3.8177350">
        <ele>507.4</ele>
        <time>2021-12-27T13:38:07Z</time>
      </trkpt>
      <trkpt lat="37.7933540" lon="-3.8177650">
        <ele>507.4</ele>
        <time>2021-12-27T13:38:08Z</time>
      </trkpt>
      <trkpt lat="37.7933860" lon="-3.8177950">
        <ele>507.4</ele>
        <time>2021-12-27T13:38:09Z</time>
      </trkpt>
      <trkpt lat="37.7934110" lon="-3.8178270">
        <ele>507.4</ele>
        <time>2021-12-27T13:38:10Z</time>
      </trkpt>
      <trkpt lat="37.7934340" lon="-3.8178580">
        <ele>507.4</ele>
        <time>2021-12-27T13:38:11Z</time>
      </trkpt>
      <trkpt lat="37.7934620" lon="-3.8178920">
        <ele>507.4</ele>
        <time>2021-12-27T13:38:12Z</time>
      </trkpt>
      <trkpt lat="37.7934880" lon="-3.8179230">
        <ele>507.4</ele>
        <time>2021-12-27T13:38:13Z</time>
      </trkpt>
      <trkpt lat="37.7935100" lon="-3.8179570">
        <ele>507.4</ele>
        <time>2021-12-27T13:38:14Z</time>
      </trkpt>
      <trkpt lat="37.7935360" lon="-3.8179900">
        <ele>507.4</ele>
        <time>2021-12-27T13:38:15Z</time>
      </trkpt>
      <trkpt lat="37.7935620" lon="-3.8180230">
        <ele>507.4</ele>
        <time>2021-12-27T13:38:16Z</time>
      </trkpt>
      <trkpt lat="37.7935840" lon="-3.8180560">
        <ele>507.4</ele>
        <time>2021-12-27T13:38:17Z</time>
      </trkpt>
      <trkpt lat="37.7936060" lon="-3.8180880">
        <ele>507.2</ele>
        <time>2021-12-27T13:38:18Z</time>
      </trkpt>
      <trkpt lat="37.7936290" lon="-3.8181220">
        <ele>507.2</ele>
        <time>2021-12-27T13:38:19Z</time>
      </trkpt>
      <trkpt lat="37.7936510" lon="-3.8181570">
        <ele>507.4</ele>
        <time>2021-12-27T13:38:20Z</time>
      </trkpt>
      <trkpt lat="37.7936770" lon="-3.8181900">
        <ele>507.4</ele>
        <time>2021-12-27T13:38:21Z</time>
      </trkpt>
      <trkpt lat="37.7936960" lon="-3.8182240">
        <ele>507.4</ele>
        <time>2021-12-27T13:38:22Z</time>
      </trkpt>
      <trkpt lat="37.7937220" lon="-3.8182620">
        <ele>507.2</ele>
        <time>2021-12-27T13:38:23Z</time>
      </trkpt>
      <trkpt lat="37.7937440" lon="-3.8182980">
        <ele>507.2</ele>
        <time>2021-12-27T13:38:24Z</time>
      </trkpt>
      <trkpt lat="37.7937660" lon="-3.8183350">
        <ele>507.2</ele>
        <time>2021-12-27T13:38:25Z</time>
      </trkpt>
      <trkpt lat="37.7937920" lon="-3.8183680">
        <ele>507.2</ele>
        <time>2021-12-27T13:38:26Z</time>
      </trkpt>
      <trkpt lat="37.7938140" lon="-3.8184030">
        <ele>507.2</ele>
        <time>2021-12-27T13:38:27Z</time>
      </trkpt>
      <trkpt lat="37.7938400" lon="-3.8184370">
        <ele>507.2</ele>
        <time>2021-12-27T13:38:28Z</time>
      </trkpt>
      <trkpt lat="37.7938560" lon="-3.8184720">
        <ele>507.2</ele>
        <time>2021-12-27T13:38:29Z</time>
      </trkpt>
      <trkpt lat="37.7938750" lon="-3.8185050">
        <ele>507.2</ele>
        <time>2021-12-27T13:38:30Z</time>
      </trkpt>
      <trkpt lat="37.7939010" lon="-3.8185380">
        <ele>507.4</ele>
        <time>2021-12-27T13:38:31Z</time>
      </trkpt>
      <trkpt lat="37.7939140" lon="-3.8185750">
        <ele>507.4</ele>
        <time>2021-12-27T13:38:32Z</time>
      </trkpt>
      <trkpt lat="37.7939330" lon="-3.8186100">
        <ele>507.4</ele>
        <time>2021-12-27T13:38:33Z</time>
      </trkpt>
      <trkpt lat="37.7939520" lon="-3.8186470">
        <ele>507.4</ele>
        <time>2021-12-27T13:38:34Z</time>
      </trkpt>
      <trkpt lat="37.7939680" lon="-3.8186830">
        <ele>507.6</ele>
        <time>2021-12-27T13:38:35Z</time>
      </trkpt>
      <trkpt lat="37.7939870" lon="-3.8187180">
        <ele>507.6</ele>
        <time>2021-12-27T13:38:36Z</time>
      </trkpt>
      <trkpt lat="37.7940060" lon="-3.8187530">
        <ele>507.6</ele>
        <time>2021-12-27T13:38:37Z</time>
      </trkpt>
      <trkpt lat="37.7940220" lon="-3.8187880">
        <ele>507.6</ele>
        <time>2021-12-27T13:38:38Z</time>
      </trkpt>
      <trkpt lat="37.7940420" lon="-3.8188250">
        <ele>507.6</ele>
        <time>2021-12-27T13:38:39Z</time>
      </trkpt>
      <trkpt lat="37.7940610" lon="-3.8188620">
        <ele>507.6</ele>
        <time>2021-12-27T13:38:40Z</time>
      </trkpt>
      <trkpt lat="37.7940740" lon="-3.8188980">
        <ele>507.6</ele>
        <time>2021-12-27T13:38:41Z</time>
      </trkpt>
      <trkpt lat="37.7940900" lon="-3.8189350">
        <ele>507.6</ele>
        <time>2021-12-27T13:38:42Z</time>
      </trkpt>
      <trkpt lat="37.7941020" lon="-3.8189720">
        <ele>507.4</ele>
        <time>2021-12-27T13:38:43Z</time>
      </trkpt>
      <trkpt lat="37.7941180" lon="-3.8190100">
        <ele>507.4</ele>
        <time>2021-12-27T13:38:44Z</time>
      </trkpt>
      <trkpt lat="37.7941310" lon="-3.8190470">
        <ele>507.4</ele>
        <time>2021-12-27T13:38:45Z</time>
      </trkpt>
      <trkpt lat="37.7941440" lon="-3.8190850">
        <ele>507.4</ele>
        <time>2021-12-27T13:38:46Z</time>
      </trkpt>
      <trkpt lat="37.7941600" lon="-3.8191230">
        <ele>507.2</ele>
        <time>2021-12-27T13:38:47Z</time>
      </trkpt>
      <trkpt lat="37.7941730" lon="-3.8191630">
        <ele>507.2</ele>
        <time>2021-12-27T13:38:48Z</time>
      </trkpt>
      <trkpt lat="37.7941860" lon="-3.8192000">
        <ele>507.2</ele>
        <time>2021-12-27T13:38:49Z</time>
      </trkpt>
      <trkpt lat="37.7942020" lon="-3.8192350">
        <ele>507.0</ele>
        <time>2021-12-27T13:38:50Z</time>
      </trkpt>
      <trkpt lat="37.7942180" lon="-3.8192700">
        <ele>507.0</ele>
        <time>2021-12-27T13:38:51Z</time>
      </trkpt>
      <trkpt lat="37.7942270" lon="-3.8193050">
        <ele>506.8</ele>
        <time>2021-12-27T13:38:52Z</time>
      </trkpt>
      <trkpt lat="37.7942430" lon="-3.8193400">
        <ele>506.8</ele>
        <time>2021-12-27T13:38:53Z</time>
      </trkpt>
      <trkpt lat="37.7942590" lon="-3.8193750">
        <ele>506.8</ele>
        <time>2021-12-27T13:38:54Z</time>
      </trkpt>
      <trkpt lat="37.7942690" lon="-3.8194100">
        <ele>506.8</ele>
        <time>2021-12-27T13:38:55Z</time>
      </trkpt>
      <trkpt lat="37.7942820" lon="-3.8194460">
        <ele>506.6</ele>
        <time>2021-12-27T13:38:56Z</time>
      </trkpt>
      <trkpt lat="37.7942910" lon="-3.8194830">
        <ele>506.6</ele>
        <time>2021-12-27T13:38:57Z</time>
      </trkpt>
      <trkpt lat="37.7943010" lon="-3.8195200">
        <ele>506.4</ele>
        <time>2021-12-27T13:38:58Z</time>
      </trkpt>
      <trkpt lat="37.7943100" lon="-3.8195580">
        <ele>506.4</ele>
        <time>2021-12-27T13:38:59Z</time>
      </trkpt>
      <trkpt lat="37.7943230" lon="-3.8195950">
        <ele>506.4</ele>
        <time>2021-12-27T13:39:00Z</time>
      </trkpt>
      <trkpt lat="37.7943300" lon="-3.8196320">
        <ele>506.4</ele>
        <time>2021-12-27T13:39:01Z</time>
      </trkpt>
      <trkpt lat="37.7943420" lon="-3.8196700">
        <ele>506.6</ele>
        <time>2021-12-27T13:39:02Z</time>
      </trkpt>
      <trkpt lat="37.7943520" lon="-3.8197080">
        <ele>506.4</ele>
        <time>2021-12-27T13:39:03Z</time>
      </trkpt>
      <trkpt lat="37.7943650" lon="-3.8197480">
        <ele>506.4</ele>
        <time>2021-12-27T13:39:04Z</time>
      </trkpt>
      <trkpt lat="37.7943710" lon="-3.8197850">
        <ele>506.4</ele>
        <time>2021-12-27T13:39:05Z</time>
      </trkpt>
      <trkpt lat="37.7943810" lon="-3.8198230">
        <ele>506.4</ele>
        <time>2021-12-27T13:39:06Z</time>
      </trkpt>
      <trkpt lat="37.7943900" lon="-3.8198620">
        <ele>506.6</ele>
        <time>2021-12-27T13:39:07Z</time>
      </trkpt>
      <trkpt lat="37.7944000" lon="-3.8199000">
        <ele>506.4</ele>
        <time>2021-12-27T13:39:08Z</time>
      </trkpt>
      <trkpt lat="37.7944100" lon="-3.8199400">
        <ele>506.6</ele>
        <time>2021-12-27T13:39:09Z</time>
      </trkpt>
      <trkpt lat="37.7944220" lon="-3.8199770">
        <ele>506.4</ele>
        <time>2021-12-27T13:39:10Z</time>
      </trkpt>
      <trkpt lat="37.7944320" lon="-3.8200120">
        <ele>506.4</ele>
        <time>2021-12-27T13:39:11Z</time>
      </trkpt>
      <trkpt lat="37.7944420" lon="-3.8200480">
        <ele>506.4</ele>
        <time>2021-12-27T13:39:12Z</time>
      </trkpt>
      <trkpt lat="37.7944480" lon="-3.8200850">
        <ele>506.2</ele>
        <time>2021-12-27T13:39:13Z</time>
      </trkpt>
      <trkpt lat="37.7944610" lon="-3.8201220">
        <ele>506.2</ele>
        <time>2021-12-27T13:39:14Z</time>
      </trkpt>
      <trkpt lat="37.7944670" lon="-3.8201580">
        <ele>506.2</ele>
        <time>2021-12-27T13:39:15Z</time>
      </trkpt>
      <trkpt lat="37.7944800" lon="-3.8201930">
        <ele>506.2</ele>
        <time>2021-12-27T13:39:16Z</time>
      </trkpt>
      <trkpt lat="37.7944860" lon="-3.8202300">
        <ele>506.2</ele>
        <time>2021-12-27T13:39:17Z</time>
      </trkpt>
      <trkpt lat="37.7944960" lon="-3.8202670">
        <ele>506.0</ele>
        <time>2021-12-27T13:39:18Z</time>
      </trkpt>
      <trkpt lat="37.7945060" lon="-3.8203050">
        <ele>506.0</ele>
        <time>2021-12-27T13:39:19Z</time>
      </trkpt>
      <trkpt lat="37.7945150" lon="-3.8203430">
        <ele>506.0</ele>
        <time>2021-12-27T13:39:20Z</time>
      </trkpt>
      <trkpt lat="37.7945220" lon="-3.8203830">
        <ele>506.0</ele>
        <time>2021-12-27T13:39:21Z</time>
      </trkpt>
      <trkpt lat="37.7945280" lon="-3.8204230">
        <ele>506.2</ele>
        <time>2021-12-27T13:39:22Z</time>
      </trkpt>
      <trkpt lat="37.7945380" lon="-3.8204640">
        <ele>506.2</ele>
        <time>2021-12-27T13:39:23Z</time>
      </trkpt>
      <trkpt lat="37.7945440" lon="-3.8205030">
        <ele>506.2</ele>
        <time>2021-12-27T13:39:24Z</time>
      </trkpt>
      <trkpt lat="37.7945500" lon="-3.8205420">
        <ele>506.4</ele>
        <time>2021-12-27T13:39:25Z</time>
      </trkpt>
      <trkpt lat="37.7945630" lon="-3.8205800">
        <ele>506.4</ele>
        <time>2021-12-27T13:39:26Z</time>
      </trkpt>
      <trkpt lat="37.7945700" lon="-3.8206180">
        <ele>506.4</ele>
        <time>2021-12-27T13:39:27Z</time>
      </trkpt>
      <trkpt lat="37.7945790" lon="-3.8206580">
        <ele>506.4</ele>
        <time>2021-12-27T13:39:28Z</time>
      </trkpt>
      <trkpt lat="37.7945860" lon="-3.8206980">
        <ele>506.4</ele>
        <time>2021-12-27T13:39:29Z</time>
      </trkpt>
      <trkpt lat="37.7945950" lon="-3.8207380">
        <ele>506.4</ele>
        <time>2021-12-27T13:39:30Z</time>
      </trkpt>
      <trkpt lat="37.7946050" lon="-3.8207750">
        <ele>506.4</ele>
        <time>2021-12-27T13:39:31Z</time>
      </trkpt>
      <trkpt lat="37.7946140" lon="-3.8208120">
        <ele>506.4</ele>
        <time>2021-12-27T13:39:32Z</time>
      </trkpt>
      <trkpt lat="37.7946240" lon="-3.8208500">
        <ele>506.4</ele>
        <time>2021-12-27T13:39:33Z</time>
      </trkpt>
      <trkpt lat="37.7946370" lon="-3.8208870">
        <ele>506.4</ele>
        <time>2021-12-27T13:39:34Z</time>
      </trkpt>
      <trkpt lat="37.7946460" lon="-3.8209220">
        <ele>506.4</ele>
        <time>2021-12-27T13:39:35Z</time>
      </trkpt>
      <trkpt lat="37.7946560" lon="-3.8209580">
        <ele>506.4</ele>
        <time>2021-12-27T13:39:36Z</time>
      </trkpt>
      <trkpt lat="37.7946660" lon="-3.8209970">
        <ele>506.4</ele>
        <time>2021-12-27T13:39:37Z</time>
      </trkpt>
      <trkpt lat="37.7946780" lon="-3.8210340">
        <ele>506.4</ele>
        <time>2021-12-27T13:39:38Z</time>
      </trkpt>
      <trkpt lat="37.7946850" lon="-3.8210720">
        <ele>506.4</ele>
        <time>2021-12-27T13:39:39Z</time>
      </trkpt>
      <trkpt lat="37.7946940" lon="-3.8211100">
        <ele>506.4</ele>
        <time>2021-12-27T13:39:40Z</time>
      </trkpt>
      <trkpt lat="37.7947010" lon="-3.8211450">
        <ele>506.4</ele>
        <time>2021-12-27T13:39:41Z</time>
      </trkpt>
      <trkpt lat="37.7947070" lon="-3.8211820">
        <ele>506.4</ele>
        <time>2021-12-27T13:39:42Z</time>
      </trkpt>
      <trkpt lat="37.7947200" lon="-3.8212180">
        <ele>506.4</ele>
        <time>2021-12-27T13:39:43Z</time>
      </trkpt>
      <trkpt lat="37.7947260" lon="-3.8212530">
        <ele>506.4</ele>
        <time>2021-12-27T13:39:44Z</time>
      </trkpt>
      <trkpt lat="37.7947360" lon="-3.8212880">
        <ele>506.2</ele>
        <time>2021-12-27T13:39:45Z</time>
      </trkpt>
      <trkpt lat="37.7947460" lon="-3.8213220">
        <ele>506.2</ele>
        <time>2021-12-27T13:39:46Z</time>
      </trkpt>
      <trkpt lat="37.7947580" lon="-3.8213550">
        <ele>506.2</ele>
        <time>2021-12-27T13:39:47Z</time>
      </trkpt>
      <trkpt lat="37.7947650" lon="-3.8213920">
        <ele>506.2</ele>
        <time>2021-12-27T13:39:48Z</time>
      </trkpt>
      <trkpt lat="37.7947780" lon="-3.8214250">
        <ele>506.2</ele>
        <time>2021-12-27T13:39:49Z</time>
      </trkpt>
      <trkpt lat="37.7947840" lon="-3.8214570">
        <ele>506.2</ele>
        <time>2021-12-27T13:39:50Z</time>
      </trkpt>
      <trkpt lat="37.7947970" lon="-3.8214880">
        <ele>506.2</ele>
        <time>2021-12-27T13:39:51Z</time>
      </trkpt>
      <trkpt lat="37.7948060" lon="-3.8215200">
        <ele>506.2</ele>
        <time>2021-12-27T13:39:52Z</time>
      </trkpt>
      <trkpt lat="37.7948190" lon="-3.8215520">
        <ele>506.2</ele>
        <time>2021-12-27T13:39:53Z</time>
      </trkpt>
      <trkpt lat="37.7948290" lon="-3.8215820">
        <ele>506.2</ele>
        <time>2021-12-27T13:39:54Z</time>
      </trkpt>
      <trkpt lat="37.7948420" lon="-3.8216120">
        <ele>506.2</ele>
        <time>2021-12-27T13:39:55Z</time>
      </trkpt>
      <trkpt lat="37.7948540" lon="-3.8216450">
        <ele>506.2</ele>
        <time>2021-12-27T13:39:56Z</time>
      </trkpt>
      <trkpt lat="37.7948610" lon="-3.8216780">
        <ele>506.2</ele>
        <time>2021-12-27T13:39:57Z</time>
      </trkpt>
      <trkpt lat="37.7948770" lon="-3.8217150">
        <ele>506.2</ele>
        <time>2021-12-27T13:39:58Z</time>
      </trkpt>
      <trkpt lat="37.7948860" lon="-3.8217480">
        <ele>506.2</ele>
        <time>2021-12-27T13:39:59Z</time>
      </trkpt>
      <trkpt lat="37.7949070" lon="-3.8218020">
        <ele>506.2</ele>
        <time>2021-12-27T13:40:00Z</time>
      </trkpt>
      <trkpt lat="37.7949150" lon="-3.8218180">
        <ele>506.2</ele>
        <time>2021-12-27T13:40:01Z</time>
      </trkpt>
      <trkpt lat="37.7949250" lon="-3.8218520">
        <ele>506.2</ele>
        <time>2021-12-27T13:40:02Z</time>
      </trkpt>
      <trkpt lat="37.7949410" lon="-3.8218850">
        <ele>506.2</ele>
        <time>2021-12-27T13:40:03Z</time>
      </trkpt>
      <trkpt lat="37.7949540" lon="-3.8219150">
        <ele>506.0</ele>
        <time>2021-12-27T13:40:04Z</time>
      </trkpt>
      <trkpt lat="37.7949660" lon="-3.8219450">
        <ele>506.0</ele>
        <time>2021-12-27T13:40:05Z</time>
      </trkpt>
      <trkpt lat="37.7949820" lon="-3.8219720">
        <ele>506.0</ele>
        <time>2021-12-27T13:40:06Z</time>
      </trkpt>
      <trkpt lat="37.7949950" lon="-3.8220000">
        <ele>506.0</ele>
        <time>2021-12-27T13:40:07Z</time>
      </trkpt>
      <trkpt lat="37.7950050" lon="-3.8220280">
        <ele>506.0</ele>
        <time>2021-12-27T13:40:08Z</time>
      </trkpt>
      <trkpt lat="37.7950180" lon="-3.8220550">
        <ele>506.0</ele>
        <time>2021-12-27T13:40:09Z</time>
      </trkpt>
      <trkpt lat="37.7950270" lon="-3.8220840">
        <ele>506.0</ele>
        <time>2021-12-27T13:40:10Z</time>
      </trkpt>
      <trkpt lat="37.7950430" lon="-3.8221130">
        <ele>506.0</ele>
        <time>2021-12-27T13:40:11Z</time>
      </trkpt>
      <trkpt lat="37.7950560" lon="-3.8221430">
        <ele>506.0</ele>
        <time>2021-12-27T13:40:12Z</time>
      </trkpt>
      <trkpt lat="37.7950660" lon="-3.8221720">
        <ele>506.0</ele>
        <time>2021-12-27T13:40:13Z</time>
      </trkpt>
      <trkpt lat="37.7950820" lon="-3.8222020">
        <ele>506.0</ele>
        <time>2021-12-27T13:40:14Z</time>
      </trkpt>
      <trkpt lat="37.7950980" lon="-3.8222300">
        <ele>506.0</ele>
        <time>2021-12-27T13:40:15Z</time>
      </trkpt>
      <trkpt lat="37.7951140" lon="-3.8222580">
        <ele>506.2</ele>
        <time>2021-12-27T13:40:16Z</time>
      </trkpt>
      <trkpt lat="37.7951260" lon="-3.8222900">
        <ele>506.2</ele>
        <time>2021-12-27T13:40:17Z</time>
      </trkpt>
      <trkpt lat="37.7951420" lon="-3.8223200">
        <ele>506.2</ele>
        <time>2021-12-27T13:40:18Z</time>
      </trkpt>
      <trkpt lat="37.7951580" lon="-3.8223480">
        <ele>506.4</ele>
        <time>2021-12-27T13:40:19Z</time>
      </trkpt>
      <trkpt lat="37.7951710" lon="-3.8223750">
        <ele>506.4</ele>
        <time>2021-12-27T13:40:20Z</time>
      </trkpt>
      <trkpt lat="37.7951840" lon="-3.8224040">
        <ele>506.4</ele>
        <time>2021-12-27T13:40:21Z</time>
      </trkpt>
      <trkpt lat="37.7951970" lon="-3.8224320">
        <ele>506.4</ele>
        <time>2021-12-27T13:40:22Z</time>
      </trkpt>
      <trkpt lat="37.7952130" lon="-3.8224580">
        <ele>506.4</ele>
        <time>2021-12-27T13:40:23Z</time>
      </trkpt>
      <trkpt lat="37.7952320" lon="-3.8224850">
        <ele>506.4</ele>
        <time>2021-12-27T13:40:24Z</time>
      </trkpt>
      <trkpt lat="37.7952510" lon="-3.8225120">
        <ele>506.6</ele>
        <time>2021-12-27T13:40:25Z</time>
      </trkpt>
      <trkpt lat="37.7952640" lon="-3.8225400">
        <ele>506.6</ele>
        <time>2021-12-27T13:40:26Z</time>
      </trkpt>
      <trkpt lat="37.7952770" lon="-3.8225680">
        <ele>506.6</ele>
        <time>2021-12-27T13:40:27Z</time>
      </trkpt>
      <trkpt lat="37.7952930" lon="-3.8225960">
        <ele>506.6</ele>
        <time>2021-12-27T13:40:28Z</time>
      </trkpt>
      <trkpt lat="37.7953060" lon="-3.8226230">
        <ele>506.6</ele>
        <time>2021-12-27T13:40:29Z</time>
      </trkpt>
      <trkpt lat="37.7953220" lon="-3.8226500">
        <ele>506.6</ele>
        <time>2021-12-27T13:40:30Z</time>
      </trkpt>
      <trkpt lat="37.7953410" lon="-3.8226750">
        <ele>506.6</ele>
        <time>2021-12-27T13:40:31Z</time>
      </trkpt>
      <trkpt lat="37.7953600" lon="-3.8227000">
        <ele>506.8</ele>
        <time>2021-12-27T13:40:32Z</time>
      </trkpt>
      <trkpt lat="37.7953760" lon="-3.8227270">
        <ele>506.8</ele>
        <time>2021-12-27T13:40:33Z</time>
      </trkpt>
      <trkpt lat="37.7953920" lon="-3.8227540">
        <ele>506.8</ele>
        <time>2021-12-27T13:40:34Z</time>
      </trkpt>
      <trkpt lat="37.7954110" lon="-3.8227770">
        <ele>506.8</ele>
        <time>2021-12-27T13:40:35Z</time>
      </trkpt>
      <trkpt lat="37.7954240" lon="-3.8228000">
        <ele>506.8</ele>
        <time>2021-12-27T13:40:36Z</time>
      </trkpt>
      <trkpt lat="37.7954400" lon="-3.8228250">
        <ele>506.8</ele>
        <time>2021-12-27T13:40:37Z</time>
      </trkpt>
      <trkpt lat="37.7954590" lon="-3.8228520">
        <ele>507.0</ele>
        <time>2021-12-27T13:40:38Z</time>
      </trkpt>
      <trkpt lat="37.7954750" lon="-3.8228750">
        <ele>506.8</ele>
        <time>2021-12-27T13:40:39Z</time>
      </trkpt>
      <trkpt lat="37.7954940" lon="-3.8229000">
        <ele>506.8</ele>
        <time>2021-12-27T13:40:40Z</time>
      </trkpt>
      <trkpt lat="37.7955100" lon="-3.8229250">
        <ele>506.8</ele>
        <time>2021-12-27T13:40:41Z</time>
      </trkpt>
      <trkpt lat="37.7955300" lon="-3.8229500">
        <ele>506.8</ele>
        <time>2021-12-27T13:40:42Z</time>
      </trkpt>
      <trkpt lat="37.7955390" lon="-3.8229730">
        <ele>507.0</ele>
        <time>2021-12-27T13:40:43Z</time>
      </trkpt>
      <trkpt lat="37.7955580" lon="-3.8229980">
        <ele>507.0</ele>
        <time>2021-12-27T13:40:44Z</time>
      </trkpt>
      <trkpt lat="37.7955740" lon="-3.8230200">
        <ele>507.0</ele>
        <time>2021-12-27T13:40:45Z</time>
      </trkpt>
      <trkpt lat="37.7955940" lon="-3.8230450">
        <ele>507.2</ele>
        <time>2021-12-27T13:40:46Z</time>
      </trkpt>
      <trkpt lat="37.7956100" lon="-3.8230680">
        <ele>507.2</ele>
        <time>2021-12-27T13:40:47Z</time>
      </trkpt>
      <trkpt lat="37.7956290" lon="-3.8230940">
        <ele>507.4</ele>
        <time>2021-12-27T13:40:48Z</time>
      </trkpt>
      <trkpt lat="37.7956480" lon="-3.8231170">
        <ele>507.4</ele>
        <time>2021-12-27T13:40:49Z</time>
      </trkpt>
      <trkpt lat="37.7956670" lon="-3.8231350">
        <ele>507.4</ele>
        <time>2021-12-27T13:40:50Z</time>
      </trkpt>
      <trkpt lat="37.7956860" lon="-3.8231550">
        <ele>507.6</ele>
        <time>2021-12-27T13:40:51Z</time>
      </trkpt>
      <trkpt lat="37.7956990" lon="-3.8231780">
        <ele>507.6</ele>
        <time>2021-12-27T13:40:52Z</time>
      </trkpt>
      <trkpt lat="37.7957220" lon="-3.8232020">
        <ele>507.6</ele>
        <time>2021-12-27T13:40:53Z</time>
      </trkpt>
      <trkpt lat="37.7957380" lon="-3.8232250">
        <ele>507.6</ele>
        <time>2021-12-27T13:40:54Z</time>
      </trkpt>
      <trkpt lat="37.7957600" lon="-3.8232470">
        <ele>507.6</ele>
        <time>2021-12-27T13:40:55Z</time>
      </trkpt>
      <trkpt lat="37.7957790" lon="-3.8232700">
        <ele>507.6</ele>
        <time>2021-12-27T13:40:56Z</time>
      </trkpt>
      <trkpt lat="37.7958020" lon="-3.8232900">
        <ele>507.6</ele>
        <time>2021-12-27T13:40:57Z</time>
      </trkpt>
      <trkpt lat="37.7958180" lon="-3.8233120">
        <ele>507.6</ele>
        <time>2021-12-27T13:40:58Z</time>
      </trkpt>
      <trkpt lat="37.7958400" lon="-3.8233320">
        <ele>507.6</ele>
        <time>2021-12-27T13:40:59Z</time>
      </trkpt>
      <trkpt lat="37.7958660" lon="-3.8233520">
        <ele>507.6</ele>
        <time>2021-12-27T13:41:00Z</time>
      </trkpt>
      <trkpt lat="37.7958880" lon="-3.8233730">
        <ele>507.8</ele>
        <time>2021-12-27T13:41:01Z</time>
      </trkpt>
      <trkpt lat="37.7959070" lon="-3.8233950">
        <ele>507.8</ele>
        <time>2021-12-27T13:41:02Z</time>
      </trkpt>
      <trkpt lat="37.7959260" lon="-3.8234180">
        <ele>508.0</ele>
        <time>2021-12-27T13:41:03Z</time>
      </trkpt>
      <trkpt lat="37.7959460" lon="-3.8234370">
        <ele>508.0</ele>
        <time>2021-12-27T13:41:04Z</time>
      </trkpt>
      <trkpt lat="37.7959650" lon="-3.8234550">
        <ele>508.0</ele>
        <time>2021-12-27T13:41:05Z</time>
      </trkpt>
      <trkpt lat="37.7959780" lon="-3.8234740">
        <ele>508.0</ele>
        <time>2021-12-27T13:41:06Z</time>
      </trkpt>
      <trkpt lat="37.7959970" lon="-3.8234920">
        <ele>508.0</ele>
        <time>2021-12-27T13:41:07Z</time>
      </trkpt>
      <trkpt lat="37.7960130" lon="-3.8235080">
        <ele>508.0</ele>
        <time>2021-12-27T13:41:08Z</time>
      </trkpt>
      <trkpt lat="37.7960320" lon="-3.8235250">
        <ele>508.0</ele>
        <time>2021-12-27T13:41:09Z</time>
      </trkpt>
      <trkpt lat="37.7960510" lon="-3.8235420">
        <ele>508.0</ele>
        <time>2021-12-27T13:41:10Z</time>
      </trkpt>
      <trkpt lat="37.7960700" lon="-3.8235570">
        <ele>508.2</ele>
        <time>2021-12-27T13:41:11Z</time>
      </trkpt>
      <trkpt lat="37.7960860" lon="-3.8235680">
        <ele>508.2</ele>
        <time>2021-12-27T13:41:12Z</time>
      </trkpt>
      <trkpt lat="37.7961060" lon="-3.8235830">
        <ele>508.2</ele>
        <time>2021-12-27T13:41:13Z</time>
      </trkpt>
      <trkpt lat="37.7961250" lon="-3.8236020">
        <ele>508.2</ele>
        <time>2021-12-27T13:41:14Z</time>
      </trkpt>
      <trkpt lat="37.7961380" lon="-3.8236180">
        <ele>508.2</ele>
        <time>2021-12-27T13:41:15Z</time>
      </trkpt>
      <trkpt lat="37.7961630" lon="-3.8236350">
        <ele>508.2</ele>
        <time>2021-12-27T13:41:16Z</time>
      </trkpt>
      <trkpt lat="37.7961790" lon="-3.8236530">
        <ele>508.2</ele>
        <time>2021-12-27T13:41:17Z</time>
      </trkpt>
      <trkpt lat="37.7962050" lon="-3.8236680">
        <ele>508.4</ele>
        <time>2021-12-27T13:41:18Z</time>
      </trkpt>
      <trkpt lat="37.7962270" lon="-3.8236850">
        <ele>508.4</ele>
        <time>2021-12-27T13:41:19Z</time>
      </trkpt>
      <trkpt lat="37.7962500" lon="-3.8237030">
        <ele>508.4</ele>
        <time>2021-12-27T13:41:20Z</time>
      </trkpt>
      <trkpt lat="37.7962720" lon="-3.8237220">
        <ele>508.4</ele>
        <time>2021-12-27T13:41:21Z</time>
      </trkpt>
      <trkpt lat="37.7962940" lon="-3.8237400">
        <ele>508.4</ele>
        <time>2021-12-27T13:41:22Z</time>
      </trkpt>
      <trkpt lat="37.7963230" lon="-3.8237570">
        <ele>508.6</ele>
        <time>2021-12-27T13:41:23Z</time>
      </trkpt>
      <trkpt lat="37.7963460" lon="-3.8237730">
        <ele>508.6</ele>
        <time>2021-12-27T13:41:24Z</time>
      </trkpt>
      <trkpt lat="37.7963680" lon="-3.8237880">
        <ele>508.6</ele>
        <time>2021-12-27T13:41:25Z</time>
      </trkpt>
      <trkpt lat="37.7963900" lon="-3.8238040">
        <ele>508.6</ele>
        <time>2021-12-27T13:41:26Z</time>
      </trkpt>
      <trkpt lat="37.7964130" lon="-3.8238200">
        <ele>508.6</ele>
        <time>2021-12-27T13:41:27Z</time>
      </trkpt>
      <trkpt lat="37.7964350" lon="-3.8238370">
        <ele>508.6</ele>
        <time>2021-12-27T13:41:28Z</time>
      </trkpt>
      <trkpt lat="37.7964580" lon="-3.8238530">
        <ele>508.6</ele>
        <time>2021-12-27T13:41:29Z</time>
      </trkpt>
      <trkpt lat="37.7964830" lon="-3.8238700">
        <ele>508.6</ele>
        <time>2021-12-27T13:41:30Z</time>
      </trkpt>
      <trkpt lat="37.7965060" lon="-3.8238870">
        <ele>508.6</ele>
        <time>2021-12-27T13:41:31Z</time>
      </trkpt>
      <trkpt lat="37.7965280" lon="-3.8239050">
        <ele>508.8</ele>
        <time>2021-12-27T13:41:32Z</time>
      </trkpt>
      <trkpt lat="37.7965500" lon="-3.8239220">
        <ele>508.8</ele>
        <time>2021-12-27T13:41:33Z</time>
      </trkpt>
      <trkpt lat="37.7965730" lon="-3.8239400">
        <ele>508.8</ele>
        <time>2021-12-27T13:41:34Z</time>
      </trkpt>
      <trkpt lat="37.7965950" lon="-3.8239550">
        <ele>508.8</ele>
        <time>2021-12-27T13:41:35Z</time>
      </trkpt>
      <trkpt lat="37.7966240" lon="-3.8239700">
        <ele>509.0</ele>
        <time>2021-12-27T13:41:36Z</time>
      </trkpt>
      <trkpt lat="37.7966430" lon="-3.8239830">
        <ele>509.0</ele>
        <time>2021-12-27T13:41:37Z</time>
      </trkpt>
      <trkpt lat="37.7966660" lon="-3.8240000">
        <ele>509.0</ele>
        <time>2021-12-27T13:41:38Z</time>
      </trkpt>
      <trkpt lat="37.7966880" lon="-3.8240120">
        <ele>509.0</ele>
        <time>2021-12-27T13:41:39Z</time>
      </trkpt>
      <trkpt lat="37.7967070" lon="-3.8240230">
        <ele>509.0</ele>
        <time>2021-12-27T13:41:40Z</time>
      </trkpt>
      <trkpt lat="37.7967300" lon="-3.8240380">
        <ele>509.0</ele>
        <time>2021-12-27T13:41:41Z</time>
      </trkpt>
      <trkpt lat="37.7967520" lon="-3.8240530">
        <ele>509.0</ele>
        <time>2021-12-27T13:41:42Z</time>
      </trkpt>
      <trkpt lat="37.7967710" lon="-3.8240700">
        <ele>509.0</ele>
        <time>2021-12-27T13:41:43Z</time>
      </trkpt>
      <trkpt lat="37.7967900" lon="-3.8240870">
        <ele>509.2</ele>
        <time>2021-12-27T13:41:44Z</time>
      </trkpt>
      <trkpt lat="37.7968130" lon="-3.8240970">
        <ele>509.2</ele>
        <time>2021-12-27T13:41:45Z</time>
      </trkpt>
      <trkpt lat="37.7968420" lon="-3.8241030">
        <ele>509.2</ele>
        <time>2021-12-27T13:41:46Z</time>
      </trkpt>
      <trkpt lat="37.7968640" lon="-3.8241020">
        <ele>509.4</ele>
        <time>2021-12-27T13:41:47Z</time>
      </trkpt>
      <trkpt lat="37.7968900" lon="-3.8240930">
        <ele>509.4</ele>
        <time>2021-12-27T13:41:48Z</time>
      </trkpt>
      <trkpt lat="37.7969180" lon="-3.8240830">
        <ele>509.4</ele>
        <time>2021-12-27T13:41:49Z</time>
      </trkpt>
      <trkpt lat="37.7969470" lon="-3.8240750">
        <ele>509.6</ele>
        <time>2021-12-27T13:41:50Z</time>
      </trkpt>
      <trkpt lat="37.7969700" lon="-3.8240620">
        <ele>509.6</ele>
        <time>2021-12-27T13:41:51Z</time>
      </trkpt>
      <trkpt lat="37.7969980" lon="-3.8240480">
        <ele>509.8</ele>
        <time>2021-12-27T13:41:52Z</time>
      </trkpt>
      <trkpt lat="37.7970270" lon="-3.8240320">
        <ele>509.8</ele>
        <time>2021-12-27T13:41:53Z</time>
      </trkpt>
      <trkpt lat="37.7970530" lon="-3.8240150">
        <ele>509.8</ele>
        <time>2021-12-27T13:41:54Z</time>
      </trkpt>
      <trkpt lat="37.7970850" lon="-3.8240000">
        <ele>509.8</ele>
        <time>2021-12-27T13:41:55Z</time>
      </trkpt>
      <trkpt lat="37.7971200" lon="-3.8239880">
        <ele>509.8</ele>
        <time>2021-12-27T13:41:56Z</time>
      </trkpt>
      <trkpt lat="37.7971520" lon="-3.8239800">
        <ele>510.0</ele>
        <time>2021-12-27T13:41:57Z</time>
      </trkpt>
      <trkpt lat="37.7971900" lon="-3.8239720">
        <ele>510.0</ele>
        <time>2021-12-27T13:41:58Z</time>
      </trkpt>
      <trkpt lat="37.7972320" lon="-3.8239670">
        <ele>510.0</ele>
        <time>2021-12-27T13:41:59Z</time>
      </trkpt>
      <trkpt lat="37.7972770" lon="-3.8239550">
        <ele>510.0</ele>
        <time>2021-12-27T13:42:00Z</time>
      </trkpt>
      <trkpt lat="37.7973180" lon="-3.8239420">
        <ele>510.0</ele>
        <time>2021-12-27T13:42:01Z</time>
      </trkpt>
      <trkpt lat="37.7973600" lon="-3.8239220">
        <ele>510.0</ele>
        <time>2021-12-27T13:42:02Z</time>
      </trkpt>
      <trkpt lat="37.7974020" lon="-3.8238980">
        <ele>510.0</ele>
        <time>2021-12-27T13:42:03Z</time>
      </trkpt>
      <trkpt lat="37.7974430" lon="-3.8238680">
        <ele>510.0</ele>
        <time>2021-12-27T13:42:04Z</time>
      </trkpt>
      <trkpt lat="37.7974850" lon="-3.8238370">
        <ele>509.8</ele>
        <time>2021-12-27T13:42:05Z</time>
      </trkpt>
      <trkpt lat="37.7975260" lon="-3.8238020">
        <ele>509.8</ele>
        <time>2021-12-27T13:42:06Z</time>
      </trkpt>
      <trkpt lat="37.7975680" lon="-3.8237620">
        <ele>509.8</ele>
        <time>2021-12-27T13:42:07Z</time>
      </trkpt>
      <trkpt lat="37.7976130" lon="-3.8237170">
        <ele>509.8</ele>
        <time>2021-12-27T13:42:08Z</time>
      </trkpt>
      <trkpt lat="37.7976580" lon="-3.8236700">
        <ele>509.8</ele>
        <time>2021-12-27T13:42:09Z</time>
      </trkpt>
      <trkpt lat="37.7977020" lon="-3.8236220">
        <ele>509.8</ele>
        <time>2021-12-27T13:42:10Z</time>
      </trkpt>
      <trkpt lat="37.7977470" lon="-3.8235730">
        <ele>509.6</ele>
        <time>2021-12-27T13:42:11Z</time>
      </trkpt>
      <trkpt lat="37.7978020" lon="-3.8235220">
        <ele>509.6</ele>
        <time>2021-12-27T13:42:12Z</time>
      </trkpt>
      <trkpt lat="37.7978590" lon="-3.8234670">
        <ele>509.4</ele>
        <time>2021-12-27T13:42:13Z</time>
      </trkpt>
      <trkpt lat="37.7979070" lon="-3.8234100">
        <ele>509.4</ele>
        <time>2021-12-27T13:42:14Z</time>
      </trkpt>
      <trkpt lat="37.7979620" lon="-3.8233530">
        <ele>509.2</ele>
        <time>2021-12-27T13:42:15Z</time>
      </trkpt>
      <trkpt lat="37.7980130" lon="-3.8232950">
        <ele>509.2</ele>
        <time>2021-12-27T13:42:16Z</time>
      </trkpt>
      <trkpt lat="37.7980640" lon="-3.8232370">
        <ele>509.0</ele>
        <time>2021-12-27T13:42:17Z</time>
      </trkpt>
      <trkpt lat="37.7981150" lon="-3.8231830">
        <ele>508.8</ele>
        <time>2021-12-27T13:42:18Z</time>
      </trkpt>
      <trkpt lat="37.7981600" lon="-3.8231320">
        <ele>508.6</ele>
        <time>2021-12-27T13:42:19Z</time>
      </trkpt>
      <trkpt lat="37.7982020" lon="-3.8230870">
        <ele>508.4</ele>
        <time>2021-12-27T13:42:20Z</time>
      </trkpt>
      <trkpt lat="37.7982430" lon="-3.8230550">
        <ele>508.2</ele>
        <time>2021-12-27T13:42:21Z</time>
      </trkpt>
      <trkpt lat="37.7982750" lon="-3.8230330">
        <ele>508.0</ele>
        <time>2021-12-27T13:42:22Z</time>
      </trkpt>
      <trkpt lat="37.7983100" lon="-3.8230230">
        <ele>508.0</ele>
        <time>2021-12-27T13:42:23Z</time>
      </trkpt>
      <trkpt lat="37.7983330" lon="-3.8230250">
        <ele>507.8</ele>
        <time>2021-12-27T13:42:24Z</time>
      </trkpt>
      <trkpt lat="37.7983520" lon="-3.8230330">
        <ele>507.6</ele>
        <time>2021-12-27T13:42:25Z</time>
      </trkpt>
      <trkpt lat="37.7983710" lon="-3.8230420">
        <ele>507.6</ele>
        <time>2021-12-27T13:42:26Z</time>
      </trkpt>
      <trkpt lat="37.7983710" lon="-3.8230420">
        <ele>507.4</ele>
        <time>2021-12-27T13:42:27Z</time>
      </trkpt>
      <trkpt lat="37.7983710" lon="-3.8230420">
        <ele>507.4</ele>
        <time>2021-12-27T13:42:28Z</time>
      </trkpt>
      <trkpt lat="37.7983710" lon="-3.8230420">
        <ele>507.2</ele>
        <time>2021-12-27T13:42:29Z</time>
      </trkpt>
      <trkpt lat="37.7983900" lon="-3.8230550">
        <ele>507.2</ele>
        <time>2021-12-27T13:42:30Z</time>
      </trkpt>
      <trkpt lat="37.7984350" lon="-3.8230940">
        <ele>508.6</ele>
        <time>2021-12-27T13:42:48Z</time>
      </trkpt>
      <trkpt lat="37.7984540" lon="-3.8231080">
        <ele>508.6</ele>
        <time>2021-12-27T13:42:49Z</time>
      </trkpt>
      <trkpt lat="37.7984720" lon="-3.8231210">
        <ele>508.6</ele>
        <time>2021-12-27T13:42:50Z</time>
      </trkpt>
      <trkpt lat="37.7984900" lon="-3.8231350">
        <ele>508.8</ele>
        <time>2021-12-27T13:42:51Z</time>
      </trkpt>
      <trkpt lat="37.7985120" lon="-3.8231560">
        <ele>508.8</ele>
        <time>2021-12-27T13:42:52Z</time>
      </trkpt>
      <trkpt lat="37.7985410" lon="-3.8231770">
        <ele>508.8</ele>
        <time>2021-12-27T13:42:53Z</time>
      </trkpt>
      <trkpt lat="37.7985450" lon="-3.8231890">
        <ele>508.8</ele>
        <time>2021-12-27T13:42:54Z</time>
      </trkpt>
      <trkpt lat="37.7985490" lon="-3.8232020">
        <ele>508.8</ele>
        <time>2021-12-27T13:42:55Z</time>
      </trkpt>
      <trkpt lat="37.7985530" lon="-3.8232140">
        <ele>508.8</ele>
        <time>2021-12-27T13:42:56Z</time>
      </trkpt>
      <trkpt lat="37.7985570" lon="-3.8232270">
        <ele>508.8</ele>
        <time>2021-12-27T13:42:57Z</time>
      </trkpt>
      <trkpt lat="37.7985610" lon="-3.8232390">
        <ele>508.8</ele>
        <time>2021-12-27T13:42:58Z</time>
      </trkpt>
      <trkpt lat="37.7985650" lon="-3.8232510">
        <ele>508.8</ele>
        <time>2021-12-27T13:42:59Z</time>
      </trkpt>
      <trkpt lat="37.7985690" lon="-3.8232640">
        <ele>508.8</ele>
        <time>2021-12-27T13:43:00Z</time>
      </trkpt>
      <trkpt lat="37.7985730" lon="-3.8232760">
        <ele>508.8</ele>
        <time>2021-12-27T13:43:01Z</time>
      </trkpt>
      <trkpt lat="37.7985770" lon="-3.8232890">
        <ele>508.8</ele>
        <time>2021-12-27T13:43:02Z</time>
      </trkpt>
      <trkpt lat="37.7985810" lon="-3.8233010">
        <ele>508.8</ele>
        <time>2021-12-27T13:43:03Z</time>
      </trkpt>
      <trkpt lat="37.7985850" lon="-3.8233140">
        <ele>508.8</ele>
        <time>2021-12-27T13:43:04Z</time>
      </trkpt>
      <trkpt lat="37.7985890" lon="-3.8233260">
        <ele>508.8</ele>
        <time>2021-12-27T13:43:05Z</time>
      </trkpt>
      <trkpt lat="37.7985930" lon="-3.8233380">
        <ele>508.8</ele>
        <time>2021-12-27T13:43:06Z</time>
      </trkpt>
      <trkpt lat="37.7985970" lon="-3.8233510">
        <ele>508.8</ele>
        <time>2021-12-27T13:43:07Z</time>
      </trkpt>
      <trkpt lat="37.7986400" lon="-3.8235460">
        <ele>508.6</ele>
        <time>2021-12-27T13:43:08Z</time>
      </trkpt>
      <trkpt lat="37.7986270" lon="-3.8235670">
        <ele>508.6</ele>
        <time>2021-12-27T13:43:09Z</time>
      </trkpt>
      <trkpt lat="37.7986110" lon="-3.8235900">
        <ele>508.6</ele>
        <time>2021-12-27T13:43:10Z</time>
      </trkpt>
      <trkpt lat="37.7986110" lon="-3.8235900">
        <ele>508.6</ele>
        <time>2021-12-27T13:43:11Z</time>
      </trkpt>
      <trkpt lat="37.7986110" lon="-3.8235900">
        <ele>508.6</ele>
        <time>2021-12-27T13:43:12Z</time>
      </trkpt>
      <trkpt lat="37.7986110" lon="-3.8235900">
        <ele>508.6</ele>
        <time>2021-12-27T13:43:13Z</time>
      </trkpt>
      <trkpt lat="37.7985600" lon="-3.8236480">
        <ele>508.4</ele>
        <time>2021-12-27T13:43:20Z</time>
      </trkpt>
      <trkpt lat="37.7985600" lon="-3.8236480">
        <ele>508.4</ele>
        <time>2021-12-27T13:43:21Z</time>
      </trkpt>
      <trkpt lat="37.7985380" lon="-3.8236730">
        <ele>508.4</ele>
        <time>2021-12-27T13:43:22Z</time>
      </trkpt>
      <trkpt lat="37.7985380" lon="-3.8236730">
        <ele>508.2</ele>
        <time>2021-12-27T13:43:23Z</time>
      </trkpt>
      <trkpt lat="37.7985150" lon="-3.8236900">
        <ele>508.2</ele>
        <time>2021-12-27T13:43:24Z</time>
      </trkpt>
      <trkpt lat="37.7985150" lon="-3.8236900">
        <ele>508.0</ele>
        <time>2021-12-27T13:43:25Z</time>
      </trkpt>
      <trkpt lat="37.7984930" lon="-3.8237080">
        <ele>508.0</ele>
        <time>2021-12-27T13:43:26Z</time>
      </trkpt>
      <trkpt lat="37.7984930" lon="-3.8237080">
        <ele>507.8</ele>
        <time>2021-12-27T13:43:27Z</time>
      </trkpt>
      <trkpt lat="37.7984670" lon="-3.8237250">
        <ele>507.8</ele>
        <time>2021-12-27T13:43:28Z</time>
      </trkpt>
      <trkpt lat="37.7984480" lon="-3.8237320">
        <ele>507.8</ele>
        <time>2021-12-27T13:43:29Z</time>
      </trkpt>
      <trkpt lat="37.7984480" lon="-3.8237320">
        <ele>507.8</ele>
        <time>2021-12-27T13:43:30Z</time>
      </trkpt>
      <trkpt lat="37.7984160" lon="-3.8237480">
        <ele>507.8</ele>
        <time>2021-12-27T13:43:31Z</time>
      </trkpt>
      <trkpt lat="37.7984160" lon="-3.8237480">
        <ele>507.6</ele>
        <time>2021-12-27T13:43:32Z</time>
      </trkpt>
      <trkpt lat="37.7983900" lon="-3.8237570">
        <ele>507.6</ele>
        <time>2021-12-27T13:43:33Z</time>
      </trkpt>
      <trkpt lat="37.7983900" lon="-3.8237570">
        <ele>507.6</ele>
        <time>2021-12-27T13:43:34Z</time>
      </trkpt>
      <trkpt lat="37.7983680" lon="-3.8237680">
        <ele>507.6</ele>
        <time>2021-12-27T13:43:35Z</time>
      </trkpt>
      <trkpt lat="37.7983680" lon="-3.8237680">
        <ele>507.6</ele>
        <time>2021-12-27T13:43:36Z</time>
      </trkpt>
      <trkpt lat="37.7983490" lon="-3.8237830">
        <ele>507.6</ele>
        <time>2021-12-27T13:43:37Z</time>
      </trkpt>
      <trkpt lat="37.7983490" lon="-3.8237830">
        <ele>507.6</ele>
        <time>2021-12-27T13:43:38Z</time>
      </trkpt>
      <trkpt lat="37.7983300" lon="-3.8237970">
        <ele>507.6</ele>
        <time>2021-12-27T13:43:39Z</time>
      </trkpt>
      <trkpt lat="37.7983300" lon="-3.8237970">
        <ele>507.6</ele>
        <time>2021-12-27T13:43:40Z</time>
      </trkpt>
      <trkpt lat="37.7983300" lon="-3.8237970">
        <ele>507.6</ele>
        <time>2021-12-27T13:43:41Z</time>
      </trkpt>
      <trkpt lat="37.7983300" lon="-3.8237970">
        <ele>507.8</ele>
        <time>2021-12-27T13:43:42Z</time>
      </trkpt>
      <trkpt lat="37.7983300" lon="-3.8237970">
        <ele>507.6</ele>
        <time>2021-12-27T13:43:43Z</time>
      </trkpt>
      <trkpt lat="37.7982560" lon="-3.8238450">
        <ele>505.6</ele>
        <time>2021-12-27T13:44:23Z</time>
      </trkpt>
      <trkpt lat="37.7982370" lon="-3.8238580">
        <ele>505.6</ele>
        <time>2021-12-27T13:44:24Z</time>
      </trkpt>
      <trkpt lat="37.7982180" lon="-3.8238770">
        <ele>505.6</ele>
        <time>2021-12-27T13:44:25Z</time>
      </trkpt>
      <trkpt lat="37.7982020" lon="-3.8238950">
        <ele>505.6</ele>
        <time>2021-12-27T13:44:26Z</time>
      </trkpt>
      <trkpt lat="37.7981890" lon="-3.8239130">
        <ele>505.6</ele>
        <time>2021-12-27T13:44:27Z</time>
      </trkpt>
      <trkpt lat="37.7981700" lon="-3.8239250">
        <ele>505.6</ele>
        <time>2021-12-27T13:44:28Z</time>
      </trkpt>
      <trkpt lat="37.7981500" lon="-3.8239350">
        <ele>505.8</ele>
        <time>2021-12-27T13:44:29Z</time>
      </trkpt>
      <trkpt lat="37.7981500" lon="-3.8239350">
        <ele>505.8</ele>
        <time>2021-12-27T13:44:30Z</time>
      </trkpt>
      <trkpt lat="37.7981180" lon="-3.8239470">
        <ele>505.8</ele>
        <time>2021-12-27T13:44:31Z</time>
      </trkpt>
      <trkpt lat="37.7981180" lon="-3.8239470">
        <ele>505.8</ele>
        <time>2021-12-27T13:44:32Z</time>
      </trkpt>
      <trkpt lat="37.7980900" lon="-3.8239600">
        <ele>506.0</ele>
        <time>2021-12-27T13:44:33Z</time>
      </trkpt>
      <trkpt lat="37.7980700" lon="-3.8239670">
        <ele>506.0</ele>
        <time>2021-12-27T13:44:34Z</time>
      </trkpt>
      <trkpt lat="37.7980700" lon="-3.8239670">
        <ele>506.2</ele>
        <time>2021-12-27T13:44:35Z</time>
      </trkpt>
      <trkpt lat="37.7980420" lon="-3.8239850">
        <ele>506.2</ele>
        <time>2021-12-27T13:44:36Z</time>
      </trkpt>
      <trkpt lat="37.7980420" lon="-3.8239850">
        <ele>506.2</ele>
        <time>2021-12-27T13:44:37Z</time>
      </trkpt>
      <trkpt lat="37.7980160" lon="-3.8240030">
        <ele>506.2</ele>
        <time>2021-12-27T13:44:38Z</time>
      </trkpt>
      <trkpt lat="37.7980160" lon="-3.8240030">
        <ele>506.4</ele>
        <time>2021-12-27T13:44:39Z</time>
      </trkpt>
      <trkpt lat="37.7979900" lon="-3.8240230">
        <ele>506.4</ele>
        <time>2021-12-27T13:44:40Z</time>
      </trkpt>
      <trkpt lat="37.7979900" lon="-3.8240230">
        <ele>506.6</ele>
        <time>2021-12-27T13:44:41Z</time>
      </trkpt>
      <trkpt lat="37.7979580" lon="-3.8240430">
        <ele>506.6</ele>
        <time>2021-12-27T13:44:42Z</time>
      </trkpt>
      <trkpt lat="37.7979390" lon="-3.8240500">
        <ele>506.8</ele>
        <time>2021-12-27T13:44:43Z</time>
      </trkpt>
      <trkpt lat="37.7979200" lon="-3.8240570">
        <ele>506.8</ele>
        <time>2021-12-27T13:44:44Z</time>
      </trkpt>
      <trkpt lat="37.7979010" lon="-3.8240670">
        <ele>507.0</ele>
        <time>2021-12-27T13:44:45Z</time>
      </trkpt>
      <trkpt lat="37.7978820" lon="-3.8240750">
        <ele>507.0</ele>
        <time>2021-12-27T13:44:46Z</time>
      </trkpt>
      <trkpt lat="37.7978620" lon="-3.8240850">
        <ele>507.0</ele>
        <time>2021-12-27T13:44:47Z</time>
      </trkpt>
      <trkpt lat="37.7978430" lon="-3.8240930">
        <ele>507.0</ele>
        <time>2021-12-27T13:44:48Z</time>
      </trkpt>
      <trkpt lat="37.7978240" lon="-3.8241030">
        <ele>507.2</ele>
        <time>2021-12-27T13:44:49Z</time>
      </trkpt>
      <trkpt lat="37.7978240" lon="-3.8241030">
        <ele>507.2</ele>
        <time>2021-12-27T13:44:50Z</time>
      </trkpt>
      <trkpt lat="37.7977920" lon="-3.8241250">
        <ele>507.4</ele>
        <time>2021-12-27T13:44:51Z</time>
      </trkpt>
      <trkpt lat="37.7977760" lon="-3.8241370">
        <ele>507.4</ele>
        <time>2021-12-27T13:44:52Z</time>
      </trkpt>
      <trkpt lat="37.7977600" lon="-3.8241500">
        <ele>507.4</ele>
        <time>2021-12-27T13:44:53Z</time>
      </trkpt>
      <trkpt lat="37.7977410" lon="-3.8241670">
        <ele>507.4</ele>
        <time>2021-12-27T13:44:54Z</time>
      </trkpt>
      <trkpt lat="37.7977410" lon="-3.8241670">
        <ele>507.6</ele>
        <time>2021-12-27T13:44:55Z</time>
      </trkpt>
      <trkpt lat="37.7977150" lon="-3.8242000">
        <ele>507.6</ele>
        <time>2021-12-27T13:44:56Z</time>
      </trkpt>
      <trkpt lat="37.7977020" lon="-3.8242170">
        <ele>507.6</ele>
        <time>2021-12-27T13:44:57Z</time>
      </trkpt>
      <trkpt lat="37.7976860" lon="-3.8242330">
        <ele>507.6</ele>
        <time>2021-12-27T13:44:58Z</time>
      </trkpt>
      <trkpt lat="37.7976860" lon="-3.8242330">
        <ele>507.6</ele>
        <time>2021-12-27T13:44:59Z</time>
      </trkpt>
      <trkpt lat="37.7976640" lon="-3.8242620">
        <ele>507.8</ele>
        <time>2021-12-27T13:45:00Z</time>
      </trkpt>
      <trkpt lat="37.7976480" lon="-3.8242820">
        <ele>508.0</ele>
        <time>2021-12-27T13:45:01Z</time>
      </trkpt>
      <trkpt lat="37.7976480" lon="-3.8242820">
        <ele>508.2</ele>
        <time>2021-12-27T13:45:02Z</time>
      </trkpt>
      <trkpt lat="37.7976290" lon="-3.8243200">
        <ele>508.4</ele>
        <time>2021-12-27T13:45:03Z</time>
      </trkpt>
      <trkpt lat="37.7976290" lon="-3.8243200">
        <ele>508.6</ele>
        <time>2021-12-27T13:45:04Z</time>
      </trkpt>
      <trkpt lat="37.7976160" lon="-3.8243580">
        <ele>508.6</ele>
        <time>2021-12-27T13:45:05Z</time>
      </trkpt>
      <trkpt lat="37.7976160" lon="-3.8243580">
        <ele>508.8</ele>
        <time>2021-12-27T13:45:06Z</time>
      </trkpt>
      <trkpt lat="37.7976060" lon="-3.8243970">
        <ele>508.8</ele>
        <time>2021-12-27T13:45:07Z</time>
      </trkpt>
      <trkpt lat="37.7976060" lon="-3.8243970">
        <ele>509.0</ele>
        <time>2021-12-27T13:45:08Z</time>
      </trkpt>
      <trkpt lat="37.7976030" lon="-3.8244330">
        <ele>509.2</ele>
        <time>2021-12-27T13:45:09Z</time>
      </trkpt>
      <trkpt lat="37.7976030" lon="-3.8244330">
        <ele>509.4</ele>
        <time>2021-12-27T13:45:10Z</time>
      </trkpt>
      <trkpt lat="37.7976030" lon="-3.8244720">
        <ele>509.4</ele>
        <time>2021-12-27T13:45:11Z</time>
      </trkpt>
      <trkpt lat="37.7976030" lon="-3.8244720">
        <ele>509.6</ele>
        <time>2021-12-27T13:45:12Z</time>
      </trkpt>
      <trkpt lat="37.7976130" lon="-3.8245120">
        <ele>509.8</ele>
        <time>2021-12-27T13:45:13Z</time>
      </trkpt>
      <trkpt lat="37.7976130" lon="-3.8245120">
        <ele>510.0</ele>
        <time>2021-12-27T13:45:14Z</time>
      </trkpt>
      <trkpt lat="37.7976220" lon="-3.8245450">
        <ele>510.0</ele>
        <time>2021-12-27T13:45:15Z</time>
      </trkpt>
      <trkpt lat="37.7976220" lon="-3.8245450">
        <ele>510.2</ele>
        <time>2021-12-27T13:45:16Z</time>
      </trkpt>
      <trkpt lat="37.7976380" lon="-3.8245780">
        <ele>510.4</ele>
        <time>2021-12-27T13:45:17Z</time>
      </trkpt>
      <trkpt lat="37.7976540" lon="-3.8245930">
        <ele>510.6</ele>
        <time>2021-12-27T13:45:18Z</time>
      </trkpt>
      <trkpt lat="37.7976540" lon="-3.8245930">
        <ele>510.6</ele>
        <time>2021-12-27T13:45:19Z</time>
      </trkpt>
      <trkpt lat="37.7976770" lon="-3.8246170">
        <ele>510.8</ele>
        <time>2021-12-27T13:45:20Z</time>
      </trkpt>
      <trkpt lat="37.7976930" lon="-3.8246280">
        <ele>511.0</ele>
        <time>2021-12-27T13:45:21Z</time>
      </trkpt>
      <trkpt lat="37.7976930" lon="-3.8246280">
        <ele>511.0</ele>
        <time>2021-12-27T13:45:22Z</time>
      </trkpt>
      <trkpt lat="37.7977220" lon="-3.8246480">
        <ele>511.2</ele>
        <time>2021-12-27T13:45:23Z</time>
      </trkpt>
      <trkpt lat="37.7977220" lon="-3.8246480">
        <ele>511.2</ele>
        <time>2021-12-27T13:45:24Z</time>
      </trkpt>
      <trkpt lat="37.7977540" lon="-3.8246680">
        <ele>511.2</ele>
        <time>2021-12-27T13:45:25Z</time>
      </trkpt>
      <trkpt lat="37.7977540" lon="-3.8246680">
        <ele>511.2</ele>
        <time>2021-12-27T13:45:26Z</time>
      </trkpt>
      <trkpt lat="37.7977820" lon="-3.8246900">
        <ele>511.4</ele>
        <time>2021-12-27T13:45:27Z</time>
      </trkpt>
      <trkpt lat="37.7977980" lon="-3.8247050">
        <ele>511.4</ele>
        <time>2021-12-27T13:45:28Z</time>
      </trkpt>
      <trkpt lat="37.7978140" lon="-3.8247200">
        <ele>511.6</ele>
        <time>2021-12-27T13:45:29Z</time>
      </trkpt>
      <trkpt lat="37.7978340" lon="-3.8247350">
        <ele>511.8</ele>
        <time>2021-12-27T13:45:30Z</time>
      </trkpt>
      <trkpt lat="37.7978340" lon="-3.8247350">
        <ele>511.8</ele>
        <time>2021-12-27T13:45:31Z</time>
      </trkpt>
      <trkpt lat="37.7978620" lon="-3.8247620">
        <ele>512.0</ele>
        <time>2021-12-27T13:45:32Z</time>
      </trkpt>
      <trkpt lat="37.7978780" lon="-3.8247770">
        <ele>512.2</ele>
        <time>2021-12-27T13:45:33Z</time>
      </trkpt>
      <trkpt lat="37.7978780" lon="-3.8247770">
        <ele>512.4</ele>
        <time>2021-12-27T13:45:34Z</time>
      </trkpt>
      <trkpt lat="37.7979040" lon="-3.8248070">
        <ele>512.6</ele>
        <time>2021-12-27T13:45:35Z</time>
      </trkpt>
      <trkpt lat="37.7979230" lon="-3.8248220">
        <ele>512.8</ele>
        <time>2021-12-27T13:45:36Z</time>
      </trkpt>
      <trkpt lat="37.7979390" lon="-3.8248330">
        <ele>512.8</ele>
        <time>2021-12-27T13:45:37Z</time>
      </trkpt>
      <trkpt lat="37.7979580" lon="-3.8248420">
        <ele>513.0</ele>
        <time>2021-12-27T13:45:38Z</time>
      </trkpt>
      <trkpt lat="37.7979740" lon="-3.8248540">
        <ele>513.0</ele>
        <time>2021-12-27T13:45:39Z</time>
      </trkpt>
      <trkpt lat="37.7979940" lon="-3.8248670">
        <ele>513.2</ele>
        <time>2021-12-27T13:45:40Z</time>
      </trkpt>
      <trkpt lat="37.7980130" lon="-3.8248820">
        <ele>513.4</ele>
        <time>2021-12-27T13:45:41Z</time>
      </trkpt>
      <trkpt lat="37.7980130" lon="-3.8248820">
        <ele>513.4</ele>
        <time>2021-12-27T13:45:42Z</time>
      </trkpt>
      <trkpt lat="37.7980380" lon="-3.8249150">
        <ele>513.6</ele>
        <time>2021-12-27T13:45:43Z</time>
      </trkpt>
      <trkpt lat="37.7980540" lon="-3.8249330">
        <ele>513.8</ele>
        <time>2021-12-27T13:45:44Z</time>
      </trkpt>
      <trkpt lat="37.7980700" lon="-3.8249520">
        <ele>513.8</ele>
        <time>2021-12-27T13:45:45Z</time>
      </trkpt>
      <trkpt lat="37.7980830" lon="-3.8249680">
        <ele>514.0</ele>
        <time>2021-12-27T13:45:46Z</time>
      </trkpt>
      <trkpt lat="37.7980830" lon="-3.8249680">
        <ele>514.0</ele>
        <time>2021-12-27T13:45:47Z</time>
      </trkpt>
      <trkpt lat="37.7981120" lon="-3.8249980">
        <ele>514.2</ele>
        <time>2021-12-27T13:45:48Z</time>
      </trkpt>
      <trkpt lat="37.7981120" lon="-3.8249980">
        <ele>514.2</ele>
        <time>2021-12-27T13:45:49Z</time>
      </trkpt>
      <trkpt lat="37.7981380" lon="-3.8250250">
        <ele>514.2</ele>
        <time>2021-12-27T13:45:50Z</time>
      </trkpt>
      <trkpt lat="37.7981570" lon="-3.8250350">
        <ele>514.4</ele>
        <time>2021-12-27T13:45:51Z</time>
      </trkpt>
      <trkpt lat="37.7981570" lon="-3.8250350">
        <ele>514.4</ele>
        <time>2021-12-27T13:45:52Z</time>
      </trkpt>
      <trkpt lat="37.7981790" lon="-3.8250560">
        <ele>514.6</ele>
        <time>2021-12-27T13:45:53Z</time>
      </trkpt>
      <trkpt lat="37.7981790" lon="-3.8250560">
        <ele>514.6</ele>
        <time>2021-12-27T13:45:54Z</time>
      </trkpt>
      <trkpt lat="37.7981790" lon="-3.8250560">
        <ele>514.6</ele>
        <time>2021-12-27T13:45:55Z</time>
      </trkpt>
      <trkpt lat="37.7981790" lon="-3.8250560">
        <ele>514.6</ele>
        <time>2021-12-27T13:45:56Z</time>
      </trkpt>
      <trkpt lat="37.7981790" lon="-3.8250560">
        <ele>514.6</ele>
        <time>2021-12-27T13:45:57Z</time>
      </trkpt>
      <trkpt lat="37.7981790" lon="-3.8250560">
        <ele>515.8</ele>
        <time>2021-12-27T13:47:19Z</time>
      </trkpt>
      <trkpt lat="37.7982370" lon="-3.8251580">
        <ele>516.0</ele>
        <time>2021-12-27T13:47:20Z</time>
      </trkpt>
      <trkpt lat="37.7982530" lon="-3.8251770">
        <ele>516.0</ele>
        <time>2021-12-27T13:47:21Z</time>
      </trkpt>
      <trkpt lat="37.7982690" lon="-3.8251920">
        <ele>516.0</ele>
        <time>2021-12-27T13:47:22Z</time>
      </trkpt>
      <trkpt lat="37.7982690" lon="-3.8251920">
        <ele>516.0</ele>
        <time>2021-12-27T13:47:23Z</time>
      </trkpt>
      <trkpt lat="37.7982940" lon="-3.8252200">
        <ele>516.0</ele>
        <time>2021-12-27T13:47:24Z</time>
      </trkpt>
      <trkpt lat="37.7982940" lon="-3.8252200">
        <ele>516.0</ele>
        <time>2021-12-27T13:47:25Z</time>
      </trkpt>
      <trkpt lat="37.7983170" lon="-3.8252370">
        <ele>516.0</ele>
        <time>2021-12-27T13:47:26Z</time>
      </trkpt>
      <trkpt lat="37.7983170" lon="-3.8252370">
        <ele>516.0</ele>
        <time>2021-12-27T13:47:27Z</time>
      </trkpt>
      <trkpt lat="37.7983170" lon="-3.8252370">
        <ele>516.2</ele>
        <time>2021-12-27T13:47:28Z</time>
      </trkpt>
      <trkpt lat="37.7983170" lon="-3.8252370">
        <ele>516.2</ele>
        <time>2021-12-27T13:47:29Z</time>
      </trkpt>
      <trkpt lat="37.7983170" lon="-3.8252370">
        <ele>516.2</ele>
        <time>2021-12-27T13:47:30Z</time>
      </trkpt>
      <trkpt lat="37.7983170" lon="-3.8252370">
        <ele>516.2</ele>
        <time>2021-12-27T13:47:31Z</time>
      </trkpt>
      <trkpt lat="37.7983810" lon="-3.8253130">
        <ele>516.2</ele>
        <time>2021-12-27T13:49:58Z</time>
      </trkpt>
      <trkpt lat="37.7984000" lon="-3.8253370">
        <ele>516.2</ele>
        <time>2021-12-27T13:49:59Z</time>
      </trkpt>
      <trkpt lat="37.7984400" lon="-3.8253780">
        <ele>516.2</ele>
        <time>2021-12-27T13:50:00Z</time>
      </trkpt>
      <trkpt lat="37.7984510" lon="-3.8253920">
        <ele>516.4</ele>
        <time>2021-12-27T13:50:01Z</time>
      </trkpt>
      <trkpt lat="37.7984770" lon="-3.8254220">
        <ele>516.4</ele>
        <time>2021-12-27T13:50:02Z</time>
      </trkpt>
      <trkpt lat="37.7985090" lon="-3.8254530">
        <ele>516.4</ele>
        <time>2021-12-27T13:50:03Z</time>
      </trkpt>
      <trkpt lat="37.7985380" lon="-3.8254830">
        <ele>516.4</ele>
        <time>2021-12-27T13:50:04Z</time>
      </trkpt>
      <trkpt lat="37.7985660" lon="-3.8255120">
        <ele>516.4</ele>
        <time>2021-12-27T13:50:05Z</time>
      </trkpt>
      <trkpt lat="37.7985950" lon="-3.8255440">
        <ele>516.4</ele>
        <time>2021-12-27T13:50:06Z</time>
      </trkpt>
      <trkpt lat="37.7986270" lon="-3.8255770">
        <ele>516.6</ele>
        <time>2021-12-27T13:50:07Z</time>
      </trkpt>
      <trkpt lat="37.7986560" lon="-3.8256080">
        <ele>516.6</ele>
        <time>2021-12-27T13:50:08Z</time>
      </trkpt>
      <trkpt lat="37.7986820" lon="-3.8256400">
        <ele>516.6</ele>
        <time>2021-12-27T13:50:09Z</time>
      </trkpt>
      <trkpt lat="37.7987100" lon="-3.8256770">
        <ele>516.6</ele>
        <time>2021-12-27T13:50:10Z</time>
      </trkpt>
      <trkpt lat="37.7987460" lon="-3.8257170">
        <ele>516.6</ele>
        <time>2021-12-27T13:50:11Z</time>
      </trkpt>
      <trkpt lat="37.7987780" lon="-3.8257580">
        <ele>516.8</ele>
        <time>2021-12-27T13:50:12Z</time>
      </trkpt>
      <trkpt lat="37.7988130" lon="-3.8258000">
        <ele>516.8</ele>
        <time>2021-12-27T13:50:13Z</time>
      </trkpt>
      <trkpt lat="37.7988480" lon="-3.8258430">
        <ele>516.8</ele>
        <time>2021-12-27T13:50:14Z</time>
      </trkpt>
      <trkpt lat="37.7988800" lon="-3.8258880">
        <ele>516.8</ele>
        <time>2021-12-27T13:50:15Z</time>
      </trkpt>
      <trkpt lat="37.7989180" lon="-3.8259350">
        <ele>516.8</ele>
        <time>2021-12-27T13:50:16Z</time>
      </trkpt>
      <trkpt lat="37.7989500" lon="-3.8259800">
        <ele>516.8</ele>
        <time>2021-12-27T13:50:17Z</time>
      </trkpt>
      <trkpt lat="37.7989790" lon="-3.8260280">
        <ele>516.8</ele>
        <time>2021-12-27T13:50:18Z</time>
      </trkpt>
      <trkpt lat="37.7990140" lon="-3.8260780">
        <ele>516.8</ele>
        <time>2021-12-27T13:50:19Z</time>
      </trkpt>
      <trkpt lat="37.7990430" lon="-3.8261300">
        <ele>516.8</ele>
        <time>2021-12-27T13:50:20Z</time>
      </trkpt>
      <trkpt lat="37.7990620" lon="-3.8261830">
        <ele>516.8</ele>
        <time>2021-12-27T13:50:21Z</time>
      </trkpt>
      <trkpt lat="37.7990780" lon="-3.8262380">
        <ele>516.8</ele>
        <time>2021-12-27T13:50:22Z</time>
      </trkpt>
      <trkpt lat="37.7990980" lon="-3.8262950">
        <ele>516.8</ele>
        <time>2021-12-27T13:50:23Z</time>
      </trkpt>
      <trkpt lat="37.7991100" lon="-3.8263480">
        <ele>516.8</ele>
        <time>2021-12-27T13:50:24Z</time>
      </trkpt>
      <trkpt lat="37.7991230" lon="-3.8263980">
        <ele>516.8</ele>
        <time>2021-12-27T13:50:25Z</time>
      </trkpt>
      <trkpt lat="37.7991330" lon="-3.8264430">
        <ele>517.0</ele>
        <time>2021-12-27T13:50:26Z</time>
      </trkpt>
      <trkpt lat="37.7991460" lon="-3.8264900">
        <ele>517.0</ele>
        <time>2021-12-27T13:50:27Z</time>
      </trkpt>
      <trkpt lat="37.7991520" lon="-3.8265350">
        <ele>517.0</ele>
        <time>2021-12-27T13:50:28Z</time>
      </trkpt>
      <trkpt lat="37.7991620" lon="-3.8265770">
        <ele>517.0</ele>
        <time>2021-12-27T13:50:29Z</time>
      </trkpt>
      <trkpt lat="37.7991710" lon="-3.8266200">
        <ele>517.0</ele>
        <time>2021-12-27T13:50:30Z</time>
      </trkpt>
      <trkpt lat="37.7991780" lon="-3.8266630">
        <ele>517.0</ele>
        <time>2021-12-27T13:50:31Z</time>
      </trkpt>
      <trkpt lat="37.7991870" lon="-3.8267050">
        <ele>517.0</ele>
        <time>2021-12-27T13:50:32Z</time>
      </trkpt>
      <trkpt lat="37.7991970" lon="-3.8267420">
        <ele>517.0</ele>
        <time>2021-12-27T13:50:33Z</time>
      </trkpt>
      <trkpt lat="37.7992100" lon="-3.8267780">
        <ele>517.0</ele>
        <time>2021-12-27T13:50:34Z</time>
      </trkpt>
      <trkpt lat="37.7992160" lon="-3.8268150">
        <ele>517.0</ele>
        <time>2021-12-27T13:50:35Z</time>
      </trkpt>
      <trkpt lat="37.7992290" lon="-3.8268480">
        <ele>517.0</ele>
        <time>2021-12-27T13:50:36Z</time>
      </trkpt>
      <trkpt lat="37.7992420" lon="-3.8268850">
        <ele>517.0</ele>
        <time>2021-12-27T13:50:37Z</time>
      </trkpt>
      <trkpt lat="37.7992510" lon="-3.8269180">
        <ele>517.0</ele>
        <time>2021-12-27T13:50:38Z</time>
      </trkpt>
      <trkpt lat="37.7992580" lon="-3.8269550">
        <ele>517.0</ele>
        <time>2021-12-27T13:50:39Z</time>
      </trkpt>
      <trkpt lat="37.7992670" lon="-3.8269920">
        <ele>517.0</ele>
        <time>2021-12-27T13:50:40Z</time>
      </trkpt>
      <trkpt lat="37.7992700" lon="-3.8270280">
        <ele>517.0</ele>
        <time>2021-12-27T13:50:41Z</time>
      </trkpt>
      <trkpt lat="37.7992770" lon="-3.8270630">
        <ele>517.0</ele>
        <time>2021-12-27T13:50:42Z</time>
      </trkpt>
      <trkpt lat="37.7992860" lon="-3.8270980">
        <ele>517.0</ele>
        <time>2021-12-27T13:50:43Z</time>
      </trkpt>
      <trkpt lat="37.7992960" lon="-3.8271320">
        <ele>517.0</ele>
        <time>2021-12-27T13:50:44Z</time>
      </trkpt>
      <trkpt lat="37.7993090" lon="-3.8271660">
        <ele>517.0</ele>
        <time>2021-12-27T13:50:45Z</time>
      </trkpt>
      <trkpt lat="37.7993220" lon="-3.8272000">
        <ele>517.0</ele>
        <time>2021-12-27T13:50:46Z</time>
      </trkpt>
      <trkpt lat="37.7993280" lon="-3.8272330">
        <ele>517.2</ele>
        <time>2021-12-27T13:50:47Z</time>
      </trkpt>
      <trkpt lat="37.7993340" lon="-3.8272670">
        <ele>517.2</ele>
        <time>2021-12-27T13:50:48Z</time>
      </trkpt>
      <trkpt lat="37.7993470" lon="-3.8273040">
        <ele>517.2</ele>
        <time>2021-12-27T13:50:49Z</time>
      </trkpt>
      <trkpt lat="37.7993570" lon="-3.8273380">
        <ele>517.4</ele>
        <time>2021-12-27T13:50:50Z</time>
      </trkpt>
      <trkpt lat="37.7993660" lon="-3.8273750">
        <ele>517.6</ele>
        <time>2021-12-27T13:50:51Z</time>
      </trkpt>
      <trkpt lat="37.7993730" lon="-3.8274130">
        <ele>517.6</ele>
        <time>2021-12-27T13:50:52Z</time>
      </trkpt>
      <trkpt lat="37.7993860" lon="-3.8274530">
        <ele>517.6</ele>
        <time>2021-12-27T13:50:53Z</time>
      </trkpt>
      <trkpt lat="37.7993890" lon="-3.8274920">
        <ele>517.6</ele>
        <time>2021-12-27T13:50:54Z</time>
      </trkpt>
      <trkpt lat="37.7993950" lon="-3.8275300">
        <ele>517.8</ele>
        <time>2021-12-27T13:50:55Z</time>
      </trkpt>
      <trkpt lat="37.7994020" lon="-3.8275670">
        <ele>517.8</ele>
        <time>2021-12-27T13:50:56Z</time>
      </trkpt>
      <trkpt lat="37.7994080" lon="-3.8276020">
        <ele>517.8</ele>
        <time>2021-12-27T13:50:57Z</time>
      </trkpt>
      <trkpt lat="37.7994110" lon="-3.8276380">
        <ele>517.8</ele>
        <time>2021-12-27T13:50:58Z</time>
      </trkpt>
      <trkpt lat="37.7994210" lon="-3.8276740">
        <ele>518.0</ele>
        <time>2021-12-27T13:50:59Z</time>
      </trkpt>
      <trkpt lat="37.7994240" lon="-3.8277100">
        <ele>518.0</ele>
        <time>2021-12-27T13:51:00Z</time>
      </trkpt>
      <trkpt lat="37.7994300" lon="-3.8277470">
        <ele>518.0</ele>
        <time>2021-12-27T13:51:01Z</time>
      </trkpt>
      <trkpt lat="37.7994400" lon="-3.8277850">
        <ele>518.2</ele>
        <time>2021-12-27T13:51:02Z</time>
      </trkpt>
      <trkpt lat="37.7994430" lon="-3.8278200">
        <ele>518.0</ele>
        <time>2021-12-27T13:51:03Z</time>
      </trkpt>
      <trkpt lat="37.7994500" lon="-3.8278530">
        <ele>518.0</ele>
        <time>2021-12-27T13:51:04Z</time>
      </trkpt>
      <trkpt lat="37.7994530" lon="-3.8278850">
        <ele>518.0</ele>
        <time>2021-12-27T13:51:05Z</time>
      </trkpt>
      <trkpt lat="37.7994620" lon="-3.8279170">
        <ele>518.0</ele>
        <time>2021-12-27T13:51:06Z</time>
      </trkpt>
      <trkpt lat="37.7994660" lon="-3.8279480">
        <ele>518.0</ele>
        <time>2021-12-27T13:51:07Z</time>
      </trkpt>
      <trkpt lat="37.7994690" lon="-3.8279770">
        <ele>518.0</ele>
        <time>2021-12-27T13:51:08Z</time>
      </trkpt>
      <trkpt lat="37.7994720" lon="-3.8280070">
        <ele>517.8</ele>
        <time>2021-12-27T13:51:09Z</time>
      </trkpt>
      <trkpt lat="37.7994720" lon="-3.8280340">
        <ele>517.8</ele>
        <time>2021-12-27T13:51:10Z</time>
      </trkpt>
      <trkpt lat="37.7994720" lon="-3.8280620">
        <ele>517.6</ele>
        <time>2021-12-27T13:51:11Z</time>
      </trkpt>
      <trkpt lat="37.7994720" lon="-3.8280930">
        <ele>517.8</ele>
        <time>2021-12-27T13:51:12Z</time>
      </trkpt>
      <trkpt lat="37.7994720" lon="-3.8281250">
        <ele>517.8</ele>
        <time>2021-12-27T13:51:13Z</time>
      </trkpt>
      <trkpt lat="37.7994750" lon="-3.8281550">
        <ele>517.8</ele>
        <time>2021-12-27T13:51:14Z</time>
      </trkpt>
      <trkpt lat="37.7994750" lon="-3.8281870">
        <ele>517.8</ele>
        <time>2021-12-27T13:51:15Z</time>
      </trkpt>
      <trkpt lat="37.7994750" lon="-3.8282160">
        <ele>518.0</ele>
        <time>2021-12-27T13:51:16Z</time>
      </trkpt>
      <trkpt lat="37.7994720" lon="-3.8282460">
        <ele>517.8</ele>
        <time>2021-12-27T13:51:17Z</time>
      </trkpt>
      <trkpt lat="37.7994720" lon="-3.8282780">
        <ele>517.8</ele>
        <time>2021-12-27T13:51:18Z</time>
      </trkpt>
      <trkpt lat="37.7994750" lon="-3.8283070">
        <ele>517.8</ele>
        <time>2021-12-27T13:51:19Z</time>
      </trkpt>
      <trkpt lat="37.7994750" lon="-3.8283380">
        <ele>517.8</ele>
        <time>2021-12-27T13:51:20Z</time>
      </trkpt>
      <trkpt lat="37.7994820" lon="-3.8283670">
        <ele>517.8</ele>
        <time>2021-12-27T13:51:21Z</time>
      </trkpt>
      <trkpt lat="37.7994820" lon="-3.8283970">
        <ele>517.8</ele>
        <time>2021-12-27T13:51:22Z</time>
      </trkpt>
      <trkpt lat="37.7994850" lon="-3.8284260">
        <ele>518.0</ele>
        <time>2021-12-27T13:51:23Z</time>
      </trkpt>
      <trkpt lat="37.7994850" lon="-3.8284570">
        <ele>518.0</ele>
        <time>2021-12-27T13:51:24Z</time>
      </trkpt>
      <trkpt lat="37.7994850" lon="-3.8284880">
        <ele>518.0</ele>
        <time>2021-12-27T13:51:25Z</time>
      </trkpt>
      <trkpt lat="37.7994820" lon="-3.8285200">
        <ele>518.0</ele>
        <time>2021-12-27T13:51:26Z</time>
      </trkpt>
      <trkpt lat="37.7994820" lon="-3.8285530">
        <ele>518.2</ele>
        <time>2021-12-27T13:51:27Z</time>
      </trkpt>
      <trkpt lat="37.7994750" lon="-3.8285860">
        <ele>518.2</ele>
        <time>2021-12-27T13:51:28Z</time>
      </trkpt>
      <trkpt lat="37.7994750" lon="-3.8286180">
        <ele>518.2</ele>
        <time>2021-12-27T13:51:29Z</time>
      </trkpt>
      <trkpt lat="37.7994750" lon="-3.8286500">
        <ele>518.4</ele>
        <time>2021-12-27T13:51:30Z</time>
      </trkpt>
      <trkpt lat="37.7994750" lon="-3.8286820">
        <ele>518.6</ele>
        <time>2021-12-27T13:51:31Z</time>
      </trkpt>
      <trkpt lat="37.7994750" lon="-3.8287120">
        <ele>518.6</ele>
        <time>2021-12-27T13:51:32Z</time>
      </trkpt>
      <trkpt lat="37.7994750" lon="-3.8287420">
        <ele>518.6</ele>
        <time>2021-12-27T13:51:33Z</time>
      </trkpt>
      <trkpt lat="37.7994750" lon="-3.8287700">
        <ele>518.6</ele>
        <time>2021-12-27T13:51:34Z</time>
      </trkpt>
      <trkpt lat="37.7994750" lon="-3.8288000">
        <ele>518.8</ele>
        <time>2021-12-27T13:51:35Z</time>
      </trkpt>
      <trkpt lat="37.7994750" lon="-3.8288280">
        <ele>518.8</ele>
        <time>2021-12-27T13:51:36Z</time>
      </trkpt>
      <trkpt lat="37.7994750" lon="-3.8288570">
        <ele>518.8</ele>
        <time>2021-12-27T13:51:37Z</time>
      </trkpt>
      <trkpt lat="37.7994750" lon="-3.8288870">
        <ele>518.8</ele>
        <time>2021-12-27T13:51:38Z</time>
      </trkpt>
      <trkpt lat="37.7994750" lon="-3.8289160">
        <ele>518.8</ele>
        <time>2021-12-27T13:51:39Z</time>
      </trkpt>
      <trkpt lat="37.7994750" lon="-3.8289460">
        <ele>518.8</ele>
        <time>2021-12-27T13:51:40Z</time>
      </trkpt>
      <trkpt lat="37.7994750" lon="-3.8289750">
        <ele>518.8</ele>
        <time>2021-12-27T13:51:41Z</time>
      </trkpt>
      <trkpt lat="37.7994720" lon="-3.8290030">
        <ele>519.0</ele>
        <time>2021-12-27T13:51:42Z</time>
      </trkpt>
      <trkpt lat="37.7994720" lon="-3.8290350">
        <ele>519.2</ele>
        <time>2021-12-27T13:51:43Z</time>
      </trkpt>
      <trkpt lat="37.7994720" lon="-3.8290650">
        <ele>519.2</ele>
        <time>2021-12-27T13:51:44Z</time>
      </trkpt>
      <trkpt lat="37.7994690" lon="-3.8290970">
        <ele>519.4</ele>
        <time>2021-12-27T13:51:45Z</time>
      </trkpt>
      <trkpt lat="37.7994690" lon="-3.8291260">
        <ele>519.4</ele>
        <time>2021-12-27T13:51:46Z</time>
      </trkpt>
      <trkpt lat="37.7994660" lon="-3.8291570">
        <ele>519.4</ele>
        <time>2021-12-27T13:51:47Z</time>
      </trkpt>
      <trkpt lat="37.7994660" lon="-3.8291870">
        <ele>519.4</ele>
        <time>2021-12-27T13:51:48Z</time>
      </trkpt>
      <trkpt lat="37.7994660" lon="-3.8292170">
        <ele>519.4</ele>
        <time>2021-12-27T13:51:49Z</time>
      </trkpt>
      <trkpt lat="37.7994660" lon="-3.8292460">
        <ele>519.4</ele>
        <time>2021-12-27T13:51:50Z</time>
      </trkpt>
      <trkpt lat="37.7994660" lon="-3.8292780">
        <ele>519.4</ele>
        <time>2021-12-27T13:51:51Z</time>
      </trkpt>
      <trkpt lat="37.7994620" lon="-3.8293080">
        <ele>519.4</ele>
        <time>2021-12-27T13:51:52Z</time>
      </trkpt>
      <trkpt lat="37.7994620" lon="-3.8293380">
        <ele>519.4</ele>
        <time>2021-12-27T13:51:53Z</time>
      </trkpt>
      <trkpt lat="37.7994560" lon="-3.8293680">
        <ele>519.6</ele>
        <time>2021-12-27T13:51:54Z</time>
      </trkpt>
      <trkpt lat="37.7994530" lon="-3.8293970">
        <ele>519.6</ele>
        <time>2021-12-27T13:51:55Z</time>
      </trkpt>
      <trkpt lat="37.7994500" lon="-3.8294200">
        <ele>519.6</ele>
        <time>2021-12-27T13:51:56Z</time>
      </trkpt>
      <trkpt lat="37.7994500" lon="-3.8294200">
        <ele>519.6</ele>
        <time>2021-12-27T13:51:57Z</time>
      </trkpt>
      <trkpt lat="37.7994430" lon="-3.8294650">
        <ele>519.6</ele>
        <time>2021-12-27T13:51:58Z</time>
      </trkpt>
      <trkpt lat="37.7994430" lon="-3.8294650">
        <ele>519.6</ele>
        <time>2021-12-27T13:51:59Z</time>
      </trkpt>
      <trkpt lat="37.7994430" lon="-3.8295080">
        <ele>519.6</ele>
        <time>2021-12-27T13:52:00Z</time>
      </trkpt>
      <trkpt lat="37.7994430" lon="-3.8295080">
        <ele>519.6</ele>
        <time>2021-12-27T13:52:01Z</time>
      </trkpt>
      <trkpt lat="37.7994400" lon="-3.8295500">
        <ele>519.6</ele>
        <time>2021-12-27T13:52:02Z</time>
      </trkpt>
      <trkpt lat="37.7994400" lon="-3.8295500">
        <ele>519.6</ele>
        <time>2021-12-27T13:52:03Z</time>
      </trkpt>
      <trkpt lat="37.7994400" lon="-3.8295920">
        <ele>519.6</ele>
        <time>2021-12-27T13:52:04Z</time>
      </trkpt>
      <trkpt lat="37.7994400" lon="-3.8296150">
        <ele>519.6</ele>
        <time>2021-12-27T13:52:05Z</time>
      </trkpt>
      <trkpt lat="37.7994400" lon="-3.8296150">
        <ele>519.6</ele>
        <time>2021-12-27T13:52:06Z</time>
      </trkpt>
      <trkpt lat="37.7994400" lon="-3.8296620">
        <ele>519.6</ele>
        <time>2021-12-27T13:52:07Z</time>
      </trkpt>
      <trkpt lat="37.7994400" lon="-3.8296870">
        <ele>519.6</ele>
        <time>2021-12-27T13:52:08Z</time>
      </trkpt>
      <trkpt lat="37.7994400" lon="-3.8297150">
        <ele>519.6</ele>
        <time>2021-12-27T13:52:09Z</time>
      </trkpt>
      <trkpt lat="37.7994400" lon="-3.8297430">
        <ele>519.6</ele>
        <time>2021-12-27T13:52:10Z</time>
      </trkpt>
      <trkpt lat="37.7994340" lon="-3.8297720">
        <ele>519.6</ele>
        <time>2021-12-27T13:52:11Z</time>
      </trkpt>
      <trkpt lat="37.7994300" lon="-3.8298000">
        <ele>519.6</ele>
        <time>2021-12-27T13:52:12Z</time>
      </trkpt>
      <trkpt lat="37.7994270" lon="-3.8298280">
        <ele>519.6</ele>
        <time>2021-12-27T13:52:13Z</time>
      </trkpt>
      <trkpt lat="37.7994270" lon="-3.8298580">
        <ele>519.8</ele>
        <time>2021-12-27T13:52:14Z</time>
      </trkpt>
      <trkpt lat="37.7994270" lon="-3.8298870">
        <ele>519.8</ele>
        <time>2021-12-27T13:52:15Z</time>
      </trkpt>
      <trkpt lat="37.7994240" lon="-3.8299130">
        <ele>520.0</ele>
        <time>2021-12-27T13:52:16Z</time>
      </trkpt>
      <trkpt lat="37.7994240" lon="-3.8299400">
        <ele>520.2</ele>
        <time>2021-12-27T13:52:17Z</time>
      </trkpt>
      <trkpt lat="37.7994210" lon="-3.8299660">
        <ele>520.2</ele>
        <time>2021-12-27T13:52:18Z</time>
      </trkpt>
      <trkpt lat="37.7994210" lon="-3.8299900">
        <ele>520.2</ele>
        <time>2021-12-27T13:52:19Z</time>
      </trkpt>
      <trkpt lat="37.7994210" lon="-3.8299900">
        <ele>520.4</ele>
        <time>2021-12-27T13:52:20Z</time>
      </trkpt>
      <trkpt lat="37.7994210" lon="-3.8300320">
        <ele>520.4</ele>
        <time>2021-12-27T13:52:21Z</time>
      </trkpt>
      <trkpt lat="37.7994210" lon="-3.8300320">
        <ele>520.6</ele>
        <time>2021-12-27T13:52:22Z</time>
      </trkpt>
      <trkpt lat="37.7994210" lon="-3.8300770">
        <ele>520.6</ele>
        <time>2021-12-27T13:52:23Z</time>
      </trkpt>
      <trkpt lat="37.7994210" lon="-3.8301000">
        <ele>520.8</ele>
        <time>2021-12-27T13:52:24Z</time>
      </trkpt>
      <trkpt lat="37.7994240" lon="-3.8301250">
        <ele>520.8</ele>
        <time>2021-12-27T13:52:25Z</time>
      </trkpt>
      <trkpt lat="37.7994210" lon="-3.8301520">
        <ele>520.8</ele>
        <time>2021-12-27T13:52:26Z</time>
      </trkpt>
      <trkpt lat="37.7994210" lon="-3.8301780">
        <ele>521.0</ele>
        <time>2021-12-27T13:52:27Z</time>
      </trkpt>
      <trkpt lat="37.7994110" lon="-3.8302080">
        <ele>521.0</ele>
        <time>2021-12-27T13:52:28Z</time>
      </trkpt>
      <trkpt lat="37.7994080" lon="-3.8302400">
        <ele>521.0</ele>
        <time>2021-12-27T13:52:29Z</time>
      </trkpt>
      <trkpt lat="37.7994050" lon="-3.8302720">
        <ele>521.0</ele>
        <time>2021-12-27T13:52:30Z</time>
      </trkpt>
      <trkpt lat="37.7994020" lon="-3.8303050">
        <ele>521.0</ele>
        <time>2021-12-27T13:52:31Z</time>
      </trkpt>
      <trkpt lat="37.7994020" lon="-3.8303380">
        <ele>521.0</ele>
        <time>2021-12-27T13:52:32Z</time>
      </trkpt>
      <trkpt lat="37.7994020" lon="-3.8303700">
        <ele>521.0</ele>
        <time>2021-12-27T13:52:33Z</time>
      </trkpt>
      <trkpt lat="37.7993950" lon="-3.8304050">
        <ele>521.0</ele>
        <time>2021-12-27T13:52:34Z</time>
      </trkpt>
      <trkpt lat="37.7993950" lon="-3.8304380">
        <ele>521.0</ele>
        <time>2021-12-27T13:52:35Z</time>
      </trkpt>
      <trkpt lat="37.7993920" lon="-3.8304740">
        <ele>521.2</ele>
        <time>2021-12-27T13:52:36Z</time>
      </trkpt>
      <trkpt lat="37.7993920" lon="-3.8305050">
        <ele>521.2</ele>
        <time>2021-12-27T13:52:37Z</time>
      </trkpt>
      <trkpt lat="37.7993890" lon="-3.8305400">
        <ele>521.2</ele>
        <time>2021-12-27T13:52:38Z</time>
      </trkpt>
      <trkpt lat="37.7993890" lon="-3.8305720">
        <ele>521.2</ele>
        <time>2021-12-27T13:52:39Z</time>
      </trkpt>
      <trkpt lat="37.7993860" lon="-3.8306050">
        <ele>521.2</ele>
        <time>2021-12-27T13:52:40Z</time>
      </trkpt>
      <trkpt lat="37.7993860" lon="-3.8306380">
        <ele>521.0</ele>
        <time>2021-12-27T13:52:41Z</time>
      </trkpt>
      <trkpt lat="37.7993820" lon="-3.8306680">
        <ele>521.0</ele>
        <time>2021-12-27T13:52:42Z</time>
      </trkpt>
      <trkpt lat="37.7993820" lon="-3.8307000">
        <ele>521.0</ele>
        <time>2021-12-27T13:52:43Z</time>
      </trkpt>
      <trkpt lat="37.7993820" lon="-3.8307280">
        <ele>520.8</ele>
        <time>2021-12-27T13:52:44Z</time>
      </trkpt>
      <trkpt lat="37.7993860" lon="-3.8307570">
        <ele>520.8</ele>
        <time>2021-12-27T13:52:45Z</time>
      </trkpt>
      <trkpt lat="37.7993820" lon="-3.8307880">
        <ele>520.8</ele>
        <time>2021-12-27T13:52:46Z</time>
      </trkpt>
      <trkpt lat="37.7993760" lon="-3.8308200">
        <ele>520.8</ele>
        <time>2021-12-27T13:52:47Z</time>
      </trkpt>
      <trkpt lat="37.7993730" lon="-3.8308520">
        <ele>520.8</ele>
        <time>2021-12-27T13:52:48Z</time>
      </trkpt>
      <trkpt lat="37.7993730" lon="-3.8308820">
        <ele>520.8</ele>
        <time>2021-12-27T13:52:49Z</time>
      </trkpt>
      <trkpt lat="37.7993730" lon="-3.8309130">
        <ele>520.8</ele>
        <time>2021-12-27T13:52:50Z</time>
      </trkpt>
      <trkpt lat="37.7993700" lon="-3.8309430">
        <ele>520.6</ele>
        <time>2021-12-27T13:52:51Z</time>
      </trkpt>
      <trkpt lat="37.7993700" lon="-3.8309720">
        <ele>520.6</ele>
        <time>2021-12-27T13:52:52Z</time>
      </trkpt>
      <trkpt lat="37.7993700" lon="-3.8310000">
        <ele>520.6</ele>
        <time>2021-12-27T13:52:53Z</time>
      </trkpt>
      <trkpt lat="37.7993700" lon="-3.8310250">
        <ele>520.6</ele>
        <time>2021-12-27T13:52:54Z</time>
      </trkpt>
      <trkpt lat="37.7993700" lon="-3.8310500">
        <ele>520.6</ele>
        <time>2021-12-27T13:52:55Z</time>
      </trkpt>
      <trkpt lat="37.7993660" lon="-3.8310750">
        <ele>520.8</ele>
        <time>2021-12-27T13:52:56Z</time>
      </trkpt>
      <trkpt lat="37.7993660" lon="-3.8310750">
        <ele>520.8</ele>
        <time>2021-12-27T13:52:57Z</time>
      </trkpt>
      <trkpt lat="37.7993660" lon="-3.8311230">
        <ele>520.8</ele>
        <time>2021-12-27T13:52:58Z</time>
      </trkpt>
      <trkpt lat="37.7993660" lon="-3.8311470">
        <ele>520.8</ele>
        <time>2021-12-27T13:52:59Z</time>
      </trkpt>
      <trkpt lat="37.7993700" lon="-3.8311700">
        <ele>521.0</ele>
        <time>2021-12-27T13:53:00Z</time>
      </trkpt>
      <trkpt lat="37.7993700" lon="-3.8311700">
        <ele>521.0</ele>
        <time>2021-12-27T13:53:01Z</time>
      </trkpt>
      <trkpt lat="37.7993700" lon="-3.8311980">
        <ele>521.2</ele>
        <time>2021-12-27T13:53:02Z</time>
      </trkpt>
      <trkpt lat="37.7993700" lon="-3.8311980">
        <ele>521.2</ele>
        <time>2021-12-27T13:53:03Z</time>
      </trkpt>
      <trkpt lat="37.7993700" lon="-3.8311980">
        <ele>521.4</ele>
        <time>2021-12-27T13:53:04Z</time>
      </trkpt>
      <trkpt lat="37.7993700" lon="-3.8311980">
        <ele>521.4</ele>
        <time>2021-12-27T13:53:05Z</time>
      </trkpt>
      <trkpt lat="37.7993540" lon="-3.8313150">
        <ele>521.6</ele>
        <time>2021-12-27T13:53:18Z</time>
      </trkpt>
      <trkpt lat="37.7993540" lon="-3.8313400">
        <ele>521.8</ele>
        <time>2021-12-27T13:53:19Z</time>
      </trkpt>
      <trkpt lat="37.7993500" lon="-3.8313650">
        <ele>521.8</ele>
        <time>2021-12-27T13:53:20Z</time>
      </trkpt>
      <trkpt lat="37.7993500" lon="-3.8313920">
        <ele>521.8</ele>
        <time>2021-12-27T13:53:21Z</time>
      </trkpt>
      <trkpt lat="37.7993500" lon="-3.8314170">
        <ele>521.8</ele>
        <time>2021-12-27T13:53:22Z</time>
      </trkpt>
      <trkpt lat="37.7993470" lon="-3.8314430">
        <ele>521.8</ele>
        <time>2021-12-27T13:53:23Z</time>
      </trkpt>
      <trkpt lat="37.7993470" lon="-3.8314700">
        <ele>521.8</ele>
        <time>2021-12-27T13:53:24Z</time>
      </trkpt>
      <trkpt lat="37.7993470" lon="-3.8314980">
        <ele>521.8</ele>
        <time>2021-12-27T13:53:25Z</time>
      </trkpt>
      <trkpt lat="37.7993470" lon="-3.8315270">
        <ele>521.8</ele>
        <time>2021-12-27T13:53:26Z</time>
      </trkpt>
      <trkpt lat="37.7993470" lon="-3.8315540">
        <ele>521.8</ele>
        <time>2021-12-27T13:53:27Z</time>
      </trkpt>
      <trkpt lat="37.7993470" lon="-3.8315780">
        <ele>521.8</ele>
        <time>2021-12-27T13:53:28Z</time>
      </trkpt>
      <trkpt lat="37.7993470" lon="-3.8316050">
        <ele>521.8</ele>
        <time>2021-12-27T13:53:29Z</time>
      </trkpt>
      <trkpt lat="37.7993440" lon="-3.8316330">
        <ele>521.8</ele>
        <time>2021-12-27T13:53:30Z</time>
      </trkpt>
      <trkpt lat="37.7993340" lon="-3.8316630">
        <ele>521.8</ele>
        <time>2021-12-27T13:53:31Z</time>
      </trkpt>
      <trkpt lat="37.7993310" lon="-3.8316940">
        <ele>521.8</ele>
        <time>2021-12-27T13:53:32Z</time>
      </trkpt>
      <trkpt lat="37.7993310" lon="-3.8317230">
        <ele>521.8</ele>
        <time>2021-12-27T13:53:33Z</time>
      </trkpt>
      <trkpt lat="37.7993280" lon="-3.8317520">
        <ele>521.8</ele>
        <time>2021-12-27T13:53:34Z</time>
      </trkpt>
      <trkpt lat="37.7993280" lon="-3.8317800">
        <ele>522.0</ele>
        <time>2021-12-27T13:53:35Z</time>
      </trkpt>
      <trkpt lat="37.7993280" lon="-3.8318080">
        <ele>522.0</ele>
        <time>2021-12-27T13:53:36Z</time>
      </trkpt>
      <trkpt lat="37.7993280" lon="-3.8318400">
        <ele>522.0</ele>
        <time>2021-12-27T13:53:37Z</time>
      </trkpt>
      <trkpt lat="37.7993280" lon="-3.8318680">
        <ele>522.2</ele>
        <time>2021-12-27T13:53:38Z</time>
      </trkpt>
      <trkpt lat="37.7993280" lon="-3.8319000">
        <ele>522.2</ele>
        <time>2021-12-27T13:53:39Z</time>
      </trkpt>
      <trkpt lat="37.7993250" lon="-3.8319300">
        <ele>522.0</ele>
        <time>2021-12-27T13:53:40Z</time>
      </trkpt>
      <trkpt lat="37.7993250" lon="-3.8319620">
        <ele>522.0</ele>
        <time>2021-12-27T13:53:41Z</time>
      </trkpt>
      <trkpt lat="37.7993220" lon="-3.8319920">
        <ele>522.0</ele>
        <time>2021-12-27T13:53:42Z</time>
      </trkpt>
      <trkpt lat="37.7993150" lon="-3.8320220">
        <ele>522.0</ele>
        <time>2021-12-27T13:53:43Z</time>
      </trkpt>
      <trkpt lat="37.7993120" lon="-3.8320530">
        <ele>522.0</ele>
        <time>2021-12-27T13:53:44Z</time>
      </trkpt>
      <trkpt lat="37.7993090" lon="-3.8320830">
        <ele>521.8</ele>
        <time>2021-12-27T13:53:45Z</time>
      </trkpt>
      <trkpt lat="37.7993090" lon="-3.8321150">
        <ele>521.8</ele>
        <time>2021-12-27T13:53:46Z</time>
      </trkpt>
      <trkpt lat="37.7993090" lon="-3.8321450">
        <ele>521.8</ele>
        <time>2021-12-27T13:53:47Z</time>
      </trkpt>
      <trkpt lat="37.7993090" lon="-3.8321770">
        <ele>521.8</ele>
        <time>2021-12-27T13:53:48Z</time>
      </trkpt>
      <trkpt lat="37.7993090" lon="-3.8322080">
        <ele>521.8</ele>
        <time>2021-12-27T13:53:49Z</time>
      </trkpt>
      <trkpt lat="37.7993090" lon="-3.8322370">
        <ele>521.8</ele>
        <time>2021-12-27T13:53:50Z</time>
      </trkpt>
      <trkpt lat="37.7993090" lon="-3.8322680">
        <ele>521.8</ele>
        <time>2021-12-27T13:53:51Z</time>
      </trkpt>
      <trkpt lat="37.7993060" lon="-3.8322980">
        <ele>522.0</ele>
        <time>2021-12-27T13:53:52Z</time>
      </trkpt>
      <trkpt lat="37.7993060" lon="-3.8323280">
        <ele>521.8</ele>
        <time>2021-12-27T13:53:53Z</time>
      </trkpt>
      <trkpt lat="37.7993060" lon="-3.8323580">
        <ele>521.8</ele>
        <time>2021-12-27T13:53:54Z</time>
      </trkpt>
      <trkpt lat="37.7993060" lon="-3.8323880">
        <ele>521.8</ele>
        <time>2021-12-27T13:53:55Z</time>
      </trkpt>
      <trkpt lat="37.7993020" lon="-3.8324180">
        <ele>521.8</ele>
        <time>2021-12-27T13:53:56Z</time>
      </trkpt>
      <trkpt lat="37.7992960" lon="-3.8324480">
        <ele>521.8</ele>
        <time>2021-12-27T13:53:57Z</time>
      </trkpt>
      <trkpt lat="37.7992960" lon="-3.8324800">
        <ele>521.8</ele>
        <time>2021-12-27T13:53:58Z</time>
      </trkpt>
      <trkpt lat="37.7992930" lon="-3.8325100">
        <ele>521.8</ele>
        <time>2021-12-27T13:53:59Z</time>
      </trkpt>
      <trkpt lat="37.7992930" lon="-3.8325450">
        <ele>521.8</ele>
        <time>2021-12-27T13:54:00Z</time>
      </trkpt>
      <trkpt lat="37.7992930" lon="-3.8325770">
        <ele>521.8</ele>
        <time>2021-12-27T13:54:01Z</time>
      </trkpt>
      <trkpt lat="37.7992930" lon="-3.8326080">
        <ele>521.8</ele>
        <time>2021-12-27T13:54:02Z</time>
      </trkpt>
      <trkpt lat="37.7992900" lon="-3.8326420">
        <ele>521.8</ele>
        <time>2021-12-27T13:54:03Z</time>
      </trkpt>
      <trkpt lat="37.7992900" lon="-3.8326770">
        <ele>521.8</ele>
        <time>2021-12-27T13:54:04Z</time>
      </trkpt>
      <trkpt lat="37.7992860" lon="-3.8327120">
        <ele>521.6</ele>
        <time>2021-12-27T13:54:05Z</time>
      </trkpt>
      <trkpt lat="37.7992830" lon="-3.8327450">
        <ele>521.6</ele>
        <time>2021-12-27T13:54:06Z</time>
      </trkpt>
      <trkpt lat="37.7992830" lon="-3.8327800">
        <ele>521.6</ele>
        <time>2021-12-27T13:54:07Z</time>
      </trkpt>
      <trkpt lat="37.7992830" lon="-3.8328130">
        <ele>521.6</ele>
        <time>2021-12-27T13:54:08Z</time>
      </trkpt>
      <trkpt lat="37.7992860" lon="-3.8328470">
        <ele>521.6</ele>
        <time>2021-12-27T13:54:09Z</time>
      </trkpt>
      <trkpt lat="37.7992860" lon="-3.8328780">
        <ele>521.6</ele>
        <time>2021-12-27T13:54:10Z</time>
      </trkpt>
      <trkpt lat="37.7992860" lon="-3.8329100">
        <ele>521.4</ele>
        <time>2021-12-27T13:54:11Z</time>
      </trkpt>
      <trkpt lat="37.7992830" lon="-3.8329400">
        <ele>521.4</ele>
        <time>2021-12-27T13:54:12Z</time>
      </trkpt>
      <trkpt lat="37.7992770" lon="-3.8329720">
        <ele>521.4</ele>
        <time>2021-12-27T13:54:13Z</time>
      </trkpt>
      <trkpt lat="37.7992740" lon="-3.8330050">
        <ele>521.4</ele>
        <time>2021-12-27T13:54:14Z</time>
      </trkpt>
      <trkpt lat="37.7992740" lon="-3.8330370">
        <ele>521.4</ele>
        <time>2021-12-27T13:54:15Z</time>
      </trkpt>
      <trkpt lat="37.7992740" lon="-3.8330700">
        <ele>521.4</ele>
        <time>2021-12-27T13:54:16Z</time>
      </trkpt>
      <trkpt lat="37.7992740" lon="-3.8331050">
        <ele>521.4</ele>
        <time>2021-12-27T13:54:17Z</time>
      </trkpt>
      <trkpt lat="37.7992740" lon="-3.8331400">
        <ele>521.4</ele>
        <time>2021-12-27T13:54:18Z</time>
      </trkpt>
      <trkpt lat="37.7992740" lon="-3.8331730">
        <ele>521.4</ele>
        <time>2021-12-27T13:54:19Z</time>
      </trkpt>
      <trkpt lat="37.7992700" lon="-3.8332070">
        <ele>521.4</ele>
        <time>2021-12-27T13:54:20Z</time>
      </trkpt>
      <trkpt lat="37.7992670" lon="-3.8332420">
        <ele>521.4</ele>
        <time>2021-12-27T13:54:21Z</time>
      </trkpt>
      <trkpt lat="37.7992670" lon="-3.8332770">
        <ele>521.2</ele>
        <time>2021-12-27T13:54:22Z</time>
      </trkpt>
      <trkpt lat="37.7992670" lon="-3.8333120">
        <ele>521.2</ele>
        <time>2021-12-27T13:54:23Z</time>
      </trkpt>
      <trkpt lat="37.7992640" lon="-3.8333470">
        <ele>521.2</ele>
        <time>2021-12-27T13:54:24Z</time>
      </trkpt>
      <trkpt lat="37.7992580" lon="-3.8333830">
        <ele>521.2</ele>
        <time>2021-12-27T13:54:25Z</time>
      </trkpt>
      <trkpt lat="37.7992580" lon="-3.8334180">
        <ele>521.4</ele>
        <time>2021-12-27T13:54:26Z</time>
      </trkpt>
      <trkpt lat="37.7992540" lon="-3.8334550">
        <ele>521.4</ele>
        <time>2021-12-27T13:54:27Z</time>
      </trkpt>
      <trkpt lat="37.7992510" lon="-3.8334920">
        <ele>521.4</ele>
        <time>2021-12-27T13:54:28Z</time>
      </trkpt>
      <trkpt lat="37.7992510" lon="-3.8335300">
        <ele>521.4</ele>
        <time>2021-12-27T13:54:29Z</time>
      </trkpt>
      <trkpt lat="37.7992510" lon="-3.8335650">
        <ele>521.6</ele>
        <time>2021-12-27T13:54:30Z</time>
      </trkpt>
      <trkpt lat="37.7992480" lon="-3.8336030">
        <ele>521.6</ele>
        <time>2021-12-27T13:54:31Z</time>
      </trkpt>
      <trkpt lat="37.7992450" lon="-3.8336420">
        <ele>521.6</ele>
        <time>2021-12-27T13:54:32Z</time>
      </trkpt>
      <trkpt lat="37.7992420" lon="-3.8336800">
        <ele>521.6</ele>
        <time>2021-12-27T13:54:33Z</time>
      </trkpt>
      <trkpt lat="37.7992420" lon="-3.8337150">
        <ele>521.6</ele>
        <time>2021-12-27T13:54:34Z</time>
      </trkpt>
      <trkpt lat="37.7992450" lon="-3.8337530">
        <ele>521.6</ele>
        <time>2021-12-27T13:54:35Z</time>
      </trkpt>
      <trkpt lat="37.7992450" lon="-3.8337880">
        <ele>521.6</ele>
        <time>2021-12-27T13:54:36Z</time>
      </trkpt>
      <trkpt lat="37.7992420" lon="-3.8338230">
        <ele>521.6</ele>
        <time>2021-12-27T13:54:37Z</time>
      </trkpt>
      <trkpt lat="37.7992420" lon="-3.8338620">
        <ele>521.8</ele>
        <time>2021-12-27T13:54:38Z</time>
      </trkpt>
      <trkpt lat="37.7992420" lon="-3.8338980">
        <ele>521.8</ele>
        <time>2021-12-27T13:54:39Z</time>
      </trkpt>
      <trkpt lat="37.7992420" lon="-3.8339330">
        <ele>521.8</ele>
        <time>2021-12-27T13:54:40Z</time>
      </trkpt>
      <trkpt lat="37.7992420" lon="-3.8339700">
        <ele>522.0</ele>
        <time>2021-12-27T13:54:41Z</time>
      </trkpt>
      <trkpt lat="37.7992350" lon="-3.8340070">
        <ele>522.0</ele>
        <time>2021-12-27T13:54:42Z</time>
      </trkpt>
      <trkpt lat="37.7992420" lon="-3.8340400">
        <ele>522.0</ele>
        <time>2021-12-27T13:54:43Z</time>
      </trkpt>
      <trkpt lat="37.7992420" lon="-3.8340730">
        <ele>522.0</ele>
        <time>2021-12-27T13:54:44Z</time>
      </trkpt>
      <trkpt lat="37.7992320" lon="-3.8341080">
        <ele>522.0</ele>
        <time>2021-12-27T13:54:45Z</time>
      </trkpt>
      <trkpt lat="37.7992290" lon="-3.8341450">
        <ele>522.0</ele>
        <time>2021-12-27T13:54:46Z</time>
      </trkpt>
      <trkpt lat="37.7992260" lon="-3.8341830">
        <ele>522.0</ele>
        <time>2021-12-27T13:54:47Z</time>
      </trkpt>
      <trkpt lat="37.7992260" lon="-3.8342220">
        <ele>521.8</ele>
        <time>2021-12-27T13:54:48Z</time>
      </trkpt>
      <trkpt lat="37.7992220" lon="-3.8342600">
        <ele>521.8</ele>
        <time>2021-12-27T13:54:49Z</time>
      </trkpt>
      <trkpt lat="37.7992220" lon="-3.8342950">
        <ele>521.6</ele>
        <time>2021-12-27T13:54:50Z</time>
      </trkpt>
      <trkpt lat="37.7992220" lon="-3.8343280">
        <ele>521.6</ele>
        <time>2021-12-27T13:54:51Z</time>
      </trkpt>
      <trkpt lat="37.7992160" lon="-3.8343650">
        <ele>521.6</ele>
        <time>2021-12-27T13:54:52Z</time>
      </trkpt>
      <trkpt lat="37.7992160" lon="-3.8344020">
        <ele>521.4</ele>
        <time>2021-12-27T13:54:53Z</time>
      </trkpt>
      <trkpt lat="37.7992130" lon="-3.8344400">
        <ele>521.4</ele>
        <time>2021-12-27T13:54:54Z</time>
      </trkpt>
      <trkpt lat="37.7992130" lon="-3.8344770">
        <ele>521.4</ele>
        <time>2021-12-27T13:54:55Z</time>
      </trkpt>
      <trkpt lat="37.7992100" lon="-3.8345080">
        <ele>521.4</ele>
        <time>2021-12-27T13:54:56Z</time>
      </trkpt>
      <trkpt lat="37.7992060" lon="-3.8345420">
        <ele>521.4</ele>
        <time>2021-12-27T13:54:57Z</time>
      </trkpt>
      <trkpt lat="37.7992060" lon="-3.8345780">
        <ele>521.4</ele>
        <time>2021-12-27T13:54:58Z</time>
      </trkpt>
      <trkpt lat="37.7992100" lon="-3.8346120">
        <ele>521.2</ele>
        <time>2021-12-27T13:54:59Z</time>
      </trkpt>
      <trkpt lat="37.7992100" lon="-3.8346450">
        <ele>521.2</ele>
        <time>2021-12-27T13:55:00Z</time>
      </trkpt>
      <trkpt lat="37.7992100" lon="-3.8346800">
        <ele>521.2</ele>
        <time>2021-12-27T13:55:01Z</time>
      </trkpt>
      <trkpt lat="37.7992060" lon="-3.8347140">
        <ele>521.2</ele>
        <time>2021-12-27T13:55:02Z</time>
      </trkpt>
      <trkpt lat="37.7992060" lon="-3.8347460">
        <ele>521.2</ele>
        <time>2021-12-27T13:55:03Z</time>
      </trkpt>
      <trkpt lat="37.7992060" lon="-3.8347800">
        <ele>521.2</ele>
        <time>2021-12-27T13:55:04Z</time>
      </trkpt>
      <trkpt lat="37.7992060" lon="-3.8348130">
        <ele>521.2</ele>
        <time>2021-12-27T13:55:05Z</time>
      </trkpt>
      <trkpt lat="37.7992060" lon="-3.8348480">
        <ele>521.2</ele>
        <time>2021-12-27T13:55:06Z</time>
      </trkpt>
      <trkpt lat="37.7992060" lon="-3.8348780">
        <ele>521.2</ele>
        <time>2021-12-27T13:55:07Z</time>
      </trkpt>
      <trkpt lat="37.7992060" lon="-3.8349080">
        <ele>521.2</ele>
        <time>2021-12-27T13:55:08Z</time>
      </trkpt>
      <trkpt lat="37.7992060" lon="-3.8349420">
        <ele>521.2</ele>
        <time>2021-12-27T13:55:09Z</time>
      </trkpt>
      <trkpt lat="37.7992060" lon="-3.8349800">
        <ele>521.4</ele>
        <time>2021-12-27T13:55:10Z</time>
      </trkpt>
      <trkpt lat="37.7992060" lon="-3.8350180">
        <ele>521.4</ele>
        <time>2021-12-27T13:55:11Z</time>
      </trkpt>
      <trkpt lat="37.7992060" lon="-3.8350550">
        <ele>521.4</ele>
        <time>2021-12-27T13:55:12Z</time>
      </trkpt>
      <trkpt lat="37.7992060" lon="-3.8350900">
        <ele>521.6</ele>
        <time>2021-12-27T13:55:13Z</time>
      </trkpt>
      <trkpt lat="37.7992100" lon="-3.8351220">
        <ele>521.6</ele>
        <time>2021-12-27T13:55:14Z</time>
      </trkpt>
      <trkpt lat="37.7992100" lon="-3.8351520">
        <ele>521.6</ele>
        <time>2021-12-27T13:55:15Z</time>
      </trkpt>
      <trkpt lat="37.7992100" lon="-3.8351800">
        <ele>521.6</ele>
        <time>2021-12-27T13:55:16Z</time>
      </trkpt>
      <trkpt lat="37.7992100" lon="-3.8352100">
        <ele>521.6</ele>
        <time>2021-12-27T13:55:17Z</time>
      </trkpt>
      <trkpt lat="37.7992130" lon="-3.8352400">
        <ele>521.6</ele>
        <time>2021-12-27T13:55:18Z</time>
      </trkpt>
      <trkpt lat="37.7992160" lon="-3.8352720">
        <ele>521.6</ele>
        <time>2021-12-27T13:55:19Z</time>
      </trkpt>
      <trkpt lat="37.7992220" lon="-3.8353050">
        <ele>521.6</ele>
        <time>2021-12-27T13:55:20Z</time>
      </trkpt>
      <trkpt lat="37.7992290" lon="-3.8353400">
        <ele>521.6</ele>
        <time>2021-12-27T13:55:21Z</time>
      </trkpt>
      <trkpt lat="37.7992320" lon="-3.8353750">
        <ele>521.6</ele>
        <time>2021-12-27T13:55:22Z</time>
      </trkpt>
      <trkpt lat="37.7992350" lon="-3.8354100">
        <ele>521.6</ele>
        <time>2021-12-27T13:55:23Z</time>
      </trkpt>
      <trkpt lat="37.7992350" lon="-3.8354460">
        <ele>521.4</ele>
        <time>2021-12-27T13:55:24Z</time>
      </trkpt>
      <trkpt lat="37.7992450" lon="-3.8354830">
        <ele>521.4</ele>
        <time>2021-12-27T13:55:25Z</time>
      </trkpt>
      <trkpt lat="37.7992480" lon="-3.8355180">
        <ele>521.4</ele>
        <time>2021-12-27T13:55:26Z</time>
      </trkpt>
      <trkpt lat="37.7992510" lon="-3.8355550">
        <ele>521.4</ele>
        <time>2021-12-27T13:55:27Z</time>
      </trkpt>
      <trkpt lat="37.7992540" lon="-3.8355880">
        <ele>521.4</ele>
        <time>2021-12-27T13:55:28Z</time>
      </trkpt>
      <trkpt lat="37.7992640" lon="-3.8356200">
        <ele>521.2</ele>
        <time>2021-12-27T13:55:29Z</time>
      </trkpt>
      <trkpt lat="37.7992670" lon="-3.8356550">
        <ele>521.2</ele>
        <time>2021-12-27T13:55:30Z</time>
      </trkpt>
      <trkpt lat="37.7992740" lon="-3.8356900">
        <ele>521.2</ele>
        <time>2021-12-27T13:55:31Z</time>
      </trkpt>
      <trkpt lat="37.7992830" lon="-3.8357240">
        <ele>521.2</ele>
        <time>2021-12-27T13:55:32Z</time>
      </trkpt>
      <trkpt lat="37.7992900" lon="-3.8357580">
        <ele>521.2</ele>
        <time>2021-12-27T13:55:33Z</time>
      </trkpt>
      <trkpt lat="37.7992930" lon="-3.8357920">
        <ele>521.4</ele>
        <time>2021-12-27T13:55:34Z</time>
      </trkpt>
      <trkpt lat="37.7992960" lon="-3.8358250">
        <ele>521.4</ele>
        <time>2021-12-27T13:55:35Z</time>
      </trkpt>
      <trkpt lat="37.7993060" lon="-3.8358600">
        <ele>521.4</ele>
        <time>2021-12-27T13:55:36Z</time>
      </trkpt>
      <trkpt lat="37.7993120" lon="-3.8358930">
        <ele>521.4</ele>
        <time>2021-12-27T13:55:37Z</time>
      </trkpt>
      <trkpt lat="37.7993220" lon="-3.8359260">
        <ele>521.4</ele>
        <time>2021-12-27T13:55:38Z</time>
      </trkpt>
      <trkpt lat="37.7993280" lon="-3.8359560">
        <ele>521.4</ele>
        <time>2021-12-27T13:55:39Z</time>
      </trkpt>
      <trkpt lat="37.7993310" lon="-3.8359870">
        <ele>521.4</ele>
        <time>2021-12-27T13:55:40Z</time>
      </trkpt>
      <trkpt lat="37.7993440" lon="-3.8360170">
        <ele>521.6</ele>
        <time>2021-12-27T13:55:41Z</time>
      </trkpt>
      <trkpt lat="37.7993470" lon="-3.8360470">
        <ele>521.6</ele>
        <time>2021-12-27T13:55:42Z</time>
      </trkpt>
      <trkpt lat="37.7993570" lon="-3.8360780">
        <ele>521.6</ele>
        <time>2021-12-27T13:55:43Z</time>
      </trkpt>
      <trkpt lat="37.7993630" lon="-3.8361080">
        <ele>521.8</ele>
        <time>2021-12-27T13:55:44Z</time>
      </trkpt>
      <trkpt lat="37.7993700" lon="-3.8361400">
        <ele>521.8</ele>
        <time>2021-12-27T13:55:45Z</time>
      </trkpt>
      <trkpt lat="37.7993820" lon="-3.8361720">
        <ele>521.8</ele>
        <time>2021-12-27T13:55:46Z</time>
      </trkpt>
      <trkpt lat="37.7993920" lon="-3.8362030">
        <ele>521.8</ele>
        <time>2021-12-27T13:55:47Z</time>
      </trkpt>
      <trkpt lat="37.7994020" lon="-3.8362380">
        <ele>522.0</ele>
        <time>2021-12-27T13:55:48Z</time>
      </trkpt>
      <trkpt lat="37.7994110" lon="-3.8362720">
        <ele>522.0</ele>
        <time>2021-12-27T13:55:49Z</time>
      </trkpt>
      <trkpt lat="37.7994240" lon="-3.8363050">
        <ele>522.0</ele>
        <time>2021-12-27T13:55:50Z</time>
      </trkpt>
      <trkpt lat="37.7994300" lon="-3.8363370">
        <ele>522.0</ele>
        <time>2021-12-27T13:55:51Z</time>
      </trkpt>
      <trkpt lat="37.7994400" lon="-3.8363680">
        <ele>522.0</ele>
        <time>2021-12-27T13:55:52Z</time>
      </trkpt>
      <trkpt lat="37.7994500" lon="-3.8363970">
        <ele>521.8</ele>
        <time>2021-12-27T13:55:53Z</time>
      </trkpt>
      <trkpt lat="37.7994560" lon="-3.8364300">
        <ele>521.8</ele>
        <time>2021-12-27T13:55:54Z</time>
      </trkpt>
      <trkpt lat="37.7994660" lon="-3.8364640">
        <ele>521.8</ele>
        <time>2021-12-27T13:55:55Z</time>
      </trkpt>
      <trkpt lat="37.7994750" lon="-3.8364930">
        <ele>521.6</ele>
        <time>2021-12-27T13:55:56Z</time>
      </trkpt>
      <trkpt lat="37.7994880" lon="-3.8365230">
        <ele>521.6</ele>
        <time>2021-12-27T13:55:57Z</time>
      </trkpt>
      <trkpt lat="37.7995010" lon="-3.8365520">
        <ele>521.6</ele>
        <time>2021-12-27T13:55:58Z</time>
      </trkpt>
      <trkpt lat="37.7995100" lon="-3.8365830">
        <ele>521.8</ele>
        <time>2021-12-27T13:55:59Z</time>
      </trkpt>
      <trkpt lat="37.7995230" lon="-3.8366140">
        <ele>521.8</ele>
        <time>2021-12-27T13:56:00Z</time>
      </trkpt>
      <trkpt lat="37.7995330" lon="-3.8366430">
        <ele>521.8</ele>
        <time>2021-12-27T13:56:01Z</time>
      </trkpt>
      <trkpt lat="37.7995420" lon="-3.8366720">
        <ele>521.8</ele>
        <time>2021-12-27T13:56:02Z</time>
      </trkpt>
      <trkpt lat="37.7995550" lon="-3.8367020">
        <ele>521.8</ele>
        <time>2021-12-27T13:56:03Z</time>
      </trkpt>
      <trkpt lat="37.7995680" lon="-3.8367320">
        <ele>521.8</ele>
        <time>2021-12-27T13:56:04Z</time>
      </trkpt>
      <trkpt lat="37.7995810" lon="-3.8367620">
        <ele>521.8</ele>
        <time>2021-12-27T13:56:05Z</time>
      </trkpt>
      <trkpt lat="37.7995900" lon="-3.8367900">
        <ele>521.8</ele>
        <time>2021-12-27T13:56:06Z</time>
      </trkpt>
      <trkpt lat="37.7996030" lon="-3.8368200">
        <ele>521.8</ele>
        <time>2021-12-27T13:56:07Z</time>
      </trkpt>
      <trkpt lat="37.7996100" lon="-3.8368500">
        <ele>521.6</ele>
        <time>2021-12-27T13:56:08Z</time>
      </trkpt>
      <trkpt lat="37.7996220" lon="-3.8368800">
        <ele>521.6</ele>
        <time>2021-12-27T13:56:09Z</time>
      </trkpt>
      <trkpt lat="37.7996320" lon="-3.8369100">
        <ele>521.6</ele>
        <time>2021-12-27T13:56:10Z</time>
      </trkpt>
      <trkpt lat="37.7996450" lon="-3.8369400">
        <ele>521.6</ele>
        <time>2021-12-27T13:56:11Z</time>
      </trkpt>
      <trkpt lat="37.7996540" lon="-3.8369700">
        <ele>521.6</ele>
        <time>2021-12-27T13:56:12Z</time>
      </trkpt>
      <trkpt lat="37.7996700" lon="-3.8370000">
        <ele>521.8</ele>
        <time>2021-12-27T13:56:13Z</time>
      </trkpt>
      <trkpt lat="37.7996830" lon="-3.8370320">
        <ele>521.8</ele>
        <time>2021-12-27T13:56:14Z</time>
      </trkpt>
      <trkpt lat="37.7996930" lon="-3.8370600">
        <ele>521.8</ele>
        <time>2021-12-27T13:56:15Z</time>
      </trkpt>
      <trkpt lat="37.7997090" lon="-3.8370930">
        <ele>522.0</ele>
        <time>2021-12-27T13:56:16Z</time>
      </trkpt>
      <trkpt lat="37.7997220" lon="-3.8371250">
        <ele>522.0</ele>
        <time>2021-12-27T13:56:17Z</time>
      </trkpt>
      <trkpt lat="37.7997380" lon="-3.8371540">
        <ele>522.0</ele>
        <time>2021-12-27T13:56:18Z</time>
      </trkpt>
      <trkpt lat="37.7997470" lon="-3.8371800">
        <ele>522.0</ele>
        <time>2021-12-27T13:56:19Z</time>
      </trkpt>
      <trkpt lat="37.7997600" lon="-3.8372030">
        <ele>522.2</ele>
        <time>2021-12-27T13:56:20Z</time>
      </trkpt>
      <trkpt lat="37.7997660" lon="-3.8372300">
        <ele>522.2</ele>
        <time>2021-12-27T13:56:21Z</time>
      </trkpt>
      <trkpt lat="37.7997820" lon="-3.8372550">
        <ele>522.2</ele>
        <time>2021-12-27T13:56:22Z</time>
      </trkpt>
      <trkpt lat="37.7997920" lon="-3.8372820">
        <ele>522.4</ele>
        <time>2021-12-27T13:56:23Z</time>
      </trkpt>
      <trkpt lat="37.7998080" lon="-3.8373120">
        <ele>522.4</ele>
        <time>2021-12-27T13:56:24Z</time>
      </trkpt>
      <trkpt lat="37.7998210" lon="-3.8373420">
        <ele>522.4</ele>
        <time>2021-12-27T13:56:25Z</time>
      </trkpt>
      <trkpt lat="37.7998300" lon="-3.8373680">
        <ele>522.4</ele>
        <time>2021-12-27T13:56:26Z</time>
      </trkpt>
      <trkpt lat="37.7998460" lon="-3.8373980">
        <ele>522.4</ele>
        <time>2021-12-27T13:56:27Z</time>
      </trkpt>
      <trkpt lat="37.7998590" lon="-3.8374250">
        <ele>522.6</ele>
        <time>2021-12-27T13:56:28Z</time>
      </trkpt>
      <trkpt lat="37.7998720" lon="-3.8374530">
        <ele>522.6</ele>
        <time>2021-12-27T13:56:29Z</time>
      </trkpt>
      <trkpt lat="37.7998850" lon="-3.8374820">
        <ele>522.6</ele>
        <time>2021-12-27T13:56:30Z</time>
      </trkpt>
      <trkpt lat="37.7999010" lon="-3.8375120">
        <ele>522.6</ele>
        <time>2021-12-27T13:56:31Z</time>
      </trkpt>
      <trkpt lat="37.7999100" lon="-3.8375420">
        <ele>522.8</ele>
        <time>2021-12-27T13:56:32Z</time>
      </trkpt>
      <trkpt lat="37.7999260" lon="-3.8375720">
        <ele>522.8</ele>
        <time>2021-12-27T13:56:33Z</time>
      </trkpt>
      <trkpt lat="37.7999390" lon="-3.8376000">
        <ele>522.8</ele>
        <time>2021-12-27T13:56:34Z</time>
      </trkpt>
      <trkpt lat="37.7999490" lon="-3.8376280">
        <ele>523.0</ele>
        <time>2021-12-27T13:56:35Z</time>
      </trkpt>
      <trkpt lat="37.7999650" lon="-3.8376580">
        <ele>523.0</ele>
        <time>2021-12-27T13:56:36Z</time>
      </trkpt>
      <trkpt lat="37.7999780" lon="-3.8376880">
        <ele>523.0</ele>
        <time>2021-12-27T13:56:37Z</time>
      </trkpt>
      <trkpt lat="37.7999900" lon="-3.8377120">
        <ele>523.0</ele>
        <time>2021-12-27T13:56:38Z</time>
      </trkpt>
      <trkpt lat="37.8000060" lon="-3.8377370">
        <ele>523.0</ele>
        <time>2021-12-27T13:56:39Z</time>
      </trkpt>
      <trkpt lat="37.8000190" lon="-3.8377620">
        <ele>523.0</ele>
        <time>2021-12-27T13:56:40Z</time>
      </trkpt>
      <trkpt lat="37.8000290" lon="-3.8377930">
        <ele>523.0</ele>
        <time>2021-12-27T13:56:41Z</time>
      </trkpt>
      <trkpt lat="37.8000420" lon="-3.8378250">
        <ele>523.0</ele>
        <time>2021-12-27T13:56:42Z</time>
      </trkpt>
      <trkpt lat="37.8000580" lon="-3.8378580">
        <ele>523.0</ele>
        <time>2021-12-27T13:56:43Z</time>
      </trkpt>
      <trkpt lat="37.8000670" lon="-3.8378880">
        <ele>523.0</ele>
        <time>2021-12-27T13:56:44Z</time>
      </trkpt>
      <trkpt lat="37.8000830" lon="-3.8379170">
        <ele>523.0</ele>
        <time>2021-12-27T13:56:45Z</time>
      </trkpt>
      <trkpt lat="37.8000960" lon="-3.8379430">
        <ele>523.0</ele>
        <time>2021-12-27T13:56:46Z</time>
      </trkpt>
      <trkpt lat="37.8001060" lon="-3.8379700">
        <ele>523.0</ele>
        <time>2021-12-27T13:56:47Z</time>
      </trkpt>
      <trkpt lat="37.8001180" lon="-3.8379980">
        <ele>523.0</ele>
        <time>2021-12-27T13:56:48Z</time>
      </trkpt>
      <trkpt lat="37.8001310" lon="-3.8380250">
        <ele>523.0</ele>
        <time>2021-12-27T13:56:49Z</time>
      </trkpt>
      <trkpt lat="37.8001440" lon="-3.8380520">
        <ele>523.0</ele>
        <time>2021-12-27T13:56:50Z</time>
      </trkpt>
      <trkpt lat="37.8001600" lon="-3.8380780">
        <ele>523.0</ele>
        <time>2021-12-27T13:56:51Z</time>
      </trkpt>
      <trkpt lat="37.8001660" lon="-3.8381080">
        <ele>522.8</ele>
        <time>2021-12-27T13:56:52Z</time>
      </trkpt>
      <trkpt lat="37.8001790" lon="-3.8381350">
        <ele>522.8</ele>
        <time>2021-12-27T13:56:53Z</time>
      </trkpt>
      <trkpt lat="37.8001950" lon="-3.8381620">
        <ele>522.8</ele>
        <time>2021-12-27T13:56:54Z</time>
      </trkpt>
      <trkpt lat="37.8002050" lon="-3.8381900">
        <ele>522.8</ele>
        <time>2021-12-27T13:56:55Z</time>
      </trkpt>
      <trkpt lat="37.8002210" lon="-3.8382180">
        <ele>523.0</ele>
        <time>2021-12-27T13:56:56Z</time>
      </trkpt>
      <trkpt lat="37.8002300" lon="-3.8382460">
        <ele>522.8</ele>
        <time>2021-12-27T13:56:57Z</time>
      </trkpt>
      <trkpt lat="37.8002460" lon="-3.8382770">
        <ele>522.8</ele>
        <time>2021-12-27T13:56:58Z</time>
      </trkpt>
      <trkpt lat="37.8002590" lon="-3.8383070">
        <ele>523.0</ele>
        <time>2021-12-27T13:56:59Z</time>
      </trkpt>
      <trkpt lat="37.8002750" lon="-3.8383370">
        <ele>523.0</ele>
        <time>2021-12-27T13:57:00Z</time>
      </trkpt>
      <trkpt lat="37.8002880" lon="-3.8383640">
        <ele>523.0</ele>
        <time>2021-12-27T13:57:01Z</time>
      </trkpt>
      <trkpt lat="37.8003010" lon="-3.8383920">
        <ele>523.0</ele>
        <time>2021-12-27T13:57:02Z</time>
      </trkpt>
      <trkpt lat="37.8003170" lon="-3.8384220">
        <ele>523.0</ele>
        <time>2021-12-27T13:57:03Z</time>
      </trkpt>
      <trkpt lat="37.8003260" lon="-3.8384520">
        <ele>522.8</ele>
        <time>2021-12-27T13:57:04Z</time>
      </trkpt>
      <trkpt lat="37.8003420" lon="-3.8384820">
        <ele>522.8</ele>
        <time>2021-12-27T13:57:05Z</time>
      </trkpt>
      <trkpt lat="37.8003550" lon="-3.8385120">
        <ele>522.8</ele>
        <time>2021-12-27T13:57:06Z</time>
      </trkpt>
      <trkpt lat="37.8003650" lon="-3.8385400">
        <ele>522.8</ele>
        <time>2021-12-27T13:57:07Z</time>
      </trkpt>
      <trkpt lat="37.8003780" lon="-3.8385680">
        <ele>522.8</ele>
        <time>2021-12-27T13:57:08Z</time>
      </trkpt>
      <trkpt lat="37.8003940" lon="-3.8385980">
        <ele>522.8</ele>
        <time>2021-12-27T13:57:09Z</time>
      </trkpt>
      <trkpt lat="37.8004030" lon="-3.8386250">
        <ele>522.8</ele>
        <time>2021-12-27T13:57:10Z</time>
      </trkpt>
      <trkpt lat="37.8004160" lon="-3.8386520">
        <ele>522.8</ele>
        <time>2021-12-27T13:57:11Z</time>
      </trkpt>
      <trkpt lat="37.8004260" lon="-3.8386780">
        <ele>522.8</ele>
        <time>2021-12-27T13:57:12Z</time>
      </trkpt>
      <trkpt lat="37.8004380" lon="-3.8387050">
        <ele>522.8</ele>
        <time>2021-12-27T13:57:13Z</time>
      </trkpt>
      <trkpt lat="37.8004480" lon="-3.8387300">
        <ele>522.8</ele>
        <time>2021-12-27T13:57:14Z</time>
      </trkpt>
      <trkpt lat="37.8004610" lon="-3.8387560">
        <ele>523.0</ele>
        <time>2021-12-27T13:57:15Z</time>
      </trkpt>
      <trkpt lat="37.8004740" lon="-3.8387850">
        <ele>523.0</ele>
        <time>2021-12-27T13:57:16Z</time>
      </trkpt>
      <trkpt lat="37.8004830" lon="-3.8388100">
        <ele>523.0</ele>
        <time>2021-12-27T13:57:17Z</time>
      </trkpt>
      <trkpt lat="37.8004990" lon="-3.8388350">
        <ele>523.2</ele>
        <time>2021-12-27T13:57:18Z</time>
      </trkpt>
      <trkpt lat="37.8005120" lon="-3.8388630">
        <ele>523.2</ele>
        <time>2021-12-27T13:57:19Z</time>
      </trkpt>
      <trkpt lat="37.8005220" lon="-3.8388900">
        <ele>523.2</ele>
        <time>2021-12-27T13:57:20Z</time>
      </trkpt>
      <trkpt lat="37.8005380" lon="-3.8389200">
        <ele>523.2</ele>
        <time>2021-12-27T13:57:21Z</time>
      </trkpt>
      <trkpt lat="37.8005470" lon="-3.8389480">
        <ele>523.2</ele>
        <time>2021-12-27T13:57:22Z</time>
      </trkpt>
      <trkpt lat="37.8005630" lon="-3.8389750">
        <ele>523.2</ele>
        <time>2021-12-27T13:57:23Z</time>
      </trkpt>
      <trkpt lat="37.8005790" lon="-3.8390050">
        <ele>523.4</ele>
        <time>2021-12-27T13:57:24Z</time>
      </trkpt>
      <trkpt lat="37.8005950" lon="-3.8390330">
        <ele>523.4</ele>
        <time>2021-12-27T13:57:25Z</time>
      </trkpt>
      <trkpt lat="37.8006050" lon="-3.8390620">
        <ele>523.4</ele>
        <time>2021-12-27T13:57:26Z</time>
      </trkpt>
      <trkpt lat="37.8006210" lon="-3.8390920">
        <ele>523.4</ele>
        <time>2021-12-27T13:57:27Z</time>
      </trkpt>
      <trkpt lat="37.8006340" lon="-3.8391220">
        <ele>523.4</ele>
        <time>2021-12-27T13:57:28Z</time>
      </trkpt>
      <trkpt lat="37.8006430" lon="-3.8391500">
        <ele>523.4</ele>
        <time>2021-12-27T13:57:29Z</time>
      </trkpt>
      <trkpt lat="37.8006590" lon="-3.8391780">
        <ele>523.4</ele>
        <time>2021-12-27T13:57:30Z</time>
      </trkpt>
      <trkpt lat="37.8006720" lon="-3.8392070">
        <ele>523.4</ele>
        <time>2021-12-27T13:57:31Z</time>
      </trkpt>
      <trkpt lat="37.8006850" lon="-3.8392350">
        <ele>523.4</ele>
        <time>2021-12-27T13:57:32Z</time>
      </trkpt>
      <trkpt lat="37.8007010" lon="-3.8392640">
        <ele>523.6</ele>
        <time>2021-12-27T13:57:33Z</time>
      </trkpt>
      <trkpt lat="37.8007170" lon="-3.8392900">
        <ele>523.6</ele>
        <time>2021-12-27T13:57:34Z</time>
      </trkpt>
      <trkpt lat="37.8007260" lon="-3.8393170">
        <ele>523.6</ele>
        <time>2021-12-27T13:57:35Z</time>
      </trkpt>
      <trkpt lat="37.8007360" lon="-3.8393430">
        <ele>523.6</ele>
        <time>2021-12-27T13:57:36Z</time>
      </trkpt>
      <trkpt lat="37.8007460" lon="-3.8393680">
        <ele>523.4</ele>
        <time>2021-12-27T13:57:37Z</time>
      </trkpt>
      <trkpt lat="37.8007620" lon="-3.8393930">
        <ele>523.4</ele>
        <time>2021-12-27T13:57:38Z</time>
      </trkpt>
      <trkpt lat="37.8007740" lon="-3.8394180">
        <ele>523.4</ele>
        <time>2021-12-27T13:57:39Z</time>
      </trkpt>
      <trkpt lat="37.8007840" lon="-3.8394430">
        <ele>523.4</ele>
        <time>2021-12-27T13:57:40Z</time>
      </trkpt>
      <trkpt lat="37.8007970" lon="-3.8394700">
        <ele>523.4</ele>
        <time>2021-12-27T13:57:41Z</time>
      </trkpt>
      <trkpt lat="37.8008030" lon="-3.8395000">
        <ele>523.4</ele>
        <time>2021-12-27T13:57:42Z</time>
      </trkpt>
      <trkpt lat="37.8008160" lon="-3.8395270">
        <ele>523.4</ele>
        <time>2021-12-27T13:57:43Z</time>
      </trkpt>
      <trkpt lat="37.8008260" lon="-3.8395530">
        <ele>523.4</ele>
        <time>2021-12-27T13:57:44Z</time>
      </trkpt>
      <trkpt lat="37.8008380" lon="-3.8395820">
        <ele>523.4</ele>
        <time>2021-12-27T13:57:45Z</time>
      </trkpt>
      <trkpt lat="37.8008540" lon="-3.8396080">
        <ele>523.4</ele>
        <time>2021-12-27T13:57:46Z</time>
      </trkpt>
      <trkpt lat="37.8008640" lon="-3.8396340">
        <ele>523.4</ele>
        <time>2021-12-27T13:57:47Z</time>
      </trkpt>
      <trkpt lat="37.8008740" lon="-3.8396620">
        <ele>523.4</ele>
        <time>2021-12-27T13:57:48Z</time>
      </trkpt>
      <trkpt lat="37.8008800" lon="-3.8396900">
        <ele>523.4</ele>
        <time>2021-12-27T13:57:49Z</time>
      </trkpt>
      <trkpt lat="37.8008930" lon="-3.8397180">
        <ele>523.6</ele>
        <time>2021-12-27T13:57:50Z</time>
      </trkpt>
      <trkpt lat="37.8009020" lon="-3.8397470">
        <ele>523.6</ele>
        <time>2021-12-27T13:57:51Z</time>
      </trkpt>
      <trkpt lat="37.8009150" lon="-3.8397740">
        <ele>523.6</ele>
        <time>2021-12-27T13:57:52Z</time>
      </trkpt>
      <trkpt lat="37.8009250" lon="-3.8398000">
        <ele>523.6</ele>
        <time>2021-12-27T13:57:53Z</time>
      </trkpt>
      <trkpt lat="37.8009380" lon="-3.8398250">
        <ele>523.8</ele>
        <time>2021-12-27T13:57:54Z</time>
      </trkpt>
      <trkpt lat="37.8009440" lon="-3.8398520">
        <ele>523.8</ele>
        <time>2021-12-27T13:57:55Z</time>
      </trkpt>
      <trkpt lat="37.8009570" lon="-3.8398780">
        <ele>523.8</ele>
        <time>2021-12-27T13:57:56Z</time>
      </trkpt>
      <trkpt lat="37.8009630" lon="-3.8399070">
        <ele>523.8</ele>
        <time>2021-12-27T13:57:57Z</time>
      </trkpt>
      <trkpt lat="37.8009730" lon="-3.8399330">
        <ele>523.8</ele>
        <time>2021-12-27T13:57:58Z</time>
      </trkpt>
      <trkpt lat="37.8009820" lon="-3.8399620">
        <ele>523.8</ele>
        <time>2021-12-27T13:57:59Z</time>
      </trkpt>
      <trkpt lat="37.8009950" lon="-3.8399880">
        <ele>523.8</ele>
        <time>2021-12-27T13:58:00Z</time>
      </trkpt>
      <trkpt lat="37.8010020" lon="-3.8400170">
        <ele>523.8</ele>
        <time>2021-12-27T13:58:01Z</time>
      </trkpt>
      <trkpt lat="37.8010140" lon="-3.8400430">
        <ele>523.8</ele>
        <time>2021-12-27T13:58:02Z</time>
      </trkpt>
      <trkpt lat="37.8010240" lon="-3.8400730">
        <ele>523.8</ele>
        <time>2021-12-27T13:58:03Z</time>
      </trkpt>
      <trkpt lat="37.8010340" lon="-3.8401020">
        <ele>523.8</ele>
        <time>2021-12-27T13:58:04Z</time>
      </trkpt>
      <trkpt lat="37.8010400" lon="-3.8401300">
        <ele>523.8</ele>
        <time>2021-12-27T13:58:05Z</time>
      </trkpt>
      <trkpt lat="37.8010500" lon="-3.8401580">
        <ele>523.8</ele>
        <time>2021-12-27T13:58:06Z</time>
      </trkpt>
      <trkpt lat="37.8010560" lon="-3.8401860">
        <ele>523.8</ele>
        <time>2021-12-27T13:58:07Z</time>
      </trkpt>
      <trkpt lat="37.8010690" lon="-3.8402130">
        <ele>524.0</ele>
        <time>2021-12-27T13:58:08Z</time>
      </trkpt>
      <trkpt lat="37.8010750" lon="-3.8402420">
        <ele>524.0</ele>
        <time>2021-12-27T13:58:09Z</time>
      </trkpt>
      <trkpt lat="37.8010820" lon="-3.8402700">
        <ele>524.2</ele>
        <time>2021-12-27T13:58:10Z</time>
      </trkpt>
      <trkpt lat="37.8010910" lon="-3.8402980">
        <ele>524.2</ele>
        <time>2021-12-27T13:58:11Z</time>
      </trkpt>
      <trkpt lat="37.8011010" lon="-3.8403280">
        <ele>524.2</ele>
        <time>2021-12-27T13:58:12Z</time>
      </trkpt>
      <trkpt lat="37.8011040" lon="-3.8403560">
        <ele>524.2</ele>
        <time>2021-12-27T13:58:13Z</time>
      </trkpt>
      <trkpt lat="37.8011140" lon="-3.8403850">
        <ele>524.2</ele>
        <time>2021-12-27T13:58:14Z</time>
      </trkpt>
      <trkpt lat="37.8011200" lon="-3.8404150">
        <ele>524.2</ele>
        <time>2021-12-27T13:58:15Z</time>
      </trkpt>
      <trkpt lat="37.8011300" lon="-3.8404450">
        <ele>524.0</ele>
        <time>2021-12-27T13:58:16Z</time>
      </trkpt>
      <trkpt lat="37.8011390" lon="-3.8404750">
        <ele>524.0</ele>
        <time>2021-12-27T13:58:17Z</time>
      </trkpt>
      <trkpt lat="37.8011490" lon="-3.8405050">
        <ele>524.0</ele>
        <time>2021-12-27T13:58:18Z</time>
      </trkpt>
      <trkpt lat="37.8011550" lon="-3.8405330">
        <ele>524.0</ele>
        <time>2021-12-27T13:58:19Z</time>
      </trkpt>
      <trkpt lat="37.8011620" lon="-3.8405620">
        <ele>524.0</ele>
        <time>2021-12-27T13:58:20Z</time>
      </trkpt>
      <trkpt lat="37.8011710" lon="-3.8405920">
        <ele>524.0</ele>
        <time>2021-12-27T13:58:21Z</time>
      </trkpt>
      <trkpt lat="37.8011780" lon="-3.8406220">
        <ele>524.0</ele>
        <time>2021-12-27T13:58:22Z</time>
      </trkpt>
      <trkpt lat="37.8011810" lon="-3.8406550">
        <ele>524.0</ele>
        <time>2021-12-27T13:58:23Z</time>
      </trkpt>
      <trkpt lat="37.8011900" lon="-3.8406840">
        <ele>524.0</ele>
        <time>2021-12-27T13:58:24Z</time>
      </trkpt>
      <trkpt lat="37.8011970" lon="-3.8407130">
        <ele>524.0</ele>
        <time>2021-12-27T13:58:25Z</time>
      </trkpt>
      <trkpt lat="37.8012030" lon="-3.8407420">
        <ele>524.0</ele>
        <time>2021-12-27T13:58:26Z</time>
      </trkpt>
      <trkpt lat="37.8012100" lon="-3.8407720">
        <ele>524.0</ele>
        <time>2021-12-27T13:58:27Z</time>
      </trkpt>
      <trkpt lat="37.8012130" lon="-3.8408020">
        <ele>524.0</ele>
        <time>2021-12-27T13:58:28Z</time>
      </trkpt>
      <trkpt lat="37.8012190" lon="-3.8408320">
        <ele>524.0</ele>
        <time>2021-12-27T13:58:29Z</time>
      </trkpt>
      <trkpt lat="37.8012220" lon="-3.8408630">
        <ele>524.0</ele>
        <time>2021-12-27T13:58:30Z</time>
      </trkpt>
      <trkpt lat="37.8012290" lon="-3.8408950">
        <ele>524.0</ele>
        <time>2021-12-27T13:58:31Z</time>
      </trkpt>
      <trkpt lat="37.8012350" lon="-3.8409280">
        <ele>524.0</ele>
        <time>2021-12-27T13:58:32Z</time>
      </trkpt>
      <trkpt lat="37.8012380" lon="-3.8409600">
        <ele>524.0</ele>
        <time>2021-12-27T13:58:33Z</time>
      </trkpt>
      <trkpt lat="37.8012420" lon="-3.8409900">
        <ele>524.0</ele>
        <time>2021-12-27T13:58:34Z</time>
      </trkpt>
      <trkpt lat="37.8012480" lon="-3.8410200">
        <ele>524.0</ele>
        <time>2021-12-27T13:58:35Z</time>
      </trkpt>
      <trkpt lat="37.8012540" lon="-3.8410500">
        <ele>524.2</ele>
        <time>2021-12-27T13:58:36Z</time>
      </trkpt>
      <trkpt lat="37.8012580" lon="-3.8410820">
        <ele>524.2</ele>
        <time>2021-12-27T13:58:37Z</time>
      </trkpt>
      <trkpt lat="37.8012610" lon="-3.8411170">
        <ele>524.2</ele>
        <time>2021-12-27T13:58:38Z</time>
      </trkpt>
      <trkpt lat="37.8012610" lon="-3.8411500">
        <ele>524.2</ele>
        <time>2021-12-27T13:58:39Z</time>
      </trkpt>
      <trkpt lat="37.8012610" lon="-3.8411850">
        <ele>524.2</ele>
        <time>2021-12-27T13:58:40Z</time>
      </trkpt>
      <trkpt lat="37.8012670" lon="-3.8412160">
        <ele>524.0</ele>
        <time>2021-12-27T13:58:41Z</time>
      </trkpt>
      <trkpt lat="37.8012740" lon="-3.8412500">
        <ele>524.0</ele>
        <time>2021-12-27T13:58:42Z</time>
      </trkpt>
      <trkpt lat="37.8012770" lon="-3.8412800">
        <ele>524.0</ele>
        <time>2021-12-27T13:58:43Z</time>
      </trkpt>
      <trkpt lat="37.8012770" lon="-3.8413120">
        <ele>524.0</ele>
        <time>2021-12-27T13:58:44Z</time>
      </trkpt>
      <trkpt lat="37.8012800" lon="-3.8413440">
        <ele>524.0</ele>
        <time>2021-12-27T13:58:45Z</time>
      </trkpt>
      <trkpt lat="37.8012830" lon="-3.8413770">
        <ele>524.0</ele>
        <time>2021-12-27T13:58:46Z</time>
      </trkpt>
      <trkpt lat="37.8012900" lon="-3.8414100">
        <ele>524.0</ele>
        <time>2021-12-27T13:58:47Z</time>
      </trkpt>
      <trkpt lat="37.8012930" lon="-3.8414400">
        <ele>524.0</ele>
        <time>2021-12-27T13:58:48Z</time>
      </trkpt>
      <trkpt lat="37.8012960" lon="-3.8414720">
        <ele>524.2</ele>
        <time>2021-12-27T13:58:49Z</time>
      </trkpt>
      <trkpt lat="37.8012990" lon="-3.8415030">
        <ele>524.2</ele>
        <time>2021-12-27T13:58:50Z</time>
      </trkpt>
      <trkpt lat="37.8012990" lon="-3.8415340">
        <ele>524.2</ele>
        <time>2021-12-27T13:58:51Z</time>
      </trkpt>
      <trkpt lat="37.8013020" lon="-3.8415630">
        <ele>524.4</ele>
        <time>2021-12-27T13:58:52Z</time>
      </trkpt>
      <trkpt lat="37.8013020" lon="-3.8415930">
        <ele>524.4</ele>
        <time>2021-12-27T13:58:53Z</time>
      </trkpt>
      <trkpt lat="37.8013020" lon="-3.8416250">
        <ele>524.6</ele>
        <time>2021-12-27T13:58:54Z</time>
      </trkpt>
      <trkpt lat="37.8013020" lon="-3.8416570">
        <ele>524.6</ele>
        <time>2021-12-27T13:58:55Z</time>
      </trkpt>
      <trkpt lat="37.8013090" lon="-3.8416880">
        <ele>524.8</ele>
        <time>2021-12-27T13:58:56Z</time>
      </trkpt>
      <trkpt lat="37.8013090" lon="-3.8417220">
        <ele>525.0</ele>
        <time>2021-12-27T13:58:57Z</time>
      </trkpt>
      <trkpt lat="37.8013090" lon="-3.8417520">
        <ele>525.2</ele>
        <time>2021-12-27T13:58:58Z</time>
      </trkpt>
      <trkpt lat="37.8013090" lon="-3.8417820">
        <ele>525.2</ele>
        <time>2021-12-27T13:58:59Z</time>
      </trkpt>
      <trkpt lat="37.8013120" lon="-3.8418120">
        <ele>525.4</ele>
        <time>2021-12-27T13:59:00Z</time>
      </trkpt>
      <trkpt lat="37.8013120" lon="-3.8418430">
        <ele>525.4</ele>
        <time>2021-12-27T13:59:01Z</time>
      </trkpt>
      <trkpt lat="37.8013090" lon="-3.8418740">
        <ele>525.6</ele>
        <time>2021-12-27T13:59:02Z</time>
      </trkpt>
      <trkpt lat="37.8013020" lon="-3.8419060">
        <ele>525.6</ele>
        <time>2021-12-27T13:59:03Z</time>
      </trkpt>
      <trkpt lat="37.8013020" lon="-3.8419380">
        <ele>525.6</ele>
        <time>2021-12-27T13:59:04Z</time>
      </trkpt>
      <trkpt lat="37.8013020" lon="-3.8419700">
        <ele>525.8</ele>
        <time>2021-12-27T13:59:05Z</time>
      </trkpt>
      <trkpt lat="37.8012990" lon="-3.8420020">
        <ele>525.8</ele>
        <time>2021-12-27T13:59:06Z</time>
      </trkpt>
      <trkpt lat="37.8012990" lon="-3.8420320">
        <ele>526.0</ele>
        <time>2021-12-27T13:59:07Z</time>
      </trkpt>
      <trkpt lat="37.8012990" lon="-3.8420620">
        <ele>526.0</ele>
        <time>2021-12-27T13:59:08Z</time>
      </trkpt>
      <trkpt lat="37.8012990" lon="-3.8420920">
        <ele>526.0</ele>
        <time>2021-12-27T13:59:09Z</time>
      </trkpt>
      <trkpt lat="37.8012960" lon="-3.8421220">
        <ele>526.0</ele>
        <time>2021-12-27T13:59:10Z</time>
      </trkpt>
      <trkpt lat="37.8012930" lon="-3.8421520">
        <ele>526.0</ele>
        <time>2021-12-27T13:59:11Z</time>
      </trkpt>
      <trkpt lat="37.8012900" lon="-3.8421830">
        <ele>526.0</ele>
        <time>2021-12-27T13:59:12Z</time>
      </trkpt>
      <trkpt lat="37.8012830" lon="-3.8422120">
        <ele>526.0</ele>
        <time>2021-12-27T13:59:13Z</time>
      </trkpt>
      <trkpt lat="37.8012830" lon="-3.8422400">
        <ele>526.2</ele>
        <time>2021-12-27T13:59:14Z</time>
      </trkpt>
      <trkpt lat="37.8012830" lon="-3.8422700">
        <ele>526.2</ele>
        <time>2021-12-27T13:59:15Z</time>
      </trkpt>
      <trkpt lat="37.8012830" lon="-3.8423020">
        <ele>526.4</ele>
        <time>2021-12-27T13:59:16Z</time>
      </trkpt>
      <trkpt lat="37.8012800" lon="-3.8423350">
        <ele>526.4</ele>
        <time>2021-12-27T13:59:17Z</time>
      </trkpt>
      <trkpt lat="37.8012740" lon="-3.8423670">
        <ele>526.6</ele>
        <time>2021-12-27T13:59:18Z</time>
      </trkpt>
      <trkpt lat="37.8012700" lon="-3.8424000">
        <ele>526.6</ele>
        <time>2021-12-27T13:59:19Z</time>
      </trkpt>
      <trkpt lat="37.8012670" lon="-3.8424320">
        <ele>526.8</ele>
        <time>2021-12-27T13:59:20Z</time>
      </trkpt>
      <trkpt lat="37.8012610" lon="-3.8424660">
        <ele>526.8</ele>
        <time>2021-12-27T13:59:21Z</time>
      </trkpt>
      <trkpt lat="37.8012580" lon="-3.8424980">
        <ele>526.8</ele>
        <time>2021-12-27T13:59:22Z</time>
      </trkpt>
      <trkpt lat="37.8012540" lon="-3.8425320">
        <ele>526.8</ele>
        <time>2021-12-27T13:59:23Z</time>
      </trkpt>
      <trkpt lat="37.8012510" lon="-3.8425630">
        <ele>526.8</ele>
        <time>2021-12-27T13:59:24Z</time>
      </trkpt>
      <trkpt lat="37.8012480" lon="-3.8425950">
        <ele>527.0</ele>
        <time>2021-12-27T13:59:25Z</time>
      </trkpt>
      <trkpt lat="37.8012480" lon="-3.8426250">
        <ele>527.0</ele>
        <time>2021-12-27T13:59:26Z</time>
      </trkpt>
      <trkpt lat="37.8012380" lon="-3.8426570">
        <ele>527.0</ele>
        <time>2021-12-27T13:59:27Z</time>
      </trkpt>
      <trkpt lat="37.8012350" lon="-3.8426870">
        <ele>527.2</ele>
        <time>2021-12-27T13:59:28Z</time>
      </trkpt>
      <trkpt lat="37.8012290" lon="-3.8427170">
        <ele>527.2</ele>
        <time>2021-12-27T13:59:29Z</time>
      </trkpt>
      <trkpt lat="37.8012190" lon="-3.8427480">
        <ele>527.2</ele>
        <time>2021-12-27T13:59:30Z</time>
      </trkpt>
      <trkpt lat="37.8012130" lon="-3.8427820">
        <ele>527.4</ele>
        <time>2021-12-27T13:59:31Z</time>
      </trkpt>
      <trkpt lat="37.8012100" lon="-3.8428150">
        <ele>527.4</ele>
        <time>2021-12-27T13:59:32Z</time>
      </trkpt>
      <trkpt lat="37.8012030" lon="-3.8428480">
        <ele>527.4</ele>
        <time>2021-12-27T13:59:33Z</time>
      </trkpt>
      <trkpt lat="37.8011970" lon="-3.8428820">
        <ele>527.4</ele>
        <time>2021-12-27T13:59:34Z</time>
      </trkpt>
      <trkpt lat="37.8011900" lon="-3.8429150">
        <ele>527.4</ele>
        <time>2021-12-27T13:59:35Z</time>
      </trkpt>
      <trkpt lat="37.8011810" lon="-3.8429460">
        <ele>527.4</ele>
        <time>2021-12-27T13:59:36Z</time>
      </trkpt>
      <trkpt lat="37.8011740" lon="-3.8429760">
        <ele>527.4</ele>
        <time>2021-12-27T13:59:37Z</time>
      </trkpt>
      <trkpt lat="37.8011680" lon="-3.8430070">
        <ele>527.6</ele>
        <time>2021-12-27T13:59:38Z</time>
      </trkpt>
      <trkpt lat="37.8011580" lon="-3.8430370">
        <ele>527.6</ele>
        <time>2021-12-27T13:59:39Z</time>
      </trkpt>
      <trkpt lat="37.8011550" lon="-3.8430680">
        <ele>527.6</ele>
        <time>2021-12-27T13:59:40Z</time>
      </trkpt>
      <trkpt lat="37.8011490" lon="-3.8431020">
        <ele>527.8</ele>
        <time>2021-12-27T13:59:41Z</time>
      </trkpt>
      <trkpt lat="37.8011390" lon="-3.8431350">
        <ele>527.8</ele>
        <time>2021-12-27T13:59:42Z</time>
      </trkpt>
      <trkpt lat="37.8011330" lon="-3.8431660">
        <ele>528.0</ele>
        <time>2021-12-27T13:59:43Z</time>
      </trkpt>
      <trkpt lat="37.8011230" lon="-3.8431970">
        <ele>528.0</ele>
        <time>2021-12-27T13:59:44Z</time>
      </trkpt>
      <trkpt lat="37.8011170" lon="-3.8432280">
        <ele>528.2</ele>
        <time>2021-12-27T13:59:45Z</time>
      </trkpt>
      <trkpt lat="37.8011040" lon="-3.8432600">
        <ele>528.2</ele>
        <time>2021-12-27T13:59:46Z</time>
      </trkpt>
      <trkpt lat="37.8010980" lon="-3.8432920">
        <ele>528.4</ele>
        <time>2021-12-27T13:59:47Z</time>
      </trkpt>
      <trkpt lat="37.8010910" lon="-3.8433250">
        <ele>528.4</ele>
        <time>2021-12-27T13:59:48Z</time>
      </trkpt>
      <trkpt lat="37.8010820" lon="-3.8433580">
        <ele>528.6</ele>
        <time>2021-12-27T13:59:49Z</time>
      </trkpt>
      <trkpt lat="37.8010750" lon="-3.8433930">
        <ele>528.6</ele>
        <time>2021-12-27T13:59:50Z</time>
      </trkpt>
      <trkpt lat="37.8010620" lon="-3.8434280">
        <ele>528.8</ele>
        <time>2021-12-27T13:59:51Z</time>
      </trkpt>
      <trkpt lat="37.8010530" lon="-3.8434620">
        <ele>528.8</ele>
        <time>2021-12-27T13:59:52Z</time>
      </trkpt>
      <trkpt lat="37.8010400" lon="-3.8434950">
        <ele>528.8</ele>
        <time>2021-12-27T13:59:53Z</time>
      </trkpt>
      <trkpt lat="37.8010300" lon="-3.8435270">
        <ele>529.0</ele>
        <time>2021-12-27T13:59:54Z</time>
      </trkpt>
      <trkpt lat="37.8010180" lon="-3.8435580">
        <ele>529.0</ele>
        <time>2021-12-27T13:59:55Z</time>
      </trkpt>
      <trkpt lat="37.8010110" lon="-3.8435920">
        <ele>529.0</ele>
        <time>2021-12-27T13:59:56Z</time>
      </trkpt>
      <trkpt lat="37.8009980" lon="-3.8436270">
        <ele>528.8</ele>
        <time>2021-12-27T13:59:57Z</time>
      </trkpt>
      <trkpt lat="37.8009920" lon="-3.8436620">
        <ele>529.0</ele>
        <time>2021-12-27T13:59:58Z</time>
      </trkpt>
      <trkpt lat="37.8009790" lon="-3.8436950">
        <ele>529.0</ele>
        <time>2021-12-27T13:59:59Z</time>
      </trkpt>
      <trkpt lat="37.8009620" lon="-3.8437420">
        <ele>529.0</ele>
        <time>2021-12-27T14:00:00Z</time>
      </trkpt>
      <trkpt lat="37.8009540" lon="-3.8437570">
        <ele>529.0</ele>
        <time>2021-12-27T14:00:01Z</time>
      </trkpt>
      <trkpt lat="37.8009380" lon="-3.8437880">
        <ele>529.0</ele>
        <time>2021-12-27T14:00:02Z</time>
      </trkpt>
      <trkpt lat="37.8009250" lon="-3.8438180">
        <ele>529.0</ele>
        <time>2021-12-27T14:00:03Z</time>
      </trkpt>
      <trkpt lat="37.8009120" lon="-3.8438500">
        <ele>529.2</ele>
        <time>2021-12-27T14:00:04Z</time>
      </trkpt>
      <trkpt lat="37.8008960" lon="-3.8438800">
        <ele>529.2</ele>
        <time>2021-12-27T14:00:05Z</time>
      </trkpt>
      <trkpt lat="37.8008830" lon="-3.8439120">
        <ele>529.2</ele>
        <time>2021-12-27T14:00:06Z</time>
      </trkpt>
      <trkpt lat="37.8008700" lon="-3.8439430">
        <ele>529.2</ele>
        <time>2021-12-27T14:00:07Z</time>
      </trkpt>
      <trkpt lat="37.8008580" lon="-3.8439770">
        <ele>529.4</ele>
        <time>2021-12-27T14:00:08Z</time>
      </trkpt>
      <trkpt lat="37.8008420" lon="-3.8440060">
        <ele>529.4</ele>
        <time>2021-12-27T14:00:09Z</time>
      </trkpt>
      <trkpt lat="37.8008260" lon="-3.8440360">
        <ele>529.4</ele>
        <time>2021-12-27T14:00:10Z</time>
      </trkpt>
      <trkpt lat="37.8008130" lon="-3.8440650">
        <ele>529.4</ele>
        <time>2021-12-27T14:00:11Z</time>
      </trkpt>
      <trkpt lat="37.8007970" lon="-3.8440930">
        <ele>529.6</ele>
        <time>2021-12-27T14:00:12Z</time>
      </trkpt>
      <trkpt lat="37.8007810" lon="-3.8441220">
        <ele>529.6</ele>
        <time>2021-12-27T14:00:13Z</time>
      </trkpt>
      <trkpt lat="37.8007710" lon="-3.8441540">
        <ele>529.6</ele>
        <time>2021-12-27T14:00:14Z</time>
      </trkpt>
      <trkpt lat="37.8007550" lon="-3.8441840">
        <ele>529.6</ele>
        <time>2021-12-27T14:00:15Z</time>
      </trkpt>
      <trkpt lat="37.8007360" lon="-3.8442130">
        <ele>529.8</ele>
        <time>2021-12-27T14:00:16Z</time>
      </trkpt>
      <trkpt lat="37.8007200" lon="-3.8442450">
        <ele>529.8</ele>
        <time>2021-12-27T14:00:17Z</time>
      </trkpt>
      <trkpt lat="37.8007040" lon="-3.8442770">
        <ele>529.8</ele>
        <time>2021-12-27T14:00:18Z</time>
      </trkpt>
      <trkpt lat="37.8006850" lon="-3.8443050">
        <ele>529.8</ele>
        <time>2021-12-27T14:00:19Z</time>
      </trkpt>
      <trkpt lat="37.8006720" lon="-3.8443340">
        <ele>530.0</ele>
        <time>2021-12-27T14:00:20Z</time>
      </trkpt>
      <trkpt lat="37.8006530" lon="-3.8443630">
        <ele>530.0</ele>
        <time>2021-12-27T14:00:21Z</time>
      </trkpt>
      <trkpt lat="37.8006400" lon="-3.8443950">
        <ele>530.0</ele>
        <time>2021-12-27T14:00:22Z</time>
      </trkpt>
      <trkpt lat="37.8006240" lon="-3.8444280">
        <ele>529.8</ele>
        <time>2021-12-27T14:00:23Z</time>
      </trkpt>
      <trkpt lat="37.8006050" lon="-3.8444600">
        <ele>529.8</ele>
        <time>2021-12-27T14:00:24Z</time>
      </trkpt>
      <trkpt lat="37.8005920" lon="-3.8444920">
        <ele>530.0</ele>
        <time>2021-12-27T14:00:25Z</time>
      </trkpt>
      <trkpt lat="37.8005730" lon="-3.8445220">
        <ele>530.0</ele>
        <time>2021-12-27T14:00:26Z</time>
      </trkpt>
      <trkpt lat="37.8005540" lon="-3.8445520">
        <ele>530.0</ele>
        <time>2021-12-27T14:00:27Z</time>
      </trkpt>
      <trkpt lat="37.8005340" lon="-3.8445800">
        <ele>530.0</ele>
        <time>2021-12-27T14:00:28Z</time>
      </trkpt>
      <trkpt lat="37.8005150" lon="-3.8446080">
        <ele>530.0</ele>
        <time>2021-12-27T14:00:29Z</time>
      </trkpt>
      <trkpt lat="37.8004960" lon="-3.8446300">
        <ele>529.8</ele>
        <time>2021-12-27T14:00:30Z</time>
      </trkpt>
      <trkpt lat="37.8004830" lon="-3.8446530">
        <ele>529.8</ele>
        <time>2021-12-27T14:00:31Z</time>
      </trkpt>
      <trkpt lat="37.8004830" lon="-3.8446530">
        <ele>530.0</ele>
        <time>2021-12-27T14:00:32Z</time>
      </trkpt>
      <trkpt lat="37.8004670" lon="-3.8446880">
        <ele>530.0</ele>
        <time>2021-12-27T14:00:33Z</time>
      </trkpt>
      <trkpt lat="37.8004670" lon="-3.8446880">
        <ele>530.0</ele>
        <time>2021-12-27T14:00:34Z</time>
      </trkpt>
      <trkpt lat="37.8004540" lon="-3.8447130">
        <ele>530.0</ele>
        <time>2021-12-27T14:00:35Z</time>
      </trkpt>
      <trkpt lat="37.8004540" lon="-3.8447130">
        <ele>530.0</ele>
        <time>2021-12-27T14:00:36Z</time>
      </trkpt>
      <trkpt lat="37.8004420" lon="-3.8447380">
        <ele>530.0</ele>
        <time>2021-12-27T14:00:37Z</time>
      </trkpt>
      <trkpt lat="37.8004420" lon="-3.8447380">
        <ele>530.0</ele>
        <time>2021-12-27T14:00:38Z</time>
      </trkpt>
      <trkpt lat="37.8004420" lon="-3.8447380">
        <ele>529.8</ele>
        <time>2021-12-27T14:00:39Z</time>
      </trkpt>
      <trkpt lat="37.8004290" lon="-3.8447600">
        <ele>529.8</ele>
        <time>2021-12-27T14:00:40Z</time>
      </trkpt>
      <trkpt lat="37.8004170" lon="-3.8447780">
        <ele>529.8</ele>
        <time>2021-12-27T14:00:41Z</time>
      </trkpt>
      <trkpt lat="37.8004050" lon="-3.8447950">
        <ele>529.8</ele>
        <time>2021-12-27T14:00:42Z</time>
      </trkpt>
      <trkpt lat="37.8003940" lon="-3.8448130">
        <ele>530.0</ele>
        <time>2021-12-27T14:00:43Z</time>
      </trkpt>
      <trkpt lat="37.8003820" lon="-3.8448300">
        <ele>530.0</ele>
        <time>2021-12-27T14:00:44Z</time>
      </trkpt>
      <trkpt lat="37.8003700" lon="-3.8448480">
        <ele>532.6</ele>
        <time>2021-12-27T14:02:40Z</time>
      </trkpt>
      <trkpt lat="37.8003580" lon="-3.8448650">
        <ele>532.6</ele>
        <time>2021-12-27T14:02:41Z</time>
      </trkpt>
      <trkpt lat="37.8003420" lon="-3.8448870">
        <ele>532.6</ele>
        <time>2021-12-27T14:02:42Z</time>
      </trkpt>
      <trkpt lat="37.8003230" lon="-3.8449120">
        <ele>532.6</ele>
        <time>2021-12-27T14:02:43Z</time>
      </trkpt>
      <trkpt lat="37.8003040" lon="-3.8449420">
        <ele>532.6</ele>
        <time>2021-12-27T14:02:44Z</time>
      </trkpt>
      <trkpt lat="37.8002850" lon="-3.8449720">
        <ele>532.6</ele>
        <time>2021-12-27T14:02:45Z</time>
      </trkpt>
      <trkpt lat="37.8002660" lon="-3.8450030">
        <ele>532.6</ele>
        <time>2021-12-27T14:02:46Z</time>
      </trkpt>
      <trkpt lat="37.8002430" lon="-3.8450300">
        <ele>532.6</ele>
        <time>2021-12-27T14:02:47Z</time>
      </trkpt>
      <trkpt lat="37.8002240" lon="-3.8450560">
        <ele>532.6</ele>
        <time>2021-12-27T14:02:48Z</time>
      </trkpt>
      <trkpt lat="37.8002020" lon="-3.8450860">
        <ele>532.6</ele>
        <time>2021-12-27T14:02:49Z</time>
      </trkpt>
      <trkpt lat="37.8001790" lon="-3.8451170">
        <ele>532.6</ele>
        <time>2021-12-27T14:02:50Z</time>
      </trkpt>
      <trkpt lat="37.8001500" lon="-3.8451450">
        <ele>532.6</ele>
        <time>2021-12-27T14:02:51Z</time>
      </trkpt>
      <trkpt lat="37.8001250" lon="-3.8451730">
        <ele>532.6</ele>
        <time>2021-12-27T14:02:52Z</time>
      </trkpt>
      <trkpt lat="37.8000990" lon="-3.8452020">
        <ele>532.6</ele>
        <time>2021-12-27T14:02:53Z</time>
      </trkpt>
      <trkpt lat="37.8000720" lon="-3.8452300">
        <ele>532.6</ele>
        <time>2021-12-27T14:02:54Z</time>
      </trkpt>
      <trkpt lat="37.8000450" lon="-3.8452580">
        <ele>532.8</ele>
        <time>2021-12-27T14:02:55Z</time>
      </trkpt>
      <trkpt lat="37.8000190" lon="-3.8452850">
        <ele>532.8</ele>
        <time>2021-12-27T14:02:56Z</time>
      </trkpt>
      <trkpt lat="37.7999900" lon="-3.8453130">
        <ele>532.6</ele>
        <time>2021-12-27T14:02:57Z</time>
      </trkpt>
      <trkpt lat="37.7999680" lon="-3.8453370">
        <ele>532.6</ele>
        <time>2021-12-27T14:02:58Z</time>
      </trkpt>
      <trkpt lat="37.7999460" lon="-3.8453600">
        <ele>532.6</ele>
        <time>2021-12-27T14:02:59Z</time>
      </trkpt>
      <trkpt lat="37.7999200" lon="-3.8453820">
        <ele>532.6</ele>
        <time>2021-12-27T14:03:00Z</time>
      </trkpt>
      <trkpt lat="37.7998980" lon="-3.8454020">
        <ele>532.6</ele>
        <time>2021-12-27T14:03:01Z</time>
      </trkpt>
      <trkpt lat="37.7998720" lon="-3.8454180">
        <ele>532.6</ele>
        <time>2021-12-27T14:03:02Z</time>
      </trkpt>
      <trkpt lat="37.7998530" lon="-3.8454350">
        <ele>532.6</ele>
        <time>2021-12-27T14:03:03Z</time>
      </trkpt>
      <trkpt lat="37.7998370" lon="-3.8454500">
        <ele>532.6</ele>
        <time>2021-12-27T14:03:04Z</time>
      </trkpt>
      <trkpt lat="37.7998180" lon="-3.8454670">
        <ele>532.4</ele>
        <time>2021-12-27T14:03:05Z</time>
      </trkpt>
      <trkpt lat="37.7997980" lon="-3.8454870">
        <ele>532.4</ele>
        <time>2021-12-27T14:03:06Z</time>
      </trkpt>
      <trkpt lat="37.7997730" lon="-3.8455070">
        <ele>532.4</ele>
        <time>2021-12-27T14:03:07Z</time>
      </trkpt>
      <trkpt lat="37.7997540" lon="-3.8455270">
        <ele>532.4</ele>
        <time>2021-12-27T14:03:08Z</time>
      </trkpt>
      <trkpt lat="37.7997310" lon="-3.8455450">
        <ele>532.4</ele>
        <time>2021-12-27T14:03:09Z</time>
      </trkpt>
      <trkpt lat="37.7997090" lon="-3.8455640">
        <ele>532.4</ele>
        <time>2021-12-27T14:03:10Z</time>
      </trkpt>
      <trkpt lat="37.7996860" lon="-3.8455800">
        <ele>532.4</ele>
        <time>2021-12-27T14:03:11Z</time>
      </trkpt>
      <trkpt lat="37.7996640" lon="-3.8455970">
        <ele>532.2</ele>
        <time>2021-12-27T14:03:12Z</time>
      </trkpt>
      <trkpt lat="37.7996420" lon="-3.8456150">
        <ele>532.2</ele>
        <time>2021-12-27T14:03:13Z</time>
      </trkpt>
      <trkpt lat="37.7996220" lon="-3.8456320">
        <ele>532.2</ele>
        <time>2021-12-27T14:03:14Z</time>
      </trkpt>
      <trkpt lat="37.7996000" lon="-3.8456500">
        <ele>532.2</ele>
        <time>2021-12-27T14:03:15Z</time>
      </trkpt>
      <trkpt lat="37.7995740" lon="-3.8456720">
        <ele>532.2</ele>
        <time>2021-12-27T14:03:16Z</time>
      </trkpt>
      <trkpt lat="37.7995550" lon="-3.8456920">
        <ele>532.0</ele>
        <time>2021-12-27T14:03:17Z</time>
      </trkpt>
      <trkpt lat="37.7995390" lon="-3.8457100">
        <ele>532.0</ele>
        <time>2021-12-27T14:03:18Z</time>
      </trkpt>
      <trkpt lat="37.7995140" lon="-3.8457280">
        <ele>532.0</ele>
        <time>2021-12-27T14:03:19Z</time>
      </trkpt>
      <trkpt lat="37.7994940" lon="-3.8457450">
        <ele>532.0</ele>
        <time>2021-12-27T14:03:20Z</time>
      </trkpt>
      <trkpt lat="37.7994720" lon="-3.8457620">
        <ele>532.0</ele>
        <time>2021-12-27T14:03:21Z</time>
      </trkpt>
      <trkpt lat="37.7994500" lon="-3.8457760">
        <ele>532.0</ele>
        <time>2021-12-27T14:03:22Z</time>
      </trkpt>
      <trkpt lat="37.7994240" lon="-3.8457930">
        <ele>532.2</ele>
        <time>2021-12-27T14:03:23Z</time>
      </trkpt>
      <trkpt lat="37.7994020" lon="-3.8458080">
        <ele>532.2</ele>
        <time>2021-12-27T14:03:24Z</time>
      </trkpt>
      <trkpt lat="37.7993760" lon="-3.8458230">
        <ele>532.2</ele>
        <time>2021-12-27T14:03:25Z</time>
      </trkpt>
      <trkpt lat="37.7993500" lon="-3.8458370">
        <ele>532.2</ele>
        <time>2021-12-27T14:03:26Z</time>
      </trkpt>
      <trkpt lat="37.7993280" lon="-3.8458520">
        <ele>532.2</ele>
        <time>2021-12-27T14:03:27Z</time>
      </trkpt>
      <trkpt lat="37.7993060" lon="-3.8458670">
        <ele>532.2</ele>
        <time>2021-12-27T14:03:28Z</time>
      </trkpt>
      <trkpt lat="37.7992830" lon="-3.8458830">
        <ele>532.2</ele>
        <time>2021-12-27T14:03:29Z</time>
      </trkpt>
      <trkpt lat="37.7992640" lon="-3.8458980">
        <ele>532.2</ele>
        <time>2021-12-27T14:03:30Z</time>
      </trkpt>
      <trkpt lat="37.7992420" lon="-3.8459150">
        <ele>532.2</ele>
        <time>2021-12-27T14:03:31Z</time>
      </trkpt>
      <trkpt lat="37.7992160" lon="-3.8459280">
        <ele>532.2</ele>
        <time>2021-12-27T14:03:32Z</time>
      </trkpt>
      <trkpt lat="37.7991940" lon="-3.8459440">
        <ele>532.2</ele>
        <time>2021-12-27T14:03:33Z</time>
      </trkpt>
      <trkpt lat="37.7991710" lon="-3.8459570">
        <ele>532.2</ele>
        <time>2021-12-27T14:03:34Z</time>
      </trkpt>
      <trkpt lat="37.7991520" lon="-3.8459660">
        <ele>532.2</ele>
        <time>2021-12-27T14:03:35Z</time>
      </trkpt>
      <trkpt lat="37.7991300" lon="-3.8459760">
        <ele>532.2</ele>
        <time>2021-12-27T14:03:36Z</time>
      </trkpt>
      <trkpt lat="37.7991100" lon="-3.8459900">
        <ele>532.2</ele>
        <time>2021-12-27T14:03:37Z</time>
      </trkpt>
      <trkpt lat="37.7990880" lon="-3.8460030">
        <ele>532.0</ele>
        <time>2021-12-27T14:03:38Z</time>
      </trkpt>
      <trkpt lat="37.7990690" lon="-3.8460150">
        <ele>532.0</ele>
        <time>2021-12-27T14:03:39Z</time>
      </trkpt>
      <trkpt lat="37.7990460" lon="-3.8460270">
        <ele>532.0</ele>
        <time>2021-12-27T14:03:40Z</time>
      </trkpt>
      <trkpt lat="37.7990270" lon="-3.8460380">
        <ele>532.0</ele>
        <time>2021-12-27T14:03:41Z</time>
      </trkpt>
      <trkpt lat="37.7990080" lon="-3.8460480">
        <ele>531.8</ele>
        <time>2021-12-27T14:03:42Z</time>
      </trkpt>
      <trkpt lat="37.7989890" lon="-3.8460600">
        <ele>531.8</ele>
        <time>2021-12-27T14:03:43Z</time>
      </trkpt>
      <trkpt lat="37.7989700" lon="-3.8460720">
        <ele>531.8</ele>
        <time>2021-12-27T14:03:44Z</time>
      </trkpt>
      <trkpt lat="37.7989470" lon="-3.8460820">
        <ele>531.8</ele>
        <time>2021-12-27T14:03:45Z</time>
      </trkpt>
      <trkpt lat="37.7989250" lon="-3.8460900">
        <ele>531.8</ele>
        <time>2021-12-27T14:03:46Z</time>
      </trkpt>
      <trkpt lat="37.7988960" lon="-3.8461000">
        <ele>531.8</ele>
        <time>2021-12-27T14:03:47Z</time>
      </trkpt>
      <trkpt lat="37.7988700" lon="-3.8461120">
        <ele>531.8</ele>
        <time>2021-12-27T14:03:48Z</time>
      </trkpt>
      <trkpt lat="37.7988450" lon="-3.8461220">
        <ele>531.8</ele>
        <time>2021-12-27T14:03:49Z</time>
      </trkpt>
      <trkpt lat="37.7988160" lon="-3.8461330">
        <ele>531.8</ele>
        <time>2021-12-27T14:03:50Z</time>
      </trkpt>
      <trkpt lat="37.7987900" lon="-3.8461450">
        <ele>531.8</ele>
        <time>2021-12-27T14:03:51Z</time>
      </trkpt>
      <trkpt lat="37.7987650" lon="-3.8461560">
        <ele>531.8</ele>
        <time>2021-12-27T14:03:52Z</time>
      </trkpt>
      <trkpt lat="37.7987330" lon="-3.8461680">
        <ele>531.8</ele>
        <time>2021-12-27T14:03:53Z</time>
      </trkpt>
      <trkpt lat="37.7987100" lon="-3.8461770">
        <ele>532.0</ele>
        <time>2021-12-27T14:03:54Z</time>
      </trkpt>
      <trkpt lat="37.7986880" lon="-3.8461880">
        <ele>531.8</ele>
        <time>2021-12-27T14:03:55Z</time>
      </trkpt>
      <trkpt lat="37.7986660" lon="-3.8461980">
        <ele>532.0</ele>
        <time>2021-12-27T14:03:56Z</time>
      </trkpt>
      <trkpt lat="37.7986400" lon="-3.8462120">
        <ele>531.8</ele>
        <time>2021-12-27T14:03:57Z</time>
      </trkpt>
      <trkpt lat="37.7986180" lon="-3.8462250">
        <ele>531.8</ele>
        <time>2021-12-27T14:03:58Z</time>
      </trkpt>
      <trkpt lat="37.7985920" lon="-3.8462370">
        <ele>531.8</ele>
        <time>2021-12-27T14:03:59Z</time>
      </trkpt>
      <trkpt lat="37.7985730" lon="-3.8462480">
        <ele>531.8</ele>
        <time>2021-12-27T14:04:00Z</time>
      </trkpt>
      <trkpt lat="37.7985540" lon="-3.8462580">
        <ele>531.8</ele>
        <time>2021-12-27T14:04:01Z</time>
      </trkpt>
      <trkpt lat="37.7985310" lon="-3.8462670">
        <ele>531.6</ele>
        <time>2021-12-27T14:04:02Z</time>
      </trkpt>
      <trkpt lat="37.7985090" lon="-3.8462770">
        <ele>531.6</ele>
        <time>2021-12-27T14:04:03Z</time>
      </trkpt>
      <trkpt lat="37.7984860" lon="-3.8462870">
        <ele>531.6</ele>
        <time>2021-12-27T14:04:04Z</time>
      </trkpt>
      <trkpt lat="37.7984610" lon="-3.8462980">
        <ele>531.4</ele>
        <time>2021-12-27T14:04:05Z</time>
      </trkpt>
      <trkpt lat="37.7984380" lon="-3.8463120">
        <ele>531.4</ele>
        <time>2021-12-27T14:04:06Z</time>
      </trkpt>
      <trkpt lat="37.7984160" lon="-3.8463250">
        <ele>531.4</ele>
        <time>2021-12-27T14:04:07Z</time>
      </trkpt>
      <trkpt lat="37.7983940" lon="-3.8463380">
        <ele>531.2</ele>
        <time>2021-12-27T14:04:08Z</time>
      </trkpt>
      <trkpt lat="37.7983740" lon="-3.8463500">
        <ele>531.2</ele>
        <time>2021-12-27T14:04:09Z</time>
      </trkpt>
      <trkpt lat="37.7983520" lon="-3.8463620">
        <ele>531.2</ele>
        <time>2021-12-27T14:04:10Z</time>
      </trkpt>
      <trkpt lat="37.7983300" lon="-3.8463720">
        <ele>531.2</ele>
        <time>2021-12-27T14:04:11Z</time>
      </trkpt>
      <trkpt lat="37.7983040" lon="-3.8463820">
        <ele>531.4</ele>
        <time>2021-12-27T14:04:12Z</time>
      </trkpt>
      <trkpt lat="37.7982820" lon="-3.8463900">
        <ele>531.4</ele>
        <time>2021-12-27T14:04:13Z</time>
      </trkpt>
      <trkpt lat="37.7982590" lon="-3.8464020">
        <ele>531.4</ele>
        <time>2021-12-27T14:04:14Z</time>
      </trkpt>
      <trkpt lat="37.7982370" lon="-3.8464150">
        <ele>531.4</ele>
        <time>2021-12-27T14:04:15Z</time>
      </trkpt>
      <trkpt lat="37.7982180" lon="-3.8464280">
        <ele>531.6</ele>
        <time>2021-12-27T14:04:16Z</time>
      </trkpt>
      <trkpt lat="37.7981950" lon="-3.8464420">
        <ele>531.6</ele>
        <time>2021-12-27T14:04:17Z</time>
      </trkpt>
      <trkpt lat="37.7981760" lon="-3.8464530">
        <ele>531.6</ele>
        <time>2021-12-27T14:04:18Z</time>
      </trkpt>
      <trkpt lat="37.7981540" lon="-3.8464660">
        <ele>531.6</ele>
        <time>2021-12-27T14:04:19Z</time>
      </trkpt>
      <trkpt lat="37.7981310" lon="-3.8464760">
        <ele>531.8</ele>
        <time>2021-12-27T14:04:20Z</time>
      </trkpt>
      <trkpt lat="37.7981060" lon="-3.8464880">
        <ele>531.8</ele>
        <time>2021-12-27T14:04:21Z</time>
      </trkpt>
      <trkpt lat="37.7980800" lon="-3.8465020">
        <ele>531.8</ele>
        <time>2021-12-27T14:04:22Z</time>
      </trkpt>
      <trkpt lat="37.7980580" lon="-3.8465130">
        <ele>531.8</ele>
        <time>2021-12-27T14:04:23Z</time>
      </trkpt>
      <trkpt lat="37.7980260" lon="-3.8465270">
        <ele>531.6</ele>
        <time>2021-12-27T14:04:24Z</time>
      </trkpt>
      <trkpt lat="37.7980030" lon="-3.8465400">
        <ele>531.6</ele>
        <time>2021-12-27T14:04:25Z</time>
      </trkpt>
      <trkpt lat="37.7979780" lon="-3.8465530">
        <ele>531.6</ele>
        <time>2021-12-27T14:04:26Z</time>
      </trkpt>
      <trkpt lat="37.7979550" lon="-3.8465630">
        <ele>531.6</ele>
        <time>2021-12-27T14:04:27Z</time>
      </trkpt>
      <trkpt lat="37.7979330" lon="-3.8465730">
        <ele>531.8</ele>
        <time>2021-12-27T14:04:28Z</time>
      </trkpt>
      <trkpt lat="37.7979070" lon="-3.8465870">
        <ele>531.8</ele>
        <time>2021-12-27T14:04:29Z</time>
      </trkpt>
      <trkpt lat="37.7978850" lon="-3.8466020">
        <ele>531.8</ele>
        <time>2021-12-27T14:04:30Z</time>
      </trkpt>
      <trkpt lat="37.7978620" lon="-3.8466200">
        <ele>531.8</ele>
        <time>2021-12-27T14:04:31Z</time>
      </trkpt>
      <trkpt lat="37.7978400" lon="-3.8466350">
        <ele>531.8</ele>
        <time>2021-12-27T14:04:32Z</time>
      </trkpt>
      <trkpt lat="37.7978140" lon="-3.8466480">
        <ele>531.8</ele>
        <time>2021-12-27T14:04:33Z</time>
      </trkpt>
      <trkpt lat="37.7977920" lon="-3.8466600">
        <ele>531.8</ele>
        <time>2021-12-27T14:04:34Z</time>
      </trkpt>
      <trkpt lat="37.7977730" lon="-3.8466720">
        <ele>531.8</ele>
        <time>2021-12-27T14:04:35Z</time>
      </trkpt>
      <trkpt lat="37.7977540" lon="-3.8466820">
        <ele>531.8</ele>
        <time>2021-12-27T14:04:36Z</time>
      </trkpt>
      <trkpt lat="37.7977340" lon="-3.8466950">
        <ele>531.8</ele>
        <time>2021-12-27T14:04:37Z</time>
      </trkpt>
      <trkpt lat="37.7977120" lon="-3.8467100">
        <ele>531.8</ele>
        <time>2021-12-27T14:04:38Z</time>
      </trkpt>
      <trkpt lat="37.7976860" lon="-3.8467230">
        <ele>532.0</ele>
        <time>2021-12-27T14:04:39Z</time>
      </trkpt>
      <trkpt lat="37.7976610" lon="-3.8467400">
        <ele>532.0</ele>
        <time>2021-12-27T14:04:40Z</time>
      </trkpt>
      <trkpt lat="37.7976420" lon="-3.8467530">
        <ele>532.0</ele>
        <time>2021-12-27T14:04:41Z</time>
      </trkpt>
      <trkpt lat="37.7976160" lon="-3.8467700">
        <ele>532.0</ele>
        <time>2021-12-27T14:04:42Z</time>
      </trkpt>
      <trkpt lat="37.7975940" lon="-3.8467830">
        <ele>532.0</ele>
        <time>2021-12-27T14:04:43Z</time>
      </trkpt>
      <trkpt lat="37.7975680" lon="-3.8468000">
        <ele>532.0</ele>
        <time>2021-12-27T14:04:44Z</time>
      </trkpt>
      <trkpt lat="37.7975460" lon="-3.8468160">
        <ele>532.2</ele>
        <time>2021-12-27T14:04:45Z</time>
      </trkpt>
      <trkpt lat="37.7975230" lon="-3.8468330">
        <ele>532.2</ele>
        <time>2021-12-27T14:04:46Z</time>
      </trkpt>
      <trkpt lat="37.7975040" lon="-3.8468520">
        <ele>532.2</ele>
        <time>2021-12-27T14:04:47Z</time>
      </trkpt>
      <trkpt lat="37.7974820" lon="-3.8468700">
        <ele>532.2</ele>
        <time>2021-12-27T14:04:48Z</time>
      </trkpt>
      <trkpt lat="37.7974590" lon="-3.8468880">
        <ele>532.2</ele>
        <time>2021-12-27T14:04:49Z</time>
      </trkpt>
      <trkpt lat="37.7974370" lon="-3.8469070">
        <ele>532.2</ele>
        <time>2021-12-27T14:04:50Z</time>
      </trkpt>
      <trkpt lat="37.7974140" lon="-3.8469250">
        <ele>532.2</ele>
        <time>2021-12-27T14:04:51Z</time>
      </trkpt>
      <trkpt lat="37.7973860" lon="-3.8469480">
        <ele>532.2</ele>
        <time>2021-12-27T14:04:52Z</time>
      </trkpt>
      <trkpt lat="37.7973630" lon="-3.8469650">
        <ele>532.2</ele>
        <time>2021-12-27T14:04:53Z</time>
      </trkpt>
      <trkpt lat="37.7973440" lon="-3.8469850">
        <ele>532.2</ele>
        <time>2021-12-27T14:04:54Z</time>
      </trkpt>
      <trkpt lat="37.7973220" lon="-3.8470070">
        <ele>532.2</ele>
        <time>2021-12-27T14:04:55Z</time>
      </trkpt>
      <trkpt lat="37.7972990" lon="-3.8470260">
        <ele>532.2</ele>
        <time>2021-12-27T14:04:56Z</time>
      </trkpt>
      <trkpt lat="37.7972800" lon="-3.8470480">
        <ele>532.2</ele>
        <time>2021-12-27T14:04:57Z</time>
      </trkpt>
      <trkpt lat="37.7972580" lon="-3.8470680">
        <ele>532.2</ele>
        <time>2021-12-27T14:04:58Z</time>
      </trkpt>
      <trkpt lat="37.7972320" lon="-3.8470900">
        <ele>532.2</ele>
        <time>2021-12-27T14:04:59Z</time>
      </trkpt>
      <trkpt lat="37.7972100" lon="-3.8471130">
        <ele>532.2</ele>
        <time>2021-12-27T14:05:00Z</time>
      </trkpt>
      <trkpt lat="37.7971900" lon="-3.8471350">
        <ele>532.2</ele>
        <time>2021-12-27T14:05:01Z</time>
      </trkpt>
      <trkpt lat="37.7971650" lon="-3.8471560">
        <ele>532.2</ele>
        <time>2021-12-27T14:05:02Z</time>
      </trkpt>
      <trkpt lat="37.7971460" lon="-3.8471780">
        <ele>532.2</ele>
        <time>2021-12-27T14:05:03Z</time>
      </trkpt>
      <trkpt lat="37.7971260" lon="-3.8472000">
        <ele>532.2</ele>
        <time>2021-12-27T14:05:04Z</time>
      </trkpt>
      <trkpt lat="37.7971070" lon="-3.8472180">
        <ele>532.2</ele>
        <time>2021-12-27T14:05:05Z</time>
      </trkpt>
      <trkpt lat="37.7970880" lon="-3.8472350">
        <ele>532.2</ele>
        <time>2021-12-27T14:05:06Z</time>
      </trkpt>
      <trkpt lat="37.7970880" lon="-3.8472350">
        <ele>532.0</ele>
        <time>2021-12-27T14:05:07Z</time>
      </trkpt>
      <trkpt lat="37.7970620" lon="-3.8472630">
        <ele>532.0</ele>
        <time>2021-12-27T14:05:08Z</time>
      </trkpt>
      <trkpt lat="37.7970620" lon="-3.8472630">
        <ele>532.0</ele>
        <time>2021-12-27T14:05:09Z</time>
      </trkpt>
      <trkpt lat="37.7970370" lon="-3.8472880">
        <ele>532.0</ele>
        <time>2021-12-27T14:05:10Z</time>
      </trkpt>
      <trkpt lat="37.7970370" lon="-3.8472880">
        <ele>532.0</ele>
        <time>2021-12-27T14:05:11Z</time>
      </trkpt>
      <trkpt lat="37.7970110" lon="-3.8473150">
        <ele>532.0</ele>
        <time>2021-12-27T14:05:12Z</time>
      </trkpt>
      <trkpt lat="37.7970110" lon="-3.8473150">
        <ele>532.0</ele>
        <time>2021-12-27T14:05:13Z</time>
      </trkpt>
      <trkpt lat="37.7969860" lon="-3.8473440">
        <ele>532.0</ele>
        <time>2021-12-27T14:05:14Z</time>
      </trkpt>
      <trkpt lat="37.7969730" lon="-3.8473600">
        <ele>532.0</ele>
        <time>2021-12-27T14:05:15Z</time>
      </trkpt>
      <trkpt lat="37.7969600" lon="-3.8473760">
        <ele>532.0</ele>
        <time>2021-12-27T14:05:16Z</time>
      </trkpt>
      <trkpt lat="37.7969440" lon="-3.8473950">
        <ele>532.0</ele>
        <time>2021-12-27T14:05:17Z</time>
      </trkpt>
      <trkpt lat="37.7969280" lon="-3.8474130">
        <ele>532.0</ele>
        <time>2021-12-27T14:05:18Z</time>
      </trkpt>
      <trkpt lat="37.7969090" lon="-3.8474320">
        <ele>532.0</ele>
        <time>2021-12-27T14:05:19Z</time>
      </trkpt>
      <trkpt lat="37.7968930" lon="-3.8474500">
        <ele>532.0</ele>
        <time>2021-12-27T14:05:20Z</time>
      </trkpt>
      <trkpt lat="37.7968740" lon="-3.8474680">
        <ele>532.0</ele>
        <time>2021-12-27T14:05:21Z</time>
      </trkpt>
      <trkpt lat="37.7968610" lon="-3.8474850">
        <ele>532.0</ele>
        <time>2021-12-27T14:05:22Z</time>
      </trkpt>
      <trkpt lat="37.7968480" lon="-3.8475030">
        <ele>532.0</ele>
        <time>2021-12-27T14:05:23Z</time>
      </trkpt>
      <trkpt lat="37.7968290" lon="-3.8475220">
        <ele>532.2</ele>
        <time>2021-12-27T14:05:24Z</time>
      </trkpt>
      <trkpt lat="37.7968130" lon="-3.8475420">
        <ele>532.2</ele>
        <time>2021-12-27T14:05:25Z</time>
      </trkpt>
      <trkpt lat="37.7968030" lon="-3.8475620">
        <ele>532.2</ele>
        <time>2021-12-27T14:05:26Z</time>
      </trkpt>
      <trkpt lat="37.7967840" lon="-3.8475820">
        <ele>532.2</ele>
        <time>2021-12-27T14:05:27Z</time>
      </trkpt>
      <trkpt lat="37.7967680" lon="-3.8475980">
        <ele>532.2</ele>
        <time>2021-12-27T14:05:28Z</time>
      </trkpt>
      <trkpt lat="37.7967550" lon="-3.8476180">
        <ele>532.2</ele>
        <time>2021-12-27T14:05:29Z</time>
      </trkpt>
      <trkpt lat="37.7967420" lon="-3.8476380">
        <ele>532.0</ele>
        <time>2021-12-27T14:05:30Z</time>
      </trkpt>
      <trkpt lat="37.7967300" lon="-3.8476600">
        <ele>532.0</ele>
        <time>2021-12-27T14:05:31Z</time>
      </trkpt>
      <trkpt lat="37.7967140" lon="-3.8476780">
        <ele>532.0</ele>
        <time>2021-12-27T14:05:32Z</time>
      </trkpt>
      <trkpt lat="37.7967010" lon="-3.8476980">
        <ele>532.0</ele>
        <time>2021-12-27T14:05:33Z</time>
      </trkpt>
      <trkpt lat="37.7966850" lon="-3.8477170">
        <ele>532.0</ele>
        <time>2021-12-27T14:05:34Z</time>
      </trkpt>
      <trkpt lat="37.7966660" lon="-3.8477380">
        <ele>532.0</ele>
        <time>2021-12-27T14:05:35Z</time>
      </trkpt>
      <trkpt lat="37.7966500" lon="-3.8477600">
        <ele>532.0</ele>
        <time>2021-12-27T14:05:36Z</time>
      </trkpt>
      <trkpt lat="37.7966340" lon="-3.8477820">
        <ele>532.0</ele>
        <time>2021-12-27T14:05:37Z</time>
      </trkpt>
      <trkpt lat="37.7966240" lon="-3.8478050">
        <ele>532.0</ele>
        <time>2021-12-27T14:05:38Z</time>
      </trkpt>
      <trkpt lat="37.7966080" lon="-3.8478280">
        <ele>532.0</ele>
        <time>2021-12-27T14:05:39Z</time>
      </trkpt>
      <trkpt lat="37.7965920" lon="-3.8478500">
        <ele>531.8</ele>
        <time>2021-12-27T14:05:40Z</time>
      </trkpt>
      <trkpt lat="37.7965760" lon="-3.8478720">
        <ele>531.8</ele>
        <time>2021-12-27T14:05:41Z</time>
      </trkpt>
      <trkpt lat="37.7965660" lon="-3.8478920">
        <ele>531.8</ele>
        <time>2021-12-27T14:05:42Z</time>
      </trkpt>
      <trkpt lat="37.7965470" lon="-3.8479100">
        <ele>531.8</ele>
        <time>2021-12-27T14:05:43Z</time>
      </trkpt>
      <trkpt lat="37.7965310" lon="-3.8479300">
        <ele>531.8</ele>
        <time>2021-12-27T14:05:44Z</time>
      </trkpt>
      <trkpt lat="37.7965150" lon="-3.8479520">
        <ele>532.0</ele>
        <time>2021-12-27T14:05:45Z</time>
      </trkpt>
      <trkpt lat="37.7965060" lon="-3.8479730">
        <ele>532.0</ele>
        <time>2021-12-27T14:05:46Z</time>
      </trkpt>
      <trkpt lat="37.7964930" lon="-3.8479950">
        <ele>532.0</ele>
        <time>2021-12-27T14:05:47Z</time>
      </trkpt>
      <trkpt lat="37.7964830" lon="-3.8480180">
        <ele>532.2</ele>
        <time>2021-12-27T14:05:48Z</time>
      </trkpt>
      <trkpt lat="37.7964700" lon="-3.8480400">
        <ele>532.2</ele>
        <time>2021-12-27T14:05:49Z</time>
      </trkpt>
      <trkpt lat="37.7964580" lon="-3.8480620">
        <ele>532.2</ele>
        <time>2021-12-27T14:05:50Z</time>
      </trkpt>
      <trkpt lat="37.7964450" lon="-3.8480850">
        <ele>532.2</ele>
        <time>2021-12-27T14:05:51Z</time>
      </trkpt>
      <trkpt lat="37.7964320" lon="-3.8481050">
        <ele>532.2</ele>
        <time>2021-12-27T14:05:52Z</time>
      </trkpt>
      <trkpt lat="37.7964160" lon="-3.8481250">
        <ele>532.2</ele>
        <time>2021-12-27T14:05:53Z</time>
      </trkpt>
      <trkpt lat="37.7964060" lon="-3.8481470">
        <ele>532.2</ele>
        <time>2021-12-27T14:05:54Z</time>
      </trkpt>
      <trkpt lat="37.7963940" lon="-3.8481670">
        <ele>532.2</ele>
        <time>2021-12-27T14:05:55Z</time>
      </trkpt>
      <trkpt lat="37.7963840" lon="-3.8481880">
        <ele>532.2</ele>
        <time>2021-12-27T14:05:56Z</time>
      </trkpt>
      <trkpt lat="37.7963710" lon="-3.8482100">
        <ele>532.2</ele>
        <time>2021-12-27T14:05:57Z</time>
      </trkpt>
      <trkpt lat="37.7963550" lon="-3.8482320">
        <ele>532.2</ele>
        <time>2021-12-27T14:05:58Z</time>
      </trkpt>
      <trkpt lat="37.7963420" lon="-3.8482530">
        <ele>532.2</ele>
        <time>2021-12-27T14:05:59Z</time>
      </trkpt>
      <trkpt lat="37.7963260" lon="-3.8482750">
        <ele>532.2</ele>
        <time>2021-12-27T14:06:00Z</time>
      </trkpt>
      <trkpt lat="37.7963170" lon="-3.8482980">
        <ele>532.4</ele>
        <time>2021-12-27T14:06:01Z</time>
      </trkpt>
      <trkpt lat="37.7963070" lon="-3.8483220">
        <ele>532.4</ele>
        <time>2021-12-27T14:06:02Z</time>
      </trkpt>
      <trkpt lat="37.7962940" lon="-3.8483470">
        <ele>532.4</ele>
        <time>2021-12-27T14:06:03Z</time>
      </trkpt>
      <trkpt lat="37.7962850" lon="-3.8483740">
        <ele>532.4</ele>
        <time>2021-12-27T14:06:04Z</time>
      </trkpt>
      <trkpt lat="37.7962720" lon="-3.8483980">
        <ele>532.6</ele>
        <time>2021-12-27T14:06:05Z</time>
      </trkpt>
      <trkpt lat="37.7962620" lon="-3.8484220">
        <ele>532.6</ele>
        <time>2021-12-27T14:06:06Z</time>
      </trkpt>
      <trkpt lat="37.7962500" lon="-3.8484450">
        <ele>532.6</ele>
        <time>2021-12-27T14:06:07Z</time>
      </trkpt>
      <trkpt lat="37.7962370" lon="-3.8484700">
        <ele>532.6</ele>
        <time>2021-12-27T14:06:08Z</time>
      </trkpt>
      <trkpt lat="37.7962270" lon="-3.8484950">
        <ele>532.6</ele>
        <time>2021-12-27T14:06:09Z</time>
      </trkpt>
      <trkpt lat="37.7962180" lon="-3.8485170">
        <ele>532.8</ele>
        <time>2021-12-27T14:06:10Z</time>
      </trkpt>
      <trkpt lat="37.7962080" lon="-3.8485370">
        <ele>532.8</ele>
        <time>2021-12-27T14:06:11Z</time>
      </trkpt>
      <trkpt lat="37.7961980" lon="-3.8485600">
        <ele>532.8</ele>
        <time>2021-12-27T14:06:12Z</time>
      </trkpt>
      <trkpt lat="37.7961890" lon="-3.8485850">
        <ele>532.8</ele>
        <time>2021-12-27T14:06:13Z</time>
      </trkpt>
      <trkpt lat="37.7961760" lon="-3.8486080">
        <ele>532.8</ele>
        <time>2021-12-27T14:06:14Z</time>
      </trkpt>
      <trkpt lat="37.7961700" lon="-3.8486320">
        <ele>532.8</ele>
        <time>2021-12-27T14:06:15Z</time>
      </trkpt>
      <trkpt lat="37.7961570" lon="-3.8486570">
        <ele>532.8</ele>
        <time>2021-12-27T14:06:16Z</time>
      </trkpt>
      <trkpt lat="37.7961500" lon="-3.8486800">
        <ele>532.8</ele>
        <time>2021-12-27T14:06:17Z</time>
      </trkpt>
      <trkpt lat="37.7961380" lon="-3.8487050">
        <ele>532.8</ele>
        <time>2021-12-27T14:06:18Z</time>
      </trkpt>
      <trkpt lat="37.7961250" lon="-3.8487280">
        <ele>533.0</ele>
        <time>2021-12-27T14:06:19Z</time>
      </trkpt>
      <trkpt lat="37.7961150" lon="-3.8487540">
        <ele>533.0</ele>
        <time>2021-12-27T14:06:20Z</time>
      </trkpt>
      <trkpt lat="37.7961060" lon="-3.8487760">
        <ele>533.0</ele>
        <time>2021-12-27T14:06:21Z</time>
      </trkpt>
      <trkpt lat="37.7960860" lon="-3.8488030">
        <ele>533.0</ele>
        <time>2021-12-27T14:06:22Z</time>
      </trkpt>
      <trkpt lat="37.7960860" lon="-3.8488030">
        <ele>533.0</ele>
        <time>2021-12-27T14:06:23Z</time>
      </trkpt>
      <trkpt lat="37.7960670" lon="-3.8488430">
        <ele>533.0</ele>
        <time>2021-12-27T14:06:24Z</time>
      </trkpt>
      <trkpt lat="37.7960540" lon="-3.8488680">
        <ele>533.0</ele>
        <time>2021-12-27T14:06:25Z</time>
      </trkpt>
      <trkpt lat="37.7960450" lon="-3.8488940">
        <ele>533.0</ele>
        <time>2021-12-27T14:06:26Z</time>
      </trkpt>
      <trkpt lat="37.7960350" lon="-3.8489160">
        <ele>533.0</ele>
        <time>2021-12-27T14:06:27Z</time>
      </trkpt>
      <trkpt lat="37.7960290" lon="-3.8489400">
        <ele>533.0</ele>
        <time>2021-12-27T14:06:28Z</time>
      </trkpt>
      <trkpt lat="37.7960160" lon="-3.8489630">
        <ele>533.0</ele>
        <time>2021-12-27T14:06:29Z</time>
      </trkpt>
      <trkpt lat="37.7960060" lon="-3.8489870">
        <ele>533.0</ele>
        <time>2021-12-27T14:06:30Z</time>
      </trkpt>
      <trkpt lat="37.7959940" lon="-3.8490080">
        <ele>533.0</ele>
        <time>2021-12-27T14:06:31Z</time>
      </trkpt>
      <trkpt lat="37.7959940" lon="-3.8490080">
        <ele>533.2</ele>
        <time>2021-12-27T14:06:32Z</time>
      </trkpt>
      <trkpt lat="37.7959740" lon="-3.8490480">
        <ele>533.2</ele>
        <time>2021-12-27T14:06:33Z</time>
      </trkpt>
      <trkpt lat="37.7959650" lon="-3.8490680">
        <ele>533.2</ele>
        <time>2021-12-27T14:06:34Z</time>
      </trkpt>
      <trkpt lat="37.7959650" lon="-3.8490680">
        <ele>533.2</ele>
        <time>2021-12-27T14:06:35Z</time>
      </trkpt>
      <trkpt lat="37.7959460" lon="-3.8491070">
        <ele>533.2</ele>
        <time>2021-12-27T14:06:36Z</time>
      </trkpt>
      <trkpt lat="37.7959460" lon="-3.8491070">
        <ele>533.2</ele>
        <time>2021-12-27T14:06:37Z</time>
      </trkpt>
      <trkpt lat="37.7959260" lon="-3.8491430">
        <ele>533.2</ele>
        <time>2021-12-27T14:06:38Z</time>
      </trkpt>
      <trkpt lat="37.7959170" lon="-3.8491650">
        <ele>533.2</ele>
        <time>2021-12-27T14:06:39Z</time>
      </trkpt>
      <trkpt lat="37.7959100" lon="-3.8491870">
        <ele>533.4</ele>
        <time>2021-12-27T14:06:40Z</time>
      </trkpt>
      <trkpt lat="37.7958980" lon="-3.8492080">
        <ele>533.4</ele>
        <time>2021-12-27T14:06:41Z</time>
      </trkpt>
      <trkpt lat="37.7958910" lon="-3.8492320">
        <ele>533.6</ele>
        <time>2021-12-27T14:06:42Z</time>
      </trkpt>
      <trkpt lat="37.7958820" lon="-3.8492550">
        <ele>533.6</ele>
        <time>2021-12-27T14:06:43Z</time>
      </trkpt>
      <trkpt lat="37.7958720" lon="-3.8492760">
        <ele>533.6</ele>
        <time>2021-12-27T14:06:44Z</time>
      </trkpt>
      <trkpt lat="37.7958660" lon="-3.8493000">
        <ele>533.8</ele>
        <time>2021-12-27T14:06:45Z</time>
      </trkpt>
      <trkpt lat="37.7958560" lon="-3.8493200">
        <ele>533.8</ele>
        <time>2021-12-27T14:06:46Z</time>
      </trkpt>
      <trkpt lat="37.7958460" lon="-3.8493400">
        <ele>533.8</ele>
        <time>2021-12-27T14:06:47Z</time>
      </trkpt>
      <trkpt lat="37.7958340" lon="-3.8493620">
        <ele>533.8</ele>
        <time>2021-12-27T14:06:48Z</time>
      </trkpt>
      <trkpt lat="37.7958210" lon="-3.8493830">
        <ele>533.8</ele>
        <time>2021-12-27T14:06:49Z</time>
      </trkpt>
      <trkpt lat="37.7958140" lon="-3.8494050">
        <ele>533.8</ele>
        <time>2021-12-27T14:06:50Z</time>
      </trkpt>
      <trkpt lat="37.7958020" lon="-3.8494270">
        <ele>534.0</ele>
        <time>2021-12-27T14:06:51Z</time>
      </trkpt>
      <trkpt lat="37.7957920" lon="-3.8494470">
        <ele>534.0</ele>
        <time>2021-12-27T14:06:52Z</time>
      </trkpt>
      <trkpt lat="37.7957820" lon="-3.8494680">
        <ele>534.0</ele>
        <time>2021-12-27T14:06:53Z</time>
      </trkpt>
      <trkpt lat="37.7957730" lon="-3.8494900">
        <ele>534.0</ele>
        <time>2021-12-27T14:06:54Z</time>
      </trkpt>
      <trkpt lat="37.7957660" lon="-3.8495130">
        <ele>534.0</ele>
        <time>2021-12-27T14:06:55Z</time>
      </trkpt>
      <trkpt lat="37.7957540" lon="-3.8495370">
        <ele>534.2</ele>
        <time>2021-12-27T14:06:56Z</time>
      </trkpt>
      <trkpt lat="37.7957470" lon="-3.8495630">
        <ele>534.2</ele>
        <time>2021-12-27T14:06:57Z</time>
      </trkpt>
      <trkpt lat="37.7957380" lon="-3.8495870">
        <ele>534.2</ele>
        <time>2021-12-27T14:06:58Z</time>
      </trkpt>
      <trkpt lat="37.7957280" lon="-3.8496100">
        <ele>534.2</ele>
        <time>2021-12-27T14:06:59Z</time>
      </trkpt>
      <trkpt lat="37.7957120" lon="-3.8496330">
        <ele>534.2</ele>
        <time>2021-12-27T14:07:00Z</time>
      </trkpt>
      <trkpt lat="37.7956990" lon="-3.8496550">
        <ele>534.2</ele>
        <time>2021-12-27T14:07:01Z</time>
      </trkpt>
      <trkpt lat="37.7956900" lon="-3.8496780">
        <ele>534.2</ele>
        <time>2021-12-27T14:07:02Z</time>
      </trkpt>
      <trkpt lat="37.7956740" lon="-3.8497030">
        <ele>534.4</ele>
        <time>2021-12-27T14:07:03Z</time>
      </trkpt>
      <trkpt lat="37.7956580" lon="-3.8497370">
        <ele>534.4</ele>
        <time>2021-12-27T14:07:04Z</time>
      </trkpt>
      <trkpt lat="37.7956480" lon="-3.8497600">
        <ele>534.4</ele>
        <time>2021-12-27T14:07:05Z</time>
      </trkpt>
      <trkpt lat="37.7956350" lon="-3.8497870">
        <ele>534.4</ele>
        <time>2021-12-27T14:07:06Z</time>
      </trkpt>
      <trkpt lat="37.7956190" lon="-3.8498140">
        <ele>534.4</ele>
        <time>2021-12-27T14:07:07Z</time>
      </trkpt>
      <trkpt lat="37.7956100" lon="-3.8498380">
        <ele>534.6</ele>
        <time>2021-12-27T14:07:08Z</time>
      </trkpt>
      <trkpt lat="37.7955970" lon="-3.8498650">
        <ele>534.6</ele>
        <time>2021-12-27T14:07:09Z</time>
      </trkpt>
      <trkpt lat="37.7955900" lon="-3.8498900">
        <ele>534.6</ele>
        <time>2021-12-27T14:07:10Z</time>
      </trkpt>
      <trkpt lat="37.7955780" lon="-3.8499120">
        <ele>534.8</ele>
        <time>2021-12-27T14:07:11Z</time>
      </trkpt>
      <trkpt lat="37.7955680" lon="-3.8499350">
        <ele>534.8</ele>
        <time>2021-12-27T14:07:12Z</time>
      </trkpt>
      <trkpt lat="37.7955550" lon="-3.8499580">
        <ele>534.8</ele>
        <time>2021-12-27T14:07:13Z</time>
      </trkpt>
      <trkpt lat="37.7955420" lon="-3.8499830">
        <ele>534.8</ele>
        <time>2021-12-27T14:07:14Z</time>
      </trkpt>
      <trkpt lat="37.7955360" lon="-3.8500080">
        <ele>534.8</ele>
        <time>2021-12-27T14:07:15Z</time>
      </trkpt>
      <trkpt lat="37.7955230" lon="-3.8500300">
        <ele>535.0</ele>
        <time>2021-12-27T14:07:16Z</time>
      </trkpt>
      <trkpt lat="37.7955140" lon="-3.8500530">
        <ele>535.0</ele>
        <time>2021-12-27T14:07:17Z</time>
      </trkpt>
      <trkpt lat="37.7955010" lon="-3.8500780">
        <ele>535.0</ele>
        <time>2021-12-27T14:07:18Z</time>
      </trkpt>
      <trkpt lat="37.7954910" lon="-3.8501030">
        <ele>535.0</ele>
        <time>2021-12-27T14:07:19Z</time>
      </trkpt>
      <trkpt lat="37.7954780" lon="-3.8501280">
        <ele>535.0</ele>
        <time>2021-12-27T14:07:20Z</time>
      </trkpt>
      <trkpt lat="37.7954690" lon="-3.8501520">
        <ele>535.2</ele>
        <time>2021-12-27T14:07:21Z</time>
      </trkpt>
      <trkpt lat="37.7954530" lon="-3.8501770">
        <ele>535.2</ele>
        <time>2021-12-27T14:07:22Z</time>
      </trkpt>
      <trkpt lat="37.7954400" lon="-3.8501980">
        <ele>535.2</ele>
        <time>2021-12-27T14:07:23Z</time>
      </trkpt>
      <trkpt lat="37.7954340" lon="-3.8502230">
        <ele>535.4</ele>
        <time>2021-12-27T14:07:24Z</time>
      </trkpt>
      <trkpt lat="37.7954210" lon="-3.8502470">
        <ele>535.4</ele>
        <time>2021-12-27T14:07:25Z</time>
      </trkpt>
      <trkpt lat="37.7954110" lon="-3.8502670">
        <ele>535.6</ele>
        <time>2021-12-27T14:07:26Z</time>
      </trkpt>
      <trkpt lat="37.7953980" lon="-3.8502830">
        <ele>535.6</ele>
        <time>2021-12-27T14:07:27Z</time>
      </trkpt>
      <trkpt lat="37.7953980" lon="-3.8502830">
        <ele>535.6</ele>
        <time>2021-12-27T14:07:28Z</time>
      </trkpt>
      <trkpt lat="37.7953820" lon="-3.8503180">
        <ele>535.6</ele>
        <time>2021-12-27T14:07:29Z</time>
      </trkpt>
      <trkpt lat="37.7953820" lon="-3.8503180">
        <ele>535.8</ele>
        <time>2021-12-27T14:07:30Z</time>
      </trkpt>
      <trkpt lat="37.7953700" lon="-3.8503550">
        <ele>535.8</ele>
        <time>2021-12-27T14:07:31Z</time>
      </trkpt>
      <trkpt lat="37.7953600" lon="-3.8503770">
        <ele>535.8</ele>
        <time>2021-12-27T14:07:32Z</time>
      </trkpt>
      <trkpt lat="37.7953500" lon="-3.8503980">
        <ele>535.8</ele>
        <time>2021-12-27T14:07:33Z</time>
      </trkpt>
      <trkpt lat="37.7953410" lon="-3.8504200">
        <ele>535.8</ele>
        <time>2021-12-27T14:07:34Z</time>
      </trkpt>
      <trkpt lat="37.7953310" lon="-3.8504420">
        <ele>536.0</ele>
        <time>2021-12-27T14:07:35Z</time>
      </trkpt>
      <trkpt lat="37.7953180" lon="-3.8504650">
        <ele>536.0</ele>
        <time>2021-12-27T14:07:36Z</time>
      </trkpt>
      <trkpt lat="37.7953060" lon="-3.8504880">
        <ele>536.0</ele>
        <time>2021-12-27T14:07:37Z</time>
      </trkpt>
      <trkpt lat="37.7952960" lon="-3.8505120">
        <ele>536.0</ele>
        <time>2021-12-27T14:07:38Z</time>
      </trkpt>
      <trkpt lat="37.7952830" lon="-3.8505360">
        <ele>536.0</ele>
        <time>2021-12-27T14:07:39Z</time>
      </trkpt>
      <trkpt lat="37.7952740" lon="-3.8505620">
        <ele>535.8</ele>
        <time>2021-12-27T14:07:40Z</time>
      </trkpt>
      <trkpt lat="37.7952640" lon="-3.8505870">
        <ele>535.8</ele>
        <time>2021-12-27T14:07:41Z</time>
      </trkpt>
      <trkpt lat="37.7952510" lon="-3.8506100">
        <ele>535.8</ele>
        <time>2021-12-27T14:07:42Z</time>
      </trkpt>
      <trkpt lat="37.7952420" lon="-3.8506320">
        <ele>535.8</ele>
        <time>2021-12-27T14:07:43Z</time>
      </trkpt>
      <trkpt lat="37.7952320" lon="-3.8506550">
        <ele>535.8</ele>
        <time>2021-12-27T14:07:44Z</time>
      </trkpt>
      <trkpt lat="37.7952190" lon="-3.8506800">
        <ele>535.8</ele>
        <time>2021-12-27T14:07:45Z</time>
      </trkpt>
      <trkpt lat="37.7952060" lon="-3.8507050">
        <ele>535.8</ele>
        <time>2021-12-27T14:07:46Z</time>
      </trkpt>
      <trkpt lat="37.7951970" lon="-3.8507280">
        <ele>535.8</ele>
        <time>2021-12-27T14:07:47Z</time>
      </trkpt>
      <trkpt lat="37.7951840" lon="-3.8507520">
        <ele>535.8</ele>
        <time>2021-12-27T14:07:48Z</time>
      </trkpt>
      <trkpt lat="37.7951740" lon="-3.8507770">
        <ele>535.8</ele>
        <time>2021-12-27T14:07:49Z</time>
      </trkpt>
      <trkpt lat="37.7951740" lon="-3.8507770">
        <ele>535.8</ele>
        <time>2021-12-27T14:07:50Z</time>
      </trkpt>
      <trkpt lat="37.7951550" lon="-3.8508120">
        <ele>535.8</ele>
        <time>2021-12-27T14:07:51Z</time>
      </trkpt>
      <trkpt lat="37.7951420" lon="-3.8508340">
        <ele>535.6</ele>
        <time>2021-12-27T14:07:52Z</time>
      </trkpt>
      <trkpt lat="37.7951330" lon="-3.8508600">
        <ele>535.6</ele>
        <time>2021-12-27T14:07:53Z</time>
      </trkpt>
      <trkpt lat="37.7951330" lon="-3.8508600">
        <ele>535.6</ele>
        <time>2021-12-27T14:07:54Z</time>
      </trkpt>
      <trkpt lat="37.7951140" lon="-3.8509000">
        <ele>535.6</ele>
        <time>2021-12-27T14:07:55Z</time>
      </trkpt>
      <trkpt lat="37.7951040" lon="-3.8509250">
        <ele>535.6</ele>
        <time>2021-12-27T14:07:56Z</time>
      </trkpt>
      <trkpt lat="37.7950980" lon="-3.8509500">
        <ele>535.6</ele>
        <time>2021-12-27T14:07:57Z</time>
      </trkpt>
      <trkpt lat="37.7950850" lon="-3.8509750">
        <ele>535.6</ele>
        <time>2021-12-27T14:07:58Z</time>
      </trkpt>
      <trkpt lat="37.7950750" lon="-3.8509980">
        <ele>535.6</ele>
        <time>2021-12-27T14:07:59Z</time>
      </trkpt>
      <trkpt lat="37.7950620" lon="-3.8510220">
        <ele>535.6</ele>
        <time>2021-12-27T14:08:00Z</time>
      </trkpt>
      <trkpt lat="37.7950530" lon="-3.8510430">
        <ele>535.6</ele>
        <time>2021-12-27T14:08:01Z</time>
      </trkpt>
      <trkpt lat="37.7950400" lon="-3.8510660">
        <ele>535.8</ele>
        <time>2021-12-27T14:08:02Z</time>
      </trkpt>
      <trkpt lat="37.7950240" lon="-3.8510900">
        <ele>535.8</ele>
        <time>2021-12-27T14:08:03Z</time>
      </trkpt>
      <trkpt lat="37.7950140" lon="-3.8511150">
        <ele>536.0</ele>
        <time>2021-12-27T14:08:04Z</time>
      </trkpt>
      <trkpt lat="37.7950020" lon="-3.8511400">
        <ele>536.0</ele>
        <time>2021-12-27T14:08:05Z</time>
      </trkpt>
      <trkpt lat="37.7949920" lon="-3.8511670">
        <ele>536.2</ele>
        <time>2021-12-27T14:08:06Z</time>
      </trkpt>
      <trkpt lat="37.7949820" lon="-3.8511870">
        <ele>536.2</ele>
        <time>2021-12-27T14:08:07Z</time>
      </trkpt>
      <trkpt lat="37.7949730" lon="-3.8512080">
        <ele>536.2</ele>
        <time>2021-12-27T14:08:08Z</time>
      </trkpt>
      <trkpt lat="37.7949600" lon="-3.8512320">
        <ele>536.2</ele>
        <time>2021-12-27T14:08:09Z</time>
      </trkpt>
      <trkpt lat="37.7949470" lon="-3.8512570">
        <ele>536.2</ele>
        <time>2021-12-27T14:08:10Z</time>
      </trkpt>
      <trkpt lat="37.7949380" lon="-3.8512800">
        <ele>536.2</ele>
        <time>2021-12-27T14:08:11Z</time>
      </trkpt>
      <trkpt lat="37.7949250" lon="-3.8513100">
        <ele>536.2</ele>
        <time>2021-12-27T14:08:12Z</time>
      </trkpt>
      <trkpt lat="37.7949250" lon="-3.8513100">
        <ele>536.2</ele>
        <time>2021-12-27T14:08:13Z</time>
      </trkpt>
      <trkpt lat="37.7949060" lon="-3.8513550">
        <ele>536.4</ele>
        <time>2021-12-27T14:08:14Z</time>
      </trkpt>
      <trkpt lat="37.7948960" lon="-3.8513780">
        <ele>536.4</ele>
        <time>2021-12-27T14:08:15Z</time>
      </trkpt>
      <trkpt lat="37.7948800" lon="-3.8514050">
        <ele>536.4</ele>
        <time>2021-12-27T14:08:16Z</time>
      </trkpt>
      <trkpt lat="37.7948670" lon="-3.8514320">
        <ele>536.4</ele>
        <time>2021-12-27T14:08:17Z</time>
      </trkpt>
      <trkpt lat="37.7948610" lon="-3.8514570">
        <ele>536.4</ele>
        <time>2021-12-27T14:08:18Z</time>
      </trkpt>
      <trkpt lat="37.7948480" lon="-3.8514820">
        <ele>536.4</ele>
        <time>2021-12-27T14:08:19Z</time>
      </trkpt>
      <trkpt lat="37.7948380" lon="-3.8515050">
        <ele>536.2</ele>
        <time>2021-12-27T14:08:20Z</time>
      </trkpt>
      <trkpt lat="37.7948260" lon="-3.8515270">
        <ele>536.2</ele>
        <time>2021-12-27T14:08:21Z</time>
      </trkpt>
      <trkpt lat="37.7948160" lon="-3.8515480">
        <ele>536.2</ele>
        <time>2021-12-27T14:08:22Z</time>
      </trkpt>
      <trkpt lat="37.7948030" lon="-3.8515720">
        <ele>536.4</ele>
        <time>2021-12-27T14:08:23Z</time>
      </trkpt>
      <trkpt lat="37.7947940" lon="-3.8515950">
        <ele>536.4</ele>
        <time>2021-12-27T14:08:24Z</time>
      </trkpt>
      <trkpt lat="37.7947840" lon="-3.8516200">
        <ele>536.4</ele>
        <time>2021-12-27T14:08:25Z</time>
      </trkpt>
      <trkpt lat="37.7947780" lon="-3.8516420">
        <ele>536.4</ele>
        <time>2021-12-27T14:08:26Z</time>
      </trkpt>
      <trkpt lat="37.7947650" lon="-3.8516650">
        <ele>536.4</ele>
        <time>2021-12-27T14:08:27Z</time>
      </trkpt>
      <trkpt lat="37.7947550" lon="-3.8516880">
        <ele>536.4</ele>
        <time>2021-12-27T14:08:28Z</time>
      </trkpt>
      <trkpt lat="37.7947420" lon="-3.8517120">
        <ele>536.4</ele>
        <time>2021-12-27T14:08:29Z</time>
      </trkpt>
      <trkpt lat="37.7947260" lon="-3.8517330">
        <ele>536.4</ele>
        <time>2021-12-27T14:08:30Z</time>
      </trkpt>
      <trkpt lat="37.7947200" lon="-3.8517550">
        <ele>536.4</ele>
        <time>2021-12-27T14:08:31Z</time>
      </trkpt>
      <trkpt lat="37.7947040" lon="-3.8517780">
        <ele>536.4</ele>
        <time>2021-12-27T14:08:32Z</time>
      </trkpt>
      <trkpt lat="37.7946940" lon="-3.8518020">
        <ele>536.2</ele>
        <time>2021-12-27T14:08:33Z</time>
      </trkpt>
      <trkpt lat="37.7946820" lon="-3.8518250">
        <ele>536.2</ele>
        <time>2021-12-27T14:08:34Z</time>
      </trkpt>
      <trkpt lat="37.7946690" lon="-3.8518530">
        <ele>536.2</ele>
        <time>2021-12-27T14:08:35Z</time>
      </trkpt>
      <trkpt lat="37.7946580" lon="-3.8518740">
        <ele>536.2</ele>
        <time>2021-12-27T14:08:36Z</time>
      </trkpt>
      <trkpt lat="37.7946460" lon="-3.8518950">
        <ele>536.2</ele>
        <time>2021-12-27T14:08:37Z</time>
      </trkpt>
      <trkpt lat="37.7946400" lon="-3.8519180">
        <ele>536.4</ele>
        <time>2021-12-27T14:08:38Z</time>
      </trkpt>
      <trkpt lat="37.7946270" lon="-3.8519420">
        <ele>536.4</ele>
        <time>2021-12-27T14:08:39Z</time>
      </trkpt>
      <trkpt lat="37.7946180" lon="-3.8519630">
        <ele>536.4</ele>
        <time>2021-12-27T14:08:40Z</time>
      </trkpt>
      <trkpt lat="37.7946050" lon="-3.8519870">
        <ele>536.4</ele>
        <time>2021-12-27T14:08:41Z</time>
      </trkpt>
      <trkpt lat="37.7945950" lon="-3.8520120">
        <ele>536.4</ele>
        <time>2021-12-27T14:08:42Z</time>
      </trkpt>
      <trkpt lat="37.7945860" lon="-3.8520320">
        <ele>536.4</ele>
        <time>2021-12-27T14:08:43Z</time>
      </trkpt>
      <trkpt lat="37.7945860" lon="-3.8520320">
        <ele>536.6</ele>
        <time>2021-12-27T14:08:44Z</time>
      </trkpt>
      <trkpt lat="37.7945760" lon="-3.8520650">
        <ele>536.6</ele>
        <time>2021-12-27T14:08:45Z</time>
      </trkpt>
      <trkpt lat="37.7945760" lon="-3.8520650">
        <ele>536.6</ele>
        <time>2021-12-27T14:08:46Z</time>
      </trkpt>
      <trkpt lat="37.7945600" lon="-3.8520980">
        <ele>536.6</ele>
        <time>2021-12-27T14:08:47Z</time>
      </trkpt>
      <trkpt lat="37.7945600" lon="-3.8520980">
        <ele>536.6</ele>
        <time>2021-12-27T14:08:48Z</time>
      </trkpt>
      <trkpt lat="37.7945440" lon="-3.8521330">
        <ele>536.8</ele>
        <time>2021-12-27T14:08:49Z</time>
      </trkpt>
      <trkpt lat="37.7945440" lon="-3.8521330">
        <ele>536.8</ele>
        <time>2021-12-27T14:08:50Z</time>
      </trkpt>
      <trkpt lat="37.7945250" lon="-3.8521700">
        <ele>536.8</ele>
        <time>2021-12-27T14:08:51Z</time>
      </trkpt>
      <trkpt lat="37.7945250" lon="-3.8521700">
        <ele>536.8</ele>
        <time>2021-12-27T14:08:52Z</time>
      </trkpt>
      <trkpt lat="37.7945090" lon="-3.8522080">
        <ele>536.8</ele>
        <time>2021-12-27T14:08:53Z</time>
      </trkpt>
      <trkpt lat="37.7945020" lon="-3.8522300">
        <ele>536.8</ele>
        <time>2021-12-27T14:08:54Z</time>
      </trkpt>
      <trkpt lat="37.7944900" lon="-3.8522500">
        <ele>536.8</ele>
        <time>2021-12-27T14:08:55Z</time>
      </trkpt>
      <trkpt lat="37.7944830" lon="-3.8522740">
        <ele>536.8</ele>
        <time>2021-12-27T14:08:56Z</time>
      </trkpt>
      <trkpt lat="37.7944700" lon="-3.8522980">
        <ele>536.6</ele>
        <time>2021-12-27T14:08:57Z</time>
      </trkpt>
      <trkpt lat="37.7944640" lon="-3.8523220">
        <ele>536.6</ele>
        <time>2021-12-27T14:08:58Z</time>
      </trkpt>
      <trkpt lat="37.7944510" lon="-3.8523450">
        <ele>536.6</ele>
        <time>2021-12-27T14:08:59Z</time>
      </trkpt>
      <trkpt lat="37.7944380" lon="-3.8523750">
        <ele>536.8</ele>
        <time>2021-12-27T14:09:00Z</time>
      </trkpt>
      <trkpt lat="37.7944290" lon="-3.8523970">
        <ele>537.0</ele>
        <time>2021-12-27T14:09:01Z</time>
      </trkpt>
      <trkpt lat="37.7944190" lon="-3.8524260">
        <ele>537.2</ele>
        <time>2021-12-27T14:09:02Z</time>
      </trkpt>
      <trkpt lat="37.7944030" lon="-3.8524460">
        <ele>537.2</ele>
        <time>2021-12-27T14:09:03Z</time>
      </trkpt>
      <trkpt lat="37.7943970" lon="-3.8524730">
        <ele>537.2</ele>
        <time>2021-12-27T14:09:04Z</time>
      </trkpt>
      <trkpt lat="37.7943870" lon="-3.8525020">
        <ele>537.2</ele>
        <time>2021-12-27T14:09:05Z</time>
      </trkpt>
      <trkpt lat="37.7943810" lon="-3.8525280">
        <ele>537.2</ele>
        <time>2021-12-27T14:09:06Z</time>
      </trkpt>
      <trkpt lat="37.7943680" lon="-3.8525550">
        <ele>537.2</ele>
        <time>2021-12-27T14:09:07Z</time>
      </trkpt>
      <trkpt lat="37.7943620" lon="-3.8525780">
        <ele>537.2</ele>
        <time>2021-12-27T14:09:08Z</time>
      </trkpt>
      <trkpt lat="37.7943520" lon="-3.8526020">
        <ele>537.2</ele>
        <time>2021-12-27T14:09:09Z</time>
      </trkpt>
      <trkpt lat="37.7943420" lon="-3.8526240">
        <ele>537.2</ele>
        <time>2021-12-27T14:09:10Z</time>
      </trkpt>
      <trkpt lat="37.7943360" lon="-3.8526460">
        <ele>537.2</ele>
        <time>2021-12-27T14:09:11Z</time>
      </trkpt>
      <trkpt lat="37.7943260" lon="-3.8526680">
        <ele>537.2</ele>
        <time>2021-12-27T14:09:12Z</time>
      </trkpt>
      <trkpt lat="37.7943200" lon="-3.8526920">
        <ele>537.2</ele>
        <time>2021-12-27T14:09:13Z</time>
      </trkpt>
      <trkpt lat="37.7943100" lon="-3.8527220">
        <ele>537.4</ele>
        <time>2021-12-27T14:09:14Z</time>
      </trkpt>
      <trkpt lat="37.7943100" lon="-3.8527220">
        <ele>537.4</ele>
        <time>2021-12-27T14:09:15Z</time>
      </trkpt>
      <trkpt lat="37.7943010" lon="-3.8527680">
        <ele>537.4</ele>
        <time>2021-12-27T14:09:16Z</time>
      </trkpt>
      <trkpt lat="37.7942910" lon="-3.8527950">
        <ele>537.4</ele>
        <time>2021-12-27T14:09:17Z</time>
      </trkpt>
      <trkpt lat="37.7942850" lon="-3.8528200">
        <ele>537.4</ele>
        <time>2021-12-27T14:09:18Z</time>
      </trkpt>
      <trkpt lat="37.7942780" lon="-3.8528470">
        <ele>537.6</ele>
        <time>2021-12-27T14:09:19Z</time>
      </trkpt>
      <trkpt lat="37.7942720" lon="-3.8528720">
        <ele>537.6</ele>
        <time>2021-12-27T14:09:20Z</time>
      </trkpt>
      <trkpt lat="37.7942660" lon="-3.8528980">
        <ele>537.8</ele>
        <time>2021-12-27T14:09:21Z</time>
      </trkpt>
      <trkpt lat="37.7942590" lon="-3.8529250">
        <ele>537.8</ele>
        <time>2021-12-27T14:09:22Z</time>
      </trkpt>
      <trkpt lat="37.7942460" lon="-3.8529500">
        <ele>537.8</ele>
        <time>2021-12-27T14:09:23Z</time>
      </trkpt>
      <trkpt lat="37.7942400" lon="-3.8529750">
        <ele>537.8</ele>
        <time>2021-12-27T14:09:24Z</time>
      </trkpt>
      <trkpt lat="37.7942300" lon="-3.8530000">
        <ele>537.8</ele>
        <time>2021-12-27T14:09:25Z</time>
      </trkpt>
      <trkpt lat="37.7942240" lon="-3.8530230">
        <ele>538.0</ele>
        <time>2021-12-27T14:09:26Z</time>
      </trkpt>
      <trkpt lat="37.7942160" lon="-3.8530450">
        <ele>538.0</ele>
        <time>2021-12-27T14:09:27Z</time>
      </trkpt>
      <trkpt lat="37.7942080" lon="-3.8530670">
        <ele>538.0</ele>
        <time>2021-12-27T14:09:28Z</time>
      </trkpt>
      <trkpt lat="37.7941980" lon="-3.8530880">
        <ele>538.2</ele>
        <time>2021-12-27T14:09:29Z</time>
      </trkpt>
      <trkpt lat="37.7941890" lon="-3.8531120">
        <ele>538.2</ele>
        <time>2021-12-27T14:09:30Z</time>
      </trkpt>
      <trkpt lat="37.7941820" lon="-3.8531350">
        <ele>538.2</ele>
        <time>2021-12-27T14:09:31Z</time>
      </trkpt>
      <trkpt lat="37.7941820" lon="-3.8531630">
        <ele>538.2</ele>
        <time>2021-12-27T14:09:32Z</time>
      </trkpt>
      <trkpt lat="37.7941730" lon="-3.8531900">
        <ele>538.2</ele>
        <time>2021-12-27T14:09:33Z</time>
      </trkpt>
      <trkpt lat="37.7941660" lon="-3.8532170">
        <ele>538.2</ele>
        <time>2021-12-27T14:09:34Z</time>
      </trkpt>
      <trkpt lat="37.7941600" lon="-3.8532420">
        <ele>538.2</ele>
        <time>2021-12-27T14:09:35Z</time>
      </trkpt>
      <trkpt lat="37.7941540" lon="-3.8532670">
        <ele>538.4</ele>
        <time>2021-12-27T14:09:36Z</time>
      </trkpt>
      <trkpt lat="37.7941470" lon="-3.8532900">
        <ele>538.4</ele>
        <time>2021-12-27T14:09:37Z</time>
      </trkpt>
      <trkpt lat="37.7941410" lon="-3.8533180">
        <ele>538.4</ele>
        <time>2021-12-27T14:09:38Z</time>
      </trkpt>
      <trkpt lat="37.7941310" lon="-3.8533380">
        <ele>538.4</ele>
        <time>2021-12-27T14:09:39Z</time>
      </trkpt>
      <trkpt lat="37.7941310" lon="-3.8533380">
        <ele>538.4</ele>
        <time>2021-12-27T14:09:40Z</time>
      </trkpt>
      <trkpt lat="37.7941220" lon="-3.8533830">
        <ele>538.4</ele>
        <time>2021-12-27T14:09:41Z</time>
      </trkpt>
      <trkpt lat="37.7941120" lon="-3.8534070">
        <ele>538.4</ele>
        <time>2021-12-27T14:09:42Z</time>
      </trkpt>
      <trkpt lat="37.7941060" lon="-3.8534300">
        <ele>538.4</ele>
        <time>2021-12-27T14:09:43Z</time>
      </trkpt>
      <trkpt lat="37.7941020" lon="-3.8534550">
        <ele>538.6</ele>
        <time>2021-12-27T14:09:44Z</time>
      </trkpt>
      <trkpt lat="37.7940900" lon="-3.8534800">
        <ele>538.6</ele>
        <time>2021-12-27T14:09:45Z</time>
      </trkpt>
      <trkpt lat="37.7940860" lon="-3.8535080">
        <ele>538.6</ele>
        <time>2021-12-27T14:09:46Z</time>
      </trkpt>
      <trkpt lat="37.7940800" lon="-3.8535330">
        <ele>538.6</ele>
        <time>2021-12-27T14:09:47Z</time>
      </trkpt>
      <trkpt lat="37.7940740" lon="-3.8535580">
        <ele>538.8</ele>
        <time>2021-12-27T14:09:48Z</time>
      </trkpt>
      <trkpt lat="37.7940670" lon="-3.8535820">
        <ele>538.8</ele>
        <time>2021-12-27T14:09:49Z</time>
      </trkpt>
      <trkpt lat="37.7940610" lon="-3.8536070">
        <ele>538.8</ele>
        <time>2021-12-27T14:09:50Z</time>
      </trkpt>
      <trkpt lat="37.7940540" lon="-3.8536320">
        <ele>538.8</ele>
        <time>2021-12-27T14:09:51Z</time>
      </trkpt>
      <trkpt lat="37.7940480" lon="-3.8536570">
        <ele>538.8</ele>
        <time>2021-12-27T14:09:52Z</time>
      </trkpt>
      <trkpt lat="37.7940450" lon="-3.8536840">
        <ele>538.8</ele>
        <time>2021-12-27T14:09:53Z</time>
      </trkpt>
      <trkpt lat="37.7940420" lon="-3.8537120">
        <ele>538.8</ele>
        <time>2021-12-27T14:09:54Z</time>
      </trkpt>
      <trkpt lat="37.7940380" lon="-3.8537380">
        <ele>538.8</ele>
        <time>2021-12-27T14:09:55Z</time>
      </trkpt>
      <trkpt lat="37.7940290" lon="-3.8537650">
        <ele>538.8</ele>
        <time>2021-12-27T14:09:56Z</time>
      </trkpt>
      <trkpt lat="37.7940190" lon="-3.8537920">
        <ele>538.8</ele>
        <time>2021-12-27T14:09:57Z</time>
      </trkpt>
      <trkpt lat="37.7940100" lon="-3.8538180">
        <ele>538.8</ele>
        <time>2021-12-27T14:09:58Z</time>
      </trkpt>
      <trkpt lat="37.7940030" lon="-3.8538480">
        <ele>539.0</ele>
        <time>2021-12-27T14:09:59Z</time>
      </trkpt>
      <trkpt lat="37.7940000" lon="-3.8538750">
        <ele>539.0</ele>
        <time>2021-12-27T14:10:00Z</time>
      </trkpt>
      <trkpt lat="37.7940000" lon="-3.8538750">
        <ele>539.0</ele>
        <time>2021-12-27T14:10:01Z</time>
      </trkpt>
      <trkpt lat="37.7939840" lon="-3.8539220">
        <ele>539.0</ele>
        <time>2021-12-27T14:10:02Z</time>
      </trkpt>
      <trkpt lat="37.7939810" lon="-3.8539470">
        <ele>539.0</ele>
        <time>2021-12-27T14:10:03Z</time>
      </trkpt>
      <trkpt lat="37.7939710" lon="-3.8539750">
        <ele>539.0</ele>
        <time>2021-12-27T14:10:04Z</time>
      </trkpt>
      <trkpt lat="37.7939650" lon="-3.8539980">
        <ele>539.0</ele>
        <time>2021-12-27T14:10:05Z</time>
      </trkpt>
      <trkpt lat="37.7939620" lon="-3.8540240">
        <ele>539.0</ele>
        <time>2021-12-27T14:10:06Z</time>
      </trkpt>
      <trkpt lat="37.7939520" lon="-3.8540480">
        <ele>539.0</ele>
        <time>2021-12-27T14:10:07Z</time>
      </trkpt>
      <trkpt lat="37.7939460" lon="-3.8540700">
        <ele>539.0</ele>
        <time>2021-12-27T14:10:08Z</time>
      </trkpt>
      <trkpt lat="37.7939420" lon="-3.8540930">
        <ele>539.2</ele>
        <time>2021-12-27T14:10:09Z</time>
      </trkpt>
      <trkpt lat="37.7939330" lon="-3.8541180">
        <ele>539.2</ele>
        <time>2021-12-27T14:10:10Z</time>
      </trkpt>
      <trkpt lat="37.7939260" lon="-3.8541430">
        <ele>539.2</ele>
        <time>2021-12-27T14:10:11Z</time>
      </trkpt>
      <trkpt lat="37.7939200" lon="-3.8541750">
        <ele>539.2</ele>
        <time>2021-12-27T14:10:12Z</time>
      </trkpt>
      <trkpt lat="37.7939200" lon="-3.8541750">
        <ele>539.2</ele>
        <time>2021-12-27T14:10:13Z</time>
      </trkpt>
      <trkpt lat="37.7939100" lon="-3.8542230">
        <ele>539.2</ele>
        <time>2021-12-27T14:10:14Z</time>
      </trkpt>
      <trkpt lat="37.7939040" lon="-3.8542480">
        <ele>539.2</ele>
        <time>2021-12-27T14:10:15Z</time>
      </trkpt>
      <trkpt lat="37.7938940" lon="-3.8542750">
        <ele>539.0</ele>
        <time>2021-12-27T14:10:16Z</time>
      </trkpt>
      <trkpt lat="37.7938910" lon="-3.8542980">
        <ele>539.0</ele>
        <time>2021-12-27T14:10:17Z</time>
      </trkpt>
      <trkpt lat="37.7938850" lon="-3.8543230">
        <ele>539.2</ele>
        <time>2021-12-27T14:10:18Z</time>
      </trkpt>
      <trkpt lat="37.7938820" lon="-3.8543480">
        <ele>539.2</ele>
        <time>2021-12-27T14:10:19Z</time>
      </trkpt>
      <trkpt lat="37.7938720" lon="-3.8543740">
        <ele>539.2</ele>
        <time>2021-12-27T14:10:20Z</time>
      </trkpt>
      <trkpt lat="37.7938660" lon="-3.8543980">
        <ele>539.2</ele>
        <time>2021-12-27T14:10:21Z</time>
      </trkpt>
      <trkpt lat="37.7938620" lon="-3.8544230">
        <ele>539.4</ele>
        <time>2021-12-27T14:10:22Z</time>
      </trkpt>
      <trkpt lat="37.7938530" lon="-3.8544500">
        <ele>539.4</ele>
        <time>2021-12-27T14:10:23Z</time>
      </trkpt>
      <trkpt lat="37.7938500" lon="-3.8544730">
        <ele>539.4</ele>
        <time>2021-12-27T14:10:24Z</time>
      </trkpt>
      <trkpt lat="37.7938400" lon="-3.8544930">
        <ele>539.6</ele>
        <time>2021-12-27T14:10:25Z</time>
      </trkpt>
      <trkpt lat="37.7938400" lon="-3.8544930">
        <ele>539.6</ele>
        <time>2021-12-27T14:10:26Z</time>
      </trkpt>
      <trkpt lat="37.7938400" lon="-3.8544930">
        <ele>539.8</ele>
        <time>2021-12-27T14:10:27Z</time>
      </trkpt>
      <trkpt lat="37.7938400" lon="-3.8544930">
        <ele>539.8</ele>
        <time>2021-12-27T14:10:28Z</time>
      </trkpt>
      <trkpt lat="37.7938400" lon="-3.8544930">
        <ele>539.8</ele>
        <time>2021-12-27T14:10:29Z</time>
      </trkpt>
      <trkpt lat="37.7938140" lon="-3.8545970">
        <ele>540.0</ele>
        <time>2021-12-27T14:10:39Z</time>
      </trkpt>
      <trkpt lat="37.7938080" lon="-3.8546200">
        <ele>540.0</ele>
        <time>2021-12-27T14:10:40Z</time>
      </trkpt>
      <trkpt lat="37.7938020" lon="-3.8546450">
        <ele>540.0</ele>
        <time>2021-12-27T14:10:41Z</time>
      </trkpt>
      <trkpt lat="37.7937950" lon="-3.8546730">
        <ele>540.0</ele>
        <time>2021-12-27T14:10:42Z</time>
      </trkpt>
      <trkpt lat="37.7937920" lon="-3.8547040">
        <ele>540.0</ele>
        <time>2021-12-27T14:10:43Z</time>
      </trkpt>
      <trkpt lat="37.7937860" lon="-3.8547340">
        <ele>540.0</ele>
        <time>2021-12-27T14:10:44Z</time>
      </trkpt>
      <trkpt lat="37.7937760" lon="-3.8547620">
        <ele>540.0</ele>
        <time>2021-12-27T14:10:45Z</time>
      </trkpt>
      <trkpt lat="37.7937660" lon="-3.8547930">
        <ele>540.0</ele>
        <time>2021-12-27T14:10:46Z</time>
      </trkpt>
      <trkpt lat="37.7937570" lon="-3.8548250">
        <ele>540.0</ele>
        <time>2021-12-27T14:10:47Z</time>
      </trkpt>
      <trkpt lat="37.7937500" lon="-3.8548530">
        <ele>540.0</ele>
        <time>2021-12-27T14:10:48Z</time>
      </trkpt>
      <trkpt lat="37.7937440" lon="-3.8548830">
        <ele>540.0</ele>
        <time>2021-12-27T14:10:49Z</time>
      </trkpt>
      <trkpt lat="37.7937310" lon="-3.8549220">
        <ele>540.0</ele>
        <time>2021-12-27T14:10:50Z</time>
      </trkpt>
      <trkpt lat="37.7937280" lon="-3.8549480">
        <ele>540.0</ele>
        <time>2021-12-27T14:10:51Z</time>
      </trkpt>
      <trkpt lat="37.7937150" lon="-3.8549800">
        <ele>540.0</ele>
        <time>2021-12-27T14:10:52Z</time>
      </trkpt>
      <trkpt lat="37.7937060" lon="-3.8550200">
        <ele>540.0</ele>
        <time>2021-12-27T14:10:53Z</time>
      </trkpt>
      <trkpt lat="37.7936930" lon="-3.8550540">
        <ele>540.0</ele>
        <time>2021-12-27T14:10:54Z</time>
      </trkpt>
      <trkpt lat="37.7936900" lon="-3.8550820">
        <ele>539.8</ele>
        <time>2021-12-27T14:10:55Z</time>
      </trkpt>
      <trkpt lat="37.7936830" lon="-3.8551150">
        <ele>539.8</ele>
        <time>2021-12-27T14:10:56Z</time>
      </trkpt>
      <trkpt lat="37.7936740" lon="-3.8551480">
        <ele>539.8</ele>
        <time>2021-12-27T14:10:57Z</time>
      </trkpt>
      <trkpt lat="37.7936640" lon="-3.8551830">
        <ele>539.8</ele>
        <time>2021-12-27T14:10:58Z</time>
      </trkpt>
      <trkpt lat="37.7936510" lon="-3.8552150">
        <ele>539.8</ele>
        <time>2021-12-27T14:10:59Z</time>
      </trkpt>
      <trkpt lat="37.7936480" lon="-3.8552460">
        <ele>539.8</ele>
        <time>2021-12-27T14:11:00Z</time>
      </trkpt>
      <trkpt lat="37.7936420" lon="-3.8552780">
        <ele>539.8</ele>
        <time>2021-12-27T14:11:01Z</time>
      </trkpt>
      <trkpt lat="37.7936290" lon="-3.8553120">
        <ele>539.8</ele>
        <time>2021-12-27T14:11:02Z</time>
      </trkpt>
      <trkpt lat="37.7936220" lon="-3.8553520">
        <ele>539.8</ele>
        <time>2021-12-27T14:11:03Z</time>
      </trkpt>
      <trkpt lat="37.7936160" lon="-3.8553800">
        <ele>539.8</ele>
        <time>2021-12-27T14:11:04Z</time>
      </trkpt>
      <trkpt lat="37.7936100" lon="-3.8554140">
        <ele>540.0</ele>
        <time>2021-12-27T14:11:05Z</time>
      </trkpt>
      <trkpt lat="37.7936030" lon="-3.8554450">
        <ele>540.0</ele>
        <time>2021-12-27T14:11:06Z</time>
      </trkpt>
      <trkpt lat="37.7935940" lon="-3.8554780">
        <ele>540.0</ele>
        <time>2021-12-27T14:11:07Z</time>
      </trkpt>
      <trkpt lat="37.7935870" lon="-3.8555180">
        <ele>540.2</ele>
        <time>2021-12-27T14:11:08Z</time>
      </trkpt>
      <trkpt lat="37.7935780" lon="-3.8555430">
        <ele>540.2</ele>
        <time>2021-12-27T14:11:09Z</time>
      </trkpt>
      <trkpt lat="37.7935710" lon="-3.8555770">
        <ele>540.2</ele>
        <time>2021-12-27T14:11:10Z</time>
      </trkpt>
      <trkpt lat="37.7935620" lon="-3.8556080">
        <ele>540.2</ele>
        <time>2021-12-27T14:11:11Z</time>
      </trkpt>
      <trkpt lat="37.7935520" lon="-3.8556420">
        <ele>540.2</ele>
        <time>2021-12-27T14:11:12Z</time>
      </trkpt>
      <trkpt lat="37.7935460" lon="-3.8556750">
        <ele>540.4</ele>
        <time>2021-12-27T14:11:13Z</time>
      </trkpt>
      <trkpt lat="37.7935330" lon="-3.8557080">
        <ele>540.4</ele>
        <time>2021-12-27T14:11:14Z</time>
      </trkpt>
      <trkpt lat="37.7935260" lon="-3.8557400">
        <ele>540.4</ele>
        <time>2021-12-27T14:11:15Z</time>
      </trkpt>
      <trkpt lat="37.7935140" lon="-3.8557740">
        <ele>540.4</ele>
        <time>2021-12-27T14:11:16Z</time>
      </trkpt>
      <trkpt lat="37.7935070" lon="-3.8558170">
        <ele>540.4</ele>
        <time>2021-12-27T14:11:17Z</time>
      </trkpt>
      <trkpt lat="37.7934980" lon="-3.8558430">
        <ele>540.4</ele>
        <time>2021-12-27T14:11:18Z</time>
      </trkpt>
      <trkpt lat="37.7934880" lon="-3.8558770">
        <ele>540.6</ele>
        <time>2021-12-27T14:11:19Z</time>
      </trkpt>
      <trkpt lat="37.7934780" lon="-3.8559080">
        <ele>540.6</ele>
        <time>2021-12-27T14:11:20Z</time>
      </trkpt>
      <trkpt lat="37.7934690" lon="-3.8559430">
        <ele>540.8</ele>
        <time>2021-12-27T14:11:21Z</time>
      </trkpt>
      <trkpt lat="37.7934660" lon="-3.8559760">
        <ele>540.8</ele>
        <time>2021-12-27T14:11:22Z</time>
      </trkpt>
      <trkpt lat="37.7934560" lon="-3.8560120">
        <ele>540.8</ele>
        <time>2021-12-27T14:11:23Z</time>
      </trkpt>
      <trkpt lat="37.7934500" lon="-3.8560470">
        <ele>541.0</ele>
        <time>2021-12-27T14:11:24Z</time>
      </trkpt>
      <trkpt lat="37.7934430" lon="-3.8560800">
        <ele>541.0</ele>
        <time>2021-12-27T14:11:25Z</time>
      </trkpt>
      <trkpt lat="37.7934300" lon="-3.8561120">
        <ele>541.0</ele>
        <time>2021-12-27T14:11:26Z</time>
      </trkpt>
      <trkpt lat="37.7934240" lon="-3.8561440">
        <ele>541.0</ele>
        <time>2021-12-27T14:11:27Z</time>
      </trkpt>
      <trkpt lat="37.7934140" lon="-3.8561750">
        <ele>541.0</ele>
        <time>2021-12-27T14:11:28Z</time>
      </trkpt>
      <trkpt lat="37.7934050" lon="-3.8562050">
        <ele>541.0</ele>
        <time>2021-12-27T14:11:29Z</time>
      </trkpt>
      <trkpt lat="37.7933980" lon="-3.8562350">
        <ele>541.0</ele>
        <time>2021-12-27T14:11:30Z</time>
      </trkpt>
      <trkpt lat="37.7933920" lon="-3.8562670">
        <ele>541.0</ele>
        <time>2021-12-27T14:11:31Z</time>
      </trkpt>
      <trkpt lat="37.7933860" lon="-3.8562980">
        <ele>541.0</ele>
        <time>2021-12-27T14:11:32Z</time>
      </trkpt>
      <trkpt lat="37.7933760" lon="-3.8563260">
        <ele>541.0</ele>
        <time>2021-12-27T14:11:33Z</time>
      </trkpt>
      <trkpt lat="37.7933700" lon="-3.8563580">
        <ele>541.0</ele>
        <time>2021-12-27T14:11:34Z</time>
      </trkpt>
      <trkpt lat="37.7933570" lon="-3.8563950">
        <ele>541.0</ele>
        <time>2021-12-27T14:11:35Z</time>
      </trkpt>
      <trkpt lat="37.7933500" lon="-3.8564230">
        <ele>541.0</ele>
        <time>2021-12-27T14:11:36Z</time>
      </trkpt>
      <trkpt lat="37.7933340" lon="-3.8564600">
        <ele>541.0</ele>
        <time>2021-12-27T14:11:37Z</time>
      </trkpt>
      <trkpt lat="37.7933280" lon="-3.8564950">
        <ele>541.0</ele>
        <time>2021-12-27T14:11:38Z</time>
      </trkpt>
      <trkpt lat="37.7933180" lon="-3.8565300">
        <ele>541.0</ele>
        <time>2021-12-27T14:11:39Z</time>
      </trkpt>
      <trkpt lat="37.7933120" lon="-3.8565580">
        <ele>541.0</ele>
        <time>2021-12-27T14:11:40Z</time>
      </trkpt>
      <trkpt lat="37.7933060" lon="-3.8565850">
        <ele>541.0</ele>
        <time>2021-12-27T14:11:41Z</time>
      </trkpt>
      <trkpt lat="37.7932930" lon="-3.8566120">
        <ele>541.2</ele>
        <time>2021-12-27T14:11:42Z</time>
      </trkpt>
      <trkpt lat="37.7932860" lon="-3.8566380">
        <ele>541.2</ele>
        <time>2021-12-27T14:11:43Z</time>
      </trkpt>
      <trkpt lat="37.7932770" lon="-3.8566660">
        <ele>541.2</ele>
        <time>2021-12-27T14:11:44Z</time>
      </trkpt>
      <trkpt lat="37.7932700" lon="-3.8566950">
        <ele>541.4</ele>
        <time>2021-12-27T14:11:45Z</time>
      </trkpt>
      <trkpt lat="37.7932640" lon="-3.8567230">
        <ele>541.4</ele>
        <time>2021-12-27T14:11:46Z</time>
      </trkpt>
      <trkpt lat="37.7932540" lon="-3.8567520">
        <ele>541.4</ele>
        <time>2021-12-27T14:11:47Z</time>
      </trkpt>
      <trkpt lat="37.7932480" lon="-3.8567880">
        <ele>541.6</ele>
        <time>2021-12-27T14:11:48Z</time>
      </trkpt>
      <trkpt lat="37.7932380" lon="-3.8568140">
        <ele>541.6</ele>
        <time>2021-12-27T14:11:49Z</time>
      </trkpt>
      <trkpt lat="37.7932320" lon="-3.8568450">
        <ele>541.8</ele>
        <time>2021-12-27T14:11:50Z</time>
      </trkpt>
      <trkpt lat="37.7932260" lon="-3.8568750">
        <ele>541.8</ele>
        <time>2021-12-27T14:11:51Z</time>
      </trkpt>
      <trkpt lat="37.7932160" lon="-3.8569020">
        <ele>541.8</ele>
        <time>2021-12-27T14:11:52Z</time>
      </trkpt>
      <trkpt lat="37.7932130" lon="-3.8569280">
        <ele>541.8</ele>
        <time>2021-12-27T14:11:53Z</time>
      </trkpt>
      <trkpt lat="37.7932100" lon="-3.8569550">
        <ele>542.0</ele>
        <time>2021-12-27T14:11:54Z</time>
      </trkpt>
      <trkpt lat="37.7932000" lon="-3.8569850">
        <ele>542.0</ele>
        <time>2021-12-27T14:11:55Z</time>
      </trkpt>
      <trkpt lat="37.7931900" lon="-3.8570160">
        <ele>542.0</ele>
        <time>2021-12-27T14:11:56Z</time>
      </trkpt>
      <trkpt lat="37.7931780" lon="-3.8570530">
        <ele>542.0</ele>
        <time>2021-12-27T14:11:57Z</time>
      </trkpt>
      <trkpt lat="37.7931680" lon="-3.8570900">
        <ele>542.0</ele>
        <time>2021-12-27T14:11:58Z</time>
      </trkpt>
      <trkpt lat="37.7931550" lon="-3.8571280">
        <ele>542.0</ele>
        <time>2021-12-27T14:11:59Z</time>
      </trkpt>
      <trkpt lat="37.7931490" lon="-3.8571670">
        <ele>542.0</ele>
        <time>2021-12-27T14:12:00Z</time>
      </trkpt>
      <trkpt lat="37.7931360" lon="-3.8572030">
        <ele>542.0</ele>
        <time>2021-12-27T14:12:01Z</time>
      </trkpt>
      <trkpt lat="37.7931300" lon="-3.8572380">
        <ele>542.2</ele>
        <time>2021-12-27T14:12:02Z</time>
      </trkpt>
      <trkpt lat="37.7931200" lon="-3.8572730">
        <ele>542.2</ele>
        <time>2021-12-27T14:12:03Z</time>
      </trkpt>
      <trkpt lat="37.7931100" lon="-3.8573070">
        <ele>542.4</ele>
        <time>2021-12-27T14:12:04Z</time>
      </trkpt>
      <trkpt lat="37.7931010" lon="-3.8573400">
        <ele>542.4</ele>
        <time>2021-12-27T14:12:05Z</time>
      </trkpt>
      <trkpt lat="37.7930910" lon="-3.8573750">
        <ele>542.4</ele>
        <time>2021-12-27T14:12:06Z</time>
      </trkpt>
      <trkpt lat="37.7930820" lon="-3.8574100">
        <ele>542.6</ele>
        <time>2021-12-27T14:12:07Z</time>
      </trkpt>
      <trkpt lat="37.7930720" lon="-3.8574470">
        <ele>542.6</ele>
        <time>2021-12-27T14:12:08Z</time>
      </trkpt>
      <trkpt lat="37.7930660" lon="-3.8574820">
        <ele>542.6</ele>
        <time>2021-12-27T14:12:09Z</time>
      </trkpt>
      <trkpt lat="37.7930530" lon="-3.8575150">
        <ele>542.8</ele>
        <time>2021-12-27T14:12:10Z</time>
      </trkpt>
      <trkpt lat="37.7930460" lon="-3.8575470">
        <ele>542.8</ele>
        <time>2021-12-27T14:12:11Z</time>
      </trkpt>
      <trkpt lat="37.7930340" lon="-3.8575780">
        <ele>542.8</ele>
        <time>2021-12-27T14:12:12Z</time>
      </trkpt>
      <trkpt lat="37.7930270" lon="-3.8576120">
        <ele>542.8</ele>
        <time>2021-12-27T14:12:13Z</time>
      </trkpt>
      <trkpt lat="37.7930140" lon="-3.8576520">
        <ele>542.8</ele>
        <time>2021-12-27T14:12:14Z</time>
      </trkpt>
      <trkpt lat="37.7930110" lon="-3.8576780">
        <ele>543.0</ele>
        <time>2021-12-27T14:12:15Z</time>
      </trkpt>
      <trkpt lat="37.7929980" lon="-3.8577120">
        <ele>543.0</ele>
        <time>2021-12-27T14:12:16Z</time>
      </trkpt>
      <trkpt lat="37.7929920" lon="-3.8577430">
        <ele>543.2</ele>
        <time>2021-12-27T14:12:17Z</time>
      </trkpt>
      <trkpt lat="37.7929860" lon="-3.8577780">
        <ele>543.2</ele>
        <time>2021-12-27T14:12:18Z</time>
      </trkpt>
      <trkpt lat="37.7929760" lon="-3.8578120">
        <ele>543.2</ele>
        <time>2021-12-27T14:12:19Z</time>
      </trkpt>
      <trkpt lat="37.7929660" lon="-3.8578450">
        <ele>543.2</ele>
        <time>2021-12-27T14:12:20Z</time>
      </trkpt>
      <trkpt lat="37.7929600" lon="-3.8578770">
        <ele>543.4</ele>
        <time>2021-12-27T14:12:21Z</time>
      </trkpt>
      <trkpt lat="37.7929540" lon="-3.8579100">
        <ele>543.4</ele>
        <time>2021-12-27T14:12:22Z</time>
      </trkpt>
      <trkpt lat="37.7929470" lon="-3.8579420">
        <ele>543.4</ele>
        <time>2021-12-27T14:12:23Z</time>
      </trkpt>
      <trkpt lat="37.7929340" lon="-3.8579750">
        <ele>543.4</ele>
        <time>2021-12-27T14:12:24Z</time>
      </trkpt>
      <trkpt lat="37.7929280" lon="-3.8580080">
        <ele>543.4</ele>
        <time>2021-12-27T14:12:25Z</time>
      </trkpt>
      <trkpt lat="37.7929150" lon="-3.8580420">
        <ele>543.4</ele>
        <time>2021-12-27T14:12:26Z</time>
      </trkpt>
      <trkpt lat="37.7929090" lon="-3.8580720">
        <ele>543.6</ele>
        <time>2021-12-27T14:12:27Z</time>
      </trkpt>
      <trkpt lat="37.7929020" lon="-3.8581000">
        <ele>543.6</ele>
        <time>2021-12-27T14:12:28Z</time>
      </trkpt>
      <trkpt lat="37.7928960" lon="-3.8581280">
        <ele>543.6</ele>
        <time>2021-12-27T14:12:29Z</time>
      </trkpt>
      <trkpt lat="37.7928930" lon="-3.8581580">
        <ele>543.8</ele>
        <time>2021-12-27T14:12:30Z</time>
      </trkpt>
      <trkpt lat="37.7928900" lon="-3.8581870">
        <ele>543.8</ele>
        <time>2021-12-27T14:12:31Z</time>
      </trkpt>
      <trkpt lat="37.7928860" lon="-3.8582150">
        <ele>544.0</ele>
        <time>2021-12-27T14:12:32Z</time>
      </trkpt>
      <trkpt lat="37.7928770" lon="-3.8582470">
        <ele>544.0</ele>
        <time>2021-12-27T14:12:33Z</time>
      </trkpt>
      <trkpt lat="37.7928700" lon="-3.8582780">
        <ele>544.0</ele>
        <time>2021-12-27T14:12:34Z</time>
      </trkpt>
      <trkpt lat="37.7928610" lon="-3.8583080">
        <ele>544.2</ele>
        <time>2021-12-27T14:12:35Z</time>
      </trkpt>
      <trkpt lat="37.7928540" lon="-3.8583380">
        <ele>544.2</ele>
        <time>2021-12-27T14:12:36Z</time>
      </trkpt>
      <trkpt lat="37.7928480" lon="-3.8583680">
        <ele>544.2</ele>
        <time>2021-12-27T14:12:37Z</time>
      </trkpt>
      <trkpt lat="37.7928350" lon="-3.8584050">
        <ele>544.2</ele>
        <time>2021-12-27T14:12:38Z</time>
      </trkpt>
      <trkpt lat="37.7928270" lon="-3.8584310">
        <ele>544.2</ele>
        <time>2021-12-27T14:12:39Z</time>
      </trkpt>
      <trkpt lat="37.7928190" lon="-3.8584570">
        <ele>544.2</ele>
        <time>2021-12-27T14:12:40Z</time>
      </trkpt>
      <trkpt lat="37.7928160" lon="-3.8584870">
        <ele>544.2</ele>
        <time>2021-12-27T14:12:41Z</time>
      </trkpt>
      <trkpt lat="37.7928100" lon="-3.8585200">
        <ele>544.2</ele>
        <time>2021-12-27T14:12:42Z</time>
      </trkpt>
      <trkpt lat="37.7927970" lon="-3.8585450">
        <ele>544.2</ele>
        <time>2021-12-27T14:12:43Z</time>
      </trkpt>
      <trkpt lat="37.7927900" lon="-3.8585740">
        <ele>544.4</ele>
        <time>2021-12-27T14:12:44Z</time>
      </trkpt>
      <trkpt lat="37.7927810" lon="-3.8586000">
        <ele>544.4</ele>
        <time>2021-12-27T14:12:45Z</time>
      </trkpt>
      <trkpt lat="37.7927780" lon="-3.8586230">
        <ele>544.4</ele>
        <time>2021-12-27T14:12:46Z</time>
      </trkpt>
      <trkpt lat="37.7927780" lon="-3.8586230">
        <ele>544.4</ele>
        <time>2021-12-27T14:12:47Z</time>
      </trkpt>
      <trkpt lat="37.7927710" lon="-3.8586630">
        <ele>544.4</ele>
        <time>2021-12-27T14:12:48Z</time>
      </trkpt>
      <trkpt lat="37.7927710" lon="-3.8586630">
        <ele>544.4</ele>
        <time>2021-12-27T14:12:49Z</time>
      </trkpt>
      <trkpt lat="37.7927620" lon="-3.8587020">
        <ele>544.4</ele>
        <time>2021-12-27T14:12:50Z</time>
      </trkpt>
      <trkpt lat="37.7927550" lon="-3.8587240">
        <ele>544.4</ele>
        <time>2021-12-27T14:12:51Z</time>
      </trkpt>
      <trkpt lat="37.7927520" lon="-3.8587520">
        <ele>544.4</ele>
        <time>2021-12-27T14:12:52Z</time>
      </trkpt>
      <trkpt lat="37.7927490" lon="-3.8587780">
        <ele>544.4</ele>
        <time>2021-12-27T14:12:53Z</time>
      </trkpt>
      <trkpt lat="37.7927390" lon="-3.8588050">
        <ele>544.4</ele>
        <time>2021-12-27T14:12:54Z</time>
      </trkpt>
      <trkpt lat="37.7927330" lon="-3.8588320">
        <ele>544.4</ele>
        <time>2021-12-27T14:12:55Z</time>
      </trkpt>
      <trkpt lat="37.7927300" lon="-3.8588550">
        <ele>544.4</ele>
        <time>2021-12-27T14:12:56Z</time>
      </trkpt>
      <trkpt lat="37.7927300" lon="-3.8588550">
        <ele>544.4</ele>
        <time>2021-12-27T14:12:57Z</time>
      </trkpt>
      <trkpt lat="37.7927230" lon="-3.8588970">
        <ele>544.4</ele>
        <time>2021-12-27T14:12:58Z</time>
      </trkpt>
      <trkpt lat="37.7927230" lon="-3.8588970">
        <ele>544.4</ele>
        <time>2021-12-27T14:12:59Z</time>
      </trkpt>
      <trkpt lat="37.7927140" lon="-3.8589340">
        <ele>544.4</ele>
        <time>2021-12-27T14:13:00Z</time>
      </trkpt>
      <trkpt lat="37.7927010" lon="-3.8589550">
        <ele>544.4</ele>
        <time>2021-12-27T14:13:01Z</time>
      </trkpt>
      <trkpt lat="37.7927010" lon="-3.8589550">
        <ele>544.4</ele>
        <time>2021-12-27T14:13:02Z</time>
      </trkpt>
      <trkpt lat="37.7926940" lon="-3.8589970">
        <ele>544.4</ele>
        <time>2021-12-27T14:13:03Z</time>
      </trkpt>
      <trkpt lat="37.7926940" lon="-3.8589970">
        <ele>544.4</ele>
        <time>2021-12-27T14:13:04Z</time>
      </trkpt>
      <trkpt lat="37.7926780" lon="-3.8590370">
        <ele>544.4</ele>
        <time>2021-12-27T14:13:05Z</time>
      </trkpt>
      <trkpt lat="37.7926780" lon="-3.8590370">
        <ele>544.6</ele>
        <time>2021-12-27T14:13:06Z</time>
      </trkpt>
      <trkpt lat="37.7926690" lon="-3.8590850">
        <ele>544.6</ele>
        <time>2021-12-27T14:13:07Z</time>
      </trkpt>
      <trkpt lat="37.7926620" lon="-3.8591150">
        <ele>544.6</ele>
        <time>2021-12-27T14:13:08Z</time>
      </trkpt>
      <trkpt lat="37.7926560" lon="-3.8591480">
        <ele>544.6</ele>
        <time>2021-12-27T14:13:09Z</time>
      </trkpt>
      <trkpt lat="37.7926500" lon="-3.8591780">
        <ele>544.6</ele>
        <time>2021-12-27T14:13:10Z</time>
      </trkpt>
      <trkpt lat="37.7926370" lon="-3.8592070">
        <ele>544.6</ele>
        <time>2021-12-27T14:13:11Z</time>
      </trkpt>
      <trkpt lat="37.7926300" lon="-3.8592330">
        <ele>544.8</ele>
        <time>2021-12-27T14:13:12Z</time>
      </trkpt>
      <trkpt lat="37.7926180" lon="-3.8592580">
        <ele>544.8</ele>
        <time>2021-12-27T14:13:13Z</time>
      </trkpt>
      <trkpt lat="37.7926140" lon="-3.8592840">
        <ele>544.8</ele>
        <time>2021-12-27T14:13:14Z</time>
      </trkpt>
      <trkpt lat="37.7926110" lon="-3.8593100">
        <ele>545.0</ele>
        <time>2021-12-27T14:13:15Z</time>
      </trkpt>
      <trkpt lat="37.7925980" lon="-3.8593400">
        <ele>545.2</ele>
        <time>2021-12-27T14:13:16Z</time>
      </trkpt>
      <trkpt lat="37.7925920" lon="-3.8593720">
        <ele>545.2</ele>
        <time>2021-12-27T14:13:17Z</time>
      </trkpt>
      <trkpt lat="37.7925820" lon="-3.8594050">
        <ele>545.4</ele>
        <time>2021-12-27T14:13:18Z</time>
      </trkpt>
      <trkpt lat="37.7925760" lon="-3.8594380">
        <ele>545.6</ele>
        <time>2021-12-27T14:13:19Z</time>
      </trkpt>
      <trkpt lat="37.7925700" lon="-3.8594720">
        <ele>545.6</ele>
        <time>2021-12-27T14:13:20Z</time>
      </trkpt>
      <trkpt lat="37.7925570" lon="-3.8595070">
        <ele>545.6</ele>
        <time>2021-12-27T14:13:21Z</time>
      </trkpt>
      <trkpt lat="37.7925440" lon="-3.8595400">
        <ele>545.6</ele>
        <time>2021-12-27T14:13:22Z</time>
      </trkpt>
      <trkpt lat="37.7925380" lon="-3.8595730">
        <ele>545.8</ele>
        <time>2021-12-27T14:13:23Z</time>
      </trkpt>
      <trkpt lat="37.7925250" lon="-3.8596080">
        <ele>545.8</ele>
        <time>2021-12-27T14:13:24Z</time>
      </trkpt>
      <trkpt lat="37.7925180" lon="-3.8596400">
        <ele>546.0</ele>
        <time>2021-12-27T14:13:25Z</time>
      </trkpt>
      <trkpt lat="37.7925120" lon="-3.8596730">
        <ele>546.0</ele>
        <time>2021-12-27T14:13:26Z</time>
      </trkpt>
      <trkpt lat="37.7925020" lon="-3.8596950">
        <ele>546.0</ele>
        <time>2021-12-27T14:13:27Z</time>
      </trkpt>
      <trkpt lat="37.7924960" lon="-3.8597220">
        <ele>546.0</ele>
        <time>2021-12-27T14:13:28Z</time>
      </trkpt>
      <trkpt lat="37.7924900" lon="-3.8597520">
        <ele>546.0</ele>
        <time>2021-12-27T14:13:29Z</time>
      </trkpt>
      <trkpt lat="37.7924770" lon="-3.8597800">
        <ele>546.0</ele>
        <time>2021-12-27T14:13:30Z</time>
      </trkpt>
      <trkpt lat="37.7924700" lon="-3.8598060">
        <ele>546.0</ele>
        <time>2021-12-27T14:13:31Z</time>
      </trkpt>
      <trkpt lat="37.7924610" lon="-3.8598350">
        <ele>546.0</ele>
        <time>2021-12-27T14:13:32Z</time>
      </trkpt>
      <trkpt lat="37.7924540" lon="-3.8598630">
        <ele>546.0</ele>
        <time>2021-12-27T14:13:33Z</time>
      </trkpt>
      <trkpt lat="37.7924510" lon="-3.8598900">
        <ele>546.0</ele>
        <time>2021-12-27T14:13:34Z</time>
      </trkpt>
      <trkpt lat="37.7924450" lon="-3.8599180">
        <ele>546.2</ele>
        <time>2021-12-27T14:13:35Z</time>
      </trkpt>
      <trkpt lat="37.7924380" lon="-3.8599480">
        <ele>546.2</ele>
        <time>2021-12-27T14:13:36Z</time>
      </trkpt>
      <trkpt lat="37.7924320" lon="-3.8599770">
        <ele>546.2</ele>
        <time>2021-12-27T14:13:37Z</time>
      </trkpt>
      <trkpt lat="37.7924220" lon="-3.8600020">
        <ele>546.4</ele>
        <time>2021-12-27T14:13:38Z</time>
      </trkpt>
      <trkpt lat="37.7924160" lon="-3.8600250">
        <ele>546.4</ele>
        <time>2021-12-27T14:13:39Z</time>
      </trkpt>
      <trkpt lat="37.7924060" lon="-3.8600520">
        <ele>546.4</ele>
        <time>2021-12-27T14:13:40Z</time>
      </trkpt>
      <trkpt lat="37.7924000" lon="-3.8600800">
        <ele>546.4</ele>
        <time>2021-12-27T14:13:41Z</time>
      </trkpt>
      <trkpt lat="37.7923940" lon="-3.8601080">
        <ele>546.4</ele>
        <time>2021-12-27T14:13:42Z</time>
      </trkpt>
      <trkpt lat="37.7923840" lon="-3.8601380">
        <ele>546.4</ele>
        <time>2021-12-27T14:13:43Z</time>
      </trkpt>
      <trkpt lat="37.7923810" lon="-3.8601680">
        <ele>546.4</ele>
        <time>2021-12-27T14:13:44Z</time>
      </trkpt>
      <trkpt lat="37.7923740" lon="-3.8601960">
        <ele>546.4</ele>
        <time>2021-12-27T14:13:45Z</time>
      </trkpt>
      <trkpt lat="37.7923710" lon="-3.8602270">
        <ele>546.4</ele>
        <time>2021-12-27T14:13:46Z</time>
      </trkpt>
      <trkpt lat="37.7923580" lon="-3.8602550">
        <ele>546.4</ele>
        <time>2021-12-27T14:13:47Z</time>
      </trkpt>
      <trkpt lat="37.7923520" lon="-3.8602820">
        <ele>546.6</ele>
        <time>2021-12-27T14:13:48Z</time>
      </trkpt>
      <trkpt lat="37.7923420" lon="-3.8603080">
        <ele>546.6</ele>
        <time>2021-12-27T14:13:49Z</time>
      </trkpt>
      <trkpt lat="37.7923330" lon="-3.8603350">
        <ele>546.6</ele>
        <time>2021-12-27T14:13:50Z</time>
      </trkpt>
      <trkpt lat="37.7923230" lon="-3.8603630">
        <ele>546.6</ele>
        <time>2021-12-27T14:13:51Z</time>
      </trkpt>
      <trkpt lat="37.7923200" lon="-3.8603930">
        <ele>546.6</ele>
        <time>2021-12-27T14:13:52Z</time>
      </trkpt>
      <trkpt lat="37.7923170" lon="-3.8604230">
        <ele>546.6</ele>
        <time>2021-12-27T14:13:53Z</time>
      </trkpt>
      <trkpt lat="37.7923100" lon="-3.8604550">
        <ele>546.6</ele>
        <time>2021-12-27T14:13:54Z</time>
      </trkpt>
      <trkpt lat="37.7923010" lon="-3.8604820">
        <ele>546.8</ele>
        <time>2021-12-27T14:13:55Z</time>
      </trkpt>
      <trkpt lat="37.7922940" lon="-3.8605060">
        <ele>546.8</ele>
        <time>2021-12-27T14:13:56Z</time>
      </trkpt>
      <trkpt lat="37.7922850" lon="-3.8605300">
        <ele>546.8</ele>
        <time>2021-12-27T14:13:57Z</time>
      </trkpt>
      <trkpt lat="37.7922780" lon="-3.8605570">
        <ele>546.8</ele>
        <time>2021-12-27T14:13:58Z</time>
      </trkpt>
      <trkpt lat="37.7922720" lon="-3.8605830">
        <ele>546.8</ele>
        <time>2021-12-27T14:13:59Z</time>
      </trkpt>
      <trkpt lat="37.7922660" lon="-3.8606100">
        <ele>547.0</ele>
        <time>2021-12-27T14:14:00Z</time>
      </trkpt>
      <trkpt lat="37.7922620" lon="-3.8606350">
        <ele>547.0</ele>
        <time>2021-12-27T14:14:01Z</time>
      </trkpt>
      <trkpt lat="37.7922530" lon="-3.8606640">
        <ele>547.0</ele>
        <time>2021-12-27T14:14:02Z</time>
      </trkpt>
      <trkpt lat="37.7922430" lon="-3.8606880">
        <ele>547.0</ele>
        <time>2021-12-27T14:14:03Z</time>
      </trkpt>
      <trkpt lat="37.7922340" lon="-3.8607160">
        <ele>547.0</ele>
        <time>2021-12-27T14:14:04Z</time>
      </trkpt>
      <trkpt lat="37.7922240" lon="-3.8607450">
        <ele>547.2</ele>
        <time>2021-12-27T14:14:05Z</time>
      </trkpt>
      <trkpt lat="37.7922210" lon="-3.8607730">
        <ele>547.2</ele>
        <time>2021-12-27T14:14:06Z</time>
      </trkpt>
      <trkpt lat="37.7922140" lon="-3.8608000">
        <ele>547.2</ele>
        <time>2021-12-27T14:14:07Z</time>
      </trkpt>
      <trkpt lat="37.7922050" lon="-3.8608300">
        <ele>547.2</ele>
        <time>2021-12-27T14:14:08Z</time>
      </trkpt>
      <trkpt lat="37.7921980" lon="-3.8608600">
        <ele>547.4</ele>
        <time>2021-12-27T14:14:09Z</time>
      </trkpt>
      <trkpt lat="37.7921950" lon="-3.8608880">
        <ele>547.4</ele>
        <time>2021-12-27T14:14:10Z</time>
      </trkpt>
      <trkpt lat="37.7921860" lon="-3.8609150">
        <ele>547.6</ele>
        <time>2021-12-27T14:14:11Z</time>
      </trkpt>
      <trkpt lat="37.7921790" lon="-3.8609420">
        <ele>547.6</ele>
        <time>2021-12-27T14:14:12Z</time>
      </trkpt>
      <trkpt lat="37.7921730" lon="-3.8609670">
        <ele>547.6</ele>
        <time>2021-12-27T14:14:13Z</time>
      </trkpt>
      <trkpt lat="37.7921660" lon="-3.8609930">
        <ele>547.6</ele>
        <time>2021-12-27T14:14:14Z</time>
      </trkpt>
      <trkpt lat="37.7921600" lon="-3.8610200">
        <ele>547.6</ele>
        <time>2021-12-27T14:14:15Z</time>
      </trkpt>
      <trkpt lat="37.7921540" lon="-3.8610500">
        <ele>547.8</ele>
        <time>2021-12-27T14:14:16Z</time>
      </trkpt>
      <trkpt lat="37.7921440" lon="-3.8610800">
        <ele>547.8</ele>
        <time>2021-12-27T14:14:17Z</time>
      </trkpt>
      <trkpt lat="37.7921410" lon="-3.8611120">
        <ele>547.8</ele>
        <time>2021-12-27T14:14:18Z</time>
      </trkpt>
      <trkpt lat="37.7921340" lon="-3.8611400">
        <ele>547.8</ele>
        <time>2021-12-27T14:14:19Z</time>
      </trkpt>
      <trkpt lat="37.7921280" lon="-3.8611680">
        <ele>547.8</ele>
        <time>2021-12-27T14:14:20Z</time>
      </trkpt>
      <trkpt lat="37.7921220" lon="-3.8611980">
        <ele>547.8</ele>
        <time>2021-12-27T14:14:21Z</time>
      </trkpt>
      <trkpt lat="37.7921150" lon="-3.8612280">
        <ele>547.8</ele>
        <time>2021-12-27T14:14:22Z</time>
      </trkpt>
      <trkpt lat="37.7921060" lon="-3.8612560">
        <ele>547.8</ele>
        <time>2021-12-27T14:14:23Z</time>
      </trkpt>
      <trkpt lat="37.7920990" lon="-3.8612870">
        <ele>547.8</ele>
        <time>2021-12-27T14:14:24Z</time>
      </trkpt>
      <trkpt lat="37.7920930" lon="-3.8613170">
        <ele>547.8</ele>
        <time>2021-12-27T14:14:25Z</time>
      </trkpt>
      <trkpt lat="37.7920830" lon="-3.8613480">
        <ele>547.8</ele>
        <time>2021-12-27T14:14:26Z</time>
      </trkpt>
      <trkpt lat="37.7920770" lon="-3.8613800">
        <ele>547.8</ele>
        <time>2021-12-27T14:14:27Z</time>
      </trkpt>
      <trkpt lat="37.7920670" lon="-3.8614140">
        <ele>547.8</ele>
        <time>2021-12-27T14:14:28Z</time>
      </trkpt>
      <trkpt lat="37.7920610" lon="-3.8614430">
        <ele>547.8</ele>
        <time>2021-12-27T14:14:29Z</time>
      </trkpt>
      <trkpt lat="37.7920480" lon="-3.8614800">
        <ele>547.8</ele>
        <time>2021-12-27T14:14:30Z</time>
      </trkpt>
      <trkpt lat="37.7920450" lon="-3.8615050">
        <ele>548.0</ele>
        <time>2021-12-27T14:14:31Z</time>
      </trkpt>
      <trkpt lat="37.7920380" lon="-3.8615380">
        <ele>548.0</ele>
        <time>2021-12-27T14:14:32Z</time>
      </trkpt>
      <trkpt lat="37.7920260" lon="-3.8615700">
        <ele>548.0</ele>
        <time>2021-12-27T14:14:33Z</time>
      </trkpt>
      <trkpt lat="37.7920190" lon="-3.8616000">
        <ele>548.0</ele>
        <time>2021-12-27T14:14:34Z</time>
      </trkpt>
      <trkpt lat="37.7920130" lon="-3.8616320">
        <ele>548.0</ele>
        <time>2021-12-27T14:14:35Z</time>
      </trkpt>
      <trkpt lat="37.7920030" lon="-3.8616620">
        <ele>548.0</ele>
        <time>2021-12-27T14:14:36Z</time>
      </trkpt>
      <trkpt lat="37.7920000" lon="-3.8616880">
        <ele>548.0</ele>
        <time>2021-12-27T14:14:37Z</time>
      </trkpt>
      <trkpt lat="37.7919870" lon="-3.8617170">
        <ele>548.0</ele>
        <time>2021-12-27T14:14:38Z</time>
      </trkpt>
      <trkpt lat="37.7919840" lon="-3.8617470">
        <ele>548.0</ele>
        <time>2021-12-27T14:14:39Z</time>
      </trkpt>
      <trkpt lat="37.7919780" lon="-3.8617780">
        <ele>547.8</ele>
        <time>2021-12-27T14:14:40Z</time>
      </trkpt>
      <trkpt lat="37.7919680" lon="-3.8618100">
        <ele>547.8</ele>
        <time>2021-12-27T14:14:41Z</time>
      </trkpt>
      <trkpt lat="37.7919650" lon="-3.8618420">
        <ele>547.8</ele>
        <time>2021-12-27T14:14:42Z</time>
      </trkpt>
      <trkpt lat="37.7919580" lon="-3.8618720">
        <ele>548.0</ele>
        <time>2021-12-27T14:14:43Z</time>
      </trkpt>
      <trkpt lat="37.7919490" lon="-3.8618980">
        <ele>548.0</ele>
        <time>2021-12-27T14:14:44Z</time>
      </trkpt>
      <trkpt lat="37.7919460" lon="-3.8619230">
        <ele>548.0</ele>
        <time>2021-12-27T14:14:45Z</time>
      </trkpt>
      <trkpt lat="37.7919390" lon="-3.8619480">
        <ele>548.2</ele>
        <time>2021-12-27T14:14:46Z</time>
      </trkpt>
      <trkpt lat="37.7919300" lon="-3.8619800">
        <ele>548.2</ele>
        <time>2021-12-27T14:14:47Z</time>
      </trkpt>
      <trkpt lat="37.7919260" lon="-3.8620050">
        <ele>548.2</ele>
        <time>2021-12-27T14:14:48Z</time>
      </trkpt>
      <trkpt lat="37.7919200" lon="-3.8620330">
        <ele>548.2</ele>
        <time>2021-12-27T14:14:49Z</time>
      </trkpt>
      <trkpt lat="37.7919140" lon="-3.8620650">
        <ele>548.2</ele>
        <time>2021-12-27T14:14:50Z</time>
      </trkpt>
      <trkpt lat="37.7919040" lon="-3.8620940">
        <ele>548.2</ele>
        <time>2021-12-27T14:14:51Z</time>
      </trkpt>
      <trkpt lat="37.7918980" lon="-3.8621200">
        <ele>548.4</ele>
        <time>2021-12-27T14:14:52Z</time>
      </trkpt>
      <trkpt lat="37.7918940" lon="-3.8621470">
        <ele>548.4</ele>
        <time>2021-12-27T14:14:53Z</time>
      </trkpt>
      <trkpt lat="37.7918850" lon="-3.8621770">
        <ele>548.6</ele>
        <time>2021-12-27T14:14:54Z</time>
      </trkpt>
      <trkpt lat="37.7918780" lon="-3.8622070">
        <ele>548.6</ele>
        <time>2021-12-27T14:14:55Z</time>
      </trkpt>
      <trkpt lat="37.7918690" lon="-3.8622370">
        <ele>548.6</ele>
        <time>2021-12-27T14:14:56Z</time>
      </trkpt>
      <trkpt lat="37.7918590" lon="-3.8622660">
        <ele>548.8</ele>
        <time>2021-12-27T14:14:57Z</time>
      </trkpt>
      <trkpt lat="37.7918500" lon="-3.8622960">
        <ele>548.8</ele>
        <time>2021-12-27T14:14:58Z</time>
      </trkpt>
      <trkpt lat="37.7918400" lon="-3.8623230">
        <ele>548.8</ele>
        <time>2021-12-27T14:14:59Z</time>
      </trkpt>
      <trkpt lat="37.7918300" lon="-3.8623520">
        <ele>548.8</ele>
        <time>2021-12-27T14:15:00Z</time>
      </trkpt>
      <trkpt lat="37.7918240" lon="-3.8623830">
        <ele>548.8</ele>
        <time>2021-12-27T14:15:01Z</time>
      </trkpt>
      <trkpt lat="37.7918180" lon="-3.8624050">
        <ele>548.8</ele>
        <time>2021-12-27T14:15:02Z</time>
      </trkpt>
      <trkpt lat="37.7918140" lon="-3.8624320">
        <ele>548.8</ele>
        <time>2021-12-27T14:15:03Z</time>
      </trkpt>
      <trkpt lat="37.7918050" lon="-3.8624600">
        <ele>548.8</ele>
        <time>2021-12-27T14:15:04Z</time>
      </trkpt>
      <trkpt lat="37.7918020" lon="-3.8624880">
        <ele>548.8</ele>
        <time>2021-12-27T14:15:05Z</time>
      </trkpt>
      <trkpt lat="37.7917950" lon="-3.8625180">
        <ele>548.8</ele>
        <time>2021-12-27T14:15:06Z</time>
      </trkpt>
      <trkpt lat="37.7917860" lon="-3.8625470">
        <ele>549.0</ele>
        <time>2021-12-27T14:15:07Z</time>
      </trkpt>
      <trkpt lat="37.7917790" lon="-3.8625770">
        <ele>549.0</ele>
        <time>2021-12-27T14:15:08Z</time>
      </trkpt>
      <trkpt lat="37.7917700" lon="-3.8626080">
        <ele>549.0</ele>
        <time>2021-12-27T14:15:09Z</time>
      </trkpt>
      <trkpt lat="37.7917630" lon="-3.8626400">
        <ele>549.0</ele>
        <time>2021-12-27T14:15:10Z</time>
      </trkpt>
      <trkpt lat="37.7917570" lon="-3.8626680">
        <ele>549.0</ele>
        <time>2021-12-27T14:15:11Z</time>
      </trkpt>
      <trkpt lat="37.7917500" lon="-3.8626950">
        <ele>549.0</ele>
        <time>2021-12-27T14:15:12Z</time>
      </trkpt>
      <trkpt lat="37.7917440" lon="-3.8627170">
        <ele>549.0</ele>
        <time>2021-12-27T14:15:13Z</time>
      </trkpt>
      <trkpt lat="37.7917380" lon="-3.8627400">
        <ele>549.2</ele>
        <time>2021-12-27T14:15:14Z</time>
      </trkpt>
      <trkpt lat="37.7917310" lon="-3.8627640">
        <ele>549.2</ele>
        <time>2021-12-27T14:15:15Z</time>
      </trkpt>
      <trkpt lat="37.7917260" lon="-3.8627860">
        <ele>549.2</ele>
        <time>2021-12-27T14:15:16Z</time>
      </trkpt>
      <trkpt lat="37.7917220" lon="-3.8628080">
        <ele>549.2</ele>
        <time>2021-12-27T14:15:17Z</time>
      </trkpt>
      <trkpt lat="37.7917220" lon="-3.8628080">
        <ele>549.2</ele>
        <time>2021-12-27T14:15:18Z</time>
      </trkpt>
      <trkpt lat="37.7917180" lon="-3.8628500">
        <ele>549.4</ele>
        <time>2021-12-27T14:15:19Z</time>
      </trkpt>
      <trkpt lat="37.7917180" lon="-3.8628500">
        <ele>549.4</ele>
        <time>2021-12-27T14:15:20Z</time>
      </trkpt>
      <trkpt lat="37.7917060" lon="-3.8628850">
        <ele>549.4</ele>
        <time>2021-12-27T14:15:21Z</time>
      </trkpt>
      <trkpt lat="37.7917060" lon="-3.8628850">
        <ele>549.4</ele>
        <time>2021-12-27T14:15:22Z</time>
      </trkpt>
      <trkpt lat="37.7916860" lon="-3.8629220">
        <ele>549.4</ele>
        <time>2021-12-27T14:15:23Z</time>
      </trkpt>
      <trkpt lat="37.7916860" lon="-3.8629220">
        <ele>549.6</ele>
        <time>2021-12-27T14:15:24Z</time>
      </trkpt>
      <trkpt lat="37.7916770" lon="-3.8629650">
        <ele>549.6</ele>
        <time>2021-12-27T14:15:25Z</time>
      </trkpt>
      <trkpt lat="37.7916700" lon="-3.8629880">
        <ele>549.6</ele>
        <time>2021-12-27T14:15:26Z</time>
      </trkpt>
      <trkpt lat="37.7916640" lon="-3.8630100">
        <ele>549.6</ele>
        <time>2021-12-27T14:15:27Z</time>
      </trkpt>
      <trkpt lat="37.7916580" lon="-3.8630330">
        <ele>549.6</ele>
        <time>2021-12-27T14:15:28Z</time>
      </trkpt>
      <trkpt lat="37.7916480" lon="-3.8630630">
        <ele>549.6</ele>
        <time>2021-12-27T14:15:29Z</time>
      </trkpt>
      <trkpt lat="37.7916420" lon="-3.8630850">
        <ele>549.6</ele>
        <time>2021-12-27T14:15:30Z</time>
      </trkpt>
      <trkpt lat="37.7916380" lon="-3.8631100">
        <ele>549.8</ele>
        <time>2021-12-27T14:15:31Z</time>
      </trkpt>
      <trkpt lat="37.7916290" lon="-3.8631400">
        <ele>549.8</ele>
        <time>2021-12-27T14:15:32Z</time>
      </trkpt>
      <trkpt lat="37.7916290" lon="-3.8631400">
        <ele>549.8</ele>
        <time>2021-12-27T14:15:33Z</time>
      </trkpt>
      <trkpt lat="37.7916190" lon="-3.8631860">
        <ele>550.0</ele>
        <time>2021-12-27T14:15:34Z</time>
      </trkpt>
      <trkpt lat="37.7916160" lon="-3.8632150">
        <ele>550.0</ele>
        <time>2021-12-27T14:15:35Z</time>
      </trkpt>
      <trkpt lat="37.7916100" lon="-3.8632420">
        <ele>550.2</ele>
        <time>2021-12-27T14:15:36Z</time>
      </trkpt>
      <trkpt lat="37.7916030" lon="-3.8632680">
        <ele>550.2</ele>
        <time>2021-12-27T14:15:37Z</time>
      </trkpt>
      <trkpt lat="37.7915970" lon="-3.8632920">
        <ele>550.2</ele>
        <time>2021-12-27T14:15:38Z</time>
      </trkpt>
      <trkpt lat="37.7915900" lon="-3.8633150">
        <ele>550.4</ele>
        <time>2021-12-27T14:15:39Z</time>
      </trkpt>
      <trkpt lat="37.7915810" lon="-3.8633400">
        <ele>550.4</ele>
        <time>2021-12-27T14:15:40Z</time>
      </trkpt>
      <trkpt lat="37.7915780" lon="-3.8633730">
        <ele>550.4</ele>
        <time>2021-12-27T14:15:41Z</time>
      </trkpt>
      <trkpt lat="37.7915680" lon="-3.8633950">
        <ele>550.4</ele>
        <time>2021-12-27T14:15:42Z</time>
      </trkpt>
      <trkpt lat="37.7915650" lon="-3.8634230">
        <ele>550.6</ele>
        <time>2021-12-27T14:15:43Z</time>
      </trkpt>
      <trkpt lat="37.7915580" lon="-3.8634520">
        <ele>550.6</ele>
        <time>2021-12-27T14:15:44Z</time>
      </trkpt>
      <trkpt lat="37.7915490" lon="-3.8634780">
        <ele>550.6</ele>
        <time>2021-12-27T14:15:45Z</time>
      </trkpt>
      <trkpt lat="37.7915420" lon="-3.8635080">
        <ele>550.6</ele>
        <time>2021-12-27T14:15:46Z</time>
      </trkpt>
      <trkpt lat="37.7915420" lon="-3.8635080">
        <ele>550.6</ele>
        <time>2021-12-27T14:15:47Z</time>
      </trkpt>
      <trkpt lat="37.7915300" lon="-3.8635580">
        <ele>550.6</ele>
        <time>2021-12-27T14:15:48Z</time>
      </trkpt>
      <trkpt lat="37.7915260" lon="-3.8635850">
        <ele>550.6</ele>
        <time>2021-12-27T14:15:49Z</time>
      </trkpt>
      <trkpt lat="37.7915170" lon="-3.8636200">
        <ele>550.6</ele>
        <time>2021-12-27T14:15:50Z</time>
      </trkpt>
      <trkpt lat="37.7915100" lon="-3.8636440">
        <ele>550.8</ele>
        <time>2021-12-27T14:15:51Z</time>
      </trkpt>
      <trkpt lat="37.7915040" lon="-3.8636730">
        <ele>550.8</ele>
        <time>2021-12-27T14:15:52Z</time>
      </trkpt>
      <trkpt lat="37.7914980" lon="-3.8637030">
        <ele>550.8</ele>
        <time>2021-12-27T14:15:53Z</time>
      </trkpt>
      <trkpt lat="37.7914850" lon="-3.8637330">
        <ele>550.8</ele>
        <time>2021-12-27T14:15:54Z</time>
      </trkpt>
      <trkpt lat="37.7914780" lon="-3.8637670">
        <ele>550.8</ele>
        <time>2021-12-27T14:15:55Z</time>
      </trkpt>
      <trkpt lat="37.7914720" lon="-3.8637880">
        <ele>550.8</ele>
        <time>2021-12-27T14:15:56Z</time>
      </trkpt>
      <trkpt lat="37.7914660" lon="-3.8638170">
        <ele>550.8</ele>
        <time>2021-12-27T14:15:57Z</time>
      </trkpt>
      <trkpt lat="37.7914590" lon="-3.8638450">
        <ele>550.8</ele>
        <time>2021-12-27T14:15:58Z</time>
      </trkpt>
      <trkpt lat="37.7914500" lon="-3.8638720">
        <ele>550.8</ele>
        <time>2021-12-27T14:15:59Z</time>
      </trkpt>
      <trkpt lat="37.7914430" lon="-3.8639080">
        <ele>551.0</ele>
        <time>2021-12-27T14:16:00Z</time>
      </trkpt>
      <trkpt lat="37.7914370" lon="-3.8639330">
        <ele>550.8</ele>
        <time>2021-12-27T14:16:01Z</time>
      </trkpt>
      <trkpt lat="37.7914270" lon="-3.8639650">
        <ele>550.8</ele>
        <time>2021-12-27T14:16:02Z</time>
      </trkpt>
      <trkpt lat="37.7914210" lon="-3.8639940">
        <ele>550.8</ele>
        <time>2021-12-27T14:16:03Z</time>
      </trkpt>
      <trkpt lat="37.7914080" lon="-3.8640230">
        <ele>550.8</ele>
        <time>2021-12-27T14:16:04Z</time>
      </trkpt>
      <trkpt lat="37.7914020" lon="-3.8640530">
        <ele>550.8</ele>
        <time>2021-12-27T14:16:05Z</time>
      </trkpt>
      <trkpt lat="37.7913920" lon="-3.8640850">
        <ele>550.8</ele>
        <time>2021-12-27T14:16:06Z</time>
      </trkpt>
      <trkpt lat="37.7913890" lon="-3.8641150">
        <ele>551.0</ele>
        <time>2021-12-27T14:16:07Z</time>
      </trkpt>
      <trkpt lat="37.7913820" lon="-3.8641530">
        <ele>551.0</ele>
        <time>2021-12-27T14:16:08Z</time>
      </trkpt>
      <trkpt lat="37.7913730" lon="-3.8641780">
        <ele>551.0</ele>
        <time>2021-12-27T14:16:09Z</time>
      </trkpt>
      <trkpt lat="37.7913660" lon="-3.8642080">
        <ele>551.0</ele>
        <time>2021-12-27T14:16:10Z</time>
      </trkpt>
      <trkpt lat="37.7913600" lon="-3.8642380">
        <ele>551.0</ele>
        <time>2021-12-27T14:16:11Z</time>
      </trkpt>
      <trkpt lat="37.7913540" lon="-3.8642670">
        <ele>551.0</ele>
        <time>2021-12-27T14:16:12Z</time>
      </trkpt>
      <trkpt lat="37.7913470" lon="-3.8642970">
        <ele>551.0</ele>
        <time>2021-12-27T14:16:13Z</time>
      </trkpt>
      <trkpt lat="37.7913410" lon="-3.8643280">
        <ele>551.0</ele>
        <time>2021-12-27T14:16:14Z</time>
      </trkpt>
      <trkpt lat="37.7913280" lon="-3.8643600">
        <ele>551.2</ele>
        <time>2021-12-27T14:16:15Z</time>
      </trkpt>
      <trkpt lat="37.7913220" lon="-3.8643880">
        <ele>551.2</ele>
        <time>2021-12-27T14:16:16Z</time>
      </trkpt>
      <trkpt lat="37.7913120" lon="-3.8644180">
        <ele>551.2</ele>
        <time>2021-12-27T14:16:17Z</time>
      </trkpt>
      <trkpt lat="37.7913060" lon="-3.8644470">
        <ele>551.2</ele>
        <time>2021-12-27T14:16:18Z</time>
      </trkpt>
      <trkpt lat="37.7912990" lon="-3.8644770">
        <ele>551.2</ele>
        <time>2021-12-27T14:16:19Z</time>
      </trkpt>
      <trkpt lat="37.7912860" lon="-3.8645050">
        <ele>551.4</ele>
        <time>2021-12-27T14:16:20Z</time>
      </trkpt>
      <trkpt lat="37.7912800" lon="-3.8645350">
        <ele>551.4</ele>
        <time>2021-12-27T14:16:21Z</time>
      </trkpt>
      <trkpt lat="37.7912700" lon="-3.8645650">
        <ele>551.4</ele>
        <time>2021-12-27T14:16:22Z</time>
      </trkpt>
      <trkpt lat="37.7912610" lon="-3.8645950">
        <ele>551.6</ele>
        <time>2021-12-27T14:16:23Z</time>
      </trkpt>
      <trkpt lat="37.7912480" lon="-3.8646270">
        <ele>551.6</ele>
        <time>2021-12-27T14:16:24Z</time>
      </trkpt>
      <trkpt lat="37.7912420" lon="-3.8646570">
        <ele>551.8</ele>
        <time>2021-12-27T14:16:25Z</time>
      </trkpt>
      <trkpt lat="37.7912380" lon="-3.8646850">
        <ele>551.8</ele>
        <time>2021-12-27T14:16:26Z</time>
      </trkpt>
      <trkpt lat="37.7912290" lon="-3.8647130">
        <ele>552.0</ele>
        <time>2021-12-27T14:16:27Z</time>
      </trkpt>
      <trkpt lat="37.7912260" lon="-3.8647400">
        <ele>552.0</ele>
        <time>2021-12-27T14:16:28Z</time>
      </trkpt>
      <trkpt lat="37.7912190" lon="-3.8647660">
        <ele>552.0</ele>
        <time>2021-12-27T14:16:29Z</time>
      </trkpt>
      <trkpt lat="37.7912100" lon="-3.8647950">
        <ele>552.0</ele>
        <time>2021-12-27T14:16:30Z</time>
      </trkpt>
      <trkpt lat="37.7912030" lon="-3.8648230">
        <ele>552.0</ele>
        <time>2021-12-27T14:16:31Z</time>
      </trkpt>
      <trkpt lat="37.7911940" lon="-3.8648530">
        <ele>552.0</ele>
        <time>2021-12-27T14:16:32Z</time>
      </trkpt>
      <trkpt lat="37.7911870" lon="-3.8648850">
        <ele>552.0</ele>
        <time>2021-12-27T14:16:33Z</time>
      </trkpt>
      <trkpt lat="37.7911840" lon="-3.8649150">
        <ele>552.0</ele>
        <time>2021-12-27T14:16:34Z</time>
      </trkpt>
      <trkpt lat="37.7911740" lon="-3.8649450">
        <ele>552.0</ele>
        <time>2021-12-27T14:16:35Z</time>
      </trkpt>
      <trkpt lat="37.7911650" lon="-3.8649730">
        <ele>552.0</ele>
        <time>2021-12-27T14:16:36Z</time>
      </trkpt>
      <trkpt lat="37.7911550" lon="-3.8650030">
        <ele>552.0</ele>
        <time>2021-12-27T14:16:37Z</time>
      </trkpt>
      <trkpt lat="37.7911490" lon="-3.8650300">
        <ele>552.0</ele>
        <time>2021-12-27T14:16:38Z</time>
      </trkpt>
      <trkpt lat="37.7911420" lon="-3.8650600">
        <ele>552.0</ele>
        <time>2021-12-27T14:16:39Z</time>
      </trkpt>
      <trkpt lat="37.7911330" lon="-3.8650920">
        <ele>552.0</ele>
        <time>2021-12-27T14:16:40Z</time>
      </trkpt>
      <trkpt lat="37.7911300" lon="-3.8651220">
        <ele>552.0</ele>
        <time>2021-12-27T14:16:41Z</time>
      </trkpt>
      <trkpt lat="37.7911260" lon="-3.8651530">
        <ele>552.0</ele>
        <time>2021-12-27T14:16:42Z</time>
      </trkpt>
      <trkpt lat="37.7911230" lon="-3.8651850">
        <ele>552.0</ele>
        <time>2021-12-27T14:16:43Z</time>
      </trkpt>
      <trkpt lat="37.7911140" lon="-3.8652170">
        <ele>552.2</ele>
        <time>2021-12-27T14:16:44Z</time>
      </trkpt>
      <trkpt lat="37.7911100" lon="-3.8652480">
        <ele>552.2</ele>
        <time>2021-12-27T14:16:45Z</time>
      </trkpt>
      <trkpt lat="37.7911040" lon="-3.8652800">
        <ele>552.2</ele>
        <time>2021-12-27T14:16:46Z</time>
      </trkpt>
      <trkpt lat="37.7910910" lon="-3.8653100">
        <ele>552.2</ele>
        <time>2021-12-27T14:16:47Z</time>
      </trkpt>
      <trkpt lat="37.7910880" lon="-3.8653420">
        <ele>552.2</ele>
        <time>2021-12-27T14:16:48Z</time>
      </trkpt>
      <trkpt lat="37.7910820" lon="-3.8653720">
        <ele>552.4</ele>
        <time>2021-12-27T14:16:49Z</time>
      </trkpt>
      <trkpt lat="37.7910750" lon="-3.8654040">
        <ele>552.4</ele>
        <time>2021-12-27T14:16:50Z</time>
      </trkpt>
      <trkpt lat="37.7910720" lon="-3.8654350">
        <ele>552.4</ele>
        <time>2021-12-27T14:16:51Z</time>
      </trkpt>
      <trkpt lat="37.7910660" lon="-3.8654650">
        <ele>552.4</ele>
        <time>2021-12-27T14:16:52Z</time>
      </trkpt>
      <trkpt lat="37.7910620" lon="-3.8654970">
        <ele>552.4</ele>
        <time>2021-12-27T14:16:53Z</time>
      </trkpt>
      <trkpt lat="37.7910560" lon="-3.8655270">
        <ele>552.6</ele>
        <time>2021-12-27T14:16:54Z</time>
      </trkpt>
      <trkpt lat="37.7910530" lon="-3.8655580">
        <ele>552.6</ele>
        <time>2021-12-27T14:16:55Z</time>
      </trkpt>
      <trkpt lat="37.7910500" lon="-3.8655880">
        <ele>552.6</ele>
        <time>2021-12-27T14:16:56Z</time>
      </trkpt>
      <trkpt lat="37.7910500" lon="-3.8656220">
        <ele>552.8</ele>
        <time>2021-12-27T14:16:57Z</time>
      </trkpt>
      <trkpt lat="37.7910460" lon="-3.8656520">
        <ele>552.8</ele>
        <time>2021-12-27T14:16:58Z</time>
      </trkpt>
      <trkpt lat="37.7910430" lon="-3.8656830">
        <ele>552.8</ele>
        <time>2021-12-27T14:16:59Z</time>
      </trkpt>
      <trkpt lat="37.7910340" lon="-3.8657170">
        <ele>552.8</ele>
        <time>2021-12-27T14:17:00Z</time>
      </trkpt>
      <trkpt lat="37.7910300" lon="-3.8657480">
        <ele>552.8</ele>
        <time>2021-12-27T14:17:01Z</time>
      </trkpt>
      <trkpt lat="37.7910270" lon="-3.8657820">
        <ele>553.0</ele>
        <time>2021-12-27T14:17:02Z</time>
      </trkpt>
      <trkpt lat="37.7910240" lon="-3.8658150">
        <ele>553.0</ele>
        <time>2021-12-27T14:17:03Z</time>
      </trkpt>
      <trkpt lat="37.7910140" lon="-3.8658470">
        <ele>553.0</ele>
        <time>2021-12-27T14:17:04Z</time>
      </trkpt>
      <trkpt lat="37.7910110" lon="-3.8658780">
        <ele>553.0</ele>
        <time>2021-12-27T14:17:05Z</time>
      </trkpt>
      <trkpt lat="37.7910080" lon="-3.8659080">
        <ele>553.0</ele>
        <time>2021-12-27T14:17:06Z</time>
      </trkpt>
      <trkpt lat="37.7910050" lon="-3.8659380">
        <ele>553.0</ele>
        <time>2021-12-27T14:17:07Z</time>
      </trkpt>
      <trkpt lat="37.7910050" lon="-3.8659700">
        <ele>553.0</ele>
        <time>2021-12-27T14:17:08Z</time>
      </trkpt>
      <trkpt lat="37.7910050" lon="-3.8660030">
        <ele>553.2</ele>
        <time>2021-12-27T14:17:09Z</time>
      </trkpt>
      <trkpt lat="37.7909950" lon="-3.8660330">
        <ele>553.2</ele>
        <time>2021-12-27T14:17:10Z</time>
      </trkpt>
      <trkpt lat="37.7909950" lon="-3.8660670">
        <ele>553.2</ele>
        <time>2021-12-27T14:17:11Z</time>
      </trkpt>
      <trkpt lat="37.7909890" lon="-3.8661040">
        <ele>553.2</ele>
        <time>2021-12-27T14:17:12Z</time>
      </trkpt>
      <trkpt lat="37.7909890" lon="-3.8661380">
        <ele>553.2</ele>
        <time>2021-12-27T14:17:13Z</time>
      </trkpt>
      <trkpt lat="37.7909860" lon="-3.8661700">
        <ele>553.2</ele>
        <time>2021-12-27T14:17:14Z</time>
      </trkpt>
      <trkpt lat="37.7909820" lon="-3.8662000">
        <ele>553.2</ele>
        <time>2021-12-27T14:17:15Z</time>
      </trkpt>
      <trkpt lat="37.7909760" lon="-3.8662320">
        <ele>553.4</ele>
        <time>2021-12-27T14:17:16Z</time>
      </trkpt>
      <trkpt lat="37.7909760" lon="-3.8662650">
        <ele>553.4</ele>
        <time>2021-12-27T14:17:17Z</time>
      </trkpt>
      <trkpt lat="37.7909820" lon="-3.8663000">
        <ele>553.4</ele>
        <time>2021-12-27T14:17:18Z</time>
      </trkpt>
      <trkpt lat="37.7909820" lon="-3.8663330">
        <ele>553.4</ele>
        <time>2021-12-27T14:17:19Z</time>
      </trkpt>
      <trkpt lat="37.7909820" lon="-3.8663630">
        <ele>553.6</ele>
        <time>2021-12-27T14:17:20Z</time>
      </trkpt>
      <trkpt lat="37.7909820" lon="-3.8663950">
        <ele>553.6</ele>
        <time>2021-12-27T14:17:21Z</time>
      </trkpt>
      <trkpt lat="37.7909760" lon="-3.8664280">
        <ele>553.6</ele>
        <time>2021-12-27T14:17:22Z</time>
      </trkpt>
      <trkpt lat="37.7909760" lon="-3.8664630">
        <ele>553.6</ele>
        <time>2021-12-27T14:17:23Z</time>
      </trkpt>
      <trkpt lat="37.7909760" lon="-3.8664980">
        <ele>553.8</ele>
        <time>2021-12-27T14:17:24Z</time>
      </trkpt>
      <trkpt lat="37.7909760" lon="-3.8665280">
        <ele>553.8</ele>
        <time>2021-12-27T14:17:25Z</time>
      </trkpt>
      <trkpt lat="37.7909760" lon="-3.8665620">
        <ele>553.8</ele>
        <time>2021-12-27T14:17:26Z</time>
      </trkpt>
      <trkpt lat="37.7909730" lon="-3.8665950">
        <ele>554.0</ele>
        <time>2021-12-27T14:17:27Z</time>
      </trkpt>
      <trkpt lat="37.7909730" lon="-3.8666320">
        <ele>554.0</ele>
        <time>2021-12-27T14:17:28Z</time>
      </trkpt>
      <trkpt lat="37.7909730" lon="-3.8666650">
        <ele>554.0</ele>
        <time>2021-12-27T14:17:29Z</time>
      </trkpt>
      <trkpt lat="37.7909730" lon="-3.8667000">
        <ele>554.0</ele>
        <time>2021-12-27T14:17:30Z</time>
      </trkpt>
      <trkpt lat="37.7909760" lon="-3.8667330">
        <ele>554.2</ele>
        <time>2021-12-27T14:17:31Z</time>
      </trkpt>
      <trkpt lat="37.7909760" lon="-3.8667650">
        <ele>554.2</ele>
        <time>2021-12-27T14:17:32Z</time>
      </trkpt>
      <trkpt lat="37.7909820" lon="-3.8668000">
        <ele>554.4</ele>
        <time>2021-12-27T14:17:33Z</time>
      </trkpt>
      <trkpt lat="37.7909860" lon="-3.8668330">
        <ele>554.4</ele>
        <time>2021-12-27T14:17:34Z</time>
      </trkpt>
      <trkpt lat="37.7909860" lon="-3.8668650">
        <ele>554.4</ele>
        <time>2021-12-27T14:17:35Z</time>
      </trkpt>
      <trkpt lat="37.7909890" lon="-3.8668970">
        <ele>554.6</ele>
        <time>2021-12-27T14:17:36Z</time>
      </trkpt>
      <trkpt lat="37.7909890" lon="-3.8669320">
        <ele>554.6</ele>
        <time>2021-12-27T14:17:37Z</time>
      </trkpt>
      <trkpt lat="37.7909890" lon="-3.8669670">
        <ele>554.6</ele>
        <time>2021-12-27T14:17:38Z</time>
      </trkpt>
      <trkpt lat="37.7909920" lon="-3.8670020">
        <ele>554.6</ele>
        <time>2021-12-27T14:17:39Z</time>
      </trkpt>
      <trkpt lat="37.7909950" lon="-3.8670360">
        <ele>554.6</ele>
        <time>2021-12-27T14:17:40Z</time>
      </trkpt>
      <trkpt lat="37.7910020" lon="-3.8670680">
        <ele>554.6</ele>
        <time>2021-12-27T14:17:41Z</time>
      </trkpt>
      <trkpt lat="37.7910050" lon="-3.8671000">
        <ele>554.6</ele>
        <time>2021-12-27T14:17:42Z</time>
      </trkpt>
      <trkpt lat="37.7910080" lon="-3.8671280">
        <ele>554.6</ele>
        <time>2021-12-27T14:17:43Z</time>
      </trkpt>
      <trkpt lat="37.7910080" lon="-3.8671570">
        <ele>554.6</ele>
        <time>2021-12-27T14:17:44Z</time>
      </trkpt>
      <trkpt lat="37.7910110" lon="-3.8671820">
        <ele>554.4</ele>
        <time>2021-12-27T14:17:45Z</time>
      </trkpt>
      <trkpt lat="37.7910110" lon="-3.8671820">
        <ele>554.4</ele>
        <time>2021-12-27T14:17:46Z</time>
      </trkpt>
      <trkpt lat="37.7910210" lon="-3.8672150">
        <ele>554.4</ele>
        <time>2021-12-27T14:17:47Z</time>
      </trkpt>
      <trkpt lat="37.7910210" lon="-3.8672150">
        <ele>554.4</ele>
        <time>2021-12-27T14:17:48Z</time>
      </trkpt>
      <trkpt lat="37.7910210" lon="-3.8672150">
        <ele>554.4</ele>
        <time>2021-12-27T14:17:49Z</time>
      </trkpt>
      <trkpt lat="37.7910210" lon="-3.8672150">
        <ele>554.4</ele>
        <time>2021-12-27T14:17:50Z</time>
      </trkpt>
      <trkpt lat="37.7910210" lon="-3.8672150">
        <ele>554.6</ele>
        <time>2021-12-27T14:17:51Z</time>
      </trkpt>
      <trkpt lat="37.7910530" lon="-3.8673300">
        <ele>556.4</ele>
        <time>2021-12-27T14:20:25Z</time>
      </trkpt>
      <trkpt lat="37.7910560" lon="-3.8673620">
        <ele>556.6</ele>
        <time>2021-12-27T14:20:26Z</time>
      </trkpt>
      <trkpt lat="37.7910620" lon="-3.8673950">
        <ele>556.6</ele>
        <time>2021-12-27T14:20:27Z</time>
      </trkpt>
      <trkpt lat="37.7910620" lon="-3.8674300">
        <ele>556.6</ele>
        <time>2021-12-27T14:20:28Z</time>
      </trkpt>
      <trkpt lat="37.7910690" lon="-3.8674820">
        <ele>556.6</ele>
        <time>2021-12-27T14:20:29Z</time>
      </trkpt>
      <trkpt lat="37.7910720" lon="-3.8675000">
        <ele>556.6</ele>
        <time>2021-12-27T14:20:30Z</time>
      </trkpt>
      <trkpt lat="37.7910750" lon="-3.8675350">
        <ele>556.4</ele>
        <time>2021-12-27T14:20:31Z</time>
      </trkpt>
      <trkpt lat="37.7910750" lon="-3.8675650">
        <ele>556.4</ele>
        <time>2021-12-27T14:20:32Z</time>
      </trkpt>
      <trkpt lat="37.7910820" lon="-3.8675970">
        <ele>556.4</ele>
        <time>2021-12-27T14:20:33Z</time>
      </trkpt>
      <trkpt lat="37.7910850" lon="-3.8676280">
        <ele>556.4</ele>
        <time>2021-12-27T14:20:34Z</time>
      </trkpt>
      <trkpt lat="37.7910880" lon="-3.8676630">
        <ele>556.4</ele>
        <time>2021-12-27T14:20:35Z</time>
      </trkpt>
      <trkpt lat="37.7910910" lon="-3.8676970">
        <ele>556.4</ele>
        <time>2021-12-27T14:20:36Z</time>
      </trkpt>
      <trkpt lat="37.7910910" lon="-3.8677270">
        <ele>556.4</ele>
        <time>2021-12-27T14:20:37Z</time>
      </trkpt>
      <trkpt lat="37.7910940" lon="-3.8677570">
        <ele>556.2</ele>
        <time>2021-12-27T14:20:38Z</time>
      </trkpt>
      <trkpt lat="37.7911010" lon="-3.8677850">
        <ele>556.2</ele>
        <time>2021-12-27T14:20:39Z</time>
      </trkpt>
      <trkpt lat="37.7911040" lon="-3.8678170">
        <ele>556.0</ele>
        <time>2021-12-27T14:20:40Z</time>
      </trkpt>
      <trkpt lat="37.7911100" lon="-3.8678480">
        <ele>556.0</ele>
        <time>2021-12-27T14:20:41Z</time>
      </trkpt>
      <trkpt lat="37.7911180" lon="-3.8678970">
        <ele>556.0</ele>
        <time>2021-12-27T14:20:42Z</time>
      </trkpt>
      <trkpt lat="37.7911230" lon="-3.8679130">
        <ele>556.0</ele>
        <time>2021-12-27T14:20:43Z</time>
      </trkpt>
      <trkpt lat="37.7911260" lon="-3.8679450">
        <ele>556.0</ele>
        <time>2021-12-27T14:20:44Z</time>
      </trkpt>
      <trkpt lat="37.7911300" lon="-3.8679770">
        <ele>556.0</ele>
        <time>2021-12-27T14:20:45Z</time>
      </trkpt>
      <trkpt lat="37.7911390" lon="-3.8680070">
        <ele>556.0</ele>
        <time>2021-12-27T14:20:46Z</time>
      </trkpt>
      <trkpt lat="37.7911420" lon="-3.8680380">
        <ele>556.0</ele>
        <time>2021-12-27T14:20:47Z</time>
      </trkpt>
      <trkpt lat="37.7911460" lon="-3.8680700">
        <ele>555.8</ele>
        <time>2021-12-27T14:20:48Z</time>
      </trkpt>
      <trkpt lat="37.7911520" lon="-3.8681000">
        <ele>555.8</ele>
        <time>2021-12-27T14:20:49Z</time>
      </trkpt>
      <trkpt lat="37.7911620" lon="-3.8681300">
        <ele>555.8</ele>
        <time>2021-12-27T14:20:50Z</time>
      </trkpt>
      <trkpt lat="37.7911680" lon="-3.8681620">
        <ele>555.8</ele>
        <time>2021-12-27T14:20:51Z</time>
      </trkpt>
      <trkpt lat="37.7911810" lon="-3.8681930">
        <ele>556.0</ele>
        <time>2021-12-27T14:20:52Z</time>
      </trkpt>
      <trkpt lat="37.7911840" lon="-3.8682230">
        <ele>555.8</ele>
        <time>2021-12-27T14:20:53Z</time>
      </trkpt>
      <trkpt lat="37.7911870" lon="-3.8682530">
        <ele>555.8</ele>
        <time>2021-12-27T14:20:54Z</time>
      </trkpt>
      <trkpt lat="37.7911940" lon="-3.8682830">
        <ele>555.8</ele>
        <time>2021-12-27T14:20:55Z</time>
      </trkpt>
      <trkpt lat="37.7912030" lon="-3.8683150">
        <ele>555.6</ele>
        <time>2021-12-27T14:20:56Z</time>
      </trkpt>
      <trkpt lat="37.7912100" lon="-3.8683480">
        <ele>555.6</ele>
        <time>2021-12-27T14:20:57Z</time>
      </trkpt>
      <trkpt lat="37.7912190" lon="-3.8683800">
        <ele>555.6</ele>
        <time>2021-12-27T14:20:58Z</time>
      </trkpt>
      <trkpt lat="37.7912260" lon="-3.8684120">
        <ele>555.6</ele>
        <time>2021-12-27T14:20:59Z</time>
      </trkpt>
      <trkpt lat="37.7912380" lon="-3.8684450">
        <ele>555.8</ele>
        <time>2021-12-27T14:21:00Z</time>
      </trkpt>
      <trkpt lat="37.7912450" lon="-3.8684780">
        <ele>555.8</ele>
        <time>2021-12-27T14:21:01Z</time>
      </trkpt>
      <trkpt lat="37.7912510" lon="-3.8685120">
        <ele>555.8</ele>
        <time>2021-12-27T14:21:02Z</time>
      </trkpt>
      <trkpt lat="37.7912540" lon="-3.8685430">
        <ele>555.6</ele>
        <time>2021-12-27T14:21:03Z</time>
      </trkpt>
      <trkpt lat="37.7912610" lon="-3.8685760">
        <ele>555.6</ele>
        <time>2021-12-27T14:21:04Z</time>
      </trkpt>
      <trkpt lat="37.7912640" lon="-3.8686080">
        <ele>555.6</ele>
        <time>2021-12-27T14:21:05Z</time>
      </trkpt>
      <trkpt lat="37.7912740" lon="-3.8686380">
        <ele>555.6</ele>
        <time>2021-12-27T14:21:06Z</time>
      </trkpt>
      <trkpt lat="37.7912800" lon="-3.8686670">
        <ele>555.6</ele>
        <time>2021-12-27T14:21:07Z</time>
      </trkpt>
      <trkpt lat="37.7912860" lon="-3.8686950">
        <ele>555.6</ele>
        <time>2021-12-27T14:21:08Z</time>
      </trkpt>
      <trkpt lat="37.7912930" lon="-3.8687220">
        <ele>555.6</ele>
        <time>2021-12-27T14:21:09Z</time>
      </trkpt>
      <trkpt lat="37.7913020" lon="-3.8687480">
        <ele>555.6</ele>
        <time>2021-12-27T14:21:10Z</time>
      </trkpt>
      <trkpt lat="37.7913060" lon="-3.8687750">
        <ele>555.6</ele>
        <time>2021-12-27T14:21:11Z</time>
      </trkpt>
      <trkpt lat="37.7913120" lon="-3.8688020">
        <ele>555.6</ele>
        <time>2021-12-27T14:21:12Z</time>
      </trkpt>
      <trkpt lat="37.7913180" lon="-3.8688280">
        <ele>555.6</ele>
        <time>2021-12-27T14:21:13Z</time>
      </trkpt>
      <trkpt lat="37.7913250" lon="-3.8688550">
        <ele>555.6</ele>
        <time>2021-12-27T14:21:14Z</time>
      </trkpt>
      <trkpt lat="37.7913310" lon="-3.8688820">
        <ele>555.6</ele>
        <time>2021-12-27T14:21:15Z</time>
      </trkpt>
      <trkpt lat="37.7913410" lon="-3.8689080">
        <ele>555.6</ele>
        <time>2021-12-27T14:21:16Z</time>
      </trkpt>
      <trkpt lat="37.7913440" lon="-3.8689360">
        <ele>555.6</ele>
        <time>2021-12-27T14:21:17Z</time>
      </trkpt>
      <trkpt lat="37.7913500" lon="-3.8689620">
        <ele>555.6</ele>
        <time>2021-12-27T14:21:18Z</time>
      </trkpt>
      <trkpt lat="37.7913540" lon="-3.8689880">
        <ele>555.6</ele>
        <time>2021-12-27T14:21:19Z</time>
      </trkpt>
      <trkpt lat="37.7913600" lon="-3.8690130">
        <ele>555.4</ele>
        <time>2021-12-27T14:21:20Z</time>
      </trkpt>
      <trkpt lat="37.7913660" lon="-3.8690380">
        <ele>555.4</ele>
        <time>2021-12-27T14:21:21Z</time>
      </trkpt>
      <trkpt lat="37.7913700" lon="-3.8690650">
        <ele>555.4</ele>
        <time>2021-12-27T14:21:22Z</time>
      </trkpt>
      <trkpt lat="37.7913790" lon="-3.8690940">
        <ele>555.4</ele>
        <time>2021-12-27T14:21:23Z</time>
      </trkpt>
      <trkpt lat="37.7913820" lon="-3.8691220">
        <ele>555.2</ele>
        <time>2021-12-27T14:21:24Z</time>
      </trkpt>
      <trkpt lat="37.7913890" lon="-3.8691500">
        <ele>555.2</ele>
        <time>2021-12-27T14:21:25Z</time>
      </trkpt>
      <trkpt lat="37.7913920" lon="-3.8691780">
        <ele>555.2</ele>
        <time>2021-12-27T14:21:26Z</time>
      </trkpt>
      <trkpt lat="37.7913980" lon="-3.8692050">
        <ele>555.2</ele>
        <time>2021-12-27T14:21:27Z</time>
      </trkpt>
      <trkpt lat="37.7914050" lon="-3.8692320">
        <ele>555.2</ele>
        <time>2021-12-27T14:21:28Z</time>
      </trkpt>
      <trkpt lat="37.7914080" lon="-3.8692600">
        <ele>555.2</ele>
        <time>2021-12-27T14:21:29Z</time>
      </trkpt>
      <trkpt lat="37.7914180" lon="-3.8692860">
        <ele>555.2</ele>
        <time>2021-12-27T14:21:30Z</time>
      </trkpt>
      <trkpt lat="37.7914210" lon="-3.8693160">
        <ele>555.2</ele>
        <time>2021-12-27T14:21:31Z</time>
      </trkpt>
      <trkpt lat="37.7914270" lon="-3.8693450">
        <ele>555.4</ele>
        <time>2021-12-27T14:21:32Z</time>
      </trkpt>
      <trkpt lat="37.7914370" lon="-3.8693730">
        <ele>555.4</ele>
        <time>2021-12-27T14:21:33Z</time>
      </trkpt>
      <trkpt lat="37.7914370" lon="-3.8694020">
        <ele>555.4</ele>
        <time>2021-12-27T14:21:34Z</time>
      </trkpt>
      <trkpt lat="37.7914430" lon="-3.8694250">
        <ele>555.4</ele>
        <time>2021-12-27T14:21:35Z</time>
      </trkpt>
      <trkpt lat="37.7914500" lon="-3.8694500">
        <ele>555.4</ele>
        <time>2021-12-27T14:21:36Z</time>
      </trkpt>
      <trkpt lat="37.7914530" lon="-3.8694770">
        <ele>555.4</ele>
        <time>2021-12-27T14:21:37Z</time>
      </trkpt>
      <trkpt lat="37.7914620" lon="-3.8695060">
        <ele>555.4</ele>
        <time>2021-12-27T14:21:38Z</time>
      </trkpt>
      <trkpt lat="37.7914690" lon="-3.8695330">
        <ele>555.6</ele>
        <time>2021-12-27T14:21:39Z</time>
      </trkpt>
      <trkpt lat="37.7914720" lon="-3.8695620">
        <ele>555.6</ele>
        <time>2021-12-27T14:21:40Z</time>
      </trkpt>
      <trkpt lat="37.7914820" lon="-3.8695880">
        <ele>555.6</ele>
        <time>2021-12-27T14:21:41Z</time>
      </trkpt>
      <trkpt lat="37.7914880" lon="-3.8696170">
        <ele>555.6</ele>
        <time>2021-12-27T14:21:42Z</time>
      </trkpt>
      <trkpt lat="37.7915010" lon="-3.8696450">
        <ele>555.8</ele>
        <time>2021-12-27T14:21:43Z</time>
      </trkpt>
      <trkpt lat="37.7915040" lon="-3.8696730">
        <ele>556.0</ele>
        <time>2021-12-27T14:21:44Z</time>
      </trkpt>
      <trkpt lat="37.7915070" lon="-3.8697000">
        <ele>556.0</ele>
        <time>2021-12-27T14:21:45Z</time>
      </trkpt>
      <trkpt lat="37.7915100" lon="-3.8697280">
        <ele>556.2</ele>
        <time>2021-12-27T14:21:46Z</time>
      </trkpt>
      <trkpt lat="37.7915200" lon="-3.8697580">
        <ele>556.2</ele>
        <time>2021-12-27T14:21:47Z</time>
      </trkpt>
      <trkpt lat="37.7915230" lon="-3.8697870">
        <ele>556.2</ele>
        <time>2021-12-27T14:21:48Z</time>
      </trkpt>
      <trkpt lat="37.7915300" lon="-3.8698170">
        <ele>556.2</ele>
        <time>2021-12-27T14:21:49Z</time>
      </trkpt>
      <trkpt lat="37.7915390" lon="-3.8698450">
        <ele>556.4</ele>
        <time>2021-12-27T14:21:50Z</time>
      </trkpt>
      <trkpt lat="37.7915420" lon="-3.8698730">
        <ele>556.4</ele>
        <time>2021-12-27T14:21:51Z</time>
      </trkpt>
      <trkpt lat="37.7915490" lon="-3.8699020">
        <ele>556.4</ele>
        <time>2021-12-27T14:21:52Z</time>
      </trkpt>
      <trkpt lat="37.7915580" lon="-3.8699300">
        <ele>556.4</ele>
        <time>2021-12-27T14:21:53Z</time>
      </trkpt>
      <trkpt lat="37.7915650" lon="-3.8699580">
        <ele>556.4</ele>
        <time>2021-12-27T14:21:54Z</time>
      </trkpt>
      <trkpt lat="37.7915680" lon="-3.8699850">
        <ele>556.4</ele>
        <time>2021-12-27T14:21:55Z</time>
      </trkpt>
      <trkpt lat="37.7915780" lon="-3.8700150">
        <ele>556.4</ele>
        <time>2021-12-27T14:21:56Z</time>
      </trkpt>
      <trkpt lat="37.7915810" lon="-3.8700430">
        <ele>556.4</ele>
        <time>2021-12-27T14:21:57Z</time>
      </trkpt>
      <trkpt lat="37.7915870" lon="-3.8700730">
        <ele>556.4</ele>
        <time>2021-12-27T14:21:58Z</time>
      </trkpt>
      <trkpt lat="37.7915900" lon="-3.8701020">
        <ele>556.4</ele>
        <time>2021-12-27T14:21:59Z</time>
      </trkpt>
      <trkpt lat="37.7916000" lon="-3.8701320">
        <ele>556.4</ele>
        <time>2021-12-27T14:22:00Z</time>
      </trkpt>
      <trkpt lat="37.7916060" lon="-3.8701600">
        <ele>556.4</ele>
        <time>2021-12-27T14:22:01Z</time>
      </trkpt>
      <trkpt lat="37.7916160" lon="-3.8701880">
        <ele>556.6</ele>
        <time>2021-12-27T14:22:02Z</time>
      </trkpt>
      <trkpt lat="37.7916190" lon="-3.8702180">
        <ele>556.6</ele>
        <time>2021-12-27T14:22:03Z</time>
      </trkpt>
      <trkpt lat="37.7916260" lon="-3.8702450">
        <ele>556.6</ele>
        <time>2021-12-27T14:22:04Z</time>
      </trkpt>
      <trkpt lat="37.7916350" lon="-3.8702720">
        <ele>556.6</ele>
        <time>2021-12-27T14:22:05Z</time>
      </trkpt>
      <trkpt lat="37.7916420" lon="-3.8702970">
        <ele>556.6</ele>
        <time>2021-12-27T14:22:06Z</time>
      </trkpt>
      <trkpt lat="37.7916510" lon="-3.8703240">
        <ele>556.6</ele>
        <time>2021-12-27T14:22:07Z</time>
      </trkpt>
      <trkpt lat="37.7916580" lon="-3.8703500">
        <ele>556.6</ele>
        <time>2021-12-27T14:22:08Z</time>
      </trkpt>
      <trkpt lat="37.7916640" lon="-3.8703800">
        <ele>556.6</ele>
        <time>2021-12-27T14:22:09Z</time>
      </trkpt>
      <trkpt lat="37.7916670" lon="-3.8704070">
        <ele>556.8</ele>
        <time>2021-12-27T14:22:10Z</time>
      </trkpt>
      <trkpt lat="37.7916700" lon="-3.8704330">
        <ele>556.8</ele>
        <time>2021-12-27T14:22:11Z</time>
      </trkpt>
      <trkpt lat="37.7916830" lon="-3.8704620">
        <ele>556.8</ele>
        <time>2021-12-27T14:22:12Z</time>
      </trkpt>
      <trkpt lat="37.7916860" lon="-3.8704900">
        <ele>556.8</ele>
        <time>2021-12-27T14:22:13Z</time>
      </trkpt>
      <trkpt lat="37.7916960" lon="-3.8705200">
        <ele>557.0</ele>
        <time>2021-12-27T14:22:14Z</time>
      </trkpt>
      <trkpt lat="37.7917020" lon="-3.8705480">
        <ele>557.0</ele>
        <time>2021-12-27T14:22:15Z</time>
      </trkpt>
      <trkpt lat="37.7917090" lon="-3.8705770">
        <ele>557.0</ele>
        <time>2021-12-27T14:22:16Z</time>
      </trkpt>
      <trkpt lat="37.7917150" lon="-3.8706070">
        <ele>557.0</ele>
        <time>2021-12-27T14:22:17Z</time>
      </trkpt>
      <trkpt lat="37.7917250" lon="-3.8706350">
        <ele>557.0</ele>
        <time>2021-12-27T14:22:18Z</time>
      </trkpt>
      <trkpt lat="37.7917310" lon="-3.8706640">
        <ele>557.0</ele>
        <time>2021-12-27T14:22:19Z</time>
      </trkpt>
      <trkpt lat="37.7917380" lon="-3.8706900">
        <ele>557.2</ele>
        <time>2021-12-27T14:22:20Z</time>
      </trkpt>
      <trkpt lat="37.7917440" lon="-3.8707200">
        <ele>557.2</ele>
        <time>2021-12-27T14:22:21Z</time>
      </trkpt>
      <trkpt lat="37.7917500" lon="-3.8707500">
        <ele>557.4</ele>
        <time>2021-12-27T14:22:22Z</time>
      </trkpt>
      <trkpt lat="37.7917570" lon="-3.8707800">
        <ele>557.4</ele>
        <time>2021-12-27T14:22:23Z</time>
      </trkpt>
      <trkpt lat="37.7917630" lon="-3.8708100">
        <ele>557.4</ele>
        <time>2021-12-27T14:22:24Z</time>
      </trkpt>
      <trkpt lat="37.7917660" lon="-3.8708420">
        <ele>557.6</ele>
        <time>2021-12-27T14:22:25Z</time>
      </trkpt>
      <trkpt lat="37.7917790" lon="-3.8708680">
        <ele>557.6</ele>
        <time>2021-12-27T14:22:26Z</time>
      </trkpt>
      <trkpt lat="37.7917860" lon="-3.8708980">
        <ele>557.8</ele>
        <time>2021-12-27T14:22:27Z</time>
      </trkpt>
      <trkpt lat="37.7917890" lon="-3.8709350">
        <ele>557.8</ele>
        <time>2021-12-27T14:22:28Z</time>
      </trkpt>
      <trkpt lat="37.7917980" lon="-3.8709580">
        <ele>557.8</ele>
        <time>2021-12-27T14:22:29Z</time>
      </trkpt>
      <trkpt lat="37.7918020" lon="-3.8709920">
        <ele>557.8</ele>
        <time>2021-12-27T14:22:30Z</time>
      </trkpt>
      <trkpt lat="37.7918140" lon="-3.8710220">
        <ele>557.8</ele>
        <time>2021-12-27T14:22:31Z</time>
      </trkpt>
      <trkpt lat="37.7918180" lon="-3.8710530">
        <ele>557.8</ele>
        <time>2021-12-27T14:22:32Z</time>
      </trkpt>
      <trkpt lat="37.7918270" lon="-3.8710830">
        <ele>557.8</ele>
        <time>2021-12-27T14:22:33Z</time>
      </trkpt>
      <trkpt lat="37.7918370" lon="-3.8711170">
        <ele>557.8</ele>
        <time>2021-12-27T14:22:34Z</time>
      </trkpt>
      <trkpt lat="37.7918430" lon="-3.8711470">
        <ele>557.8</ele>
        <time>2021-12-27T14:22:35Z</time>
      </trkpt>
      <trkpt lat="37.7918460" lon="-3.8711780">
        <ele>557.8</ele>
        <time>2021-12-27T14:22:36Z</time>
      </trkpt>
      <trkpt lat="37.7918500" lon="-3.8712100">
        <ele>558.0</ele>
        <time>2021-12-27T14:22:37Z</time>
      </trkpt>
      <trkpt lat="37.7918590" lon="-3.8712400">
        <ele>558.0</ele>
        <time>2021-12-27T14:22:38Z</time>
      </trkpt>
      <trkpt lat="37.7918690" lon="-3.8712680">
        <ele>558.0</ele>
        <time>2021-12-27T14:22:39Z</time>
      </trkpt>
      <trkpt lat="37.7918820" lon="-3.8712980">
        <ele>558.2</ele>
        <time>2021-12-27T14:22:40Z</time>
      </trkpt>
      <trkpt lat="37.7918850" lon="-3.8713280">
        <ele>558.2</ele>
        <time>2021-12-27T14:22:41Z</time>
      </trkpt>
      <trkpt lat="37.7918940" lon="-3.8713570">
        <ele>558.2</ele>
        <time>2021-12-27T14:22:42Z</time>
      </trkpt>
      <trkpt lat="37.7919010" lon="-3.8713850">
        <ele>558.2</ele>
        <time>2021-12-27T14:22:43Z</time>
      </trkpt>
      <trkpt lat="37.7919070" lon="-3.8714120">
        <ele>558.2</ele>
        <time>2021-12-27T14:22:44Z</time>
      </trkpt>
      <trkpt lat="37.7919070" lon="-3.8714420">
        <ele>558.0</ele>
        <time>2021-12-27T14:22:45Z</time>
      </trkpt>
      <trkpt lat="37.7919170" lon="-3.8714700">
        <ele>558.2</ele>
        <time>2021-12-27T14:22:46Z</time>
      </trkpt>
      <trkpt lat="37.7919230" lon="-3.8714970">
        <ele>558.2</ele>
        <time>2021-12-27T14:22:47Z</time>
      </trkpt>
      <trkpt lat="37.7919360" lon="-3.8715250">
        <ele>558.2</ele>
        <time>2021-12-27T14:22:48Z</time>
      </trkpt>
      <trkpt lat="37.7919390" lon="-3.8715540">
        <ele>558.2</ele>
        <time>2021-12-27T14:22:49Z</time>
      </trkpt>
      <trkpt lat="37.7919420" lon="-3.8715840">
        <ele>558.4</ele>
        <time>2021-12-27T14:22:50Z</time>
      </trkpt>
      <trkpt lat="37.7919490" lon="-3.8716200">
        <ele>558.4</ele>
        <time>2021-12-27T14:22:51Z</time>
      </trkpt>
      <trkpt lat="37.7919580" lon="-3.8716430">
        <ele>558.4</ele>
        <time>2021-12-27T14:22:52Z</time>
      </trkpt>
      <trkpt lat="37.7919650" lon="-3.8716720">
        <ele>558.4</ele>
        <time>2021-12-27T14:22:53Z</time>
      </trkpt>
      <trkpt lat="37.7919740" lon="-3.8717020">
        <ele>558.6</ele>
        <time>2021-12-27T14:22:54Z</time>
      </trkpt>
      <trkpt lat="37.7919810" lon="-3.8717300">
        <ele>558.6</ele>
        <time>2021-12-27T14:22:55Z</time>
      </trkpt>
      <trkpt lat="37.7919870" lon="-3.8717600">
        <ele>558.8</ele>
        <time>2021-12-27T14:22:56Z</time>
      </trkpt>
      <trkpt lat="37.7919940" lon="-3.8717850">
        <ele>558.8</ele>
        <time>2021-12-27T14:22:57Z</time>
      </trkpt>
      <trkpt lat="37.7919970" lon="-3.8718130">
        <ele>558.8</ele>
        <time>2021-12-27T14:22:58Z</time>
      </trkpt>
      <trkpt lat="37.7920030" lon="-3.8718430">
        <ele>558.6</ele>
        <time>2021-12-27T14:22:59Z</time>
      </trkpt>
      <trkpt lat="37.7920130" lon="-3.8718730">
        <ele>558.6</ele>
        <time>2021-12-27T14:23:00Z</time>
      </trkpt>
      <trkpt lat="37.7920160" lon="-3.8719040">
        <ele>558.8</ele>
        <time>2021-12-27T14:23:01Z</time>
      </trkpt>
      <trkpt lat="37.7920220" lon="-3.8719340">
        <ele>558.8</ele>
        <time>2021-12-27T14:23:02Z</time>
      </trkpt>
      <trkpt lat="37.7920290" lon="-3.8719620">
        <ele>558.8</ele>
        <time>2021-12-27T14:23:03Z</time>
      </trkpt>
      <trkpt lat="37.7920380" lon="-3.8719900">
        <ele>558.8</ele>
        <time>2021-12-27T14:23:04Z</time>
      </trkpt>
      <trkpt lat="37.7920420" lon="-3.8720200">
        <ele>558.8</ele>
        <time>2021-12-27T14:23:05Z</time>
      </trkpt>
      <trkpt lat="37.7920540" lon="-3.8720480">
        <ele>558.8</ele>
        <time>2021-12-27T14:23:06Z</time>
      </trkpt>
      <trkpt lat="37.7920610" lon="-3.8720780">
        <ele>558.8</ele>
        <time>2021-12-27T14:23:07Z</time>
      </trkpt>
      <trkpt lat="37.7920670" lon="-3.8721060">
        <ele>558.8</ele>
        <time>2021-12-27T14:23:08Z</time>
      </trkpt>
      <trkpt lat="37.7920740" lon="-3.8721400">
        <ele>558.8</ele>
        <time>2021-12-27T14:23:09Z</time>
      </trkpt>
      <trkpt lat="37.7920770" lon="-3.8721650">
        <ele>558.8</ele>
        <time>2021-12-27T14:23:10Z</time>
      </trkpt>
      <trkpt lat="37.7920830" lon="-3.8721930">
        <ele>558.8</ele>
        <time>2021-12-27T14:23:11Z</time>
      </trkpt>
      <trkpt lat="37.7920930" lon="-3.8722230">
        <ele>558.8</ele>
        <time>2021-12-27T14:23:12Z</time>
      </trkpt>
      <trkpt lat="37.7920960" lon="-3.8722540">
        <ele>558.8</ele>
        <time>2021-12-27T14:23:13Z</time>
      </trkpt>
      <trkpt lat="37.7921020" lon="-3.8722850">
        <ele>559.0</ele>
        <time>2021-12-27T14:23:14Z</time>
      </trkpt>
      <trkpt lat="37.7921060" lon="-3.8723160">
        <ele>559.0</ele>
        <time>2021-12-27T14:23:15Z</time>
      </trkpt>
      <trkpt lat="37.7921180" lon="-3.8723430">
        <ele>559.0</ele>
        <time>2021-12-27T14:23:16Z</time>
      </trkpt>
      <trkpt lat="37.7921250" lon="-3.8723700">
        <ele>559.2</ele>
        <time>2021-12-27T14:23:17Z</time>
      </trkpt>
      <trkpt lat="37.7921340" lon="-3.8723980">
        <ele>559.2</ele>
        <time>2021-12-27T14:23:18Z</time>
      </trkpt>
      <trkpt lat="37.7921410" lon="-3.8724270">
        <ele>559.2</ele>
        <time>2021-12-27T14:23:19Z</time>
      </trkpt>
      <trkpt lat="37.7921470" lon="-3.8724560">
        <ele>559.2</ele>
        <time>2021-12-27T14:23:20Z</time>
      </trkpt>
      <trkpt lat="37.7921540" lon="-3.8724850">
        <ele>559.2</ele>
        <time>2021-12-27T14:23:21Z</time>
      </trkpt>
      <trkpt lat="37.7921570" lon="-3.8725150">
        <ele>559.2</ele>
        <time>2021-12-27T14:23:22Z</time>
      </trkpt>
      <trkpt lat="37.7921600" lon="-3.8725450">
        <ele>559.2</ele>
        <time>2021-12-27T14:23:23Z</time>
      </trkpt>
      <trkpt lat="37.7921630" lon="-3.8725770">
        <ele>559.2</ele>
        <time>2021-12-27T14:23:24Z</time>
      </trkpt>
      <trkpt lat="37.7921730" lon="-3.8726080">
        <ele>559.4</ele>
        <time>2021-12-27T14:23:25Z</time>
      </trkpt>
      <trkpt lat="37.7921760" lon="-3.8726400">
        <ele>559.4</ele>
        <time>2021-12-27T14:23:26Z</time>
      </trkpt>
      <trkpt lat="37.7921820" lon="-3.8726780">
        <ele>559.6</ele>
        <time>2021-12-27T14:23:27Z</time>
      </trkpt>
      <trkpt lat="37.7921860" lon="-3.8727030">
        <ele>559.6</ele>
        <time>2021-12-27T14:23:28Z</time>
      </trkpt>
      <trkpt lat="37.7921920" lon="-3.8727350">
        <ele>559.6</ele>
        <time>2021-12-27T14:23:29Z</time>
      </trkpt>
      <trkpt lat="37.7921950" lon="-3.8727650">
        <ele>559.8</ele>
        <time>2021-12-27T14:23:30Z</time>
      </trkpt>
      <trkpt lat="37.7921980" lon="-3.8727960">
        <ele>559.8</ele>
        <time>2021-12-27T14:23:31Z</time>
      </trkpt>
      <trkpt lat="37.7922050" lon="-3.8728280">
        <ele>560.0</ele>
        <time>2021-12-27T14:23:32Z</time>
      </trkpt>
      <trkpt lat="37.7922140" lon="-3.8728570">
        <ele>560.0</ele>
        <time>2021-12-27T14:23:33Z</time>
      </trkpt>
      <trkpt lat="37.7922140" lon="-3.8728870">
        <ele>560.0</ele>
        <time>2021-12-27T14:23:34Z</time>
      </trkpt>
      <trkpt lat="37.7922180" lon="-3.8729170">
        <ele>560.2</ele>
        <time>2021-12-27T14:23:35Z</time>
      </trkpt>
      <trkpt lat="37.7922180" lon="-3.8729450">
        <ele>560.2</ele>
        <time>2021-12-27T14:23:36Z</time>
      </trkpt>
      <trkpt lat="37.7922210" lon="-3.8729740">
        <ele>560.2</ele>
        <time>2021-12-27T14:23:37Z</time>
      </trkpt>
      <trkpt lat="37.7922240" lon="-3.8730030">
        <ele>560.2</ele>
        <time>2021-12-27T14:23:38Z</time>
      </trkpt>
      <trkpt lat="37.7922270" lon="-3.8730330">
        <ele>560.2</ele>
        <time>2021-12-27T14:23:39Z</time>
      </trkpt>
      <trkpt lat="37.7922340" lon="-3.8730630">
        <ele>560.2</ele>
        <time>2021-12-27T14:23:40Z</time>
      </trkpt>
      <trkpt lat="37.7922370" lon="-3.8730930">
        <ele>560.2</ele>
        <time>2021-12-27T14:23:41Z</time>
      </trkpt>
      <trkpt lat="37.7922370" lon="-3.8731240">
        <ele>560.2</ele>
        <time>2021-12-27T14:23:42Z</time>
      </trkpt>
      <trkpt lat="37.7922400" lon="-3.8731530">
        <ele>560.2</ele>
        <time>2021-12-27T14:23:43Z</time>
      </trkpt>
      <trkpt lat="37.7922400" lon="-3.8731880">
        <ele>560.4</ele>
        <time>2021-12-27T14:23:44Z</time>
      </trkpt>
      <trkpt lat="37.7922460" lon="-3.8732180">
        <ele>560.4</ele>
        <time>2021-12-27T14:23:45Z</time>
      </trkpt>
      <trkpt lat="37.7922460" lon="-3.8732430">
        <ele>560.6</ele>
        <time>2021-12-27T14:23:46Z</time>
      </trkpt>
      <trkpt lat="37.7922530" lon="-3.8732720">
        <ele>560.6</ele>
        <time>2021-12-27T14:23:47Z</time>
      </trkpt>
      <trkpt lat="37.7922530" lon="-3.8732980">
        <ele>560.6</ele>
        <time>2021-12-27T14:23:48Z</time>
      </trkpt>
      <trkpt lat="37.7922530" lon="-3.8733240">
        <ele>560.8</ele>
        <time>2021-12-27T14:23:49Z</time>
      </trkpt>
      <trkpt lat="37.7922590" lon="-3.8733500">
        <ele>560.8</ele>
        <time>2021-12-27T14:23:50Z</time>
      </trkpt>
      <trkpt lat="37.7922590" lon="-3.8733780">
        <ele>561.0</ele>
        <time>2021-12-27T14:23:51Z</time>
      </trkpt>
      <trkpt lat="37.7922620" lon="-3.8734070">
        <ele>561.0</ele>
        <time>2021-12-27T14:23:52Z</time>
      </trkpt>
      <trkpt lat="37.7922620" lon="-3.8734350">
        <ele>561.2</ele>
        <time>2021-12-27T14:23:53Z</time>
      </trkpt>
      <trkpt lat="37.7922620" lon="-3.8734630">
        <ele>561.2</ele>
        <time>2021-12-27T14:23:54Z</time>
      </trkpt>
      <trkpt lat="37.7922620" lon="-3.8734930">
        <ele>561.2</ele>
        <time>2021-12-27T14:23:55Z</time>
      </trkpt>
      <trkpt lat="37.7922660" lon="-3.8735200">
        <ele>561.4</ele>
        <time>2021-12-27T14:23:56Z</time>
      </trkpt>
      <trkpt lat="37.7922620" lon="-3.8735500">
        <ele>561.4</ele>
        <time>2021-12-27T14:23:57Z</time>
      </trkpt>
      <trkpt lat="37.7922660" lon="-3.8735730">
        <ele>561.4</ele>
        <time>2021-12-27T14:23:58Z</time>
      </trkpt>
      <trkpt lat="37.7922660" lon="-3.8736000">
        <ele>561.4</ele>
        <time>2021-12-27T14:23:59Z</time>
      </trkpt>
      <trkpt lat="37.7922660" lon="-3.8736270">
        <ele>561.4</ele>
        <time>2021-12-27T14:24:00Z</time>
      </trkpt>
      <trkpt lat="37.7922660" lon="-3.8736550">
        <ele>561.4</ele>
        <time>2021-12-27T14:24:01Z</time>
      </trkpt>
      <trkpt lat="37.7922660" lon="-3.8736820">
        <ele>561.4</ele>
        <time>2021-12-27T14:24:02Z</time>
      </trkpt>
      <trkpt lat="37.7922660" lon="-3.8737160">
        <ele>561.4</ele>
        <time>2021-12-27T14:24:03Z</time>
      </trkpt>
      <trkpt lat="37.7922660" lon="-3.8737400">
        <ele>561.6</ele>
        <time>2021-12-27T14:24:04Z</time>
      </trkpt>
      <trkpt lat="37.7922660" lon="-3.8737720">
        <ele>561.6</ele>
        <time>2021-12-27T14:24:05Z</time>
      </trkpt>
      <trkpt lat="37.7922620" lon="-3.8738020">
        <ele>561.8</ele>
        <time>2021-12-27T14:24:06Z</time>
      </trkpt>
      <trkpt lat="37.7922620" lon="-3.8738320">
        <ele>561.8</ele>
        <time>2021-12-27T14:24:07Z</time>
      </trkpt>
      <trkpt lat="37.7922620" lon="-3.8738600">
        <ele>561.8</ele>
        <time>2021-12-27T14:24:08Z</time>
      </trkpt>
      <trkpt lat="37.7922590" lon="-3.8738860">
        <ele>561.8</ele>
        <time>2021-12-27T14:24:09Z</time>
      </trkpt>
      <trkpt lat="37.7922590" lon="-3.8739150">
        <ele>561.8</ele>
        <time>2021-12-27T14:24:10Z</time>
      </trkpt>
      <trkpt lat="37.7922560" lon="-3.8739450">
        <ele>562.0</ele>
        <time>2021-12-27T14:24:11Z</time>
      </trkpt>
      <trkpt lat="37.7922560" lon="-3.8739770">
        <ele>562.0</ele>
        <time>2021-12-27T14:24:12Z</time>
      </trkpt>
      <trkpt lat="37.7922530" lon="-3.8740050">
        <ele>562.2</ele>
        <time>2021-12-27T14:24:13Z</time>
      </trkpt>
      <trkpt lat="37.7922530" lon="-3.8740340">
        <ele>562.2</ele>
        <time>2021-12-27T14:24:14Z</time>
      </trkpt>
      <trkpt lat="37.7922460" lon="-3.8740600">
        <ele>562.2</ele>
        <time>2021-12-27T14:24:15Z</time>
      </trkpt>
      <trkpt lat="37.7922430" lon="-3.8740870">
        <ele>562.2</ele>
        <time>2021-12-27T14:24:16Z</time>
      </trkpt>
      <trkpt lat="37.7922430" lon="-3.8741130">
        <ele>562.2</ele>
        <time>2021-12-27T14:24:17Z</time>
      </trkpt>
      <trkpt lat="37.7922400" lon="-3.8741370">
        <ele>562.4</ele>
        <time>2021-12-27T14:24:18Z</time>
      </trkpt>
      <trkpt lat="37.7922370" lon="-3.8741620">
        <ele>562.4</ele>
        <time>2021-12-27T14:24:19Z</time>
      </trkpt>
      <trkpt lat="37.7922340" lon="-3.8741870">
        <ele>562.4</ele>
        <time>2021-12-27T14:24:20Z</time>
      </trkpt>
      <trkpt lat="37.7922240" lon="-3.8742130">
        <ele>562.6</ele>
        <time>2021-12-27T14:24:21Z</time>
      </trkpt>
      <trkpt lat="37.7922240" lon="-3.8742400">
        <ele>562.6</ele>
        <time>2021-12-27T14:24:22Z</time>
      </trkpt>
      <trkpt lat="37.7922210" lon="-3.8742670">
        <ele>562.8</ele>
        <time>2021-12-27T14:24:23Z</time>
      </trkpt>
      <trkpt lat="37.7922180" lon="-3.8742950">
        <ele>562.8</ele>
        <time>2021-12-27T14:24:24Z</time>
      </trkpt>
      <trkpt lat="37.7922180" lon="-3.8743200">
        <ele>563.0</ele>
        <time>2021-12-27T14:24:25Z</time>
      </trkpt>
      <trkpt lat="37.7922140" lon="-3.8743540">
        <ele>563.0</ele>
        <time>2021-12-27T14:24:26Z</time>
      </trkpt>
      <trkpt lat="37.7922080" lon="-3.8743790">
        <ele>563.0</ele>
        <time>2021-12-27T14:24:27Z</time>
      </trkpt>
      <trkpt lat="37.7922020" lon="-3.8744040">
        <ele>562.8</ele>
        <time>2021-12-27T14:24:28Z</time>
      </trkpt>
      <trkpt lat="37.7921980" lon="-3.8744330">
        <ele>562.8</ele>
        <time>2021-12-27T14:24:29Z</time>
      </trkpt>
      <trkpt lat="37.7921950" lon="-3.8744600">
        <ele>562.8</ele>
        <time>2021-12-27T14:24:30Z</time>
      </trkpt>
      <trkpt lat="37.7921860" lon="-3.8744870">
        <ele>562.8</ele>
        <time>2021-12-27T14:24:31Z</time>
      </trkpt>
      <trkpt lat="37.7921820" lon="-3.8745120">
        <ele>562.8</ele>
        <time>2021-12-27T14:24:32Z</time>
      </trkpt>
      <trkpt lat="37.7921790" lon="-3.8745370">
        <ele>562.8</ele>
        <time>2021-12-27T14:24:33Z</time>
      </trkpt>
      <trkpt lat="37.7921760" lon="-3.8745630">
        <ele>562.8</ele>
        <time>2021-12-27T14:24:34Z</time>
      </trkpt>
      <trkpt lat="37.7921730" lon="-3.8745900">
        <ele>562.8</ele>
        <time>2021-12-27T14:24:35Z</time>
      </trkpt>
      <trkpt lat="37.7921730" lon="-3.8746170">
        <ele>563.0</ele>
        <time>2021-12-27T14:24:36Z</time>
      </trkpt>
      <trkpt lat="37.7921630" lon="-3.8746430">
        <ele>563.0</ele>
        <time>2021-12-27T14:24:37Z</time>
      </trkpt>
      <trkpt lat="37.7921600" lon="-3.8746680">
        <ele>563.0</ele>
        <time>2021-12-27T14:24:38Z</time>
      </trkpt>
      <trkpt lat="37.7921600" lon="-3.8746930">
        <ele>563.2</ele>
        <time>2021-12-27T14:24:39Z</time>
      </trkpt>
      <trkpt lat="37.7921540" lon="-3.8747180">
        <ele>563.2</ele>
        <time>2021-12-27T14:24:40Z</time>
      </trkpt>
      <trkpt lat="37.7921440" lon="-3.8747470">
        <ele>563.2</ele>
        <time>2021-12-27T14:24:41Z</time>
      </trkpt>
      <trkpt lat="37.7921410" lon="-3.8747720">
        <ele>563.4</ele>
        <time>2021-12-27T14:24:42Z</time>
      </trkpt>
      <trkpt lat="37.7921340" lon="-3.8747980">
        <ele>563.4</ele>
        <time>2021-12-27T14:24:43Z</time>
      </trkpt>
      <trkpt lat="37.7921280" lon="-3.8748270">
        <ele>563.4</ele>
        <time>2021-12-27T14:24:44Z</time>
      </trkpt>
      <trkpt lat="37.7921280" lon="-3.8748270">
        <ele>563.4</ele>
        <time>2021-12-27T14:24:45Z</time>
      </trkpt>
      <trkpt lat="37.7921180" lon="-3.8748700">
        <ele>563.4</ele>
        <time>2021-12-27T14:24:46Z</time>
      </trkpt>
      <trkpt lat="37.7921150" lon="-3.8748960">
        <ele>563.4</ele>
        <time>2021-12-27T14:24:47Z</time>
      </trkpt>
      <trkpt lat="37.7921120" lon="-3.8749230">
        <ele>563.4</ele>
        <time>2021-12-27T14:24:48Z</time>
      </trkpt>
      <trkpt lat="37.7921020" lon="-3.8749500">
        <ele>563.4</ele>
        <time>2021-12-27T14:24:49Z</time>
      </trkpt>
      <trkpt lat="37.7920990" lon="-3.8749770">
        <ele>563.4</ele>
        <time>2021-12-27T14:24:50Z</time>
      </trkpt>
      <trkpt lat="37.7920930" lon="-3.8750030">
        <ele>563.4</ele>
        <time>2021-12-27T14:24:51Z</time>
      </trkpt>
      <trkpt lat="37.7920830" lon="-3.8750270">
        <ele>563.4</ele>
        <time>2021-12-27T14:24:52Z</time>
      </trkpt>
      <trkpt lat="37.7920800" lon="-3.8750520">
        <ele>563.4</ele>
        <time>2021-12-27T14:24:53Z</time>
      </trkpt>
      <trkpt lat="37.7920770" lon="-3.8750770">
        <ele>563.6</ele>
        <time>2021-12-27T14:24:54Z</time>
      </trkpt>
      <trkpt lat="37.7920670" lon="-3.8751020">
        <ele>563.6</ele>
        <time>2021-12-27T14:24:55Z</time>
      </trkpt>
      <trkpt lat="37.7920610" lon="-3.8751280">
        <ele>563.8</ele>
        <time>2021-12-27T14:24:56Z</time>
      </trkpt>
      <trkpt lat="37.7920540" lon="-3.8751530">
        <ele>564.0</ele>
        <time>2021-12-27T14:24:57Z</time>
      </trkpt>
      <trkpt lat="37.7920450" lon="-3.8751780">
        <ele>564.0</ele>
        <time>2021-12-27T14:24:58Z</time>
      </trkpt>
      <trkpt lat="37.7920380" lon="-3.8752030">
        <ele>564.0</ele>
        <time>2021-12-27T14:24:59Z</time>
      </trkpt>
      <trkpt lat="37.7920290" lon="-3.8752300">
        <ele>564.2</ele>
        <time>2021-12-27T14:25:00Z</time>
      </trkpt>
      <trkpt lat="37.7920260" lon="-3.8752550">
        <ele>564.2</ele>
        <time>2021-12-27T14:25:01Z</time>
      </trkpt>
      <trkpt lat="37.7920190" lon="-3.8752780">
        <ele>564.2</ele>
        <time>2021-12-27T14:25:02Z</time>
      </trkpt>
      <trkpt lat="37.7920060" lon="-3.8753020">
        <ele>564.2</ele>
        <time>2021-12-27T14:25:03Z</time>
      </trkpt>
      <trkpt lat="37.7920000" lon="-3.8753270">
        <ele>564.2</ele>
        <time>2021-12-27T14:25:04Z</time>
      </trkpt>
      <trkpt lat="37.7919940" lon="-3.8753530">
        <ele>564.2</ele>
        <time>2021-12-27T14:25:05Z</time>
      </trkpt>
      <trkpt lat="37.7919840" lon="-3.8753770">
        <ele>564.2</ele>
        <time>2021-12-27T14:25:06Z</time>
      </trkpt>
      <trkpt lat="37.7919740" lon="-3.8754020">
        <ele>564.4</ele>
        <time>2021-12-27T14:25:07Z</time>
      </trkpt>
      <trkpt lat="37.7919620" lon="-3.8754250">
        <ele>564.4</ele>
        <time>2021-12-27T14:25:08Z</time>
      </trkpt>
      <trkpt lat="37.7919580" lon="-3.8754520">
        <ele>564.4</ele>
        <time>2021-12-27T14:25:09Z</time>
      </trkpt>
      <trkpt lat="37.7919460" lon="-3.8754780">
        <ele>564.6</ele>
        <time>2021-12-27T14:25:10Z</time>
      </trkpt>
      <trkpt lat="37.7919390" lon="-3.8755030">
        <ele>564.6</ele>
        <time>2021-12-27T14:25:11Z</time>
      </trkpt>
      <trkpt lat="37.7919260" lon="-3.8755300">
        <ele>564.8</ele>
        <time>2021-12-27T14:25:12Z</time>
      </trkpt>
      <trkpt lat="37.7919170" lon="-3.8755570">
        <ele>564.8</ele>
        <time>2021-12-27T14:25:13Z</time>
      </trkpt>
      <trkpt lat="37.7919040" lon="-3.8755800">
        <ele>564.8</ele>
        <time>2021-12-27T14:25:14Z</time>
      </trkpt>
      <trkpt lat="37.7918940" lon="-3.8756030">
        <ele>564.8</ele>
        <time>2021-12-27T14:25:15Z</time>
      </trkpt>
      <trkpt lat="37.7918820" lon="-3.8756260">
        <ele>564.8</ele>
        <time>2021-12-27T14:25:16Z</time>
      </trkpt>
      <trkpt lat="37.7918690" lon="-3.8756500">
        <ele>565.0</ele>
        <time>2021-12-27T14:25:17Z</time>
      </trkpt>
      <trkpt lat="37.7918590" lon="-3.8756730">
        <ele>565.0</ele>
        <time>2021-12-27T14:25:18Z</time>
      </trkpt>
      <trkpt lat="37.7918500" lon="-3.8756970">
        <ele>565.0</ele>
        <time>2021-12-27T14:25:19Z</time>
      </trkpt>
      <trkpt lat="37.7918430" lon="-3.8757200">
        <ele>565.0</ele>
        <time>2021-12-27T14:25:20Z</time>
      </trkpt>
      <trkpt lat="37.7918300" lon="-3.8757450">
        <ele>564.8</ele>
        <time>2021-12-27T14:25:21Z</time>
      </trkpt>
      <trkpt lat="37.7918240" lon="-3.8757680">
        <ele>564.8</ele>
        <time>2021-12-27T14:25:22Z</time>
      </trkpt>
      <trkpt lat="37.7918140" lon="-3.8757940">
        <ele>564.8</ele>
        <time>2021-12-27T14:25:23Z</time>
      </trkpt>
      <trkpt lat="37.7918050" lon="-3.8758160">
        <ele>565.0</ele>
        <time>2021-12-27T14:25:24Z</time>
      </trkpt>
      <trkpt lat="37.7917950" lon="-3.8758420">
        <ele>565.0</ele>
        <time>2021-12-27T14:25:25Z</time>
      </trkpt>
      <trkpt lat="37.7917860" lon="-3.8758630">
        <ele>565.2</ele>
        <time>2021-12-27T14:25:26Z</time>
      </trkpt>
      <trkpt lat="37.7917760" lon="-3.8758900">
        <ele>565.2</ele>
        <time>2021-12-27T14:25:27Z</time>
      </trkpt>
      <trkpt lat="37.7917630" lon="-3.8759170">
        <ele>565.2</ele>
        <time>2021-12-27T14:25:28Z</time>
      </trkpt>
      <trkpt lat="37.7917570" lon="-3.8759440">
        <ele>565.4</ele>
        <time>2021-12-27T14:25:29Z</time>
      </trkpt>
      <trkpt lat="37.7917410" lon="-3.8759680">
        <ele>565.4</ele>
        <time>2021-12-27T14:25:30Z</time>
      </trkpt>
      <trkpt lat="37.7917280" lon="-3.8759900">
        <ele>565.4</ele>
        <time>2021-12-27T14:25:31Z</time>
      </trkpt>
      <trkpt lat="37.7917180" lon="-3.8760120">
        <ele>565.4</ele>
        <time>2021-12-27T14:25:32Z</time>
      </trkpt>
      <trkpt lat="37.7917090" lon="-3.8760350">
        <ele>565.4</ele>
        <time>2021-12-27T14:25:33Z</time>
      </trkpt>
      <trkpt lat="37.7916990" lon="-3.8760580">
        <ele>565.6</ele>
        <time>2021-12-27T14:25:34Z</time>
      </trkpt>
      <trkpt lat="37.7916830" lon="-3.8760800">
        <ele>565.6</ele>
        <time>2021-12-27T14:25:35Z</time>
      </trkpt>
      <trkpt lat="37.7916700" lon="-3.8761020">
        <ele>565.6</ele>
        <time>2021-12-27T14:25:36Z</time>
      </trkpt>
      <trkpt lat="37.7916610" lon="-3.8761250">
        <ele>565.6</ele>
        <time>2021-12-27T14:25:37Z</time>
      </trkpt>
      <trkpt lat="37.7916480" lon="-3.8761470">
        <ele>565.8</ele>
        <time>2021-12-27T14:25:38Z</time>
      </trkpt>
      <trkpt lat="37.7916420" lon="-3.8761680">
        <ele>565.8</ele>
        <time>2021-12-27T14:25:39Z</time>
      </trkpt>
      <trkpt lat="37.7916290" lon="-3.8761900">
        <ele>565.8</ele>
        <time>2021-12-27T14:25:40Z</time>
      </trkpt>
      <trkpt lat="37.7916160" lon="-3.8762130">
        <ele>565.8</ele>
        <time>2021-12-27T14:25:41Z</time>
      </trkpt>
      <trkpt lat="37.7916030" lon="-3.8762370">
        <ele>565.8</ele>
        <time>2021-12-27T14:25:42Z</time>
      </trkpt>
      <trkpt lat="37.7915870" lon="-3.8762570">
        <ele>565.8</ele>
        <time>2021-12-27T14:25:43Z</time>
      </trkpt>
      <trkpt lat="37.7915780" lon="-3.8762800">
        <ele>565.8</ele>
        <time>2021-12-27T14:25:44Z</time>
      </trkpt>
      <trkpt lat="37.7915620" lon="-3.8763000">
        <ele>565.8</ele>
        <time>2021-12-27T14:25:45Z</time>
      </trkpt>
      <trkpt lat="37.7915490" lon="-3.8763230">
        <ele>565.8</ele>
        <time>2021-12-27T14:25:46Z</time>
      </trkpt>
      <trkpt lat="37.7915360" lon="-3.8763460">
        <ele>565.8</ele>
        <time>2021-12-27T14:25:47Z</time>
      </trkpt>
      <trkpt lat="37.7915200" lon="-3.8763700">
        <ele>565.8</ele>
        <time>2021-12-27T14:25:48Z</time>
      </trkpt>
      <trkpt lat="37.7915070" lon="-3.8763920">
        <ele>565.8</ele>
        <time>2021-12-27T14:25:49Z</time>
      </trkpt>
      <trkpt lat="37.7914880" lon="-3.8764180">
        <ele>566.0</ele>
        <time>2021-12-27T14:25:50Z</time>
      </trkpt>
      <trkpt lat="37.7914880" lon="-3.8764180">
        <ele>566.0</ele>
        <time>2021-12-27T14:25:51Z</time>
      </trkpt>
      <trkpt lat="37.7914660" lon="-3.8764600">
        <ele>566.2</ele>
        <time>2021-12-27T14:25:52Z</time>
      </trkpt>
      <trkpt lat="37.7914500" lon="-3.8764850">
        <ele>566.2</ele>
        <time>2021-12-27T14:25:53Z</time>
      </trkpt>
      <trkpt lat="37.7914370" lon="-3.8765080">
        <ele>566.4</ele>
        <time>2021-12-27T14:25:54Z</time>
      </trkpt>
      <trkpt lat="37.7914210" lon="-3.8765330">
        <ele>566.4</ele>
        <time>2021-12-27T14:25:55Z</time>
      </trkpt>
      <trkpt lat="37.7914080" lon="-3.8765580">
        <ele>566.6</ele>
        <time>2021-12-27T14:25:56Z</time>
      </trkpt>
      <trkpt lat="37.7913920" lon="-3.8765780">
        <ele>566.6</ele>
        <time>2021-12-27T14:25:57Z</time>
      </trkpt>
      <trkpt lat="37.7913790" lon="-3.8766000">
        <ele>566.6</ele>
        <time>2021-12-27T14:25:58Z</time>
      </trkpt>
      <trkpt lat="37.7913660" lon="-3.8766220">
        <ele>566.8</ele>
        <time>2021-12-27T14:25:59Z</time>
      </trkpt>
      <trkpt lat="37.7913500" lon="-3.8766450">
        <ele>566.8</ele>
        <time>2021-12-27T14:26:00Z</time>
      </trkpt>
      <trkpt lat="37.7913380" lon="-3.8766700">
        <ele>567.0</ele>
        <time>2021-12-27T14:26:01Z</time>
      </trkpt>
      <trkpt lat="37.7913180" lon="-3.8766950">
        <ele>567.0</ele>
        <time>2021-12-27T14:26:02Z</time>
      </trkpt>
      <trkpt lat="37.7913020" lon="-3.8767180">
        <ele>567.0</ele>
        <time>2021-12-27T14:26:03Z</time>
      </trkpt>
      <trkpt lat="37.7912860" lon="-3.8767420">
        <ele>567.2</ele>
        <time>2021-12-27T14:26:04Z</time>
      </trkpt>
      <trkpt lat="37.7912740" lon="-3.8767650">
        <ele>567.2</ele>
        <time>2021-12-27T14:26:05Z</time>
      </trkpt>
      <trkpt lat="37.7912540" lon="-3.8767880">
        <ele>567.2</ele>
        <time>2021-12-27T14:26:06Z</time>
      </trkpt>
      <trkpt lat="37.7912380" lon="-3.8768120">
        <ele>567.0</ele>
        <time>2021-12-27T14:26:07Z</time>
      </trkpt>
      <trkpt lat="37.7912220" lon="-3.8768350">
        <ele>567.0</ele>
        <time>2021-12-27T14:26:08Z</time>
      </trkpt>
      <trkpt lat="37.7912030" lon="-3.8768580">
        <ele>567.0</ele>
        <time>2021-12-27T14:26:09Z</time>
      </trkpt>
      <trkpt lat="37.7911870" lon="-3.8768820">
        <ele>567.2</ele>
        <time>2021-12-27T14:26:10Z</time>
      </trkpt>
      <trkpt lat="37.7911740" lon="-3.8769050">
        <ele>567.2</ele>
        <time>2021-12-27T14:26:11Z</time>
      </trkpt>
      <trkpt lat="37.7911620" lon="-3.8769270">
        <ele>567.2</ele>
        <time>2021-12-27T14:26:12Z</time>
      </trkpt>
      <trkpt lat="37.7911420" lon="-3.8769450">
        <ele>567.2</ele>
        <time>2021-12-27T14:26:13Z</time>
      </trkpt>
      <trkpt lat="37.7911300" lon="-3.8769630">
        <ele>567.2</ele>
        <time>2021-12-27T14:26:14Z</time>
      </trkpt>
      <trkpt lat="37.7911140" lon="-3.8769820">
        <ele>567.4</ele>
        <time>2021-12-27T14:26:15Z</time>
      </trkpt>
      <trkpt lat="37.7910940" lon="-3.8770030">
        <ele>567.4</ele>
        <time>2021-12-27T14:26:16Z</time>
      </trkpt>
      <trkpt lat="37.7910820" lon="-3.8770230">
        <ele>567.4</ele>
        <time>2021-12-27T14:26:17Z</time>
      </trkpt>
      <trkpt lat="37.7910660" lon="-3.8770460">
        <ele>567.4</ele>
        <time>2021-12-27T14:26:18Z</time>
      </trkpt>
      <trkpt lat="37.7910500" lon="-3.8770700">
        <ele>567.4</ele>
        <time>2021-12-27T14:26:19Z</time>
      </trkpt>
      <trkpt lat="37.7910400" lon="-3.8770950">
        <ele>567.2</ele>
        <time>2021-12-27T14:26:20Z</time>
      </trkpt>
      <trkpt lat="37.7910240" lon="-3.8771170">
        <ele>567.2</ele>
        <time>2021-12-27T14:26:21Z</time>
      </trkpt>
      <trkpt lat="37.7910110" lon="-3.8771380">
        <ele>567.2</ele>
        <time>2021-12-27T14:26:22Z</time>
      </trkpt>
      <trkpt lat="37.7909950" lon="-3.8771570">
        <ele>567.4</ele>
        <time>2021-12-27T14:26:23Z</time>
      </trkpt>
      <trkpt lat="37.7909820" lon="-3.8771750">
        <ele>567.4</ele>
        <time>2021-12-27T14:26:24Z</time>
      </trkpt>
      <trkpt lat="37.7909660" lon="-3.8771950">
        <ele>567.4</ele>
        <time>2021-12-27T14:26:25Z</time>
      </trkpt>
      <trkpt lat="37.7909540" lon="-3.8772160">
        <ele>567.6</ele>
        <time>2021-12-27T14:26:26Z</time>
      </trkpt>
      <trkpt lat="37.7909340" lon="-3.8772380">
        <ele>567.6</ele>
        <time>2021-12-27T14:26:27Z</time>
      </trkpt>
      <trkpt lat="37.7909220" lon="-3.8772580">
        <ele>567.6</ele>
        <time>2021-12-27T14:26:28Z</time>
      </trkpt>
      <trkpt lat="37.7909060" lon="-3.8772800">
        <ele>567.8</ele>
        <time>2021-12-27T14:26:29Z</time>
      </trkpt>
      <trkpt lat="37.7908930" lon="-3.8773000">
        <ele>567.8</ele>
        <time>2021-12-27T14:26:30Z</time>
      </trkpt>
      <trkpt lat="37.7908770" lon="-3.8773200">
        <ele>567.8</ele>
        <time>2021-12-27T14:26:31Z</time>
      </trkpt>
      <trkpt lat="37.7908640" lon="-3.8773400">
        <ele>567.8</ele>
        <time>2021-12-27T14:26:32Z</time>
      </trkpt>
      <trkpt lat="37.7908480" lon="-3.8773580">
        <ele>567.8</ele>
        <time>2021-12-27T14:26:33Z</time>
      </trkpt>
      <trkpt lat="37.7908350" lon="-3.8773780">
        <ele>568.0</ele>
        <time>2021-12-27T14:26:34Z</time>
      </trkpt>
      <trkpt lat="37.7908220" lon="-3.8773960">
        <ele>568.0</ele>
        <time>2021-12-27T14:26:35Z</time>
      </trkpt>
      <trkpt lat="37.7908060" lon="-3.8774170">
        <ele>568.0</ele>
        <time>2021-12-27T14:26:36Z</time>
      </trkpt>
      <trkpt lat="37.7907900" lon="-3.8774370">
        <ele>568.0</ele>
        <time>2021-12-27T14:26:37Z</time>
      </trkpt>
      <trkpt lat="37.7907740" lon="-3.8774600">
        <ele>568.2</ele>
        <time>2021-12-27T14:26:38Z</time>
      </trkpt>
      <trkpt lat="37.7907620" lon="-3.8774830">
        <ele>568.2</ele>
        <time>2021-12-27T14:26:39Z</time>
      </trkpt>
      <trkpt lat="37.7907460" lon="-3.8775070">
        <ele>568.2</ele>
        <time>2021-12-27T14:26:40Z</time>
      </trkpt>
      <trkpt lat="37.7907300" lon="-3.8775280">
        <ele>568.2</ele>
        <time>2021-12-27T14:26:41Z</time>
      </trkpt>
      <trkpt lat="37.7907140" lon="-3.8775500">
        <ele>568.2</ele>
        <time>2021-12-27T14:26:42Z</time>
      </trkpt>
      <trkpt lat="37.7906980" lon="-3.8775720">
        <ele>568.2</ele>
        <time>2021-12-27T14:26:43Z</time>
      </trkpt>
      <trkpt lat="37.7906880" lon="-3.8775950">
        <ele>568.2</ele>
        <time>2021-12-27T14:26:44Z</time>
      </trkpt>
      <trkpt lat="37.7906720" lon="-3.8776170">
        <ele>568.2</ele>
        <time>2021-12-27T14:26:45Z</time>
      </trkpt>
      <trkpt lat="37.7906560" lon="-3.8776370">
        <ele>568.2</ele>
        <time>2021-12-27T14:26:46Z</time>
      </trkpt>
      <trkpt lat="37.7906430" lon="-3.8776570">
        <ele>568.2</ele>
        <time>2021-12-27T14:26:47Z</time>
      </trkpt>
      <trkpt lat="37.7906270" lon="-3.8776770">
        <ele>568.2</ele>
        <time>2021-12-27T14:26:48Z</time>
      </trkpt>
      <trkpt lat="37.7906140" lon="-3.8776950">
        <ele>568.4</ele>
        <time>2021-12-27T14:26:49Z</time>
      </trkpt>
      <trkpt lat="37.7906050" lon="-3.8777150">
        <ele>568.4</ele>
        <time>2021-12-27T14:26:50Z</time>
      </trkpt>
      <trkpt lat="37.7905950" lon="-3.8777350">
        <ele>568.4</ele>
        <time>2021-12-27T14:26:51Z</time>
      </trkpt>
      <trkpt lat="37.7905950" lon="-3.8777350">
        <ele>568.4</ele>
        <time>2021-12-27T14:26:52Z</time>
      </trkpt>
      <trkpt lat="37.7905730" lon="-3.8777680">
        <ele>568.6</ele>
        <time>2021-12-27T14:26:53Z</time>
      </trkpt>
      <trkpt lat="37.7905730" lon="-3.8777680">
        <ele>568.6</ele>
        <time>2021-12-27T14:26:54Z</time>
      </trkpt>
      <trkpt lat="37.7905570" lon="-3.8777900">
        <ele>568.6</ele>
        <time>2021-12-27T14:26:55Z</time>
      </trkpt>
      <trkpt lat="37.7905570" lon="-3.8777900">
        <ele>568.6</ele>
        <time>2021-12-27T14:26:56Z</time>
      </trkpt>
      <trkpt lat="37.7905570" lon="-3.8777900">
        <ele>568.6</ele>
        <time>2021-12-27T14:26:57Z</time>
      </trkpt>
      <trkpt lat="37.7905570" lon="-3.8777900">
        <ele>568.6</ele>
        <time>2021-12-27T14:26:58Z</time>
      </trkpt>
      <trkpt lat="37.7905440" lon="-3.8778120">
        <ele>568.6</ele>
        <time>2021-12-27T14:26:59Z</time>
      </trkpt>
      <trkpt lat="37.7905120" lon="-3.8778920">
        <ele>569.2</ele>
        <time>2021-12-27T14:28:59Z</time>
      </trkpt>
      <trkpt lat="37.7904960" lon="-3.8779180">
        <ele>569.2</ele>
        <time>2021-12-27T14:29:00Z</time>
      </trkpt>
      <trkpt lat="37.7904740" lon="-3.8779530">
        <ele>569.2</ele>
        <time>2021-12-27T14:29:01Z</time>
      </trkpt>
      <trkpt lat="37.7904580" lon="-3.8779780">
        <ele>569.2</ele>
        <time>2021-12-27T14:29:02Z</time>
      </trkpt>
      <trkpt lat="37.7904350" lon="-3.8780070">
        <ele>569.2</ele>
        <time>2021-12-27T14:29:03Z</time>
      </trkpt>
      <trkpt lat="37.7904160" lon="-3.8780420">
        <ele>569.4</ele>
        <time>2021-12-27T14:29:04Z</time>
      </trkpt>
      <trkpt lat="37.7903970" lon="-3.8780650">
        <ele>569.4</ele>
        <time>2021-12-27T14:29:05Z</time>
      </trkpt>
      <trkpt lat="37.7903780" lon="-3.8780930">
        <ele>569.4</ele>
        <time>2021-12-27T14:29:06Z</time>
      </trkpt>
      <trkpt lat="37.7903650" lon="-3.8781220">
        <ele>569.4</ele>
        <time>2021-12-27T14:29:07Z</time>
      </trkpt>
      <trkpt lat="37.7903460" lon="-3.8781480">
        <ele>569.4</ele>
        <time>2021-12-27T14:29:08Z</time>
      </trkpt>
      <trkpt lat="37.7903260" lon="-3.8781770">
        <ele>569.6</ele>
        <time>2021-12-27T14:29:09Z</time>
      </trkpt>
      <trkpt lat="37.7903070" lon="-3.8782050">
        <ele>569.6</ele>
        <time>2021-12-27T14:29:10Z</time>
      </trkpt>
      <trkpt lat="37.7902910" lon="-3.8782350">
        <ele>569.6</ele>
        <time>2021-12-27T14:29:11Z</time>
      </trkpt>
      <trkpt lat="37.7902720" lon="-3.8782650">
        <ele>569.8</ele>
        <time>2021-12-27T14:29:12Z</time>
      </trkpt>
      <trkpt lat="37.7902560" lon="-3.8782950">
        <ele>569.8</ele>
        <time>2021-12-27T14:29:13Z</time>
      </trkpt>
      <trkpt lat="37.7902340" lon="-3.8783320">
        <ele>569.8</ele>
        <time>2021-12-27T14:29:14Z</time>
      </trkpt>
      <trkpt lat="37.7902210" lon="-3.8783550">
        <ele>569.8</ele>
        <time>2021-12-27T14:29:15Z</time>
      </trkpt>
      <trkpt lat="37.7902080" lon="-3.8783850">
        <ele>570.0</ele>
        <time>2021-12-27T14:29:16Z</time>
      </trkpt>
      <trkpt lat="37.7901890" lon="-3.8784180">
        <ele>570.0</ele>
        <time>2021-12-27T14:29:17Z</time>
      </trkpt>
      <trkpt lat="37.7901730" lon="-3.8784500">
        <ele>570.0</ele>
        <time>2021-12-27T14:29:18Z</time>
      </trkpt>
      <trkpt lat="37.7901570" lon="-3.8784830">
        <ele>570.0</ele>
        <time>2021-12-27T14:29:19Z</time>
      </trkpt>
      <trkpt lat="37.7901470" lon="-3.8785150">
        <ele>570.2</ele>
        <time>2021-12-27T14:29:20Z</time>
      </trkpt>
      <trkpt lat="37.7901340" lon="-3.8785450">
        <ele>570.2</ele>
        <time>2021-12-27T14:29:21Z</time>
      </trkpt>
      <trkpt lat="37.7901220" lon="-3.8785750">
        <ele>570.2</ele>
        <time>2021-12-27T14:29:22Z</time>
      </trkpt>
      <trkpt lat="37.7901120" lon="-3.8786020">
        <ele>570.4</ele>
        <time>2021-12-27T14:29:23Z</time>
      </trkpt>
      <trkpt lat="37.7900990" lon="-3.8786260">
        <ele>570.4</ele>
        <time>2021-12-27T14:29:24Z</time>
      </trkpt>
      <trkpt lat="37.7900860" lon="-3.8786500">
        <ele>570.4</ele>
        <time>2021-12-27T14:29:25Z</time>
      </trkpt>
      <trkpt lat="37.7900740" lon="-3.8786730">
        <ele>570.4</ele>
        <time>2021-12-27T14:29:26Z</time>
      </trkpt>
      <trkpt lat="37.7900610" lon="-3.8786950">
        <ele>570.4</ele>
        <time>2021-12-27T14:29:27Z</time>
      </trkpt>
      <trkpt lat="37.7900510" lon="-3.8787150">
        <ele>570.4</ele>
        <time>2021-12-27T14:29:28Z</time>
      </trkpt>
      <trkpt lat="37.7900420" lon="-3.8787380">
        <ele>570.4</ele>
        <time>2021-12-27T14:29:29Z</time>
      </trkpt>
      <trkpt lat="37.7900320" lon="-3.8787620">
        <ele>570.4</ele>
        <time>2021-12-27T14:29:30Z</time>
      </trkpt>
      <trkpt lat="37.7900220" lon="-3.8787880">
        <ele>570.4</ele>
        <time>2021-12-27T14:29:31Z</time>
      </trkpt>
      <trkpt lat="37.7900130" lon="-3.8788120">
        <ele>570.4</ele>
        <time>2021-12-27T14:29:32Z</time>
      </trkpt>
      <trkpt lat="37.7900030" lon="-3.8788320">
        <ele>570.4</ele>
        <time>2021-12-27T14:29:33Z</time>
      </trkpt>
      <trkpt lat="37.7900030" lon="-3.8788320">
        <ele>570.6</ele>
        <time>2021-12-27T14:29:34Z</time>
      </trkpt>
      <trkpt lat="37.7899870" lon="-3.8788700">
        <ele>570.6</ele>
        <time>2021-12-27T14:29:35Z</time>
      </trkpt>
      <trkpt lat="37.7899780" lon="-3.8788950">
        <ele>570.6</ele>
        <time>2021-12-27T14:29:36Z</time>
      </trkpt>
      <trkpt lat="37.7899710" lon="-3.8789180">
        <ele>570.6</ele>
        <time>2021-12-27T14:29:37Z</time>
      </trkpt>
      <trkpt lat="37.7899580" lon="-3.8789440">
        <ele>570.6</ele>
        <time>2021-12-27T14:29:38Z</time>
      </trkpt>
      <trkpt lat="37.7899490" lon="-3.8789670">
        <ele>570.6</ele>
        <time>2021-12-27T14:29:39Z</time>
      </trkpt>
      <trkpt lat="37.7899360" lon="-3.8789880">
        <ele>570.6</ele>
        <time>2021-12-27T14:29:40Z</time>
      </trkpt>
      <trkpt lat="37.7899300" lon="-3.8790100">
        <ele>570.6</ele>
        <time>2021-12-27T14:29:41Z</time>
      </trkpt>
      <trkpt lat="37.7899170" lon="-3.8790320">
        <ele>570.6</ele>
        <time>2021-12-27T14:29:42Z</time>
      </trkpt>
      <trkpt lat="37.7899100" lon="-3.8790550">
        <ele>570.6</ele>
        <time>2021-12-27T14:29:43Z</time>
      </trkpt>
      <trkpt lat="37.7899010" lon="-3.8790780">
        <ele>570.6</ele>
        <time>2021-12-27T14:29:44Z</time>
      </trkpt>
      <trkpt lat="37.7898940" lon="-3.8791040">
        <ele>570.6</ele>
        <time>2021-12-27T14:29:45Z</time>
      </trkpt>
      <trkpt lat="37.7898880" lon="-3.8791330">
        <ele>570.8</ele>
        <time>2021-12-27T14:29:46Z</time>
      </trkpt>
      <trkpt lat="37.7898820" lon="-3.8791620">
        <ele>570.8</ele>
        <time>2021-12-27T14:29:47Z</time>
      </trkpt>
      <trkpt lat="37.7898750" lon="-3.8791900">
        <ele>570.8</ele>
        <time>2021-12-27T14:29:48Z</time>
      </trkpt>
      <trkpt lat="37.7898620" lon="-3.8792170">
        <ele>570.8</ele>
        <time>2021-12-27T14:29:49Z</time>
      </trkpt>
      <trkpt lat="37.7898560" lon="-3.8792400">
        <ele>570.8</ele>
        <time>2021-12-27T14:29:50Z</time>
      </trkpt>
      <trkpt lat="37.7898500" lon="-3.8792650">
        <ele>570.8</ele>
        <time>2021-12-27T14:29:51Z</time>
      </trkpt>
      <trkpt lat="37.7898400" lon="-3.8792920">
        <ele>570.8</ele>
        <time>2021-12-27T14:29:52Z</time>
      </trkpt>
      <trkpt lat="37.7898340" lon="-3.8793200">
        <ele>570.8</ele>
        <time>2021-12-27T14:29:53Z</time>
      </trkpt>
      <trkpt lat="37.7898240" lon="-3.8793470">
        <ele>570.8</ele>
        <time>2021-12-27T14:29:54Z</time>
      </trkpt>
      <trkpt lat="37.7898140" lon="-3.8793730">
        <ele>570.8</ele>
        <time>2021-12-27T14:29:55Z</time>
      </trkpt>
      <trkpt lat="37.7898110" lon="-3.8794020">
        <ele>570.8</ele>
        <time>2021-12-27T14:29:56Z</time>
      </trkpt>
      <trkpt lat="37.7897980" lon="-3.8794320">
        <ele>570.8</ele>
        <time>2021-12-27T14:29:57Z</time>
      </trkpt>
      <trkpt lat="37.7897950" lon="-3.8794650">
        <ele>570.8</ele>
        <time>2021-12-27T14:29:58Z</time>
      </trkpt>
      <trkpt lat="37.7897910" lon="-3.8794900">
        <ele>570.6</ele>
        <time>2021-12-27T14:29:59Z</time>
      </trkpt>
      <trkpt lat="37.7897870" lon="-3.8795140">
        <ele>570.6</ele>
        <time>2021-12-27T14:30:00Z</time>
      </trkpt>
      <trkpt lat="37.7897820" lon="-3.8795380">
        <ele>570.8</ele>
        <time>2021-12-27T14:30:01Z</time>
      </trkpt>
      <trkpt lat="37.7897760" lon="-3.8795650">
        <ele>570.8</ele>
        <time>2021-12-27T14:30:02Z</time>
      </trkpt>
      <trkpt lat="37.7897730" lon="-3.8795900">
        <ele>570.8</ele>
        <time>2021-12-27T14:30:03Z</time>
      </trkpt>
      <trkpt lat="37.7897630" lon="-3.8796180">
        <ele>570.8</ele>
        <time>2021-12-27T14:30:04Z</time>
      </trkpt>
      <trkpt lat="37.7897570" lon="-3.8796450">
        <ele>570.8</ele>
        <time>2021-12-27T14:30:05Z</time>
      </trkpt>
      <trkpt lat="37.7897540" lon="-3.8796720">
        <ele>570.8</ele>
        <time>2021-12-27T14:30:06Z</time>
      </trkpt>
      <trkpt lat="37.7897500" lon="-3.8796980">
        <ele>570.8</ele>
        <time>2021-12-27T14:30:07Z</time>
      </trkpt>
      <trkpt lat="37.7897440" lon="-3.8797250">
        <ele>570.8</ele>
        <time>2021-12-27T14:30:08Z</time>
      </trkpt>
      <trkpt lat="37.7897410" lon="-3.8797530">
        <ele>571.0</ele>
        <time>2021-12-27T14:30:09Z</time>
      </trkpt>
      <trkpt lat="37.7897380" lon="-3.8797780">
        <ele>571.0</ele>
        <time>2021-12-27T14:30:10Z</time>
      </trkpt>
      <trkpt lat="37.7897310" lon="-3.8798080">
        <ele>571.2</ele>
        <time>2021-12-27T14:30:11Z</time>
      </trkpt>
      <trkpt lat="37.7897220" lon="-3.8798380">
        <ele>571.2</ele>
        <time>2021-12-27T14:30:12Z</time>
      </trkpt>
      <trkpt lat="37.7897180" lon="-3.8798670">
        <ele>571.2</ele>
        <time>2021-12-27T14:30:13Z</time>
      </trkpt>
      <trkpt lat="37.7897150" lon="-3.8798950">
        <ele>571.4</ele>
        <time>2021-12-27T14:30:14Z</time>
      </trkpt>
      <trkpt lat="37.7897060" lon="-3.8799220">
        <ele>571.4</ele>
        <time>2021-12-27T14:30:15Z</time>
      </trkpt>
      <trkpt lat="37.7897020" lon="-3.8799480">
        <ele>571.6</ele>
        <time>2021-12-27T14:30:16Z</time>
      </trkpt>
      <trkpt lat="37.7896990" lon="-3.8799740">
        <ele>571.6</ele>
        <time>2021-12-27T14:30:17Z</time>
      </trkpt>
      <trkpt lat="37.7896960" lon="-3.8800020">
        <ele>571.6</ele>
        <time>2021-12-27T14:30:18Z</time>
      </trkpt>
      <trkpt lat="37.7896930" lon="-3.8800320">
        <ele>571.8</ele>
        <time>2021-12-27T14:30:19Z</time>
      </trkpt>
      <trkpt lat="37.7896900" lon="-3.8800600">
        <ele>571.8</ele>
        <time>2021-12-27T14:30:20Z</time>
      </trkpt>
      <trkpt lat="37.7896830" lon="-3.8800830">
        <ele>571.8</ele>
        <time>2021-12-27T14:30:21Z</time>
      </trkpt>
      <trkpt lat="37.7896800" lon="-3.8801070">
        <ele>572.0</ele>
        <time>2021-12-27T14:30:22Z</time>
      </trkpt>
      <trkpt lat="37.7896770" lon="-3.8801330">
        <ele>572.0</ele>
        <time>2021-12-27T14:30:23Z</time>
      </trkpt>
      <trkpt lat="37.7896700" lon="-3.8801600">
        <ele>572.2</ele>
        <time>2021-12-27T14:30:24Z</time>
      </trkpt>
      <trkpt lat="37.7896700" lon="-3.8801850">
        <ele>572.2</ele>
        <time>2021-12-27T14:30:25Z</time>
      </trkpt>
      <trkpt lat="37.7896640" lon="-3.8802130">
        <ele>572.4</ele>
        <time>2021-12-27T14:30:26Z</time>
      </trkpt>
      <trkpt lat="37.7896640" lon="-3.8802430">
        <ele>572.4</ele>
        <time>2021-12-27T14:30:27Z</time>
      </trkpt>
      <trkpt lat="37.7896610" lon="-3.8802750">
        <ele>572.4</ele>
        <time>2021-12-27T14:30:28Z</time>
      </trkpt>
      <trkpt lat="37.7896580" lon="-3.8803070">
        <ele>572.4</ele>
        <time>2021-12-27T14:30:29Z</time>
      </trkpt>
      <trkpt lat="37.7896610" lon="-3.8803340">
        <ele>572.6</ele>
        <time>2021-12-27T14:30:30Z</time>
      </trkpt>
      <trkpt lat="37.7896580" lon="-3.8803620">
        <ele>572.6</ele>
        <time>2021-12-27T14:30:31Z</time>
      </trkpt>
      <trkpt lat="37.7896540" lon="-3.8803930">
        <ele>572.8</ele>
        <time>2021-12-27T14:30:32Z</time>
      </trkpt>
      <trkpt lat="37.7896540" lon="-3.8804230">
        <ele>573.0</ele>
        <time>2021-12-27T14:30:33Z</time>
      </trkpt>
      <trkpt lat="37.7896510" lon="-3.8804530">
        <ele>573.0</ele>
        <time>2021-12-27T14:30:34Z</time>
      </trkpt>
      <trkpt lat="37.7896510" lon="-3.8804820">
        <ele>573.2</ele>
        <time>2021-12-27T14:30:35Z</time>
      </trkpt>
      <trkpt lat="37.7896510" lon="-3.8805120">
        <ele>573.2</ele>
        <time>2021-12-27T14:30:36Z</time>
      </trkpt>
      <trkpt lat="37.7896450" lon="-3.8805400">
        <ele>573.4</ele>
        <time>2021-12-27T14:30:37Z</time>
      </trkpt>
      <trkpt lat="37.7896450" lon="-3.8805700">
        <ele>573.4</ele>
        <time>2021-12-27T14:30:38Z</time>
      </trkpt>
      <trkpt lat="37.7896450" lon="-3.8805980">
        <ele>573.2</ele>
        <time>2021-12-27T14:30:39Z</time>
      </trkpt>
      <trkpt lat="37.7896450" lon="-3.8806320">
        <ele>573.2</ele>
        <time>2021-12-27T14:30:40Z</time>
      </trkpt>
      <trkpt lat="37.7896450" lon="-3.8806630">
        <ele>573.4</ele>
        <time>2021-12-27T14:30:41Z</time>
      </trkpt>
      <trkpt lat="37.7896450" lon="-3.8806970">
        <ele>573.4</ele>
        <time>2021-12-27T14:30:42Z</time>
      </trkpt>
      <trkpt lat="37.7896430" lon="-3.8807430">
        <ele>573.4</ele>
        <time>2021-12-27T14:30:43Z</time>
      </trkpt>
      <trkpt lat="37.7896420" lon="-3.8807580">
        <ele>573.4</ele>
        <time>2021-12-27T14:30:44Z</time>
      </trkpt>
      <trkpt lat="37.7896420" lon="-3.8807880">
        <ele>573.4</ele>
        <time>2021-12-27T14:30:45Z</time>
      </trkpt>
      <trkpt lat="37.7896420" lon="-3.8808180">
        <ele>573.4</ele>
        <time>2021-12-27T14:30:46Z</time>
      </trkpt>
      <trkpt lat="37.7896380" lon="-3.8808480">
        <ele>573.4</ele>
        <time>2021-12-27T14:30:47Z</time>
      </trkpt>
      <trkpt lat="37.7896380" lon="-3.8808800">
        <ele>573.4</ele>
        <time>2021-12-27T14:30:48Z</time>
      </trkpt>
      <trkpt lat="37.7896420" lon="-3.8809080">
        <ele>573.4</ele>
        <time>2021-12-27T14:30:49Z</time>
      </trkpt>
      <trkpt lat="37.7896380" lon="-3.8809380">
        <ele>573.4</ele>
        <time>2021-12-27T14:30:50Z</time>
      </trkpt>
      <trkpt lat="37.7896380" lon="-3.8809670">
        <ele>573.4</ele>
        <time>2021-12-27T14:30:51Z</time>
      </trkpt>
      <trkpt lat="37.7896380" lon="-3.8809970">
        <ele>573.4</ele>
        <time>2021-12-27T14:30:52Z</time>
      </trkpt>
      <trkpt lat="37.7896420" lon="-3.8810270">
        <ele>573.4</ele>
        <time>2021-12-27T14:30:53Z</time>
      </trkpt>
      <trkpt lat="37.7896420" lon="-3.8810570">
        <ele>573.4</ele>
        <time>2021-12-27T14:30:54Z</time>
      </trkpt>
      <trkpt lat="37.7896450" lon="-3.8810860">
        <ele>573.4</ele>
        <time>2021-12-27T14:30:55Z</time>
      </trkpt>
      <trkpt lat="37.7896510" lon="-3.8811150">
        <ele>573.4</ele>
        <time>2021-12-27T14:30:56Z</time>
      </trkpt>
      <trkpt lat="37.7896540" lon="-3.8811430">
        <ele>573.4</ele>
        <time>2021-12-27T14:30:57Z</time>
      </trkpt>
      <trkpt lat="37.7896540" lon="-3.8811720">
        <ele>573.4</ele>
        <time>2021-12-27T14:30:58Z</time>
      </trkpt>
      <trkpt lat="37.7896580" lon="-3.8811980">
        <ele>573.4</ele>
        <time>2021-12-27T14:30:59Z</time>
      </trkpt>
      <trkpt lat="37.7896580" lon="-3.8812260">
        <ele>573.4</ele>
        <time>2021-12-27T14:31:00Z</time>
      </trkpt>
      <trkpt lat="37.7896610" lon="-3.8812550">
        <ele>573.6</ele>
        <time>2021-12-27T14:31:01Z</time>
      </trkpt>
      <trkpt lat="37.7896640" lon="-3.8812870">
        <ele>573.6</ele>
        <time>2021-12-27T14:31:02Z</time>
      </trkpt>
      <trkpt lat="37.7896700" lon="-3.8813170">
        <ele>573.6</ele>
        <time>2021-12-27T14:31:03Z</time>
      </trkpt>
      <trkpt lat="37.7896740" lon="-3.8813470">
        <ele>573.6</ele>
        <time>2021-12-27T14:31:04Z</time>
      </trkpt>
      <trkpt lat="37.7896770" lon="-3.8813780">
        <ele>573.6</ele>
        <time>2021-12-27T14:31:05Z</time>
      </trkpt>
      <trkpt lat="37.7896770" lon="-3.8814100">
        <ele>573.6</ele>
        <time>2021-12-27T14:31:06Z</time>
      </trkpt>
      <trkpt lat="37.7896770" lon="-3.8814430">
        <ele>573.6</ele>
        <time>2021-12-27T14:31:07Z</time>
      </trkpt>
      <trkpt lat="37.7896800" lon="-3.8814770">
        <ele>573.6</ele>
        <time>2021-12-27T14:31:08Z</time>
      </trkpt>
      <trkpt lat="37.7896900" lon="-3.8815100">
        <ele>573.8</ele>
        <time>2021-12-27T14:31:09Z</time>
      </trkpt>
      <trkpt lat="37.7896930" lon="-3.8815400">
        <ele>573.8</ele>
        <time>2021-12-27T14:31:10Z</time>
      </trkpt>
      <trkpt lat="37.7896960" lon="-3.8815720">
        <ele>574.0</ele>
        <time>2021-12-27T14:31:11Z</time>
      </trkpt>
      <trkpt lat="37.7896990" lon="-3.8816030">
        <ele>574.0</ele>
        <time>2021-12-27T14:31:12Z</time>
      </trkpt>
      <trkpt lat="37.7897020" lon="-3.8816350">
        <ele>574.0</ele>
        <time>2021-12-27T14:31:13Z</time>
      </trkpt>
      <trkpt lat="37.7897060" lon="-3.8816620">
        <ele>574.0</ele>
        <time>2021-12-27T14:31:14Z</time>
      </trkpt>
      <trkpt lat="37.7897150" lon="-3.8816930">
        <ele>574.0</ele>
        <time>2021-12-27T14:31:15Z</time>
      </trkpt>
      <trkpt lat="37.7897150" lon="-3.8817250">
        <ele>574.0</ele>
        <time>2021-12-27T14:31:16Z</time>
      </trkpt>
      <trkpt lat="37.7897180" lon="-3.8817540">
        <ele>574.2</ele>
        <time>2021-12-27T14:31:17Z</time>
      </trkpt>
      <trkpt lat="37.7897220" lon="-3.8817820">
        <ele>574.2</ele>
        <time>2021-12-27T14:31:18Z</time>
      </trkpt>
      <trkpt lat="37.7897310" lon="-3.8818170">
        <ele>574.2</ele>
        <time>2021-12-27T14:31:19Z</time>
      </trkpt>
      <trkpt lat="37.7897340" lon="-3.8818450">
        <ele>574.2</ele>
        <time>2021-12-27T14:31:20Z</time>
      </trkpt>
      <trkpt lat="37.7897340" lon="-3.8818720">
        <ele>574.2</ele>
        <time>2021-12-27T14:31:21Z</time>
      </trkpt>
      <trkpt lat="37.7897380" lon="-3.8818970">
        <ele>574.4</ele>
        <time>2021-12-27T14:31:22Z</time>
      </trkpt>
      <trkpt lat="37.7897410" lon="-3.8819220">
        <ele>574.4</ele>
        <time>2021-12-27T14:31:23Z</time>
      </trkpt>
      <trkpt lat="37.7897440" lon="-3.8819450">
        <ele>574.4</ele>
        <time>2021-12-27T14:31:24Z</time>
      </trkpt>
      <trkpt lat="37.7897500" lon="-3.8819720">
        <ele>574.4</ele>
        <time>2021-12-27T14:31:25Z</time>
      </trkpt>
      <trkpt lat="37.7897500" lon="-3.8819980">
        <ele>574.6</ele>
        <time>2021-12-27T14:31:26Z</time>
      </trkpt>
      <trkpt lat="37.7897540" lon="-3.8820250">
        <ele>574.6</ele>
        <time>2021-12-27T14:31:27Z</time>
      </trkpt>
      <trkpt lat="37.7897540" lon="-3.8820520">
        <ele>574.8</ele>
        <time>2021-12-27T14:31:28Z</time>
      </trkpt>
      <trkpt lat="37.7897570" lon="-3.8820820">
        <ele>574.8</ele>
        <time>2021-12-27T14:31:29Z</time>
      </trkpt>
      <trkpt lat="37.7897630" lon="-3.8821120">
        <ele>574.8</ele>
        <time>2021-12-27T14:31:30Z</time>
      </trkpt>
      <trkpt lat="37.7897700" lon="-3.8821400">
        <ele>575.0</ele>
        <time>2021-12-27T14:31:31Z</time>
      </trkpt>
      <trkpt lat="37.7897730" lon="-3.8821680">
        <ele>575.0</ele>
        <time>2021-12-27T14:31:32Z</time>
      </trkpt>
      <trkpt lat="37.7897790" lon="-3.8821950">
        <ele>575.0</ele>
        <time>2021-12-27T14:31:33Z</time>
      </trkpt>
      <trkpt lat="37.7897820" lon="-3.8822230">
        <ele>575.2</ele>
        <time>2021-12-27T14:31:34Z</time>
      </trkpt>
      <trkpt lat="37.7897820" lon="-3.8822540">
        <ele>575.2</ele>
        <time>2021-12-27T14:31:35Z</time>
      </trkpt>
      <trkpt lat="37.7897890" lon="-3.8822860">
        <ele>575.2</ele>
        <time>2021-12-27T14:31:36Z</time>
      </trkpt>
      <trkpt lat="37.7897950" lon="-3.8823200">
        <ele>575.2</ele>
        <time>2021-12-27T14:31:37Z</time>
      </trkpt>
      <trkpt lat="37.7897950" lon="-3.8823530">
        <ele>575.2</ele>
        <time>2021-12-27T14:31:38Z</time>
      </trkpt>
      <trkpt lat="37.7897980" lon="-3.8823830">
        <ele>575.2</ele>
        <time>2021-12-27T14:31:39Z</time>
      </trkpt>
      <trkpt lat="37.7898020" lon="-3.8824170">
        <ele>575.4</ele>
        <time>2021-12-27T14:31:40Z</time>
      </trkpt>
      <trkpt lat="37.7898050" lon="-3.8824470">
        <ele>575.4</ele>
        <time>2021-12-27T14:31:41Z</time>
      </trkpt>
      <trkpt lat="37.7898110" lon="-3.8824770">
        <ele>575.4</ele>
        <time>2021-12-27T14:31:42Z</time>
      </trkpt>
      <trkpt lat="37.7898180" lon="-3.8825080">
        <ele>575.4</ele>
        <time>2021-12-27T14:31:43Z</time>
      </trkpt>
      <trkpt lat="37.7898210" lon="-3.8825400">
        <ele>575.4</ele>
        <time>2021-12-27T14:31:44Z</time>
      </trkpt>
      <trkpt lat="37.7898240" lon="-3.8825720">
        <ele>575.4</ele>
        <time>2021-12-27T14:31:45Z</time>
      </trkpt>
      <trkpt lat="37.7898240" lon="-3.8826070">
        <ele>575.4</ele>
        <time>2021-12-27T14:31:46Z</time>
      </trkpt>
      <trkpt lat="37.7898240" lon="-3.8826460">
        <ele>575.4</ele>
        <time>2021-12-27T14:31:47Z</time>
      </trkpt>
      <trkpt lat="37.7898210" lon="-3.8826800">
        <ele>575.4</ele>
        <time>2021-12-27T14:31:48Z</time>
      </trkpt>
      <trkpt lat="37.7898240" lon="-3.8827080">
        <ele>575.6</ele>
        <time>2021-12-27T14:31:49Z</time>
      </trkpt>
      <trkpt lat="37.7898340" lon="-3.8827370">
        <ele>575.4</ele>
        <time>2021-12-27T14:31:50Z</time>
      </trkpt>
      <trkpt lat="37.7898340" lon="-3.8827650">
        <ele>575.4</ele>
        <time>2021-12-27T14:31:51Z</time>
      </trkpt>
      <trkpt lat="37.7898370" lon="-3.8827950">
        <ele>575.6</ele>
        <time>2021-12-27T14:31:52Z</time>
      </trkpt>
      <trkpt lat="37.7898430" lon="-3.8828250">
        <ele>575.6</ele>
        <time>2021-12-27T14:31:53Z</time>
      </trkpt>
      <trkpt lat="37.7898500" lon="-3.8828550">
        <ele>575.6</ele>
        <time>2021-12-27T14:31:54Z</time>
      </trkpt>
      <trkpt lat="37.7898530" lon="-3.8828850">
        <ele>575.6</ele>
        <time>2021-12-27T14:31:55Z</time>
      </trkpt>
      <trkpt lat="37.7898560" lon="-3.8829150">
        <ele>575.4</ele>
        <time>2021-12-27T14:31:56Z</time>
      </trkpt>
      <trkpt lat="37.7898590" lon="-3.8829450">
        <ele>575.4</ele>
        <time>2021-12-27T14:31:57Z</time>
      </trkpt>
      <trkpt lat="37.7898620" lon="-3.8829750">
        <ele>575.6</ele>
        <time>2021-12-27T14:31:58Z</time>
      </trkpt>
      <trkpt lat="37.7898690" lon="-3.8830060">
        <ele>575.6</ele>
        <time>2021-12-27T14:31:59Z</time>
      </trkpt>
      <trkpt lat="37.7898750" lon="-3.8830350">
        <ele>575.6</ele>
        <time>2021-12-27T14:32:00Z</time>
      </trkpt>
      <trkpt lat="37.7898780" lon="-3.8830630">
        <ele>575.8</ele>
        <time>2021-12-27T14:32:01Z</time>
      </trkpt>
      <trkpt lat="37.7898820" lon="-3.8830920">
        <ele>575.8</ele>
        <time>2021-12-27T14:32:02Z</time>
      </trkpt>
      <trkpt lat="37.7898880" lon="-3.8831180">
        <ele>575.8</ele>
        <time>2021-12-27T14:32:03Z</time>
      </trkpt>
      <trkpt lat="37.7898910" lon="-3.8831500">
        <ele>576.0</ele>
        <time>2021-12-27T14:32:04Z</time>
      </trkpt>
      <trkpt lat="37.7898980" lon="-3.8831820">
        <ele>576.0</ele>
        <time>2021-12-27T14:32:05Z</time>
      </trkpt>
      <trkpt lat="37.7899010" lon="-3.8832150">
        <ele>576.0</ele>
        <time>2021-12-27T14:32:06Z</time>
      </trkpt>
      <trkpt lat="37.7899040" lon="-3.8832470">
        <ele>576.2</ele>
        <time>2021-12-27T14:32:07Z</time>
      </trkpt>
      <trkpt lat="37.7899040" lon="-3.8832780">
        <ele>576.2</ele>
        <time>2021-12-27T14:32:08Z</time>
      </trkpt>
      <trkpt lat="37.7899140" lon="-3.8833070">
        <ele>576.2</ele>
        <time>2021-12-27T14:32:09Z</time>
      </trkpt>
      <trkpt lat="37.7899170" lon="-3.8833360">
        <ele>576.0</ele>
        <time>2021-12-27T14:32:10Z</time>
      </trkpt>
      <trkpt lat="37.7899200" lon="-3.8833660">
        <ele>576.2</ele>
        <time>2021-12-27T14:32:11Z</time>
      </trkpt>
      <trkpt lat="37.7899230" lon="-3.8833950">
        <ele>576.2</ele>
        <time>2021-12-27T14:32:12Z</time>
      </trkpt>
      <trkpt lat="37.7899300" lon="-3.8834250">
        <ele>576.2</ele>
        <time>2021-12-27T14:32:13Z</time>
      </trkpt>
      <trkpt lat="37.7899330" lon="-3.8834570">
        <ele>576.2</ele>
        <time>2021-12-27T14:32:14Z</time>
      </trkpt>
      <trkpt lat="37.7899330" lon="-3.8834880">
        <ele>576.2</ele>
        <time>2021-12-27T14:32:15Z</time>
      </trkpt>
      <trkpt lat="37.7899390" lon="-3.8835220">
        <ele>576.2</ele>
        <time>2021-12-27T14:32:16Z</time>
      </trkpt>
      <trkpt lat="37.7899390" lon="-3.8835570">
        <ele>576.2</ele>
        <time>2021-12-27T14:32:17Z</time>
      </trkpt>
      <trkpt lat="37.7899520" lon="-3.8835900">
        <ele>576.2</ele>
        <time>2021-12-27T14:32:18Z</time>
      </trkpt>
      <trkpt lat="37.7899550" lon="-3.8836270">
        <ele>576.4</ele>
        <time>2021-12-27T14:32:19Z</time>
      </trkpt>
      <trkpt lat="37.7899620" lon="-3.8836600">
        <ele>576.4</ele>
        <time>2021-12-27T14:32:20Z</time>
      </trkpt>
      <trkpt lat="37.7899680" lon="-3.8836920">
        <ele>576.4</ele>
        <time>2021-12-27T14:32:21Z</time>
      </trkpt>
      <trkpt lat="37.7899710" lon="-3.8837220">
        <ele>576.6</ele>
        <time>2021-12-27T14:32:22Z</time>
      </trkpt>
      <trkpt lat="37.7899710" lon="-3.8837520">
        <ele>576.6</ele>
        <time>2021-12-27T14:32:23Z</time>
      </trkpt>
      <trkpt lat="37.7899740" lon="-3.8837820">
        <ele>576.6</ele>
        <time>2021-12-27T14:32:24Z</time>
      </trkpt>
      <trkpt lat="37.7899740" lon="-3.8838150">
        <ele>576.8</ele>
        <time>2021-12-27T14:32:25Z</time>
      </trkpt>
      <trkpt lat="37.7899780" lon="-3.8838470">
        <ele>576.8</ele>
        <time>2021-12-27T14:32:26Z</time>
      </trkpt>
      <trkpt lat="37.7899810" lon="-3.8838780">
        <ele>577.0</ele>
        <time>2021-12-27T14:32:27Z</time>
      </trkpt>
      <trkpt lat="37.7899810" lon="-3.8839080">
        <ele>577.0</ele>
        <time>2021-12-27T14:32:28Z</time>
      </trkpt>
      <trkpt lat="37.7899810" lon="-3.8839350">
        <ele>577.0</ele>
        <time>2021-12-27T14:32:29Z</time>
      </trkpt>
      <trkpt lat="37.7899870" lon="-3.8839650">
        <ele>577.0</ele>
        <time>2021-12-27T14:32:30Z</time>
      </trkpt>
      <trkpt lat="37.7899870" lon="-3.8839930">
        <ele>577.0</ele>
        <time>2021-12-27T14:32:31Z</time>
      </trkpt>
      <trkpt lat="37.7899900" lon="-3.8840220">
        <ele>577.0</ele>
        <time>2021-12-27T14:32:32Z</time>
      </trkpt>
      <trkpt lat="37.7899940" lon="-3.8840530">
        <ele>577.0</ele>
        <time>2021-12-27T14:32:33Z</time>
      </trkpt>
      <trkpt lat="37.7899940" lon="-3.8840850">
        <ele>577.2</ele>
        <time>2021-12-27T14:32:34Z</time>
      </trkpt>
      <trkpt lat="37.7899940" lon="-3.8841150">
        <ele>577.2</ele>
        <time>2021-12-27T14:32:35Z</time>
      </trkpt>
      <trkpt lat="37.7899940" lon="-3.8841470">
        <ele>577.2</ele>
        <time>2021-12-27T14:32:36Z</time>
      </trkpt>
      <trkpt lat="37.7899940" lon="-3.8841750">
        <ele>577.2</ele>
        <time>2021-12-27T14:32:37Z</time>
      </trkpt>
      <trkpt lat="37.7899940" lon="-3.8842070">
        <ele>577.2</ele>
        <time>2021-12-27T14:32:38Z</time>
      </trkpt>
      <trkpt lat="37.7900000" lon="-3.8842370">
        <ele>577.2</ele>
        <time>2021-12-27T14:32:39Z</time>
      </trkpt>
      <trkpt lat="37.7900030" lon="-3.8842670">
        <ele>577.4</ele>
        <time>2021-12-27T14:32:40Z</time>
      </trkpt>
      <trkpt lat="37.7900100" lon="-3.8842980">
        <ele>577.4</ele>
        <time>2021-12-27T14:32:41Z</time>
      </trkpt>
      <trkpt lat="37.7900030" lon="-3.8843280">
        <ele>577.4</ele>
        <time>2021-12-27T14:32:42Z</time>
      </trkpt>
      <trkpt lat="37.7900030" lon="-3.8843600">
        <ele>577.4</ele>
        <time>2021-12-27T14:32:43Z</time>
      </trkpt>
      <trkpt lat="37.7900000" lon="-3.8843880">
        <ele>577.4</ele>
        <time>2021-12-27T14:32:44Z</time>
      </trkpt>
      <trkpt lat="37.7899970" lon="-3.8844200">
        <ele>577.4</ele>
        <time>2021-12-27T14:32:45Z</time>
      </trkpt>
      <trkpt lat="37.7899940" lon="-3.8844500">
        <ele>577.4</ele>
        <time>2021-12-27T14:32:46Z</time>
      </trkpt>
      <trkpt lat="37.7899940" lon="-3.8844830">
        <ele>577.2</ele>
        <time>2021-12-27T14:32:47Z</time>
      </trkpt>
      <trkpt lat="37.7899940" lon="-3.8845150">
        <ele>577.2</ele>
        <time>2021-12-27T14:32:48Z</time>
      </trkpt>
      <trkpt lat="37.7899970" lon="-3.8845440">
        <ele>577.4</ele>
        <time>2021-12-27T14:32:49Z</time>
      </trkpt>
      <trkpt lat="37.7899940" lon="-3.8845740">
        <ele>577.4</ele>
        <time>2021-12-27T14:32:50Z</time>
      </trkpt>
      <trkpt lat="37.7899940" lon="-3.8846000">
        <ele>577.4</ele>
        <time>2021-12-27T14:32:51Z</time>
      </trkpt>
      <trkpt lat="37.7899940" lon="-3.8846320">
        <ele>577.4</ele>
        <time>2021-12-27T14:32:52Z</time>
      </trkpt>
      <trkpt lat="37.7899940" lon="-3.8846620">
        <ele>577.4</ele>
        <time>2021-12-27T14:32:53Z</time>
      </trkpt>
      <trkpt lat="37.7899940" lon="-3.8846900">
        <ele>577.4</ele>
        <time>2021-12-27T14:32:54Z</time>
      </trkpt>
      <trkpt lat="37.7899900" lon="-3.8847170">
        <ele>577.2</ele>
        <time>2021-12-27T14:32:55Z</time>
      </trkpt>
      <trkpt lat="37.7899900" lon="-3.8847430">
        <ele>577.2</ele>
        <time>2021-12-27T14:32:56Z</time>
      </trkpt>
      <trkpt lat="37.7899870" lon="-3.8847700">
        <ele>577.2</ele>
        <time>2021-12-27T14:32:57Z</time>
      </trkpt>
      <trkpt lat="37.7899810" lon="-3.8848000">
        <ele>577.2</ele>
        <time>2021-12-27T14:32:58Z</time>
      </trkpt>
      <trkpt lat="37.7899810" lon="-3.8848300">
        <ele>577.2</ele>
        <time>2021-12-27T14:32:59Z</time>
      </trkpt>
      <trkpt lat="37.7899740" lon="-3.8848600">
        <ele>577.2</ele>
        <time>2021-12-27T14:33:00Z</time>
      </trkpt>
      <trkpt lat="37.7899710" lon="-3.8848880">
        <ele>577.2</ele>
        <time>2021-12-27T14:33:01Z</time>
      </trkpt>
      <trkpt lat="37.7899680" lon="-3.8849150">
        <ele>577.2</ele>
        <time>2021-12-27T14:33:02Z</time>
      </trkpt>
      <trkpt lat="37.7899680" lon="-3.8849460">
        <ele>577.4</ele>
        <time>2021-12-27T14:33:03Z</time>
      </trkpt>
      <trkpt lat="37.7899620" lon="-3.8849830">
        <ele>577.4</ele>
        <time>2021-12-27T14:33:04Z</time>
      </trkpt>
      <trkpt lat="37.7899580" lon="-3.8850080">
        <ele>577.4</ele>
        <time>2021-12-27T14:33:05Z</time>
      </trkpt>
      <trkpt lat="37.7899550" lon="-3.8850380">
        <ele>577.4</ele>
        <time>2021-12-27T14:33:06Z</time>
      </trkpt>
      <trkpt lat="37.7899550" lon="-3.8850670">
        <ele>577.4</ele>
        <time>2021-12-27T14:33:07Z</time>
      </trkpt>
      <trkpt lat="37.7899520" lon="-3.8850950">
        <ele>577.4</ele>
        <time>2021-12-27T14:33:08Z</time>
      </trkpt>
      <trkpt lat="37.7899490" lon="-3.8851220">
        <ele>577.4</ele>
        <time>2021-12-27T14:33:09Z</time>
      </trkpt>
      <trkpt lat="37.7899390" lon="-3.8851500">
        <ele>577.4</ele>
        <time>2021-12-27T14:33:10Z</time>
      </trkpt>
      <trkpt lat="37.7899360" lon="-3.8851800">
        <ele>577.4</ele>
        <time>2021-12-27T14:33:11Z</time>
      </trkpt>
      <trkpt lat="37.7899330" lon="-3.8852080">
        <ele>577.4</ele>
        <time>2021-12-27T14:33:12Z</time>
      </trkpt>
      <trkpt lat="37.7899300" lon="-3.8852370">
        <ele>577.6</ele>
        <time>2021-12-27T14:33:13Z</time>
      </trkpt>
      <trkpt lat="37.7899230" lon="-3.8852650">
        <ele>577.6</ele>
        <time>2021-12-27T14:33:14Z</time>
      </trkpt>
      <trkpt lat="37.7899200" lon="-3.8852930">
        <ele>577.8</ele>
        <time>2021-12-27T14:33:15Z</time>
      </trkpt>
      <trkpt lat="37.7899140" lon="-3.8853180">
        <ele>577.8</ele>
        <time>2021-12-27T14:33:16Z</time>
      </trkpt>
      <trkpt lat="37.7899010" lon="-3.8853450">
        <ele>577.8</ele>
        <time>2021-12-27T14:33:17Z</time>
      </trkpt>
      <trkpt lat="37.7898940" lon="-3.8853730">
        <ele>577.8</ele>
        <time>2021-12-27T14:33:18Z</time>
      </trkpt>
      <trkpt lat="37.7898910" lon="-3.8854020">
        <ele>577.8</ele>
        <time>2021-12-27T14:33:19Z</time>
      </trkpt>
      <trkpt lat="37.7898910" lon="-3.8854280">
        <ele>577.8</ele>
        <time>2021-12-27T14:33:20Z</time>
      </trkpt>
      <trkpt lat="37.7898880" lon="-3.8854560">
        <ele>577.8</ele>
        <time>2021-12-27T14:33:21Z</time>
      </trkpt>
      <trkpt lat="37.7898820" lon="-3.8854900">
        <ele>578.0</ele>
        <time>2021-12-27T14:33:22Z</time>
      </trkpt>
      <trkpt lat="37.7898780" lon="-3.8855130">
        <ele>578.0</ele>
        <time>2021-12-27T14:33:23Z</time>
      </trkpt>
      <trkpt lat="37.7898720" lon="-3.8855420">
        <ele>578.0</ele>
        <time>2021-12-27T14:33:24Z</time>
      </trkpt>
      <trkpt lat="37.7898690" lon="-3.8855700">
        <ele>578.0</ele>
        <time>2021-12-27T14:33:25Z</time>
      </trkpt>
      <trkpt lat="37.7898620" lon="-3.8855980">
        <ele>578.0</ele>
        <time>2021-12-27T14:33:26Z</time>
      </trkpt>
      <trkpt lat="37.7898560" lon="-3.8856240">
        <ele>578.0</ele>
        <time>2021-12-27T14:33:27Z</time>
      </trkpt>
      <trkpt lat="37.7898500" lon="-3.8856530">
        <ele>578.2</ele>
        <time>2021-12-27T14:33:28Z</time>
      </trkpt>
      <trkpt lat="37.7898400" lon="-3.8856830">
        <ele>578.2</ele>
        <time>2021-12-27T14:33:29Z</time>
      </trkpt>
      <trkpt lat="37.7898340" lon="-3.8857120">
        <ele>578.2</ele>
        <time>2021-12-27T14:33:30Z</time>
      </trkpt>
      <trkpt lat="37.7898240" lon="-3.8857470">
        <ele>578.4</ele>
        <time>2021-12-27T14:33:31Z</time>
      </trkpt>
      <trkpt lat="37.7898180" lon="-3.8857720">
        <ele>578.4</ele>
        <time>2021-12-27T14:33:32Z</time>
      </trkpt>
      <trkpt lat="37.7898140" lon="-3.8857980">
        <ele>578.4</ele>
        <time>2021-12-27T14:33:33Z</time>
      </trkpt>
      <trkpt lat="37.7898050" lon="-3.8858260">
        <ele>578.4</ele>
        <time>2021-12-27T14:33:34Z</time>
      </trkpt>
      <trkpt lat="37.7898020" lon="-3.8858550">
        <ele>578.4</ele>
        <time>2021-12-27T14:33:35Z</time>
      </trkpt>
      <trkpt lat="37.7897950" lon="-3.8858830">
        <ele>578.4</ele>
        <time>2021-12-27T14:33:36Z</time>
      </trkpt>
      <trkpt lat="37.7897920" lon="-3.8859120">
        <ele>578.4</ele>
        <time>2021-12-27T14:33:37Z</time>
      </trkpt>
      <trkpt lat="37.7897820" lon="-3.8859420">
        <ele>578.6</ele>
        <time>2021-12-27T14:33:38Z</time>
      </trkpt>
      <trkpt lat="37.7897790" lon="-3.8859720">
        <ele>578.6</ele>
        <time>2021-12-27T14:33:39Z</time>
      </trkpt>
      <trkpt lat="37.7897700" lon="-3.8860080">
        <ele>578.8</ele>
        <time>2021-12-27T14:33:40Z</time>
      </trkpt>
      <trkpt lat="37.7897630" lon="-3.8860320">
        <ele>578.8</ele>
        <time>2021-12-27T14:33:41Z</time>
      </trkpt>
      <trkpt lat="37.7897570" lon="-3.8860620">
        <ele>578.8</ele>
        <time>2021-12-27T14:33:42Z</time>
      </trkpt>
      <trkpt lat="37.7897500" lon="-3.8860880">
        <ele>578.8</ele>
        <time>2021-12-27T14:33:43Z</time>
      </trkpt>
      <trkpt lat="37.7897410" lon="-3.8861100">
        <ele>578.8</ele>
        <time>2021-12-27T14:33:44Z</time>
      </trkpt>
      <trkpt lat="37.7897340" lon="-3.8861330">
        <ele>578.8</ele>
        <time>2021-12-27T14:33:45Z</time>
      </trkpt>
      <trkpt lat="37.7897280" lon="-3.8861550">
        <ele>578.8</ele>
        <time>2021-12-27T14:33:46Z</time>
      </trkpt>
      <trkpt lat="37.7897220" lon="-3.8861760">
        <ele>579.0</ele>
        <time>2021-12-27T14:33:47Z</time>
      </trkpt>
      <trkpt lat="37.7897150" lon="-3.8861980">
        <ele>579.0</ele>
        <time>2021-12-27T14:33:48Z</time>
      </trkpt>
      <trkpt lat="37.7897060" lon="-3.8862200">
        <ele>579.0</ele>
        <time>2021-12-27T14:33:49Z</time>
      </trkpt>
      <trkpt lat="37.7896990" lon="-3.8862430">
        <ele>579.0</ele>
        <time>2021-12-27T14:33:50Z</time>
      </trkpt>
      <trkpt lat="37.7896900" lon="-3.8862680">
        <ele>579.0</ele>
        <time>2021-12-27T14:33:51Z</time>
      </trkpt>
      <trkpt lat="37.7896800" lon="-3.8862920">
        <ele>579.0</ele>
        <time>2021-12-27T14:33:52Z</time>
      </trkpt>
      <trkpt lat="37.7896740" lon="-3.8863200">
        <ele>579.2</ele>
        <time>2021-12-27T14:33:53Z</time>
      </trkpt>
      <trkpt lat="37.7896640" lon="-3.8863480">
        <ele>579.2</ele>
        <time>2021-12-27T14:33:54Z</time>
      </trkpt>
      <trkpt lat="37.7896540" lon="-3.8863770">
        <ele>579.4</ele>
        <time>2021-12-27T14:33:55Z</time>
      </trkpt>
      <trkpt lat="37.7896420" lon="-3.8864050">
        <ele>579.4</ele>
        <time>2021-12-27T14:33:56Z</time>
      </trkpt>
      <trkpt lat="37.7896350" lon="-3.8864320">
        <ele>579.4</ele>
        <time>2021-12-27T14:33:57Z</time>
      </trkpt>
      <trkpt lat="37.7896220" lon="-3.8864640">
        <ele>579.6</ele>
        <time>2021-12-27T14:33:58Z</time>
      </trkpt>
      <trkpt lat="37.7896160" lon="-3.8864850">
        <ele>579.6</ele>
        <time>2021-12-27T14:33:59Z</time>
      </trkpt>
      <trkpt lat="37.7896030" lon="-3.8865120">
        <ele>579.6</ele>
        <time>2021-12-27T14:34:00Z</time>
      </trkpt>
      <trkpt lat="37.7895900" lon="-3.8865360">
        <ele>579.6</ele>
        <time>2021-12-27T14:34:01Z</time>
      </trkpt>
      <trkpt lat="37.7895780" lon="-3.8865650">
        <ele>579.6</ele>
        <time>2021-12-27T14:34:02Z</time>
      </trkpt>
      <trkpt lat="37.7895620" lon="-3.8865920">
        <ele>579.8</ele>
        <time>2021-12-27T14:34:03Z</time>
      </trkpt>
      <trkpt lat="37.7895550" lon="-3.8866220">
        <ele>579.8</ele>
        <time>2021-12-27T14:34:04Z</time>
      </trkpt>
      <trkpt lat="37.7895420" lon="-3.8866500">
        <ele>579.8</ele>
        <time>2021-12-27T14:34:05Z</time>
      </trkpt>
      <trkpt lat="37.7895260" lon="-3.8866800">
        <ele>580.0</ele>
        <time>2021-12-27T14:34:06Z</time>
      </trkpt>
      <trkpt lat="37.7895170" lon="-3.8867080">
        <ele>580.0</ele>
        <time>2021-12-27T14:34:07Z</time>
      </trkpt>
      <trkpt lat="37.7895040" lon="-3.8867370">
        <ele>580.2</ele>
        <time>2021-12-27T14:34:08Z</time>
      </trkpt>
      <trkpt lat="37.7894940" lon="-3.8867670">
        <ele>580.2</ele>
        <time>2021-12-27T14:34:09Z</time>
      </trkpt>
      <trkpt lat="37.7894780" lon="-3.8867970">
        <ele>580.2</ele>
        <time>2021-12-27T14:34:10Z</time>
      </trkpt>
      <trkpt lat="37.7894620" lon="-3.8868280">
        <ele>580.2</ele>
        <time>2021-12-27T14:34:11Z</time>
      </trkpt>
      <trkpt lat="37.7894460" lon="-3.8868650">
        <ele>580.4</ele>
        <time>2021-12-27T14:34:12Z</time>
      </trkpt>
      <trkpt lat="37.7894400" lon="-3.8868880">
        <ele>580.4</ele>
        <time>2021-12-27T14:34:13Z</time>
      </trkpt>
      <trkpt lat="37.7894270" lon="-3.8869180">
        <ele>580.4</ele>
        <time>2021-12-27T14:34:14Z</time>
      </trkpt>
      <trkpt lat="37.7894180" lon="-3.8869500">
        <ele>580.4</ele>
        <time>2021-12-27T14:34:15Z</time>
      </trkpt>
      <trkpt lat="37.7893980" lon="-3.8869830">
        <ele>580.6</ele>
        <time>2021-12-27T14:34:16Z</time>
      </trkpt>
      <trkpt lat="37.7893790" lon="-3.8870070">
        <ele>580.6</ele>
        <time>2021-12-27T14:34:17Z</time>
      </trkpt>
      <trkpt lat="37.7893600" lon="-3.8870370">
        <ele>580.6</ele>
        <time>2021-12-27T14:34:18Z</time>
      </trkpt>
      <trkpt lat="37.7893410" lon="-3.8870650">
        <ele>580.6</ele>
        <time>2021-12-27T14:34:19Z</time>
      </trkpt>
      <trkpt lat="37.7893180" lon="-3.8870980">
        <ele>580.6</ele>
        <time>2021-12-27T14:34:20Z</time>
      </trkpt>
      <trkpt lat="37.7893060" lon="-3.8871220">
        <ele>580.8</ele>
        <time>2021-12-27T14:34:21Z</time>
      </trkpt>
      <trkpt lat="37.7892930" lon="-3.8871480">
        <ele>581.0</ele>
        <time>2021-12-27T14:34:22Z</time>
      </trkpt>
      <trkpt lat="37.7892740" lon="-3.8871740">
        <ele>581.0</ele>
        <time>2021-12-27T14:34:23Z</time>
      </trkpt>
      <trkpt lat="37.7892580" lon="-3.8871980">
        <ele>581.0</ele>
        <time>2021-12-27T14:34:24Z</time>
      </trkpt>
      <trkpt lat="37.7892420" lon="-3.8872250">
        <ele>581.2</ele>
        <time>2021-12-27T14:34:25Z</time>
      </trkpt>
      <trkpt lat="37.7892220" lon="-3.8872520">
        <ele>581.4</ele>
        <time>2021-12-27T14:34:26Z</time>
      </trkpt>
      <trkpt lat="37.7892060" lon="-3.8872780">
        <ele>581.4</ele>
        <time>2021-12-27T14:34:27Z</time>
      </trkpt>
      <trkpt lat="37.7891870" lon="-3.8873030">
        <ele>581.6</ele>
        <time>2021-12-27T14:34:28Z</time>
      </trkpt>
      <trkpt lat="37.7891680" lon="-3.8873300">
        <ele>581.6</ele>
        <time>2021-12-27T14:34:29Z</time>
      </trkpt>
      <trkpt lat="37.7891550" lon="-3.8873540">
        <ele>581.6</ele>
        <time>2021-12-27T14:34:30Z</time>
      </trkpt>
      <trkpt lat="37.7891360" lon="-3.8873800">
        <ele>581.6</ele>
        <time>2021-12-27T14:34:31Z</time>
      </trkpt>
      <trkpt lat="37.7891140" lon="-3.8874060">
        <ele>581.6</ele>
        <time>2021-12-27T14:34:32Z</time>
      </trkpt>
      <trkpt lat="37.7890940" lon="-3.8874330">
        <ele>581.6</ele>
        <time>2021-12-27T14:34:33Z</time>
      </trkpt>
      <trkpt lat="37.7890690" lon="-3.8874650">
        <ele>581.6</ele>
        <time>2021-12-27T14:34:34Z</time>
      </trkpt>
      <trkpt lat="37.7890590" lon="-3.8874870">
        <ele>581.8</ele>
        <time>2021-12-27T14:34:35Z</time>
      </trkpt>
      <trkpt lat="37.7890430" lon="-3.8875120">
        <ele>581.8</ele>
        <time>2021-12-27T14:34:36Z</time>
      </trkpt>
      <trkpt lat="37.7890210" lon="-3.8875380">
        <ele>581.8</ele>
        <time>2021-12-27T14:34:37Z</time>
      </trkpt>
      <trkpt lat="37.7890080" lon="-3.8875580">
        <ele>581.8</ele>
        <time>2021-12-27T14:34:38Z</time>
      </trkpt>
      <trkpt lat="37.7889890" lon="-3.8875820">
        <ele>581.8</ele>
        <time>2021-12-27T14:34:39Z</time>
      </trkpt>
      <trkpt lat="37.7889700" lon="-3.8876020">
        <ele>581.8</ele>
        <time>2021-12-27T14:34:40Z</time>
      </trkpt>
      <trkpt lat="37.7889500" lon="-3.8876220">
        <ele>581.8</ele>
        <time>2021-12-27T14:34:41Z</time>
      </trkpt>
      <trkpt lat="37.7889380" lon="-3.8876430">
        <ele>581.8</ele>
        <time>2021-12-27T14:34:42Z</time>
      </trkpt>
      <trkpt lat="37.7889180" lon="-3.8876700">
        <ele>581.8</ele>
        <time>2021-12-27T14:34:43Z</time>
      </trkpt>
      <trkpt lat="37.7889020" lon="-3.8876880">
        <ele>582.0</ele>
        <time>2021-12-27T14:34:44Z</time>
      </trkpt>
      <trkpt lat="37.7888830" lon="-3.8877120">
        <ele>582.0</ele>
        <time>2021-12-27T14:34:45Z</time>
      </trkpt>
      <trkpt lat="37.7888670" lon="-3.8877320">
        <ele>582.0</ele>
        <time>2021-12-27T14:34:46Z</time>
      </trkpt>
      <trkpt lat="37.7888480" lon="-3.8877500">
        <ele>582.0</ele>
        <time>2021-12-27T14:34:47Z</time>
      </trkpt>
      <trkpt lat="37.7888350" lon="-3.8877730">
        <ele>582.0</ele>
        <time>2021-12-27T14:34:48Z</time>
      </trkpt>
      <trkpt lat="37.7888190" lon="-3.8877980">
        <ele>582.2</ele>
        <time>2021-12-27T14:34:49Z</time>
      </trkpt>
      <trkpt lat="37.7888030" lon="-3.8878200">
        <ele>582.2</ele>
        <time>2021-12-27T14:34:50Z</time>
      </trkpt>
      <trkpt lat="37.7887840" lon="-3.8878420">
        <ele>582.2</ele>
        <time>2021-12-27T14:34:51Z</time>
      </trkpt>
      <trkpt lat="37.7887620" lon="-3.8878680">
        <ele>582.2</ele>
        <time>2021-12-27T14:34:52Z</time>
      </trkpt>
      <trkpt lat="37.7887490" lon="-3.8878850">
        <ele>582.2</ele>
        <time>2021-12-27T14:34:53Z</time>
      </trkpt>
      <trkpt lat="37.7887300" lon="-3.8879060">
        <ele>582.2</ele>
        <time>2021-12-27T14:34:54Z</time>
      </trkpt>
      <trkpt lat="37.7887170" lon="-3.8879260">
        <ele>582.2</ele>
        <time>2021-12-27T14:34:55Z</time>
      </trkpt>
      <trkpt lat="37.7887010" lon="-3.8879500">
        <ele>582.4</ele>
        <time>2021-12-27T14:34:56Z</time>
      </trkpt>
      <trkpt lat="37.7886820" lon="-3.8879700">
        <ele>582.6</ele>
        <time>2021-12-27T14:34:57Z</time>
      </trkpt>
      <trkpt lat="37.7886660" lon="-3.8879930">
        <ele>582.6</ele>
        <time>2021-12-27T14:34:58Z</time>
      </trkpt>
      <trkpt lat="37.7886460" lon="-3.8880130">
        <ele>582.6</ele>
        <time>2021-12-27T14:34:59Z</time>
      </trkpt>
      <trkpt lat="37.7886270" lon="-3.8880320">
        <ele>582.6</ele>
        <time>2021-12-27T14:35:00Z</time>
      </trkpt>
      <trkpt lat="37.7886050" lon="-3.8880570">
        <ele>582.6</ele>
        <time>2021-12-27T14:35:01Z</time>
      </trkpt>
      <trkpt lat="37.7885920" lon="-3.8880740">
        <ele>582.6</ele>
        <time>2021-12-27T14:35:02Z</time>
      </trkpt>
      <trkpt lat="37.7885730" lon="-3.8880950">
        <ele>582.8</ele>
        <time>2021-12-27T14:35:03Z</time>
      </trkpt>
      <trkpt lat="37.7885540" lon="-3.8881150">
        <ele>582.8</ele>
        <time>2021-12-27T14:35:04Z</time>
      </trkpt>
      <trkpt lat="37.7885410" lon="-3.8881330">
        <ele>582.8</ele>
        <time>2021-12-27T14:35:05Z</time>
      </trkpt>
      <trkpt lat="37.7885220" lon="-3.8881520">
        <ele>582.8</ele>
        <time>2021-12-27T14:35:06Z</time>
      </trkpt>
      <trkpt lat="37.7885020" lon="-3.8881670">
        <ele>583.0</ele>
        <time>2021-12-27T14:35:07Z</time>
      </trkpt>
      <trkpt lat="37.7884800" lon="-3.8881830">
        <ele>583.0</ele>
        <time>2021-12-27T14:35:08Z</time>
      </trkpt>
      <trkpt lat="37.7884610" lon="-3.8882030">
        <ele>583.0</ele>
        <time>2021-12-27T14:35:09Z</time>
      </trkpt>
      <trkpt lat="37.7884420" lon="-3.8882250">
        <ele>583.0</ele>
        <time>2021-12-27T14:35:10Z</time>
      </trkpt>
      <trkpt lat="37.7884260" lon="-3.8882430">
        <ele>583.0</ele>
        <time>2021-12-27T14:35:11Z</time>
      </trkpt>
      <trkpt lat="37.7884100" lon="-3.8882600">
        <ele>583.0</ele>
        <time>2021-12-27T14:35:12Z</time>
      </trkpt>
      <trkpt lat="37.7883940" lon="-3.8882780">
        <ele>583.0</ele>
        <time>2021-12-27T14:35:13Z</time>
      </trkpt>
      <trkpt lat="37.7883740" lon="-3.8882950">
        <ele>583.0</ele>
        <time>2021-12-27T14:35:14Z</time>
      </trkpt>
      <trkpt lat="37.7883550" lon="-3.8883100">
        <ele>583.0</ele>
        <time>2021-12-27T14:35:15Z</time>
      </trkpt>
      <trkpt lat="37.7883390" lon="-3.8883250">
        <ele>583.0</ele>
        <time>2021-12-27T14:35:16Z</time>
      </trkpt>
      <trkpt lat="37.7883230" lon="-3.8883380">
        <ele>583.2</ele>
        <time>2021-12-27T14:35:17Z</time>
      </trkpt>
      <trkpt lat="37.7883040" lon="-3.8883550">
        <ele>583.2</ele>
        <time>2021-12-27T14:35:18Z</time>
      </trkpt>
      <trkpt lat="37.7882880" lon="-3.8883700">
        <ele>583.2</ele>
        <time>2021-12-27T14:35:19Z</time>
      </trkpt>
      <trkpt lat="37.7882690" lon="-3.8883880">
        <ele>583.2</ele>
        <time>2021-12-27T14:35:20Z</time>
      </trkpt>
      <trkpt lat="37.7882500" lon="-3.8884080">
        <ele>583.2</ele>
        <time>2021-12-27T14:35:21Z</time>
      </trkpt>
      <trkpt lat="37.7882270" lon="-3.8884250">
        <ele>583.4</ele>
        <time>2021-12-27T14:35:22Z</time>
      </trkpt>
      <trkpt lat="37.7882050" lon="-3.8884450">
        <ele>583.4</ele>
        <time>2021-12-27T14:35:23Z</time>
      </trkpt>
      <trkpt lat="37.7881860" lon="-3.8884630">
        <ele>583.6</ele>
        <time>2021-12-27T14:35:24Z</time>
      </trkpt>
      <trkpt lat="37.7881600" lon="-3.8884820">
        <ele>583.6</ele>
        <time>2021-12-27T14:35:25Z</time>
      </trkpt>
      <trkpt lat="37.7881410" lon="-3.8885020">
        <ele>583.6</ele>
        <time>2021-12-27T14:35:26Z</time>
      </trkpt>
      <trkpt lat="37.7881150" lon="-3.8885180">
        <ele>583.8</ele>
        <time>2021-12-27T14:35:27Z</time>
      </trkpt>
      <trkpt lat="37.7880930" lon="-3.8885330">
        <ele>583.8</ele>
        <time>2021-12-27T14:35:28Z</time>
      </trkpt>
      <trkpt lat="37.7880700" lon="-3.8885480">
        <ele>584.0</ele>
        <time>2021-12-27T14:35:29Z</time>
      </trkpt>
      <trkpt lat="37.7880450" lon="-3.8885650">
        <ele>584.0</ele>
        <time>2021-12-27T14:35:30Z</time>
      </trkpt>
      <trkpt lat="37.7880260" lon="-3.8885800">
        <ele>584.0</ele>
        <time>2021-12-27T14:35:31Z</time>
      </trkpt>
      <trkpt lat="37.7880030" lon="-3.8885960">
        <ele>584.2</ele>
        <time>2021-12-27T14:35:32Z</time>
      </trkpt>
      <trkpt lat="37.7879840" lon="-3.8886080">
        <ele>584.2</ele>
        <time>2021-12-27T14:35:33Z</time>
      </trkpt>
      <trkpt lat="37.7879650" lon="-3.8886180">
        <ele>584.2</ele>
        <time>2021-12-27T14:35:34Z</time>
      </trkpt>
      <trkpt lat="37.7879460" lon="-3.8886250">
        <ele>584.2</ele>
        <time>2021-12-27T14:35:35Z</time>
      </trkpt>
      <trkpt lat="37.7879260" lon="-3.8886350">
        <ele>584.4</ele>
        <time>2021-12-27T14:35:36Z</time>
      </trkpt>
      <trkpt lat="37.7879070" lon="-3.8886480">
        <ele>584.2</ele>
        <time>2021-12-27T14:35:37Z</time>
      </trkpt>
      <trkpt lat="37.7878910" lon="-3.8886630">
        <ele>584.2</ele>
        <time>2021-12-27T14:35:38Z</time>
      </trkpt>
      <trkpt lat="37.7878720" lon="-3.8886780">
        <ele>584.2</ele>
        <time>2021-12-27T14:35:39Z</time>
      </trkpt>
      <trkpt lat="37.7878530" lon="-3.8886920">
        <ele>584.2</ele>
        <time>2021-12-27T14:35:40Z</time>
      </trkpt>
      <trkpt lat="37.7878530" lon="-3.8886920">
        <ele>584.2</ele>
        <time>2021-12-27T14:35:41Z</time>
      </trkpt>
      <trkpt lat="37.7878240" lon="-3.8887050">
        <ele>584.4</ele>
        <time>2021-12-27T14:35:42Z</time>
      </trkpt>
      <trkpt lat="37.7878240" lon="-3.8887050">
        <ele>584.4</ele>
        <time>2021-12-27T14:35:43Z</time>
      </trkpt>
      <trkpt lat="37.7877980" lon="-3.8887150">
        <ele>584.4</ele>
        <time>2021-12-27T14:35:44Z</time>
      </trkpt>
      <trkpt lat="37.7877980" lon="-3.8887150">
        <ele>584.6</ele>
        <time>2021-12-27T14:35:45Z</time>
      </trkpt>
      <trkpt lat="37.7877790" lon="-3.8887280">
        <ele>584.6</ele>
        <time>2021-12-27T14:35:46Z</time>
      </trkpt>
      <trkpt lat="37.7877790" lon="-3.8887280">
        <ele>584.6</ele>
        <time>2021-12-27T14:35:47Z</time>
      </trkpt>
      <trkpt lat="37.7877540" lon="-3.8887450">
        <ele>584.8</ele>
        <time>2021-12-27T14:35:48Z</time>
      </trkpt>
      <trkpt lat="37.7877540" lon="-3.8887450">
        <ele>585.0</ele>
        <time>2021-12-27T14:35:49Z</time>
      </trkpt>
      <trkpt lat="37.7877250" lon="-3.8887580">
        <ele>585.0</ele>
        <time>2021-12-27T14:35:50Z</time>
      </trkpt>
      <trkpt lat="37.7877250" lon="-3.8887580">
        <ele>585.2</ele>
        <time>2021-12-27T14:35:51Z</time>
      </trkpt>
      <trkpt lat="37.7876960" lon="-3.8887750">
        <ele>585.2</ele>
        <time>2021-12-27T14:35:52Z</time>
      </trkpt>
      <trkpt lat="37.7876960" lon="-3.8887750">
        <ele>585.2</ele>
        <time>2021-12-27T14:35:53Z</time>
      </trkpt>
      <trkpt lat="37.7876700" lon="-3.8887880">
        <ele>585.2</ele>
        <time>2021-12-27T14:35:54Z</time>
      </trkpt>
      <trkpt lat="37.7876510" lon="-3.8887950">
        <ele>585.2</ele>
        <time>2021-12-27T14:35:55Z</time>
      </trkpt>
      <trkpt lat="37.7876510" lon="-3.8887950">
        <ele>585.2</ele>
        <time>2021-12-27T14:35:56Z</time>
      </trkpt>
      <trkpt lat="37.7876260" lon="-3.8888060">
        <ele>585.4</ele>
        <time>2021-12-27T14:35:57Z</time>
      </trkpt>
      <trkpt lat="37.7876060" lon="-3.8888150">
        <ele>585.4</ele>
        <time>2021-12-27T14:35:58Z</time>
      </trkpt>
      <trkpt lat="37.7876060" lon="-3.8888150">
        <ele>585.4</ele>
        <time>2021-12-27T14:35:59Z</time>
      </trkpt>
      <trkpt lat="37.7875780" lon="-3.8888300">
        <ele>585.4</ele>
        <time>2021-12-27T14:36:00Z</time>
      </trkpt>
      <trkpt lat="37.7875780" lon="-3.8888300">
        <ele>585.4</ele>
        <time>2021-12-27T14:36:01Z</time>
      </trkpt>
      <trkpt lat="37.7875490" lon="-3.8888420">
        <ele>585.4</ele>
        <time>2021-12-27T14:36:02Z</time>
      </trkpt>
      <trkpt lat="37.7875490" lon="-3.8888420">
        <ele>585.4</ele>
        <time>2021-12-27T14:36:03Z</time>
      </trkpt>
      <trkpt lat="37.7875200" lon="-3.8888620">
        <ele>585.6</ele>
        <time>2021-12-27T14:36:04Z</time>
      </trkpt>
      <trkpt lat="37.7875200" lon="-3.8888620">
        <ele>585.6</ele>
        <time>2021-12-27T14:36:05Z</time>
      </trkpt>
      <trkpt lat="37.7874880" lon="-3.8888730">
        <ele>585.6</ele>
        <time>2021-12-27T14:36:06Z</time>
      </trkpt>
      <trkpt lat="37.7874880" lon="-3.8888730">
        <ele>585.6</ele>
        <time>2021-12-27T14:36:07Z</time>
      </trkpt>
      <trkpt lat="37.7874560" lon="-3.8888880">
        <ele>585.6</ele>
        <time>2021-12-27T14:36:08Z</time>
      </trkpt>
      <trkpt lat="37.7874370" lon="-3.8888950">
        <ele>585.8</ele>
        <time>2021-12-27T14:36:09Z</time>
      </trkpt>
      <trkpt lat="37.7874180" lon="-3.8889020">
        <ele>585.8</ele>
        <time>2021-12-27T14:36:10Z</time>
      </trkpt>
      <trkpt lat="37.7874180" lon="-3.8889020">
        <ele>585.8</ele>
        <time>2021-12-27T14:36:11Z</time>
      </trkpt>
      <trkpt lat="37.7873860" lon="-3.8889130">
        <ele>586.0</ele>
        <time>2021-12-27T14:36:12Z</time>
      </trkpt>
      <trkpt lat="37.7873860" lon="-3.8889130">
        <ele>586.0</ele>
        <time>2021-12-27T14:36:13Z</time>
      </trkpt>
      <trkpt lat="37.7873540" lon="-3.8889250">
        <ele>586.0</ele>
        <time>2021-12-27T14:36:14Z</time>
      </trkpt>
      <trkpt lat="37.7873360" lon="-3.8889330">
        <ele>586.0</ele>
        <time>2021-12-27T14:36:15Z</time>
      </trkpt>
      <trkpt lat="37.7873180" lon="-3.8889400">
        <ele>586.2</ele>
        <time>2021-12-27T14:36:16Z</time>
      </trkpt>
      <trkpt lat="37.7872990" lon="-3.8889480">
        <ele>586.2</ele>
        <time>2021-12-27T14:36:17Z</time>
      </trkpt>
      <trkpt lat="37.7872990" lon="-3.8889480">
        <ele>586.2</ele>
        <time>2021-12-27T14:36:18Z</time>
      </trkpt>
      <trkpt lat="37.7872700" lon="-3.8889620">
        <ele>586.2</ele>
        <time>2021-12-27T14:36:19Z</time>
      </trkpt>
      <trkpt lat="37.7872510" lon="-3.8889680">
        <ele>586.2</ele>
        <time>2021-12-27T14:36:20Z</time>
      </trkpt>
      <trkpt lat="37.7872510" lon="-3.8889680">
        <ele>586.2</ele>
        <time>2021-12-27T14:36:21Z</time>
      </trkpt>
      <trkpt lat="37.7872190" lon="-3.8889780">
        <ele>586.2</ele>
        <time>2021-12-27T14:36:22Z</time>
      </trkpt>
      <trkpt lat="37.7872000" lon="-3.8889820">
        <ele>586.2</ele>
        <time>2021-12-27T14:36:23Z</time>
      </trkpt>
      <trkpt lat="37.7872000" lon="-3.8889820">
        <ele>586.2</ele>
        <time>2021-12-27T14:36:24Z</time>
      </trkpt>
      <trkpt lat="37.7871710" lon="-3.8889880">
        <ele>586.2</ele>
        <time>2021-12-27T14:36:25Z</time>
      </trkpt>
      <trkpt lat="37.7871710" lon="-3.8889880">
        <ele>586.2</ele>
        <time>2021-12-27T14:36:26Z</time>
      </trkpt>
      <trkpt lat="37.7871390" lon="-3.8890000">
        <ele>586.4</ele>
        <time>2021-12-27T14:36:27Z</time>
      </trkpt>
      <trkpt lat="37.7871200" lon="-3.8890070">
        <ele>586.4</ele>
        <time>2021-12-27T14:36:28Z</time>
      </trkpt>
      <trkpt lat="37.7871200" lon="-3.8890070">
        <ele>586.6</ele>
        <time>2021-12-27T14:36:29Z</time>
      </trkpt>
      <trkpt lat="37.7870880" lon="-3.8890220">
        <ele>586.6</ele>
        <time>2021-12-27T14:36:30Z</time>
      </trkpt>
      <trkpt lat="37.7870880" lon="-3.8890220">
        <ele>586.6</ele>
        <time>2021-12-27T14:36:31Z</time>
      </trkpt>
      <trkpt lat="37.7870530" lon="-3.8890330">
        <ele>586.6</ele>
        <time>2021-12-27T14:36:32Z</time>
      </trkpt>
      <trkpt lat="37.7870340" lon="-3.8890400">
        <ele>586.8</ele>
        <time>2021-12-27T14:36:33Z</time>
      </trkpt>
      <trkpt lat="37.7870110" lon="-3.8890480">
        <ele>586.8</ele>
        <time>2021-12-27T14:36:34Z</time>
      </trkpt>
      <trkpt lat="37.7869920" lon="-3.8890570">
        <ele>586.8</ele>
        <time>2021-12-27T14:36:35Z</time>
      </trkpt>
      <trkpt lat="37.7869700" lon="-3.8890650">
        <ele>587.0</ele>
        <time>2021-12-27T14:36:36Z</time>
      </trkpt>
      <trkpt lat="37.7869500" lon="-3.8890680">
        <ele>587.0</ele>
        <time>2021-12-27T14:36:37Z</time>
      </trkpt>
      <trkpt lat="37.7869250" lon="-3.8890720">
        <ele>587.0</ele>
        <time>2021-12-27T14:36:38Z</time>
      </trkpt>
      <trkpt lat="37.7869020" lon="-3.8890770">
        <ele>587.0</ele>
        <time>2021-12-27T14:36:39Z</time>
      </trkpt>
      <trkpt lat="37.7868770" lon="-3.8890830">
        <ele>587.0</ele>
        <time>2021-12-27T14:36:40Z</time>
      </trkpt>
      <trkpt lat="37.7868540" lon="-3.8890880">
        <ele>587.0</ele>
        <time>2021-12-27T14:36:41Z</time>
      </trkpt>
      <trkpt lat="37.7868320" lon="-3.8890930">
        <ele>587.0</ele>
        <time>2021-12-27T14:36:42Z</time>
      </trkpt>
      <trkpt lat="37.7868030" lon="-3.8890980">
        <ele>587.0</ele>
        <time>2021-12-27T14:36:43Z</time>
      </trkpt>
      <trkpt lat="37.7867810" lon="-3.8891040">
        <ele>587.0</ele>
        <time>2021-12-27T14:36:44Z</time>
      </trkpt>
      <trkpt lat="37.7867580" lon="-3.8891070">
        <ele>587.0</ele>
        <time>2021-12-27T14:36:45Z</time>
      </trkpt>
      <trkpt lat="37.7867330" lon="-3.8891070">
        <ele>587.2</ele>
        <time>2021-12-27T14:36:46Z</time>
      </trkpt>
      <trkpt lat="37.7867100" lon="-3.8891080">
        <ele>587.2</ele>
        <time>2021-12-27T14:36:47Z</time>
      </trkpt>
      <trkpt lat="37.7866910" lon="-3.8891050">
        <ele>587.2</ele>
        <time>2021-12-27T14:36:48Z</time>
      </trkpt>
      <trkpt lat="37.7866620" lon="-3.8891040">
        <ele>587.2</ele>
        <time>2021-12-27T14:36:49Z</time>
      </trkpt>
      <trkpt lat="37.7866430" lon="-3.8891050">
        <ele>587.2</ele>
        <time>2021-12-27T14:36:50Z</time>
      </trkpt>
      <trkpt lat="37.7866240" lon="-3.8891070">
        <ele>587.2</ele>
        <time>2021-12-27T14:36:51Z</time>
      </trkpt>
      <trkpt lat="37.7866240" lon="-3.8891070">
        <ele>587.2</ele>
        <time>2021-12-27T14:36:52Z</time>
      </trkpt>
      <trkpt lat="37.7865950" lon="-3.8891200">
        <ele>587.2</ele>
        <time>2021-12-27T14:36:53Z</time>
      </trkpt>
      <trkpt lat="37.7865950" lon="-3.8891200">
        <ele>587.2</ele>
        <time>2021-12-27T14:36:54Z</time>
      </trkpt>
      <trkpt lat="37.7865630" lon="-3.8891320">
        <ele>587.2</ele>
        <time>2021-12-27T14:36:55Z</time>
      </trkpt>
      <trkpt lat="37.7865630" lon="-3.8891320">
        <ele>587.2</ele>
        <time>2021-12-27T14:36:56Z</time>
      </trkpt>
      <trkpt lat="37.7865380" lon="-3.8891340">
        <ele>587.2</ele>
        <time>2021-12-27T14:36:57Z</time>
      </trkpt>
      <trkpt lat="37.7865380" lon="-3.8891340">
        <ele>587.4</ele>
        <time>2021-12-27T14:36:58Z</time>
      </trkpt>
      <trkpt lat="37.7865180" lon="-3.8891400">
        <ele>587.4</ele>
        <time>2021-12-27T14:36:59Z</time>
      </trkpt>
      <trkpt lat="37.7865180" lon="-3.8891400">
        <ele>587.4</ele>
        <time>2021-12-27T14:37:00Z</time>
      </trkpt>
      <trkpt lat="37.7865180" lon="-3.8891400">
        <ele>587.4</ele>
        <time>2021-12-27T14:37:01Z</time>
      </trkpt>
      <trkpt lat="37.7865180" lon="-3.8891400">
        <ele>587.6</ele>
        <time>2021-12-27T14:37:02Z</time>
      </trkpt>
      <trkpt lat="37.7864420" lon="-3.8891480">
        <ele>588.2</ele>
        <time>2021-12-27T14:37:12Z</time>
      </trkpt>
      <trkpt lat="37.7864220" lon="-3.8891500">
        <ele>588.4</ele>
        <time>2021-12-27T14:37:13Z</time>
      </trkpt>
      <trkpt lat="37.7864030" lon="-3.8891500">
        <ele>588.4</ele>
        <time>2021-12-27T14:37:14Z</time>
      </trkpt>
      <trkpt lat="37.7863840" lon="-3.8891500">
        <ele>588.6</ele>
        <time>2021-12-27T14:37:15Z</time>
      </trkpt>
      <trkpt lat="37.7863620" lon="-3.8891540">
        <ele>588.6</ele>
        <time>2021-12-27T14:37:16Z</time>
      </trkpt>
      <trkpt lat="37.7863420" lon="-3.8891560">
        <ele>588.6</ele>
        <time>2021-12-27T14:37:17Z</time>
      </trkpt>
      <trkpt lat="37.7863230" lon="-3.8891620">
        <ele>588.6</ele>
        <time>2021-12-27T14:37:18Z</time>
      </trkpt>
      <trkpt lat="37.7863230" lon="-3.8891620">
        <ele>588.6</ele>
        <time>2021-12-27T14:37:19Z</time>
      </trkpt>
      <trkpt lat="37.7862880" lon="-3.8891650">
        <ele>588.8</ele>
        <time>2021-12-27T14:37:20Z</time>
      </trkpt>
      <trkpt lat="37.7862690" lon="-3.8891660">
        <ele>588.8</ele>
        <time>2021-12-27T14:37:21Z</time>
      </trkpt>
      <trkpt lat="37.7862460" lon="-3.8891660">
        <ele>589.0</ele>
        <time>2021-12-27T14:37:22Z</time>
      </trkpt>
      <trkpt lat="37.7862240" lon="-3.8891680">
        <ele>589.0</ele>
        <time>2021-12-27T14:37:23Z</time>
      </trkpt>
      <trkpt lat="37.7861980" lon="-3.8891730">
        <ele>589.0</ele>
        <time>2021-12-27T14:37:24Z</time>
      </trkpt>
      <trkpt lat="37.7861790" lon="-3.8891770">
        <ele>589.0</ele>
        <time>2021-12-27T14:37:25Z</time>
      </trkpt>
      <trkpt lat="37.7861570" lon="-3.8891780">
        <ele>589.0</ele>
        <time>2021-12-27T14:37:26Z</time>
      </trkpt>
      <trkpt lat="37.7861380" lon="-3.8891820">
        <ele>589.2</ele>
        <time>2021-12-27T14:37:27Z</time>
      </trkpt>
      <trkpt lat="37.7861180" lon="-3.8891850">
        <ele>589.2</ele>
        <time>2021-12-27T14:37:28Z</time>
      </trkpt>
      <trkpt lat="37.7860990" lon="-3.8891870">
        <ele>589.2</ele>
        <time>2021-12-27T14:37:29Z</time>
      </trkpt>
      <trkpt lat="37.7860770" lon="-3.8891870">
        <ele>589.2</ele>
        <time>2021-12-27T14:37:30Z</time>
      </trkpt>
      <trkpt lat="37.7860510" lon="-3.8891870">
        <ele>589.2</ele>
        <time>2021-12-27T14:37:31Z</time>
      </trkpt>
      <trkpt lat="37.7860290" lon="-3.8891900">
        <ele>589.2</ele>
        <time>2021-12-27T14:37:32Z</time>
      </trkpt>
      <trkpt lat="37.7860100" lon="-3.8891930">
        <ele>589.4</ele>
        <time>2021-12-27T14:37:33Z</time>
      </trkpt>
      <trkpt lat="37.7859900" lon="-3.8891950">
        <ele>589.4</ele>
        <time>2021-12-27T14:37:34Z</time>
      </trkpt>
      <trkpt lat="37.7859900" lon="-3.8891950">
        <ele>589.4</ele>
        <time>2021-12-27T14:37:35Z</time>
      </trkpt>
      <trkpt lat="37.7859580" lon="-3.8891930">
        <ele>589.4</ele>
        <time>2021-12-27T14:37:36Z</time>
      </trkpt>
      <trkpt lat="37.7859390" lon="-3.8891950">
        <ele>589.4</ele>
        <time>2021-12-27T14:37:37Z</time>
      </trkpt>
      <trkpt lat="37.7859200" lon="-3.8891980">
        <ele>589.4</ele>
        <time>2021-12-27T14:37:38Z</time>
      </trkpt>
      <trkpt lat="37.7859010" lon="-3.8892020">
        <ele>589.4</ele>
        <time>2021-12-27T14:37:39Z</time>
      </trkpt>
      <trkpt lat="37.7859010" lon="-3.8892020">
        <ele>589.4</ele>
        <time>2021-12-27T14:37:40Z</time>
      </trkpt>
      <trkpt lat="37.7858660" lon="-3.8892080">
        <ele>589.4</ele>
        <time>2021-12-27T14:37:41Z</time>
      </trkpt>
      <trkpt lat="37.7858660" lon="-3.8892080">
        <ele>589.4</ele>
        <time>2021-12-27T14:37:42Z</time>
      </trkpt>
      <trkpt lat="37.7858370" lon="-3.8892100">
        <ele>589.4</ele>
        <time>2021-12-27T14:37:43Z</time>
      </trkpt>
      <trkpt lat="37.7858370" lon="-3.8892100">
        <ele>589.4</ele>
        <time>2021-12-27T14:37:44Z</time>
      </trkpt>
      <trkpt lat="37.7858020" lon="-3.8892120">
        <ele>589.4</ele>
        <time>2021-12-27T14:37:45Z</time>
      </trkpt>
      <trkpt lat="37.7857820" lon="-3.8892150">
        <ele>589.4</ele>
        <time>2021-12-27T14:37:46Z</time>
      </trkpt>
      <trkpt lat="37.7857820" lon="-3.8892150">
        <ele>589.4</ele>
        <time>2021-12-27T14:37:47Z</time>
      </trkpt>
      <trkpt lat="37.7857440" lon="-3.8892230">
        <ele>589.4</ele>
        <time>2021-12-27T14:37:48Z</time>
      </trkpt>
      <trkpt lat="37.7857250" lon="-3.8892220">
        <ele>589.4</ele>
        <time>2021-12-27T14:37:49Z</time>
      </trkpt>
      <trkpt lat="37.7857060" lon="-3.8892220">
        <ele>589.4</ele>
        <time>2021-12-27T14:37:50Z</time>
      </trkpt>
      <trkpt lat="37.7857060" lon="-3.8892220">
        <ele>589.4</ele>
        <time>2021-12-27T14:37:51Z</time>
      </trkpt>
      <trkpt lat="37.7856740" lon="-3.8892230">
        <ele>589.4</ele>
        <time>2021-12-27T14:37:52Z</time>
      </trkpt>
      <trkpt lat="37.7856740" lon="-3.8892230">
        <ele>589.4</ele>
        <time>2021-12-27T14:37:53Z</time>
      </trkpt>
      <trkpt lat="37.7856420" lon="-3.8892270">
        <ele>589.4</ele>
        <time>2021-12-27T14:37:54Z</time>
      </trkpt>
      <trkpt lat="37.7856220" lon="-3.8892280">
        <ele>589.4</ele>
        <time>2021-12-27T14:37:55Z</time>
      </trkpt>
      <trkpt lat="37.7856000" lon="-3.8892280">
        <ele>589.4</ele>
        <time>2021-12-27T14:37:56Z</time>
      </trkpt>
      <trkpt lat="37.7855740" lon="-3.8892280">
        <ele>589.4</ele>
        <time>2021-12-27T14:37:57Z</time>
      </trkpt>
      <trkpt lat="37.7855520" lon="-3.8892280">
        <ele>589.4</ele>
        <time>2021-12-27T14:37:58Z</time>
      </trkpt>
      <trkpt lat="37.7855330" lon="-3.8892300">
        <ele>589.4</ele>
        <time>2021-12-27T14:37:59Z</time>
      </trkpt>
      <trkpt lat="37.7855140" lon="-3.8892300">
        <ele>589.6</ele>
        <time>2021-12-27T14:38:00Z</time>
      </trkpt>
      <trkpt lat="37.7854910" lon="-3.8892320">
        <ele>589.6</ele>
        <time>2021-12-27T14:38:01Z</time>
      </trkpt>
      <trkpt lat="37.7854720" lon="-3.8892330">
        <ele>589.6</ele>
        <time>2021-12-27T14:38:02Z</time>
      </trkpt>
      <trkpt lat="37.7854530" lon="-3.8892330">
        <ele>589.6</ele>
        <time>2021-12-27T14:38:03Z</time>
      </trkpt>
      <trkpt lat="37.7854340" lon="-3.8892330">
        <ele>589.6</ele>
        <time>2021-12-27T14:38:04Z</time>
      </trkpt>
      <trkpt lat="37.7854110" lon="-3.8892370">
        <ele>589.8</ele>
        <time>2021-12-27T14:38:05Z</time>
      </trkpt>
      <trkpt lat="37.7853920" lon="-3.8892400">
        <ele>589.8</ele>
        <time>2021-12-27T14:38:06Z</time>
      </trkpt>
      <trkpt lat="37.7853730" lon="-3.8892450">
        <ele>589.8</ele>
        <time>2021-12-27T14:38:07Z</time>
      </trkpt>
      <trkpt lat="37.7853730" lon="-3.8892450">
        <ele>589.8</ele>
        <time>2021-12-27T14:38:08Z</time>
      </trkpt>
      <trkpt lat="37.7853440" lon="-3.8892530">
        <ele>589.8</ele>
        <time>2021-12-27T14:38:09Z</time>
      </trkpt>
      <trkpt lat="37.7853250" lon="-3.8892520">
        <ele>589.8</ele>
        <time>2021-12-27T14:38:10Z</time>
      </trkpt>
      <trkpt lat="37.7853250" lon="-3.8892520">
        <ele>589.8</ele>
        <time>2021-12-27T14:38:11Z</time>
      </trkpt>
      <trkpt lat="37.7852930" lon="-3.8892470">
        <ele>589.8</ele>
        <time>2021-12-27T14:38:12Z</time>
      </trkpt>
      <trkpt lat="37.7852740" lon="-3.8892450">
        <ele>589.8</ele>
        <time>2021-12-27T14:38:13Z</time>
      </trkpt>
      <trkpt lat="37.7852540" lon="-3.8892470">
        <ele>589.8</ele>
        <time>2021-12-27T14:38:14Z</time>
      </trkpt>
      <trkpt lat="37.7852350" lon="-3.8892500">
        <ele>589.8</ele>
        <time>2021-12-27T14:38:15Z</time>
      </trkpt>
      <trkpt lat="37.7852130" lon="-3.8892520">
        <ele>589.8</ele>
        <time>2021-12-27T14:38:16Z</time>
      </trkpt>
      <trkpt lat="37.7851900" lon="-3.8892550">
        <ele>590.0</ele>
        <time>2021-12-27T14:38:17Z</time>
      </trkpt>
      <trkpt lat="37.7851680" lon="-3.8892550">
        <ele>590.0</ele>
        <time>2021-12-27T14:38:18Z</time>
      </trkpt>
      <trkpt lat="37.7851460" lon="-3.8892550">
        <ele>590.0</ele>
        <time>2021-12-27T14:38:19Z</time>
      </trkpt>
      <trkpt lat="37.7851170" lon="-3.8892580">
        <ele>590.2</ele>
        <time>2021-12-27T14:38:20Z</time>
      </trkpt>
      <trkpt lat="37.7850940" lon="-3.8892630">
        <ele>590.2</ele>
        <time>2021-12-27T14:38:21Z</time>
      </trkpt>
      <trkpt lat="37.7850690" lon="-3.8892670">
        <ele>590.4</ele>
        <time>2021-12-27T14:38:22Z</time>
      </trkpt>
      <trkpt lat="37.7850460" lon="-3.8892700">
        <ele>590.4</ele>
        <time>2021-12-27T14:38:23Z</time>
      </trkpt>
      <trkpt lat="37.7850240" lon="-3.8892720">
        <ele>590.6</ele>
        <time>2021-12-27T14:38:24Z</time>
      </trkpt>
      <trkpt lat="37.7849950" lon="-3.8892750">
        <ele>590.6</ele>
        <time>2021-12-27T14:38:25Z</time>
      </trkpt>
      <trkpt lat="37.7849730" lon="-3.8892770">
        <ele>590.6</ele>
        <time>2021-12-27T14:38:26Z</time>
      </trkpt>
      <trkpt lat="37.7849470" lon="-3.8892780">
        <ele>590.8</ele>
        <time>2021-12-27T14:38:27Z</time>
      </trkpt>
      <trkpt lat="37.7849180" lon="-3.8892770">
        <ele>590.8</ele>
        <time>2021-12-27T14:38:28Z</time>
      </trkpt>
      <trkpt lat="37.7848960" lon="-3.8892780">
        <ele>591.0</ele>
        <time>2021-12-27T14:38:29Z</time>
      </trkpt>
      <trkpt lat="37.7848700" lon="-3.8892800">
        <ele>591.0</ele>
        <time>2021-12-27T14:38:30Z</time>
      </trkpt>
      <trkpt lat="37.7848510" lon="-3.8892800">
        <ele>591.0</ele>
        <time>2021-12-27T14:38:31Z</time>
      </trkpt>
      <trkpt lat="37.7848320" lon="-3.8892840">
        <ele>591.2</ele>
        <time>2021-12-27T14:38:32Z</time>
      </trkpt>
      <trkpt lat="37.7848130" lon="-3.8892880">
        <ele>591.2</ele>
        <time>2021-12-27T14:38:33Z</time>
      </trkpt>
      <trkpt lat="37.7847940" lon="-3.8892930">
        <ele>591.2</ele>
        <time>2021-12-27T14:38:34Z</time>
      </trkpt>
      <trkpt lat="37.7847740" lon="-3.8892960">
        <ele>591.2</ele>
        <time>2021-12-27T14:38:35Z</time>
      </trkpt>
      <trkpt lat="37.7847520" lon="-3.8893000">
        <ele>591.2</ele>
        <time>2021-12-27T14:38:36Z</time>
      </trkpt>
      <trkpt lat="37.7847260" lon="-3.8893030">
        <ele>591.2</ele>
        <time>2021-12-27T14:38:37Z</time>
      </trkpt>
      <trkpt lat="37.7847010" lon="-3.8893060">
        <ele>591.2</ele>
        <time>2021-12-27T14:38:38Z</time>
      </trkpt>
      <trkpt lat="37.7846780" lon="-3.8893100">
        <ele>591.4</ele>
        <time>2021-12-27T14:38:39Z</time>
      </trkpt>
      <trkpt lat="37.7846530" lon="-3.8893120">
        <ele>591.4</ele>
        <time>2021-12-27T14:38:40Z</time>
      </trkpt>
      <trkpt lat="37.7846300" lon="-3.8893150">
        <ele>591.4</ele>
        <time>2021-12-27T14:38:41Z</time>
      </trkpt>
      <trkpt lat="37.7846020" lon="-3.8893180">
        <ele>591.4</ele>
        <time>2021-12-27T14:38:42Z</time>
      </trkpt>
      <trkpt lat="37.7845760" lon="-3.8893200">
        <ele>591.4</ele>
        <time>2021-12-27T14:38:43Z</time>
      </trkpt>
      <trkpt lat="37.7845540" lon="-3.8893230">
        <ele>591.6</ele>
        <time>2021-12-27T14:38:44Z</time>
      </trkpt>
      <trkpt lat="37.7845340" lon="-3.8893230">
        <ele>591.6</ele>
        <time>2021-12-27T14:38:45Z</time>
      </trkpt>
      <trkpt lat="37.7845120" lon="-3.8893220">
        <ele>591.8</ele>
        <time>2021-12-27T14:38:46Z</time>
      </trkpt>
      <trkpt lat="37.7845120" lon="-3.8893220">
        <ele>591.8</ele>
        <time>2021-12-27T14:38:47Z</time>
      </trkpt>
      <trkpt lat="37.7844770" lon="-3.8893200">
        <ele>592.0</ele>
        <time>2021-12-27T14:38:48Z</time>
      </trkpt>
      <trkpt lat="37.7844770" lon="-3.8893200">
        <ele>592.0</ele>
        <time>2021-12-27T14:38:49Z</time>
      </trkpt>
      <trkpt lat="37.7844420" lon="-3.8893220">
        <ele>592.0</ele>
        <time>2021-12-27T14:38:50Z</time>
      </trkpt>
      <trkpt lat="37.7844220" lon="-3.8893220">
        <ele>592.0</ele>
        <time>2021-12-27T14:38:51Z</time>
      </trkpt>
      <trkpt lat="37.7844220" lon="-3.8893220">
        <ele>592.2</ele>
        <time>2021-12-27T14:38:52Z</time>
      </trkpt>
      <trkpt lat="37.7843940" lon="-3.8893180">
        <ele>592.2</ele>
        <time>2021-12-27T14:38:53Z</time>
      </trkpt>
      <trkpt lat="37.7843740" lon="-3.8893180">
        <ele>592.2</ele>
        <time>2021-12-27T14:38:54Z</time>
      </trkpt>
      <trkpt lat="37.7843740" lon="-3.8893180">
        <ele>592.2</ele>
        <time>2021-12-27T14:38:55Z</time>
      </trkpt>
      <trkpt lat="37.7843490" lon="-3.8893230">
        <ele>592.2</ele>
        <time>2021-12-27T14:38:56Z</time>
      </trkpt>
      <trkpt lat="37.7843490" lon="-3.8893230">
        <ele>592.2</ele>
        <time>2021-12-27T14:38:57Z</time>
      </trkpt>
      <trkpt lat="37.7843200" lon="-3.8893250">
        <ele>592.2</ele>
        <time>2021-12-27T14:38:58Z</time>
      </trkpt>
      <trkpt lat="37.7843200" lon="-3.8893250">
        <ele>592.2</ele>
        <time>2021-12-27T14:38:59Z</time>
      </trkpt>
      <trkpt lat="37.7842980" lon="-3.8893250">
        <ele>592.2</ele>
        <time>2021-12-27T14:39:00Z</time>
      </trkpt>
      <trkpt lat="37.7842980" lon="-3.8893250">
        <ele>592.2</ele>
        <time>2021-12-27T14:39:01Z</time>
      </trkpt>
      <trkpt lat="37.7842750" lon="-3.8893250">
        <ele>592.2</ele>
        <time>2021-12-27T14:39:02Z</time>
      </trkpt>
      <trkpt lat="37.7842750" lon="-3.8893250">
        <ele>592.2</ele>
        <time>2021-12-27T14:39:03Z</time>
      </trkpt>
      <trkpt lat="37.7842500" lon="-3.8893300">
        <ele>592.0</ele>
        <time>2021-12-27T14:39:04Z</time>
      </trkpt>
      <trkpt lat="37.7842500" lon="-3.8893300">
        <ele>592.0</ele>
        <time>2021-12-27T14:39:05Z</time>
      </trkpt>
      <trkpt lat="37.7842240" lon="-3.8893450">
        <ele>592.0</ele>
        <time>2021-12-27T14:39:06Z</time>
      </trkpt>
      <trkpt lat="37.7842240" lon="-3.8893450">
        <ele>592.2</ele>
        <time>2021-12-27T14:39:07Z</time>
      </trkpt>
      <trkpt lat="37.7841980" lon="-3.8893530">
        <ele>592.2</ele>
        <time>2021-12-27T14:39:08Z</time>
      </trkpt>
      <trkpt lat="37.7841980" lon="-3.8893530">
        <ele>592.2</ele>
        <time>2021-12-27T14:39:09Z</time>
      </trkpt>
      <trkpt lat="37.7841730" lon="-3.8893570">
        <ele>592.2</ele>
        <time>2021-12-27T14:39:10Z</time>
      </trkpt>
      <trkpt lat="37.7841730" lon="-3.8893570">
        <ele>592.2</ele>
        <time>2021-12-27T14:39:11Z</time>
      </trkpt>
      <trkpt lat="37.7841500" lon="-3.8893580">
        <ele>592.2</ele>
        <time>2021-12-27T14:39:12Z</time>
      </trkpt>
      <trkpt lat="37.7841500" lon="-3.8893580">
        <ele>592.2</ele>
        <time>2021-12-27T14:39:13Z</time>
      </trkpt>
      <trkpt lat="37.7841250" lon="-3.8893600">
        <ele>592.2</ele>
        <time>2021-12-27T14:39:14Z</time>
      </trkpt>
      <trkpt lat="37.7841250" lon="-3.8893600">
        <ele>592.4</ele>
        <time>2021-12-27T14:39:15Z</time>
      </trkpt>
      <trkpt lat="37.7841020" lon="-3.8893570">
        <ele>592.4</ele>
        <time>2021-12-27T14:39:16Z</time>
      </trkpt>
      <trkpt lat="37.7841020" lon="-3.8893570">
        <ele>592.4</ele>
        <time>2021-12-27T14:39:17Z</time>
      </trkpt>
      <trkpt lat="37.7840830" lon="-3.8893520">
        <ele>592.4</ele>
        <time>2021-12-27T14:39:18Z</time>
      </trkpt>
      <trkpt lat="37.7840830" lon="-3.8893520">
        <ele>592.4</ele>
        <time>2021-12-27T14:39:19Z</time>
      </trkpt>
      <trkpt lat="37.7840540" lon="-3.8893480">
        <ele>592.4</ele>
        <time>2021-12-27T14:39:20Z</time>
      </trkpt>
      <trkpt lat="37.7840540" lon="-3.8893480">
        <ele>592.4</ele>
        <time>2021-12-27T14:39:21Z</time>
      </trkpt>
      <trkpt lat="37.7840220" lon="-3.8893570">
        <ele>592.4</ele>
        <time>2021-12-27T14:39:22Z</time>
      </trkpt>
      <trkpt lat="37.7840030" lon="-3.8893580">
        <ele>592.4</ele>
        <time>2021-12-27T14:39:23Z</time>
      </trkpt>
      <trkpt lat="37.7839840" lon="-3.8893600">
        <ele>592.4</ele>
        <time>2021-12-27T14:39:24Z</time>
      </trkpt>
      <trkpt lat="37.7839650" lon="-3.8893620">
        <ele>592.4</ele>
        <time>2021-12-27T14:39:25Z</time>
      </trkpt>
      <trkpt lat="37.7839460" lon="-3.8893630">
        <ele>592.2</ele>
        <time>2021-12-27T14:39:26Z</time>
      </trkpt>
      <trkpt lat="37.7839260" lon="-3.8893650">
        <ele>592.4</ele>
        <time>2021-12-27T14:39:27Z</time>
      </trkpt>
      <trkpt lat="37.7839260" lon="-3.8893650">
        <ele>592.2</ele>
        <time>2021-12-27T14:39:28Z</time>
      </trkpt>
      <trkpt lat="37.7838910" lon="-3.8893650">
        <ele>592.2</ele>
        <time>2021-12-27T14:39:29Z</time>
      </trkpt>
      <trkpt lat="37.7838910" lon="-3.8893650">
        <ele>592.2</ele>
        <time>2021-12-27T14:39:30Z</time>
      </trkpt>
      <trkpt lat="37.7838560" lon="-3.8893680">
        <ele>592.2</ele>
        <time>2021-12-27T14:39:31Z</time>
      </trkpt>
      <trkpt lat="37.7838370" lon="-3.8893680">
        <ele>592.4</ele>
        <time>2021-12-27T14:39:32Z</time>
      </trkpt>
      <trkpt lat="37.7838180" lon="-3.8893700">
        <ele>592.4</ele>
        <time>2021-12-27T14:39:33Z</time>
      </trkpt>
      <trkpt lat="37.7837980" lon="-3.8893720">
        <ele>592.4</ele>
        <time>2021-12-27T14:39:34Z</time>
      </trkpt>
      <trkpt lat="37.7837980" lon="-3.8893720">
        <ele>592.4</ele>
        <time>2021-12-27T14:39:35Z</time>
      </trkpt>
      <trkpt lat="37.7837660" lon="-3.8893730">
        <ele>592.4</ele>
        <time>2021-12-27T14:39:36Z</time>
      </trkpt>
      <trkpt lat="37.7837660" lon="-3.8893730">
        <ele>592.6</ele>
        <time>2021-12-27T14:39:37Z</time>
      </trkpt>
      <trkpt lat="37.7837470" lon="-3.8893780">
        <ele>592.6</ele>
        <time>2021-12-27T14:39:38Z</time>
      </trkpt>
      <trkpt lat="37.7837470" lon="-3.8893780">
        <ele>592.8</ele>
        <time>2021-12-27T14:39:39Z</time>
      </trkpt>
      <trkpt lat="37.7837470" lon="-3.8893780">
        <ele>592.8</ele>
        <time>2021-12-27T14:39:40Z</time>
      </trkpt>
      <trkpt lat="37.7837470" lon="-3.8893780">
        <ele>592.8</ele>
        <time>2021-12-27T14:39:41Z</time>
      </trkpt>
      <trkpt lat="37.7836670" lon="-3.8893720">
        <ele>596.6</ele>
        <time>2021-12-27T14:42:09Z</time>
      </trkpt>
      <trkpt lat="37.7836480" lon="-3.8893770">
        <ele>596.6</ele>
        <time>2021-12-27T14:42:10Z</time>
      </trkpt>
      <trkpt lat="37.7836260" lon="-3.8893800">
        <ele>596.6</ele>
        <time>2021-12-27T14:42:11Z</time>
      </trkpt>
      <trkpt lat="37.7836030" lon="-3.8893800">
        <ele>596.6</ele>
        <time>2021-12-27T14:42:12Z</time>
      </trkpt>
      <trkpt lat="37.7835810" lon="-3.8893830">
        <ele>596.8</ele>
        <time>2021-12-27T14:42:13Z</time>
      </trkpt>
      <trkpt lat="37.7835620" lon="-3.8893870">
        <ele>596.8</ele>
        <time>2021-12-27T14:42:14Z</time>
      </trkpt>
      <trkpt lat="37.7835390" lon="-3.8893900">
        <ele>596.6</ele>
        <time>2021-12-27T14:42:15Z</time>
      </trkpt>
      <trkpt lat="37.7835390" lon="-3.8893900">
        <ele>596.8</ele>
        <time>2021-12-27T14:42:16Z</time>
      </trkpt>
      <trkpt lat="37.7835040" lon="-3.8893920">
        <ele>596.8</ele>
        <time>2021-12-27T14:42:17Z</time>
      </trkpt>
      <trkpt lat="37.7835040" lon="-3.8893920">
        <ele>596.8</ele>
        <time>2021-12-27T14:42:18Z</time>
      </trkpt>
      <trkpt lat="37.7834750" lon="-3.8893920">
        <ele>597.0</ele>
        <time>2021-12-27T14:42:19Z</time>
      </trkpt>
      <trkpt lat="37.7834750" lon="-3.8893920">
        <ele>597.0</ele>
        <time>2021-12-27T14:42:20Z</time>
      </trkpt>
      <trkpt lat="37.7834460" lon="-3.8893950">
        <ele>597.0</ele>
        <time>2021-12-27T14:42:21Z</time>
      </trkpt>
      <trkpt lat="37.7834460" lon="-3.8893950">
        <ele>597.2</ele>
        <time>2021-12-27T14:42:22Z</time>
      </trkpt>
      <trkpt lat="37.7834240" lon="-3.8893980">
        <ele>597.2</ele>
        <time>2021-12-27T14:42:23Z</time>
      </trkpt>
      <trkpt lat="37.7834240" lon="-3.8893980">
        <ele>597.2</ele>
        <time>2021-12-27T14:42:24Z</time>
      </trkpt>
      <trkpt lat="37.7833980" lon="-3.8893970">
        <ele>597.4</ele>
        <time>2021-12-27T14:42:25Z</time>
      </trkpt>
      <trkpt lat="37.7833980" lon="-3.8893970">
        <ele>597.4</ele>
        <time>2021-12-27T14:42:26Z</time>
      </trkpt>
      <trkpt lat="37.7833630" lon="-3.8894050">
        <ele>597.4</ele>
        <time>2021-12-27T14:42:27Z</time>
      </trkpt>
      <trkpt lat="37.7833630" lon="-3.8894050">
        <ele>597.4</ele>
        <time>2021-12-27T14:42:28Z</time>
      </trkpt>
      <trkpt lat="37.7833340" lon="-3.8894120">
        <ele>597.4</ele>
        <time>2021-12-27T14:42:29Z</time>
      </trkpt>
      <trkpt lat="37.7833340" lon="-3.8894120">
        <ele>597.4</ele>
        <time>2021-12-27T14:42:30Z</time>
      </trkpt>
      <trkpt lat="37.7833150" lon="-3.8894100">
        <ele>597.4</ele>
        <time>2021-12-27T14:42:31Z</time>
      </trkpt>
      <trkpt lat="37.7833150" lon="-3.8894100">
        <ele>597.4</ele>
        <time>2021-12-27T14:42:32Z</time>
      </trkpt>
      <trkpt lat="37.7833150" lon="-3.8894100">
        <ele>597.4</ele>
        <time>2021-12-27T14:42:33Z</time>
      </trkpt>
      <trkpt lat="37.7833150" lon="-3.8894100">
        <ele>597.6</ele>
        <time>2021-12-27T14:42:34Z</time>
      </trkpt>
      <trkpt lat="37.7833150" lon="-3.8894100">
        <ele>597.6</ele>
        <time>2021-12-27T14:42:35Z</time>
      </trkpt>
      <trkpt lat="37.7834180" lon="-3.8893850">
        <ele>599.2</ele>
        <time>2021-12-27T14:42:44Z</time>
      </trkpt>
      <trkpt lat="37.7834370" lon="-3.8893830">
        <ele>599.4</ele>
        <time>2021-12-27T14:42:45Z</time>
      </trkpt>
      <trkpt lat="37.7834560" lon="-3.8893830">
        <ele>599.4</ele>
        <time>2021-12-27T14:42:46Z</time>
      </trkpt>
      <trkpt lat="37.7834560" lon="-3.8893830">
        <ele>599.6</ele>
        <time>2021-12-27T14:42:47Z</time>
      </trkpt>
      <trkpt lat="37.7834560" lon="-3.8893830">
        <ele>599.6</ele>
        <time>2021-12-27T14:42:48Z</time>
      </trkpt>
      <trkpt lat="37.7834750" lon="-3.8894020">
        <ele>599.6</ele>
        <time>2021-12-27T14:42:49Z</time>
      </trkpt>
      <trkpt lat="37.7834750" lon="-3.8894020">
        <ele>599.6</ele>
        <time>2021-12-27T14:42:50Z</time>
      </trkpt>
      <trkpt lat="37.7834750" lon="-3.8894020">
        <ele>599.8</ele>
        <time>2021-12-27T14:42:51Z</time>
      </trkpt>
      <trkpt lat="37.7833500" lon="-3.8894020">
        <ele>602.8</ele>
        <time>2021-12-27T14:44:55Z</time>
      </trkpt>
      <trkpt lat="37.7833280" lon="-3.8894030">
        <ele>602.8</ele>
        <time>2021-12-27T14:44:56Z</time>
      </trkpt>
      <trkpt lat="37.7833090" lon="-3.8894070">
        <ele>602.8</ele>
        <time>2021-12-27T14:44:57Z</time>
      </trkpt>
      <trkpt lat="37.7832860" lon="-3.8894080">
        <ele>602.8</ele>
        <time>2021-12-27T14:44:58Z</time>
      </trkpt>
      <trkpt lat="37.7832670" lon="-3.8894080">
        <ele>602.8</ele>
        <time>2021-12-27T14:44:59Z</time>
      </trkpt>
      <trkpt lat="37.7832480" lon="-3.8894120">
        <ele>602.8</ele>
        <time>2021-12-27T14:45:00Z</time>
      </trkpt>
      <trkpt lat="37.7832290" lon="-3.8894130">
        <ele>602.8</ele>
        <time>2021-12-27T14:45:01Z</time>
      </trkpt>
      <trkpt lat="37.7832290" lon="-3.8894130">
        <ele>602.8</ele>
        <time>2021-12-27T14:45:02Z</time>
      </trkpt>
      <trkpt lat="37.7832030" lon="-3.8894180">
        <ele>603.0</ele>
        <time>2021-12-27T14:45:03Z</time>
      </trkpt>
      <trkpt lat="37.7832030" lon="-3.8894180">
        <ele>603.0</ele>
        <time>2021-12-27T14:45:04Z</time>
      </trkpt>
      <trkpt lat="37.7831710" lon="-3.8894220">
        <ele>603.0</ele>
        <time>2021-12-27T14:45:05Z</time>
      </trkpt>
      <trkpt lat="37.7831710" lon="-3.8894220">
        <ele>603.0</ele>
        <time>2021-12-27T14:45:06Z</time>
      </trkpt>
      <trkpt lat="37.7831490" lon="-3.8894220">
        <ele>603.0</ele>
        <time>2021-12-27T14:45:07Z</time>
      </trkpt>
      <trkpt lat="37.7831490" lon="-3.8894220">
        <ele>602.8</ele>
        <time>2021-12-27T14:45:08Z</time>
      </trkpt>
      <trkpt lat="37.7831490" lon="-3.8894220">
        <ele>602.8</ele>
        <time>2021-12-27T14:45:09Z</time>
      </trkpt>
      <trkpt lat="37.7831260" lon="-3.8894250">
        <ele>602.8</ele>
        <time>2021-12-27T14:45:10Z</time>
      </trkpt>
      <trkpt lat="37.7828100" lon="-3.8894690">
        <ele>605.6</ele>
        <time>2021-12-27T14:51:55Z</time>
      </trkpt>
      <trkpt lat="37.7827970" lon="-3.8894710">
        <ele>605.6</ele>
        <time>2021-12-27T14:51:56Z</time>
      </trkpt>
      <trkpt lat="37.7827840" lon="-3.8894740">
        <ele>605.6</ele>
        <time>2021-12-27T14:51:57Z</time>
      </trkpt>
      <trkpt lat="37.7827650" lon="-3.8894900">
        <ele>605.6</ele>
        <time>2021-12-27T14:51:58Z</time>
      </trkpt>
      <trkpt lat="37.7827390" lon="-3.8895130">
        <ele>605.6</ele>
        <time>2021-12-27T14:51:59Z</time>
      </trkpt>
      <trkpt lat="37.7827100" lon="-3.8895450">
        <ele>605.6</ele>
        <time>2021-12-27T14:52:00Z</time>
      </trkpt>
      <trkpt lat="37.7826820" lon="-3.8895770">
        <ele>605.8</ele>
        <time>2021-12-27T14:52:01Z</time>
      </trkpt>
      <trkpt lat="37.7826590" lon="-3.8896120">
        <ele>605.8</ele>
        <time>2021-12-27T14:52:02Z</time>
      </trkpt>
      <trkpt lat="37.7826400" lon="-3.8896500">
        <ele>605.8</ele>
        <time>2021-12-27T14:52:03Z</time>
      </trkpt>
      <trkpt lat="37.7826240" lon="-3.8896930">
        <ele>605.6</ele>
        <time>2021-12-27T14:52:04Z</time>
      </trkpt>
      <trkpt lat="37.7826110" lon="-3.8897450">
        <ele>605.6</ele>
        <time>2021-12-27T14:52:05Z</time>
      </trkpt>
      <trkpt lat="37.7826080" lon="-3.8898000">
        <ele>605.4</ele>
        <time>2021-12-27T14:52:06Z</time>
      </trkpt>
      <trkpt lat="37.7826020" lon="-3.8898620">
        <ele>605.4</ele>
        <time>2021-12-27T14:52:07Z</time>
      </trkpt>
      <trkpt lat="37.7825950" lon="-3.8899250">
        <ele>605.4</ele>
        <time>2021-12-27T14:52:08Z</time>
      </trkpt>
      <trkpt lat="37.7825890" lon="-3.8899880">
        <ele>605.4</ele>
        <time>2021-12-27T14:52:09Z</time>
      </trkpt>
      <trkpt lat="37.7825820" lon="-3.8900480">
        <ele>605.2</ele>
        <time>2021-12-27T14:52:10Z</time>
      </trkpt>
      <trkpt lat="37.7825760" lon="-3.8901070">
        <ele>605.2</ele>
        <time>2021-12-27T14:52:11Z</time>
      </trkpt>
      <trkpt lat="37.7825730" lon="-3.8901640">
        <ele>605.0</ele>
        <time>2021-12-27T14:52:12Z</time>
      </trkpt>
      <trkpt lat="37.7825700" lon="-3.8902230">
        <ele>605.0</ele>
        <time>2021-12-27T14:52:13Z</time>
      </trkpt>
      <trkpt lat="37.7825630" lon="-3.8902850">
        <ele>604.8</ele>
        <time>2021-12-27T14:52:14Z</time>
      </trkpt>
      <trkpt lat="37.7825540" lon="-3.8903430">
        <ele>604.6</ele>
        <time>2021-12-27T14:52:15Z</time>
      </trkpt>
      <trkpt lat="37.7825410" lon="-3.8904290">
        <ele>604.6</ele>
        <time>2021-12-27T14:52:16Z</time>
      </trkpt>
      <trkpt lat="37.7825340" lon="-3.8904570">
        <ele>604.6</ele>
        <time>2021-12-27T14:52:17Z</time>
      </trkpt>
      <trkpt lat="37.7825280" lon="-3.8905080">
        <ele>604.6</ele>
        <time>2021-12-27T14:52:18Z</time>
      </trkpt>
      <trkpt lat="37.7825150" lon="-3.8905600">
        <ele>604.6</ele>
        <time>2021-12-27T14:52:19Z</time>
      </trkpt>
      <trkpt lat="37.7825060" lon="-3.8906070">
        <ele>604.4</ele>
        <time>2021-12-27T14:52:20Z</time>
      </trkpt>
      <trkpt lat="37.7824900" lon="-3.8906520">
        <ele>604.4</ele>
        <time>2021-12-27T14:52:21Z</time>
      </trkpt>
      <trkpt lat="37.7824770" lon="-3.8906930">
        <ele>604.4</ele>
        <time>2021-12-27T14:52:22Z</time>
      </trkpt>
      <trkpt lat="37.7824700" lon="-3.8907350">
        <ele>604.2</ele>
        <time>2021-12-27T14:52:23Z</time>
      </trkpt>
      <trkpt lat="37.7824640" lon="-3.8907770">
        <ele>604.0</ele>
        <time>2021-12-27T14:52:24Z</time>
      </trkpt>
      <trkpt lat="37.7824540" lon="-3.8908200">
        <ele>604.0</ele>
        <time>2021-12-27T14:52:25Z</time>
      </trkpt>
      <trkpt lat="37.7824420" lon="-3.8908620">
        <ele>603.8</ele>
        <time>2021-12-27T14:52:26Z</time>
      </trkpt>
      <trkpt lat="37.7824260" lon="-3.8909070">
        <ele>603.6</ele>
        <time>2021-12-27T14:52:27Z</time>
      </trkpt>
      <trkpt lat="37.7824130" lon="-3.8909500">
        <ele>603.6</ele>
        <time>2021-12-27T14:52:28Z</time>
      </trkpt>
      <trkpt lat="37.7824030" lon="-3.8909950">
        <ele>603.4</ele>
        <time>2021-12-27T14:52:29Z</time>
      </trkpt>
      <trkpt lat="37.7823940" lon="-3.8910430">
        <ele>603.4</ele>
        <time>2021-12-27T14:52:30Z</time>
      </trkpt>
      <trkpt lat="37.7823840" lon="-3.8910900">
        <ele>603.4</ele>
        <time>2021-12-27T14:52:31Z</time>
      </trkpt>
      <trkpt lat="37.7823710" lon="-3.8911300">
        <ele>603.2</ele>
        <time>2021-12-27T14:52:32Z</time>
      </trkpt>
      <trkpt lat="37.7823620" lon="-3.8911700">
        <ele>603.0</ele>
        <time>2021-12-27T14:52:33Z</time>
      </trkpt>
      <trkpt lat="37.7823460" lon="-3.8912100">
        <ele>603.0</ele>
        <time>2021-12-27T14:52:34Z</time>
      </trkpt>
      <trkpt lat="37.7823330" lon="-3.8912520">
        <ele>602.8</ele>
        <time>2021-12-27T14:52:35Z</time>
      </trkpt>
      <trkpt lat="37.7823230" lon="-3.8912900">
        <ele>602.6</ele>
        <time>2021-12-27T14:52:36Z</time>
      </trkpt>
      <trkpt lat="37.7823100" lon="-3.8913250">
        <ele>602.6</ele>
        <time>2021-12-27T14:52:37Z</time>
      </trkpt>
      <trkpt lat="37.7822980" lon="-3.8913580">
        <ele>602.4</ele>
        <time>2021-12-27T14:52:38Z</time>
      </trkpt>
      <trkpt lat="37.7822910" lon="-3.8913900">
        <ele>602.2</ele>
        <time>2021-12-27T14:52:39Z</time>
      </trkpt>
      <trkpt lat="37.7822780" lon="-3.8914200">
        <ele>602.2</ele>
        <time>2021-12-27T14:52:40Z</time>
      </trkpt>
      <trkpt lat="37.7822720" lon="-3.8914520">
        <ele>602.2</ele>
        <time>2021-12-27T14:52:41Z</time>
      </trkpt>
      <trkpt lat="37.7822620" lon="-3.8914830">
        <ele>602.0</ele>
        <time>2021-12-27T14:52:42Z</time>
      </trkpt>
      <trkpt lat="37.7822500" lon="-3.8915170">
        <ele>602.0</ele>
        <time>2021-12-27T14:52:43Z</time>
      </trkpt>
      <trkpt lat="37.7822340" lon="-3.8915520">
        <ele>602.0</ele>
        <time>2021-12-27T14:52:44Z</time>
      </trkpt>
      <trkpt lat="37.7822180" lon="-3.8915850">
        <ele>601.8</ele>
        <time>2021-12-27T14:52:45Z</time>
      </trkpt>
      <trkpt lat="37.7822080" lon="-3.8916200">
        <ele>601.8</ele>
        <time>2021-12-27T14:52:46Z</time>
      </trkpt>
      <trkpt lat="37.7821920" lon="-3.8916530">
        <ele>601.8</ele>
        <time>2021-12-27T14:52:47Z</time>
      </trkpt>
      <trkpt lat="37.7821790" lon="-3.8916870">
        <ele>601.8</ele>
        <time>2021-12-27T14:52:48Z</time>
      </trkpt>
      <trkpt lat="37.7821630" lon="-3.8917220">
        <ele>601.8</ele>
        <time>2021-12-27T14:52:49Z</time>
      </trkpt>
      <trkpt lat="37.7821500" lon="-3.8917580">
        <ele>601.8</ele>
        <time>2021-12-27T14:52:50Z</time>
      </trkpt>
      <trkpt lat="37.7821340" lon="-3.8917900">
        <ele>601.6</ele>
        <time>2021-12-27T14:52:51Z</time>
      </trkpt>
      <trkpt lat="37.7821250" lon="-3.8918220">
        <ele>601.6</ele>
        <time>2021-12-27T14:52:52Z</time>
      </trkpt>
      <trkpt lat="37.7821090" lon="-3.8918530">
        <ele>601.6</ele>
        <time>2021-12-27T14:52:53Z</time>
      </trkpt>
      <trkpt lat="37.7820860" lon="-3.8918870">
        <ele>601.4</ele>
        <time>2021-12-27T14:52:54Z</time>
      </trkpt>
      <trkpt lat="37.7820700" lon="-3.8919220">
        <ele>601.4</ele>
        <time>2021-12-27T14:52:55Z</time>
      </trkpt>
      <trkpt lat="37.7820540" lon="-3.8919620">
        <ele>601.4</ele>
        <time>2021-12-27T14:52:56Z</time>
      </trkpt>
      <trkpt lat="37.7820350" lon="-3.8920050">
        <ele>601.4</ele>
        <time>2021-12-27T14:52:57Z</time>
      </trkpt>
      <trkpt lat="37.7820160" lon="-3.8920550">
        <ele>601.4</ele>
        <time>2021-12-27T14:52:58Z</time>
      </trkpt>
      <trkpt lat="37.7819970" lon="-3.8921020">
        <ele>601.4</ele>
        <time>2021-12-27T14:52:59Z</time>
      </trkpt>
      <trkpt lat="37.7819840" lon="-3.8921500">
        <ele>601.4</ele>
        <time>2021-12-27T14:53:00Z</time>
      </trkpt>
      <trkpt lat="37.7819650" lon="-3.8921930">
        <ele>601.4</ele>
        <time>2021-12-27T14:53:01Z</time>
      </trkpt>
      <trkpt lat="37.7819390" lon="-3.8922350">
        <ele>601.2</ele>
        <time>2021-12-27T14:53:02Z</time>
      </trkpt>
      <trkpt lat="37.7819200" lon="-3.8922780">
        <ele>601.2</ele>
        <time>2021-12-27T14:53:03Z</time>
      </trkpt>
      <trkpt lat="37.7818980" lon="-3.8923230">
        <ele>601.2</ele>
        <time>2021-12-27T14:53:04Z</time>
      </trkpt>
      <trkpt lat="37.7818780" lon="-3.8923720">
        <ele>601.2</ele>
        <time>2021-12-27T14:53:05Z</time>
      </trkpt>
      <trkpt lat="37.7818560" lon="-3.8924170">
        <ele>601.2</ele>
        <time>2021-12-27T14:53:06Z</time>
      </trkpt>
      <trkpt lat="37.7818340" lon="-3.8924630">
        <ele>601.0</ele>
        <time>2021-12-27T14:53:07Z</time>
      </trkpt>
      <trkpt lat="37.7818110" lon="-3.8925080">
        <ele>601.0</ele>
        <time>2021-12-27T14:53:08Z</time>
      </trkpt>
      <trkpt lat="37.7817920" lon="-3.8925500">
        <ele>600.8</ele>
        <time>2021-12-27T14:53:09Z</time>
      </trkpt>
      <trkpt lat="37.7817700" lon="-3.8925950">
        <ele>600.8</ele>
        <time>2021-12-27T14:53:10Z</time>
      </trkpt>
      <trkpt lat="37.7817500" lon="-3.8926350">
        <ele>600.6</ele>
        <time>2021-12-27T14:53:11Z</time>
      </trkpt>
      <trkpt lat="37.7817280" lon="-3.8926720">
        <ele>600.6</ele>
        <time>2021-12-27T14:53:12Z</time>
      </trkpt>
      <trkpt lat="37.7817090" lon="-3.8927100">
        <ele>600.6</ele>
        <time>2021-12-27T14:53:13Z</time>
      </trkpt>
      <trkpt lat="37.7816860" lon="-3.8927500">
        <ele>600.6</ele>
        <time>2021-12-27T14:53:14Z</time>
      </trkpt>
      <trkpt lat="37.7816670" lon="-3.8927870">
        <ele>600.6</ele>
        <time>2021-12-27T14:53:15Z</time>
      </trkpt>
      <trkpt lat="37.7816420" lon="-3.8928220">
        <ele>600.6</ele>
        <time>2021-12-27T14:53:16Z</time>
      </trkpt>
      <trkpt lat="37.7816220" lon="-3.8928550">
        <ele>600.4</ele>
        <time>2021-12-27T14:53:17Z</time>
      </trkpt>
      <trkpt lat="37.7816100" lon="-3.8928900">
        <ele>600.4</ele>
        <time>2021-12-27T14:53:18Z</time>
      </trkpt>
      <trkpt lat="37.7815900" lon="-3.8929230">
        <ele>600.4</ele>
        <time>2021-12-27T14:53:19Z</time>
      </trkpt>
      <trkpt lat="37.7815680" lon="-3.8929570">
        <ele>600.2</ele>
        <time>2021-12-27T14:53:20Z</time>
      </trkpt>
      <trkpt lat="37.7815490" lon="-3.8929920">
        <ele>600.2</ele>
        <time>2021-12-27T14:53:21Z</time>
      </trkpt>
      <trkpt lat="37.7815300" lon="-3.8930260">
        <ele>600.2</ele>
        <time>2021-12-27T14:53:22Z</time>
      </trkpt>
      <trkpt lat="37.7815100" lon="-3.8930580">
        <ele>600.2</ele>
        <time>2021-12-27T14:53:23Z</time>
      </trkpt>
      <trkpt lat="37.7814880" lon="-3.8930900">
        <ele>600.0</ele>
        <time>2021-12-27T14:53:24Z</time>
      </trkpt>
      <trkpt lat="37.7814690" lon="-3.8931270">
        <ele>600.0</ele>
        <time>2021-12-27T14:53:25Z</time>
      </trkpt>
      <trkpt lat="37.7814430" lon="-3.8931650">
        <ele>599.8</ele>
        <time>2021-12-27T14:53:26Z</time>
      </trkpt>
      <trkpt lat="37.7814240" lon="-3.8932020">
        <ele>599.8</ele>
        <time>2021-12-27T14:53:27Z</time>
      </trkpt>
      <trkpt lat="37.7814020" lon="-3.8932350">
        <ele>599.6</ele>
        <time>2021-12-27T14:53:28Z</time>
      </trkpt>
      <trkpt lat="37.7813820" lon="-3.8932680">
        <ele>599.6</ele>
        <time>2021-12-27T14:53:29Z</time>
      </trkpt>
      <trkpt lat="37.7813600" lon="-3.8933030">
        <ele>599.4</ele>
        <time>2021-12-27T14:53:30Z</time>
      </trkpt>
      <trkpt lat="37.7813410" lon="-3.8933380">
        <ele>599.4</ele>
        <time>2021-12-27T14:53:31Z</time>
      </trkpt>
      <trkpt lat="37.7813250" lon="-3.8933750">
        <ele>599.2</ele>
        <time>2021-12-27T14:53:32Z</time>
      </trkpt>
      <trkpt lat="37.7813020" lon="-3.8934130">
        <ele>599.2</ele>
        <time>2021-12-27T14:53:33Z</time>
      </trkpt>
      <trkpt lat="37.7812770" lon="-3.8934530">
        <ele>599.2</ele>
        <time>2021-12-27T14:53:34Z</time>
      </trkpt>
      <trkpt lat="37.7812540" lon="-3.8934880">
        <ele>599.2</ele>
        <time>2021-12-27T14:53:35Z</time>
      </trkpt>
      <trkpt lat="37.7812320" lon="-3.8935230">
        <ele>599.0</ele>
        <time>2021-12-27T14:53:36Z</time>
      </trkpt>
      <trkpt lat="37.7812100" lon="-3.8935600">
        <ele>599.0</ele>
        <time>2021-12-27T14:53:37Z</time>
      </trkpt>
      <trkpt lat="37.7811840" lon="-3.8935950">
        <ele>599.0</ele>
        <time>2021-12-27T14:53:38Z</time>
      </trkpt>
      <trkpt lat="37.7811620" lon="-3.8936300">
        <ele>598.8</ele>
        <time>2021-12-27T14:53:39Z</time>
      </trkpt>
      <trkpt lat="37.7811390" lon="-3.8936640">
        <ele>598.6</ele>
        <time>2021-12-27T14:53:40Z</time>
      </trkpt>
      <trkpt lat="37.7811170" lon="-3.8936970">
        <ele>598.6</ele>
        <time>2021-12-27T14:53:41Z</time>
      </trkpt>
      <trkpt lat="37.7810980" lon="-3.8937300">
        <ele>598.6</ele>
        <time>2021-12-27T14:53:42Z</time>
      </trkpt>
      <trkpt lat="37.7810780" lon="-3.8937600">
        <ele>598.6</ele>
        <time>2021-12-27T14:53:43Z</time>
      </trkpt>
      <trkpt lat="37.7810560" lon="-3.8937900">
        <ele>598.4</ele>
        <time>2021-12-27T14:53:44Z</time>
      </trkpt>
      <trkpt lat="37.7810370" lon="-3.8938200">
        <ele>598.4</ele>
        <time>2021-12-27T14:53:45Z</time>
      </trkpt>
      <trkpt lat="37.7810140" lon="-3.8938520">
        <ele>598.4</ele>
        <time>2021-12-27T14:53:46Z</time>
      </trkpt>
      <trkpt lat="37.7809950" lon="-3.8938830">
        <ele>598.2</ele>
        <time>2021-12-27T14:53:47Z</time>
      </trkpt>
      <trkpt lat="37.7809760" lon="-3.8939130">
        <ele>598.2</ele>
        <time>2021-12-27T14:53:48Z</time>
      </trkpt>
      <trkpt lat="37.7809570" lon="-3.8939430">
        <ele>598.2</ele>
        <time>2021-12-27T14:53:49Z</time>
      </trkpt>
      <trkpt lat="37.7809340" lon="-3.8939730">
        <ele>598.2</ele>
        <time>2021-12-27T14:53:50Z</time>
      </trkpt>
      <trkpt lat="37.7809150" lon="-3.8940030">
        <ele>598.2</ele>
        <time>2021-12-27T14:53:51Z</time>
      </trkpt>
      <trkpt lat="37.7808960" lon="-3.8940340">
        <ele>598.2</ele>
        <time>2021-12-27T14:53:52Z</time>
      </trkpt>
      <trkpt lat="37.7808800" lon="-3.8940620">
        <ele>598.0</ele>
        <time>2021-12-27T14:53:53Z</time>
      </trkpt>
      <trkpt lat="37.7808640" lon="-3.8940900">
        <ele>598.0</ele>
        <time>2021-12-27T14:53:54Z</time>
      </trkpt>
      <trkpt lat="37.7808450" lon="-3.8941180">
        <ele>598.0</ele>
        <time>2021-12-27T14:53:55Z</time>
      </trkpt>
      <trkpt lat="37.7808260" lon="-3.8941470">
        <ele>598.0</ele>
        <time>2021-12-27T14:53:56Z</time>
      </trkpt>
      <trkpt lat="37.7808060" lon="-3.8941750">
        <ele>598.0</ele>
        <time>2021-12-27T14:53:57Z</time>
      </trkpt>
      <trkpt lat="37.7807940" lon="-3.8942030">
        <ele>598.0</ele>
        <time>2021-12-27T14:53:58Z</time>
      </trkpt>
      <trkpt lat="37.7807740" lon="-3.8942320">
        <ele>598.0</ele>
        <time>2021-12-27T14:53:59Z</time>
      </trkpt>
      <trkpt lat="37.7807580" lon="-3.8942600">
        <ele>598.0</ele>
        <time>2021-12-27T14:54:00Z</time>
      </trkpt>
      <trkpt lat="37.7807460" lon="-3.8942870">
        <ele>598.0</ele>
        <time>2021-12-27T14:54:01Z</time>
      </trkpt>
      <trkpt lat="37.7807330" lon="-3.8943120">
        <ele>598.0</ele>
        <time>2021-12-27T14:54:02Z</time>
      </trkpt>
      <trkpt lat="37.7807170" lon="-3.8943330">
        <ele>598.0</ele>
        <time>2021-12-27T14:54:03Z</time>
      </trkpt>
      <trkpt lat="37.7807010" lon="-3.8943600">
        <ele>598.0</ele>
        <time>2021-12-27T14:54:04Z</time>
      </trkpt>
      <trkpt lat="37.7806850" lon="-3.8943880">
        <ele>598.0</ele>
        <time>2021-12-27T14:54:05Z</time>
      </trkpt>
      <trkpt lat="37.7806690" lon="-3.8944150">
        <ele>598.0</ele>
        <time>2021-12-27T14:54:06Z</time>
      </trkpt>
      <trkpt lat="37.7806560" lon="-3.8944420">
        <ele>598.0</ele>
        <time>2021-12-27T14:54:07Z</time>
      </trkpt>
      <trkpt lat="37.7806400" lon="-3.8944680">
        <ele>598.0</ele>
        <time>2021-12-27T14:54:08Z</time>
      </trkpt>
      <trkpt lat="37.7806240" lon="-3.8944950">
        <ele>598.2</ele>
        <time>2021-12-27T14:54:09Z</time>
      </trkpt>
      <trkpt lat="37.7806140" lon="-3.8945180">
        <ele>598.2</ele>
        <time>2021-12-27T14:54:10Z</time>
      </trkpt>
      <trkpt lat="37.7806020" lon="-3.8945420">
        <ele>598.2</ele>
        <time>2021-12-27T14:54:11Z</time>
      </trkpt>
      <trkpt lat="37.7805890" lon="-3.8945680">
        <ele>598.2</ele>
        <time>2021-12-27T14:54:12Z</time>
      </trkpt>
      <trkpt lat="37.7805760" lon="-3.8945930">
        <ele>598.2</ele>
        <time>2021-12-27T14:54:13Z</time>
      </trkpt>
      <trkpt lat="37.7805630" lon="-3.8946220">
        <ele>598.2</ele>
        <time>2021-12-27T14:54:14Z</time>
      </trkpt>
      <trkpt lat="37.7805500" lon="-3.8946470">
        <ele>598.2</ele>
        <time>2021-12-27T14:54:15Z</time>
      </trkpt>
      <trkpt lat="37.7805410" lon="-3.8946720">
        <ele>598.2</ele>
        <time>2021-12-27T14:54:16Z</time>
      </trkpt>
      <trkpt lat="37.7805280" lon="-3.8946980">
        <ele>598.2</ele>
        <time>2021-12-27T14:54:17Z</time>
      </trkpt>
      <trkpt lat="37.7805180" lon="-3.8947270">
        <ele>598.4</ele>
        <time>2021-12-27T14:54:18Z</time>
      </trkpt>
      <trkpt lat="37.7805020" lon="-3.8947570">
        <ele>598.4</ele>
        <time>2021-12-27T14:54:19Z</time>
      </trkpt>
      <trkpt lat="37.7804860" lon="-3.8947830">
        <ele>598.4</ele>
        <time>2021-12-27T14:54:20Z</time>
      </trkpt>
      <trkpt lat="37.7804770" lon="-3.8948100">
        <ele>598.4</ele>
        <time>2021-12-27T14:54:21Z</time>
      </trkpt>
      <trkpt lat="37.7804610" lon="-3.8948350">
        <ele>598.6</ele>
        <time>2021-12-27T14:54:22Z</time>
      </trkpt>
      <trkpt lat="37.7804480" lon="-3.8948630">
        <ele>598.6</ele>
        <time>2021-12-27T14:54:23Z</time>
      </trkpt>
      <trkpt lat="37.7804380" lon="-3.8948920">
        <ele>598.6</ele>
        <time>2021-12-27T14:54:24Z</time>
      </trkpt>
      <trkpt lat="37.7804220" lon="-3.8949200">
        <ele>598.8</ele>
        <time>2021-12-27T14:54:25Z</time>
      </trkpt>
      <trkpt lat="37.7804100" lon="-3.8949460">
        <ele>598.8</ele>
        <time>2021-12-27T14:54:26Z</time>
      </trkpt>
      <trkpt lat="37.7803970" lon="-3.8949750">
        <ele>598.8</ele>
        <time>2021-12-27T14:54:27Z</time>
      </trkpt>
      <trkpt lat="37.7803870" lon="-3.8950030">
        <ele>598.8</ele>
        <time>2021-12-27T14:54:28Z</time>
      </trkpt>
      <trkpt lat="37.7803780" lon="-3.8950320">
        <ele>598.8</ele>
        <time>2021-12-27T14:54:29Z</time>
      </trkpt>
      <trkpt lat="37.7803620" lon="-3.8950620">
        <ele>598.8</ele>
        <time>2021-12-27T14:54:30Z</time>
      </trkpt>
      <trkpt lat="37.7803490" lon="-3.8950900">
        <ele>598.8</ele>
        <time>2021-12-27T14:54:31Z</time>
      </trkpt>
      <trkpt lat="37.7803390" lon="-3.8951180">
        <ele>598.8</ele>
        <time>2021-12-27T14:54:32Z</time>
      </trkpt>
      <trkpt lat="37.7803260" lon="-3.8951480">
        <ele>598.8</ele>
        <time>2021-12-27T14:54:33Z</time>
      </trkpt>
      <trkpt lat="37.7803170" lon="-3.8951750">
        <ele>598.8</ele>
        <time>2021-12-27T14:54:34Z</time>
      </trkpt>
      <trkpt lat="37.7803070" lon="-3.8952030">
        <ele>598.8</ele>
        <time>2021-12-27T14:54:35Z</time>
      </trkpt>
      <trkpt lat="37.7802980" lon="-3.8952320">
        <ele>598.8</ele>
        <time>2021-12-27T14:54:36Z</time>
      </trkpt>
      <trkpt lat="37.7802850" lon="-3.8952600">
        <ele>599.0</ele>
        <time>2021-12-27T14:54:37Z</time>
      </trkpt>
      <trkpt lat="37.7802720" lon="-3.8952880">
        <ele>599.0</ele>
        <time>2021-12-27T14:54:38Z</time>
      </trkpt>
      <trkpt lat="37.7802620" lon="-3.8953170">
        <ele>599.0</ele>
        <time>2021-12-27T14:54:39Z</time>
      </trkpt>
      <trkpt lat="37.7802500" lon="-3.8953450">
        <ele>599.0</ele>
        <time>2021-12-27T14:54:40Z</time>
      </trkpt>
      <trkpt lat="37.7802430" lon="-3.8953720">
        <ele>598.8</ele>
        <time>2021-12-27T14:54:41Z</time>
      </trkpt>
      <trkpt lat="37.7802300" lon="-3.8953970">
        <ele>598.8</ele>
        <time>2021-12-27T14:54:42Z</time>
      </trkpt>
      <trkpt lat="37.7802210" lon="-3.8954200">
        <ele>598.8</ele>
        <time>2021-12-27T14:54:43Z</time>
      </trkpt>
      <trkpt lat="37.7802080" lon="-3.8954470">
        <ele>598.8</ele>
        <time>2021-12-27T14:54:44Z</time>
      </trkpt>
      <trkpt lat="37.7802020" lon="-3.8954740">
        <ele>599.0</ele>
        <time>2021-12-27T14:54:45Z</time>
      </trkpt>
      <trkpt lat="37.7801890" lon="-3.8954980">
        <ele>599.0</ele>
        <time>2021-12-27T14:54:46Z</time>
      </trkpt>
      <trkpt lat="37.7801820" lon="-3.8955250">
        <ele>599.0</ele>
        <time>2021-12-27T14:54:47Z</time>
      </trkpt>
      <trkpt lat="37.7801700" lon="-3.8955530">
        <ele>599.0</ele>
        <time>2021-12-27T14:54:48Z</time>
      </trkpt>
      <trkpt lat="37.7801540" lon="-3.8955780">
        <ele>599.0</ele>
        <time>2021-12-27T14:54:49Z</time>
      </trkpt>
      <trkpt lat="37.7801380" lon="-3.8956020">
        <ele>599.0</ele>
        <time>2021-12-27T14:54:50Z</time>
      </trkpt>
      <trkpt lat="37.7801120" lon="-3.8956230">
        <ele>599.0</ele>
        <time>2021-12-27T14:54:51Z</time>
      </trkpt>
      <trkpt lat="37.7800900" lon="-3.8956450">
        <ele>599.0</ele>
        <time>2021-12-27T14:54:52Z</time>
      </trkpt>
      <trkpt lat="37.7800670" lon="-3.8956660">
        <ele>599.2</ele>
        <time>2021-12-27T14:54:53Z</time>
      </trkpt>
      <trkpt lat="37.7800450" lon="-3.8956800">
        <ele>599.2</ele>
        <time>2021-12-27T14:54:54Z</time>
      </trkpt>
      <trkpt lat="37.7800220" lon="-3.8956930">
        <ele>599.4</ele>
        <time>2021-12-27T14:54:55Z</time>
      </trkpt>
      <trkpt lat="37.7800000" lon="-3.8957070">
        <ele>599.6</ele>
        <time>2021-12-27T14:54:56Z</time>
      </trkpt>
      <trkpt lat="37.7799740" lon="-3.8957180">
        <ele>599.6</ele>
        <time>2021-12-27T14:54:57Z</time>
      </trkpt>
      <trkpt lat="37.7799520" lon="-3.8957280">
        <ele>599.8</ele>
        <time>2021-12-27T14:54:58Z</time>
      </trkpt>
      <trkpt lat="37.7799300" lon="-3.8957350">
        <ele>599.8</ele>
        <time>2021-12-27T14:54:59Z</time>
      </trkpt>
      <trkpt lat="37.7799070" lon="-3.8957420">
        <ele>599.8</ele>
        <time>2021-12-27T14:55:00Z</time>
      </trkpt>
      <trkpt lat="37.7798850" lon="-3.8957470">
        <ele>599.8</ele>
        <time>2021-12-27T14:55:01Z</time>
      </trkpt>
      <trkpt lat="37.7798590" lon="-3.8957520">
        <ele>599.8</ele>
        <time>2021-12-27T14:55:02Z</time>
      </trkpt>
      <trkpt lat="37.7798340" lon="-3.8957580">
        <ele>599.8</ele>
        <time>2021-12-27T14:55:03Z</time>
      </trkpt>
      <trkpt lat="37.7798110" lon="-3.8957620">
        <ele>600.0</ele>
        <time>2021-12-27T14:55:04Z</time>
      </trkpt>
      <trkpt lat="37.7797860" lon="-3.8957630">
        <ele>600.0</ele>
        <time>2021-12-27T14:55:05Z</time>
      </trkpt>
      <trkpt lat="37.7797600" lon="-3.8957650">
        <ele>600.0</ele>
        <time>2021-12-27T14:55:06Z</time>
      </trkpt>
      <trkpt lat="37.7797340" lon="-3.8957680">
        <ele>600.0</ele>
        <time>2021-12-27T14:55:07Z</time>
      </trkpt>
      <trkpt lat="37.7797090" lon="-3.8957700">
        <ele>600.2</ele>
        <time>2021-12-27T14:55:08Z</time>
      </trkpt>
      <trkpt lat="37.7796860" lon="-3.8957700">
        <ele>600.2</ele>
        <time>2021-12-27T14:55:09Z</time>
      </trkpt>
      <trkpt lat="37.7796640" lon="-3.8957700">
        <ele>600.2</ele>
        <time>2021-12-27T14:55:10Z</time>
      </trkpt>
      <trkpt lat="37.7796420" lon="-3.8957700">
        <ele>600.2</ele>
        <time>2021-12-27T14:55:11Z</time>
      </trkpt>
      <trkpt lat="37.7796130" lon="-3.8957720">
        <ele>600.4</ele>
        <time>2021-12-27T14:55:12Z</time>
      </trkpt>
      <trkpt lat="37.7795900" lon="-3.8957740">
        <ele>600.4</ele>
        <time>2021-12-27T14:55:13Z</time>
      </trkpt>
      <trkpt lat="37.7795680" lon="-3.8957740">
        <ele>600.4</ele>
        <time>2021-12-27T14:55:14Z</time>
      </trkpt>
      <trkpt lat="37.7795460" lon="-3.8957720">
        <ele>600.6</ele>
        <time>2021-12-27T14:55:15Z</time>
      </trkpt>
      <trkpt lat="37.7795230" lon="-3.8957700">
        <ele>600.6</ele>
        <time>2021-12-27T14:55:16Z</time>
      </trkpt>
      <trkpt lat="37.7795040" lon="-3.8957680">
        <ele>600.6</ele>
        <time>2021-12-27T14:55:17Z</time>
      </trkpt>
      <trkpt lat="37.7794850" lon="-3.8957680">
        <ele>600.8</ele>
        <time>2021-12-27T14:55:18Z</time>
      </trkpt>
      <trkpt lat="37.7794660" lon="-3.8957680">
        <ele>600.8</ele>
        <time>2021-12-27T14:55:19Z</time>
      </trkpt>
      <trkpt lat="37.7794660" lon="-3.8957680">
        <ele>600.8</ele>
        <time>2021-12-27T14:55:20Z</time>
      </trkpt>
      <trkpt lat="37.7794340" lon="-3.8957630">
        <ele>600.8</ele>
        <time>2021-12-27T14:55:21Z</time>
      </trkpt>
      <trkpt lat="37.7794340" lon="-3.8957630">
        <ele>601.0</ele>
        <time>2021-12-27T14:55:22Z</time>
      </trkpt>
      <trkpt lat="37.7794050" lon="-3.8957570">
        <ele>601.0</ele>
        <time>2021-12-27T14:55:23Z</time>
      </trkpt>
      <trkpt lat="37.7794050" lon="-3.8957570">
        <ele>601.2</ele>
        <time>2021-12-27T14:55:24Z</time>
      </trkpt>
      <trkpt lat="37.7793760" lon="-3.8957480">
        <ele>601.2</ele>
        <time>2021-12-27T14:55:25Z</time>
      </trkpt>
      <trkpt lat="37.7793760" lon="-3.8957480">
        <ele>601.4</ele>
        <time>2021-12-27T14:55:26Z</time>
      </trkpt>
      <trkpt lat="37.7793470" lon="-3.8957300">
        <ele>601.4</ele>
        <time>2021-12-27T14:55:27Z</time>
      </trkpt>
      <trkpt lat="37.7793470" lon="-3.8957300">
        <ele>601.6</ele>
        <time>2021-12-27T14:55:28Z</time>
      </trkpt>
      <trkpt lat="37.7793180" lon="-3.8957150">
        <ele>601.8</ele>
        <time>2021-12-27T14:55:29Z</time>
      </trkpt>
      <trkpt lat="37.7793180" lon="-3.8957150">
        <ele>601.8</ele>
        <time>2021-12-27T14:55:30Z</time>
      </trkpt>
      <trkpt lat="37.7792900" lon="-3.8957070">
        <ele>602.0</ele>
        <time>2021-12-27T14:55:31Z</time>
      </trkpt>
      <trkpt lat="37.7792900" lon="-3.8957070">
        <ele>602.0</ele>
        <time>2021-12-27T14:55:32Z</time>
      </trkpt>
      <trkpt lat="37.7792700" lon="-3.8956950">
        <ele>602.2</ele>
        <time>2021-12-27T14:55:33Z</time>
      </trkpt>
      <trkpt lat="37.7792700" lon="-3.8956950">
        <ele>602.4</ele>
        <time>2021-12-27T14:55:34Z</time>
      </trkpt>
      <trkpt lat="37.7792700" lon="-3.8956950">
        <ele>602.4</ele>
        <time>2021-12-27T14:55:35Z</time>
      </trkpt>
      <trkpt lat="37.7792700" lon="-3.8956950">
        <ele>602.6</ele>
        <time>2021-12-27T14:55:36Z</time>
      </trkpt>
      <trkpt lat="37.7792700" lon="-3.8956950">
        <ele>603.6</ele>
        <time>2021-12-27T14:55:44Z</time>
      </trkpt>
      <trkpt lat="37.7792700" lon="-3.8956950">
        <ele>603.6</ele>
        <time>2021-12-27T14:55:45Z</time>
      </trkpt>
      <trkpt lat="37.7792700" lon="-3.8956950">
        <ele>603.6</ele>
        <time>2021-12-27T14:55:46Z</time>
      </trkpt>
      <trkpt lat="37.7792700" lon="-3.8956950">
        <ele>603.6</ele>
        <time>2021-12-27T14:55:47Z</time>
      </trkpt>
      <trkpt lat="37.7792700" lon="-3.8956950">
        <ele>603.8</ele>
        <time>2021-12-27T14:55:48Z</time>
      </trkpt>
      <trkpt lat="37.7792700" lon="-3.8956950">
        <ele>603.8</ele>
        <time>2021-12-27T14:55:49Z</time>
      </trkpt>
      <trkpt lat="37.7792700" lon="-3.8956950">
        <ele>603.8</ele>
        <time>2021-12-27T14:55:50Z</time>
      </trkpt>
      <trkpt lat="37.7792700" lon="-3.8956950">
        <ele>603.8</ele>
        <time>2021-12-27T14:55:51Z</time>
      </trkpt>
      <trkpt lat="37.7792700" lon="-3.8956950">
        <ele>603.8</ele>
        <time>2021-12-27T14:55:52Z</time>
      </trkpt>
      <trkpt lat="37.7792700" lon="-3.8956950">
        <ele>603.8</ele>
        <time>2021-12-27T14:55:53Z</time>
      </trkpt>
      <trkpt lat="37.7792700" lon="-3.8956950">
        <ele>603.8</ele>
        <time>2021-12-27T14:55:54Z</time>
      </trkpt>
      <trkpt lat="37.7792700" lon="-3.8956950">
        <ele>604.0</ele>
        <time>2021-12-27T14:55:55Z</time>
      </trkpt>
      <trkpt lat="37.7792700" lon="-3.8956950">
        <ele>604.0</ele>
        <time>2021-12-27T14:55:56Z</time>
      </trkpt>
      <trkpt lat="37.7792700" lon="-3.8956950">
        <ele>604.0</ele>
        <time>2021-12-27T14:55:57Z</time>
      </trkpt>
      <trkpt lat="37.7792700" lon="-3.8956950">
        <ele>604.0</ele>
        <time>2021-12-27T14:55:58Z</time>
      </trkpt>
      <trkpt lat="37.7792700" lon="-3.8956950">
        <ele>604.0</ele>
        <time>2021-12-27T14:55:59Z</time>
      </trkpt>
      <trkpt lat="37.7792700" lon="-3.8956950">
        <ele>604.2</ele>
        <time>2021-12-27T14:56:00Z</time>
      </trkpt>
      <trkpt lat="37.7792700" lon="-3.8956950">
        <ele>604.2</ele>
        <time>2021-12-27T14:56:01Z</time>
      </trkpt>
      <trkpt lat="37.7792700" lon="-3.8956950">
        <ele>604.2</ele>
        <time>2021-12-27T14:56:02Z</time>
      </trkpt>
      <trkpt lat="37.7792700" lon="-3.8956950">
        <ele>604.2</ele>
        <time>2021-12-27T14:56:03Z</time>
      </trkpt>
      <trkpt lat="37.7792700" lon="-3.8956950">
        <ele>604.2</ele>
        <time>2021-12-27T14:56:04Z</time>
      </trkpt>
      <trkpt lat="37.7792700" lon="-3.8956950">
        <ele>604.2</ele>
        <time>2021-12-27T14:56:05Z</time>
      </trkpt>
      <trkpt lat="37.7792700" lon="-3.8956950">
        <ele>604.2</ele>
        <time>2021-12-27T14:56:06Z</time>
      </trkpt>
      <trkpt lat="37.7792700" lon="-3.8956950">
        <ele>604.4</ele>
        <time>2021-12-27T14:56:07Z</time>
      </trkpt>
      <trkpt lat="37.7792700" lon="-3.8956950">
        <ele>604.4</ele>
        <time>2021-12-27T14:56:08Z</time>
      </trkpt>
      <trkpt lat="37.7792700" lon="-3.8956950">
        <ele>604.4</ele>
        <time>2021-12-27T14:56:09Z</time>
      </trkpt>
      <trkpt lat="37.7792700" lon="-3.8956950">
        <ele>604.4</ele>
        <time>2021-12-27T14:56:10Z</time>
      </trkpt>
      <trkpt lat="37.7792700" lon="-3.8956950">
        <ele>604.4</ele>
        <time>2021-12-27T14:56:11Z</time>
      </trkpt>
      <trkpt lat="37.7792700" lon="-3.8956950">
        <ele>604.4</ele>
        <time>2021-12-27T14:56:12Z</time>
      </trkpt>
      <trkpt lat="37.7792700" lon="-3.8956950">
        <ele>604.4</ele>
        <time>2021-12-27T14:56:13Z</time>
      </trkpt>
      <trkpt lat="37.7792700" lon="-3.8956950">
        <ele>604.4</ele>
        <time>2021-12-27T14:56:14Z</time>
      </trkpt>
      <trkpt lat="37.7792700" lon="-3.8956950">
        <ele>604.4</ele>
        <time>2021-12-27T14:56:15Z</time>
      </trkpt>
      <trkpt lat="37.7792700" lon="-3.8956950">
        <ele>604.6</ele>
        <time>2021-12-27T14:56:16Z</time>
      </trkpt>
      <trkpt lat="37.7792700" lon="-3.8956950">
        <ele>604.6</ele>
        <time>2021-12-27T14:56:17Z</time>
      </trkpt>
      <trkpt lat="37.7792700" lon="-3.8956950">
        <ele>604.6</ele>
        <time>2021-12-27T14:56:18Z</time>
      </trkpt>
      <trkpt lat="37.7792700" lon="-3.8956950">
        <ele>604.6</ele>
        <time>2021-12-27T14:56:19Z</time>
      </trkpt>
      <trkpt lat="37.7792700" lon="-3.8956950">
        <ele>604.6</ele>
        <time>2021-12-27T14:56:20Z</time>
      </trkpt>
      <trkpt lat="37.7792700" lon="-3.8956950">
        <ele>604.6</ele>
        <time>2021-12-27T14:56:21Z</time>
      </trkpt>
      <trkpt lat="37.7792700" lon="-3.8956950">
        <ele>604.6</ele>
        <time>2021-12-27T14:56:22Z</time>
      </trkpt>
      <trkpt lat="37.7792700" lon="-3.8956950">
        <ele>604.6</ele>
        <time>2021-12-27T14:56:23Z</time>
      </trkpt>
      <trkpt lat="37.7792700" lon="-3.8956950">
        <ele>604.6</ele>
        <time>2021-12-27T14:56:24Z</time>
      </trkpt>
      <trkpt lat="37.7792700" lon="-3.8956950">
        <ele>604.8</ele>
        <time>2021-12-27T14:56:25Z</time>
      </trkpt>
      <trkpt lat="37.7792700" lon="-3.8956950">
        <ele>604.8</ele>
        <time>2021-12-27T14:56:26Z</time>
      </trkpt>
      <trkpt lat="37.7792700" lon="-3.8956950">
        <ele>604.8</ele>
        <time>2021-12-27T14:56:27Z</time>
      </trkpt>
      <trkpt lat="37.7792540" lon="-3.8956820">
        <ele>604.8</ele>
        <time>2021-12-27T14:56:28Z</time>
      </trkpt>
      <trkpt lat="37.7792350" lon="-3.8956750">
        <ele>604.8</ele>
        <time>2021-12-27T14:56:29Z</time>
      </trkpt>
      <trkpt lat="37.7792130" lon="-3.8956660">
        <ele>604.8</ele>
        <time>2021-12-27T14:56:30Z</time>
      </trkpt>
      <trkpt lat="37.7791870" lon="-3.8956550">
        <ele>604.8</ele>
        <time>2021-12-27T14:56:31Z</time>
      </trkpt>
      <trkpt lat="37.7791520" lon="-3.8956430">
        <ele>605.0</ele>
        <time>2021-12-27T14:56:32Z</time>
      </trkpt>
      <trkpt lat="37.7791010" lon="-3.8956320">
        <ele>605.0</ele>
        <time>2021-12-27T14:56:33Z</time>
      </trkpt>
      <trkpt lat="37.7790850" lon="-3.8956320">
        <ele>605.0</ele>
        <time>2021-12-27T14:56:34Z</time>
      </trkpt>
      <trkpt lat="37.7790560" lon="-3.8956450">
        <ele>605.2</ele>
        <time>2021-12-27T14:56:35Z</time>
      </trkpt>
      <trkpt lat="37.7790300" lon="-3.8956630">
        <ele>605.2</ele>
        <time>2021-12-27T14:56:36Z</time>
      </trkpt>
      <trkpt lat="37.7789980" lon="-3.8956870">
        <ele>605.2</ele>
        <time>2021-12-27T14:56:37Z</time>
      </trkpt>
      <trkpt lat="37.7789760" lon="-3.8957130">
        <ele>605.2</ele>
        <time>2021-12-27T14:56:38Z</time>
      </trkpt>
      <trkpt lat="37.7789500" lon="-3.8957400">
        <ele>605.2</ele>
        <time>2021-12-27T14:56:39Z</time>
      </trkpt>
      <trkpt lat="37.7789220" lon="-3.8957650">
        <ele>605.2</ele>
        <time>2021-12-27T14:56:40Z</time>
      </trkpt>
      <trkpt lat="37.7788960" lon="-3.8957900">
        <ele>605.4</ele>
        <time>2021-12-27T14:56:41Z</time>
      </trkpt>
      <trkpt lat="37.7788670" lon="-3.8958100">
        <ele>605.4</ele>
        <time>2021-12-27T14:56:42Z</time>
      </trkpt>
      <trkpt lat="37.7788350" lon="-3.8958260">
        <ele>605.4</ele>
        <time>2021-12-27T14:56:43Z</time>
      </trkpt>
      <trkpt lat="37.7788030" lon="-3.8958430">
        <ele>605.6</ele>
        <time>2021-12-27T14:56:44Z</time>
      </trkpt>
      <trkpt lat="37.7787740" lon="-3.8958580">
        <ele>605.6</ele>
        <time>2021-12-27T14:56:45Z</time>
      </trkpt>
      <trkpt lat="37.7787420" lon="-3.8958700">
        <ele>605.6</ele>
        <time>2021-12-27T14:56:46Z</time>
      </trkpt>
      <trkpt lat="37.7787140" lon="-3.8958830">
        <ele>605.6</ele>
        <time>2021-12-27T14:56:47Z</time>
      </trkpt>
      <trkpt lat="37.7786780" lon="-3.8958950">
        <ele>605.6</ele>
        <time>2021-12-27T14:56:48Z</time>
      </trkpt>
      <trkpt lat="37.7786530" lon="-3.8959100">
        <ele>605.6</ele>
        <time>2021-12-27T14:56:49Z</time>
      </trkpt>
      <trkpt lat="37.7786300" lon="-3.8959270">
        <ele>605.8</ele>
        <time>2021-12-27T14:56:50Z</time>
      </trkpt>
      <trkpt lat="37.7786080" lon="-3.8959520">
        <ele>605.8</ele>
        <time>2021-12-27T14:56:51Z</time>
      </trkpt>
      <trkpt lat="37.7785950" lon="-3.8959850">
        <ele>605.8</ele>
        <time>2021-12-27T14:56:52Z</time>
      </trkpt>
      <trkpt lat="37.7785920" lon="-3.8960160">
        <ele>606.0</ele>
        <time>2021-12-27T14:56:53Z</time>
      </trkpt>
      <trkpt lat="37.7785920" lon="-3.8960530">
        <ele>606.0</ele>
        <time>2021-12-27T14:56:54Z</time>
      </trkpt>
      <trkpt lat="37.7785950" lon="-3.8960900">
        <ele>606.0</ele>
        <time>2021-12-27T14:56:55Z</time>
      </trkpt>
      <trkpt lat="37.7785950" lon="-3.8961240">
        <ele>606.2</ele>
        <time>2021-12-27T14:56:56Z</time>
      </trkpt>
      <trkpt lat="37.7785980" lon="-3.8961500">
        <ele>606.2</ele>
        <time>2021-12-27T14:56:57Z</time>
      </trkpt>
      <trkpt lat="37.7785980" lon="-3.8961500">
        <ele>606.2</ele>
        <time>2021-12-27T14:56:58Z</time>
      </trkpt>
      <trkpt lat="37.7785920" lon="-3.8961850">
        <ele>606.4</ele>
        <time>2021-12-27T14:56:59Z</time>
      </trkpt>
      <trkpt lat="37.7785920" lon="-3.8961850">
        <ele>606.6</ele>
        <time>2021-12-27T14:57:00Z</time>
      </trkpt>
      <trkpt lat="37.7785920" lon="-3.8961850">
        <ele>606.6</ele>
        <time>2021-12-27T14:57:01Z</time>
      </trkpt>
      <trkpt lat="37.7785920" lon="-3.8961850">
        <ele>606.8</ele>
        <time>2021-12-27T14:57:02Z</time>
      </trkpt>
      <trkpt lat="37.7785920" lon="-3.8961850">
        <ele>607.2</ele>
        <time>2021-12-27T14:57:07Z</time>
      </trkpt>
      <trkpt lat="37.7785920" lon="-3.8961850">
        <ele>607.2</ele>
        <time>2021-12-27T14:57:08Z</time>
      </trkpt>
      <trkpt lat="37.7785920" lon="-3.8961850">
        <ele>607.2</ele>
        <time>2021-12-27T14:57:09Z</time>
      </trkpt>
      <trkpt lat="37.7785920" lon="-3.8961850">
        <ele>607.2</ele>
        <time>2021-12-27T14:57:10Z</time>
      </trkpt>
      <trkpt lat="37.7785920" lon="-3.8961850">
        <ele>607.4</ele>
        <time>2021-12-27T14:57:11Z</time>
      </trkpt>
      <trkpt lat="37.7785920" lon="-3.8961850">
        <ele>607.6</ele>
        <time>2021-12-27T14:57:12Z</time>
      </trkpt>
      <trkpt lat="37.7785920" lon="-3.8961850">
        <ele>607.6</ele>
        <time>2021-12-27T14:57:13Z</time>
      </trkpt>
      <trkpt lat="37.7785920" lon="-3.8961850">
        <ele>607.8</ele>
        <time>2021-12-27T14:57:14Z</time>
      </trkpt>
      <trkpt lat="37.7785920" lon="-3.8961850">
        <ele>608.0</ele>
        <time>2021-12-27T14:57:15Z</time>
      </trkpt>
      <trkpt lat="37.7785920" lon="-3.8961850">
        <ele>608.2</ele>
        <time>2021-12-27T14:57:16Z</time>
      </trkpt>
      <trkpt lat="37.7785920" lon="-3.8961850">
        <ele>608.2</ele>
        <time>2021-12-27T14:57:17Z</time>
      </trkpt>
      <trkpt lat="37.7785920" lon="-3.8961850">
        <ele>608.4</ele>
        <time>2021-12-27T14:57:18Z</time>
      </trkpt>
      <trkpt lat="37.7785920" lon="-3.8961850">
        <ele>608.4</ele>
        <time>2021-12-27T14:57:19Z</time>
      </trkpt>
      <trkpt lat="37.7785920" lon="-3.8961850">
        <ele>608.4</ele>
        <time>2021-12-27T14:57:20Z</time>
      </trkpt>
      <trkpt lat="37.7785920" lon="-3.8961850">
        <ele>608.6</ele>
        <time>2021-12-27T14:57:21Z</time>
      </trkpt>
      <trkpt lat="37.7785920" lon="-3.8961850">
        <ele>608.6</ele>
        <time>2021-12-27T14:57:22Z</time>
      </trkpt>
      <trkpt lat="37.7785920" lon="-3.8961850">
        <ele>608.6</ele>
        <time>2021-12-27T14:57:23Z</time>
      </trkpt>
      <trkpt lat="37.7785920" lon="-3.8961850">
        <ele>608.8</ele>
        <time>2021-12-27T14:57:24Z</time>
      </trkpt>
      <trkpt lat="37.7785600" lon="-3.8961800">
        <ele>608.8</ele>
        <time>2021-12-27T14:57:25Z</time>
      </trkpt>
      <trkpt lat="37.7785410" lon="-3.8961740">
        <ele>608.8</ele>
        <time>2021-12-27T14:57:26Z</time>
      </trkpt>
      <trkpt lat="37.7785180" lon="-3.8961670">
        <ele>609.0</ele>
        <time>2021-12-27T14:57:27Z</time>
      </trkpt>
      <trkpt lat="37.7784990" lon="-3.8961620">
        <ele>609.0</ele>
        <time>2021-12-27T14:57:28Z</time>
      </trkpt>
      <trkpt lat="37.7784800" lon="-3.8961550">
        <ele>609.0</ele>
        <time>2021-12-27T14:57:29Z</time>
      </trkpt>
      <trkpt lat="37.7784610" lon="-3.8961540">
        <ele>609.0</ele>
        <time>2021-12-27T14:57:30Z</time>
      </trkpt>
      <trkpt lat="37.7784380" lon="-3.8961520">
        <ele>609.0</ele>
        <time>2021-12-27T14:57:31Z</time>
      </trkpt>
      <trkpt lat="37.7784190" lon="-3.8961480">
        <ele>609.0</ele>
        <time>2021-12-27T14:57:32Z</time>
      </trkpt>
      <trkpt lat="37.7783970" lon="-3.8961520">
        <ele>609.0</ele>
        <time>2021-12-27T14:57:33Z</time>
      </trkpt>
      <trkpt lat="37.7783970" lon="-3.8961520">
        <ele>609.0</ele>
        <time>2021-12-27T14:57:34Z</time>
      </trkpt>
      <trkpt lat="37.7783900" lon="-3.8961780">
        <ele>609.2</ele>
        <time>2021-12-27T14:57:35Z</time>
      </trkpt>
      <trkpt lat="37.7783900" lon="-3.8961780">
        <ele>609.2</ele>
        <time>2021-12-27T14:57:36Z</time>
      </trkpt>
      <trkpt lat="37.7784130" lon="-3.8961920">
        <ele>609.2</ele>
        <time>2021-12-27T14:57:37Z</time>
      </trkpt>
      <trkpt lat="37.7784130" lon="-3.8961920">
        <ele>609.2</ele>
        <time>2021-12-27T14:57:38Z</time>
      </trkpt>
      <trkpt lat="37.7784350" lon="-3.8961830">
        <ele>609.2</ele>
        <time>2021-12-27T14:57:39Z</time>
      </trkpt>
      <trkpt lat="37.7784540" lon="-3.8961770">
        <ele>609.2</ele>
        <time>2021-12-27T14:57:40Z</time>
      </trkpt>
      <trkpt lat="37.7784740" lon="-3.8961700">
        <ele>609.2</ele>
        <time>2021-12-27T14:57:41Z</time>
      </trkpt>
      <trkpt lat="37.7784990" lon="-3.8961720">
        <ele>609.4</ele>
        <time>2021-12-27T14:57:42Z</time>
      </trkpt>
      <trkpt lat="37.7785220" lon="-3.8961820">
        <ele>609.4</ele>
        <time>2021-12-27T14:57:43Z</time>
      </trkpt>
      <trkpt lat="37.7785540" lon="-3.8961970">
        <ele>609.4</ele>
        <time>2021-12-27T14:57:44Z</time>
      </trkpt>
      <trkpt lat="37.7785790" lon="-3.8962150">
        <ele>609.4</ele>
        <time>2021-12-27T14:57:45Z</time>
      </trkpt>
      <trkpt lat="37.7786110" lon="-3.8962300">
        <ele>609.6</ele>
        <time>2021-12-27T14:57:46Z</time>
      </trkpt>
      <trkpt lat="37.7786370" lon="-3.8962430">
        <ele>609.6</ele>
        <time>2021-12-27T14:57:47Z</time>
      </trkpt>
      <trkpt lat="37.7786620" lon="-3.8962630">
        <ele>609.6</ele>
        <time>2021-12-27T14:57:48Z</time>
      </trkpt>
      <trkpt lat="37.7786910" lon="-3.8962920">
        <ele>609.6</ele>
        <time>2021-12-27T14:57:49Z</time>
      </trkpt>
      <trkpt lat="37.7787100" lon="-3.8963260">
        <ele>609.4</ele>
        <time>2021-12-27T14:57:50Z</time>
      </trkpt>
      <trkpt lat="37.7787230" lon="-3.8963620">
        <ele>609.4</ele>
        <time>2021-12-27T14:57:51Z</time>
      </trkpt>
      <trkpt lat="37.7787390" lon="-3.8963970">
        <ele>609.4</ele>
        <time>2021-12-27T14:57:52Z</time>
      </trkpt>
      <trkpt lat="37.7787520" lon="-3.8964370">
        <ele>609.4</ele>
        <time>2021-12-27T14:57:53Z</time>
      </trkpt>
      <trkpt lat="37.7787580" lon="-3.8964750">
        <ele>609.6</ele>
        <time>2021-12-27T14:57:54Z</time>
      </trkpt>
      <trkpt lat="37.7787550" lon="-3.8965080">
        <ele>609.6</ele>
        <time>2021-12-27T14:57:55Z</time>
      </trkpt>
      <trkpt lat="37.7787520" lon="-3.8965430">
        <ele>609.6</ele>
        <time>2021-12-27T14:57:56Z</time>
      </trkpt>
      <trkpt lat="37.7787390" lon="-3.8965780">
        <ele>609.6</ele>
        <time>2021-12-27T14:57:57Z</time>
      </trkpt>
      <trkpt lat="37.7787300" lon="-3.8966070">
        <ele>609.8</ele>
        <time>2021-12-27T14:57:58Z</time>
      </trkpt>
      <trkpt lat="37.7787100" lon="-3.8966330">
        <ele>609.8</ele>
        <time>2021-12-27T14:57:59Z</time>
      </trkpt>
      <trkpt lat="37.7786910" lon="-3.8966600">
        <ele>609.8</ele>
        <time>2021-12-27T14:58:00Z</time>
      </trkpt>
      <trkpt lat="37.7786690" lon="-3.8966900">
        <ele>609.8</ele>
        <time>2021-12-27T14:58:01Z</time>
      </trkpt>
      <trkpt lat="37.7786500" lon="-3.8967180">
        <ele>609.8</ele>
        <time>2021-12-27T14:58:02Z</time>
      </trkpt>
      <trkpt lat="37.7786300" lon="-3.8967450">
        <ele>609.8</ele>
        <time>2021-12-27T14:58:03Z</time>
      </trkpt>
      <trkpt lat="37.7786110" lon="-3.8967750">
        <ele>610.0</ele>
        <time>2021-12-27T14:58:04Z</time>
      </trkpt>
      <trkpt lat="37.7785920" lon="-3.8968020">
        <ele>610.0</ele>
        <time>2021-12-27T14:58:05Z</time>
      </trkpt>
      <trkpt lat="37.7785700" lon="-3.8968320">
        <ele>610.0</ele>
        <time>2021-12-27T14:58:06Z</time>
      </trkpt>
      <trkpt lat="37.7785500" lon="-3.8968640">
        <ele>610.2</ele>
        <time>2021-12-27T14:58:07Z</time>
      </trkpt>
      <trkpt lat="37.7785310" lon="-3.8968920">
        <ele>610.2</ele>
        <time>2021-12-27T14:58:08Z</time>
      </trkpt>
      <trkpt lat="37.7785090" lon="-3.8969230">
        <ele>610.4</ele>
        <time>2021-12-27T14:58:09Z</time>
      </trkpt>
      <trkpt lat="37.7784900" lon="-3.8969530">
        <ele>610.4</ele>
        <time>2021-12-27T14:58:10Z</time>
      </trkpt>
      <trkpt lat="37.7784640" lon="-3.8969880">
        <ele>610.4</ele>
        <time>2021-12-27T14:58:11Z</time>
      </trkpt>
      <trkpt lat="37.7784420" lon="-3.8970250">
        <ele>610.4</ele>
        <time>2021-12-27T14:58:12Z</time>
      </trkpt>
      <trkpt lat="37.7784190" lon="-3.8970580">
        <ele>610.4</ele>
        <time>2021-12-27T14:58:13Z</time>
      </trkpt>
      <trkpt lat="37.7783970" lon="-3.8970920">
        <ele>610.4</ele>
        <time>2021-12-27T14:58:14Z</time>
      </trkpt>
      <trkpt lat="37.7783740" lon="-3.8971250">
        <ele>610.4</ele>
        <time>2021-12-27T14:58:15Z</time>
      </trkpt>
      <trkpt lat="37.7783580" lon="-3.8971550">
        <ele>610.6</ele>
        <time>2021-12-27T14:58:16Z</time>
      </trkpt>
      <trkpt lat="37.7783390" lon="-3.8971870">
        <ele>610.4</ele>
        <time>2021-12-27T14:58:17Z</time>
      </trkpt>
      <trkpt lat="37.7783200" lon="-3.8972180">
        <ele>610.4</ele>
        <time>2021-12-27T14:58:18Z</time>
      </trkpt>
      <trkpt lat="37.7783010" lon="-3.8972480">
        <ele>610.4</ele>
        <time>2021-12-27T14:58:19Z</time>
      </trkpt>
      <trkpt lat="37.7782820" lon="-3.8972780">
        <ele>610.4</ele>
        <time>2021-12-27T14:58:20Z</time>
      </trkpt>
      <trkpt lat="37.7782620" lon="-3.8973080">
        <ele>610.4</ele>
        <time>2021-12-27T14:58:21Z</time>
      </trkpt>
      <trkpt lat="37.7782400" lon="-3.8973420">
        <ele>610.4</ele>
        <time>2021-12-27T14:58:22Z</time>
      </trkpt>
      <trkpt lat="37.7782180" lon="-3.8973720">
        <ele>610.4</ele>
        <time>2021-12-27T14:58:23Z</time>
      </trkpt>
      <trkpt lat="37.7781950" lon="-3.8974050">
        <ele>610.4</ele>
        <time>2021-12-27T14:58:24Z</time>
      </trkpt>
      <trkpt lat="37.7781730" lon="-3.8974380">
        <ele>610.4</ele>
        <time>2021-12-27T14:58:25Z</time>
      </trkpt>
      <trkpt lat="37.7781540" lon="-3.8974720">
        <ele>610.4</ele>
        <time>2021-12-27T14:58:26Z</time>
      </trkpt>
      <trkpt lat="37.7781340" lon="-3.8975070">
        <ele>610.4</ele>
        <time>2021-12-27T14:58:27Z</time>
      </trkpt>
      <trkpt lat="37.7781120" lon="-3.8975380">
        <ele>610.4</ele>
        <time>2021-12-27T14:58:28Z</time>
      </trkpt>
      <trkpt lat="37.7780930" lon="-3.8975720">
        <ele>610.4</ele>
        <time>2021-12-27T14:58:29Z</time>
      </trkpt>
      <trkpt lat="37.7780670" lon="-3.8976030">
        <ele>610.6</ele>
        <time>2021-12-27T14:58:30Z</time>
      </trkpt>
      <trkpt lat="37.7780480" lon="-3.8976330">
        <ele>610.6</ele>
        <time>2021-12-27T14:58:31Z</time>
      </trkpt>
      <trkpt lat="37.7780350" lon="-3.8976650">
        <ele>610.6</ele>
        <time>2021-12-27T14:58:32Z</time>
      </trkpt>
      <trkpt lat="37.7780160" lon="-3.8976980">
        <ele>610.6</ele>
        <time>2021-12-27T14:58:33Z</time>
      </trkpt>
      <trkpt lat="37.7779940" lon="-3.8977300">
        <ele>610.6</ele>
        <time>2021-12-27T14:58:34Z</time>
      </trkpt>
      <trkpt lat="37.7779740" lon="-3.8977580">
        <ele>610.6</ele>
        <time>2021-12-27T14:58:35Z</time>
      </trkpt>
      <trkpt lat="37.7779550" lon="-3.8977850">
        <ele>610.6</ele>
        <time>2021-12-27T14:58:36Z</time>
      </trkpt>
      <trkpt lat="37.7779390" lon="-3.8978100">
        <ele>610.6</ele>
        <time>2021-12-27T14:58:37Z</time>
      </trkpt>
      <trkpt lat="37.7779230" lon="-3.8978370">
        <ele>610.6</ele>
        <time>2021-12-27T14:58:38Z</time>
      </trkpt>
      <trkpt lat="37.7779040" lon="-3.8978620">
        <ele>610.6</ele>
        <time>2021-12-27T14:58:39Z</time>
      </trkpt>
      <trkpt lat="37.7778850" lon="-3.8978850">
        <ele>610.6</ele>
        <time>2021-12-27T14:58:40Z</time>
      </trkpt>
      <trkpt lat="37.7778690" lon="-3.8979100">
        <ele>610.6</ele>
        <time>2021-12-27T14:58:41Z</time>
      </trkpt>
      <trkpt lat="37.7778560" lon="-3.8979330">
        <ele>610.6</ele>
        <time>2021-12-27T14:58:42Z</time>
      </trkpt>
      <trkpt lat="37.7778400" lon="-3.8979580">
        <ele>610.6</ele>
        <time>2021-12-27T14:58:43Z</time>
      </trkpt>
      <trkpt lat="37.7778240" lon="-3.8979800">
        <ele>610.6</ele>
        <time>2021-12-27T14:58:44Z</time>
      </trkpt>
      <trkpt lat="37.7778080" lon="-3.8980000">
        <ele>610.6</ele>
        <time>2021-12-27T14:58:45Z</time>
      </trkpt>
      <trkpt lat="37.7777950" lon="-3.8980180">
        <ele>610.6</ele>
        <time>2021-12-27T14:58:46Z</time>
      </trkpt>
      <trkpt lat="37.7777820" lon="-3.8980380">
        <ele>610.6</ele>
        <time>2021-12-27T14:58:47Z</time>
      </trkpt>
      <trkpt lat="37.7777700" lon="-3.8980580">
        <ele>610.6</ele>
        <time>2021-12-27T14:58:48Z</time>
      </trkpt>
      <trkpt lat="37.7777600" lon="-3.8980800">
        <ele>610.6</ele>
        <time>2021-12-27T14:58:49Z</time>
      </trkpt>
      <trkpt lat="37.7777440" lon="-3.8981030">
        <ele>610.6</ele>
        <time>2021-12-27T14:58:50Z</time>
      </trkpt>
      <trkpt lat="37.7777280" lon="-3.8981270">
        <ele>610.6</ele>
        <time>2021-12-27T14:58:51Z</time>
      </trkpt>
      <trkpt lat="37.7777150" lon="-3.8981470">
        <ele>610.8</ele>
        <time>2021-12-27T14:58:52Z</time>
      </trkpt>
      <trkpt lat="37.7776990" lon="-3.8981700">
        <ele>610.8</ele>
        <time>2021-12-27T14:58:53Z</time>
      </trkpt>
      <trkpt lat="37.7776800" lon="-3.8981970">
        <ele>610.8</ele>
        <time>2021-12-27T14:58:54Z</time>
      </trkpt>
      <trkpt lat="37.7776610" lon="-3.8982250">
        <ele>610.8</ele>
        <time>2021-12-27T14:58:55Z</time>
      </trkpt>
      <trkpt lat="37.7776450" lon="-3.8982540">
        <ele>611.0</ele>
        <time>2021-12-27T14:58:56Z</time>
      </trkpt>
      <trkpt lat="37.7776290" lon="-3.8982770">
        <ele>611.0</ele>
        <time>2021-12-27T14:58:57Z</time>
      </trkpt>
      <trkpt lat="37.7776160" lon="-3.8983000">
        <ele>611.0</ele>
        <time>2021-12-27T14:58:58Z</time>
      </trkpt>
      <trkpt lat="37.7776000" lon="-3.8983180">
        <ele>611.2</ele>
        <time>2021-12-27T14:58:59Z</time>
      </trkpt>
      <trkpt lat="37.7775870" lon="-3.8983350">
        <ele>611.2</ele>
        <time>2021-12-27T14:59:00Z</time>
      </trkpt>
      <trkpt lat="37.7775870" lon="-3.8983350">
        <ele>611.2</ele>
        <time>2021-12-27T14:59:01Z</time>
      </trkpt>
      <trkpt lat="37.7775650" lon="-3.8983620">
        <ele>611.2</ele>
        <time>2021-12-27T14:59:02Z</time>
      </trkpt>
      <trkpt lat="37.7775650" lon="-3.8983620">
        <ele>611.2</ele>
        <time>2021-12-27T14:59:03Z</time>
      </trkpt>
      <trkpt lat="37.7775490" lon="-3.8983920">
        <ele>611.2</ele>
        <time>2021-12-27T14:59:04Z</time>
      </trkpt>
      <trkpt lat="37.7775490" lon="-3.8983920">
        <ele>611.2</ele>
        <time>2021-12-27T14:59:05Z</time>
      </trkpt>
      <trkpt lat="37.7775260" lon="-3.8984220">
        <ele>611.2</ele>
        <time>2021-12-27T14:59:06Z</time>
      </trkpt>
      <trkpt lat="37.7775100" lon="-3.8984450">
        <ele>611.2</ele>
        <time>2021-12-27T14:59:07Z</time>
      </trkpt>
      <trkpt lat="37.7774910" lon="-3.8984680">
        <ele>611.0</ele>
        <time>2021-12-27T14:59:08Z</time>
      </trkpt>
      <trkpt lat="37.7774780" lon="-3.8984950">
        <ele>611.0</ele>
        <time>2021-12-27T14:59:09Z</time>
      </trkpt>
      <trkpt lat="37.7774590" lon="-3.8985220">
        <ele>611.0</ele>
        <time>2021-12-27T14:59:10Z</time>
      </trkpt>
      <trkpt lat="37.7774430" lon="-3.8985500">
        <ele>611.0</ele>
        <time>2021-12-27T14:59:11Z</time>
      </trkpt>
      <trkpt lat="37.7774240" lon="-3.8985780">
        <ele>611.2</ele>
        <time>2021-12-27T14:59:12Z</time>
      </trkpt>
      <trkpt lat="37.7774080" lon="-3.8986040">
        <ele>611.2</ele>
        <time>2021-12-27T14:59:13Z</time>
      </trkpt>
      <trkpt lat="37.7773920" lon="-3.8986300">
        <ele>611.2</ele>
        <time>2021-12-27T14:59:14Z</time>
      </trkpt>
      <trkpt lat="37.7773790" lon="-3.8986530">
        <ele>611.4</ele>
        <time>2021-12-27T14:59:15Z</time>
      </trkpt>
      <trkpt lat="37.7773630" lon="-3.8986800">
        <ele>611.4</ele>
        <time>2021-12-27T14:59:16Z</time>
      </trkpt>
      <trkpt lat="37.7773470" lon="-3.8987050">
        <ele>611.6</ele>
        <time>2021-12-27T14:59:17Z</time>
      </trkpt>
      <trkpt lat="37.7773280" lon="-3.8987300">
        <ele>611.6</ele>
        <time>2021-12-27T14:59:18Z</time>
      </trkpt>
      <trkpt lat="37.7773180" lon="-3.8987540">
        <ele>611.6</ele>
        <time>2021-12-27T14:59:19Z</time>
      </trkpt>
      <trkpt lat="37.7773020" lon="-3.8987750">
        <ele>611.8</ele>
        <time>2021-12-27T14:59:20Z</time>
      </trkpt>
      <trkpt lat="37.7772860" lon="-3.8988020">
        <ele>611.8</ele>
        <time>2021-12-27T14:59:21Z</time>
      </trkpt>
      <trkpt lat="37.7772700" lon="-3.8988260">
        <ele>611.8</ele>
        <time>2021-12-27T14:59:22Z</time>
      </trkpt>
      <trkpt lat="37.7772580" lon="-3.8988500">
        <ele>611.8</ele>
        <time>2021-12-27T14:59:23Z</time>
      </trkpt>
      <trkpt lat="37.7772420" lon="-3.8988720">
        <ele>611.8</ele>
        <time>2021-12-27T14:59:24Z</time>
      </trkpt>
      <trkpt lat="37.7772290" lon="-3.8988930">
        <ele>611.8</ele>
        <time>2021-12-27T14:59:25Z</time>
      </trkpt>
      <trkpt lat="37.7772130" lon="-3.8989170">
        <ele>611.8</ele>
        <time>2021-12-27T14:59:26Z</time>
      </trkpt>
      <trkpt lat="37.7772000" lon="-3.8989400">
        <ele>611.8</ele>
        <time>2021-12-27T14:59:27Z</time>
      </trkpt>
      <trkpt lat="37.7771840" lon="-3.8989640">
        <ele>611.8</ele>
        <time>2021-12-27T14:59:28Z</time>
      </trkpt>
      <trkpt lat="37.7771680" lon="-3.8989880">
        <ele>611.8</ele>
        <time>2021-12-27T14:59:29Z</time>
      </trkpt>
      <trkpt lat="37.7771520" lon="-3.8990120">
        <ele>611.8</ele>
        <time>2021-12-27T14:59:30Z</time>
      </trkpt>
      <trkpt lat="37.7771390" lon="-3.8990350">
        <ele>612.0</ele>
        <time>2021-12-27T14:59:31Z</time>
      </trkpt>
      <trkpt lat="37.7771230" lon="-3.8990580">
        <ele>612.0</ele>
        <time>2021-12-27T14:59:32Z</time>
      </trkpt>
      <trkpt lat="37.7771070" lon="-3.8990830">
        <ele>612.0</ele>
        <time>2021-12-27T14:59:33Z</time>
      </trkpt>
      <trkpt lat="37.7770910" lon="-3.8991100">
        <ele>612.2</ele>
        <time>2021-12-27T14:59:34Z</time>
      </trkpt>
      <trkpt lat="37.7770750" lon="-3.8991330">
        <ele>612.2</ele>
        <time>2021-12-27T14:59:35Z</time>
      </trkpt>
      <trkpt lat="37.7770620" lon="-3.8991550">
        <ele>612.4</ele>
        <time>2021-12-27T14:59:36Z</time>
      </trkpt>
      <trkpt lat="37.7770430" lon="-3.8991780">
        <ele>612.4</ele>
        <time>2021-12-27T14:59:37Z</time>
      </trkpt>
      <trkpt lat="37.7770270" lon="-3.8992020">
        <ele>612.6</ele>
        <time>2021-12-27T14:59:38Z</time>
      </trkpt>
      <trkpt lat="37.7770110" lon="-3.8992250">
        <ele>612.6</ele>
        <time>2021-12-27T14:59:39Z</time>
      </trkpt>
      <trkpt lat="37.7769950" lon="-3.8992470">
        <ele>612.6</ele>
        <time>2021-12-27T14:59:40Z</time>
      </trkpt>
      <trkpt lat="37.7769860" lon="-3.8992680">
        <ele>612.8</ele>
        <time>2021-12-27T14:59:41Z</time>
      </trkpt>
      <trkpt lat="37.7769700" lon="-3.8992880">
        <ele>612.8</ele>
        <time>2021-12-27T14:59:42Z</time>
      </trkpt>
      <trkpt lat="37.7769540" lon="-3.8993120">
        <ele>612.8</ele>
        <time>2021-12-27T14:59:43Z</time>
      </trkpt>
      <trkpt lat="37.7769440" lon="-3.8993350">
        <ele>613.0</ele>
        <time>2021-12-27T14:59:44Z</time>
      </trkpt>
      <trkpt lat="37.7769280" lon="-3.8993600">
        <ele>613.0</ele>
        <time>2021-12-27T14:59:45Z</time>
      </trkpt>
      <trkpt lat="37.7769120" lon="-3.8993830">
        <ele>613.0</ele>
        <time>2021-12-27T14:59:46Z</time>
      </trkpt>
      <trkpt lat="37.7768930" lon="-3.8994070">
        <ele>613.0</ele>
        <time>2021-12-27T14:59:47Z</time>
      </trkpt>
      <trkpt lat="37.7768770" lon="-3.8994300">
        <ele>613.0</ele>
        <time>2021-12-27T14:59:48Z</time>
      </trkpt>
      <trkpt lat="37.7768640" lon="-3.8994550">
        <ele>613.0</ele>
        <time>2021-12-27T14:59:49Z</time>
      </trkpt>
      <trkpt lat="37.7768480" lon="-3.8994780">
        <ele>613.0</ele>
        <time>2021-12-27T14:59:50Z</time>
      </trkpt>
      <trkpt lat="37.7768350" lon="-3.8995030">
        <ele>613.2</ele>
        <time>2021-12-27T14:59:51Z</time>
      </trkpt>
      <trkpt lat="37.7768220" lon="-3.8995260">
        <ele>613.2</ele>
        <time>2021-12-27T14:59:52Z</time>
      </trkpt>
      <trkpt lat="37.7768060" lon="-3.8995520">
        <ele>613.2</ele>
        <time>2021-12-27T14:59:53Z</time>
      </trkpt>
      <trkpt lat="37.7767900" lon="-3.8995730">
        <ele>613.2</ele>
        <time>2021-12-27T14:59:54Z</time>
      </trkpt>
      <trkpt lat="37.7767740" lon="-3.8996000">
        <ele>613.4</ele>
        <time>2021-12-27T14:59:55Z</time>
      </trkpt>
      <trkpt lat="37.7767620" lon="-3.8996280">
        <ele>613.4</ele>
        <time>2021-12-27T14:59:56Z</time>
      </trkpt>
      <trkpt lat="37.7767420" lon="-3.8996550">
        <ele>613.4</ele>
        <time>2021-12-27T14:59:57Z</time>
      </trkpt>
      <trkpt lat="37.7767230" lon="-3.8996840">
        <ele>613.4</ele>
        <time>2021-12-27T14:59:58Z</time>
      </trkpt>
      <trkpt lat="37.7767070" lon="-3.8997120">
        <ele>613.4</ele>
        <time>2021-12-27T14:59:59Z</time>
      </trkpt>
      <trkpt lat="37.7766780" lon="-3.8997530">
        <ele>613.4</ele>
        <time>2021-12-27T15:00:00Z</time>
      </trkpt>
      <trkpt lat="37.7766690" lon="-3.8997670">
        <ele>613.6</ele>
        <time>2021-12-27T15:00:01Z</time>
      </trkpt>
      <trkpt lat="37.7766530" lon="-3.8997930">
        <ele>613.6</ele>
        <time>2021-12-27T15:00:02Z</time>
      </trkpt>
      <trkpt lat="37.7766370" lon="-3.8998220">
        <ele>613.6</ele>
        <time>2021-12-27T15:00:03Z</time>
      </trkpt>
      <trkpt lat="37.7766240" lon="-3.8998460">
        <ele>613.6</ele>
        <time>2021-12-27T15:00:04Z</time>
      </trkpt>
      <trkpt lat="37.7766080" lon="-3.8998730">
        <ele>613.6</ele>
        <time>2021-12-27T15:00:05Z</time>
      </trkpt>
      <trkpt lat="37.7765890" lon="-3.8998970">
        <ele>613.8</ele>
        <time>2021-12-27T15:00:06Z</time>
      </trkpt>
      <trkpt lat="37.7765730" lon="-3.8999200">
        <ele>613.8</ele>
        <time>2021-12-27T15:00:07Z</time>
      </trkpt>
      <trkpt lat="37.7765540" lon="-3.8999470">
        <ele>613.8</ele>
        <time>2021-12-27T15:00:08Z</time>
      </trkpt>
      <trkpt lat="37.7765380" lon="-3.8999720">
        <ele>613.8</ele>
        <time>2021-12-27T15:00:09Z</time>
      </trkpt>
      <trkpt lat="37.7765180" lon="-3.8999970">
        <ele>613.8</ele>
        <time>2021-12-27T15:00:10Z</time>
      </trkpt>
      <trkpt lat="37.7765060" lon="-3.9000220">
        <ele>613.8</ele>
        <time>2021-12-27T15:00:11Z</time>
      </trkpt>
      <trkpt lat="37.7764900" lon="-3.9000480">
        <ele>614.0</ele>
        <time>2021-12-27T15:00:12Z</time>
      </trkpt>
      <trkpt lat="37.7764700" lon="-3.9000750">
        <ele>614.0</ele>
        <time>2021-12-27T15:00:13Z</time>
      </trkpt>
      <trkpt lat="37.7764540" lon="-3.9001030">
        <ele>614.0</ele>
        <time>2021-12-27T15:00:14Z</time>
      </trkpt>
      <trkpt lat="37.7764350" lon="-3.9001280">
        <ele>614.0</ele>
        <time>2021-12-27T15:00:15Z</time>
      </trkpt>
      <trkpt lat="37.7764190" lon="-3.9001520">
        <ele>614.0</ele>
        <time>2021-12-27T15:00:16Z</time>
      </trkpt>
      <trkpt lat="37.7764000" lon="-3.9001760">
        <ele>614.0</ele>
        <time>2021-12-27T15:00:17Z</time>
      </trkpt>
      <trkpt lat="37.7763870" lon="-3.9002020">
        <ele>614.2</ele>
        <time>2021-12-27T15:00:18Z</time>
      </trkpt>
      <trkpt lat="37.7763710" lon="-3.9002280">
        <ele>614.2</ele>
        <time>2021-12-27T15:00:19Z</time>
      </trkpt>
      <trkpt lat="37.7763520" lon="-3.9002550">
        <ele>614.2</ele>
        <time>2021-12-27T15:00:20Z</time>
      </trkpt>
      <trkpt lat="37.7763360" lon="-3.9002820">
        <ele>614.0</ele>
        <time>2021-12-27T15:00:21Z</time>
      </trkpt>
      <trkpt lat="37.7763200" lon="-3.9003070">
        <ele>614.2</ele>
        <time>2021-12-27T15:00:22Z</time>
      </trkpt>
      <trkpt lat="37.7763100" lon="-3.9003280">
        <ele>614.2</ele>
        <time>2021-12-27T15:00:23Z</time>
      </trkpt>
      <trkpt lat="37.7762940" lon="-3.9003470">
        <ele>614.2</ele>
        <time>2021-12-27T15:00:24Z</time>
      </trkpt>
      <trkpt lat="37.7762850" lon="-3.9003670">
        <ele>614.4</ele>
        <time>2021-12-27T15:00:25Z</time>
      </trkpt>
      <trkpt lat="37.7762720" lon="-3.9003870">
        <ele>614.4</ele>
        <time>2021-12-27T15:00:26Z</time>
      </trkpt>
      <trkpt lat="37.7762560" lon="-3.9004060">
        <ele>614.4</ele>
        <time>2021-12-27T15:00:27Z</time>
      </trkpt>
      <trkpt lat="37.7762560" lon="-3.9004060">
        <ele>614.6</ele>
        <time>2021-12-27T15:00:28Z</time>
      </trkpt>
      <trkpt lat="37.7762340" lon="-3.9004470">
        <ele>614.6</ele>
        <time>2021-12-27T15:00:29Z</time>
      </trkpt>
      <trkpt lat="37.7762180" lon="-3.9004670">
        <ele>614.8</ele>
        <time>2021-12-27T15:00:30Z</time>
      </trkpt>
      <trkpt lat="37.7762020" lon="-3.9004900">
        <ele>614.8</ele>
        <time>2021-12-27T15:00:31Z</time>
      </trkpt>
      <trkpt lat="37.7761920" lon="-3.9005180">
        <ele>614.8</ele>
        <time>2021-12-27T15:00:32Z</time>
      </trkpt>
      <trkpt lat="37.7761730" lon="-3.9005460">
        <ele>614.8</ele>
        <time>2021-12-27T15:00:33Z</time>
      </trkpt>
      <trkpt lat="37.7761540" lon="-3.9005720">
        <ele>615.0</ele>
        <time>2021-12-27T15:00:34Z</time>
      </trkpt>
      <trkpt lat="37.7761340" lon="-3.9006000">
        <ele>615.0</ele>
        <time>2021-12-27T15:00:35Z</time>
      </trkpt>
      <trkpt lat="37.7761150" lon="-3.9006280">
        <ele>615.0</ele>
        <time>2021-12-27T15:00:36Z</time>
      </trkpt>
      <trkpt lat="37.7760960" lon="-3.9006580">
        <ele>615.0</ele>
        <time>2021-12-27T15:00:37Z</time>
      </trkpt>
      <trkpt lat="37.7760770" lon="-3.9006880">
        <ele>615.2</ele>
        <time>2021-12-27T15:00:38Z</time>
      </trkpt>
      <trkpt lat="37.7760580" lon="-3.9007200">
        <ele>615.2</ele>
        <time>2021-12-27T15:00:39Z</time>
      </trkpt>
      <trkpt lat="37.7760420" lon="-3.9007480">
        <ele>615.2</ele>
        <time>2021-12-27T15:00:40Z</time>
      </trkpt>
      <trkpt lat="37.7760220" lon="-3.9007780">
        <ele>615.2</ele>
        <time>2021-12-27T15:00:41Z</time>
      </trkpt>
      <trkpt lat="37.7760030" lon="-3.9008070">
        <ele>615.4</ele>
        <time>2021-12-27T15:00:42Z</time>
      </trkpt>
      <trkpt lat="37.7759900" lon="-3.9008350">
        <ele>615.4</ele>
        <time>2021-12-27T15:00:43Z</time>
      </trkpt>
      <trkpt lat="37.7759680" lon="-3.9008620">
        <ele>615.4</ele>
        <time>2021-12-27T15:00:44Z</time>
      </trkpt>
      <trkpt lat="37.7759520" lon="-3.9008860">
        <ele>615.4</ele>
        <time>2021-12-27T15:00:45Z</time>
      </trkpt>
      <trkpt lat="37.7759360" lon="-3.9009120">
        <ele>615.6</ele>
        <time>2021-12-27T15:00:46Z</time>
      </trkpt>
      <trkpt lat="37.7759200" lon="-3.9009350">
        <ele>615.6</ele>
        <time>2021-12-27T15:00:47Z</time>
      </trkpt>
      <trkpt lat="37.7759070" lon="-3.9009600">
        <ele>615.6</ele>
        <time>2021-12-27T15:00:48Z</time>
      </trkpt>
      <trkpt lat="37.7758880" lon="-3.9009830">
        <ele>615.8</ele>
        <time>2021-12-27T15:00:49Z</time>
      </trkpt>
      <trkpt lat="37.7758720" lon="-3.9010070">
        <ele>615.8</ele>
        <time>2021-12-27T15:00:50Z</time>
      </trkpt>
      <trkpt lat="37.7758560" lon="-3.9010320">
        <ele>616.0</ele>
        <time>2021-12-27T15:00:51Z</time>
      </trkpt>
      <trkpt lat="37.7758400" lon="-3.9010580">
        <ele>616.0</ele>
        <time>2021-12-27T15:00:52Z</time>
      </trkpt>
      <trkpt lat="37.7758210" lon="-3.9010850">
        <ele>616.2</ele>
        <time>2021-12-27T15:00:53Z</time>
      </trkpt>
      <trkpt lat="37.7758080" lon="-3.9011120">
        <ele>616.2</ele>
        <time>2021-12-27T15:00:54Z</time>
      </trkpt>
      <trkpt lat="37.7757920" lon="-3.9011350">
        <ele>616.2</ele>
        <time>2021-12-27T15:00:55Z</time>
      </trkpt>
      <trkpt lat="37.7757760" lon="-3.9011570">
        <ele>616.4</ele>
        <time>2021-12-27T15:00:56Z</time>
      </trkpt>
      <trkpt lat="37.7757630" lon="-3.9011770">
        <ele>616.4</ele>
        <time>2021-12-27T15:00:57Z</time>
      </trkpt>
      <trkpt lat="37.7757630" lon="-3.9011770">
        <ele>616.6</ele>
        <time>2021-12-27T15:00:58Z</time>
      </trkpt>
      <trkpt lat="37.7757440" lon="-3.9012070">
        <ele>616.6</ele>
        <time>2021-12-27T15:00:59Z</time>
      </trkpt>
      <trkpt lat="37.7757440" lon="-3.9012070">
        <ele>616.6</ele>
        <time>2021-12-27T15:01:00Z</time>
      </trkpt>
      <trkpt lat="37.7757180" lon="-3.9012450">
        <ele>616.8</ele>
        <time>2021-12-27T15:01:01Z</time>
      </trkpt>
      <trkpt lat="37.7757020" lon="-3.9012660">
        <ele>616.8</ele>
        <time>2021-12-27T15:01:02Z</time>
      </trkpt>
      <trkpt lat="37.7756900" lon="-3.9012900">
        <ele>616.8</ele>
        <time>2021-12-27T15:01:03Z</time>
      </trkpt>
      <trkpt lat="37.7756770" lon="-3.9013120">
        <ele>617.0</ele>
        <time>2021-12-27T15:01:04Z</time>
      </trkpt>
      <trkpt lat="37.7756610" lon="-3.9013350">
        <ele>617.0</ele>
        <time>2021-12-27T15:01:05Z</time>
      </trkpt>
      <trkpt lat="37.7756450" lon="-3.9013570">
        <ele>617.2</ele>
        <time>2021-12-27T15:01:06Z</time>
      </trkpt>
      <trkpt lat="37.7756320" lon="-3.9013780">
        <ele>617.2</ele>
        <time>2021-12-27T15:01:07Z</time>
      </trkpt>
      <trkpt lat="37.7756160" lon="-3.9014000">
        <ele>617.2</ele>
        <time>2021-12-27T15:01:08Z</time>
      </trkpt>
      <trkpt lat="37.7755970" lon="-3.9014250">
        <ele>617.4</ele>
        <time>2021-12-27T15:01:09Z</time>
      </trkpt>
      <trkpt lat="37.7755780" lon="-3.9014520">
        <ele>617.4</ele>
        <time>2021-12-27T15:01:10Z</time>
      </trkpt>
      <trkpt lat="37.7755580" lon="-3.9014800">
        <ele>617.4</ele>
        <time>2021-12-27T15:01:11Z</time>
      </trkpt>
      <trkpt lat="37.7755420" lon="-3.9015070">
        <ele>617.4</ele>
        <time>2021-12-27T15:01:12Z</time>
      </trkpt>
      <trkpt lat="37.7755230" lon="-3.9015350">
        <ele>617.6</ele>
        <time>2021-12-27T15:01:13Z</time>
      </trkpt>
      <trkpt lat="37.7755100" lon="-3.9015620">
        <ele>617.6</ele>
        <time>2021-12-27T15:01:14Z</time>
      </trkpt>
      <trkpt lat="37.7754940" lon="-3.9015880">
        <ele>617.6</ele>
        <time>2021-12-27T15:01:15Z</time>
      </trkpt>
      <trkpt lat="37.7754780" lon="-3.9016160">
        <ele>617.8</ele>
        <time>2021-12-27T15:01:16Z</time>
      </trkpt>
      <trkpt lat="37.7754590" lon="-3.9016400">
        <ele>617.8</ele>
        <time>2021-12-27T15:01:17Z</time>
      </trkpt>
      <trkpt lat="37.7754400" lon="-3.9016650">
        <ele>617.8</ele>
        <time>2021-12-27T15:01:18Z</time>
      </trkpt>
      <trkpt lat="37.7754240" lon="-3.9016920">
        <ele>617.8</ele>
        <time>2021-12-27T15:01:19Z</time>
      </trkpt>
      <trkpt lat="37.7754110" lon="-3.9017200">
        <ele>618.0</ele>
        <time>2021-12-27T15:01:20Z</time>
      </trkpt>
      <trkpt lat="37.7753950" lon="-3.9017480">
        <ele>618.0</ele>
        <time>2021-12-27T15:01:21Z</time>
      </trkpt>
      <trkpt lat="37.7753730" lon="-3.9017750">
        <ele>618.0</ele>
        <time>2021-12-27T15:01:22Z</time>
      </trkpt>
      <trkpt lat="37.7753570" lon="-3.9018050">
        <ele>618.0</ele>
        <time>2021-12-27T15:01:23Z</time>
      </trkpt>
      <trkpt lat="37.7753380" lon="-3.9018320">
        <ele>618.2</ele>
        <time>2021-12-27T15:01:24Z</time>
      </trkpt>
      <trkpt lat="37.7753220" lon="-3.9018600">
        <ele>618.2</ele>
        <time>2021-12-27T15:01:25Z</time>
      </trkpt>
      <trkpt lat="37.7753060" lon="-3.9018850">
        <ele>618.2</ele>
        <time>2021-12-27T15:01:26Z</time>
      </trkpt>
      <trkpt lat="37.7752860" lon="-3.9019120">
        <ele>618.2</ele>
        <time>2021-12-27T15:01:27Z</time>
      </trkpt>
      <trkpt lat="37.7752670" lon="-3.9019360">
        <ele>618.4</ele>
        <time>2021-12-27T15:01:28Z</time>
      </trkpt>
      <trkpt lat="37.7752540" lon="-3.9019620">
        <ele>618.4</ele>
        <time>2021-12-27T15:01:29Z</time>
      </trkpt>
      <trkpt lat="37.7752380" lon="-3.9019860">
        <ele>618.4</ele>
        <time>2021-12-27T15:01:30Z</time>
      </trkpt>
      <trkpt lat="37.7752160" lon="-3.9020150">
        <ele>618.4</ele>
        <time>2021-12-27T15:01:31Z</time>
      </trkpt>
      <trkpt lat="37.7751970" lon="-3.9020420">
        <ele>618.6</ele>
        <time>2021-12-27T15:01:32Z</time>
      </trkpt>
      <trkpt lat="37.7751780" lon="-3.9020670">
        <ele>618.6</ele>
        <time>2021-12-27T15:01:33Z</time>
      </trkpt>
      <trkpt lat="37.7751620" lon="-3.9020940">
        <ele>618.6</ele>
        <time>2021-12-27T15:01:34Z</time>
      </trkpt>
      <trkpt lat="37.7751420" lon="-3.9021200">
        <ele>618.6</ele>
        <time>2021-12-27T15:01:35Z</time>
      </trkpt>
      <trkpt lat="37.7751330" lon="-3.9021420">
        <ele>618.8</ele>
        <time>2021-12-27T15:01:36Z</time>
      </trkpt>
      <trkpt lat="37.7751140" lon="-3.9021700">
        <ele>618.8</ele>
        <time>2021-12-27T15:01:37Z</time>
      </trkpt>
      <trkpt lat="37.7750880" lon="-3.9021980">
        <ele>618.8</ele>
        <time>2021-12-27T15:01:38Z</time>
      </trkpt>
      <trkpt lat="37.7750750" lon="-3.9022250">
        <ele>618.8</ele>
        <time>2021-12-27T15:01:39Z</time>
      </trkpt>
      <trkpt lat="37.7750590" lon="-3.9022550">
        <ele>618.8</ele>
        <time>2021-12-27T15:01:40Z</time>
      </trkpt>
      <trkpt lat="37.7750430" lon="-3.9022830">
        <ele>618.8</ele>
        <time>2021-12-27T15:01:41Z</time>
      </trkpt>
      <trkpt lat="37.7750270" lon="-3.9023100">
        <ele>619.0</ele>
        <time>2021-12-27T15:01:42Z</time>
      </trkpt>
      <trkpt lat="37.7750080" lon="-3.9023400">
        <ele>619.0</ele>
        <time>2021-12-27T15:01:43Z</time>
      </trkpt>
      <trkpt lat="37.7749890" lon="-3.9023680">
        <ele>619.0</ele>
        <time>2021-12-27T15:01:44Z</time>
      </trkpt>
      <trkpt lat="37.7749700" lon="-3.9023970">
        <ele>619.2</ele>
        <time>2021-12-27T15:01:45Z</time>
      </trkpt>
      <trkpt lat="37.7749570" lon="-3.9024230">
        <ele>619.2</ele>
        <time>2021-12-27T15:01:46Z</time>
      </trkpt>
      <trkpt lat="37.7749380" lon="-3.9024470">
        <ele>619.2</ele>
        <time>2021-12-27T15:01:47Z</time>
      </trkpt>
      <trkpt lat="37.7749180" lon="-3.9024750">
        <ele>619.2</ele>
        <time>2021-12-27T15:01:48Z</time>
      </trkpt>
      <trkpt lat="37.7748990" lon="-3.9025020">
        <ele>619.2</ele>
        <time>2021-12-27T15:01:49Z</time>
      </trkpt>
      <trkpt lat="37.7748800" lon="-3.9025270">
        <ele>619.2</ele>
        <time>2021-12-27T15:01:50Z</time>
      </trkpt>
      <trkpt lat="37.7748610" lon="-3.9025530">
        <ele>619.4</ele>
        <time>2021-12-27T15:01:51Z</time>
      </trkpt>
      <trkpt lat="37.7748450" lon="-3.9025830">
        <ele>619.4</ele>
        <time>2021-12-27T15:01:52Z</time>
      </trkpt>
      <trkpt lat="37.7748290" lon="-3.9026100">
        <ele>619.4</ele>
        <time>2021-12-27T15:01:53Z</time>
      </trkpt>
      <trkpt lat="37.7748190" lon="-3.9026380">
        <ele>619.6</ele>
        <time>2021-12-27T15:01:54Z</time>
      </trkpt>
      <trkpt lat="37.7748000" lon="-3.9026650">
        <ele>619.6</ele>
        <time>2021-12-27T15:01:55Z</time>
      </trkpt>
      <trkpt lat="37.7747840" lon="-3.9026930">
        <ele>619.6</ele>
        <time>2021-12-27T15:01:56Z</time>
      </trkpt>
      <trkpt lat="37.7747680" lon="-3.9027220">
        <ele>619.6</ele>
        <time>2021-12-27T15:01:57Z</time>
      </trkpt>
      <trkpt lat="37.7747580" lon="-3.9027500">
        <ele>619.6</ele>
        <time>2021-12-27T15:01:58Z</time>
      </trkpt>
      <trkpt lat="37.7747420" lon="-3.9027800">
        <ele>619.6</ele>
        <time>2021-12-27T15:01:59Z</time>
      </trkpt>
      <trkpt lat="37.7747260" lon="-3.9028070">
        <ele>619.6</ele>
        <time>2021-12-27T15:02:00Z</time>
      </trkpt>
      <trkpt lat="37.7747100" lon="-3.9028340">
        <ele>619.4</ele>
        <time>2021-12-27T15:02:01Z</time>
      </trkpt>
      <trkpt lat="37.7746980" lon="-3.9028600">
        <ele>619.4</ele>
        <time>2021-12-27T15:02:02Z</time>
      </trkpt>
      <trkpt lat="37.7746780" lon="-3.9028850">
        <ele>619.4</ele>
        <time>2021-12-27T15:02:03Z</time>
      </trkpt>
      <trkpt lat="37.7746620" lon="-3.9029080">
        <ele>619.4</ele>
        <time>2021-12-27T15:02:04Z</time>
      </trkpt>
      <trkpt lat="37.7746460" lon="-3.9029320">
        <ele>619.4</ele>
        <time>2021-12-27T15:02:05Z</time>
      </trkpt>
      <trkpt lat="37.7746370" lon="-3.9029550">
        <ele>619.4</ele>
        <time>2021-12-27T15:02:06Z</time>
      </trkpt>
      <trkpt lat="37.7746210" lon="-3.9029800">
        <ele>619.4</ele>
        <time>2021-12-27T15:02:07Z</time>
      </trkpt>
      <trkpt lat="37.7746050" lon="-3.9030030">
        <ele>619.4</ele>
        <time>2021-12-27T15:02:08Z</time>
      </trkpt>
      <trkpt lat="37.7745920" lon="-3.9030280">
        <ele>619.4</ele>
        <time>2021-12-27T15:02:09Z</time>
      </trkpt>
      <trkpt lat="37.7745730" lon="-3.9030580">
        <ele>619.4</ele>
        <time>2021-12-27T15:02:10Z</time>
      </trkpt>
      <trkpt lat="37.7745600" lon="-3.9030850">
        <ele>619.4</ele>
        <time>2021-12-27T15:02:11Z</time>
      </trkpt>
      <trkpt lat="37.7745410" lon="-3.9031130">
        <ele>619.4</ele>
        <time>2021-12-27T15:02:12Z</time>
      </trkpt>
      <trkpt lat="37.7745250" lon="-3.9031400">
        <ele>619.4</ele>
        <time>2021-12-27T15:02:13Z</time>
      </trkpt>
      <trkpt lat="37.7745090" lon="-3.9031640">
        <ele>619.4</ele>
        <time>2021-12-27T15:02:14Z</time>
      </trkpt>
      <trkpt lat="37.7744990" lon="-3.9031850">
        <ele>619.4</ele>
        <time>2021-12-27T15:02:15Z</time>
      </trkpt>
      <trkpt lat="37.7744830" lon="-3.9032030">
        <ele>619.6</ele>
        <time>2021-12-27T15:02:16Z</time>
      </trkpt>
      <trkpt lat="37.7744830" lon="-3.9032030">
        <ele>619.6</ele>
        <time>2021-12-27T15:02:17Z</time>
      </trkpt>
      <trkpt lat="37.7744670" lon="-3.9032380">
        <ele>619.6</ele>
        <time>2021-12-27T15:02:18Z</time>
      </trkpt>
      <trkpt lat="37.7744610" lon="-3.9032600">
        <ele>619.6</ele>
        <time>2021-12-27T15:02:19Z</time>
      </trkpt>
      <trkpt lat="37.7744510" lon="-3.9032820">
        <ele>619.6</ele>
        <time>2021-12-27T15:02:20Z</time>
      </trkpt>
      <trkpt lat="37.7744510" lon="-3.9032820">
        <ele>619.6</ele>
        <time>2021-12-27T15:02:21Z</time>
      </trkpt>
      <trkpt lat="37.7744510" lon="-3.9033050">
        <ele>619.6</ele>
        <time>2021-12-27T15:02:22Z</time>
      </trkpt>
      <trkpt lat="37.7744510" lon="-3.9033050">
        <ele>619.6</ele>
        <time>2021-12-27T15:02:23Z</time>
      </trkpt>
      <trkpt lat="37.7744510" lon="-3.9033050">
        <ele>619.6</ele>
        <time>2021-12-27T15:02:24Z</time>
      </trkpt>
      <trkpt lat="37.7743680" lon="-3.9034080">
        <ele>619.6</ele>
        <time>2021-12-27T15:34:07Z</time>
      </trkpt>
      <trkpt lat="37.7743520" lon="-3.9034280">
        <ele>619.6</ele>
        <time>2021-12-27T15:34:08Z</time>
      </trkpt>
      <trkpt lat="37.7743390" lon="-3.9034470">
        <ele>619.6</ele>
        <time>2021-12-27T15:34:09Z</time>
      </trkpt>
      <trkpt lat="37.7743100" lon="-3.9034830">
        <ele>619.6</ele>
        <time>2021-12-27T15:34:10Z</time>
      </trkpt>
      <trkpt lat="37.7743010" lon="-3.9034950">
        <ele>619.8</ele>
        <time>2021-12-27T15:34:11Z</time>
      </trkpt>
      <trkpt lat="37.7742750" lon="-3.9035200">
        <ele>619.8</ele>
        <time>2021-12-27T15:34:12Z</time>
      </trkpt>
      <trkpt lat="37.7742660" lon="-3.9035400">
        <ele>619.8</ele>
        <time>2021-12-27T15:34:13Z</time>
      </trkpt>
      <trkpt lat="37.7742530" lon="-3.9035620">
        <ele>619.8</ele>
        <time>2021-12-27T15:34:14Z</time>
      </trkpt>
      <trkpt lat="37.7742400" lon="-3.9035870">
        <ele>620.0</ele>
        <time>2021-12-27T15:34:15Z</time>
      </trkpt>
      <trkpt lat="37.7742210" lon="-3.9036080">
        <ele>620.0</ele>
        <time>2021-12-27T15:34:16Z</time>
      </trkpt>
      <trkpt lat="37.7741950" lon="-3.9036300">
        <ele>620.0</ele>
        <time>2021-12-27T15:34:17Z</time>
      </trkpt>
      <trkpt lat="37.7741820" lon="-3.9036520">
        <ele>620.0</ele>
        <time>2021-12-27T15:34:18Z</time>
      </trkpt>
      <trkpt lat="37.7741660" lon="-3.9036770">
        <ele>620.0</ele>
        <time>2021-12-27T15:34:19Z</time>
      </trkpt>
      <trkpt lat="37.7741500" lon="-3.9037020">
        <ele>620.2</ele>
        <time>2021-12-27T15:34:20Z</time>
      </trkpt>
      <trkpt lat="37.7741340" lon="-3.9037260">
        <ele>620.0</ele>
        <time>2021-12-27T15:34:21Z</time>
      </trkpt>
      <trkpt lat="37.7741150" lon="-3.9037500">
        <ele>620.0</ele>
        <time>2021-12-27T15:34:22Z</time>
      </trkpt>
      <trkpt lat="37.7741020" lon="-3.9037730">
        <ele>620.0</ele>
        <time>2021-12-27T15:34:23Z</time>
      </trkpt>
      <trkpt lat="37.7740860" lon="-3.9037970">
        <ele>620.0</ele>
        <time>2021-12-27T15:34:24Z</time>
      </trkpt>
      <trkpt lat="37.7740700" lon="-3.9038180">
        <ele>620.0</ele>
        <time>2021-12-27T15:34:25Z</time>
      </trkpt>
      <trkpt lat="37.7740700" lon="-3.9038180">
        <ele>620.0</ele>
        <time>2021-12-27T15:34:26Z</time>
      </trkpt>
      <trkpt lat="37.7740700" lon="-3.9038180">
        <ele>620.0</ele>
        <time>2021-12-27T15:34:27Z</time>
      </trkpt>
      <trkpt lat="37.7740700" lon="-3.9038180">
        <ele>620.0</ele>
        <time>2021-12-27T15:34:28Z</time>
      </trkpt>
      <trkpt lat="37.7740700" lon="-3.9038180">
        <ele>620.0</ele>
        <time>2021-12-27T15:34:29Z</time>
      </trkpt>
      <trkpt lat="37.7740700" lon="-3.9038180">
        <ele>620.0</ele>
        <time>2021-12-27T15:34:30Z</time>
      </trkpt>
      <trkpt lat="37.7739900" lon="-3.9039350">
        <ele>619.2</ele>
        <time>2021-12-27T15:34:42Z</time>
      </trkpt>
      <trkpt lat="37.7739680" lon="-3.9039620">
        <ele>619.2</ele>
        <time>2021-12-27T15:34:43Z</time>
      </trkpt>
      <trkpt lat="37.7739460" lon="-3.9039920">
        <ele>619.2</ele>
        <time>2021-12-27T15:34:44Z</time>
      </trkpt>
      <trkpt lat="37.7739230" lon="-3.9040250">
        <ele>619.2</ele>
        <time>2021-12-27T15:34:45Z</time>
      </trkpt>
      <trkpt lat="37.7738980" lon="-3.9040580">
        <ele>619.2</ele>
        <time>2021-12-27T15:34:46Z</time>
      </trkpt>
      <trkpt lat="37.7738750" lon="-3.9040930">
        <ele>619.2</ele>
        <time>2021-12-27T15:34:47Z</time>
      </trkpt>
      <trkpt lat="37.7738530" lon="-3.9041270">
        <ele>619.2</ele>
        <time>2021-12-27T15:34:48Z</time>
      </trkpt>
      <trkpt lat="37.7738340" lon="-3.9041600">
        <ele>619.2</ele>
        <time>2021-12-27T15:34:49Z</time>
      </trkpt>
      <trkpt lat="37.7738140" lon="-3.9041870">
        <ele>619.2</ele>
        <time>2021-12-27T15:34:50Z</time>
      </trkpt>
      <trkpt lat="37.7737950" lon="-3.9042150">
        <ele>619.2</ele>
        <time>2021-12-27T15:34:51Z</time>
      </trkpt>
      <trkpt lat="37.7737760" lon="-3.9042440">
        <ele>619.2</ele>
        <time>2021-12-27T15:34:52Z</time>
      </trkpt>
      <trkpt lat="37.7737570" lon="-3.9042730">
        <ele>619.2</ele>
        <time>2021-12-27T15:34:53Z</time>
      </trkpt>
      <trkpt lat="37.7737440" lon="-3.9043020">
        <ele>619.4</ele>
        <time>2021-12-27T15:34:54Z</time>
      </trkpt>
      <trkpt lat="37.7737250" lon="-3.9043270">
        <ele>619.4</ele>
        <time>2021-12-27T15:34:55Z</time>
      </trkpt>
      <trkpt lat="37.7737090" lon="-3.9043500">
        <ele>619.4</ele>
        <time>2021-12-27T15:34:56Z</time>
      </trkpt>
      <trkpt lat="37.7736930" lon="-3.9043700">
        <ele>619.4</ele>
        <time>2021-12-27T15:34:57Z</time>
      </trkpt>
      <trkpt lat="37.7736830" lon="-3.9043900">
        <ele>619.6</ele>
        <time>2021-12-27T15:34:58Z</time>
      </trkpt>
      <trkpt lat="37.7736670" lon="-3.9044060">
        <ele>619.6</ele>
        <time>2021-12-27T15:34:59Z</time>
      </trkpt>
      <trkpt lat="37.7736540" lon="-3.9044250">
        <ele>619.6</ele>
        <time>2021-12-27T15:35:00Z</time>
      </trkpt>
      <trkpt lat="37.7736450" lon="-3.9044470">
        <ele>619.6</ele>
        <time>2021-12-27T15:35:01Z</time>
      </trkpt>
      <trkpt lat="37.7736320" lon="-3.9044680">
        <ele>619.6</ele>
        <time>2021-12-27T15:35:02Z</time>
      </trkpt>
      <trkpt lat="37.7736320" lon="-3.9044680">
        <ele>619.6</ele>
        <time>2021-12-27T15:35:03Z</time>
      </trkpt>
      <trkpt lat="37.7736130" lon="-3.9045020">
        <ele>619.4</ele>
        <time>2021-12-27T15:35:04Z</time>
      </trkpt>
      <trkpt lat="37.7736000" lon="-3.9045180">
        <ele>619.4</ele>
        <time>2021-12-27T15:35:05Z</time>
      </trkpt>
      <trkpt lat="37.7736000" lon="-3.9045180">
        <ele>619.4</ele>
        <time>2021-12-27T15:35:06Z</time>
      </trkpt>
      <trkpt lat="37.7735740" lon="-3.9045570">
        <ele>619.4</ele>
        <time>2021-12-27T15:35:07Z</time>
      </trkpt>
      <trkpt lat="37.7735550" lon="-3.9045820">
        <ele>619.4</ele>
        <time>2021-12-27T15:35:08Z</time>
      </trkpt>
      <trkpt lat="37.7735360" lon="-3.9046060">
        <ele>619.4</ele>
        <time>2021-12-27T15:35:09Z</time>
      </trkpt>
      <trkpt lat="37.7735200" lon="-3.9046280">
        <ele>619.4</ele>
        <time>2021-12-27T15:35:10Z</time>
      </trkpt>
      <trkpt lat="37.7735010" lon="-3.9046470">
        <ele>619.4</ele>
        <time>2021-12-27T15:35:11Z</time>
      </trkpt>
      <trkpt lat="37.7734880" lon="-3.9046670">
        <ele>619.6</ele>
        <time>2021-12-27T15:35:12Z</time>
      </trkpt>
      <trkpt lat="37.7734720" lon="-3.9046880">
        <ele>619.6</ele>
        <time>2021-12-27T15:35:13Z</time>
      </trkpt>
      <trkpt lat="37.7734560" lon="-3.9047130">
        <ele>619.6</ele>
        <time>2021-12-27T15:35:14Z</time>
      </trkpt>
      <trkpt lat="37.7734460" lon="-3.9047340">
        <ele>619.8</ele>
        <time>2021-12-27T15:35:15Z</time>
      </trkpt>
      <trkpt lat="37.7734300" lon="-3.9047560">
        <ele>619.8</ele>
        <time>2021-12-27T15:35:16Z</time>
      </trkpt>
      <trkpt lat="37.7734140" lon="-3.9047780">
        <ele>619.8</ele>
        <time>2021-12-27T15:35:17Z</time>
      </trkpt>
      <trkpt lat="37.7733950" lon="-3.9048020">
        <ele>619.8</ele>
        <time>2021-12-27T15:35:18Z</time>
      </trkpt>
      <trkpt lat="37.7733790" lon="-3.9048270">
        <ele>619.8</ele>
        <time>2021-12-27T15:35:19Z</time>
      </trkpt>
      <trkpt lat="37.7733660" lon="-3.9048480">
        <ele>619.8</ele>
        <time>2021-12-27T15:35:20Z</time>
      </trkpt>
      <trkpt lat="37.7733540" lon="-3.9048700">
        <ele>619.8</ele>
        <time>2021-12-27T15:35:21Z</time>
      </trkpt>
      <trkpt lat="37.7733380" lon="-3.9048950">
        <ele>619.8</ele>
        <time>2021-12-27T15:35:22Z</time>
      </trkpt>
      <trkpt lat="37.7733280" lon="-3.9049180">
        <ele>620.0</ele>
        <time>2021-12-27T15:35:23Z</time>
      </trkpt>
      <trkpt lat="37.7733120" lon="-3.9049420">
        <ele>620.0</ele>
        <time>2021-12-27T15:35:24Z</time>
      </trkpt>
      <trkpt lat="37.7732960" lon="-3.9049650">
        <ele>620.0</ele>
        <time>2021-12-27T15:35:25Z</time>
      </trkpt>
      <trkpt lat="37.7732800" lon="-3.9049880">
        <ele>620.0</ele>
        <time>2021-12-27T15:35:26Z</time>
      </trkpt>
      <trkpt lat="37.7732670" lon="-3.9050120">
        <ele>620.0</ele>
        <time>2021-12-27T15:35:27Z</time>
      </trkpt>
      <trkpt lat="37.7732540" lon="-3.9050330">
        <ele>620.2</ele>
        <time>2021-12-27T15:35:28Z</time>
      </trkpt>
      <trkpt lat="37.7732380" lon="-3.9050550">
        <ele>620.2</ele>
        <time>2021-12-27T15:35:29Z</time>
      </trkpt>
      <trkpt lat="37.7732220" lon="-3.9050750">
        <ele>620.2</ele>
        <time>2021-12-27T15:35:30Z</time>
      </trkpt>
      <trkpt lat="37.7732130" lon="-3.9051020">
        <ele>620.2</ele>
        <time>2021-12-27T15:35:31Z</time>
      </trkpt>
      <trkpt lat="37.7731970" lon="-3.9051250">
        <ele>620.2</ele>
        <time>2021-12-27T15:35:32Z</time>
      </trkpt>
      <trkpt lat="37.7731810" lon="-3.9051480">
        <ele>620.2</ele>
        <time>2021-12-27T15:35:33Z</time>
      </trkpt>
      <trkpt lat="37.7731710" lon="-3.9051680">
        <ele>620.2</ele>
        <time>2021-12-27T15:35:34Z</time>
      </trkpt>
      <trkpt lat="37.7731550" lon="-3.9051900">
        <ele>620.2</ele>
        <time>2021-12-27T15:35:35Z</time>
      </trkpt>
      <trkpt lat="37.7731390" lon="-3.9052100">
        <ele>620.2</ele>
        <time>2021-12-27T15:35:36Z</time>
      </trkpt>
      <trkpt lat="37.7731390" lon="-3.9052100">
        <ele>620.2</ele>
        <time>2021-12-27T15:35:37Z</time>
      </trkpt>
      <trkpt lat="37.7731140" lon="-3.9052470">
        <ele>620.2</ele>
        <time>2021-12-27T15:35:38Z</time>
      </trkpt>
      <trkpt lat="37.7731010" lon="-3.9052680">
        <ele>620.2</ele>
        <time>2021-12-27T15:35:39Z</time>
      </trkpt>
      <trkpt lat="37.7730880" lon="-3.9052900">
        <ele>620.2</ele>
        <time>2021-12-27T15:35:40Z</time>
      </trkpt>
      <trkpt lat="37.7730720" lon="-3.9053100">
        <ele>620.2</ele>
        <time>2021-12-27T15:35:41Z</time>
      </trkpt>
      <trkpt lat="37.7730560" lon="-3.9053320">
        <ele>620.2</ele>
        <time>2021-12-27T15:35:42Z</time>
      </trkpt>
      <trkpt lat="37.7730400" lon="-3.9053530">
        <ele>620.2</ele>
        <time>2021-12-27T15:35:43Z</time>
      </trkpt>
      <trkpt lat="37.7730240" lon="-3.9053770">
        <ele>620.2</ele>
        <time>2021-12-27T15:35:44Z</time>
      </trkpt>
      <trkpt lat="37.7730140" lon="-3.9054000">
        <ele>620.2</ele>
        <time>2021-12-27T15:35:45Z</time>
      </trkpt>
      <trkpt lat="37.7729980" lon="-3.9054250">
        <ele>620.2</ele>
        <time>2021-12-27T15:35:46Z</time>
      </trkpt>
      <trkpt lat="37.7729890" lon="-3.9054450">
        <ele>620.2</ele>
        <time>2021-12-27T15:35:47Z</time>
      </trkpt>
      <trkpt lat="37.7729730" lon="-3.9054680">
        <ele>620.2</ele>
        <time>2021-12-27T15:35:48Z</time>
      </trkpt>
      <trkpt lat="37.7729570" lon="-3.9054920">
        <ele>620.2</ele>
        <time>2021-12-27T15:35:49Z</time>
      </trkpt>
      <trkpt lat="37.7729410" lon="-3.9055150">
        <ele>620.2</ele>
        <time>2021-12-27T15:35:50Z</time>
      </trkpt>
      <trkpt lat="37.7729250" lon="-3.9055400">
        <ele>620.2</ele>
        <time>2021-12-27T15:35:51Z</time>
      </trkpt>
      <trkpt lat="37.7729120" lon="-3.9055650">
        <ele>620.2</ele>
        <time>2021-12-27T15:35:52Z</time>
      </trkpt>
      <trkpt lat="37.7728990" lon="-3.9055900">
        <ele>620.2</ele>
        <time>2021-12-27T15:35:53Z</time>
      </trkpt>
      <trkpt lat="37.7728830" lon="-3.9056100">
        <ele>620.2</ele>
        <time>2021-12-27T15:35:54Z</time>
      </trkpt>
      <trkpt lat="37.7728740" lon="-3.9056320">
        <ele>620.2</ele>
        <time>2021-12-27T15:35:55Z</time>
      </trkpt>
      <trkpt lat="37.7728580" lon="-3.9056540">
        <ele>620.2</ele>
        <time>2021-12-27T15:35:56Z</time>
      </trkpt>
      <trkpt lat="37.7728420" lon="-3.9056750">
        <ele>620.2</ele>
        <time>2021-12-27T15:35:57Z</time>
      </trkpt>
      <trkpt lat="37.7728260" lon="-3.9056970">
        <ele>620.2</ele>
        <time>2021-12-27T15:35:58Z</time>
      </trkpt>
      <trkpt lat="37.7728160" lon="-3.9057200">
        <ele>620.2</ele>
        <time>2021-12-27T15:35:59Z</time>
      </trkpt>
      <trkpt lat="37.7728000" lon="-3.9057420">
        <ele>620.2</ele>
        <time>2021-12-27T15:36:00Z</time>
      </trkpt>
      <trkpt lat="37.7727840" lon="-3.9057650">
        <ele>620.2</ele>
        <time>2021-12-27T15:36:01Z</time>
      </trkpt>
      <trkpt lat="37.7727710" lon="-3.9057880">
        <ele>620.2</ele>
        <time>2021-12-27T15:36:02Z</time>
      </trkpt>
      <trkpt lat="37.7727580" lon="-3.9058120">
        <ele>620.2</ele>
        <time>2021-12-27T15:36:03Z</time>
      </trkpt>
      <trkpt lat="37.7727420" lon="-3.9058350">
        <ele>620.2</ele>
        <time>2021-12-27T15:36:04Z</time>
      </trkpt>
      <trkpt lat="37.7727260" lon="-3.9058600">
        <ele>620.2</ele>
        <time>2021-12-27T15:36:05Z</time>
      </trkpt>
      <trkpt lat="37.7727140" lon="-3.9058820">
        <ele>620.2</ele>
        <time>2021-12-27T15:36:06Z</time>
      </trkpt>
      <trkpt lat="37.7727010" lon="-3.9059020">
        <ele>620.2</ele>
        <time>2021-12-27T15:36:07Z</time>
      </trkpt>
      <trkpt lat="37.7726910" lon="-3.9059230">
        <ele>620.2</ele>
        <time>2021-12-27T15:36:08Z</time>
      </trkpt>
      <trkpt lat="37.7726780" lon="-3.9059470">
        <ele>620.2</ele>
        <time>2021-12-27T15:36:09Z</time>
      </trkpt>
      <trkpt lat="37.7726780" lon="-3.9059470">
        <ele>620.2</ele>
        <time>2021-12-27T15:36:10Z</time>
      </trkpt>
      <trkpt lat="37.7726590" lon="-3.9059870">
        <ele>620.2</ele>
        <time>2021-12-27T15:36:11Z</time>
      </trkpt>
      <trkpt lat="37.7726430" lon="-3.9059980">
        <ele>620.4</ele>
        <time>2021-12-27T15:36:12Z</time>
      </trkpt>
      <trkpt lat="37.7726270" lon="-3.9060130">
        <ele>620.4</ele>
        <time>2021-12-27T15:36:13Z</time>
      </trkpt>
      <trkpt lat="37.7726270" lon="-3.9060130">
        <ele>620.4</ele>
        <time>2021-12-27T15:36:14Z</time>
      </trkpt>
      <trkpt lat="37.7726020" lon="-3.9060500">
        <ele>620.4</ele>
        <time>2021-12-27T15:36:15Z</time>
      </trkpt>
      <trkpt lat="37.7726020" lon="-3.9060500">
        <ele>620.6</ele>
        <time>2021-12-27T15:36:16Z</time>
      </trkpt>
      <trkpt lat="37.7726020" lon="-3.9060500">
        <ele>620.6</ele>
        <time>2021-12-27T15:36:17Z</time>
      </trkpt>
      <trkpt lat="37.7726020" lon="-3.9060500">
        <ele>620.6</ele>
        <time>2021-12-27T15:36:18Z</time>
      </trkpt>
      <trkpt lat="37.7726020" lon="-3.9060500">
        <ele>620.6</ele>
        <time>2021-12-27T15:36:19Z</time>
      </trkpt>
      <trkpt lat="37.7726020" lon="-3.9060500">
        <ele>620.6</ele>
        <time>2021-12-27T15:36:20Z</time>
      </trkpt>
      <trkpt lat="37.7726020" lon="-3.9060500">
        <ele>620.6</ele>
        <time>2021-12-27T15:36:21Z</time>
      </trkpt>
      <trkpt lat="37.7726020" lon="-3.9060500">
        <ele>620.6</ele>
        <time>2021-12-27T15:36:22Z</time>
      </trkpt>
      <trkpt lat="37.7726020" lon="-3.9060500">
        <ele>620.6</ele>
        <time>2021-12-27T15:36:23Z</time>
      </trkpt>
      <trkpt lat="37.7726020" lon="-3.9060500">
        <ele>620.6</ele>
        <time>2021-12-27T15:36:24Z</time>
      </trkpt>
      <trkpt lat="37.7726020" lon="-3.9060500">
        <ele>620.6</ele>
        <time>2021-12-27T15:36:25Z</time>
      </trkpt>
      <trkpt lat="37.7726020" lon="-3.9060500">
        <ele>620.6</ele>
        <time>2021-12-27T15:36:26Z</time>
      </trkpt>
      <trkpt lat="37.7726020" lon="-3.9060500">
        <ele>620.6</ele>
        <time>2021-12-27T15:36:27Z</time>
      </trkpt>
      <trkpt lat="37.7726020" lon="-3.9060500">
        <ele>620.6</ele>
        <time>2021-12-27T15:36:28Z</time>
      </trkpt>
      <trkpt lat="37.7726020" lon="-3.9060500">
        <ele>620.6</ele>
        <time>2021-12-27T15:36:29Z</time>
      </trkpt>
      <trkpt lat="37.7726020" lon="-3.9060500">
        <ele>620.6</ele>
        <time>2021-12-27T15:36:30Z</time>
      </trkpt>
      <trkpt lat="37.7726020" lon="-3.9060500">
        <ele>620.6</ele>
        <time>2021-12-27T15:36:31Z</time>
      </trkpt>
      <trkpt lat="37.7726020" lon="-3.9060500">
        <ele>620.6</ele>
        <time>2021-12-27T15:36:32Z</time>
      </trkpt>
      <trkpt lat="37.7726020" lon="-3.9060500">
        <ele>620.6</ele>
        <time>2021-12-27T15:36:33Z</time>
      </trkpt>
      <trkpt lat="37.7726020" lon="-3.9060500">
        <ele>620.6</ele>
        <time>2021-12-27T15:36:34Z</time>
      </trkpt>
      <trkpt lat="37.7726020" lon="-3.9060500">
        <ele>620.6</ele>
        <time>2021-12-27T15:36:35Z</time>
      </trkpt>
      <trkpt lat="37.7726020" lon="-3.9060500">
        <ele>620.6</ele>
        <time>2021-12-27T15:36:36Z</time>
      </trkpt>
      <trkpt lat="37.7726020" lon="-3.9060500">
        <ele>620.6</ele>
        <time>2021-12-27T15:36:37Z</time>
      </trkpt>
      <trkpt lat="37.7726020" lon="-3.9060500">
        <ele>620.6</ele>
        <time>2021-12-27T15:36:38Z</time>
      </trkpt>
      <trkpt lat="37.7726020" lon="-3.9060500">
        <ele>620.6</ele>
        <time>2021-12-27T15:36:39Z</time>
      </trkpt>
      <trkpt lat="37.7726020" lon="-3.9060500">
        <ele>620.6</ele>
        <time>2021-12-27T15:36:40Z</time>
      </trkpt>
      <trkpt lat="37.7726020" lon="-3.9060500">
        <ele>620.6</ele>
        <time>2021-12-27T15:36:41Z</time>
      </trkpt>
      <trkpt lat="37.7726020" lon="-3.9060500">
        <ele>620.6</ele>
        <time>2021-12-27T15:36:42Z</time>
      </trkpt>
      <trkpt lat="37.7726020" lon="-3.9060500">
        <ele>620.6</ele>
        <time>2021-12-27T15:36:43Z</time>
      </trkpt>
      <trkpt lat="37.7726020" lon="-3.9060500">
        <ele>620.6</ele>
        <time>2021-12-27T15:36:44Z</time>
      </trkpt>
      <trkpt lat="37.7726020" lon="-3.9060500">
        <ele>620.6</ele>
        <time>2021-12-27T15:36:45Z</time>
      </trkpt>
      <trkpt lat="37.7726020" lon="-3.9060500">
        <ele>620.6</ele>
        <time>2021-12-27T15:36:46Z</time>
      </trkpt>
      <trkpt lat="37.7726020" lon="-3.9060500">
        <ele>620.6</ele>
        <time>2021-12-27T15:36:47Z</time>
      </trkpt>
      <trkpt lat="37.7726020" lon="-3.9060500">
        <ele>620.6</ele>
        <time>2021-12-27T15:36:48Z</time>
      </trkpt>
      <trkpt lat="37.7726020" lon="-3.9060500">
        <ele>620.6</ele>
        <time>2021-12-27T15:36:49Z</time>
      </trkpt>
      <trkpt lat="37.7726020" lon="-3.9060500">
        <ele>620.6</ele>
        <time>2021-12-27T15:36:50Z</time>
      </trkpt>
      <trkpt lat="37.7726020" lon="-3.9060500">
        <ele>620.6</ele>
        <time>2021-12-27T15:36:51Z</time>
      </trkpt>
      <trkpt lat="37.7726020" lon="-3.9060500">
        <ele>620.6</ele>
        <time>2021-12-27T15:36:52Z</time>
      </trkpt>
      <trkpt lat="37.7726020" lon="-3.9060500">
        <ele>620.6</ele>
        <time>2021-12-27T15:36:53Z</time>
      </trkpt>
      <trkpt lat="37.7726020" lon="-3.9060500">
        <ele>620.6</ele>
        <time>2021-12-27T15:36:54Z</time>
      </trkpt>
      <trkpt lat="37.7726020" lon="-3.9060500">
        <ele>620.6</ele>
        <time>2021-12-27T15:36:55Z</time>
      </trkpt>
      <trkpt lat="37.7726020" lon="-3.9060500">
        <ele>620.6</ele>
        <time>2021-12-27T15:36:56Z</time>
      </trkpt>
      <trkpt lat="37.7726020" lon="-3.9060500">
        <ele>620.6</ele>
        <time>2021-12-27T15:36:57Z</time>
      </trkpt>
      <trkpt lat="37.7726020" lon="-3.9060500">
        <ele>620.6</ele>
        <time>2021-12-27T15:36:58Z</time>
      </trkpt>
      <trkpt lat="37.7726020" lon="-3.9060500">
        <ele>620.6</ele>
        <time>2021-12-27T15:36:59Z</time>
      </trkpt>
      <trkpt lat="37.7726020" lon="-3.9060500">
        <ele>620.6</ele>
        <time>2021-12-27T15:37:00Z</time>
      </trkpt>
      <trkpt lat="37.7726020" lon="-3.9060500">
        <ele>620.6</ele>
        <time>2021-12-27T15:37:01Z</time>
      </trkpt>
      <trkpt lat="37.7726020" lon="-3.9060500">
        <ele>620.6</ele>
        <time>2021-12-27T15:37:02Z</time>
      </trkpt>
      <trkpt lat="37.7726020" lon="-3.9060500">
        <ele>620.6</ele>
        <time>2021-12-27T15:37:03Z</time>
      </trkpt>
      <trkpt lat="37.7726020" lon="-3.9060500">
        <ele>620.6</ele>
        <time>2021-12-27T15:37:04Z</time>
      </trkpt>
      <trkpt lat="37.7726020" lon="-3.9060500">
        <ele>620.6</ele>
        <time>2021-12-27T15:37:05Z</time>
      </trkpt>
      <trkpt lat="37.7726020" lon="-3.9060500">
        <ele>620.6</ele>
        <time>2021-12-27T15:37:06Z</time>
      </trkpt>
      <trkpt lat="37.7726020" lon="-3.9060500">
        <ele>620.6</ele>
        <time>2021-12-27T15:37:07Z</time>
      </trkpt>
      <trkpt lat="37.7726020" lon="-3.9060500">
        <ele>620.6</ele>
        <time>2021-12-27T15:37:08Z</time>
      </trkpt>
      <trkpt lat="37.7726020" lon="-3.9060500">
        <ele>620.6</ele>
        <time>2021-12-27T15:37:09Z</time>
      </trkpt>
      <trkpt lat="37.7726020" lon="-3.9060500">
        <ele>620.6</ele>
        <time>2021-12-27T15:37:10Z</time>
      </trkpt>
      <trkpt lat="37.7726020" lon="-3.9060500">
        <ele>620.6</ele>
        <time>2021-12-27T15:37:11Z</time>
      </trkpt>
      <trkpt lat="37.7726020" lon="-3.9060500">
        <ele>620.6</ele>
        <time>2021-12-27T15:37:12Z</time>
      </trkpt>
      <trkpt lat="37.7726020" lon="-3.9060500">
        <ele>620.6</ele>
        <time>2021-12-27T15:37:13Z</time>
      </trkpt>
      <trkpt lat="37.7726020" lon="-3.9060500">
        <ele>620.6</ele>
        <time>2021-12-27T15:37:14Z</time>
      </trkpt>
      <trkpt lat="37.7726020" lon="-3.9060500">
        <ele>620.6</ele>
        <time>2021-12-27T15:37:15Z</time>
      </trkpt>
      <trkpt lat="37.7726020" lon="-3.9060500">
        <ele>620.6</ele>
        <time>2021-12-27T15:37:16Z</time>
      </trkpt>
      <trkpt lat="37.7726020" lon="-3.9060500">
        <ele>620.6</ele>
        <time>2021-12-27T15:37:17Z</time>
      </trkpt>
      <trkpt lat="37.7726020" lon="-3.9060500">
        <ele>620.6</ele>
        <time>2021-12-27T15:37:18Z</time>
      </trkpt>
      <trkpt lat="37.7726020" lon="-3.9060500">
        <ele>620.6</ele>
        <time>2021-12-27T15:37:19Z</time>
      </trkpt>
      <trkpt lat="37.7726020" lon="-3.9060500">
        <ele>620.6</ele>
        <time>2021-12-27T15:37:20Z</time>
      </trkpt>
      <trkpt lat="37.7726020" lon="-3.9060500">
        <ele>620.6</ele>
        <time>2021-12-27T15:37:21Z</time>
      </trkpt>
      <trkpt lat="37.7726020" lon="-3.9060500">
        <ele>620.6</ele>
        <time>2021-12-27T15:37:22Z</time>
      </trkpt>
      <trkpt lat="37.7726020" lon="-3.9060500">
        <ele>620.6</ele>
        <time>2021-12-27T15:37:23Z</time>
      </trkpt>
      <trkpt lat="37.7726020" lon="-3.9060500">
        <ele>620.6</ele>
        <time>2021-12-27T15:37:24Z</time>
      </trkpt>
      <trkpt lat="37.7726020" lon="-3.9060500">
        <ele>620.6</ele>
        <time>2021-12-27T15:37:25Z</time>
      </trkpt>
      <trkpt lat="37.7726020" lon="-3.9060500">
        <ele>620.6</ele>
        <time>2021-12-27T15:37:26Z</time>
      </trkpt>
      <trkpt lat="37.7726020" lon="-3.9060500">
        <ele>620.6</ele>
        <time>2021-12-27T15:37:27Z</time>
      </trkpt>
      <trkpt lat="37.7726020" lon="-3.9060500">
        <ele>620.6</ele>
        <time>2021-12-27T15:37:28Z</time>
      </trkpt>
      <trkpt lat="37.7726020" lon="-3.9060500">
        <ele>620.6</ele>
        <time>2021-12-27T15:37:29Z</time>
      </trkpt>
      <trkpt lat="37.7726020" lon="-3.9060500">
        <ele>620.6</ele>
        <time>2021-12-27T15:37:30Z</time>
      </trkpt>
      <trkpt lat="37.7726020" lon="-3.9060500">
        <ele>620.6</ele>
        <time>2021-12-27T15:37:31Z</time>
      </trkpt>
      <trkpt lat="37.7726020" lon="-3.9060500">
        <ele>620.6</ele>
        <time>2021-12-27T15:37:32Z</time>
      </trkpt>
      <trkpt lat="37.7726020" lon="-3.9060500">
        <ele>620.6</ele>
        <time>2021-12-27T15:37:33Z</time>
      </trkpt>
      <trkpt lat="37.7726020" lon="-3.9060500">
        <ele>620.6</ele>
        <time>2021-12-27T15:37:34Z</time>
      </trkpt>
      <trkpt lat="37.7726020" lon="-3.9060500">
        <ele>620.6</ele>
        <time>2021-12-27T15:37:35Z</time>
      </trkpt>
      <trkpt lat="37.7726020" lon="-3.9060500">
        <ele>620.6</ele>
        <time>2021-12-27T15:37:36Z</time>
      </trkpt>
      <trkpt lat="37.7726020" lon="-3.9060500">
        <ele>620.6</ele>
        <time>2021-12-27T15:37:37Z</time>
      </trkpt>
      <trkpt lat="37.7726020" lon="-3.9060500">
        <ele>620.6</ele>
        <time>2021-12-27T15:37:38Z</time>
      </trkpt>
      <trkpt lat="37.7726020" lon="-3.9060500">
        <ele>620.6</ele>
        <time>2021-12-27T15:37:39Z</time>
      </trkpt>
      <trkpt lat="37.7726020" lon="-3.9060500">
        <ele>620.6</ele>
        <time>2021-12-27T15:37:40Z</time>
      </trkpt>
      <trkpt lat="37.7726020" lon="-3.9060500">
        <ele>620.6</ele>
        <time>2021-12-27T15:37:41Z</time>
      </trkpt>
      <trkpt lat="37.7726020" lon="-3.9060500">
        <ele>620.6</ele>
        <time>2021-12-27T15:37:42Z</time>
      </trkpt>
      <trkpt lat="37.7726020" lon="-3.9060500">
        <ele>620.6</ele>
        <time>2021-12-27T15:37:43Z</time>
      </trkpt>
      <trkpt lat="37.7726020" lon="-3.9060500">
        <ele>620.6</ele>
        <time>2021-12-27T15:37:44Z</time>
      </trkpt>
      <trkpt lat="37.7726020" lon="-3.9060500">
        <ele>620.6</ele>
        <time>2021-12-27T15:37:45Z</time>
      </trkpt>
      <trkpt lat="37.7726020" lon="-3.9060500">
        <ele>620.6</ele>
        <time>2021-12-27T15:37:46Z</time>
      </trkpt>
      <trkpt lat="37.7726020" lon="-3.9060500">
        <ele>620.6</ele>
        <time>2021-12-27T15:37:47Z</time>
      </trkpt>
      <trkpt lat="37.7726020" lon="-3.9060500">
        <ele>620.6</ele>
        <time>2021-12-27T15:37:48Z</time>
      </trkpt>
      <trkpt lat="37.7726020" lon="-3.9060500">
        <ele>620.6</ele>
        <time>2021-12-27T15:37:49Z</time>
      </trkpt>
      <trkpt lat="37.7726020" lon="-3.9060500">
        <ele>620.6</ele>
        <time>2021-12-27T15:37:50Z</time>
      </trkpt>
      <trkpt lat="37.7726020" lon="-3.9060500">
        <ele>620.6</ele>
        <time>2021-12-27T15:37:51Z</time>
      </trkpt>
      <trkpt lat="37.7726020" lon="-3.9060500">
        <ele>620.6</ele>
        <time>2021-12-27T15:37:52Z</time>
      </trkpt>
      <trkpt lat="37.7726020" lon="-3.9060500">
        <ele>620.6</ele>
        <time>2021-12-27T15:37:53Z</time>
      </trkpt>
      <trkpt lat="37.7726020" lon="-3.9060500">
        <ele>620.6</ele>
        <time>2021-12-27T15:37:54Z</time>
      </trkpt>
      <trkpt lat="37.7708960" lon="-3.9093450">
        <ele>620.4</ele>
        <time>2021-12-27T15:37:55Z</time>
      </trkpt>
      <trkpt lat="37.7708940" lon="-3.9094230">
        <ele>620.2</ele>
        <time>2021-12-27T15:37:56Z</time>
      </trkpt>
      <trkpt lat="37.7708930" lon="-3.9095020">
        <ele>620.0</ele>
        <time>2021-12-27T15:37:57Z</time>
      </trkpt>
      <trkpt lat="37.7709060" lon="-3.9095620">
        <ele>619.8</ele>
        <time>2021-12-27T15:37:58Z</time>
      </trkpt>
      <trkpt lat="37.7708990" lon="-3.9095970">
        <ele>619.6</ele>
        <time>2021-12-27T15:37:59Z</time>
      </trkpt>
      <trkpt lat="37.7708960" lon="-3.9096400">
        <ele>619.4</ele>
        <time>2021-12-27T15:38:00Z</time>
      </trkpt>
      <trkpt lat="37.7708900" lon="-3.9096930">
        <ele>619.2</ele>
        <time>2021-12-27T15:38:01Z</time>
      </trkpt>
      <trkpt lat="37.7708770" lon="-3.9097350">
        <ele>619.0</ele>
        <time>2021-12-27T15:38:02Z</time>
      </trkpt>
      <trkpt lat="37.7708670" lon="-3.9097800">
        <ele>618.8</ele>
        <time>2021-12-27T15:38:03Z</time>
      </trkpt>
      <trkpt lat="37.7708580" lon="-3.9098170">
        <ele>618.4</ele>
        <time>2021-12-27T15:38:04Z</time>
      </trkpt>
      <trkpt lat="37.7708580" lon="-3.9098680">
        <ele>618.2</ele>
        <time>2021-12-27T15:38:05Z</time>
      </trkpt>
      <trkpt lat="37.7708580" lon="-3.9098970">
        <ele>618.0</ele>
        <time>2021-12-27T15:38:06Z</time>
      </trkpt>
      <trkpt lat="37.7708540" lon="-3.9099350">
        <ele>617.8</ele>
        <time>2021-12-27T15:38:07Z</time>
      </trkpt>
      <trkpt lat="37.7708540" lon="-3.9099750">
        <ele>617.6</ele>
        <time>2021-12-27T15:38:08Z</time>
      </trkpt>
      <trkpt lat="37.7708480" lon="-3.9100150">
        <ele>617.4</ele>
        <time>2021-12-27T15:38:09Z</time>
      </trkpt>
      <trkpt lat="37.7708450" lon="-3.9100580">
        <ele>617.4</ele>
        <time>2021-12-27T15:38:10Z</time>
      </trkpt>
      <trkpt lat="37.7708350" lon="-3.9101030">
        <ele>617.2</ele>
        <time>2021-12-27T15:38:11Z</time>
      </trkpt>
      <trkpt lat="37.7708290" lon="-3.9101480">
        <ele>617.2</ele>
        <time>2021-12-27T15:38:12Z</time>
      </trkpt>
      <trkpt lat="37.7708260" lon="-3.9101950">
        <ele>617.0</ele>
        <time>2021-12-27T15:38:13Z</time>
      </trkpt>
      <trkpt lat="37.7708190" lon="-3.9102430">
        <ele>617.0</ele>
        <time>2021-12-27T15:38:14Z</time>
      </trkpt>
      <trkpt lat="37.7708160" lon="-3.9102900">
        <ele>616.8</ele>
        <time>2021-12-27T15:38:15Z</time>
      </trkpt>
      <trkpt lat="37.7708160" lon="-3.9103400">
        <ele>616.8</ele>
        <time>2021-12-27T15:38:16Z</time>
      </trkpt>
      <trkpt lat="37.7708130" lon="-3.9103880">
        <ele>616.8</ele>
        <time>2021-12-27T15:38:17Z</time>
      </trkpt>
      <trkpt lat="37.7708160" lon="-3.9104350">
        <ele>616.6</ele>
        <time>2021-12-27T15:38:18Z</time>
      </trkpt>
      <trkpt lat="37.7708160" lon="-3.9104750">
        <ele>616.6</ele>
        <time>2021-12-27T15:38:19Z</time>
      </trkpt>
      <trkpt lat="37.7708160" lon="-3.9105170">
        <ele>616.6</ele>
        <time>2021-12-27T15:38:20Z</time>
      </trkpt>
      <trkpt lat="37.7708190" lon="-3.9105580">
        <ele>616.6</ele>
        <time>2021-12-27T15:38:21Z</time>
      </trkpt>
      <trkpt lat="37.7708190" lon="-3.9106000">
        <ele>616.4</ele>
        <time>2021-12-27T15:38:22Z</time>
      </trkpt>
      <trkpt lat="37.7708260" lon="-3.9106430">
        <ele>616.4</ele>
        <time>2021-12-27T15:38:23Z</time>
      </trkpt>
      <trkpt lat="37.7708290" lon="-3.9106850">
        <ele>616.2</ele>
        <time>2021-12-27T15:38:24Z</time>
      </trkpt>
      <trkpt lat="37.7708320" lon="-3.9107300">
        <ele>616.2</ele>
        <time>2021-12-27T15:38:25Z</time>
      </trkpt>
      <trkpt lat="37.7708350" lon="-3.9107720">
        <ele>616.2</ele>
        <time>2021-12-27T15:38:26Z</time>
      </trkpt>
      <trkpt lat="37.7708380" lon="-3.9108130">
        <ele>616.0</ele>
        <time>2021-12-27T15:38:27Z</time>
      </trkpt>
      <trkpt lat="37.7708450" lon="-3.9108530">
        <ele>616.0</ele>
        <time>2021-12-27T15:38:28Z</time>
      </trkpt>
      <trkpt lat="37.7708480" lon="-3.9108940">
        <ele>616.0</ele>
        <time>2021-12-27T15:38:29Z</time>
      </trkpt>
      <trkpt lat="37.7708540" lon="-3.9109320">
        <ele>616.0</ele>
        <time>2021-12-27T15:38:30Z</time>
      </trkpt>
      <trkpt lat="37.7708640" lon="-3.9109700">
        <ele>615.8</ele>
        <time>2021-12-27T15:38:31Z</time>
      </trkpt>
      <trkpt lat="37.7708700" lon="-3.9110120">
        <ele>615.8</ele>
        <time>2021-12-27T15:38:32Z</time>
      </trkpt>
      <trkpt lat="37.7708740" lon="-3.9110500">
        <ele>615.6</ele>
        <time>2021-12-27T15:38:33Z</time>
      </trkpt>
      <trkpt lat="37.7708770" lon="-3.9110930">
        <ele>615.6</ele>
        <time>2021-12-27T15:38:34Z</time>
      </trkpt>
      <trkpt lat="37.7708830" lon="-3.9111320">
        <ele>615.4</ele>
        <time>2021-12-27T15:38:35Z</time>
      </trkpt>
      <trkpt lat="37.7708860" lon="-3.9111720">
        <ele>615.4</ele>
        <time>2021-12-27T15:38:36Z</time>
      </trkpt>
      <trkpt lat="37.7708900" lon="-3.9112100">
        <ele>615.2</ele>
        <time>2021-12-27T15:38:37Z</time>
      </trkpt>
      <trkpt lat="37.7708960" lon="-3.9112500">
        <ele>615.2</ele>
        <time>2021-12-27T15:38:38Z</time>
      </trkpt>
      <trkpt lat="37.7708990" lon="-3.9112880">
        <ele>615.2</ele>
        <time>2021-12-27T15:38:39Z</time>
      </trkpt>
      <trkpt lat="37.7709090" lon="-3.9113270">
        <ele>615.0</ele>
        <time>2021-12-27T15:38:40Z</time>
      </trkpt>
      <trkpt lat="37.7709150" lon="-3.9113650">
        <ele>615.0</ele>
        <time>2021-12-27T15:38:41Z</time>
      </trkpt>
      <trkpt lat="37.7709180" lon="-3.9114020">
        <ele>614.8</ele>
        <time>2021-12-27T15:38:42Z</time>
      </trkpt>
      <trkpt lat="37.7709180" lon="-3.9114420">
        <ele>614.6</ele>
        <time>2021-12-27T15:38:43Z</time>
      </trkpt>
      <trkpt lat="37.7709280" lon="-3.9114800">
        <ele>614.6</ele>
        <time>2021-12-27T15:38:44Z</time>
      </trkpt>
      <trkpt lat="37.7709340" lon="-3.9115200">
        <ele>614.4</ele>
        <time>2021-12-27T15:38:45Z</time>
      </trkpt>
      <trkpt lat="37.7709380" lon="-3.9115620">
        <ele>614.2</ele>
        <time>2021-12-27T15:38:46Z</time>
      </trkpt>
      <trkpt lat="37.7709440" lon="-3.9116050">
        <ele>614.2</ele>
        <time>2021-12-27T15:38:47Z</time>
      </trkpt>
      <trkpt lat="37.7709500" lon="-3.9116470">
        <ele>614.0</ele>
        <time>2021-12-27T15:38:48Z</time>
      </trkpt>
      <trkpt lat="37.7709630" lon="-3.9116920">
        <ele>614.0</ele>
        <time>2021-12-27T15:38:49Z</time>
      </trkpt>
      <trkpt lat="37.7709700" lon="-3.9117380">
        <ele>613.8</ele>
        <time>2021-12-27T15:38:50Z</time>
      </trkpt>
      <trkpt lat="37.7709820" lon="-3.9117820">
        <ele>613.8</ele>
        <time>2021-12-27T15:38:51Z</time>
      </trkpt>
      <trkpt lat="37.7709920" lon="-3.9118280">
        <ele>613.6</ele>
        <time>2021-12-27T15:38:52Z</time>
      </trkpt>
      <trkpt lat="37.7709980" lon="-3.9118780">
        <ele>613.6</ele>
        <time>2021-12-27T15:38:53Z</time>
      </trkpt>
      <trkpt lat="37.7710110" lon="-3.9119270">
        <ele>613.6</ele>
        <time>2021-12-27T15:38:54Z</time>
      </trkpt>
      <trkpt lat="37.7710270" lon="-3.9119740">
        <ele>613.6</ele>
        <time>2021-12-27T15:38:55Z</time>
      </trkpt>
      <trkpt lat="37.7710370" lon="-3.9120200">
        <ele>613.4</ele>
        <time>2021-12-27T15:38:56Z</time>
      </trkpt>
      <trkpt lat="37.7710530" lon="-3.9120620">
        <ele>613.4</ele>
        <time>2021-12-27T15:38:57Z</time>
      </trkpt>
      <trkpt lat="37.7710660" lon="-3.9121050">
        <ele>613.4</ele>
        <time>2021-12-27T15:38:58Z</time>
      </trkpt>
      <trkpt lat="37.7710820" lon="-3.9121500">
        <ele>613.2</ele>
        <time>2021-12-27T15:38:59Z</time>
      </trkpt>
      <trkpt lat="37.7710910" lon="-3.9121950">
        <ele>613.0</ele>
        <time>2021-12-27T15:39:00Z</time>
      </trkpt>
      <trkpt lat="37.7711070" lon="-3.9122430">
        <ele>613.0</ele>
        <time>2021-12-27T15:39:01Z</time>
      </trkpt>
      <trkpt lat="37.7711230" lon="-3.9122980">
        <ele>612.8</ele>
        <time>2021-12-27T15:39:02Z</time>
      </trkpt>
      <trkpt lat="37.7711360" lon="-3.9123520">
        <ele>612.6</ele>
        <time>2021-12-27T15:39:03Z</time>
      </trkpt>
      <trkpt lat="37.7711520" lon="-3.9124020">
        <ele>612.4</ele>
        <time>2021-12-27T15:39:04Z</time>
      </trkpt>
      <trkpt lat="37.7711680" lon="-3.9124500">
        <ele>612.4</ele>
        <time>2021-12-27T15:39:05Z</time>
      </trkpt>
      <trkpt lat="37.7711840" lon="-3.9124950">
        <ele>612.2</ele>
        <time>2021-12-27T15:39:06Z</time>
      </trkpt>
      <trkpt lat="37.7711970" lon="-3.9125370">
        <ele>612.0</ele>
        <time>2021-12-27T15:39:07Z</time>
      </trkpt>
      <trkpt lat="37.7712130" lon="-3.9125780">
        <ele>612.0</ele>
        <time>2021-12-27T15:39:08Z</time>
      </trkpt>
      <trkpt lat="37.7712260" lon="-3.9126200">
        <ele>611.8</ele>
        <time>2021-12-27T15:39:09Z</time>
      </trkpt>
      <trkpt lat="37.7712350" lon="-3.9126650">
        <ele>611.8</ele>
        <time>2021-12-27T15:39:10Z</time>
      </trkpt>
      <trkpt lat="37.7712480" lon="-3.9127100">
        <ele>611.6</ele>
        <time>2021-12-27T15:39:11Z</time>
      </trkpt>
      <trkpt lat="37.7712610" lon="-3.9127530">
        <ele>611.6</ele>
        <time>2021-12-27T15:39:12Z</time>
      </trkpt>
      <trkpt lat="37.7712700" lon="-3.9127970">
        <ele>611.4</ele>
        <time>2021-12-27T15:39:13Z</time>
      </trkpt>
      <trkpt lat="37.7712830" lon="-3.9128400">
        <ele>611.4</ele>
        <time>2021-12-27T15:39:14Z</time>
      </trkpt>
      <trkpt lat="37.7712930" lon="-3.9128850">
        <ele>611.4</ele>
        <time>2021-12-27T15:39:15Z</time>
      </trkpt>
      <trkpt lat="37.7713090" lon="-3.9129320">
        <ele>611.2</ele>
        <time>2021-12-27T15:39:16Z</time>
      </trkpt>
      <trkpt lat="37.7713150" lon="-3.9129750">
        <ele>611.2</ele>
        <time>2021-12-27T15:39:17Z</time>
      </trkpt>
      <trkpt lat="37.7713310" lon="-3.9130170">
        <ele>611.2</ele>
        <time>2021-12-27T15:39:18Z</time>
      </trkpt>
      <trkpt lat="37.7713410" lon="-3.9130620">
        <ele>611.2</ele>
        <time>2021-12-27T15:39:19Z</time>
      </trkpt>
      <trkpt lat="37.7713540" lon="-3.9131020">
        <ele>611.2</ele>
        <time>2021-12-27T15:39:20Z</time>
      </trkpt>
      <trkpt lat="37.7713630" lon="-3.9131420">
        <ele>611.0</ele>
        <time>2021-12-27T15:39:21Z</time>
      </trkpt>
      <trkpt lat="37.7713730" lon="-3.9131800">
        <ele>611.0</ele>
        <time>2021-12-27T15:39:22Z</time>
      </trkpt>
      <trkpt lat="37.7713860" lon="-3.9132180">
        <ele>611.0</ele>
        <time>2021-12-27T15:39:23Z</time>
      </trkpt>
      <trkpt lat="37.7713950" lon="-3.9132600">
        <ele>610.8</ele>
        <time>2021-12-27T15:39:24Z</time>
      </trkpt>
      <trkpt lat="37.7714080" lon="-3.9133000">
        <ele>610.8</ele>
        <time>2021-12-27T15:39:25Z</time>
      </trkpt>
      <trkpt lat="37.7714210" lon="-3.9133400">
        <ele>610.8</ele>
        <time>2021-12-27T15:39:26Z</time>
      </trkpt>
      <trkpt lat="37.7714270" lon="-3.9133820">
        <ele>610.8</ele>
        <time>2021-12-27T15:39:27Z</time>
      </trkpt>
      <trkpt lat="37.7714400" lon="-3.9134220">
        <ele>610.8</ele>
        <time>2021-12-27T15:39:28Z</time>
      </trkpt>
      <trkpt lat="37.7714500" lon="-3.9134630">
        <ele>610.8</ele>
        <time>2021-12-27T15:39:29Z</time>
      </trkpt>
      <trkpt lat="37.7714620" lon="-3.9135050">
        <ele>610.6</ele>
        <time>2021-12-27T15:39:30Z</time>
      </trkpt>
      <trkpt lat="37.7714720" lon="-3.9135460">
        <ele>610.6</ele>
        <time>2021-12-27T15:39:31Z</time>
      </trkpt>
      <trkpt lat="37.7714850" lon="-3.9135850">
        <ele>610.6</ele>
        <time>2021-12-27T15:39:32Z</time>
      </trkpt>
      <trkpt lat="37.7714940" lon="-3.9136270">
        <ele>610.6</ele>
        <time>2021-12-27T15:39:33Z</time>
      </trkpt>
      <trkpt lat="37.7715070" lon="-3.9136680">
        <ele>610.4</ele>
        <time>2021-12-27T15:39:34Z</time>
      </trkpt>
      <trkpt lat="37.7715200" lon="-3.9137100">
        <ele>610.4</ele>
        <time>2021-12-27T15:39:35Z</time>
      </trkpt>
      <trkpt lat="37.7715300" lon="-3.9137480">
        <ele>610.4</ele>
        <time>2021-12-27T15:39:36Z</time>
      </trkpt>
      <trkpt lat="37.7715420" lon="-3.9137880">
        <ele>610.4</ele>
        <time>2021-12-27T15:39:37Z</time>
      </trkpt>
      <trkpt lat="37.7715520" lon="-3.9138300">
        <ele>610.4</ele>
        <time>2021-12-27T15:39:38Z</time>
      </trkpt>
      <trkpt lat="37.7715650" lon="-3.9138700">
        <ele>610.2</ele>
        <time>2021-12-27T15:39:39Z</time>
      </trkpt>
      <trkpt lat="37.7715740" lon="-3.9139120">
        <ele>610.2</ele>
        <time>2021-12-27T15:39:40Z</time>
      </trkpt>
      <trkpt lat="37.7715870" lon="-3.9139530">
        <ele>610.0</ele>
        <time>2021-12-27T15:39:41Z</time>
      </trkpt>
      <trkpt lat="37.7715940" lon="-3.9139950">
        <ele>609.8</ele>
        <time>2021-12-27T15:39:42Z</time>
      </trkpt>
      <trkpt lat="37.7716060" lon="-3.9140370">
        <ele>609.8</ele>
        <time>2021-12-27T15:39:43Z</time>
      </trkpt>
      <trkpt lat="37.7716190" lon="-3.9140780">
        <ele>609.6</ele>
        <time>2021-12-27T15:39:44Z</time>
      </trkpt>
      <trkpt lat="37.7716290" lon="-3.9141220">
        <ele>609.4</ele>
        <time>2021-12-27T15:39:45Z</time>
      </trkpt>
      <trkpt lat="37.7716420" lon="-3.9141670">
        <ele>609.4</ele>
        <time>2021-12-27T15:39:46Z</time>
      </trkpt>
      <trkpt lat="37.7716510" lon="-3.9142080">
        <ele>609.4</ele>
        <time>2021-12-27T15:39:47Z</time>
      </trkpt>
      <trkpt lat="37.7716610" lon="-3.9142500">
        <ele>609.4</ele>
        <time>2021-12-27T15:39:48Z</time>
      </trkpt>
      <trkpt lat="37.7716700" lon="-3.9142920">
        <ele>609.2</ele>
        <time>2021-12-27T15:39:49Z</time>
      </trkpt>
      <trkpt lat="37.7716800" lon="-3.9143330">
        <ele>609.2</ele>
        <time>2021-12-27T15:39:50Z</time>
      </trkpt>
      <trkpt lat="37.7716900" lon="-3.9143730">
        <ele>609.0</ele>
        <time>2021-12-27T15:39:51Z</time>
      </trkpt>
      <trkpt lat="37.7716990" lon="-3.9144150">
        <ele>609.0</ele>
        <time>2021-12-27T15:39:52Z</time>
      </trkpt>
      <trkpt lat="37.7717090" lon="-3.9144600">
        <ele>608.8</ele>
        <time>2021-12-27T15:39:53Z</time>
      </trkpt>
      <trkpt lat="37.7717180" lon="-3.9145080">
        <ele>608.8</ele>
        <time>2021-12-27T15:39:54Z</time>
      </trkpt>
      <trkpt lat="37.7717280" lon="-3.9145550">
        <ele>608.8</ele>
        <time>2021-12-27T15:39:55Z</time>
      </trkpt>
      <trkpt lat="37.7717410" lon="-3.9146020">
        <ele>608.6</ele>
        <time>2021-12-27T15:39:56Z</time>
      </trkpt>
      <trkpt lat="37.7717440" lon="-3.9146480">
        <ele>608.6</ele>
        <time>2021-12-27T15:39:57Z</time>
      </trkpt>
      <trkpt lat="37.7717500" lon="-3.9146950">
        <ele>608.4</ele>
        <time>2021-12-27T15:39:58Z</time>
      </trkpt>
      <trkpt lat="37.7717600" lon="-3.9147450">
        <ele>608.4</ele>
        <time>2021-12-27T15:39:59Z</time>
      </trkpt>
      <trkpt lat="37.7717680" lon="-3.9148230">
        <ele>608.4</ele>
        <time>2021-12-27T15:40:00Z</time>
      </trkpt>
      <trkpt lat="37.7717700" lon="-3.9148500">
        <ele>608.2</ele>
        <time>2021-12-27T15:40:01Z</time>
      </trkpt>
      <trkpt lat="37.7717730" lon="-3.9149020">
        <ele>608.2</ele>
        <time>2021-12-27T15:40:02Z</time>
      </trkpt>
      <trkpt lat="37.7717790" lon="-3.9149550">
        <ele>608.0</ele>
        <time>2021-12-27T15:40:03Z</time>
      </trkpt>
      <trkpt lat="37.7717820" lon="-3.9150100">
        <ele>608.0</ele>
        <time>2021-12-27T15:40:04Z</time>
      </trkpt>
      <trkpt lat="37.7717860" lon="-3.9150630">
        <ele>607.8</ele>
        <time>2021-12-27T15:40:05Z</time>
      </trkpt>
      <trkpt lat="37.7717920" lon="-3.9151200">
        <ele>607.8</ele>
        <time>2021-12-27T15:40:06Z</time>
      </trkpt>
      <trkpt lat="37.7717920" lon="-3.9151770">
        <ele>607.6</ele>
        <time>2021-12-27T15:40:07Z</time>
      </trkpt>
      <trkpt lat="37.7717980" lon="-3.9152300">
        <ele>607.6</ele>
        <time>2021-12-27T15:40:08Z</time>
      </trkpt>
      <trkpt lat="37.7718020" lon="-3.9152730">
        <ele>607.4</ele>
        <time>2021-12-27T15:40:09Z</time>
      </trkpt>
      <trkpt lat="37.7718020" lon="-3.9153250">
        <ele>607.4</ele>
        <time>2021-12-27T15:40:10Z</time>
      </trkpt>
      <trkpt lat="37.7718020" lon="-3.9153880">
        <ele>607.2</ele>
        <time>2021-12-27T15:40:11Z</time>
      </trkpt>
      <trkpt lat="37.7718050" lon="-3.9154380">
        <ele>607.2</ele>
        <time>2021-12-27T15:40:12Z</time>
      </trkpt>
      <trkpt lat="37.7718020" lon="-3.9154920">
        <ele>607.2</ele>
        <time>2021-12-27T15:40:13Z</time>
      </trkpt>
      <trkpt lat="37.7718020" lon="-3.9155350">
        <ele>607.0</ele>
        <time>2021-12-27T15:40:14Z</time>
      </trkpt>
      <trkpt lat="37.7718020" lon="-3.9155980">
        <ele>607.0</ele>
        <time>2021-12-27T15:40:15Z</time>
      </trkpt>
      <trkpt lat="37.7718020" lon="-3.9156550">
        <ele>606.8</ele>
        <time>2021-12-27T15:40:16Z</time>
      </trkpt>
      <trkpt lat="37.7717980" lon="-3.9157080">
        <ele>606.8</ele>
        <time>2021-12-27T15:40:17Z</time>
      </trkpt>
      <trkpt lat="37.7717980" lon="-3.9157620">
        <ele>606.6</ele>
        <time>2021-12-27T15:40:18Z</time>
      </trkpt>
      <trkpt lat="37.7717920" lon="-3.9158170">
        <ele>606.4</ele>
        <time>2021-12-27T15:40:19Z</time>
      </trkpt>
      <trkpt lat="37.7717890" lon="-3.9158680">
        <ele>606.2</ele>
        <time>2021-12-27T15:40:20Z</time>
      </trkpt>
      <trkpt lat="37.7717860" lon="-3.9159220">
        <ele>606.2</ele>
        <time>2021-12-27T15:40:21Z</time>
      </trkpt>
      <trkpt lat="37.7717790" lon="-3.9159730">
        <ele>606.0</ele>
        <time>2021-12-27T15:40:22Z</time>
      </trkpt>
      <trkpt lat="37.7717730" lon="-3.9160230">
        <ele>606.0</ele>
        <time>2021-12-27T15:40:23Z</time>
      </trkpt>
      <trkpt lat="37.7717660" lon="-3.9160730">
        <ele>605.8</ele>
        <time>2021-12-27T15:40:24Z</time>
      </trkpt>
      <trkpt lat="37.7717630" lon="-3.9161220">
        <ele>605.8</ele>
        <time>2021-12-27T15:40:25Z</time>
      </trkpt>
      <trkpt lat="37.7717600" lon="-3.9161680">
        <ele>605.8</ele>
        <time>2021-12-27T15:40:26Z</time>
      </trkpt>
      <trkpt lat="37.7717500" lon="-3.9162130">
        <ele>605.8</ele>
        <time>2021-12-27T15:40:27Z</time>
      </trkpt>
      <trkpt lat="37.7717440" lon="-3.9162570">
        <ele>605.8</ele>
        <time>2021-12-27T15:40:28Z</time>
      </trkpt>
      <trkpt lat="37.7717380" lon="-3.9163000">
        <ele>605.8</ele>
        <time>2021-12-27T15:40:29Z</time>
      </trkpt>
      <trkpt lat="37.7717280" lon="-3.9163400">
        <ele>605.8</ele>
        <time>2021-12-27T15:40:30Z</time>
      </trkpt>
      <trkpt lat="37.7717220" lon="-3.9163800">
        <ele>605.6</ele>
        <time>2021-12-27T15:40:31Z</time>
      </trkpt>
      <trkpt lat="37.7717120" lon="-3.9164200">
        <ele>605.6</ele>
        <time>2021-12-27T15:40:32Z</time>
      </trkpt>
      <trkpt lat="37.7717090" lon="-3.9164600">
        <ele>605.6</ele>
        <time>2021-12-27T15:40:33Z</time>
      </trkpt>
      <trkpt lat="37.7717020" lon="-3.9165000">
        <ele>605.6</ele>
        <time>2021-12-27T15:40:34Z</time>
      </trkpt>
      <trkpt lat="37.7716900" lon="-3.9165420">
        <ele>605.4</ele>
        <time>2021-12-27T15:40:35Z</time>
      </trkpt>
      <trkpt lat="37.7716830" lon="-3.9165830">
        <ele>605.4</ele>
        <time>2021-12-27T15:40:36Z</time>
      </trkpt>
      <trkpt lat="37.7716740" lon="-3.9166250">
        <ele>605.2</ele>
        <time>2021-12-27T15:40:37Z</time>
      </trkpt>
      <trkpt lat="37.7716640" lon="-3.9166640">
        <ele>605.2</ele>
        <time>2021-12-27T15:40:38Z</time>
      </trkpt>
      <trkpt lat="37.7716580" lon="-3.9166960">
        <ele>605.2</ele>
        <time>2021-12-27T15:40:39Z</time>
      </trkpt>
      <trkpt lat="37.7716510" lon="-3.9167230">
        <ele>605.2</ele>
        <time>2021-12-27T15:40:40Z</time>
      </trkpt>
      <trkpt lat="37.7716480" lon="-3.9167480">
        <ele>605.2</ele>
        <time>2021-12-27T15:40:41Z</time>
      </trkpt>
      <trkpt lat="37.7716480" lon="-3.9167480">
        <ele>605.0</ele>
        <time>2021-12-27T15:40:42Z</time>
      </trkpt>
      <trkpt lat="37.7716420" lon="-3.9167900">
        <ele>605.0</ele>
        <time>2021-12-27T15:40:43Z</time>
      </trkpt>
      <trkpt lat="37.7716320" lon="-3.9168120">
        <ele>605.0</ele>
        <time>2021-12-27T15:40:44Z</time>
      </trkpt>
      <trkpt lat="37.7716320" lon="-3.9168120">
        <ele>605.0</ele>
        <time>2021-12-27T15:40:45Z</time>
      </trkpt>
      <trkpt lat="37.7716220" lon="-3.9168570">
        <ele>605.0</ele>
        <time>2021-12-27T15:40:46Z</time>
      </trkpt>
      <trkpt lat="37.7716190" lon="-3.9168820">
        <ele>605.0</ele>
        <time>2021-12-27T15:40:47Z</time>
      </trkpt>
      <trkpt lat="37.7716100" lon="-3.9169100">
        <ele>605.0</ele>
        <time>2021-12-27T15:40:48Z</time>
      </trkpt>
      <trkpt lat="37.7716060" lon="-3.9169400">
        <ele>605.0</ele>
        <time>2021-12-27T15:40:49Z</time>
      </trkpt>
      <trkpt lat="37.7716000" lon="-3.9169670">
        <ele>605.0</ele>
        <time>2021-12-27T15:40:50Z</time>
      </trkpt>
      <trkpt lat="37.7715940" lon="-3.9169920">
        <ele>605.0</ele>
        <time>2021-12-27T15:40:51Z</time>
      </trkpt>
      <trkpt lat="37.7715900" lon="-3.9170150">
        <ele>605.0</ele>
        <time>2021-12-27T15:40:52Z</time>
      </trkpt>
      <trkpt lat="37.7715840" lon="-3.9170380">
        <ele>605.0</ele>
        <time>2021-12-27T15:40:53Z</time>
      </trkpt>
      <trkpt lat="37.7715810" lon="-3.9170620">
        <ele>605.0</ele>
        <time>2021-12-27T15:40:54Z</time>
      </trkpt>
      <trkpt lat="37.7715680" lon="-3.9170870">
        <ele>605.0</ele>
        <time>2021-12-27T15:40:55Z</time>
      </trkpt>
      <trkpt lat="37.7715650" lon="-3.9171120">
        <ele>605.0</ele>
        <time>2021-12-27T15:40:56Z</time>
      </trkpt>
      <trkpt lat="37.7715580" lon="-3.9171370">
        <ele>604.8</ele>
        <time>2021-12-27T15:40:57Z</time>
      </trkpt>
      <trkpt lat="37.7715580" lon="-3.9171370">
        <ele>604.8</ele>
        <time>2021-12-27T15:40:58Z</time>
      </trkpt>
      <trkpt lat="37.7715490" lon="-3.9171800">
        <ele>604.8</ele>
        <time>2021-12-27T15:40:59Z</time>
      </trkpt>
      <trkpt lat="37.7715460" lon="-3.9172040">
        <ele>604.6</ele>
        <time>2021-12-27T15:41:00Z</time>
      </trkpt>
      <trkpt lat="37.7715420" lon="-3.9172270">
        <ele>604.6</ele>
        <time>2021-12-27T15:41:01Z</time>
      </trkpt>
      <trkpt lat="37.7715390" lon="-3.9172500">
        <ele>604.4</ele>
        <time>2021-12-27T15:41:02Z</time>
      </trkpt>
      <trkpt lat="37.7715390" lon="-3.9172750">
        <ele>604.4</ele>
        <time>2021-12-27T15:41:03Z</time>
      </trkpt>
      <trkpt lat="37.7715330" lon="-3.9172980">
        <ele>604.2</ele>
        <time>2021-12-27T15:41:04Z</time>
      </trkpt>
      <trkpt lat="37.7715300" lon="-3.9173220">
        <ele>604.2</ele>
        <time>2021-12-27T15:41:05Z</time>
      </trkpt>
      <trkpt lat="37.7715230" lon="-3.9173480">
        <ele>604.0</ele>
        <time>2021-12-27T15:41:06Z</time>
      </trkpt>
      <trkpt lat="37.7715140" lon="-3.9173740">
        <ele>604.0</ele>
        <time>2021-12-27T15:41:07Z</time>
      </trkpt>
      <trkpt lat="37.7715070" lon="-3.9174000">
        <ele>603.8</ele>
        <time>2021-12-27T15:41:08Z</time>
      </trkpt>
      <trkpt lat="37.7715040" lon="-3.9174250">
        <ele>603.8</ele>
        <time>2021-12-27T15:41:09Z</time>
      </trkpt>
      <trkpt lat="37.7715040" lon="-3.9174250">
        <ele>603.8</ele>
        <time>2021-12-27T15:41:10Z</time>
      </trkpt>
      <trkpt lat="37.7714910" lon="-3.9174680">
        <ele>603.8</ele>
        <time>2021-12-27T15:41:11Z</time>
      </trkpt>
      <trkpt lat="37.7714910" lon="-3.9174680">
        <ele>603.8</ele>
        <time>2021-12-27T15:41:12Z</time>
      </trkpt>
      <trkpt lat="37.7714850" lon="-3.9175120">
        <ele>603.8</ele>
        <time>2021-12-27T15:41:13Z</time>
      </trkpt>
      <trkpt lat="37.7714750" lon="-3.9175350">
        <ele>603.6</ele>
        <time>2021-12-27T15:41:14Z</time>
      </trkpt>
      <trkpt lat="37.7714750" lon="-3.9175350">
        <ele>603.6</ele>
        <time>2021-12-27T15:41:15Z</time>
      </trkpt>
      <trkpt lat="37.7714660" lon="-3.9175770">
        <ele>603.8</ele>
        <time>2021-12-27T15:41:16Z</time>
      </trkpt>
      <trkpt lat="37.7714660" lon="-3.9175770">
        <ele>603.8</ele>
        <time>2021-12-27T15:41:17Z</time>
      </trkpt>
      <trkpt lat="37.7714530" lon="-3.9176230">
        <ele>603.8</ele>
        <time>2021-12-27T15:41:18Z</time>
      </trkpt>
      <trkpt lat="37.7714500" lon="-3.9176470">
        <ele>603.8</ele>
        <time>2021-12-27T15:41:19Z</time>
      </trkpt>
      <trkpt lat="37.7714500" lon="-3.9176470">
        <ele>603.6</ele>
        <time>2021-12-27T15:41:20Z</time>
      </trkpt>
      <trkpt lat="37.7714400" lon="-3.9176900">
        <ele>603.6</ele>
        <time>2021-12-27T15:41:21Z</time>
      </trkpt>
      <trkpt lat="37.7714340" lon="-3.9177150">
        <ele>603.6</ele>
        <time>2021-12-27T15:41:22Z</time>
      </trkpt>
      <trkpt lat="37.7714340" lon="-3.9177150">
        <ele>603.8</ele>
        <time>2021-12-27T15:41:23Z</time>
      </trkpt>
      <trkpt lat="37.7714240" lon="-3.9177580">
        <ele>603.8</ele>
        <time>2021-12-27T15:41:24Z</time>
      </trkpt>
      <trkpt lat="37.7714240" lon="-3.9177580">
        <ele>603.8</ele>
        <time>2021-12-27T15:41:25Z</time>
      </trkpt>
      <trkpt lat="37.7714140" lon="-3.9177980">
        <ele>603.8</ele>
        <time>2021-12-27T15:41:26Z</time>
      </trkpt>
      <trkpt lat="37.7714140" lon="-3.9177980">
        <ele>603.8</ele>
        <time>2021-12-27T15:41:27Z</time>
      </trkpt>
      <trkpt lat="37.7714080" lon="-3.9178420">
        <ele>603.8</ele>
        <time>2021-12-27T15:41:28Z</time>
      </trkpt>
      <trkpt lat="37.7714080" lon="-3.9178420">
        <ele>603.8</ele>
        <time>2021-12-27T15:41:29Z</time>
      </trkpt>
      <trkpt lat="37.7714020" lon="-3.9178780">
        <ele>603.8</ele>
        <time>2021-12-27T15:41:30Z</time>
      </trkpt>
      <trkpt lat="37.7714020" lon="-3.9178780">
        <ele>603.8</ele>
        <time>2021-12-27T15:41:31Z</time>
      </trkpt>
      <trkpt lat="37.7714020" lon="-3.9179070">
        <ele>603.8</ele>
        <time>2021-12-27T15:41:32Z</time>
      </trkpt>
      <trkpt lat="37.7714020" lon="-3.9179070">
        <ele>603.6</ele>
        <time>2021-12-27T15:41:33Z</time>
      </trkpt>
      <trkpt lat="37.7714020" lon="-3.9179070">
        <ele>603.6</ele>
        <time>2021-12-27T15:41:34Z</time>
      </trkpt>
      <trkpt lat="37.7714020" lon="-3.9179070">
        <ele>603.6</ele>
        <time>2021-12-27T15:41:35Z</time>
      </trkpt>
      <trkpt lat="37.7714020" lon="-3.9179070">
        <ele>603.6</ele>
        <time>2021-12-27T15:41:36Z</time>
      </trkpt>
      <trkpt lat="37.7714020" lon="-3.9179070">
        <ele>604.2</ele>
        <time>2021-12-27T15:41:54Z</time>
      </trkpt>
      <trkpt lat="37.7713730" lon="-3.9180220">
        <ele>604.2</ele>
        <time>2021-12-27T15:41:55Z</time>
      </trkpt>
      <trkpt lat="37.7713730" lon="-3.9180220">
        <ele>604.2</ele>
        <time>2021-12-27T15:41:56Z</time>
      </trkpt>
      <trkpt lat="37.7713700" lon="-3.9180530">
        <ele>604.2</ele>
        <time>2021-12-27T15:41:57Z</time>
      </trkpt>
      <trkpt lat="37.7713700" lon="-3.9180530">
        <ele>604.0</ele>
        <time>2021-12-27T15:41:58Z</time>
      </trkpt>
      <trkpt lat="37.7713660" lon="-3.9180850">
        <ele>604.0</ele>
        <time>2021-12-27T15:41:59Z</time>
      </trkpt>
      <trkpt lat="37.7713660" lon="-3.9180850">
        <ele>603.8</ele>
        <time>2021-12-27T15:42:00Z</time>
      </trkpt>
      <trkpt lat="37.7713600" lon="-3.9181250">
        <ele>603.8</ele>
        <time>2021-12-27T15:42:01Z</time>
      </trkpt>
      <trkpt lat="37.7713540" lon="-3.9181470">
        <ele>603.8</ele>
        <time>2021-12-27T15:42:02Z</time>
      </trkpt>
      <trkpt lat="37.7713470" lon="-3.9181680">
        <ele>603.8</ele>
        <time>2021-12-27T15:42:03Z</time>
      </trkpt>
      <trkpt lat="37.7713440" lon="-3.9181970">
        <ele>603.8</ele>
        <time>2021-12-27T15:42:04Z</time>
      </trkpt>
      <trkpt lat="37.7713340" lon="-3.9182300">
        <ele>603.8</ele>
        <time>2021-12-27T15:42:05Z</time>
      </trkpt>
      <trkpt lat="37.7713280" lon="-3.9182680">
        <ele>603.8</ele>
        <time>2021-12-27T15:42:06Z</time>
      </trkpt>
      <trkpt lat="37.7713220" lon="-3.9183060">
        <ele>603.8</ele>
        <time>2021-12-27T15:42:07Z</time>
      </trkpt>
      <trkpt lat="37.7713120" lon="-3.9183470">
        <ele>603.8</ele>
        <time>2021-12-27T15:42:08Z</time>
      </trkpt>
      <trkpt lat="37.7713060" lon="-3.9183830">
        <ele>603.8</ele>
        <time>2021-12-27T15:42:09Z</time>
      </trkpt>
      <trkpt lat="37.7712960" lon="-3.9184240">
        <ele>603.8</ele>
        <time>2021-12-27T15:42:10Z</time>
      </trkpt>
      <trkpt lat="37.7712900" lon="-3.9184600">
        <ele>603.8</ele>
        <time>2021-12-27T15:42:11Z</time>
      </trkpt>
      <trkpt lat="37.7712830" lon="-3.9184970">
        <ele>603.6</ele>
        <time>2021-12-27T15:42:12Z</time>
      </trkpt>
      <trkpt lat="37.7712740" lon="-3.9185320">
        <ele>603.6</ele>
        <time>2021-12-27T15:42:13Z</time>
      </trkpt>
      <trkpt lat="37.7712640" lon="-3.9185620">
        <ele>603.6</ele>
        <time>2021-12-27T15:42:14Z</time>
      </trkpt>
      <trkpt lat="37.7712540" lon="-3.9185950">
        <ele>603.6</ele>
        <time>2021-12-27T15:42:15Z</time>
      </trkpt>
      <trkpt lat="37.7712480" lon="-3.9186280">
        <ele>603.6</ele>
        <time>2021-12-27T15:42:16Z</time>
      </trkpt>
      <trkpt lat="37.7712420" lon="-3.9186620">
        <ele>603.4</ele>
        <time>2021-12-27T15:42:17Z</time>
      </trkpt>
      <trkpt lat="37.7712320" lon="-3.9187020">
        <ele>603.4</ele>
        <time>2021-12-27T15:42:18Z</time>
      </trkpt>
      <trkpt lat="37.7712260" lon="-3.9187420">
        <ele>603.4</ele>
        <time>2021-12-27T15:42:19Z</time>
      </trkpt>
      <trkpt lat="37.7712160" lon="-3.9187830">
        <ele>603.4</ele>
        <time>2021-12-27T15:42:20Z</time>
      </trkpt>
      <trkpt lat="37.7712100" lon="-3.9188220">
        <ele>603.4</ele>
        <time>2021-12-27T15:42:21Z</time>
      </trkpt>
      <trkpt lat="37.7711970" lon="-3.9188620">
        <ele>603.4</ele>
        <time>2021-12-27T15:42:22Z</time>
      </trkpt>
      <trkpt lat="37.7711900" lon="-3.9188970">
        <ele>603.4</ele>
        <time>2021-12-27T15:42:23Z</time>
      </trkpt>
      <trkpt lat="37.7711870" lon="-3.9189330">
        <ele>603.2</ele>
        <time>2021-12-27T15:42:24Z</time>
      </trkpt>
      <trkpt lat="37.7711740" lon="-3.9189700">
        <ele>603.2</ele>
        <time>2021-12-27T15:42:25Z</time>
      </trkpt>
      <trkpt lat="37.7711680" lon="-3.9190080">
        <ele>603.2</ele>
        <time>2021-12-27T15:42:26Z</time>
      </trkpt>
      <trkpt lat="37.7711650" lon="-3.9190480">
        <ele>603.2</ele>
        <time>2021-12-27T15:42:27Z</time>
      </trkpt>
      <trkpt lat="37.7711550" lon="-3.9190900">
        <ele>603.0</ele>
        <time>2021-12-27T15:42:28Z</time>
      </trkpt>
      <trkpt lat="37.7711490" lon="-3.9191320">
        <ele>603.0</ele>
        <time>2021-12-27T15:42:29Z</time>
      </trkpt>
      <trkpt lat="37.7711460" lon="-3.9191730">
        <ele>603.0</ele>
        <time>2021-12-27T15:42:30Z</time>
      </trkpt>
      <trkpt lat="37.7711360" lon="-3.9192170">
        <ele>602.8</ele>
        <time>2021-12-27T15:42:31Z</time>
      </trkpt>
      <trkpt lat="37.7711330" lon="-3.9192570">
        <ele>602.8</ele>
        <time>2021-12-27T15:42:32Z</time>
      </trkpt>
      <trkpt lat="37.7711300" lon="-3.9193000">
        <ele>602.6</ele>
        <time>2021-12-27T15:42:33Z</time>
      </trkpt>
      <trkpt lat="37.7711230" lon="-3.9193420">
        <ele>602.6</ele>
        <time>2021-12-27T15:42:34Z</time>
      </trkpt>
      <trkpt lat="37.7711140" lon="-3.9193850">
        <ele>602.6</ele>
        <time>2021-12-27T15:42:35Z</time>
      </trkpt>
      <trkpt lat="37.7711070" lon="-3.9194300">
        <ele>602.4</ele>
        <time>2021-12-27T15:42:36Z</time>
      </trkpt>
      <trkpt lat="37.7711040" lon="-3.9194720">
        <ele>602.4</ele>
        <time>2021-12-27T15:42:37Z</time>
      </trkpt>
      <trkpt lat="37.7710940" lon="-3.9195160">
        <ele>602.4</ele>
        <time>2021-12-27T15:42:38Z</time>
      </trkpt>
      <trkpt lat="37.7710910" lon="-3.9195650">
        <ele>602.2</ele>
        <time>2021-12-27T15:42:39Z</time>
      </trkpt>
      <trkpt lat="37.7710910" lon="-3.9196120">
        <ele>602.2</ele>
        <time>2021-12-27T15:42:40Z</time>
      </trkpt>
      <trkpt lat="37.7710880" lon="-3.9196580">
        <ele>602.2</ele>
        <time>2021-12-27T15:42:41Z</time>
      </trkpt>
      <trkpt lat="37.7710820" lon="-3.9197050">
        <ele>602.0</ele>
        <time>2021-12-27T15:42:42Z</time>
      </trkpt>
      <trkpt lat="37.7710750" lon="-3.9197500">
        <ele>602.0</ele>
        <time>2021-12-27T15:42:43Z</time>
      </trkpt>
      <trkpt lat="37.7710720" lon="-3.9197950">
        <ele>602.0</ele>
        <time>2021-12-27T15:42:44Z</time>
      </trkpt>
      <trkpt lat="37.7710690" lon="-3.9198420">
        <ele>601.8</ele>
        <time>2021-12-27T15:42:45Z</time>
      </trkpt>
      <trkpt lat="37.7710660" lon="-3.9198860">
        <ele>601.8</ele>
        <time>2021-12-27T15:42:46Z</time>
      </trkpt>
      <trkpt lat="37.7710660" lon="-3.9199300">
        <ele>601.8</ele>
        <time>2021-12-27T15:42:47Z</time>
      </trkpt>
      <trkpt lat="37.7710620" lon="-3.9199730">
        <ele>601.8</ele>
        <time>2021-12-27T15:42:48Z</time>
      </trkpt>
      <trkpt lat="37.7710620" lon="-3.9200180">
        <ele>601.8</ele>
        <time>2021-12-27T15:42:49Z</time>
      </trkpt>
      <trkpt lat="37.7710620" lon="-3.9200660">
        <ele>601.8</ele>
        <time>2021-12-27T15:42:50Z</time>
      </trkpt>
      <trkpt lat="37.7710620" lon="-3.9201150">
        <ele>601.8</ele>
        <time>2021-12-27T15:42:51Z</time>
      </trkpt>
      <trkpt lat="37.7710620" lon="-3.9201600">
        <ele>601.8</ele>
        <time>2021-12-27T15:42:52Z</time>
      </trkpt>
      <trkpt lat="37.7710620" lon="-3.9202100">
        <ele>601.8</ele>
        <time>2021-12-27T15:42:53Z</time>
      </trkpt>
      <trkpt lat="37.7710620" lon="-3.9202570">
        <ele>601.8</ele>
        <time>2021-12-27T15:42:54Z</time>
      </trkpt>
      <trkpt lat="37.7710620" lon="-3.9203030">
        <ele>601.8</ele>
        <time>2021-12-27T15:42:55Z</time>
      </trkpt>
      <trkpt lat="37.7710620" lon="-3.9203520">
        <ele>601.8</ele>
        <time>2021-12-27T15:42:56Z</time>
      </trkpt>
      <trkpt lat="37.7710620" lon="-3.9204000">
        <ele>601.8</ele>
        <time>2021-12-27T15:42:57Z</time>
      </trkpt>
      <trkpt lat="37.7710660" lon="-3.9204480">
        <ele>601.8</ele>
        <time>2021-12-27T15:42:58Z</time>
      </trkpt>
      <trkpt lat="37.7710660" lon="-3.9204930">
        <ele>601.8</ele>
        <time>2021-12-27T15:42:59Z</time>
      </trkpt>
      <trkpt lat="37.7710690" lon="-3.9205420">
        <ele>601.6</ele>
        <time>2021-12-27T15:43:00Z</time>
      </trkpt>
      <trkpt lat="37.7710690" lon="-3.9205860">
        <ele>601.6</ele>
        <time>2021-12-27T15:43:01Z</time>
      </trkpt>
      <trkpt lat="37.7710720" lon="-3.9206270">
        <ele>601.6</ele>
        <time>2021-12-27T15:43:02Z</time>
      </trkpt>
      <trkpt lat="37.7710720" lon="-3.9206700">
        <ele>601.6</ele>
        <time>2021-12-27T15:43:03Z</time>
      </trkpt>
      <trkpt lat="37.7710720" lon="-3.9207150">
        <ele>601.6</ele>
        <time>2021-12-27T15:43:04Z</time>
      </trkpt>
      <trkpt lat="37.7710720" lon="-3.9207600">
        <ele>601.6</ele>
        <time>2021-12-27T15:43:05Z</time>
      </trkpt>
      <trkpt lat="37.7710750" lon="-3.9208100">
        <ele>601.6</ele>
        <time>2021-12-27T15:43:06Z</time>
      </trkpt>
      <trkpt lat="37.7710820" lon="-3.9208580">
        <ele>601.6</ele>
        <time>2021-12-27T15:43:07Z</time>
      </trkpt>
      <trkpt lat="37.7710880" lon="-3.9209060">
        <ele>601.6</ele>
        <time>2021-12-27T15:43:08Z</time>
      </trkpt>
      <trkpt lat="37.7710910" lon="-3.9209530">
        <ele>601.6</ele>
        <time>2021-12-27T15:43:09Z</time>
      </trkpt>
      <trkpt lat="37.7710980" lon="-3.9209980">
        <ele>601.6</ele>
        <time>2021-12-27T15:43:10Z</time>
      </trkpt>
      <trkpt lat="37.7711040" lon="-3.9210400">
        <ele>601.6</ele>
        <time>2021-12-27T15:43:11Z</time>
      </trkpt>
      <trkpt lat="37.7711070" lon="-3.9210840">
        <ele>601.6</ele>
        <time>2021-12-27T15:43:12Z</time>
      </trkpt>
      <trkpt lat="37.7711140" lon="-3.9211280">
        <ele>601.6</ele>
        <time>2021-12-27T15:43:13Z</time>
      </trkpt>
      <trkpt lat="37.7711230" lon="-3.9211730">
        <ele>601.6</ele>
        <time>2021-12-27T15:43:14Z</time>
      </trkpt>
      <trkpt lat="37.7711260" lon="-3.9212180">
        <ele>601.4</ele>
        <time>2021-12-27T15:43:15Z</time>
      </trkpt>
      <trkpt lat="37.7711330" lon="-3.9212660">
        <ele>601.4</ele>
        <time>2021-12-27T15:43:16Z</time>
      </trkpt>
      <trkpt lat="37.7711420" lon="-3.9213120">
        <ele>601.4</ele>
        <time>2021-12-27T15:43:17Z</time>
      </trkpt>
      <trkpt lat="37.7711520" lon="-3.9213530">
        <ele>601.4</ele>
        <time>2021-12-27T15:43:18Z</time>
      </trkpt>
      <trkpt lat="37.7711650" lon="-3.9213930">
        <ele>601.4</ele>
        <time>2021-12-27T15:43:19Z</time>
      </trkpt>
      <trkpt lat="37.7711740" lon="-3.9214320">
        <ele>601.4</ele>
        <time>2021-12-27T15:43:20Z</time>
      </trkpt>
      <trkpt lat="37.7711900" lon="-3.9214680">
        <ele>601.2</ele>
        <time>2021-12-27T15:43:21Z</time>
      </trkpt>
      <trkpt lat="37.7712030" lon="-3.9215030">
        <ele>601.2</ele>
        <time>2021-12-27T15:43:22Z</time>
      </trkpt>
      <trkpt lat="37.7712130" lon="-3.9215380">
        <ele>601.2</ele>
        <time>2021-12-27T15:43:23Z</time>
      </trkpt>
      <trkpt lat="37.7712220" lon="-3.9215750">
        <ele>601.2</ele>
        <time>2021-12-27T15:43:24Z</time>
      </trkpt>
      <trkpt lat="37.7712320" lon="-3.9216150">
        <ele>601.4</ele>
        <time>2021-12-27T15:43:25Z</time>
      </trkpt>
      <trkpt lat="37.7712420" lon="-3.9216550">
        <ele>601.4</ele>
        <time>2021-12-27T15:43:26Z</time>
      </trkpt>
      <trkpt lat="37.7712510" lon="-3.9216950">
        <ele>601.4</ele>
        <time>2021-12-27T15:43:27Z</time>
      </trkpt>
      <trkpt lat="37.7712640" lon="-3.9217320">
        <ele>601.2</ele>
        <time>2021-12-27T15:43:28Z</time>
      </trkpt>
      <trkpt lat="37.7712770" lon="-3.9217740">
        <ele>601.2</ele>
        <time>2021-12-27T15:43:29Z</time>
      </trkpt>
      <trkpt lat="37.7712900" lon="-3.9218160">
        <ele>601.2</ele>
        <time>2021-12-27T15:43:30Z</time>
      </trkpt>
      <trkpt lat="37.7712960" lon="-3.9218580">
        <ele>601.2</ele>
        <time>2021-12-27T15:43:31Z</time>
      </trkpt>
      <trkpt lat="37.7713060" lon="-3.9219030">
        <ele>601.2</ele>
        <time>2021-12-27T15:43:32Z</time>
      </trkpt>
      <trkpt lat="37.7713150" lon="-3.9219420">
        <ele>601.2</ele>
        <time>2021-12-27T15:43:33Z</time>
      </trkpt>
      <trkpt lat="37.7713310" lon="-3.9219830">
        <ele>601.2</ele>
        <time>2021-12-27T15:43:34Z</time>
      </trkpt>
      <trkpt lat="37.7713440" lon="-3.9220230">
        <ele>601.2</ele>
        <time>2021-12-27T15:43:35Z</time>
      </trkpt>
      <trkpt lat="37.7713600" lon="-3.9220670">
        <ele>601.2</ele>
        <time>2021-12-27T15:43:36Z</time>
      </trkpt>
      <trkpt lat="37.7713700" lon="-3.9221070">
        <ele>601.2</ele>
        <time>2021-12-27T15:43:37Z</time>
      </trkpt>
      <trkpt lat="37.7713860" lon="-3.9221480">
        <ele>601.0</ele>
        <time>2021-12-27T15:43:38Z</time>
      </trkpt>
      <trkpt lat="37.7713950" lon="-3.9221900">
        <ele>601.0</ele>
        <time>2021-12-27T15:43:39Z</time>
      </trkpt>
      <trkpt lat="37.7714050" lon="-3.9222300">
        <ele>601.0</ele>
        <time>2021-12-27T15:43:40Z</time>
      </trkpt>
      <trkpt lat="37.7714110" lon="-3.9222680">
        <ele>601.0</ele>
        <time>2021-12-27T15:43:41Z</time>
      </trkpt>
      <trkpt lat="37.7714240" lon="-3.9223100">
        <ele>601.0</ele>
        <time>2021-12-27T15:43:42Z</time>
      </trkpt>
      <trkpt lat="37.7714340" lon="-3.9223500">
        <ele>601.0</ele>
        <time>2021-12-27T15:43:43Z</time>
      </trkpt>
      <trkpt lat="37.7714500" lon="-3.9223930">
        <ele>601.0</ele>
        <time>2021-12-27T15:43:44Z</time>
      </trkpt>
      <trkpt lat="37.7714620" lon="-3.9224370">
        <ele>601.0</ele>
        <time>2021-12-27T15:43:45Z</time>
      </trkpt>
      <trkpt lat="37.7714750" lon="-3.9224800">
        <ele>601.0</ele>
        <time>2021-12-27T15:43:46Z</time>
      </trkpt>
      <trkpt lat="37.7714850" lon="-3.9225250">
        <ele>601.0</ele>
        <time>2021-12-27T15:43:47Z</time>
      </trkpt>
      <trkpt lat="37.7714940" lon="-3.9225680">
        <ele>601.0</ele>
        <time>2021-12-27T15:43:48Z</time>
      </trkpt>
      <trkpt lat="37.7715070" lon="-3.9226080">
        <ele>601.0</ele>
        <time>2021-12-27T15:43:49Z</time>
      </trkpt>
      <trkpt lat="37.7715200" lon="-3.9226480">
        <ele>601.0</ele>
        <time>2021-12-27T15:43:50Z</time>
      </trkpt>
      <trkpt lat="37.7715330" lon="-3.9226860">
        <ele>601.2</ele>
        <time>2021-12-27T15:43:51Z</time>
      </trkpt>
      <trkpt lat="37.7715460" lon="-3.9227270">
        <ele>601.2</ele>
        <time>2021-12-27T15:43:52Z</time>
      </trkpt>
      <trkpt lat="37.7715580" lon="-3.9227650">
        <ele>601.2</ele>
        <time>2021-12-27T15:43:53Z</time>
      </trkpt>
      <trkpt lat="37.7715680" lon="-3.9228050">
        <ele>601.2</ele>
        <time>2021-12-27T15:43:54Z</time>
      </trkpt>
      <trkpt lat="37.7715810" lon="-3.9228450">
        <ele>601.2</ele>
        <time>2021-12-27T15:43:55Z</time>
      </trkpt>
      <trkpt lat="37.7715900" lon="-3.9228830">
        <ele>601.2</ele>
        <time>2021-12-27T15:43:56Z</time>
      </trkpt>
      <trkpt lat="37.7716030" lon="-3.9229270">
        <ele>601.2</ele>
        <time>2021-12-27T15:43:57Z</time>
      </trkpt>
      <trkpt lat="37.7716130" lon="-3.9229670">
        <ele>601.0</ele>
        <time>2021-12-27T15:43:58Z</time>
      </trkpt>
      <trkpt lat="37.7716290" lon="-3.9230120">
        <ele>601.2</ele>
        <time>2021-12-27T15:43:59Z</time>
      </trkpt>
      <trkpt lat="37.7716420" lon="-3.9230530">
        <ele>601.2</ele>
        <time>2021-12-27T15:44:00Z</time>
      </trkpt>
      <trkpt lat="37.7716580" lon="-3.9230950">
        <ele>601.2</ele>
        <time>2021-12-27T15:44:01Z</time>
      </trkpt>
      <trkpt lat="37.7716670" lon="-3.9231400">
        <ele>601.2</ele>
        <time>2021-12-27T15:44:02Z</time>
      </trkpt>
      <trkpt lat="37.7716800" lon="-3.9231820">
        <ele>601.2</ele>
        <time>2021-12-27T15:44:03Z</time>
      </trkpt>
      <trkpt lat="37.7716860" lon="-3.9232260">
        <ele>601.2</ele>
        <time>2021-12-27T15:44:04Z</time>
      </trkpt>
      <trkpt lat="37.7717020" lon="-3.9232680">
        <ele>601.2</ele>
        <time>2021-12-27T15:44:05Z</time>
      </trkpt>
      <trkpt lat="37.7717120" lon="-3.9233100">
        <ele>601.2</ele>
        <time>2021-12-27T15:44:06Z</time>
      </trkpt>
      <trkpt lat="37.7717250" lon="-3.9233550">
        <ele>601.2</ele>
        <time>2021-12-27T15:44:07Z</time>
      </trkpt>
      <trkpt lat="37.7717310" lon="-3.9234000">
        <ele>601.2</ele>
        <time>2021-12-27T15:44:08Z</time>
      </trkpt>
      <trkpt lat="37.7717440" lon="-3.9234430">
        <ele>601.2</ele>
        <time>2021-12-27T15:44:09Z</time>
      </trkpt>
      <trkpt lat="37.7717500" lon="-3.9234880">
        <ele>601.0</ele>
        <time>2021-12-27T15:44:10Z</time>
      </trkpt>
      <trkpt lat="37.7717660" lon="-3.9235320">
        <ele>601.0</ele>
        <time>2021-12-27T15:44:11Z</time>
      </trkpt>
      <trkpt lat="37.7717730" lon="-3.9235750">
        <ele>601.0</ele>
        <time>2021-12-27T15:44:12Z</time>
      </trkpt>
      <trkpt lat="37.7717860" lon="-3.9236150">
        <ele>601.0</ele>
        <time>2021-12-27T15:44:13Z</time>
      </trkpt>
      <trkpt lat="37.7717920" lon="-3.9236550">
        <ele>600.8</ele>
        <time>2021-12-27T15:44:14Z</time>
      </trkpt>
      <trkpt lat="37.7718050" lon="-3.9236940">
        <ele>600.8</ele>
        <time>2021-12-27T15:44:15Z</time>
      </trkpt>
      <trkpt lat="37.7718110" lon="-3.9237320">
        <ele>600.8</ele>
        <time>2021-12-27T15:44:16Z</time>
      </trkpt>
      <trkpt lat="37.7718210" lon="-3.9237670">
        <ele>600.6</ele>
        <time>2021-12-27T15:44:17Z</time>
      </trkpt>
      <trkpt lat="37.7718270" lon="-3.9238030">
        <ele>600.6</ele>
        <time>2021-12-27T15:44:18Z</time>
      </trkpt>
      <trkpt lat="37.7718400" lon="-3.9238400">
        <ele>600.6</ele>
        <time>2021-12-27T15:44:19Z</time>
      </trkpt>
      <trkpt lat="37.7718460" lon="-3.9238780">
        <ele>600.4</ele>
        <time>2021-12-27T15:44:20Z</time>
      </trkpt>
      <trkpt lat="37.7718590" lon="-3.9239160">
        <ele>600.4</ele>
        <time>2021-12-27T15:44:21Z</time>
      </trkpt>
      <trkpt lat="37.7718620" lon="-3.9239570">
        <ele>600.4</ele>
        <time>2021-12-27T15:44:22Z</time>
      </trkpt>
      <trkpt lat="37.7718720" lon="-3.9239950">
        <ele>600.2</ele>
        <time>2021-12-27T15:44:23Z</time>
      </trkpt>
      <trkpt lat="37.7718780" lon="-3.9240350">
        <ele>600.2</ele>
        <time>2021-12-27T15:44:24Z</time>
      </trkpt>
      <trkpt lat="37.7718850" lon="-3.9240730">
        <ele>600.2</ele>
        <time>2021-12-27T15:44:25Z</time>
      </trkpt>
      <trkpt lat="37.7718880" lon="-3.9241120">
        <ele>600.2</ele>
        <time>2021-12-27T15:44:26Z</time>
      </trkpt>
      <trkpt lat="37.7718980" lon="-3.9241520">
        <ele>600.0</ele>
        <time>2021-12-27T15:44:27Z</time>
      </trkpt>
      <trkpt lat="37.7719010" lon="-3.9241930">
        <ele>600.0</ele>
        <time>2021-12-27T15:44:28Z</time>
      </trkpt>
      <trkpt lat="37.7719070" lon="-3.9242370">
        <ele>600.0</ele>
        <time>2021-12-27T15:44:29Z</time>
      </trkpt>
      <trkpt lat="37.7719100" lon="-3.9242800">
        <ele>600.0</ele>
        <time>2021-12-27T15:44:30Z</time>
      </trkpt>
      <trkpt lat="37.7719170" lon="-3.9243220">
        <ele>600.0</ele>
        <time>2021-12-27T15:44:31Z</time>
      </trkpt>
      <trkpt lat="37.7719230" lon="-3.9243580">
        <ele>600.0</ele>
        <time>2021-12-27T15:44:32Z</time>
      </trkpt>
      <trkpt lat="37.7719260" lon="-3.9243950">
        <ele>600.0</ele>
        <time>2021-12-27T15:44:33Z</time>
      </trkpt>
      <trkpt lat="37.7719260" lon="-3.9244280">
        <ele>600.0</ele>
        <time>2021-12-27T15:44:34Z</time>
      </trkpt>
      <trkpt lat="37.7719300" lon="-3.9244650">
        <ele>600.0</ele>
        <time>2021-12-27T15:44:35Z</time>
      </trkpt>
      <trkpt lat="37.7719360" lon="-3.9245050">
        <ele>600.0</ele>
        <time>2021-12-27T15:44:36Z</time>
      </trkpt>
      <trkpt lat="37.7719390" lon="-3.9245430">
        <ele>599.8</ele>
        <time>2021-12-27T15:44:37Z</time>
      </trkpt>
      <trkpt lat="37.7719420" lon="-3.9245800">
        <ele>599.8</ele>
        <time>2021-12-27T15:44:38Z</time>
      </trkpt>
      <trkpt lat="37.7719460" lon="-3.9246170">
        <ele>599.8</ele>
        <time>2021-12-27T15:44:39Z</time>
      </trkpt>
      <trkpt lat="37.7719490" lon="-3.9246500">
        <ele>599.8</ele>
        <time>2021-12-27T15:44:40Z</time>
      </trkpt>
      <trkpt lat="37.7719490" lon="-3.9246900">
        <ele>599.8</ele>
        <time>2021-12-27T15:44:41Z</time>
      </trkpt>
      <trkpt lat="37.7719460" lon="-3.9247320">
        <ele>599.8</ele>
        <time>2021-12-27T15:44:42Z</time>
      </trkpt>
      <trkpt lat="37.7719420" lon="-3.9247660">
        <ele>599.8</ele>
        <time>2021-12-27T15:44:43Z</time>
      </trkpt>
      <trkpt lat="37.7719460" lon="-3.9248020">
        <ele>599.8</ele>
        <time>2021-12-27T15:44:44Z</time>
      </trkpt>
      <trkpt lat="37.7719420" lon="-3.9248350">
        <ele>599.8</ele>
        <time>2021-12-27T15:44:45Z</time>
      </trkpt>
      <trkpt lat="37.7719420" lon="-3.9248720">
        <ele>599.8</ele>
        <time>2021-12-27T15:44:46Z</time>
      </trkpt>
      <trkpt lat="37.7719420" lon="-3.9249080">
        <ele>599.6</ele>
        <time>2021-12-27T15:44:47Z</time>
      </trkpt>
      <trkpt lat="37.7719420" lon="-3.9249440">
        <ele>599.8</ele>
        <time>2021-12-27T15:44:48Z</time>
      </trkpt>
      <trkpt lat="37.7719390" lon="-3.9249760">
        <ele>599.6</ele>
        <time>2021-12-27T15:44:49Z</time>
      </trkpt>
      <trkpt lat="37.7719390" lon="-3.9250120">
        <ele>599.6</ele>
        <time>2021-12-27T15:44:50Z</time>
      </trkpt>
      <trkpt lat="37.7719360" lon="-3.9250470">
        <ele>599.6</ele>
        <time>2021-12-27T15:44:51Z</time>
      </trkpt>
      <trkpt lat="37.7719300" lon="-3.9250830">
        <ele>599.6</ele>
        <time>2021-12-27T15:44:52Z</time>
      </trkpt>
      <trkpt lat="37.7719300" lon="-3.9251200">
        <ele>599.6</ele>
        <time>2021-12-27T15:44:53Z</time>
      </trkpt>
      <trkpt lat="37.7719260" lon="-3.9251560">
        <ele>599.6</ele>
        <time>2021-12-27T15:44:54Z</time>
      </trkpt>
      <trkpt lat="37.7719260" lon="-3.9251930">
        <ele>599.6</ele>
        <time>2021-12-27T15:44:55Z</time>
      </trkpt>
      <trkpt lat="37.7719260" lon="-3.9252280">
        <ele>599.6</ele>
        <time>2021-12-27T15:44:56Z</time>
      </trkpt>
      <trkpt lat="37.7719230" lon="-3.9252670">
        <ele>599.6</ele>
        <time>2021-12-27T15:44:57Z</time>
      </trkpt>
      <trkpt lat="37.7719170" lon="-3.9253040">
        <ele>599.6</ele>
        <time>2021-12-27T15:44:58Z</time>
      </trkpt>
      <trkpt lat="37.7719170" lon="-3.9253400">
        <ele>599.6</ele>
        <time>2021-12-27T15:44:59Z</time>
      </trkpt>
      <trkpt lat="37.7719100" lon="-3.9253780">
        <ele>599.6</ele>
        <time>2021-12-27T15:45:00Z</time>
      </trkpt>
      <trkpt lat="37.7719100" lon="-3.9254180">
        <ele>599.6</ele>
        <time>2021-12-27T15:45:01Z</time>
      </trkpt>
      <trkpt lat="37.7719040" lon="-3.9254520">
        <ele>599.6</ele>
        <time>2021-12-27T15:45:02Z</time>
      </trkpt>
      <trkpt lat="37.7719010" lon="-3.9254880">
        <ele>599.6</ele>
        <time>2021-12-27T15:45:03Z</time>
      </trkpt>
      <trkpt lat="37.7718980" lon="-3.9255270">
        <ele>599.6</ele>
        <time>2021-12-27T15:45:04Z</time>
      </trkpt>
      <trkpt lat="37.7718910" lon="-3.9255670">
        <ele>599.6</ele>
        <time>2021-12-27T15:45:05Z</time>
      </trkpt>
      <trkpt lat="37.7718880" lon="-3.9256080">
        <ele>599.6</ele>
        <time>2021-12-27T15:45:06Z</time>
      </trkpt>
      <trkpt lat="37.7718820" lon="-3.9256480">
        <ele>599.6</ele>
        <time>2021-12-27T15:45:07Z</time>
      </trkpt>
      <trkpt lat="37.7718780" lon="-3.9256850">
        <ele>599.6</ele>
        <time>2021-12-27T15:45:08Z</time>
      </trkpt>
      <trkpt lat="37.7718720" lon="-3.9257220">
        <ele>599.6</ele>
        <time>2021-12-27T15:45:09Z</time>
      </trkpt>
      <trkpt lat="37.7718720" lon="-3.9257580">
        <ele>599.6</ele>
        <time>2021-12-27T15:45:10Z</time>
      </trkpt>
      <trkpt lat="37.7718660" lon="-3.9257980">
        <ele>599.6</ele>
        <time>2021-12-27T15:45:11Z</time>
      </trkpt>
      <trkpt lat="37.7718590" lon="-3.9258420">
        <ele>599.4</ele>
        <time>2021-12-27T15:45:12Z</time>
      </trkpt>
      <trkpt lat="37.7718590" lon="-3.9258830">
        <ele>599.4</ele>
        <time>2021-12-27T15:45:13Z</time>
      </trkpt>
      <trkpt lat="37.7718500" lon="-3.9259230">
        <ele>599.4</ele>
        <time>2021-12-27T15:45:14Z</time>
      </trkpt>
      <trkpt lat="37.7718430" lon="-3.9259620">
        <ele>599.4</ele>
        <time>2021-12-27T15:45:15Z</time>
      </trkpt>
      <trkpt lat="37.7718370" lon="-3.9259980">
        <ele>599.4</ele>
        <time>2021-12-27T15:45:16Z</time>
      </trkpt>
      <trkpt lat="37.7718300" lon="-3.9260360">
        <ele>599.2</ele>
        <time>2021-12-27T15:45:17Z</time>
      </trkpt>
      <trkpt lat="37.7718240" lon="-3.9260700">
        <ele>599.2</ele>
        <time>2021-12-27T15:45:18Z</time>
      </trkpt>
      <trkpt lat="37.7718210" lon="-3.9261050">
        <ele>599.2</ele>
        <time>2021-12-27T15:45:19Z</time>
      </trkpt>
      <trkpt lat="37.7718110" lon="-3.9261420">
        <ele>599.2</ele>
        <time>2021-12-27T15:45:20Z</time>
      </trkpt>
      <trkpt lat="37.7718050" lon="-3.9261800">
        <ele>599.2</ele>
        <time>2021-12-27T15:45:21Z</time>
      </trkpt>
      <trkpt lat="37.7717980" lon="-3.9262180">
        <ele>599.4</ele>
        <time>2021-12-27T15:45:22Z</time>
      </trkpt>
      <trkpt lat="37.7717890" lon="-3.9262550">
        <ele>599.4</ele>
        <time>2021-12-27T15:45:23Z</time>
      </trkpt>
      <trkpt lat="37.7717820" lon="-3.9262920">
        <ele>599.4</ele>
        <time>2021-12-27T15:45:24Z</time>
      </trkpt>
      <trkpt lat="37.7717730" lon="-3.9263300">
        <ele>599.4</ele>
        <time>2021-12-27T15:45:25Z</time>
      </trkpt>
      <trkpt lat="37.7717660" lon="-3.9263670">
        <ele>599.6</ele>
        <time>2021-12-27T15:45:26Z</time>
      </trkpt>
      <trkpt lat="37.7717600" lon="-3.9264020">
        <ele>599.6</ele>
        <time>2021-12-27T15:45:27Z</time>
      </trkpt>
      <trkpt lat="37.7717500" lon="-3.9264370">
        <ele>599.6</ele>
        <time>2021-12-27T15:45:28Z</time>
      </trkpt>
      <trkpt lat="37.7717500" lon="-3.9264720">
        <ele>599.8</ele>
        <time>2021-12-27T15:45:29Z</time>
      </trkpt>
      <trkpt lat="37.7717500" lon="-3.9265060">
        <ele>599.8</ele>
        <time>2021-12-27T15:45:30Z</time>
      </trkpt>
      <trkpt lat="37.7717440" lon="-3.9265360">
        <ele>600.0</ele>
        <time>2021-12-27T15:45:31Z</time>
      </trkpt>
      <trkpt lat="37.7717380" lon="-3.9265630">
        <ele>600.0</ele>
        <time>2021-12-27T15:45:32Z</time>
      </trkpt>
      <trkpt lat="37.7717280" lon="-3.9265980">
        <ele>600.0</ele>
        <time>2021-12-27T15:45:33Z</time>
      </trkpt>
      <trkpt lat="37.7717220" lon="-3.9266320">
        <ele>600.0</ele>
        <time>2021-12-27T15:45:34Z</time>
      </trkpt>
      <trkpt lat="37.7717120" lon="-3.9266600">
        <ele>600.0</ele>
        <time>2021-12-27T15:45:35Z</time>
      </trkpt>
      <trkpt lat="37.7717090" lon="-3.9266920">
        <ele>600.0</ele>
        <time>2021-12-27T15:45:36Z</time>
      </trkpt>
      <trkpt lat="37.7717060" lon="-3.9267240">
        <ele>599.8</ele>
        <time>2021-12-27T15:45:37Z</time>
      </trkpt>
      <trkpt lat="37.7717020" lon="-3.9267600">
        <ele>599.8</ele>
        <time>2021-12-27T15:45:38Z</time>
      </trkpt>
      <trkpt lat="37.7716930" lon="-3.9267970">
        <ele>599.8</ele>
        <time>2021-12-27T15:45:39Z</time>
      </trkpt>
      <trkpt lat="37.7716900" lon="-3.9268330">
        <ele>599.8</ele>
        <time>2021-12-27T15:45:40Z</time>
      </trkpt>
      <trkpt lat="37.7716900" lon="-3.9268720">
        <ele>599.8</ele>
        <time>2021-12-27T15:45:41Z</time>
      </trkpt>
      <trkpt lat="37.7716830" lon="-3.9269030">
        <ele>599.8</ele>
        <time>2021-12-27T15:45:42Z</time>
      </trkpt>
      <trkpt lat="37.7716800" lon="-3.9269370">
        <ele>599.8</ele>
        <time>2021-12-27T15:45:43Z</time>
      </trkpt>
      <trkpt lat="37.7716740" lon="-3.9269720">
        <ele>599.8</ele>
        <time>2021-12-27T15:45:44Z</time>
      </trkpt>
      <trkpt lat="37.7716640" lon="-3.9270070">
        <ele>599.8</ele>
        <time>2021-12-27T15:45:45Z</time>
      </trkpt>
      <trkpt lat="37.7716640" lon="-3.9270400">
        <ele>599.8</ele>
        <time>2021-12-27T15:45:46Z</time>
      </trkpt>
      <trkpt lat="37.7716610" lon="-3.9270740">
        <ele>599.8</ele>
        <time>2021-12-27T15:45:47Z</time>
      </trkpt>
      <trkpt lat="37.7716510" lon="-3.9271030">
        <ele>599.8</ele>
        <time>2021-12-27T15:45:48Z</time>
      </trkpt>
      <trkpt lat="37.7716420" lon="-3.9271380">
        <ele>599.6</ele>
        <time>2021-12-27T15:45:49Z</time>
      </trkpt>
      <trkpt lat="37.7716320" lon="-3.9271750">
        <ele>599.6</ele>
        <time>2021-12-27T15:45:50Z</time>
      </trkpt>
      <trkpt lat="37.7716320" lon="-3.9272130">
        <ele>599.6</ele>
        <time>2021-12-27T15:45:51Z</time>
      </trkpt>
      <trkpt lat="37.7716290" lon="-3.9272530">
        <ele>599.4</ele>
        <time>2021-12-27T15:45:52Z</time>
      </trkpt>
      <trkpt lat="37.7716260" lon="-3.9272900">
        <ele>599.4</ele>
        <time>2021-12-27T15:45:53Z</time>
      </trkpt>
      <trkpt lat="37.7716220" lon="-3.9273230">
        <ele>599.4</ele>
        <time>2021-12-27T15:45:54Z</time>
      </trkpt>
      <trkpt lat="37.7716190" lon="-3.9273550">
        <ele>599.4</ele>
        <time>2021-12-27T15:45:55Z</time>
      </trkpt>
      <trkpt lat="37.7716190" lon="-3.9273940">
        <ele>599.4</ele>
        <time>2021-12-27T15:45:56Z</time>
      </trkpt>
      <trkpt lat="37.7716100" lon="-3.9274350">
        <ele>599.4</ele>
        <time>2021-12-27T15:45:57Z</time>
      </trkpt>
      <trkpt lat="37.7716060" lon="-3.9274720">
        <ele>599.4</ele>
        <time>2021-12-27T15:45:58Z</time>
      </trkpt>
      <trkpt lat="37.7716060" lon="-3.9275050">
        <ele>599.6</ele>
        <time>2021-12-27T15:45:59Z</time>
      </trkpt>
      <trkpt lat="37.7716030" lon="-3.9275380">
        <ele>599.6</ele>
        <time>2021-12-27T15:46:00Z</time>
      </trkpt>
      <trkpt lat="37.7715940" lon="-3.9275720">
        <ele>599.6</ele>
        <time>2021-12-27T15:46:01Z</time>
      </trkpt>
      <trkpt lat="37.7715870" lon="-3.9276060">
        <ele>599.6</ele>
        <time>2021-12-27T15:46:02Z</time>
      </trkpt>
      <trkpt lat="37.7715840" lon="-3.9276450">
        <ele>599.6</ele>
        <time>2021-12-27T15:46:03Z</time>
      </trkpt>
      <trkpt lat="37.7715740" lon="-3.9276830">
        <ele>599.6</ele>
        <time>2021-12-27T15:46:04Z</time>
      </trkpt>
      <trkpt lat="37.7715710" lon="-3.9277220">
        <ele>599.6</ele>
        <time>2021-12-27T15:46:05Z</time>
      </trkpt>
      <trkpt lat="37.7715680" lon="-3.9277640">
        <ele>599.6</ele>
        <time>2021-12-27T15:46:06Z</time>
      </trkpt>
      <trkpt lat="37.7715620" lon="-3.9278050">
        <ele>599.4</ele>
        <time>2021-12-27T15:46:07Z</time>
      </trkpt>
      <trkpt lat="37.7715520" lon="-3.9278480">
        <ele>599.4</ele>
        <time>2021-12-27T15:46:08Z</time>
      </trkpt>
      <trkpt lat="37.7715420" lon="-3.9278900">
        <ele>599.4</ele>
        <time>2021-12-27T15:46:09Z</time>
      </trkpt>
      <trkpt lat="37.7715390" lon="-3.9279320">
        <ele>599.4</ele>
        <time>2021-12-27T15:46:10Z</time>
      </trkpt>
      <trkpt lat="37.7715300" lon="-3.9279650">
        <ele>599.4</ele>
        <time>2021-12-27T15:46:11Z</time>
      </trkpt>
      <trkpt lat="37.7715230" lon="-3.9280120">
        <ele>599.4</ele>
        <time>2021-12-27T15:46:12Z</time>
      </trkpt>
      <trkpt lat="37.7715200" lon="-3.9280520">
        <ele>599.4</ele>
        <time>2021-12-27T15:46:13Z</time>
      </trkpt>
      <trkpt lat="37.7715100" lon="-3.9280920">
        <ele>599.4</ele>
        <time>2021-12-27T15:46:14Z</time>
      </trkpt>
      <trkpt lat="37.7715040" lon="-3.9281300">
        <ele>599.4</ele>
        <time>2021-12-27T15:46:15Z</time>
      </trkpt>
      <trkpt lat="37.7715010" lon="-3.9281700">
        <ele>599.4</ele>
        <time>2021-12-27T15:46:16Z</time>
      </trkpt>
      <trkpt lat="37.7714940" lon="-3.9282080">
        <ele>599.4</ele>
        <time>2021-12-27T15:46:17Z</time>
      </trkpt>
      <trkpt lat="37.7714940" lon="-3.9282470">
        <ele>599.4</ele>
        <time>2021-12-27T15:46:18Z</time>
      </trkpt>
      <trkpt lat="37.7714910" lon="-3.9282860">
        <ele>599.4</ele>
        <time>2021-12-27T15:46:19Z</time>
      </trkpt>
      <trkpt lat="37.7714880" lon="-3.9283230">
        <ele>599.4</ele>
        <time>2021-12-27T15:46:20Z</time>
      </trkpt>
      <trkpt lat="37.7714820" lon="-3.9283620">
        <ele>599.4</ele>
        <time>2021-12-27T15:46:21Z</time>
      </trkpt>
      <trkpt lat="37.7714750" lon="-3.9284020">
        <ele>599.4</ele>
        <time>2021-12-27T15:46:22Z</time>
      </trkpt>
      <trkpt lat="37.7714750" lon="-3.9284420">
        <ele>599.4</ele>
        <time>2021-12-27T15:46:23Z</time>
      </trkpt>
      <trkpt lat="37.7714720" lon="-3.9284850">
        <ele>599.4</ele>
        <time>2021-12-27T15:46:24Z</time>
      </trkpt>
      <trkpt lat="37.7714720" lon="-3.9285270">
        <ele>599.4</ele>
        <time>2021-12-27T15:46:25Z</time>
      </trkpt>
      <trkpt lat="37.7714720" lon="-3.9285670">
        <ele>599.4</ele>
        <time>2021-12-27T15:46:26Z</time>
      </trkpt>
      <trkpt lat="37.7714690" lon="-3.9286050">
        <ele>599.4</ele>
        <time>2021-12-27T15:46:27Z</time>
      </trkpt>
      <trkpt lat="37.7714660" lon="-3.9286450">
        <ele>599.4</ele>
        <time>2021-12-27T15:46:28Z</time>
      </trkpt>
      <trkpt lat="37.7714620" lon="-3.9286880">
        <ele>599.4</ele>
        <time>2021-12-27T15:46:29Z</time>
      </trkpt>
      <trkpt lat="37.7714620" lon="-3.9286880">
        <ele>599.2</ele>
        <time>2021-12-27T15:46:30Z</time>
      </trkpt>
      <trkpt lat="37.7714620" lon="-3.9287850">
        <ele>599.2</ele>
        <time>2021-12-27T15:46:31Z</time>
      </trkpt>
      <trkpt lat="37.7714620" lon="-3.9288040">
        <ele>599.2</ele>
        <time>2021-12-27T15:46:32Z</time>
      </trkpt>
      <trkpt lat="37.7714620" lon="-3.9288380">
        <ele>599.2</ele>
        <time>2021-12-27T15:46:33Z</time>
      </trkpt>
      <trkpt lat="37.7714590" lon="-3.9288720">
        <ele>599.2</ele>
        <time>2021-12-27T15:46:34Z</time>
      </trkpt>
      <trkpt lat="37.7714530" lon="-3.9289080">
        <ele>599.2</ele>
        <time>2021-12-27T15:46:35Z</time>
      </trkpt>
      <trkpt lat="37.7714500" lon="-3.9289480">
        <ele>599.2</ele>
        <time>2021-12-27T15:46:36Z</time>
      </trkpt>
      <trkpt lat="37.7714500" lon="-3.9289860">
        <ele>599.2</ele>
        <time>2021-12-27T15:46:37Z</time>
      </trkpt>
      <trkpt lat="37.7714460" lon="-3.9290230">
        <ele>599.2</ele>
        <time>2021-12-27T15:46:38Z</time>
      </trkpt>
      <trkpt lat="37.7714460" lon="-3.9290600">
        <ele>599.2</ele>
        <time>2021-12-27T15:46:39Z</time>
      </trkpt>
      <trkpt lat="37.7714430" lon="-3.9291020">
        <ele>599.4</ele>
        <time>2021-12-27T15:46:40Z</time>
      </trkpt>
      <trkpt lat="37.7714430" lon="-3.9291420">
        <ele>599.4</ele>
        <time>2021-12-27T15:46:41Z</time>
      </trkpt>
      <trkpt lat="37.7714460" lon="-3.9291850">
        <ele>599.4</ele>
        <time>2021-12-27T15:46:42Z</time>
      </trkpt>
      <trkpt lat="37.7714460" lon="-3.9292180">
        <ele>599.4</ele>
        <time>2021-12-27T15:46:43Z</time>
      </trkpt>
      <trkpt lat="37.7714460" lon="-3.9292580">
        <ele>599.4</ele>
        <time>2021-12-27T15:46:44Z</time>
      </trkpt>
      <trkpt lat="37.7714460" lon="-3.9293040">
        <ele>599.4</ele>
        <time>2021-12-27T15:46:45Z</time>
      </trkpt>
      <trkpt lat="37.7714460" lon="-3.9293360">
        <ele>599.4</ele>
        <time>2021-12-27T15:46:46Z</time>
      </trkpt>
      <trkpt lat="37.7714460" lon="-3.9293650">
        <ele>599.4</ele>
        <time>2021-12-27T15:46:47Z</time>
      </trkpt>
      <trkpt lat="37.7714460" lon="-3.9293650">
        <ele>599.4</ele>
        <time>2021-12-27T15:46:48Z</time>
      </trkpt>
      <trkpt lat="37.7714430" lon="-3.9294180">
        <ele>599.4</ele>
        <time>2021-12-27T15:46:49Z</time>
      </trkpt>
      <trkpt lat="37.7714430" lon="-3.9294180">
        <ele>599.2</ele>
        <time>2021-12-27T15:46:50Z</time>
      </trkpt>
      <trkpt lat="37.7714500" lon="-3.9294600">
        <ele>599.2</ele>
        <time>2021-12-27T15:46:51Z</time>
      </trkpt>
      <trkpt lat="37.7714500" lon="-3.9294600">
        <ele>599.4</ele>
        <time>2021-12-27T15:46:52Z</time>
      </trkpt>
      <trkpt lat="37.7714460" lon="-3.9295050">
        <ele>599.4</ele>
        <time>2021-12-27T15:46:53Z</time>
      </trkpt>
      <trkpt lat="37.7714430" lon="-3.9295320">
        <ele>599.4</ele>
        <time>2021-12-27T15:46:54Z</time>
      </trkpt>
      <trkpt lat="37.7714430" lon="-3.9295600">
        <ele>599.4</ele>
        <time>2021-12-27T15:46:55Z</time>
      </trkpt>
      <trkpt lat="37.7714460" lon="-3.9295920">
        <ele>599.4</ele>
        <time>2021-12-27T15:46:56Z</time>
      </trkpt>
      <trkpt lat="37.7714500" lon="-3.9296250">
        <ele>599.6</ele>
        <time>2021-12-27T15:46:57Z</time>
      </trkpt>
      <trkpt lat="37.7714500" lon="-3.9296580">
        <ele>599.6</ele>
        <time>2021-12-27T15:46:58Z</time>
      </trkpt>
      <trkpt lat="37.7714530" lon="-3.9296950">
        <ele>599.6</ele>
        <time>2021-12-27T15:46:59Z</time>
      </trkpt>
      <trkpt lat="37.7714530" lon="-3.9297280">
        <ele>599.6</ele>
        <time>2021-12-27T15:47:00Z</time>
      </trkpt>
      <trkpt lat="37.7714590" lon="-3.9297630">
        <ele>599.8</ele>
        <time>2021-12-27T15:47:01Z</time>
      </trkpt>
      <trkpt lat="37.7714590" lon="-3.9297980">
        <ele>599.8</ele>
        <time>2021-12-27T15:47:02Z</time>
      </trkpt>
      <trkpt lat="37.7714590" lon="-3.9298340">
        <ele>599.8</ele>
        <time>2021-12-27T15:47:03Z</time>
      </trkpt>
      <trkpt lat="37.7714620" lon="-3.9298700">
        <ele>599.8</ele>
        <time>2021-12-27T15:47:04Z</time>
      </trkpt>
      <trkpt lat="37.7714620" lon="-3.9299100">
        <ele>600.0</ele>
        <time>2021-12-27T15:47:05Z</time>
      </trkpt>
      <trkpt lat="37.7714660" lon="-3.9299500">
        <ele>600.0</ele>
        <time>2021-12-27T15:47:06Z</time>
      </trkpt>
      <trkpt lat="37.7714690" lon="-3.9299870">
        <ele>600.0</ele>
        <time>2021-12-27T15:47:07Z</time>
      </trkpt>
      <trkpt lat="37.7714720" lon="-3.9300260">
        <ele>600.0</ele>
        <time>2021-12-27T15:47:08Z</time>
      </trkpt>
      <trkpt lat="37.7714720" lon="-3.9300650">
        <ele>600.0</ele>
        <time>2021-12-27T15:47:09Z</time>
      </trkpt>
      <trkpt lat="37.7714750" lon="-3.9301030">
        <ele>600.0</ele>
        <time>2021-12-27T15:47:10Z</time>
      </trkpt>
      <trkpt lat="37.7714750" lon="-3.9301430">
        <ele>600.0</ele>
        <time>2021-12-27T15:47:11Z</time>
      </trkpt>
      <trkpt lat="37.7714820" lon="-3.9301820">
        <ele>600.0</ele>
        <time>2021-12-27T15:47:12Z</time>
      </trkpt>
      <trkpt lat="37.7714820" lon="-3.9302200">
        <ele>600.2</ele>
        <time>2021-12-27T15:47:13Z</time>
      </trkpt>
      <trkpt lat="37.7714880" lon="-3.9302550">
        <ele>600.2</ele>
        <time>2021-12-27T15:47:14Z</time>
      </trkpt>
      <trkpt lat="37.7714910" lon="-3.9302900">
        <ele>600.2</ele>
        <time>2021-12-27T15:47:15Z</time>
      </trkpt>
      <trkpt lat="37.7715010" lon="-3.9303220">
        <ele>600.2</ele>
        <time>2021-12-27T15:47:16Z</time>
      </trkpt>
      <trkpt lat="37.7715070" lon="-3.9303540">
        <ele>600.2</ele>
        <time>2021-12-27T15:47:17Z</time>
      </trkpt>
      <trkpt lat="37.7715140" lon="-3.9303880">
        <ele>600.0</ele>
        <time>2021-12-27T15:47:18Z</time>
      </trkpt>
      <trkpt lat="37.7715200" lon="-3.9304260">
        <ele>600.0</ele>
        <time>2021-12-27T15:47:19Z</time>
      </trkpt>
      <trkpt lat="37.7715230" lon="-3.9304630">
        <ele>599.8</ele>
        <time>2021-12-27T15:47:20Z</time>
      </trkpt>
      <trkpt lat="37.7715260" lon="-3.9305000">
        <ele>599.8</ele>
        <time>2021-12-27T15:47:21Z</time>
      </trkpt>
      <trkpt lat="37.7715300" lon="-3.9305370">
        <ele>599.8</ele>
        <time>2021-12-27T15:47:22Z</time>
      </trkpt>
      <trkpt lat="37.7715300" lon="-3.9305700">
        <ele>599.8</ele>
        <time>2021-12-27T15:47:23Z</time>
      </trkpt>
      <trkpt lat="37.7715300" lon="-3.9306070">
        <ele>599.6</ele>
        <time>2021-12-27T15:47:24Z</time>
      </trkpt>
      <trkpt lat="37.7715330" lon="-3.9306430">
        <ele>599.6</ele>
        <time>2021-12-27T15:47:25Z</time>
      </trkpt>
      <trkpt lat="37.7715390" lon="-3.9306780">
        <ele>599.6</ele>
        <time>2021-12-27T15:47:26Z</time>
      </trkpt>
      <trkpt lat="37.7715390" lon="-3.9307120">
        <ele>599.6</ele>
        <time>2021-12-27T15:47:27Z</time>
      </trkpt>
      <trkpt lat="37.7715420" lon="-3.9307460">
        <ele>599.6</ele>
        <time>2021-12-27T15:47:28Z</time>
      </trkpt>
      <trkpt lat="37.7715420" lon="-3.9307830">
        <ele>599.4</ele>
        <time>2021-12-27T15:47:29Z</time>
      </trkpt>
      <trkpt lat="37.7715420" lon="-3.9308180">
        <ele>599.4</ele>
        <time>2021-12-27T15:47:30Z</time>
      </trkpt>
      <trkpt lat="37.7715420" lon="-3.9308530">
        <ele>599.4</ele>
        <time>2021-12-27T15:47:31Z</time>
      </trkpt>
      <trkpt lat="37.7715420" lon="-3.9308900">
        <ele>599.4</ele>
        <time>2021-12-27T15:47:32Z</time>
      </trkpt>
      <trkpt lat="37.7715420" lon="-3.9309320">
        <ele>599.4</ele>
        <time>2021-12-27T15:47:33Z</time>
      </trkpt>
      <trkpt lat="37.7715390" lon="-3.9309720">
        <ele>599.4</ele>
        <time>2021-12-27T15:47:34Z</time>
      </trkpt>
      <trkpt lat="37.7715420" lon="-3.9310120">
        <ele>599.4</ele>
        <time>2021-12-27T15:47:35Z</time>
      </trkpt>
      <trkpt lat="37.7715330" lon="-3.9310540">
        <ele>599.2</ele>
        <time>2021-12-27T15:47:36Z</time>
      </trkpt>
      <trkpt lat="37.7715330" lon="-3.9310930">
        <ele>599.2</ele>
        <time>2021-12-27T15:47:37Z</time>
      </trkpt>
      <trkpt lat="37.7715300" lon="-3.9311350">
        <ele>599.2</ele>
        <time>2021-12-27T15:47:38Z</time>
      </trkpt>
      <trkpt lat="37.7715260" lon="-3.9311770">
        <ele>599.2</ele>
        <time>2021-12-27T15:47:39Z</time>
      </trkpt>
      <trkpt lat="37.7715230" lon="-3.9312180">
        <ele>599.2</ele>
        <time>2021-12-27T15:47:40Z</time>
      </trkpt>
      <trkpt lat="37.7715200" lon="-3.9312600">
        <ele>599.2</ele>
        <time>2021-12-27T15:47:41Z</time>
      </trkpt>
      <trkpt lat="37.7715140" lon="-3.9312980">
        <ele>599.2</ele>
        <time>2021-12-27T15:47:42Z</time>
      </trkpt>
      <trkpt lat="37.7715070" lon="-3.9313370">
        <ele>599.2</ele>
        <time>2021-12-27T15:47:43Z</time>
      </trkpt>
      <trkpt lat="37.7715040" lon="-3.9313780">
        <ele>599.2</ele>
        <time>2021-12-27T15:47:44Z</time>
      </trkpt>
      <trkpt lat="37.7714940" lon="-3.9314150">
        <ele>599.2</ele>
        <time>2021-12-27T15:47:45Z</time>
      </trkpt>
      <trkpt lat="37.7714910" lon="-3.9314530">
        <ele>599.2</ele>
        <time>2021-12-27T15:47:46Z</time>
      </trkpt>
      <trkpt lat="37.7714910" lon="-3.9314920">
        <ele>599.2</ele>
        <time>2021-12-27T15:47:47Z</time>
      </trkpt>
      <trkpt lat="37.7714880" lon="-3.9315320">
        <ele>599.0</ele>
        <time>2021-12-27T15:47:48Z</time>
      </trkpt>
      <trkpt lat="37.7714880" lon="-3.9315670">
        <ele>599.2</ele>
        <time>2021-12-27T15:47:49Z</time>
      </trkpt>
      <trkpt lat="37.7714820" lon="-3.9316000">
        <ele>599.0</ele>
        <time>2021-12-27T15:47:50Z</time>
      </trkpt>
      <trkpt lat="37.7714750" lon="-3.9316320">
        <ele>599.0</ele>
        <time>2021-12-27T15:47:51Z</time>
      </trkpt>
      <trkpt lat="37.7714690" lon="-3.9316650">
        <ele>599.0</ele>
        <time>2021-12-27T15:47:52Z</time>
      </trkpt>
      <trkpt lat="37.7714620" lon="-3.9317000">
        <ele>598.8</ele>
        <time>2021-12-27T15:47:53Z</time>
      </trkpt>
      <trkpt lat="37.7714590" lon="-3.9317370">
        <ele>598.8</ele>
        <time>2021-12-27T15:47:54Z</time>
      </trkpt>
      <trkpt lat="37.7714500" lon="-3.9317720">
        <ele>598.6</ele>
        <time>2021-12-27T15:47:55Z</time>
      </trkpt>
      <trkpt lat="37.7714400" lon="-3.9318060">
        <ele>598.6</ele>
        <time>2021-12-27T15:47:56Z</time>
      </trkpt>
      <trkpt lat="37.7714300" lon="-3.9318400">
        <ele>598.6</ele>
        <time>2021-12-27T15:47:57Z</time>
      </trkpt>
      <trkpt lat="37.7714240" lon="-3.9318720">
        <ele>598.4</ele>
        <time>2021-12-27T15:47:58Z</time>
      </trkpt>
      <trkpt lat="37.7714140" lon="-3.9319050">
        <ele>598.4</ele>
        <time>2021-12-27T15:47:59Z</time>
      </trkpt>
      <trkpt lat="37.7714080" lon="-3.9319400">
        <ele>598.4</ele>
        <time>2021-12-27T15:48:00Z</time>
      </trkpt>
      <trkpt lat="37.7714020" lon="-3.9319740">
        <ele>598.4</ele>
        <time>2021-12-27T15:48:01Z</time>
      </trkpt>
      <trkpt lat="37.7713950" lon="-3.9320050">
        <ele>598.4</ele>
        <time>2021-12-27T15:48:02Z</time>
      </trkpt>
      <trkpt lat="37.7713860" lon="-3.9320400">
        <ele>598.4</ele>
        <time>2021-12-27T15:48:03Z</time>
      </trkpt>
      <trkpt lat="37.7713760" lon="-3.9320730">
        <ele>598.4</ele>
        <time>2021-12-27T15:48:04Z</time>
      </trkpt>
      <trkpt lat="37.7713700" lon="-3.9321050">
        <ele>598.4</ele>
        <time>2021-12-27T15:48:05Z</time>
      </trkpt>
      <trkpt lat="37.7713600" lon="-3.9321360">
        <ele>598.4</ele>
        <time>2021-12-27T15:48:06Z</time>
      </trkpt>
      <trkpt lat="37.7713500" lon="-3.9321680">
        <ele>598.4</ele>
        <time>2021-12-27T15:48:07Z</time>
      </trkpt>
      <trkpt lat="37.7713440" lon="-3.9322030">
        <ele>598.4</ele>
        <time>2021-12-27T15:48:08Z</time>
      </trkpt>
      <trkpt lat="37.7713340" lon="-3.9322400">
        <ele>598.4</ele>
        <time>2021-12-27T15:48:09Z</time>
      </trkpt>
      <trkpt lat="37.7713310" lon="-3.9322730">
        <ele>598.4</ele>
        <time>2021-12-27T15:48:10Z</time>
      </trkpt>
      <trkpt lat="37.7713280" lon="-3.9323100">
        <ele>598.4</ele>
        <time>2021-12-27T15:48:11Z</time>
      </trkpt>
      <trkpt lat="37.7713220" lon="-3.9323430">
        <ele>598.2</ele>
        <time>2021-12-27T15:48:12Z</time>
      </trkpt>
      <trkpt lat="37.7713120" lon="-3.9323770">
        <ele>598.2</ele>
        <time>2021-12-27T15:48:13Z</time>
      </trkpt>
      <trkpt lat="37.7713060" lon="-3.9324100">
        <ele>598.2</ele>
        <time>2021-12-27T15:48:14Z</time>
      </trkpt>
      <trkpt lat="37.7713020" lon="-3.9324400">
        <ele>598.0</ele>
        <time>2021-12-27T15:48:15Z</time>
      </trkpt>
      <trkpt lat="37.7712930" lon="-3.9324720">
        <ele>598.0</ele>
        <time>2021-12-27T15:48:16Z</time>
      </trkpt>
      <trkpt lat="37.7712900" lon="-3.9325020">
        <ele>598.0</ele>
        <time>2021-12-27T15:48:17Z</time>
      </trkpt>
      <trkpt lat="37.7712830" lon="-3.9325330">
        <ele>597.8</ele>
        <time>2021-12-27T15:48:18Z</time>
      </trkpt>
      <trkpt lat="37.7712740" lon="-3.9325670">
        <ele>597.8</ele>
        <time>2021-12-27T15:48:19Z</time>
      </trkpt>
      <trkpt lat="37.7712670" lon="-3.9326020">
        <ele>597.6</ele>
        <time>2021-12-27T15:48:20Z</time>
      </trkpt>
      <trkpt lat="37.7712610" lon="-3.9326380">
        <ele>597.6</ele>
        <time>2021-12-27T15:48:21Z</time>
      </trkpt>
      <trkpt lat="37.7712510" lon="-3.9326720">
        <ele>597.6</ele>
        <time>2021-12-27T15:48:22Z</time>
      </trkpt>
      <trkpt lat="37.7712450" lon="-3.9327000">
        <ele>597.8</ele>
        <time>2021-12-27T15:48:23Z</time>
      </trkpt>
      <trkpt lat="37.7712320" lon="-3.9327280">
        <ele>597.8</ele>
        <time>2021-12-27T15:48:24Z</time>
      </trkpt>
      <trkpt lat="37.7712260" lon="-3.9327570">
        <ele>597.8</ele>
        <time>2021-12-27T15:48:25Z</time>
      </trkpt>
      <trkpt lat="37.7712130" lon="-3.9327880">
        <ele>597.8</ele>
        <time>2021-12-27T15:48:26Z</time>
      </trkpt>
      <trkpt lat="37.7712100" lon="-3.9328220">
        <ele>597.8</ele>
        <time>2021-12-27T15:48:27Z</time>
      </trkpt>
      <trkpt lat="37.7711970" lon="-3.9328530">
        <ele>597.8</ele>
        <time>2021-12-27T15:48:28Z</time>
      </trkpt>
      <trkpt lat="37.7711900" lon="-3.9328830">
        <ele>597.8</ele>
        <time>2021-12-27T15:48:29Z</time>
      </trkpt>
      <trkpt lat="37.7711870" lon="-3.9329100">
        <ele>597.8</ele>
        <time>2021-12-27T15:48:30Z</time>
      </trkpt>
      <trkpt lat="37.7711780" lon="-3.9329330">
        <ele>598.0</ele>
        <time>2021-12-27T15:48:31Z</time>
      </trkpt>
      <trkpt lat="37.7711780" lon="-3.9329330">
        <ele>598.0</ele>
        <time>2021-12-27T15:48:32Z</time>
      </trkpt>
      <trkpt lat="37.7711680" lon="-3.9329730">
        <ele>598.0</ele>
        <time>2021-12-27T15:48:33Z</time>
      </trkpt>
      <trkpt lat="37.7711620" lon="-3.9329980">
        <ele>598.0</ele>
        <time>2021-12-27T15:48:34Z</time>
      </trkpt>
      <trkpt lat="37.7711550" lon="-3.9330220">
        <ele>598.2</ele>
        <time>2021-12-27T15:48:35Z</time>
      </trkpt>
      <trkpt lat="37.7711460" lon="-3.9330480">
        <ele>598.2</ele>
        <time>2021-12-27T15:48:36Z</time>
      </trkpt>
      <trkpt lat="37.7711420" lon="-3.9330770">
        <ele>598.2</ele>
        <time>2021-12-27T15:48:37Z</time>
      </trkpt>
      <trkpt lat="37.7711330" lon="-3.9331030">
        <ele>598.2</ele>
        <time>2021-12-27T15:48:38Z</time>
      </trkpt>
      <trkpt lat="37.7711260" lon="-3.9331300">
        <ele>598.2</ele>
        <time>2021-12-27T15:48:39Z</time>
      </trkpt>
      <trkpt lat="37.7711170" lon="-3.9331580">
        <ele>598.2</ele>
        <time>2021-12-27T15:48:40Z</time>
      </trkpt>
      <trkpt lat="37.7711140" lon="-3.9331860">
        <ele>598.2</ele>
        <time>2021-12-27T15:48:41Z</time>
      </trkpt>
      <trkpt lat="37.7711070" lon="-3.9332130">
        <ele>598.2</ele>
        <time>2021-12-27T15:48:42Z</time>
      </trkpt>
      <trkpt lat="37.7711040" lon="-3.9332380">
        <ele>598.2</ele>
        <time>2021-12-27T15:48:43Z</time>
      </trkpt>
      <trkpt lat="37.7710940" lon="-3.9332650">
        <ele>598.2</ele>
        <time>2021-12-27T15:48:44Z</time>
      </trkpt>
      <trkpt lat="37.7710880" lon="-3.9332930">
        <ele>598.2</ele>
        <time>2021-12-27T15:48:45Z</time>
      </trkpt>
      <trkpt lat="37.7710820" lon="-3.9333220">
        <ele>598.2</ele>
        <time>2021-12-27T15:48:46Z</time>
      </trkpt>
      <trkpt lat="37.7710690" lon="-3.9333520">
        <ele>598.4</ele>
        <time>2021-12-27T15:48:47Z</time>
      </trkpt>
      <trkpt lat="37.7710620" lon="-3.9333840">
        <ele>598.4</ele>
        <time>2021-12-27T15:48:48Z</time>
      </trkpt>
      <trkpt lat="37.7710530" lon="-3.9334170">
        <ele>598.4</ele>
        <time>2021-12-27T15:48:49Z</time>
      </trkpt>
      <trkpt lat="37.7710460" lon="-3.9334500">
        <ele>598.4</ele>
        <time>2021-12-27T15:48:50Z</time>
      </trkpt>
      <trkpt lat="37.7710430" lon="-3.9334820">
        <ele>598.4</ele>
        <time>2021-12-27T15:48:51Z</time>
      </trkpt>
      <trkpt lat="37.7710300" lon="-3.9335100">
        <ele>598.4</ele>
        <time>2021-12-27T15:48:52Z</time>
      </trkpt>
      <trkpt lat="37.7710240" lon="-3.9335400">
        <ele>598.4</ele>
        <time>2021-12-27T15:48:53Z</time>
      </trkpt>
      <trkpt lat="37.7710140" lon="-3.9335720">
        <ele>598.4</ele>
        <time>2021-12-27T15:48:54Z</time>
      </trkpt>
      <trkpt lat="37.7710080" lon="-3.9336020">
        <ele>598.4</ele>
        <time>2021-12-27T15:48:55Z</time>
      </trkpt>
      <trkpt lat="37.7709980" lon="-3.9336320">
        <ele>598.6</ele>
        <time>2021-12-27T15:48:56Z</time>
      </trkpt>
      <trkpt lat="37.7709920" lon="-3.9336580">
        <ele>598.6</ele>
        <time>2021-12-27T15:48:57Z</time>
      </trkpt>
      <trkpt lat="37.7709860" lon="-3.9336950">
        <ele>598.8</ele>
        <time>2021-12-27T15:48:58Z</time>
      </trkpt>
      <trkpt lat="37.7709730" lon="-3.9337250">
        <ele>598.8</ele>
        <time>2021-12-27T15:48:59Z</time>
      </trkpt>
      <trkpt lat="37.7709660" lon="-3.9337560">
        <ele>599.0</ele>
        <time>2021-12-27T15:49:00Z</time>
      </trkpt>
      <trkpt lat="37.7709570" lon="-3.9337870">
        <ele>599.0</ele>
        <time>2021-12-27T15:49:01Z</time>
      </trkpt>
      <trkpt lat="37.7709470" lon="-3.9338170">
        <ele>599.2</ele>
        <time>2021-12-27T15:49:02Z</time>
      </trkpt>
      <trkpt lat="37.7709380" lon="-3.9338470">
        <ele>599.2</ele>
        <time>2021-12-27T15:49:03Z</time>
      </trkpt>
      <trkpt lat="37.7709310" lon="-3.9338820">
        <ele>599.2</ele>
        <time>2021-12-27T15:49:04Z</time>
      </trkpt>
      <trkpt lat="37.7709180" lon="-3.9339150">
        <ele>599.4</ele>
        <time>2021-12-27T15:49:05Z</time>
      </trkpt>
      <trkpt lat="37.7709090" lon="-3.9339480">
        <ele>599.4</ele>
        <time>2021-12-27T15:49:06Z</time>
      </trkpt>
      <trkpt lat="37.7708990" lon="-3.9339800">
        <ele>599.6</ele>
        <time>2021-12-27T15:49:07Z</time>
      </trkpt>
      <trkpt lat="37.7708900" lon="-3.9340130">
        <ele>599.8</ele>
        <time>2021-12-27T15:49:08Z</time>
      </trkpt>
      <trkpt lat="37.7708830" lon="-3.9340450">
        <ele>600.0</ele>
        <time>2021-12-27T15:49:09Z</time>
      </trkpt>
      <trkpt lat="37.7708700" lon="-3.9340770">
        <ele>600.2</ele>
        <time>2021-12-27T15:49:10Z</time>
      </trkpt>
      <trkpt lat="37.7708640" lon="-3.9341080">
        <ele>600.4</ele>
        <time>2021-12-27T15:49:11Z</time>
      </trkpt>
      <trkpt lat="37.7708540" lon="-3.9341420">
        <ele>600.6</ele>
        <time>2021-12-27T15:49:12Z</time>
      </trkpt>
      <trkpt lat="37.7708450" lon="-3.9341770">
        <ele>600.8</ele>
        <time>2021-12-27T15:49:13Z</time>
      </trkpt>
      <trkpt lat="37.7708350" lon="-3.9342070">
        <ele>600.8</ele>
        <time>2021-12-27T15:49:14Z</time>
      </trkpt>
      <trkpt lat="37.7708290" lon="-3.9342360">
        <ele>601.0</ele>
        <time>2021-12-27T15:49:15Z</time>
      </trkpt>
      <trkpt lat="37.7708160" lon="-3.9342660">
        <ele>601.2</ele>
        <time>2021-12-27T15:49:16Z</time>
      </trkpt>
      <trkpt lat="37.7708100" lon="-3.9343000">
        <ele>601.2</ele>
        <time>2021-12-27T15:49:17Z</time>
      </trkpt>
      <trkpt lat="37.7708000" lon="-3.9343320">
        <ele>601.4</ele>
        <time>2021-12-27T15:49:18Z</time>
      </trkpt>
      <trkpt lat="37.7707900" lon="-3.9343620">
        <ele>601.4</ele>
        <time>2021-12-27T15:49:19Z</time>
      </trkpt>
      <trkpt lat="37.7707840" lon="-3.9343940">
        <ele>601.6</ele>
        <time>2021-12-27T15:49:20Z</time>
      </trkpt>
      <trkpt lat="37.7707740" lon="-3.9344220">
        <ele>601.6</ele>
        <time>2021-12-27T15:49:21Z</time>
      </trkpt>
      <trkpt lat="37.7707650" lon="-3.9344520">
        <ele>601.8</ele>
        <time>2021-12-27T15:49:22Z</time>
      </trkpt>
      <trkpt lat="37.7707550" lon="-3.9344820">
        <ele>601.8</ele>
        <time>2021-12-27T15:49:23Z</time>
      </trkpt>
      <trkpt lat="37.7707490" lon="-3.9345170">
        <ele>601.8</ele>
        <time>2021-12-27T15:49:24Z</time>
      </trkpt>
      <trkpt lat="37.7707390" lon="-3.9345480">
        <ele>601.8</ele>
        <time>2021-12-27T15:49:25Z</time>
      </trkpt>
      <trkpt lat="37.7707360" lon="-3.9345820">
        <ele>601.8</ele>
        <time>2021-12-27T15:49:26Z</time>
      </trkpt>
      <trkpt lat="37.7707300" lon="-3.9346130">
        <ele>601.8</ele>
        <time>2021-12-27T15:49:27Z</time>
      </trkpt>
      <trkpt lat="37.7707200" lon="-3.9346420">
        <ele>602.0</ele>
        <time>2021-12-27T15:49:28Z</time>
      </trkpt>
      <trkpt lat="37.7707140" lon="-3.9346700">
        <ele>602.0</ele>
        <time>2021-12-27T15:49:29Z</time>
      </trkpt>
      <trkpt lat="37.7707070" lon="-3.9347020">
        <ele>602.0</ele>
        <time>2021-12-27T15:49:30Z</time>
      </trkpt>
      <trkpt lat="37.7706980" lon="-3.9347330">
        <ele>602.0</ele>
        <time>2021-12-27T15:49:31Z</time>
      </trkpt>
      <trkpt lat="37.7706910" lon="-3.9347650">
        <ele>602.0</ele>
        <time>2021-12-27T15:49:32Z</time>
      </trkpt>
      <trkpt lat="37.7706850" lon="-3.9347970">
        <ele>602.0</ele>
        <time>2021-12-27T15:49:33Z</time>
      </trkpt>
      <trkpt lat="37.7706780" lon="-3.9348270">
        <ele>602.2</ele>
        <time>2021-12-27T15:49:34Z</time>
      </trkpt>
      <trkpt lat="37.7706750" lon="-3.9348580">
        <ele>602.0</ele>
        <time>2021-12-27T15:49:35Z</time>
      </trkpt>
      <trkpt lat="37.7706690" lon="-3.9348920">
        <ele>602.0</ele>
        <time>2021-12-27T15:49:36Z</time>
      </trkpt>
      <trkpt lat="37.7706590" lon="-3.9349240">
        <ele>602.0</ele>
        <time>2021-12-27T15:49:37Z</time>
      </trkpt>
      <trkpt lat="37.7706530" lon="-3.9349550">
        <ele>602.0</ele>
        <time>2021-12-27T15:49:38Z</time>
      </trkpt>
      <trkpt lat="37.7706460" lon="-3.9349850">
        <ele>602.0</ele>
        <time>2021-12-27T15:49:39Z</time>
      </trkpt>
      <trkpt lat="37.7706370" lon="-3.9350200">
        <ele>602.0</ele>
        <time>2021-12-27T15:49:40Z</time>
      </trkpt>
      <trkpt lat="37.7706270" lon="-3.9350550">
        <ele>602.0</ele>
        <time>2021-12-27T15:49:41Z</time>
      </trkpt>
      <trkpt lat="37.7706180" lon="-3.9350920">
        <ele>602.0</ele>
        <time>2021-12-27T15:49:42Z</time>
      </trkpt>
      <trkpt lat="37.7706110" lon="-3.9351270">
        <ele>602.2</ele>
        <time>2021-12-27T15:49:43Z</time>
      </trkpt>
      <trkpt lat="37.7706020" lon="-3.9351620">
        <ele>602.2</ele>
        <time>2021-12-27T15:49:44Z</time>
      </trkpt>
      <trkpt lat="37.7705980" lon="-3.9351950">
        <ele>602.4</ele>
        <time>2021-12-27T15:49:45Z</time>
      </trkpt>
      <trkpt lat="37.7705920" lon="-3.9352270">
        <ele>602.4</ele>
        <time>2021-12-27T15:49:46Z</time>
      </trkpt>
      <trkpt lat="37.7705890" lon="-3.9352580">
        <ele>602.6</ele>
        <time>2021-12-27T15:49:47Z</time>
      </trkpt>
      <trkpt lat="37.7705790" lon="-3.9352900">
        <ele>602.6</ele>
        <time>2021-12-27T15:49:48Z</time>
      </trkpt>
      <trkpt lat="37.7705730" lon="-3.9353200">
        <ele>602.6</ele>
        <time>2021-12-27T15:49:49Z</time>
      </trkpt>
      <trkpt lat="37.7705660" lon="-3.9353520">
        <ele>602.6</ele>
        <time>2021-12-27T15:49:50Z</time>
      </trkpt>
      <trkpt lat="37.7705660" lon="-3.9353850">
        <ele>602.8</ele>
        <time>2021-12-27T15:49:51Z</time>
      </trkpt>
      <trkpt lat="37.7705600" lon="-3.9354180">
        <ele>602.8</ele>
        <time>2021-12-27T15:49:52Z</time>
      </trkpt>
      <trkpt lat="37.7705540" lon="-3.9354520">
        <ele>602.8</ele>
        <time>2021-12-27T15:49:53Z</time>
      </trkpt>
      <trkpt lat="37.7705500" lon="-3.9354880">
        <ele>602.6</ele>
        <time>2021-12-27T15:49:54Z</time>
      </trkpt>
      <trkpt lat="37.7705470" lon="-3.9355250">
        <ele>602.6</ele>
        <time>2021-12-27T15:49:55Z</time>
      </trkpt>
      <trkpt lat="37.7705410" lon="-3.9355620">
        <ele>602.6</ele>
        <time>2021-12-27T15:49:56Z</time>
      </trkpt>
      <trkpt lat="37.7705380" lon="-3.9355980">
        <ele>602.6</ele>
        <time>2021-12-27T15:49:57Z</time>
      </trkpt>
      <trkpt lat="37.7705380" lon="-3.9356280">
        <ele>602.6</ele>
        <time>2021-12-27T15:49:58Z</time>
      </trkpt>
      <trkpt lat="37.7705340" lon="-3.9356600">
        <ele>602.6</ele>
        <time>2021-12-27T15:49:59Z</time>
      </trkpt>
      <trkpt lat="37.7705330" lon="-3.9357110">
        <ele>602.6</ele>
        <time>2021-12-27T15:50:00Z</time>
      </trkpt>
      <trkpt lat="37.7705310" lon="-3.9357280">
        <ele>602.6</ele>
        <time>2021-12-27T15:50:01Z</time>
      </trkpt>
      <trkpt lat="37.7705280" lon="-3.9357650">
        <ele>602.6</ele>
        <time>2021-12-27T15:50:02Z</time>
      </trkpt>
      <trkpt lat="37.7705280" lon="-3.9358020">
        <ele>602.6</ele>
        <time>2021-12-27T15:50:03Z</time>
      </trkpt>
      <trkpt lat="37.7705280" lon="-3.9358370">
        <ele>602.8</ele>
        <time>2021-12-27T15:50:04Z</time>
      </trkpt>
      <trkpt lat="37.7705280" lon="-3.9358720">
        <ele>602.8</ele>
        <time>2021-12-27T15:50:05Z</time>
      </trkpt>
      <trkpt lat="37.7705220" lon="-3.9359080">
        <ele>602.8</ele>
        <time>2021-12-27T15:50:06Z</time>
      </trkpt>
      <trkpt lat="37.7705220" lon="-3.9359430">
        <ele>603.0</ele>
        <time>2021-12-27T15:50:07Z</time>
      </trkpt>
      <trkpt lat="37.7705180" lon="-3.9359780">
        <ele>603.2</ele>
        <time>2021-12-27T15:50:08Z</time>
      </trkpt>
      <trkpt lat="37.7705180" lon="-3.9360130">
        <ele>603.2</ele>
        <time>2021-12-27T15:50:09Z</time>
      </trkpt>
      <trkpt lat="37.7705150" lon="-3.9360450">
        <ele>603.2</ele>
        <time>2021-12-27T15:50:10Z</time>
      </trkpt>
      <trkpt lat="37.7705150" lon="-3.9360770">
        <ele>603.2</ele>
        <time>2021-12-27T15:50:11Z</time>
      </trkpt>
      <trkpt lat="37.7705150" lon="-3.9361100">
        <ele>603.2</ele>
        <time>2021-12-27T15:50:12Z</time>
      </trkpt>
      <trkpt lat="37.7705150" lon="-3.9361420">
        <ele>603.2</ele>
        <time>2021-12-27T15:50:13Z</time>
      </trkpt>
      <trkpt lat="37.7705120" lon="-3.9361680">
        <ele>603.2</ele>
        <time>2021-12-27T15:50:14Z</time>
      </trkpt>
      <trkpt lat="37.7705120" lon="-3.9361680">
        <ele>603.2</ele>
        <time>2021-12-27T15:50:15Z</time>
      </trkpt>
      <trkpt lat="37.7705120" lon="-3.9362060">
        <ele>603.2</ele>
        <time>2021-12-27T15:50:16Z</time>
      </trkpt>
      <trkpt lat="37.7705120" lon="-3.9362060">
        <ele>603.0</ele>
        <time>2021-12-27T15:50:17Z</time>
      </trkpt>
      <trkpt lat="37.7705120" lon="-3.9362060">
        <ele>603.0</ele>
        <time>2021-12-27T15:50:18Z</time>
      </trkpt>
      <trkpt lat="37.7705120" lon="-3.9362060">
        <ele>603.0</ele>
        <time>2021-12-27T15:50:19Z</time>
      </trkpt>
      <trkpt lat="37.7705090" lon="-3.9362350">
        <ele>603.2</ele>
        <time>2021-12-27T15:50:20Z</time>
      </trkpt>
      <trkpt lat="37.7705090" lon="-3.9362350">
        <ele>603.2</ele>
        <time>2021-12-27T15:50:21Z</time>
      </trkpt>
      <trkpt lat="37.7705340" lon="-3.9361720">
        <ele>603.4</ele>
        <time>2021-12-27T15:50:27Z</time>
      </trkpt>
      <trkpt lat="37.7705340" lon="-3.9361720">
        <ele>603.4</ele>
        <time>2021-12-27T15:50:28Z</time>
      </trkpt>
      <trkpt lat="37.7705310" lon="-3.9361350">
        <ele>603.4</ele>
        <time>2021-12-27T15:50:29Z</time>
      </trkpt>
      <trkpt lat="37.7705310" lon="-3.9361350">
        <ele>603.4</ele>
        <time>2021-12-27T15:50:30Z</time>
      </trkpt>
      <trkpt lat="37.7705280" lon="-3.9361120">
        <ele>603.4</ele>
        <time>2021-12-27T15:50:31Z</time>
      </trkpt>
      <trkpt lat="37.7705280" lon="-3.9361120">
        <ele>603.4</ele>
        <time>2021-12-27T15:50:32Z</time>
      </trkpt>
      <trkpt lat="37.7705280" lon="-3.9361120">
        <ele>603.4</ele>
        <time>2021-12-27T15:50:33Z</time>
      </trkpt>
      <trkpt lat="37.7705280" lon="-3.9361120">
        <ele>603.4</ele>
        <time>2021-12-27T15:50:34Z</time>
      </trkpt>
      <trkpt lat="37.7705280" lon="-3.9361120">
        <ele>603.4</ele>
        <time>2021-12-27T15:50:35Z</time>
      </trkpt>
      <trkpt lat="37.7705280" lon="-3.9361120">
        <ele>603.4</ele>
        <time>2021-12-27T15:50:36Z</time>
      </trkpt>
      <trkpt lat="37.7705180" lon="-3.9362580">
        <ele>603.2</ele>
        <time>2021-12-27T15:51:30Z</time>
      </trkpt>
      <trkpt lat="37.7705180" lon="-3.9362950">
        <ele>603.2</ele>
        <time>2021-12-27T15:51:31Z</time>
      </trkpt>
      <trkpt lat="37.7705180" lon="-3.9363340">
        <ele>603.2</ele>
        <time>2021-12-27T15:51:32Z</time>
      </trkpt>
      <trkpt lat="37.7705180" lon="-3.9363720">
        <ele>603.2</ele>
        <time>2021-12-27T15:51:33Z</time>
      </trkpt>
      <trkpt lat="37.7705180" lon="-3.9364080">
        <ele>603.2</ele>
        <time>2021-12-27T15:51:34Z</time>
      </trkpt>
      <trkpt lat="37.7705180" lon="-3.9364430">
        <ele>603.4</ele>
        <time>2021-12-27T15:51:35Z</time>
      </trkpt>
      <trkpt lat="37.7705180" lon="-3.9364750">
        <ele>603.4</ele>
        <time>2021-12-27T15:51:36Z</time>
      </trkpt>
      <trkpt lat="37.7705120" lon="-3.9365100">
        <ele>603.4</ele>
        <time>2021-12-27T15:51:37Z</time>
      </trkpt>
      <trkpt lat="37.7705090" lon="-3.9365450">
        <ele>603.4</ele>
        <time>2021-12-27T15:51:38Z</time>
      </trkpt>
      <trkpt lat="37.7705020" lon="-3.9365830">
        <ele>603.4</ele>
        <time>2021-12-27T15:51:39Z</time>
      </trkpt>
      <trkpt lat="37.7704990" lon="-3.9366180">
        <ele>603.6</ele>
        <time>2021-12-27T15:51:40Z</time>
      </trkpt>
      <trkpt lat="37.7704990" lon="-3.9366550">
        <ele>603.6</ele>
        <time>2021-12-27T15:51:41Z</time>
      </trkpt>
      <trkpt lat="37.7704960" lon="-3.9366900">
        <ele>603.6</ele>
        <time>2021-12-27T15:51:42Z</time>
      </trkpt>
      <trkpt lat="37.7704930" lon="-3.9367220">
        <ele>603.8</ele>
        <time>2021-12-27T15:51:43Z</time>
      </trkpt>
      <trkpt lat="37.7704860" lon="-3.9367500">
        <ele>603.8</ele>
        <time>2021-12-27T15:51:44Z</time>
      </trkpt>
      <trkpt lat="37.7704800" lon="-3.9367780">
        <ele>604.0</ele>
        <time>2021-12-27T15:51:45Z</time>
      </trkpt>
      <trkpt lat="37.7704770" lon="-3.9368020">
        <ele>604.0</ele>
        <time>2021-12-27T15:51:46Z</time>
      </trkpt>
      <trkpt lat="37.7704740" lon="-3.9368270">
        <ele>604.0</ele>
        <time>2021-12-27T15:51:47Z</time>
      </trkpt>
      <trkpt lat="37.7704740" lon="-3.9368540">
        <ele>604.0</ele>
        <time>2021-12-27T15:51:48Z</time>
      </trkpt>
      <trkpt lat="37.7704700" lon="-3.9368840">
        <ele>604.2</ele>
        <time>2021-12-27T15:51:49Z</time>
      </trkpt>
      <trkpt lat="37.7704670" lon="-3.9369100">
        <ele>604.2</ele>
        <time>2021-12-27T15:51:50Z</time>
      </trkpt>
      <trkpt lat="37.7704610" lon="-3.9369420">
        <ele>604.2</ele>
        <time>2021-12-27T15:51:51Z</time>
      </trkpt>
      <trkpt lat="37.7704580" lon="-3.9369730">
        <ele>604.2</ele>
        <time>2021-12-27T15:51:52Z</time>
      </trkpt>
      <trkpt lat="37.7704480" lon="-3.9370070">
        <ele>604.2</ele>
        <time>2021-12-27T15:51:53Z</time>
      </trkpt>
      <trkpt lat="37.7704420" lon="-3.9370350">
        <ele>604.2</ele>
        <time>2021-12-27T15:51:54Z</time>
      </trkpt>
      <trkpt lat="37.7704380" lon="-3.9370620">
        <ele>604.2</ele>
        <time>2021-12-27T15:51:55Z</time>
      </trkpt>
      <trkpt lat="37.7704350" lon="-3.9370880">
        <ele>604.2</ele>
        <time>2021-12-27T15:51:56Z</time>
      </trkpt>
      <trkpt lat="37.7704290" lon="-3.9371130">
        <ele>604.2</ele>
        <time>2021-12-27T15:51:57Z</time>
      </trkpt>
      <trkpt lat="37.7704220" lon="-3.9371450">
        <ele>604.2</ele>
        <time>2021-12-27T15:51:58Z</time>
      </trkpt>
      <trkpt lat="37.7704160" lon="-3.9371750">
        <ele>604.2</ele>
        <time>2021-12-27T15:51:59Z</time>
      </trkpt>
      <trkpt lat="37.7704100" lon="-3.9372070">
        <ele>604.2</ele>
        <time>2021-12-27T15:52:00Z</time>
      </trkpt>
      <trkpt lat="37.7704000" lon="-3.9372400">
        <ele>604.2</ele>
        <time>2021-12-27T15:52:01Z</time>
      </trkpt>
      <trkpt lat="37.7703940" lon="-3.9372730">
        <ele>604.2</ele>
        <time>2021-12-27T15:52:02Z</time>
      </trkpt>
      <trkpt lat="37.7703870" lon="-3.9373030">
        <ele>604.4</ele>
        <time>2021-12-27T15:52:03Z</time>
      </trkpt>
      <trkpt lat="37.7703780" lon="-3.9373370">
        <ele>604.4</ele>
        <time>2021-12-27T15:52:04Z</time>
      </trkpt>
      <trkpt lat="37.7703710" lon="-3.9373680">
        <ele>604.4</ele>
        <time>2021-12-27T15:52:05Z</time>
      </trkpt>
      <trkpt lat="37.7703620" lon="-3.9373960">
        <ele>604.4</ele>
        <time>2021-12-27T15:52:06Z</time>
      </trkpt>
      <trkpt lat="37.7703550" lon="-3.9374260">
        <ele>604.4</ele>
        <time>2021-12-27T15:52:07Z</time>
      </trkpt>
      <trkpt lat="37.7703490" lon="-3.9374550">
        <ele>604.2</ele>
        <time>2021-12-27T15:52:08Z</time>
      </trkpt>
      <trkpt lat="37.7703390" lon="-3.9374830">
        <ele>604.2</ele>
        <time>2021-12-27T15:52:09Z</time>
      </trkpt>
      <trkpt lat="37.7703330" lon="-3.9375120">
        <ele>604.2</ele>
        <time>2021-12-27T15:52:10Z</time>
      </trkpt>
      <trkpt lat="37.7703230" lon="-3.9375400">
        <ele>604.0</ele>
        <time>2021-12-27T15:52:11Z</time>
      </trkpt>
      <trkpt lat="37.7703140" lon="-3.9375670">
        <ele>604.0</ele>
        <time>2021-12-27T15:52:12Z</time>
      </trkpt>
      <trkpt lat="37.7703100" lon="-3.9375940">
        <ele>604.0</ele>
        <time>2021-12-27T15:52:13Z</time>
      </trkpt>
      <trkpt lat="37.7703070" lon="-3.9376230">
        <ele>604.2</ele>
        <time>2021-12-27T15:52:14Z</time>
      </trkpt>
      <trkpt lat="37.7702940" lon="-3.9376570">
        <ele>604.2</ele>
        <time>2021-12-27T15:52:15Z</time>
      </trkpt>
      <trkpt lat="37.7702880" lon="-3.9376870">
        <ele>604.2</ele>
        <time>2021-12-27T15:52:16Z</time>
      </trkpt>
      <trkpt lat="37.7702750" lon="-3.9377200">
        <ele>604.4</ele>
        <time>2021-12-27T15:52:17Z</time>
      </trkpt>
      <trkpt lat="37.7702690" lon="-3.9377530">
        <ele>604.4</ele>
        <time>2021-12-27T15:52:18Z</time>
      </trkpt>
      <trkpt lat="37.7702590" lon="-3.9377830">
        <ele>604.4</ele>
        <time>2021-12-27T15:52:19Z</time>
      </trkpt>
      <trkpt lat="37.7702500" lon="-3.9378120">
        <ele>604.4</ele>
        <time>2021-12-27T15:52:20Z</time>
      </trkpt>
      <trkpt lat="37.7702370" lon="-3.9378400">
        <ele>604.4</ele>
        <time>2021-12-27T15:52:21Z</time>
      </trkpt>
      <trkpt lat="37.7702240" lon="-3.9378700">
        <ele>604.4</ele>
        <time>2021-12-27T15:52:22Z</time>
      </trkpt>
      <trkpt lat="37.7702110" lon="-3.9379020">
        <ele>604.4</ele>
        <time>2021-12-27T15:52:23Z</time>
      </trkpt>
      <trkpt lat="37.7701950" lon="-3.9379350">
        <ele>604.4</ele>
        <time>2021-12-27T15:52:24Z</time>
      </trkpt>
      <trkpt lat="37.7701790" lon="-3.9379620">
        <ele>604.4</ele>
        <time>2021-12-27T15:52:25Z</time>
      </trkpt>
      <trkpt lat="37.7701700" lon="-3.9379880">
        <ele>604.6</ele>
        <time>2021-12-27T15:52:26Z</time>
      </trkpt>
      <trkpt lat="37.7701570" lon="-3.9380220">
        <ele>604.6</ele>
        <time>2021-12-27T15:52:27Z</time>
      </trkpt>
      <trkpt lat="37.7701410" lon="-3.9380500">
        <ele>604.4</ele>
        <time>2021-12-27T15:52:28Z</time>
      </trkpt>
      <trkpt lat="37.7701310" lon="-3.9380800">
        <ele>604.4</ele>
        <time>2021-12-27T15:52:29Z</time>
      </trkpt>
      <trkpt lat="37.7701150" lon="-3.9381100">
        <ele>604.4</ele>
        <time>2021-12-27T15:52:30Z</time>
      </trkpt>
      <trkpt lat="37.7701020" lon="-3.9381360">
        <ele>604.4</ele>
        <time>2021-12-27T15:52:31Z</time>
      </trkpt>
      <trkpt lat="37.7700900" lon="-3.9381650">
        <ele>604.4</ele>
        <time>2021-12-27T15:52:32Z</time>
      </trkpt>
      <trkpt lat="37.7700740" lon="-3.9381930">
        <ele>604.4</ele>
        <time>2021-12-27T15:52:33Z</time>
      </trkpt>
      <trkpt lat="37.7700580" lon="-3.9382200">
        <ele>604.4</ele>
        <time>2021-12-27T15:52:34Z</time>
      </trkpt>
      <trkpt lat="37.7700420" lon="-3.9382480">
        <ele>604.4</ele>
        <time>2021-12-27T15:52:35Z</time>
      </trkpt>
      <trkpt lat="37.7700260" lon="-3.9382750">
        <ele>604.4</ele>
        <time>2021-12-27T15:52:36Z</time>
      </trkpt>
      <trkpt lat="37.7700130" lon="-3.9383020">
        <ele>604.6</ele>
        <time>2021-12-27T15:52:37Z</time>
      </trkpt>
      <trkpt lat="37.7699970" lon="-3.9383260">
        <ele>604.6</ele>
        <time>2021-12-27T15:52:38Z</time>
      </trkpt>
      <trkpt lat="37.7699810" lon="-3.9383520">
        <ele>604.6</ele>
        <time>2021-12-27T15:52:39Z</time>
      </trkpt>
      <trkpt lat="37.7699620" lon="-3.9383750">
        <ele>604.6</ele>
        <time>2021-12-27T15:52:40Z</time>
      </trkpt>
      <trkpt lat="37.7699520" lon="-3.9383980">
        <ele>604.6</ele>
        <time>2021-12-27T15:52:41Z</time>
      </trkpt>
      <trkpt lat="37.7699390" lon="-3.9384220">
        <ele>604.8</ele>
        <time>2021-12-27T15:52:42Z</time>
      </trkpt>
      <trkpt lat="37.7699230" lon="-3.9384400">
        <ele>604.8</ele>
        <time>2021-12-27T15:52:43Z</time>
      </trkpt>
      <trkpt lat="37.7699230" lon="-3.9384400">
        <ele>604.8</ele>
        <time>2021-12-27T15:52:44Z</time>
      </trkpt>
      <trkpt lat="37.7699040" lon="-3.9384650">
        <ele>604.8</ele>
        <time>2021-12-27T15:52:45Z</time>
      </trkpt>
      <trkpt lat="37.7699040" lon="-3.9384650">
        <ele>605.0</ele>
        <time>2021-12-27T15:52:46Z</time>
      </trkpt>
      <trkpt lat="37.7698850" lon="-3.9384820">
        <ele>605.0</ele>
        <time>2021-12-27T15:52:47Z</time>
      </trkpt>
      <trkpt lat="37.7698850" lon="-3.9384820">
        <ele>605.2</ele>
        <time>2021-12-27T15:52:48Z</time>
      </trkpt>
      <trkpt lat="37.7698850" lon="-3.9384820">
        <ele>605.2</ele>
        <time>2021-12-27T15:52:49Z</time>
      </trkpt>
      <trkpt lat="37.7698850" lon="-3.9384820">
        <ele>605.2</ele>
        <time>2021-12-27T15:52:50Z</time>
      </trkpt>
      <trkpt lat="37.7698850" lon="-3.9384820">
        <ele>605.2</ele>
        <time>2021-12-27T15:52:51Z</time>
      </trkpt>
      <trkpt lat="37.7698140" lon="-3.9385770">
        <ele>606.8</ele>
        <time>2021-12-27T15:53:08Z</time>
      </trkpt>
      <trkpt lat="37.7697980" lon="-3.9385970">
        <ele>607.0</ele>
        <time>2021-12-27T15:53:09Z</time>
      </trkpt>
      <trkpt lat="37.7697820" lon="-3.9386140">
        <ele>607.0</ele>
        <time>2021-12-27T15:53:10Z</time>
      </trkpt>
      <trkpt lat="37.7697660" lon="-3.9386350">
        <ele>607.0</ele>
        <time>2021-12-27T15:53:11Z</time>
      </trkpt>
      <trkpt lat="37.7697540" lon="-3.9386580">
        <ele>607.0</ele>
        <time>2021-12-27T15:53:12Z</time>
      </trkpt>
      <trkpt lat="37.7697380" lon="-3.9386800">
        <ele>607.2</ele>
        <time>2021-12-27T15:53:13Z</time>
      </trkpt>
      <trkpt lat="37.7697250" lon="-3.9386970">
        <ele>607.2</ele>
        <time>2021-12-27T15:53:14Z</time>
      </trkpt>
      <trkpt lat="37.7697250" lon="-3.9386970">
        <ele>607.2</ele>
        <time>2021-12-27T15:53:15Z</time>
      </trkpt>
      <trkpt lat="37.7696990" lon="-3.9387320">
        <ele>607.4</ele>
        <time>2021-12-27T15:53:16Z</time>
      </trkpt>
      <trkpt lat="37.7696830" lon="-3.9387520">
        <ele>607.4</ele>
        <time>2021-12-27T15:53:17Z</time>
      </trkpt>
      <trkpt lat="37.7696670" lon="-3.9387750">
        <ele>607.4</ele>
        <time>2021-12-27T15:53:18Z</time>
      </trkpt>
      <trkpt lat="37.7696450" lon="-3.9387980">
        <ele>607.4</ele>
        <time>2021-12-27T15:53:19Z</time>
      </trkpt>
      <trkpt lat="37.7696260" lon="-3.9388220">
        <ele>607.6</ele>
        <time>2021-12-27T15:53:20Z</time>
      </trkpt>
      <trkpt lat="37.7696060" lon="-3.9388430">
        <ele>607.6</ele>
        <time>2021-12-27T15:53:21Z</time>
      </trkpt>
      <trkpt lat="37.7696060" lon="-3.9388430">
        <ele>607.8</ele>
        <time>2021-12-27T15:53:22Z</time>
      </trkpt>
      <trkpt lat="37.7695810" lon="-3.9388800">
        <ele>607.8</ele>
        <time>2021-12-27T15:53:23Z</time>
      </trkpt>
      <trkpt lat="37.7695680" lon="-3.9388980">
        <ele>607.8</ele>
        <time>2021-12-27T15:53:24Z</time>
      </trkpt>
      <trkpt lat="37.7695680" lon="-3.9388980">
        <ele>608.0</ele>
        <time>2021-12-27T15:53:25Z</time>
      </trkpt>
      <trkpt lat="37.7695550" lon="-3.9389250">
        <ele>608.0</ele>
        <time>2021-12-27T15:53:26Z</time>
      </trkpt>
      <trkpt lat="37.7695550" lon="-3.9389250">
        <ele>608.2</ele>
        <time>2021-12-27T15:53:27Z</time>
      </trkpt>
      <trkpt lat="37.7695390" lon="-3.9389420">
        <ele>608.2</ele>
        <time>2021-12-27T15:53:28Z</time>
      </trkpt>
      <trkpt lat="37.7695390" lon="-3.9389420">
        <ele>608.4</ele>
        <time>2021-12-27T15:53:29Z</time>
      </trkpt>
      <trkpt lat="37.7695390" lon="-3.9389420">
        <ele>608.4</ele>
        <time>2021-12-27T15:53:30Z</time>
      </trkpt>
      <trkpt lat="37.7695230" lon="-3.9389580">
        <ele>608.4</ele>
        <time>2021-12-27T15:53:31Z</time>
      </trkpt>
      <trkpt lat="37.7695230" lon="-3.9389580">
        <ele>608.6</ele>
        <time>2021-12-27T15:53:32Z</time>
      </trkpt>
      <trkpt lat="37.7695230" lon="-3.9389580">
        <ele>608.6</ele>
        <time>2021-12-27T15:53:33Z</time>
      </trkpt>
      <trkpt lat="37.7695230" lon="-3.9389580">
        <ele>608.6</ele>
        <time>2021-12-27T15:53:34Z</time>
      </trkpt>
      <trkpt lat="37.7695230" lon="-3.9389580">
        <ele>608.6</ele>
        <time>2021-12-27T15:53:35Z</time>
      </trkpt>
      <trkpt lat="37.7694340" lon="-3.9390620">
        <ele>608.4</ele>
        <time>2021-12-27T15:53:54Z</time>
      </trkpt>
      <trkpt lat="37.7694050" lon="-3.9390880">
        <ele>608.4</ele>
        <time>2021-12-27T15:53:55Z</time>
      </trkpt>
      <trkpt lat="37.7693820" lon="-3.9391180">
        <ele>608.4</ele>
        <time>2021-12-27T15:53:56Z</time>
      </trkpt>
      <trkpt lat="37.7693570" lon="-3.9391500">
        <ele>608.4</ele>
        <time>2021-12-27T15:53:57Z</time>
      </trkpt>
      <trkpt lat="37.7693280" lon="-3.9391830">
        <ele>608.4</ele>
        <time>2021-12-27T15:53:58Z</time>
      </trkpt>
      <trkpt lat="37.7693020" lon="-3.9392150">
        <ele>608.4</ele>
        <time>2021-12-27T15:53:59Z</time>
      </trkpt>
      <trkpt lat="37.7692770" lon="-3.9392430">
        <ele>608.4</ele>
        <time>2021-12-27T15:54:00Z</time>
      </trkpt>
      <trkpt lat="37.7692510" lon="-3.9392720">
        <ele>608.4</ele>
        <time>2021-12-27T15:54:01Z</time>
      </trkpt>
      <trkpt lat="37.7692290" lon="-3.9392970">
        <ele>608.4</ele>
        <time>2021-12-27T15:54:02Z</time>
      </trkpt>
      <trkpt lat="37.7692030" lon="-3.9393200">
        <ele>608.4</ele>
        <time>2021-12-27T15:54:03Z</time>
      </trkpt>
      <trkpt lat="37.7691810" lon="-3.9393420">
        <ele>608.4</ele>
        <time>2021-12-27T15:54:04Z</time>
      </trkpt>
      <trkpt lat="37.7691520" lon="-3.9393640">
        <ele>608.4</ele>
        <time>2021-12-27T15:54:05Z</time>
      </trkpt>
      <trkpt lat="37.7691300" lon="-3.9393850">
        <ele>608.4</ele>
        <time>2021-12-27T15:54:06Z</time>
      </trkpt>
      <trkpt lat="37.7691070" lon="-3.9394030">
        <ele>608.4</ele>
        <time>2021-12-27T15:54:07Z</time>
      </trkpt>
      <trkpt lat="37.7690820" lon="-3.9394230">
        <ele>608.4</ele>
        <time>2021-12-27T15:54:08Z</time>
      </trkpt>
      <trkpt lat="37.7690590" lon="-3.9394420">
        <ele>608.4</ele>
        <time>2021-12-27T15:54:09Z</time>
      </trkpt>
      <trkpt lat="37.7690370" lon="-3.9394550">
        <ele>608.4</ele>
        <time>2021-12-27T15:54:10Z</time>
      </trkpt>
      <trkpt lat="37.7690080" lon="-3.9394730">
        <ele>608.4</ele>
        <time>2021-12-27T15:54:11Z</time>
      </trkpt>
      <trkpt lat="37.7689860" lon="-3.9394880">
        <ele>608.6</ele>
        <time>2021-12-27T15:54:12Z</time>
      </trkpt>
      <trkpt lat="37.7689600" lon="-3.9395060">
        <ele>608.6</ele>
        <time>2021-12-27T15:54:13Z</time>
      </trkpt>
      <trkpt lat="37.7689380" lon="-3.9395230">
        <ele>608.6</ele>
        <time>2021-12-27T15:54:14Z</time>
      </trkpt>
      <trkpt lat="37.7689090" lon="-3.9395380">
        <ele>608.6</ele>
        <time>2021-12-27T15:54:15Z</time>
      </trkpt>
      <trkpt lat="37.7688830" lon="-3.9395530">
        <ele>608.6</ele>
        <time>2021-12-27T15:54:16Z</time>
      </trkpt>
      <trkpt lat="37.7688610" lon="-3.9395680">
        <ele>608.6</ele>
        <time>2021-12-27T15:54:17Z</time>
      </trkpt>
      <trkpt lat="37.7688320" lon="-3.9395830">
        <ele>608.6</ele>
        <time>2021-12-27T15:54:18Z</time>
      </trkpt>
      <trkpt lat="37.7688060" lon="-3.9395970">
        <ele>608.6</ele>
        <time>2021-12-27T15:54:19Z</time>
      </trkpt>
      <trkpt lat="37.7687840" lon="-3.9396100">
        <ele>608.6</ele>
        <time>2021-12-27T15:54:20Z</time>
      </trkpt>
      <trkpt lat="37.7687580" lon="-3.9396250">
        <ele>608.6</ele>
        <time>2021-12-27T15:54:21Z</time>
      </trkpt>
      <trkpt lat="37.7687300" lon="-3.9396400">
        <ele>608.6</ele>
        <time>2021-12-27T15:54:22Z</time>
      </trkpt>
      <trkpt lat="37.7687070" lon="-3.9396550">
        <ele>608.6</ele>
        <time>2021-12-27T15:54:23Z</time>
      </trkpt>
      <trkpt lat="37.7686820" lon="-3.9396700">
        <ele>608.6</ele>
        <time>2021-12-27T15:54:24Z</time>
      </trkpt>
      <trkpt lat="37.7686590" lon="-3.9396840">
        <ele>608.6</ele>
        <time>2021-12-27T15:54:25Z</time>
      </trkpt>
      <trkpt lat="37.7686300" lon="-3.9396940">
        <ele>608.6</ele>
        <time>2021-12-27T15:54:26Z</time>
      </trkpt>
      <trkpt lat="37.7686050" lon="-3.9397050">
        <ele>608.6</ele>
        <time>2021-12-27T15:54:27Z</time>
      </trkpt>
      <trkpt lat="37.7685820" lon="-3.9397180">
        <ele>608.6</ele>
        <time>2021-12-27T15:54:28Z</time>
      </trkpt>
      <trkpt lat="37.7685600" lon="-3.9397320">
        <ele>608.6</ele>
        <time>2021-12-27T15:54:29Z</time>
      </trkpt>
      <trkpt lat="37.7685340" lon="-3.9397430">
        <ele>608.6</ele>
        <time>2021-12-27T15:54:30Z</time>
      </trkpt>
      <trkpt lat="37.7685150" lon="-3.9397530">
        <ele>608.6</ele>
        <time>2021-12-27T15:54:31Z</time>
      </trkpt>
      <trkpt lat="37.7684900" lon="-3.9397650">
        <ele>608.6</ele>
        <time>2021-12-27T15:54:32Z</time>
      </trkpt>
      <trkpt lat="37.7684640" lon="-3.9397750">
        <ele>608.6</ele>
        <time>2021-12-27T15:54:33Z</time>
      </trkpt>
      <trkpt lat="37.7684420" lon="-3.9397880">
        <ele>608.6</ele>
        <time>2021-12-27T15:54:34Z</time>
      </trkpt>
      <trkpt lat="37.7684160" lon="-3.9398000">
        <ele>608.8</ele>
        <time>2021-12-27T15:54:35Z</time>
      </trkpt>
      <trkpt lat="37.7683900" lon="-3.9398100">
        <ele>608.8</ele>
        <time>2021-12-27T15:54:36Z</time>
      </trkpt>
      <trkpt lat="37.7683650" lon="-3.9398220">
        <ele>608.8</ele>
        <time>2021-12-27T15:54:37Z</time>
      </trkpt>
      <trkpt lat="37.7683420" lon="-3.9398350">
        <ele>608.8</ele>
        <time>2021-12-27T15:54:38Z</time>
      </trkpt>
      <trkpt lat="37.7683170" lon="-3.9398450">
        <ele>609.0</ele>
        <time>2021-12-27T15:54:39Z</time>
      </trkpt>
      <trkpt lat="37.7682940" lon="-3.9398520">
        <ele>609.0</ele>
        <time>2021-12-27T15:54:40Z</time>
      </trkpt>
      <trkpt lat="37.7682940" lon="-3.9398520">
        <ele>609.2</ele>
        <time>2021-12-27T15:54:41Z</time>
      </trkpt>
      <trkpt lat="37.7682560" lon="-3.9398650">
        <ele>609.2</ele>
        <time>2021-12-27T15:54:42Z</time>
      </trkpt>
      <trkpt lat="37.7682370" lon="-3.9398750">
        <ele>609.2</ele>
        <time>2021-12-27T15:54:43Z</time>
      </trkpt>
      <trkpt lat="37.7682140" lon="-3.9398830">
        <ele>609.4</ele>
        <time>2021-12-27T15:54:44Z</time>
      </trkpt>
      <trkpt lat="37.7681950" lon="-3.9398920">
        <ele>609.6</ele>
        <time>2021-12-27T15:54:45Z</time>
      </trkpt>
      <trkpt lat="37.7681730" lon="-3.9399020">
        <ele>609.6</ele>
        <time>2021-12-27T15:54:46Z</time>
      </trkpt>
      <trkpt lat="37.7681470" lon="-3.9399120">
        <ele>609.6</ele>
        <time>2021-12-27T15:54:47Z</time>
      </trkpt>
      <trkpt lat="37.7681250" lon="-3.9399200">
        <ele>609.8</ele>
        <time>2021-12-27T15:54:48Z</time>
      </trkpt>
      <trkpt lat="37.7680990" lon="-3.9399280">
        <ele>609.8</ele>
        <time>2021-12-27T15:54:49Z</time>
      </trkpt>
      <trkpt lat="37.7680740" lon="-3.9399380">
        <ele>609.8</ele>
        <time>2021-12-27T15:54:50Z</time>
      </trkpt>
      <trkpt lat="37.7680510" lon="-3.9399450">
        <ele>609.8</ele>
        <time>2021-12-27T15:54:51Z</time>
      </trkpt>
      <trkpt lat="37.7680260" lon="-3.9399530">
        <ele>609.8</ele>
        <time>2021-12-27T15:54:52Z</time>
      </trkpt>
      <trkpt lat="37.7679970" lon="-3.9399600">
        <ele>609.8</ele>
        <time>2021-12-27T15:54:53Z</time>
      </trkpt>
      <trkpt lat="37.7679710" lon="-3.9399650">
        <ele>609.8</ele>
        <time>2021-12-27T15:54:54Z</time>
      </trkpt>
      <trkpt lat="37.7679490" lon="-3.9399700">
        <ele>609.8</ele>
        <time>2021-12-27T15:54:55Z</time>
      </trkpt>
      <trkpt lat="37.7679260" lon="-3.9399770">
        <ele>610.0</ele>
        <time>2021-12-27T15:54:56Z</time>
      </trkpt>
      <trkpt lat="37.7679010" lon="-3.9399820">
        <ele>610.0</ele>
        <time>2021-12-27T15:54:57Z</time>
      </trkpt>
      <trkpt lat="37.7678780" lon="-3.9399870">
        <ele>610.0</ele>
        <time>2021-12-27T15:54:58Z</time>
      </trkpt>
      <trkpt lat="37.7678560" lon="-3.9399900">
        <ele>610.0</ele>
        <time>2021-12-27T15:54:59Z</time>
      </trkpt>
      <trkpt lat="37.7678300" lon="-3.9399950">
        <ele>610.0</ele>
        <time>2021-12-27T15:55:00Z</time>
      </trkpt>
      <trkpt lat="37.7678080" lon="-3.9400020">
        <ele>610.0</ele>
        <time>2021-12-27T15:55:01Z</time>
      </trkpt>
      <trkpt lat="37.7677860" lon="-3.9400080">
        <ele>610.2</ele>
        <time>2021-12-27T15:55:02Z</time>
      </trkpt>
      <trkpt lat="37.7677600" lon="-3.9400140">
        <ele>610.2</ele>
        <time>2021-12-27T15:55:03Z</time>
      </trkpt>
      <trkpt lat="37.7677380" lon="-3.9400200">
        <ele>610.2</ele>
        <time>2021-12-27T15:55:04Z</time>
      </trkpt>
      <trkpt lat="37.7677120" lon="-3.9400300">
        <ele>610.2</ele>
        <time>2021-12-27T15:55:05Z</time>
      </trkpt>
      <trkpt lat="37.7676900" lon="-3.9400440">
        <ele>610.4</ele>
        <time>2021-12-27T15:55:06Z</time>
      </trkpt>
      <trkpt lat="37.7676670" lon="-3.9400550">
        <ele>610.4</ele>
        <time>2021-12-27T15:55:07Z</time>
      </trkpt>
      <trkpt lat="37.7676380" lon="-3.9400650">
        <ele>610.4</ele>
        <time>2021-12-27T15:55:08Z</time>
      </trkpt>
      <trkpt lat="37.7676160" lon="-3.9400730">
        <ele>610.4</ele>
        <time>2021-12-27T15:55:09Z</time>
      </trkpt>
      <trkpt lat="37.7675940" lon="-3.9400820">
        <ele>610.4</ele>
        <time>2021-12-27T15:55:10Z</time>
      </trkpt>
      <trkpt lat="37.7675680" lon="-3.9400920">
        <ele>610.4</ele>
        <time>2021-12-27T15:55:11Z</time>
      </trkpt>
      <trkpt lat="37.7675420" lon="-3.9401020">
        <ele>610.4</ele>
        <time>2021-12-27T15:55:12Z</time>
      </trkpt>
      <trkpt lat="37.7675200" lon="-3.9401150">
        <ele>610.2</ele>
        <time>2021-12-27T15:55:13Z</time>
      </trkpt>
      <trkpt lat="37.7674980" lon="-3.9401270">
        <ele>610.2</ele>
        <time>2021-12-27T15:55:14Z</time>
      </trkpt>
      <trkpt lat="37.7674750" lon="-3.9401350">
        <ele>610.2</ele>
        <time>2021-12-27T15:55:15Z</time>
      </trkpt>
      <trkpt lat="37.7674530" lon="-3.9401380">
        <ele>610.2</ele>
        <time>2021-12-27T15:55:16Z</time>
      </trkpt>
      <trkpt lat="37.7674340" lon="-3.9401420">
        <ele>610.0</ele>
        <time>2021-12-27T15:55:17Z</time>
      </trkpt>
      <trkpt lat="37.7674080" lon="-3.9401470">
        <ele>610.0</ele>
        <time>2021-12-27T15:55:18Z</time>
      </trkpt>
      <trkpt lat="37.7673890" lon="-3.9401550">
        <ele>610.0</ele>
        <time>2021-12-27T15:55:19Z</time>
      </trkpt>
      <trkpt lat="37.7673630" lon="-3.9401670">
        <ele>610.0</ele>
        <time>2021-12-27T15:55:20Z</time>
      </trkpt>
      <trkpt lat="37.7673410" lon="-3.9401720">
        <ele>610.0</ele>
        <time>2021-12-27T15:55:21Z</time>
      </trkpt>
      <trkpt lat="37.7673150" lon="-3.9401780">
        <ele>610.2</ele>
        <time>2021-12-27T15:55:22Z</time>
      </trkpt>
      <trkpt lat="37.7672930" lon="-3.9401870">
        <ele>610.2</ele>
        <time>2021-12-27T15:55:23Z</time>
      </trkpt>
      <trkpt lat="37.7672700" lon="-3.9401900">
        <ele>610.2</ele>
        <time>2021-12-27T15:55:24Z</time>
      </trkpt>
      <trkpt lat="37.7672420" lon="-3.9401950">
        <ele>610.4</ele>
        <time>2021-12-27T15:55:25Z</time>
      </trkpt>
      <trkpt lat="37.7672160" lon="-3.9401980">
        <ele>610.4</ele>
        <time>2021-12-27T15:55:26Z</time>
      </trkpt>
      <trkpt lat="37.7671900" lon="-3.9402050">
        <ele>610.4</ele>
        <time>2021-12-27T15:55:27Z</time>
      </trkpt>
      <trkpt lat="37.7671650" lon="-3.9402100">
        <ele>610.4</ele>
        <time>2021-12-27T15:55:28Z</time>
      </trkpt>
      <trkpt lat="37.7671420" lon="-3.9402130">
        <ele>610.6</ele>
        <time>2021-12-27T15:55:29Z</time>
      </trkpt>
      <trkpt lat="37.7671170" lon="-3.9402160">
        <ele>610.6</ele>
        <time>2021-12-27T15:55:30Z</time>
      </trkpt>
      <trkpt lat="37.7670910" lon="-3.9402200">
        <ele>610.6</ele>
        <time>2021-12-27T15:55:31Z</time>
      </trkpt>
      <trkpt lat="37.7670590" lon="-3.9402260">
        <ele>610.8</ele>
        <time>2021-12-27T15:55:32Z</time>
      </trkpt>
      <trkpt lat="37.7670340" lon="-3.9402320">
        <ele>610.8</ele>
        <time>2021-12-27T15:55:33Z</time>
      </trkpt>
      <trkpt lat="37.7670020" lon="-3.9402360">
        <ele>610.8</ele>
        <time>2021-12-27T15:55:34Z</time>
      </trkpt>
      <trkpt lat="37.7669790" lon="-3.9402380">
        <ele>610.8</ele>
        <time>2021-12-27T15:55:35Z</time>
      </trkpt>
      <trkpt lat="37.7669600" lon="-3.9402380">
        <ele>610.8</ele>
        <time>2021-12-27T15:55:36Z</time>
      </trkpt>
      <trkpt lat="37.7669380" lon="-3.9402400">
        <ele>611.0</ele>
        <time>2021-12-27T15:55:37Z</time>
      </trkpt>
      <trkpt lat="37.7669180" lon="-3.9402420">
        <ele>611.0</ele>
        <time>2021-12-27T15:55:38Z</time>
      </trkpt>
      <trkpt lat="37.7669180" lon="-3.9402420">
        <ele>611.0</ele>
        <time>2021-12-27T15:55:39Z</time>
      </trkpt>
      <trkpt lat="37.7668930" lon="-3.9402430">
        <ele>611.0</ele>
        <time>2021-12-27T15:55:40Z</time>
      </trkpt>
      <trkpt lat="37.7668930" lon="-3.9402430">
        <ele>611.2</ele>
        <time>2021-12-27T15:55:41Z</time>
      </trkpt>
      <trkpt lat="37.7668740" lon="-3.9402430">
        <ele>611.2</ele>
        <time>2021-12-27T15:55:42Z</time>
      </trkpt>
      <trkpt lat="37.7668740" lon="-3.9402430">
        <ele>611.2</ele>
        <time>2021-12-27T15:55:43Z</time>
      </trkpt>
      <trkpt lat="37.7668740" lon="-3.9402430">
        <ele>611.2</ele>
        <time>2021-12-27T15:55:44Z</time>
      </trkpt>
      <trkpt lat="37.7668740" lon="-3.9402430">
        <ele>611.2</ele>
        <time>2021-12-27T15:55:45Z</time>
      </trkpt>
      <trkpt lat="37.7668740" lon="-3.9402430">
        <ele>611.2</ele>
        <time>2021-12-27T15:55:46Z</time>
      </trkpt>
      <trkpt lat="37.7668740" lon="-3.9402430">
        <ele>611.2</ele>
        <time>2021-12-27T15:55:47Z</time>
      </trkpt>
      <trkpt lat="37.7668740" lon="-3.9402430">
        <ele>611.2</ele>
        <time>2021-12-27T15:55:48Z</time>
      </trkpt>
      <trkpt lat="37.7668740" lon="-3.9402430">
        <ele>611.2</ele>
        <time>2021-12-27T15:55:49Z</time>
      </trkpt>
      <trkpt lat="37.7668740" lon="-3.9402430">
        <ele>611.2</ele>
        <time>2021-12-27T15:55:50Z</time>
      </trkpt>
      <trkpt lat="37.7668740" lon="-3.9402430">
        <ele>611.2</ele>
        <time>2021-12-27T15:55:51Z</time>
      </trkpt>
      <trkpt lat="37.7668740" lon="-3.9402430">
        <ele>611.2</ele>
        <time>2021-12-27T15:55:52Z</time>
      </trkpt>
      <trkpt lat="37.7668740" lon="-3.9402430">
        <ele>611.2</ele>
        <time>2021-12-27T15:55:53Z</time>
      </trkpt>
      <trkpt lat="37.7668740" lon="-3.9402430">
        <ele>611.2</ele>
        <time>2021-12-27T15:55:54Z</time>
      </trkpt>
      <trkpt lat="37.7668740" lon="-3.9402430">
        <ele>611.2</ele>
        <time>2021-12-27T15:55:55Z</time>
      </trkpt>
      <trkpt lat="37.7668740" lon="-3.9402430">
        <ele>611.2</ele>
        <time>2021-12-27T15:55:56Z</time>
      </trkpt>
      <trkpt lat="37.7668740" lon="-3.9402430">
        <ele>611.2</ele>
        <time>2021-12-27T15:55:57Z</time>
      </trkpt>
      <trkpt lat="37.7668740" lon="-3.9402430">
        <ele>611.2</ele>
        <time>2021-12-27T15:55:58Z</time>
      </trkpt>
      <trkpt lat="37.7668740" lon="-3.9402430">
        <ele>611.2</ele>
        <time>2021-12-27T15:55:59Z</time>
      </trkpt>
      <trkpt lat="37.7668740" lon="-3.9402430">
        <ele>611.2</ele>
        <time>2021-12-27T15:56:00Z</time>
      </trkpt>
      <trkpt lat="37.7668740" lon="-3.9402430">
        <ele>611.2</ele>
        <time>2021-12-27T15:56:01Z</time>
      </trkpt>
      <trkpt lat="37.7668740" lon="-3.9402430">
        <ele>611.2</ele>
        <time>2021-12-27T15:56:02Z</time>
      </trkpt>
      <trkpt lat="37.7668740" lon="-3.9402430">
        <ele>611.2</ele>
        <time>2021-12-27T15:56:03Z</time>
      </trkpt>
      <trkpt lat="37.7668740" lon="-3.9402430">
        <ele>611.2</ele>
        <time>2021-12-27T15:56:04Z</time>
      </trkpt>
      <trkpt lat="37.7668740" lon="-3.9402430">
        <ele>611.2</ele>
        <time>2021-12-27T15:56:05Z</time>
      </trkpt>
      <trkpt lat="37.7668740" lon="-3.9402430">
        <ele>611.2</ele>
        <time>2021-12-27T15:56:06Z</time>
      </trkpt>
      <trkpt lat="37.7668740" lon="-3.9402430">
        <ele>611.2</ele>
        <time>2021-12-27T15:56:07Z</time>
      </trkpt>
      <trkpt lat="37.7668740" lon="-3.9402430">
        <ele>611.2</ele>
        <time>2021-12-27T15:56:08Z</time>
      </trkpt>
      <trkpt lat="37.7668740" lon="-3.9402430">
        <ele>611.2</ele>
        <time>2021-12-27T15:56:09Z</time>
      </trkpt>
      <trkpt lat="37.7668740" lon="-3.9402430">
        <ele>611.2</ele>
        <time>2021-12-27T15:56:10Z</time>
      </trkpt>
      <trkpt lat="37.7668740" lon="-3.9402430">
        <ele>611.2</ele>
        <time>2021-12-27T15:56:11Z</time>
      </trkpt>
      <trkpt lat="37.7668740" lon="-3.9402430">
        <ele>611.2</ele>
        <time>2021-12-27T15:56:12Z</time>
      </trkpt>
      <trkpt lat="37.7668740" lon="-3.9402430">
        <ele>611.2</ele>
        <time>2021-12-27T15:56:13Z</time>
      </trkpt>
      <trkpt lat="37.7668740" lon="-3.9402430">
        <ele>611.2</ele>
        <time>2021-12-27T15:56:14Z</time>
      </trkpt>
      <trkpt lat="37.7668740" lon="-3.9402430">
        <ele>611.2</ele>
        <time>2021-12-27T15:56:15Z</time>
      </trkpt>
      <trkpt lat="37.7668740" lon="-3.9402430">
        <ele>611.2</ele>
        <time>2021-12-27T15:56:16Z</time>
      </trkpt>
      <trkpt lat="37.7668740" lon="-3.9402430">
        <ele>611.2</ele>
        <time>2021-12-27T15:56:17Z</time>
      </trkpt>
      <trkpt lat="37.7668740" lon="-3.9402430">
        <ele>611.2</ele>
        <time>2021-12-27T15:56:18Z</time>
      </trkpt>
      <trkpt lat="37.7668740" lon="-3.9402430">
        <ele>611.2</ele>
        <time>2021-12-27T15:56:19Z</time>
      </trkpt>
      <trkpt lat="37.7668740" lon="-3.9402430">
        <ele>611.2</ele>
        <time>2021-12-27T15:56:20Z</time>
      </trkpt>
      <trkpt lat="37.7668740" lon="-3.9402430">
        <ele>611.2</ele>
        <time>2021-12-27T15:56:21Z</time>
      </trkpt>
      <trkpt lat="37.7668740" lon="-3.9402430">
        <ele>611.2</ele>
        <time>2021-12-27T15:56:22Z</time>
      </trkpt>
      <trkpt lat="37.7668740" lon="-3.9402430">
        <ele>611.2</ele>
        <time>2021-12-27T15:56:23Z</time>
      </trkpt>
      <trkpt lat="37.7668740" lon="-3.9402430">
        <ele>611.2</ele>
        <time>2021-12-27T15:56:24Z</time>
      </trkpt>
      <trkpt lat="37.7668740" lon="-3.9402430">
        <ele>611.2</ele>
        <time>2021-12-27T15:56:25Z</time>
      </trkpt>
      <trkpt lat="37.7668740" lon="-3.9402430">
        <ele>611.2</ele>
        <time>2021-12-27T15:56:26Z</time>
      </trkpt>
      <trkpt lat="37.7668740" lon="-3.9402430">
        <ele>611.2</ele>
        <time>2021-12-27T15:56:27Z</time>
      </trkpt>
      <trkpt lat="37.7668740" lon="-3.9402430">
        <ele>611.2</ele>
        <time>2021-12-27T15:56:28Z</time>
      </trkpt>
      <trkpt lat="37.7668740" lon="-3.9402430">
        <ele>611.2</ele>
        <time>2021-12-27T15:56:29Z</time>
      </trkpt>
      <trkpt lat="37.7668740" lon="-3.9402430">
        <ele>611.2</ele>
        <time>2021-12-27T15:56:30Z</time>
      </trkpt>
      <trkpt lat="37.7668740" lon="-3.9402430">
        <ele>611.2</ele>
        <time>2021-12-27T15:56:31Z</time>
      </trkpt>
      <trkpt lat="37.7668740" lon="-3.9402430">
        <ele>611.2</ele>
        <time>2021-12-27T15:56:32Z</time>
      </trkpt>
      <trkpt lat="37.7668740" lon="-3.9402430">
        <ele>611.2</ele>
        <time>2021-12-27T15:56:33Z</time>
      </trkpt>
      <trkpt lat="37.7668740" lon="-3.9402430">
        <ele>611.2</ele>
        <time>2021-12-27T15:56:34Z</time>
      </trkpt>
      <trkpt lat="37.7668740" lon="-3.9402430">
        <ele>611.2</ele>
        <time>2021-12-27T15:56:35Z</time>
      </trkpt>
      <trkpt lat="37.7668740" lon="-3.9402430">
        <ele>611.2</ele>
        <time>2021-12-27T15:56:36Z</time>
      </trkpt>
      <trkpt lat="37.7668740" lon="-3.9402430">
        <ele>611.2</ele>
        <time>2021-12-27T15:56:37Z</time>
      </trkpt>
      <trkpt lat="37.7668740" lon="-3.9402430">
        <ele>611.2</ele>
        <time>2021-12-27T15:56:38Z</time>
      </trkpt>
      <trkpt lat="37.7668740" lon="-3.9402430">
        <ele>611.2</ele>
        <time>2021-12-27T15:56:39Z</time>
      </trkpt>
      <trkpt lat="37.7668740" lon="-3.9402430">
        <ele>611.2</ele>
        <time>2021-12-27T15:56:40Z</time>
      </trkpt>
      <trkpt lat="37.7668740" lon="-3.9402430">
        <ele>611.2</ele>
        <time>2021-12-27T15:56:41Z</time>
      </trkpt>
      <trkpt lat="37.7668740" lon="-3.9402430">
        <ele>611.2</ele>
        <time>2021-12-27T15:56:42Z</time>
      </trkpt>
      <trkpt lat="37.7668740" lon="-3.9402430">
        <ele>611.2</ele>
        <time>2021-12-27T15:56:43Z</time>
      </trkpt>
      <trkpt lat="37.7668740" lon="-3.9402430">
        <ele>611.2</ele>
        <time>2021-12-27T15:56:44Z</time>
      </trkpt>
      <trkpt lat="37.7668740" lon="-3.9402430">
        <ele>611.2</ele>
        <time>2021-12-27T15:56:45Z</time>
      </trkpt>
      <trkpt lat="37.7668740" lon="-3.9402430">
        <ele>611.2</ele>
        <time>2021-12-27T15:56:46Z</time>
      </trkpt>
      <trkpt lat="37.7668740" lon="-3.9402430">
        <ele>611.2</ele>
        <time>2021-12-27T15:56:47Z</time>
      </trkpt>
      <trkpt lat="37.7668740" lon="-3.9402430">
        <ele>611.2</ele>
        <time>2021-12-27T15:56:48Z</time>
      </trkpt>
      <trkpt lat="37.7668740" lon="-3.9402430">
        <ele>611.2</ele>
        <time>2021-12-27T15:56:49Z</time>
      </trkpt>
      <trkpt lat="37.7668740" lon="-3.9402430">
        <ele>611.2</ele>
        <time>2021-12-27T15:56:50Z</time>
      </trkpt>
      <trkpt lat="37.7668740" lon="-3.9402430">
        <ele>611.2</ele>
        <time>2021-12-27T15:56:51Z</time>
      </trkpt>
      <trkpt lat="37.7650210" lon="-3.9407570">
        <ele>611.6</ele>
        <time>2021-12-27T15:56:52Z</time>
      </trkpt>
      <trkpt lat="37.7650530" lon="-3.9407930">
        <ele>611.8</ele>
        <time>2021-12-27T15:56:53Z</time>
      </trkpt>
      <trkpt lat="37.7650850" lon="-3.9408300">
        <ele>612.0</ele>
        <time>2021-12-27T15:56:54Z</time>
      </trkpt>
      <trkpt lat="37.7650590" lon="-3.9408400">
        <ele>612.0</ele>
        <time>2021-12-27T15:56:55Z</time>
      </trkpt>
      <trkpt lat="37.7650300" lon="-3.9408570">
        <ele>612.2</ele>
        <time>2021-12-27T15:56:56Z</time>
      </trkpt>
      <trkpt lat="37.7650080" lon="-3.9408650">
        <ele>612.4</ele>
        <time>2021-12-27T15:56:57Z</time>
      </trkpt>
      <trkpt lat="37.7649760" lon="-3.9408900">
        <ele>612.4</ele>
        <time>2021-12-27T15:56:58Z</time>
      </trkpt>
      <trkpt lat="37.7649540" lon="-3.9409120">
        <ele>612.6</ele>
        <time>2021-12-27T15:56:59Z</time>
      </trkpt>
      <trkpt lat="37.7649340" lon="-3.9409280">
        <ele>612.6</ele>
        <time>2021-12-27T15:57:00Z</time>
      </trkpt>
      <trkpt lat="37.7649150" lon="-3.9409430">
        <ele>612.6</ele>
        <time>2021-12-27T15:57:01Z</time>
      </trkpt>
      <trkpt lat="37.7649150" lon="-3.9409430">
        <ele>612.8</ele>
        <time>2021-12-27T15:57:02Z</time>
      </trkpt>
      <trkpt lat="37.7649150" lon="-3.9409430">
        <ele>612.8</ele>
        <time>2021-12-27T15:57:03Z</time>
      </trkpt>
      <trkpt lat="37.7649150" lon="-3.9409430">
        <ele>613.0</ele>
        <time>2021-12-27T15:57:04Z</time>
      </trkpt>
      <trkpt lat="37.7649150" lon="-3.9409430">
        <ele>613.2</ele>
        <time>2021-12-27T15:57:05Z</time>
      </trkpt>
      <trkpt lat="37.7649150" lon="-3.9409430">
        <ele>613.4</ele>
        <time>2021-12-27T15:57:06Z</time>
      </trkpt>
      <trkpt lat="37.7649150" lon="-3.9409430">
        <ele>613.6</ele>
        <time>2021-12-27T15:57:07Z</time>
      </trkpt>
      <trkpt lat="37.7648320" lon="-3.9410250">
        <ele>614.6</ele>
        <time>2021-12-27T15:57:33Z</time>
      </trkpt>
      <trkpt lat="37.7648130" lon="-3.9410520">
        <ele>614.6</ele>
        <time>2021-12-27T15:57:34Z</time>
      </trkpt>
      <trkpt lat="37.7647900" lon="-3.9410770">
        <ele>614.6</ele>
        <time>2021-12-27T15:57:35Z</time>
      </trkpt>
      <trkpt lat="37.7647680" lon="-3.9411020">
        <ele>614.6</ele>
        <time>2021-12-27T15:57:36Z</time>
      </trkpt>
      <trkpt lat="37.7647490" lon="-3.9411230">
        <ele>614.6</ele>
        <time>2021-12-27T15:57:37Z</time>
      </trkpt>
      <trkpt lat="37.7647230" lon="-3.9411450">
        <ele>614.8</ele>
        <time>2021-12-27T15:57:38Z</time>
      </trkpt>
      <trkpt lat="37.7647230" lon="-3.9411450">
        <ele>614.8</ele>
        <time>2021-12-27T15:57:39Z</time>
      </trkpt>
      <trkpt lat="37.7646980" lon="-3.9411780">
        <ele>614.8</ele>
        <time>2021-12-27T15:57:40Z</time>
      </trkpt>
      <trkpt lat="37.7646780" lon="-3.9411980">
        <ele>614.8</ele>
        <time>2021-12-27T15:57:41Z</time>
      </trkpt>
      <trkpt lat="37.7646590" lon="-3.9412200">
        <ele>614.8</ele>
        <time>2021-12-27T15:57:42Z</time>
      </trkpt>
      <trkpt lat="37.7646400" lon="-3.9412380">
        <ele>614.8</ele>
        <time>2021-12-27T15:57:43Z</time>
      </trkpt>
      <trkpt lat="37.7646300" lon="-3.9412600">
        <ele>614.8</ele>
        <time>2021-12-27T15:57:44Z</time>
      </trkpt>
      <trkpt lat="37.7646140" lon="-3.9412830">
        <ele>614.8</ele>
        <time>2021-12-27T15:57:45Z</time>
      </trkpt>
      <trkpt lat="37.7645980" lon="-3.9413030">
        <ele>614.8</ele>
        <time>2021-12-27T15:57:46Z</time>
      </trkpt>
      <trkpt lat="37.7645820" lon="-3.9413230">
        <ele>615.0</ele>
        <time>2021-12-27T15:57:47Z</time>
      </trkpt>
      <trkpt lat="37.7645700" lon="-3.9413420">
        <ele>615.0</ele>
        <time>2021-12-27T15:57:48Z</time>
      </trkpt>
      <trkpt lat="37.7645570" lon="-3.9413600">
        <ele>615.0</ele>
        <time>2021-12-27T15:57:49Z</time>
      </trkpt>
      <trkpt lat="37.7645570" lon="-3.9413600">
        <ele>615.2</ele>
        <time>2021-12-27T15:57:50Z</time>
      </trkpt>
      <trkpt lat="37.7645340" lon="-3.9413920">
        <ele>615.2</ele>
        <time>2021-12-27T15:57:51Z</time>
      </trkpt>
      <trkpt lat="37.7645340" lon="-3.9413920">
        <ele>615.4</ele>
        <time>2021-12-27T15:57:52Z</time>
      </trkpt>
      <trkpt lat="37.7645150" lon="-3.9414220">
        <ele>615.4</ele>
        <time>2021-12-27T15:57:53Z</time>
      </trkpt>
      <trkpt lat="37.7645150" lon="-3.9414220">
        <ele>615.6</ele>
        <time>2021-12-27T15:57:54Z</time>
      </trkpt>
      <trkpt lat="37.7644900" lon="-3.9414540">
        <ele>615.6</ele>
        <time>2021-12-27T15:57:55Z</time>
      </trkpt>
      <trkpt lat="37.7644770" lon="-3.9414730">
        <ele>615.8</ele>
        <time>2021-12-27T15:57:56Z</time>
      </trkpt>
      <trkpt lat="37.7644610" lon="-3.9414920">
        <ele>615.8</ele>
        <time>2021-12-27T15:57:57Z</time>
      </trkpt>
      <trkpt lat="37.7644610" lon="-3.9414920">
        <ele>615.8</ele>
        <time>2021-12-27T15:57:58Z</time>
      </trkpt>
      <trkpt lat="37.7644350" lon="-3.9415250">
        <ele>615.8</ele>
        <time>2021-12-27T15:57:59Z</time>
      </trkpt>
      <trkpt lat="37.7644220" lon="-3.9415420">
        <ele>615.8</ele>
        <time>2021-12-27T15:58:00Z</time>
      </trkpt>
      <trkpt lat="37.7644220" lon="-3.9415420">
        <ele>615.8</ele>
        <time>2021-12-27T15:58:01Z</time>
      </trkpt>
      <trkpt lat="37.7644030" lon="-3.9415680">
        <ele>615.8</ele>
        <time>2021-12-27T15:58:02Z</time>
      </trkpt>
      <trkpt lat="37.7644030" lon="-3.9415680">
        <ele>615.8</ele>
        <time>2021-12-27T15:58:03Z</time>
      </trkpt>
      <trkpt lat="37.7643810" lon="-3.9415950">
        <ele>615.8</ele>
        <time>2021-12-27T15:58:04Z</time>
      </trkpt>
      <trkpt lat="37.7643710" lon="-3.9416160">
        <ele>615.8</ele>
        <time>2021-12-27T15:58:05Z</time>
      </trkpt>
      <trkpt lat="37.7643710" lon="-3.9416160">
        <ele>616.0</ele>
        <time>2021-12-27T15:58:06Z</time>
      </trkpt>
      <trkpt lat="37.7643420" lon="-3.9416450">
        <ele>616.0</ele>
        <time>2021-12-27T15:58:07Z</time>
      </trkpt>
      <trkpt lat="37.7643300" lon="-3.9416650">
        <ele>616.0</ele>
        <time>2021-12-27T15:58:08Z</time>
      </trkpt>
      <trkpt lat="37.7643140" lon="-3.9416820">
        <ele>616.0</ele>
        <time>2021-12-27T15:58:09Z</time>
      </trkpt>
      <trkpt lat="37.7642980" lon="-3.9416980">
        <ele>616.2</ele>
        <time>2021-12-27T15:58:10Z</time>
      </trkpt>
      <trkpt lat="37.7642820" lon="-3.9417180">
        <ele>616.2</ele>
        <time>2021-12-27T15:58:11Z</time>
      </trkpt>
      <trkpt lat="37.7642720" lon="-3.9417420">
        <ele>616.2</ele>
        <time>2021-12-27T15:58:12Z</time>
      </trkpt>
      <trkpt lat="37.7642560" lon="-3.9417620">
        <ele>616.2</ele>
        <time>2021-12-27T15:58:13Z</time>
      </trkpt>
      <trkpt lat="37.7642400" lon="-3.9417820">
        <ele>616.2</ele>
        <time>2021-12-27T15:58:14Z</time>
      </trkpt>
      <trkpt lat="37.7642400" lon="-3.9417820">
        <ele>616.2</ele>
        <time>2021-12-27T15:58:15Z</time>
      </trkpt>
      <trkpt lat="37.7642180" lon="-3.9418170">
        <ele>616.2</ele>
        <time>2021-12-27T15:58:16Z</time>
      </trkpt>
      <trkpt lat="37.7642050" lon="-3.9418330">
        <ele>616.2</ele>
        <time>2021-12-27T15:58:17Z</time>
      </trkpt>
      <trkpt lat="37.7642050" lon="-3.9418330">
        <ele>616.0</ele>
        <time>2021-12-27T15:58:18Z</time>
      </trkpt>
      <trkpt lat="37.7641860" lon="-3.9418670">
        <ele>616.2</ele>
        <time>2021-12-27T15:58:19Z</time>
      </trkpt>
      <trkpt lat="37.7641860" lon="-3.9418670">
        <ele>616.2</ele>
        <time>2021-12-27T15:58:20Z</time>
      </trkpt>
      <trkpt lat="37.7641630" lon="-3.9418920">
        <ele>616.2</ele>
        <time>2021-12-27T15:58:21Z</time>
      </trkpt>
      <trkpt lat="37.7641630" lon="-3.9418920">
        <ele>616.4</ele>
        <time>2021-12-27T15:58:22Z</time>
      </trkpt>
      <trkpt lat="37.7641440" lon="-3.9419250">
        <ele>616.4</ele>
        <time>2021-12-27T15:58:23Z</time>
      </trkpt>
      <trkpt lat="37.7641440" lon="-3.9419250">
        <ele>616.4</ele>
        <time>2021-12-27T15:58:24Z</time>
      </trkpt>
      <trkpt lat="37.7641180" lon="-3.9419540">
        <ele>616.4</ele>
        <time>2021-12-27T15:58:25Z</time>
      </trkpt>
      <trkpt lat="37.7641180" lon="-3.9419540">
        <ele>616.4</ele>
        <time>2021-12-27T15:58:26Z</time>
      </trkpt>
      <trkpt lat="37.7641020" lon="-3.9419780">
        <ele>616.2</ele>
        <time>2021-12-27T15:58:27Z</time>
      </trkpt>
      <trkpt lat="37.7641020" lon="-3.9419780">
        <ele>616.2</ele>
        <time>2021-12-27T15:58:28Z</time>
      </trkpt>
      <trkpt lat="37.7640800" lon="-3.9420100">
        <ele>616.2</ele>
        <time>2021-12-27T15:58:29Z</time>
      </trkpt>
      <trkpt lat="37.7640640" lon="-3.9420280">
        <ele>616.2</ele>
        <time>2021-12-27T15:58:30Z</time>
      </trkpt>
      <trkpt lat="37.7640640" lon="-3.9420280">
        <ele>616.2</ele>
        <time>2021-12-27T15:58:31Z</time>
      </trkpt>
      <trkpt lat="37.7640420" lon="-3.9420620">
        <ele>616.4</ele>
        <time>2021-12-27T15:58:32Z</time>
      </trkpt>
      <trkpt lat="37.7640420" lon="-3.9420620">
        <ele>616.4</ele>
        <time>2021-12-27T15:58:33Z</time>
      </trkpt>
      <trkpt lat="37.7640190" lon="-3.9420950">
        <ele>616.4</ele>
        <time>2021-12-27T15:58:34Z</time>
      </trkpt>
      <trkpt lat="37.7640060" lon="-3.9421150">
        <ele>616.4</ele>
        <time>2021-12-27T15:58:35Z</time>
      </trkpt>
      <trkpt lat="37.7639970" lon="-3.9421350">
        <ele>616.4</ele>
        <time>2021-12-27T15:58:36Z</time>
      </trkpt>
      <trkpt lat="37.7639840" lon="-3.9421550">
        <ele>616.4</ele>
        <time>2021-12-27T15:58:37Z</time>
      </trkpt>
      <trkpt lat="37.7639740" lon="-3.9421760">
        <ele>616.2</ele>
        <time>2021-12-27T15:58:38Z</time>
      </trkpt>
      <trkpt lat="37.7639620" lon="-3.9421950">
        <ele>616.2</ele>
        <time>2021-12-27T15:58:39Z</time>
      </trkpt>
      <trkpt lat="37.7639490" lon="-3.9422120">
        <ele>616.2</ele>
        <time>2021-12-27T15:58:40Z</time>
      </trkpt>
      <trkpt lat="37.7639490" lon="-3.9422120">
        <ele>616.2</ele>
        <time>2021-12-27T15:58:41Z</time>
      </trkpt>
      <trkpt lat="37.7639260" lon="-3.9422500">
        <ele>616.2</ele>
        <time>2021-12-27T15:58:42Z</time>
      </trkpt>
      <trkpt lat="37.7639260" lon="-3.9422500">
        <ele>616.2</ele>
        <time>2021-12-27T15:58:43Z</time>
      </trkpt>
      <trkpt lat="37.7639070" lon="-3.9422870">
        <ele>616.2</ele>
        <time>2021-12-27T15:58:44Z</time>
      </trkpt>
      <trkpt lat="37.7638980" lon="-3.9423100">
        <ele>616.2</ele>
        <time>2021-12-27T15:58:45Z</time>
      </trkpt>
      <trkpt lat="37.7638820" lon="-3.9423280">
        <ele>616.2</ele>
        <time>2021-12-27T15:58:46Z</time>
      </trkpt>
      <trkpt lat="37.7638690" lon="-3.9423480">
        <ele>616.2</ele>
        <time>2021-12-27T15:58:47Z</time>
      </trkpt>
      <trkpt lat="37.7638560" lon="-3.9423700">
        <ele>616.2</ele>
        <time>2021-12-27T15:58:48Z</time>
      </trkpt>
      <trkpt lat="37.7638400" lon="-3.9423920">
        <ele>616.2</ele>
        <time>2021-12-27T15:58:49Z</time>
      </trkpt>
      <trkpt lat="37.7638240" lon="-3.9424170">
        <ele>616.4</ele>
        <time>2021-12-27T15:58:50Z</time>
      </trkpt>
      <trkpt lat="37.7638080" lon="-3.9424380">
        <ele>616.4</ele>
        <time>2021-12-27T15:58:51Z</time>
      </trkpt>
      <trkpt lat="37.7637890" lon="-3.9424620">
        <ele>616.4</ele>
        <time>2021-12-27T15:58:52Z</time>
      </trkpt>
      <trkpt lat="37.7637760" lon="-3.9424870">
        <ele>616.4</ele>
        <time>2021-12-27T15:58:53Z</time>
      </trkpt>
      <trkpt lat="37.7637600" lon="-3.9425070">
        <ele>616.4</ele>
        <time>2021-12-27T15:58:54Z</time>
      </trkpt>
      <trkpt lat="37.7637440" lon="-3.9425260">
        <ele>616.4</ele>
        <time>2021-12-27T15:58:55Z</time>
      </trkpt>
      <trkpt lat="37.7637340" lon="-3.9425500">
        <ele>616.4</ele>
        <time>2021-12-27T15:58:56Z</time>
      </trkpt>
      <trkpt lat="37.7637180" lon="-3.9425720">
        <ele>616.4</ele>
        <time>2021-12-27T15:58:57Z</time>
      </trkpt>
      <trkpt lat="37.7637060" lon="-3.9425930">
        <ele>616.4</ele>
        <time>2021-12-27T15:58:58Z</time>
      </trkpt>
      <trkpt lat="37.7636860" lon="-3.9426170">
        <ele>616.4</ele>
        <time>2021-12-27T15:58:59Z</time>
      </trkpt>
      <trkpt lat="37.7636700" lon="-3.9426400">
        <ele>616.4</ele>
        <time>2021-12-27T15:59:00Z</time>
      </trkpt>
      <trkpt lat="37.7636540" lon="-3.9426630">
        <ele>616.4</ele>
        <time>2021-12-27T15:59:01Z</time>
      </trkpt>
      <trkpt lat="37.7636350" lon="-3.9426880">
        <ele>616.4</ele>
        <time>2021-12-27T15:59:02Z</time>
      </trkpt>
      <trkpt lat="37.7636190" lon="-3.9427230">
        <ele>616.4</ele>
        <time>2021-12-27T15:59:03Z</time>
      </trkpt>
      <trkpt lat="37.7635970" lon="-3.9427430">
        <ele>616.4</ele>
        <time>2021-12-27T15:59:04Z</time>
      </trkpt>
      <trkpt lat="37.7635780" lon="-3.9427630">
        <ele>616.6</ele>
        <time>2021-12-27T15:59:05Z</time>
      </trkpt>
      <trkpt lat="37.7635550" lon="-3.9427880">
        <ele>616.6</ele>
        <time>2021-12-27T15:59:06Z</time>
      </trkpt>
      <trkpt lat="37.7635390" lon="-3.9428100">
        <ele>616.6</ele>
        <time>2021-12-27T15:59:07Z</time>
      </trkpt>
      <trkpt lat="37.7635100" lon="-3.9428320">
        <ele>616.6</ele>
        <time>2021-12-27T15:59:08Z</time>
      </trkpt>
      <trkpt lat="37.7634910" lon="-3.9428520">
        <ele>616.8</ele>
        <time>2021-12-27T15:59:09Z</time>
      </trkpt>
      <trkpt lat="37.7634910" lon="-3.9428520">
        <ele>616.8</ele>
        <time>2021-12-27T15:59:10Z</time>
      </trkpt>
      <trkpt lat="37.7634690" lon="-3.9428850">
        <ele>616.8</ele>
        <time>2021-12-27T15:59:11Z</time>
      </trkpt>
      <trkpt lat="37.7634690" lon="-3.9428850">
        <ele>616.8</ele>
        <time>2021-12-27T15:59:12Z</time>
      </trkpt>
      <trkpt lat="37.7634690" lon="-3.9428850">
        <ele>617.0</ele>
        <time>2021-12-27T15:59:13Z</time>
      </trkpt>
      <trkpt lat="37.7634560" lon="-3.9429070">
        <ele>617.0</ele>
        <time>2021-12-27T15:59:14Z</time>
      </trkpt>
      <trkpt lat="37.7634560" lon="-3.9429070">
        <ele>617.2</ele>
        <time>2021-12-27T15:59:15Z</time>
      </trkpt>
      <trkpt lat="37.7634560" lon="-3.9429070">
        <ele>617.2</ele>
        <time>2021-12-27T15:59:16Z</time>
      </trkpt>
      <trkpt lat="37.7634560" lon="-3.9429070">
        <ele>617.4</ele>
        <time>2021-12-27T15:59:17Z</time>
      </trkpt>
      <trkpt lat="37.7633820" lon="-3.9430220">
        <ele>618.8</ele>
        <time>2021-12-27T15:59:27Z</time>
      </trkpt>
      <trkpt lat="37.7633820" lon="-3.9430220">
        <ele>619.0</ele>
        <time>2021-12-27T15:59:28Z</time>
      </trkpt>
      <trkpt lat="37.7633470" lon="-3.9430480">
        <ele>619.2</ele>
        <time>2021-12-27T15:59:29Z</time>
      </trkpt>
      <trkpt lat="37.7633120" lon="-3.9430680">
        <ele>619.2</ele>
        <time>2021-12-27T15:59:30Z</time>
      </trkpt>
      <trkpt lat="37.7632860" lon="-3.9430830">
        <ele>619.4</ele>
        <time>2021-12-27T15:59:31Z</time>
      </trkpt>
      <trkpt lat="37.7632510" lon="-3.9431030">
        <ele>619.6</ele>
        <time>2021-12-27T15:59:32Z</time>
      </trkpt>
      <trkpt lat="37.7632260" lon="-3.9431220">
        <ele>619.8</ele>
        <time>2021-12-27T15:59:33Z</time>
      </trkpt>
      <trkpt lat="37.7631900" lon="-3.9431420">
        <ele>620.0</ele>
        <time>2021-12-27T15:59:34Z</time>
      </trkpt>
      <trkpt lat="37.7631620" lon="-3.9431580">
        <ele>620.0</ele>
        <time>2021-12-27T15:59:35Z</time>
      </trkpt>
      <trkpt lat="37.7631300" lon="-3.9431720">
        <ele>620.2</ele>
        <time>2021-12-27T15:59:36Z</time>
      </trkpt>
      <trkpt lat="37.7631010" lon="-3.9431880">
        <ele>620.4</ele>
        <time>2021-12-27T15:59:37Z</time>
      </trkpt>
      <trkpt lat="37.7630690" lon="-3.9432020">
        <ele>620.6</ele>
        <time>2021-12-27T15:59:38Z</time>
      </trkpt>
      <trkpt lat="37.7630430" lon="-3.9432150">
        <ele>620.6</ele>
        <time>2021-12-27T15:59:39Z</time>
      </trkpt>
      <trkpt lat="37.7630140" lon="-3.9432320">
        <ele>620.8</ele>
        <time>2021-12-27T15:59:40Z</time>
      </trkpt>
      <trkpt lat="37.7629860" lon="-3.9432470">
        <ele>620.8</ele>
        <time>2021-12-27T15:59:41Z</time>
      </trkpt>
      <trkpt lat="37.7629600" lon="-3.9432620">
        <ele>621.0</ele>
        <time>2021-12-27T15:59:42Z</time>
      </trkpt>
      <trkpt lat="37.7629280" lon="-3.9432780">
        <ele>621.0</ele>
        <time>2021-12-27T15:59:43Z</time>
      </trkpt>
      <trkpt lat="37.7628930" lon="-3.9432920">
        <ele>621.0</ele>
        <time>2021-12-27T15:59:44Z</time>
      </trkpt>
      <trkpt lat="37.7628640" lon="-3.9433050">
        <ele>621.2</ele>
        <time>2021-12-27T15:59:45Z</time>
      </trkpt>
      <trkpt lat="37.7628320" lon="-3.9433220">
        <ele>621.2</ele>
        <time>2021-12-27T15:59:46Z</time>
      </trkpt>
      <trkpt lat="37.7628030" lon="-3.9433330">
        <ele>621.4</ele>
        <time>2021-12-27T15:59:47Z</time>
      </trkpt>
      <trkpt lat="37.7627740" lon="-3.9433470">
        <ele>621.4</ele>
        <time>2021-12-27T15:59:48Z</time>
      </trkpt>
      <trkpt lat="37.7627520" lon="-3.9433570">
        <ele>621.4</ele>
        <time>2021-12-27T15:59:49Z</time>
      </trkpt>
      <trkpt lat="37.7627330" lon="-3.9433680">
        <ele>621.6</ele>
        <time>2021-12-27T15:59:50Z</time>
      </trkpt>
      <trkpt lat="37.7627140" lon="-3.9433780">
        <ele>621.6</ele>
        <time>2021-12-27T15:59:51Z</time>
      </trkpt>
      <trkpt lat="37.7626910" lon="-3.9433880">
        <ele>621.8</ele>
        <time>2021-12-27T15:59:52Z</time>
      </trkpt>
      <trkpt lat="37.7626720" lon="-3.9433980">
        <ele>621.8</ele>
        <time>2021-12-27T15:59:53Z</time>
      </trkpt>
      <trkpt lat="37.7626720" lon="-3.9433980">
        <ele>622.0</ele>
        <time>2021-12-27T15:59:54Z</time>
      </trkpt>
      <trkpt lat="37.7626430" lon="-3.9434160">
        <ele>622.0</ele>
        <time>2021-12-27T15:59:55Z</time>
      </trkpt>
      <trkpt lat="37.7626430" lon="-3.9434160">
        <ele>622.2</ele>
        <time>2021-12-27T15:59:56Z</time>
      </trkpt>
      <trkpt lat="37.7626110" lon="-3.9434330">
        <ele>622.2</ele>
        <time>2021-12-27T15:59:57Z</time>
      </trkpt>
      <trkpt lat="37.7626110" lon="-3.9434330">
        <ele>622.2</ele>
        <time>2021-12-27T15:59:58Z</time>
      </trkpt>
      <trkpt lat="37.7625860" lon="-3.9434480">
        <ele>622.2</ele>
        <time>2021-12-27T15:59:59Z</time>
      </trkpt>
      <trkpt lat="37.7625500" lon="-3.9434680">
        <ele>622.4</ele>
        <time>2021-12-27T16:00:01Z</time>
      </trkpt>
      <trkpt lat="37.7625340" lon="-3.9434800">
        <ele>622.4</ele>
        <time>2021-12-27T16:00:02Z</time>
      </trkpt>
      <trkpt lat="37.7625340" lon="-3.9434800">
        <ele>622.4</ele>
        <time>2021-12-27T16:00:03Z</time>
      </trkpt>
      <trkpt lat="37.7625090" lon="-3.9434980">
        <ele>622.4</ele>
        <time>2021-12-27T16:00:04Z</time>
      </trkpt>
      <trkpt lat="37.7625090" lon="-3.9434980">
        <ele>622.6</ele>
        <time>2021-12-27T16:00:05Z</time>
      </trkpt>
      <trkpt lat="37.7624900" lon="-3.9435130">
        <ele>622.6</ele>
        <time>2021-12-27T16:00:06Z</time>
      </trkpt>
      <trkpt lat="37.7624900" lon="-3.9435130">
        <ele>622.8</ele>
        <time>2021-12-27T16:00:07Z</time>
      </trkpt>
      <trkpt lat="37.7624640" lon="-3.9435280">
        <ele>622.8</ele>
        <time>2021-12-27T16:00:08Z</time>
      </trkpt>
      <trkpt lat="37.7624480" lon="-3.9435420">
        <ele>622.8</ele>
        <time>2021-12-27T16:00:09Z</time>
      </trkpt>
      <trkpt lat="37.7624320" lon="-3.9435540">
        <ele>622.8</ele>
        <time>2021-12-27T16:00:10Z</time>
      </trkpt>
      <trkpt lat="37.7624130" lon="-3.9435650">
        <ele>622.8</ele>
        <time>2021-12-27T16:00:11Z</time>
      </trkpt>
      <trkpt lat="37.7623870" lon="-3.9435800">
        <ele>622.8</ele>
        <time>2021-12-27T16:00:12Z</time>
      </trkpt>
      <trkpt lat="37.7623650" lon="-3.9435950">
        <ele>623.0</ele>
        <time>2021-12-27T16:00:13Z</time>
      </trkpt>
      <trkpt lat="37.7623360" lon="-3.9436100">
        <ele>623.0</ele>
        <time>2021-12-27T16:00:14Z</time>
      </trkpt>
      <trkpt lat="37.7623140" lon="-3.9436250">
        <ele>623.0</ele>
        <time>2021-12-27T16:00:15Z</time>
      </trkpt>
      <trkpt lat="37.7622910" lon="-3.9436400">
        <ele>623.0</ele>
        <time>2021-12-27T16:00:16Z</time>
      </trkpt>
      <trkpt lat="37.7622690" lon="-3.9436530">
        <ele>623.0</ele>
        <time>2021-12-27T16:00:17Z</time>
      </trkpt>
      <trkpt lat="37.7622460" lon="-3.9436720">
        <ele>623.0</ele>
        <time>2021-12-27T16:00:18Z</time>
      </trkpt>
      <trkpt lat="37.7622270" lon="-3.9436880">
        <ele>623.0</ele>
        <time>2021-12-27T16:00:19Z</time>
      </trkpt>
      <trkpt lat="37.7622050" lon="-3.9437040">
        <ele>623.0</ele>
        <time>2021-12-27T16:00:20Z</time>
      </trkpt>
      <trkpt lat="37.7621890" lon="-3.9437160">
        <ele>623.0</ele>
        <time>2021-12-27T16:00:21Z</time>
      </trkpt>
      <trkpt lat="37.7621660" lon="-3.9437300">
        <ele>623.2</ele>
        <time>2021-12-27T16:00:22Z</time>
      </trkpt>
      <trkpt lat="37.7621410" lon="-3.9437460">
        <ele>623.2</ele>
        <time>2021-12-27T16:00:23Z</time>
      </trkpt>
      <trkpt lat="37.7621180" lon="-3.9437600">
        <ele>623.2</ele>
        <time>2021-12-27T16:00:24Z</time>
      </trkpt>
      <trkpt lat="37.7620930" lon="-3.9437730">
        <ele>623.2</ele>
        <time>2021-12-27T16:00:25Z</time>
      </trkpt>
      <trkpt lat="37.7620700" lon="-3.9437900">
        <ele>623.2</ele>
        <time>2021-12-27T16:00:26Z</time>
      </trkpt>
      <trkpt lat="37.7620340" lon="-3.9438110">
        <ele>623.2</ele>
        <time>2021-12-27T16:00:27Z</time>
      </trkpt>
      <trkpt lat="37.7620190" lon="-3.9438170">
        <ele>623.4</ele>
        <time>2021-12-27T16:00:28Z</time>
      </trkpt>
      <trkpt lat="37.7619940" lon="-3.9438320">
        <ele>623.4</ele>
        <time>2021-12-27T16:00:29Z</time>
      </trkpt>
      <trkpt lat="37.7619710" lon="-3.9438470">
        <ele>623.4</ele>
        <time>2021-12-27T16:00:30Z</time>
      </trkpt>
      <trkpt lat="37.7619420" lon="-3.9438620">
        <ele>623.4</ele>
        <time>2021-12-27T16:00:31Z</time>
      </trkpt>
      <trkpt lat="37.7619200" lon="-3.9438780">
        <ele>623.4</ele>
        <time>2021-12-27T16:00:32Z</time>
      </trkpt>
      <trkpt lat="37.7619010" lon="-3.9438940">
        <ele>623.4</ele>
        <time>2021-12-27T16:00:33Z</time>
      </trkpt>
      <trkpt lat="37.7618780" lon="-3.9439050">
        <ele>623.4</ele>
        <time>2021-12-27T16:00:34Z</time>
      </trkpt>
      <trkpt lat="37.7618590" lon="-3.9439170">
        <ele>623.6</ele>
        <time>2021-12-27T16:00:35Z</time>
      </trkpt>
      <trkpt lat="37.7618370" lon="-3.9439270">
        <ele>623.6</ele>
        <time>2021-12-27T16:00:36Z</time>
      </trkpt>
      <trkpt lat="37.7618210" lon="-3.9439380">
        <ele>623.6</ele>
        <time>2021-12-27T16:00:37Z</time>
      </trkpt>
      <trkpt lat="37.7618210" lon="-3.9439380">
        <ele>623.6</ele>
        <time>2021-12-27T16:00:38Z</time>
      </trkpt>
      <trkpt lat="37.7617950" lon="-3.9439650">
        <ele>623.6</ele>
        <time>2021-12-27T16:00:39Z</time>
      </trkpt>
      <trkpt lat="37.7617950" lon="-3.9439650">
        <ele>623.6</ele>
        <time>2021-12-27T16:00:40Z</time>
      </trkpt>
      <trkpt lat="37.7617730" lon="-3.9439850">
        <ele>623.6</ele>
        <time>2021-12-27T16:00:41Z</time>
      </trkpt>
      <trkpt lat="37.7617730" lon="-3.9439850">
        <ele>623.6</ele>
        <time>2021-12-27T16:00:42Z</time>
      </trkpt>
      <trkpt lat="37.7617500" lon="-3.9440020">
        <ele>623.6</ele>
        <time>2021-12-27T16:00:43Z</time>
      </trkpt>
      <trkpt lat="37.7617500" lon="-3.9440020">
        <ele>623.8</ele>
        <time>2021-12-27T16:00:44Z</time>
      </trkpt>
      <trkpt lat="37.7617500" lon="-3.9440020">
        <ele>623.8</ele>
        <time>2021-12-27T16:00:45Z</time>
      </trkpt>
      <trkpt lat="37.7617500" lon="-3.9440020">
        <ele>623.8</ele>
        <time>2021-12-27T16:00:46Z</time>
      </trkpt>
      <trkpt lat="37.7617310" lon="-3.9440200">
        <ele>623.8</ele>
        <time>2021-12-27T16:00:47Z</time>
      </trkpt>
      <trkpt lat="37.7617310" lon="-3.9440200">
        <ele>623.8</ele>
        <time>2021-12-27T16:00:48Z</time>
      </trkpt>
      <trkpt lat="37.7618210" lon="-3.9440960">
        <ele>621.6</ele>
        <time>2021-12-27T16:01:40Z</time>
      </trkpt>
      <trkpt lat="37.7617980" lon="-3.9441120">
        <ele>621.6</ele>
        <time>2021-12-27T16:01:41Z</time>
      </trkpt>
      <trkpt lat="37.7617790" lon="-3.9441280">
        <ele>621.4</ele>
        <time>2021-12-27T16:01:42Z</time>
      </trkpt>
      <trkpt lat="37.7617570" lon="-3.9441430">
        <ele>621.4</ele>
        <time>2021-12-27T16:01:43Z</time>
      </trkpt>
      <trkpt lat="37.7617310" lon="-3.9441600">
        <ele>621.2</ele>
        <time>2021-12-27T16:01:44Z</time>
      </trkpt>
      <trkpt lat="37.7617120" lon="-3.9441800">
        <ele>621.2</ele>
        <time>2021-12-27T16:01:45Z</time>
      </trkpt>
      <trkpt lat="37.7616930" lon="-3.9442050">
        <ele>621.0</ele>
        <time>2021-12-27T16:01:46Z</time>
      </trkpt>
      <trkpt lat="37.7616800" lon="-3.9442320">
        <ele>621.0</ele>
        <time>2021-12-27T16:01:47Z</time>
      </trkpt>
      <trkpt lat="37.7616770" lon="-3.9442620">
        <ele>621.0</ele>
        <time>2021-12-27T16:01:48Z</time>
      </trkpt>
      <trkpt lat="37.7616770" lon="-3.9442920">
        <ele>621.0</ele>
        <time>2021-12-27T16:01:49Z</time>
      </trkpt>
      <trkpt lat="37.7616900" lon="-3.9443220">
        <ele>621.0</ele>
        <time>2021-12-27T16:01:50Z</time>
      </trkpt>
      <trkpt lat="37.7616990" lon="-3.9443480">
        <ele>621.0</ele>
        <time>2021-12-27T16:01:51Z</time>
      </trkpt>
      <trkpt lat="37.7617150" lon="-3.9443720">
        <ele>621.0</ele>
        <time>2021-12-27T16:01:52Z</time>
      </trkpt>
      <trkpt lat="37.7617310" lon="-3.9443980">
        <ele>621.0</ele>
        <time>2021-12-27T16:01:53Z</time>
      </trkpt>
      <trkpt lat="37.7617440" lon="-3.9444230">
        <ele>621.0</ele>
        <time>2021-12-27T16:01:54Z</time>
      </trkpt>
      <trkpt lat="37.7617600" lon="-3.9444520">
        <ele>620.8</ele>
        <time>2021-12-27T16:01:55Z</time>
      </trkpt>
      <trkpt lat="37.7617790" lon="-3.9444800">
        <ele>620.8</ele>
        <time>2021-12-27T16:01:56Z</time>
      </trkpt>
      <trkpt lat="37.7617950" lon="-3.9445080">
        <ele>620.8</ele>
        <time>2021-12-27T16:01:57Z</time>
      </trkpt>
      <trkpt lat="37.7618140" lon="-3.9445300">
        <ele>620.8</ele>
        <time>2021-12-27T16:01:58Z</time>
      </trkpt>
      <trkpt lat="37.7618300" lon="-3.9445480">
        <ele>620.8</ele>
        <time>2021-12-27T16:01:59Z</time>
      </trkpt>
      <trkpt lat="37.7618500" lon="-3.9445580">
        <ele>620.8</ele>
        <time>2021-12-27T16:02:00Z</time>
      </trkpt>
      <trkpt lat="37.7618720" lon="-3.9445580">
        <ele>620.8</ele>
        <time>2021-12-27T16:02:01Z</time>
      </trkpt>
      <trkpt lat="37.7618940" lon="-3.9445500">
        <ele>621.0</ele>
        <time>2021-12-27T16:02:02Z</time>
      </trkpt>
      <trkpt lat="37.7618940" lon="-3.9445500">
        <ele>621.0</ele>
        <time>2021-12-27T16:02:03Z</time>
      </trkpt>
      <trkpt lat="37.7619230" lon="-3.9445400">
        <ele>621.0</ele>
        <time>2021-12-27T16:02:04Z</time>
      </trkpt>
      <trkpt lat="37.7619230" lon="-3.9445400">
        <ele>621.0</ele>
        <time>2021-12-27T16:02:05Z</time>
      </trkpt>
      <trkpt lat="37.7619550" lon="-3.9445520">
        <ele>621.2</ele>
        <time>2021-12-27T16:02:06Z</time>
      </trkpt>
      <trkpt lat="37.7619550" lon="-3.9445520">
        <ele>621.2</ele>
        <time>2021-12-27T16:02:07Z</time>
      </trkpt>
      <trkpt lat="37.7619710" lon="-3.9445800">
        <ele>621.4</ele>
        <time>2021-12-27T16:02:08Z</time>
      </trkpt>
      <trkpt lat="37.7619710" lon="-3.9445800">
        <ele>621.4</ele>
        <time>2021-12-27T16:02:09Z</time>
      </trkpt>
      <trkpt lat="37.7619780" lon="-3.9446080">
        <ele>621.4</ele>
        <time>2021-12-27T16:02:10Z</time>
      </trkpt>
      <trkpt lat="37.7619780" lon="-3.9446080">
        <ele>621.4</ele>
        <time>2021-12-27T16:02:11Z</time>
      </trkpt>
      <trkpt lat="37.7619900" lon="-3.9446360">
        <ele>621.6</ele>
        <time>2021-12-27T16:02:12Z</time>
      </trkpt>
      <trkpt lat="37.7620060" lon="-3.9446520">
        <ele>621.6</ele>
        <time>2021-12-27T16:02:13Z</time>
      </trkpt>
      <trkpt lat="37.7620060" lon="-3.9446520">
        <ele>621.6</ele>
        <time>2021-12-27T16:02:14Z</time>
      </trkpt>
      <trkpt lat="37.7620320" lon="-3.9446820">
        <ele>621.6</ele>
        <time>2021-12-27T16:02:15Z</time>
      </trkpt>
      <trkpt lat="37.7620320" lon="-3.9446820">
        <ele>621.6</ele>
        <time>2021-12-27T16:02:16Z</time>
      </trkpt>
      <trkpt lat="37.7620380" lon="-3.9447120">
        <ele>621.6</ele>
        <time>2021-12-27T16:02:17Z</time>
      </trkpt>
      <trkpt lat="37.7620380" lon="-3.9447120">
        <ele>621.8</ele>
        <time>2021-12-27T16:02:18Z</time>
      </trkpt>
      <trkpt lat="37.7620420" lon="-3.9447400">
        <ele>621.8</ele>
        <time>2021-12-27T16:02:19Z</time>
      </trkpt>
      <trkpt lat="37.7620420" lon="-3.9447400">
        <ele>621.8</ele>
        <time>2021-12-27T16:02:20Z</time>
      </trkpt>
      <trkpt lat="37.7620670" lon="-3.9447520">
        <ele>621.8</ele>
        <time>2021-12-27T16:02:21Z</time>
      </trkpt>
      <trkpt lat="37.7620670" lon="-3.9447520">
        <ele>621.8</ele>
        <time>2021-12-27T16:02:22Z</time>
      </trkpt>
      <trkpt lat="37.7620770" lon="-3.9447720">
        <ele>621.8</ele>
        <time>2021-12-27T16:02:23Z</time>
      </trkpt>
      <trkpt lat="37.7620770" lon="-3.9447720">
        <ele>621.8</ele>
        <time>2021-12-27T16:02:24Z</time>
      </trkpt>
      <trkpt lat="37.7620770" lon="-3.9447720">
        <ele>621.8</ele>
        <time>2021-12-27T16:02:25Z</time>
      </trkpt>
      <trkpt lat="37.7620770" lon="-3.9447720">
        <ele>621.8</ele>
        <time>2021-12-27T16:02:26Z</time>
      </trkpt>
      <trkpt lat="37.7620770" lon="-3.9447720">
        <ele>621.8</ele>
        <time>2021-12-27T16:02:27Z</time>
      </trkpt>
      <trkpt lat="37.7622530" lon="-3.9445550">
        <ele>624.2</ele>
        <time>2021-12-27T16:07:11Z</time>
      </trkpt>
      <trkpt lat="37.7622370" lon="-3.9445370">
        <ele>624.0</ele>
        <time>2021-12-27T16:07:12Z</time>
      </trkpt>
      <trkpt lat="37.7622210" lon="-3.9445230">
        <ele>623.8</ele>
        <time>2021-12-27T16:07:13Z</time>
      </trkpt>
      <trkpt lat="37.7621980" lon="-3.9445180">
        <ele>623.6</ele>
        <time>2021-12-27T16:07:14Z</time>
      </trkpt>
      <trkpt lat="37.7621730" lon="-3.9445120">
        <ele>623.6</ele>
        <time>2021-12-27T16:07:15Z</time>
      </trkpt>
      <trkpt lat="37.7621730" lon="-3.9445120">
        <ele>623.4</ele>
        <time>2021-12-27T16:07:16Z</time>
      </trkpt>
      <trkpt lat="37.7621540" lon="-3.9444900">
        <ele>623.2</ele>
        <time>2021-12-27T16:07:17Z</time>
      </trkpt>
      <trkpt lat="37.7621280" lon="-3.9444830">
        <ele>623.2</ele>
        <time>2021-12-27T16:07:18Z</time>
      </trkpt>
      <trkpt lat="37.7620960" lon="-3.9444700">
        <ele>623.0</ele>
        <time>2021-12-27T16:07:19Z</time>
      </trkpt>
      <trkpt lat="37.7620740" lon="-3.9444660">
        <ele>623.0</ele>
        <time>2021-12-27T16:07:20Z</time>
      </trkpt>
      <trkpt lat="37.7620540" lon="-3.9444550">
        <ele>622.8</ele>
        <time>2021-12-27T16:07:21Z</time>
      </trkpt>
      <trkpt lat="37.7620380" lon="-3.9444430">
        <ele>622.8</ele>
        <time>2021-12-27T16:07:22Z</time>
      </trkpt>
      <trkpt lat="37.7620380" lon="-3.9444430">
        <ele>622.6</ele>
        <time>2021-12-27T16:07:23Z</time>
      </trkpt>
      <trkpt lat="37.7620100" lon="-3.9444480">
        <ele>622.6</ele>
        <time>2021-12-27T16:07:24Z</time>
      </trkpt>
      <trkpt lat="37.7620100" lon="-3.9444480">
        <ele>622.4</ele>
        <time>2021-12-27T16:07:25Z</time>
      </trkpt>
      <trkpt lat="37.7619810" lon="-3.9444700">
        <ele>622.4</ele>
        <time>2021-12-27T16:07:26Z</time>
      </trkpt>
      <trkpt lat="37.7619620" lon="-3.9444680">
        <ele>622.2</ele>
        <time>2021-12-27T16:07:27Z</time>
      </trkpt>
      <trkpt lat="37.7619390" lon="-3.9444530">
        <ele>622.0</ele>
        <time>2021-12-27T16:07:28Z</time>
      </trkpt>
      <trkpt lat="37.7619170" lon="-3.9444400">
        <ele>622.0</ele>
        <time>2021-12-27T16:07:29Z</time>
      </trkpt>
      <trkpt lat="37.7618980" lon="-3.9444350">
        <ele>621.8</ele>
        <time>2021-12-27T16:07:30Z</time>
      </trkpt>
      <trkpt lat="37.7618780" lon="-3.9444400">
        <ele>621.8</ele>
        <time>2021-12-27T16:07:31Z</time>
      </trkpt>
      <trkpt lat="37.7618590" lon="-3.9444380">
        <ele>621.6</ele>
        <time>2021-12-27T16:07:32Z</time>
      </trkpt>
      <trkpt lat="37.7618370" lon="-3.9444350">
        <ele>621.6</ele>
        <time>2021-12-27T16:07:33Z</time>
      </trkpt>
      <trkpt lat="37.7618210" lon="-3.9444230">
        <ele>621.4</ele>
        <time>2021-12-27T16:07:34Z</time>
      </trkpt>
      <trkpt lat="37.7617980" lon="-3.9444080">
        <ele>621.4</ele>
        <time>2021-12-27T16:07:35Z</time>
      </trkpt>
      <trkpt lat="37.7617790" lon="-3.9443950">
        <ele>621.2</ele>
        <time>2021-12-27T16:07:36Z</time>
      </trkpt>
      <trkpt lat="37.7617790" lon="-3.9443950">
        <ele>621.2</ele>
        <time>2021-12-27T16:07:37Z</time>
      </trkpt>
      <trkpt lat="37.7617600" lon="-3.9443670">
        <ele>621.0</ele>
        <time>2021-12-27T16:07:38Z</time>
      </trkpt>
      <trkpt lat="37.7617410" lon="-3.9443450">
        <ele>621.0</ele>
        <time>2021-12-27T16:07:39Z</time>
      </trkpt>
      <trkpt lat="37.7617250" lon="-3.9443200">
        <ele>620.8</ele>
        <time>2021-12-27T16:07:40Z</time>
      </trkpt>
      <trkpt lat="37.7617090" lon="-3.9442980">
        <ele>620.8</ele>
        <time>2021-12-27T16:07:41Z</time>
      </trkpt>
      <trkpt lat="37.7616830" lon="-3.9442720">
        <ele>620.8</ele>
        <time>2021-12-27T16:07:42Z</time>
      </trkpt>
      <trkpt lat="37.7616610" lon="-3.9442550">
        <ele>620.8</ele>
        <time>2021-12-27T16:07:43Z</time>
      </trkpt>
      <trkpt lat="37.7616420" lon="-3.9442350">
        <ele>620.6</ele>
        <time>2021-12-27T16:07:44Z</time>
      </trkpt>
      <trkpt lat="37.7616220" lon="-3.9442200">
        <ele>620.6</ele>
        <time>2021-12-27T16:07:45Z</time>
      </trkpt>
      <trkpt lat="37.7616000" lon="-3.9442150">
        <ele>620.6</ele>
        <time>2021-12-27T16:07:46Z</time>
      </trkpt>
      <trkpt lat="37.7615780" lon="-3.9442180">
        <ele>620.6</ele>
        <time>2021-12-27T16:07:47Z</time>
      </trkpt>
      <trkpt lat="37.7615580" lon="-3.9442250">
        <ele>620.4</ele>
        <time>2021-12-27T16:07:48Z</time>
      </trkpt>
      <trkpt lat="37.7615390" lon="-3.9442350">
        <ele>620.4</ele>
        <time>2021-12-27T16:07:49Z</time>
      </trkpt>
      <trkpt lat="37.7615170" lon="-3.9442520">
        <ele>620.4</ele>
        <time>2021-12-27T16:07:50Z</time>
      </trkpt>
      <trkpt lat="37.7614980" lon="-3.9442700">
        <ele>620.4</ele>
        <time>2021-12-27T16:07:51Z</time>
      </trkpt>
      <trkpt lat="37.7614780" lon="-3.9442900">
        <ele>620.4</ele>
        <time>2021-12-27T16:07:52Z</time>
      </trkpt>
      <trkpt lat="37.7614620" lon="-3.9443080">
        <ele>620.4</ele>
        <time>2021-12-27T16:07:53Z</time>
      </trkpt>
      <trkpt lat="37.7614460" lon="-3.9443220">
        <ele>620.4</ele>
        <time>2021-12-27T16:07:54Z</time>
      </trkpt>
      <trkpt lat="37.7614460" lon="-3.9443220">
        <ele>620.4</ele>
        <time>2021-12-27T16:07:55Z</time>
      </trkpt>
      <trkpt lat="37.7614140" lon="-3.9443280">
        <ele>620.4</ele>
        <time>2021-12-27T16:07:56Z</time>
      </trkpt>
      <trkpt lat="37.7613950" lon="-3.9443320">
        <ele>620.2</ele>
        <time>2021-12-27T16:07:57Z</time>
      </trkpt>
      <trkpt lat="37.7613760" lon="-3.9443380">
        <ele>620.2</ele>
        <time>2021-12-27T16:07:58Z</time>
      </trkpt>
      <trkpt lat="37.7613760" lon="-3.9443380">
        <ele>620.2</ele>
        <time>2021-12-27T16:07:59Z</time>
      </trkpt>
      <trkpt lat="37.7613470" lon="-3.9443470">
        <ele>620.2</ele>
        <time>2021-12-27T16:08:00Z</time>
      </trkpt>
      <trkpt lat="37.7613470" lon="-3.9443470">
        <ele>620.2</ele>
        <time>2021-12-27T16:08:01Z</time>
      </trkpt>
      <trkpt lat="37.7613220" lon="-3.9443320">
        <ele>620.2</ele>
        <time>2021-12-27T16:08:02Z</time>
      </trkpt>
      <trkpt lat="37.7613060" lon="-3.9443180">
        <ele>620.2</ele>
        <time>2021-12-27T16:08:03Z</time>
      </trkpt>
      <trkpt lat="37.7612860" lon="-3.9443130">
        <ele>620.0</ele>
        <time>2021-12-27T16:08:04Z</time>
      </trkpt>
      <trkpt lat="37.7612670" lon="-3.9443220">
        <ele>620.0</ele>
        <time>2021-12-27T16:08:05Z</time>
      </trkpt>
      <trkpt lat="37.7612480" lon="-3.9443350">
        <ele>619.8</ele>
        <time>2021-12-27T16:08:06Z</time>
      </trkpt>
      <trkpt lat="37.7612320" lon="-3.9443550">
        <ele>619.8</ele>
        <time>2021-12-27T16:08:07Z</time>
      </trkpt>
      <trkpt lat="37.7612030" lon="-3.9443720">
        <ele>619.6</ele>
        <time>2021-12-27T16:08:08Z</time>
      </trkpt>
      <trkpt lat="37.7611780" lon="-3.9443930">
        <ele>619.6</ele>
        <time>2021-12-27T16:08:09Z</time>
      </trkpt>
      <trkpt lat="37.7611490" lon="-3.9444100">
        <ele>619.4</ele>
        <time>2021-12-27T16:08:10Z</time>
      </trkpt>
      <trkpt lat="37.7611230" lon="-3.9444280">
        <ele>619.4</ele>
        <time>2021-12-27T16:08:11Z</time>
      </trkpt>
      <trkpt lat="37.7610980" lon="-3.9444430">
        <ele>619.4</ele>
        <time>2021-12-27T16:08:12Z</time>
      </trkpt>
      <trkpt lat="37.7610750" lon="-3.9444620">
        <ele>619.4</ele>
        <time>2021-12-27T16:08:13Z</time>
      </trkpt>
      <trkpt lat="37.7610460" lon="-3.9444820">
        <ele>619.4</ele>
        <time>2021-12-27T16:08:14Z</time>
      </trkpt>
      <trkpt lat="37.7610180" lon="-3.9445050">
        <ele>619.4</ele>
        <time>2021-12-27T16:08:15Z</time>
      </trkpt>
      <trkpt lat="37.7609950" lon="-3.9445270">
        <ele>619.4</ele>
        <time>2021-12-27T16:08:16Z</time>
      </trkpt>
      <trkpt lat="37.7609630" lon="-3.9445500">
        <ele>619.4</ele>
        <time>2021-12-27T16:08:17Z</time>
      </trkpt>
      <trkpt lat="37.7609380" lon="-3.9445770">
        <ele>619.4</ele>
        <time>2021-12-27T16:08:18Z</time>
      </trkpt>
      <trkpt lat="37.7609020" lon="-3.9446020">
        <ele>619.4</ele>
        <time>2021-12-27T16:08:19Z</time>
      </trkpt>
      <trkpt lat="37.7608700" lon="-3.9446320">
        <ele>619.4</ele>
        <time>2021-12-27T16:08:20Z</time>
      </trkpt>
      <trkpt lat="37.7608420" lon="-3.9446620">
        <ele>619.6</ele>
        <time>2021-12-27T16:08:21Z</time>
      </trkpt>
      <trkpt lat="37.7608160" lon="-3.9446900">
        <ele>619.6</ele>
        <time>2021-12-27T16:08:22Z</time>
      </trkpt>
      <trkpt lat="37.7607840" lon="-3.9447200">
        <ele>619.8</ele>
        <time>2021-12-27T16:08:23Z</time>
      </trkpt>
      <trkpt lat="37.7607550" lon="-3.9447520">
        <ele>619.8</ele>
        <time>2021-12-27T16:08:24Z</time>
      </trkpt>
      <trkpt lat="37.7607260" lon="-3.9447780">
        <ele>620.0</ele>
        <time>2021-12-27T16:08:25Z</time>
      </trkpt>
      <trkpt lat="37.7606980" lon="-3.9448060">
        <ele>620.0</ele>
        <time>2021-12-27T16:08:26Z</time>
      </trkpt>
      <trkpt lat="37.7606620" lon="-3.9448370">
        <ele>620.0</ele>
        <time>2021-12-27T16:08:27Z</time>
      </trkpt>
      <trkpt lat="37.7606300" lon="-3.9448620">
        <ele>620.0</ele>
        <time>2021-12-27T16:08:28Z</time>
      </trkpt>
      <trkpt lat="37.7606020" lon="-3.9448920">
        <ele>620.2</ele>
        <time>2021-12-27T16:08:29Z</time>
      </trkpt>
      <trkpt lat="37.7605700" lon="-3.9449240">
        <ele>620.2</ele>
        <time>2021-12-27T16:08:30Z</time>
      </trkpt>
      <trkpt lat="37.7605410" lon="-3.9449500">
        <ele>620.2</ele>
        <time>2021-12-27T16:08:31Z</time>
      </trkpt>
      <trkpt lat="37.7605020" lon="-3.9449780">
        <ele>620.2</ele>
        <time>2021-12-27T16:08:32Z</time>
      </trkpt>
      <trkpt lat="37.7604670" lon="-3.9450080">
        <ele>620.4</ele>
        <time>2021-12-27T16:08:33Z</time>
      </trkpt>
      <trkpt lat="37.7604320" lon="-3.9450370">
        <ele>620.4</ele>
        <time>2021-12-27T16:08:34Z</time>
      </trkpt>
      <trkpt lat="37.7603940" lon="-3.9450650">
        <ele>620.6</ele>
        <time>2021-12-27T16:08:35Z</time>
      </trkpt>
      <trkpt lat="37.7603650" lon="-3.9450930">
        <ele>620.6</ele>
        <time>2021-12-27T16:08:36Z</time>
      </trkpt>
      <trkpt lat="37.7603330" lon="-3.9451180">
        <ele>620.8</ele>
        <time>2021-12-27T16:08:37Z</time>
      </trkpt>
      <trkpt lat="37.7603040" lon="-3.9451430">
        <ele>620.8</ele>
        <time>2021-12-27T16:08:38Z</time>
      </trkpt>
      <trkpt lat="37.7602720" lon="-3.9451700">
        <ele>620.8</ele>
        <time>2021-12-27T16:08:39Z</time>
      </trkpt>
      <trkpt lat="37.7602400" lon="-3.9451950">
        <ele>620.8</ele>
        <time>2021-12-27T16:08:40Z</time>
      </trkpt>
      <trkpt lat="37.7602050" lon="-3.9452220">
        <ele>620.8</ele>
        <time>2021-12-27T16:08:41Z</time>
      </trkpt>
      <trkpt lat="37.7601700" lon="-3.9452470">
        <ele>620.8</ele>
        <time>2021-12-27T16:08:42Z</time>
      </trkpt>
      <trkpt lat="37.7601340" lon="-3.9452720">
        <ele>620.8</ele>
        <time>2021-12-27T16:08:43Z</time>
      </trkpt>
      <trkpt lat="37.7601020" lon="-3.9452970">
        <ele>620.8</ele>
        <time>2021-12-27T16:08:44Z</time>
      </trkpt>
      <trkpt lat="37.7600670" lon="-3.9453200">
        <ele>620.8</ele>
        <time>2021-12-27T16:08:45Z</time>
      </trkpt>
      <trkpt lat="37.7600320" lon="-3.9453460">
        <ele>620.8</ele>
        <time>2021-12-27T16:08:46Z</time>
      </trkpt>
      <trkpt lat="37.7599940" lon="-3.9453730">
        <ele>620.8</ele>
        <time>2021-12-27T16:08:47Z</time>
      </trkpt>
      <trkpt lat="37.7599620" lon="-3.9453980">
        <ele>620.8</ele>
        <time>2021-12-27T16:08:48Z</time>
      </trkpt>
      <trkpt lat="37.7599170" lon="-3.9454220">
        <ele>620.8</ele>
        <time>2021-12-27T16:08:49Z</time>
      </trkpt>
      <trkpt lat="37.7598850" lon="-3.9454470">
        <ele>621.0</ele>
        <time>2021-12-27T16:08:50Z</time>
      </trkpt>
      <trkpt lat="37.7598460" lon="-3.9454700">
        <ele>621.0</ele>
        <time>2021-12-27T16:08:51Z</time>
      </trkpt>
      <trkpt lat="37.7598110" lon="-3.9454930">
        <ele>621.0</ele>
        <time>2021-12-27T16:08:52Z</time>
      </trkpt>
      <trkpt lat="37.7597730" lon="-3.9455160">
        <ele>620.8</ele>
        <time>2021-12-27T16:08:53Z</time>
      </trkpt>
      <trkpt lat="37.7597340" lon="-3.9455370">
        <ele>620.8</ele>
        <time>2021-12-27T16:08:54Z</time>
      </trkpt>
      <trkpt lat="37.7596960" lon="-3.9455530">
        <ele>620.8</ele>
        <time>2021-12-27T16:08:55Z</time>
      </trkpt>
      <trkpt lat="37.7596540" lon="-3.9455700">
        <ele>620.8</ele>
        <time>2021-12-27T16:08:56Z</time>
      </trkpt>
      <trkpt lat="37.7596160" lon="-3.9455830">
        <ele>620.8</ele>
        <time>2021-12-27T16:08:57Z</time>
      </trkpt>
      <trkpt lat="37.7595780" lon="-3.9455980">
        <ele>621.0</ele>
        <time>2021-12-27T16:08:58Z</time>
      </trkpt>
      <trkpt lat="37.7595360" lon="-3.9456130">
        <ele>621.0</ele>
        <time>2021-12-27T16:08:59Z</time>
      </trkpt>
      <trkpt lat="37.7594940" lon="-3.9456320">
        <ele>621.0</ele>
        <time>2021-12-27T16:09:00Z</time>
      </trkpt>
      <trkpt lat="37.7594500" lon="-3.9456470">
        <ele>621.0</ele>
        <time>2021-12-27T16:09:01Z</time>
      </trkpt>
      <trkpt lat="37.7594050" lon="-3.9456620">
        <ele>621.0</ele>
        <time>2021-12-27T16:09:02Z</time>
      </trkpt>
      <trkpt lat="37.7593600" lon="-3.9456780">
        <ele>621.0</ele>
        <time>2021-12-27T16:09:03Z</time>
      </trkpt>
      <trkpt lat="37.7593180" lon="-3.9456950">
        <ele>621.0</ele>
        <time>2021-12-27T16:09:04Z</time>
      </trkpt>
      <trkpt lat="37.7592770" lon="-3.9457130">
        <ele>621.0</ele>
        <time>2021-12-27T16:09:05Z</time>
      </trkpt>
      <trkpt lat="37.7592320" lon="-3.9457270">
        <ele>620.8</ele>
        <time>2021-12-27T16:09:06Z</time>
      </trkpt>
      <trkpt lat="37.7591900" lon="-3.9457400">
        <ele>620.8</ele>
        <time>2021-12-27T16:09:07Z</time>
      </trkpt>
      <trkpt lat="37.7591420" lon="-3.9457520">
        <ele>620.8</ele>
        <time>2021-12-27T16:09:08Z</time>
      </trkpt>
      <trkpt lat="37.7590980" lon="-3.9457650">
        <ele>620.8</ele>
        <time>2021-12-27T16:09:09Z</time>
      </trkpt>
      <trkpt lat="37.7590530" lon="-3.9457750">
        <ele>620.8</ele>
        <time>2021-12-27T16:09:10Z</time>
      </trkpt>
      <trkpt lat="37.7590110" lon="-3.9457850">
        <ele>620.8</ele>
        <time>2021-12-27T16:09:11Z</time>
      </trkpt>
      <trkpt lat="37.7589630" lon="-3.9457930">
        <ele>620.8</ele>
        <time>2021-12-27T16:09:12Z</time>
      </trkpt>
      <trkpt lat="37.7589180" lon="-3.9458050">
        <ele>620.8</ele>
        <time>2021-12-27T16:09:13Z</time>
      </trkpt>
      <trkpt lat="37.7588770" lon="-3.9458150">
        <ele>620.8</ele>
        <time>2021-12-27T16:09:14Z</time>
      </trkpt>
      <trkpt lat="37.7588320" lon="-3.9458250">
        <ele>621.0</ele>
        <time>2021-12-27T16:09:15Z</time>
      </trkpt>
      <trkpt lat="37.7587840" lon="-3.9458350">
        <ele>621.0</ele>
        <time>2021-12-27T16:09:16Z</time>
      </trkpt>
      <trkpt lat="37.7587420" lon="-3.9458460">
        <ele>621.0</ele>
        <time>2021-12-27T16:09:17Z</time>
      </trkpt>
      <trkpt lat="37.7586980" lon="-3.9458560">
        <ele>621.0</ele>
        <time>2021-12-27T16:09:18Z</time>
      </trkpt>
      <trkpt lat="37.7586530" lon="-3.9458660">
        <ele>621.0</ele>
        <time>2021-12-27T16:09:19Z</time>
      </trkpt>
      <trkpt lat="37.7586110" lon="-3.9458750">
        <ele>621.0</ele>
        <time>2021-12-27T16:09:20Z</time>
      </trkpt>
      <trkpt lat="37.7585660" lon="-3.9458830">
        <ele>621.0</ele>
        <time>2021-12-27T16:09:21Z</time>
      </trkpt>
      <trkpt lat="37.7585220" lon="-3.9458900">
        <ele>621.2</ele>
        <time>2021-12-27T16:09:22Z</time>
      </trkpt>
      <trkpt lat="37.7584770" lon="-3.9458970">
        <ele>621.2</ele>
        <time>2021-12-27T16:09:23Z</time>
      </trkpt>
      <trkpt lat="37.7584260" lon="-3.9459050">
        <ele>621.2</ele>
        <time>2021-12-27T16:09:24Z</time>
      </trkpt>
      <trkpt lat="37.7583810" lon="-3.9459150">
        <ele>621.2</ele>
        <time>2021-12-27T16:09:25Z</time>
      </trkpt>
      <trkpt lat="37.7583330" lon="-3.9459230">
        <ele>621.2</ele>
        <time>2021-12-27T16:09:26Z</time>
      </trkpt>
      <trkpt lat="37.7582850" lon="-3.9459330">
        <ele>621.2</ele>
        <time>2021-12-27T16:09:27Z</time>
      </trkpt>
      <trkpt lat="37.7582400" lon="-3.9459450">
        <ele>621.2</ele>
        <time>2021-12-27T16:09:28Z</time>
      </trkpt>
      <trkpt lat="37.7581890" lon="-3.9459550">
        <ele>621.2</ele>
        <time>2021-12-27T16:09:29Z</time>
      </trkpt>
      <trkpt lat="37.7581440" lon="-3.9459670">
        <ele>621.2</ele>
        <time>2021-12-27T16:09:30Z</time>
      </trkpt>
      <trkpt lat="37.7580960" lon="-3.9459800">
        <ele>621.2</ele>
        <time>2021-12-27T16:09:31Z</time>
      </trkpt>
      <trkpt lat="37.7580450" lon="-3.9459920">
        <ele>621.0</ele>
        <time>2021-12-27T16:09:32Z</time>
      </trkpt>
      <trkpt lat="37.7579970" lon="-3.9459980">
        <ele>621.0</ele>
        <time>2021-12-27T16:09:33Z</time>
      </trkpt>
      <trkpt lat="37.7579460" lon="-3.9460020">
        <ele>621.0</ele>
        <time>2021-12-27T16:09:34Z</time>
      </trkpt>
      <trkpt lat="37.7579010" lon="-3.9460120">
        <ele>621.0</ele>
        <time>2021-12-27T16:09:35Z</time>
      </trkpt>
      <trkpt lat="37.7578590" lon="-3.9460220">
        <ele>620.8</ele>
        <time>2021-12-27T16:09:36Z</time>
      </trkpt>
      <trkpt lat="37.7578110" lon="-3.9460320">
        <ele>620.8</ele>
        <time>2021-12-27T16:09:37Z</time>
      </trkpt>
      <trkpt lat="37.7577660" lon="-3.9460430">
        <ele>620.8</ele>
        <time>2021-12-27T16:09:38Z</time>
      </trkpt>
      <trkpt lat="37.7577250" lon="-3.9460530">
        <ele>620.6</ele>
        <time>2021-12-27T16:09:39Z</time>
      </trkpt>
      <trkpt lat="37.7576800" lon="-3.9460650">
        <ele>620.6</ele>
        <time>2021-12-27T16:09:40Z</time>
      </trkpt>
      <trkpt lat="37.7576380" lon="-3.9460730">
        <ele>620.6</ele>
        <time>2021-12-27T16:09:41Z</time>
      </trkpt>
      <trkpt lat="37.7575900" lon="-3.9460820">
        <ele>620.4</ele>
        <time>2021-12-27T16:09:42Z</time>
      </trkpt>
      <trkpt lat="37.7575460" lon="-3.9460880">
        <ele>620.4</ele>
        <time>2021-12-27T16:09:43Z</time>
      </trkpt>
      <trkpt lat="37.7575040" lon="-3.9461000">
        <ele>620.4</ele>
        <time>2021-12-27T16:09:44Z</time>
      </trkpt>
      <trkpt lat="37.7574620" lon="-3.9461100">
        <ele>620.4</ele>
        <time>2021-12-27T16:09:45Z</time>
      </trkpt>
      <trkpt lat="37.7574140" lon="-3.9461200">
        <ele>620.2</ele>
        <time>2021-12-27T16:09:46Z</time>
      </trkpt>
      <trkpt lat="37.7573700" lon="-3.9461300">
        <ele>620.2</ele>
        <time>2021-12-27T16:09:47Z</time>
      </trkpt>
      <trkpt lat="37.7573280" lon="-3.9461400">
        <ele>620.2</ele>
        <time>2021-12-27T16:09:48Z</time>
      </trkpt>
      <trkpt lat="37.7572830" lon="-3.9461500">
        <ele>620.0</ele>
        <time>2021-12-27T16:09:49Z</time>
      </trkpt>
      <trkpt lat="37.7572350" lon="-3.9461580">
        <ele>619.8</ele>
        <time>2021-12-27T16:09:50Z</time>
      </trkpt>
      <trkpt lat="37.7571940" lon="-3.9461720">
        <ele>619.8</ele>
        <time>2021-12-27T16:09:51Z</time>
      </trkpt>
      <trkpt lat="37.7571460" lon="-3.9461820">
        <ele>619.8</ele>
        <time>2021-12-27T16:09:52Z</time>
      </trkpt>
      <trkpt lat="37.7571040" lon="-3.9461900">
        <ele>619.6</ele>
        <time>2021-12-27T16:09:53Z</time>
      </trkpt>
      <trkpt lat="37.7570560" lon="-3.9461960">
        <ele>619.6</ele>
        <time>2021-12-27T16:09:54Z</time>
      </trkpt>
      <trkpt lat="37.7570110" lon="-3.9462080">
        <ele>619.6</ele>
        <time>2021-12-27T16:09:55Z</time>
      </trkpt>
      <trkpt lat="37.7569700" lon="-3.9462160">
        <ele>619.4</ele>
        <time>2021-12-27T16:09:56Z</time>
      </trkpt>
      <trkpt lat="37.7569280" lon="-3.9462260">
        <ele>619.4</ele>
        <time>2021-12-27T16:09:57Z</time>
      </trkpt>
      <trkpt lat="37.7568830" lon="-3.9462370">
        <ele>619.2</ele>
        <time>2021-12-27T16:09:58Z</time>
      </trkpt>
      <trkpt lat="37.7568380" lon="-3.9462500">
        <ele>619.2</ele>
        <time>2021-12-27T16:09:59Z</time>
      </trkpt>
      <trkpt lat="37.7567740" lon="-3.9462700">
        <ele>619.2</ele>
        <time>2021-12-27T16:10:00Z</time>
      </trkpt>
      <trkpt lat="37.7567520" lon="-3.9462770">
        <ele>618.8</ele>
        <time>2021-12-27T16:10:01Z</time>
      </trkpt>
      <trkpt lat="37.7567070" lon="-3.9462900">
        <ele>618.8</ele>
        <time>2021-12-27T16:10:02Z</time>
      </trkpt>
      <trkpt lat="37.7566660" lon="-3.9463070">
        <ele>618.8</ele>
        <time>2021-12-27T16:10:03Z</time>
      </trkpt>
      <trkpt lat="37.7566180" lon="-3.9463230">
        <ele>618.8</ele>
        <time>2021-12-27T16:10:04Z</time>
      </trkpt>
      <trkpt lat="37.7565730" lon="-3.9463400">
        <ele>618.6</ele>
        <time>2021-12-27T16:10:05Z</time>
      </trkpt>
      <trkpt lat="37.7565280" lon="-3.9463580">
        <ele>618.6</ele>
        <time>2021-12-27T16:10:06Z</time>
      </trkpt>
      <trkpt lat="37.7564860" lon="-3.9463770">
        <ele>618.6</ele>
        <time>2021-12-27T16:10:07Z</time>
      </trkpt>
      <trkpt lat="37.7564350" lon="-3.9463960">
        <ele>618.4</ele>
        <time>2021-12-27T16:10:08Z</time>
      </trkpt>
      <trkpt lat="37.7563940" lon="-3.9464150">
        <ele>618.2</ele>
        <time>2021-12-27T16:10:09Z</time>
      </trkpt>
      <trkpt lat="37.7563490" lon="-3.9464370">
        <ele>618.2</ele>
        <time>2021-12-27T16:10:10Z</time>
      </trkpt>
      <trkpt lat="37.7563010" lon="-3.9464570">
        <ele>618.2</ele>
        <time>2021-12-27T16:10:11Z</time>
      </trkpt>
      <trkpt lat="37.7562560" lon="-3.9464780">
        <ele>618.2</ele>
        <time>2021-12-27T16:10:12Z</time>
      </trkpt>
      <trkpt lat="37.7562110" lon="-3.9464980">
        <ele>618.2</ele>
        <time>2021-12-27T16:10:13Z</time>
      </trkpt>
      <trkpt lat="37.7561700" lon="-3.9465180">
        <ele>618.0</ele>
        <time>2021-12-27T16:10:14Z</time>
      </trkpt>
      <trkpt lat="37.7561280" lon="-3.9465400">
        <ele>618.0</ele>
        <time>2021-12-27T16:10:15Z</time>
      </trkpt>
      <trkpt lat="37.7560830" lon="-3.9465630">
        <ele>618.0</ele>
        <time>2021-12-27T16:10:16Z</time>
      </trkpt>
      <trkpt lat="37.7560420" lon="-3.9465850">
        <ele>618.0</ele>
        <time>2021-12-27T16:10:17Z</time>
      </trkpt>
      <trkpt lat="37.7560000" lon="-3.9466080">
        <ele>617.8</ele>
        <time>2021-12-27T16:10:18Z</time>
      </trkpt>
      <trkpt lat="37.7559620" lon="-3.9466330">
        <ele>617.8</ele>
        <time>2021-12-27T16:10:19Z</time>
      </trkpt>
      <trkpt lat="37.7559200" lon="-3.9466570">
        <ele>617.8</ele>
        <time>2021-12-27T16:10:20Z</time>
      </trkpt>
      <trkpt lat="37.7558780" lon="-3.9466780">
        <ele>617.8</ele>
        <time>2021-12-27T16:10:21Z</time>
      </trkpt>
      <trkpt lat="37.7558400" lon="-3.9467040">
        <ele>617.8</ele>
        <time>2021-12-27T16:10:22Z</time>
      </trkpt>
      <trkpt lat="37.7557980" lon="-3.9467280">
        <ele>617.8</ele>
        <time>2021-12-27T16:10:23Z</time>
      </trkpt>
      <trkpt lat="37.7557600" lon="-3.9467550">
        <ele>617.6</ele>
        <time>2021-12-27T16:10:24Z</time>
      </trkpt>
      <trkpt lat="37.7557250" lon="-3.9467800">
        <ele>617.6</ele>
        <time>2021-12-27T16:10:25Z</time>
      </trkpt>
      <trkpt lat="37.7556860" lon="-3.9468050">
        <ele>617.6</ele>
        <time>2021-12-27T16:10:26Z</time>
      </trkpt>
      <trkpt lat="37.7556480" lon="-3.9468350">
        <ele>617.6</ele>
        <time>2021-12-27T16:10:27Z</time>
      </trkpt>
      <trkpt lat="37.7556130" lon="-3.9468620">
        <ele>617.8</ele>
        <time>2021-12-27T16:10:28Z</time>
      </trkpt>
      <trkpt lat="37.7555740" lon="-3.9468920">
        <ele>617.8</ele>
        <time>2021-12-27T16:10:29Z</time>
      </trkpt>
      <trkpt lat="37.7555360" lon="-3.9469220">
        <ele>617.8</ele>
        <time>2021-12-27T16:10:30Z</time>
      </trkpt>
      <trkpt lat="37.7554980" lon="-3.9469530">
        <ele>617.6</ele>
        <time>2021-12-27T16:10:31Z</time>
      </trkpt>
      <trkpt lat="37.7554590" lon="-3.9469870">
        <ele>617.6</ele>
        <time>2021-12-27T16:10:32Z</time>
      </trkpt>
      <trkpt lat="37.7554240" lon="-3.9470230">
        <ele>617.6</ele>
        <time>2021-12-27T16:10:33Z</time>
      </trkpt>
      <trkpt lat="37.7553860" lon="-3.9470620">
        <ele>617.6</ele>
        <time>2021-12-27T16:10:34Z</time>
      </trkpt>
      <trkpt lat="37.7553470" lon="-3.9471000">
        <ele>617.6</ele>
        <time>2021-12-27T16:10:35Z</time>
      </trkpt>
      <trkpt lat="37.7553090" lon="-3.9471370">
        <ele>617.4</ele>
        <time>2021-12-27T16:10:36Z</time>
      </trkpt>
      <trkpt lat="37.7552770" lon="-3.9471700">
        <ele>617.4</ele>
        <time>2021-12-27T16:10:37Z</time>
      </trkpt>
      <trkpt lat="37.7552420" lon="-3.9472030">
        <ele>617.4</ele>
        <time>2021-12-27T16:10:38Z</time>
      </trkpt>
      <trkpt lat="37.7552060" lon="-3.9472420">
        <ele>617.4</ele>
        <time>2021-12-27T16:10:39Z</time>
      </trkpt>
      <trkpt lat="37.7551780" lon="-3.9472800">
        <ele>617.4</ele>
        <time>2021-12-27T16:10:40Z</time>
      </trkpt>
      <trkpt lat="37.7551460" lon="-3.9473170">
        <ele>617.4</ele>
        <time>2021-12-27T16:10:41Z</time>
      </trkpt>
      <trkpt lat="37.7551170" lon="-3.9473520">
        <ele>617.2</ele>
        <time>2021-12-27T16:10:42Z</time>
      </trkpt>
      <trkpt lat="37.7550850" lon="-3.9473880">
        <ele>617.2</ele>
        <time>2021-12-27T16:10:43Z</time>
      </trkpt>
      <trkpt lat="37.7550590" lon="-3.9474270">
        <ele>617.0</ele>
        <time>2021-12-27T16:10:44Z</time>
      </trkpt>
      <trkpt lat="37.7550300" lon="-3.9474630">
        <ele>617.0</ele>
        <time>2021-12-27T16:10:45Z</time>
      </trkpt>
      <trkpt lat="37.7550020" lon="-3.9474970">
        <ele>616.8</ele>
        <time>2021-12-27T16:10:46Z</time>
      </trkpt>
      <trkpt lat="37.7549660" lon="-3.9475330">
        <ele>616.8</ele>
        <time>2021-12-27T16:10:47Z</time>
      </trkpt>
      <trkpt lat="37.7549410" lon="-3.9475720">
        <ele>616.6</ele>
        <time>2021-12-27T16:10:48Z</time>
      </trkpt>
      <trkpt lat="37.7549120" lon="-3.9476080">
        <ele>616.4</ele>
        <time>2021-12-27T16:10:49Z</time>
      </trkpt>
      <trkpt lat="37.7548830" lon="-3.9476470">
        <ele>616.4</ele>
        <time>2021-12-27T16:10:50Z</time>
      </trkpt>
      <trkpt lat="37.7548510" lon="-3.9476850">
        <ele>616.2</ele>
        <time>2021-12-27T16:10:51Z</time>
      </trkpt>
      <trkpt lat="37.7548260" lon="-3.9477230">
        <ele>616.0</ele>
        <time>2021-12-27T16:10:52Z</time>
      </trkpt>
      <trkpt lat="37.7547940" lon="-3.9477620">
        <ele>616.0</ele>
        <time>2021-12-27T16:10:53Z</time>
      </trkpt>
      <trkpt lat="37.7547650" lon="-3.9478020">
        <ele>615.8</ele>
        <time>2021-12-27T16:10:54Z</time>
      </trkpt>
      <trkpt lat="37.7547330" lon="-3.9478420">
        <ele>615.6</ele>
        <time>2021-12-27T16:10:55Z</time>
      </trkpt>
      <trkpt lat="37.7547040" lon="-3.9478830">
        <ele>615.4</ele>
        <time>2021-12-27T16:10:56Z</time>
      </trkpt>
      <trkpt lat="37.7546780" lon="-3.9479280">
        <ele>615.4</ele>
        <time>2021-12-27T16:10:57Z</time>
      </trkpt>
      <trkpt lat="37.7546500" lon="-3.9479750">
        <ele>615.2</ele>
        <time>2021-12-27T16:10:58Z</time>
      </trkpt>
      <trkpt lat="37.7546240" lon="-3.9480230">
        <ele>615.2</ele>
        <time>2021-12-27T16:10:59Z</time>
      </trkpt>
      <trkpt lat="37.7545920" lon="-3.9480720">
        <ele>615.2</ele>
        <time>2021-12-27T16:11:00Z</time>
      </trkpt>
      <trkpt lat="37.7545660" lon="-3.9481220">
        <ele>615.0</ele>
        <time>2021-12-27T16:11:01Z</time>
      </trkpt>
      <trkpt lat="37.7545410" lon="-3.9481680">
        <ele>615.2</ele>
        <time>2021-12-27T16:11:02Z</time>
      </trkpt>
      <trkpt lat="37.7545150" lon="-3.9482180">
        <ele>615.0</ele>
        <time>2021-12-27T16:11:03Z</time>
      </trkpt>
      <trkpt lat="37.7544900" lon="-3.9482700">
        <ele>615.0</ele>
        <time>2021-12-27T16:11:04Z</time>
      </trkpt>
      <trkpt lat="37.7544640" lon="-3.9483220">
        <ele>614.8</ele>
        <time>2021-12-27T16:11:05Z</time>
      </trkpt>
      <trkpt lat="37.7544420" lon="-3.9483750">
        <ele>614.6</ele>
        <time>2021-12-27T16:11:06Z</time>
      </trkpt>
      <trkpt lat="37.7544130" lon="-3.9484280">
        <ele>614.4</ele>
        <time>2021-12-27T16:11:07Z</time>
      </trkpt>
      <trkpt lat="37.7543900" lon="-3.9484840">
        <ele>614.4</ele>
        <time>2021-12-27T16:11:08Z</time>
      </trkpt>
      <trkpt lat="37.7543680" lon="-3.9485370">
        <ele>614.2</ele>
        <time>2021-12-27T16:11:09Z</time>
      </trkpt>
      <trkpt lat="37.7543460" lon="-3.9485920">
        <ele>614.2</ele>
        <time>2021-12-27T16:11:10Z</time>
      </trkpt>
      <trkpt lat="37.7543170" lon="-3.9486500">
        <ele>614.0</ele>
        <time>2021-12-27T16:11:11Z</time>
      </trkpt>
      <trkpt lat="37.7543070" lon="-3.9487100">
        <ele>614.0</ele>
        <time>2021-12-27T16:11:12Z</time>
      </trkpt>
      <trkpt lat="37.7542910" lon="-3.9487700">
        <ele>613.8</ele>
        <time>2021-12-27T16:11:13Z</time>
      </trkpt>
      <trkpt lat="37.7542690" lon="-3.9488280">
        <ele>613.8</ele>
        <time>2021-12-27T16:11:14Z</time>
      </trkpt>
      <trkpt lat="37.7542460" lon="-3.9488830">
        <ele>613.8</ele>
        <time>2021-12-27T16:11:15Z</time>
      </trkpt>
      <trkpt lat="37.7542270" lon="-3.9489370">
        <ele>613.8</ele>
        <time>2021-12-27T16:11:16Z</time>
      </trkpt>
      <trkpt lat="37.7541980" lon="-3.9489880">
        <ele>613.8</ele>
        <time>2021-12-27T16:11:17Z</time>
      </trkpt>
      <trkpt lat="37.7541820" lon="-3.9490420">
        <ele>613.8</ele>
        <time>2021-12-27T16:11:18Z</time>
      </trkpt>
      <trkpt lat="37.7541570" lon="-3.9490950">
        <ele>613.6</ele>
        <time>2021-12-27T16:11:19Z</time>
      </trkpt>
      <trkpt lat="37.7541340" lon="-3.9491480">
        <ele>613.6</ele>
        <time>2021-12-27T16:11:20Z</time>
      </trkpt>
      <trkpt lat="37.7541090" lon="-3.9492000">
        <ele>613.6</ele>
        <time>2021-12-27T16:11:21Z</time>
      </trkpt>
      <trkpt lat="37.7540860" lon="-3.9492520">
        <ele>613.6</ele>
        <time>2021-12-27T16:11:22Z</time>
      </trkpt>
      <trkpt lat="37.7540670" lon="-3.9493030">
        <ele>613.6</ele>
        <time>2021-12-27T16:11:23Z</time>
      </trkpt>
      <trkpt lat="37.7540450" lon="-3.9493560">
        <ele>613.6</ele>
        <time>2021-12-27T16:11:24Z</time>
      </trkpt>
      <trkpt lat="37.7540260" lon="-3.9494070">
        <ele>613.4</ele>
        <time>2021-12-27T16:11:25Z</time>
      </trkpt>
      <trkpt lat="37.7540030" lon="-3.9494580">
        <ele>613.4</ele>
        <time>2021-12-27T16:11:26Z</time>
      </trkpt>
      <trkpt lat="37.7539840" lon="-3.9495080">
        <ele>613.4</ele>
        <time>2021-12-27T16:11:27Z</time>
      </trkpt>
      <trkpt lat="37.7539650" lon="-3.9495600">
        <ele>613.4</ele>
        <time>2021-12-27T16:11:28Z</time>
      </trkpt>
      <trkpt lat="37.7539390" lon="-3.9496130">
        <ele>613.4</ele>
        <time>2021-12-27T16:11:29Z</time>
      </trkpt>
      <trkpt lat="37.7539200" lon="-3.9496650">
        <ele>613.4</ele>
        <time>2021-12-27T16:11:30Z</time>
      </trkpt>
      <trkpt lat="37.7539040" lon="-3.9497180">
        <ele>613.4</ele>
        <time>2021-12-27T16:11:31Z</time>
      </trkpt>
      <trkpt lat="37.7538850" lon="-3.9497720">
        <ele>613.4</ele>
        <time>2021-12-27T16:11:32Z</time>
      </trkpt>
      <trkpt lat="37.7538660" lon="-3.9498270">
        <ele>613.4</ele>
        <time>2021-12-27T16:11:33Z</time>
      </trkpt>
      <trkpt lat="37.7538460" lon="-3.9498800">
        <ele>613.4</ele>
        <time>2021-12-27T16:11:34Z</time>
      </trkpt>
      <trkpt lat="37.7538270" lon="-3.9499300">
        <ele>613.4</ele>
        <time>2021-12-27T16:11:35Z</time>
      </trkpt>
      <trkpt lat="37.7538050" lon="-3.9499820">
        <ele>613.4</ele>
        <time>2021-12-27T16:11:36Z</time>
      </trkpt>
      <trkpt lat="37.7537890" lon="-3.9500360">
        <ele>613.4</ele>
        <time>2021-12-27T16:11:37Z</time>
      </trkpt>
      <trkpt lat="37.7537700" lon="-3.9500860">
        <ele>613.4</ele>
        <time>2021-12-27T16:11:38Z</time>
      </trkpt>
      <trkpt lat="37.7537540" lon="-3.9501380">
        <ele>613.2</ele>
        <time>2021-12-27T16:11:39Z</time>
      </trkpt>
      <trkpt lat="37.7537340" lon="-3.9501920">
        <ele>613.2</ele>
        <time>2021-12-27T16:11:40Z</time>
      </trkpt>
      <trkpt lat="37.7537150" lon="-3.9502450">
        <ele>613.2</ele>
        <time>2021-12-27T16:11:41Z</time>
      </trkpt>
      <trkpt lat="37.7536960" lon="-3.9502970">
        <ele>613.2</ele>
        <time>2021-12-27T16:11:42Z</time>
      </trkpt>
      <trkpt lat="37.7536770" lon="-3.9503480">
        <ele>613.2</ele>
        <time>2021-12-27T16:11:43Z</time>
      </trkpt>
      <trkpt lat="37.7536610" lon="-3.9504020">
        <ele>613.2</ele>
        <time>2021-12-27T16:11:44Z</time>
      </trkpt>
      <trkpt lat="37.7536480" lon="-3.9504550">
        <ele>613.0</ele>
        <time>2021-12-27T16:11:45Z</time>
      </trkpt>
      <trkpt lat="37.7536290" lon="-3.9505050">
        <ele>613.0</ele>
        <time>2021-12-27T16:11:46Z</time>
      </trkpt>
      <trkpt lat="37.7536130" lon="-3.9505570">
        <ele>613.0</ele>
        <time>2021-12-27T16:11:47Z</time>
      </trkpt>
      <trkpt lat="37.7535970" lon="-3.9506060">
        <ele>612.8</ele>
        <time>2021-12-27T16:11:48Z</time>
      </trkpt>
      <trkpt lat="37.7535780" lon="-3.9506580">
        <ele>612.8</ele>
        <time>2021-12-27T16:11:49Z</time>
      </trkpt>
      <trkpt lat="37.7535680" lon="-3.9507070">
        <ele>612.8</ele>
        <time>2021-12-27T16:11:50Z</time>
      </trkpt>
      <trkpt lat="37.7535520" lon="-3.9507560">
        <ele>612.8</ele>
        <time>2021-12-27T16:11:51Z</time>
      </trkpt>
      <trkpt lat="37.7535360" lon="-3.9508080">
        <ele>612.8</ele>
        <time>2021-12-27T16:11:52Z</time>
      </trkpt>
      <trkpt lat="37.7535230" lon="-3.9508600">
        <ele>612.6</ele>
        <time>2021-12-27T16:11:53Z</time>
      </trkpt>
      <trkpt lat="37.7535100" lon="-3.9509120">
        <ele>612.6</ele>
        <time>2021-12-27T16:11:54Z</time>
      </trkpt>
      <trkpt lat="37.7534980" lon="-3.9509630">
        <ele>612.6</ele>
        <time>2021-12-27T16:11:55Z</time>
      </trkpt>
      <trkpt lat="37.7534880" lon="-3.9510120">
        <ele>612.4</ele>
        <time>2021-12-27T16:11:56Z</time>
      </trkpt>
      <trkpt lat="37.7534750" lon="-3.9510650">
        <ele>612.4</ele>
        <time>2021-12-27T16:11:57Z</time>
      </trkpt>
      <trkpt lat="37.7534690" lon="-3.9511160">
        <ele>612.4</ele>
        <time>2021-12-27T16:11:58Z</time>
      </trkpt>
      <trkpt lat="37.7534590" lon="-3.9511700">
        <ele>612.4</ele>
        <time>2021-12-27T16:11:59Z</time>
      </trkpt>
      <trkpt lat="37.7534500" lon="-3.9512220">
        <ele>612.4</ele>
        <time>2021-12-27T16:12:00Z</time>
      </trkpt>
      <trkpt lat="37.7534400" lon="-3.9512770">
        <ele>612.4</ele>
        <time>2021-12-27T16:12:01Z</time>
      </trkpt>
      <trkpt lat="37.7534340" lon="-3.9513350">
        <ele>612.4</ele>
        <time>2021-12-27T16:12:02Z</time>
      </trkpt>
      <trkpt lat="37.7534210" lon="-3.9513920">
        <ele>612.2</ele>
        <time>2021-12-27T16:12:03Z</time>
      </trkpt>
      <trkpt lat="37.7534140" lon="-3.9514460">
        <ele>612.2</ele>
        <time>2021-12-27T16:12:04Z</time>
      </trkpt>
      <trkpt lat="37.7534080" lon="-3.9515000">
        <ele>612.2</ele>
        <time>2021-12-27T16:12:05Z</time>
      </trkpt>
      <trkpt lat="37.7533980" lon="-3.9515570">
        <ele>612.2</ele>
        <time>2021-12-27T16:12:06Z</time>
      </trkpt>
      <trkpt lat="37.7533950" lon="-3.9516080">
        <ele>612.0</ele>
        <time>2021-12-27T16:12:07Z</time>
      </trkpt>
      <trkpt lat="37.7533890" lon="-3.9516620">
        <ele>612.0</ele>
        <time>2021-12-27T16:12:08Z</time>
      </trkpt>
      <trkpt lat="37.7533790" lon="-3.9517130">
        <ele>611.8</ele>
        <time>2021-12-27T16:12:09Z</time>
      </trkpt>
      <trkpt lat="37.7533760" lon="-3.9517650">
        <ele>611.8</ele>
        <time>2021-12-27T16:12:10Z</time>
      </trkpt>
      <trkpt lat="37.7533700" lon="-3.9518180">
        <ele>611.8</ele>
        <time>2021-12-27T16:12:11Z</time>
      </trkpt>
      <trkpt lat="37.7533570" lon="-3.9518680">
        <ele>611.8</ele>
        <time>2021-12-27T16:12:12Z</time>
      </trkpt>
      <trkpt lat="37.7533540" lon="-3.9519130">
        <ele>611.8</ele>
        <time>2021-12-27T16:12:13Z</time>
      </trkpt>
      <trkpt lat="37.7533440" lon="-3.9519580">
        <ele>611.8</ele>
        <time>2021-12-27T16:12:14Z</time>
      </trkpt>
      <trkpt lat="37.7533410" lon="-3.9520040">
        <ele>612.0</ele>
        <time>2021-12-27T16:12:15Z</time>
      </trkpt>
      <trkpt lat="37.7533340" lon="-3.9520480">
        <ele>612.0</ele>
        <time>2021-12-27T16:12:16Z</time>
      </trkpt>
      <trkpt lat="37.7533310" lon="-3.9520930">
        <ele>612.0</ele>
        <time>2021-12-27T16:12:17Z</time>
      </trkpt>
      <trkpt lat="37.7533340" lon="-3.9521350">
        <ele>612.0</ele>
        <time>2021-12-27T16:12:18Z</time>
      </trkpt>
      <trkpt lat="37.7533340" lon="-3.9521800">
        <ele>612.0</ele>
        <time>2021-12-27T16:12:19Z</time>
      </trkpt>
      <trkpt lat="37.7533340" lon="-3.9522220">
        <ele>612.0</ele>
        <time>2021-12-27T16:12:20Z</time>
      </trkpt>
      <trkpt lat="37.7533310" lon="-3.9522670">
        <ele>612.0</ele>
        <time>2021-12-27T16:12:21Z</time>
      </trkpt>
      <trkpt lat="37.7533310" lon="-3.9523150">
        <ele>612.0</ele>
        <time>2021-12-27T16:12:22Z</time>
      </trkpt>
      <trkpt lat="37.7533340" lon="-3.9523600">
        <ele>612.0</ele>
        <time>2021-12-27T16:12:23Z</time>
      </trkpt>
      <trkpt lat="37.7533340" lon="-3.9524050">
        <ele>612.0</ele>
        <time>2021-12-27T16:12:24Z</time>
      </trkpt>
      <trkpt lat="37.7533340" lon="-3.9524500">
        <ele>612.0</ele>
        <time>2021-12-27T16:12:25Z</time>
      </trkpt>
      <trkpt lat="37.7533340" lon="-3.9524980">
        <ele>612.2</ele>
        <time>2021-12-27T16:12:26Z</time>
      </trkpt>
      <trkpt lat="37.7533310" lon="-3.9525500">
        <ele>612.2</ele>
        <time>2021-12-27T16:12:27Z</time>
      </trkpt>
      <trkpt lat="37.7533310" lon="-3.9526000">
        <ele>612.4</ele>
        <time>2021-12-27T16:12:28Z</time>
      </trkpt>
      <trkpt lat="37.7533310" lon="-3.9526480">
        <ele>612.6</ele>
        <time>2021-12-27T16:12:29Z</time>
      </trkpt>
      <trkpt lat="37.7533310" lon="-3.9526950">
        <ele>612.6</ele>
        <time>2021-12-27T16:12:30Z</time>
      </trkpt>
      <trkpt lat="37.7533380" lon="-3.9527430">
        <ele>612.8</ele>
        <time>2021-12-27T16:12:31Z</time>
      </trkpt>
      <trkpt lat="37.7533410" lon="-3.9527870">
        <ele>612.8</ele>
        <time>2021-12-27T16:12:32Z</time>
      </trkpt>
      <trkpt lat="37.7533500" lon="-3.9528320">
        <ele>612.8</ele>
        <time>2021-12-27T16:12:33Z</time>
      </trkpt>
      <trkpt lat="37.7533500" lon="-3.9528800">
        <ele>612.8</ele>
        <time>2021-12-27T16:12:34Z</time>
      </trkpt>
      <trkpt lat="37.7533500" lon="-3.9529270">
        <ele>613.0</ele>
        <time>2021-12-27T16:12:35Z</time>
      </trkpt>
      <trkpt lat="37.7533540" lon="-3.9529750">
        <ele>613.0</ele>
        <time>2021-12-27T16:12:36Z</time>
      </trkpt>
      <trkpt lat="37.7533540" lon="-3.9530220">
        <ele>612.8</ele>
        <time>2021-12-27T16:12:37Z</time>
      </trkpt>
      <trkpt lat="37.7533570" lon="-3.9530720">
        <ele>612.8</ele>
        <time>2021-12-27T16:12:38Z</time>
      </trkpt>
      <trkpt lat="37.7533600" lon="-3.9531170">
        <ele>612.8</ele>
        <time>2021-12-27T16:12:39Z</time>
      </trkpt>
      <trkpt lat="37.7533630" lon="-3.9531620">
        <ele>612.8</ele>
        <time>2021-12-27T16:12:40Z</time>
      </trkpt>
      <trkpt lat="37.7533700" lon="-3.9532120">
        <ele>612.8</ele>
        <time>2021-12-27T16:12:41Z</time>
      </trkpt>
      <trkpt lat="37.7533730" lon="-3.9532580">
        <ele>612.6</ele>
        <time>2021-12-27T16:12:42Z</time>
      </trkpt>
      <trkpt lat="37.7533760" lon="-3.9533050">
        <ele>612.6</ele>
        <time>2021-12-27T16:12:43Z</time>
      </trkpt>
      <trkpt lat="37.7533790" lon="-3.9533580">
        <ele>612.6</ele>
        <time>2021-12-27T16:12:44Z</time>
      </trkpt>
      <trkpt lat="37.7533820" lon="-3.9534070">
        <ele>612.6</ele>
        <time>2021-12-27T16:12:45Z</time>
      </trkpt>
      <trkpt lat="37.7533920" lon="-3.9534570">
        <ele>612.4</ele>
        <time>2021-12-27T16:12:46Z</time>
      </trkpt>
      <trkpt lat="37.7533950" lon="-3.9535070">
        <ele>612.4</ele>
        <time>2021-12-27T16:12:47Z</time>
      </trkpt>
      <trkpt lat="37.7534020" lon="-3.9535680">
        <ele>612.2</ele>
        <time>2021-12-27T16:12:48Z</time>
      </trkpt>
      <trkpt lat="37.7534110" lon="-3.9536080">
        <ele>612.2</ele>
        <time>2021-12-27T16:12:49Z</time>
      </trkpt>
      <trkpt lat="37.7534210" lon="-3.9536580">
        <ele>612.2</ele>
        <time>2021-12-27T16:12:50Z</time>
      </trkpt>
      <trkpt lat="37.7534340" lon="-3.9537220">
        <ele>612.2</ele>
        <time>2021-12-27T16:12:51Z</time>
      </trkpt>
      <trkpt lat="37.7534370" lon="-3.9537630">
        <ele>612.2</ele>
        <time>2021-12-27T16:12:52Z</time>
      </trkpt>
      <trkpt lat="37.7534500" lon="-3.9538120">
        <ele>612.2</ele>
        <time>2021-12-27T16:12:53Z</time>
      </trkpt>
      <trkpt lat="37.7534590" lon="-3.9538620">
        <ele>612.0</ele>
        <time>2021-12-27T16:12:54Z</time>
      </trkpt>
      <trkpt lat="37.7534690" lon="-3.9539180">
        <ele>612.0</ele>
        <time>2021-12-27T16:12:55Z</time>
      </trkpt>
      <trkpt lat="37.7534750" lon="-3.9539570">
        <ele>612.0</ele>
        <time>2021-12-27T16:12:56Z</time>
      </trkpt>
      <trkpt lat="37.7534880" lon="-3.9540030">
        <ele>611.8</ele>
        <time>2021-12-27T16:12:57Z</time>
      </trkpt>
      <trkpt lat="37.7534980" lon="-3.9540500">
        <ele>611.8</ele>
        <time>2021-12-27T16:12:58Z</time>
      </trkpt>
      <trkpt lat="37.7535100" lon="-3.9541070">
        <ele>611.8</ele>
        <time>2021-12-27T16:12:59Z</time>
      </trkpt>
      <trkpt lat="37.7535200" lon="-3.9541520">
        <ele>612.0</ele>
        <time>2021-12-27T16:13:00Z</time>
      </trkpt>
      <trkpt lat="37.7535230" lon="-3.9541900">
        <ele>612.0</ele>
        <time>2021-12-27T16:13:01Z</time>
      </trkpt>
      <trkpt lat="37.7535360" lon="-3.9542320">
        <ele>612.0</ele>
        <time>2021-12-27T16:13:02Z</time>
      </trkpt>
      <trkpt lat="37.7535520" lon="-3.9542750">
        <ele>612.0</ele>
        <time>2021-12-27T16:13:03Z</time>
      </trkpt>
      <trkpt lat="37.7535580" lon="-3.9543180">
        <ele>612.0</ele>
        <time>2021-12-27T16:13:04Z</time>
      </trkpt>
      <trkpt lat="37.7535710" lon="-3.9543620">
        <ele>612.0</ele>
        <time>2021-12-27T16:13:05Z</time>
      </trkpt>
      <trkpt lat="37.7535870" lon="-3.9544050">
        <ele>612.0</ele>
        <time>2021-12-27T16:13:06Z</time>
      </trkpt>
      <trkpt lat="37.7535970" lon="-3.9544520">
        <ele>612.0</ele>
        <time>2021-12-27T16:13:07Z</time>
      </trkpt>
      <trkpt lat="37.7536130" lon="-3.9545020">
        <ele>612.0</ele>
        <time>2021-12-27T16:13:08Z</time>
      </trkpt>
      <trkpt lat="37.7536220" lon="-3.9545500">
        <ele>612.0</ele>
        <time>2021-12-27T16:13:09Z</time>
      </trkpt>
      <trkpt lat="37.7536380" lon="-3.9546000">
        <ele>612.2</ele>
        <time>2021-12-27T16:13:10Z</time>
      </trkpt>
      <trkpt lat="37.7536580" lon="-3.9546520">
        <ele>612.2</ele>
        <time>2021-12-27T16:13:11Z</time>
      </trkpt>
      <trkpt lat="37.7536740" lon="-3.9547020">
        <ele>612.2</ele>
        <time>2021-12-27T16:13:12Z</time>
      </trkpt>
      <trkpt lat="37.7536960" lon="-3.9547470">
        <ele>612.2</ele>
        <time>2021-12-27T16:13:13Z</time>
      </trkpt>
      <trkpt lat="37.7537150" lon="-3.9547870">
        <ele>612.2</ele>
        <time>2021-12-27T16:13:14Z</time>
      </trkpt>
      <trkpt lat="37.7537310" lon="-3.9548260">
        <ele>612.4</ele>
        <time>2021-12-27T16:13:15Z</time>
      </trkpt>
      <trkpt lat="37.7537470" lon="-3.9548620">
        <ele>612.4</ele>
        <time>2021-12-27T16:13:16Z</time>
      </trkpt>
      <trkpt lat="37.7537600" lon="-3.9548970">
        <ele>612.4</ele>
        <time>2021-12-27T16:13:17Z</time>
      </trkpt>
      <trkpt lat="37.7537760" lon="-3.9549250">
        <ele>612.4</ele>
        <time>2021-12-27T16:13:18Z</time>
      </trkpt>
      <trkpt lat="37.7537890" lon="-3.9549480">
        <ele>612.6</ele>
        <time>2021-12-27T16:13:19Z</time>
      </trkpt>
      <trkpt lat="37.7537890" lon="-3.9549480">
        <ele>612.6</ele>
        <time>2021-12-27T16:13:20Z</time>
      </trkpt>
      <trkpt lat="37.7538080" lon="-3.9549860">
        <ele>612.6</ele>
        <time>2021-12-27T16:13:21Z</time>
      </trkpt>
      <trkpt lat="37.7538180" lon="-3.9550060">
        <ele>612.8</ele>
        <time>2021-12-27T16:13:22Z</time>
      </trkpt>
      <trkpt lat="37.7538270" lon="-3.9550300">
        <ele>612.8</ele>
        <time>2021-12-27T16:13:23Z</time>
      </trkpt>
      <trkpt lat="37.7538340" lon="-3.9550550">
        <ele>612.8</ele>
        <time>2021-12-27T16:13:24Z</time>
      </trkpt>
      <trkpt lat="37.7538400" lon="-3.9550820">
        <ele>612.8</ele>
        <time>2021-12-27T16:13:25Z</time>
      </trkpt>
      <trkpt lat="37.7538500" lon="-3.9551080">
        <ele>612.8</ele>
        <time>2021-12-27T16:13:26Z</time>
      </trkpt>
      <trkpt lat="37.7538590" lon="-3.9551320">
        <ele>612.8</ele>
        <time>2021-12-27T16:13:27Z</time>
      </trkpt>
      <trkpt lat="37.7538720" lon="-3.9551500">
        <ele>612.8</ele>
        <time>2021-12-27T16:13:28Z</time>
      </trkpt>
      <trkpt lat="37.7538720" lon="-3.9551500">
        <ele>612.8</ele>
        <time>2021-12-27T16:13:29Z</time>
      </trkpt>
      <trkpt lat="37.7538850" lon="-3.9551850">
        <ele>613.0</ele>
        <time>2021-12-27T16:13:30Z</time>
      </trkpt>
      <trkpt lat="37.7538850" lon="-3.9551850">
        <ele>613.0</ele>
        <time>2021-12-27T16:13:31Z</time>
      </trkpt>
      <trkpt lat="37.7538910" lon="-3.9552150">
        <ele>613.2</ele>
        <time>2021-12-27T16:13:32Z</time>
      </trkpt>
      <trkpt lat="37.7538910" lon="-3.9552150">
        <ele>613.2</ele>
        <time>2021-12-27T16:13:33Z</time>
      </trkpt>
      <trkpt lat="37.7538980" lon="-3.9552380">
        <ele>613.2</ele>
        <time>2021-12-27T16:13:34Z</time>
      </trkpt>
      <trkpt lat="37.7538980" lon="-3.9552380">
        <ele>613.2</ele>
        <time>2021-12-27T16:13:35Z</time>
      </trkpt>
      <trkpt lat="37.7539070" lon="-3.9552580">
        <ele>613.2</ele>
        <time>2021-12-27T16:13:36Z</time>
      </trkpt>
      <trkpt lat="37.7539070" lon="-3.9552580">
        <ele>613.4</ele>
        <time>2021-12-27T16:13:37Z</time>
      </trkpt>
      <trkpt lat="37.7539070" lon="-3.9552580">
        <ele>613.4</ele>
        <time>2021-12-27T16:13:38Z</time>
      </trkpt>
      <trkpt lat="37.7539070" lon="-3.9552580">
        <ele>613.6</ele>
        <time>2021-12-27T16:13:39Z</time>
      </trkpt>
      <trkpt lat="37.7539140" lon="-3.9552820">
        <ele>613.6</ele>
        <time>2021-12-27T16:13:40Z</time>
      </trkpt>
      <trkpt lat="37.7539140" lon="-3.9552820">
        <ele>613.6</ele>
        <time>2021-12-27T16:13:41Z</time>
      </trkpt>
      <trkpt lat="37.7539140" lon="-3.9552820">
        <ele>613.6</ele>
        <time>2021-12-27T16:13:42Z</time>
      </trkpt>
      <trkpt lat="37.7539140" lon="-3.9552820">
        <ele>613.6</ele>
        <time>2021-12-27T16:13:43Z</time>
      </trkpt>
      <trkpt lat="37.7539970" lon="-3.9554370">
        <ele>613.6</ele>
        <time>2021-12-27T16:14:31Z</time>
      </trkpt>
      <trkpt lat="37.7540130" lon="-3.9554700">
        <ele>613.6</ele>
        <time>2021-12-27T16:14:32Z</time>
      </trkpt>
      <trkpt lat="37.7540290" lon="-3.9555040">
        <ele>613.6</ele>
        <time>2021-12-27T16:14:33Z</time>
      </trkpt>
      <trkpt lat="37.7540450" lon="-3.9555320">
        <ele>613.6</ele>
        <time>2021-12-27T16:14:34Z</time>
      </trkpt>
      <trkpt lat="37.7540540" lon="-3.9555580">
        <ele>613.8</ele>
        <time>2021-12-27T16:14:35Z</time>
      </trkpt>
      <trkpt lat="37.7540670" lon="-3.9555850">
        <ele>613.8</ele>
        <time>2021-12-27T16:14:36Z</time>
      </trkpt>
      <trkpt lat="37.7540830" lon="-3.9556120">
        <ele>613.8</ele>
        <time>2021-12-27T16:14:37Z</time>
      </trkpt>
      <trkpt lat="37.7540930" lon="-3.9556340">
        <ele>613.8</ele>
        <time>2021-12-27T16:14:38Z</time>
      </trkpt>
      <trkpt lat="37.7540930" lon="-3.9556340">
        <ele>613.8</ele>
        <time>2021-12-27T16:14:39Z</time>
      </trkpt>
      <trkpt lat="37.7541120" lon="-3.9556620">
        <ele>613.8</ele>
        <time>2021-12-27T16:14:40Z</time>
      </trkpt>
      <trkpt lat="37.7541120" lon="-3.9556620">
        <ele>613.8</ele>
        <time>2021-12-27T16:14:41Z</time>
      </trkpt>
      <trkpt lat="37.7541310" lon="-3.9556780">
        <ele>613.8</ele>
        <time>2021-12-27T16:14:42Z</time>
      </trkpt>
      <trkpt lat="37.7541310" lon="-3.9556780">
        <ele>613.8</ele>
        <time>2021-12-27T16:14:43Z</time>
      </trkpt>
      <trkpt lat="37.7541310" lon="-3.9556780">
        <ele>613.8</ele>
        <time>2021-12-27T16:14:44Z</time>
      </trkpt>
      <trkpt lat="37.7541310" lon="-3.9556780">
        <ele>613.8</ele>
        <time>2021-12-27T16:14:45Z</time>
      </trkpt>
      <trkpt lat="37.7541310" lon="-3.9556780">
        <ele>613.8</ele>
        <time>2021-12-27T16:14:46Z</time>
      </trkpt>
      <trkpt lat="37.7542140" lon="-3.9557930">
        <ele>614.4</ele>
        <time>2021-12-27T16:14:52Z</time>
      </trkpt>
      <trkpt lat="37.7542270" lon="-3.9558270">
        <ele>614.4</ele>
        <time>2021-12-27T16:14:53Z</time>
      </trkpt>
      <trkpt lat="37.7542460" lon="-3.9558500">
        <ele>614.4</ele>
        <time>2021-12-27T16:14:54Z</time>
      </trkpt>
      <trkpt lat="37.7542660" lon="-3.9558750">
        <ele>614.4</ele>
        <time>2021-12-27T16:14:55Z</time>
      </trkpt>
      <trkpt lat="37.7542880" lon="-3.9559000">
        <ele>614.4</ele>
        <time>2021-12-27T16:14:56Z</time>
      </trkpt>
      <trkpt lat="37.7543070" lon="-3.9559250">
        <ele>614.4</ele>
        <time>2021-12-27T16:14:57Z</time>
      </trkpt>
      <trkpt lat="37.7543300" lon="-3.9559480">
        <ele>614.6</ele>
        <time>2021-12-27T16:14:58Z</time>
      </trkpt>
      <trkpt lat="37.7543490" lon="-3.9559730">
        <ele>614.6</ele>
        <time>2021-12-27T16:14:59Z</time>
      </trkpt>
      <trkpt lat="37.7543710" lon="-3.9560020">
        <ele>614.6</ele>
        <time>2021-12-27T16:15:00Z</time>
      </trkpt>
      <trkpt lat="37.7543870" lon="-3.9560320">
        <ele>614.8</ele>
        <time>2021-12-27T16:15:01Z</time>
      </trkpt>
      <trkpt lat="37.7544100" lon="-3.9560650">
        <ele>614.8</ele>
        <time>2021-12-27T16:15:02Z</time>
      </trkpt>
      <trkpt lat="37.7544320" lon="-3.9561000">
        <ele>614.8</ele>
        <time>2021-12-27T16:15:03Z</time>
      </trkpt>
      <trkpt lat="37.7544510" lon="-3.9561350">
        <ele>615.0</ele>
        <time>2021-12-27T16:15:04Z</time>
      </trkpt>
      <trkpt lat="37.7544740" lon="-3.9561670">
        <ele>615.0</ele>
        <time>2021-12-27T16:15:05Z</time>
      </trkpt>
      <trkpt lat="37.7544960" lon="-3.9561940">
        <ele>615.0</ele>
        <time>2021-12-27T16:15:06Z</time>
      </trkpt>
      <trkpt lat="37.7545220" lon="-3.9562200">
        <ele>615.0</ele>
        <time>2021-12-27T16:15:07Z</time>
      </trkpt>
      <trkpt lat="37.7545440" lon="-3.9562470">
        <ele>615.0</ele>
        <time>2021-12-27T16:15:08Z</time>
      </trkpt>
      <trkpt lat="37.7545630" lon="-3.9562770">
        <ele>615.0</ele>
        <time>2021-12-27T16:15:09Z</time>
      </trkpt>
      <trkpt lat="37.7545860" lon="-3.9563080">
        <ele>615.2</ele>
        <time>2021-12-27T16:15:10Z</time>
      </trkpt>
      <trkpt lat="37.7546050" lon="-3.9563400">
        <ele>615.2</ele>
        <time>2021-12-27T16:15:11Z</time>
      </trkpt>
      <trkpt lat="37.7546240" lon="-3.9563720">
        <ele>615.0</ele>
        <time>2021-12-27T16:15:12Z</time>
      </trkpt>
      <trkpt lat="37.7546460" lon="-3.9564020">
        <ele>615.2</ele>
        <time>2021-12-27T16:15:13Z</time>
      </trkpt>
      <trkpt lat="37.7546660" lon="-3.9564280">
        <ele>615.2</ele>
        <time>2021-12-27T16:15:14Z</time>
      </trkpt>
      <trkpt lat="37.7546880" lon="-3.9564570">
        <ele>615.2</ele>
        <time>2021-12-27T16:15:15Z</time>
      </trkpt>
      <trkpt lat="37.7547040" lon="-3.9564820">
        <ele>615.2</ele>
        <time>2021-12-27T16:15:16Z</time>
      </trkpt>
      <trkpt lat="37.7547260" lon="-3.9565020">
        <ele>615.2</ele>
        <time>2021-12-27T16:15:17Z</time>
      </trkpt>
      <trkpt lat="37.7547460" lon="-3.9565200">
        <ele>615.2</ele>
        <time>2021-12-27T16:15:18Z</time>
      </trkpt>
      <trkpt lat="37.7547650" lon="-3.9565420">
        <ele>615.2</ele>
        <time>2021-12-27T16:15:19Z</time>
      </trkpt>
      <trkpt lat="37.7547810" lon="-3.9565800">
        <ele>615.2</ele>
        <time>2021-12-27T16:15:20Z</time>
      </trkpt>
      <trkpt lat="37.7548000" lon="-3.9566080">
        <ele>615.2</ele>
        <time>2021-12-27T16:15:21Z</time>
      </trkpt>
      <trkpt lat="37.7548100" lon="-3.9566330">
        <ele>615.2</ele>
        <time>2021-12-27T16:15:22Z</time>
      </trkpt>
      <trkpt lat="37.7548290" lon="-3.9566620">
        <ele>615.2</ele>
        <time>2021-12-27T16:15:23Z</time>
      </trkpt>
      <trkpt lat="37.7548480" lon="-3.9566830">
        <ele>615.2</ele>
        <time>2021-12-27T16:15:24Z</time>
      </trkpt>
      <trkpt lat="37.7548670" lon="-3.9567020">
        <ele>615.4</ele>
        <time>2021-12-27T16:15:25Z</time>
      </trkpt>
      <trkpt lat="37.7548860" lon="-3.9567220">
        <ele>615.4</ele>
        <time>2021-12-27T16:15:26Z</time>
      </trkpt>
      <trkpt lat="37.7549090" lon="-3.9567450">
        <ele>615.6</ele>
        <time>2021-12-27T16:15:27Z</time>
      </trkpt>
      <trkpt lat="37.7549280" lon="-3.9567700">
        <ele>615.6</ele>
        <time>2021-12-27T16:15:28Z</time>
      </trkpt>
      <trkpt lat="37.7549470" lon="-3.9567920">
        <ele>615.6</ele>
        <time>2021-12-27T16:15:29Z</time>
      </trkpt>
      <trkpt lat="37.7549660" lon="-3.9568120">
        <ele>615.8</ele>
        <time>2021-12-27T16:15:30Z</time>
      </trkpt>
      <trkpt lat="37.7549860" lon="-3.9568330">
        <ele>615.8</ele>
        <time>2021-12-27T16:15:31Z</time>
      </trkpt>
      <trkpt lat="37.7550050" lon="-3.9568530">
        <ele>615.8</ele>
        <time>2021-12-27T16:15:32Z</time>
      </trkpt>
      <trkpt lat="37.7550270" lon="-3.9568740">
        <ele>615.8</ele>
        <time>2021-12-27T16:15:33Z</time>
      </trkpt>
      <trkpt lat="37.7550460" lon="-3.9568970">
        <ele>615.8</ele>
        <time>2021-12-27T16:15:34Z</time>
      </trkpt>
      <trkpt lat="37.7550620" lon="-3.9569180">
        <ele>615.8</ele>
        <time>2021-12-27T16:15:35Z</time>
      </trkpt>
      <trkpt lat="37.7550780" lon="-3.9569420">
        <ele>615.8</ele>
        <time>2021-12-27T16:15:36Z</time>
      </trkpt>
      <trkpt lat="37.7550980" lon="-3.9569650">
        <ele>616.0</ele>
        <time>2021-12-27T16:15:37Z</time>
      </trkpt>
      <trkpt lat="37.7551100" lon="-3.9569870">
        <ele>616.0</ele>
        <time>2021-12-27T16:15:38Z</time>
      </trkpt>
      <trkpt lat="37.7551300" lon="-3.9570070">
        <ele>616.0</ele>
        <time>2021-12-27T16:15:39Z</time>
      </trkpt>
      <trkpt lat="37.7551460" lon="-3.9570270">
        <ele>616.0</ele>
        <time>2021-12-27T16:15:40Z</time>
      </trkpt>
      <trkpt lat="37.7551620" lon="-3.9570480">
        <ele>616.0</ele>
        <time>2021-12-27T16:15:41Z</time>
      </trkpt>
      <trkpt lat="37.7551810" lon="-3.9570630">
        <ele>616.0</ele>
        <time>2021-12-27T16:15:42Z</time>
      </trkpt>
      <trkpt lat="37.7552000" lon="-3.9570820">
        <ele>616.0</ele>
        <time>2021-12-27T16:15:43Z</time>
      </trkpt>
      <trkpt lat="37.7552190" lon="-3.9571020">
        <ele>616.0</ele>
        <time>2021-12-27T16:15:44Z</time>
      </trkpt>
      <trkpt lat="37.7552350" lon="-3.9571220">
        <ele>616.0</ele>
        <time>2021-12-27T16:15:45Z</time>
      </trkpt>
      <trkpt lat="37.7552480" lon="-3.9571420">
        <ele>616.0</ele>
        <time>2021-12-27T16:15:46Z</time>
      </trkpt>
      <trkpt lat="37.7552670" lon="-3.9571650">
        <ele>616.0</ele>
        <time>2021-12-27T16:15:47Z</time>
      </trkpt>
      <trkpt lat="37.7552830" lon="-3.9571900">
        <ele>616.2</ele>
        <time>2021-12-27T16:15:48Z</time>
      </trkpt>
      <trkpt lat="37.7552990" lon="-3.9572150">
        <ele>616.2</ele>
        <time>2021-12-27T16:15:49Z</time>
      </trkpt>
      <trkpt lat="37.7553180" lon="-3.9572400">
        <ele>616.2</ele>
        <time>2021-12-27T16:15:50Z</time>
      </trkpt>
      <trkpt lat="37.7553380" lon="-3.9572600">
        <ele>616.4</ele>
        <time>2021-12-27T16:15:51Z</time>
      </trkpt>
      <trkpt lat="37.7553540" lon="-3.9572830">
        <ele>616.4</ele>
        <time>2021-12-27T16:15:52Z</time>
      </trkpt>
      <trkpt lat="37.7553660" lon="-3.9573050">
        <ele>616.4</ele>
        <time>2021-12-27T16:15:53Z</time>
      </trkpt>
      <trkpt lat="37.7553890" lon="-3.9573270">
        <ele>616.4</ele>
        <time>2021-12-27T16:15:54Z</time>
      </trkpt>
      <trkpt lat="37.7554050" lon="-3.9573520">
        <ele>616.4</ele>
        <time>2021-12-27T16:15:55Z</time>
      </trkpt>
      <trkpt lat="37.7554210" lon="-3.9573800">
        <ele>616.6</ele>
        <time>2021-12-27T16:15:56Z</time>
      </trkpt>
      <trkpt lat="37.7554400" lon="-3.9574060">
        <ele>616.6</ele>
        <time>2021-12-27T16:15:57Z</time>
      </trkpt>
      <trkpt lat="37.7554590" lon="-3.9574320">
        <ele>616.6</ele>
        <time>2021-12-27T16:15:58Z</time>
      </trkpt>
      <trkpt lat="37.7554780" lon="-3.9574580">
        <ele>616.6</ele>
        <time>2021-12-27T16:15:59Z</time>
      </trkpt>
      <trkpt lat="37.7555010" lon="-3.9574870">
        <ele>616.8</ele>
        <time>2021-12-27T16:16:00Z</time>
      </trkpt>
      <trkpt lat="37.7555200" lon="-3.9575130">
        <ele>616.8</ele>
        <time>2021-12-27T16:16:01Z</time>
      </trkpt>
      <trkpt lat="37.7555460" lon="-3.9575400">
        <ele>617.0</ele>
        <time>2021-12-27T16:16:02Z</time>
      </trkpt>
      <trkpt lat="37.7555680" lon="-3.9575670">
        <ele>617.0</ele>
        <time>2021-12-27T16:16:03Z</time>
      </trkpt>
      <trkpt lat="37.7555870" lon="-3.9575950">
        <ele>617.0</ele>
        <time>2021-12-27T16:16:04Z</time>
      </trkpt>
      <trkpt lat="37.7556130" lon="-3.9576220">
        <ele>617.0</ele>
        <time>2021-12-27T16:16:05Z</time>
      </trkpt>
      <trkpt lat="37.7556320" lon="-3.9576470">
        <ele>617.0</ele>
        <time>2021-12-27T16:16:06Z</time>
      </trkpt>
      <trkpt lat="37.7556540" lon="-3.9576730">
        <ele>617.2</ele>
        <time>2021-12-27T16:16:07Z</time>
      </trkpt>
      <trkpt lat="37.7556770" lon="-3.9577000">
        <ele>617.0</ele>
        <time>2021-12-27T16:16:08Z</time>
      </trkpt>
      <trkpt lat="37.7556960" lon="-3.9577300">
        <ele>617.0</ele>
        <time>2021-12-27T16:16:09Z</time>
      </trkpt>
      <trkpt lat="37.7557180" lon="-3.9577600">
        <ele>616.8</ele>
        <time>2021-12-27T16:16:10Z</time>
      </trkpt>
      <trkpt lat="37.7557380" lon="-3.9577880">
        <ele>617.0</ele>
        <time>2021-12-27T16:16:11Z</time>
      </trkpt>
      <trkpt lat="37.7557600" lon="-3.9578150">
        <ele>617.0</ele>
        <time>2021-12-27T16:16:12Z</time>
      </trkpt>
      <trkpt lat="37.7557760" lon="-3.9578430">
        <ele>617.0</ele>
        <time>2021-12-27T16:16:13Z</time>
      </trkpt>
      <trkpt lat="37.7557980" lon="-3.9578670">
        <ele>617.0</ele>
        <time>2021-12-27T16:16:14Z</time>
      </trkpt>
      <trkpt lat="37.7558140" lon="-3.9578920">
        <ele>617.2</ele>
        <time>2021-12-27T16:16:15Z</time>
      </trkpt>
      <trkpt lat="37.7558370" lon="-3.9579130">
        <ele>617.2</ele>
        <time>2021-12-27T16:16:16Z</time>
      </trkpt>
      <trkpt lat="37.7558530" lon="-3.9579370">
        <ele>617.2</ele>
        <time>2021-12-27T16:16:17Z</time>
      </trkpt>
      <trkpt lat="37.7558720" lon="-3.9579650">
        <ele>617.4</ele>
        <time>2021-12-27T16:16:18Z</time>
      </trkpt>
      <trkpt lat="37.7558910" lon="-3.9579900">
        <ele>617.4</ele>
        <time>2021-12-27T16:16:19Z</time>
      </trkpt>
      <trkpt lat="37.7559140" lon="-3.9580130">
        <ele>617.4</ele>
        <time>2021-12-27T16:16:20Z</time>
      </trkpt>
      <trkpt lat="37.7559360" lon="-3.9580380">
        <ele>617.6</ele>
        <time>2021-12-27T16:16:21Z</time>
      </trkpt>
      <trkpt lat="37.7559550" lon="-3.9580650">
        <ele>617.6</ele>
        <time>2021-12-27T16:16:22Z</time>
      </trkpt>
      <trkpt lat="37.7559740" lon="-3.9580900">
        <ele>617.6</ele>
        <time>2021-12-27T16:16:23Z</time>
      </trkpt>
      <trkpt lat="37.7559970" lon="-3.9581150">
        <ele>617.6</ele>
        <time>2021-12-27T16:16:24Z</time>
      </trkpt>
      <trkpt lat="37.7560190" lon="-3.9581400">
        <ele>617.6</ele>
        <time>2021-12-27T16:16:25Z</time>
      </trkpt>
      <trkpt lat="37.7560380" lon="-3.9581650">
        <ele>617.6</ele>
        <time>2021-12-27T16:16:26Z</time>
      </trkpt>
      <trkpt lat="37.7560580" lon="-3.9581880">
        <ele>617.6</ele>
        <time>2021-12-27T16:16:27Z</time>
      </trkpt>
      <trkpt lat="37.7560740" lon="-3.9582130">
        <ele>617.6</ele>
        <time>2021-12-27T16:16:28Z</time>
      </trkpt>
      <trkpt lat="37.7560930" lon="-3.9582420">
        <ele>617.6</ele>
        <time>2021-12-27T16:16:29Z</time>
      </trkpt>
      <trkpt lat="37.7561120" lon="-3.9582630">
        <ele>617.6</ele>
        <time>2021-12-27T16:16:30Z</time>
      </trkpt>
      <trkpt lat="37.7561280" lon="-3.9582870">
        <ele>617.6</ele>
        <time>2021-12-27T16:16:31Z</time>
      </trkpt>
      <trkpt lat="37.7561440" lon="-3.9583070">
        <ele>617.6</ele>
        <time>2021-12-27T16:16:32Z</time>
      </trkpt>
      <trkpt lat="37.7561700" lon="-3.9583280">
        <ele>617.8</ele>
        <time>2021-12-27T16:16:33Z</time>
      </trkpt>
      <trkpt lat="37.7561820" lon="-3.9583530">
        <ele>617.8</ele>
        <time>2021-12-27T16:16:34Z</time>
      </trkpt>
      <trkpt lat="37.7562020" lon="-3.9583750">
        <ele>618.0</ele>
        <time>2021-12-27T16:16:35Z</time>
      </trkpt>
      <trkpt lat="37.7562180" lon="-3.9583980">
        <ele>618.0</ele>
        <time>2021-12-27T16:16:36Z</time>
      </trkpt>
      <trkpt lat="37.7562370" lon="-3.9584220">
        <ele>618.0</ele>
        <time>2021-12-27T16:16:37Z</time>
      </trkpt>
      <trkpt lat="37.7562560" lon="-3.9584440">
        <ele>618.2</ele>
        <time>2021-12-27T16:16:38Z</time>
      </trkpt>
      <trkpt lat="37.7562750" lon="-3.9584660">
        <ele>618.2</ele>
        <time>2021-12-27T16:16:39Z</time>
      </trkpt>
      <trkpt lat="37.7562910" lon="-3.9584920">
        <ele>618.2</ele>
        <time>2021-12-27T16:16:40Z</time>
      </trkpt>
      <trkpt lat="37.7563070" lon="-3.9585180">
        <ele>618.2</ele>
        <time>2021-12-27T16:16:41Z</time>
      </trkpt>
      <trkpt lat="37.7563230" lon="-3.9585420">
        <ele>618.2</ele>
        <time>2021-12-27T16:16:42Z</time>
      </trkpt>
      <trkpt lat="37.7563390" lon="-3.9585650">
        <ele>618.2</ele>
        <time>2021-12-27T16:16:43Z</time>
      </trkpt>
      <trkpt lat="37.7563680" lon="-3.9585930">
        <ele>618.2</ele>
        <time>2021-12-27T16:16:44Z</time>
      </trkpt>
      <trkpt lat="37.7563780" lon="-3.9586130">
        <ele>618.0</ele>
        <time>2021-12-27T16:16:45Z</time>
      </trkpt>
      <trkpt lat="37.7563940" lon="-3.9586380">
        <ele>618.0</ele>
        <time>2021-12-27T16:16:46Z</time>
      </trkpt>
      <trkpt lat="37.7564060" lon="-3.9586670">
        <ele>618.0</ele>
        <time>2021-12-27T16:16:47Z</time>
      </trkpt>
      <trkpt lat="37.7564220" lon="-3.9587030">
        <ele>618.0</ele>
        <time>2021-12-27T16:16:48Z</time>
      </trkpt>
      <trkpt lat="37.7564380" lon="-3.9587250">
        <ele>618.0</ele>
        <time>2021-12-27T16:16:49Z</time>
      </trkpt>
      <trkpt lat="37.7564580" lon="-3.9587480">
        <ele>618.2</ele>
        <time>2021-12-27T16:16:50Z</time>
      </trkpt>
      <trkpt lat="37.7564770" lon="-3.9587680">
        <ele>618.2</ele>
        <time>2021-12-27T16:16:51Z</time>
      </trkpt>
      <trkpt lat="37.7564960" lon="-3.9587920">
        <ele>618.4</ele>
        <time>2021-12-27T16:16:52Z</time>
      </trkpt>
      <trkpt lat="37.7565120" lon="-3.9588160">
        <ele>618.4</ele>
        <time>2021-12-27T16:16:53Z</time>
      </trkpt>
      <trkpt lat="37.7565310" lon="-3.9588380">
        <ele>618.6</ele>
        <time>2021-12-27T16:16:54Z</time>
      </trkpt>
      <trkpt lat="37.7565500" lon="-3.9588680">
        <ele>618.6</ele>
        <time>2021-12-27T16:16:55Z</time>
      </trkpt>
      <trkpt lat="37.7565600" lon="-3.9588880">
        <ele>618.8</ele>
        <time>2021-12-27T16:16:56Z</time>
      </trkpt>
      <trkpt lat="37.7565760" lon="-3.9589150">
        <ele>618.8</ele>
        <time>2021-12-27T16:16:57Z</time>
      </trkpt>
      <trkpt lat="37.7565920" lon="-3.9589380">
        <ele>619.0</ele>
        <time>2021-12-27T16:16:58Z</time>
      </trkpt>
      <trkpt lat="37.7566110" lon="-3.9589650">
        <ele>619.0</ele>
        <time>2021-12-27T16:16:59Z</time>
      </trkpt>
      <trkpt lat="37.7566270" lon="-3.9589870">
        <ele>619.0</ele>
        <time>2021-12-27T16:17:00Z</time>
      </trkpt>
      <trkpt lat="37.7566460" lon="-3.9590140">
        <ele>619.2</ele>
        <time>2021-12-27T16:17:01Z</time>
      </trkpt>
      <trkpt lat="37.7566690" lon="-3.9590430">
        <ele>619.2</ele>
        <time>2021-12-27T16:17:02Z</time>
      </trkpt>
      <trkpt lat="37.7566850" lon="-3.9590680">
        <ele>619.2</ele>
        <time>2021-12-27T16:17:03Z</time>
      </trkpt>
      <trkpt lat="37.7566980" lon="-3.9590920">
        <ele>619.2</ele>
        <time>2021-12-27T16:17:04Z</time>
      </trkpt>
      <trkpt lat="37.7567140" lon="-3.9591220">
        <ele>619.4</ele>
        <time>2021-12-27T16:17:05Z</time>
      </trkpt>
      <trkpt lat="37.7567300" lon="-3.9591580">
        <ele>619.4</ele>
        <time>2021-12-27T16:17:06Z</time>
      </trkpt>
      <trkpt lat="37.7567460" lon="-3.9591850">
        <ele>619.6</ele>
        <time>2021-12-27T16:17:07Z</time>
      </trkpt>
      <trkpt lat="37.7567580" lon="-3.9592080">
        <ele>619.6</ele>
        <time>2021-12-27T16:17:08Z</time>
      </trkpt>
      <trkpt lat="37.7567780" lon="-3.9592430">
        <ele>619.6</ele>
        <time>2021-12-27T16:17:09Z</time>
      </trkpt>
      <trkpt lat="37.7567900" lon="-3.9592670">
        <ele>619.8</ele>
        <time>2021-12-27T16:17:10Z</time>
      </trkpt>
      <trkpt lat="37.7568130" lon="-3.9592970">
        <ele>619.8</ele>
        <time>2021-12-27T16:17:11Z</time>
      </trkpt>
      <trkpt lat="37.7568290" lon="-3.9593180">
        <ele>619.8</ele>
        <time>2021-12-27T16:17:12Z</time>
      </trkpt>
      <trkpt lat="37.7568450" lon="-3.9593440">
        <ele>619.8</ele>
        <time>2021-12-27T16:17:13Z</time>
      </trkpt>
      <trkpt lat="37.7568540" lon="-3.9593670">
        <ele>619.8</ele>
        <time>2021-12-27T16:17:14Z</time>
      </trkpt>
      <trkpt lat="37.7568700" lon="-3.9594020">
        <ele>619.8</ele>
        <time>2021-12-27T16:17:15Z</time>
      </trkpt>
      <trkpt lat="37.7568830" lon="-3.9594300">
        <ele>620.0</ele>
        <time>2021-12-27T16:17:16Z</time>
      </trkpt>
      <trkpt lat="37.7568960" lon="-3.9594550">
        <ele>620.0</ele>
        <time>2021-12-27T16:17:17Z</time>
      </trkpt>
      <trkpt lat="37.7569060" lon="-3.9594820">
        <ele>620.0</ele>
        <time>2021-12-27T16:17:18Z</time>
      </trkpt>
      <trkpt lat="37.7569150" lon="-3.9595050">
        <ele>620.0</ele>
        <time>2021-12-27T16:17:19Z</time>
      </trkpt>
      <trkpt lat="37.7569250" lon="-3.9595280">
        <ele>620.0</ele>
        <time>2021-12-27T16:17:20Z</time>
      </trkpt>
      <trkpt lat="37.7569340" lon="-3.9595530">
        <ele>620.2</ele>
        <time>2021-12-27T16:17:21Z</time>
      </trkpt>
      <trkpt lat="37.7569500" lon="-3.9595800">
        <ele>620.2</ele>
        <time>2021-12-27T16:17:22Z</time>
      </trkpt>
      <trkpt lat="37.7569630" lon="-3.9596030">
        <ele>620.2</ele>
        <time>2021-12-27T16:17:23Z</time>
      </trkpt>
      <trkpt lat="37.7569760" lon="-3.9596380">
        <ele>620.2</ele>
        <time>2021-12-27T16:17:24Z</time>
      </trkpt>
      <trkpt lat="37.7569950" lon="-3.9596670">
        <ele>620.2</ele>
        <time>2021-12-27T16:17:25Z</time>
      </trkpt>
      <trkpt lat="37.7570110" lon="-3.9597000">
        <ele>620.4</ele>
        <time>2021-12-27T16:17:26Z</time>
      </trkpt>
      <trkpt lat="37.7570240" lon="-3.9597240">
        <ele>620.4</ele>
        <time>2021-12-27T16:17:27Z</time>
      </trkpt>
      <trkpt lat="37.7570370" lon="-3.9597570">
        <ele>620.4</ele>
        <time>2021-12-27T16:17:28Z</time>
      </trkpt>
      <trkpt lat="37.7570500" lon="-3.9597900">
        <ele>620.4</ele>
        <time>2021-12-27T16:17:29Z</time>
      </trkpt>
      <trkpt lat="37.7570620" lon="-3.9598200">
        <ele>620.4</ele>
        <time>2021-12-27T16:17:30Z</time>
      </trkpt>
      <trkpt lat="37.7570720" lon="-3.9598470">
        <ele>620.2</ele>
        <time>2021-12-27T16:17:31Z</time>
      </trkpt>
      <trkpt lat="37.7570880" lon="-3.9598700">
        <ele>620.2</ele>
        <time>2021-12-27T16:17:32Z</time>
      </trkpt>
      <trkpt lat="37.7570880" lon="-3.9598700">
        <ele>620.4</ele>
        <time>2021-12-27T16:17:33Z</time>
      </trkpt>
      <trkpt lat="37.7571070" lon="-3.9599060">
        <ele>620.4</ele>
        <time>2021-12-27T16:17:34Z</time>
      </trkpt>
      <trkpt lat="37.7571070" lon="-3.9599060">
        <ele>620.6</ele>
        <time>2021-12-27T16:17:35Z</time>
      </trkpt>
      <trkpt lat="37.7571100" lon="-3.9599380">
        <ele>620.6</ele>
        <time>2021-12-27T16:17:36Z</time>
      </trkpt>
      <trkpt lat="37.7571100" lon="-3.9599380">
        <ele>620.8</ele>
        <time>2021-12-27T16:17:37Z</time>
      </trkpt>
      <trkpt lat="37.7571230" lon="-3.9599720">
        <ele>620.8</ele>
        <time>2021-12-27T16:17:38Z</time>
      </trkpt>
      <trkpt lat="37.7571230" lon="-3.9599720">
        <ele>620.8</ele>
        <time>2021-12-27T16:17:39Z</time>
      </trkpt>
      <trkpt lat="37.7571330" lon="-3.9599930">
        <ele>620.8</ele>
        <time>2021-12-27T16:17:40Z</time>
      </trkpt>
      <trkpt lat="37.7571330" lon="-3.9599930">
        <ele>620.8</ele>
        <time>2021-12-27T16:17:41Z</time>
      </trkpt>
      <trkpt lat="37.7571330" lon="-3.9599930">
        <ele>620.8</ele>
        <time>2021-12-27T16:17:42Z</time>
      </trkpt>
      <trkpt lat="37.7571330" lon="-3.9599930">
        <ele>620.8</ele>
        <time>2021-12-27T16:17:43Z</time>
      </trkpt>
      <trkpt lat="37.7571330" lon="-3.9599930">
        <ele>620.8</ele>
        <time>2021-12-27T16:17:44Z</time>
      </trkpt>
      <trkpt lat="37.7571710" lon="-3.9601470">
        <ele>620.8</ele>
        <time>2021-12-27T16:17:51Z</time>
      </trkpt>
      <trkpt lat="37.7571740" lon="-3.9601780">
        <ele>620.8</ele>
        <time>2021-12-27T16:17:52Z</time>
      </trkpt>
      <trkpt lat="37.7571740" lon="-3.9601780">
        <ele>620.8</ele>
        <time>2021-12-27T16:17:53Z</time>
      </trkpt>
      <trkpt lat="37.7571900" lon="-3.9602220">
        <ele>620.8</ele>
        <time>2021-12-27T16:17:54Z</time>
      </trkpt>
      <trkpt lat="37.7572030" lon="-3.9602530">
        <ele>620.8</ele>
        <time>2021-12-27T16:17:55Z</time>
      </trkpt>
      <trkpt lat="37.7572030" lon="-3.9602530">
        <ele>620.8</ele>
        <time>2021-12-27T16:17:56Z</time>
      </trkpt>
      <trkpt lat="37.7572210" lon="-3.9603260">
        <ele>620.8</ele>
        <time>2021-12-27T16:17:57Z</time>
      </trkpt>
      <trkpt lat="37.7572260" lon="-3.9603420">
        <ele>620.8</ele>
        <time>2021-12-27T16:17:58Z</time>
      </trkpt>
      <trkpt lat="37.7572320" lon="-3.9603720">
        <ele>620.8</ele>
        <time>2021-12-27T16:17:59Z</time>
      </trkpt>
      <trkpt lat="37.7572420" lon="-3.9604050">
        <ele>621.0</ele>
        <time>2021-12-27T16:18:00Z</time>
      </trkpt>
      <trkpt lat="37.7572510" lon="-3.9604400">
        <ele>621.0</ele>
        <time>2021-12-27T16:18:01Z</time>
      </trkpt>
      <trkpt lat="37.7572610" lon="-3.9604720">
        <ele>621.2</ele>
        <time>2021-12-27T16:18:02Z</time>
      </trkpt>
      <trkpt lat="37.7572670" lon="-3.9605030">
        <ele>621.2</ele>
        <time>2021-12-27T16:18:03Z</time>
      </trkpt>
      <trkpt lat="37.7572740" lon="-3.9605330">
        <ele>621.4</ele>
        <time>2021-12-27T16:18:04Z</time>
      </trkpt>
      <trkpt lat="37.7572830" lon="-3.9605650">
        <ele>621.6</ele>
        <time>2021-12-27T16:18:05Z</time>
      </trkpt>
      <trkpt lat="37.7572900" lon="-3.9606030">
        <ele>621.6</ele>
        <time>2021-12-27T16:18:06Z</time>
      </trkpt>
      <trkpt lat="37.7573020" lon="-3.9606380">
        <ele>621.8</ele>
        <time>2021-12-27T16:18:07Z</time>
      </trkpt>
      <trkpt lat="37.7573060" lon="-3.9606680">
        <ele>621.8</ele>
        <time>2021-12-27T16:18:08Z</time>
      </trkpt>
      <trkpt lat="37.7573120" lon="-3.9607050">
        <ele>622.0</ele>
        <time>2021-12-27T16:18:09Z</time>
      </trkpt>
      <trkpt lat="37.7573250" lon="-3.9607400">
        <ele>622.0</ele>
        <time>2021-12-27T16:18:10Z</time>
      </trkpt>
      <trkpt lat="37.7573310" lon="-3.9607850">
        <ele>622.2</ele>
        <time>2021-12-27T16:18:11Z</time>
      </trkpt>
      <trkpt lat="37.7573410" lon="-3.9608120">
        <ele>622.2</ele>
        <time>2021-12-27T16:18:12Z</time>
      </trkpt>
      <trkpt lat="37.7573470" lon="-3.9608500">
        <ele>622.2</ele>
        <time>2021-12-27T16:18:13Z</time>
      </trkpt>
      <trkpt lat="37.7573540" lon="-3.9608880">
        <ele>622.2</ele>
        <time>2021-12-27T16:18:14Z</time>
      </trkpt>
      <trkpt lat="37.7573630" lon="-3.9609280">
        <ele>622.2</ele>
        <time>2021-12-27T16:18:15Z</time>
      </trkpt>
      <trkpt lat="37.7573700" lon="-3.9609780">
        <ele>622.2</ele>
        <time>2021-12-27T16:18:16Z</time>
      </trkpt>
      <trkpt lat="37.7573790" lon="-3.9610220">
        <ele>622.2</ele>
        <time>2021-12-27T16:18:17Z</time>
      </trkpt>
      <trkpt lat="37.7573820" lon="-3.9610550">
        <ele>622.2</ele>
        <time>2021-12-27T16:18:18Z</time>
      </trkpt>
      <trkpt lat="37.7573860" lon="-3.9611070">
        <ele>622.2</ele>
        <time>2021-12-27T16:18:19Z</time>
      </trkpt>
      <trkpt lat="37.7573890" lon="-3.9611480">
        <ele>622.2</ele>
        <time>2021-12-27T16:18:20Z</time>
      </trkpt>
      <trkpt lat="37.7573920" lon="-3.9611920">
        <ele>622.4</ele>
        <time>2021-12-27T16:18:21Z</time>
      </trkpt>
      <trkpt lat="37.7573950" lon="-3.9612200">
        <ele>622.4</ele>
        <time>2021-12-27T16:18:22Z</time>
      </trkpt>
      <trkpt lat="37.7574020" lon="-3.9612600">
        <ele>622.6</ele>
        <time>2021-12-27T16:18:23Z</time>
      </trkpt>
      <trkpt lat="37.7574050" lon="-3.9613000">
        <ele>622.6</ele>
        <time>2021-12-27T16:18:24Z</time>
      </trkpt>
      <trkpt lat="37.7574080" lon="-3.9613470">
        <ele>622.6</ele>
        <time>2021-12-27T16:18:25Z</time>
      </trkpt>
      <trkpt lat="37.7574080" lon="-3.9613770">
        <ele>622.6</ele>
        <time>2021-12-27T16:18:26Z</time>
      </trkpt>
      <trkpt lat="37.7574110" lon="-3.9614120">
        <ele>622.8</ele>
        <time>2021-12-27T16:18:27Z</time>
      </trkpt>
      <trkpt lat="37.7574140" lon="-3.9614480">
        <ele>622.8</ele>
        <time>2021-12-27T16:18:28Z</time>
      </trkpt>
      <trkpt lat="37.7574210" lon="-3.9614820">
        <ele>622.8</ele>
        <time>2021-12-27T16:18:29Z</time>
      </trkpt>
      <trkpt lat="37.7574240" lon="-3.9615170">
        <ele>622.8</ele>
        <time>2021-12-27T16:18:30Z</time>
      </trkpt>
      <trkpt lat="37.7574240" lon="-3.9615550">
        <ele>622.8</ele>
        <time>2021-12-27T16:18:31Z</time>
      </trkpt>
      <trkpt lat="37.7574240" lon="-3.9615930">
        <ele>623.0</ele>
        <time>2021-12-27T16:18:32Z</time>
      </trkpt>
      <trkpt lat="37.7574270" lon="-3.9616320">
        <ele>623.0</ele>
        <time>2021-12-27T16:18:33Z</time>
      </trkpt>
      <trkpt lat="37.7574300" lon="-3.9616720">
        <ele>622.8</ele>
        <time>2021-12-27T16:18:34Z</time>
      </trkpt>
      <trkpt lat="37.7574340" lon="-3.9617080">
        <ele>623.0</ele>
        <time>2021-12-27T16:18:35Z</time>
      </trkpt>
      <trkpt lat="37.7574340" lon="-3.9617480">
        <ele>623.0</ele>
        <time>2021-12-27T16:18:36Z</time>
      </trkpt>
      <trkpt lat="37.7574460" lon="-3.9617820">
        <ele>623.0</ele>
        <time>2021-12-27T16:18:37Z</time>
      </trkpt>
      <trkpt lat="37.7574590" lon="-3.9618170">
        <ele>623.0</ele>
        <time>2021-12-27T16:18:38Z</time>
      </trkpt>
      <trkpt lat="37.7574720" lon="-3.9618500">
        <ele>623.0</ele>
        <time>2021-12-27T16:18:39Z</time>
      </trkpt>
      <trkpt lat="37.7574880" lon="-3.9618830">
        <ele>623.0</ele>
        <time>2021-12-27T16:18:40Z</time>
      </trkpt>
      <trkpt lat="37.7575010" lon="-3.9619180">
        <ele>622.8</ele>
        <time>2021-12-27T16:18:41Z</time>
      </trkpt>
      <trkpt lat="37.7575100" lon="-3.9619550">
        <ele>622.8</ele>
        <time>2021-12-27T16:18:42Z</time>
      </trkpt>
      <trkpt lat="37.7575200" lon="-3.9619980">
        <ele>622.6</ele>
        <time>2021-12-27T16:18:43Z</time>
      </trkpt>
      <trkpt lat="37.7575260" lon="-3.9620450">
        <ele>622.6</ele>
        <time>2021-12-27T16:18:44Z</time>
      </trkpt>
      <trkpt lat="37.7575330" lon="-3.9620950">
        <ele>622.6</ele>
        <time>2021-12-27T16:18:45Z</time>
      </trkpt>
      <trkpt lat="37.7575420" lon="-3.9621440">
        <ele>622.4</ele>
        <time>2021-12-27T16:18:46Z</time>
      </trkpt>
      <trkpt lat="37.7575490" lon="-3.9621920">
        <ele>622.2</ele>
        <time>2021-12-27T16:18:47Z</time>
      </trkpt>
      <trkpt lat="37.7575520" lon="-3.9622400">
        <ele>622.2</ele>
        <time>2021-12-27T16:18:48Z</time>
      </trkpt>
      <trkpt lat="37.7575620" lon="-3.9622850">
        <ele>622.2</ele>
        <time>2021-12-27T16:18:49Z</time>
      </trkpt>
      <trkpt lat="37.7575650" lon="-3.9623300">
        <ele>622.0</ele>
        <time>2021-12-27T16:18:50Z</time>
      </trkpt>
      <trkpt lat="37.7575650" lon="-3.9623730">
        <ele>622.0</ele>
        <time>2021-12-27T16:18:51Z</time>
      </trkpt>
      <trkpt lat="37.7575620" lon="-3.9624170">
        <ele>622.0</ele>
        <time>2021-12-27T16:18:52Z</time>
      </trkpt>
      <trkpt lat="37.7575620" lon="-3.9624600">
        <ele>621.8</ele>
        <time>2021-12-27T16:18:53Z</time>
      </trkpt>
      <trkpt lat="37.7575580" lon="-3.9625000">
        <ele>621.8</ele>
        <time>2021-12-27T16:18:54Z</time>
      </trkpt>
      <trkpt lat="37.7575620" lon="-3.9625380">
        <ele>621.6</ele>
        <time>2021-12-27T16:18:55Z</time>
      </trkpt>
      <trkpt lat="37.7575680" lon="-3.9625800">
        <ele>621.4</ele>
        <time>2021-12-27T16:18:56Z</time>
      </trkpt>
      <trkpt lat="37.7575840" lon="-3.9626230">
        <ele>621.4</ele>
        <time>2021-12-27T16:18:57Z</time>
      </trkpt>
      <trkpt lat="37.7576060" lon="-3.9626670">
        <ele>621.4</ele>
        <time>2021-12-27T16:18:58Z</time>
      </trkpt>
      <trkpt lat="37.7576260" lon="-3.9627060">
        <ele>621.2</ele>
        <time>2021-12-27T16:18:59Z</time>
      </trkpt>
      <trkpt lat="37.7576420" lon="-3.9627450">
        <ele>621.2</ele>
        <time>2021-12-27T16:19:00Z</time>
      </trkpt>
      <trkpt lat="37.7576510" lon="-3.9627830">
        <ele>621.0</ele>
        <time>2021-12-27T16:19:01Z</time>
      </trkpt>
      <trkpt lat="37.7576480" lon="-3.9628180">
        <ele>621.0</ele>
        <time>2021-12-27T16:19:02Z</time>
      </trkpt>
      <trkpt lat="37.7576450" lon="-3.9628420">
        <ele>620.8</ele>
        <time>2021-12-27T16:19:03Z</time>
      </trkpt>
      <trkpt lat="37.7576450" lon="-3.9628420">
        <ele>620.6</ele>
        <time>2021-12-27T16:19:04Z</time>
      </trkpt>
      <trkpt lat="37.7576190" lon="-3.9628650">
        <ele>620.4</ele>
        <time>2021-12-27T16:19:05Z</time>
      </trkpt>
      <trkpt lat="37.7575920" lon="-3.9628880">
        <ele>620.2</ele>
        <time>2021-12-27T16:19:06Z</time>
      </trkpt>
      <trkpt lat="37.7575660" lon="-3.9629110">
        <ele>620.2</ele>
        <time>2021-12-27T16:19:07Z</time>
      </trkpt>
      <trkpt lat="37.7575400" lon="-3.9629340">
        <ele>620.0</ele>
        <time>2021-12-27T16:19:08Z</time>
      </trkpt>
      <trkpt lat="37.7575140" lon="-3.9629570">
        <ele>620.0</ele>
        <time>2021-12-27T16:19:44Z</time>
      </trkpt>
      <trkpt lat="37.7574870" lon="-3.9629800">
        <ele>620.0</ele>
        <time>2021-12-27T16:19:45Z</time>
      </trkpt>
      <trkpt lat="37.7574610" lon="-3.9630030">
        <ele>620.0</ele>
        <time>2021-12-27T16:19:46Z</time>
      </trkpt>
      <trkpt lat="37.7574350" lon="-3.9630260">
        <ele>620.0</ele>
        <time>2021-12-27T16:19:47Z</time>
      </trkpt>
      <trkpt lat="37.7574090" lon="-3.9630490">
        <ele>620.0</ele>
        <time>2021-12-27T16:19:48Z</time>
      </trkpt>
      <trkpt lat="37.7573820" lon="-3.9630720">
        <ele>617.6</ele>
        <time>2021-12-27T16:19:49Z</time>
      </trkpt>
      <trkpt lat="37.7573600" lon="-3.9630760">
        <ele>617.4</ele>
        <time>2021-12-27T16:19:50Z</time>
      </trkpt>
      <trkpt lat="37.7573440" lon="-3.9630970">
        <ele>617.4</ele>
        <time>2021-12-27T16:19:51Z</time>
      </trkpt>
      <trkpt lat="37.7573120" lon="-3.9630980">
        <ele>617.4</ele>
        <time>2021-12-27T16:19:52Z</time>
      </trkpt>
      <trkpt lat="37.7572900" lon="-3.9631000">
        <ele>617.2</ele>
        <time>2021-12-27T16:19:53Z</time>
      </trkpt>
      <trkpt lat="37.7572700" lon="-3.9631200">
        <ele>617.2</ele>
        <time>2021-12-27T16:19:54Z</time>
      </trkpt>
      <trkpt lat="37.7572700" lon="-3.9631200">
        <ele>617.2</ele>
        <time>2021-12-27T16:19:55Z</time>
      </trkpt>
      <trkpt lat="37.7572350" lon="-3.9631420">
        <ele>617.2</ele>
        <time>2021-12-27T16:19:56Z</time>
      </trkpt>
      <trkpt lat="37.7572160" lon="-3.9631480">
        <ele>617.2</ele>
        <time>2021-12-27T16:19:57Z</time>
      </trkpt>
      <trkpt lat="37.7571970" lon="-3.9631550">
        <ele>617.0</ele>
        <time>2021-12-27T16:19:58Z</time>
      </trkpt>
      <trkpt lat="37.7571740" lon="-3.9631570">
        <ele>617.0</ele>
        <time>2021-12-27T16:19:59Z</time>
      </trkpt>
      <trkpt lat="37.7571410" lon="-3.9631790">
        <ele>617.0</ele>
        <time>2021-12-27T16:20:00Z</time>
      </trkpt>
      <trkpt lat="37.7571300" lon="-3.9631870">
        <ele>617.0</ele>
        <time>2021-12-27T16:20:01Z</time>
      </trkpt>
      <trkpt lat="37.7570980" lon="-3.9632120">
        <ele>617.0</ele>
        <time>2021-12-27T16:20:02Z</time>
      </trkpt>
      <trkpt lat="37.7570820" lon="-3.9632380">
        <ele>617.0</ele>
        <time>2021-12-27T16:20:03Z</time>
      </trkpt>
      <trkpt lat="37.7570620" lon="-3.9632750">
        <ele>617.0</ele>
        <time>2021-12-27T16:20:04Z</time>
      </trkpt>
      <trkpt lat="37.7570460" lon="-3.9633250">
        <ele>617.0</ele>
        <time>2021-12-27T16:20:05Z</time>
      </trkpt>
      <trkpt lat="37.7570340" lon="-3.9633680">
        <ele>617.0</ele>
        <time>2021-12-27T16:20:06Z</time>
      </trkpt>
      <trkpt lat="37.7570240" lon="-3.9634020">
        <ele>617.0</ele>
        <time>2021-12-27T16:20:07Z</time>
      </trkpt>
      <trkpt lat="37.7570110" lon="-3.9634430">
        <ele>617.0</ele>
        <time>2021-12-27T16:20:08Z</time>
      </trkpt>
      <trkpt lat="37.7570050" lon="-3.9634830">
        <ele>617.0</ele>
        <time>2021-12-27T16:20:09Z</time>
      </trkpt>
      <trkpt lat="37.7569890" lon="-3.9635300">
        <ele>617.0</ele>
        <time>2021-12-27T16:20:10Z</time>
      </trkpt>
      <trkpt lat="37.7569820" lon="-3.9635640">
        <ele>616.8</ele>
        <time>2021-12-27T16:20:11Z</time>
      </trkpt>
      <trkpt lat="37.7569730" lon="-3.9635870">
        <ele>616.8</ele>
        <time>2021-12-27T16:20:12Z</time>
      </trkpt>
      <trkpt lat="37.7569660" lon="-3.9636170">
        <ele>616.8</ele>
        <time>2021-12-27T16:20:13Z</time>
      </trkpt>
      <trkpt lat="37.7569540" lon="-3.9636520">
        <ele>616.8</ele>
        <time>2021-12-27T16:20:14Z</time>
      </trkpt>
      <trkpt lat="37.7569470" lon="-3.9636800">
        <ele>616.6</ele>
        <time>2021-12-27T16:20:15Z</time>
      </trkpt>
      <trkpt lat="37.7569470" lon="-3.9636800">
        <ele>616.6</ele>
        <time>2021-12-27T16:20:16Z</time>
      </trkpt>
      <trkpt lat="37.7569310" lon="-3.9637420">
        <ele>616.6</ele>
        <time>2021-12-27T16:20:17Z</time>
      </trkpt>
      <trkpt lat="37.7569280" lon="-3.9637550">
        <ele>616.4</ele>
        <time>2021-12-27T16:20:18Z</time>
      </trkpt>
      <trkpt lat="37.7569180" lon="-3.9637800">
        <ele>616.2</ele>
        <time>2021-12-27T16:20:19Z</time>
      </trkpt>
      <trkpt lat="37.7569090" lon="-3.9638020">
        <ele>616.2</ele>
        <time>2021-12-27T16:20:20Z</time>
      </trkpt>
      <trkpt lat="37.7568990" lon="-3.9638270">
        <ele>616.2</ele>
        <time>2021-12-27T16:20:21Z</time>
      </trkpt>
      <trkpt lat="37.7568930" lon="-3.9638500">
        <ele>616.2</ele>
        <time>2021-12-27T16:20:22Z</time>
      </trkpt>
      <trkpt lat="37.7568830" lon="-3.9638780">
        <ele>616.2</ele>
        <time>2021-12-27T16:20:23Z</time>
      </trkpt>
      <trkpt lat="37.7568700" lon="-3.9639120">
        <ele>616.0</ele>
        <time>2021-12-27T16:20:24Z</time>
      </trkpt>
      <trkpt lat="37.7568700" lon="-3.9639120">
        <ele>616.0</ele>
        <time>2021-12-27T16:20:25Z</time>
      </trkpt>
      <trkpt lat="37.7568540" lon="-3.9639560">
        <ele>616.2</ele>
        <time>2021-12-27T16:20:26Z</time>
      </trkpt>
      <trkpt lat="37.7568480" lon="-3.9639820">
        <ele>616.2</ele>
        <time>2021-12-27T16:20:27Z</time>
      </trkpt>
      <trkpt lat="37.7568350" lon="-3.9640120">
        <ele>616.2</ele>
        <time>2021-12-27T16:20:28Z</time>
      </trkpt>
      <trkpt lat="37.7568350" lon="-3.9640120">
        <ele>616.4</ele>
        <time>2021-12-27T16:20:29Z</time>
      </trkpt>
      <trkpt lat="37.7568260" lon="-3.9640580">
        <ele>616.4</ele>
        <time>2021-12-27T16:20:30Z</time>
      </trkpt>
      <trkpt lat="37.7568130" lon="-3.9640830">
        <ele>616.2</ele>
        <time>2021-12-27T16:20:31Z</time>
      </trkpt>
      <trkpt lat="37.7568030" lon="-3.9641100">
        <ele>616.2</ele>
        <time>2021-12-27T16:20:32Z</time>
      </trkpt>
      <trkpt lat="37.7567900" lon="-3.9641370">
        <ele>616.2</ele>
        <time>2021-12-27T16:20:33Z</time>
      </trkpt>
      <trkpt lat="37.7567840" lon="-3.9641670">
        <ele>616.2</ele>
        <time>2021-12-27T16:20:34Z</time>
      </trkpt>
      <trkpt lat="37.7567740" lon="-3.9641870">
        <ele>616.2</ele>
        <time>2021-12-27T16:20:35Z</time>
      </trkpt>
      <trkpt lat="37.7567680" lon="-3.9642080">
        <ele>616.2</ele>
        <time>2021-12-27T16:20:36Z</time>
      </trkpt>
      <trkpt lat="37.7567550" lon="-3.9642350">
        <ele>616.2</ele>
        <time>2021-12-27T16:20:37Z</time>
      </trkpt>
      <trkpt lat="37.7567550" lon="-3.9642350">
        <ele>616.4</ele>
        <time>2021-12-27T16:20:38Z</time>
      </trkpt>
      <trkpt lat="37.7567390" lon="-3.9642740">
        <ele>616.4</ele>
        <time>2021-12-27T16:20:39Z</time>
      </trkpt>
      <trkpt lat="37.7567390" lon="-3.9642740">
        <ele>616.6</ele>
        <time>2021-12-27T16:20:40Z</time>
      </trkpt>
      <trkpt lat="37.7567200" lon="-3.9643130">
        <ele>616.6</ele>
        <time>2021-12-27T16:20:41Z</time>
      </trkpt>
      <trkpt lat="37.7567100" lon="-3.9643400">
        <ele>616.8</ele>
        <time>2021-12-27T16:20:42Z</time>
      </trkpt>
      <trkpt lat="37.7567100" lon="-3.9643400">
        <ele>616.8</ele>
        <time>2021-12-27T16:20:43Z</time>
      </trkpt>
      <trkpt lat="37.7566940" lon="-3.9643800">
        <ele>616.8</ele>
        <time>2021-12-27T16:20:44Z</time>
      </trkpt>
      <trkpt lat="37.7566850" lon="-3.9644030">
        <ele>616.8</ele>
        <time>2021-12-27T16:20:45Z</time>
      </trkpt>
      <trkpt lat="37.7566690" lon="-3.9644320">
        <ele>616.8</ele>
        <time>2021-12-27T16:20:46Z</time>
      </trkpt>
      <trkpt lat="37.7566690" lon="-3.9644320">
        <ele>616.8</ele>
        <time>2021-12-27T16:20:47Z</time>
      </trkpt>
      <trkpt lat="37.7566530" lon="-3.9644720">
        <ele>616.6</ele>
        <time>2021-12-27T16:20:48Z</time>
      </trkpt>
      <trkpt lat="37.7566460" lon="-3.9644930">
        <ele>616.6</ele>
        <time>2021-12-27T16:20:49Z</time>
      </trkpt>
      <trkpt lat="37.7566340" lon="-3.9645130">
        <ele>616.6</ele>
        <time>2021-12-27T16:20:50Z</time>
      </trkpt>
      <trkpt lat="37.7566210" lon="-3.9645370">
        <ele>616.6</ele>
        <time>2021-12-27T16:20:51Z</time>
      </trkpt>
      <trkpt lat="37.7566110" lon="-3.9645570">
        <ele>616.6</ele>
        <time>2021-12-27T16:20:52Z</time>
      </trkpt>
      <trkpt lat="37.7566110" lon="-3.9645570">
        <ele>616.6</ele>
        <time>2021-12-27T16:20:53Z</time>
      </trkpt>
      <trkpt lat="37.7565920" lon="-3.9645900">
        <ele>616.6</ele>
        <time>2021-12-27T16:20:54Z</time>
      </trkpt>
      <trkpt lat="37.7565860" lon="-3.9646120">
        <ele>616.6</ele>
        <time>2021-12-27T16:20:55Z</time>
      </trkpt>
      <trkpt lat="37.7565760" lon="-3.9646380">
        <ele>616.8</ele>
        <time>2021-12-27T16:20:56Z</time>
      </trkpt>
      <trkpt lat="37.7565760" lon="-3.9646380">
        <ele>616.8</ele>
        <time>2021-12-27T16:20:57Z</time>
      </trkpt>
      <trkpt lat="37.7565600" lon="-3.9646750">
        <ele>616.8</ele>
        <time>2021-12-27T16:20:58Z</time>
      </trkpt>
      <trkpt lat="37.7565600" lon="-3.9646750">
        <ele>617.0</ele>
        <time>2021-12-27T16:20:59Z</time>
      </trkpt>
      <trkpt lat="37.7565470" lon="-3.9647180">
        <ele>617.0</ele>
        <time>2021-12-27T16:21:00Z</time>
      </trkpt>
      <trkpt lat="37.7565470" lon="-3.9647180">
        <ele>617.0</ele>
        <time>2021-12-27T16:21:01Z</time>
      </trkpt>
      <trkpt lat="37.7565410" lon="-3.9647530">
        <ele>617.0</ele>
        <time>2021-12-27T16:21:02Z</time>
      </trkpt>
      <trkpt lat="37.7565410" lon="-3.9647530">
        <ele>617.0</ele>
        <time>2021-12-27T16:21:03Z</time>
      </trkpt>
      <trkpt lat="37.7565380" lon="-3.9647950">
        <ele>617.2</ele>
        <time>2021-12-27T16:21:04Z</time>
      </trkpt>
      <trkpt lat="37.7565380" lon="-3.9647950">
        <ele>617.2</ele>
        <time>2021-12-27T16:21:05Z</time>
      </trkpt>
      <trkpt lat="37.7565410" lon="-3.9648350">
        <ele>617.4</ele>
        <time>2021-12-27T16:21:06Z</time>
      </trkpt>
      <trkpt lat="37.7565410" lon="-3.9648350">
        <ele>617.6</ele>
        <time>2021-12-27T16:21:07Z</time>
      </trkpt>
      <trkpt lat="37.7565500" lon="-3.9648700">
        <ele>617.6</ele>
        <time>2021-12-27T16:21:08Z</time>
      </trkpt>
      <trkpt lat="37.7565500" lon="-3.9648700">
        <ele>617.8</ele>
        <time>2021-12-27T16:21:09Z</time>
      </trkpt>
      <trkpt lat="37.7565540" lon="-3.9649030">
        <ele>617.8</ele>
        <time>2021-12-27T16:21:10Z</time>
      </trkpt>
      <trkpt lat="37.7565540" lon="-3.9649030">
        <ele>617.8</ele>
        <time>2021-12-27T16:21:11Z</time>
      </trkpt>
      <trkpt lat="37.7565470" lon="-3.9649380">
        <ele>618.0</ele>
        <time>2021-12-27T16:21:12Z</time>
      </trkpt>
      <trkpt lat="37.7565470" lon="-3.9649380">
        <ele>618.0</ele>
        <time>2021-12-27T16:21:13Z</time>
      </trkpt>
      <trkpt lat="37.7565150" lon="-3.9649600">
        <ele>618.0</ele>
        <time>2021-12-27T16:21:14Z</time>
      </trkpt>
      <trkpt lat="37.7565150" lon="-3.9649600">
        <ele>618.0</ele>
        <time>2021-12-27T16:21:15Z</time>
      </trkpt>
      <trkpt lat="37.7564860" lon="-3.9649700">
        <ele>618.0</ele>
        <time>2021-12-27T16:21:16Z</time>
      </trkpt>
      <trkpt lat="37.7564670" lon="-3.9649770">
        <ele>618.0</ele>
        <time>2021-12-27T16:21:17Z</time>
      </trkpt>
      <trkpt lat="37.7564480" lon="-3.9649880">
        <ele>618.0</ele>
        <time>2021-12-27T16:21:18Z</time>
      </trkpt>
      <trkpt lat="37.7564480" lon="-3.9649880">
        <ele>618.2</ele>
        <time>2021-12-27T16:21:19Z</time>
      </trkpt>
      <trkpt lat="37.7564190" lon="-3.9650100">
        <ele>618.4</ele>
        <time>2021-12-27T16:21:20Z</time>
      </trkpt>
      <trkpt lat="37.7564060" lon="-3.9650270">
        <ele>618.4</ele>
        <time>2021-12-27T16:21:21Z</time>
      </trkpt>
      <trkpt lat="37.7563900" lon="-3.9650450">
        <ele>618.6</ele>
        <time>2021-12-27T16:21:22Z</time>
      </trkpt>
      <trkpt lat="37.7563740" lon="-3.9650650">
        <ele>618.8</ele>
        <time>2021-12-27T16:21:23Z</time>
      </trkpt>
      <trkpt lat="37.7563550" lon="-3.9650830">
        <ele>618.8</ele>
        <time>2021-12-27T16:21:24Z</time>
      </trkpt>
      <trkpt lat="37.7563390" lon="-3.9651000">
        <ele>619.0</ele>
        <time>2021-12-27T16:21:25Z</time>
      </trkpt>
      <trkpt lat="37.7563230" lon="-3.9651180">
        <ele>619.2</ele>
        <time>2021-12-27T16:21:26Z</time>
      </trkpt>
      <trkpt lat="37.7563100" lon="-3.9651360">
        <ele>619.2</ele>
        <time>2021-12-27T16:21:27Z</time>
      </trkpt>
      <trkpt lat="37.7562910" lon="-3.9651600">
        <ele>619.4</ele>
        <time>2021-12-27T16:21:28Z</time>
      </trkpt>
      <trkpt lat="37.7562910" lon="-3.9651600">
        <ele>619.4</ele>
        <time>2021-12-27T16:21:29Z</time>
      </trkpt>
      <trkpt lat="37.7562690" lon="-3.9651900">
        <ele>619.4</ele>
        <time>2021-12-27T16:21:30Z</time>
      </trkpt>
      <trkpt lat="37.7562530" lon="-3.9652070">
        <ele>619.6</ele>
        <time>2021-12-27T16:21:31Z</time>
      </trkpt>
      <trkpt lat="37.7562530" lon="-3.9652070">
        <ele>619.8</ele>
        <time>2021-12-27T16:21:32Z</time>
      </trkpt>
      <trkpt lat="37.7562340" lon="-3.9652280">
        <ele>619.8</ele>
        <time>2021-12-27T16:21:33Z</time>
      </trkpt>
      <trkpt lat="37.7562340" lon="-3.9652280">
        <ele>620.0</ele>
        <time>2021-12-27T16:21:34Z</time>
      </trkpt>
      <trkpt lat="37.7562080" lon="-3.9652370">
        <ele>620.0</ele>
        <time>2021-12-27T16:21:35Z</time>
      </trkpt>
      <trkpt lat="37.7562080" lon="-3.9652370">
        <ele>620.2</ele>
        <time>2021-12-27T16:21:36Z</time>
      </trkpt>
      <trkpt lat="37.7561820" lon="-3.9652570">
        <ele>620.2</ele>
        <time>2021-12-27T16:21:37Z</time>
      </trkpt>
      <trkpt lat="37.7561820" lon="-3.9652570">
        <ele>620.4</ele>
        <time>2021-12-27T16:21:38Z</time>
      </trkpt>
      <trkpt lat="37.7561600" lon="-3.9652880">
        <ele>620.6</ele>
        <time>2021-12-27T16:21:39Z</time>
      </trkpt>
      <trkpt lat="37.7561600" lon="-3.9652880">
        <ele>620.6</ele>
        <time>2021-12-27T16:21:40Z</time>
      </trkpt>
      <trkpt lat="37.7561410" lon="-3.9653140">
        <ele>620.8</ele>
        <time>2021-12-27T16:21:41Z</time>
      </trkpt>
      <trkpt lat="37.7561410" lon="-3.9653140">
        <ele>620.8</ele>
        <time>2021-12-27T16:21:42Z</time>
      </trkpt>
      <trkpt lat="37.7561120" lon="-3.9653420">
        <ele>621.0</ele>
        <time>2021-12-27T16:21:43Z</time>
      </trkpt>
      <trkpt lat="37.7560960" lon="-3.9653580">
        <ele>621.0</ele>
        <time>2021-12-27T16:21:44Z</time>
      </trkpt>
      <trkpt lat="37.7560770" lon="-3.9653780">
        <ele>621.2</ele>
        <time>2021-12-27T16:21:45Z</time>
      </trkpt>
      <trkpt lat="37.7560580" lon="-3.9653950">
        <ele>621.2</ele>
        <time>2021-12-27T16:21:46Z</time>
      </trkpt>
      <trkpt lat="37.7560380" lon="-3.9654130">
        <ele>621.4</ele>
        <time>2021-12-27T16:21:47Z</time>
      </trkpt>
      <trkpt lat="37.7560220" lon="-3.9654320">
        <ele>621.4</ele>
        <time>2021-12-27T16:21:48Z</time>
      </trkpt>
      <trkpt lat="37.7560100" lon="-3.9654480">
        <ele>621.4</ele>
        <time>2021-12-27T16:21:49Z</time>
      </trkpt>
      <trkpt lat="37.7559900" lon="-3.9654650">
        <ele>621.4</ele>
        <time>2021-12-27T16:21:50Z</time>
      </trkpt>
      <trkpt lat="37.7559740" lon="-3.9654780">
        <ele>621.4</ele>
        <time>2021-12-27T16:21:51Z</time>
      </trkpt>
      <trkpt lat="37.7559740" lon="-3.9654780">
        <ele>621.6</ele>
        <time>2021-12-27T16:21:52Z</time>
      </trkpt>
      <trkpt lat="37.7559520" lon="-3.9655020">
        <ele>621.6</ele>
        <time>2021-12-27T16:21:53Z</time>
      </trkpt>
      <trkpt lat="37.7559520" lon="-3.9655020">
        <ele>621.6</ele>
        <time>2021-12-27T16:21:54Z</time>
      </trkpt>
      <trkpt lat="37.7559300" lon="-3.9655150">
        <ele>621.8</ele>
        <time>2021-12-27T16:21:55Z</time>
      </trkpt>
      <trkpt lat="37.7559300" lon="-3.9655150">
        <ele>621.8</ele>
        <time>2021-12-27T16:21:56Z</time>
      </trkpt>
      <trkpt lat="37.7559300" lon="-3.9655150">
        <ele>622.0</ele>
        <time>2021-12-27T16:21:57Z</time>
      </trkpt>
      <trkpt lat="37.7559300" lon="-3.9655150">
        <ele>622.0</ele>
        <time>2021-12-27T16:21:58Z</time>
      </trkpt>
      <trkpt lat="37.7559300" lon="-3.9655150">
        <ele>622.2</ele>
        <time>2021-12-27T16:21:59Z</time>
      </trkpt>
      <trkpt lat="37.7558370" lon="-3.9656070">
        <ele>624.8</ele>
        <time>2021-12-27T16:23:10Z</time>
      </trkpt>
      <trkpt lat="37.7558370" lon="-3.9656070">
        <ele>624.8</ele>
        <time>2021-12-27T16:23:11Z</time>
      </trkpt>
      <trkpt lat="37.7557890" lon="-3.9656380">
        <ele>624.8</ele>
        <time>2021-12-27T16:23:12Z</time>
      </trkpt>
      <trkpt lat="37.7557790" lon="-3.9656450">
        <ele>624.8</ele>
        <time>2021-12-27T16:23:13Z</time>
      </trkpt>
      <trkpt lat="37.7557570" lon="-3.9656640">
        <ele>625.0</ele>
        <time>2021-12-27T16:23:14Z</time>
      </trkpt>
      <trkpt lat="37.7557380" lon="-3.9656780">
        <ele>625.0</ele>
        <time>2021-12-27T16:23:15Z</time>
      </trkpt>
      <trkpt lat="37.7557180" lon="-3.9656920">
        <ele>625.0</ele>
        <time>2021-12-27T16:23:16Z</time>
      </trkpt>
      <trkpt lat="37.7556990" lon="-3.9657050">
        <ele>625.0</ele>
        <time>2021-12-27T16:23:17Z</time>
      </trkpt>
      <trkpt lat="37.7556800" lon="-3.9657180">
        <ele>625.0</ele>
        <time>2021-12-27T16:23:18Z</time>
      </trkpt>
      <trkpt lat="37.7556800" lon="-3.9657180">
        <ele>625.0</ele>
        <time>2021-12-27T16:23:19Z</time>
      </trkpt>
      <trkpt lat="37.7556540" lon="-3.9657420">
        <ele>625.0</ele>
        <time>2021-12-27T16:23:20Z</time>
      </trkpt>
      <trkpt lat="37.7556540" lon="-3.9657420">
        <ele>625.0</ele>
        <time>2021-12-27T16:23:21Z</time>
      </trkpt>
      <trkpt lat="37.7556100" lon="-3.9657720">
        <ele>625.0</ele>
        <time>2021-12-27T16:23:22Z</time>
      </trkpt>
      <trkpt lat="37.7556000" lon="-3.9657800">
        <ele>625.0</ele>
        <time>2021-12-27T16:23:23Z</time>
      </trkpt>
      <trkpt lat="37.7556000" lon="-3.9657800">
        <ele>625.0</ele>
        <time>2021-12-27T16:23:24Z</time>
      </trkpt>
      <trkpt lat="37.7555620" lon="-3.9658070">
        <ele>625.0</ele>
        <time>2021-12-27T16:23:25Z</time>
      </trkpt>
      <trkpt lat="37.7555620" lon="-3.9658070">
        <ele>625.0</ele>
        <time>2021-12-27T16:23:26Z</time>
      </trkpt>
      <trkpt lat="37.7555170" lon="-3.9658330">
        <ele>625.0</ele>
        <time>2021-12-27T16:23:27Z</time>
      </trkpt>
      <trkpt lat="37.7555070" lon="-3.9658380">
        <ele>625.0</ele>
        <time>2021-12-27T16:23:28Z</time>
      </trkpt>
      <trkpt lat="37.7555070" lon="-3.9658380">
        <ele>625.0</ele>
        <time>2021-12-27T16:23:29Z</time>
      </trkpt>
      <trkpt lat="37.7554780" lon="-3.9658620">
        <ele>625.0</ele>
        <time>2021-12-27T16:23:30Z</time>
      </trkpt>
      <trkpt lat="37.7554590" lon="-3.9658780">
        <ele>625.0</ele>
        <time>2021-12-27T16:23:31Z</time>
      </trkpt>
      <trkpt lat="37.7554400" lon="-3.9658920">
        <ele>624.8</ele>
        <time>2021-12-27T16:23:32Z</time>
      </trkpt>
      <trkpt lat="37.7554210" lon="-3.9659050">
        <ele>624.8</ele>
        <time>2021-12-27T16:23:33Z</time>
      </trkpt>
      <trkpt lat="37.7554020" lon="-3.9659200">
        <ele>624.8</ele>
        <time>2021-12-27T16:23:34Z</time>
      </trkpt>
      <trkpt lat="37.7553790" lon="-3.9659320">
        <ele>624.6</ele>
        <time>2021-12-27T16:23:35Z</time>
      </trkpt>
      <trkpt lat="37.7553570" lon="-3.9659430">
        <ele>624.6</ele>
        <time>2021-12-27T16:23:36Z</time>
      </trkpt>
      <trkpt lat="37.7553570" lon="-3.9659430">
        <ele>624.6</ele>
        <time>2021-12-27T16:23:37Z</time>
      </trkpt>
      <trkpt lat="37.7553250" lon="-3.9659600">
        <ele>624.6</ele>
        <time>2021-12-27T16:23:38Z</time>
      </trkpt>
      <trkpt lat="37.7553090" lon="-3.9659720">
        <ele>624.4</ele>
        <time>2021-12-27T16:23:39Z</time>
      </trkpt>
      <trkpt lat="37.7552900" lon="-3.9659800">
        <ele>624.4</ele>
        <time>2021-12-27T16:23:40Z</time>
      </trkpt>
      <trkpt lat="37.7552670" lon="-3.9659920">
        <ele>624.4</ele>
        <time>2021-12-27T16:23:41Z</time>
      </trkpt>
      <trkpt lat="37.7552480" lon="-3.9660020">
        <ele>624.4</ele>
        <time>2021-12-27T16:23:42Z</time>
      </trkpt>
      <trkpt lat="37.7552290" lon="-3.9660100">
        <ele>624.2</ele>
        <time>2021-12-27T16:23:43Z</time>
      </trkpt>
      <trkpt lat="37.7552100" lon="-3.9660220">
        <ele>624.2</ele>
        <time>2021-12-27T16:23:44Z</time>
      </trkpt>
      <trkpt lat="37.7551900" lon="-3.9660320">
        <ele>624.2</ele>
        <time>2021-12-27T16:23:45Z</time>
      </trkpt>
      <trkpt lat="37.7551900" lon="-3.9660320">
        <ele>624.0</ele>
        <time>2021-12-27T16:23:46Z</time>
      </trkpt>
      <trkpt lat="37.7551620" lon="-3.9660480">
        <ele>624.0</ele>
        <time>2021-12-27T16:23:47Z</time>
      </trkpt>
      <trkpt lat="37.7551390" lon="-3.9660560">
        <ele>624.0</ele>
        <time>2021-12-27T16:23:48Z</time>
      </trkpt>
      <trkpt lat="37.7551390" lon="-3.9660560">
        <ele>624.0</ele>
        <time>2021-12-27T16:23:49Z</time>
      </trkpt>
      <trkpt lat="37.7550880" lon="-3.9660830">
        <ele>624.0</ele>
        <time>2021-12-27T16:23:50Z</time>
      </trkpt>
      <trkpt lat="37.7550780" lon="-3.9660880">
        <ele>624.0</ele>
        <time>2021-12-27T16:23:51Z</time>
      </trkpt>
      <trkpt lat="37.7550560" lon="-3.9660950">
        <ele>624.2</ele>
        <time>2021-12-27T16:23:52Z</time>
      </trkpt>
      <trkpt lat="37.7550560" lon="-3.9660950">
        <ele>624.2</ele>
        <time>2021-12-27T16:23:53Z</time>
      </trkpt>
      <trkpt lat="37.7550210" lon="-3.9661080">
        <ele>624.2</ele>
        <time>2021-12-27T16:23:54Z</time>
      </trkpt>
      <trkpt lat="37.7549980" lon="-3.9661170">
        <ele>624.4</ele>
        <time>2021-12-27T16:23:55Z</time>
      </trkpt>
      <trkpt lat="37.7549980" lon="-3.9661170">
        <ele>624.4</ele>
        <time>2021-12-27T16:23:56Z</time>
      </trkpt>
      <trkpt lat="37.7549660" lon="-3.9661320">
        <ele>624.6</ele>
        <time>2021-12-27T16:23:57Z</time>
      </trkpt>
      <trkpt lat="37.7549440" lon="-3.9661430">
        <ele>624.6</ele>
        <time>2021-12-27T16:23:58Z</time>
      </trkpt>
      <trkpt lat="37.7549250" lon="-3.9661520">
        <ele>624.8</ele>
        <time>2021-12-27T16:23:59Z</time>
      </trkpt>
      <trkpt lat="37.7549020" lon="-3.9661580">
        <ele>624.8</ele>
        <time>2021-12-27T16:24:00Z</time>
      </trkpt>
      <trkpt lat="37.7549020" lon="-3.9661580">
        <ele>624.8</ele>
        <time>2021-12-27T16:24:01Z</time>
      </trkpt>
      <trkpt lat="37.7548740" lon="-3.9661700">
        <ele>625.0</ele>
        <time>2021-12-27T16:24:02Z</time>
      </trkpt>
      <trkpt lat="37.7548740" lon="-3.9661700">
        <ele>625.0</ele>
        <time>2021-12-27T16:24:03Z</time>
      </trkpt>
      <trkpt lat="37.7548480" lon="-3.9661900">
        <ele>625.0</ele>
        <time>2021-12-27T16:24:04Z</time>
      </trkpt>
      <trkpt lat="37.7548260" lon="-3.9662000">
        <ele>625.0</ele>
        <time>2021-12-27T16:24:05Z</time>
      </trkpt>
      <trkpt lat="37.7548260" lon="-3.9662000">
        <ele>625.0</ele>
        <time>2021-12-27T16:24:06Z</time>
      </trkpt>
      <trkpt lat="37.7547940" lon="-3.9662080">
        <ele>625.0</ele>
        <time>2021-12-27T16:24:07Z</time>
      </trkpt>
      <trkpt lat="37.7547680" lon="-3.9662160">
        <ele>625.0</ele>
        <time>2021-12-27T16:24:08Z</time>
      </trkpt>
      <trkpt lat="37.7547680" lon="-3.9662160">
        <ele>625.0</ele>
        <time>2021-12-27T16:24:09Z</time>
      </trkpt>
      <trkpt lat="37.7547420" lon="-3.9662280">
        <ele>625.0</ele>
        <time>2021-12-27T16:24:10Z</time>
      </trkpt>
      <trkpt lat="37.7547230" lon="-3.9662350">
        <ele>625.0</ele>
        <time>2021-12-27T16:24:11Z</time>
      </trkpt>
      <trkpt lat="37.7547230" lon="-3.9662350">
        <ele>625.0</ele>
        <time>2021-12-27T16:24:12Z</time>
      </trkpt>
      <trkpt lat="37.7546880" lon="-3.9662500">
        <ele>625.0</ele>
        <time>2021-12-27T16:24:13Z</time>
      </trkpt>
      <trkpt lat="37.7546660" lon="-3.9662570">
        <ele>625.0</ele>
        <time>2021-12-27T16:24:14Z</time>
      </trkpt>
      <trkpt lat="37.7546660" lon="-3.9662570">
        <ele>625.0</ele>
        <time>2021-12-27T16:24:15Z</time>
      </trkpt>
      <trkpt lat="37.7546340" lon="-3.9662650">
        <ele>625.0</ele>
        <time>2021-12-27T16:24:16Z</time>
      </trkpt>
      <trkpt lat="37.7546340" lon="-3.9662650">
        <ele>625.2</ele>
        <time>2021-12-27T16:24:17Z</time>
      </trkpt>
      <trkpt lat="37.7546020" lon="-3.9662830">
        <ele>625.2</ele>
        <time>2021-12-27T16:24:18Z</time>
      </trkpt>
      <trkpt lat="37.7545820" lon="-3.9662920">
        <ele>625.2</ele>
        <time>2021-12-27T16:24:19Z</time>
      </trkpt>
      <trkpt lat="37.7545820" lon="-3.9662920">
        <ele>625.2</ele>
        <time>2021-12-27T16:24:20Z</time>
      </trkpt>
      <trkpt lat="37.7545500" lon="-3.9663020">
        <ele>625.2</ele>
        <time>2021-12-27T16:24:21Z</time>
      </trkpt>
      <trkpt lat="37.7545280" lon="-3.9663070">
        <ele>625.2</ele>
        <time>2021-12-27T16:24:22Z</time>
      </trkpt>
      <trkpt lat="37.7545280" lon="-3.9663070">
        <ele>625.2</ele>
        <time>2021-12-27T16:24:23Z</time>
      </trkpt>
      <trkpt lat="37.7544900" lon="-3.9663130">
        <ele>625.4</ele>
        <time>2021-12-27T16:24:24Z</time>
      </trkpt>
      <trkpt lat="37.7544900" lon="-3.9663130">
        <ele>625.4</ele>
        <time>2021-12-27T16:24:25Z</time>
      </trkpt>
      <trkpt lat="37.7544420" lon="-3.9663360">
        <ele>625.4</ele>
        <time>2021-12-27T16:24:26Z</time>
      </trkpt>
      <trkpt lat="37.7544320" lon="-3.9663400">
        <ele>625.4</ele>
        <time>2021-12-27T16:24:27Z</time>
      </trkpt>
      <trkpt lat="37.7544100" lon="-3.9663470">
        <ele>625.4</ele>
        <time>2021-12-27T16:24:28Z</time>
      </trkpt>
      <trkpt lat="37.7544100" lon="-3.9663470">
        <ele>625.4</ele>
        <time>2021-12-27T16:24:29Z</time>
      </trkpt>
      <trkpt lat="37.7543710" lon="-3.9663650">
        <ele>625.6</ele>
        <time>2021-12-27T16:24:30Z</time>
      </trkpt>
      <trkpt lat="37.7543420" lon="-3.9663750">
        <ele>625.6</ele>
        <time>2021-12-27T16:24:31Z</time>
      </trkpt>
      <trkpt lat="37.7543140" lon="-3.9663870">
        <ele>625.6</ele>
        <time>2021-12-27T16:24:32Z</time>
      </trkpt>
      <trkpt lat="37.7542910" lon="-3.9663970">
        <ele>625.6</ele>
        <time>2021-12-27T16:24:33Z</time>
      </trkpt>
      <trkpt lat="37.7542620" lon="-3.9664100">
        <ele>625.8</ele>
        <time>2021-12-27T16:24:34Z</time>
      </trkpt>
      <trkpt lat="37.7542340" lon="-3.9664200">
        <ele>625.8</ele>
        <time>2021-12-27T16:24:35Z</time>
      </trkpt>
      <trkpt lat="37.7542050" lon="-3.9664300">
        <ele>625.8</ele>
        <time>2021-12-27T16:24:36Z</time>
      </trkpt>
      <trkpt lat="37.7541760" lon="-3.9664380">
        <ele>625.8</ele>
        <time>2021-12-27T16:24:37Z</time>
      </trkpt>
      <trkpt lat="37.7541500" lon="-3.9664520">
        <ele>625.8</ele>
        <time>2021-12-27T16:24:38Z</time>
      </trkpt>
      <trkpt lat="37.7541180" lon="-3.9664680">
        <ele>625.8</ele>
        <time>2021-12-27T16:24:39Z</time>
      </trkpt>
      <trkpt lat="37.7540960" lon="-3.9664770">
        <ele>626.0</ele>
        <time>2021-12-27T16:24:40Z</time>
      </trkpt>
      <trkpt lat="37.7540640" lon="-3.9664880">
        <ele>626.0</ele>
        <time>2021-12-27T16:24:41Z</time>
      </trkpt>
      <trkpt lat="37.7540350" lon="-3.9665000">
        <ele>626.0</ele>
        <time>2021-12-27T16:24:42Z</time>
      </trkpt>
      <trkpt lat="37.7540100" lon="-3.9665100">
        <ele>626.0</ele>
        <time>2021-12-27T16:24:43Z</time>
      </trkpt>
      <trkpt lat="37.7539870" lon="-3.9665170">
        <ele>626.0</ele>
        <time>2021-12-27T16:24:44Z</time>
      </trkpt>
      <trkpt lat="37.7539520" lon="-3.9665280">
        <ele>626.0</ele>
        <time>2021-12-27T16:24:45Z</time>
      </trkpt>
      <trkpt lat="37.7539260" lon="-3.9665420">
        <ele>626.0</ele>
        <time>2021-12-27T16:24:46Z</time>
      </trkpt>
      <trkpt lat="37.7539070" lon="-3.9665520">
        <ele>626.0</ele>
        <time>2021-12-27T16:24:47Z</time>
      </trkpt>
      <trkpt lat="37.7538750" lon="-3.9665600">
        <ele>626.0</ele>
        <time>2021-12-27T16:24:48Z</time>
      </trkpt>
      <trkpt lat="37.7538500" lon="-3.9665720">
        <ele>626.0</ele>
        <time>2021-12-27T16:24:49Z</time>
      </trkpt>
      <trkpt lat="37.7538140" lon="-3.9665850">
        <ele>626.0</ele>
        <time>2021-12-27T16:24:50Z</time>
      </trkpt>
      <trkpt lat="37.7537790" lon="-3.9665950">
        <ele>626.2</ele>
        <time>2021-12-27T16:24:51Z</time>
      </trkpt>
      <trkpt lat="37.7537500" lon="-3.9666050">
        <ele>626.2</ele>
        <time>2021-12-27T16:24:52Z</time>
      </trkpt>
      <trkpt lat="37.7537220" lon="-3.9666170">
        <ele>626.2</ele>
        <time>2021-12-27T16:24:53Z</time>
      </trkpt>
      <trkpt lat="37.7536990" lon="-3.9666230">
        <ele>626.2</ele>
        <time>2021-12-27T16:24:54Z</time>
      </trkpt>
      <trkpt lat="37.7536740" lon="-3.9666300">
        <ele>626.4</ele>
        <time>2021-12-27T16:24:55Z</time>
      </trkpt>
      <trkpt lat="37.7536480" lon="-3.9666400">
        <ele>626.4</ele>
        <time>2021-12-27T16:24:56Z</time>
      </trkpt>
      <trkpt lat="37.7536480" lon="-3.9666400">
        <ele>626.4</ele>
        <time>2021-12-27T16:24:57Z</time>
      </trkpt>
      <trkpt lat="37.7536000" lon="-3.9666580">
        <ele>626.4</ele>
        <time>2021-12-27T16:24:58Z</time>
      </trkpt>
      <trkpt lat="37.7535900" lon="-3.9666620">
        <ele>626.4</ele>
        <time>2021-12-27T16:24:59Z</time>
      </trkpt>
      <trkpt lat="37.7535680" lon="-3.9666700">
        <ele>626.6</ele>
        <time>2021-12-27T16:25:00Z</time>
      </trkpt>
      <trkpt lat="37.7535420" lon="-3.9666770">
        <ele>626.6</ele>
        <time>2021-12-27T16:25:01Z</time>
      </trkpt>
      <trkpt lat="37.7535200" lon="-3.9666850">
        <ele>626.6</ele>
        <time>2021-12-27T16:25:02Z</time>
      </trkpt>
      <trkpt lat="37.7534980" lon="-3.9666920">
        <ele>626.6</ele>
        <time>2021-12-27T16:25:03Z</time>
      </trkpt>
      <trkpt lat="37.7534750" lon="-3.9666980">
        <ele>626.8</ele>
        <time>2021-12-27T16:25:04Z</time>
      </trkpt>
      <trkpt lat="37.7534530" lon="-3.9667070">
        <ele>626.8</ele>
        <time>2021-12-27T16:25:05Z</time>
      </trkpt>
      <trkpt lat="37.7534340" lon="-3.9667150">
        <ele>626.8</ele>
        <time>2021-12-27T16:25:06Z</time>
      </trkpt>
      <trkpt lat="37.7534080" lon="-3.9667220">
        <ele>626.8</ele>
        <time>2021-12-27T16:25:07Z</time>
      </trkpt>
      <trkpt lat="37.7533820" lon="-3.9667270">
        <ele>626.8</ele>
        <time>2021-12-27T16:25:08Z</time>
      </trkpt>
      <trkpt lat="37.7533600" lon="-3.9667340">
        <ele>626.8</ele>
        <time>2021-12-27T16:25:09Z</time>
      </trkpt>
      <trkpt lat="37.7533340" lon="-3.9667420">
        <ele>627.0</ele>
        <time>2021-12-27T16:25:10Z</time>
      </trkpt>
      <trkpt lat="37.7533120" lon="-3.9667500">
        <ele>627.0</ele>
        <time>2021-12-27T16:25:11Z</time>
      </trkpt>
      <trkpt lat="37.7532830" lon="-3.9667600">
        <ele>627.0</ele>
        <time>2021-12-27T16:25:12Z</time>
      </trkpt>
      <trkpt lat="37.7532610" lon="-3.9667660">
        <ele>627.2</ele>
        <time>2021-12-27T16:25:13Z</time>
      </trkpt>
      <trkpt lat="37.7532320" lon="-3.9667750">
        <ele>627.2</ele>
        <time>2021-12-27T16:25:14Z</time>
      </trkpt>
      <trkpt lat="37.7532100" lon="-3.9667820">
        <ele>627.2</ele>
        <time>2021-12-27T16:25:15Z</time>
      </trkpt>
      <trkpt lat="37.7531840" lon="-3.9667920">
        <ele>627.2</ele>
        <time>2021-12-27T16:25:16Z</time>
      </trkpt>
      <trkpt lat="37.7531580" lon="-3.9668020">
        <ele>627.4</ele>
        <time>2021-12-27T16:25:17Z</time>
      </trkpt>
      <trkpt lat="37.7531330" lon="-3.9668120">
        <ele>627.4</ele>
        <time>2021-12-27T16:25:18Z</time>
      </trkpt>
      <trkpt lat="37.7531040" lon="-3.9668200">
        <ele>627.4</ele>
        <time>2021-12-27T16:25:19Z</time>
      </trkpt>
      <trkpt lat="37.7530780" lon="-3.9668300">
        <ele>627.6</ele>
        <time>2021-12-27T16:25:20Z</time>
      </trkpt>
      <trkpt lat="37.7530560" lon="-3.9668380">
        <ele>627.4</ele>
        <time>2021-12-27T16:25:21Z</time>
      </trkpt>
      <trkpt lat="37.7530300" lon="-3.9668480">
        <ele>627.4</ele>
        <time>2021-12-27T16:25:22Z</time>
      </trkpt>
      <trkpt lat="37.7530020" lon="-3.9668570">
        <ele>627.4</ele>
        <time>2021-12-27T16:25:23Z</time>
      </trkpt>
      <trkpt lat="37.7529760" lon="-3.9668630">
        <ele>627.4</ele>
        <time>2021-12-27T16:25:24Z</time>
      </trkpt>
      <trkpt lat="37.7529470" lon="-3.9668750">
        <ele>627.2</ele>
        <time>2021-12-27T16:25:25Z</time>
      </trkpt>
      <trkpt lat="37.7529220" lon="-3.9668850">
        <ele>627.2</ele>
        <time>2021-12-27T16:25:26Z</time>
      </trkpt>
      <trkpt lat="37.7528960" lon="-3.9668950">
        <ele>627.2</ele>
        <time>2021-12-27T16:25:27Z</time>
      </trkpt>
      <trkpt lat="37.7528640" lon="-3.9669050">
        <ele>627.2</ele>
        <time>2021-12-27T16:25:28Z</time>
      </trkpt>
      <trkpt lat="37.7528380" lon="-3.9669150">
        <ele>627.2</ele>
        <time>2021-12-27T16:25:29Z</time>
      </trkpt>
      <trkpt lat="37.7528060" lon="-3.9669230">
        <ele>627.4</ele>
        <time>2021-12-27T16:25:30Z</time>
      </trkpt>
      <trkpt lat="37.7527810" lon="-3.9669350">
        <ele>627.4</ele>
        <time>2021-12-27T16:25:31Z</time>
      </trkpt>
      <trkpt lat="37.7527550" lon="-3.9669430">
        <ele>627.4</ele>
        <time>2021-12-27T16:25:32Z</time>
      </trkpt>
      <trkpt lat="37.7527230" lon="-3.9669530">
        <ele>627.4</ele>
        <time>2021-12-27T16:25:33Z</time>
      </trkpt>
      <trkpt lat="37.7526940" lon="-3.9669620">
        <ele>627.4</ele>
        <time>2021-12-27T16:25:34Z</time>
      </trkpt>
      <trkpt lat="37.7526660" lon="-3.9669720">
        <ele>627.4</ele>
        <time>2021-12-27T16:25:35Z</time>
      </trkpt>
      <trkpt lat="37.7526370" lon="-3.9669800">
        <ele>627.2</ele>
        <time>2021-12-27T16:25:36Z</time>
      </trkpt>
      <trkpt lat="37.7526080" lon="-3.9669880">
        <ele>627.2</ele>
        <time>2021-12-27T16:25:37Z</time>
      </trkpt>
      <trkpt lat="37.7525790" lon="-3.9669980">
        <ele>627.2</ele>
        <time>2021-12-27T16:25:38Z</time>
      </trkpt>
      <trkpt lat="37.7525470" lon="-3.9670080">
        <ele>627.2</ele>
        <time>2021-12-27T16:25:39Z</time>
      </trkpt>
      <trkpt lat="37.7525220" lon="-3.9670180">
        <ele>627.0</ele>
        <time>2021-12-27T16:25:40Z</time>
      </trkpt>
      <trkpt lat="37.7524900" lon="-3.9670280">
        <ele>627.0</ele>
        <time>2021-12-27T16:25:41Z</time>
      </trkpt>
      <trkpt lat="37.7524640" lon="-3.9670400">
        <ele>627.0</ele>
        <time>2021-12-27T16:25:42Z</time>
      </trkpt>
      <trkpt lat="37.7524350" lon="-3.9670520">
        <ele>626.8</ele>
        <time>2021-12-27T16:25:43Z</time>
      </trkpt>
      <trkpt lat="37.7524060" lon="-3.9670640">
        <ele>626.8</ele>
        <time>2021-12-27T16:25:44Z</time>
      </trkpt>
      <trkpt lat="37.7523780" lon="-3.9670750">
        <ele>626.8</ele>
        <time>2021-12-27T16:25:45Z</time>
      </trkpt>
      <trkpt lat="37.7523490" lon="-3.9670870">
        <ele>626.8</ele>
        <time>2021-12-27T16:25:46Z</time>
      </trkpt>
      <trkpt lat="37.7523230" lon="-3.9670970">
        <ele>626.8</ele>
        <time>2021-12-27T16:25:47Z</time>
      </trkpt>
      <trkpt lat="37.7522910" lon="-3.9671080">
        <ele>626.8</ele>
        <time>2021-12-27T16:25:48Z</time>
      </trkpt>
      <trkpt lat="37.7522620" lon="-3.9671200">
        <ele>626.8</ele>
        <time>2021-12-27T16:25:49Z</time>
      </trkpt>
      <trkpt lat="37.7522300" lon="-3.9671320">
        <ele>626.8</ele>
        <time>2021-12-27T16:25:50Z</time>
      </trkpt>
      <trkpt lat="37.7522050" lon="-3.9671450">
        <ele>626.8</ele>
        <time>2021-12-27T16:25:51Z</time>
      </trkpt>
      <trkpt lat="37.7521730" lon="-3.9671550">
        <ele>626.8</ele>
        <time>2021-12-27T16:25:52Z</time>
      </trkpt>
      <trkpt lat="37.7521440" lon="-3.9671650">
        <ele>626.8</ele>
        <time>2021-12-27T16:25:53Z</time>
      </trkpt>
      <trkpt lat="37.7521180" lon="-3.9671750">
        <ele>626.8</ele>
        <time>2021-12-27T16:25:54Z</time>
      </trkpt>
      <trkpt lat="37.7520900" lon="-3.9671820">
        <ele>626.8</ele>
        <time>2021-12-27T16:25:55Z</time>
      </trkpt>
      <trkpt lat="37.7520610" lon="-3.9671900">
        <ele>627.0</ele>
        <time>2021-12-27T16:25:56Z</time>
      </trkpt>
      <trkpt lat="37.7520320" lon="-3.9672000">
        <ele>627.0</ele>
        <time>2021-12-27T16:25:57Z</time>
      </trkpt>
      <trkpt lat="37.7520030" lon="-3.9672120">
        <ele>627.0</ele>
        <time>2021-12-27T16:25:58Z</time>
      </trkpt>
      <trkpt lat="37.7519710" lon="-3.9672250">
        <ele>626.8</ele>
        <time>2021-12-27T16:25:59Z</time>
      </trkpt>
      <trkpt lat="37.7519420" lon="-3.9672360">
        <ele>626.8</ele>
        <time>2021-12-27T16:26:00Z</time>
      </trkpt>
      <trkpt lat="37.7519100" lon="-3.9672460">
        <ele>627.0</ele>
        <time>2021-12-27T16:26:01Z</time>
      </trkpt>
      <trkpt lat="37.7518820" lon="-3.9672550">
        <ele>627.0</ele>
        <time>2021-12-27T16:26:02Z</time>
      </trkpt>
      <trkpt lat="37.7518500" lon="-3.9672630">
        <ele>627.0</ele>
        <time>2021-12-27T16:26:03Z</time>
      </trkpt>
      <trkpt lat="37.7518240" lon="-3.9672750">
        <ele>627.0</ele>
        <time>2021-12-27T16:26:04Z</time>
      </trkpt>
      <trkpt lat="37.7517920" lon="-3.9672860">
        <ele>627.0</ele>
        <time>2021-12-27T16:26:05Z</time>
      </trkpt>
      <trkpt lat="37.7517630" lon="-3.9672970">
        <ele>627.0</ele>
        <time>2021-12-27T16:26:06Z</time>
      </trkpt>
      <trkpt lat="37.7517310" lon="-3.9673050">
        <ele>627.2</ele>
        <time>2021-12-27T16:26:07Z</time>
      </trkpt>
      <trkpt lat="37.7517060" lon="-3.9673130">
        <ele>627.2</ele>
        <time>2021-12-27T16:26:08Z</time>
      </trkpt>
      <trkpt lat="37.7516740" lon="-3.9673230">
        <ele>627.2</ele>
        <time>2021-12-27T16:26:09Z</time>
      </trkpt>
      <trkpt lat="37.7516450" lon="-3.9673350">
        <ele>627.2</ele>
        <time>2021-12-27T16:26:10Z</time>
      </trkpt>
      <trkpt lat="37.7516100" lon="-3.9673470">
        <ele>627.2</ele>
        <time>2021-12-27T16:26:11Z</time>
      </trkpt>
      <trkpt lat="37.7515810" lon="-3.9673580">
        <ele>627.2</ele>
        <time>2021-12-27T16:26:12Z</time>
      </trkpt>
      <trkpt lat="37.7515490" lon="-3.9673720">
        <ele>627.2</ele>
        <time>2021-12-27T16:26:13Z</time>
      </trkpt>
      <trkpt lat="37.7515170" lon="-3.9673820">
        <ele>627.2</ele>
        <time>2021-12-27T16:26:14Z</time>
      </trkpt>
      <trkpt lat="37.7514880" lon="-3.9673900">
        <ele>627.2</ele>
        <time>2021-12-27T16:26:15Z</time>
      </trkpt>
      <trkpt lat="37.7514530" lon="-3.9674000">
        <ele>627.4</ele>
        <time>2021-12-27T16:26:16Z</time>
      </trkpt>
      <trkpt lat="37.7514240" lon="-3.9674120">
        <ele>627.4</ele>
        <time>2021-12-27T16:26:17Z</time>
      </trkpt>
      <trkpt lat="37.7513920" lon="-3.9674220">
        <ele>627.4</ele>
        <time>2021-12-27T16:26:18Z</time>
      </trkpt>
      <trkpt lat="37.7513630" lon="-3.9674340">
        <ele>627.4</ele>
        <time>2021-12-27T16:26:19Z</time>
      </trkpt>
      <trkpt lat="37.7513310" lon="-3.9674470">
        <ele>627.6</ele>
        <time>2021-12-27T16:26:20Z</time>
      </trkpt>
      <trkpt lat="37.7513020" lon="-3.9674580">
        <ele>627.6</ele>
        <time>2021-12-27T16:26:21Z</time>
      </trkpt>
      <trkpt lat="37.7512740" lon="-3.9674680">
        <ele>627.4</ele>
        <time>2021-12-27T16:26:22Z</time>
      </trkpt>
      <trkpt lat="37.7512450" lon="-3.9674780">
        <ele>627.4</ele>
        <time>2021-12-27T16:26:23Z</time>
      </trkpt>
      <trkpt lat="37.7512130" lon="-3.9674900">
        <ele>627.4</ele>
        <time>2021-12-27T16:26:24Z</time>
      </trkpt>
      <trkpt lat="37.7511870" lon="-3.9675000">
        <ele>627.4</ele>
        <time>2021-12-27T16:26:25Z</time>
      </trkpt>
      <trkpt lat="37.7511580" lon="-3.9675120">
        <ele>627.2</ele>
        <time>2021-12-27T16:26:26Z</time>
      </trkpt>
      <trkpt lat="37.7511330" lon="-3.9675250">
        <ele>627.2</ele>
        <time>2021-12-27T16:26:27Z</time>
      </trkpt>
      <trkpt lat="37.7510980" lon="-3.9675380">
        <ele>627.2</ele>
        <time>2021-12-27T16:26:28Z</time>
      </trkpt>
      <trkpt lat="37.7510690" lon="-3.9675550">
        <ele>627.2</ele>
        <time>2021-12-27T16:26:29Z</time>
      </trkpt>
      <trkpt lat="37.7510370" lon="-3.9675680">
        <ele>627.2</ele>
        <time>2021-12-27T16:26:30Z</time>
      </trkpt>
      <trkpt lat="37.7510080" lon="-3.9675780">
        <ele>627.2</ele>
        <time>2021-12-27T16:26:31Z</time>
      </trkpt>
      <trkpt lat="37.7509760" lon="-3.9675880">
        <ele>627.4</ele>
        <time>2021-12-27T16:26:32Z</time>
      </trkpt>
      <trkpt lat="37.7509470" lon="-3.9675980">
        <ele>627.4</ele>
        <time>2021-12-27T16:26:33Z</time>
      </trkpt>
      <trkpt lat="37.7509120" lon="-3.9676080">
        <ele>627.4</ele>
        <time>2021-12-27T16:26:34Z</time>
      </trkpt>
      <trkpt lat="37.7508860" lon="-3.9676160">
        <ele>627.4</ele>
        <time>2021-12-27T16:26:35Z</time>
      </trkpt>
      <trkpt lat="37.7508580" lon="-3.9676280">
        <ele>627.4</ele>
        <time>2021-12-27T16:26:36Z</time>
      </trkpt>
      <trkpt lat="37.7508320" lon="-3.9676400">
        <ele>627.6</ele>
        <time>2021-12-27T16:26:37Z</time>
      </trkpt>
      <trkpt lat="37.7508000" lon="-3.9676520">
        <ele>627.6</ele>
        <time>2021-12-27T16:26:38Z</time>
      </trkpt>
      <trkpt lat="37.7507740" lon="-3.9676630">
        <ele>627.6</ele>
        <time>2021-12-27T16:26:39Z</time>
      </trkpt>
      <trkpt lat="37.7507490" lon="-3.9676750">
        <ele>627.6</ele>
        <time>2021-12-27T16:26:40Z</time>
      </trkpt>
      <trkpt lat="37.7507170" lon="-3.9676850">
        <ele>627.4</ele>
        <time>2021-12-27T16:26:41Z</time>
      </trkpt>
      <trkpt lat="37.7506910" lon="-3.9676950">
        <ele>627.4</ele>
        <time>2021-12-27T16:26:42Z</time>
      </trkpt>
      <trkpt lat="37.7506590" lon="-3.9677030">
        <ele>627.4</ele>
        <time>2021-12-27T16:26:43Z</time>
      </trkpt>
      <trkpt lat="37.7506300" lon="-3.9677130">
        <ele>627.4</ele>
        <time>2021-12-27T16:26:44Z</time>
      </trkpt>
      <trkpt lat="37.7505980" lon="-3.9677250">
        <ele>627.2</ele>
        <time>2021-12-27T16:26:45Z</time>
      </trkpt>
      <trkpt lat="37.7505700" lon="-3.9677330">
        <ele>627.2</ele>
        <time>2021-12-27T16:26:46Z</time>
      </trkpt>
      <trkpt lat="37.7505410" lon="-3.9677420">
        <ele>627.2</ele>
        <time>2021-12-27T16:26:47Z</time>
      </trkpt>
      <trkpt lat="37.7505120" lon="-3.9677500">
        <ele>627.2</ele>
        <time>2021-12-27T16:26:48Z</time>
      </trkpt>
      <trkpt lat="37.7504800" lon="-3.9677580">
        <ele>627.2</ele>
        <time>2021-12-27T16:26:49Z</time>
      </trkpt>
      <trkpt lat="37.7504510" lon="-3.9677640">
        <ele>627.2</ele>
        <time>2021-12-27T16:26:50Z</time>
      </trkpt>
      <trkpt lat="37.7504220" lon="-3.9677670">
        <ele>627.2</ele>
        <time>2021-12-27T16:26:51Z</time>
      </trkpt>
      <trkpt lat="37.7503940" lon="-3.9677700">
        <ele>627.2</ele>
        <time>2021-12-27T16:26:52Z</time>
      </trkpt>
      <trkpt lat="37.7503650" lon="-3.9677780">
        <ele>627.2</ele>
        <time>2021-12-27T16:26:53Z</time>
      </trkpt>
      <trkpt lat="37.7503360" lon="-3.9677880">
        <ele>627.4</ele>
        <time>2021-12-27T16:26:54Z</time>
      </trkpt>
      <trkpt lat="37.7503040" lon="-3.9678000">
        <ele>627.4</ele>
        <time>2021-12-27T16:26:55Z</time>
      </trkpt>
      <trkpt lat="37.7502780" lon="-3.9678100">
        <ele>627.4</ele>
        <time>2021-12-27T16:26:56Z</time>
      </trkpt>
      <trkpt lat="37.7502430" lon="-3.9678220">
        <ele>627.6</ele>
        <time>2021-12-27T16:26:57Z</time>
      </trkpt>
      <trkpt lat="37.7502140" lon="-3.9678320">
        <ele>627.8</ele>
        <time>2021-12-27T16:26:58Z</time>
      </trkpt>
      <trkpt lat="37.7501790" lon="-3.9678420">
        <ele>627.8</ele>
        <time>2021-12-27T16:26:59Z</time>
      </trkpt>
      <trkpt lat="37.7501440" lon="-3.9678500">
        <ele>627.8</ele>
        <time>2021-12-27T16:27:00Z</time>
      </trkpt>
      <trkpt lat="37.7501060" lon="-3.9678620">
        <ele>628.0</ele>
        <time>2021-12-27T16:27:01Z</time>
      </trkpt>
      <trkpt lat="37.7500770" lon="-3.9678750">
        <ele>628.0</ele>
        <time>2021-12-27T16:27:02Z</time>
      </trkpt>
      <trkpt lat="37.7500420" lon="-3.9678830">
        <ele>628.0</ele>
        <time>2021-12-27T16:27:03Z</time>
      </trkpt>
      <trkpt lat="37.7500130" lon="-3.9678920">
        <ele>628.0</ele>
        <time>2021-12-27T16:27:04Z</time>
      </trkpt>
      <trkpt lat="37.7499810" lon="-3.9679030">
        <ele>628.2</ele>
        <time>2021-12-27T16:27:05Z</time>
      </trkpt>
      <trkpt lat="37.7499520" lon="-3.9679130">
        <ele>628.2</ele>
        <time>2021-12-27T16:27:06Z</time>
      </trkpt>
      <trkpt lat="37.7499200" lon="-3.9679250">
        <ele>628.4</ele>
        <time>2021-12-27T16:27:07Z</time>
      </trkpt>
      <trkpt lat="37.7498880" lon="-3.9679370">
        <ele>628.4</ele>
        <time>2021-12-27T16:27:08Z</time>
      </trkpt>
      <trkpt lat="37.7498560" lon="-3.9679500">
        <ele>628.4</ele>
        <time>2021-12-27T16:27:09Z</time>
      </trkpt>
      <trkpt lat="37.7498270" lon="-3.9679600">
        <ele>628.4</ele>
        <time>2021-12-27T16:27:10Z</time>
      </trkpt>
      <trkpt lat="37.7497980" lon="-3.9679720">
        <ele>628.4</ele>
        <time>2021-12-27T16:27:11Z</time>
      </trkpt>
      <trkpt lat="37.7497660" lon="-3.9679760">
        <ele>628.4</ele>
        <time>2021-12-27T16:27:12Z</time>
      </trkpt>
      <trkpt lat="37.7497410" lon="-3.9679800">
        <ele>628.4</ele>
        <time>2021-12-27T16:27:13Z</time>
      </trkpt>
      <trkpt lat="37.7497090" lon="-3.9679860">
        <ele>628.4</ele>
        <time>2021-12-27T16:27:14Z</time>
      </trkpt>
      <trkpt lat="37.7496800" lon="-3.9679930">
        <ele>628.4</ele>
        <time>2021-12-27T16:27:15Z</time>
      </trkpt>
      <trkpt lat="37.7496480" lon="-3.9680020">
        <ele>628.6</ele>
        <time>2021-12-27T16:27:16Z</time>
      </trkpt>
      <trkpt lat="37.7496190" lon="-3.9680100">
        <ele>628.6</ele>
        <time>2021-12-27T16:27:17Z</time>
      </trkpt>
      <trkpt lat="37.7495870" lon="-3.9680180">
        <ele>628.6</ele>
        <time>2021-12-27T16:27:18Z</time>
      </trkpt>
      <trkpt lat="37.7495580" lon="-3.9680250">
        <ele>628.6</ele>
        <time>2021-12-27T16:27:19Z</time>
      </trkpt>
      <trkpt lat="37.7495300" lon="-3.9680320">
        <ele>628.6</ele>
        <time>2021-12-27T16:27:20Z</time>
      </trkpt>
      <trkpt lat="37.7494980" lon="-3.9680370">
        <ele>628.6</ele>
        <time>2021-12-27T16:27:21Z</time>
      </trkpt>
      <trkpt lat="37.7494660" lon="-3.9680470">
        <ele>628.6</ele>
        <time>2021-12-27T16:27:22Z</time>
      </trkpt>
      <trkpt lat="37.7494300" lon="-3.9680530">
        <ele>628.6</ele>
        <time>2021-12-27T16:27:23Z</time>
      </trkpt>
      <trkpt lat="37.7494050" lon="-3.9680620">
        <ele>628.6</ele>
        <time>2021-12-27T16:27:24Z</time>
      </trkpt>
      <trkpt lat="37.7493730" lon="-3.9680670">
        <ele>628.6</ele>
        <time>2021-12-27T16:27:25Z</time>
      </trkpt>
      <trkpt lat="37.7493440" lon="-3.9680730">
        <ele>628.6</ele>
        <time>2021-12-27T16:27:26Z</time>
      </trkpt>
      <trkpt lat="37.7493180" lon="-3.9680820">
        <ele>628.6</ele>
        <time>2021-12-27T16:27:27Z</time>
      </trkpt>
      <trkpt lat="37.7492900" lon="-3.9680880">
        <ele>628.6</ele>
        <time>2021-12-27T16:27:28Z</time>
      </trkpt>
      <trkpt lat="37.7492640" lon="-3.9680950">
        <ele>628.6</ele>
        <time>2021-12-27T16:27:29Z</time>
      </trkpt>
      <trkpt lat="37.7492420" lon="-3.9681040">
        <ele>628.6</ele>
        <time>2021-12-27T16:27:30Z</time>
      </trkpt>
      <trkpt lat="37.7492100" lon="-3.9681100">
        <ele>628.4</ele>
        <time>2021-12-27T16:27:31Z</time>
      </trkpt>
      <trkpt lat="37.7491840" lon="-3.9681140">
        <ele>628.4</ele>
        <time>2021-12-27T16:27:32Z</time>
      </trkpt>
      <trkpt lat="37.7491580" lon="-3.9681180">
        <ele>628.4</ele>
        <time>2021-12-27T16:27:33Z</time>
      </trkpt>
      <trkpt lat="37.7491300" lon="-3.9681240">
        <ele>628.4</ele>
        <time>2021-12-27T16:27:34Z</time>
      </trkpt>
      <trkpt lat="37.7491010" lon="-3.9681250">
        <ele>628.4</ele>
        <time>2021-12-27T16:27:35Z</time>
      </trkpt>
      <trkpt lat="37.7490720" lon="-3.9681270">
        <ele>628.4</ele>
        <time>2021-12-27T16:27:36Z</time>
      </trkpt>
      <trkpt lat="37.7490400" lon="-3.9681270">
        <ele>628.6</ele>
        <time>2021-12-27T16:27:37Z</time>
      </trkpt>
      <trkpt lat="37.7490080" lon="-3.9681280">
        <ele>628.6</ele>
        <time>2021-12-27T16:27:38Z</time>
      </trkpt>
      <trkpt lat="37.7489820" lon="-3.9681300">
        <ele>628.6</ele>
        <time>2021-12-27T16:27:39Z</time>
      </trkpt>
      <trkpt lat="37.7489500" lon="-3.9681300">
        <ele>628.6</ele>
        <time>2021-12-27T16:27:40Z</time>
      </trkpt>
      <trkpt lat="37.7489220" lon="-3.9681300">
        <ele>628.8</ele>
        <time>2021-12-27T16:27:41Z</time>
      </trkpt>
      <trkpt lat="37.7488900" lon="-3.9681300">
        <ele>628.8</ele>
        <time>2021-12-27T16:27:42Z</time>
      </trkpt>
      <trkpt lat="37.7488610" lon="-3.9681280">
        <ele>628.8</ele>
        <time>2021-12-27T16:27:43Z</time>
      </trkpt>
      <trkpt lat="37.7488290" lon="-3.9681250">
        <ele>628.8</ele>
        <time>2021-12-27T16:27:44Z</time>
      </trkpt>
      <trkpt lat="37.7488030" lon="-3.9681220">
        <ele>628.8</ele>
        <time>2021-12-27T16:27:45Z</time>
      </trkpt>
      <trkpt lat="37.7487710" lon="-3.9681180">
        <ele>628.8</ele>
        <time>2021-12-27T16:27:46Z</time>
      </trkpt>
      <trkpt lat="37.7487460" lon="-3.9681150">
        <ele>628.8</ele>
        <time>2021-12-27T16:27:47Z</time>
      </trkpt>
      <trkpt lat="37.7487140" lon="-3.9681120">
        <ele>628.8</ele>
        <time>2021-12-27T16:27:48Z</time>
      </trkpt>
      <trkpt lat="37.7486880" lon="-3.9681080">
        <ele>628.8</ele>
        <time>2021-12-27T16:27:49Z</time>
      </trkpt>
      <trkpt lat="37.7486620" lon="-3.9681020">
        <ele>628.8</ele>
        <time>2021-12-27T16:27:50Z</time>
      </trkpt>
      <trkpt lat="37.7486300" lon="-3.9680950">
        <ele>628.8</ele>
        <time>2021-12-27T16:27:51Z</time>
      </trkpt>
      <trkpt lat="37.7486050" lon="-3.9680870">
        <ele>629.0</ele>
        <time>2021-12-27T16:27:52Z</time>
      </trkpt>
      <trkpt lat="37.7485760" lon="-3.9680830">
        <ele>629.0</ele>
        <time>2021-12-27T16:27:53Z</time>
      </trkpt>
      <trkpt lat="37.7485500" lon="-3.9680830">
        <ele>629.0</ele>
        <time>2021-12-27T16:27:54Z</time>
      </trkpt>
      <trkpt lat="37.7485280" lon="-3.9680820">
        <ele>629.0</ele>
        <time>2021-12-27T16:27:55Z</time>
      </trkpt>
      <trkpt lat="37.7484960" lon="-3.9680780">
        <ele>629.0</ele>
        <time>2021-12-27T16:27:56Z</time>
      </trkpt>
      <trkpt lat="37.7484700" lon="-3.9680750">
        <ele>629.2</ele>
        <time>2021-12-27T16:27:57Z</time>
      </trkpt>
      <trkpt lat="37.7484450" lon="-3.9680720">
        <ele>629.2</ele>
        <time>2021-12-27T16:27:58Z</time>
      </trkpt>
      <trkpt lat="37.7484160" lon="-3.9680670">
        <ele>629.2</ele>
        <time>2021-12-27T16:27:59Z</time>
      </trkpt>
      <trkpt lat="37.7483900" lon="-3.9680620">
        <ele>629.2</ele>
        <time>2021-12-27T16:28:00Z</time>
      </trkpt>
      <trkpt lat="37.7483650" lon="-3.9680570">
        <ele>629.2</ele>
        <time>2021-12-27T16:28:01Z</time>
      </trkpt>
      <trkpt lat="37.7483360" lon="-3.9680500">
        <ele>629.4</ele>
        <time>2021-12-27T16:28:02Z</time>
      </trkpt>
      <trkpt lat="37.7483070" lon="-3.9680450">
        <ele>629.4</ele>
        <time>2021-12-27T16:28:03Z</time>
      </trkpt>
      <trkpt lat="37.7482780" lon="-3.9680380">
        <ele>629.6</ele>
        <time>2021-12-27T16:28:04Z</time>
      </trkpt>
      <trkpt lat="37.7482530" lon="-3.9680350">
        <ele>629.6</ele>
        <time>2021-12-27T16:28:05Z</time>
      </trkpt>
      <trkpt lat="37.7482300" lon="-3.9680280">
        <ele>629.8</ele>
        <time>2021-12-27T16:28:06Z</time>
      </trkpt>
      <trkpt lat="37.7482050" lon="-3.9680200">
        <ele>630.0</ele>
        <time>2021-12-27T16:28:07Z</time>
      </trkpt>
      <trkpt lat="37.7481760" lon="-3.9680120">
        <ele>630.0</ele>
        <time>2021-12-27T16:28:08Z</time>
      </trkpt>
      <trkpt lat="37.7481500" lon="-3.9680030">
        <ele>630.2</ele>
        <time>2021-12-27T16:28:09Z</time>
      </trkpt>
      <trkpt lat="37.7481220" lon="-3.9679960">
        <ele>630.2</ele>
        <time>2021-12-27T16:28:10Z</time>
      </trkpt>
      <trkpt lat="37.7480990" lon="-3.9679900">
        <ele>630.4</ele>
        <time>2021-12-27T16:28:11Z</time>
      </trkpt>
      <trkpt lat="37.7480770" lon="-3.9679800">
        <ele>630.4</ele>
        <time>2021-12-27T16:28:12Z</time>
      </trkpt>
      <trkpt lat="37.7480540" lon="-3.9679730">
        <ele>630.4</ele>
        <time>2021-12-27T16:28:13Z</time>
      </trkpt>
      <trkpt lat="37.7480320" lon="-3.9679680">
        <ele>630.4</ele>
        <time>2021-12-27T16:28:14Z</time>
      </trkpt>
      <trkpt lat="37.7480130" lon="-3.9679580">
        <ele>630.6</ele>
        <time>2021-12-27T16:28:15Z</time>
      </trkpt>
      <trkpt lat="37.7480130" lon="-3.9679580">
        <ele>630.6</ele>
        <time>2021-12-27T16:28:16Z</time>
      </trkpt>
      <trkpt lat="37.7479810" lon="-3.9679420">
        <ele>630.6</ele>
        <time>2021-12-27T16:28:17Z</time>
      </trkpt>
      <trkpt lat="37.7479810" lon="-3.9679420">
        <ele>630.6</ele>
        <time>2021-12-27T16:28:18Z</time>
      </trkpt>
      <trkpt lat="37.7479550" lon="-3.9679350">
        <ele>630.4</ele>
        <time>2021-12-27T16:28:19Z</time>
      </trkpt>
      <trkpt lat="37.7479550" lon="-3.9679350">
        <ele>630.4</ele>
        <time>2021-12-27T16:28:20Z</time>
      </trkpt>
      <trkpt lat="37.7479300" lon="-3.9679240">
        <ele>630.4</ele>
        <time>2021-12-27T16:28:21Z</time>
      </trkpt>
      <trkpt lat="37.7479100" lon="-3.9679220">
        <ele>630.4</ele>
        <time>2021-12-27T16:28:22Z</time>
      </trkpt>
      <trkpt lat="37.7478910" lon="-3.9679180">
        <ele>630.4</ele>
        <time>2021-12-27T16:28:23Z</time>
      </trkpt>
      <trkpt lat="37.7478720" lon="-3.9679150">
        <ele>630.6</ele>
        <time>2021-12-27T16:28:24Z</time>
      </trkpt>
      <trkpt lat="37.7478720" lon="-3.9679150">
        <ele>630.6</ele>
        <time>2021-12-27T16:28:25Z</time>
      </trkpt>
      <trkpt lat="37.7478500" lon="-3.9679070">
        <ele>630.6</ele>
        <time>2021-12-27T16:28:26Z</time>
      </trkpt>
      <trkpt lat="37.7478500" lon="-3.9679070">
        <ele>630.6</ele>
        <time>2021-12-27T16:28:27Z</time>
      </trkpt>
      <trkpt lat="37.7478500" lon="-3.9679070">
        <ele>630.6</ele>
        <time>2021-12-27T16:28:28Z</time>
      </trkpt>
      <trkpt lat="37.7478500" lon="-3.9679070">
        <ele>630.6</ele>
        <time>2021-12-27T16:28:29Z</time>
      </trkpt>
      <trkpt lat="37.7478500" lon="-3.9679070">
        <ele>630.8</ele>
        <time>2021-12-27T16:28:30Z</time>
      </trkpt>
      <trkpt lat="37.7478500" lon="-3.9679070">
        <ele>631.6</ele>
        <time>2021-12-27T16:28:44Z</time>
      </trkpt>
      <trkpt lat="37.7477410" lon="-3.9678520">
        <ele>631.6</ele>
        <time>2021-12-27T16:28:45Z</time>
      </trkpt>
      <trkpt lat="37.7477410" lon="-3.9678520">
        <ele>631.6</ele>
        <time>2021-12-27T16:28:46Z</time>
      </trkpt>
      <trkpt lat="37.7477120" lon="-3.9678400">
        <ele>631.8</ele>
        <time>2021-12-27T16:28:47Z</time>
      </trkpt>
      <trkpt lat="37.7476900" lon="-3.9678300">
        <ele>631.8</ele>
        <time>2021-12-27T16:28:48Z</time>
      </trkpt>
      <trkpt lat="37.7476640" lon="-3.9678180">
        <ele>631.8</ele>
        <time>2021-12-27T16:28:49Z</time>
      </trkpt>
      <trkpt lat="37.7476420" lon="-3.9678040">
        <ele>631.8</ele>
        <time>2021-12-27T16:28:50Z</time>
      </trkpt>
      <trkpt lat="37.7476190" lon="-3.9677940">
        <ele>631.8</ele>
        <time>2021-12-27T16:28:51Z</time>
      </trkpt>
      <trkpt lat="37.7475940" lon="-3.9677820">
        <ele>631.8</ele>
        <time>2021-12-27T16:28:52Z</time>
      </trkpt>
      <trkpt lat="37.7475650" lon="-3.9677700">
        <ele>631.8</ele>
        <time>2021-12-27T16:28:53Z</time>
      </trkpt>
      <trkpt lat="37.7475420" lon="-3.9677550">
        <ele>631.8</ele>
        <time>2021-12-27T16:28:54Z</time>
      </trkpt>
      <trkpt lat="37.7475170" lon="-3.9677420">
        <ele>631.8</ele>
        <time>2021-12-27T16:28:55Z</time>
      </trkpt>
      <trkpt lat="37.7474820" lon="-3.9677250">
        <ele>631.8</ele>
        <time>2021-12-27T16:28:56Z</time>
      </trkpt>
      <trkpt lat="37.7474620" lon="-3.9677130">
        <ele>631.8</ele>
        <time>2021-12-27T16:28:57Z</time>
      </trkpt>
      <trkpt lat="37.7474370" lon="-3.9676980">
        <ele>631.8</ele>
        <time>2021-12-27T16:28:58Z</time>
      </trkpt>
      <trkpt lat="37.7474110" lon="-3.9676830">
        <ele>632.0</ele>
        <time>2021-12-27T16:28:59Z</time>
      </trkpt>
      <trkpt lat="37.7473820" lon="-3.9676680">
        <ele>632.0</ele>
        <time>2021-12-27T16:29:00Z</time>
      </trkpt>
      <trkpt lat="37.7473540" lon="-3.9676520">
        <ele>631.8</ele>
        <time>2021-12-27T16:29:01Z</time>
      </trkpt>
      <trkpt lat="37.7473310" lon="-3.9676360">
        <ele>631.8</ele>
        <time>2021-12-27T16:29:02Z</time>
      </trkpt>
      <trkpt lat="37.7473060" lon="-3.9676200">
        <ele>631.8</ele>
        <time>2021-12-27T16:29:03Z</time>
      </trkpt>
      <trkpt lat="37.7472800" lon="-3.9676030">
        <ele>631.8</ele>
        <time>2021-12-27T16:29:04Z</time>
      </trkpt>
      <trkpt lat="37.7472510" lon="-3.9675850">
        <ele>631.6</ele>
        <time>2021-12-27T16:29:05Z</time>
      </trkpt>
      <trkpt lat="37.7472220" lon="-3.9675680">
        <ele>631.6</ele>
        <time>2021-12-27T16:29:06Z</time>
      </trkpt>
      <trkpt lat="37.7471970" lon="-3.9675500">
        <ele>631.6</ele>
        <time>2021-12-27T16:29:07Z</time>
      </trkpt>
      <trkpt lat="37.7471740" lon="-3.9675350">
        <ele>631.6</ele>
        <time>2021-12-27T16:29:08Z</time>
      </trkpt>
      <trkpt lat="37.7471420" lon="-3.9675150">
        <ele>631.6</ele>
        <time>2021-12-27T16:29:09Z</time>
      </trkpt>
      <trkpt lat="37.7471170" lon="-3.9674980">
        <ele>631.6</ele>
        <time>2021-12-27T16:29:10Z</time>
      </trkpt>
      <trkpt lat="37.7470880" lon="-3.9674800">
        <ele>631.6</ele>
        <time>2021-12-27T16:29:11Z</time>
      </trkpt>
      <trkpt lat="37.7470620" lon="-3.9674600">
        <ele>631.6</ele>
        <time>2021-12-27T16:29:12Z</time>
      </trkpt>
      <trkpt lat="37.7470370" lon="-3.9674400">
        <ele>631.6</ele>
        <time>2021-12-27T16:29:13Z</time>
      </trkpt>
      <trkpt lat="37.7470140" lon="-3.9674200">
        <ele>631.6</ele>
        <time>2021-12-27T16:29:14Z</time>
      </trkpt>
      <trkpt lat="37.7469860" lon="-3.9673980">
        <ele>631.6</ele>
        <time>2021-12-27T16:29:15Z</time>
      </trkpt>
      <trkpt lat="37.7469630" lon="-3.9673770">
        <ele>631.6</ele>
        <time>2021-12-27T16:29:16Z</time>
      </trkpt>
      <trkpt lat="37.7469380" lon="-3.9673550">
        <ele>631.6</ele>
        <time>2021-12-27T16:29:17Z</time>
      </trkpt>
      <trkpt lat="37.7469060" lon="-3.9673320">
        <ele>631.4</ele>
        <time>2021-12-27T16:29:18Z</time>
      </trkpt>
      <trkpt lat="37.7468800" lon="-3.9673080">
        <ele>631.4</ele>
        <time>2021-12-27T16:29:19Z</time>
      </trkpt>
      <trkpt lat="37.7468580" lon="-3.9672860">
        <ele>631.4</ele>
        <time>2021-12-27T16:29:20Z</time>
      </trkpt>
      <trkpt lat="37.7468290" lon="-3.9672650">
        <ele>631.4</ele>
        <time>2021-12-27T16:29:21Z</time>
      </trkpt>
      <trkpt lat="37.7468060" lon="-3.9672420">
        <ele>631.4</ele>
        <time>2021-12-27T16:29:22Z</time>
      </trkpt>
      <trkpt lat="37.7467840" lon="-3.9672180">
        <ele>631.4</ele>
        <time>2021-12-27T16:29:23Z</time>
      </trkpt>
      <trkpt lat="37.7467620" lon="-3.9671920">
        <ele>631.4</ele>
        <time>2021-12-27T16:29:24Z</time>
      </trkpt>
      <trkpt lat="37.7467360" lon="-3.9671670">
        <ele>631.4</ele>
        <time>2021-12-27T16:29:25Z</time>
      </trkpt>
      <trkpt lat="37.7467100" lon="-3.9671430">
        <ele>631.4</ele>
        <time>2021-12-27T16:29:26Z</time>
      </trkpt>
      <trkpt lat="37.7466850" lon="-3.9671200">
        <ele>631.4</ele>
        <time>2021-12-27T16:29:27Z</time>
      </trkpt>
      <trkpt lat="37.7466590" lon="-3.9671000">
        <ele>631.4</ele>
        <time>2021-12-27T16:29:28Z</time>
      </trkpt>
      <trkpt lat="37.7466400" lon="-3.9670780">
        <ele>631.4</ele>
        <time>2021-12-27T16:29:29Z</time>
      </trkpt>
      <trkpt lat="37.7466180" lon="-3.9670540">
        <ele>631.2</ele>
        <time>2021-12-27T16:29:30Z</time>
      </trkpt>
      <trkpt lat="37.7465920" lon="-3.9670300">
        <ele>631.2</ele>
        <time>2021-12-27T16:29:31Z</time>
      </trkpt>
      <trkpt lat="37.7465700" lon="-3.9670070">
        <ele>631.2</ele>
        <time>2021-12-27T16:29:32Z</time>
      </trkpt>
      <trkpt lat="37.7465500" lon="-3.9669830">
        <ele>631.2</ele>
        <time>2021-12-27T16:29:33Z</time>
      </trkpt>
      <trkpt lat="37.7465280" lon="-3.9669580">
        <ele>631.2</ele>
        <time>2021-12-27T16:29:34Z</time>
      </trkpt>
      <trkpt lat="37.7465060" lon="-3.9669330">
        <ele>631.4</ele>
        <time>2021-12-27T16:29:35Z</time>
      </trkpt>
      <trkpt lat="37.7464830" lon="-3.9669080">
        <ele>631.4</ele>
        <time>2021-12-27T16:29:36Z</time>
      </trkpt>
      <trkpt lat="37.7464610" lon="-3.9668800">
        <ele>631.2</ele>
        <time>2021-12-27T16:29:37Z</time>
      </trkpt>
      <trkpt lat="37.7464320" lon="-3.9668500">
        <ele>631.2</ele>
        <time>2021-12-27T16:29:38Z</time>
      </trkpt>
      <trkpt lat="37.7464100" lon="-3.9668200">
        <ele>631.2</ele>
        <time>2021-12-27T16:29:39Z</time>
      </trkpt>
      <trkpt lat="37.7463870" lon="-3.9667900">
        <ele>631.2</ele>
        <time>2021-12-27T16:29:40Z</time>
      </trkpt>
      <trkpt lat="37.7463650" lon="-3.9667600">
        <ele>631.0</ele>
        <time>2021-12-27T16:29:41Z</time>
      </trkpt>
      <trkpt lat="37.7463460" lon="-3.9667300">
        <ele>631.0</ele>
        <time>2021-12-27T16:29:42Z</time>
      </trkpt>
      <trkpt lat="37.7463230" lon="-3.9667040">
        <ele>631.0</ele>
        <time>2021-12-27T16:29:43Z</time>
      </trkpt>
      <trkpt lat="37.7463010" lon="-3.9666730">
        <ele>631.0</ele>
        <time>2021-12-27T16:29:44Z</time>
      </trkpt>
      <trkpt lat="37.7462820" lon="-3.9666430">
        <ele>631.0</ele>
        <time>2021-12-27T16:29:45Z</time>
      </trkpt>
      <trkpt lat="37.7462620" lon="-3.9666170">
        <ele>631.0</ele>
        <time>2021-12-27T16:29:46Z</time>
      </trkpt>
      <trkpt lat="37.7462400" lon="-3.9665850">
        <ele>631.0</ele>
        <time>2021-12-27T16:29:47Z</time>
      </trkpt>
      <trkpt lat="37.7462210" lon="-3.9665580">
        <ele>631.0</ele>
        <time>2021-12-27T16:29:48Z</time>
      </trkpt>
      <trkpt lat="37.7462050" lon="-3.9665300">
        <ele>631.0</ele>
        <time>2021-12-27T16:29:49Z</time>
      </trkpt>
      <trkpt lat="37.7461860" lon="-3.9665020">
        <ele>630.8</ele>
        <time>2021-12-27T16:29:50Z</time>
      </trkpt>
      <trkpt lat="37.7461700" lon="-3.9664750">
        <ele>631.0</ele>
        <time>2021-12-27T16:29:51Z</time>
      </trkpt>
      <trkpt lat="37.7461500" lon="-3.9664530">
        <ele>631.0</ele>
        <time>2021-12-27T16:29:52Z</time>
      </trkpt>
      <trkpt lat="37.7461310" lon="-3.9664330">
        <ele>631.0</ele>
        <time>2021-12-27T16:29:53Z</time>
      </trkpt>
      <trkpt lat="37.7461150" lon="-3.9664100">
        <ele>631.0</ele>
        <time>2021-12-27T16:29:54Z</time>
      </trkpt>
      <trkpt lat="37.7461020" lon="-3.9663840">
        <ele>631.0</ele>
        <time>2021-12-27T16:29:55Z</time>
      </trkpt>
      <trkpt lat="37.7460830" lon="-3.9663550">
        <ele>631.0</ele>
        <time>2021-12-27T16:29:56Z</time>
      </trkpt>
      <trkpt lat="37.7460670" lon="-3.9663250">
        <ele>630.8</ele>
        <time>2021-12-27T16:29:57Z</time>
      </trkpt>
      <trkpt lat="37.7460480" lon="-3.9662920">
        <ele>630.8</ele>
        <time>2021-12-27T16:29:58Z</time>
      </trkpt>
      <trkpt lat="37.7460290" lon="-3.9662600">
        <ele>630.8</ele>
        <time>2021-12-27T16:29:59Z</time>
      </trkpt>
      <trkpt lat="37.7460000" lon="-3.9662130">
        <ele>630.8</ele>
        <time>2021-12-27T16:30:00Z</time>
      </trkpt>
      <trkpt lat="37.7459900" lon="-3.9661980">
        <ele>630.8</ele>
        <time>2021-12-27T16:30:01Z</time>
      </trkpt>
      <trkpt lat="37.7459710" lon="-3.9661680">
        <ele>630.8</ele>
        <time>2021-12-27T16:30:02Z</time>
      </trkpt>
      <trkpt lat="37.7459550" lon="-3.9661380">
        <ele>630.8</ele>
        <time>2021-12-27T16:30:03Z</time>
      </trkpt>
      <trkpt lat="37.7459360" lon="-3.9661080">
        <ele>630.8</ele>
        <time>2021-12-27T16:30:04Z</time>
      </trkpt>
      <trkpt lat="37.7459170" lon="-3.9660850">
        <ele>630.6</ele>
        <time>2021-12-27T16:30:05Z</time>
      </trkpt>
      <trkpt lat="37.7459040" lon="-3.9660630">
        <ele>630.6</ele>
        <time>2021-12-27T16:30:06Z</time>
      </trkpt>
      <trkpt lat="37.7458910" lon="-3.9660420">
        <ele>630.4</ele>
        <time>2021-12-27T16:30:07Z</time>
      </trkpt>
      <trkpt lat="37.7458820" lon="-3.9660220">
        <ele>630.4</ele>
        <time>2021-12-27T16:30:08Z</time>
      </trkpt>
      <trkpt lat="37.7458820" lon="-3.9660220">
        <ele>630.2</ele>
        <time>2021-12-27T16:30:09Z</time>
      </trkpt>
      <trkpt lat="37.7458820" lon="-3.9660220">
        <ele>630.2</ele>
        <time>2021-12-27T16:30:10Z</time>
      </trkpt>
      <trkpt lat="37.7458720" lon="-3.9659970">
        <ele>630.2</ele>
        <time>2021-12-27T16:30:11Z</time>
      </trkpt>
      <trkpt lat="37.7458720" lon="-3.9659970">
        <ele>630.2</ele>
        <time>2021-12-27T16:30:12Z</time>
      </trkpt>
      <trkpt lat="37.7458620" lon="-3.9659720">
        <ele>630.0</ele>
        <time>2021-12-27T16:30:13Z</time>
      </trkpt>
      <trkpt lat="37.7458500" lon="-3.9659550">
        <ele>630.0</ele>
        <time>2021-12-27T16:30:14Z</time>
      </trkpt>
      <trkpt lat="37.7458370" lon="-3.9659330">
        <ele>630.0</ele>
        <time>2021-12-27T16:30:15Z</time>
      </trkpt>
      <trkpt lat="37.7458270" lon="-3.9659100">
        <ele>630.2</ele>
        <time>2021-12-27T16:30:16Z</time>
      </trkpt>
      <trkpt lat="37.7458110" lon="-3.9658800">
        <ele>630.0</ele>
        <time>2021-12-27T16:30:17Z</time>
      </trkpt>
      <trkpt lat="37.7457950" lon="-3.9658520">
        <ele>630.0</ele>
        <time>2021-12-27T16:30:18Z</time>
      </trkpt>
      <trkpt lat="37.7457760" lon="-3.9658200">
        <ele>630.0</ele>
        <time>2021-12-27T16:30:19Z</time>
      </trkpt>
      <trkpt lat="37.7457570" lon="-3.9657880">
        <ele>630.2</ele>
        <time>2021-12-27T16:30:20Z</time>
      </trkpt>
      <trkpt lat="37.7457440" lon="-3.9657580">
        <ele>630.2</ele>
        <time>2021-12-27T16:30:21Z</time>
      </trkpt>
      <trkpt lat="37.7457250" lon="-3.9657250">
        <ele>630.2</ele>
        <time>2021-12-27T16:30:22Z</time>
      </trkpt>
      <trkpt lat="37.7457090" lon="-3.9656920">
        <ele>630.2</ele>
        <time>2021-12-27T16:30:23Z</time>
      </trkpt>
      <trkpt lat="37.7456900" lon="-3.9656580">
        <ele>630.2</ele>
        <time>2021-12-27T16:30:24Z</time>
      </trkpt>
      <trkpt lat="37.7456740" lon="-3.9656250">
        <ele>630.2</ele>
        <time>2021-12-27T16:30:25Z</time>
      </trkpt>
      <trkpt lat="37.7456540" lon="-3.9655950">
        <ele>630.2</ele>
        <time>2021-12-27T16:30:26Z</time>
      </trkpt>
      <trkpt lat="37.7456380" lon="-3.9655670">
        <ele>630.2</ele>
        <time>2021-12-27T16:30:27Z</time>
      </trkpt>
      <trkpt lat="37.7456290" lon="-3.9655430">
        <ele>630.2</ele>
        <time>2021-12-27T16:30:28Z</time>
      </trkpt>
      <trkpt lat="37.7456160" lon="-3.9655220">
        <ele>630.0</ele>
        <time>2021-12-27T16:30:29Z</time>
      </trkpt>
      <trkpt lat="37.7456100" lon="-3.9654980">
        <ele>630.0</ele>
        <time>2021-12-27T16:30:30Z</time>
      </trkpt>
      <trkpt lat="37.7456030" lon="-3.9654740">
        <ele>630.0</ele>
        <time>2021-12-27T16:30:31Z</time>
      </trkpt>
      <trkpt lat="37.7455900" lon="-3.9654470">
        <ele>630.0</ele>
        <time>2021-12-27T16:30:32Z</time>
      </trkpt>
      <trkpt lat="37.7455780" lon="-3.9654170">
        <ele>629.8</ele>
        <time>2021-12-27T16:30:33Z</time>
      </trkpt>
      <trkpt lat="37.7455680" lon="-3.9653850">
        <ele>629.8</ele>
        <time>2021-12-27T16:30:34Z</time>
      </trkpt>
      <trkpt lat="37.7455550" lon="-3.9653560">
        <ele>629.8</ele>
        <time>2021-12-27T16:30:35Z</time>
      </trkpt>
      <trkpt lat="37.7455490" lon="-3.9653280">
        <ele>629.8</ele>
        <time>2021-12-27T16:30:36Z</time>
      </trkpt>
      <trkpt lat="37.7455390" lon="-3.9653000">
        <ele>629.6</ele>
        <time>2021-12-27T16:30:37Z</time>
      </trkpt>
      <trkpt lat="37.7455300" lon="-3.9652750">
        <ele>629.6</ele>
        <time>2021-12-27T16:30:38Z</time>
      </trkpt>
      <trkpt lat="37.7455200" lon="-3.9652500">
        <ele>629.6</ele>
        <time>2021-12-27T16:30:39Z</time>
      </trkpt>
      <trkpt lat="37.7455100" lon="-3.9652220">
        <ele>629.4</ele>
        <time>2021-12-27T16:30:40Z</time>
      </trkpt>
      <trkpt lat="37.7454940" lon="-3.9651930">
        <ele>629.4</ele>
        <time>2021-12-27T16:30:41Z</time>
      </trkpt>
      <trkpt lat="37.7454850" lon="-3.9651620">
        <ele>629.4</ele>
        <time>2021-12-27T16:30:42Z</time>
      </trkpt>
      <trkpt lat="37.7454690" lon="-3.9651320">
        <ele>629.4</ele>
        <time>2021-12-27T16:30:43Z</time>
      </trkpt>
      <trkpt lat="37.7454560" lon="-3.9651000">
        <ele>629.2</ele>
        <time>2021-12-27T16:30:44Z</time>
      </trkpt>
      <trkpt lat="37.7454400" lon="-3.9650670">
        <ele>629.2</ele>
        <time>2021-12-27T16:30:45Z</time>
      </trkpt>
      <trkpt lat="37.7454270" lon="-3.9650350">
        <ele>629.2</ele>
        <time>2021-12-27T16:30:46Z</time>
      </trkpt>
      <trkpt lat="37.7454110" lon="-3.9650020">
        <ele>629.4</ele>
        <time>2021-12-27T16:30:47Z</time>
      </trkpt>
      <trkpt lat="37.7453950" lon="-3.9649680">
        <ele>629.4</ele>
        <time>2021-12-27T16:30:48Z</time>
      </trkpt>
      <trkpt lat="37.7453860" lon="-3.9649350">
        <ele>629.4</ele>
        <time>2021-12-27T16:30:49Z</time>
      </trkpt>
      <trkpt lat="37.7453700" lon="-3.9649020">
        <ele>629.4</ele>
        <time>2021-12-27T16:30:50Z</time>
      </trkpt>
      <trkpt lat="37.7453540" lon="-3.9648700">
        <ele>629.4</ele>
        <time>2021-12-27T16:30:51Z</time>
      </trkpt>
      <trkpt lat="37.7453380" lon="-3.9648400">
        <ele>629.4</ele>
        <time>2021-12-27T16:30:52Z</time>
      </trkpt>
      <trkpt lat="37.7453220" lon="-3.9648080">
        <ele>629.4</ele>
        <time>2021-12-27T16:30:53Z</time>
      </trkpt>
      <trkpt lat="37.7453120" lon="-3.9647770">
        <ele>629.4</ele>
        <time>2021-12-27T16:30:54Z</time>
      </trkpt>
      <trkpt lat="37.7452930" lon="-3.9647430">
        <ele>629.4</ele>
        <time>2021-12-27T16:30:55Z</time>
      </trkpt>
      <trkpt lat="37.7452770" lon="-3.9647080">
        <ele>629.4</ele>
        <time>2021-12-27T16:30:56Z</time>
      </trkpt>
      <trkpt lat="37.7452580" lon="-3.9646730">
        <ele>629.6</ele>
        <time>2021-12-27T16:30:57Z</time>
      </trkpt>
      <trkpt lat="37.7452380" lon="-3.9646380">
        <ele>629.6</ele>
        <time>2021-12-27T16:30:58Z</time>
      </trkpt>
      <trkpt lat="37.7452190" lon="-3.9646050">
        <ele>629.6</ele>
        <time>2021-12-27T16:30:59Z</time>
      </trkpt>
      <trkpt lat="37.7452060" lon="-3.9645700">
        <ele>629.6</ele>
        <time>2021-12-27T16:31:00Z</time>
      </trkpt>
      <trkpt lat="37.7451940" lon="-3.9645370">
        <ele>629.6</ele>
        <time>2021-12-27T16:31:01Z</time>
      </trkpt>
      <trkpt lat="37.7451740" lon="-3.9645020">
        <ele>629.6</ele>
        <time>2021-12-27T16:31:02Z</time>
      </trkpt>
      <trkpt lat="37.7451550" lon="-3.9644650">
        <ele>629.4</ele>
        <time>2021-12-27T16:31:03Z</time>
      </trkpt>
      <trkpt lat="37.7451390" lon="-3.9644280">
        <ele>629.6</ele>
        <time>2021-12-27T16:31:04Z</time>
      </trkpt>
      <trkpt lat="37.7451260" lon="-3.9643920">
        <ele>629.6</ele>
        <time>2021-12-27T16:31:05Z</time>
      </trkpt>
      <trkpt lat="37.7451070" lon="-3.9643570">
        <ele>629.6</ele>
        <time>2021-12-27T16:31:06Z</time>
      </trkpt>
      <trkpt lat="37.7450820" lon="-3.9643150">
        <ele>629.6</ele>
        <time>2021-12-27T16:31:07Z</time>
      </trkpt>
      <trkpt lat="37.7450690" lon="-3.9642850">
        <ele>629.6</ele>
        <time>2021-12-27T16:31:08Z</time>
      </trkpt>
      <trkpt lat="37.7450500" lon="-3.9642470">
        <ele>629.8</ele>
        <time>2021-12-27T16:31:09Z</time>
      </trkpt>
      <trkpt lat="37.7450340" lon="-3.9642120">
        <ele>629.8</ele>
        <time>2021-12-27T16:31:10Z</time>
      </trkpt>
      <trkpt lat="37.7450140" lon="-3.9641700">
        <ele>629.8</ele>
        <time>2021-12-27T16:31:11Z</time>
      </trkpt>
      <trkpt lat="37.7449950" lon="-3.9641380">
        <ele>629.8</ele>
        <time>2021-12-27T16:31:12Z</time>
      </trkpt>
      <trkpt lat="37.7449790" lon="-3.9641130">
        <ele>630.0</ele>
        <time>2021-12-27T16:31:13Z</time>
      </trkpt>
      <trkpt lat="37.7449730" lon="-3.9640780">
        <ele>630.0</ele>
        <time>2021-12-27T16:31:14Z</time>
      </trkpt>
      <trkpt lat="37.7449600" lon="-3.9640430">
        <ele>630.0</ele>
        <time>2021-12-27T16:31:15Z</time>
      </trkpt>
      <trkpt lat="37.7449410" lon="-3.9640120">
        <ele>630.2</ele>
        <time>2021-12-27T16:31:16Z</time>
      </trkpt>
      <trkpt lat="37.7449220" lon="-3.9639730">
        <ele>630.2</ele>
        <time>2021-12-27T16:31:17Z</time>
      </trkpt>
      <trkpt lat="37.7449020" lon="-3.9639480">
        <ele>630.2</ele>
        <time>2021-12-27T16:31:18Z</time>
      </trkpt>
      <trkpt lat="37.7448900" lon="-3.9639180">
        <ele>630.4</ele>
        <time>2021-12-27T16:31:19Z</time>
      </trkpt>
      <trkpt lat="37.7448640" lon="-3.9638880">
        <ele>630.4</ele>
        <time>2021-12-27T16:31:20Z</time>
      </trkpt>
      <trkpt lat="37.7448420" lon="-3.9638520">
        <ele>630.4</ele>
        <time>2021-12-27T16:31:21Z</time>
      </trkpt>
      <trkpt lat="37.7448290" lon="-3.9638270">
        <ele>630.4</ele>
        <time>2021-12-27T16:31:22Z</time>
      </trkpt>
      <trkpt lat="37.7448000" lon="-3.9637920">
        <ele>630.4</ele>
        <time>2021-12-27T16:31:23Z</time>
      </trkpt>
      <trkpt lat="37.7447900" lon="-3.9637680">
        <ele>630.6</ele>
        <time>2021-12-27T16:31:24Z</time>
      </trkpt>
      <trkpt lat="37.7447710" lon="-3.9637420">
        <ele>630.6</ele>
        <time>2021-12-27T16:31:25Z</time>
      </trkpt>
      <trkpt lat="37.7447520" lon="-3.9637140">
        <ele>630.6</ele>
        <time>2021-12-27T16:31:26Z</time>
      </trkpt>
      <trkpt lat="37.7447390" lon="-3.9636970">
        <ele>630.4</ele>
        <time>2021-12-27T16:31:27Z</time>
      </trkpt>
      <trkpt lat="37.7447230" lon="-3.9636750">
        <ele>630.4</ele>
        <time>2021-12-27T16:31:28Z</time>
      </trkpt>
      <trkpt lat="37.7447040" lon="-3.9636500">
        <ele>630.4</ele>
        <time>2021-12-27T16:31:29Z</time>
      </trkpt>
      <trkpt lat="37.7446910" lon="-3.9636270">
        <ele>630.4</ele>
        <time>2021-12-27T16:31:30Z</time>
      </trkpt>
      <trkpt lat="37.7446780" lon="-3.9636100">
        <ele>630.4</ele>
        <time>2021-12-27T16:31:31Z</time>
      </trkpt>
      <trkpt lat="37.7446620" lon="-3.9635870">
        <ele>630.2</ele>
        <time>2021-12-27T16:31:32Z</time>
      </trkpt>
      <trkpt lat="37.7446430" lon="-3.9635640">
        <ele>630.2</ele>
        <time>2021-12-27T16:31:33Z</time>
      </trkpt>
      <trkpt lat="37.7446240" lon="-3.9635340">
        <ele>630.2</ele>
        <time>2021-12-27T16:31:34Z</time>
      </trkpt>
      <trkpt lat="37.7446050" lon="-3.9635080">
        <ele>630.2</ele>
        <time>2021-12-27T16:31:35Z</time>
      </trkpt>
      <trkpt lat="37.7445860" lon="-3.9634870">
        <ele>630.2</ele>
        <time>2021-12-27T16:31:36Z</time>
      </trkpt>
      <trkpt lat="37.7445660" lon="-3.9634650">
        <ele>630.4</ele>
        <time>2021-12-27T16:31:37Z</time>
      </trkpt>
      <trkpt lat="37.7445540" lon="-3.9634480">
        <ele>630.4</ele>
        <time>2021-12-27T16:31:38Z</time>
      </trkpt>
      <trkpt lat="37.7445310" lon="-3.9634160">
        <ele>630.6</ele>
        <time>2021-12-27T16:31:39Z</time>
      </trkpt>
      <trkpt lat="37.7445150" lon="-3.9633980">
        <ele>630.6</ele>
        <time>2021-12-27T16:31:40Z</time>
      </trkpt>
      <trkpt lat="37.7444860" lon="-3.9633670">
        <ele>630.6</ele>
        <time>2021-12-27T16:31:41Z</time>
      </trkpt>
      <trkpt lat="37.7444740" lon="-3.9633470">
        <ele>630.6</ele>
        <time>2021-12-27T16:31:42Z</time>
      </trkpt>
      <trkpt lat="37.7444510" lon="-3.9633180">
        <ele>630.6</ele>
        <time>2021-12-27T16:31:43Z</time>
      </trkpt>
      <trkpt lat="37.7444320" lon="-3.9632930">
        <ele>630.6</ele>
        <time>2021-12-27T16:31:44Z</time>
      </trkpt>
      <trkpt lat="37.7444160" lon="-3.9632770">
        <ele>630.4</ele>
        <time>2021-12-27T16:31:45Z</time>
      </trkpt>
      <trkpt lat="37.7443870" lon="-3.9632480">
        <ele>630.4</ele>
        <time>2021-12-27T16:31:46Z</time>
      </trkpt>
      <trkpt lat="37.7443870" lon="-3.9632480">
        <ele>630.2</ele>
        <time>2021-12-27T16:31:47Z</time>
      </trkpt>
      <trkpt lat="37.7443360" lon="-3.9631960">
        <ele>630.2</ele>
        <time>2021-12-27T16:31:48Z</time>
      </trkpt>
      <trkpt lat="37.7443260" lon="-3.9631850">
        <ele>630.0</ele>
        <time>2021-12-27T16:31:49Z</time>
      </trkpt>
      <trkpt lat="37.7443140" lon="-3.9631650">
        <ele>630.0</ele>
        <time>2021-12-27T16:31:50Z</time>
      </trkpt>
      <trkpt lat="37.7442850" lon="-3.9631380">
        <ele>630.0</ele>
        <time>2021-12-27T16:31:51Z</time>
      </trkpt>
      <trkpt lat="37.7442660" lon="-3.9631130">
        <ele>630.0</ele>
        <time>2021-12-27T16:31:52Z</time>
      </trkpt>
      <trkpt lat="37.7442430" lon="-3.9630900">
        <ele>630.0</ele>
        <time>2021-12-27T16:31:53Z</time>
      </trkpt>
      <trkpt lat="37.7442210" lon="-3.9630660">
        <ele>630.0</ele>
        <time>2021-12-27T16:31:54Z</time>
      </trkpt>
      <trkpt lat="37.7442020" lon="-3.9630450">
        <ele>630.2</ele>
        <time>2021-12-27T16:31:55Z</time>
      </trkpt>
      <trkpt lat="37.7441820" lon="-3.9630260">
        <ele>630.2</ele>
        <time>2021-12-27T16:31:56Z</time>
      </trkpt>
      <trkpt lat="37.7441540" lon="-3.9630020">
        <ele>630.4</ele>
        <time>2021-12-27T16:31:57Z</time>
      </trkpt>
      <trkpt lat="37.7441340" lon="-3.9629850">
        <ele>630.4</ele>
        <time>2021-12-27T16:31:58Z</time>
      </trkpt>
      <trkpt lat="37.7441090" lon="-3.9629630">
        <ele>630.4</ele>
        <time>2021-12-27T16:31:59Z</time>
      </trkpt>
      <trkpt lat="37.7440860" lon="-3.9629380">
        <ele>630.4</ele>
        <time>2021-12-27T16:32:00Z</time>
      </trkpt>
      <trkpt lat="37.7440670" lon="-3.9629220">
        <ele>630.4</ele>
        <time>2021-12-27T16:32:01Z</time>
      </trkpt>
      <trkpt lat="37.7440450" lon="-3.9628980">
        <ele>630.4</ele>
        <time>2021-12-27T16:32:02Z</time>
      </trkpt>
      <trkpt lat="37.7440260" lon="-3.9628820">
        <ele>630.4</ele>
        <time>2021-12-27T16:32:03Z</time>
      </trkpt>
      <trkpt lat="37.7440030" lon="-3.9628600">
        <ele>630.4</ele>
        <time>2021-12-27T16:32:04Z</time>
      </trkpt>
      <trkpt lat="37.7439780" lon="-3.9628420">
        <ele>630.4</ele>
        <time>2021-12-27T16:32:05Z</time>
      </trkpt>
      <trkpt lat="37.7439550" lon="-3.9628230">
        <ele>630.4</ele>
        <time>2021-12-27T16:32:06Z</time>
      </trkpt>
      <trkpt lat="37.7439300" lon="-3.9628030">
        <ele>630.4</ele>
        <time>2021-12-27T16:32:07Z</time>
      </trkpt>
      <trkpt lat="37.7439100" lon="-3.9627900">
        <ele>630.4</ele>
        <time>2021-12-27T16:32:08Z</time>
      </trkpt>
      <trkpt lat="37.7438910" lon="-3.9627730">
        <ele>630.4</ele>
        <time>2021-12-27T16:32:09Z</time>
      </trkpt>
      <trkpt lat="37.7438720" lon="-3.9627550">
        <ele>630.4</ele>
        <time>2021-12-27T16:32:10Z</time>
      </trkpt>
      <trkpt lat="37.7438460" lon="-3.9627330">
        <ele>630.4</ele>
        <time>2021-12-27T16:32:11Z</time>
      </trkpt>
      <trkpt lat="37.7438270" lon="-3.9627150">
        <ele>630.4</ele>
        <time>2021-12-27T16:32:12Z</time>
      </trkpt>
      <trkpt lat="37.7438080" lon="-3.9627000">
        <ele>630.4</ele>
        <time>2021-12-27T16:32:13Z</time>
      </trkpt>
      <trkpt lat="37.7437920" lon="-3.9626880">
        <ele>630.4</ele>
        <time>2021-12-27T16:32:14Z</time>
      </trkpt>
      <trkpt lat="37.7437660" lon="-3.9626680">
        <ele>630.4</ele>
        <time>2021-12-27T16:32:15Z</time>
      </trkpt>
      <trkpt lat="37.7437500" lon="-3.9626530">
        <ele>630.4</ele>
        <time>2021-12-27T16:32:16Z</time>
      </trkpt>
      <trkpt lat="37.7437380" lon="-3.9626350">
        <ele>630.4</ele>
        <time>2021-12-27T16:32:17Z</time>
      </trkpt>
      <trkpt lat="37.7437120" lon="-3.9626180">
        <ele>630.4</ele>
        <time>2021-12-27T16:32:18Z</time>
      </trkpt>
      <trkpt lat="37.7436900" lon="-3.9626020">
        <ele>630.4</ele>
        <time>2021-12-27T16:32:19Z</time>
      </trkpt>
      <trkpt lat="37.7436670" lon="-3.9625850">
        <ele>630.4</ele>
        <time>2021-12-27T16:32:20Z</time>
      </trkpt>
      <trkpt lat="37.7436420" lon="-3.9625650">
        <ele>630.4</ele>
        <time>2021-12-27T16:32:21Z</time>
      </trkpt>
      <trkpt lat="37.7436260" lon="-3.9625530">
        <ele>630.4</ele>
        <time>2021-12-27T16:32:22Z</time>
      </trkpt>
      <trkpt lat="37.7436100" lon="-3.9625370">
        <ele>630.4</ele>
        <time>2021-12-27T16:32:23Z</time>
      </trkpt>
      <trkpt lat="37.7436100" lon="-3.9625370">
        <ele>630.4</ele>
        <time>2021-12-27T16:32:24Z</time>
      </trkpt>
      <trkpt lat="37.7435780" lon="-3.9625150">
        <ele>630.6</ele>
        <time>2021-12-27T16:32:25Z</time>
      </trkpt>
      <trkpt lat="37.7435780" lon="-3.9625150">
        <ele>630.6</ele>
        <time>2021-12-27T16:32:26Z</time>
      </trkpt>
      <trkpt lat="37.7435460" lon="-3.9624970">
        <ele>630.6</ele>
        <time>2021-12-27T16:32:27Z</time>
      </trkpt>
      <trkpt lat="37.7435260" lon="-3.9624870">
        <ele>630.6</ele>
        <time>2021-12-27T16:32:28Z</time>
      </trkpt>
      <trkpt lat="37.7435260" lon="-3.9624870">
        <ele>630.6</ele>
        <time>2021-12-27T16:32:29Z</time>
      </trkpt>
      <trkpt lat="37.7434940" lon="-3.9624680">
        <ele>630.6</ele>
        <time>2021-12-27T16:32:30Z</time>
      </trkpt>
      <trkpt lat="37.7434940" lon="-3.9624680">
        <ele>630.6</ele>
        <time>2021-12-27T16:32:31Z</time>
      </trkpt>
      <trkpt lat="37.7434660" lon="-3.9624520">
        <ele>630.6</ele>
        <time>2021-12-27T16:32:32Z</time>
      </trkpt>
      <trkpt lat="37.7434460" lon="-3.9624430">
        <ele>630.6</ele>
        <time>2021-12-27T16:32:33Z</time>
      </trkpt>
      <trkpt lat="37.7434240" lon="-3.9624320">
        <ele>630.8</ele>
        <time>2021-12-27T16:32:34Z</time>
      </trkpt>
      <trkpt lat="37.7434050" lon="-3.9624220">
        <ele>630.8</ele>
        <time>2021-12-27T16:32:35Z</time>
      </trkpt>
      <trkpt lat="37.7433820" lon="-3.9624120">
        <ele>630.6</ele>
        <time>2021-12-27T16:32:36Z</time>
      </trkpt>
      <trkpt lat="37.7433660" lon="-3.9623980">
        <ele>630.6</ele>
        <time>2021-12-27T16:32:37Z</time>
      </trkpt>
      <trkpt lat="37.7433440" lon="-3.9623880">
        <ele>630.6</ele>
        <time>2021-12-27T16:32:38Z</time>
      </trkpt>
      <trkpt lat="37.7433220" lon="-3.9623800">
        <ele>630.6</ele>
        <time>2021-12-27T16:32:39Z</time>
      </trkpt>
      <trkpt lat="37.7432960" lon="-3.9623680">
        <ele>630.6</ele>
        <time>2021-12-27T16:32:40Z</time>
      </trkpt>
      <trkpt lat="37.7432740" lon="-3.9623550">
        <ele>630.8</ele>
        <time>2021-12-27T16:32:41Z</time>
      </trkpt>
      <trkpt lat="37.7432510" lon="-3.9623450">
        <ele>630.8</ele>
        <time>2021-12-27T16:32:42Z</time>
      </trkpt>
      <trkpt lat="37.7432260" lon="-3.9623350">
        <ele>630.8</ele>
        <time>2021-12-27T16:32:43Z</time>
      </trkpt>
      <trkpt lat="37.7432030" lon="-3.9623230">
        <ele>631.0</ele>
        <time>2021-12-27T16:32:44Z</time>
      </trkpt>
      <trkpt lat="37.7431740" lon="-3.9623150">
        <ele>631.0</ele>
        <time>2021-12-27T16:32:45Z</time>
      </trkpt>
      <trkpt lat="37.7431490" lon="-3.9623040">
        <ele>631.0</ele>
        <time>2021-12-27T16:32:46Z</time>
      </trkpt>
      <trkpt lat="37.7431230" lon="-3.9622880">
        <ele>631.2</ele>
        <time>2021-12-27T16:32:47Z</time>
      </trkpt>
      <trkpt lat="37.7431040" lon="-3.9622770">
        <ele>631.2</ele>
        <time>2021-12-27T16:32:48Z</time>
      </trkpt>
      <trkpt lat="37.7430820" lon="-3.9622650">
        <ele>631.2</ele>
        <time>2021-12-27T16:32:49Z</time>
      </trkpt>
      <trkpt lat="37.7430530" lon="-3.9622550">
        <ele>631.4</ele>
        <time>2021-12-27T16:32:50Z</time>
      </trkpt>
      <trkpt lat="37.7430270" lon="-3.9622470">
        <ele>631.4</ele>
        <time>2021-12-27T16:32:51Z</time>
      </trkpt>
      <trkpt lat="37.7430020" lon="-3.9622380">
        <ele>631.4</ele>
        <time>2021-12-27T16:32:52Z</time>
      </trkpt>
      <trkpt lat="37.7429760" lon="-3.9622320">
        <ele>631.4</ele>
        <time>2021-12-27T16:32:53Z</time>
      </trkpt>
      <trkpt lat="37.7429500" lon="-3.9622250">
        <ele>631.4</ele>
        <time>2021-12-27T16:32:54Z</time>
      </trkpt>
      <trkpt lat="37.7429280" lon="-3.9622200">
        <ele>631.4</ele>
        <time>2021-12-27T16:32:55Z</time>
      </trkpt>
      <trkpt lat="37.7429020" lon="-3.9622130">
        <ele>631.4</ele>
        <time>2021-12-27T16:32:56Z</time>
      </trkpt>
      <trkpt lat="37.7428740" lon="-3.9622070">
        <ele>631.4</ele>
        <time>2021-12-27T16:32:57Z</time>
      </trkpt>
      <trkpt lat="37.7428510" lon="-3.9622000">
        <ele>631.4</ele>
        <time>2021-12-27T16:32:58Z</time>
      </trkpt>
      <trkpt lat="37.7428290" lon="-3.9621950">
        <ele>631.4</ele>
        <time>2021-12-27T16:32:59Z</time>
      </trkpt>
      <trkpt lat="37.7428060" lon="-3.9621880">
        <ele>631.4</ele>
        <time>2021-12-27T16:33:00Z</time>
      </trkpt>
      <trkpt lat="37.7427870" lon="-3.9621820">
        <ele>631.4</ele>
        <time>2021-12-27T16:33:01Z</time>
      </trkpt>
      <trkpt lat="37.7427650" lon="-3.9621770">
        <ele>631.4</ele>
        <time>2021-12-27T16:33:02Z</time>
      </trkpt>
      <trkpt lat="37.7427360" lon="-3.9621700">
        <ele>631.6</ele>
        <time>2021-12-27T16:33:03Z</time>
      </trkpt>
      <trkpt lat="37.7427170" lon="-3.9621620">
        <ele>631.6</ele>
        <time>2021-12-27T16:33:04Z</time>
      </trkpt>
      <trkpt lat="37.7426940" lon="-3.9621550">
        <ele>631.6</ele>
        <time>2021-12-27T16:33:05Z</time>
      </trkpt>
      <trkpt lat="37.7426690" lon="-3.9621470">
        <ele>631.8</ele>
        <time>2021-12-27T16:33:06Z</time>
      </trkpt>
      <trkpt lat="37.7426460" lon="-3.9621420">
        <ele>631.8</ele>
        <time>2021-12-27T16:33:07Z</time>
      </trkpt>
      <trkpt lat="37.7426180" lon="-3.9621370">
        <ele>632.0</ele>
        <time>2021-12-27T16:33:08Z</time>
      </trkpt>
      <trkpt lat="37.7425920" lon="-3.9621340">
        <ele>632.2</ele>
        <time>2021-12-27T16:33:09Z</time>
      </trkpt>
      <trkpt lat="37.7425700" lon="-3.9621300">
        <ele>632.2</ele>
        <time>2021-12-27T16:33:10Z</time>
      </trkpt>
      <trkpt lat="37.7425410" lon="-3.9621220">
        <ele>632.4</ele>
        <time>2021-12-27T16:33:11Z</time>
      </trkpt>
      <trkpt lat="37.7425150" lon="-3.9621170">
        <ele>632.4</ele>
        <time>2021-12-27T16:33:12Z</time>
      </trkpt>
      <trkpt lat="37.7424900" lon="-3.9621120">
        <ele>632.4</ele>
        <time>2021-12-27T16:33:13Z</time>
      </trkpt>
      <trkpt lat="37.7424670" lon="-3.9621080">
        <ele>632.4</ele>
        <time>2021-12-27T16:33:14Z</time>
      </trkpt>
      <trkpt lat="37.7424380" lon="-3.9621050">
        <ele>632.4</ele>
        <time>2021-12-27T16:33:15Z</time>
      </trkpt>
      <trkpt lat="37.7424100" lon="-3.9620980">
        <ele>632.4</ele>
        <time>2021-12-27T16:33:16Z</time>
      </trkpt>
      <trkpt lat="37.7423810" lon="-3.9620930">
        <ele>632.4</ele>
        <time>2021-12-27T16:33:17Z</time>
      </trkpt>
      <trkpt lat="37.7423550" lon="-3.9620880">
        <ele>632.4</ele>
        <time>2021-12-27T16:33:18Z</time>
      </trkpt>
      <trkpt lat="37.7423300" lon="-3.9620850">
        <ele>632.4</ele>
        <time>2021-12-27T16:33:19Z</time>
      </trkpt>
      <trkpt lat="37.7423100" lon="-3.9620830">
        <ele>632.4</ele>
        <time>2021-12-27T16:33:20Z</time>
      </trkpt>
      <trkpt lat="37.7422820" lon="-3.9620800">
        <ele>632.6</ele>
        <time>2021-12-27T16:33:21Z</time>
      </trkpt>
      <trkpt lat="37.7422590" lon="-3.9620750">
        <ele>632.6</ele>
        <time>2021-12-27T16:33:22Z</time>
      </trkpt>
      <trkpt lat="37.7422340" lon="-3.9620750">
        <ele>632.8</ele>
        <time>2021-12-27T16:33:23Z</time>
      </trkpt>
      <trkpt lat="37.7422110" lon="-3.9620730">
        <ele>632.8</ele>
        <time>2021-12-27T16:33:24Z</time>
      </trkpt>
      <trkpt lat="37.7421820" lon="-3.9620750">
        <ele>632.8</ele>
        <time>2021-12-27T16:33:25Z</time>
      </trkpt>
      <trkpt lat="37.7421600" lon="-3.9620730">
        <ele>632.8</ele>
        <time>2021-12-27T16:33:26Z</time>
      </trkpt>
      <trkpt lat="37.7421340" lon="-3.9620720">
        <ele>633.0</ele>
        <time>2021-12-27T16:33:27Z</time>
      </trkpt>
      <trkpt lat="37.7421090" lon="-3.9620700">
        <ele>633.0</ele>
        <time>2021-12-27T16:33:28Z</time>
      </trkpt>
      <trkpt lat="37.7420800" lon="-3.9620720">
        <ele>633.0</ele>
        <time>2021-12-27T16:33:29Z</time>
      </trkpt>
      <trkpt lat="37.7420580" lon="-3.9620730">
        <ele>633.0</ele>
        <time>2021-12-27T16:33:30Z</time>
      </trkpt>
      <trkpt lat="37.7420350" lon="-3.9620730">
        <ele>633.0</ele>
        <time>2021-12-27T16:33:31Z</time>
      </trkpt>
      <trkpt lat="37.7420100" lon="-3.9620750">
        <ele>633.0</ele>
        <time>2021-12-27T16:33:32Z</time>
      </trkpt>
      <trkpt lat="37.7419840" lon="-3.9620750">
        <ele>633.0</ele>
        <time>2021-12-27T16:33:33Z</time>
      </trkpt>
      <trkpt lat="37.7419620" lon="-3.9620750">
        <ele>633.0</ele>
        <time>2021-12-27T16:33:34Z</time>
      </trkpt>
      <trkpt lat="37.7419390" lon="-3.9620750">
        <ele>633.0</ele>
        <time>2021-12-27T16:33:35Z</time>
      </trkpt>
      <trkpt lat="37.7419140" lon="-3.9620770">
        <ele>633.2</ele>
        <time>2021-12-27T16:33:36Z</time>
      </trkpt>
      <trkpt lat="37.7418820" lon="-3.9620820">
        <ele>633.0</ele>
        <time>2021-12-27T16:33:37Z</time>
      </trkpt>
      <trkpt lat="37.7418620" lon="-3.9620830">
        <ele>633.0</ele>
        <time>2021-12-27T16:33:38Z</time>
      </trkpt>
      <trkpt lat="37.7418370" lon="-3.9620830">
        <ele>633.0</ele>
        <time>2021-12-27T16:33:39Z</time>
      </trkpt>
      <trkpt lat="37.7418140" lon="-3.9620850">
        <ele>633.0</ele>
        <time>2021-12-27T16:33:40Z</time>
      </trkpt>
      <trkpt lat="37.7417920" lon="-3.9620850">
        <ele>632.8</ele>
        <time>2021-12-27T16:33:41Z</time>
      </trkpt>
      <trkpt lat="37.7417730" lon="-3.9620850">
        <ele>633.0</ele>
        <time>2021-12-27T16:33:42Z</time>
      </trkpt>
      <trkpt lat="37.7417410" lon="-3.9620870">
        <ele>633.0</ele>
        <time>2021-12-27T16:33:43Z</time>
      </trkpt>
      <trkpt lat="37.7417220" lon="-3.9620880">
        <ele>633.0</ele>
        <time>2021-12-27T16:33:44Z</time>
      </trkpt>
      <trkpt lat="37.7416990" lon="-3.9620920">
        <ele>633.2</ele>
        <time>2021-12-27T16:33:45Z</time>
      </trkpt>
      <trkpt lat="37.7416740" lon="-3.9620950">
        <ele>633.2</ele>
        <time>2021-12-27T16:33:46Z</time>
      </trkpt>
      <trkpt lat="37.7416450" lon="-3.9620980">
        <ele>633.2</ele>
        <time>2021-12-27T16:33:47Z</time>
      </trkpt>
      <trkpt lat="37.7416190" lon="-3.9621050">
        <ele>633.2</ele>
        <time>2021-12-27T16:33:48Z</time>
      </trkpt>
      <trkpt lat="37.7415970" lon="-3.9621070">
        <ele>633.2</ele>
        <time>2021-12-27T16:33:49Z</time>
      </trkpt>
      <trkpt lat="37.7415680" lon="-3.9621100">
        <ele>633.4</ele>
        <time>2021-12-27T16:33:50Z</time>
      </trkpt>
      <trkpt lat="37.7415460" lon="-3.9621130">
        <ele>633.4</ele>
        <time>2021-12-27T16:33:51Z</time>
      </trkpt>
      <trkpt lat="37.7415200" lon="-3.9621130">
        <ele>633.4</ele>
        <time>2021-12-27T16:33:52Z</time>
      </trkpt>
      <trkpt lat="37.7414980" lon="-3.9621170">
        <ele>633.4</ele>
        <time>2021-12-27T16:33:53Z</time>
      </trkpt>
      <trkpt lat="37.7414750" lon="-3.9621180">
        <ele>633.6</ele>
        <time>2021-12-27T16:33:54Z</time>
      </trkpt>
      <trkpt lat="37.7414560" lon="-3.9621200">
        <ele>633.6</ele>
        <time>2021-12-27T16:33:55Z</time>
      </trkpt>
      <trkpt lat="37.7414270" lon="-3.9621200">
        <ele>633.6</ele>
        <time>2021-12-27T16:33:56Z</time>
      </trkpt>
      <trkpt lat="37.7414020" lon="-3.9621180">
        <ele>633.6</ele>
        <time>2021-12-27T16:33:57Z</time>
      </trkpt>
      <trkpt lat="37.7413760" lon="-3.9621230">
        <ele>633.6</ele>
        <time>2021-12-27T16:33:58Z</time>
      </trkpt>
      <trkpt lat="37.7413470" lon="-3.9621280">
        <ele>633.8</ele>
        <time>2021-12-27T16:33:59Z</time>
      </trkpt>
      <trkpt lat="37.7413220" lon="-3.9621350">
        <ele>633.8</ele>
        <time>2021-12-27T16:34:00Z</time>
      </trkpt>
      <trkpt lat="37.7412960" lon="-3.9621370">
        <ele>634.0</ele>
        <time>2021-12-27T16:34:01Z</time>
      </trkpt>
      <trkpt lat="37.7412700" lon="-3.9621420">
        <ele>634.0</ele>
        <time>2021-12-27T16:34:02Z</time>
      </trkpt>
      <trkpt lat="37.7412480" lon="-3.9621450">
        <ele>634.0</ele>
        <time>2021-12-27T16:34:03Z</time>
      </trkpt>
      <trkpt lat="37.7412220" lon="-3.9621500">
        <ele>634.2</ele>
        <time>2021-12-27T16:34:04Z</time>
      </trkpt>
      <trkpt lat="37.7411970" lon="-3.9621550">
        <ele>634.2</ele>
        <time>2021-12-27T16:34:05Z</time>
      </trkpt>
      <trkpt lat="37.7411780" lon="-3.9621620">
        <ele>634.4</ele>
        <time>2021-12-27T16:34:06Z</time>
      </trkpt>
      <trkpt lat="37.7411460" lon="-3.9621700">
        <ele>634.4</ele>
        <time>2021-12-27T16:34:07Z</time>
      </trkpt>
      <trkpt lat="37.7411460" lon="-3.9621700">
        <ele>634.6</ele>
        <time>2021-12-27T16:34:08Z</time>
      </trkpt>
      <trkpt lat="37.7410960" lon="-3.9621850">
        <ele>634.8</ele>
        <time>2021-12-27T16:34:09Z</time>
      </trkpt>
      <trkpt lat="37.7410850" lon="-3.9621880">
        <ele>634.8</ele>
        <time>2021-12-27T16:34:10Z</time>
      </trkpt>
      <trkpt lat="37.7410590" lon="-3.9621950">
        <ele>634.8</ele>
        <time>2021-12-27T16:34:11Z</time>
      </trkpt>
      <trkpt lat="37.7410300" lon="-3.9622020">
        <ele>635.0</ele>
        <time>2021-12-27T16:34:12Z</time>
      </trkpt>
      <trkpt lat="37.7410080" lon="-3.9622120">
        <ele>635.0</ele>
        <time>2021-12-27T16:34:13Z</time>
      </trkpt>
      <trkpt lat="37.7409820" lon="-3.9622180">
        <ele>635.0</ele>
        <time>2021-12-27T16:34:14Z</time>
      </trkpt>
      <trkpt lat="37.7409600" lon="-3.9622270">
        <ele>635.0</ele>
        <time>2021-12-27T16:34:15Z</time>
      </trkpt>
      <trkpt lat="37.7409380" lon="-3.9622330">
        <ele>635.0</ele>
        <time>2021-12-27T16:34:16Z</time>
      </trkpt>
      <trkpt lat="37.7409090" lon="-3.9622420">
        <ele>635.0</ele>
        <time>2021-12-27T16:34:17Z</time>
      </trkpt>
      <trkpt lat="37.7408770" lon="-3.9622550">
        <ele>635.0</ele>
        <time>2021-12-27T16:34:18Z</time>
      </trkpt>
      <trkpt lat="37.7408510" lon="-3.9622680">
        <ele>635.0</ele>
        <time>2021-12-27T16:34:19Z</time>
      </trkpt>
      <trkpt lat="37.7408290" lon="-3.9622800">
        <ele>635.0</ele>
        <time>2021-12-27T16:34:20Z</time>
      </trkpt>
      <trkpt lat="37.7408060" lon="-3.9622920">
        <ele>635.0</ele>
        <time>2021-12-27T16:34:21Z</time>
      </trkpt>
      <trkpt lat="37.7407810" lon="-3.9623050">
        <ele>635.0</ele>
        <time>2021-12-27T16:34:22Z</time>
      </trkpt>
      <trkpt lat="37.7407580" lon="-3.9623170">
        <ele>635.2</ele>
        <time>2021-12-27T16:34:23Z</time>
      </trkpt>
      <trkpt lat="37.7407300" lon="-3.9623300">
        <ele>635.2</ele>
        <time>2021-12-27T16:34:24Z</time>
      </trkpt>
      <trkpt lat="37.7407040" lon="-3.9623400">
        <ele>635.2</ele>
        <time>2021-12-27T16:34:25Z</time>
      </trkpt>
      <trkpt lat="37.7406780" lon="-3.9623530">
        <ele>635.4</ele>
        <time>2021-12-27T16:34:26Z</time>
      </trkpt>
      <trkpt lat="37.7406500" lon="-3.9623680">
        <ele>635.4</ele>
        <time>2021-12-27T16:34:27Z</time>
      </trkpt>
      <trkpt lat="37.7406240" lon="-3.9623800">
        <ele>635.4</ele>
        <time>2021-12-27T16:34:28Z</time>
      </trkpt>
      <trkpt lat="37.7406020" lon="-3.9623920">
        <ele>635.6</ele>
        <time>2021-12-27T16:34:29Z</time>
      </trkpt>
      <trkpt lat="37.7405790" lon="-3.9624050">
        <ele>635.6</ele>
        <time>2021-12-27T16:34:30Z</time>
      </trkpt>
      <trkpt lat="37.7405500" lon="-3.9624170">
        <ele>635.8</ele>
        <time>2021-12-27T16:34:31Z</time>
      </trkpt>
      <trkpt lat="37.7405310" lon="-3.9624250">
        <ele>636.0</ele>
        <time>2021-12-27T16:34:32Z</time>
      </trkpt>
      <trkpt lat="37.7405090" lon="-3.9624350">
        <ele>636.0</ele>
        <time>2021-12-27T16:34:33Z</time>
      </trkpt>
      <trkpt lat="37.7404900" lon="-3.9624430">
        <ele>636.2</ele>
        <time>2021-12-27T16:34:34Z</time>
      </trkpt>
      <trkpt lat="37.7404900" lon="-3.9624430">
        <ele>636.4</ele>
        <time>2021-12-27T16:34:35Z</time>
      </trkpt>
      <trkpt lat="37.7404640" lon="-3.9624580">
        <ele>636.6</ele>
        <time>2021-12-27T16:34:36Z</time>
      </trkpt>
      <trkpt lat="37.7404640" lon="-3.9624580">
        <ele>636.8</ele>
        <time>2021-12-27T16:34:37Z</time>
      </trkpt>
      <trkpt lat="37.7404640" lon="-3.9624580">
        <ele>637.0</ele>
        <time>2021-12-27T16:34:38Z</time>
      </trkpt>
      <trkpt lat="37.7404640" lon="-3.9624580">
        <ele>637.0</ele>
        <time>2021-12-27T16:34:39Z</time>
      </trkpt>
      <trkpt lat="37.7404640" lon="-3.9624580">
        <ele>637.2</ele>
        <time>2021-12-27T16:34:40Z</time>
      </trkpt>
      <trkpt lat="37.7404640" lon="-3.9624580">
        <ele>637.4</ele>
        <time>2021-12-27T16:34:41Z</time>
      </trkpt>
      <trkpt lat="37.7403710" lon="-3.9625220">
        <ele>645.2</ele>
        <time>2021-12-27T16:36:14Z</time>
      </trkpt>
      <trkpt lat="37.7403460" lon="-3.9625380">
        <ele>645.2</ele>
        <time>2021-12-27T16:36:15Z</time>
      </trkpt>
      <trkpt lat="37.7403170" lon="-3.9625530">
        <ele>645.2</ele>
        <time>2021-12-27T16:36:16Z</time>
      </trkpt>
      <trkpt lat="37.7402910" lon="-3.9625700">
        <ele>645.0</ele>
        <time>2021-12-27T16:36:17Z</time>
      </trkpt>
      <trkpt lat="37.7402720" lon="-3.9625830">
        <ele>645.0</ele>
        <time>2021-12-27T16:36:18Z</time>
      </trkpt>
      <trkpt lat="37.7402530" lon="-3.9625950">
        <ele>645.0</ele>
        <time>2021-12-27T16:36:19Z</time>
      </trkpt>
      <trkpt lat="37.7402340" lon="-3.9626030">
        <ele>644.8</ele>
        <time>2021-12-27T16:36:20Z</time>
      </trkpt>
      <trkpt lat="37.7402180" lon="-3.9626150">
        <ele>644.6</ele>
        <time>2021-12-27T16:36:21Z</time>
      </trkpt>
      <trkpt lat="37.7402020" lon="-3.9626270">
        <ele>644.4</ele>
        <time>2021-12-27T16:36:22Z</time>
      </trkpt>
      <trkpt lat="37.7401820" lon="-3.9626400">
        <ele>644.4</ele>
        <time>2021-12-27T16:36:23Z</time>
      </trkpt>
      <trkpt lat="37.7401570" lon="-3.9626530">
        <ele>644.2</ele>
        <time>2021-12-27T16:36:24Z</time>
      </trkpt>
      <trkpt lat="37.7401380" lon="-3.9626670">
        <ele>644.0</ele>
        <time>2021-12-27T16:36:25Z</time>
      </trkpt>
      <trkpt lat="37.7401180" lon="-3.9626800">
        <ele>643.8</ele>
        <time>2021-12-27T16:36:26Z</time>
      </trkpt>
      <trkpt lat="37.7400930" lon="-3.9626950">
        <ele>643.8</ele>
        <time>2021-12-27T16:36:27Z</time>
      </trkpt>
      <trkpt lat="37.7400930" lon="-3.9626950">
        <ele>643.6</ele>
        <time>2021-12-27T16:36:28Z</time>
      </trkpt>
      <trkpt lat="37.7400450" lon="-3.9627220">
        <ele>643.6</ele>
        <time>2021-12-27T16:36:29Z</time>
      </trkpt>
      <trkpt lat="37.7400350" lon="-3.9627280">
        <ele>643.4</ele>
        <time>2021-12-27T16:36:30Z</time>
      </trkpt>
      <trkpt lat="37.7400130" lon="-3.9627420">
        <ele>643.4</ele>
        <time>2021-12-27T16:36:31Z</time>
      </trkpt>
      <trkpt lat="37.7399900" lon="-3.9627550">
        <ele>643.2</ele>
        <time>2021-12-27T16:36:32Z</time>
      </trkpt>
      <trkpt lat="37.7399710" lon="-3.9627670">
        <ele>643.2</ele>
        <time>2021-12-27T16:36:33Z</time>
      </trkpt>
      <trkpt lat="37.7399520" lon="-3.9627800">
        <ele>643.2</ele>
        <time>2021-12-27T16:36:34Z</time>
      </trkpt>
      <trkpt lat="37.7399300" lon="-3.9627920">
        <ele>643.0</ele>
        <time>2021-12-27T16:36:35Z</time>
      </trkpt>
      <trkpt lat="37.7399040" lon="-3.9628070">
        <ele>643.0</ele>
        <time>2021-12-27T16:36:36Z</time>
      </trkpt>
      <trkpt lat="37.7398780" lon="-3.9628200">
        <ele>643.0</ele>
        <time>2021-12-27T16:36:37Z</time>
      </trkpt>
      <trkpt lat="37.7398530" lon="-3.9628370">
        <ele>642.8</ele>
        <time>2021-12-27T16:36:38Z</time>
      </trkpt>
      <trkpt lat="37.7398340" lon="-3.9628470">
        <ele>642.8</ele>
        <time>2021-12-27T16:36:39Z</time>
      </trkpt>
      <trkpt lat="37.7398140" lon="-3.9628580">
        <ele>642.6</ele>
        <time>2021-12-27T16:36:40Z</time>
      </trkpt>
      <trkpt lat="37.7397920" lon="-3.9628700">
        <ele>642.6</ele>
        <time>2021-12-27T16:36:41Z</time>
      </trkpt>
      <trkpt lat="37.7397700" lon="-3.9628820">
        <ele>642.6</ele>
        <time>2021-12-27T16:36:42Z</time>
      </trkpt>
      <trkpt lat="37.7397410" lon="-3.9628950">
        <ele>642.6</ele>
        <time>2021-12-27T16:36:43Z</time>
      </trkpt>
      <trkpt lat="37.7397250" lon="-3.9629060">
        <ele>642.6</ele>
        <time>2021-12-27T16:36:44Z</time>
      </trkpt>
      <trkpt lat="37.7396990" lon="-3.9629200">
        <ele>642.6</ele>
        <time>2021-12-27T16:36:45Z</time>
      </trkpt>
      <trkpt lat="37.7396770" lon="-3.9629320">
        <ele>642.8</ele>
        <time>2021-12-27T16:36:46Z</time>
      </trkpt>
      <trkpt lat="37.7396540" lon="-3.9629450">
        <ele>642.8</ele>
        <time>2021-12-27T16:36:47Z</time>
      </trkpt>
      <trkpt lat="37.7396320" lon="-3.9629600">
        <ele>642.8</ele>
        <time>2021-12-27T16:36:48Z</time>
      </trkpt>
      <trkpt lat="37.7396130" lon="-3.9629700">
        <ele>643.0</ele>
        <time>2021-12-27T16:36:49Z</time>
      </trkpt>
      <trkpt lat="37.7395900" lon="-3.9629850">
        <ele>643.0</ele>
        <time>2021-12-27T16:36:50Z</time>
      </trkpt>
      <trkpt lat="37.7395710" lon="-3.9629930">
        <ele>643.2</ele>
        <time>2021-12-27T16:36:51Z</time>
      </trkpt>
      <trkpt lat="37.7395490" lon="-3.9630070">
        <ele>643.2</ele>
        <time>2021-12-27T16:36:52Z</time>
      </trkpt>
      <trkpt lat="37.7395260" lon="-3.9630220">
        <ele>643.4</ele>
        <time>2021-12-27T16:36:53Z</time>
      </trkpt>
      <trkpt lat="37.7394980" lon="-3.9630360">
        <ele>643.6</ele>
        <time>2021-12-27T16:36:54Z</time>
      </trkpt>
      <trkpt lat="37.7394750" lon="-3.9630520">
        <ele>643.6</ele>
        <time>2021-12-27T16:36:55Z</time>
      </trkpt>
      <trkpt lat="37.7394530" lon="-3.9630650">
        <ele>643.6</ele>
        <time>2021-12-27T16:36:56Z</time>
      </trkpt>
      <trkpt lat="37.7394300" lon="-3.9630780">
        <ele>643.8</ele>
        <time>2021-12-27T16:36:57Z</time>
      </trkpt>
      <trkpt lat="37.7394020" lon="-3.9630930">
        <ele>643.8</ele>
        <time>2021-12-27T16:36:58Z</time>
      </trkpt>
      <trkpt lat="37.7393730" lon="-3.9631130">
        <ele>643.8</ele>
        <time>2021-12-27T16:36:59Z</time>
      </trkpt>
      <trkpt lat="37.7393500" lon="-3.9631250">
        <ele>644.0</ele>
        <time>2021-12-27T16:37:00Z</time>
      </trkpt>
      <trkpt lat="37.7393220" lon="-3.9631430">
        <ele>644.0</ele>
        <time>2021-12-27T16:37:01Z</time>
      </trkpt>
      <trkpt lat="37.7392960" lon="-3.9631600">
        <ele>644.0</ele>
        <time>2021-12-27T16:37:02Z</time>
      </trkpt>
      <trkpt lat="37.7392740" lon="-3.9631770">
        <ele>644.0</ele>
        <time>2021-12-27T16:37:03Z</time>
      </trkpt>
      <trkpt lat="37.7392510" lon="-3.9631880">
        <ele>644.0</ele>
        <time>2021-12-27T16:37:04Z</time>
      </trkpt>
      <trkpt lat="37.7392510" lon="-3.9631880">
        <ele>644.0</ele>
        <time>2021-12-27T16:37:05Z</time>
      </trkpt>
      <trkpt lat="37.7392160" lon="-3.9631980">
        <ele>644.0</ele>
        <time>2021-12-27T16:37:06Z</time>
      </trkpt>
      <trkpt lat="37.7391940" lon="-3.9632100">
        <ele>644.0</ele>
        <time>2021-12-27T16:37:07Z</time>
      </trkpt>
      <trkpt lat="37.7391650" lon="-3.9632280">
        <ele>644.0</ele>
        <time>2021-12-27T16:37:08Z</time>
      </trkpt>
      <trkpt lat="37.7391390" lon="-3.9632480">
        <ele>644.0</ele>
        <time>2021-12-27T16:37:09Z</time>
      </trkpt>
      <trkpt lat="37.7391140" lon="-3.9632670">
        <ele>644.0</ele>
        <time>2021-12-27T16:37:10Z</time>
      </trkpt>
      <trkpt lat="37.7390850" lon="-3.9632830">
        <ele>644.2</ele>
        <time>2021-12-27T16:37:11Z</time>
      </trkpt>
      <trkpt lat="37.7390590" lon="-3.9633030">
        <ele>644.2</ele>
        <time>2021-12-27T16:37:12Z</time>
      </trkpt>
      <trkpt lat="37.7390300" lon="-3.9633220">
        <ele>644.2</ele>
        <time>2021-12-27T16:37:13Z</time>
      </trkpt>
      <trkpt lat="37.7389980" lon="-3.9633420">
        <ele>644.2</ele>
        <time>2021-12-27T16:37:14Z</time>
      </trkpt>
      <trkpt lat="37.7389660" lon="-3.9633650">
        <ele>644.0</ele>
        <time>2021-12-27T16:37:15Z</time>
      </trkpt>
      <trkpt lat="37.7389500" lon="-3.9633800">
        <ele>643.8</ele>
        <time>2021-12-27T16:37:16Z</time>
      </trkpt>
      <trkpt lat="37.7389180" lon="-3.9633980">
        <ele>643.8</ele>
        <time>2021-12-27T16:37:17Z</time>
      </trkpt>
      <trkpt lat="37.7388960" lon="-3.9634100">
        <ele>643.8</ele>
        <time>2021-12-27T16:37:18Z</time>
      </trkpt>
      <trkpt lat="37.7388670" lon="-3.9634230">
        <ele>643.6</ele>
        <time>2021-12-27T16:37:19Z</time>
      </trkpt>
      <trkpt lat="37.7388450" lon="-3.9634420">
        <ele>643.6</ele>
        <time>2021-12-27T16:37:20Z</time>
      </trkpt>
      <trkpt lat="37.7388190" lon="-3.9634580">
        <ele>643.6</ele>
        <time>2021-12-27T16:37:21Z</time>
      </trkpt>
      <trkpt lat="37.7387840" lon="-3.9634820">
        <ele>643.6</ele>
        <time>2021-12-27T16:37:22Z</time>
      </trkpt>
      <trkpt lat="37.7387650" lon="-3.9634970">
        <ele>643.4</ele>
        <time>2021-12-27T16:37:23Z</time>
      </trkpt>
      <trkpt lat="37.7387390" lon="-3.9635150">
        <ele>643.4</ele>
        <time>2021-12-27T16:37:24Z</time>
      </trkpt>
      <trkpt lat="37.7387140" lon="-3.9635320">
        <ele>643.4</ele>
        <time>2021-12-27T16:37:25Z</time>
      </trkpt>
      <trkpt lat="37.7386850" lon="-3.9635500">
        <ele>643.4</ele>
        <time>2021-12-27T16:37:26Z</time>
      </trkpt>
      <trkpt lat="37.7386590" lon="-3.9635650">
        <ele>643.6</ele>
        <time>2021-12-27T16:37:27Z</time>
      </trkpt>
      <trkpt lat="37.7386270" lon="-3.9635840">
        <ele>643.6</ele>
        <time>2021-12-27T16:37:28Z</time>
      </trkpt>
      <trkpt lat="37.7386020" lon="-3.9636000">
        <ele>643.6</ele>
        <time>2021-12-27T16:37:29Z</time>
      </trkpt>
      <trkpt lat="37.7385700" lon="-3.9636170">
        <ele>643.8</ele>
        <time>2021-12-27T16:37:30Z</time>
      </trkpt>
      <trkpt lat="37.7385380" lon="-3.9636370">
        <ele>643.8</ele>
        <time>2021-12-27T16:37:31Z</time>
      </trkpt>
      <trkpt lat="37.7385150" lon="-3.9636480">
        <ele>643.8</ele>
        <time>2021-12-27T16:37:32Z</time>
      </trkpt>
      <trkpt lat="37.7384860" lon="-3.9636630">
        <ele>643.6</ele>
        <time>2021-12-27T16:37:33Z</time>
      </trkpt>
      <trkpt lat="37.7384580" lon="-3.9636800">
        <ele>643.6</ele>
        <time>2021-12-27T16:37:34Z</time>
      </trkpt>
      <trkpt lat="37.7384220" lon="-3.9637020">
        <ele>643.6</ele>
        <time>2021-12-27T16:37:35Z</time>
      </trkpt>
      <trkpt lat="37.7384000" lon="-3.9637150">
        <ele>643.6</ele>
        <time>2021-12-27T16:37:36Z</time>
      </trkpt>
      <trkpt lat="37.7383740" lon="-3.9637360">
        <ele>643.6</ele>
        <time>2021-12-27T16:37:37Z</time>
      </trkpt>
      <trkpt lat="37.7383460" lon="-3.9637580">
        <ele>643.6</ele>
        <time>2021-12-27T16:37:38Z</time>
      </trkpt>
      <trkpt lat="37.7383200" lon="-3.9637750">
        <ele>643.6</ele>
        <time>2021-12-27T16:37:39Z</time>
      </trkpt>
      <trkpt lat="37.7382850" lon="-3.9637970">
        <ele>643.4</ele>
        <time>2021-12-27T16:37:40Z</time>
      </trkpt>
      <trkpt lat="37.7382660" lon="-3.9638100">
        <ele>643.4</ele>
        <time>2021-12-27T16:37:41Z</time>
      </trkpt>
      <trkpt lat="37.7382400" lon="-3.9638300">
        <ele>643.4</ele>
        <time>2021-12-27T16:37:42Z</time>
      </trkpt>
      <trkpt lat="37.7382210" lon="-3.9638420">
        <ele>643.4</ele>
        <time>2021-12-27T16:37:43Z</time>
      </trkpt>
      <trkpt lat="37.7381920" lon="-3.9638630">
        <ele>643.2</ele>
        <time>2021-12-27T16:37:44Z</time>
      </trkpt>
      <trkpt lat="37.7381700" lon="-3.9638800">
        <ele>643.2</ele>
        <time>2021-12-27T16:37:45Z</time>
      </trkpt>
      <trkpt lat="37.7381700" lon="-3.9638800">
        <ele>643.0</ele>
        <time>2021-12-27T16:37:46Z</time>
      </trkpt>
      <trkpt lat="37.7381380" lon="-3.9639050">
        <ele>643.0</ele>
        <time>2021-12-27T16:37:47Z</time>
      </trkpt>
      <trkpt lat="37.7381120" lon="-3.9639200">
        <ele>643.0</ele>
        <time>2021-12-27T16:37:48Z</time>
      </trkpt>
      <trkpt lat="37.7380900" lon="-3.9639380">
        <ele>643.2</ele>
        <time>2021-12-27T16:37:49Z</time>
      </trkpt>
      <trkpt lat="37.7380770" lon="-3.9639550">
        <ele>643.2</ele>
        <time>2021-12-27T16:37:50Z</time>
      </trkpt>
      <trkpt lat="37.7380610" lon="-3.9639680">
        <ele>643.2</ele>
        <time>2021-12-27T16:37:51Z</time>
      </trkpt>
      <trkpt lat="37.7380380" lon="-3.9639830">
        <ele>643.4</ele>
        <time>2021-12-27T16:37:52Z</time>
      </trkpt>
      <trkpt lat="37.7380190" lon="-3.9640000">
        <ele>643.4</ele>
        <time>2021-12-27T16:37:53Z</time>
      </trkpt>
      <trkpt lat="37.7380030" lon="-3.9640120">
        <ele>643.4</ele>
        <time>2021-12-27T16:37:54Z</time>
      </trkpt>
      <trkpt lat="37.7379810" lon="-3.9640320">
        <ele>643.4</ele>
        <time>2021-12-27T16:37:55Z</time>
      </trkpt>
      <trkpt lat="37.7379620" lon="-3.9640520">
        <ele>643.6</ele>
        <time>2021-12-27T16:37:56Z</time>
      </trkpt>
      <trkpt lat="37.7379460" lon="-3.9640680">
        <ele>643.6</ele>
        <time>2021-12-27T16:37:57Z</time>
      </trkpt>
      <trkpt lat="37.7379260" lon="-3.9640830">
        <ele>643.6</ele>
        <time>2021-12-27T16:37:58Z</time>
      </trkpt>
      <trkpt lat="37.7379040" lon="-3.9640980">
        <ele>643.8</ele>
        <time>2021-12-27T16:37:59Z</time>
      </trkpt>
      <trkpt lat="37.7378850" lon="-3.9641160">
        <ele>643.8</ele>
        <time>2021-12-27T16:38:00Z</time>
      </trkpt>
      <trkpt lat="37.7378660" lon="-3.9641370">
        <ele>643.8</ele>
        <time>2021-12-27T16:38:01Z</time>
      </trkpt>
      <trkpt lat="37.7378460" lon="-3.9641550">
        <ele>644.0</ele>
        <time>2021-12-27T16:38:02Z</time>
      </trkpt>
      <trkpt lat="37.7378240" lon="-3.9641770">
        <ele>644.0</ele>
        <time>2021-12-27T16:38:03Z</time>
      </trkpt>
      <trkpt lat="37.7378050" lon="-3.9642000">
        <ele>643.8</ele>
        <time>2021-12-27T16:38:04Z</time>
      </trkpt>
      <trkpt lat="37.7377820" lon="-3.9642230">
        <ele>643.8</ele>
        <time>2021-12-27T16:38:05Z</time>
      </trkpt>
      <trkpt lat="37.7377630" lon="-3.9642450">
        <ele>643.8</ele>
        <time>2021-12-27T16:38:06Z</time>
      </trkpt>
      <trkpt lat="37.7377470" lon="-3.9642670">
        <ele>643.8</ele>
        <time>2021-12-27T16:38:07Z</time>
      </trkpt>
      <trkpt lat="37.7377280" lon="-3.9642880">
        <ele>643.6</ele>
        <time>2021-12-27T16:38:08Z</time>
      </trkpt>
      <trkpt lat="37.7377090" lon="-3.9643120">
        <ele>643.6</ele>
        <time>2021-12-27T16:38:09Z</time>
      </trkpt>
      <trkpt lat="37.7376900" lon="-3.9643330">
        <ele>643.6</ele>
        <time>2021-12-27T16:38:10Z</time>
      </trkpt>
      <trkpt lat="37.7376700" lon="-3.9643550">
        <ele>643.6</ele>
        <time>2021-12-27T16:38:11Z</time>
      </trkpt>
      <trkpt lat="37.7376510" lon="-3.9643780">
        <ele>643.6</ele>
        <time>2021-12-27T16:38:12Z</time>
      </trkpt>
      <trkpt lat="37.7376290" lon="-3.9644020">
        <ele>643.6</ele>
        <time>2021-12-27T16:38:13Z</time>
      </trkpt>
      <trkpt lat="37.7376030" lon="-3.9644300">
        <ele>643.6</ele>
        <time>2021-12-27T16:38:14Z</time>
      </trkpt>
      <trkpt lat="37.7375870" lon="-3.9644500">
        <ele>643.6</ele>
        <time>2021-12-27T16:38:15Z</time>
      </trkpt>
      <trkpt lat="37.7375680" lon="-3.9644760">
        <ele>643.6</ele>
        <time>2021-12-27T16:38:16Z</time>
      </trkpt>
      <trkpt lat="37.7375460" lon="-3.9645030">
        <ele>643.6</ele>
        <time>2021-12-27T16:38:17Z</time>
      </trkpt>
      <trkpt lat="37.7375260" lon="-3.9645280">
        <ele>643.6</ele>
        <time>2021-12-27T16:38:18Z</time>
      </trkpt>
      <trkpt lat="37.7375070" lon="-3.9645520">
        <ele>643.4</ele>
        <time>2021-12-27T16:38:19Z</time>
      </trkpt>
      <trkpt lat="37.7374910" lon="-3.9645750">
        <ele>643.4</ele>
        <time>2021-12-27T16:38:20Z</time>
      </trkpt>
      <trkpt lat="37.7374720" lon="-3.9645970">
        <ele>643.4</ele>
        <time>2021-12-27T16:38:21Z</time>
      </trkpt>
      <trkpt lat="37.7374530" lon="-3.9646200">
        <ele>643.2</ele>
        <time>2021-12-27T16:38:22Z</time>
      </trkpt>
      <trkpt lat="37.7374370" lon="-3.9646400">
        <ele>643.0</ele>
        <time>2021-12-27T16:38:23Z</time>
      </trkpt>
      <trkpt lat="37.7374240" lon="-3.9646670">
        <ele>643.0</ele>
        <time>2021-12-27T16:38:24Z</time>
      </trkpt>
      <trkpt lat="37.7374080" lon="-3.9646930">
        <ele>643.0</ele>
        <time>2021-12-27T16:38:25Z</time>
      </trkpt>
      <trkpt lat="37.7373950" lon="-3.9647170">
        <ele>642.8</ele>
        <time>2021-12-27T16:38:26Z</time>
      </trkpt>
      <trkpt lat="37.7373820" lon="-3.9647400">
        <ele>642.8</ele>
        <time>2021-12-27T16:38:27Z</time>
      </trkpt>
      <trkpt lat="37.7373660" lon="-3.9647620">
        <ele>642.8</ele>
        <time>2021-12-27T16:38:28Z</time>
      </trkpt>
      <trkpt lat="37.7373470" lon="-3.9647860">
        <ele>643.0</ele>
        <time>2021-12-27T16:38:29Z</time>
      </trkpt>
      <trkpt lat="37.7373340" lon="-3.9648080">
        <ele>643.0</ele>
        <time>2021-12-27T16:38:30Z</time>
      </trkpt>
      <trkpt lat="37.7373150" lon="-3.9648380">
        <ele>643.0</ele>
        <time>2021-12-27T16:38:31Z</time>
      </trkpt>
      <trkpt lat="37.7373060" lon="-3.9648580">
        <ele>643.0</ele>
        <time>2021-12-27T16:38:32Z</time>
      </trkpt>
      <trkpt lat="37.7372900" lon="-3.9648830">
        <ele>643.0</ele>
        <time>2021-12-27T16:38:33Z</time>
      </trkpt>
      <trkpt lat="37.7372700" lon="-3.9649120">
        <ele>643.0</ele>
        <time>2021-12-27T16:38:34Z</time>
      </trkpt>
      <trkpt lat="37.7372510" lon="-3.9649440">
        <ele>643.0</ele>
        <time>2021-12-27T16:38:35Z</time>
      </trkpt>
      <trkpt lat="37.7372380" lon="-3.9649620">
        <ele>643.0</ele>
        <time>2021-12-27T16:38:36Z</time>
      </trkpt>
      <trkpt lat="37.7372260" lon="-3.9649870">
        <ele>642.8</ele>
        <time>2021-12-27T16:38:37Z</time>
      </trkpt>
      <trkpt lat="37.7372130" lon="-3.9650120">
        <ele>642.8</ele>
        <time>2021-12-27T16:38:38Z</time>
      </trkpt>
      <trkpt lat="37.7371970" lon="-3.9650350">
        <ele>642.8</ele>
        <time>2021-12-27T16:38:39Z</time>
      </trkpt>
      <trkpt lat="37.7371840" lon="-3.9650620">
        <ele>642.8</ele>
        <time>2021-12-27T16:38:40Z</time>
      </trkpt>
      <trkpt lat="37.7371680" lon="-3.9650880">
        <ele>642.8</ele>
        <time>2021-12-27T16:38:41Z</time>
      </trkpt>
      <trkpt lat="37.7371550" lon="-3.9651150">
        <ele>642.8</ele>
        <time>2021-12-27T16:38:42Z</time>
      </trkpt>
      <trkpt lat="37.7371390" lon="-3.9651430">
        <ele>642.8</ele>
        <time>2021-12-27T16:38:43Z</time>
      </trkpt>
      <trkpt lat="37.7371260" lon="-3.9651730">
        <ele>642.8</ele>
        <time>2021-12-27T16:38:44Z</time>
      </trkpt>
      <trkpt lat="37.7371100" lon="-3.9652050">
        <ele>642.8</ele>
        <time>2021-12-27T16:38:45Z</time>
      </trkpt>
      <trkpt lat="37.7370910" lon="-3.9652380">
        <ele>642.8</ele>
        <time>2021-12-27T16:38:46Z</time>
      </trkpt>
      <trkpt lat="37.7370750" lon="-3.9652630">
        <ele>642.8</ele>
        <time>2021-12-27T16:38:47Z</time>
      </trkpt>
      <trkpt lat="37.7370660" lon="-3.9652920">
        <ele>642.8</ele>
        <time>2021-12-27T16:38:48Z</time>
      </trkpt>
      <trkpt lat="37.7370500" lon="-3.9653200">
        <ele>642.8</ele>
        <time>2021-12-27T16:38:49Z</time>
      </trkpt>
      <trkpt lat="37.7370340" lon="-3.9653480">
        <ele>642.8</ele>
        <time>2021-12-27T16:38:50Z</time>
      </trkpt>
      <trkpt lat="37.7370210" lon="-3.9653800">
        <ele>642.8</ele>
        <time>2021-12-27T16:38:51Z</time>
      </trkpt>
      <trkpt lat="37.7370110" lon="-3.9654120">
        <ele>642.6</ele>
        <time>2021-12-27T16:38:52Z</time>
      </trkpt>
      <trkpt lat="37.7369950" lon="-3.9654420">
        <ele>642.6</ele>
        <time>2021-12-27T16:38:53Z</time>
      </trkpt>
      <trkpt lat="37.7369950" lon="-3.9654420">
        <ele>642.6</ele>
        <time>2021-12-27T16:38:54Z</time>
      </trkpt>
      <trkpt lat="37.7369730" lon="-3.9654880">
        <ele>642.4</ele>
        <time>2021-12-27T16:38:55Z</time>
      </trkpt>
      <trkpt lat="37.7369730" lon="-3.9654880">
        <ele>642.4</ele>
        <time>2021-12-27T16:38:56Z</time>
      </trkpt>
      <trkpt lat="37.7369440" lon="-3.9655490">
        <ele>642.2</ele>
        <time>2021-12-27T16:38:57Z</time>
      </trkpt>
      <trkpt lat="37.7369380" lon="-3.9655650">
        <ele>642.2</ele>
        <time>2021-12-27T16:38:58Z</time>
      </trkpt>
      <trkpt lat="37.7369280" lon="-3.9655850">
        <ele>642.2</ele>
        <time>2021-12-27T16:38:59Z</time>
      </trkpt>
      <trkpt lat="37.7369150" lon="-3.9656100">
        <ele>642.0</ele>
        <time>2021-12-27T16:39:00Z</time>
      </trkpt>
      <trkpt lat="37.7369090" lon="-3.9656370">
        <ele>642.0</ele>
        <time>2021-12-27T16:39:01Z</time>
      </trkpt>
      <trkpt lat="37.7368960" lon="-3.9656580">
        <ele>641.8</ele>
        <time>2021-12-27T16:39:02Z</time>
      </trkpt>
      <trkpt lat="37.7368860" lon="-3.9656840">
        <ele>641.6</ele>
        <time>2021-12-27T16:39:03Z</time>
      </trkpt>
      <trkpt lat="37.7368770" lon="-3.9657060">
        <ele>641.6</ele>
        <time>2021-12-27T16:39:04Z</time>
      </trkpt>
      <trkpt lat="37.7368700" lon="-3.9657280">
        <ele>641.6</ele>
        <time>2021-12-27T16:39:05Z</time>
      </trkpt>
      <trkpt lat="37.7368580" lon="-3.9657520">
        <ele>641.4</ele>
        <time>2021-12-27T16:39:06Z</time>
      </trkpt>
      <trkpt lat="37.7368540" lon="-3.9657750">
        <ele>641.4</ele>
        <time>2021-12-27T16:39:07Z</time>
      </trkpt>
      <trkpt lat="37.7368480" lon="-3.9657980">
        <ele>641.2</ele>
        <time>2021-12-27T16:39:08Z</time>
      </trkpt>
      <trkpt lat="37.7368350" lon="-3.9658240">
        <ele>641.2</ele>
        <time>2021-12-27T16:39:09Z</time>
      </trkpt>
      <trkpt lat="37.7368260" lon="-3.9658500">
        <ele>641.2</ele>
        <time>2021-12-27T16:39:10Z</time>
      </trkpt>
      <trkpt lat="37.7368130" lon="-3.9658800">
        <ele>641.2</ele>
        <time>2021-12-27T16:39:11Z</time>
      </trkpt>
      <trkpt lat="37.7368000" lon="-3.9659030">
        <ele>641.2</ele>
        <time>2021-12-27T16:39:12Z</time>
      </trkpt>
      <trkpt lat="37.7368000" lon="-3.9659030">
        <ele>641.4</ele>
        <time>2021-12-27T16:39:13Z</time>
      </trkpt>
      <trkpt lat="37.7367810" lon="-3.9659430">
        <ele>641.4</ele>
        <time>2021-12-27T16:39:14Z</time>
      </trkpt>
      <trkpt lat="37.7367780" lon="-3.9659670">
        <ele>641.4</ele>
        <time>2021-12-27T16:39:15Z</time>
      </trkpt>
      <trkpt lat="37.7367680" lon="-3.9659880">
        <ele>641.6</ele>
        <time>2021-12-27T16:39:16Z</time>
      </trkpt>
      <trkpt lat="37.7367580" lon="-3.9660100">
        <ele>641.6</ele>
        <time>2021-12-27T16:39:17Z</time>
      </trkpt>
      <trkpt lat="37.7367580" lon="-3.9660100">
        <ele>641.6</ele>
        <time>2021-12-27T16:39:18Z</time>
      </trkpt>
      <trkpt lat="37.7367420" lon="-3.9660530">
        <ele>641.8</ele>
        <time>2021-12-27T16:39:19Z</time>
      </trkpt>
      <trkpt lat="37.7367360" lon="-3.9660780">
        <ele>642.0</ele>
        <time>2021-12-27T16:39:20Z</time>
      </trkpt>
      <trkpt lat="37.7367360" lon="-3.9660780">
        <ele>642.2</ele>
        <time>2021-12-27T16:39:21Z</time>
      </trkpt>
      <trkpt lat="37.7367260" lon="-3.9661220">
        <ele>642.4</ele>
        <time>2021-12-27T16:39:22Z</time>
      </trkpt>
      <trkpt lat="37.7367170" lon="-3.9661430">
        <ele>642.4</ele>
        <time>2021-12-27T16:39:23Z</time>
      </trkpt>
      <trkpt lat="37.7367100" lon="-3.9661680">
        <ele>642.6</ele>
        <time>2021-12-27T16:39:24Z</time>
      </trkpt>
      <trkpt lat="37.7367010" lon="-3.9661880">
        <ele>642.8</ele>
        <time>2021-12-27T16:39:25Z</time>
      </trkpt>
      <trkpt lat="37.7366940" lon="-3.9662100">
        <ele>642.8</ele>
        <time>2021-12-27T16:39:26Z</time>
      </trkpt>
      <trkpt lat="37.7366910" lon="-3.9662350">
        <ele>643.0</ele>
        <time>2021-12-27T16:39:27Z</time>
      </trkpt>
      <trkpt lat="37.7366880" lon="-3.9662580">
        <ele>643.0</ele>
        <time>2021-12-27T16:39:28Z</time>
      </trkpt>
      <trkpt lat="37.7366780" lon="-3.9662830">
        <ele>643.0</ele>
        <time>2021-12-27T16:39:29Z</time>
      </trkpt>
      <trkpt lat="37.7366720" lon="-3.9663070">
        <ele>643.2</ele>
        <time>2021-12-27T16:39:30Z</time>
      </trkpt>
      <trkpt lat="37.7366690" lon="-3.9663320">
        <ele>643.4</ele>
        <time>2021-12-27T16:39:31Z</time>
      </trkpt>
      <trkpt lat="37.7366590" lon="-3.9663570">
        <ele>643.4</ele>
        <time>2021-12-27T16:39:32Z</time>
      </trkpt>
      <trkpt lat="37.7366590" lon="-3.9663570">
        <ele>643.6</ele>
        <time>2021-12-27T16:39:33Z</time>
      </trkpt>
      <trkpt lat="37.7366500" lon="-3.9663950">
        <ele>643.8</ele>
        <time>2021-12-27T16:39:34Z</time>
      </trkpt>
      <trkpt lat="37.7366500" lon="-3.9664180">
        <ele>643.8</ele>
        <time>2021-12-27T16:39:35Z</time>
      </trkpt>
      <trkpt lat="37.7366500" lon="-3.9664420">
        <ele>643.8</ele>
        <time>2021-12-27T16:39:36Z</time>
      </trkpt>
      <trkpt lat="37.7366430" lon="-3.9664670">
        <ele>643.8</ele>
        <time>2021-12-27T16:39:37Z</time>
      </trkpt>
      <trkpt lat="37.7366400" lon="-3.9664920">
        <ele>643.8</ele>
        <time>2021-12-27T16:39:38Z</time>
      </trkpt>
      <trkpt lat="37.7366340" lon="-3.9665180">
        <ele>644.0</ele>
        <time>2021-12-27T16:39:39Z</time>
      </trkpt>
      <trkpt lat="37.7366300" lon="-3.9665500">
        <ele>644.0</ele>
        <time>2021-12-27T16:39:40Z</time>
      </trkpt>
      <trkpt lat="37.7366270" lon="-3.9665850">
        <ele>644.0</ele>
        <time>2021-12-27T16:39:41Z</time>
      </trkpt>
      <trkpt lat="37.7366180" lon="-3.9666200">
        <ele>644.0</ele>
        <time>2021-12-27T16:39:42Z</time>
      </trkpt>
      <trkpt lat="37.7366110" lon="-3.9666520">
        <ele>644.0</ele>
        <time>2021-12-27T16:39:43Z</time>
      </trkpt>
      <trkpt lat="37.7366080" lon="-3.9666830">
        <ele>644.0</ele>
        <time>2021-12-27T16:39:44Z</time>
      </trkpt>
      <trkpt lat="37.7365980" lon="-3.9667150">
        <ele>644.0</ele>
        <time>2021-12-27T16:39:45Z</time>
      </trkpt>
      <trkpt lat="37.7365950" lon="-3.9667420">
        <ele>644.0</ele>
        <time>2021-12-27T16:39:46Z</time>
      </trkpt>
      <trkpt lat="37.7365890" lon="-3.9667680">
        <ele>643.8</ele>
        <time>2021-12-27T16:39:47Z</time>
      </trkpt>
      <trkpt lat="37.7365820" lon="-3.9667930">
        <ele>643.8</ele>
        <time>2021-12-27T16:39:48Z</time>
      </trkpt>
      <trkpt lat="37.7365790" lon="-3.9668220">
        <ele>643.8</ele>
        <time>2021-12-27T16:39:49Z</time>
      </trkpt>
      <trkpt lat="37.7365760" lon="-3.9668500">
        <ele>643.6</ele>
        <time>2021-12-27T16:39:50Z</time>
      </trkpt>
      <trkpt lat="37.7365700" lon="-3.9668770">
        <ele>643.6</ele>
        <time>2021-12-27T16:39:51Z</time>
      </trkpt>
      <trkpt lat="37.7365600" lon="-3.9669100">
        <ele>643.4</ele>
        <time>2021-12-27T16:39:52Z</time>
      </trkpt>
      <trkpt lat="37.7365540" lon="-3.9669350">
        <ele>643.4</ele>
        <time>2021-12-27T16:39:53Z</time>
      </trkpt>
      <trkpt lat="37.7365500" lon="-3.9669630">
        <ele>643.4</ele>
        <time>2021-12-27T16:39:54Z</time>
      </trkpt>
      <trkpt lat="37.7365410" lon="-3.9669930">
        <ele>643.4</ele>
        <time>2021-12-27T16:39:55Z</time>
      </trkpt>
      <trkpt lat="37.7365380" lon="-3.9670220">
        <ele>643.4</ele>
        <time>2021-12-27T16:39:56Z</time>
      </trkpt>
      <trkpt lat="37.7365310" lon="-3.9670520">
        <ele>643.4</ele>
        <time>2021-12-27T16:39:57Z</time>
      </trkpt>
      <trkpt lat="37.7365280" lon="-3.9670850">
        <ele>643.4</ele>
        <time>2021-12-27T16:39:58Z</time>
      </trkpt>
      <trkpt lat="37.7365180" lon="-3.9671160">
        <ele>643.2</ele>
        <time>2021-12-27T16:39:59Z</time>
      </trkpt>
      <trkpt lat="37.7365120" lon="-3.9671570">
        <ele>643.2</ele>
        <time>2021-12-27T16:40:00Z</time>
      </trkpt>
      <trkpt lat="37.7365090" lon="-3.9671700">
        <ele>643.2</ele>
        <time>2021-12-27T16:40:01Z</time>
      </trkpt>
      <trkpt lat="37.7365020" lon="-3.9671970">
        <ele>643.2</ele>
        <time>2021-12-27T16:40:02Z</time>
      </trkpt>
      <trkpt lat="37.7364930" lon="-3.9672240">
        <ele>643.0</ele>
        <time>2021-12-27T16:40:03Z</time>
      </trkpt>
      <trkpt lat="37.7364900" lon="-3.9672520">
        <ele>643.0</ele>
        <time>2021-12-27T16:40:04Z</time>
      </trkpt>
      <trkpt lat="37.7364800" lon="-3.9672780">
        <ele>643.0</ele>
        <time>2021-12-27T16:40:05Z</time>
      </trkpt>
      <trkpt lat="37.7364770" lon="-3.9673030">
        <ele>642.8</ele>
        <time>2021-12-27T16:40:06Z</time>
      </trkpt>
      <trkpt lat="37.7364700" lon="-3.9673270">
        <ele>642.8</ele>
        <time>2021-12-27T16:40:07Z</time>
      </trkpt>
      <trkpt lat="37.7364640" lon="-3.9673520">
        <ele>642.8</ele>
        <time>2021-12-27T16:40:08Z</time>
      </trkpt>
      <trkpt lat="37.7364610" lon="-3.9673780">
        <ele>642.8</ele>
        <time>2021-12-27T16:40:09Z</time>
      </trkpt>
      <trkpt lat="37.7364580" lon="-3.9674080">
        <ele>642.8</ele>
        <time>2021-12-27T16:40:10Z</time>
      </trkpt>
      <trkpt lat="37.7364510" lon="-3.9674370">
        <ele>642.8</ele>
        <time>2021-12-27T16:40:11Z</time>
      </trkpt>
      <trkpt lat="37.7364420" lon="-3.9674660">
        <ele>642.8</ele>
        <time>2021-12-27T16:40:12Z</time>
      </trkpt>
      <trkpt lat="37.7364350" lon="-3.9674980">
        <ele>642.8</ele>
        <time>2021-12-27T16:40:13Z</time>
      </trkpt>
      <trkpt lat="37.7364290" lon="-3.9675300">
        <ele>642.8</ele>
        <time>2021-12-27T16:40:14Z</time>
      </trkpt>
      <trkpt lat="37.7364220" lon="-3.9675670">
        <ele>642.8</ele>
        <time>2021-12-27T16:40:15Z</time>
      </trkpt>
      <trkpt lat="37.7364220" lon="-3.9675670">
        <ele>642.8</ele>
        <time>2021-12-27T16:40:16Z</time>
      </trkpt>
      <trkpt lat="37.7364160" lon="-3.9676150">
        <ele>642.8</ele>
        <time>2021-12-27T16:40:17Z</time>
      </trkpt>
      <trkpt lat="37.7364100" lon="-3.9676430">
        <ele>642.8</ele>
        <time>2021-12-27T16:40:18Z</time>
      </trkpt>
      <trkpt lat="37.7364000" lon="-3.9676680">
        <ele>642.8</ele>
        <time>2021-12-27T16:40:19Z</time>
      </trkpt>
      <trkpt lat="37.7364000" lon="-3.9676680">
        <ele>642.8</ele>
        <time>2021-12-27T16:40:20Z</time>
      </trkpt>
      <trkpt lat="37.7363970" lon="-3.9677120">
        <ele>643.0</ele>
        <time>2021-12-27T16:40:21Z</time>
      </trkpt>
      <trkpt lat="37.7363970" lon="-3.9677120">
        <ele>643.0</ele>
        <time>2021-12-27T16:40:22Z</time>
      </trkpt>
      <trkpt lat="37.7363840" lon="-3.9677520">
        <ele>643.0</ele>
        <time>2021-12-27T16:40:23Z</time>
      </trkpt>
      <trkpt lat="37.7363840" lon="-3.9677520">
        <ele>643.0</ele>
        <time>2021-12-27T16:40:24Z</time>
      </trkpt>
      <trkpt lat="37.7363740" lon="-3.9677900">
        <ele>643.0</ele>
        <time>2021-12-27T16:40:25Z</time>
      </trkpt>
      <trkpt lat="37.7363740" lon="-3.9677900">
        <ele>643.0</ele>
        <time>2021-12-27T16:40:26Z</time>
      </trkpt>
      <trkpt lat="37.7363710" lon="-3.9678150">
        <ele>643.2</ele>
        <time>2021-12-27T16:40:27Z</time>
      </trkpt>
      <trkpt lat="37.7363710" lon="-3.9678150">
        <ele>643.2</ele>
        <time>2021-12-27T16:40:28Z</time>
      </trkpt>
      <trkpt lat="37.7363710" lon="-3.9678150">
        <ele>643.2</ele>
        <time>2021-12-27T16:40:29Z</time>
      </trkpt>
      <trkpt lat="37.7363710" lon="-3.9678150">
        <ele>643.0</ele>
        <time>2021-12-27T16:40:30Z</time>
      </trkpt>
      <trkpt lat="37.7363710" lon="-3.9678150">
        <ele>643.0</ele>
        <time>2021-12-27T16:40:31Z</time>
      </trkpt>
      <trkpt lat="37.7363300" lon="-3.9679900">
        <ele>644.8</ele>
        <time>2021-12-27T16:41:17Z</time>
      </trkpt>
      <trkpt lat="37.7363230" lon="-3.9680220">
        <ele>644.8</ele>
        <time>2021-12-27T16:41:18Z</time>
      </trkpt>
      <trkpt lat="37.7363170" lon="-3.9680580">
        <ele>644.8</ele>
        <time>2021-12-27T16:41:19Z</time>
      </trkpt>
      <trkpt lat="37.7363040" lon="-3.9680930">
        <ele>645.0</ele>
        <time>2021-12-27T16:41:20Z</time>
      </trkpt>
      <trkpt lat="37.7362980" lon="-3.9681280">
        <ele>645.0</ele>
        <time>2021-12-27T16:41:21Z</time>
      </trkpt>
      <trkpt lat="37.7362910" lon="-3.9681630">
        <ele>645.2</ele>
        <time>2021-12-27T16:41:22Z</time>
      </trkpt>
      <trkpt lat="37.7362820" lon="-3.9681920">
        <ele>645.2</ele>
        <time>2021-12-27T16:41:23Z</time>
      </trkpt>
      <trkpt lat="37.7362750" lon="-3.9682200">
        <ele>645.2</ele>
        <time>2021-12-27T16:41:24Z</time>
      </trkpt>
      <trkpt lat="37.7362660" lon="-3.9682520">
        <ele>645.2</ele>
        <time>2021-12-27T16:41:25Z</time>
      </trkpt>
      <trkpt lat="37.7362660" lon="-3.9682520">
        <ele>645.2</ele>
        <time>2021-12-27T16:41:26Z</time>
      </trkpt>
      <trkpt lat="37.7362560" lon="-3.9682930">
        <ele>645.2</ele>
        <time>2021-12-27T16:41:27Z</time>
      </trkpt>
      <trkpt lat="37.7362500" lon="-3.9683200">
        <ele>645.2</ele>
        <time>2021-12-27T16:41:28Z</time>
      </trkpt>
      <trkpt lat="37.7362400" lon="-3.9683480">
        <ele>645.2</ele>
        <time>2021-12-27T16:41:29Z</time>
      </trkpt>
      <trkpt lat="37.7362370" lon="-3.9683750">
        <ele>645.2</ele>
        <time>2021-12-27T16:41:30Z</time>
      </trkpt>
      <trkpt lat="37.7362300" lon="-3.9683980">
        <ele>645.2</ele>
        <time>2021-12-27T16:41:31Z</time>
      </trkpt>
      <trkpt lat="37.7362210" lon="-3.9684200">
        <ele>645.2</ele>
        <time>2021-12-27T16:41:32Z</time>
      </trkpt>
      <trkpt lat="37.7362140" lon="-3.9684500">
        <ele>645.2</ele>
        <time>2021-12-27T16:41:33Z</time>
      </trkpt>
      <trkpt lat="37.7362110" lon="-3.9684740">
        <ele>645.2</ele>
        <time>2021-12-27T16:41:34Z</time>
      </trkpt>
      <trkpt lat="37.7361980" lon="-3.9685040">
        <ele>645.0</ele>
        <time>2021-12-27T16:41:35Z</time>
      </trkpt>
      <trkpt lat="37.7361920" lon="-3.9685320">
        <ele>645.0</ele>
        <time>2021-12-27T16:41:36Z</time>
      </trkpt>
      <trkpt lat="37.7361790" lon="-3.9685620">
        <ele>645.0</ele>
        <time>2021-12-27T16:41:37Z</time>
      </trkpt>
      <trkpt lat="37.7361730" lon="-3.9685920">
        <ele>645.0</ele>
        <time>2021-12-27T16:41:38Z</time>
      </trkpt>
      <trkpt lat="37.7361570" lon="-3.9686250">
        <ele>644.8</ele>
        <time>2021-12-27T16:41:39Z</time>
      </trkpt>
      <trkpt lat="37.7361440" lon="-3.9686520">
        <ele>644.8</ele>
        <time>2021-12-27T16:41:40Z</time>
      </trkpt>
      <trkpt lat="37.7361340" lon="-3.9686820">
        <ele>644.8</ele>
        <time>2021-12-27T16:41:41Z</time>
      </trkpt>
      <trkpt lat="37.7361250" lon="-3.9687120">
        <ele>644.8</ele>
        <time>2021-12-27T16:41:42Z</time>
      </trkpt>
      <trkpt lat="37.7361150" lon="-3.9687400">
        <ele>644.8</ele>
        <time>2021-12-27T16:41:43Z</time>
      </trkpt>
      <trkpt lat="37.7361060" lon="-3.9687720">
        <ele>644.8</ele>
        <time>2021-12-27T16:41:44Z</time>
      </trkpt>
      <trkpt lat="37.7360930" lon="-3.9688000">
        <ele>644.8</ele>
        <time>2021-12-27T16:41:45Z</time>
      </trkpt>
      <trkpt lat="37.7360800" lon="-3.9688270">
        <ele>644.8</ele>
        <time>2021-12-27T16:41:46Z</time>
      </trkpt>
      <trkpt lat="37.7360670" lon="-3.9688570">
        <ele>644.8</ele>
        <time>2021-12-27T16:41:47Z</time>
      </trkpt>
      <trkpt lat="37.7360580" lon="-3.9688830">
        <ele>644.8</ele>
        <time>2021-12-27T16:41:48Z</time>
      </trkpt>
      <trkpt lat="37.7360450" lon="-3.9689100">
        <ele>645.0</ele>
        <time>2021-12-27T16:41:49Z</time>
      </trkpt>
      <trkpt lat="37.7360320" lon="-3.9689380">
        <ele>645.0</ele>
        <time>2021-12-27T16:41:50Z</time>
      </trkpt>
      <trkpt lat="37.7360190" lon="-3.9689680">
        <ele>645.0</ele>
        <time>2021-12-27T16:41:51Z</time>
      </trkpt>
      <trkpt lat="37.7360030" lon="-3.9689950">
        <ele>645.0</ele>
        <time>2021-12-27T16:41:52Z</time>
      </trkpt>
      <trkpt lat="37.7359870" lon="-3.9690220">
        <ele>645.0</ele>
        <time>2021-12-27T16:41:53Z</time>
      </trkpt>
      <trkpt lat="37.7359740" lon="-3.9690520">
        <ele>645.0</ele>
        <time>2021-12-27T16:41:54Z</time>
      </trkpt>
      <trkpt lat="37.7359620" lon="-3.9690800">
        <ele>644.8</ele>
        <time>2021-12-27T16:41:55Z</time>
      </trkpt>
      <trkpt lat="37.7359460" lon="-3.9691080">
        <ele>644.8</ele>
        <time>2021-12-27T16:41:56Z</time>
      </trkpt>
      <trkpt lat="37.7359330" lon="-3.9691370">
        <ele>644.8</ele>
        <time>2021-12-27T16:41:57Z</time>
      </trkpt>
      <trkpt lat="37.7359170" lon="-3.9691670">
        <ele>644.8</ele>
        <time>2021-12-27T16:41:58Z</time>
      </trkpt>
      <trkpt lat="37.7359010" lon="-3.9691970">
        <ele>644.8</ele>
        <time>2021-12-27T16:41:59Z</time>
      </trkpt>
      <trkpt lat="37.7358820" lon="-3.9692300">
        <ele>644.6</ele>
        <time>2021-12-27T16:42:00Z</time>
      </trkpt>
      <trkpt lat="37.7358690" lon="-3.9692620">
        <ele>644.6</ele>
        <time>2021-12-27T16:42:01Z</time>
      </trkpt>
      <trkpt lat="37.7358560" lon="-3.9692870">
        <ele>644.6</ele>
        <time>2021-12-27T16:42:02Z</time>
      </trkpt>
      <trkpt lat="37.7358400" lon="-3.9693150">
        <ele>644.6</ele>
        <time>2021-12-27T16:42:03Z</time>
      </trkpt>
      <trkpt lat="37.7358210" lon="-3.9693420">
        <ele>644.6</ele>
        <time>2021-12-27T16:42:04Z</time>
      </trkpt>
      <trkpt lat="37.7358050" lon="-3.9693680">
        <ele>644.6</ele>
        <time>2021-12-27T16:42:05Z</time>
      </trkpt>
      <trkpt lat="37.7357860" lon="-3.9694000">
        <ele>644.6</ele>
        <time>2021-12-27T16:42:06Z</time>
      </trkpt>
      <trkpt lat="37.7357760" lon="-3.9694200">
        <ele>644.8</ele>
        <time>2021-12-27T16:42:07Z</time>
      </trkpt>
      <trkpt lat="37.7357570" lon="-3.9694470">
        <ele>645.0</ele>
        <time>2021-12-27T16:42:08Z</time>
      </trkpt>
      <trkpt lat="37.7357380" lon="-3.9694750">
        <ele>645.0</ele>
        <time>2021-12-27T16:42:09Z</time>
      </trkpt>
      <trkpt lat="37.7357220" lon="-3.9695050">
        <ele>645.2</ele>
        <time>2021-12-27T16:42:10Z</time>
      </trkpt>
      <trkpt lat="37.7357020" lon="-3.9695320">
        <ele>645.2</ele>
        <time>2021-12-27T16:42:11Z</time>
      </trkpt>
      <trkpt lat="37.7356830" lon="-3.9695570">
        <ele>645.4</ele>
        <time>2021-12-27T16:42:12Z</time>
      </trkpt>
      <trkpt lat="37.7356670" lon="-3.9695850">
        <ele>645.4</ele>
        <time>2021-12-27T16:42:13Z</time>
      </trkpt>
      <trkpt lat="37.7356540" lon="-3.9696100">
        <ele>645.4</ele>
        <time>2021-12-27T16:42:14Z</time>
      </trkpt>
      <trkpt lat="37.7356290" lon="-3.9696350">
        <ele>645.6</ele>
        <time>2021-12-27T16:42:15Z</time>
      </trkpt>
      <trkpt lat="37.7356160" lon="-3.9696600">
        <ele>645.6</ele>
        <time>2021-12-27T16:42:16Z</time>
      </trkpt>
      <trkpt lat="37.7355970" lon="-3.9696850">
        <ele>645.8</ele>
        <time>2021-12-27T16:42:17Z</time>
      </trkpt>
      <trkpt lat="37.7355780" lon="-3.9697080">
        <ele>645.8</ele>
        <time>2021-12-27T16:42:18Z</time>
      </trkpt>
      <trkpt lat="37.7355580" lon="-3.9697320">
        <ele>645.8</ele>
        <time>2021-12-27T16:42:19Z</time>
      </trkpt>
      <trkpt lat="37.7355390" lon="-3.9697580">
        <ele>646.0</ele>
        <time>2021-12-27T16:42:20Z</time>
      </trkpt>
      <trkpt lat="37.7355170" lon="-3.9697830">
        <ele>646.0</ele>
        <time>2021-12-27T16:42:21Z</time>
      </trkpt>
      <trkpt lat="37.7354980" lon="-3.9698070">
        <ele>646.0</ele>
        <time>2021-12-27T16:42:22Z</time>
      </trkpt>
      <trkpt lat="37.7354690" lon="-3.9698320">
        <ele>646.2</ele>
        <time>2021-12-27T16:42:23Z</time>
      </trkpt>
      <trkpt lat="37.7354690" lon="-3.9698320">
        <ele>646.2</ele>
        <time>2021-12-27T16:42:24Z</time>
      </trkpt>
      <trkpt lat="37.7354270" lon="-3.9698760">
        <ele>646.2</ele>
        <time>2021-12-27T16:42:25Z</time>
      </trkpt>
      <trkpt lat="37.7354180" lon="-3.9698870">
        <ele>646.4</ele>
        <time>2021-12-27T16:42:26Z</time>
      </trkpt>
      <trkpt lat="37.7353920" lon="-3.9699050">
        <ele>646.4</ele>
        <time>2021-12-27T16:42:27Z</time>
      </trkpt>
      <trkpt lat="37.7353760" lon="-3.9699260">
        <ele>646.6</ele>
        <time>2021-12-27T16:42:28Z</time>
      </trkpt>
      <trkpt lat="37.7353500" lon="-3.9699480">
        <ele>646.6</ele>
        <time>2021-12-27T16:42:29Z</time>
      </trkpt>
      <trkpt lat="37.7353310" lon="-3.9699700">
        <ele>646.6</ele>
        <time>2021-12-27T16:42:30Z</time>
      </trkpt>
      <trkpt lat="37.7353090" lon="-3.9699880">
        <ele>646.6</ele>
        <time>2021-12-27T16:42:31Z</time>
      </trkpt>
      <trkpt lat="37.7352830" lon="-3.9700080">
        <ele>646.8</ele>
        <time>2021-12-27T16:42:32Z</time>
      </trkpt>
      <trkpt lat="37.7352580" lon="-3.9700280">
        <ele>646.8</ele>
        <time>2021-12-27T16:42:33Z</time>
      </trkpt>
      <trkpt lat="37.7352290" lon="-3.9700520">
        <ele>647.0</ele>
        <time>2021-12-27T16:42:34Z</time>
      </trkpt>
      <trkpt lat="37.7352000" lon="-3.9700750">
        <ele>647.2</ele>
        <time>2021-12-27T16:42:35Z</time>
      </trkpt>
      <trkpt lat="37.7351780" lon="-3.9700900">
        <ele>647.4</ele>
        <time>2021-12-27T16:42:36Z</time>
      </trkpt>
      <trkpt lat="37.7351520" lon="-3.9701100">
        <ele>647.4</ele>
        <time>2021-12-27T16:42:37Z</time>
      </trkpt>
      <trkpt lat="37.7351260" lon="-3.9701320">
        <ele>647.6</ele>
        <time>2021-12-27T16:42:38Z</time>
      </trkpt>
      <trkpt lat="37.7351040" lon="-3.9701520">
        <ele>647.8</ele>
        <time>2021-12-27T16:42:39Z</time>
      </trkpt>
      <trkpt lat="37.7350780" lon="-3.9701730">
        <ele>648.0</ele>
        <time>2021-12-27T16:42:40Z</time>
      </trkpt>
      <trkpt lat="37.7350500" lon="-3.9701950">
        <ele>648.0</ele>
        <time>2021-12-27T16:42:41Z</time>
      </trkpt>
      <trkpt lat="37.7350270" lon="-3.9702120">
        <ele>648.0</ele>
        <time>2021-12-27T16:42:42Z</time>
      </trkpt>
      <trkpt lat="37.7350080" lon="-3.9702270">
        <ele>648.2</ele>
        <time>2021-12-27T16:42:43Z</time>
      </trkpt>
      <trkpt lat="37.7349860" lon="-3.9702450">
        <ele>648.2</ele>
        <time>2021-12-27T16:42:44Z</time>
      </trkpt>
      <trkpt lat="37.7349660" lon="-3.9702660">
        <ele>648.2</ele>
        <time>2021-12-27T16:42:45Z</time>
      </trkpt>
      <trkpt lat="37.7349440" lon="-3.9702880">
        <ele>648.2</ele>
        <time>2021-12-27T16:42:46Z</time>
      </trkpt>
      <trkpt lat="37.7349250" lon="-3.9703080">
        <ele>648.2</ele>
        <time>2021-12-27T16:42:47Z</time>
      </trkpt>
      <trkpt lat="37.7349020" lon="-3.9703270">
        <ele>648.2</ele>
        <time>2021-12-27T16:42:48Z</time>
      </trkpt>
      <trkpt lat="37.7348800" lon="-3.9703480">
        <ele>648.2</ele>
        <time>2021-12-27T16:42:49Z</time>
      </trkpt>
      <trkpt lat="37.7348540" lon="-3.9703670">
        <ele>648.2</ele>
        <time>2021-12-27T16:42:50Z</time>
      </trkpt>
      <trkpt lat="37.7348290" lon="-3.9703870">
        <ele>648.4</ele>
        <time>2021-12-27T16:42:51Z</time>
      </trkpt>
      <trkpt lat="37.7348100" lon="-3.9704050">
        <ele>648.4</ele>
        <time>2021-12-27T16:42:52Z</time>
      </trkpt>
      <trkpt lat="37.7347840" lon="-3.9704300">
        <ele>648.4</ele>
        <time>2021-12-27T16:42:53Z</time>
      </trkpt>
      <trkpt lat="37.7347680" lon="-3.9704460">
        <ele>648.6</ele>
        <time>2021-12-27T16:42:54Z</time>
      </trkpt>
      <trkpt lat="37.7347490" lon="-3.9704670">
        <ele>648.6</ele>
        <time>2021-12-27T16:42:55Z</time>
      </trkpt>
      <trkpt lat="37.7347300" lon="-3.9704870">
        <ele>648.6</ele>
        <time>2021-12-27T16:42:56Z</time>
      </trkpt>
      <trkpt lat="37.7347070" lon="-3.9705100">
        <ele>648.6</ele>
        <time>2021-12-27T16:42:57Z</time>
      </trkpt>
      <trkpt lat="37.7346880" lon="-3.9705300">
        <ele>648.6</ele>
        <time>2021-12-27T16:42:58Z</time>
      </trkpt>
      <trkpt lat="37.7346660" lon="-3.9705530">
        <ele>648.4</ele>
        <time>2021-12-27T16:42:59Z</time>
      </trkpt>
      <trkpt lat="37.7346460" lon="-3.9705750">
        <ele>648.4</ele>
        <time>2021-12-27T16:43:00Z</time>
      </trkpt>
      <trkpt lat="37.7346240" lon="-3.9705950">
        <ele>648.4</ele>
        <time>2021-12-27T16:43:01Z</time>
      </trkpt>
      <trkpt lat="37.7346020" lon="-3.9706140">
        <ele>648.4</ele>
        <time>2021-12-27T16:43:02Z</time>
      </trkpt>
      <trkpt lat="37.7345820" lon="-3.9706320">
        <ele>648.4</ele>
        <time>2021-12-27T16:43:03Z</time>
      </trkpt>
      <trkpt lat="37.7345570" lon="-3.9706520">
        <ele>648.6</ele>
        <time>2021-12-27T16:43:04Z</time>
      </trkpt>
      <trkpt lat="37.7345380" lon="-3.9706700">
        <ele>648.6</ele>
        <time>2021-12-27T16:43:05Z</time>
      </trkpt>
      <trkpt lat="37.7345150" lon="-3.9706900">
        <ele>648.6</ele>
        <time>2021-12-27T16:43:06Z</time>
      </trkpt>
      <trkpt lat="37.7344930" lon="-3.9707100">
        <ele>648.6</ele>
        <time>2021-12-27T16:43:07Z</time>
      </trkpt>
      <trkpt lat="37.7344700" lon="-3.9707320">
        <ele>648.6</ele>
        <time>2021-12-27T16:43:08Z</time>
      </trkpt>
      <trkpt lat="37.7344480" lon="-3.9707530">
        <ele>648.6</ele>
        <time>2021-12-27T16:43:09Z</time>
      </trkpt>
      <trkpt lat="37.7344260" lon="-3.9707780">
        <ele>648.6</ele>
        <time>2021-12-27T16:43:10Z</time>
      </trkpt>
      <trkpt lat="37.7344030" lon="-3.9708000">
        <ele>648.8</ele>
        <time>2021-12-27T16:43:11Z</time>
      </trkpt>
      <trkpt lat="37.7343780" lon="-3.9708230">
        <ele>648.8</ele>
        <time>2021-12-27T16:43:12Z</time>
      </trkpt>
      <trkpt lat="37.7343550" lon="-3.9708470">
        <ele>649.0</ele>
        <time>2021-12-27T16:43:13Z</time>
      </trkpt>
      <trkpt lat="37.7343360" lon="-3.9708730">
        <ele>649.0</ele>
        <time>2021-12-27T16:43:14Z</time>
      </trkpt>
      <trkpt lat="37.7343170" lon="-3.9709030">
        <ele>649.0</ele>
        <time>2021-12-27T16:43:15Z</time>
      </trkpt>
      <trkpt lat="37.7343040" lon="-3.9709370">
        <ele>649.0</ele>
        <time>2021-12-27T16:43:16Z</time>
      </trkpt>
      <trkpt lat="37.7342880" lon="-3.9709680">
        <ele>649.0</ele>
        <time>2021-12-27T16:43:17Z</time>
      </trkpt>
      <trkpt lat="37.7342750" lon="-3.9710080">
        <ele>649.0</ele>
        <time>2021-12-27T16:43:18Z</time>
      </trkpt>
      <trkpt lat="37.7342690" lon="-3.9710370">
        <ele>649.0</ele>
        <time>2021-12-27T16:43:19Z</time>
      </trkpt>
      <trkpt lat="37.7342590" lon="-3.9710700">
        <ele>649.0</ele>
        <time>2021-12-27T16:43:20Z</time>
      </trkpt>
      <trkpt lat="37.7342500" lon="-3.9711030">
        <ele>649.0</ele>
        <time>2021-12-27T16:43:21Z</time>
      </trkpt>
      <trkpt lat="37.7342400" lon="-3.9711350">
        <ele>649.0</ele>
        <time>2021-12-27T16:43:22Z</time>
      </trkpt>
      <trkpt lat="37.7342340" lon="-3.9711650">
        <ele>649.0</ele>
        <time>2021-12-27T16:43:23Z</time>
      </trkpt>
      <trkpt lat="37.7342240" lon="-3.9711950">
        <ele>649.0</ele>
        <time>2021-12-27T16:43:24Z</time>
      </trkpt>
      <trkpt lat="37.7342140" lon="-3.9712250">
        <ele>649.0</ele>
        <time>2021-12-27T16:43:25Z</time>
      </trkpt>
      <trkpt lat="37.7342080" lon="-3.9712530">
        <ele>648.8</ele>
        <time>2021-12-27T16:43:26Z</time>
      </trkpt>
      <trkpt lat="37.7341950" lon="-3.9712770">
        <ele>648.8</ele>
        <time>2021-12-27T16:43:27Z</time>
      </trkpt>
      <trkpt lat="37.7341860" lon="-3.9712980">
        <ele>648.8</ele>
        <time>2021-12-27T16:43:28Z</time>
      </trkpt>
      <trkpt lat="37.7341730" lon="-3.9713200">
        <ele>648.8</ele>
        <time>2021-12-27T16:43:29Z</time>
      </trkpt>
      <trkpt lat="37.7341570" lon="-3.9713400">
        <ele>648.6</ele>
        <time>2021-12-27T16:43:30Z</time>
      </trkpt>
      <trkpt lat="37.7341410" lon="-3.9713650">
        <ele>648.6</ele>
        <time>2021-12-27T16:43:31Z</time>
      </trkpt>
      <trkpt lat="37.7341310" lon="-3.9713900">
        <ele>648.6</ele>
        <time>2021-12-27T16:43:32Z</time>
      </trkpt>
      <trkpt lat="37.7341150" lon="-3.9714180">
        <ele>648.6</ele>
        <time>2021-12-27T16:43:33Z</time>
      </trkpt>
      <trkpt lat="37.7341060" lon="-3.9714470">
        <ele>648.6</ele>
        <time>2021-12-27T16:43:34Z</time>
      </trkpt>
      <trkpt lat="37.7340900" lon="-3.9714700">
        <ele>648.6</ele>
        <time>2021-12-27T16:43:35Z</time>
      </trkpt>
      <trkpt lat="37.7340740" lon="-3.9715020">
        <ele>648.6</ele>
        <time>2021-12-27T16:43:36Z</time>
      </trkpt>
      <trkpt lat="37.7340610" lon="-3.9715270">
        <ele>648.6</ele>
        <time>2021-12-27T16:43:37Z</time>
      </trkpt>
      <trkpt lat="37.7340480" lon="-3.9715580">
        <ele>648.8</ele>
        <time>2021-12-27T16:43:38Z</time>
      </trkpt>
      <trkpt lat="37.7340350" lon="-3.9715870">
        <ele>648.8</ele>
        <time>2021-12-27T16:43:39Z</time>
      </trkpt>
      <trkpt lat="37.7340190" lon="-3.9716180">
        <ele>649.0</ele>
        <time>2021-12-27T16:43:40Z</time>
      </trkpt>
      <trkpt lat="37.7340100" lon="-3.9716480">
        <ele>649.0</ele>
        <time>2021-12-27T16:43:41Z</time>
      </trkpt>
      <trkpt lat="37.7339940" lon="-3.9716760">
        <ele>649.2</ele>
        <time>2021-12-27T16:43:42Z</time>
      </trkpt>
      <trkpt lat="37.7339780" lon="-3.9717100">
        <ele>649.4</ele>
        <time>2021-12-27T16:43:43Z</time>
      </trkpt>
      <trkpt lat="37.7339680" lon="-3.9717400">
        <ele>649.6</ele>
        <time>2021-12-27T16:43:44Z</time>
      </trkpt>
      <trkpt lat="37.7339520" lon="-3.9717700">
        <ele>649.8</ele>
        <time>2021-12-27T16:43:45Z</time>
      </trkpt>
      <trkpt lat="37.7339360" lon="-3.9718030">
        <ele>649.8</ele>
        <time>2021-12-27T16:43:46Z</time>
      </trkpt>
      <trkpt lat="37.7339260" lon="-3.9718360">
        <ele>650.0</ele>
        <time>2021-12-27T16:43:47Z</time>
      </trkpt>
      <trkpt lat="37.7339100" lon="-3.9718700">
        <ele>650.2</ele>
        <time>2021-12-27T16:43:48Z</time>
      </trkpt>
      <trkpt lat="37.7338940" lon="-3.9719020">
        <ele>650.4</ele>
        <time>2021-12-27T16:43:49Z</time>
      </trkpt>
      <trkpt lat="37.7338820" lon="-3.9719330">
        <ele>650.6</ele>
        <time>2021-12-27T16:43:50Z</time>
      </trkpt>
      <trkpt lat="37.7338720" lon="-3.9719670">
        <ele>650.8</ele>
        <time>2021-12-27T16:43:51Z</time>
      </trkpt>
      <trkpt lat="37.7338590" lon="-3.9719980">
        <ele>650.8</ele>
        <time>2021-12-27T16:43:52Z</time>
      </trkpt>
      <trkpt lat="37.7338430" lon="-3.9720280">
        <ele>651.0</ele>
        <time>2021-12-27T16:43:53Z</time>
      </trkpt>
      <trkpt lat="37.7338340" lon="-3.9720600">
        <ele>651.2</ele>
        <time>2021-12-27T16:43:54Z</time>
      </trkpt>
      <trkpt lat="37.7338210" lon="-3.9720950">
        <ele>651.4</ele>
        <time>2021-12-27T16:43:55Z</time>
      </trkpt>
      <trkpt lat="37.7338110" lon="-3.9721200">
        <ele>651.4</ele>
        <time>2021-12-27T16:43:56Z</time>
      </trkpt>
      <trkpt lat="37.7338020" lon="-3.9721500">
        <ele>651.6</ele>
        <time>2021-12-27T16:43:57Z</time>
      </trkpt>
      <trkpt lat="37.7337890" lon="-3.9721830">
        <ele>651.6</ele>
        <time>2021-12-27T16:43:58Z</time>
      </trkpt>
      <trkpt lat="37.7337730" lon="-3.9722230">
        <ele>651.6</ele>
        <time>2021-12-27T16:43:59Z</time>
      </trkpt>
      <trkpt lat="37.7337600" lon="-3.9722530">
        <ele>651.8</ele>
        <time>2021-12-27T16:44:00Z</time>
      </trkpt>
      <trkpt lat="37.7337540" lon="-3.9722780">
        <ele>651.8</ele>
        <time>2021-12-27T16:44:01Z</time>
      </trkpt>
      <trkpt lat="37.7337410" lon="-3.9723080">
        <ele>652.0</ele>
        <time>2021-12-27T16:44:02Z</time>
      </trkpt>
      <trkpt lat="37.7337310" lon="-3.9723380">
        <ele>652.0</ele>
        <time>2021-12-27T16:44:03Z</time>
      </trkpt>
      <trkpt lat="37.7337180" lon="-3.9723730">
        <ele>652.0</ele>
        <time>2021-12-27T16:44:04Z</time>
      </trkpt>
      <trkpt lat="37.7337090" lon="-3.9724100">
        <ele>652.2</ele>
        <time>2021-12-27T16:44:05Z</time>
      </trkpt>
      <trkpt lat="37.7336960" lon="-3.9724530">
        <ele>652.2</ele>
        <time>2021-12-27T16:44:06Z</time>
      </trkpt>
      <trkpt lat="37.7336830" lon="-3.9724820">
        <ele>652.4</ele>
        <time>2021-12-27T16:44:07Z</time>
      </trkpt>
      <trkpt lat="37.7336740" lon="-3.9725150">
        <ele>652.4</ele>
        <time>2021-12-27T16:44:08Z</time>
      </trkpt>
      <trkpt lat="37.7336610" lon="-3.9725500">
        <ele>652.4</ele>
        <time>2021-12-27T16:44:09Z</time>
      </trkpt>
      <trkpt lat="37.7336540" lon="-3.9725830">
        <ele>652.6</ele>
        <time>2021-12-27T16:44:10Z</time>
      </trkpt>
      <trkpt lat="37.7336420" lon="-3.9726200">
        <ele>652.6</ele>
        <time>2021-12-27T16:44:11Z</time>
      </trkpt>
      <trkpt lat="37.7336350" lon="-3.9726550">
        <ele>652.6</ele>
        <time>2021-12-27T16:44:12Z</time>
      </trkpt>
      <trkpt lat="37.7336290" lon="-3.9726880">
        <ele>652.6</ele>
        <time>2021-12-27T16:44:13Z</time>
      </trkpt>
      <trkpt lat="37.7336190" lon="-3.9727220">
        <ele>652.8</ele>
        <time>2021-12-27T16:44:14Z</time>
      </trkpt>
      <trkpt lat="37.7336130" lon="-3.9727570">
        <ele>652.8</ele>
        <time>2021-12-27T16:44:15Z</time>
      </trkpt>
      <trkpt lat="37.7336000" lon="-3.9727920">
        <ele>653.0</ele>
        <time>2021-12-27T16:44:16Z</time>
      </trkpt>
      <trkpt lat="37.7335970" lon="-3.9728270">
        <ele>653.0</ele>
        <time>2021-12-27T16:44:17Z</time>
      </trkpt>
      <trkpt lat="37.7335840" lon="-3.9728560">
        <ele>653.0</ele>
        <time>2021-12-27T16:44:18Z</time>
      </trkpt>
      <trkpt lat="37.7335780" lon="-3.9728900">
        <ele>653.0</ele>
        <time>2021-12-27T16:44:19Z</time>
      </trkpt>
      <trkpt lat="37.7335710" lon="-3.9729230">
        <ele>653.0</ele>
        <time>2021-12-27T16:44:20Z</time>
      </trkpt>
      <trkpt lat="37.7335620" lon="-3.9729570">
        <ele>653.0</ele>
        <time>2021-12-27T16:44:21Z</time>
      </trkpt>
      <trkpt lat="37.7335550" lon="-3.9729920">
        <ele>653.0</ele>
        <time>2021-12-27T16:44:22Z</time>
      </trkpt>
      <trkpt lat="37.7335520" lon="-3.9730280">
        <ele>653.0</ele>
        <time>2021-12-27T16:44:23Z</time>
      </trkpt>
      <trkpt lat="37.7335420" lon="-3.9730670">
        <ele>653.0</ele>
        <time>2021-12-27T16:44:24Z</time>
      </trkpt>
      <trkpt lat="37.7335360" lon="-3.9731050">
        <ele>653.0</ele>
        <time>2021-12-27T16:44:25Z</time>
      </trkpt>
      <trkpt lat="37.7335300" lon="-3.9731380">
        <ele>653.0</ele>
        <time>2021-12-27T16:44:26Z</time>
      </trkpt>
      <trkpt lat="37.7335230" lon="-3.9731730">
        <ele>653.0</ele>
        <time>2021-12-27T16:44:27Z</time>
      </trkpt>
      <trkpt lat="37.7335170" lon="-3.9732120">
        <ele>653.0</ele>
        <time>2021-12-27T16:44:28Z</time>
      </trkpt>
      <trkpt lat="37.7335140" lon="-3.9732520">
        <ele>653.0</ele>
        <time>2021-12-27T16:44:29Z</time>
      </trkpt>
      <trkpt lat="37.7335040" lon="-3.9732920">
        <ele>653.0</ele>
        <time>2021-12-27T16:44:30Z</time>
      </trkpt>
      <trkpt lat="37.7334980" lon="-3.9733400">
        <ele>653.0</ele>
        <time>2021-12-27T16:44:31Z</time>
      </trkpt>
      <trkpt lat="37.7334910" lon="-3.9733750">
        <ele>652.8</ele>
        <time>2021-12-27T16:44:32Z</time>
      </trkpt>
      <trkpt lat="37.7334820" lon="-3.9734200">
        <ele>652.8</ele>
        <time>2021-12-27T16:44:33Z</time>
      </trkpt>
      <trkpt lat="37.7334750" lon="-3.9734630">
        <ele>652.8</ele>
        <time>2021-12-27T16:44:34Z</time>
      </trkpt>
      <trkpt lat="37.7334620" lon="-3.9735050">
        <ele>652.6</ele>
        <time>2021-12-27T16:44:35Z</time>
      </trkpt>
      <trkpt lat="37.7334560" lon="-3.9735470">
        <ele>652.6</ele>
        <time>2021-12-27T16:44:36Z</time>
      </trkpt>
      <trkpt lat="37.7334500" lon="-3.9735850">
        <ele>652.4</ele>
        <time>2021-12-27T16:44:37Z</time>
      </trkpt>
      <trkpt lat="37.7334370" lon="-3.9736320">
        <ele>652.4</ele>
        <time>2021-12-27T16:44:38Z</time>
      </trkpt>
      <trkpt lat="37.7334340" lon="-3.9736600">
        <ele>652.4</ele>
        <time>2021-12-27T16:44:39Z</time>
      </trkpt>
      <trkpt lat="37.7334240" lon="-3.9736970">
        <ele>652.4</ele>
        <time>2021-12-27T16:44:40Z</time>
      </trkpt>
      <trkpt lat="37.7334140" lon="-3.9737370">
        <ele>652.4</ele>
        <time>2021-12-27T16:44:41Z</time>
      </trkpt>
      <trkpt lat="37.7334050" lon="-3.9737720">
        <ele>652.4</ele>
        <time>2021-12-27T16:44:42Z</time>
      </trkpt>
      <trkpt lat="37.7333980" lon="-3.9738080">
        <ele>652.6</ele>
        <time>2021-12-27T16:44:43Z</time>
      </trkpt>
      <trkpt lat="37.7333920" lon="-3.9738470">
        <ele>652.6</ele>
        <time>2021-12-27T16:44:44Z</time>
      </trkpt>
      <trkpt lat="37.7333790" lon="-3.9738920">
        <ele>652.4</ele>
        <time>2021-12-27T16:44:45Z</time>
      </trkpt>
      <trkpt lat="37.7333730" lon="-3.9739220">
        <ele>652.4</ele>
        <time>2021-12-27T16:44:46Z</time>
      </trkpt>
      <trkpt lat="37.7333630" lon="-3.9739580">
        <ele>652.4</ele>
        <time>2021-12-27T16:44:47Z</time>
      </trkpt>
      <trkpt lat="37.7333570" lon="-3.9739950">
        <ele>652.4</ele>
        <time>2021-12-27T16:44:48Z</time>
      </trkpt>
      <trkpt lat="37.7333440" lon="-3.9740280">
        <ele>652.4</ele>
        <time>2021-12-27T16:44:49Z</time>
      </trkpt>
      <trkpt lat="37.7333380" lon="-3.9740600">
        <ele>652.4</ele>
        <time>2021-12-27T16:44:50Z</time>
      </trkpt>
      <trkpt lat="37.7333250" lon="-3.9740970">
        <ele>652.4</ele>
        <time>2021-12-27T16:44:51Z</time>
      </trkpt>
      <trkpt lat="37.7333180" lon="-3.9741320">
        <ele>652.4</ele>
        <time>2021-12-27T16:44:52Z</time>
      </trkpt>
      <trkpt lat="37.7333120" lon="-3.9741650">
        <ele>652.6</ele>
        <time>2021-12-27T16:44:53Z</time>
      </trkpt>
      <trkpt lat="37.7333020" lon="-3.9741980">
        <ele>652.6</ele>
        <time>2021-12-27T16:44:54Z</time>
      </trkpt>
      <trkpt lat="37.7332960" lon="-3.9742350">
        <ele>652.6</ele>
        <time>2021-12-27T16:44:55Z</time>
      </trkpt>
      <trkpt lat="37.7332860" lon="-3.9742680">
        <ele>652.6</ele>
        <time>2021-12-27T16:44:56Z</time>
      </trkpt>
      <trkpt lat="37.7332830" lon="-3.9743050">
        <ele>652.8</ele>
        <time>2021-12-27T16:44:57Z</time>
      </trkpt>
      <trkpt lat="37.7332770" lon="-3.9743400">
        <ele>652.8</ele>
        <time>2021-12-27T16:44:58Z</time>
      </trkpt>
      <trkpt lat="37.7332640" lon="-3.9743730">
        <ele>652.8</ele>
        <time>2021-12-27T16:44:59Z</time>
      </trkpt>
      <trkpt lat="37.7332580" lon="-3.9744080">
        <ele>653.0</ele>
        <time>2021-12-27T16:45:00Z</time>
      </trkpt>
      <trkpt lat="37.7332510" lon="-3.9744400">
        <ele>653.0</ele>
        <time>2021-12-27T16:45:01Z</time>
      </trkpt>
      <trkpt lat="37.7332380" lon="-3.9744720">
        <ele>653.0</ele>
        <time>2021-12-27T16:45:02Z</time>
      </trkpt>
      <trkpt lat="37.7332320" lon="-3.9745030">
        <ele>653.0</ele>
        <time>2021-12-27T16:45:03Z</time>
      </trkpt>
      <trkpt lat="37.7332220" lon="-3.9745350">
        <ele>653.2</ele>
        <time>2021-12-27T16:45:04Z</time>
      </trkpt>
      <trkpt lat="37.7332130" lon="-3.9745670">
        <ele>653.2</ele>
        <time>2021-12-27T16:45:05Z</time>
      </trkpt>
      <trkpt lat="37.7332000" lon="-3.9745980">
        <ele>653.2</ele>
        <time>2021-12-27T16:45:06Z</time>
      </trkpt>
      <trkpt lat="37.7331940" lon="-3.9746280">
        <ele>653.4</ele>
        <time>2021-12-27T16:45:07Z</time>
      </trkpt>
      <trkpt lat="37.7331810" lon="-3.9746580">
        <ele>653.4</ele>
        <time>2021-12-27T16:45:08Z</time>
      </trkpt>
      <trkpt lat="37.7331680" lon="-3.9746900">
        <ele>653.6</ele>
        <time>2021-12-27T16:45:09Z</time>
      </trkpt>
      <trkpt lat="37.7331580" lon="-3.9747280">
        <ele>653.6</ele>
        <time>2021-12-27T16:45:10Z</time>
      </trkpt>
      <trkpt lat="37.7331460" lon="-3.9747550">
        <ele>653.8</ele>
        <time>2021-12-27T16:45:11Z</time>
      </trkpt>
      <trkpt lat="37.7331390" lon="-3.9747880">
        <ele>653.8</ele>
        <time>2021-12-27T16:45:12Z</time>
      </trkpt>
      <trkpt lat="37.7331260" lon="-3.9748220">
        <ele>654.0</ele>
        <time>2021-12-27T16:45:13Z</time>
      </trkpt>
      <trkpt lat="37.7331170" lon="-3.9748530">
        <ele>654.0</ele>
        <time>2021-12-27T16:45:14Z</time>
      </trkpt>
      <trkpt lat="37.7331040" lon="-3.9748880">
        <ele>654.0</ele>
        <time>2021-12-27T16:45:15Z</time>
      </trkpt>
      <trkpt lat="37.7330940" lon="-3.9749200">
        <ele>654.0</ele>
        <time>2021-12-27T16:45:16Z</time>
      </trkpt>
      <trkpt lat="37.7330780" lon="-3.9749540">
        <ele>654.0</ele>
        <time>2021-12-27T16:45:17Z</time>
      </trkpt>
      <trkpt lat="37.7330620" lon="-3.9749860">
        <ele>654.2</ele>
        <time>2021-12-27T16:45:18Z</time>
      </trkpt>
      <trkpt lat="37.7330460" lon="-3.9750200">
        <ele>654.2</ele>
        <time>2021-12-27T16:45:19Z</time>
      </trkpt>
      <trkpt lat="37.7330340" lon="-3.9750520">
        <ele>654.2</ele>
        <time>2021-12-27T16:45:20Z</time>
      </trkpt>
      <trkpt lat="37.7330210" lon="-3.9750830">
        <ele>654.2</ele>
        <time>2021-12-27T16:45:21Z</time>
      </trkpt>
      <trkpt lat="37.7330050" lon="-3.9751170">
        <ele>654.2</ele>
        <time>2021-12-27T16:45:22Z</time>
      </trkpt>
      <trkpt lat="37.7329950" lon="-3.9751500">
        <ele>654.2</ele>
        <time>2021-12-27T16:45:23Z</time>
      </trkpt>
      <trkpt lat="37.7329790" lon="-3.9751830">
        <ele>654.4</ele>
        <time>2021-12-27T16:45:24Z</time>
      </trkpt>
      <trkpt lat="37.7329630" lon="-3.9752150">
        <ele>654.4</ele>
        <time>2021-12-27T16:45:25Z</time>
      </trkpt>
      <trkpt lat="37.7329470" lon="-3.9752450">
        <ele>654.6</ele>
        <time>2021-12-27T16:45:26Z</time>
      </trkpt>
      <trkpt lat="37.7329340" lon="-3.9752780">
        <ele>654.6</ele>
        <time>2021-12-27T16:45:27Z</time>
      </trkpt>
      <trkpt lat="37.7329220" lon="-3.9753020">
        <ele>654.8</ele>
        <time>2021-12-27T16:45:28Z</time>
      </trkpt>
      <trkpt lat="37.7329060" lon="-3.9753320">
        <ele>654.8</ele>
        <time>2021-12-27T16:45:29Z</time>
      </trkpt>
      <trkpt lat="37.7328900" lon="-3.9753630">
        <ele>654.8</ele>
        <time>2021-12-27T16:45:30Z</time>
      </trkpt>
      <trkpt lat="37.7328800" lon="-3.9753950">
        <ele>655.0</ele>
        <time>2021-12-27T16:45:31Z</time>
      </trkpt>
      <trkpt lat="37.7328640" lon="-3.9754280">
        <ele>655.0</ele>
        <time>2021-12-27T16:45:32Z</time>
      </trkpt>
      <trkpt lat="37.7328480" lon="-3.9754620">
        <ele>655.2</ele>
        <time>2021-12-27T16:45:33Z</time>
      </trkpt>
      <trkpt lat="37.7328290" lon="-3.9754940">
        <ele>655.4</ele>
        <time>2021-12-27T16:45:34Z</time>
      </trkpt>
      <trkpt lat="37.7328100" lon="-3.9755330">
        <ele>655.4</ele>
        <time>2021-12-27T16:45:35Z</time>
      </trkpt>
      <trkpt lat="37.7327900" lon="-3.9755670">
        <ele>655.6</ele>
        <time>2021-12-27T16:45:36Z</time>
      </trkpt>
      <trkpt lat="37.7327810" lon="-3.9755900">
        <ele>655.6</ele>
        <time>2021-12-27T16:45:37Z</time>
      </trkpt>
      <trkpt lat="37.7327620" lon="-3.9756220">
        <ele>655.8</ele>
        <time>2021-12-27T16:45:38Z</time>
      </trkpt>
      <trkpt lat="37.7327460" lon="-3.9756500">
        <ele>655.8</ele>
        <time>2021-12-27T16:45:39Z</time>
      </trkpt>
      <trkpt lat="37.7327300" lon="-3.9756780">
        <ele>655.8</ele>
        <time>2021-12-27T16:45:40Z</time>
      </trkpt>
      <trkpt lat="37.7327170" lon="-3.9757060">
        <ele>655.8</ele>
        <time>2021-12-27T16:45:41Z</time>
      </trkpt>
      <trkpt lat="37.7326880" lon="-3.9757330">
        <ele>656.0</ele>
        <time>2021-12-27T16:45:42Z</time>
      </trkpt>
      <trkpt lat="37.7326880" lon="-3.9757330">
        <ele>656.0</ele>
        <time>2021-12-27T16:45:43Z</time>
      </trkpt>
      <trkpt lat="37.7326510" lon="-3.9757900">
        <ele>656.2</ele>
        <time>2021-12-27T16:45:44Z</time>
      </trkpt>
      <trkpt lat="37.7326430" lon="-3.9758030">
        <ele>656.2</ele>
        <time>2021-12-27T16:45:45Z</time>
      </trkpt>
      <trkpt lat="37.7326210" lon="-3.9758320">
        <ele>656.4</ele>
        <time>2021-12-27T16:45:46Z</time>
      </trkpt>
      <trkpt lat="37.7326020" lon="-3.9758600">
        <ele>656.6</ele>
        <time>2021-12-27T16:45:47Z</time>
      </trkpt>
      <trkpt lat="37.7325790" lon="-3.9758880">
        <ele>656.8</ele>
        <time>2021-12-27T16:45:48Z</time>
      </trkpt>
      <trkpt lat="37.7325600" lon="-3.9759170">
        <ele>656.8</ele>
        <time>2021-12-27T16:45:49Z</time>
      </trkpt>
      <trkpt lat="37.7325410" lon="-3.9759470">
        <ele>657.0</ele>
        <time>2021-12-27T16:45:50Z</time>
      </trkpt>
      <trkpt lat="37.7325180" lon="-3.9759780">
        <ele>657.2</ele>
        <time>2021-12-27T16:45:51Z</time>
      </trkpt>
      <trkpt lat="37.7324930" lon="-3.9760050">
        <ele>657.2</ele>
        <time>2021-12-27T16:45:52Z</time>
      </trkpt>
      <trkpt lat="37.7324700" lon="-3.9760400">
        <ele>657.4</ele>
        <time>2021-12-27T16:45:53Z</time>
      </trkpt>
      <trkpt lat="37.7324510" lon="-3.9760630">
        <ele>657.4</ele>
        <time>2021-12-27T16:45:54Z</time>
      </trkpt>
      <trkpt lat="37.7324290" lon="-3.9760950">
        <ele>657.6</ele>
        <time>2021-12-27T16:45:55Z</time>
      </trkpt>
      <trkpt lat="37.7324060" lon="-3.9761230">
        <ele>657.6</ele>
        <time>2021-12-27T16:45:56Z</time>
      </trkpt>
      <trkpt lat="37.7323840" lon="-3.9761520">
        <ele>657.8</ele>
        <time>2021-12-27T16:45:57Z</time>
      </trkpt>
      <trkpt lat="37.7323650" lon="-3.9761750">
        <ele>658.0</ele>
        <time>2021-12-27T16:45:58Z</time>
      </trkpt>
      <trkpt lat="37.7323420" lon="-3.9761980">
        <ele>658.0</ele>
        <time>2021-12-27T16:45:59Z</time>
      </trkpt>
      <trkpt lat="37.7323200" lon="-3.9762280">
        <ele>658.2</ele>
        <time>2021-12-27T16:46:00Z</time>
      </trkpt>
      <trkpt lat="37.7322910" lon="-3.9762600">
        <ele>658.4</ele>
        <time>2021-12-27T16:46:01Z</time>
      </trkpt>
      <trkpt lat="37.7322690" lon="-3.9762920">
        <ele>658.6</ele>
        <time>2021-12-27T16:46:02Z</time>
      </trkpt>
      <trkpt lat="37.7322430" lon="-3.9763270">
        <ele>658.6</ele>
        <time>2021-12-27T16:46:03Z</time>
      </trkpt>
      <trkpt lat="37.7322240" lon="-3.9763480">
        <ele>658.8</ele>
        <time>2021-12-27T16:46:04Z</time>
      </trkpt>
      <trkpt lat="37.7321980" lon="-3.9763750">
        <ele>659.0</ele>
        <time>2021-12-27T16:46:05Z</time>
      </trkpt>
      <trkpt lat="37.7321700" lon="-3.9764030">
        <ele>659.2</ele>
        <time>2021-12-27T16:46:06Z</time>
      </trkpt>
      <trkpt lat="37.7321440" lon="-3.9764380">
        <ele>659.2</ele>
        <time>2021-12-27T16:46:07Z</time>
      </trkpt>
      <trkpt lat="37.7321150" lon="-3.9764600">
        <ele>659.4</ele>
        <time>2021-12-27T16:46:08Z</time>
      </trkpt>
      <trkpt lat="37.7320930" lon="-3.9764880">
        <ele>659.4</ele>
        <time>2021-12-27T16:46:09Z</time>
      </trkpt>
      <trkpt lat="37.7320670" lon="-3.9765130">
        <ele>659.6</ele>
        <time>2021-12-27T16:46:10Z</time>
      </trkpt>
      <trkpt lat="37.7320420" lon="-3.9765400">
        <ele>659.6</ele>
        <time>2021-12-27T16:46:11Z</time>
      </trkpt>
      <trkpt lat="37.7320100" lon="-3.9765740">
        <ele>659.8</ele>
        <time>2021-12-27T16:46:12Z</time>
      </trkpt>
      <trkpt lat="37.7319870" lon="-3.9765960">
        <ele>660.0</ele>
        <time>2021-12-27T16:46:13Z</time>
      </trkpt>
      <trkpt lat="37.7319550" lon="-3.9766280">
        <ele>660.0</ele>
        <time>2021-12-27T16:46:14Z</time>
      </trkpt>
      <trkpt lat="37.7319360" lon="-3.9766470">
        <ele>660.2</ele>
        <time>2021-12-27T16:46:15Z</time>
      </trkpt>
      <trkpt lat="37.7319100" lon="-3.9766730">
        <ele>660.4</ele>
        <time>2021-12-27T16:46:16Z</time>
      </trkpt>
      <trkpt lat="37.7318850" lon="-3.9766950">
        <ele>660.8</ele>
        <time>2021-12-27T16:46:17Z</time>
      </trkpt>
      <trkpt lat="37.7318660" lon="-3.9767140">
        <ele>661.0</ele>
        <time>2021-12-27T16:46:18Z</time>
      </trkpt>
      <trkpt lat="37.7318370" lon="-3.9767360">
        <ele>661.2</ele>
        <time>2021-12-27T16:46:19Z</time>
      </trkpt>
      <trkpt lat="37.7318110" lon="-3.9767600">
        <ele>661.4</ele>
        <time>2021-12-27T16:46:20Z</time>
      </trkpt>
      <trkpt lat="37.7317860" lon="-3.9767850">
        <ele>661.6</ele>
        <time>2021-12-27T16:46:21Z</time>
      </trkpt>
      <trkpt lat="37.7317540" lon="-3.9768080">
        <ele>661.8</ele>
        <time>2021-12-27T16:46:22Z</time>
      </trkpt>
      <trkpt lat="37.7317280" lon="-3.9768300">
        <ele>662.0</ele>
        <time>2021-12-27T16:46:23Z</time>
      </trkpt>
      <trkpt lat="37.7317020" lon="-3.9768550">
        <ele>662.2</ele>
        <time>2021-12-27T16:46:24Z</time>
      </trkpt>
      <trkpt lat="37.7316670" lon="-3.9768820">
        <ele>662.4</ele>
        <time>2021-12-27T16:46:25Z</time>
      </trkpt>
      <trkpt lat="37.7316380" lon="-3.9769020">
        <ele>662.6</ele>
        <time>2021-12-27T16:46:26Z</time>
      </trkpt>
      <trkpt lat="37.7316130" lon="-3.9769150">
        <ele>662.6</ele>
        <time>2021-12-27T16:46:27Z</time>
      </trkpt>
      <trkpt lat="37.7315870" lon="-3.9769320">
        <ele>662.6</ele>
        <time>2021-12-27T16:46:28Z</time>
      </trkpt>
      <trkpt lat="37.7315550" lon="-3.9769520">
        <ele>662.8</ele>
        <time>2021-12-27T16:46:29Z</time>
      </trkpt>
      <trkpt lat="37.7315300" lon="-3.9769720">
        <ele>662.8</ele>
        <time>2021-12-27T16:46:30Z</time>
      </trkpt>
      <trkpt lat="37.7314940" lon="-3.9769920">
        <ele>662.8</ele>
        <time>2021-12-27T16:46:31Z</time>
      </trkpt>
      <trkpt lat="37.7314690" lon="-3.9770080">
        <ele>662.8</ele>
        <time>2021-12-27T16:46:32Z</time>
      </trkpt>
      <trkpt lat="37.7314370" lon="-3.9770300">
        <ele>662.8</ele>
        <time>2021-12-27T16:46:33Z</time>
      </trkpt>
      <trkpt lat="37.7314050" lon="-3.9770520">
        <ele>662.8</ele>
        <time>2021-12-27T16:46:34Z</time>
      </trkpt>
      <trkpt lat="37.7313730" lon="-3.9770720">
        <ele>662.8</ele>
        <time>2021-12-27T16:46:35Z</time>
      </trkpt>
      <trkpt lat="37.7313380" lon="-3.9770930">
        <ele>662.8</ele>
        <time>2021-12-27T16:46:36Z</time>
      </trkpt>
      <trkpt lat="37.7313090" lon="-3.9771130">
        <ele>662.6</ele>
        <time>2021-12-27T16:46:37Z</time>
      </trkpt>
      <trkpt lat="37.7312740" lon="-3.9771330">
        <ele>662.6</ele>
        <time>2021-12-27T16:46:38Z</time>
      </trkpt>
      <trkpt lat="37.7312350" lon="-3.9771530">
        <ele>662.4</ele>
        <time>2021-12-27T16:46:39Z</time>
      </trkpt>
      <trkpt lat="37.7312130" lon="-3.9771650">
        <ele>662.4</ele>
        <time>2021-12-27T16:46:40Z</time>
      </trkpt>
      <trkpt lat="37.7311780" lon="-3.9771850">
        <ele>662.2</ele>
        <time>2021-12-27T16:46:41Z</time>
      </trkpt>
      <trkpt lat="37.7311520" lon="-3.9772030">
        <ele>662.0</ele>
        <time>2021-12-27T16:46:42Z</time>
      </trkpt>
      <trkpt lat="37.7311200" lon="-3.9772230">
        <ele>662.0</ele>
        <time>2021-12-27T16:46:43Z</time>
      </trkpt>
      <trkpt lat="37.7310910" lon="-3.9772440">
        <ele>661.8</ele>
        <time>2021-12-27T16:46:44Z</time>
      </trkpt>
      <trkpt lat="37.7310590" lon="-3.9772650">
        <ele>661.6</ele>
        <time>2021-12-27T16:46:45Z</time>
      </trkpt>
      <trkpt lat="37.7310270" lon="-3.9772840">
        <ele>661.6</ele>
        <time>2021-12-27T16:46:46Z</time>
      </trkpt>
      <trkpt lat="37.7309950" lon="-3.9773030">
        <ele>661.4</ele>
        <time>2021-12-27T16:46:47Z</time>
      </trkpt>
      <trkpt lat="37.7309540" lon="-3.9773280">
        <ele>661.2</ele>
        <time>2021-12-27T16:46:48Z</time>
      </trkpt>
      <trkpt lat="37.7309220" lon="-3.9773480">
        <ele>661.2</ele>
        <time>2021-12-27T16:46:49Z</time>
      </trkpt>
      <trkpt lat="37.7308990" lon="-3.9773630">
        <ele>661.2</ele>
        <time>2021-12-27T16:46:50Z</time>
      </trkpt>
      <trkpt lat="37.7308640" lon="-3.9773820">
        <ele>661.2</ele>
        <time>2021-12-27T16:46:51Z</time>
      </trkpt>
      <trkpt lat="37.7308350" lon="-3.9774020">
        <ele>661.0</ele>
        <time>2021-12-27T16:46:52Z</time>
      </trkpt>
      <trkpt lat="37.7307970" lon="-3.9774230">
        <ele>661.0</ele>
        <time>2021-12-27T16:46:53Z</time>
      </trkpt>
      <trkpt lat="37.7307650" lon="-3.9774460">
        <ele>661.0</ele>
        <time>2021-12-27T16:46:54Z</time>
      </trkpt>
      <trkpt lat="37.7307300" lon="-3.9774730">
        <ele>661.0</ele>
        <time>2021-12-27T16:46:55Z</time>
      </trkpt>
      <trkpt lat="37.7306980" lon="-3.9774900">
        <ele>660.8</ele>
        <time>2021-12-27T16:46:56Z</time>
      </trkpt>
      <trkpt lat="37.7306620" lon="-3.9775120">
        <ele>660.8</ele>
        <time>2021-12-27T16:46:57Z</time>
      </trkpt>
      <trkpt lat="37.7306300" lon="-3.9775330">
        <ele>660.8</ele>
        <time>2021-12-27T16:46:58Z</time>
      </trkpt>
      <trkpt lat="37.7305980" lon="-3.9775530">
        <ele>660.8</ele>
        <time>2021-12-27T16:46:59Z</time>
      </trkpt>
      <trkpt lat="37.7305630" lon="-3.9775700">
        <ele>660.8</ele>
        <time>2021-12-27T16:47:00Z</time>
      </trkpt>
      <trkpt lat="37.7305310" lon="-3.9775900">
        <ele>660.8</ele>
        <time>2021-12-27T16:47:01Z</time>
      </trkpt>
      <trkpt lat="37.7304930" lon="-3.9776080">
        <ele>660.8</ele>
        <time>2021-12-27T16:47:02Z</time>
      </trkpt>
      <trkpt lat="37.7304580" lon="-3.9776280">
        <ele>660.8</ele>
        <time>2021-12-27T16:47:03Z</time>
      </trkpt>
      <trkpt lat="37.7304260" lon="-3.9776460">
        <ele>660.6</ele>
        <time>2021-12-27T16:47:04Z</time>
      </trkpt>
      <trkpt lat="37.7303940" lon="-3.9776670">
        <ele>660.6</ele>
        <time>2021-12-27T16:47:05Z</time>
      </trkpt>
      <trkpt lat="37.7303580" lon="-3.9776880">
        <ele>660.6</ele>
        <time>2021-12-27T16:47:06Z</time>
      </trkpt>
      <trkpt lat="37.7303230" lon="-3.9777080">
        <ele>660.6</ele>
        <time>2021-12-27T16:47:07Z</time>
      </trkpt>
      <trkpt lat="37.7302880" lon="-3.9777280">
        <ele>660.6</ele>
        <time>2021-12-27T16:47:08Z</time>
      </trkpt>
      <trkpt lat="37.7302560" lon="-3.9777500">
        <ele>660.4</ele>
        <time>2021-12-27T16:47:09Z</time>
      </trkpt>
      <trkpt lat="37.7302240" lon="-3.9777680">
        <ele>660.4</ele>
        <time>2021-12-27T16:47:10Z</time>
      </trkpt>
      <trkpt lat="37.7301860" lon="-3.9777920">
        <ele>660.4</ele>
        <time>2021-12-27T16:47:11Z</time>
      </trkpt>
      <trkpt lat="37.7301600" lon="-3.9778060">
        <ele>660.4</ele>
        <time>2021-12-27T16:47:12Z</time>
      </trkpt>
      <trkpt lat="37.7301250" lon="-3.9778260">
        <ele>660.4</ele>
        <time>2021-12-27T16:47:13Z</time>
      </trkpt>
      <trkpt lat="37.7300960" lon="-3.9778480">
        <ele>660.4</ele>
        <time>2021-12-27T16:47:14Z</time>
      </trkpt>
      <trkpt lat="37.7300610" lon="-3.9778670">
        <ele>660.4</ele>
        <time>2021-12-27T16:47:15Z</time>
      </trkpt>
      <trkpt lat="37.7300290" lon="-3.9778850">
        <ele>660.2</ele>
        <time>2021-12-27T16:47:16Z</time>
      </trkpt>
      <trkpt lat="37.7299970" lon="-3.9779050">
        <ele>660.2</ele>
        <time>2021-12-27T16:47:17Z</time>
      </trkpt>
      <trkpt lat="37.7299620" lon="-3.9779250">
        <ele>660.2</ele>
        <time>2021-12-27T16:47:18Z</time>
      </trkpt>
      <trkpt lat="37.7299260" lon="-3.9779450">
        <ele>660.0</ele>
        <time>2021-12-27T16:47:19Z</time>
      </trkpt>
      <trkpt lat="37.7298980" lon="-3.9779640">
        <ele>660.0</ele>
        <time>2021-12-27T16:47:20Z</time>
      </trkpt>
      <trkpt lat="37.7298660" lon="-3.9779820">
        <ele>660.0</ele>
        <time>2021-12-27T16:47:21Z</time>
      </trkpt>
      <trkpt lat="37.7298370" lon="-3.9780050">
        <ele>659.8</ele>
        <time>2021-12-27T16:47:22Z</time>
      </trkpt>
      <trkpt lat="37.7298020" lon="-3.9780270">
        <ele>659.8</ele>
        <time>2021-12-27T16:47:23Z</time>
      </trkpt>
      <trkpt lat="37.7297700" lon="-3.9780470">
        <ele>659.8</ele>
        <time>2021-12-27T16:47:24Z</time>
      </trkpt>
      <trkpt lat="37.7297410" lon="-3.9780630">
        <ele>659.6</ele>
        <time>2021-12-27T16:47:25Z</time>
      </trkpt>
      <trkpt lat="37.7297120" lon="-3.9780780">
        <ele>659.6</ele>
        <time>2021-12-27T16:47:26Z</time>
      </trkpt>
      <trkpt lat="37.7296830" lon="-3.9780950">
        <ele>659.6</ele>
        <time>2021-12-27T16:47:27Z</time>
      </trkpt>
      <trkpt lat="37.7296640" lon="-3.9781070">
        <ele>659.6</ele>
        <time>2021-12-27T16:47:28Z</time>
      </trkpt>
      <trkpt lat="37.7296380" lon="-3.9781220">
        <ele>659.6</ele>
        <time>2021-12-27T16:47:29Z</time>
      </trkpt>
      <trkpt lat="37.7296100" lon="-3.9781360">
        <ele>659.6</ele>
        <time>2021-12-27T16:47:30Z</time>
      </trkpt>
      <trkpt lat="37.7295810" lon="-3.9781530">
        <ele>659.4</ele>
        <time>2021-12-27T16:47:31Z</time>
      </trkpt>
      <trkpt lat="37.7295490" lon="-3.9781680">
        <ele>659.4</ele>
        <time>2021-12-27T16:47:32Z</time>
      </trkpt>
      <trkpt lat="37.7295200" lon="-3.9781870">
        <ele>659.4</ele>
        <time>2021-12-27T16:47:33Z</time>
      </trkpt>
      <trkpt lat="37.7294880" lon="-3.9782080">
        <ele>659.2</ele>
        <time>2021-12-27T16:47:34Z</time>
      </trkpt>
      <trkpt lat="37.7294590" lon="-3.9782250">
        <ele>659.2</ele>
        <time>2021-12-27T16:47:35Z</time>
      </trkpt>
      <trkpt lat="37.7294240" lon="-3.9782430">
        <ele>659.2</ele>
        <time>2021-12-27T16:47:36Z</time>
      </trkpt>
      <trkpt lat="37.7293920" lon="-3.9782600">
        <ele>659.0</ele>
        <time>2021-12-27T16:47:37Z</time>
      </trkpt>
      <trkpt lat="37.7293600" lon="-3.9782770">
        <ele>659.0</ele>
        <time>2021-12-27T16:47:38Z</time>
      </trkpt>
      <trkpt lat="37.7293150" lon="-3.9782970">
        <ele>659.0</ele>
        <time>2021-12-27T16:47:39Z</time>
      </trkpt>
      <trkpt lat="37.7292900" lon="-3.9783140">
        <ele>659.0</ele>
        <time>2021-12-27T16:47:40Z</time>
      </trkpt>
      <trkpt lat="37.7292610" lon="-3.9783340">
        <ele>659.0</ele>
        <time>2021-12-27T16:47:41Z</time>
      </trkpt>
      <trkpt lat="37.7292290" lon="-3.9783500">
        <ele>659.0</ele>
        <time>2021-12-27T16:47:42Z</time>
      </trkpt>
      <trkpt lat="37.7292000" lon="-3.9783650">
        <ele>659.0</ele>
        <time>2021-12-27T16:47:43Z</time>
      </trkpt>
      <trkpt lat="37.7291680" lon="-3.9783780">
        <ele>659.0</ele>
        <time>2021-12-27T16:47:44Z</time>
      </trkpt>
      <trkpt lat="37.7291460" lon="-3.9783920">
        <ele>659.0</ele>
        <time>2021-12-27T16:47:45Z</time>
      </trkpt>
      <trkpt lat="37.7291230" lon="-3.9784050">
        <ele>659.0</ele>
        <time>2021-12-27T16:47:46Z</time>
      </trkpt>
      <trkpt lat="37.7291040" lon="-3.9784150">
        <ele>659.0</ele>
        <time>2021-12-27T16:47:47Z</time>
      </trkpt>
      <trkpt lat="37.7290820" lon="-3.9784250">
        <ele>659.0</ele>
        <time>2021-12-27T16:47:48Z</time>
      </trkpt>
      <trkpt lat="37.7290620" lon="-3.9784350">
        <ele>658.8</ele>
        <time>2021-12-27T16:47:49Z</time>
      </trkpt>
      <trkpt lat="37.7290430" lon="-3.9784450">
        <ele>658.8</ele>
        <time>2021-12-27T16:47:50Z</time>
      </trkpt>
      <trkpt lat="37.7290430" lon="-3.9784450">
        <ele>658.8</ele>
        <time>2021-12-27T16:47:51Z</time>
      </trkpt>
      <trkpt lat="37.7290020" lon="-3.9784650">
        <ele>658.8</ele>
        <time>2021-12-27T16:47:52Z</time>
      </trkpt>
      <trkpt lat="37.7290020" lon="-3.9784650">
        <ele>658.8</ele>
        <time>2021-12-27T16:47:53Z</time>
      </trkpt>
      <trkpt lat="37.7289700" lon="-3.9784830">
        <ele>659.0</ele>
        <time>2021-12-27T16:47:54Z</time>
      </trkpt>
      <trkpt lat="37.7289500" lon="-3.9784900">
        <ele>659.0</ele>
        <time>2021-12-27T16:47:55Z</time>
      </trkpt>
      <trkpt lat="37.7289310" lon="-3.9784980">
        <ele>659.0</ele>
        <time>2021-12-27T16:47:56Z</time>
      </trkpt>
      <trkpt lat="37.7289120" lon="-3.9785060">
        <ele>659.2</ele>
        <time>2021-12-27T16:47:57Z</time>
      </trkpt>
      <trkpt lat="37.7288930" lon="-3.9785150">
        <ele>659.2</ele>
        <time>2021-12-27T16:47:58Z</time>
      </trkpt>
      <trkpt lat="37.7288700" lon="-3.9785280">
        <ele>659.4</ele>
        <time>2021-12-27T16:47:59Z</time>
      </trkpt>
      <trkpt lat="37.7288700" lon="-3.9785280">
        <ele>659.4</ele>
        <time>2021-12-27T16:48:00Z</time>
      </trkpt>
      <trkpt lat="37.7288350" lon="-3.9785430">
        <ele>659.4</ele>
        <time>2021-12-27T16:48:01Z</time>
      </trkpt>
      <trkpt lat="37.7288160" lon="-3.9785520">
        <ele>659.2</ele>
        <time>2021-12-27T16:48:02Z</time>
      </trkpt>
      <trkpt lat="37.7288160" lon="-3.9785520">
        <ele>659.2</ele>
        <time>2021-12-27T16:48:03Z</time>
      </trkpt>
      <trkpt lat="37.7287840" lon="-3.9785720">
        <ele>659.2</ele>
        <time>2021-12-27T16:48:04Z</time>
      </trkpt>
      <trkpt lat="37.7287650" lon="-3.9785800">
        <ele>659.4</ele>
        <time>2021-12-27T16:48:05Z</time>
      </trkpt>
      <trkpt lat="37.7287650" lon="-3.9785800">
        <ele>659.4</ele>
        <time>2021-12-27T16:48:06Z</time>
      </trkpt>
      <trkpt lat="37.7287330" lon="-3.9786020">
        <ele>659.4</ele>
        <time>2021-12-27T16:48:07Z</time>
      </trkpt>
      <trkpt lat="37.7287170" lon="-3.9786130">
        <ele>659.4</ele>
        <time>2021-12-27T16:48:08Z</time>
      </trkpt>
      <trkpt lat="37.7287170" lon="-3.9786130">
        <ele>659.4</ele>
        <time>2021-12-27T16:48:09Z</time>
      </trkpt>
      <trkpt lat="37.7286880" lon="-3.9786370">
        <ele>659.4</ele>
        <time>2021-12-27T16:48:10Z</time>
      </trkpt>
      <trkpt lat="37.7286720" lon="-3.9786500">
        <ele>659.4</ele>
        <time>2021-12-27T16:48:11Z</time>
      </trkpt>
      <trkpt lat="37.7286720" lon="-3.9786500">
        <ele>659.4</ele>
        <time>2021-12-27T16:48:12Z</time>
      </trkpt>
      <trkpt lat="37.7286400" lon="-3.9786740">
        <ele>659.4</ele>
        <time>2021-12-27T16:48:13Z</time>
      </trkpt>
      <trkpt lat="37.7286400" lon="-3.9786740">
        <ele>659.6</ele>
        <time>2021-12-27T16:48:14Z</time>
      </trkpt>
      <trkpt lat="37.7286110" lon="-3.9786950">
        <ele>659.6</ele>
        <time>2021-12-27T16:48:15Z</time>
      </trkpt>
      <trkpt lat="37.7285950" lon="-3.9787080">
        <ele>659.8</ele>
        <time>2021-12-27T16:48:16Z</time>
      </trkpt>
      <trkpt lat="37.7285790" lon="-3.9787230">
        <ele>659.8</ele>
        <time>2021-12-27T16:48:17Z</time>
      </trkpt>
      <trkpt lat="37.7285660" lon="-3.9787400">
        <ele>659.8</ele>
        <time>2021-12-27T16:48:18Z</time>
      </trkpt>
      <trkpt lat="37.7285500" lon="-3.9787530">
        <ele>659.8</ele>
        <time>2021-12-27T16:48:19Z</time>
      </trkpt>
      <trkpt lat="37.7285310" lon="-3.9787630">
        <ele>660.0</ele>
        <time>2021-12-27T16:48:20Z</time>
      </trkpt>
      <trkpt lat="37.7285310" lon="-3.9787630">
        <ele>660.0</ele>
        <time>2021-12-27T16:48:21Z</time>
      </trkpt>
      <trkpt lat="37.7285090" lon="-3.9787700">
        <ele>660.0</ele>
        <time>2021-12-27T16:48:22Z</time>
      </trkpt>
      <trkpt lat="37.7285090" lon="-3.9787700">
        <ele>660.2</ele>
        <time>2021-12-27T16:48:23Z</time>
      </trkpt>
      <trkpt lat="37.7285090" lon="-3.9787700">
        <ele>660.2</ele>
        <time>2021-12-27T16:48:24Z</time>
      </trkpt>
      <trkpt lat="37.7285090" lon="-3.9787700">
        <ele>660.4</ele>
        <time>2021-12-27T16:48:25Z</time>
      </trkpt>
      <trkpt lat="37.7284900" lon="-3.9787700">
        <ele>660.4</ele>
        <time>2021-12-27T16:48:26Z</time>
      </trkpt>
      <trkpt lat="37.7284900" lon="-3.9787700">
        <ele>660.6</ele>
        <time>2021-12-27T16:48:27Z</time>
      </trkpt>
      <trkpt lat="37.7282210" lon="-3.9787230">
        <ele>661.4</ele>
        <time>2021-12-27T16:48:45Z</time>
      </trkpt>
      <trkpt lat="37.7281820" lon="-3.9787270">
        <ele>661.6</ele>
        <time>2021-12-27T16:48:46Z</time>
      </trkpt>
      <trkpt lat="37.7281410" lon="-3.9787270">
        <ele>661.6</ele>
        <time>2021-12-27T16:48:47Z</time>
      </trkpt>
      <trkpt lat="37.7280990" lon="-3.9787320">
        <ele>661.6</ele>
        <time>2021-12-27T16:48:48Z</time>
      </trkpt>
      <trkpt lat="37.7280510" lon="-3.9787350">
        <ele>661.8</ele>
        <time>2021-12-27T16:48:49Z</time>
      </trkpt>
      <trkpt lat="37.7280000" lon="-3.9787400">
        <ele>661.8</ele>
        <time>2021-12-27T16:48:50Z</time>
      </trkpt>
      <trkpt lat="37.7279420" lon="-3.9787470">
        <ele>661.8</ele>
        <time>2021-12-27T16:48:51Z</time>
      </trkpt>
      <trkpt lat="37.7278820" lon="-3.9787530">
        <ele>661.8</ele>
        <time>2021-12-27T16:48:52Z</time>
      </trkpt>
      <trkpt lat="37.7278180" lon="-3.9787600">
        <ele>661.8</ele>
        <time>2021-12-27T16:48:53Z</time>
      </trkpt>
      <trkpt lat="37.7277340" lon="-3.9787620">
        <ele>661.8</ele>
        <time>2021-12-27T16:48:54Z</time>
      </trkpt>
      <trkpt lat="37.7276740" lon="-3.9787620">
        <ele>661.8</ele>
        <time>2021-12-27T16:48:55Z</time>
      </trkpt>
      <trkpt lat="37.7275840" lon="-3.9787600">
        <ele>661.6</ele>
        <time>2021-12-27T16:48:56Z</time>
      </trkpt>
      <trkpt lat="37.7275070" lon="-3.9787570">
        <ele>661.6</ele>
        <time>2021-12-27T16:48:57Z</time>
      </trkpt>
      <trkpt lat="37.7274460" lon="-3.9787520">
        <ele>661.4</ele>
        <time>2021-12-27T16:48:58Z</time>
      </trkpt>
      <trkpt lat="37.7273570" lon="-3.9787420">
        <ele>661.4</ele>
        <time>2021-12-27T16:48:59Z</time>
      </trkpt>
      <trkpt lat="37.7272960" lon="-3.9787320">
        <ele>661.2</ele>
        <time>2021-12-27T16:49:00Z</time>
      </trkpt>
      <trkpt lat="37.7272060" lon="-3.9787150">
        <ele>661.2</ele>
        <time>2021-12-27T16:49:01Z</time>
      </trkpt>
      <trkpt lat="37.7271550" lon="-3.9787020">
        <ele>661.2</ele>
        <time>2021-12-27T16:49:02Z</time>
      </trkpt>
      <trkpt lat="37.7270780" lon="-3.9786880">
        <ele>661.2</ele>
        <time>2021-12-27T16:49:03Z</time>
      </trkpt>
      <trkpt lat="37.7270270" lon="-3.9786820">
        <ele>661.0</ele>
        <time>2021-12-27T16:49:04Z</time>
      </trkpt>
      <trkpt lat="37.7269500" lon="-3.9786700">
        <ele>661.0</ele>
        <time>2021-12-27T16:49:05Z</time>
      </trkpt>
      <trkpt lat="37.7268860" lon="-3.9786550">
        <ele>661.0</ele>
        <time>2021-12-27T16:49:06Z</time>
      </trkpt>
      <trkpt lat="37.7268290" lon="-3.9786370">
        <ele>660.8</ele>
        <time>2021-12-27T16:49:07Z</time>
      </trkpt>
      <trkpt lat="37.7267680" lon="-3.9786150">
        <ele>660.8</ele>
        <time>2021-12-27T16:49:08Z</time>
      </trkpt>
      <trkpt lat="37.7267100" lon="-3.9785950">
        <ele>660.6</ele>
        <time>2021-12-27T16:49:09Z</time>
      </trkpt>
      <trkpt lat="37.7266590" lon="-3.9785730">
        <ele>660.6</ele>
        <time>2021-12-27T16:49:10Z</time>
      </trkpt>
      <trkpt lat="37.7266050" lon="-3.9785500">
        <ele>660.4</ele>
        <time>2021-12-27T16:49:11Z</time>
      </trkpt>
      <trkpt lat="37.7265500" lon="-3.9785280">
        <ele>660.4</ele>
        <time>2021-12-27T16:49:12Z</time>
      </trkpt>
      <trkpt lat="37.7265020" lon="-3.9785060">
        <ele>660.4</ele>
        <time>2021-12-27T16:49:13Z</time>
      </trkpt>
      <trkpt lat="37.7264510" lon="-3.9784830">
        <ele>660.2</ele>
        <time>2021-12-27T16:49:14Z</time>
      </trkpt>
      <trkpt lat="37.7264030" lon="-3.9784620">
        <ele>660.2</ele>
        <time>2021-12-27T16:49:15Z</time>
      </trkpt>
      <trkpt lat="37.7263550" lon="-3.9784400">
        <ele>660.2</ele>
        <time>2021-12-27T16:49:16Z</time>
      </trkpt>
      <trkpt lat="37.7263170" lon="-3.9784220">
        <ele>660.0</ele>
        <time>2021-12-27T16:49:17Z</time>
      </trkpt>
      <trkpt lat="37.7262750" lon="-3.9783950">
        <ele>660.0</ele>
        <time>2021-12-27T16:49:18Z</time>
      </trkpt>
      <trkpt lat="37.7262300" lon="-3.9783670">
        <ele>660.0</ele>
        <time>2021-12-27T16:49:19Z</time>
      </trkpt>
      <trkpt lat="37.7261760" lon="-3.9783300">
        <ele>660.0</ele>
        <time>2021-12-27T16:49:20Z</time>
      </trkpt>
      <trkpt lat="37.7261440" lon="-3.9783050">
        <ele>660.0</ele>
        <time>2021-12-27T16:49:21Z</time>
      </trkpt>
      <trkpt lat="37.7261020" lon="-3.9782780">
        <ele>659.8</ele>
        <time>2021-12-27T16:49:22Z</time>
      </trkpt>
      <trkpt lat="37.7260510" lon="-3.9782480">
        <ele>659.8</ele>
        <time>2021-12-27T16:49:23Z</time>
      </trkpt>
      <trkpt lat="37.7260100" lon="-3.9782230">
        <ele>659.8</ele>
        <time>2021-12-27T16:49:24Z</time>
      </trkpt>
      <trkpt lat="37.7259780" lon="-3.9782000">
        <ele>659.6</ele>
        <time>2021-12-27T16:49:25Z</time>
      </trkpt>
      <trkpt lat="37.7259330" lon="-3.9781630">
        <ele>659.6</ele>
        <time>2021-12-27T16:49:26Z</time>
      </trkpt>
      <trkpt lat="37.7259040" lon="-3.9781380">
        <ele>659.6</ele>
        <time>2021-12-27T16:49:27Z</time>
      </trkpt>
      <trkpt lat="37.7258690" lon="-3.9781070">
        <ele>659.6</ele>
        <time>2021-12-27T16:49:28Z</time>
      </trkpt>
      <trkpt lat="37.7258270" lon="-3.9780730">
        <ele>659.6</ele>
        <time>2021-12-27T16:49:29Z</time>
      </trkpt>
      <trkpt lat="37.7257980" lon="-3.9780480">
        <ele>659.6</ele>
        <time>2021-12-27T16:49:30Z</time>
      </trkpt>
      <trkpt lat="37.7257540" lon="-3.9780150">
        <ele>659.6</ele>
        <time>2021-12-27T16:49:31Z</time>
      </trkpt>
      <trkpt lat="37.7257280" lon="-3.9779920">
        <ele>659.4</ele>
        <time>2021-12-27T16:49:32Z</time>
      </trkpt>
      <trkpt lat="37.7256900" lon="-3.9779570">
        <ele>659.4</ele>
        <time>2021-12-27T16:49:33Z</time>
      </trkpt>
      <trkpt lat="37.7256610" lon="-3.9779340">
        <ele>659.4</ele>
        <time>2021-12-27T16:49:34Z</time>
      </trkpt>
      <trkpt lat="37.7256290" lon="-3.9779050">
        <ele>659.4</ele>
        <time>2021-12-27T16:49:35Z</time>
      </trkpt>
      <trkpt lat="37.7255940" lon="-3.9778730">
        <ele>659.4</ele>
        <time>2021-12-27T16:49:36Z</time>
      </trkpt>
      <trkpt lat="37.7255520" lon="-3.9778320">
        <ele>659.4</ele>
        <time>2021-12-27T16:49:37Z</time>
      </trkpt>
      <trkpt lat="37.7255170" lon="-3.9777950">
        <ele>659.2</ele>
        <time>2021-12-27T16:49:38Z</time>
      </trkpt>
      <trkpt lat="37.7254880" lon="-3.9777600">
        <ele>659.2</ele>
        <time>2021-12-27T16:49:39Z</time>
      </trkpt>
      <trkpt lat="37.7254530" lon="-3.9777220">
        <ele>659.2</ele>
        <time>2021-12-27T16:49:40Z</time>
      </trkpt>
      <trkpt lat="37.7254180" lon="-3.9776870">
        <ele>659.2</ele>
        <time>2021-12-27T16:49:41Z</time>
      </trkpt>
      <trkpt lat="37.7253920" lon="-3.9776580">
        <ele>659.0</ele>
        <time>2021-12-27T16:49:42Z</time>
      </trkpt>
      <trkpt lat="37.7253540" lon="-3.9776170">
        <ele>659.0</ele>
        <time>2021-12-27T16:49:43Z</time>
      </trkpt>
      <trkpt lat="37.7253180" lon="-3.9775820">
        <ele>658.8</ele>
        <time>2021-12-27T16:49:44Z</time>
      </trkpt>
      <trkpt lat="37.7252900" lon="-3.9775470">
        <ele>658.8</ele>
        <time>2021-12-27T16:49:45Z</time>
      </trkpt>
      <trkpt lat="37.7252540" lon="-3.9775070">
        <ele>658.6</ele>
        <time>2021-12-27T16:49:46Z</time>
      </trkpt>
      <trkpt lat="37.7252220" lon="-3.9774680">
        <ele>658.6</ele>
        <time>2021-12-27T16:49:47Z</time>
      </trkpt>
      <trkpt lat="37.7251970" lon="-3.9774350">
        <ele>658.6</ele>
        <time>2021-12-27T16:49:48Z</time>
      </trkpt>
      <trkpt lat="37.7251550" lon="-3.9773880">
        <ele>658.4</ele>
        <time>2021-12-27T16:49:49Z</time>
      </trkpt>
      <trkpt lat="37.7251300" lon="-3.9773530">
        <ele>658.4</ele>
        <time>2021-12-27T16:49:50Z</time>
      </trkpt>
      <trkpt lat="37.7250910" lon="-3.9773030">
        <ele>658.2</ele>
        <time>2021-12-27T16:49:51Z</time>
      </trkpt>
      <trkpt lat="37.7250660" lon="-3.9772670">
        <ele>658.2</ele>
        <time>2021-12-27T16:49:52Z</time>
      </trkpt>
      <trkpt lat="37.7250370" lon="-3.9772230">
        <ele>658.0</ele>
        <time>2021-12-27T16:49:53Z</time>
      </trkpt>
      <trkpt lat="37.7249980" lon="-3.9771720">
        <ele>658.0</ele>
        <time>2021-12-27T16:49:54Z</time>
      </trkpt>
      <trkpt lat="37.7249730" lon="-3.9771260">
        <ele>657.8</ele>
        <time>2021-12-27T16:49:55Z</time>
      </trkpt>
      <trkpt lat="37.7249380" lon="-3.9770830">
        <ele>657.6</ele>
        <time>2021-12-27T16:49:56Z</time>
      </trkpt>
      <trkpt lat="37.7249120" lon="-3.9770480">
        <ele>657.6</ele>
        <time>2021-12-27T16:49:57Z</time>
      </trkpt>
      <trkpt lat="37.7248770" lon="-3.9769980">
        <ele>657.4</ele>
        <time>2021-12-27T16:49:58Z</time>
      </trkpt>
      <trkpt lat="37.7248580" lon="-3.9769600">
        <ele>657.4</ele>
        <time>2021-12-27T16:49:59Z</time>
      </trkpt>
      <trkpt lat="37.7248080" lon="-3.9768780">
        <ele>657.4</ele>
        <time>2021-12-27T16:50:00Z</time>
      </trkpt>
      <trkpt lat="37.7247940" lon="-3.9768530">
        <ele>657.2</ele>
        <time>2021-12-27T16:50:01Z</time>
      </trkpt>
      <trkpt lat="37.7247620" lon="-3.9768050">
        <ele>657.2</ele>
        <time>2021-12-27T16:50:02Z</time>
      </trkpt>
      <trkpt lat="37.7247330" lon="-3.9767560">
        <ele>657.0</ele>
        <time>2021-12-27T16:50:03Z</time>
      </trkpt>
      <trkpt lat="37.7247070" lon="-3.9767200">
        <ele>657.0</ele>
        <time>2021-12-27T16:50:04Z</time>
      </trkpt>
      <trkpt lat="37.7246660" lon="-3.9766620">
        <ele>657.0</ele>
        <time>2021-12-27T16:50:05Z</time>
      </trkpt>
      <trkpt lat="37.7246430" lon="-3.9766250">
        <ele>657.0</ele>
        <time>2021-12-27T16:50:06Z</time>
      </trkpt>
      <trkpt lat="37.7246080" lon="-3.9765720">
        <ele>656.8</ele>
        <time>2021-12-27T16:50:07Z</time>
      </trkpt>
      <trkpt lat="37.7245860" lon="-3.9765370">
        <ele>656.8</ele>
        <time>2021-12-27T16:50:08Z</time>
      </trkpt>
      <trkpt lat="37.7245540" lon="-3.9764830">
        <ele>656.8</ele>
        <time>2021-12-27T16:50:09Z</time>
      </trkpt>
      <trkpt lat="37.7245250" lon="-3.9764400">
        <ele>656.8</ele>
        <time>2021-12-27T16:50:10Z</time>
      </trkpt>
      <trkpt lat="37.7244990" lon="-3.9763960">
        <ele>656.6</ele>
        <time>2021-12-27T16:50:11Z</time>
      </trkpt>
      <trkpt lat="37.7244770" lon="-3.9763550">
        <ele>656.6</ele>
        <time>2021-12-27T16:50:12Z</time>
      </trkpt>
      <trkpt lat="37.7244540" lon="-3.9763220">
        <ele>656.6</ele>
        <time>2021-12-27T16:50:13Z</time>
      </trkpt>
      <trkpt lat="37.7244190" lon="-3.9762720">
        <ele>656.4</ele>
        <time>2021-12-27T16:50:14Z</time>
      </trkpt>
      <trkpt lat="37.7243970" lon="-3.9762420">
        <ele>656.4</ele>
        <time>2021-12-27T16:50:15Z</time>
      </trkpt>
      <trkpt lat="37.7243650" lon="-3.9762020">
        <ele>656.4</ele>
        <time>2021-12-27T16:50:16Z</time>
      </trkpt>
      <trkpt lat="37.7243490" lon="-3.9761700">
        <ele>656.4</ele>
        <time>2021-12-27T16:50:17Z</time>
      </trkpt>
      <trkpt lat="37.7243390" lon="-3.9761470">
        <ele>656.2</ele>
        <time>2021-12-27T16:50:18Z</time>
      </trkpt>
      <trkpt lat="37.7243230" lon="-3.9761130">
        <ele>656.0</ele>
        <time>2021-12-27T16:50:19Z</time>
      </trkpt>
      <trkpt lat="37.7243100" lon="-3.9760920">
        <ele>656.0</ele>
        <time>2021-12-27T16:50:20Z</time>
      </trkpt>
      <trkpt lat="37.7242910" lon="-3.9760630">
        <ele>655.8</ele>
        <time>2021-12-27T16:50:21Z</time>
      </trkpt>
      <trkpt lat="37.7242780" lon="-3.9760460">
        <ele>655.8</ele>
        <time>2021-12-27T16:50:22Z</time>
      </trkpt>
      <trkpt lat="37.7242590" lon="-3.9760300">
        <ele>655.8</ele>
        <time>2021-12-27T16:50:23Z</time>
      </trkpt>
      <trkpt lat="37.7242590" lon="-3.9760300">
        <ele>655.6</ele>
        <time>2021-12-27T16:50:24Z</time>
      </trkpt>
      <trkpt lat="37.7242590" lon="-3.9760300">
        <ele>655.6</ele>
        <time>2021-12-27T16:50:25Z</time>
      </trkpt>
      <trkpt lat="37.7242590" lon="-3.9760300">
        <ele>655.8</ele>
        <time>2021-12-27T16:50:26Z</time>
      </trkpt>
      <trkpt lat="37.7242590" lon="-3.9760300">
        <ele>655.8</ele>
        <time>2021-12-27T16:50:27Z</time>
      </trkpt>
      <trkpt lat="37.7242590" lon="-3.9760300">
        <ele>655.8</ele>
        <time>2021-12-27T16:50:28Z</time>
      </trkpt>
      <trkpt lat="37.7241890" lon="-3.9759500">
        <ele>655.4</ele>
        <time>2021-12-27T16:52:23Z</time>
      </trkpt>
      <trkpt lat="37.7241700" lon="-3.9759300">
        <ele>655.4</ele>
        <time>2021-12-27T16:52:24Z</time>
      </trkpt>
      <trkpt lat="37.7241500" lon="-3.9759130">
        <ele>655.6</ele>
        <time>2021-12-27T16:52:25Z</time>
      </trkpt>
      <trkpt lat="37.7241500" lon="-3.9759130">
        <ele>655.4</ele>
        <time>2021-12-27T16:52:26Z</time>
      </trkpt>
      <trkpt lat="37.7241280" lon="-3.9758830">
        <ele>655.6</ele>
        <time>2021-12-27T16:52:27Z</time>
      </trkpt>
      <trkpt lat="37.7241280" lon="-3.9758830">
        <ele>655.6</ele>
        <time>2021-12-27T16:52:28Z</time>
      </trkpt>
      <trkpt lat="37.7240990" lon="-3.9758520">
        <ele>655.8</ele>
        <time>2021-12-27T16:52:29Z</time>
      </trkpt>
      <trkpt lat="37.7240690" lon="-3.9758200">
        <ele>655.8</ele>
        <time>2021-12-27T16:52:30Z</time>
      </trkpt>
      <trkpt lat="37.7240400" lon="-3.9757880">
        <ele>656.0</ele>
        <time>2021-12-27T16:52:31Z</time>
      </trkpt>
      <trkpt lat="37.7240110" lon="-3.9757570">
        <ele>657.8</ele>
        <time>2021-12-27T16:53:08Z</time>
      </trkpt>
      <trkpt lat="37.7239810" lon="-3.9757250">
        <ele>657.8</ele>
        <time>2021-12-27T16:53:09Z</time>
      </trkpt>
      <trkpt lat="37.7239520" lon="-3.9756930">
        <ele>657.8</ele>
        <time>2021-12-27T16:53:10Z</time>
      </trkpt>
      <trkpt lat="37.7239300" lon="-3.9756650">
        <ele>657.8</ele>
        <time>2021-12-27T16:53:11Z</time>
      </trkpt>
      <trkpt lat="37.7239040" lon="-3.9756270">
        <ele>657.8</ele>
        <time>2021-12-27T16:53:12Z</time>
      </trkpt>
      <trkpt lat="37.7238720" lon="-3.9755880">
        <ele>657.8</ele>
        <time>2021-12-27T16:53:13Z</time>
      </trkpt>
      <trkpt lat="37.7238460" lon="-3.9755600">
        <ele>657.6</ele>
        <time>2021-12-27T16:53:14Z</time>
      </trkpt>
      <trkpt lat="37.7238240" lon="-3.9755330">
        <ele>657.6</ele>
        <time>2021-12-27T16:53:15Z</time>
      </trkpt>
      <trkpt lat="37.7237980" lon="-3.9755080">
        <ele>657.6</ele>
        <time>2021-12-27T16:53:16Z</time>
      </trkpt>
      <trkpt lat="37.7237730" lon="-3.9754850">
        <ele>657.4</ele>
        <time>2021-12-27T16:53:17Z</time>
      </trkpt>
      <trkpt lat="37.7237500" lon="-3.9754620">
        <ele>657.4</ele>
        <time>2021-12-27T16:53:18Z</time>
      </trkpt>
      <trkpt lat="37.7237220" lon="-3.9754370">
        <ele>657.2</ele>
        <time>2021-12-27T16:53:19Z</time>
      </trkpt>
      <trkpt lat="37.7237020" lon="-3.9754230">
        <ele>657.2</ele>
        <time>2021-12-27T16:53:20Z</time>
      </trkpt>
      <trkpt lat="37.7236800" lon="-3.9754070">
        <ele>657.0</ele>
        <time>2021-12-27T16:53:21Z</time>
      </trkpt>
      <trkpt lat="37.7236540" lon="-3.9753850">
        <ele>657.0</ele>
        <time>2021-12-27T16:53:22Z</time>
      </trkpt>
      <trkpt lat="37.7236290" lon="-3.9753580">
        <ele>657.0</ele>
        <time>2021-12-27T16:53:23Z</time>
      </trkpt>
      <trkpt lat="37.7236100" lon="-3.9753380">
        <ele>657.0</ele>
        <time>2021-12-27T16:53:24Z</time>
      </trkpt>
      <trkpt lat="37.7235870" lon="-3.9753220">
        <ele>656.8</ele>
        <time>2021-12-27T16:53:25Z</time>
      </trkpt>
      <trkpt lat="37.7235650" lon="-3.9753020">
        <ele>656.8</ele>
        <time>2021-12-27T16:53:26Z</time>
      </trkpt>
      <trkpt lat="37.7235330" lon="-3.9752800">
        <ele>657.0</ele>
        <time>2021-12-27T16:53:27Z</time>
      </trkpt>
      <trkpt lat="37.7235070" lon="-3.9752600">
        <ele>657.0</ele>
        <time>2021-12-27T16:53:28Z</time>
      </trkpt>
      <trkpt lat="37.7234850" lon="-3.9752450">
        <ele>657.0</ele>
        <time>2021-12-27T16:53:29Z</time>
      </trkpt>
      <trkpt lat="37.7234500" lon="-3.9752280">
        <ele>657.0</ele>
        <time>2021-12-27T16:53:30Z</time>
      </trkpt>
      <trkpt lat="37.7234180" lon="-3.9752100">
        <ele>657.0</ele>
        <time>2021-12-27T16:53:31Z</time>
      </trkpt>
      <trkpt lat="37.7233820" lon="-3.9751880">
        <ele>657.0</ele>
        <time>2021-12-27T16:53:32Z</time>
      </trkpt>
      <trkpt lat="37.7233540" lon="-3.9751750">
        <ele>657.0</ele>
        <time>2021-12-27T16:53:33Z</time>
      </trkpt>
      <trkpt lat="37.7233250" lon="-3.9751570">
        <ele>657.0</ele>
        <time>2021-12-27T16:53:34Z</time>
      </trkpt>
      <trkpt lat="37.7232930" lon="-3.9751400">
        <ele>657.0</ele>
        <time>2021-12-27T16:53:35Z</time>
      </trkpt>
      <trkpt lat="37.7232670" lon="-3.9751250">
        <ele>657.0</ele>
        <time>2021-12-27T16:53:36Z</time>
      </trkpt>
      <trkpt lat="37.7232290" lon="-3.9751080">
        <ele>657.0</ele>
        <time>2021-12-27T16:53:37Z</time>
      </trkpt>
      <trkpt lat="37.7232060" lon="-3.9750930">
        <ele>657.0</ele>
        <time>2021-12-27T16:53:38Z</time>
      </trkpt>
      <trkpt lat="37.7231840" lon="-3.9750750">
        <ele>657.0</ele>
        <time>2021-12-27T16:53:39Z</time>
      </trkpt>
      <trkpt lat="37.7231520" lon="-3.9750620">
        <ele>657.0</ele>
        <time>2021-12-27T16:53:40Z</time>
      </trkpt>
      <trkpt lat="37.7231230" lon="-3.9750500">
        <ele>657.0</ele>
        <time>2021-12-27T16:53:41Z</time>
      </trkpt>
      <trkpt lat="37.7230850" lon="-3.9750380">
        <ele>657.2</ele>
        <time>2021-12-27T16:53:42Z</time>
      </trkpt>
      <trkpt lat="37.7230560" lon="-3.9750280">
        <ele>657.2</ele>
        <time>2021-12-27T16:53:43Z</time>
      </trkpt>
      <trkpt lat="37.7230270" lon="-3.9750220">
        <ele>657.4</ele>
        <time>2021-12-27T16:53:44Z</time>
      </trkpt>
      <trkpt lat="37.7229860" lon="-3.9750080">
        <ele>657.4</ele>
        <time>2021-12-27T16:53:45Z</time>
      </trkpt>
      <trkpt lat="37.7229540" lon="-3.9749930">
        <ele>657.4</ele>
        <time>2021-12-27T16:53:46Z</time>
      </trkpt>
      <trkpt lat="37.7229280" lon="-3.9749830">
        <ele>657.6</ele>
        <time>2021-12-27T16:53:47Z</time>
      </trkpt>
      <trkpt lat="37.7228930" lon="-3.9749700">
        <ele>657.6</ele>
        <time>2021-12-27T16:53:48Z</time>
      </trkpt>
      <trkpt lat="37.7228610" lon="-3.9749600">
        <ele>657.6</ele>
        <time>2021-12-27T16:53:49Z</time>
      </trkpt>
      <trkpt lat="37.7228290" lon="-3.9749450">
        <ele>657.6</ele>
        <time>2021-12-27T16:53:50Z</time>
      </trkpt>
      <trkpt lat="37.7228000" lon="-3.9749380">
        <ele>657.6</ele>
        <time>2021-12-27T16:53:51Z</time>
      </trkpt>
      <trkpt lat="37.7227710" lon="-3.9749280">
        <ele>657.6</ele>
        <time>2021-12-27T16:53:52Z</time>
      </trkpt>
      <trkpt lat="37.7227390" lon="-3.9749200">
        <ele>657.8</ele>
        <time>2021-12-27T16:53:53Z</time>
      </trkpt>
      <trkpt lat="37.7227140" lon="-3.9749150">
        <ele>657.8</ele>
        <time>2021-12-27T16:53:54Z</time>
      </trkpt>
      <trkpt lat="37.7226750" lon="-3.9749070">
        <ele>657.8</ele>
        <time>2021-12-27T16:53:55Z</time>
      </trkpt>
      <trkpt lat="37.7226530" lon="-3.9748930">
        <ele>657.8</ele>
        <time>2021-12-27T16:53:56Z</time>
      </trkpt>
      <trkpt lat="37.7226180" lon="-3.9748830">
        <ele>657.8</ele>
        <time>2021-12-27T16:53:57Z</time>
      </trkpt>
      <trkpt lat="37.7225950" lon="-3.9748770">
        <ele>657.6</ele>
        <time>2021-12-27T16:53:58Z</time>
      </trkpt>
      <trkpt lat="37.7225700" lon="-3.9748730">
        <ele>657.6</ele>
        <time>2021-12-27T16:53:59Z</time>
      </trkpt>
      <trkpt lat="37.7225380" lon="-3.9748700">
        <ele>657.6</ele>
        <time>2021-12-27T16:54:00Z</time>
      </trkpt>
      <trkpt lat="37.7225150" lon="-3.9748670">
        <ele>657.6</ele>
        <time>2021-12-27T16:54:01Z</time>
      </trkpt>
      <trkpt lat="37.7224830" lon="-3.9748620">
        <ele>657.6</ele>
        <time>2021-12-27T16:54:02Z</time>
      </trkpt>
      <trkpt lat="37.7224610" lon="-3.9748600">
        <ele>657.6</ele>
        <time>2021-12-27T16:54:03Z</time>
      </trkpt>
      <trkpt lat="37.7224320" lon="-3.9748570">
        <ele>657.8</ele>
        <time>2021-12-27T16:54:04Z</time>
      </trkpt>
      <trkpt lat="37.7224130" lon="-3.9748550">
        <ele>657.8</ele>
        <time>2021-12-27T16:54:05Z</time>
      </trkpt>
      <trkpt lat="37.7223810" lon="-3.9748500">
        <ele>658.0</ele>
        <time>2021-12-27T16:54:06Z</time>
      </trkpt>
      <trkpt lat="37.7223580" lon="-3.9748480">
        <ele>658.0</ele>
        <time>2021-12-27T16:54:07Z</time>
      </trkpt>
      <trkpt lat="37.7223360" lon="-3.9748480">
        <ele>658.2</ele>
        <time>2021-12-27T16:54:08Z</time>
      </trkpt>
      <trkpt lat="37.7223100" lon="-3.9748480">
        <ele>658.2</ele>
        <time>2021-12-27T16:54:09Z</time>
      </trkpt>
      <trkpt lat="37.7222850" lon="-3.9748480">
        <ele>658.2</ele>
        <time>2021-12-27T16:54:10Z</time>
      </trkpt>
      <trkpt lat="37.7222620" lon="-3.9748470">
        <ele>658.2</ele>
        <time>2021-12-27T16:54:11Z</time>
      </trkpt>
      <trkpt lat="37.7222340" lon="-3.9748450">
        <ele>658.2</ele>
        <time>2021-12-27T16:54:12Z</time>
      </trkpt>
      <trkpt lat="37.7222050" lon="-3.9748470">
        <ele>658.2</ele>
        <time>2021-12-27T16:54:13Z</time>
      </trkpt>
      <trkpt lat="37.7221760" lon="-3.9748520">
        <ele>658.2</ele>
        <time>2021-12-27T16:54:14Z</time>
      </trkpt>
      <trkpt lat="37.7221440" lon="-3.9748530">
        <ele>658.2</ele>
        <time>2021-12-27T16:54:15Z</time>
      </trkpt>
      <trkpt lat="37.7221150" lon="-3.9748580">
        <ele>658.0</ele>
        <time>2021-12-27T16:54:16Z</time>
      </trkpt>
      <trkpt lat="37.7220830" lon="-3.9748630">
        <ele>658.0</ele>
        <time>2021-12-27T16:54:17Z</time>
      </trkpt>
      <trkpt lat="37.7220540" lon="-3.9748670">
        <ele>658.0</ele>
        <time>2021-12-27T16:54:18Z</time>
      </trkpt>
      <trkpt lat="37.7220260" lon="-3.9748700">
        <ele>658.0</ele>
        <time>2021-12-27T16:54:19Z</time>
      </trkpt>
      <trkpt lat="37.7220000" lon="-3.9748700">
        <ele>658.0</ele>
        <time>2021-12-27T16:54:20Z</time>
      </trkpt>
      <trkpt lat="37.7219740" lon="-3.9748730">
        <ele>658.0</ele>
        <time>2021-12-27T16:54:21Z</time>
      </trkpt>
      <trkpt lat="37.7219460" lon="-3.9748750">
        <ele>657.8</ele>
        <time>2021-12-27T16:54:22Z</time>
      </trkpt>
      <trkpt lat="37.7219230" lon="-3.9748750">
        <ele>657.8</ele>
        <time>2021-12-27T16:54:23Z</time>
      </trkpt>
      <trkpt lat="37.7219230" lon="-3.9748750">
        <ele>657.8</ele>
        <time>2021-12-27T16:54:24Z</time>
      </trkpt>
      <trkpt lat="37.7218820" lon="-3.9748800">
        <ele>657.8</ele>
        <time>2021-12-27T16:54:25Z</time>
      </trkpt>
      <trkpt lat="37.7218590" lon="-3.9748880">
        <ele>657.8</ele>
        <time>2021-12-27T16:54:26Z</time>
      </trkpt>
      <trkpt lat="37.7218370" lon="-3.9748950">
        <ele>657.8</ele>
        <time>2021-12-27T16:54:27Z</time>
      </trkpt>
      <trkpt lat="37.7218080" lon="-3.9748980">
        <ele>657.6</ele>
        <time>2021-12-27T16:54:28Z</time>
      </trkpt>
      <trkpt lat="37.7217820" lon="-3.9748970">
        <ele>657.4</ele>
        <time>2021-12-27T16:54:29Z</time>
      </trkpt>
      <trkpt lat="37.7217600" lon="-3.9749000">
        <ele>657.4</ele>
        <time>2021-12-27T16:54:30Z</time>
      </trkpt>
      <trkpt lat="37.7217410" lon="-3.9749050">
        <ele>657.4</ele>
        <time>2021-12-27T16:54:31Z</time>
      </trkpt>
      <trkpt lat="37.7217220" lon="-3.9749100">
        <ele>657.4</ele>
        <time>2021-12-27T16:54:32Z</time>
      </trkpt>
      <trkpt lat="37.7217220" lon="-3.9749100">
        <ele>657.4</ele>
        <time>2021-12-27T16:54:33Z</time>
      </trkpt>
      <trkpt lat="37.7216960" lon="-3.9749170">
        <ele>657.4</ele>
        <time>2021-12-27T16:54:34Z</time>
      </trkpt>
      <trkpt lat="37.7216960" lon="-3.9749170">
        <ele>657.6</ele>
        <time>2021-12-27T16:54:35Z</time>
      </trkpt>
      <trkpt lat="37.7216670" lon="-3.9749230">
        <ele>657.6</ele>
        <time>2021-12-27T16:54:36Z</time>
      </trkpt>
      <trkpt lat="37.7216670" lon="-3.9749230">
        <ele>657.6</ele>
        <time>2021-12-27T16:54:37Z</time>
      </trkpt>
      <trkpt lat="37.7216450" lon="-3.9749330">
        <ele>657.8</ele>
        <time>2021-12-27T16:54:38Z</time>
      </trkpt>
      <trkpt lat="37.7216450" lon="-3.9749330">
        <ele>657.8</ele>
        <time>2021-12-27T16:54:39Z</time>
      </trkpt>
      <trkpt lat="37.7216450" lon="-3.9749330">
        <ele>658.0</ele>
        <time>2021-12-27T16:54:40Z</time>
      </trkpt>
      <trkpt lat="37.7216260" lon="-3.9749540">
        <ele>658.2</ele>
        <time>2021-12-27T16:54:41Z</time>
      </trkpt>
      <trkpt lat="37.7216260" lon="-3.9749540">
        <ele>658.2</ele>
        <time>2021-12-27T16:54:42Z</time>
      </trkpt>
      <trkpt lat="37.7216160" lon="-3.9749920">
        <ele>658.2</ele>
        <time>2021-12-27T16:54:43Z</time>
      </trkpt>
      <trkpt lat="37.7216160" lon="-3.9750230">
        <ele>658.2</ele>
        <time>2021-12-27T16:54:44Z</time>
      </trkpt>
      <trkpt lat="37.7216160" lon="-3.9750570">
        <ele>658.4</ele>
        <time>2021-12-27T16:54:45Z</time>
      </trkpt>
      <trkpt lat="37.7216160" lon="-3.9750850">
        <ele>658.4</ele>
        <time>2021-12-27T16:54:46Z</time>
      </trkpt>
      <trkpt lat="37.7216160" lon="-3.9751150">
        <ele>658.4</ele>
        <time>2021-12-27T16:54:47Z</time>
      </trkpt>
      <trkpt lat="37.7216190" lon="-3.9751400">
        <ele>658.4</ele>
        <time>2021-12-27T16:54:48Z</time>
      </trkpt>
      <trkpt lat="37.7216220" lon="-3.9751670">
        <ele>658.2</ele>
        <time>2021-12-27T16:54:49Z</time>
      </trkpt>
      <trkpt lat="37.7216260" lon="-3.9751950">
        <ele>658.2</ele>
        <time>2021-12-27T16:54:50Z</time>
      </trkpt>
      <trkpt lat="37.7216290" lon="-3.9752220">
        <ele>658.0</ele>
        <time>2021-12-27T16:54:51Z</time>
      </trkpt>
      <trkpt lat="37.7216380" lon="-3.9752530">
        <ele>657.8</ele>
        <time>2021-12-27T16:54:52Z</time>
      </trkpt>
      <trkpt lat="37.7216420" lon="-3.9752830">
        <ele>657.8</ele>
        <time>2021-12-27T16:54:53Z</time>
      </trkpt>
      <trkpt lat="37.7216450" lon="-3.9753180">
        <ele>657.8</ele>
        <time>2021-12-27T16:54:54Z</time>
      </trkpt>
      <trkpt lat="37.7216420" lon="-3.9753550">
        <ele>657.6</ele>
        <time>2021-12-27T16:54:55Z</time>
      </trkpt>
      <trkpt lat="37.7216290" lon="-3.9753930">
        <ele>657.6</ele>
        <time>2021-12-27T16:54:56Z</time>
      </trkpt>
      <trkpt lat="37.7216160" lon="-3.9754320">
        <ele>657.6</ele>
        <time>2021-12-27T16:54:57Z</time>
      </trkpt>
      <trkpt lat="37.7215900" lon="-3.9754680">
        <ele>657.6</ele>
        <time>2021-12-27T16:54:58Z</time>
      </trkpt>
      <trkpt lat="37.7215680" lon="-3.9755080">
        <ele>657.4</ele>
        <time>2021-12-27T16:54:59Z</time>
      </trkpt>
      <trkpt lat="37.7215460" lon="-3.9755500">
        <ele>657.4</ele>
        <time>2021-12-27T16:55:00Z</time>
      </trkpt>
      <trkpt lat="37.7215230" lon="-3.9755920">
        <ele>657.4</ele>
        <time>2021-12-27T16:55:01Z</time>
      </trkpt>
      <trkpt lat="37.7215070" lon="-3.9756370">
        <ele>657.4</ele>
        <time>2021-12-27T16:55:02Z</time>
      </trkpt>
      <trkpt lat="37.7214880" lon="-3.9756830">
        <ele>657.2</ele>
        <time>2021-12-27T16:55:03Z</time>
      </trkpt>
      <trkpt lat="37.7214750" lon="-3.9757270">
        <ele>657.2</ele>
        <time>2021-12-27T16:55:04Z</time>
      </trkpt>
      <trkpt lat="37.7214620" lon="-3.9757750">
        <ele>657.2</ele>
        <time>2021-12-27T16:55:05Z</time>
      </trkpt>
      <trkpt lat="37.7214430" lon="-3.9758170">
        <ele>657.4</ele>
        <time>2021-12-27T16:55:06Z</time>
      </trkpt>
      <trkpt lat="37.7214270" lon="-3.9758580">
        <ele>657.4</ele>
        <time>2021-12-27T16:55:07Z</time>
      </trkpt>
      <trkpt lat="37.7214180" lon="-3.9759000">
        <ele>657.2</ele>
        <time>2021-12-27T16:55:08Z</time>
      </trkpt>
      <trkpt lat="37.7214020" lon="-3.9759420">
        <ele>657.2</ele>
        <time>2021-12-27T16:55:09Z</time>
      </trkpt>
      <trkpt lat="37.7213820" lon="-3.9759930">
        <ele>657.2</ele>
        <time>2021-12-27T16:55:10Z</time>
      </trkpt>
      <trkpt lat="37.7213660" lon="-3.9760280">
        <ele>657.2</ele>
        <time>2021-12-27T16:55:11Z</time>
      </trkpt>
      <trkpt lat="37.7213570" lon="-3.9760720">
        <ele>657.2</ele>
        <time>2021-12-27T16:55:12Z</time>
      </trkpt>
      <trkpt lat="37.7213410" lon="-3.9761100">
        <ele>657.0</ele>
        <time>2021-12-27T16:55:13Z</time>
      </trkpt>
      <trkpt lat="37.7213250" lon="-3.9761430">
        <ele>657.0</ele>
        <time>2021-12-27T16:55:14Z</time>
      </trkpt>
      <trkpt lat="37.7212990" lon="-3.9761740">
        <ele>657.0</ele>
        <time>2021-12-27T16:55:15Z</time>
      </trkpt>
      <trkpt lat="37.7212700" lon="-3.9762000">
        <ele>657.0</ele>
        <time>2021-12-27T16:55:16Z</time>
      </trkpt>
      <trkpt lat="37.7212380" lon="-3.9762150">
        <ele>657.0</ele>
        <time>2021-12-27T16:55:17Z</time>
      </trkpt>
      <trkpt lat="37.7212030" lon="-3.9762140">
        <ele>656.8</ele>
        <time>2021-12-27T16:55:18Z</time>
      </trkpt>
      <trkpt lat="37.7211680" lon="-3.9762050">
        <ele>656.8</ele>
        <time>2021-12-27T16:55:19Z</time>
      </trkpt>
      <trkpt lat="37.7211330" lon="-3.9761950">
        <ele>656.8</ele>
        <time>2021-12-27T16:55:20Z</time>
      </trkpt>
      <trkpt lat="37.7211010" lon="-3.9761780">
        <ele>656.8</ele>
        <time>2021-12-27T16:55:21Z</time>
      </trkpt>
      <trkpt lat="37.7210620" lon="-3.9761600">
        <ele>656.8</ele>
        <time>2021-12-27T16:55:22Z</time>
      </trkpt>
      <trkpt lat="37.7210300" lon="-3.9761430">
        <ele>656.8</ele>
        <time>2021-12-27T16:55:23Z</time>
      </trkpt>
      <trkpt lat="37.7209980" lon="-3.9761320">
        <ele>656.8</ele>
        <time>2021-12-27T16:55:24Z</time>
      </trkpt>
      <trkpt lat="37.7209630" lon="-3.9761280">
        <ele>656.8</ele>
        <time>2021-12-27T16:55:25Z</time>
      </trkpt>
      <trkpt lat="37.7209220" lon="-3.9761370">
        <ele>656.8</ele>
        <time>2021-12-27T16:55:26Z</time>
      </trkpt>
      <trkpt lat="37.7208990" lon="-3.9761530">
        <ele>656.8</ele>
        <time>2021-12-27T16:55:27Z</time>
      </trkpt>
      <trkpt lat="37.7208670" lon="-3.9761770">
        <ele>656.8</ele>
        <time>2021-12-27T16:55:28Z</time>
      </trkpt>
      <trkpt lat="37.7208420" lon="-3.9762070">
        <ele>656.8</ele>
        <time>2021-12-27T16:55:29Z</time>
      </trkpt>
      <trkpt lat="37.7208060" lon="-3.9762460">
        <ele>656.8</ele>
        <time>2021-12-27T16:55:30Z</time>
      </trkpt>
      <trkpt lat="37.7207740" lon="-3.9762820">
        <ele>656.8</ele>
        <time>2021-12-27T16:55:31Z</time>
      </trkpt>
      <trkpt lat="37.7207550" lon="-3.9763120">
        <ele>656.6</ele>
        <time>2021-12-27T16:55:32Z</time>
      </trkpt>
      <trkpt lat="37.7207300" lon="-3.9763500">
        <ele>656.6</ele>
        <time>2021-12-27T16:55:33Z</time>
      </trkpt>
      <trkpt lat="37.7207040" lon="-3.9763880">
        <ele>656.6</ele>
        <time>2021-12-27T16:55:34Z</time>
      </trkpt>
      <trkpt lat="37.7206750" lon="-3.9764280">
        <ele>656.6</ele>
        <time>2021-12-27T16:55:35Z</time>
      </trkpt>
      <trkpt lat="37.7206500" lon="-3.9764680">
        <ele>656.8</ele>
        <time>2021-12-27T16:55:36Z</time>
      </trkpt>
      <trkpt lat="37.7206240" lon="-3.9765070">
        <ele>656.8</ele>
        <time>2021-12-27T16:55:37Z</time>
      </trkpt>
      <trkpt lat="37.7206020" lon="-3.9765450">
        <ele>656.8</ele>
        <time>2021-12-27T16:55:38Z</time>
      </trkpt>
      <trkpt lat="37.7205730" lon="-3.9765840">
        <ele>656.8</ele>
        <time>2021-12-27T16:55:39Z</time>
      </trkpt>
      <trkpt lat="37.7205500" lon="-3.9766230">
        <ele>656.8</ele>
        <time>2021-12-27T16:55:40Z</time>
      </trkpt>
      <trkpt lat="37.7205280" lon="-3.9766620">
        <ele>656.8</ele>
        <time>2021-12-27T16:55:41Z</time>
      </trkpt>
      <trkpt lat="37.7205060" lon="-3.9767000">
        <ele>656.6</ele>
        <time>2021-12-27T16:55:42Z</time>
      </trkpt>
      <trkpt lat="37.7204830" lon="-3.9767350">
        <ele>656.6</ele>
        <time>2021-12-27T16:55:43Z</time>
      </trkpt>
      <trkpt lat="37.7204540" lon="-3.9767720">
        <ele>656.4</ele>
        <time>2021-12-27T16:55:44Z</time>
      </trkpt>
      <trkpt lat="37.7204290" lon="-3.9768030">
        <ele>656.4</ele>
        <time>2021-12-27T16:55:45Z</time>
      </trkpt>
      <trkpt lat="37.7204030" lon="-3.9768450">
        <ele>656.4</ele>
        <time>2021-12-27T16:55:46Z</time>
      </trkpt>
      <trkpt lat="37.7203840" lon="-3.9768850">
        <ele>656.2</ele>
        <time>2021-12-27T16:55:47Z</time>
      </trkpt>
      <trkpt lat="37.7203650" lon="-3.9769270">
        <ele>656.0</ele>
        <time>2021-12-27T16:55:48Z</time>
      </trkpt>
      <trkpt lat="37.7203520" lon="-3.9769700">
        <ele>655.8</ele>
        <time>2021-12-27T16:55:49Z</time>
      </trkpt>
      <trkpt lat="37.7203390" lon="-3.9770120">
        <ele>655.6</ele>
        <time>2021-12-27T16:55:50Z</time>
      </trkpt>
      <trkpt lat="37.7203300" lon="-3.9770540">
        <ele>655.6</ele>
        <time>2021-12-27T16:55:51Z</time>
      </trkpt>
      <trkpt lat="37.7203230" lon="-3.9770930">
        <ele>655.4</ele>
        <time>2021-12-27T16:55:52Z</time>
      </trkpt>
      <trkpt lat="37.7203070" lon="-3.9771320">
        <ele>655.4</ele>
        <time>2021-12-27T16:55:53Z</time>
      </trkpt>
      <trkpt lat="37.7202940" lon="-3.9771720">
        <ele>655.4</ele>
        <time>2021-12-27T16:55:54Z</time>
      </trkpt>
      <trkpt lat="37.7202750" lon="-3.9772130">
        <ele>655.4</ele>
        <time>2021-12-27T16:55:55Z</time>
      </trkpt>
      <trkpt lat="37.7202660" lon="-3.9772600">
        <ele>655.4</ele>
        <time>2021-12-27T16:55:56Z</time>
      </trkpt>
      <trkpt lat="37.7202530" lon="-3.9773070">
        <ele>655.4</ele>
        <time>2021-12-27T16:55:57Z</time>
      </trkpt>
      <trkpt lat="37.7202400" lon="-3.9773520">
        <ele>655.2</ele>
        <time>2021-12-27T16:55:58Z</time>
      </trkpt>
      <trkpt lat="37.7202340" lon="-3.9774000">
        <ele>655.2</ele>
        <time>2021-12-27T16:55:59Z</time>
      </trkpt>
      <trkpt lat="37.7202240" lon="-3.9774450">
        <ele>655.0</ele>
        <time>2021-12-27T16:56:00Z</time>
      </trkpt>
      <trkpt lat="37.7202140" lon="-3.9774950">
        <ele>655.0</ele>
        <time>2021-12-27T16:56:01Z</time>
      </trkpt>
      <trkpt lat="37.7202050" lon="-3.9775430">
        <ele>654.8</ele>
        <time>2021-12-27T16:56:02Z</time>
      </trkpt>
      <trkpt lat="37.7201950" lon="-3.9775950">
        <ele>654.6</ele>
        <time>2021-12-27T16:56:03Z</time>
      </trkpt>
      <trkpt lat="37.7201860" lon="-3.9776460">
        <ele>654.6</ele>
        <time>2021-12-27T16:56:04Z</time>
      </trkpt>
      <trkpt lat="37.7201700" lon="-3.9776950">
        <ele>654.4</ele>
        <time>2021-12-27T16:56:05Z</time>
      </trkpt>
      <trkpt lat="37.7201570" lon="-3.9777430">
        <ele>654.2</ele>
        <time>2021-12-27T16:56:06Z</time>
      </trkpt>
      <trkpt lat="37.7201470" lon="-3.9777930">
        <ele>654.2</ele>
        <time>2021-12-27T16:56:07Z</time>
      </trkpt>
      <trkpt lat="37.7201340" lon="-3.9778420">
        <ele>654.0</ele>
        <time>2021-12-27T16:56:08Z</time>
      </trkpt>
      <trkpt lat="37.7201280" lon="-3.9778880">
        <ele>654.0</ele>
        <time>2021-12-27T16:56:09Z</time>
      </trkpt>
      <trkpt lat="37.7201180" lon="-3.9779380">
        <ele>653.8</ele>
        <time>2021-12-27T16:56:10Z</time>
      </trkpt>
      <trkpt lat="37.7201090" lon="-3.9779900">
        <ele>653.8</ele>
        <time>2021-12-27T16:56:11Z</time>
      </trkpt>
      <trkpt lat="37.7200990" lon="-3.9780370">
        <ele>653.6</ele>
        <time>2021-12-27T16:56:12Z</time>
      </trkpt>
      <trkpt lat="37.7200930" lon="-3.9780820">
        <ele>653.6</ele>
        <time>2021-12-27T16:56:13Z</time>
      </trkpt>
      <trkpt lat="37.7200770" lon="-3.9781230">
        <ele>653.4</ele>
        <time>2021-12-27T16:56:14Z</time>
      </trkpt>
      <trkpt lat="37.7200670" lon="-3.9781580">
        <ele>653.4</ele>
        <time>2021-12-27T16:56:15Z</time>
      </trkpt>
      <trkpt lat="37.7200380" lon="-3.9781920">
        <ele>653.2</ele>
        <time>2021-12-27T16:56:16Z</time>
      </trkpt>
      <trkpt lat="37.7200130" lon="-3.9782130">
        <ele>653.2</ele>
        <time>2021-12-27T16:56:17Z</time>
      </trkpt>
      <trkpt lat="37.7199780" lon="-3.9782270">
        <ele>653.0</ele>
        <time>2021-12-27T16:56:18Z</time>
      </trkpt>
      <trkpt lat="37.7199490" lon="-3.9782320">
        <ele>653.0</ele>
        <time>2021-12-27T16:56:19Z</time>
      </trkpt>
      <trkpt lat="37.7199170" lon="-3.9782250">
        <ele>653.0</ele>
        <time>2021-12-27T16:56:20Z</time>
      </trkpt>
      <trkpt lat="37.7198940" lon="-3.9782170">
        <ele>652.8</ele>
        <time>2021-12-27T16:56:21Z</time>
      </trkpt>
      <trkpt lat="37.7198720" lon="-3.9782070">
        <ele>652.8</ele>
        <time>2021-12-27T16:56:22Z</time>
      </trkpt>
      <trkpt lat="37.7198720" lon="-3.9782070">
        <ele>653.0</ele>
        <time>2021-12-27T16:56:23Z</time>
      </trkpt>
      <trkpt lat="37.7198370" lon="-3.9781930">
        <ele>653.0</ele>
        <time>2021-12-27T16:56:24Z</time>
      </trkpt>
      <trkpt lat="37.7198180" lon="-3.9781920">
        <ele>653.0</ele>
        <time>2021-12-27T16:56:25Z</time>
      </trkpt>
      <trkpt lat="37.7197980" lon="-3.9781930">
        <ele>653.2</ele>
        <time>2021-12-27T16:56:26Z</time>
      </trkpt>
      <trkpt lat="37.7197760" lon="-3.9781920">
        <ele>653.2</ele>
        <time>2021-12-27T16:56:27Z</time>
      </trkpt>
      <trkpt lat="37.7197570" lon="-3.9781870">
        <ele>653.2</ele>
        <time>2021-12-27T16:56:28Z</time>
      </trkpt>
      <trkpt lat="37.7197380" lon="-3.9781800">
        <ele>653.2</ele>
        <time>2021-12-27T16:56:29Z</time>
      </trkpt>
      <trkpt lat="37.7197380" lon="-3.9781800">
        <ele>653.2</ele>
        <time>2021-12-27T16:56:30Z</time>
      </trkpt>
      <trkpt lat="37.7197020" lon="-3.9781630">
        <ele>653.2</ele>
        <time>2021-12-27T16:56:31Z</time>
      </trkpt>
      <trkpt lat="37.7197020" lon="-3.9781630">
        <ele>653.2</ele>
        <time>2021-12-27T16:56:32Z</time>
      </trkpt>
      <trkpt lat="37.7196700" lon="-3.9781520">
        <ele>653.2</ele>
        <time>2021-12-27T16:56:33Z</time>
      </trkpt>
      <trkpt lat="37.7196510" lon="-3.9781420">
        <ele>653.4</ele>
        <time>2021-12-27T16:56:34Z</time>
      </trkpt>
      <trkpt lat="37.7196290" lon="-3.9781320">
        <ele>653.4</ele>
        <time>2021-12-27T16:56:35Z</time>
      </trkpt>
      <trkpt lat="37.7196030" lon="-3.9781260">
        <ele>653.4</ele>
        <time>2021-12-27T16:56:36Z</time>
      </trkpt>
      <trkpt lat="37.7195840" lon="-3.9781330">
        <ele>653.6</ele>
        <time>2021-12-27T16:56:37Z</time>
      </trkpt>
      <trkpt lat="37.7195650" lon="-3.9781450">
        <ele>653.6</ele>
        <time>2021-12-27T16:56:38Z</time>
      </trkpt>
      <trkpt lat="37.7195520" lon="-3.9781650">
        <ele>653.6</ele>
        <time>2021-12-27T16:56:39Z</time>
      </trkpt>
      <trkpt lat="37.7195360" lon="-3.9781870">
        <ele>653.8</ele>
        <time>2021-12-27T16:56:40Z</time>
      </trkpt>
      <trkpt lat="37.7195230" lon="-3.9782150">
        <ele>653.8</ele>
        <time>2021-12-27T16:56:41Z</time>
      </trkpt>
      <trkpt lat="37.7195170" lon="-3.9782430">
        <ele>653.8</ele>
        <time>2021-12-27T16:56:42Z</time>
      </trkpt>
      <trkpt lat="37.7195040" lon="-3.9782700">
        <ele>653.8</ele>
        <time>2021-12-27T16:56:43Z</time>
      </trkpt>
      <trkpt lat="37.7194980" lon="-3.9783000">
        <ele>653.8</ele>
        <time>2021-12-27T16:56:44Z</time>
      </trkpt>
      <trkpt lat="37.7194940" lon="-3.9783250">
        <ele>653.6</ele>
        <time>2021-12-27T16:56:45Z</time>
      </trkpt>
      <trkpt lat="37.7194940" lon="-3.9783250">
        <ele>653.6</ele>
        <time>2021-12-27T16:56:46Z</time>
      </trkpt>
      <trkpt lat="37.7194940" lon="-3.9783530">
        <ele>653.4</ele>
        <time>2021-12-27T16:56:47Z</time>
      </trkpt>
      <trkpt lat="37.7194940" lon="-3.9783530">
        <ele>653.2</ele>
        <time>2021-12-27T16:56:48Z</time>
      </trkpt>
      <trkpt lat="37.7194940" lon="-3.9783530">
        <ele>653.2</ele>
        <time>2021-12-27T16:56:49Z</time>
      </trkpt>
      <trkpt lat="37.7194940" lon="-3.9783530">
        <ele>653.0</ele>
        <time>2021-12-27T16:56:50Z</time>
      </trkpt>
      <trkpt lat="37.7194940" lon="-3.9783530">
        <ele>653.0</ele>
        <time>2021-12-27T16:56:51Z</time>
      </trkpt>
      <trkpt lat="37.7194940" lon="-3.9783530">
        <ele>648.0</ele>
        <time>2021-12-27T16:57:31Z</time>
      </trkpt>
      <trkpt lat="37.7194750" lon="-3.9784800">
        <ele>648.0</ele>
        <time>2021-12-27T16:57:32Z</time>
      </trkpt>
      <trkpt lat="37.7194750" lon="-3.9784800">
        <ele>648.0</ele>
        <time>2021-12-27T16:57:33Z</time>
      </trkpt>
      <trkpt lat="37.7194720" lon="-3.9785050">
        <ele>648.0</ele>
        <time>2021-12-27T16:57:34Z</time>
      </trkpt>
      <trkpt lat="37.7194720" lon="-3.9785050">
        <ele>648.0</ele>
        <time>2021-12-27T16:57:35Z</time>
      </trkpt>
      <trkpt lat="37.7194720" lon="-3.9785050">
        <ele>649.4</ele>
        <time>2021-12-27T16:57:52Z</time>
      </trkpt>
      <trkpt lat="37.7194400" lon="-3.9786250">
        <ele>649.2</ele>
        <time>2021-12-27T16:57:53Z</time>
      </trkpt>
      <trkpt lat="37.7194400" lon="-3.9786250">
        <ele>649.2</ele>
        <time>2021-12-27T16:57:54Z</time>
      </trkpt>
      <trkpt lat="37.7194400" lon="-3.9786250">
        <ele>649.2</ele>
        <time>2021-12-27T16:57:55Z</time>
      </trkpt>
      <trkpt lat="37.7194400" lon="-3.9786250">
        <ele>649.2</ele>
        <time>2021-12-27T16:57:56Z</time>
      </trkpt>
      <trkpt lat="37.7194210" lon="-3.9787850">
        <ele>646.4</ele>
        <time>2021-12-27T16:59:22Z</time>
      </trkpt>
      <trkpt lat="37.7194140" lon="-3.9788220">
        <ele>646.4</ele>
        <time>2021-12-27T16:59:23Z</time>
      </trkpt>
      <trkpt lat="37.7194050" lon="-3.9788620">
        <ele>646.4</ele>
        <time>2021-12-27T16:59:24Z</time>
      </trkpt>
      <trkpt lat="37.7193950" lon="-3.9789020">
        <ele>646.6</ele>
        <time>2021-12-27T16:59:25Z</time>
      </trkpt>
      <trkpt lat="37.7193760" lon="-3.9789450">
        <ele>646.6</ele>
        <time>2021-12-27T16:59:26Z</time>
      </trkpt>
      <trkpt lat="37.7193660" lon="-3.9789900">
        <ele>646.6</ele>
        <time>2021-12-27T16:59:27Z</time>
      </trkpt>
      <trkpt lat="37.7193630" lon="-3.9790300">
        <ele>646.6</ele>
        <time>2021-12-27T16:59:28Z</time>
      </trkpt>
      <trkpt lat="37.7193600" lon="-3.9790680">
        <ele>646.8</ele>
        <time>2021-12-27T16:59:29Z</time>
      </trkpt>
      <trkpt lat="37.7193570" lon="-3.9791080">
        <ele>646.8</ele>
        <time>2021-12-27T16:59:30Z</time>
      </trkpt>
      <trkpt lat="37.7193500" lon="-3.9791480">
        <ele>646.8</ele>
        <time>2021-12-27T16:59:31Z</time>
      </trkpt>
      <trkpt lat="37.7193440" lon="-3.9791850">
        <ele>647.0</ele>
        <time>2021-12-27T16:59:32Z</time>
      </trkpt>
      <trkpt lat="37.7193380" lon="-3.9792200">
        <ele>647.0</ele>
        <time>2021-12-27T16:59:33Z</time>
      </trkpt>
      <trkpt lat="37.7193310" lon="-3.9792580">
        <ele>647.2</ele>
        <time>2021-12-27T16:59:34Z</time>
      </trkpt>
      <trkpt lat="37.7193220" lon="-3.9793000">
        <ele>647.4</ele>
        <time>2021-12-27T16:59:35Z</time>
      </trkpt>
      <trkpt lat="37.7193180" lon="-3.9793400">
        <ele>647.4</ele>
        <time>2021-12-27T16:59:36Z</time>
      </trkpt>
      <trkpt lat="37.7193120" lon="-3.9793800">
        <ele>647.6</ele>
        <time>2021-12-27T16:59:37Z</time>
      </trkpt>
      <trkpt lat="37.7193020" lon="-3.9794220">
        <ele>647.6</ele>
        <time>2021-12-27T16:59:38Z</time>
      </trkpt>
      <trkpt lat="37.7192960" lon="-3.9794630">
        <ele>647.6</ele>
        <time>2021-12-27T16:59:39Z</time>
      </trkpt>
      <trkpt lat="37.7192860" lon="-3.9795030">
        <ele>647.6</ele>
        <time>2021-12-27T16:59:40Z</time>
      </trkpt>
      <trkpt lat="37.7192770" lon="-3.9795450">
        <ele>647.6</ele>
        <time>2021-12-27T16:59:41Z</time>
      </trkpt>
      <trkpt lat="37.7192740" lon="-3.9795850">
        <ele>647.8</ele>
        <time>2021-12-27T16:59:42Z</time>
      </trkpt>
      <trkpt lat="37.7192610" lon="-3.9796270">
        <ele>647.8</ele>
        <time>2021-12-27T16:59:43Z</time>
      </trkpt>
      <trkpt lat="37.7192510" lon="-3.9796700">
        <ele>647.8</ele>
        <time>2021-12-27T16:59:44Z</time>
      </trkpt>
      <trkpt lat="37.7192420" lon="-3.9797150">
        <ele>647.8</ele>
        <time>2021-12-27T16:59:45Z</time>
      </trkpt>
      <trkpt lat="37.7192320" lon="-3.9797620">
        <ele>647.8</ele>
        <time>2021-12-27T16:59:46Z</time>
      </trkpt>
      <trkpt lat="37.7192190" lon="-3.9798180">
        <ele>647.8</ele>
        <time>2021-12-27T16:59:47Z</time>
      </trkpt>
      <trkpt lat="37.7192130" lon="-3.9798570">
        <ele>647.6</ele>
        <time>2021-12-27T16:59:48Z</time>
      </trkpt>
      <trkpt lat="37.7192000" lon="-3.9799130">
        <ele>647.6</ele>
        <time>2021-12-27T16:59:49Z</time>
      </trkpt>
      <trkpt lat="37.7191970" lon="-3.9799500">
        <ele>647.6</ele>
        <time>2021-12-27T16:59:50Z</time>
      </trkpt>
      <trkpt lat="37.7191840" lon="-3.9800070">
        <ele>647.4</ele>
        <time>2021-12-27T16:59:51Z</time>
      </trkpt>
      <trkpt lat="37.7191780" lon="-3.9800450">
        <ele>647.4</ele>
        <time>2021-12-27T16:59:52Z</time>
      </trkpt>
      <trkpt lat="37.7191710" lon="-3.9800920">
        <ele>647.4</ele>
        <time>2021-12-27T16:59:53Z</time>
      </trkpt>
      <trkpt lat="37.7191580" lon="-3.9801400">
        <ele>647.4</ele>
        <time>2021-12-27T16:59:54Z</time>
      </trkpt>
      <trkpt lat="37.7191520" lon="-3.9801900">
        <ele>647.4</ele>
        <time>2021-12-27T16:59:55Z</time>
      </trkpt>
      <trkpt lat="37.7191390" lon="-3.9802380">
        <ele>647.4</ele>
        <time>2021-12-27T16:59:56Z</time>
      </trkpt>
      <trkpt lat="37.7191330" lon="-3.9802880">
        <ele>647.6</ele>
        <time>2021-12-27T16:59:57Z</time>
      </trkpt>
      <trkpt lat="37.7191200" lon="-3.9803330">
        <ele>647.6</ele>
        <time>2021-12-27T16:59:58Z</time>
      </trkpt>
      <trkpt lat="37.7191070" lon="-3.9803770">
        <ele>647.6</ele>
        <time>2021-12-27T16:59:59Z</time>
      </trkpt>
      <trkpt lat="37.7190910" lon="-3.9804450">
        <ele>647.6</ele>
        <time>2021-12-27T17:00:00Z</time>
      </trkpt>
      <trkpt lat="37.7190850" lon="-3.9804680">
        <ele>647.6</ele>
        <time>2021-12-27T17:00:01Z</time>
      </trkpt>
      <trkpt lat="37.7190780" lon="-3.9805150">
        <ele>647.6</ele>
        <time>2021-12-27T17:00:02Z</time>
      </trkpt>
      <trkpt lat="37.7190660" lon="-3.9805640">
        <ele>647.8</ele>
        <time>2021-12-27T17:00:03Z</time>
      </trkpt>
      <trkpt lat="37.7190560" lon="-3.9806120">
        <ele>647.8</ele>
        <time>2021-12-27T17:00:04Z</time>
      </trkpt>
      <trkpt lat="37.7190430" lon="-3.9806570">
        <ele>647.8</ele>
        <time>2021-12-27T17:00:05Z</time>
      </trkpt>
      <trkpt lat="37.7190370" lon="-3.9807050">
        <ele>647.8</ele>
        <time>2021-12-27T17:00:06Z</time>
      </trkpt>
      <trkpt lat="37.7190270" lon="-3.9807520">
        <ele>647.8</ele>
        <time>2021-12-27T17:00:07Z</time>
      </trkpt>
      <trkpt lat="37.7190180" lon="-3.9807970">
        <ele>647.8</ele>
        <time>2021-12-27T17:00:08Z</time>
      </trkpt>
      <trkpt lat="37.7190080" lon="-3.9808450">
        <ele>647.8</ele>
        <time>2021-12-27T17:00:09Z</time>
      </trkpt>
      <trkpt lat="37.7190020" lon="-3.9808920">
        <ele>648.0</ele>
        <time>2021-12-27T17:00:10Z</time>
      </trkpt>
      <trkpt lat="37.7189860" lon="-3.9809380">
        <ele>648.0</ele>
        <time>2021-12-27T17:00:11Z</time>
      </trkpt>
      <trkpt lat="37.7189760" lon="-3.9809850">
        <ele>648.2</ele>
        <time>2021-12-27T17:00:12Z</time>
      </trkpt>
      <trkpt lat="37.7189630" lon="-3.9810320">
        <ele>648.2</ele>
        <time>2021-12-27T17:00:13Z</time>
      </trkpt>
      <trkpt lat="37.7189570" lon="-3.9810800">
        <ele>648.2</ele>
        <time>2021-12-27T17:00:14Z</time>
      </trkpt>
      <trkpt lat="37.7189440" lon="-3.9811280">
        <ele>648.2</ele>
        <time>2021-12-27T17:00:15Z</time>
      </trkpt>
      <trkpt lat="37.7189280" lon="-3.9811750">
        <ele>648.2</ele>
        <time>2021-12-27T17:00:16Z</time>
      </trkpt>
      <trkpt lat="37.7189180" lon="-3.9812220">
        <ele>648.2</ele>
        <time>2021-12-27T17:00:17Z</time>
      </trkpt>
      <trkpt lat="37.7189060" lon="-3.9812670">
        <ele>648.2</ele>
        <time>2021-12-27T17:00:18Z</time>
      </trkpt>
      <trkpt lat="37.7188900" lon="-3.9813200">
        <ele>648.2</ele>
        <time>2021-12-27T17:00:19Z</time>
      </trkpt>
      <trkpt lat="37.7188800" lon="-3.9813530">
        <ele>648.2</ele>
        <time>2021-12-27T17:00:20Z</time>
      </trkpt>
      <trkpt lat="37.7188640" lon="-3.9814070">
        <ele>648.2</ele>
        <time>2021-12-27T17:00:21Z</time>
      </trkpt>
      <trkpt lat="37.7188580" lon="-3.9814440">
        <ele>648.4</ele>
        <time>2021-12-27T17:00:22Z</time>
      </trkpt>
      <trkpt lat="37.7188450" lon="-3.9814970">
        <ele>648.4</ele>
        <time>2021-12-27T17:00:23Z</time>
      </trkpt>
      <trkpt lat="37.7188380" lon="-3.9815320">
        <ele>648.4</ele>
        <time>2021-12-27T17:00:24Z</time>
      </trkpt>
      <trkpt lat="37.7188260" lon="-3.9815750">
        <ele>648.4</ele>
        <time>2021-12-27T17:00:25Z</time>
      </trkpt>
      <trkpt lat="37.7188160" lon="-3.9816200">
        <ele>648.6</ele>
        <time>2021-12-27T17:00:26Z</time>
      </trkpt>
      <trkpt lat="37.7188030" lon="-3.9816630">
        <ele>648.6</ele>
        <time>2021-12-27T17:00:27Z</time>
      </trkpt>
      <trkpt lat="37.7187900" lon="-3.9817080">
        <ele>648.6</ele>
        <time>2021-12-27T17:00:28Z</time>
      </trkpt>
      <trkpt lat="37.7187810" lon="-3.9817500">
        <ele>648.8</ele>
        <time>2021-12-27T17:00:29Z</time>
      </trkpt>
      <trkpt lat="37.7187740" lon="-3.9817940">
        <ele>649.0</ele>
        <time>2021-12-27T17:00:30Z</time>
      </trkpt>
      <trkpt lat="37.7187620" lon="-3.9818380">
        <ele>649.0</ele>
        <time>2021-12-27T17:00:31Z</time>
      </trkpt>
      <trkpt lat="37.7187490" lon="-3.9818850">
        <ele>649.0</ele>
        <time>2021-12-27T17:00:32Z</time>
      </trkpt>
      <trkpt lat="37.7187390" lon="-3.9819320">
        <ele>649.2</ele>
        <time>2021-12-27T17:00:33Z</time>
      </trkpt>
      <trkpt lat="37.7187260" lon="-3.9819780">
        <ele>649.2</ele>
        <time>2021-12-27T17:00:34Z</time>
      </trkpt>
      <trkpt lat="37.7187170" lon="-3.9820250">
        <ele>649.4</ele>
        <time>2021-12-27T17:00:35Z</time>
      </trkpt>
      <trkpt lat="37.7187010" lon="-3.9820750">
        <ele>649.4</ele>
        <time>2021-12-27T17:00:36Z</time>
      </trkpt>
      <trkpt lat="37.7186820" lon="-3.9821200">
        <ele>649.4</ele>
        <time>2021-12-27T17:00:37Z</time>
      </trkpt>
      <trkpt lat="37.7186620" lon="-3.9821640">
        <ele>649.6</ele>
        <time>2021-12-27T17:00:38Z</time>
      </trkpt>
      <trkpt lat="37.7186430" lon="-3.9822030">
        <ele>649.8</ele>
        <time>2021-12-27T17:00:39Z</time>
      </trkpt>
      <trkpt lat="37.7186270" lon="-3.9822430">
        <ele>649.8</ele>
        <time>2021-12-27T17:00:40Z</time>
      </trkpt>
      <trkpt lat="37.7186050" lon="-3.9822830">
        <ele>649.8</ele>
        <time>2021-12-27T17:00:41Z</time>
      </trkpt>
      <trkpt lat="37.7185890" lon="-3.9823280">
        <ele>650.0</ele>
        <time>2021-12-27T17:00:42Z</time>
      </trkpt>
      <trkpt lat="37.7185700" lon="-3.9823750">
        <ele>650.0</ele>
        <time>2021-12-27T17:00:43Z</time>
      </trkpt>
      <trkpt lat="37.7185500" lon="-3.9824220">
        <ele>649.8</ele>
        <time>2021-12-27T17:00:44Z</time>
      </trkpt>
      <trkpt lat="37.7185380" lon="-3.9824670">
        <ele>649.8</ele>
        <time>2021-12-27T17:00:45Z</time>
      </trkpt>
      <trkpt lat="37.7185180" lon="-3.9825140">
        <ele>649.8</ele>
        <time>2021-12-27T17:00:46Z</time>
      </trkpt>
      <trkpt lat="37.7184990" lon="-3.9825560">
        <ele>649.8</ele>
        <time>2021-12-27T17:00:47Z</time>
      </trkpt>
      <trkpt lat="37.7184860" lon="-3.9826050">
        <ele>649.6</ele>
        <time>2021-12-27T17:00:48Z</time>
      </trkpt>
      <trkpt lat="37.7184800" lon="-3.9826500">
        <ele>649.6</ele>
        <time>2021-12-27T17:00:49Z</time>
      </trkpt>
      <trkpt lat="37.7184700" lon="-3.9826980">
        <ele>649.6</ele>
        <time>2021-12-27T17:00:50Z</time>
      </trkpt>
      <trkpt lat="37.7184610" lon="-3.9827420">
        <ele>649.6</ele>
        <time>2021-12-27T17:00:51Z</time>
      </trkpt>
      <trkpt lat="37.7184510" lon="-3.9827970">
        <ele>649.6</ele>
        <time>2021-12-27T17:00:52Z</time>
      </trkpt>
      <trkpt lat="37.7184450" lon="-3.9828430">
        <ele>649.6</ele>
        <time>2021-12-27T17:00:53Z</time>
      </trkpt>
      <trkpt lat="37.7184380" lon="-3.9828800">
        <ele>649.6</ele>
        <time>2021-12-27T17:00:54Z</time>
      </trkpt>
      <trkpt lat="37.7184260" lon="-3.9829350">
        <ele>649.6</ele>
        <time>2021-12-27T17:00:55Z</time>
      </trkpt>
      <trkpt lat="37.7184130" lon="-3.9829750">
        <ele>649.6</ele>
        <time>2021-12-27T17:00:56Z</time>
      </trkpt>
      <trkpt lat="37.7184060" lon="-3.9830220">
        <ele>649.6</ele>
        <time>2021-12-27T17:00:57Z</time>
      </trkpt>
      <trkpt lat="37.7183970" lon="-3.9830700">
        <ele>649.6</ele>
        <time>2021-12-27T17:00:58Z</time>
      </trkpt>
      <trkpt lat="37.7183870" lon="-3.9831170">
        <ele>649.4</ele>
        <time>2021-12-27T17:00:59Z</time>
      </trkpt>
      <trkpt lat="37.7183810" lon="-3.9831630">
        <ele>649.4</ele>
        <time>2021-12-27T17:01:00Z</time>
      </trkpt>
      <trkpt lat="37.7183780" lon="-3.9832070">
        <ele>649.4</ele>
        <time>2021-12-27T17:01:01Z</time>
      </trkpt>
      <trkpt lat="37.7183680" lon="-3.9832470">
        <ele>649.4</ele>
        <time>2021-12-27T17:01:02Z</time>
      </trkpt>
      <trkpt lat="37.7183650" lon="-3.9832850">
        <ele>649.4</ele>
        <time>2021-12-27T17:01:03Z</time>
      </trkpt>
      <trkpt lat="37.7183620" lon="-3.9833280">
        <ele>649.4</ele>
        <time>2021-12-27T17:01:04Z</time>
      </trkpt>
      <trkpt lat="37.7183620" lon="-3.9833550">
        <ele>649.4</ele>
        <time>2021-12-27T17:01:05Z</time>
      </trkpt>
      <trkpt lat="37.7183580" lon="-3.9833880">
        <ele>649.4</ele>
        <time>2021-12-27T17:01:06Z</time>
      </trkpt>
      <trkpt lat="37.7183520" lon="-3.9834180">
        <ele>649.4</ele>
        <time>2021-12-27T17:01:07Z</time>
      </trkpt>
      <trkpt lat="37.7183490" lon="-3.9834460">
        <ele>649.4</ele>
        <time>2021-12-27T17:01:08Z</time>
      </trkpt>
      <trkpt lat="37.7183460" lon="-3.9834750">
        <ele>649.4</ele>
        <time>2021-12-27T17:01:09Z</time>
      </trkpt>
      <trkpt lat="37.7183420" lon="-3.9835080">
        <ele>649.4</ele>
        <time>2021-12-27T17:01:10Z</time>
      </trkpt>
      <trkpt lat="37.7183390" lon="-3.9835400">
        <ele>649.4</ele>
        <time>2021-12-27T17:01:11Z</time>
      </trkpt>
      <trkpt lat="37.7183330" lon="-3.9835700">
        <ele>649.4</ele>
        <time>2021-12-27T17:01:12Z</time>
      </trkpt>
      <trkpt lat="37.7183300" lon="-3.9836040">
        <ele>649.4</ele>
        <time>2021-12-27T17:01:13Z</time>
      </trkpt>
      <trkpt lat="37.7183260" lon="-3.9836380">
        <ele>649.4</ele>
        <time>2021-12-27T17:01:14Z</time>
      </trkpt>
      <trkpt lat="37.7183260" lon="-3.9836720">
        <ele>649.4</ele>
        <time>2021-12-27T17:01:15Z</time>
      </trkpt>
      <trkpt lat="37.7183230" lon="-3.9837070">
        <ele>649.4</ele>
        <time>2021-12-27T17:01:16Z</time>
      </trkpt>
      <trkpt lat="37.7183230" lon="-3.9837450">
        <ele>649.4</ele>
        <time>2021-12-27T17:01:17Z</time>
      </trkpt>
      <trkpt lat="37.7183200" lon="-3.9837820">
        <ele>649.2</ele>
        <time>2021-12-27T17:01:18Z</time>
      </trkpt>
      <trkpt lat="37.7183200" lon="-3.9838150">
        <ele>649.2</ele>
        <time>2021-12-27T17:01:19Z</time>
      </trkpt>
      <trkpt lat="37.7183200" lon="-3.9838500">
        <ele>649.0</ele>
        <time>2021-12-27T17:01:20Z</time>
      </trkpt>
      <trkpt lat="37.7183200" lon="-3.9838850">
        <ele>649.0</ele>
        <time>2021-12-27T17:01:21Z</time>
      </trkpt>
      <trkpt lat="37.7183230" lon="-3.9839220">
        <ele>648.8</ele>
        <time>2021-12-27T17:01:22Z</time>
      </trkpt>
      <trkpt lat="37.7183230" lon="-3.9839580">
        <ele>648.6</ele>
        <time>2021-12-27T17:01:23Z</time>
      </trkpt>
      <trkpt lat="37.7183260" lon="-3.9839950">
        <ele>648.6</ele>
        <time>2021-12-27T17:01:24Z</time>
      </trkpt>
      <trkpt lat="37.7183300" lon="-3.9840400">
        <ele>648.6</ele>
        <time>2021-12-27T17:01:25Z</time>
      </trkpt>
      <trkpt lat="37.7183330" lon="-3.9840720">
        <ele>648.6</ele>
        <time>2021-12-27T17:01:26Z</time>
      </trkpt>
      <trkpt lat="37.7183390" lon="-3.9841120">
        <ele>648.6</ele>
        <time>2021-12-27T17:01:27Z</time>
      </trkpt>
      <trkpt lat="37.7183420" lon="-3.9841500">
        <ele>648.6</ele>
        <time>2021-12-27T17:01:28Z</time>
      </trkpt>
      <trkpt lat="37.7183420" lon="-3.9841920">
        <ele>648.6</ele>
        <time>2021-12-27T17:01:29Z</time>
      </trkpt>
      <trkpt lat="37.7183490" lon="-3.9842320">
        <ele>648.6</ele>
        <time>2021-12-27T17:01:30Z</time>
      </trkpt>
      <trkpt lat="37.7183580" lon="-3.9842680">
        <ele>648.6</ele>
        <time>2021-12-27T17:01:31Z</time>
      </trkpt>
      <trkpt lat="37.7183680" lon="-3.9843020">
        <ele>648.6</ele>
        <time>2021-12-27T17:01:32Z</time>
      </trkpt>
      <trkpt lat="37.7183710" lon="-3.9843350">
        <ele>648.6</ele>
        <time>2021-12-27T17:01:33Z</time>
      </trkpt>
      <trkpt lat="37.7183810" lon="-3.9843680">
        <ele>648.6</ele>
        <time>2021-12-27T17:01:34Z</time>
      </trkpt>
      <trkpt lat="37.7183870" lon="-3.9844050">
        <ele>648.6</ele>
        <time>2021-12-27T17:01:35Z</time>
      </trkpt>
      <trkpt lat="37.7183900" lon="-3.9844430">
        <ele>648.4</ele>
        <time>2021-12-27T17:01:36Z</time>
      </trkpt>
      <trkpt lat="37.7183900" lon="-3.9844820">
        <ele>648.4</ele>
        <time>2021-12-27T17:01:37Z</time>
      </trkpt>
      <trkpt lat="37.7184000" lon="-3.9845200">
        <ele>648.4</ele>
        <time>2021-12-27T17:01:38Z</time>
      </trkpt>
      <trkpt lat="37.7184060" lon="-3.9845570">
        <ele>648.2</ele>
        <time>2021-12-27T17:01:39Z</time>
      </trkpt>
      <trkpt lat="37.7184220" lon="-3.9845950">
        <ele>648.2</ele>
        <time>2021-12-27T17:01:40Z</time>
      </trkpt>
      <trkpt lat="37.7184290" lon="-3.9846350">
        <ele>648.0</ele>
        <time>2021-12-27T17:01:41Z</time>
      </trkpt>
      <trkpt lat="37.7184380" lon="-3.9846760">
        <ele>648.0</ele>
        <time>2021-12-27T17:01:42Z</time>
      </trkpt>
      <trkpt lat="37.7184480" lon="-3.9847130">
        <ele>648.0</ele>
        <time>2021-12-27T17:01:43Z</time>
      </trkpt>
      <trkpt lat="37.7184610" lon="-3.9847480">
        <ele>648.2</ele>
        <time>2021-12-27T17:01:44Z</time>
      </trkpt>
      <trkpt lat="37.7184700" lon="-3.9847840">
        <ele>648.2</ele>
        <time>2021-12-27T17:01:45Z</time>
      </trkpt>
      <trkpt lat="37.7184830" lon="-3.9848200">
        <ele>648.2</ele>
        <time>2021-12-27T17:01:46Z</time>
      </trkpt>
      <trkpt lat="37.7184900" lon="-3.9848600">
        <ele>648.2</ele>
        <time>2021-12-27T17:01:47Z</time>
      </trkpt>
      <trkpt lat="37.7184990" lon="-3.9848980">
        <ele>648.2</ele>
        <time>2021-12-27T17:01:48Z</time>
      </trkpt>
      <trkpt lat="37.7185060" lon="-3.9849380">
        <ele>648.4</ele>
        <time>2021-12-27T17:01:49Z</time>
      </trkpt>
      <trkpt lat="37.7185120" lon="-3.9849870">
        <ele>648.4</ele>
        <time>2021-12-27T17:01:50Z</time>
      </trkpt>
      <trkpt lat="37.7185250" lon="-3.9850300">
        <ele>648.6</ele>
        <time>2021-12-27T17:01:51Z</time>
      </trkpt>
      <trkpt lat="37.7185410" lon="-3.9850780">
        <ele>648.6</ele>
        <time>2021-12-27T17:01:52Z</time>
      </trkpt>
      <trkpt lat="37.7185500" lon="-3.9851270">
        <ele>648.6</ele>
        <time>2021-12-27T17:01:53Z</time>
      </trkpt>
      <trkpt lat="37.7185660" lon="-3.9851720">
        <ele>648.6</ele>
        <time>2021-12-27T17:01:54Z</time>
      </trkpt>
      <trkpt lat="37.7185790" lon="-3.9852170">
        <ele>648.4</ele>
        <time>2021-12-27T17:01:55Z</time>
      </trkpt>
      <trkpt lat="37.7185920" lon="-3.9852600">
        <ele>648.4</ele>
        <time>2021-12-27T17:01:56Z</time>
      </trkpt>
      <trkpt lat="37.7186110" lon="-3.9853070">
        <ele>648.4</ele>
        <time>2021-12-27T17:01:57Z</time>
      </trkpt>
      <trkpt lat="37.7186270" lon="-3.9853500">
        <ele>648.4</ele>
        <time>2021-12-27T17:01:58Z</time>
      </trkpt>
      <trkpt lat="37.7186430" lon="-3.9853900">
        <ele>648.4</ele>
        <time>2021-12-27T17:01:59Z</time>
      </trkpt>
      <trkpt lat="37.7186590" lon="-3.9854280">
        <ele>648.4</ele>
        <time>2021-12-27T17:02:00Z</time>
      </trkpt>
      <trkpt lat="37.7186780" lon="-3.9854680">
        <ele>648.2</ele>
        <time>2021-12-27T17:02:01Z</time>
      </trkpt>
      <trkpt lat="37.7186980" lon="-3.9855080">
        <ele>648.2</ele>
        <time>2021-12-27T17:02:02Z</time>
      </trkpt>
      <trkpt lat="37.7187170" lon="-3.9855480">
        <ele>648.2</ele>
        <time>2021-12-27T17:02:03Z</time>
      </trkpt>
      <trkpt lat="37.7187360" lon="-3.9855850">
        <ele>648.2</ele>
        <time>2021-12-27T17:02:04Z</time>
      </trkpt>
      <trkpt lat="37.7187550" lon="-3.9856200">
        <ele>648.2</ele>
        <time>2021-12-27T17:02:05Z</time>
      </trkpt>
      <trkpt lat="37.7187680" lon="-3.9856550">
        <ele>648.2</ele>
        <time>2021-12-27T17:02:06Z</time>
      </trkpt>
      <trkpt lat="37.7187840" lon="-3.9856900">
        <ele>648.2</ele>
        <time>2021-12-27T17:02:07Z</time>
      </trkpt>
      <trkpt lat="37.7188060" lon="-3.9857300">
        <ele>648.2</ele>
        <time>2021-12-27T17:02:08Z</time>
      </trkpt>
      <trkpt lat="37.7188190" lon="-3.9857600">
        <ele>648.2</ele>
        <time>2021-12-27T17:02:09Z</time>
      </trkpt>
      <trkpt lat="37.7188380" lon="-3.9857950">
        <ele>648.2</ele>
        <time>2021-12-27T17:02:10Z</time>
      </trkpt>
      <trkpt lat="37.7188540" lon="-3.9858280">
        <ele>648.2</ele>
        <time>2021-12-27T17:02:11Z</time>
      </trkpt>
      <trkpt lat="37.7188770" lon="-3.9858560">
        <ele>648.2</ele>
        <time>2021-12-27T17:02:12Z</time>
      </trkpt>
      <trkpt lat="37.7188990" lon="-3.9858880">
        <ele>648.2</ele>
        <time>2021-12-27T17:02:13Z</time>
      </trkpt>
      <trkpt lat="37.7189220" lon="-3.9859130">
        <ele>648.2</ele>
        <time>2021-12-27T17:02:14Z</time>
      </trkpt>
      <trkpt lat="37.7189220" lon="-3.9859130">
        <ele>648.2</ele>
        <time>2021-12-27T17:02:15Z</time>
      </trkpt>
      <trkpt lat="37.7189220" lon="-3.9859130">
        <ele>648.2</ele>
        <time>2021-12-27T17:02:16Z</time>
      </trkpt>
      <trkpt lat="37.7189220" lon="-3.9859130">
        <ele>648.2</ele>
        <time>2021-12-27T17:02:17Z</time>
      </trkpt>
      <trkpt lat="37.7189220" lon="-3.9859130">
        <ele>648.2</ele>
        <time>2021-12-27T17:02:18Z</time>
      </trkpt>
      <trkpt lat="37.7189220" lon="-3.9859130">
        <ele>648.2</ele>
        <time>2021-12-27T17:02:19Z</time>
      </trkpt>
      <trkpt lat="37.7189220" lon="-3.9859130">
        <ele>648.2</ele>
        <time>2021-12-27T17:02:20Z</time>
      </trkpt>
      <trkpt lat="37.7189220" lon="-3.9859130">
        <ele>648.2</ele>
        <time>2021-12-27T17:02:21Z</time>
      </trkpt>
      <trkpt lat="37.7189220" lon="-3.9859130">
        <ele>648.2</ele>
        <time>2021-12-27T17:02:22Z</time>
      </trkpt>
      <trkpt lat="37.7189220" lon="-3.9859130">
        <ele>648.2</ele>
        <time>2021-12-27T17:02:23Z</time>
      </trkpt>
      <trkpt lat="37.7189220" lon="-3.9859130">
        <ele>648.2</ele>
        <time>2021-12-27T17:02:24Z</time>
      </trkpt>
      <trkpt lat="37.7189220" lon="-3.9859130">
        <ele>648.2</ele>
        <time>2021-12-27T17:02:25Z</time>
      </trkpt>
      <trkpt lat="37.7189220" lon="-3.9859130">
        <ele>648.2</ele>
        <time>2021-12-27T17:02:26Z</time>
      </trkpt>
      <trkpt lat="37.7189220" lon="-3.9859130">
        <ele>648.2</ele>
        <time>2021-12-27T17:02:27Z</time>
      </trkpt>
      <trkpt lat="37.7189220" lon="-3.9859130">
        <ele>648.2</ele>
        <time>2021-12-27T17:02:28Z</time>
      </trkpt>
      <trkpt lat="37.7189220" lon="-3.9859130">
        <ele>648.2</ele>
        <time>2021-12-27T17:02:29Z</time>
      </trkpt>
      <trkpt lat="37.7189220" lon="-3.9859130">
        <ele>648.2</ele>
        <time>2021-12-27T17:02:30Z</time>
      </trkpt>
      <trkpt lat="37.7189220" lon="-3.9859130">
        <ele>648.2</ele>
        <time>2021-12-27T17:02:31Z</time>
      </trkpt>
      <trkpt lat="37.7194210" lon="-3.9867270">
        <ele>648.2</ele>
        <time>2021-12-27T17:02:32Z</time>
      </trkpt>
      <trkpt lat="37.7194610" lon="-3.9867670">
        <ele>648.2</ele>
        <time>2021-12-27T17:02:33Z</time>
      </trkpt>
      <trkpt lat="37.7195010" lon="-3.9868070">
        <ele>648.2</ele>
        <time>2021-12-27T17:02:34Z</time>
      </trkpt>
      <trkpt lat="37.7195200" lon="-3.9868650">
        <ele>648.2</ele>
        <time>2021-12-27T17:02:35Z</time>
      </trkpt>
      <trkpt lat="37.7195330" lon="-3.9868940">
        <ele>648.2</ele>
        <time>2021-12-27T17:02:36Z</time>
      </trkpt>
      <trkpt lat="37.7195490" lon="-3.9869450">
        <ele>648.2</ele>
        <time>2021-12-27T17:02:37Z</time>
      </trkpt>
      <trkpt lat="37.7195810" lon="-3.9869900">
        <ele>648.2</ele>
        <time>2021-12-27T17:02:38Z</time>
      </trkpt>
      <trkpt lat="37.7196100" lon="-3.9870220">
        <ele>648.0</ele>
        <time>2021-12-27T17:02:39Z</time>
      </trkpt>
      <trkpt lat="37.7196510" lon="-3.9870800">
        <ele>647.8</ele>
        <time>2021-12-27T17:02:40Z</time>
      </trkpt>
      <trkpt lat="37.7196770" lon="-3.9871180">
        <ele>647.8</ele>
        <time>2021-12-27T17:02:41Z</time>
      </trkpt>
      <trkpt lat="37.7197090" lon="-3.9871730">
        <ele>647.6</ele>
        <time>2021-12-27T17:02:42Z</time>
      </trkpt>
      <trkpt lat="37.7197410" lon="-3.9872230">
        <ele>647.6</ele>
        <time>2021-12-27T17:02:43Z</time>
      </trkpt>
      <trkpt lat="37.7197760" lon="-3.9872720">
        <ele>647.4</ele>
        <time>2021-12-27T17:02:44Z</time>
      </trkpt>
      <trkpt lat="37.7198080" lon="-3.9873200">
        <ele>647.2</ele>
        <time>2021-12-27T17:02:45Z</time>
      </trkpt>
      <trkpt lat="37.7198400" lon="-3.9873680">
        <ele>647.2</ele>
        <time>2021-12-27T17:02:46Z</time>
      </trkpt>
      <trkpt lat="37.7198720" lon="-3.9874140">
        <ele>647.0</ele>
        <time>2021-12-27T17:02:47Z</time>
      </trkpt>
      <trkpt lat="37.7199070" lon="-3.9874580">
        <ele>647.0</ele>
        <time>2021-12-27T17:02:48Z</time>
      </trkpt>
      <trkpt lat="37.7199390" lon="-3.9875030">
        <ele>646.8</ele>
        <time>2021-12-27T17:02:49Z</time>
      </trkpt>
      <trkpt lat="37.7199680" lon="-3.9875520">
        <ele>646.8</ele>
        <time>2021-12-27T17:02:50Z</time>
      </trkpt>
      <trkpt lat="37.7200000" lon="-3.9876000">
        <ele>646.6</ele>
        <time>2021-12-27T17:02:51Z</time>
      </trkpt>
      <trkpt lat="37.7200320" lon="-3.9876480">
        <ele>646.6</ele>
        <time>2021-12-27T17:02:52Z</time>
      </trkpt>
      <trkpt lat="37.7200610" lon="-3.9876950">
        <ele>646.4</ele>
        <time>2021-12-27T17:02:53Z</time>
      </trkpt>
      <trkpt lat="37.7200900" lon="-3.9877450">
        <ele>646.4</ele>
        <time>2021-12-27T17:02:54Z</time>
      </trkpt>
      <trkpt lat="37.7201250" lon="-3.9877880">
        <ele>646.4</ele>
        <time>2021-12-27T17:02:55Z</time>
      </trkpt>
      <trkpt lat="37.7201540" lon="-3.9878330">
        <ele>646.2</ele>
        <time>2021-12-27T17:02:56Z</time>
      </trkpt>
      <trkpt lat="37.7201790" lon="-3.9878780">
        <ele>646.2</ele>
        <time>2021-12-27T17:02:57Z</time>
      </trkpt>
      <trkpt lat="37.7202080" lon="-3.9879250">
        <ele>646.2</ele>
        <time>2021-12-27T17:02:58Z</time>
      </trkpt>
      <trkpt lat="37.7202300" lon="-3.9879720">
        <ele>646.0</ele>
        <time>2021-12-27T17:02:59Z</time>
      </trkpt>
      <trkpt lat="37.7202560" lon="-3.9880170">
        <ele>646.0</ele>
        <time>2021-12-27T17:03:00Z</time>
      </trkpt>
      <trkpt lat="37.7202850" lon="-3.9880650">
        <ele>645.8</ele>
        <time>2021-12-27T17:03:01Z</time>
      </trkpt>
      <trkpt lat="37.7203040" lon="-3.9881140">
        <ele>645.6</ele>
        <time>2021-12-27T17:03:02Z</time>
      </trkpt>
      <trkpt lat="37.7203300" lon="-3.9881620">
        <ele>645.4</ele>
        <time>2021-12-27T17:03:03Z</time>
      </trkpt>
      <trkpt lat="37.7203520" lon="-3.9882070">
        <ele>645.4</ele>
        <time>2021-12-27T17:03:04Z</time>
      </trkpt>
      <trkpt lat="37.7203740" lon="-3.9882550">
        <ele>645.2</ele>
        <time>2021-12-27T17:03:05Z</time>
      </trkpt>
      <trkpt lat="37.7204030" lon="-3.9883030">
        <ele>645.0</ele>
        <time>2021-12-27T17:03:06Z</time>
      </trkpt>
      <trkpt lat="37.7204290" lon="-3.9883530">
        <ele>645.0</ele>
        <time>2021-12-27T17:03:07Z</time>
      </trkpt>
      <trkpt lat="37.7204510" lon="-3.9884070">
        <ele>644.8</ele>
        <time>2021-12-27T17:03:08Z</time>
      </trkpt>
      <trkpt lat="37.7204700" lon="-3.9884640">
        <ele>644.8</ele>
        <time>2021-12-27T17:03:09Z</time>
      </trkpt>
      <trkpt lat="37.7204930" lon="-3.9885170">
        <ele>644.6</ele>
        <time>2021-12-27T17:03:10Z</time>
      </trkpt>
      <trkpt lat="37.7205220" lon="-3.9885680">
        <ele>644.4</ele>
        <time>2021-12-27T17:03:11Z</time>
      </trkpt>
      <trkpt lat="37.7205380" lon="-3.9886220">
        <ele>644.4</ele>
        <time>2021-12-27T17:03:12Z</time>
      </trkpt>
      <trkpt lat="37.7205630" lon="-3.9886660">
        <ele>644.2</ele>
        <time>2021-12-27T17:03:13Z</time>
      </trkpt>
      <trkpt lat="37.7205820" lon="-3.9887080">
        <ele>644.2</ele>
        <time>2021-12-27T17:03:14Z</time>
      </trkpt>
      <trkpt lat="37.7205920" lon="-3.9887450">
        <ele>644.0</ele>
        <time>2021-12-27T17:03:15Z</time>
      </trkpt>
      <trkpt lat="37.7206020" lon="-3.9887780">
        <ele>644.0</ele>
        <time>2021-12-27T17:03:16Z</time>
      </trkpt>
      <trkpt lat="37.7206110" lon="-3.9888120">
        <ele>644.0</ele>
        <time>2021-12-27T17:03:17Z</time>
      </trkpt>
      <trkpt lat="37.7206210" lon="-3.9888440">
        <ele>643.8</ele>
        <time>2021-12-27T17:03:18Z</time>
      </trkpt>
      <trkpt lat="37.7206270" lon="-3.9888750">
        <ele>643.8</ele>
        <time>2021-12-27T17:03:19Z</time>
      </trkpt>
      <trkpt lat="37.7206370" lon="-3.9889030">
        <ele>643.8</ele>
        <time>2021-12-27T17:03:20Z</time>
      </trkpt>
      <trkpt lat="37.7206500" lon="-3.9889330">
        <ele>643.6</ele>
        <time>2021-12-27T17:03:21Z</time>
      </trkpt>
      <trkpt lat="37.7206620" lon="-3.9889650">
        <ele>643.6</ele>
        <time>2021-12-27T17:03:22Z</time>
      </trkpt>
      <trkpt lat="37.7206720" lon="-3.9889980">
        <ele>643.4</ele>
        <time>2021-12-27T17:03:23Z</time>
      </trkpt>
      <trkpt lat="37.7206850" lon="-3.9890320">
        <ele>643.4</ele>
        <time>2021-12-27T17:03:24Z</time>
      </trkpt>
      <trkpt lat="37.7206910" lon="-3.9890680">
        <ele>643.2</ele>
        <time>2021-12-27T17:03:25Z</time>
      </trkpt>
      <trkpt lat="37.7207040" lon="-3.9891050">
        <ele>643.2</ele>
        <time>2021-12-27T17:03:26Z</time>
      </trkpt>
      <trkpt lat="37.7207170" lon="-3.9891400">
        <ele>643.2</ele>
        <time>2021-12-27T17:03:27Z</time>
      </trkpt>
      <trkpt lat="37.7207300" lon="-3.9891780">
        <ele>643.0</ele>
        <time>2021-12-27T17:03:28Z</time>
      </trkpt>
      <trkpt lat="37.7207420" lon="-3.9892200">
        <ele>643.0</ele>
        <time>2021-12-27T17:03:29Z</time>
      </trkpt>
      <trkpt lat="37.7207490" lon="-3.9892650">
        <ele>643.0</ele>
        <time>2021-12-27T17:03:30Z</time>
      </trkpt>
      <trkpt lat="37.7207550" lon="-3.9893120">
        <ele>643.0</ele>
        <time>2021-12-27T17:03:31Z</time>
      </trkpt>
      <trkpt lat="37.7207710" lon="-3.9893580">
        <ele>643.0</ele>
        <time>2021-12-27T17:03:32Z</time>
      </trkpt>
      <trkpt lat="37.7207840" lon="-3.9894060">
        <ele>643.0</ele>
        <time>2021-12-27T17:03:33Z</time>
      </trkpt>
      <trkpt lat="37.7207940" lon="-3.9894550">
        <ele>642.8</ele>
        <time>2021-12-27T17:03:34Z</time>
      </trkpt>
      <trkpt lat="37.7208060" lon="-3.9895050">
        <ele>642.8</ele>
        <time>2021-12-27T17:03:35Z</time>
      </trkpt>
      <trkpt lat="37.7208160" lon="-3.9895570">
        <ele>642.8</ele>
        <time>2021-12-27T17:03:36Z</time>
      </trkpt>
      <trkpt lat="37.7208290" lon="-3.9896080">
        <ele>642.8</ele>
        <time>2021-12-27T17:03:37Z</time>
      </trkpt>
      <trkpt lat="37.7208350" lon="-3.9896620">
        <ele>642.6</ele>
        <time>2021-12-27T17:03:38Z</time>
      </trkpt>
      <trkpt lat="37.7208480" lon="-3.9897130">
        <ele>642.6</ele>
        <time>2021-12-27T17:03:39Z</time>
      </trkpt>
      <trkpt lat="37.7208610" lon="-3.9897630">
        <ele>642.6</ele>
        <time>2021-12-27T17:03:40Z</time>
      </trkpt>
      <trkpt lat="37.7208700" lon="-3.9898150">
        <ele>642.4</ele>
        <time>2021-12-27T17:03:41Z</time>
      </trkpt>
      <trkpt lat="37.7208800" lon="-3.9898670">
        <ele>642.4</ele>
        <time>2021-12-27T17:03:42Z</time>
      </trkpt>
      <trkpt lat="37.7208860" lon="-3.9899180">
        <ele>642.4</ele>
        <time>2021-12-27T17:03:43Z</time>
      </trkpt>
      <trkpt lat="37.7208930" lon="-3.9899700">
        <ele>642.4</ele>
        <time>2021-12-27T17:03:44Z</time>
      </trkpt>
      <trkpt lat="37.7208990" lon="-3.9900220">
        <ele>642.4</ele>
        <time>2021-12-27T17:03:45Z</time>
      </trkpt>
      <trkpt lat="37.7209060" lon="-3.9900730">
        <ele>642.6</ele>
        <time>2021-12-27T17:03:46Z</time>
      </trkpt>
      <trkpt lat="37.7209090" lon="-3.9901230">
        <ele>642.6</ele>
        <time>2021-12-27T17:03:47Z</time>
      </trkpt>
      <trkpt lat="37.7209150" lon="-3.9901750">
        <ele>642.6</ele>
        <time>2021-12-27T17:03:48Z</time>
      </trkpt>
      <trkpt lat="37.7209220" lon="-3.9902250">
        <ele>642.6</ele>
        <time>2021-12-27T17:03:49Z</time>
      </trkpt>
      <trkpt lat="37.7209250" lon="-3.9902740">
        <ele>642.6</ele>
        <time>2021-12-27T17:03:50Z</time>
      </trkpt>
      <trkpt lat="37.7209280" lon="-3.9903200">
        <ele>642.4</ele>
        <time>2021-12-27T17:03:51Z</time>
      </trkpt>
      <trkpt lat="37.7209310" lon="-3.9903670">
        <ele>642.4</ele>
        <time>2021-12-27T17:03:52Z</time>
      </trkpt>
      <trkpt lat="37.7209410" lon="-3.9904130">
        <ele>642.4</ele>
        <time>2021-12-27T17:03:53Z</time>
      </trkpt>
      <trkpt lat="37.7209440" lon="-3.9904630">
        <ele>642.4</ele>
        <time>2021-12-27T17:03:54Z</time>
      </trkpt>
      <trkpt lat="37.7209470" lon="-3.9905100">
        <ele>642.4</ele>
        <time>2021-12-27T17:03:55Z</time>
      </trkpt>
      <trkpt lat="37.7209500" lon="-3.9905600">
        <ele>642.6</ele>
        <time>2021-12-27T17:03:56Z</time>
      </trkpt>
      <trkpt lat="37.7209540" lon="-3.9906070">
        <ele>642.6</ele>
        <time>2021-12-27T17:03:57Z</time>
      </trkpt>
      <trkpt lat="37.7209600" lon="-3.9906530">
        <ele>642.4</ele>
        <time>2021-12-27T17:03:58Z</time>
      </trkpt>
      <trkpt lat="37.7209630" lon="-3.9907030">
        <ele>642.4</ele>
        <time>2021-12-27T17:03:59Z</time>
      </trkpt>
      <trkpt lat="37.7209700" lon="-3.9907570">
        <ele>642.4</ele>
        <time>2021-12-27T17:04:00Z</time>
      </trkpt>
      <trkpt lat="37.7209730" lon="-3.9908100">
        <ele>642.4</ele>
        <time>2021-12-27T17:04:01Z</time>
      </trkpt>
      <trkpt lat="37.7209820" lon="-3.9908600">
        <ele>642.4</ele>
        <time>2021-12-27T17:04:02Z</time>
      </trkpt>
      <trkpt lat="37.7209890" lon="-3.9909130">
        <ele>642.2</ele>
        <time>2021-12-27T17:04:03Z</time>
      </trkpt>
      <trkpt lat="37.7209980" lon="-3.9909650">
        <ele>642.2</ele>
        <time>2021-12-27T17:04:04Z</time>
      </trkpt>
      <trkpt lat="37.7209980" lon="-3.9910170">
        <ele>642.2</ele>
        <time>2021-12-27T17:04:05Z</time>
      </trkpt>
      <trkpt lat="37.7210020" lon="-3.9910680">
        <ele>642.2</ele>
        <time>2021-12-27T17:04:06Z</time>
      </trkpt>
      <trkpt lat="37.7210020" lon="-3.9911220">
        <ele>642.2</ele>
        <time>2021-12-27T17:04:07Z</time>
      </trkpt>
      <trkpt lat="37.7210050" lon="-3.9911770">
        <ele>642.2</ele>
        <time>2021-12-27T17:04:08Z</time>
      </trkpt>
      <trkpt lat="37.7210080" lon="-3.9912300">
        <ele>642.2</ele>
        <time>2021-12-27T17:04:09Z</time>
      </trkpt>
      <trkpt lat="37.7210140" lon="-3.9912940">
        <ele>642.0</ele>
        <time>2021-12-27T17:04:10Z</time>
      </trkpt>
      <trkpt lat="37.7210240" lon="-3.9913350">
        <ele>642.0</ele>
        <time>2021-12-27T17:04:11Z</time>
      </trkpt>
      <trkpt lat="37.7210270" lon="-3.9913920">
        <ele>642.0</ele>
        <time>2021-12-27T17:04:12Z</time>
      </trkpt>
      <trkpt lat="37.7210340" lon="-3.9914480">
        <ele>642.0</ele>
        <time>2021-12-27T17:04:13Z</time>
      </trkpt>
      <trkpt lat="37.7210400" lon="-3.9915060">
        <ele>642.0</ele>
        <time>2021-12-27T17:04:14Z</time>
      </trkpt>
      <trkpt lat="37.7210460" lon="-3.9915650">
        <ele>642.0</ele>
        <time>2021-12-27T17:04:15Z</time>
      </trkpt>
      <trkpt lat="37.7210530" lon="-3.9916250">
        <ele>641.8</ele>
        <time>2021-12-27T17:04:16Z</time>
      </trkpt>
      <trkpt lat="37.7210620" lon="-3.9916820">
        <ele>641.8</ele>
        <time>2021-12-27T17:04:17Z</time>
      </trkpt>
      <trkpt lat="37.7210660" lon="-3.9917420">
        <ele>641.8</ele>
        <time>2021-12-27T17:04:18Z</time>
      </trkpt>
      <trkpt lat="37.7210720" lon="-3.9918020">
        <ele>641.8</ele>
        <time>2021-12-27T17:04:19Z</time>
      </trkpt>
      <trkpt lat="37.7210780" lon="-3.9918630">
        <ele>641.8</ele>
        <time>2021-12-27T17:04:20Z</time>
      </trkpt>
      <trkpt lat="37.7210850" lon="-3.9919220">
        <ele>641.6</ele>
        <time>2021-12-27T17:04:21Z</time>
      </trkpt>
      <trkpt lat="37.7210910" lon="-3.9919800">
        <ele>641.6</ele>
        <time>2021-12-27T17:04:22Z</time>
      </trkpt>
      <trkpt lat="37.7211040" lon="-3.9920380">
        <ele>641.6</ele>
        <time>2021-12-27T17:04:23Z</time>
      </trkpt>
      <trkpt lat="37.7211100" lon="-3.9920980">
        <ele>641.6</ele>
        <time>2021-12-27T17:04:24Z</time>
      </trkpt>
      <trkpt lat="37.7211140" lon="-3.9921600">
        <ele>641.6</ele>
        <time>2021-12-27T17:04:25Z</time>
      </trkpt>
      <trkpt lat="37.7211200" lon="-3.9922220">
        <ele>641.4</ele>
        <time>2021-12-27T17:04:26Z</time>
      </trkpt>
      <trkpt lat="37.7211230" lon="-3.9922830">
        <ele>641.2</ele>
        <time>2021-12-27T17:04:27Z</time>
      </trkpt>
      <trkpt lat="37.7211300" lon="-3.9923420">
        <ele>641.2</ele>
        <time>2021-12-27T17:04:28Z</time>
      </trkpt>
      <trkpt lat="37.7211390" lon="-3.9923980">
        <ele>641.0</ele>
        <time>2021-12-27T17:04:29Z</time>
      </trkpt>
      <trkpt lat="37.7211460" lon="-3.9924550">
        <ele>641.0</ele>
        <time>2021-12-27T17:04:30Z</time>
      </trkpt>
      <trkpt lat="37.7211490" lon="-3.9925120">
        <ele>640.8</ele>
        <time>2021-12-27T17:04:31Z</time>
      </trkpt>
      <trkpt lat="37.7211520" lon="-3.9925660">
        <ele>640.8</ele>
        <time>2021-12-27T17:04:32Z</time>
      </trkpt>
      <trkpt lat="37.7211580" lon="-3.9926220">
        <ele>640.6</ele>
        <time>2021-12-27T17:04:33Z</time>
      </trkpt>
      <trkpt lat="37.7211650" lon="-3.9926750">
        <ele>640.6</ele>
        <time>2021-12-27T17:04:34Z</time>
      </trkpt>
      <trkpt lat="37.7211680" lon="-3.9927300">
        <ele>640.6</ele>
        <time>2021-12-27T17:04:35Z</time>
      </trkpt>
      <trkpt lat="37.7211710" lon="-3.9927830">
        <ele>640.6</ele>
        <time>2021-12-27T17:04:36Z</time>
      </trkpt>
      <trkpt lat="37.7211810" lon="-3.9928380">
        <ele>640.4</ele>
        <time>2021-12-27T17:04:37Z</time>
      </trkpt>
      <trkpt lat="37.7211840" lon="-3.9928950">
        <ele>640.4</ele>
        <time>2021-12-27T17:04:38Z</time>
      </trkpt>
      <trkpt lat="37.7211870" lon="-3.9929500">
        <ele>640.4</ele>
        <time>2021-12-27T17:04:39Z</time>
      </trkpt>
      <trkpt lat="37.7211900" lon="-3.9930050">
        <ele>640.2</ele>
        <time>2021-12-27T17:04:40Z</time>
      </trkpt>
      <trkpt lat="37.7211970" lon="-3.9930620">
        <ele>640.2</ele>
        <time>2021-12-27T17:04:41Z</time>
      </trkpt>
      <trkpt lat="37.7212030" lon="-3.9931170">
        <ele>640.0</ele>
        <time>2021-12-27T17:04:42Z</time>
      </trkpt>
      <trkpt lat="37.7212060" lon="-3.9931730">
        <ele>639.8</ele>
        <time>2021-12-27T17:04:43Z</time>
      </trkpt>
      <trkpt lat="37.7212130" lon="-3.9932260">
        <ele>639.8</ele>
        <time>2021-12-27T17:04:44Z</time>
      </trkpt>
      <trkpt lat="37.7212220" lon="-3.9932800">
        <ele>639.6</ele>
        <time>2021-12-27T17:04:45Z</time>
      </trkpt>
      <trkpt lat="37.7212260" lon="-3.9933320">
        <ele>639.6</ele>
        <time>2021-12-27T17:04:46Z</time>
      </trkpt>
      <trkpt lat="37.7212320" lon="-3.9933850">
        <ele>639.4</ele>
        <time>2021-12-27T17:04:47Z</time>
      </trkpt>
      <trkpt lat="37.7212380" lon="-3.9934400">
        <ele>639.4</ele>
        <time>2021-12-27T17:04:48Z</time>
      </trkpt>
      <trkpt lat="37.7212450" lon="-3.9934950">
        <ele>639.2</ele>
        <time>2021-12-27T17:04:49Z</time>
      </trkpt>
      <trkpt lat="37.7212480" lon="-3.9935480">
        <ele>639.2</ele>
        <time>2021-12-27T17:04:50Z</time>
      </trkpt>
      <trkpt lat="37.7212510" lon="-3.9936020">
        <ele>639.2</ele>
        <time>2021-12-27T17:04:51Z</time>
      </trkpt>
      <trkpt lat="37.7212610" lon="-3.9936570">
        <ele>639.2</ele>
        <time>2021-12-27T17:04:52Z</time>
      </trkpt>
      <trkpt lat="37.7212640" lon="-3.9937100">
        <ele>639.0</ele>
        <time>2021-12-27T17:04:53Z</time>
      </trkpt>
      <trkpt lat="37.7212700" lon="-3.9937640">
        <ele>639.0</ele>
        <time>2021-12-27T17:04:54Z</time>
      </trkpt>
      <trkpt lat="37.7212770" lon="-3.9938180">
        <ele>639.0</ele>
        <time>2021-12-27T17:04:55Z</time>
      </trkpt>
      <trkpt lat="37.7212830" lon="-3.9938730">
        <ele>639.0</ele>
        <time>2021-12-27T17:04:56Z</time>
      </trkpt>
      <trkpt lat="37.7212860" lon="-3.9939260">
        <ele>638.8</ele>
        <time>2021-12-27T17:04:57Z</time>
      </trkpt>
      <trkpt lat="37.7212960" lon="-3.9939850">
        <ele>638.8</ele>
        <time>2021-12-27T17:04:58Z</time>
      </trkpt>
      <trkpt lat="37.7213020" lon="-3.9940420">
        <ele>638.8</ele>
        <time>2021-12-27T17:04:59Z</time>
      </trkpt>
      <trkpt lat="37.7213090" lon="-3.9941000">
        <ele>638.6</ele>
        <time>2021-12-27T17:05:00Z</time>
      </trkpt>
      <trkpt lat="37.7213180" lon="-3.9941620">
        <ele>638.6</ele>
        <time>2021-12-27T17:05:01Z</time>
      </trkpt>
      <trkpt lat="37.7213250" lon="-3.9942250">
        <ele>638.4</ele>
        <time>2021-12-27T17:05:02Z</time>
      </trkpt>
      <trkpt lat="37.7213280" lon="-3.9942880">
        <ele>638.4</ele>
        <time>2021-12-27T17:05:03Z</time>
      </trkpt>
      <trkpt lat="37.7213310" lon="-3.9943500">
        <ele>638.2</ele>
        <time>2021-12-27T17:05:04Z</time>
      </trkpt>
      <trkpt lat="37.7213410" lon="-3.9944120">
        <ele>638.2</ele>
        <time>2021-12-27T17:05:05Z</time>
      </trkpt>
      <trkpt lat="37.7213440" lon="-3.9944740">
        <ele>638.2</ele>
        <time>2021-12-27T17:05:06Z</time>
      </trkpt>
      <trkpt lat="37.7213470" lon="-3.9945330">
        <ele>638.0</ele>
        <time>2021-12-27T17:05:07Z</time>
      </trkpt>
      <trkpt lat="37.7213500" lon="-3.9945930">
        <ele>638.0</ele>
        <time>2021-12-27T17:05:08Z</time>
      </trkpt>
      <trkpt lat="37.7213600" lon="-3.9946520">
        <ele>637.8</ele>
        <time>2021-12-27T17:05:09Z</time>
      </trkpt>
      <trkpt lat="37.7213660" lon="-3.9947120">
        <ele>637.8</ele>
        <time>2021-12-27T17:05:10Z</time>
      </trkpt>
      <trkpt lat="37.7213700" lon="-3.9947730">
        <ele>637.8</ele>
        <time>2021-12-27T17:05:11Z</time>
      </trkpt>
      <trkpt lat="37.7213760" lon="-3.9948300">
        <ele>637.8</ele>
        <time>2021-12-27T17:05:12Z</time>
      </trkpt>
      <trkpt lat="37.7213790" lon="-3.9948880">
        <ele>637.8</ele>
        <time>2021-12-27T17:05:13Z</time>
      </trkpt>
      <trkpt lat="37.7213860" lon="-3.9949430">
        <ele>637.8</ele>
        <time>2021-12-27T17:05:14Z</time>
      </trkpt>
      <trkpt lat="37.7213890" lon="-3.9950020">
        <ele>637.8</ele>
        <time>2021-12-27T17:05:15Z</time>
      </trkpt>
      <trkpt lat="37.7213920" lon="-3.9950600">
        <ele>637.8</ele>
        <time>2021-12-27T17:05:16Z</time>
      </trkpt>
      <trkpt lat="37.7214050" lon="-3.9951170">
        <ele>637.6</ele>
        <time>2021-12-27T17:05:17Z</time>
      </trkpt>
      <trkpt lat="37.7214110" lon="-3.9951770">
        <ele>637.6</ele>
        <time>2021-12-27T17:05:18Z</time>
      </trkpt>
      <trkpt lat="37.7214180" lon="-3.9952370">
        <ele>637.6</ele>
        <time>2021-12-27T17:05:19Z</time>
      </trkpt>
      <trkpt lat="37.7214240" lon="-3.9952930">
        <ele>637.4</ele>
        <time>2021-12-27T17:05:20Z</time>
      </trkpt>
      <trkpt lat="37.7214270" lon="-3.9953480">
        <ele>637.4</ele>
        <time>2021-12-27T17:05:21Z</time>
      </trkpt>
      <trkpt lat="37.7214270" lon="-3.9954030">
        <ele>637.4</ele>
        <time>2021-12-27T17:05:22Z</time>
      </trkpt>
      <trkpt lat="37.7214300" lon="-3.9954570">
        <ele>637.4</ele>
        <time>2021-12-27T17:05:23Z</time>
      </trkpt>
      <trkpt lat="37.7214370" lon="-3.9955150">
        <ele>637.4</ele>
        <time>2021-12-27T17:05:24Z</time>
      </trkpt>
      <trkpt lat="37.7214430" lon="-3.9955720">
        <ele>637.2</ele>
        <time>2021-12-27T17:05:25Z</time>
      </trkpt>
      <trkpt lat="37.7214500" lon="-3.9956320">
        <ele>637.2</ele>
        <time>2021-12-27T17:05:26Z</time>
      </trkpt>
      <trkpt lat="37.7214590" lon="-3.9956900">
        <ele>637.0</ele>
        <time>2021-12-27T17:05:27Z</time>
      </trkpt>
      <trkpt lat="37.7214660" lon="-3.9957480">
        <ele>637.0</ele>
        <time>2021-12-27T17:05:28Z</time>
      </trkpt>
      <trkpt lat="37.7214690" lon="-3.9958070">
        <ele>637.0</ele>
        <time>2021-12-27T17:05:29Z</time>
      </trkpt>
      <trkpt lat="37.7214780" lon="-3.9958620">
        <ele>637.0</ele>
        <time>2021-12-27T17:05:30Z</time>
      </trkpt>
      <trkpt lat="37.7214850" lon="-3.9959170">
        <ele>637.0</ele>
        <time>2021-12-27T17:05:31Z</time>
      </trkpt>
      <trkpt lat="37.7214850" lon="-3.9959730">
        <ele>637.0</ele>
        <time>2021-12-27T17:05:32Z</time>
      </trkpt>
      <trkpt lat="37.7214910" lon="-3.9960280">
        <ele>636.8</ele>
        <time>2021-12-27T17:05:33Z</time>
      </trkpt>
      <trkpt lat="37.7214980" lon="-3.9960820">
        <ele>636.8</ele>
        <time>2021-12-27T17:05:34Z</time>
      </trkpt>
      <trkpt lat="37.7215010" lon="-3.9961370">
        <ele>636.8</ele>
        <time>2021-12-27T17:05:35Z</time>
      </trkpt>
      <trkpt lat="37.7215070" lon="-3.9961940">
        <ele>636.6</ele>
        <time>2021-12-27T17:05:36Z</time>
      </trkpt>
      <trkpt lat="37.7215100" lon="-3.9962500">
        <ele>636.6</ele>
        <time>2021-12-27T17:05:37Z</time>
      </trkpt>
      <trkpt lat="37.7215170" lon="-3.9963070">
        <ele>636.4</ele>
        <time>2021-12-27T17:05:38Z</time>
      </trkpt>
      <trkpt lat="37.7215200" lon="-3.9963640">
        <ele>636.4</ele>
        <time>2021-12-27T17:05:39Z</time>
      </trkpt>
      <trkpt lat="37.7215260" lon="-3.9964220">
        <ele>636.4</ele>
        <time>2021-12-27T17:05:40Z</time>
      </trkpt>
      <trkpt lat="37.7215300" lon="-3.9964800">
        <ele>636.2</ele>
        <time>2021-12-27T17:05:41Z</time>
      </trkpt>
      <trkpt lat="37.7215360" lon="-3.9965440">
        <ele>636.0</ele>
        <time>2021-12-27T17:05:42Z</time>
      </trkpt>
      <trkpt lat="37.7215390" lon="-3.9966030">
        <ele>636.0</ele>
        <time>2021-12-27T17:05:43Z</time>
      </trkpt>
      <trkpt lat="37.7215460" lon="-3.9966620">
        <ele>635.8</ele>
        <time>2021-12-27T17:05:44Z</time>
      </trkpt>
      <trkpt lat="37.7215490" lon="-3.9967200">
        <ele>635.8</ele>
        <time>2021-12-27T17:05:45Z</time>
      </trkpt>
      <trkpt lat="37.7215550" lon="-3.9967800">
        <ele>635.6</ele>
        <time>2021-12-27T17:05:46Z</time>
      </trkpt>
      <trkpt lat="37.7215620" lon="-3.9968400">
        <ele>635.4</ele>
        <time>2021-12-27T17:05:47Z</time>
      </trkpt>
      <trkpt lat="37.7215650" lon="-3.9968980">
        <ele>635.4</ele>
        <time>2021-12-27T17:05:48Z</time>
      </trkpt>
      <trkpt lat="37.7215680" lon="-3.9969580">
        <ele>635.4</ele>
        <time>2021-12-27T17:05:49Z</time>
      </trkpt>
      <trkpt lat="37.7215780" lon="-3.9970180">
        <ele>635.2</ele>
        <time>2021-12-27T17:05:50Z</time>
      </trkpt>
      <trkpt lat="37.7215780" lon="-3.9970780">
        <ele>635.2</ele>
        <time>2021-12-27T17:05:51Z</time>
      </trkpt>
      <trkpt lat="37.7215780" lon="-3.9971380">
        <ele>635.2</ele>
        <time>2021-12-27T17:05:52Z</time>
      </trkpt>
      <trkpt lat="37.7215810" lon="-3.9971980">
        <ele>635.2</ele>
        <time>2021-12-27T17:05:53Z</time>
      </trkpt>
      <trkpt lat="37.7215810" lon="-3.9972600">
        <ele>635.2</ele>
        <time>2021-12-27T17:05:54Z</time>
      </trkpt>
      <trkpt lat="37.7215810" lon="-3.9973230">
        <ele>635.2</ele>
        <time>2021-12-27T17:05:55Z</time>
      </trkpt>
      <trkpt lat="37.7215810" lon="-3.9973870">
        <ele>635.2</ele>
        <time>2021-12-27T17:05:56Z</time>
      </trkpt>
      <trkpt lat="37.7215780" lon="-3.9974500">
        <ele>635.2</ele>
        <time>2021-12-27T17:05:57Z</time>
      </trkpt>
      <trkpt lat="37.7215780" lon="-3.9975120">
        <ele>635.2</ele>
        <time>2021-12-27T17:05:58Z</time>
      </trkpt>
      <trkpt lat="37.7215780" lon="-3.9975730">
        <ele>635.2</ele>
        <time>2021-12-27T17:05:59Z</time>
      </trkpt>
      <trkpt lat="37.7215680" lon="-3.9976340">
        <ele>635.2</ele>
        <time>2021-12-27T17:06:00Z</time>
      </trkpt>
      <trkpt lat="37.7215650" lon="-3.9976920">
        <ele>635.0</ele>
        <time>2021-12-27T17:06:01Z</time>
      </trkpt>
      <trkpt lat="37.7215580" lon="-3.9977520">
        <ele>634.8</ele>
        <time>2021-12-27T17:06:02Z</time>
      </trkpt>
      <trkpt lat="37.7215490" lon="-3.9978080">
        <ele>634.8</ele>
        <time>2021-12-27T17:06:03Z</time>
      </trkpt>
      <trkpt lat="37.7215390" lon="-3.9978680">
        <ele>634.8</ele>
        <time>2021-12-27T17:06:04Z</time>
      </trkpt>
      <trkpt lat="37.7215300" lon="-3.9979250">
        <ele>634.6</ele>
        <time>2021-12-27T17:06:05Z</time>
      </trkpt>
      <trkpt lat="37.7215230" lon="-3.9979820">
        <ele>634.6</ele>
        <time>2021-12-27T17:06:06Z</time>
      </trkpt>
      <trkpt lat="37.7215100" lon="-3.9980380">
        <ele>634.6</ele>
        <time>2021-12-27T17:06:07Z</time>
      </trkpt>
      <trkpt lat="37.7215010" lon="-3.9980930">
        <ele>634.4</ele>
        <time>2021-12-27T17:06:08Z</time>
      </trkpt>
      <trkpt lat="37.7214880" lon="-3.9981480">
        <ele>634.2</ele>
        <time>2021-12-27T17:06:09Z</time>
      </trkpt>
      <trkpt lat="37.7214750" lon="-3.9982050">
        <ele>634.2</ele>
        <time>2021-12-27T17:06:10Z</time>
      </trkpt>
      <trkpt lat="37.7214620" lon="-3.9982580">
        <ele>634.0</ele>
        <time>2021-12-27T17:06:11Z</time>
      </trkpt>
      <trkpt lat="37.7214460" lon="-3.9983120">
        <ele>634.0</ele>
        <time>2021-12-27T17:06:12Z</time>
      </trkpt>
      <trkpt lat="37.7214300" lon="-3.9983650">
        <ele>633.8</ele>
        <time>2021-12-27T17:06:13Z</time>
      </trkpt>
      <trkpt lat="37.7214180" lon="-3.9984170">
        <ele>633.8</ele>
        <time>2021-12-27T17:06:14Z</time>
      </trkpt>
      <trkpt lat="37.7214050" lon="-3.9984700">
        <ele>633.6</ele>
        <time>2021-12-27T17:06:15Z</time>
      </trkpt>
      <trkpt lat="37.7213890" lon="-3.9985200">
        <ele>633.6</ele>
        <time>2021-12-27T17:06:16Z</time>
      </trkpt>
      <trkpt lat="37.7213760" lon="-3.9985670">
        <ele>633.4</ele>
        <time>2021-12-27T17:06:17Z</time>
      </trkpt>
      <trkpt lat="37.7213570" lon="-3.9986130">
        <ele>633.4</ele>
        <time>2021-12-27T17:06:18Z</time>
      </trkpt>
      <trkpt lat="37.7213410" lon="-3.9986600">
        <ele>633.4</ele>
        <time>2021-12-27T17:06:19Z</time>
      </trkpt>
      <trkpt lat="37.7213220" lon="-3.9987080">
        <ele>633.2</ele>
        <time>2021-12-27T17:06:20Z</time>
      </trkpt>
      <trkpt lat="37.7213060" lon="-3.9987550">
        <ele>633.0</ele>
        <time>2021-12-27T17:06:21Z</time>
      </trkpt>
      <trkpt lat="37.7212900" lon="-3.9988070">
        <ele>633.0</ele>
        <time>2021-12-27T17:06:22Z</time>
      </trkpt>
      <trkpt lat="37.7212770" lon="-3.9988560">
        <ele>633.0</ele>
        <time>2021-12-27T17:06:23Z</time>
      </trkpt>
      <trkpt lat="37.7212610" lon="-3.9989100">
        <ele>633.0</ele>
        <time>2021-12-27T17:06:24Z</time>
      </trkpt>
      <trkpt lat="37.7212420" lon="-3.9989600">
        <ele>632.8</ele>
        <time>2021-12-27T17:06:25Z</time>
      </trkpt>
      <trkpt lat="37.7212130" lon="-3.9990200">
        <ele>632.8</ele>
        <time>2021-12-27T17:06:26Z</time>
      </trkpt>
      <trkpt lat="37.7211900" lon="-3.9990680">
        <ele>633.0</ele>
        <time>2021-12-27T17:06:27Z</time>
      </trkpt>
      <trkpt lat="37.7211780" lon="-3.9991070">
        <ele>633.0</ele>
        <time>2021-12-27T17:06:28Z</time>
      </trkpt>
      <trkpt lat="37.7211520" lon="-3.9991570">
        <ele>633.0</ele>
        <time>2021-12-27T17:06:29Z</time>
      </trkpt>
      <trkpt lat="37.7211330" lon="-3.9992050">
        <ele>633.0</ele>
        <time>2021-12-27T17:06:30Z</time>
      </trkpt>
      <trkpt lat="37.7211140" lon="-3.9992500">
        <ele>632.8</ele>
        <time>2021-12-27T17:06:31Z</time>
      </trkpt>
      <trkpt lat="37.7210910" lon="-3.9992980">
        <ele>632.8</ele>
        <time>2021-12-27T17:06:32Z</time>
      </trkpt>
      <trkpt lat="37.7210690" lon="-3.9993470">
        <ele>632.8</ele>
        <time>2021-12-27T17:06:33Z</time>
      </trkpt>
      <trkpt lat="37.7210460" lon="-3.9993940">
        <ele>632.8</ele>
        <time>2021-12-27T17:06:34Z</time>
      </trkpt>
      <trkpt lat="37.7210210" lon="-3.9994380">
        <ele>632.6</ele>
        <time>2021-12-27T17:06:35Z</time>
      </trkpt>
      <trkpt lat="37.7209980" lon="-3.9994830">
        <ele>632.6</ele>
        <time>2021-12-27T17:06:36Z</time>
      </trkpt>
      <trkpt lat="37.7209700" lon="-3.9995320">
        <ele>632.6</ele>
        <time>2021-12-27T17:06:37Z</time>
      </trkpt>
      <trkpt lat="37.7209440" lon="-3.9995760">
        <ele>632.6</ele>
        <time>2021-12-27T17:06:38Z</time>
      </trkpt>
      <trkpt lat="37.7209220" lon="-3.9996180">
        <ele>632.4</ele>
        <time>2021-12-27T17:06:39Z</time>
      </trkpt>
      <trkpt lat="37.7208990" lon="-3.9996580">
        <ele>632.4</ele>
        <time>2021-12-27T17:06:40Z</time>
      </trkpt>
      <trkpt lat="37.7208700" lon="-3.9996970">
        <ele>632.4</ele>
        <time>2021-12-27T17:06:41Z</time>
      </trkpt>
      <trkpt lat="37.7208450" lon="-3.9997370">
        <ele>632.4</ele>
        <time>2021-12-27T17:06:42Z</time>
      </trkpt>
      <trkpt lat="37.7208220" lon="-3.9997750">
        <ele>632.4</ele>
        <time>2021-12-27T17:06:43Z</time>
      </trkpt>
      <trkpt lat="37.7207940" lon="-3.9998120">
        <ele>632.4</ele>
        <time>2021-12-27T17:06:44Z</time>
      </trkpt>
      <trkpt lat="37.7207650" lon="-3.9998500">
        <ele>632.4</ele>
        <time>2021-12-27T17:06:45Z</time>
      </trkpt>
      <trkpt lat="37.7207360" lon="-3.9998850">
        <ele>632.4</ele>
        <time>2021-12-27T17:06:46Z</time>
      </trkpt>
      <trkpt lat="37.7207040" lon="-3.9999220">
        <ele>632.4</ele>
        <time>2021-12-27T17:06:47Z</time>
      </trkpt>
      <trkpt lat="37.7206820" lon="-3.9999600">
        <ele>632.4</ele>
        <time>2021-12-27T17:06:48Z</time>
      </trkpt>
      <trkpt lat="37.7206530" lon="-3.9999980">
        <ele>632.2</ele>
        <time>2021-12-27T17:06:49Z</time>
      </trkpt>
      <trkpt lat="37.7206240" lon="-4.0000350">
        <ele>632.2</ele>
        <time>2021-12-27T17:06:50Z</time>
      </trkpt>
      <trkpt lat="37.7205920" lon="-4.0000720">
        <ele>632.4</ele>
        <time>2021-12-27T17:06:51Z</time>
      </trkpt>
      <trkpt lat="37.7205570" lon="-4.0001080">
        <ele>632.4</ele>
        <time>2021-12-27T17:06:52Z</time>
      </trkpt>
      <trkpt lat="37.7205280" lon="-4.0001420">
        <ele>632.4</ele>
        <time>2021-12-27T17:06:53Z</time>
      </trkpt>
      <trkpt lat="37.7204930" lon="-4.0001780">
        <ele>632.4</ele>
        <time>2021-12-27T17:06:54Z</time>
      </trkpt>
      <trkpt lat="37.7204640" lon="-4.0002120">
        <ele>632.4</ele>
        <time>2021-12-27T17:06:55Z</time>
      </trkpt>
      <trkpt lat="37.7204320" lon="-4.0002420">
        <ele>632.4</ele>
        <time>2021-12-27T17:06:56Z</time>
      </trkpt>
      <trkpt lat="37.7204030" lon="-4.0002760">
        <ele>632.4</ele>
        <time>2021-12-27T17:06:57Z</time>
      </trkpt>
      <trkpt lat="37.7203740" lon="-4.0003100">
        <ele>632.2</ele>
        <time>2021-12-27T17:06:58Z</time>
      </trkpt>
      <trkpt lat="37.7203390" lon="-4.0003450">
        <ele>632.2</ele>
        <time>2021-12-27T17:06:59Z</time>
      </trkpt>
      <trkpt lat="37.7203070" lon="-4.0003800">
        <ele>632.0</ele>
        <time>2021-12-27T17:07:00Z</time>
      </trkpt>
      <trkpt lat="37.7202720" lon="-4.0004170">
        <ele>632.0</ele>
        <time>2021-12-27T17:07:01Z</time>
      </trkpt>
      <trkpt lat="37.7202370" lon="-4.0004480">
        <ele>631.8</ele>
        <time>2021-12-27T17:07:02Z</time>
      </trkpt>
      <trkpt lat="37.7202050" lon="-4.0004780">
        <ele>631.8</ele>
        <time>2021-12-27T17:07:03Z</time>
      </trkpt>
      <trkpt lat="37.7201660" lon="-4.0005120">
        <ele>631.6</ele>
        <time>2021-12-27T17:07:04Z</time>
      </trkpt>
      <trkpt lat="37.7201310" lon="-4.0005450">
        <ele>631.6</ele>
        <time>2021-12-27T17:07:05Z</time>
      </trkpt>
      <trkpt lat="37.7200930" lon="-4.0005760">
        <ele>631.6</ele>
        <time>2021-12-27T17:07:06Z</time>
      </trkpt>
      <trkpt lat="37.7200540" lon="-4.0006030">
        <ele>631.4</ele>
        <time>2021-12-27T17:07:07Z</time>
      </trkpt>
      <trkpt lat="37.7200160" lon="-4.0006260">
        <ele>631.4</ele>
        <time>2021-12-27T17:07:08Z</time>
      </trkpt>
      <trkpt lat="37.7199740" lon="-4.0006550">
        <ele>631.4</ele>
        <time>2021-12-27T17:07:09Z</time>
      </trkpt>
      <trkpt lat="37.7199360" lon="-4.0006820">
        <ele>631.4</ele>
        <time>2021-12-27T17:07:10Z</time>
      </trkpt>
      <trkpt lat="37.7198980" lon="-4.0007070">
        <ele>631.4</ele>
        <time>2021-12-27T17:07:11Z</time>
      </trkpt>
      <trkpt lat="37.7198590" lon="-4.0007330">
        <ele>631.4</ele>
        <time>2021-12-27T17:07:12Z</time>
      </trkpt>
      <trkpt lat="37.7198180" lon="-4.0007580">
        <ele>631.2</ele>
        <time>2021-12-27T17:07:13Z</time>
      </trkpt>
      <trkpt lat="37.7197760" lon="-4.0007840">
        <ele>631.2</ele>
        <time>2021-12-27T17:07:14Z</time>
      </trkpt>
      <trkpt lat="37.7197380" lon="-4.0008080">
        <ele>631.2</ele>
        <time>2021-12-27T17:07:15Z</time>
      </trkpt>
      <trkpt lat="37.7196990" lon="-4.0008320">
        <ele>631.2</ele>
        <time>2021-12-27T17:07:16Z</time>
      </trkpt>
      <trkpt lat="37.7196540" lon="-4.0008570">
        <ele>631.2</ele>
        <time>2021-12-27T17:07:17Z</time>
      </trkpt>
      <trkpt lat="37.7196130" lon="-4.0008820">
        <ele>631.2</ele>
        <time>2021-12-27T17:07:18Z</time>
      </trkpt>
      <trkpt lat="37.7195710" lon="-4.0009060">
        <ele>631.2</ele>
        <time>2021-12-27T17:07:19Z</time>
      </trkpt>
      <trkpt lat="37.7195300" lon="-4.0009300">
        <ele>631.0</ele>
        <time>2021-12-27T17:07:20Z</time>
      </trkpt>
      <trkpt lat="37.7194850" lon="-4.0009500">
        <ele>630.8</ele>
        <time>2021-12-27T17:07:21Z</time>
      </trkpt>
      <trkpt lat="37.7194400" lon="-4.0009680">
        <ele>630.8</ele>
        <time>2021-12-27T17:07:22Z</time>
      </trkpt>
      <trkpt lat="37.7193950" lon="-4.0009860">
        <ele>630.8</ele>
        <time>2021-12-27T17:07:23Z</time>
      </trkpt>
      <trkpt lat="37.7193500" lon="-4.0010030">
        <ele>630.8</ele>
        <time>2021-12-27T17:07:24Z</time>
      </trkpt>
      <trkpt lat="37.7193060" lon="-4.0010180">
        <ele>630.6</ele>
        <time>2021-12-27T17:07:25Z</time>
      </trkpt>
      <trkpt lat="37.7192640" lon="-4.0010330">
        <ele>630.6</ele>
        <time>2021-12-27T17:07:26Z</time>
      </trkpt>
      <trkpt lat="37.7192260" lon="-4.0010470">
        <ele>630.6</ele>
        <time>2021-12-27T17:07:27Z</time>
      </trkpt>
      <trkpt lat="37.7191840" lon="-4.0010620">
        <ele>630.6</ele>
        <time>2021-12-27T17:07:28Z</time>
      </trkpt>
      <trkpt lat="37.7191460" lon="-4.0010730">
        <ele>630.6</ele>
        <time>2021-12-27T17:07:29Z</time>
      </trkpt>
      <trkpt lat="37.7191070" lon="-4.0010870">
        <ele>630.6</ele>
        <time>2021-12-27T17:07:30Z</time>
      </trkpt>
      <trkpt lat="37.7190750" lon="-4.0011000">
        <ele>630.4</ele>
        <time>2021-12-27T17:07:31Z</time>
      </trkpt>
      <trkpt lat="37.7190370" lon="-4.0011120">
        <ele>630.4</ele>
        <time>2021-12-27T17:07:32Z</time>
      </trkpt>
      <trkpt lat="37.7189950" lon="-4.0011200">
        <ele>630.2</ele>
        <time>2021-12-27T17:07:33Z</time>
      </trkpt>
      <trkpt lat="37.7189470" lon="-4.0011320">
        <ele>630.2</ele>
        <time>2021-12-27T17:07:34Z</time>
      </trkpt>
      <trkpt lat="37.7189090" lon="-4.0011370">
        <ele>630.2</ele>
        <time>2021-12-27T17:07:35Z</time>
      </trkpt>
      <trkpt lat="37.7188670" lon="-4.0011440">
        <ele>630.2</ele>
        <time>2021-12-27T17:07:36Z</time>
      </trkpt>
      <trkpt lat="37.7188260" lon="-4.0011520">
        <ele>630.2</ele>
        <time>2021-12-27T17:07:37Z</time>
      </trkpt>
      <trkpt lat="37.7187810" lon="-4.0011600">
        <ele>630.2</ele>
        <time>2021-12-27T17:07:38Z</time>
      </trkpt>
      <trkpt lat="37.7187390" lon="-4.0011670">
        <ele>630.2</ele>
        <time>2021-12-27T17:07:39Z</time>
      </trkpt>
      <trkpt lat="37.7186980" lon="-4.0011740">
        <ele>630.2</ele>
        <time>2021-12-27T17:07:40Z</time>
      </trkpt>
      <trkpt lat="37.7186560" lon="-4.0011800">
        <ele>630.2</ele>
        <time>2021-12-27T17:07:41Z</time>
      </trkpt>
      <trkpt lat="37.7186110" lon="-4.0011850">
        <ele>630.4</ele>
        <time>2021-12-27T17:07:42Z</time>
      </trkpt>
      <trkpt lat="37.7185630" lon="-4.0011920">
        <ele>630.2</ele>
        <time>2021-12-27T17:07:43Z</time>
      </trkpt>
      <trkpt lat="37.7185280" lon="-4.0011970">
        <ele>630.2</ele>
        <time>2021-12-27T17:07:44Z</time>
      </trkpt>
      <trkpt lat="37.7184860" lon="-4.0012000">
        <ele>630.2</ele>
        <time>2021-12-27T17:07:45Z</time>
      </trkpt>
      <trkpt lat="37.7184450" lon="-4.0012050">
        <ele>630.2</ele>
        <time>2021-12-27T17:07:46Z</time>
      </trkpt>
      <trkpt lat="37.7184060" lon="-4.0012080">
        <ele>630.2</ele>
        <time>2021-12-27T17:07:47Z</time>
      </trkpt>
      <trkpt lat="37.7183680" lon="-4.0012120">
        <ele>630.4</ele>
        <time>2021-12-27T17:07:48Z</time>
      </trkpt>
      <trkpt lat="37.7183330" lon="-4.0012120">
        <ele>630.4</ele>
        <time>2021-12-27T17:07:49Z</time>
      </trkpt>
      <trkpt lat="37.7182910" lon="-4.0012120">
        <ele>630.6</ele>
        <time>2021-12-27T17:07:50Z</time>
      </trkpt>
      <trkpt lat="37.7182500" lon="-4.0012070">
        <ele>630.6</ele>
        <time>2021-12-27T17:07:51Z</time>
      </trkpt>
      <trkpt lat="37.7182080" lon="-4.0012020">
        <ele>630.8</ele>
        <time>2021-12-27T17:07:52Z</time>
      </trkpt>
      <trkpt lat="37.7181660" lon="-4.0011980">
        <ele>630.8</ele>
        <time>2021-12-27T17:07:53Z</time>
      </trkpt>
      <trkpt lat="37.7181150" lon="-4.0011920">
        <ele>630.8</ele>
        <time>2021-12-27T17:07:54Z</time>
      </trkpt>
      <trkpt lat="37.7180700" lon="-4.0011900">
        <ele>630.8</ele>
        <time>2021-12-27T17:07:55Z</time>
      </trkpt>
      <trkpt lat="37.7180350" lon="-4.0011880">
        <ele>630.8</ele>
        <time>2021-12-27T17:07:56Z</time>
      </trkpt>
      <trkpt lat="37.7179870" lon="-4.0011780">
        <ele>630.8</ele>
        <time>2021-12-27T17:07:57Z</time>
      </trkpt>
      <trkpt lat="37.7179460" lon="-4.0011740">
        <ele>630.8</ele>
        <time>2021-12-27T17:07:58Z</time>
      </trkpt>
      <trkpt lat="37.7179040" lon="-4.0011650">
        <ele>630.8</ele>
        <time>2021-12-27T17:07:59Z</time>
      </trkpt>
      <trkpt lat="37.7178720" lon="-4.0011580">
        <ele>630.8</ele>
        <time>2021-12-27T17:08:00Z</time>
      </trkpt>
      <trkpt lat="37.7178340" lon="-4.0011540">
        <ele>631.0</ele>
        <time>2021-12-27T17:08:01Z</time>
      </trkpt>
      <trkpt lat="37.7178020" lon="-4.0011450">
        <ele>631.0</ele>
        <time>2021-12-27T17:08:02Z</time>
      </trkpt>
      <trkpt lat="37.7177700" lon="-4.0011370">
        <ele>631.0</ele>
        <time>2021-12-27T17:08:03Z</time>
      </trkpt>
      <trkpt lat="37.7177500" lon="-4.0011280">
        <ele>631.0</ele>
        <time>2021-12-27T17:08:04Z</time>
      </trkpt>
      <trkpt lat="37.7177500" lon="-4.0011280">
        <ele>631.0</ele>
        <time>2021-12-27T17:08:05Z</time>
      </trkpt>
      <trkpt lat="37.7177500" lon="-4.0011280">
        <ele>631.0</ele>
        <time>2021-12-27T17:08:06Z</time>
      </trkpt>
      <trkpt lat="37.7177500" lon="-4.0011280">
        <ele>631.0</ele>
        <time>2021-12-27T17:08:07Z</time>
      </trkpt>
      <trkpt lat="37.7177500" lon="-4.0011280">
        <ele>631.0</ele>
        <time>2021-12-27T17:08:08Z</time>
      </trkpt>
      <trkpt lat="37.7177500" lon="-4.0011280">
        <ele>631.0</ele>
        <time>2021-12-27T17:08:09Z</time>
      </trkpt>
      <trkpt lat="37.7176220" lon="-4.0011070">
        <ele>628.4</ele>
        <time>2021-12-27T17:09:02Z</time>
      </trkpt>
      <trkpt lat="37.7175870" lon="-4.0011000">
        <ele>628.4</ele>
        <time>2021-12-27T17:09:03Z</time>
      </trkpt>
      <trkpt lat="37.7175580" lon="-4.0010920">
        <ele>628.4</ele>
        <time>2021-12-27T17:09:04Z</time>
      </trkpt>
      <trkpt lat="37.7175170" lon="-4.0010800">
        <ele>628.2</ele>
        <time>2021-12-27T17:09:05Z</time>
      </trkpt>
      <trkpt lat="37.7174720" lon="-4.0010650">
        <ele>628.2</ele>
        <time>2021-12-27T17:09:06Z</time>
      </trkpt>
      <trkpt lat="37.7174270" lon="-4.0010500">
        <ele>628.2</ele>
        <time>2021-12-27T17:09:07Z</time>
      </trkpt>
      <trkpt lat="37.7173730" lon="-4.0010280">
        <ele>628.4</ele>
        <time>2021-12-27T17:09:08Z</time>
      </trkpt>
      <trkpt lat="37.7173280" lon="-4.0010080">
        <ele>628.4</ele>
        <time>2021-12-27T17:09:09Z</time>
      </trkpt>
      <trkpt lat="37.7172800" lon="-4.0009880">
        <ele>628.6</ele>
        <time>2021-12-27T17:09:10Z</time>
      </trkpt>
      <trkpt lat="37.7172420" lon="-4.0009760">
        <ele>628.6</ele>
        <time>2021-12-27T17:09:11Z</time>
      </trkpt>
      <trkpt lat="37.7171870" lon="-4.0009600">
        <ele>628.6</ele>
        <time>2021-12-27T17:09:12Z</time>
      </trkpt>
      <trkpt lat="37.7171360" lon="-4.0009450">
        <ele>628.6</ele>
        <time>2021-12-27T17:09:13Z</time>
      </trkpt>
      <trkpt lat="37.7170880" lon="-4.0009280">
        <ele>628.6</ele>
        <time>2021-12-27T17:09:14Z</time>
      </trkpt>
      <trkpt lat="37.7170460" lon="-4.0009130">
        <ele>628.6</ele>
        <time>2021-12-27T17:09:15Z</time>
      </trkpt>
      <trkpt lat="37.7169950" lon="-4.0008950">
        <ele>628.8</ele>
        <time>2021-12-27T17:09:16Z</time>
      </trkpt>
      <trkpt lat="37.7169470" lon="-4.0008770">
        <ele>628.8</ele>
        <time>2021-12-27T17:09:17Z</time>
      </trkpt>
      <trkpt lat="37.7168930" lon="-4.0008640">
        <ele>628.8</ele>
        <time>2021-12-27T17:09:18Z</time>
      </trkpt>
      <trkpt lat="37.7168420" lon="-4.0008480">
        <ele>628.8</ele>
        <time>2021-12-27T17:09:19Z</time>
      </trkpt>
      <trkpt lat="37.7167940" lon="-4.0008300">
        <ele>628.8</ele>
        <time>2021-12-27T17:09:20Z</time>
      </trkpt>
      <trkpt lat="37.7167390" lon="-4.0008100">
        <ele>628.8</ele>
        <time>2021-12-27T17:09:21Z</time>
      </trkpt>
      <trkpt lat="37.7166910" lon="-4.0007970">
        <ele>628.8</ele>
        <time>2021-12-27T17:09:22Z</time>
      </trkpt>
      <trkpt lat="37.7166370" lon="-4.0007820">
        <ele>628.6</ele>
        <time>2021-12-27T17:09:23Z</time>
      </trkpt>
      <trkpt lat="37.7165820" lon="-4.0007620">
        <ele>628.6</ele>
        <time>2021-12-27T17:09:24Z</time>
      </trkpt>
      <trkpt lat="37.7165220" lon="-4.0007400">
        <ele>628.6</ele>
        <time>2021-12-27T17:09:25Z</time>
      </trkpt>
      <trkpt lat="37.7164640" lon="-4.0007220">
        <ele>628.6</ele>
        <time>2021-12-27T17:09:26Z</time>
      </trkpt>
      <trkpt lat="37.7164000" lon="-4.0007020">
        <ele>628.6</ele>
        <time>2021-12-27T17:09:27Z</time>
      </trkpt>
      <trkpt lat="37.7163390" lon="-4.0006820">
        <ele>628.6</ele>
        <time>2021-12-27T17:09:28Z</time>
      </trkpt>
      <trkpt lat="37.7162820" lon="-4.0006600">
        <ele>628.6</ele>
        <time>2021-12-27T17:09:29Z</time>
      </trkpt>
      <trkpt lat="37.7162240" lon="-4.0006380">
        <ele>628.4</ele>
        <time>2021-12-27T17:09:30Z</time>
      </trkpt>
      <trkpt lat="37.7161660" lon="-4.0006250">
        <ele>628.4</ele>
        <time>2021-12-27T17:09:31Z</time>
      </trkpt>
      <trkpt lat="37.7161150" lon="-4.0006150">
        <ele>628.4</ele>
        <time>2021-12-27T17:09:32Z</time>
      </trkpt>
      <trkpt lat="37.7160580" lon="-4.0006000">
        <ele>628.4</ele>
        <time>2021-12-27T17:09:33Z</time>
      </trkpt>
      <trkpt lat="37.7160000" lon="-4.0005800">
        <ele>628.2</ele>
        <time>2021-12-27T17:09:34Z</time>
      </trkpt>
      <trkpt lat="37.7159390" lon="-4.0005600">
        <ele>628.2</ele>
        <time>2021-12-27T17:09:35Z</time>
      </trkpt>
      <trkpt lat="37.7158820" lon="-4.0005420">
        <ele>628.0</ele>
        <time>2021-12-27T17:09:36Z</time>
      </trkpt>
      <trkpt lat="37.7158210" lon="-4.0005240">
        <ele>628.0</ele>
        <time>2021-12-27T17:09:37Z</time>
      </trkpt>
      <trkpt lat="37.7157600" lon="-4.0005050">
        <ele>628.0</ele>
        <time>2021-12-27T17:09:38Z</time>
      </trkpt>
      <trkpt lat="37.7156990" lon="-4.0004880">
        <ele>627.8</ele>
        <time>2021-12-27T17:09:39Z</time>
      </trkpt>
      <trkpt lat="37.7156420" lon="-4.0004680">
        <ele>627.8</ele>
        <time>2021-12-27T17:09:40Z</time>
      </trkpt>
      <trkpt lat="37.7155810" lon="-4.0004500">
        <ele>627.6</ele>
        <time>2021-12-27T17:09:41Z</time>
      </trkpt>
      <trkpt lat="37.7155230" lon="-4.0004300">
        <ele>627.6</ele>
        <time>2021-12-27T17:09:42Z</time>
      </trkpt>
      <trkpt lat="37.7154620" lon="-4.0004080">
        <ele>627.4</ele>
        <time>2021-12-27T17:09:43Z</time>
      </trkpt>
      <trkpt lat="37.7154050" lon="-4.0003880">
        <ele>627.4</ele>
        <time>2021-12-27T17:09:44Z</time>
      </trkpt>
      <trkpt lat="37.7153440" lon="-4.0003700">
        <ele>627.2</ele>
        <time>2021-12-27T17:09:45Z</time>
      </trkpt>
      <trkpt lat="37.7152860" lon="-4.0003530">
        <ele>627.2</ele>
        <time>2021-12-27T17:09:46Z</time>
      </trkpt>
      <trkpt lat="37.7152260" lon="-4.0003330">
        <ele>627.2</ele>
        <time>2021-12-27T17:09:47Z</time>
      </trkpt>
      <trkpt lat="37.7151680" lon="-4.0003170">
        <ele>627.0</ele>
        <time>2021-12-27T17:09:48Z</time>
      </trkpt>
      <trkpt lat="37.7151070" lon="-4.0002960">
        <ele>627.0</ele>
        <time>2021-12-27T17:09:49Z</time>
      </trkpt>
      <trkpt lat="37.7150460" lon="-4.0002760">
        <ele>626.8</ele>
        <time>2021-12-27T17:09:50Z</time>
      </trkpt>
      <trkpt lat="37.7149860" lon="-4.0002550">
        <ele>626.6</ele>
        <time>2021-12-27T17:09:51Z</time>
      </trkpt>
      <trkpt lat="37.7149250" lon="-4.0002330">
        <ele>626.6</ele>
        <time>2021-12-27T17:09:52Z</time>
      </trkpt>
      <trkpt lat="37.7148640" lon="-4.0002120">
        <ele>626.4</ele>
        <time>2021-12-27T17:09:53Z</time>
      </trkpt>
      <trkpt lat="37.7148030" lon="-4.0001900">
        <ele>626.4</ele>
        <time>2021-12-27T17:09:54Z</time>
      </trkpt>
      <trkpt lat="37.7147460" lon="-4.0001720">
        <ele>626.4</ele>
        <time>2021-12-27T17:09:55Z</time>
      </trkpt>
      <trkpt lat="37.7146880" lon="-4.0001540">
        <ele>626.2</ele>
        <time>2021-12-27T17:09:56Z</time>
      </trkpt>
      <trkpt lat="37.7146300" lon="-4.0001350">
        <ele>626.2</ele>
        <time>2021-12-27T17:09:57Z</time>
      </trkpt>
      <trkpt lat="37.7145730" lon="-4.0001140">
        <ele>626.2</ele>
        <time>2021-12-27T17:09:58Z</time>
      </trkpt>
      <trkpt lat="37.7145150" lon="-4.0000920">
        <ele>626.0</ele>
        <time>2021-12-27T17:09:59Z</time>
      </trkpt>
      <trkpt lat="37.7144420" lon="-4.0000620">
        <ele>626.0</ele>
        <time>2021-12-27T17:10:00Z</time>
      </trkpt>
      <trkpt lat="37.7144180" lon="-4.0000520">
        <ele>625.8</ele>
        <time>2021-12-27T17:10:01Z</time>
      </trkpt>
      <trkpt lat="37.7143680" lon="-4.0000330">
        <ele>625.8</ele>
        <time>2021-12-27T17:10:02Z</time>
      </trkpt>
      <trkpt lat="37.7143200" lon="-4.0000150">
        <ele>625.8</ele>
        <time>2021-12-27T17:10:03Z</time>
      </trkpt>
      <trkpt lat="37.7142720" lon="-3.9999980">
        <ele>625.8</ele>
        <time>2021-12-27T17:10:04Z</time>
      </trkpt>
      <trkpt lat="37.7142210" lon="-3.9999830">
        <ele>625.8</ele>
        <time>2021-12-27T17:10:05Z</time>
      </trkpt>
      <trkpt lat="37.7141730" lon="-3.9999700">
        <ele>625.8</ele>
        <time>2021-12-27T17:10:06Z</time>
      </trkpt>
      <trkpt lat="37.7141220" lon="-3.9999570">
        <ele>625.8</ele>
        <time>2021-12-27T17:10:07Z</time>
      </trkpt>
      <trkpt lat="37.7140740" lon="-3.9999430">
        <ele>625.8</ele>
        <time>2021-12-27T17:10:08Z</time>
      </trkpt>
      <trkpt lat="37.7140190" lon="-3.9999260">
        <ele>625.6</ele>
        <time>2021-12-27T17:10:09Z</time>
      </trkpt>
      <trkpt lat="37.7139650" lon="-3.9999100">
        <ele>625.6</ele>
        <time>2021-12-27T17:10:10Z</time>
      </trkpt>
      <trkpt lat="37.7139140" lon="-3.9998880">
        <ele>625.4</ele>
        <time>2021-12-27T17:10:11Z</time>
      </trkpt>
      <trkpt lat="37.7138590" lon="-3.9998700">
        <ele>625.4</ele>
        <time>2021-12-27T17:10:12Z</time>
      </trkpt>
      <trkpt lat="37.7138110" lon="-3.9998520">
        <ele>625.2</ele>
        <time>2021-12-27T17:10:13Z</time>
      </trkpt>
      <trkpt lat="37.7137630" lon="-3.9998370">
        <ele>625.2</ele>
        <time>2021-12-27T17:10:14Z</time>
      </trkpt>
      <trkpt lat="37.7137180" lon="-3.9998220">
        <ele>625.2</ele>
        <time>2021-12-27T17:10:15Z</time>
      </trkpt>
      <trkpt lat="37.7136740" lon="-3.9998100">
        <ele>625.2</ele>
        <time>2021-12-27T17:10:16Z</time>
      </trkpt>
      <trkpt lat="37.7136260" lon="-3.9997980">
        <ele>625.0</ele>
        <time>2021-12-27T17:10:17Z</time>
      </trkpt>
      <trkpt lat="37.7135810" lon="-3.9997820">
        <ele>625.0</ele>
        <time>2021-12-27T17:10:18Z</time>
      </trkpt>
      <trkpt lat="37.7135360" lon="-3.9997660">
        <ele>624.8</ele>
        <time>2021-12-27T17:10:19Z</time>
      </trkpt>
      <trkpt lat="37.7134850" lon="-3.9997520">
        <ele>624.8</ele>
        <time>2021-12-27T17:10:20Z</time>
      </trkpt>
      <trkpt lat="37.7134400" lon="-3.9997350">
        <ele>624.8</ele>
        <time>2021-12-27T17:10:21Z</time>
      </trkpt>
      <trkpt lat="37.7133890" lon="-3.9997140">
        <ele>624.6</ele>
        <time>2021-12-27T17:10:22Z</time>
      </trkpt>
      <trkpt lat="37.7133440" lon="-3.9996950">
        <ele>624.6</ele>
        <time>2021-12-27T17:10:23Z</time>
      </trkpt>
      <trkpt lat="37.7132960" lon="-3.9996780">
        <ele>624.6</ele>
        <time>2021-12-27T17:10:24Z</time>
      </trkpt>
      <trkpt lat="37.7132420" lon="-3.9996600">
        <ele>624.6</ele>
        <time>2021-12-27T17:10:25Z</time>
      </trkpt>
      <trkpt lat="37.7131870" lon="-3.9996430">
        <ele>624.4</ele>
        <time>2021-12-27T17:10:26Z</time>
      </trkpt>
      <trkpt lat="37.7131390" lon="-3.9996280">
        <ele>624.4</ele>
        <time>2021-12-27T17:10:27Z</time>
      </trkpt>
      <trkpt lat="37.7130880" lon="-3.9996130">
        <ele>624.2</ele>
        <time>2021-12-27T17:10:28Z</time>
      </trkpt>
      <trkpt lat="37.7130400" lon="-3.9995930">
        <ele>624.2</ele>
        <time>2021-12-27T17:10:29Z</time>
      </trkpt>
      <trkpt lat="37.7129860" lon="-3.9995730">
        <ele>624.0</ele>
        <time>2021-12-27T17:10:30Z</time>
      </trkpt>
      <trkpt lat="37.7129380" lon="-3.9995560">
        <ele>624.0</ele>
        <time>2021-12-27T17:10:31Z</time>
      </trkpt>
      <trkpt lat="37.7128860" lon="-3.9995420">
        <ele>624.0</ele>
        <time>2021-12-27T17:10:32Z</time>
      </trkpt>
      <trkpt lat="37.7128380" lon="-3.9995270">
        <ele>624.0</ele>
        <time>2021-12-27T17:10:33Z</time>
      </trkpt>
      <trkpt lat="37.7127900" lon="-3.9995120">
        <ele>623.8</ele>
        <time>2021-12-27T17:10:34Z</time>
      </trkpt>
      <trkpt lat="37.7127420" lon="-3.9994980">
        <ele>623.8</ele>
        <time>2021-12-27T17:10:35Z</time>
      </trkpt>
      <trkpt lat="37.7126980" lon="-3.9994800">
        <ele>624.0</ele>
        <time>2021-12-27T17:10:36Z</time>
      </trkpt>
      <trkpt lat="37.7126460" lon="-3.9994630">
        <ele>624.0</ele>
        <time>2021-12-27T17:10:37Z</time>
      </trkpt>
      <trkpt lat="37.7126020" lon="-3.9994470">
        <ele>624.0</ele>
        <time>2021-12-27T17:10:38Z</time>
      </trkpt>
      <trkpt lat="37.7125600" lon="-3.9994270">
        <ele>624.0</ele>
        <time>2021-12-27T17:10:39Z</time>
      </trkpt>
      <trkpt lat="37.7125120" lon="-3.9994070">
        <ele>624.2</ele>
        <time>2021-12-27T17:10:40Z</time>
      </trkpt>
      <trkpt lat="37.7124640" lon="-3.9993940">
        <ele>624.2</ele>
        <time>2021-12-27T17:10:41Z</time>
      </trkpt>
      <trkpt lat="37.7124190" lon="-3.9993780">
        <ele>624.2</ele>
        <time>2021-12-27T17:10:42Z</time>
      </trkpt>
      <trkpt lat="37.7123740" lon="-3.9993680">
        <ele>624.4</ele>
        <time>2021-12-27T17:10:43Z</time>
      </trkpt>
      <trkpt lat="37.7123300" lon="-3.9993570">
        <ele>624.4</ele>
        <time>2021-12-27T17:10:44Z</time>
      </trkpt>
      <trkpt lat="37.7122820" lon="-3.9993470">
        <ele>624.4</ele>
        <time>2021-12-27T17:10:45Z</time>
      </trkpt>
      <trkpt lat="37.7122370" lon="-3.9993350">
        <ele>624.4</ele>
        <time>2021-12-27T17:10:46Z</time>
      </trkpt>
      <trkpt lat="37.7121890" lon="-3.9993250">
        <ele>624.4</ele>
        <time>2021-12-27T17:10:47Z</time>
      </trkpt>
      <trkpt lat="37.7121470" lon="-3.9993130">
        <ele>624.4</ele>
        <time>2021-12-27T17:10:48Z</time>
      </trkpt>
      <trkpt lat="37.7121060" lon="-3.9993000">
        <ele>624.4</ele>
        <time>2021-12-27T17:10:49Z</time>
      </trkpt>
      <trkpt lat="37.7120670" lon="-3.9992880">
        <ele>624.4</ele>
        <time>2021-12-27T17:10:50Z</time>
      </trkpt>
      <trkpt lat="37.7120260" lon="-3.9992780">
        <ele>624.4</ele>
        <time>2021-12-27T17:10:51Z</time>
      </trkpt>
      <trkpt lat="37.7119780" lon="-3.9992680">
        <ele>624.4</ele>
        <time>2021-12-27T17:10:52Z</time>
      </trkpt>
      <trkpt lat="37.7119260" lon="-3.9992600">
        <ele>624.4</ele>
        <time>2021-12-27T17:10:53Z</time>
      </trkpt>
      <trkpt lat="37.7118850" lon="-3.9992530">
        <ele>624.4</ele>
        <time>2021-12-27T17:10:54Z</time>
      </trkpt>
      <trkpt lat="37.7118460" lon="-3.9992500">
        <ele>624.4</ele>
        <time>2021-12-27T17:10:55Z</time>
      </trkpt>
      <trkpt lat="37.7118050" lon="-3.9992400">
        <ele>624.4</ele>
        <time>2021-12-27T17:10:56Z</time>
      </trkpt>
      <trkpt lat="37.7117540" lon="-3.9992320">
        <ele>624.4</ele>
        <time>2021-12-27T17:10:57Z</time>
      </trkpt>
      <trkpt lat="37.7117090" lon="-3.9992300">
        <ele>624.4</ele>
        <time>2021-12-27T17:10:58Z</time>
      </trkpt>
      <trkpt lat="37.7116670" lon="-3.9992250">
        <ele>624.4</ele>
        <time>2021-12-27T17:10:59Z</time>
      </trkpt>
      <trkpt lat="37.7116350" lon="-3.9992200">
        <ele>624.4</ele>
        <time>2021-12-27T17:11:00Z</time>
      </trkpt>
      <trkpt lat="37.7115900" lon="-3.9992200">
        <ele>624.4</ele>
        <time>2021-12-27T17:11:01Z</time>
      </trkpt>
      <trkpt lat="37.7115390" lon="-3.9992180">
        <ele>624.4</ele>
        <time>2021-12-27T17:11:02Z</time>
      </trkpt>
      <trkpt lat="37.7114940" lon="-3.9992130">
        <ele>624.2</ele>
        <time>2021-12-27T17:11:03Z</time>
      </trkpt>
      <trkpt lat="37.7114560" lon="-3.9992120">
        <ele>624.2</ele>
        <time>2021-12-27T17:11:04Z</time>
      </trkpt>
      <trkpt lat="37.7114080" lon="-3.9992080">
        <ele>624.2</ele>
        <time>2021-12-27T17:11:05Z</time>
      </trkpt>
      <trkpt lat="37.7113600" lon="-3.9992080">
        <ele>624.0</ele>
        <time>2021-12-27T17:11:06Z</time>
      </trkpt>
      <trkpt lat="37.7113150" lon="-3.9992080">
        <ele>623.8</ele>
        <time>2021-12-27T17:11:07Z</time>
      </trkpt>
      <trkpt lat="37.7112610" lon="-3.9992080">
        <ele>623.6</ele>
        <time>2021-12-27T17:11:08Z</time>
      </trkpt>
      <trkpt lat="37.7112160" lon="-3.9992120">
        <ele>623.4</ele>
        <time>2021-12-27T17:11:09Z</time>
      </trkpt>
      <trkpt lat="37.7111780" lon="-3.9992150">
        <ele>623.2</ele>
        <time>2021-12-27T17:11:10Z</time>
      </trkpt>
      <trkpt lat="37.7111200" lon="-3.9992180">
        <ele>623.0</ele>
        <time>2021-12-27T17:11:11Z</time>
      </trkpt>
      <trkpt lat="37.7110850" lon="-3.9992200">
        <ele>622.8</ele>
        <time>2021-12-27T17:11:12Z</time>
      </trkpt>
      <trkpt lat="37.7110300" lon="-3.9992330">
        <ele>622.6</ele>
        <time>2021-12-27T17:11:13Z</time>
      </trkpt>
      <trkpt lat="37.7109820" lon="-3.9992400">
        <ele>622.4</ele>
        <time>2021-12-27T17:11:14Z</time>
      </trkpt>
      <trkpt lat="37.7109410" lon="-3.9992460">
        <ele>622.2</ele>
        <time>2021-12-27T17:11:15Z</time>
      </trkpt>
      <trkpt lat="37.7108960" lon="-3.9992530">
        <ele>622.0</ele>
        <time>2021-12-27T17:11:16Z</time>
      </trkpt>
      <trkpt lat="37.7108610" lon="-3.9992580">
        <ele>621.8</ele>
        <time>2021-12-27T17:11:17Z</time>
      </trkpt>
      <trkpt lat="37.7108030" lon="-3.9992670">
        <ele>621.6</ele>
        <time>2021-12-27T17:11:18Z</time>
      </trkpt>
      <trkpt lat="37.7107650" lon="-3.9992770">
        <ele>621.6</ele>
        <time>2021-12-27T17:11:19Z</time>
      </trkpt>
      <trkpt lat="37.7107070" lon="-3.9992870">
        <ele>621.4</ele>
        <time>2021-12-27T17:11:20Z</time>
      </trkpt>
      <trkpt lat="37.7106660" lon="-3.9993000">
        <ele>621.4</ele>
        <time>2021-12-27T17:11:21Z</time>
      </trkpt>
      <trkpt lat="37.7106210" lon="-3.9993170">
        <ele>621.2</ele>
        <time>2021-12-27T17:11:22Z</time>
      </trkpt>
      <trkpt lat="37.7105860" lon="-3.9993280">
        <ele>621.0</ele>
        <time>2021-12-27T17:11:23Z</time>
      </trkpt>
      <trkpt lat="37.7105380" lon="-3.9993420">
        <ele>621.0</ele>
        <time>2021-12-27T17:11:24Z</time>
      </trkpt>
      <trkpt lat="37.7104960" lon="-3.9993540">
        <ele>620.8</ele>
        <time>2021-12-27T17:11:25Z</time>
      </trkpt>
      <trkpt lat="37.7104580" lon="-3.9993650">
        <ele>620.8</ele>
        <time>2021-12-27T17:11:26Z</time>
      </trkpt>
      <trkpt lat="37.7104160" lon="-3.9993800">
        <ele>620.8</ele>
        <time>2021-12-27T17:11:27Z</time>
      </trkpt>
      <trkpt lat="37.7103740" lon="-3.9993980">
        <ele>620.6</ele>
        <time>2021-12-27T17:11:28Z</time>
      </trkpt>
      <trkpt lat="37.7103300" lon="-3.9994180">
        <ele>620.6</ele>
        <time>2021-12-27T17:11:29Z</time>
      </trkpt>
      <trkpt lat="37.7102980" lon="-3.9994320">
        <ele>620.4</ele>
        <time>2021-12-27T17:11:30Z</time>
      </trkpt>
      <trkpt lat="37.7102460" lon="-3.9994550">
        <ele>620.4</ele>
        <time>2021-12-27T17:11:31Z</time>
      </trkpt>
      <trkpt lat="37.7102080" lon="-3.9994730">
        <ele>620.2</ele>
        <time>2021-12-27T17:11:32Z</time>
      </trkpt>
      <trkpt lat="37.7101790" lon="-3.9994880">
        <ele>620.0</ele>
        <time>2021-12-27T17:11:33Z</time>
      </trkpt>
      <trkpt lat="37.7101280" lon="-3.9995120">
        <ele>620.0</ele>
        <time>2021-12-27T17:11:34Z</time>
      </trkpt>
      <trkpt lat="37.7100900" lon="-3.9995340">
        <ele>619.8</ele>
        <time>2021-12-27T17:11:35Z</time>
      </trkpt>
      <trkpt lat="37.7100610" lon="-3.9995520">
        <ele>619.6</ele>
        <time>2021-12-27T17:11:36Z</time>
      </trkpt>
      <trkpt lat="37.7100220" lon="-3.9995730">
        <ele>619.6</ele>
        <time>2021-12-27T17:11:37Z</time>
      </trkpt>
      <trkpt lat="37.7099780" lon="-3.9995980">
        <ele>619.4</ele>
        <time>2021-12-27T17:11:38Z</time>
      </trkpt>
      <trkpt lat="37.7099330" lon="-3.9996200">
        <ele>619.4</ele>
        <time>2021-12-27T17:11:39Z</time>
      </trkpt>
      <trkpt lat="37.7099040" lon="-3.9996420">
        <ele>619.2</ele>
        <time>2021-12-27T17:11:40Z</time>
      </trkpt>
      <trkpt lat="37.7098660" lon="-3.9996650">
        <ele>619.2</ele>
        <time>2021-12-27T17:11:41Z</time>
      </trkpt>
      <trkpt lat="37.7098210" lon="-3.9996970">
        <ele>619.2</ele>
        <time>2021-12-27T17:11:42Z</time>
      </trkpt>
      <trkpt lat="37.7097890" lon="-3.9997150">
        <ele>619.0</ele>
        <time>2021-12-27T17:11:43Z</time>
      </trkpt>
      <trkpt lat="37.7097540" lon="-3.9997420">
        <ele>619.0</ele>
        <time>2021-12-27T17:11:44Z</time>
      </trkpt>
      <trkpt lat="37.7097150" lon="-3.9997660">
        <ele>618.8</ele>
        <time>2021-12-27T17:11:45Z</time>
      </trkpt>
      <trkpt lat="37.7096860" lon="-3.9997920">
        <ele>618.6</ele>
        <time>2021-12-27T17:11:46Z</time>
      </trkpt>
      <trkpt lat="37.7096480" lon="-3.9998180">
        <ele>618.4</ele>
        <time>2021-12-27T17:11:47Z</time>
      </trkpt>
      <trkpt lat="37.7096100" lon="-3.9998480">
        <ele>618.0</ele>
        <time>2021-12-27T17:11:48Z</time>
      </trkpt>
      <trkpt lat="37.7095740" lon="-3.9998730">
        <ele>617.8</ele>
        <time>2021-12-27T17:11:49Z</time>
      </trkpt>
      <trkpt lat="37.7095460" lon="-3.9998980">
        <ele>617.8</ele>
        <time>2021-12-27T17:11:50Z</time>
      </trkpt>
      <trkpt lat="37.7095200" lon="-3.9999200">
        <ele>617.6</ele>
        <time>2021-12-27T17:11:51Z</time>
      </trkpt>
      <trkpt lat="37.7094820" lon="-3.9999520">
        <ele>617.4</ele>
        <time>2021-12-27T17:11:52Z</time>
      </trkpt>
      <trkpt lat="37.7094500" lon="-3.9999730">
        <ele>617.2</ele>
        <time>2021-12-27T17:11:53Z</time>
      </trkpt>
      <trkpt lat="37.7094110" lon="-4.0000080">
        <ele>617.2</ele>
        <time>2021-12-27T17:11:54Z</time>
      </trkpt>
      <trkpt lat="37.7093860" lon="-4.0000320">
        <ele>617.2</ele>
        <time>2021-12-27T17:11:55Z</time>
      </trkpt>
      <trkpt lat="37.7093470" lon="-4.0000650">
        <ele>617.0</ele>
        <time>2021-12-27T17:11:56Z</time>
      </trkpt>
      <trkpt lat="37.7093120" lon="-4.0000950">
        <ele>617.0</ele>
        <time>2021-12-27T17:11:57Z</time>
      </trkpt>
      <trkpt lat="37.7092770" lon="-4.0001270">
        <ele>616.8</ele>
        <time>2021-12-27T17:11:58Z</time>
      </trkpt>
      <trkpt lat="37.7092480" lon="-4.0001580">
        <ele>616.6</ele>
        <time>2021-12-27T17:11:59Z</time>
      </trkpt>
      <trkpt lat="37.7092220" lon="-4.0001850">
        <ele>616.6</ele>
        <time>2021-12-27T17:12:00Z</time>
      </trkpt>
      <trkpt lat="37.7091840" lon="-4.0002220">
        <ele>616.6</ele>
        <time>2021-12-27T17:12:01Z</time>
      </trkpt>
      <trkpt lat="37.7091520" lon="-4.0002530">
        <ele>616.6</ele>
        <time>2021-12-27T17:12:02Z</time>
      </trkpt>
      <trkpt lat="37.7091170" lon="-4.0002880">
        <ele>616.6</ele>
        <time>2021-12-27T17:12:03Z</time>
      </trkpt>
      <trkpt lat="37.7090940" lon="-4.0003180">
        <ele>616.6</ele>
        <time>2021-12-27T17:12:04Z</time>
      </trkpt>
      <trkpt lat="37.7090560" lon="-4.0003600">
        <ele>616.6</ele>
        <time>2021-12-27T17:12:05Z</time>
      </trkpt>
      <trkpt lat="37.7090270" lon="-4.0003950">
        <ele>616.6</ele>
        <time>2021-12-27T17:12:06Z</time>
      </trkpt>
      <trkpt lat="37.7089980" lon="-4.0004240">
        <ele>616.6</ele>
        <time>2021-12-27T17:12:07Z</time>
      </trkpt>
      <trkpt lat="37.7089700" lon="-4.0004580">
        <ele>616.6</ele>
        <time>2021-12-27T17:12:08Z</time>
      </trkpt>
      <trkpt lat="37.7089380" lon="-4.0004950">
        <ele>616.4</ele>
        <time>2021-12-27T17:12:09Z</time>
      </trkpt>
      <trkpt lat="37.7088990" lon="-4.0005430">
        <ele>616.4</ele>
        <time>2021-12-27T17:12:10Z</time>
      </trkpt>
      <trkpt lat="37.7088700" lon="-4.0005820">
        <ele>616.4</ele>
        <time>2021-12-27T17:12:11Z</time>
      </trkpt>
      <trkpt lat="37.7088450" lon="-4.0006200">
        <ele>616.2</ele>
        <time>2021-12-27T17:12:12Z</time>
      </trkpt>
      <trkpt lat="37.7088160" lon="-4.0006580">
        <ele>616.0</ele>
        <time>2021-12-27T17:12:13Z</time>
      </trkpt>
      <trkpt lat="37.7087870" lon="-4.0006970">
        <ele>616.0</ele>
        <time>2021-12-27T17:12:14Z</time>
      </trkpt>
      <trkpt lat="37.7087580" lon="-4.0007370">
        <ele>615.8</ele>
        <time>2021-12-27T17:12:15Z</time>
      </trkpt>
      <trkpt lat="37.7087390" lon="-4.0007670">
        <ele>615.8</ele>
        <time>2021-12-27T17:12:16Z</time>
      </trkpt>
      <trkpt lat="37.7087100" lon="-4.0008050">
        <ele>615.6</ele>
        <time>2021-12-27T17:12:17Z</time>
      </trkpt>
      <trkpt lat="37.7086880" lon="-4.0008450">
        <ele>615.6</ele>
        <time>2021-12-27T17:12:18Z</time>
      </trkpt>
      <trkpt lat="37.7086590" lon="-4.0008850">
        <ele>615.4</ele>
        <time>2021-12-27T17:12:19Z</time>
      </trkpt>
      <trkpt lat="37.7086370" lon="-4.0009200">
        <ele>615.4</ele>
        <time>2021-12-27T17:12:20Z</time>
      </trkpt>
      <trkpt lat="37.7086110" lon="-4.0009550">
        <ele>615.4</ele>
        <time>2021-12-27T17:12:21Z</time>
      </trkpt>
      <trkpt lat="37.7085890" lon="-4.0009920">
        <ele>615.2</ele>
        <time>2021-12-27T17:12:22Z</time>
      </trkpt>
      <trkpt lat="37.7085630" lon="-4.0010270">
        <ele>615.2</ele>
        <time>2021-12-27T17:12:23Z</time>
      </trkpt>
      <trkpt lat="37.7085410" lon="-4.0010650">
        <ele>615.0</ele>
        <time>2021-12-27T17:12:24Z</time>
      </trkpt>
      <trkpt lat="37.7085180" lon="-4.0011040">
        <ele>615.0</ele>
        <time>2021-12-27T17:12:25Z</time>
      </trkpt>
      <trkpt lat="37.7084990" lon="-4.0011400">
        <ele>614.8</ele>
        <time>2021-12-27T17:12:26Z</time>
      </trkpt>
      <trkpt lat="37.7084800" lon="-4.0011770">
        <ele>614.8</ele>
        <time>2021-12-27T17:12:27Z</time>
      </trkpt>
      <trkpt lat="37.7084610" lon="-4.0012140">
        <ele>614.6</ele>
        <time>2021-12-27T17:12:28Z</time>
      </trkpt>
      <trkpt lat="37.7084420" lon="-4.0012520">
        <ele>614.6</ele>
        <time>2021-12-27T17:12:29Z</time>
      </trkpt>
      <trkpt lat="37.7084220" lon="-4.0012880">
        <ele>614.4</ele>
        <time>2021-12-27T17:12:30Z</time>
      </trkpt>
      <trkpt lat="37.7084030" lon="-4.0013260">
        <ele>614.4</ele>
        <time>2021-12-27T17:12:31Z</time>
      </trkpt>
      <trkpt lat="37.7083840" lon="-4.0013670">
        <ele>614.4</ele>
        <time>2021-12-27T17:12:32Z</time>
      </trkpt>
      <trkpt lat="37.7083710" lon="-4.0014050">
        <ele>614.2</ele>
        <time>2021-12-27T17:12:33Z</time>
      </trkpt>
      <trkpt lat="37.7083490" lon="-4.0014430">
        <ele>614.0</ele>
        <time>2021-12-27T17:12:34Z</time>
      </trkpt>
      <trkpt lat="37.7083300" lon="-4.0014820">
        <ele>614.0</ele>
        <time>2021-12-27T17:12:35Z</time>
      </trkpt>
      <trkpt lat="37.7083140" lon="-4.0015200">
        <ele>613.8</ele>
        <time>2021-12-27T17:12:36Z</time>
      </trkpt>
      <trkpt lat="37.7082940" lon="-4.0015600">
        <ele>613.6</ele>
        <time>2021-12-27T17:12:37Z</time>
      </trkpt>
      <trkpt lat="37.7082750" lon="-4.0015960">
        <ele>613.4</ele>
        <time>2021-12-27T17:12:38Z</time>
      </trkpt>
      <trkpt lat="37.7082620" lon="-4.0016330">
        <ele>613.4</ele>
        <time>2021-12-27T17:12:39Z</time>
      </trkpt>
      <trkpt lat="37.7082500" lon="-4.0016730">
        <ele>613.4</ele>
        <time>2021-12-27T17:12:40Z</time>
      </trkpt>
      <trkpt lat="37.7082340" lon="-4.0017100">
        <ele>613.4</ele>
        <time>2021-12-27T17:12:41Z</time>
      </trkpt>
      <trkpt lat="37.7082180" lon="-4.0017480">
        <ele>613.2</ele>
        <time>2021-12-27T17:12:42Z</time>
      </trkpt>
      <trkpt lat="37.7081980" lon="-4.0017880">
        <ele>613.2</ele>
        <time>2021-12-27T17:12:43Z</time>
      </trkpt>
      <trkpt lat="37.7081820" lon="-4.0018320">
        <ele>613.2</ele>
        <time>2021-12-27T17:12:44Z</time>
      </trkpt>
      <trkpt lat="37.7081700" lon="-4.0018780">
        <ele>613.2</ele>
        <time>2021-12-27T17:12:45Z</time>
      </trkpt>
      <trkpt lat="37.7081500" lon="-4.0019220">
        <ele>613.2</ele>
        <time>2021-12-27T17:12:46Z</time>
      </trkpt>
      <trkpt lat="37.7081340" lon="-4.0019650">
        <ele>613.0</ele>
        <time>2021-12-27T17:12:47Z</time>
      </trkpt>
      <trkpt lat="37.7081250" lon="-4.0020100">
        <ele>613.0</ele>
        <time>2021-12-27T17:12:48Z</time>
      </trkpt>
      <trkpt lat="37.7081150" lon="-4.0020580">
        <ele>613.0</ele>
        <time>2021-12-27T17:12:49Z</time>
      </trkpt>
      <trkpt lat="37.7081020" lon="-4.0021080">
        <ele>612.8</ele>
        <time>2021-12-27T17:12:50Z</time>
      </trkpt>
      <trkpt lat="37.7080800" lon="-4.0021650">
        <ele>612.8</ele>
        <time>2021-12-27T17:12:51Z</time>
      </trkpt>
      <trkpt lat="37.7080700" lon="-4.0022170">
        <ele>612.8</ele>
        <time>2021-12-27T17:12:52Z</time>
      </trkpt>
      <trkpt lat="37.7080580" lon="-4.0022580">
        <ele>612.6</ele>
        <time>2021-12-27T17:12:53Z</time>
      </trkpt>
      <trkpt lat="37.7080450" lon="-4.0023120">
        <ele>612.6</ele>
        <time>2021-12-27T17:12:54Z</time>
      </trkpt>
      <trkpt lat="37.7080260" lon="-4.0023730">
        <ele>612.4</ele>
        <time>2021-12-27T17:12:55Z</time>
      </trkpt>
      <trkpt lat="37.7080130" lon="-4.0024230">
        <ele>612.4</ele>
        <time>2021-12-27T17:12:56Z</time>
      </trkpt>
      <trkpt lat="37.7080000" lon="-4.0024720">
        <ele>612.4</ele>
        <time>2021-12-27T17:12:57Z</time>
      </trkpt>
      <trkpt lat="37.7079840" lon="-4.0025340">
        <ele>612.2</ele>
        <time>2021-12-27T17:12:58Z</time>
      </trkpt>
      <trkpt lat="37.7079740" lon="-4.0025770">
        <ele>612.2</ele>
        <time>2021-12-27T17:12:59Z</time>
      </trkpt>
      <trkpt lat="37.7079620" lon="-4.0026450">
        <ele>612.0</ele>
        <time>2021-12-27T17:13:00Z</time>
      </trkpt>
      <trkpt lat="37.7079550" lon="-4.0027030">
        <ele>612.0</ele>
        <time>2021-12-27T17:13:01Z</time>
      </trkpt>
      <trkpt lat="37.7079460" lon="-4.0027620">
        <ele>611.8</ele>
        <time>2021-12-27T17:13:02Z</time>
      </trkpt>
      <trkpt lat="37.7079390" lon="-4.0028100">
        <ele>611.8</ele>
        <time>2021-12-27T17:13:03Z</time>
      </trkpt>
      <trkpt lat="37.7079360" lon="-4.0028700">
        <ele>611.6</ele>
        <time>2021-12-27T17:13:04Z</time>
      </trkpt>
      <trkpt lat="37.7079260" lon="-4.0029400">
        <ele>611.4</ele>
        <time>2021-12-27T17:13:05Z</time>
      </trkpt>
      <trkpt lat="37.7079200" lon="-4.0030020">
        <ele>611.2</ele>
        <time>2021-12-27T17:13:06Z</time>
      </trkpt>
      <trkpt lat="37.7079200" lon="-4.0030480">
        <ele>611.0</ele>
        <time>2021-12-27T17:13:07Z</time>
      </trkpt>
      <trkpt lat="37.7079170" lon="-4.0031060">
        <ele>610.8</ele>
        <time>2021-12-27T17:13:08Z</time>
      </trkpt>
      <trkpt lat="37.7079140" lon="-4.0031680">
        <ele>610.6</ele>
        <time>2021-12-27T17:13:09Z</time>
      </trkpt>
      <trkpt lat="37.7079070" lon="-4.0032400">
        <ele>610.6</ele>
        <time>2021-12-27T17:13:10Z</time>
      </trkpt>
      <trkpt lat="37.7079040" lon="-4.0033020">
        <ele>610.4</ele>
        <time>2021-12-27T17:13:11Z</time>
      </trkpt>
      <trkpt lat="37.7079010" lon="-4.0033520">
        <ele>610.4</ele>
        <time>2021-12-27T17:13:12Z</time>
      </trkpt>
      <trkpt lat="37.7078980" lon="-4.0034130">
        <ele>610.4</ele>
        <time>2021-12-27T17:13:13Z</time>
      </trkpt>
      <trkpt lat="37.7078940" lon="-4.0034880">
        <ele>610.2</ele>
        <time>2021-12-27T17:13:14Z</time>
      </trkpt>
      <trkpt lat="37.7078940" lon="-4.0035350">
        <ele>610.0</ele>
        <time>2021-12-27T17:13:15Z</time>
      </trkpt>
      <trkpt lat="37.7078940" lon="-4.0036070">
        <ele>609.8</ele>
        <time>2021-12-27T17:13:16Z</time>
      </trkpt>
      <trkpt lat="37.7078980" lon="-4.0036550">
        <ele>609.6</ele>
        <time>2021-12-27T17:13:17Z</time>
      </trkpt>
      <trkpt lat="37.7079010" lon="-4.0037260">
        <ele>609.4</ele>
        <time>2021-12-27T17:13:18Z</time>
      </trkpt>
      <trkpt lat="37.7079040" lon="-4.0037760">
        <ele>609.2</ele>
        <time>2021-12-27T17:13:19Z</time>
      </trkpt>
      <trkpt lat="37.7079070" lon="-4.0038380">
        <ele>609.0</ele>
        <time>2021-12-27T17:13:20Z</time>
      </trkpt>
      <trkpt lat="37.7079140" lon="-4.0038980">
        <ele>608.8</ele>
        <time>2021-12-27T17:13:21Z</time>
      </trkpt>
      <trkpt lat="37.7079200" lon="-4.0039600">
        <ele>608.6</ele>
        <time>2021-12-27T17:13:22Z</time>
      </trkpt>
      <trkpt lat="37.7079260" lon="-4.0040220">
        <ele>608.4</ele>
        <time>2021-12-27T17:13:23Z</time>
      </trkpt>
      <trkpt lat="37.7079360" lon="-4.0040800">
        <ele>608.2</ele>
        <time>2021-12-27T17:13:24Z</time>
      </trkpt>
      <trkpt lat="37.7079460" lon="-4.0041380">
        <ele>608.0</ele>
        <time>2021-12-27T17:13:25Z</time>
      </trkpt>
      <trkpt lat="37.7079580" lon="-4.0041980">
        <ele>608.0</ele>
        <time>2021-12-27T17:13:26Z</time>
      </trkpt>
      <trkpt lat="37.7079740" lon="-4.0042570">
        <ele>607.8</ele>
        <time>2021-12-27T17:13:27Z</time>
      </trkpt>
      <trkpt lat="37.7079810" lon="-4.0043180">
        <ele>607.8</ele>
        <time>2021-12-27T17:13:28Z</time>
      </trkpt>
      <trkpt lat="37.7079870" lon="-4.0043780">
        <ele>607.6</ele>
        <time>2021-12-27T17:13:29Z</time>
      </trkpt>
      <trkpt lat="37.7080000" lon="-4.0044400">
        <ele>607.6</ele>
        <time>2021-12-27T17:13:30Z</time>
      </trkpt>
      <trkpt lat="37.7080130" lon="-4.0045030">
        <ele>607.6</ele>
        <time>2021-12-27T17:13:31Z</time>
      </trkpt>
      <trkpt lat="37.7080220" lon="-4.0045620">
        <ele>607.4</ele>
        <time>2021-12-27T17:13:32Z</time>
      </trkpt>
      <trkpt lat="37.7080380" lon="-4.0046240">
        <ele>607.4</ele>
        <time>2021-12-27T17:13:33Z</time>
      </trkpt>
      <trkpt lat="37.7080540" lon="-4.0046840">
        <ele>607.2</ele>
        <time>2021-12-27T17:13:34Z</time>
      </trkpt>
      <trkpt lat="37.7080640" lon="-4.0047430">
        <ele>607.2</ele>
        <time>2021-12-27T17:13:35Z</time>
      </trkpt>
      <trkpt lat="37.7080800" lon="-4.0048030">
        <ele>607.0</ele>
        <time>2021-12-27T17:13:36Z</time>
      </trkpt>
      <trkpt lat="37.7080930" lon="-4.0048670">
        <ele>607.0</ele>
        <time>2021-12-27T17:13:37Z</time>
      </trkpt>
      <trkpt lat="37.7081020" lon="-4.0049280">
        <ele>607.0</ele>
        <time>2021-12-27T17:13:38Z</time>
      </trkpt>
      <trkpt lat="37.7081180" lon="-4.0049870">
        <ele>607.0</ele>
        <time>2021-12-27T17:13:39Z</time>
      </trkpt>
      <trkpt lat="37.7081310" lon="-4.0050420">
        <ele>606.8</ele>
        <time>2021-12-27T17:13:40Z</time>
      </trkpt>
      <trkpt lat="37.7081500" lon="-4.0050980">
        <ele>606.8</ele>
        <time>2021-12-27T17:13:41Z</time>
      </trkpt>
      <trkpt lat="37.7081700" lon="-4.0051530">
        <ele>606.6</ele>
        <time>2021-12-27T17:13:42Z</time>
      </trkpt>
      <trkpt lat="37.7081820" lon="-4.0052100">
        <ele>606.4</ele>
        <time>2021-12-27T17:13:43Z</time>
      </trkpt>
      <trkpt lat="37.7082050" lon="-4.0052630">
        <ele>606.2</ele>
        <time>2021-12-27T17:13:44Z</time>
      </trkpt>
      <trkpt lat="37.7082210" lon="-4.0053170">
        <ele>606.0</ele>
        <time>2021-12-27T17:13:45Z</time>
      </trkpt>
      <trkpt lat="37.7082400" lon="-4.0053680">
        <ele>606.0</ele>
        <time>2021-12-27T17:13:46Z</time>
      </trkpt>
      <trkpt lat="37.7082620" lon="-4.0054250">
        <ele>605.8</ele>
        <time>2021-12-27T17:13:47Z</time>
      </trkpt>
      <trkpt lat="37.7082850" lon="-4.0054760">
        <ele>605.6</ele>
        <time>2021-12-27T17:13:48Z</time>
      </trkpt>
      <trkpt lat="37.7083040" lon="-4.0055320">
        <ele>605.6</ele>
        <time>2021-12-27T17:13:49Z</time>
      </trkpt>
      <trkpt lat="37.7083300" lon="-4.0055830">
        <ele>605.4</ele>
        <time>2021-12-27T17:13:50Z</time>
      </trkpt>
      <trkpt lat="37.7083490" lon="-4.0056320">
        <ele>605.4</ele>
        <time>2021-12-27T17:13:51Z</time>
      </trkpt>
      <trkpt lat="37.7083650" lon="-4.0056800">
        <ele>605.2</ele>
        <time>2021-12-27T17:13:52Z</time>
      </trkpt>
      <trkpt lat="37.7083840" lon="-4.0057270">
        <ele>605.0</ele>
        <time>2021-12-27T17:13:53Z</time>
      </trkpt>
      <trkpt lat="37.7084030" lon="-4.0057680">
        <ele>604.8</ele>
        <time>2021-12-27T17:13:54Z</time>
      </trkpt>
      <trkpt lat="37.7084220" lon="-4.0058080">
        <ele>604.6</ele>
        <time>2021-12-27T17:13:55Z</time>
      </trkpt>
      <trkpt lat="37.7084420" lon="-4.0058520">
        <ele>604.4</ele>
        <time>2021-12-27T17:13:56Z</time>
      </trkpt>
      <trkpt lat="37.7084610" lon="-4.0058960">
        <ele>604.2</ele>
        <time>2021-12-27T17:13:57Z</time>
      </trkpt>
      <trkpt lat="37.7084800" lon="-4.0059430">
        <ele>604.0</ele>
        <time>2021-12-27T17:13:58Z</time>
      </trkpt>
      <trkpt lat="37.7084990" lon="-4.0059920">
        <ele>604.0</ele>
        <time>2021-12-27T17:13:59Z</time>
      </trkpt>
      <trkpt lat="37.7085280" lon="-4.0060480">
        <ele>603.8</ele>
        <time>2021-12-27T17:14:00Z</time>
      </trkpt>
      <trkpt lat="37.7085410" lon="-4.0060850">
        <ele>603.8</ele>
        <time>2021-12-27T17:14:01Z</time>
      </trkpt>
      <trkpt lat="37.7085600" lon="-4.0061320">
        <ele>603.6</ele>
        <time>2021-12-27T17:14:02Z</time>
      </trkpt>
      <trkpt lat="37.7085790" lon="-4.0061820">
        <ele>603.6</ele>
        <time>2021-12-27T17:14:03Z</time>
      </trkpt>
      <trkpt lat="37.7086020" lon="-4.0062330">
        <ele>603.6</ele>
        <time>2021-12-27T17:14:04Z</time>
      </trkpt>
      <trkpt lat="37.7086270" lon="-4.0062870">
        <ele>603.4</ele>
        <time>2021-12-27T17:14:05Z</time>
      </trkpt>
      <trkpt lat="37.7086500" lon="-4.0063370">
        <ele>603.4</ele>
        <time>2021-12-27T17:14:06Z</time>
      </trkpt>
      <trkpt lat="37.7086720" lon="-4.0063920">
        <ele>603.4</ele>
        <time>2021-12-27T17:14:07Z</time>
      </trkpt>
      <trkpt lat="37.7086910" lon="-4.0064450">
        <ele>603.4</ele>
        <time>2021-12-27T17:14:08Z</time>
      </trkpt>
      <trkpt lat="37.7087100" lon="-4.0064950">
        <ele>603.4</ele>
        <time>2021-12-27T17:14:09Z</time>
      </trkpt>
      <trkpt lat="37.7087330" lon="-4.0065450">
        <ele>603.2</ele>
        <time>2021-12-27T17:14:10Z</time>
      </trkpt>
      <trkpt lat="37.7087520" lon="-4.0065960">
        <ele>603.2</ele>
        <time>2021-12-27T17:14:11Z</time>
      </trkpt>
      <trkpt lat="37.7087740" lon="-4.0066450">
        <ele>603.0</ele>
        <time>2021-12-27T17:14:12Z</time>
      </trkpt>
      <trkpt lat="37.7087970" lon="-4.0067070">
        <ele>603.0</ele>
        <time>2021-12-27T17:14:13Z</time>
      </trkpt>
      <trkpt lat="37.7088130" lon="-4.0067470">
        <ele>602.8</ele>
        <time>2021-12-27T17:14:14Z</time>
      </trkpt>
      <trkpt lat="37.7088350" lon="-4.0067970">
        <ele>602.8</ele>
        <time>2021-12-27T17:14:15Z</time>
      </trkpt>
      <trkpt lat="37.7088580" lon="-4.0068530">
        <ele>602.6</ele>
        <time>2021-12-27T17:14:16Z</time>
      </trkpt>
      <trkpt lat="37.7088740" lon="-4.0068880">
        <ele>602.6</ele>
        <time>2021-12-27T17:14:17Z</time>
      </trkpt>
      <trkpt lat="37.7088930" lon="-4.0069380">
        <ele>602.4</ele>
        <time>2021-12-27T17:14:18Z</time>
      </trkpt>
      <trkpt lat="37.7089120" lon="-4.0069880">
        <ele>602.2</ele>
        <time>2021-12-27T17:14:19Z</time>
      </trkpt>
      <trkpt lat="37.7089340" lon="-4.0070500">
        <ele>602.2</ele>
        <time>2021-12-27T17:14:20Z</time>
      </trkpt>
      <trkpt lat="37.7089500" lon="-4.0070900">
        <ele>602.0</ele>
        <time>2021-12-27T17:14:21Z</time>
      </trkpt>
      <trkpt lat="37.7089730" lon="-4.0071350">
        <ele>602.0</ele>
        <time>2021-12-27T17:14:22Z</time>
      </trkpt>
      <trkpt lat="37.7089950" lon="-4.0071820">
        <ele>601.8</ele>
        <time>2021-12-27T17:14:23Z</time>
      </trkpt>
      <trkpt lat="37.7090140" lon="-4.0072280">
        <ele>601.6</ele>
        <time>2021-12-27T17:14:24Z</time>
      </trkpt>
      <trkpt lat="37.7090340" lon="-4.0072780">
        <ele>601.6</ele>
        <time>2021-12-27T17:14:25Z</time>
      </trkpt>
      <trkpt lat="37.7090560" lon="-4.0073250">
        <ele>601.6</ele>
        <time>2021-12-27T17:14:26Z</time>
      </trkpt>
      <trkpt lat="37.7090750" lon="-4.0073730">
        <ele>601.4</ele>
        <time>2021-12-27T17:14:27Z</time>
      </trkpt>
      <trkpt lat="37.7090940" lon="-4.0074220">
        <ele>601.2</ele>
        <time>2021-12-27T17:14:28Z</time>
      </trkpt>
      <trkpt lat="37.7091140" lon="-4.0074670">
        <ele>601.2</ele>
        <time>2021-12-27T17:14:29Z</time>
      </trkpt>
      <trkpt lat="37.7091330" lon="-4.0075150">
        <ele>601.0</ele>
        <time>2021-12-27T17:14:30Z</time>
      </trkpt>
      <trkpt lat="37.7091580" lon="-4.0075730">
        <ele>600.8</ele>
        <time>2021-12-27T17:14:31Z</time>
      </trkpt>
      <trkpt lat="37.7091740" lon="-4.0076220">
        <ele>600.6</ele>
        <time>2021-12-27T17:14:32Z</time>
      </trkpt>
      <trkpt lat="37.7091940" lon="-4.0076580">
        <ele>600.6</ele>
        <time>2021-12-27T17:14:33Z</time>
      </trkpt>
      <trkpt lat="37.7092130" lon="-4.0077070">
        <ele>600.6</ele>
        <time>2021-12-27T17:14:34Z</time>
      </trkpt>
      <trkpt lat="37.7092350" lon="-4.0077570">
        <ele>600.4</ele>
        <time>2021-12-27T17:14:35Z</time>
      </trkpt>
      <trkpt lat="37.7092580" lon="-4.0078150">
        <ele>600.4</ele>
        <time>2021-12-27T17:14:36Z</time>
      </trkpt>
      <trkpt lat="37.7092770" lon="-4.0078540">
        <ele>600.4</ele>
        <time>2021-12-27T17:14:37Z</time>
      </trkpt>
      <trkpt lat="37.7092930" lon="-4.0079030">
        <ele>600.4</ele>
        <time>2021-12-27T17:14:38Z</time>
      </trkpt>
      <trkpt lat="37.7093090" lon="-4.0079530">
        <ele>600.2</ele>
        <time>2021-12-27T17:14:39Z</time>
      </trkpt>
      <trkpt lat="37.7093280" lon="-4.0080020">
        <ele>600.2</ele>
        <time>2021-12-27T17:14:40Z</time>
      </trkpt>
      <trkpt lat="37.7093470" lon="-4.0080500">
        <ele>600.2</ele>
        <time>2021-12-27T17:14:41Z</time>
      </trkpt>
      <trkpt lat="37.7093660" lon="-4.0080980">
        <ele>600.2</ele>
        <time>2021-12-27T17:14:42Z</time>
      </trkpt>
      <trkpt lat="37.7093890" lon="-4.0081540">
        <ele>600.0</ele>
        <time>2021-12-27T17:14:43Z</time>
      </trkpt>
      <trkpt lat="37.7094050" lon="-4.0081900">
        <ele>600.0</ele>
        <time>2021-12-27T17:14:44Z</time>
      </trkpt>
      <trkpt lat="37.7094270" lon="-4.0082380">
        <ele>600.0</ele>
        <time>2021-12-27T17:14:45Z</time>
      </trkpt>
      <trkpt lat="37.7094430" lon="-4.0082880">
        <ele>600.0</ele>
        <time>2021-12-27T17:14:46Z</time>
      </trkpt>
      <trkpt lat="37.7094620" lon="-4.0083350">
        <ele>600.0</ele>
        <time>2021-12-27T17:14:47Z</time>
      </trkpt>
      <trkpt lat="37.7094850" lon="-4.0083830">
        <ele>599.8</ele>
        <time>2021-12-27T17:14:48Z</time>
      </trkpt>
      <trkpt lat="37.7095040" lon="-4.0084300">
        <ele>599.8</ele>
        <time>2021-12-27T17:14:49Z</time>
      </trkpt>
      <trkpt lat="37.7095260" lon="-4.0084880">
        <ele>599.8</ele>
        <time>2021-12-27T17:14:50Z</time>
      </trkpt>
      <trkpt lat="37.7095420" lon="-4.0085300">
        <ele>599.6</ele>
        <time>2021-12-27T17:14:51Z</time>
      </trkpt>
      <trkpt lat="37.7095550" lon="-4.0085840">
        <ele>599.4</ele>
        <time>2021-12-27T17:14:52Z</time>
      </trkpt>
      <trkpt lat="37.7095810" lon="-4.0086350">
        <ele>599.4</ele>
        <time>2021-12-27T17:14:53Z</time>
      </trkpt>
      <trkpt lat="37.7096000" lon="-4.0086850">
        <ele>599.2</ele>
        <time>2021-12-27T17:14:54Z</time>
      </trkpt>
      <trkpt lat="37.7096260" lon="-4.0087370">
        <ele>599.0</ele>
        <time>2021-12-27T17:14:55Z</time>
      </trkpt>
      <trkpt lat="37.7096450" lon="-4.0087850">
        <ele>598.8</ele>
        <time>2021-12-27T17:14:56Z</time>
      </trkpt>
      <trkpt lat="37.7096670" lon="-4.0088350">
        <ele>598.8</ele>
        <time>2021-12-27T17:14:57Z</time>
      </trkpt>
      <trkpt lat="37.7096860" lon="-4.0088840">
        <ele>598.6</ele>
        <time>2021-12-27T17:14:58Z</time>
      </trkpt>
      <trkpt lat="37.7097090" lon="-4.0089440">
        <ele>598.4</ele>
        <time>2021-12-27T17:14:59Z</time>
      </trkpt>
      <trkpt lat="37.7097280" lon="-4.0089930">
        <ele>598.4</ele>
        <time>2021-12-27T17:15:00Z</time>
      </trkpt>
      <trkpt lat="37.7097470" lon="-4.0090330">
        <ele>598.4</ele>
        <time>2021-12-27T17:15:01Z</time>
      </trkpt>
      <trkpt lat="37.7097660" lon="-4.0090830">
        <ele>598.2</ele>
        <time>2021-12-27T17:15:02Z</time>
      </trkpt>
      <trkpt lat="37.7097890" lon="-4.0091330">
        <ele>598.2</ele>
        <time>2021-12-27T17:15:03Z</time>
      </trkpt>
      <trkpt lat="37.7098140" lon="-4.0091900">
        <ele>598.2</ele>
        <time>2021-12-27T17:15:04Z</time>
      </trkpt>
      <trkpt lat="37.7098340" lon="-4.0092280">
        <ele>598.2</ele>
        <time>2021-12-27T17:15:05Z</time>
      </trkpt>
      <trkpt lat="37.7098530" lon="-4.0092800">
        <ele>598.0</ele>
        <time>2021-12-27T17:15:06Z</time>
      </trkpt>
      <trkpt lat="37.7098720" lon="-4.0093300">
        <ele>598.0</ele>
        <time>2021-12-27T17:15:07Z</time>
      </trkpt>
      <trkpt lat="37.7098980" lon="-4.0093920">
        <ele>597.8</ele>
        <time>2021-12-27T17:15:08Z</time>
      </trkpt>
      <trkpt lat="37.7099140" lon="-4.0094320">
        <ele>597.8</ele>
        <time>2021-12-27T17:15:09Z</time>
      </trkpt>
      <trkpt lat="37.7099330" lon="-4.0094820">
        <ele>597.8</ele>
        <time>2021-12-27T17:15:10Z</time>
      </trkpt>
      <trkpt lat="37.7099580" lon="-4.0095300">
        <ele>597.6</ele>
        <time>2021-12-27T17:15:11Z</time>
      </trkpt>
      <trkpt lat="37.7099780" lon="-4.0095780">
        <ele>597.6</ele>
        <time>2021-12-27T17:15:12Z</time>
      </trkpt>
      <trkpt lat="37.7100030" lon="-4.0096370">
        <ele>597.6</ele>
        <time>2021-12-27T17:15:13Z</time>
      </trkpt>
      <trkpt lat="37.7100190" lon="-4.0096760">
        <ele>597.6</ele>
        <time>2021-12-27T17:15:14Z</time>
      </trkpt>
      <trkpt lat="37.7100380" lon="-4.0097260">
        <ele>597.6</ele>
        <time>2021-12-27T17:15:15Z</time>
      </trkpt>
      <trkpt lat="37.7100580" lon="-4.0097730">
        <ele>597.4</ele>
        <time>2021-12-27T17:15:16Z</time>
      </trkpt>
      <trkpt lat="37.7100770" lon="-4.0098220">
        <ele>597.4</ele>
        <time>2021-12-27T17:15:17Z</time>
      </trkpt>
      <trkpt lat="37.7100960" lon="-4.0098700">
        <ele>597.4</ele>
        <time>2021-12-27T17:15:18Z</time>
      </trkpt>
      <trkpt lat="37.7101120" lon="-4.0099150">
        <ele>597.4</ele>
        <time>2021-12-27T17:15:19Z</time>
      </trkpt>
      <trkpt lat="37.7101310" lon="-4.0099600">
        <ele>597.2</ele>
        <time>2021-12-27T17:15:20Z</time>
      </trkpt>
      <trkpt lat="37.7101500" lon="-4.0100080">
        <ele>597.2</ele>
        <time>2021-12-27T17:15:21Z</time>
      </trkpt>
      <trkpt lat="37.7101660" lon="-4.0100580">
        <ele>597.2</ele>
        <time>2021-12-27T17:15:22Z</time>
      </trkpt>
      <trkpt lat="37.7101860" lon="-4.0101060">
        <ele>597.2</ele>
        <time>2021-12-27T17:15:23Z</time>
      </trkpt>
      <trkpt lat="37.7102020" lon="-4.0101570">
        <ele>597.2</ele>
        <time>2021-12-27T17:15:24Z</time>
      </trkpt>
      <trkpt lat="37.7102180" lon="-4.0102030">
        <ele>597.0</ele>
        <time>2021-12-27T17:15:25Z</time>
      </trkpt>
      <trkpt lat="37.7102370" lon="-4.0102480">
        <ele>597.0</ele>
        <time>2021-12-27T17:15:26Z</time>
      </trkpt>
      <trkpt lat="37.7102590" lon="-4.0102980">
        <ele>596.8</ele>
        <time>2021-12-27T17:15:27Z</time>
      </trkpt>
      <trkpt lat="37.7102780" lon="-4.0103480">
        <ele>596.8</ele>
        <time>2021-12-27T17:15:28Z</time>
      </trkpt>
      <trkpt lat="37.7102940" lon="-4.0103980">
        <ele>596.6</ele>
        <time>2021-12-27T17:15:29Z</time>
      </trkpt>
      <trkpt lat="37.7103100" lon="-4.0104450">
        <ele>596.6</ele>
        <time>2021-12-27T17:15:30Z</time>
      </trkpt>
      <trkpt lat="37.7103260" lon="-4.0105030">
        <ele>596.4</ele>
        <time>2021-12-27T17:15:31Z</time>
      </trkpt>
      <trkpt lat="37.7103390" lon="-4.0105430">
        <ele>596.2</ele>
        <time>2021-12-27T17:15:32Z</time>
      </trkpt>
      <trkpt lat="37.7103550" lon="-4.0105940">
        <ele>596.2</ele>
        <time>2021-12-27T17:15:33Z</time>
      </trkpt>
      <trkpt lat="37.7103680" lon="-4.0106450">
        <ele>596.0</ele>
        <time>2021-12-27T17:15:34Z</time>
      </trkpt>
      <trkpt lat="37.7103840" lon="-4.0106950">
        <ele>596.0</ele>
        <time>2021-12-27T17:15:35Z</time>
      </trkpt>
      <trkpt lat="37.7104030" lon="-4.0107460">
        <ele>595.8</ele>
        <time>2021-12-27T17:15:36Z</time>
      </trkpt>
      <trkpt lat="37.7104190" lon="-4.0108000">
        <ele>595.6</ele>
        <time>2021-12-27T17:15:37Z</time>
      </trkpt>
      <trkpt lat="37.7104350" lon="-4.0108570">
        <ele>595.4</ele>
        <time>2021-12-27T17:15:38Z</time>
      </trkpt>
      <trkpt lat="37.7104480" lon="-4.0109150">
        <ele>595.2</ele>
        <time>2021-12-27T17:15:39Z</time>
      </trkpt>
      <trkpt lat="37.7104610" lon="-4.0109720">
        <ele>595.0</ele>
        <time>2021-12-27T17:15:40Z</time>
      </trkpt>
      <trkpt lat="37.7104740" lon="-4.0110340">
        <ele>595.0</ele>
        <time>2021-12-27T17:15:41Z</time>
      </trkpt>
      <trkpt lat="37.7104860" lon="-4.0110900">
        <ele>594.8</ele>
        <time>2021-12-27T17:15:42Z</time>
      </trkpt>
      <trkpt lat="37.7104990" lon="-4.0111500">
        <ele>594.8</ele>
        <time>2021-12-27T17:15:43Z</time>
      </trkpt>
      <trkpt lat="37.7105090" lon="-4.0112070">
        <ele>594.8</ele>
        <time>2021-12-27T17:15:44Z</time>
      </trkpt>
      <trkpt lat="37.7105220" lon="-4.0112650">
        <ele>594.6</ele>
        <time>2021-12-27T17:15:45Z</time>
      </trkpt>
      <trkpt lat="37.7105340" lon="-4.0113250">
        <ele>594.6</ele>
        <time>2021-12-27T17:15:46Z</time>
      </trkpt>
      <trkpt lat="37.7105440" lon="-4.0113850">
        <ele>594.6</ele>
        <time>2021-12-27T17:15:47Z</time>
      </trkpt>
      <trkpt lat="37.7105540" lon="-4.0114460">
        <ele>594.6</ele>
        <time>2021-12-27T17:15:48Z</time>
      </trkpt>
      <trkpt lat="37.7105600" lon="-4.0115120">
        <ele>594.6</ele>
        <time>2021-12-27T17:15:49Z</time>
      </trkpt>
      <trkpt lat="37.7105660" lon="-4.0115720">
        <ele>594.4</ele>
        <time>2021-12-27T17:15:50Z</time>
      </trkpt>
      <trkpt lat="37.7105760" lon="-4.0116330">
        <ele>594.4</ele>
        <time>2021-12-27T17:15:51Z</time>
      </trkpt>
      <trkpt lat="37.7105820" lon="-4.0116940">
        <ele>594.4</ele>
        <time>2021-12-27T17:15:52Z</time>
      </trkpt>
      <trkpt lat="37.7105860" lon="-4.0117550">
        <ele>594.4</ele>
        <time>2021-12-27T17:15:53Z</time>
      </trkpt>
      <trkpt lat="37.7105860" lon="-4.0118150">
        <ele>594.4</ele>
        <time>2021-12-27T17:15:54Z</time>
      </trkpt>
      <trkpt lat="37.7105950" lon="-4.0118750">
        <ele>594.4</ele>
        <time>2021-12-27T17:15:55Z</time>
      </trkpt>
      <trkpt lat="37.7105980" lon="-4.0119330">
        <ele>594.2</ele>
        <time>2021-12-27T17:15:56Z</time>
      </trkpt>
      <trkpt lat="37.7106020" lon="-4.0119950">
        <ele>594.2</ele>
        <time>2021-12-27T17:15:57Z</time>
      </trkpt>
      <trkpt lat="37.7106020" lon="-4.0120540">
        <ele>594.2</ele>
        <time>2021-12-27T17:15:58Z</time>
      </trkpt>
      <trkpt lat="37.7106020" lon="-4.0121120">
        <ele>594.2</ele>
        <time>2021-12-27T17:15:59Z</time>
      </trkpt>
      <trkpt lat="37.7106050" lon="-4.0121700">
        <ele>594.2</ele>
        <time>2021-12-27T17:16:00Z</time>
      </trkpt>
      <trkpt lat="37.7106080" lon="-4.0122260">
        <ele>594.0</ele>
        <time>2021-12-27T17:16:01Z</time>
      </trkpt>
      <trkpt lat="37.7106080" lon="-4.0122870">
        <ele>594.0</ele>
        <time>2021-12-27T17:16:02Z</time>
      </trkpt>
      <trkpt lat="37.7106080" lon="-4.0123450">
        <ele>594.0</ele>
        <time>2021-12-27T17:16:03Z</time>
      </trkpt>
      <trkpt lat="37.7106050" lon="-4.0124070">
        <ele>594.0</ele>
        <time>2021-12-27T17:16:04Z</time>
      </trkpt>
      <trkpt lat="37.7106050" lon="-4.0124680">
        <ele>594.0</ele>
        <time>2021-12-27T17:16:05Z</time>
      </trkpt>
      <trkpt lat="37.7106050" lon="-4.0125320">
        <ele>594.0</ele>
        <time>2021-12-27T17:16:06Z</time>
      </trkpt>
      <trkpt lat="37.7106020" lon="-4.0125930">
        <ele>594.0</ele>
        <time>2021-12-27T17:16:07Z</time>
      </trkpt>
      <trkpt lat="37.7105980" lon="-4.0126570">
        <ele>594.0</ele>
        <time>2021-12-27T17:16:08Z</time>
      </trkpt>
      <trkpt lat="37.7105950" lon="-4.0127180">
        <ele>594.0</ele>
        <time>2021-12-27T17:16:09Z</time>
      </trkpt>
      <trkpt lat="37.7105860" lon="-4.0127820">
        <ele>593.8</ele>
        <time>2021-12-27T17:16:10Z</time>
      </trkpt>
      <trkpt lat="37.7105790" lon="-4.0128430">
        <ele>593.8</ele>
        <time>2021-12-27T17:16:11Z</time>
      </trkpt>
      <trkpt lat="37.7105760" lon="-4.0129030">
        <ele>593.8</ele>
        <time>2021-12-27T17:16:12Z</time>
      </trkpt>
      <trkpt lat="37.7105660" lon="-4.0129630">
        <ele>593.8</ele>
        <time>2021-12-27T17:16:13Z</time>
      </trkpt>
      <trkpt lat="37.7105600" lon="-4.0130230">
        <ele>593.6</ele>
        <time>2021-12-27T17:16:14Z</time>
      </trkpt>
      <trkpt lat="37.7105540" lon="-4.0130850">
        <ele>593.6</ele>
        <time>2021-12-27T17:16:15Z</time>
      </trkpt>
      <trkpt lat="37.7105410" lon="-4.0131450">
        <ele>593.6</ele>
        <time>2021-12-27T17:16:16Z</time>
      </trkpt>
      <trkpt lat="37.7105340" lon="-4.0132020">
        <ele>593.6</ele>
        <time>2021-12-27T17:16:17Z</time>
      </trkpt>
      <trkpt lat="37.7105220" lon="-4.0132580">
        <ele>593.6</ele>
        <time>2021-12-27T17:16:18Z</time>
      </trkpt>
      <trkpt lat="37.7105060" lon="-4.0133130">
        <ele>593.4</ele>
        <time>2021-12-27T17:16:19Z</time>
      </trkpt>
      <trkpt lat="37.7104960" lon="-4.0133700">
        <ele>593.4</ele>
        <time>2021-12-27T17:16:20Z</time>
      </trkpt>
      <trkpt lat="37.7104800" lon="-4.0134280">
        <ele>593.2</ele>
        <time>2021-12-27T17:16:21Z</time>
      </trkpt>
      <trkpt lat="37.7104740" lon="-4.0134840">
        <ele>593.2</ele>
        <time>2021-12-27T17:16:22Z</time>
      </trkpt>
      <trkpt lat="37.7104610" lon="-4.0135400">
        <ele>593.0</ele>
        <time>2021-12-27T17:16:23Z</time>
      </trkpt>
      <trkpt lat="37.7104480" lon="-4.0135950">
        <ele>593.0</ele>
        <time>2021-12-27T17:16:24Z</time>
      </trkpt>
      <trkpt lat="37.7104290" lon="-4.0136600">
        <ele>592.8</ele>
        <time>2021-12-27T17:16:25Z</time>
      </trkpt>
      <trkpt lat="37.7104160" lon="-4.0137150">
        <ele>592.8</ele>
        <time>2021-12-27T17:16:26Z</time>
      </trkpt>
      <trkpt lat="37.7104030" lon="-4.0137600">
        <ele>592.6</ele>
        <time>2021-12-27T17:16:27Z</time>
      </trkpt>
      <trkpt lat="37.7103870" lon="-4.0138150">
        <ele>592.6</ele>
        <time>2021-12-27T17:16:28Z</time>
      </trkpt>
      <trkpt lat="37.7103740" lon="-4.0138720">
        <ele>592.4</ele>
        <time>2021-12-27T17:16:29Z</time>
      </trkpt>
      <trkpt lat="37.7103550" lon="-4.0139260">
        <ele>592.4</ele>
        <time>2021-12-27T17:16:30Z</time>
      </trkpt>
      <trkpt lat="37.7103360" lon="-4.0139800">
        <ele>592.4</ele>
        <time>2021-12-27T17:16:31Z</time>
      </trkpt>
      <trkpt lat="37.7103170" lon="-4.0140330">
        <ele>592.2</ele>
        <time>2021-12-27T17:16:32Z</time>
      </trkpt>
      <trkpt lat="37.7102980" lon="-4.0140870">
        <ele>592.2</ele>
        <time>2021-12-27T17:16:33Z</time>
      </trkpt>
      <trkpt lat="37.7102750" lon="-4.0141500">
        <ele>592.2</ele>
        <time>2021-12-27T17:16:34Z</time>
      </trkpt>
      <trkpt lat="37.7102560" lon="-4.0141920">
        <ele>592.2</ele>
        <time>2021-12-27T17:16:35Z</time>
      </trkpt>
      <trkpt lat="37.7102300" lon="-4.0142420">
        <ele>592.2</ele>
        <time>2021-12-27T17:16:36Z</time>
      </trkpt>
      <trkpt lat="37.7102180" lon="-4.0142920">
        <ele>592.2</ele>
        <time>2021-12-27T17:16:37Z</time>
      </trkpt>
      <trkpt lat="37.7101980" lon="-4.0143400">
        <ele>592.2</ele>
        <time>2021-12-27T17:16:38Z</time>
      </trkpt>
      <trkpt lat="37.7101790" lon="-4.0143870">
        <ele>592.4</ele>
        <time>2021-12-27T17:16:39Z</time>
      </trkpt>
      <trkpt lat="37.7101570" lon="-4.0144450">
        <ele>592.4</ele>
        <time>2021-12-27T17:16:40Z</time>
      </trkpt>
      <trkpt lat="37.7101380" lon="-4.0144840">
        <ele>592.6</ele>
        <time>2021-12-27T17:16:41Z</time>
      </trkpt>
      <trkpt lat="37.7101120" lon="-4.0145320">
        <ele>592.8</ele>
        <time>2021-12-27T17:16:42Z</time>
      </trkpt>
      <trkpt lat="37.7100860" lon="-4.0145920">
        <ele>592.8</ele>
        <time>2021-12-27T17:16:43Z</time>
      </trkpt>
      <trkpt lat="37.7100610" lon="-4.0146430">
        <ele>593.0</ele>
        <time>2021-12-27T17:16:44Z</time>
      </trkpt>
      <trkpt lat="37.7100420" lon="-4.0146800">
        <ele>593.0</ele>
        <time>2021-12-27T17:16:45Z</time>
      </trkpt>
      <trkpt lat="37.7100100" lon="-4.0147300">
        <ele>593.0</ele>
        <time>2021-12-27T17:16:46Z</time>
      </trkpt>
      <trkpt lat="37.7099840" lon="-4.0147750">
        <ele>593.0</ele>
        <time>2021-12-27T17:16:47Z</time>
      </trkpt>
      <trkpt lat="37.7099490" lon="-4.0148280">
        <ele>593.0</ele>
        <time>2021-12-27T17:16:48Z</time>
      </trkpt>
      <trkpt lat="37.7099230" lon="-4.0148770">
        <ele>593.2</ele>
        <time>2021-12-27T17:16:49Z</time>
      </trkpt>
      <trkpt lat="37.7098980" lon="-4.0149140">
        <ele>593.2</ele>
        <time>2021-12-27T17:16:50Z</time>
      </trkpt>
      <trkpt lat="37.7098690" lon="-4.0149600">
        <ele>593.2</ele>
        <time>2021-12-27T17:16:51Z</time>
      </trkpt>
      <trkpt lat="37.7098400" lon="-4.0150020">
        <ele>593.2</ele>
        <time>2021-12-27T17:16:52Z</time>
      </trkpt>
      <trkpt lat="37.7098080" lon="-4.0150460">
        <ele>593.0</ele>
        <time>2021-12-27T17:16:53Z</time>
      </trkpt>
      <trkpt lat="37.7097820" lon="-4.0150920">
        <ele>593.0</ele>
        <time>2021-12-27T17:16:54Z</time>
      </trkpt>
      <trkpt lat="37.7097500" lon="-4.0151380">
        <ele>593.0</ele>
        <time>2021-12-27T17:16:55Z</time>
      </trkpt>
      <trkpt lat="37.7097250" lon="-4.0151840">
        <ele>592.8</ele>
        <time>2021-12-27T17:16:56Z</time>
      </trkpt>
      <trkpt lat="37.7096860" lon="-4.0152350">
        <ele>592.8</ele>
        <time>2021-12-27T17:16:57Z</time>
      </trkpt>
      <trkpt lat="37.7096510" lon="-4.0152760">
        <ele>592.8</ele>
        <time>2021-12-27T17:16:58Z</time>
      </trkpt>
      <trkpt lat="37.7096290" lon="-4.0153100">
        <ele>592.8</ele>
        <time>2021-12-27T17:16:59Z</time>
      </trkpt>
      <trkpt lat="37.7096000" lon="-4.0153520">
        <ele>592.8</ele>
        <time>2021-12-27T17:17:00Z</time>
      </trkpt>
      <trkpt lat="37.7095650" lon="-4.0153930">
        <ele>592.8</ele>
        <time>2021-12-27T17:17:01Z</time>
      </trkpt>
      <trkpt lat="37.7095300" lon="-4.0154350">
        <ele>592.8</ele>
        <time>2021-12-27T17:17:02Z</time>
      </trkpt>
      <trkpt lat="37.7094940" lon="-4.0154720">
        <ele>592.8</ele>
        <time>2021-12-27T17:17:03Z</time>
      </trkpt>
      <trkpt lat="37.7094560" lon="-4.0155180">
        <ele>592.6</ele>
        <time>2021-12-27T17:17:04Z</time>
      </trkpt>
      <trkpt lat="37.7094240" lon="-4.0155540">
        <ele>592.6</ele>
        <time>2021-12-27T17:17:05Z</time>
      </trkpt>
      <trkpt lat="37.7093860" lon="-4.0155870">
        <ele>592.6</ele>
        <time>2021-12-27T17:17:06Z</time>
      </trkpt>
      <trkpt lat="37.7093540" lon="-4.0156170">
        <ele>592.4</ele>
        <time>2021-12-27T17:17:07Z</time>
      </trkpt>
      <trkpt lat="37.7093120" lon="-4.0156600">
        <ele>592.4</ele>
        <time>2021-12-27T17:17:08Z</time>
      </trkpt>
      <trkpt lat="37.7092770" lon="-4.0156950">
        <ele>592.4</ele>
        <time>2021-12-27T17:17:09Z</time>
      </trkpt>
      <trkpt lat="37.7092510" lon="-4.0157230">
        <ele>592.4</ele>
        <time>2021-12-27T17:17:10Z</time>
      </trkpt>
      <trkpt lat="37.7092130" lon="-4.0157570">
        <ele>592.6</ele>
        <time>2021-12-27T17:17:11Z</time>
      </trkpt>
      <trkpt lat="37.7091680" lon="-4.0157980">
        <ele>592.6</ele>
        <time>2021-12-27T17:17:12Z</time>
      </trkpt>
      <trkpt lat="37.7091360" lon="-4.0158250">
        <ele>592.6</ele>
        <time>2021-12-27T17:17:13Z</time>
      </trkpt>
      <trkpt lat="37.7091040" lon="-4.0158600">
        <ele>592.6</ele>
        <time>2021-12-27T17:17:14Z</time>
      </trkpt>
      <trkpt lat="37.7090660" lon="-4.0158970">
        <ele>592.6</ele>
        <time>2021-12-27T17:17:15Z</time>
      </trkpt>
      <trkpt lat="37.7090140" lon="-4.0159380">
        <ele>592.4</ele>
        <time>2021-12-27T17:17:16Z</time>
      </trkpt>
      <trkpt lat="37.7089860" lon="-4.0159640">
        <ele>592.4</ele>
        <time>2021-12-27T17:17:17Z</time>
      </trkpt>
      <trkpt lat="37.7089500" lon="-4.0159980">
        <ele>592.4</ele>
        <time>2021-12-27T17:17:18Z</time>
      </trkpt>
      <trkpt lat="37.7089090" lon="-4.0160280">
        <ele>592.4</ele>
        <time>2021-12-27T17:17:19Z</time>
      </trkpt>
      <trkpt lat="37.7088610" lon="-4.0160650">
        <ele>592.2</ele>
        <time>2021-12-27T17:17:20Z</time>
      </trkpt>
      <trkpt lat="37.7088190" lon="-4.0160950">
        <ele>592.2</ele>
        <time>2021-12-27T17:17:21Z</time>
      </trkpt>
      <trkpt lat="37.7087810" lon="-4.0161250">
        <ele>592.2</ele>
        <time>2021-12-27T17:17:22Z</time>
      </trkpt>
      <trkpt lat="37.7087460" lon="-4.0161530">
        <ele>592.2</ele>
        <time>2021-12-27T17:17:23Z</time>
      </trkpt>
      <trkpt lat="37.7087010" lon="-4.0161820">
        <ele>592.0</ele>
        <time>2021-12-27T17:17:24Z</time>
      </trkpt>
      <trkpt lat="37.7086620" lon="-4.0162080">
        <ele>592.0</ele>
        <time>2021-12-27T17:17:25Z</time>
      </trkpt>
      <trkpt lat="37.7086210" lon="-4.0162370">
        <ele>591.8</ele>
        <time>2021-12-27T17:17:26Z</time>
      </trkpt>
      <trkpt lat="37.7085820" lon="-4.0162600">
        <ele>591.8</ele>
        <time>2021-12-27T17:17:27Z</time>
      </trkpt>
      <trkpt lat="37.7085410" lon="-4.0162870">
        <ele>591.8</ele>
        <time>2021-12-27T17:17:28Z</time>
      </trkpt>
      <trkpt lat="37.7084900" lon="-4.0163180">
        <ele>591.6</ele>
        <time>2021-12-27T17:17:29Z</time>
      </trkpt>
      <trkpt lat="37.7084420" lon="-4.0163420">
        <ele>591.6</ele>
        <time>2021-12-27T17:17:30Z</time>
      </trkpt>
      <trkpt lat="37.7084000" lon="-4.0163660">
        <ele>591.4</ele>
        <time>2021-12-27T17:17:31Z</time>
      </trkpt>
      <trkpt lat="37.7083550" lon="-4.0163920">
        <ele>591.4</ele>
        <time>2021-12-27T17:17:32Z</time>
      </trkpt>
      <trkpt lat="37.7083200" lon="-4.0164080">
        <ele>591.4</ele>
        <time>2021-12-27T17:17:33Z</time>
      </trkpt>
      <trkpt lat="37.7082720" lon="-4.0164350">
        <ele>591.2</ele>
        <time>2021-12-27T17:17:34Z</time>
      </trkpt>
      <trkpt lat="37.7082240" lon="-4.0164550">
        <ele>591.2</ele>
        <time>2021-12-27T17:17:35Z</time>
      </trkpt>
      <trkpt lat="37.7081920" lon="-4.0164720">
        <ele>591.0</ele>
        <time>2021-12-27T17:17:36Z</time>
      </trkpt>
      <trkpt lat="37.7081340" lon="-4.0164970">
        <ele>591.0</ele>
        <time>2021-12-27T17:17:37Z</time>
      </trkpt>
      <trkpt lat="37.7080930" lon="-4.0165150">
        <ele>590.8</ele>
        <time>2021-12-27T17:17:38Z</time>
      </trkpt>
      <trkpt lat="37.7080450" lon="-4.0165330">
        <ele>590.8</ele>
        <time>2021-12-27T17:17:39Z</time>
      </trkpt>
      <trkpt lat="37.7080000" lon="-4.0165500">
        <ele>590.8</ele>
        <time>2021-12-27T17:17:40Z</time>
      </trkpt>
      <trkpt lat="37.7079580" lon="-4.0165670">
        <ele>590.6</ele>
        <time>2021-12-27T17:17:41Z</time>
      </trkpt>
      <trkpt lat="37.7079200" lon="-4.0165800">
        <ele>590.6</ele>
        <time>2021-12-27T17:17:42Z</time>
      </trkpt>
      <trkpt lat="37.7078750" lon="-4.0165950">
        <ele>590.4</ele>
        <time>2021-12-27T17:17:43Z</time>
      </trkpt>
      <trkpt lat="37.7078140" lon="-4.0166120">
        <ele>590.4</ele>
        <time>2021-12-27T17:17:44Z</time>
      </trkpt>
      <trkpt lat="37.7077660" lon="-4.0166250">
        <ele>590.4</ele>
        <time>2021-12-27T17:17:45Z</time>
      </trkpt>
      <trkpt lat="37.7077220" lon="-4.0166380">
        <ele>590.4</ele>
        <time>2021-12-27T17:17:46Z</time>
      </trkpt>
      <trkpt lat="37.7076770" lon="-4.0166520">
        <ele>590.4</ele>
        <time>2021-12-27T17:17:47Z</time>
      </trkpt>
      <trkpt lat="37.7076290" lon="-4.0166640">
        <ele>590.4</ele>
        <time>2021-12-27T17:17:48Z</time>
      </trkpt>
      <trkpt lat="37.7075840" lon="-4.0166700">
        <ele>590.4</ele>
        <time>2021-12-27T17:17:49Z</time>
      </trkpt>
      <trkpt lat="37.7075390" lon="-4.0166820">
        <ele>590.4</ele>
        <time>2021-12-27T17:17:50Z</time>
      </trkpt>
      <trkpt lat="37.7074940" lon="-4.0166920">
        <ele>590.2</ele>
        <time>2021-12-27T17:17:51Z</time>
      </trkpt>
      <trkpt lat="37.7074430" lon="-4.0166980">
        <ele>590.2</ele>
        <time>2021-12-27T17:17:52Z</time>
      </trkpt>
      <trkpt lat="37.7073980" lon="-4.0167050">
        <ele>590.4</ele>
        <time>2021-12-27T17:17:53Z</time>
      </trkpt>
      <trkpt lat="37.7073470" lon="-4.0167100">
        <ele>590.4</ele>
        <time>2021-12-27T17:17:54Z</time>
      </trkpt>
      <trkpt lat="37.7072990" lon="-4.0167100">
        <ele>590.4</ele>
        <time>2021-12-27T17:17:55Z</time>
      </trkpt>
      <trkpt lat="37.7072450" lon="-4.0167120">
        <ele>590.6</ele>
        <time>2021-12-27T17:17:56Z</time>
      </trkpt>
      <trkpt lat="37.7072000" lon="-4.0167150">
        <ele>590.6</ele>
        <time>2021-12-27T17:17:57Z</time>
      </trkpt>
      <trkpt lat="37.7071620" lon="-4.0167180">
        <ele>590.8</ele>
        <time>2021-12-27T17:17:58Z</time>
      </trkpt>
      <trkpt lat="37.7071010" lon="-4.0167260">
        <ele>590.8</ele>
        <time>2021-12-27T17:17:59Z</time>
      </trkpt>
      <trkpt lat="37.7070500" lon="-4.0167330">
        <ele>591.0</ele>
        <time>2021-12-27T17:18:00Z</time>
      </trkpt>
      <trkpt lat="37.7070020" lon="-4.0167360">
        <ele>591.0</ele>
        <time>2021-12-27T17:18:01Z</time>
      </trkpt>
      <trkpt lat="37.7069500" lon="-4.0167360">
        <ele>591.0</ele>
        <time>2021-12-27T17:18:02Z</time>
      </trkpt>
      <trkpt lat="37.7069020" lon="-4.0167350">
        <ele>591.0</ele>
        <time>2021-12-27T17:18:03Z</time>
      </trkpt>
      <trkpt lat="37.7068510" lon="-4.0167330">
        <ele>591.0</ele>
        <time>2021-12-27T17:18:04Z</time>
      </trkpt>
      <trkpt lat="37.7068000" lon="-4.0167350">
        <ele>591.0</ele>
        <time>2021-12-27T17:18:05Z</time>
      </trkpt>
      <trkpt lat="37.7067490" lon="-4.0167330">
        <ele>591.0</ele>
        <time>2021-12-27T17:18:06Z</time>
      </trkpt>
      <trkpt lat="37.7066940" lon="-4.0167300">
        <ele>591.0</ele>
        <time>2021-12-27T17:18:07Z</time>
      </trkpt>
      <trkpt lat="37.7066460" lon="-4.0167220">
        <ele>591.0</ele>
        <time>2021-12-27T17:18:08Z</time>
      </trkpt>
      <trkpt lat="37.7065950" lon="-4.0167130">
        <ele>591.0</ele>
        <time>2021-12-27T17:18:09Z</time>
      </trkpt>
      <trkpt lat="37.7065470" lon="-4.0167100">
        <ele>591.0</ele>
        <time>2021-12-27T17:18:10Z</time>
      </trkpt>
      <trkpt lat="37.7064930" lon="-4.0167100">
        <ele>591.0</ele>
        <time>2021-12-27T17:18:11Z</time>
      </trkpt>
      <trkpt lat="37.7064450" lon="-4.0167080">
        <ele>590.8</ele>
        <time>2021-12-27T17:18:12Z</time>
      </trkpt>
      <trkpt lat="37.7063940" lon="-4.0167050">
        <ele>590.8</ele>
        <time>2021-12-27T17:18:13Z</time>
      </trkpt>
      <trkpt lat="37.7063460" lon="-4.0167000">
        <ele>590.8</ele>
        <time>2021-12-27T17:18:14Z</time>
      </trkpt>
      <trkpt lat="37.7062910" lon="-4.0166950">
        <ele>590.6</ele>
        <time>2021-12-27T17:18:15Z</time>
      </trkpt>
      <trkpt lat="37.7062430" lon="-4.0166900">
        <ele>590.6</ele>
        <time>2021-12-27T17:18:16Z</time>
      </trkpt>
      <trkpt lat="37.7061920" lon="-4.0166860">
        <ele>590.6</ele>
        <time>2021-12-27T17:18:17Z</time>
      </trkpt>
      <trkpt lat="37.7061470" lon="-4.0166800">
        <ele>590.4</ele>
        <time>2021-12-27T17:18:18Z</time>
      </trkpt>
      <trkpt lat="37.7061090" lon="-4.0166740">
        <ele>590.4</ele>
        <time>2021-12-27T17:18:19Z</time>
      </trkpt>
      <trkpt lat="37.7060510" lon="-4.0166670">
        <ele>590.4</ele>
        <time>2021-12-27T17:18:20Z</time>
      </trkpt>
      <trkpt lat="37.7060100" lon="-4.0166640">
        <ele>590.4</ele>
        <time>2021-12-27T17:18:21Z</time>
      </trkpt>
      <trkpt lat="37.7059520" lon="-4.0166540">
        <ele>590.4</ele>
        <time>2021-12-27T17:18:22Z</time>
      </trkpt>
      <trkpt lat="37.7059140" lon="-4.0166440">
        <ele>590.4</ele>
        <time>2021-12-27T17:18:23Z</time>
      </trkpt>
      <trkpt lat="37.7058500" lon="-4.0166340">
        <ele>590.4</ele>
        <time>2021-12-27T17:18:24Z</time>
      </trkpt>
      <trkpt lat="37.7057950" lon="-4.0166250">
        <ele>590.4</ele>
        <time>2021-12-27T17:18:25Z</time>
      </trkpt>
      <trkpt lat="37.7057470" lon="-4.0166120">
        <ele>590.4</ele>
        <time>2021-12-27T17:18:26Z</time>
      </trkpt>
      <trkpt lat="37.7056960" lon="-4.0166000">
        <ele>590.4</ele>
        <time>2021-12-27T17:18:27Z</time>
      </trkpt>
      <trkpt lat="37.7056480" lon="-4.0165920">
        <ele>590.6</ele>
        <time>2021-12-27T17:18:28Z</time>
      </trkpt>
      <trkpt lat="37.7055970" lon="-4.0165800">
        <ele>590.6</ele>
        <time>2021-12-27T17:18:29Z</time>
      </trkpt>
      <trkpt lat="37.7055520" lon="-4.0165700">
        <ele>590.6</ele>
        <time>2021-12-27T17:18:30Z</time>
      </trkpt>
      <trkpt lat="37.7055010" lon="-4.0165640">
        <ele>590.8</ele>
        <time>2021-12-27T17:18:31Z</time>
      </trkpt>
      <trkpt lat="37.7054620" lon="-4.0165620">
        <ele>590.8</ele>
        <time>2021-12-27T17:18:32Z</time>
      </trkpt>
      <trkpt lat="37.7054050" lon="-4.0165540">
        <ele>591.0</ele>
        <time>2021-12-27T17:18:33Z</time>
      </trkpt>
      <trkpt lat="37.7053570" lon="-4.0165480">
        <ele>591.0</ele>
        <time>2021-12-27T17:18:34Z</time>
      </trkpt>
      <trkpt lat="37.7053120" lon="-4.0165420">
        <ele>591.0</ele>
        <time>2021-12-27T17:18:35Z</time>
      </trkpt>
      <trkpt lat="37.7052640" lon="-4.0165370">
        <ele>591.0</ele>
        <time>2021-12-27T17:18:36Z</time>
      </trkpt>
      <trkpt lat="37.7052190" lon="-4.0165300">
        <ele>590.8</ele>
        <time>2021-12-27T17:18:37Z</time>
      </trkpt>
      <trkpt lat="37.7051740" lon="-4.0165250">
        <ele>590.8</ele>
        <time>2021-12-27T17:18:38Z</time>
      </trkpt>
      <trkpt lat="37.7051260" lon="-4.0165180">
        <ele>590.6</ele>
        <time>2021-12-27T17:18:39Z</time>
      </trkpt>
      <trkpt lat="37.7050940" lon="-4.0165150">
        <ele>590.6</ele>
        <time>2021-12-27T17:18:40Z</time>
      </trkpt>
      <trkpt lat="37.7050430" lon="-4.0165130">
        <ele>590.4</ele>
        <time>2021-12-27T17:18:41Z</time>
      </trkpt>
      <trkpt lat="37.7049890" lon="-4.0165100">
        <ele>590.2</ele>
        <time>2021-12-27T17:18:42Z</time>
      </trkpt>
      <trkpt lat="37.7049470" lon="-4.0165070">
        <ele>590.0</ele>
        <time>2021-12-27T17:18:43Z</time>
      </trkpt>
      <trkpt lat="37.7049020" lon="-4.0165030">
        <ele>589.8</ele>
        <time>2021-12-27T17:18:44Z</time>
      </trkpt>
      <trkpt lat="37.7048640" lon="-4.0164980">
        <ele>589.6</ele>
        <time>2021-12-27T17:18:45Z</time>
      </trkpt>
      <trkpt lat="37.7048290" lon="-4.0164930">
        <ele>589.4</ele>
        <time>2021-12-27T17:18:46Z</time>
      </trkpt>
      <trkpt lat="37.7047780" lon="-4.0164850">
        <ele>589.2</ele>
        <time>2021-12-27T17:18:47Z</time>
      </trkpt>
      <trkpt lat="37.7047300" lon="-4.0164800">
        <ele>589.2</ele>
        <time>2021-12-27T17:18:48Z</time>
      </trkpt>
      <trkpt lat="37.7046880" lon="-4.0164750">
        <ele>589.0</ele>
        <time>2021-12-27T17:18:49Z</time>
      </trkpt>
      <trkpt lat="37.7046460" lon="-4.0164700">
        <ele>589.0</ele>
        <time>2021-12-27T17:18:50Z</time>
      </trkpt>
      <trkpt lat="37.7046050" lon="-4.0164670">
        <ele>588.8</ele>
        <time>2021-12-27T17:18:51Z</time>
      </trkpt>
      <trkpt lat="37.7045600" lon="-4.0164620">
        <ele>588.6</ele>
        <time>2021-12-27T17:18:52Z</time>
      </trkpt>
      <trkpt lat="37.7045250" lon="-4.0164580">
        <ele>588.6</ele>
        <time>2021-12-27T17:18:53Z</time>
      </trkpt>
      <trkpt lat="37.7044770" lon="-4.0164520">
        <ele>588.4</ele>
        <time>2021-12-27T17:18:54Z</time>
      </trkpt>
      <trkpt lat="37.7044420" lon="-4.0164480">
        <ele>588.4</ele>
        <time>2021-12-27T17:18:55Z</time>
      </trkpt>
      <trkpt lat="37.7043870" lon="-4.0164450">
        <ele>588.2</ele>
        <time>2021-12-27T17:18:56Z</time>
      </trkpt>
      <trkpt lat="37.7043420" lon="-4.0164400">
        <ele>588.0</ele>
        <time>2021-12-27T17:18:57Z</time>
      </trkpt>
      <trkpt lat="37.7042980" lon="-4.0164330">
        <ele>588.0</ele>
        <time>2021-12-27T17:18:58Z</time>
      </trkpt>
      <trkpt lat="37.7042500" lon="-4.0164260">
        <ele>587.8</ele>
        <time>2021-12-27T17:18:59Z</time>
      </trkpt>
      <trkpt lat="37.7042050" lon="-4.0164180">
        <ele>587.8</ele>
        <time>2021-12-27T17:19:00Z</time>
      </trkpt>
      <trkpt lat="37.7041600" lon="-4.0164120">
        <ele>587.6</ele>
        <time>2021-12-27T17:19:01Z</time>
      </trkpt>
      <trkpt lat="37.7041220" lon="-4.0164060">
        <ele>587.4</ele>
        <time>2021-12-27T17:19:02Z</time>
      </trkpt>
      <trkpt lat="37.7040740" lon="-4.0164000">
        <ele>587.4</ele>
        <time>2021-12-27T17:19:03Z</time>
      </trkpt>
      <trkpt lat="37.7040290" lon="-4.0163930">
        <ele>587.4</ele>
        <time>2021-12-27T17:19:04Z</time>
      </trkpt>
      <trkpt lat="37.7039710" lon="-4.0163860">
        <ele>587.2</ele>
        <time>2021-12-27T17:19:05Z</time>
      </trkpt>
      <trkpt lat="37.7039230" lon="-4.0163820">
        <ele>587.2</ele>
        <time>2021-12-27T17:19:06Z</time>
      </trkpt>
      <trkpt lat="37.7038720" lon="-4.0163750">
        <ele>587.2</ele>
        <time>2021-12-27T17:19:07Z</time>
      </trkpt>
      <trkpt lat="37.7038240" lon="-4.0163680">
        <ele>587.0</ele>
        <time>2021-12-27T17:19:08Z</time>
      </trkpt>
      <trkpt lat="37.7037730" lon="-4.0163630">
        <ele>587.0</ele>
        <time>2021-12-27T17:19:09Z</time>
      </trkpt>
      <trkpt lat="37.7037250" lon="-4.0163580">
        <ele>586.8</ele>
        <time>2021-12-27T17:19:10Z</time>
      </trkpt>
      <trkpt lat="37.7036860" lon="-4.0163530">
        <ele>586.6</ele>
        <time>2021-12-27T17:19:11Z</time>
      </trkpt>
      <trkpt lat="37.7036350" lon="-4.0163480">
        <ele>586.4</ele>
        <time>2021-12-27T17:19:12Z</time>
      </trkpt>
      <trkpt lat="37.7035840" lon="-4.0163420">
        <ele>586.4</ele>
        <time>2021-12-27T17:19:13Z</time>
      </trkpt>
      <trkpt lat="37.7035230" lon="-4.0163330">
        <ele>586.2</ele>
        <time>2021-12-27T17:19:14Z</time>
      </trkpt>
      <trkpt lat="37.7034750" lon="-4.0163300">
        <ele>586.2</ele>
        <time>2021-12-27T17:19:15Z</time>
      </trkpt>
      <trkpt lat="37.7034270" lon="-4.0163220">
        <ele>586.2</ele>
        <time>2021-12-27T17:19:16Z</time>
      </trkpt>
      <trkpt lat="37.7033790" lon="-4.0163140">
        <ele>586.0</ele>
        <time>2021-12-27T17:19:17Z</time>
      </trkpt>
      <trkpt lat="37.7033340" lon="-4.0163070">
        <ele>586.0</ele>
        <time>2021-12-27T17:19:18Z</time>
      </trkpt>
      <trkpt lat="37.7032860" lon="-4.0163000">
        <ele>586.0</ele>
        <time>2021-12-27T17:19:19Z</time>
      </trkpt>
      <trkpt lat="37.7032350" lon="-4.0162950">
        <ele>585.8</ele>
        <time>2021-12-27T17:19:20Z</time>
      </trkpt>
      <trkpt lat="37.7031900" lon="-4.0162900">
        <ele>585.8</ele>
        <time>2021-12-27T17:19:21Z</time>
      </trkpt>
      <trkpt lat="37.7031490" lon="-4.0162840">
        <ele>585.6</ele>
        <time>2021-12-27T17:19:22Z</time>
      </trkpt>
      <trkpt lat="37.7030980" lon="-4.0162770">
        <ele>585.6</ele>
        <time>2021-12-27T17:19:23Z</time>
      </trkpt>
      <trkpt lat="37.7030400" lon="-4.0162700">
        <ele>585.4</ele>
        <time>2021-12-27T17:19:24Z</time>
      </trkpt>
      <trkpt lat="37.7029920" lon="-4.0162640">
        <ele>585.2</ele>
        <time>2021-12-27T17:19:25Z</time>
      </trkpt>
      <trkpt lat="37.7029380" lon="-4.0162570">
        <ele>585.2</ele>
        <time>2021-12-27T17:19:26Z</time>
      </trkpt>
      <trkpt lat="37.7028900" lon="-4.0162520">
        <ele>585.0</ele>
        <time>2021-12-27T17:19:27Z</time>
      </trkpt>
      <trkpt lat="37.7028350" lon="-4.0162470">
        <ele>585.0</ele>
        <time>2021-12-27T17:19:28Z</time>
      </trkpt>
      <trkpt lat="37.7027840" lon="-4.0162370">
        <ele>584.8</ele>
        <time>2021-12-27T17:19:29Z</time>
      </trkpt>
      <trkpt lat="37.7027360" lon="-4.0162300">
        <ele>584.8</ele>
        <time>2021-12-27T17:19:30Z</time>
      </trkpt>
      <trkpt lat="37.7026850" lon="-4.0162250">
        <ele>584.6</ele>
        <time>2021-12-27T17:19:31Z</time>
      </trkpt>
      <trkpt lat="37.7026400" lon="-4.0162250">
        <ele>584.6</ele>
        <time>2021-12-27T17:19:32Z</time>
      </trkpt>
      <trkpt lat="37.7025950" lon="-4.0162220">
        <ele>584.4</ele>
        <time>2021-12-27T17:19:33Z</time>
      </trkpt>
      <trkpt lat="37.7025440" lon="-4.0162170">
        <ele>584.4</ele>
        <time>2021-12-27T17:19:34Z</time>
      </trkpt>
      <trkpt lat="37.7024990" lon="-4.0162100">
        <ele>584.2</ele>
        <time>2021-12-27T17:19:35Z</time>
      </trkpt>
      <trkpt lat="37.7024510" lon="-4.0162050">
        <ele>584.2</ele>
        <time>2021-12-27T17:19:36Z</time>
      </trkpt>
      <trkpt lat="37.7024000" lon="-4.0162000">
        <ele>584.0</ele>
        <time>2021-12-27T17:19:37Z</time>
      </trkpt>
      <trkpt lat="37.7023550" lon="-4.0161920">
        <ele>584.0</ele>
        <time>2021-12-27T17:19:38Z</time>
      </trkpt>
      <trkpt lat="37.7023070" lon="-4.0161830">
        <ele>583.8</ele>
        <time>2021-12-27T17:19:39Z</time>
      </trkpt>
      <trkpt lat="37.7022620" lon="-4.0161770">
        <ele>583.8</ele>
        <time>2021-12-27T17:19:40Z</time>
      </trkpt>
      <trkpt lat="37.7022240" lon="-4.0161720">
        <ele>583.8</ele>
        <time>2021-12-27T17:19:41Z</time>
      </trkpt>
      <trkpt lat="37.7021660" lon="-4.0161630">
        <ele>583.6</ele>
        <time>2021-12-27T17:19:42Z</time>
      </trkpt>
      <trkpt lat="37.7021220" lon="-4.0161580">
        <ele>583.6</ele>
        <time>2021-12-27T17:19:43Z</time>
      </trkpt>
      <trkpt lat="37.7020740" lon="-4.0161530">
        <ele>583.6</ele>
        <time>2021-12-27T17:19:44Z</time>
      </trkpt>
      <trkpt lat="37.7020260" lon="-4.0161480">
        <ele>583.4</ele>
        <time>2021-12-27T17:19:45Z</time>
      </trkpt>
      <trkpt lat="37.7019810" lon="-4.0161420">
        <ele>583.4</ele>
        <time>2021-12-27T17:19:46Z</time>
      </trkpt>
      <trkpt lat="37.7019360" lon="-4.0161370">
        <ele>583.2</ele>
        <time>2021-12-27T17:19:47Z</time>
      </trkpt>
      <trkpt lat="37.7018880" lon="-4.0161320">
        <ele>583.0</ele>
        <time>2021-12-27T17:19:48Z</time>
      </trkpt>
      <trkpt lat="37.7018430" lon="-4.0161270">
        <ele>583.0</ele>
        <time>2021-12-27T17:19:49Z</time>
      </trkpt>
      <trkpt lat="37.7018050" lon="-4.0161220">
        <ele>582.8</ele>
        <time>2021-12-27T17:19:50Z</time>
      </trkpt>
      <trkpt lat="37.7017500" lon="-4.0161150">
        <ele>582.8</ele>
        <time>2021-12-27T17:19:51Z</time>
      </trkpt>
      <trkpt lat="37.7017090" lon="-4.0161100">
        <ele>582.8</ele>
        <time>2021-12-27T17:19:52Z</time>
      </trkpt>
      <trkpt lat="37.7016640" lon="-4.0161050">
        <ele>582.6</ele>
        <time>2021-12-27T17:19:53Z</time>
      </trkpt>
      <trkpt lat="37.7016190" lon="-4.0161000">
        <ele>582.6</ele>
        <time>2021-12-27T17:19:54Z</time>
      </trkpt>
      <trkpt lat="37.7015780" lon="-4.0160930">
        <ele>582.6</ele>
        <time>2021-12-27T17:19:55Z</time>
      </trkpt>
      <trkpt lat="37.7015300" lon="-4.0160900">
        <ele>582.4</ele>
        <time>2021-12-27T17:19:56Z</time>
      </trkpt>
      <trkpt lat="37.7014850" lon="-4.0160850">
        <ele>582.4</ele>
        <time>2021-12-27T17:19:57Z</time>
      </trkpt>
      <trkpt lat="37.7014430" lon="-4.0160820">
        <ele>582.2</ele>
        <time>2021-12-27T17:19:58Z</time>
      </trkpt>
      <trkpt lat="37.7014050" lon="-4.0160760">
        <ele>582.0</ele>
        <time>2021-12-27T17:19:59Z</time>
      </trkpt>
      <trkpt lat="37.7013250" lon="-4.0160640">
        <ele>582.0</ele>
        <time>2021-12-27T17:20:00Z</time>
      </trkpt>
      <trkpt lat="37.7013020" lon="-4.0160600">
        <ele>581.8</ele>
        <time>2021-12-27T17:20:01Z</time>
      </trkpt>
      <trkpt lat="37.7012610" lon="-4.0160500">
        <ele>581.8</ele>
        <time>2021-12-27T17:20:02Z</time>
      </trkpt>
      <trkpt lat="37.7012190" lon="-4.0160420">
        <ele>581.6</ele>
        <time>2021-12-27T17:20:03Z</time>
      </trkpt>
      <trkpt lat="37.7011710" lon="-4.0160360">
        <ele>581.6</ele>
        <time>2021-12-27T17:20:04Z</time>
      </trkpt>
      <trkpt lat="37.7011260" lon="-4.0160280">
        <ele>581.4</ele>
        <time>2021-12-27T17:20:05Z</time>
      </trkpt>
      <trkpt lat="37.7010910" lon="-4.0160200">
        <ele>581.4</ele>
        <time>2021-12-27T17:20:06Z</time>
      </trkpt>
      <trkpt lat="37.7010370" lon="-4.0160100">
        <ele>581.4</ele>
        <time>2021-12-27T17:20:07Z</time>
      </trkpt>
      <trkpt lat="37.7009950" lon="-4.0160000">
        <ele>581.2</ele>
        <time>2021-12-27T17:20:08Z</time>
      </trkpt>
      <trkpt lat="37.7009470" lon="-4.0159900">
        <ele>581.2</ele>
        <time>2021-12-27T17:20:09Z</time>
      </trkpt>
      <trkpt lat="37.7009060" lon="-4.0159770">
        <ele>581.0</ele>
        <time>2021-12-27T17:20:10Z</time>
      </trkpt>
      <trkpt lat="37.7008700" lon="-4.0159670">
        <ele>581.0</ele>
        <time>2021-12-27T17:20:11Z</time>
      </trkpt>
      <trkpt lat="37.7008220" lon="-4.0159500">
        <ele>580.8</ele>
        <time>2021-12-27T17:20:12Z</time>
      </trkpt>
      <trkpt lat="37.7007870" lon="-4.0159420">
        <ele>580.8</ele>
        <time>2021-12-27T17:20:13Z</time>
      </trkpt>
      <trkpt lat="37.7007330" lon="-4.0159250">
        <ele>580.6</ele>
        <time>2021-12-27T17:20:14Z</time>
      </trkpt>
      <trkpt lat="37.7006910" lon="-4.0159080">
        <ele>580.6</ele>
        <time>2021-12-27T17:20:15Z</time>
      </trkpt>
      <trkpt lat="37.7006500" lon="-4.0158920">
        <ele>580.4</ele>
        <time>2021-12-27T17:20:16Z</time>
      </trkpt>
      <trkpt lat="37.7006110" lon="-4.0158780">
        <ele>580.4</ele>
        <time>2021-12-27T17:20:17Z</time>
      </trkpt>
      <trkpt lat="37.7005700" lon="-4.0158640">
        <ele>580.2</ele>
        <time>2021-12-27T17:20:18Z</time>
      </trkpt>
      <trkpt lat="37.7005280" lon="-4.0158480">
        <ele>580.2</ele>
        <time>2021-12-27T17:20:19Z</time>
      </trkpt>
      <trkpt lat="37.7004860" lon="-4.0158320">
        <ele>580.2</ele>
        <time>2021-12-27T17:20:20Z</time>
      </trkpt>
      <trkpt lat="37.7004450" lon="-4.0158150">
        <ele>580.0</ele>
        <time>2021-12-27T17:20:21Z</time>
      </trkpt>
      <trkpt lat="37.7003970" lon="-4.0157970">
        <ele>580.0</ele>
        <time>2021-12-27T17:20:22Z</time>
      </trkpt>
      <trkpt lat="37.7003520" lon="-4.0157730">
        <ele>580.0</ele>
        <time>2021-12-27T17:20:23Z</time>
      </trkpt>
      <trkpt lat="37.7003100" lon="-4.0157520">
        <ele>580.0</ele>
        <time>2021-12-27T17:20:24Z</time>
      </trkpt>
      <trkpt lat="37.7002750" lon="-4.0157350">
        <ele>579.8</ele>
        <time>2021-12-27T17:20:25Z</time>
      </trkpt>
      <trkpt lat="37.7002270" lon="-4.0157100">
        <ele>579.6</ele>
        <time>2021-12-27T17:20:26Z</time>
      </trkpt>
      <trkpt lat="37.7001920" lon="-4.0156920">
        <ele>579.6</ele>
        <time>2021-12-27T17:20:27Z</time>
      </trkpt>
      <trkpt lat="37.7001410" lon="-4.0156660">
        <ele>579.4</ele>
        <time>2021-12-27T17:20:28Z</time>
      </trkpt>
      <trkpt lat="37.7000990" lon="-4.0156400">
        <ele>579.2</ele>
        <time>2021-12-27T17:20:29Z</time>
      </trkpt>
      <trkpt lat="37.7000580" lon="-4.0156140">
        <ele>579.0</ele>
        <time>2021-12-27T17:20:30Z</time>
      </trkpt>
      <trkpt lat="37.7000160" lon="-4.0155850">
        <ele>578.8</ele>
        <time>2021-12-27T17:20:31Z</time>
      </trkpt>
      <trkpt lat="37.6999810" lon="-4.0155600">
        <ele>578.6</ele>
        <time>2021-12-27T17:20:32Z</time>
      </trkpt>
      <trkpt lat="37.6999330" lon="-4.0155250">
        <ele>578.6</ele>
        <time>2021-12-27T17:20:33Z</time>
      </trkpt>
      <trkpt lat="37.6998910" lon="-4.0154980">
        <ele>578.6</ele>
        <time>2021-12-27T17:20:34Z</time>
      </trkpt>
      <trkpt lat="37.6998430" lon="-4.0154720">
        <ele>578.6</ele>
        <time>2021-12-27T17:20:35Z</time>
      </trkpt>
      <trkpt lat="37.6998110" lon="-4.0154470">
        <ele>578.6</ele>
        <time>2021-12-27T17:20:36Z</time>
      </trkpt>
      <trkpt lat="37.6997600" lon="-4.0154100">
        <ele>578.4</ele>
        <time>2021-12-27T17:20:37Z</time>
      </trkpt>
      <trkpt lat="37.6997180" lon="-4.0153780">
        <ele>578.4</ele>
        <time>2021-12-27T17:20:38Z</time>
      </trkpt>
      <trkpt lat="37.6996770" lon="-4.0153460">
        <ele>578.4</ele>
        <time>2021-12-27T17:20:39Z</time>
      </trkpt>
      <trkpt lat="37.6996350" lon="-4.0153160">
        <ele>578.2</ele>
        <time>2021-12-27T17:20:40Z</time>
      </trkpt>
      <trkpt lat="37.6996030" lon="-4.0152880">
        <ele>578.2</ele>
        <time>2021-12-27T17:20:41Z</time>
      </trkpt>
      <trkpt lat="37.6995550" lon="-4.0152470">
        <ele>578.0</ele>
        <time>2021-12-27T17:20:42Z</time>
      </trkpt>
      <trkpt lat="37.6995140" lon="-4.0152080">
        <ele>578.0</ele>
        <time>2021-12-27T17:20:43Z</time>
      </trkpt>
      <trkpt lat="37.6994660" lon="-4.0151670">
        <ele>577.8</ele>
        <time>2021-12-27T17:20:44Z</time>
      </trkpt>
      <trkpt lat="37.6994240" lon="-4.0151250">
        <ele>577.8</ele>
        <time>2021-12-27T17:20:45Z</time>
      </trkpt>
      <trkpt lat="37.6993820" lon="-4.0150850">
        <ele>577.8</ele>
        <time>2021-12-27T17:20:46Z</time>
      </trkpt>
      <trkpt lat="37.6993440" lon="-4.0150430">
        <ele>577.6</ele>
        <time>2021-12-27T17:20:47Z</time>
      </trkpt>
      <trkpt lat="37.6993020" lon="-4.0150020">
        <ele>577.6</ele>
        <time>2021-12-27T17:20:48Z</time>
      </trkpt>
      <trkpt lat="37.6992580" lon="-4.0149600">
        <ele>577.4</ele>
        <time>2021-12-27T17:20:49Z</time>
      </trkpt>
      <trkpt lat="37.6992160" lon="-4.0149140">
        <ele>577.2</ele>
        <time>2021-12-27T17:20:50Z</time>
      </trkpt>
      <trkpt lat="37.6991780" lon="-4.0148650">
        <ele>577.2</ele>
        <time>2021-12-27T17:20:51Z</time>
      </trkpt>
      <trkpt lat="37.6991360" lon="-4.0148180">
        <ele>577.0</ele>
        <time>2021-12-27T17:20:52Z</time>
      </trkpt>
      <trkpt lat="37.6990980" lon="-4.0147720">
        <ele>577.0</ele>
        <time>2021-12-27T17:20:53Z</time>
      </trkpt>
      <trkpt lat="37.6990590" lon="-4.0147250">
        <ele>577.0</ele>
        <time>2021-12-27T17:20:54Z</time>
      </trkpt>
      <trkpt lat="37.6990210" lon="-4.0146800">
        <ele>576.8</ele>
        <time>2021-12-27T17:20:55Z</time>
      </trkpt>
      <trkpt lat="37.6989820" lon="-4.0146350">
        <ele>576.8</ele>
        <time>2021-12-27T17:20:56Z</time>
      </trkpt>
      <trkpt lat="37.6989410" lon="-4.0145900">
        <ele>576.8</ele>
        <time>2021-12-27T17:20:57Z</time>
      </trkpt>
      <trkpt lat="37.6989020" lon="-4.0145450">
        <ele>576.6</ele>
        <time>2021-12-27T17:20:58Z</time>
      </trkpt>
      <trkpt lat="37.6988670" lon="-4.0144980">
        <ele>576.6</ele>
        <time>2021-12-27T17:20:59Z</time>
      </trkpt>
      <trkpt lat="37.6988290" lon="-4.0144520">
        <ele>576.6</ele>
        <time>2021-12-27T17:21:00Z</time>
      </trkpt>
      <trkpt lat="37.6987870" lon="-4.0144080">
        <ele>576.6</ele>
        <time>2021-12-27T17:21:01Z</time>
      </trkpt>
      <trkpt lat="37.6987520" lon="-4.0143630">
        <ele>576.6</ele>
        <time>2021-12-27T17:21:02Z</time>
      </trkpt>
      <trkpt lat="37.6987170" lon="-4.0143180">
        <ele>576.6</ele>
        <time>2021-12-27T17:21:03Z</time>
      </trkpt>
      <trkpt lat="37.6986720" lon="-4.0142750">
        <ele>576.6</ele>
        <time>2021-12-27T17:21:04Z</time>
      </trkpt>
      <trkpt lat="37.6986340" lon="-4.0142300">
        <ele>576.6</ele>
        <time>2021-12-27T17:21:05Z</time>
      </trkpt>
      <trkpt lat="37.6986020" lon="-4.0141870">
        <ele>576.6</ele>
        <time>2021-12-27T17:21:06Z</time>
      </trkpt>
      <trkpt lat="37.6985630" lon="-4.0141450">
        <ele>576.6</ele>
        <time>2021-12-27T17:21:07Z</time>
      </trkpt>
      <trkpt lat="37.6985280" lon="-4.0141000">
        <ele>576.4</ele>
        <time>2021-12-27T17:21:08Z</time>
      </trkpt>
      <trkpt lat="37.6984900" lon="-4.0140580">
        <ele>576.4</ele>
        <time>2021-12-27T17:21:09Z</time>
      </trkpt>
      <trkpt lat="37.6984510" lon="-4.0140150">
        <ele>576.4</ele>
        <time>2021-12-27T17:21:10Z</time>
      </trkpt>
      <trkpt lat="37.6984190" lon="-4.0139720">
        <ele>576.4</ele>
        <time>2021-12-27T17:21:11Z</time>
      </trkpt>
      <trkpt lat="37.6983840" lon="-4.0139320">
        <ele>576.2</ele>
        <time>2021-12-27T17:21:12Z</time>
      </trkpt>
      <trkpt lat="37.6983490" lon="-4.0139030">
        <ele>576.2</ele>
        <time>2021-12-27T17:21:13Z</time>
      </trkpt>
      <trkpt lat="37.6983070" lon="-4.0138580">
        <ele>576.2</ele>
        <time>2021-12-27T17:21:14Z</time>
      </trkpt>
      <trkpt lat="37.6982720" lon="-4.0138200">
        <ele>576.0</ele>
        <time>2021-12-27T17:21:15Z</time>
      </trkpt>
      <trkpt lat="37.6982370" lon="-4.0137800">
        <ele>575.8</ele>
        <time>2021-12-27T17:21:16Z</time>
      </trkpt>
      <trkpt lat="37.6982020" lon="-4.0137420">
        <ele>575.8</ele>
        <time>2021-12-27T17:21:17Z</time>
      </trkpt>
      <trkpt lat="37.6981730" lon="-4.0137100">
        <ele>575.6</ele>
        <time>2021-12-27T17:21:18Z</time>
      </trkpt>
      <trkpt lat="37.6981280" lon="-4.0136650">
        <ele>575.4</ele>
        <time>2021-12-27T17:21:19Z</time>
      </trkpt>
      <trkpt lat="37.6980930" lon="-4.0136250">
        <ele>575.4</ele>
        <time>2021-12-27T17:21:20Z</time>
      </trkpt>
      <trkpt lat="37.6980580" lon="-4.0135860">
        <ele>575.4</ele>
        <time>2021-12-27T17:21:21Z</time>
      </trkpt>
      <trkpt lat="37.6980290" lon="-4.0135460">
        <ele>575.2</ele>
        <time>2021-12-27T17:21:22Z</time>
      </trkpt>
      <trkpt lat="37.6979940" lon="-4.0135070">
        <ele>575.2</ele>
        <time>2021-12-27T17:21:23Z</time>
      </trkpt>
      <trkpt lat="37.6979580" lon="-4.0134680">
        <ele>575.0</ele>
        <time>2021-12-27T17:21:24Z</time>
      </trkpt>
      <trkpt lat="37.6979330" lon="-4.0134370">
        <ele>575.0</ele>
        <time>2021-12-27T17:21:25Z</time>
      </trkpt>
      <trkpt lat="37.6978940" lon="-4.0133900">
        <ele>574.8</ele>
        <time>2021-12-27T17:21:26Z</time>
      </trkpt>
      <trkpt lat="37.6978690" lon="-4.0133600">
        <ele>574.8</ele>
        <time>2021-12-27T17:21:27Z</time>
      </trkpt>
      <trkpt lat="37.6978270" lon="-4.0133200">
        <ele>574.6</ele>
        <time>2021-12-27T17:21:28Z</time>
      </trkpt>
      <trkpt lat="37.6977950" lon="-4.0132830">
        <ele>574.6</ele>
        <time>2021-12-27T17:21:29Z</time>
      </trkpt>
      <trkpt lat="37.6977600" lon="-4.0132500">
        <ele>574.4</ele>
        <time>2021-12-27T17:21:30Z</time>
      </trkpt>
      <trkpt lat="37.6977380" lon="-4.0132230">
        <ele>574.4</ele>
        <time>2021-12-27T17:21:31Z</time>
      </trkpt>
      <trkpt lat="37.6977060" lon="-4.0131900">
        <ele>574.4</ele>
        <time>2021-12-27T17:21:32Z</time>
      </trkpt>
      <trkpt lat="37.6976670" lon="-4.0131450">
        <ele>574.4</ele>
        <time>2021-12-27T17:21:33Z</time>
      </trkpt>
      <trkpt lat="37.6976320" lon="-4.0131100">
        <ele>574.4</ele>
        <time>2021-12-27T17:21:34Z</time>
      </trkpt>
      <trkpt lat="37.6976000" lon="-4.0130740">
        <ele>574.4</ele>
        <time>2021-12-27T17:21:35Z</time>
      </trkpt>
      <trkpt lat="37.6975710" lon="-4.0130380">
        <ele>574.2</ele>
        <time>2021-12-27T17:21:36Z</time>
      </trkpt>
      <trkpt lat="37.6975390" lon="-4.0130070">
        <ele>574.2</ele>
        <time>2021-12-27T17:21:37Z</time>
      </trkpt>
      <trkpt lat="37.6975100" lon="-4.0129780">
        <ele>574.2</ele>
        <time>2021-12-27T17:21:38Z</time>
      </trkpt>
      <trkpt lat="37.6974820" lon="-4.0129520">
        <ele>574.2</ele>
        <time>2021-12-27T17:21:39Z</time>
      </trkpt>
      <trkpt lat="37.6974560" lon="-4.0129200">
        <ele>574.0</ele>
        <time>2021-12-27T17:21:40Z</time>
      </trkpt>
      <trkpt lat="37.6974300" lon="-4.0128920">
        <ele>573.8</ele>
        <time>2021-12-27T17:21:41Z</time>
      </trkpt>
      <trkpt lat="37.6974080" lon="-4.0128650">
        <ele>573.8</ele>
        <time>2021-12-27T17:21:42Z</time>
      </trkpt>
      <trkpt lat="37.6973790" lon="-4.0128380">
        <ele>573.6</ele>
        <time>2021-12-27T17:21:43Z</time>
      </trkpt>
      <trkpt lat="37.6973540" lon="-4.0128080">
        <ele>573.6</ele>
        <time>2021-12-27T17:21:44Z</time>
      </trkpt>
      <trkpt lat="37.6973280" lon="-4.0127820">
        <ele>573.6</ele>
        <time>2021-12-27T17:21:45Z</time>
      </trkpt>
      <trkpt lat="37.6973090" lon="-4.0127570">
        <ele>573.6</ele>
        <time>2021-12-27T17:21:46Z</time>
      </trkpt>
      <trkpt lat="37.6972770" lon="-4.0127270">
        <ele>573.8</ele>
        <time>2021-12-27T17:21:47Z</time>
      </trkpt>
      <trkpt lat="37.6972510" lon="-4.0127020">
        <ele>573.8</ele>
        <time>2021-12-27T17:21:48Z</time>
      </trkpt>
      <trkpt lat="37.6972290" lon="-4.0126720">
        <ele>573.8</ele>
        <time>2021-12-27T17:21:49Z</time>
      </trkpt>
      <trkpt lat="37.6972030" lon="-4.0126470">
        <ele>573.8</ele>
        <time>2021-12-27T17:21:50Z</time>
      </trkpt>
      <trkpt lat="37.6971740" lon="-4.0126080">
        <ele>573.8</ele>
        <time>2021-12-27T17:21:51Z</time>
      </trkpt>
      <trkpt lat="37.6971520" lon="-4.0125830">
        <ele>573.8</ele>
        <time>2021-12-27T17:21:52Z</time>
      </trkpt>
      <trkpt lat="37.6971170" lon="-4.0125500">
        <ele>573.6</ele>
        <time>2021-12-27T17:21:53Z</time>
      </trkpt>
      <trkpt lat="37.6970910" lon="-4.0125180">
        <ele>573.6</ele>
        <time>2021-12-27T17:21:54Z</time>
      </trkpt>
      <trkpt lat="37.6970620" lon="-4.0124850">
        <ele>573.6</ele>
        <time>2021-12-27T17:21:55Z</time>
      </trkpt>
      <trkpt lat="37.6970400" lon="-4.0124600">
        <ele>573.6</ele>
        <time>2021-12-27T17:21:56Z</time>
      </trkpt>
      <trkpt lat="37.6970110" lon="-4.0124320">
        <ele>573.4</ele>
        <time>2021-12-27T17:21:57Z</time>
      </trkpt>
      <trkpt lat="37.6969820" lon="-4.0123980">
        <ele>573.6</ele>
        <time>2021-12-27T17:21:58Z</time>
      </trkpt>
      <trkpt lat="37.6969570" lon="-4.0123650">
        <ele>573.4</ele>
        <time>2021-12-27T17:21:59Z</time>
      </trkpt>
      <trkpt lat="37.6969250" lon="-4.0123320">
        <ele>573.4</ele>
        <time>2021-12-27T17:22:00Z</time>
      </trkpt>
      <trkpt lat="37.6968960" lon="-4.0122970">
        <ele>573.4</ele>
        <time>2021-12-27T17:22:01Z</time>
      </trkpt>
      <trkpt lat="37.6968740" lon="-4.0122680">
        <ele>573.4</ele>
        <time>2021-12-27T17:22:02Z</time>
      </trkpt>
      <trkpt lat="37.6968380" lon="-4.0122300">
        <ele>573.2</ele>
        <time>2021-12-27T17:22:03Z</time>
      </trkpt>
      <trkpt lat="37.6968160" lon="-4.0122050">
        <ele>573.2</ele>
        <time>2021-12-27T17:22:04Z</time>
      </trkpt>
      <trkpt lat="37.6967810" lon="-4.0121650">
        <ele>573.2</ele>
        <time>2021-12-27T17:22:05Z</time>
      </trkpt>
      <trkpt lat="37.6967520" lon="-4.0121280">
        <ele>573.2</ele>
        <time>2021-12-27T17:22:06Z</time>
      </trkpt>
      <trkpt lat="37.6967230" lon="-4.0120900">
        <ele>573.2</ele>
        <time>2021-12-27T17:22:07Z</time>
      </trkpt>
      <trkpt lat="37.6966940" lon="-4.0120570">
        <ele>573.2</ele>
        <time>2021-12-27T17:22:08Z</time>
      </trkpt>
      <trkpt lat="37.6966660" lon="-4.0120270">
        <ele>573.2</ele>
        <time>2021-12-27T17:22:09Z</time>
      </trkpt>
      <trkpt lat="37.6966400" lon="-4.0119950">
        <ele>573.2</ele>
        <time>2021-12-27T17:22:10Z</time>
      </trkpt>
      <trkpt lat="37.6966140" lon="-4.0119620">
        <ele>573.2</ele>
        <time>2021-12-27T17:22:11Z</time>
      </trkpt>
      <trkpt lat="37.6965860" lon="-4.0119280">
        <ele>573.0</ele>
        <time>2021-12-27T17:22:12Z</time>
      </trkpt>
      <trkpt lat="37.6965600" lon="-4.0118970">
        <ele>573.0</ele>
        <time>2021-12-27T17:22:13Z</time>
      </trkpt>
      <trkpt lat="37.6965340" lon="-4.0118650">
        <ele>572.8</ele>
        <time>2021-12-27T17:22:14Z</time>
      </trkpt>
      <trkpt lat="37.6965060" lon="-4.0118350">
        <ele>572.8</ele>
        <time>2021-12-27T17:22:15Z</time>
      </trkpt>
      <trkpt lat="37.6964800" lon="-4.0118050">
        <ele>572.8</ele>
        <time>2021-12-27T17:22:16Z</time>
      </trkpt>
      <trkpt lat="37.6964610" lon="-4.0117760">
        <ele>572.8</ele>
        <time>2021-12-27T17:22:17Z</time>
      </trkpt>
      <trkpt lat="37.6964420" lon="-4.0117520">
        <ele>572.6</ele>
        <time>2021-12-27T17:22:18Z</time>
      </trkpt>
      <trkpt lat="37.6964160" lon="-4.0117220">
        <ele>572.6</ele>
        <time>2021-12-27T17:22:19Z</time>
      </trkpt>
      <trkpt lat="37.6963940" lon="-4.0117020">
        <ele>572.6</ele>
        <time>2021-12-27T17:22:20Z</time>
      </trkpt>
      <trkpt lat="37.6963680" lon="-4.0116770">
        <ele>572.4</ele>
        <time>2021-12-27T17:22:21Z</time>
      </trkpt>
      <trkpt lat="37.6963460" lon="-4.0116520">
        <ele>572.4</ele>
        <time>2021-12-27T17:22:22Z</time>
      </trkpt>
      <trkpt lat="37.6963300" lon="-4.0116370">
        <ele>572.4</ele>
        <time>2021-12-27T17:22:23Z</time>
      </trkpt>
      <trkpt lat="37.6963070" lon="-4.0116150">
        <ele>572.4</ele>
        <time>2021-12-27T17:22:24Z</time>
      </trkpt>
      <trkpt lat="37.6962850" lon="-4.0115950">
        <ele>572.4</ele>
        <time>2021-12-27T17:22:25Z</time>
      </trkpt>
      <trkpt lat="37.6962690" lon="-4.0115770">
        <ele>572.4</ele>
        <time>2021-12-27T17:22:26Z</time>
      </trkpt>
      <trkpt lat="37.6962560" lon="-4.0115580">
        <ele>572.4</ele>
        <time>2021-12-27T17:22:27Z</time>
      </trkpt>
      <trkpt lat="37.6962300" lon="-4.0115280">
        <ele>572.4</ele>
        <time>2021-12-27T17:22:28Z</time>
      </trkpt>
      <trkpt lat="37.6962080" lon="-4.0115060">
        <ele>572.4</ele>
        <time>2021-12-27T17:22:29Z</time>
      </trkpt>
      <trkpt lat="37.6961890" lon="-4.0114850">
        <ele>572.4</ele>
        <time>2021-12-27T17:22:30Z</time>
      </trkpt>
      <trkpt lat="37.6961630" lon="-4.0114680">
        <ele>572.2</ele>
        <time>2021-12-27T17:22:31Z</time>
      </trkpt>
      <trkpt lat="37.6961440" lon="-4.0114520">
        <ele>572.2</ele>
        <time>2021-12-27T17:22:32Z</time>
      </trkpt>
      <trkpt lat="37.6961120" lon="-4.0114320">
        <ele>572.2</ele>
        <time>2021-12-27T17:22:33Z</time>
      </trkpt>
      <trkpt lat="37.6960830" lon="-4.0114100">
        <ele>572.2</ele>
        <time>2021-12-27T17:22:34Z</time>
      </trkpt>
      <trkpt lat="37.6960480" lon="-4.0113720">
        <ele>572.2</ele>
        <time>2021-12-27T17:22:35Z</time>
      </trkpt>
      <trkpt lat="37.6960160" lon="-4.0113300">
        <ele>572.2</ele>
        <time>2021-12-27T17:22:36Z</time>
      </trkpt>
      <trkpt lat="37.6959810" lon="-4.0112880">
        <ele>572.2</ele>
        <time>2021-12-27T17:22:37Z</time>
      </trkpt>
      <trkpt lat="37.6959460" lon="-4.0112500">
        <ele>572.2</ele>
        <time>2021-12-27T17:22:38Z</time>
      </trkpt>
      <trkpt lat="37.6959170" lon="-4.0112200">
        <ele>572.2</ele>
        <time>2021-12-27T17:22:39Z</time>
      </trkpt>
      <trkpt lat="37.6958880" lon="-4.0111930">
        <ele>572.4</ele>
        <time>2021-12-27T17:22:40Z</time>
      </trkpt>
      <trkpt lat="37.6958530" lon="-4.0111650">
        <ele>572.4</ele>
        <time>2021-12-27T17:22:41Z</time>
      </trkpt>
      <trkpt lat="37.6958210" lon="-4.0111350">
        <ele>572.4</ele>
        <time>2021-12-27T17:22:42Z</time>
      </trkpt>
      <trkpt lat="37.6957890" lon="-4.0111130">
        <ele>572.6</ele>
        <time>2021-12-27T17:22:43Z</time>
      </trkpt>
      <trkpt lat="37.6957600" lon="-4.0110860">
        <ele>572.6</ele>
        <time>2021-12-27T17:22:44Z</time>
      </trkpt>
      <trkpt lat="37.6957250" lon="-4.0110600">
        <ele>572.6</ele>
        <time>2021-12-27T17:22:45Z</time>
      </trkpt>
      <trkpt lat="37.6956930" lon="-4.0110420">
        <ele>572.6</ele>
        <time>2021-12-27T17:22:46Z</time>
      </trkpt>
      <trkpt lat="37.6956640" lon="-4.0110250">
        <ele>572.8</ele>
        <time>2021-12-27T17:22:47Z</time>
      </trkpt>
      <trkpt lat="37.6956350" lon="-4.0110120">
        <ele>572.6</ele>
        <time>2021-12-27T17:22:48Z</time>
      </trkpt>
      <trkpt lat="37.6956000" lon="-4.0109850">
        <ele>572.6</ele>
        <time>2021-12-27T17:22:49Z</time>
      </trkpt>
      <trkpt lat="37.6955710" lon="-4.0109670">
        <ele>572.6</ele>
        <time>2021-12-27T17:22:50Z</time>
      </trkpt>
      <trkpt lat="37.6955330" lon="-4.0109420">
        <ele>572.6</ele>
        <time>2021-12-27T17:22:51Z</time>
      </trkpt>
      <trkpt lat="37.6955040" lon="-4.0109220">
        <ele>572.6</ele>
        <time>2021-12-27T17:22:52Z</time>
      </trkpt>
      <trkpt lat="37.6954850" lon="-4.0109080">
        <ele>572.6</ele>
        <time>2021-12-27T17:22:53Z</time>
      </trkpt>
      <trkpt lat="37.6954460" lon="-4.0108850">
        <ele>572.6</ele>
        <time>2021-12-27T17:22:54Z</time>
      </trkpt>
      <trkpt lat="37.6954210" lon="-4.0108670">
        <ele>572.6</ele>
        <time>2021-12-27T17:22:55Z</time>
      </trkpt>
      <trkpt lat="37.6953950" lon="-4.0108480">
        <ele>572.6</ele>
        <time>2021-12-27T17:22:56Z</time>
      </trkpt>
      <trkpt lat="37.6953660" lon="-4.0108230">
        <ele>572.8</ele>
        <time>2021-12-27T17:22:57Z</time>
      </trkpt>
      <trkpt lat="37.6953310" lon="-4.0107960">
        <ele>572.6</ele>
        <time>2021-12-27T17:22:58Z</time>
      </trkpt>
      <trkpt lat="37.6953060" lon="-4.0107780">
        <ele>572.6</ele>
        <time>2021-12-27T17:22:59Z</time>
      </trkpt>
      <trkpt lat="37.6952700" lon="-4.0107500">
        <ele>572.6</ele>
        <time>2021-12-27T17:23:00Z</time>
      </trkpt>
      <trkpt lat="37.6952420" lon="-4.0107260">
        <ele>572.6</ele>
        <time>2021-12-27T17:23:01Z</time>
      </trkpt>
      <trkpt lat="37.6952100" lon="-4.0107080">
        <ele>572.6</ele>
        <time>2021-12-27T17:23:02Z</time>
      </trkpt>
      <trkpt lat="37.6951710" lon="-4.0106820">
        <ele>572.8</ele>
        <time>2021-12-27T17:23:03Z</time>
      </trkpt>
      <trkpt lat="37.6951460" lon="-4.0106650">
        <ele>572.8</ele>
        <time>2021-12-27T17:23:04Z</time>
      </trkpt>
      <trkpt lat="37.6950980" lon="-4.0106350">
        <ele>572.8</ele>
        <time>2021-12-27T17:23:05Z</time>
      </trkpt>
      <trkpt lat="37.6950690" lon="-4.0106150">
        <ele>572.8</ele>
        <time>2021-12-27T17:23:06Z</time>
      </trkpt>
      <trkpt lat="37.6950270" lon="-4.0105880">
        <ele>572.8</ele>
        <time>2021-12-27T17:23:07Z</time>
      </trkpt>
      <trkpt lat="37.6949950" lon="-4.0105700">
        <ele>572.8</ele>
        <time>2021-12-27T17:23:08Z</time>
      </trkpt>
      <trkpt lat="37.6949540" lon="-4.0105430">
        <ele>572.8</ele>
        <time>2021-12-27T17:23:09Z</time>
      </trkpt>
      <trkpt lat="37.6949180" lon="-4.0105200">
        <ele>572.8</ele>
        <time>2021-12-27T17:23:10Z</time>
      </trkpt>
      <trkpt lat="37.6948860" lon="-4.0105020">
        <ele>572.8</ele>
        <time>2021-12-27T17:23:11Z</time>
      </trkpt>
      <trkpt lat="37.6948480" lon="-4.0104850">
        <ele>572.8</ele>
        <time>2021-12-27T17:23:12Z</time>
      </trkpt>
      <trkpt lat="37.6948190" lon="-4.0104720">
        <ele>572.8</ele>
        <time>2021-12-27T17:23:13Z</time>
      </trkpt>
      <trkpt lat="37.6947780" lon="-4.0104520">
        <ele>572.8</ele>
        <time>2021-12-27T17:23:14Z</time>
      </trkpt>
      <trkpt lat="37.6947460" lon="-4.0104330">
        <ele>572.8</ele>
        <time>2021-12-27T17:23:15Z</time>
      </trkpt>
      <trkpt lat="37.6947100" lon="-4.0104130">
        <ele>572.6</ele>
        <time>2021-12-27T17:23:16Z</time>
      </trkpt>
      <trkpt lat="37.6946750" lon="-4.0103930">
        <ele>572.6</ele>
        <time>2021-12-27T17:23:17Z</time>
      </trkpt>
      <trkpt lat="37.6946400" lon="-4.0103750">
        <ele>572.6</ele>
        <time>2021-12-27T17:23:18Z</time>
      </trkpt>
      <trkpt lat="37.6946110" lon="-4.0103580">
        <ele>572.6</ele>
        <time>2021-12-27T17:23:19Z</time>
      </trkpt>
      <trkpt lat="37.6945760" lon="-4.0103420">
        <ele>572.4</ele>
        <time>2021-12-27T17:23:20Z</time>
      </trkpt>
      <trkpt lat="37.6945380" lon="-4.0103270">
        <ele>572.4</ele>
        <time>2021-12-27T17:23:21Z</time>
      </trkpt>
      <trkpt lat="37.6945020" lon="-4.0103170">
        <ele>572.4</ele>
        <time>2021-12-27T17:23:22Z</time>
      </trkpt>
      <trkpt lat="37.6944610" lon="-4.0103020">
        <ele>572.2</ele>
        <time>2021-12-27T17:23:23Z</time>
      </trkpt>
      <trkpt lat="37.6944220" lon="-4.0102870">
        <ele>572.2</ele>
        <time>2021-12-27T17:23:24Z</time>
      </trkpt>
      <trkpt lat="37.6943840" lon="-4.0102670">
        <ele>572.2</ele>
        <time>2021-12-27T17:23:25Z</time>
      </trkpt>
      <trkpt lat="37.6943520" lon="-4.0102470">
        <ele>572.2</ele>
        <time>2021-12-27T17:23:26Z</time>
      </trkpt>
      <trkpt lat="37.6943170" lon="-4.0102300">
        <ele>572.0</ele>
        <time>2021-12-27T17:23:27Z</time>
      </trkpt>
      <trkpt lat="37.6942750" lon="-4.0102120">
        <ele>572.0</ele>
        <time>2021-12-27T17:23:28Z</time>
      </trkpt>
      <trkpt lat="37.6942370" lon="-4.0101970">
        <ele>572.0</ele>
        <time>2021-12-27T17:23:29Z</time>
      </trkpt>
      <trkpt lat="37.6941980" lon="-4.0101850">
        <ele>571.8</ele>
        <time>2021-12-27T17:23:30Z</time>
      </trkpt>
      <trkpt lat="37.6941570" lon="-4.0101730">
        <ele>571.8</ele>
        <time>2021-12-27T17:23:31Z</time>
      </trkpt>
      <trkpt lat="37.6941180" lon="-4.0101580">
        <ele>571.8</ele>
        <time>2021-12-27T17:23:32Z</time>
      </trkpt>
      <trkpt lat="37.6940770" lon="-4.0101450">
        <ele>571.6</ele>
        <time>2021-12-27T17:23:33Z</time>
      </trkpt>
      <trkpt lat="37.6940380" lon="-4.0101300">
        <ele>571.6</ele>
        <time>2021-12-27T17:23:34Z</time>
      </trkpt>
      <trkpt lat="37.6939970" lon="-4.0101160">
        <ele>571.6</ele>
        <time>2021-12-27T17:23:35Z</time>
      </trkpt>
      <trkpt lat="37.6939620" lon="-4.0101030">
        <ele>571.6</ele>
        <time>2021-12-27T17:23:36Z</time>
      </trkpt>
      <trkpt lat="37.6939170" lon="-4.0100850">
        <ele>571.6</ele>
        <time>2021-12-27T17:23:37Z</time>
      </trkpt>
      <trkpt lat="37.6938750" lon="-4.0100680">
        <ele>571.6</ele>
        <time>2021-12-27T17:23:38Z</time>
      </trkpt>
      <trkpt lat="37.6938370" lon="-4.0100550">
        <ele>571.6</ele>
        <time>2021-12-27T17:23:39Z</time>
      </trkpt>
      <trkpt lat="37.6937950" lon="-4.0100400">
        <ele>571.6</ele>
        <time>2021-12-27T17:23:40Z</time>
      </trkpt>
      <trkpt lat="37.6937570" lon="-4.0100260">
        <ele>571.6</ele>
        <time>2021-12-27T17:23:41Z</time>
      </trkpt>
      <trkpt lat="37.6937150" lon="-4.0100130">
        <ele>571.6</ele>
        <time>2021-12-27T17:23:42Z</time>
      </trkpt>
      <trkpt lat="37.6936770" lon="-4.0100020">
        <ele>571.4</ele>
        <time>2021-12-27T17:23:43Z</time>
      </trkpt>
      <trkpt lat="37.6936350" lon="-4.0099900">
        <ele>571.4</ele>
        <time>2021-12-27T17:23:44Z</time>
      </trkpt>
      <trkpt lat="37.6936000" lon="-4.0099800">
        <ele>571.2</ele>
        <time>2021-12-27T17:23:45Z</time>
      </trkpt>
      <trkpt lat="37.6935490" lon="-4.0099620">
        <ele>571.2</ele>
        <time>2021-12-27T17:23:46Z</time>
      </trkpt>
      <trkpt lat="37.6935100" lon="-4.0099500">
        <ele>571.0</ele>
        <time>2021-12-27T17:23:47Z</time>
      </trkpt>
      <trkpt lat="37.6934660" lon="-4.0099400">
        <ele>571.0</ele>
        <time>2021-12-27T17:23:48Z</time>
      </trkpt>
      <trkpt lat="37.6934210" lon="-4.0099280">
        <ele>570.8</ele>
        <time>2021-12-27T17:23:49Z</time>
      </trkpt>
      <trkpt lat="37.6933790" lon="-4.0099180">
        <ele>570.8</ele>
        <time>2021-12-27T17:23:50Z</time>
      </trkpt>
      <trkpt lat="37.6933310" lon="-4.0099070">
        <ele>570.6</ele>
        <time>2021-12-27T17:23:51Z</time>
      </trkpt>
      <trkpt lat="37.6932860" lon="-4.0098970">
        <ele>570.6</ele>
        <time>2021-12-27T17:23:52Z</time>
      </trkpt>
      <trkpt lat="37.6932450" lon="-4.0098870">
        <ele>570.6</ele>
        <time>2021-12-27T17:23:53Z</time>
      </trkpt>
      <trkpt lat="37.6932030" lon="-4.0098820">
        <ele>570.4</ele>
        <time>2021-12-27T17:23:54Z</time>
      </trkpt>
      <trkpt lat="37.6931650" lon="-4.0098730">
        <ele>570.4</ele>
        <time>2021-12-27T17:23:55Z</time>
      </trkpt>
      <trkpt lat="37.6931230" lon="-4.0098620">
        <ele>570.2</ele>
        <time>2021-12-27T17:23:56Z</time>
      </trkpt>
      <trkpt lat="37.6930780" lon="-4.0098520">
        <ele>570.2</ele>
        <time>2021-12-27T17:23:57Z</time>
      </trkpt>
      <trkpt lat="37.6930340" lon="-4.0098470">
        <ele>570.0</ele>
        <time>2021-12-27T17:23:58Z</time>
      </trkpt>
      <trkpt lat="37.6930020" lon="-4.0098420">
        <ele>570.0</ele>
        <time>2021-12-27T17:23:59Z</time>
      </trkpt>
      <trkpt lat="37.6929600" lon="-4.0098350">
        <ele>569.8</ele>
        <time>2021-12-27T17:24:00Z</time>
      </trkpt>
      <trkpt lat="37.6929060" lon="-4.0098250">
        <ele>569.6</ele>
        <time>2021-12-27T17:24:01Z</time>
      </trkpt>
      <trkpt lat="37.6928640" lon="-4.0098200">
        <ele>569.6</ele>
        <time>2021-12-27T17:24:02Z</time>
      </trkpt>
      <trkpt lat="37.6928220" lon="-4.0098150">
        <ele>569.4</ele>
        <time>2021-12-27T17:24:03Z</time>
      </trkpt>
      <trkpt lat="37.6927870" lon="-4.0098080">
        <ele>569.4</ele>
        <time>2021-12-27T17:24:04Z</time>
      </trkpt>
      <trkpt lat="37.6927420" lon="-4.0098030">
        <ele>569.2</ele>
        <time>2021-12-27T17:24:05Z</time>
      </trkpt>
      <trkpt lat="37.6927070" lon="-4.0098020">
        <ele>569.2</ele>
        <time>2021-12-27T17:24:06Z</time>
      </trkpt>
      <trkpt lat="37.6926750" lon="-4.0097980">
        <ele>569.0</ele>
        <time>2021-12-27T17:24:07Z</time>
      </trkpt>
      <trkpt lat="37.6926500" lon="-4.0097950">
        <ele>569.0</ele>
        <time>2021-12-27T17:24:08Z</time>
      </trkpt>
      <trkpt lat="37.6926240" lon="-4.0097930">
        <ele>569.0</ele>
        <time>2021-12-27T17:24:09Z</time>
      </trkpt>
      <trkpt lat="37.6926050" lon="-4.0097920">
        <ele>569.0</ele>
        <time>2021-12-27T17:24:10Z</time>
      </trkpt>
      <trkpt lat="37.6926050" lon="-4.0097920">
        <ele>569.0</ele>
        <time>2021-12-27T17:24:11Z</time>
      </trkpt>
      <trkpt lat="37.6925730" lon="-4.0097910">
        <ele>568.8</ele>
        <time>2021-12-27T17:24:12Z</time>
      </trkpt>
      <trkpt lat="37.6925420" lon="-4.0097910">
        <ele>568.8</ele>
        <time>2021-12-27T17:24:13Z</time>
      </trkpt>
      <trkpt lat="37.6925100" lon="-4.0097900">
        <ele>569.0</ele>
        <time>2021-12-27T17:24:14Z</time>
      </trkpt>
      <trkpt lat="37.6924790" lon="-4.0097890">
        <ele>569.0</ele>
        <time>2021-12-27T17:24:15Z</time>
      </trkpt>
      <trkpt lat="37.6924470" lon="-4.0097880">
        <ele>566.6</ele>
        <time>2021-12-27T17:25:34Z</time>
      </trkpt>
      <trkpt lat="37.6924160" lon="-4.0097880">
        <ele>566.6</ele>
        <time>2021-12-27T17:25:35Z</time>
      </trkpt>
      <trkpt lat="37.6923840" lon="-4.0097870">
        <ele>566.6</ele>
        <time>2021-12-27T17:25:36Z</time>
      </trkpt>
      <trkpt lat="37.6923300" lon="-4.0097830">
        <ele>566.4</ele>
        <time>2021-12-27T17:25:37Z</time>
      </trkpt>
      <trkpt lat="37.6922850" lon="-4.0097800">
        <ele>566.4</ele>
        <time>2021-12-27T17:25:38Z</time>
      </trkpt>
      <trkpt lat="37.6922430" lon="-4.0097780">
        <ele>566.4</ele>
        <time>2021-12-27T17:25:39Z</time>
      </trkpt>
      <trkpt lat="37.6921980" lon="-4.0097760">
        <ele>566.4</ele>
        <time>2021-12-27T17:25:40Z</time>
      </trkpt>
      <trkpt lat="37.6921700" lon="-4.0097720">
        <ele>566.4</ele>
        <time>2021-12-27T17:25:41Z</time>
      </trkpt>
      <trkpt lat="37.6921180" lon="-4.0097700">
        <ele>566.4</ele>
        <time>2021-12-27T17:25:42Z</time>
      </trkpt>
      <trkpt lat="37.6920800" lon="-4.0097720">
        <ele>566.4</ele>
        <time>2021-12-27T17:25:43Z</time>
      </trkpt>
      <trkpt lat="37.6920380" lon="-4.0097750">
        <ele>566.4</ele>
        <time>2021-12-27T17:25:44Z</time>
      </trkpt>
      <trkpt lat="37.6920000" lon="-4.0097780">
        <ele>566.4</ele>
        <time>2021-12-27T17:25:45Z</time>
      </trkpt>
      <trkpt lat="37.6919680" lon="-4.0097780">
        <ele>566.4</ele>
        <time>2021-12-27T17:25:46Z</time>
      </trkpt>
      <trkpt lat="37.6919170" lon="-4.0097820">
        <ele>566.4</ele>
        <time>2021-12-27T17:25:47Z</time>
      </trkpt>
      <trkpt lat="37.6918720" lon="-4.0097800">
        <ele>566.4</ele>
        <time>2021-12-27T17:25:48Z</time>
      </trkpt>
      <trkpt lat="37.6918270" lon="-4.0097820">
        <ele>566.4</ele>
        <time>2021-12-27T17:25:49Z</time>
      </trkpt>
      <trkpt lat="37.6917890" lon="-4.0097820">
        <ele>566.4</ele>
        <time>2021-12-27T17:25:50Z</time>
      </trkpt>
      <trkpt lat="37.6917310" lon="-4.0097820">
        <ele>566.4</ele>
        <time>2021-12-27T17:25:51Z</time>
      </trkpt>
      <trkpt lat="37.6916800" lon="-4.0097800">
        <ele>566.4</ele>
        <time>2021-12-27T17:25:52Z</time>
      </trkpt>
      <trkpt lat="37.6916320" lon="-4.0097830">
        <ele>566.4</ele>
        <time>2021-12-27T17:25:53Z</time>
      </trkpt>
      <trkpt lat="37.6915810" lon="-4.0097880">
        <ele>566.4</ele>
        <time>2021-12-27T17:25:54Z</time>
      </trkpt>
      <trkpt lat="37.6915300" lon="-4.0097950">
        <ele>566.4</ele>
        <time>2021-12-27T17:25:55Z</time>
      </trkpt>
      <trkpt lat="37.6914780" lon="-4.0098020">
        <ele>566.4</ele>
        <time>2021-12-27T17:25:56Z</time>
      </trkpt>
      <trkpt lat="37.6914240" lon="-4.0098080">
        <ele>566.4</ele>
        <time>2021-12-27T17:25:57Z</time>
      </trkpt>
      <trkpt lat="37.6913730" lon="-4.0098130">
        <ele>566.4</ele>
        <time>2021-12-27T17:25:58Z</time>
      </trkpt>
      <trkpt lat="37.6913180" lon="-4.0098200">
        <ele>566.4</ele>
        <time>2021-12-27T17:25:59Z</time>
      </trkpt>
      <trkpt lat="37.6912700" lon="-4.0098250">
        <ele>566.2</ele>
        <time>2021-12-27T17:26:00Z</time>
      </trkpt>
      <trkpt lat="37.6912160" lon="-4.0098320">
        <ele>566.2</ele>
        <time>2021-12-27T17:26:01Z</time>
      </trkpt>
      <trkpt lat="37.6911580" lon="-4.0098420">
        <ele>566.0</ele>
        <time>2021-12-27T17:26:02Z</time>
      </trkpt>
      <trkpt lat="37.6911040" lon="-4.0098520">
        <ele>566.0</ele>
        <time>2021-12-27T17:26:03Z</time>
      </trkpt>
      <trkpt lat="37.6910530" lon="-4.0098600">
        <ele>566.0</ele>
        <time>2021-12-27T17:26:04Z</time>
      </trkpt>
      <trkpt lat="37.6909980" lon="-4.0098720">
        <ele>565.8</ele>
        <time>2021-12-27T17:26:05Z</time>
      </trkpt>
      <trkpt lat="37.6909410" lon="-4.0098820">
        <ele>565.8</ele>
        <time>2021-12-27T17:26:06Z</time>
      </trkpt>
      <trkpt lat="37.6908830" lon="-4.0098880">
        <ele>565.8</ele>
        <time>2021-12-27T17:26:07Z</time>
      </trkpt>
      <trkpt lat="37.6908290" lon="-4.0098980">
        <ele>565.8</ele>
        <time>2021-12-27T17:26:08Z</time>
      </trkpt>
      <trkpt lat="37.6907780" lon="-4.0099140">
        <ele>565.6</ele>
        <time>2021-12-27T17:26:09Z</time>
      </trkpt>
      <trkpt lat="37.6907230" lon="-4.0099280">
        <ele>565.6</ele>
        <time>2021-12-27T17:26:10Z</time>
      </trkpt>
      <trkpt lat="37.6906690" lon="-4.0099400">
        <ele>565.4</ele>
        <time>2021-12-27T17:26:11Z</time>
      </trkpt>
      <trkpt lat="37.6906110" lon="-4.0099540">
        <ele>565.4</ele>
        <time>2021-12-27T17:26:12Z</time>
      </trkpt>
      <trkpt lat="37.6905570" lon="-4.0099680">
        <ele>565.4</ele>
        <time>2021-12-27T17:26:13Z</time>
      </trkpt>
      <trkpt lat="37.6905020" lon="-4.0099850">
        <ele>565.2</ele>
        <time>2021-12-27T17:26:14Z</time>
      </trkpt>
      <trkpt lat="37.6904450" lon="-4.0100000">
        <ele>565.2</ele>
        <time>2021-12-27T17:26:15Z</time>
      </trkpt>
      <trkpt lat="37.6903900" lon="-4.0100150">
        <ele>565.2</ele>
        <time>2021-12-27T17:26:16Z</time>
      </trkpt>
      <trkpt lat="37.6903330" lon="-4.0100320">
        <ele>565.0</ele>
        <time>2021-12-27T17:26:17Z</time>
      </trkpt>
      <trkpt lat="37.6902780" lon="-4.0100460">
        <ele>565.0</ele>
        <time>2021-12-27T17:26:18Z</time>
      </trkpt>
      <trkpt lat="37.6902210" lon="-4.0100620">
        <ele>565.0</ele>
        <time>2021-12-27T17:26:19Z</time>
      </trkpt>
      <trkpt lat="37.6901600" lon="-4.0100750">
        <ele>564.8</ele>
        <time>2021-12-27T17:26:20Z</time>
      </trkpt>
      <trkpt lat="37.6901020" lon="-4.0100900">
        <ele>564.8</ele>
        <time>2021-12-27T17:26:21Z</time>
      </trkpt>
      <trkpt lat="37.6900450" lon="-4.0101050">
        <ele>564.8</ele>
        <time>2021-12-27T17:26:22Z</time>
      </trkpt>
      <trkpt lat="37.6899840" lon="-4.0101200">
        <ele>564.6</ele>
        <time>2021-12-27T17:26:23Z</time>
      </trkpt>
      <trkpt lat="37.6899230" lon="-4.0101330">
        <ele>564.6</ele>
        <time>2021-12-27T17:26:24Z</time>
      </trkpt>
      <trkpt lat="37.6898620" lon="-4.0101480">
        <ele>564.6</ele>
        <time>2021-12-27T17:26:25Z</time>
      </trkpt>
      <trkpt lat="37.6898020" lon="-4.0101650">
        <ele>564.6</ele>
        <time>2021-12-27T17:26:26Z</time>
      </trkpt>
      <trkpt lat="37.6897410" lon="-4.0101780">
        <ele>564.4</ele>
        <time>2021-12-27T17:26:27Z</time>
      </trkpt>
      <trkpt lat="37.6896770" lon="-4.0101920">
        <ele>564.4</ele>
        <time>2021-12-27T17:26:28Z</time>
      </trkpt>
      <trkpt lat="37.6896160" lon="-4.0102050">
        <ele>564.2</ele>
        <time>2021-12-27T17:26:29Z</time>
      </trkpt>
      <trkpt lat="37.6895550" lon="-4.0102200">
        <ele>564.2</ele>
        <time>2021-12-27T17:26:30Z</time>
      </trkpt>
      <trkpt lat="37.6894940" lon="-4.0102340">
        <ele>564.2</ele>
        <time>2021-12-27T17:26:31Z</time>
      </trkpt>
      <trkpt lat="37.6894300" lon="-4.0102440">
        <ele>564.2</ele>
        <time>2021-12-27T17:26:32Z</time>
      </trkpt>
      <trkpt lat="37.6893660" lon="-4.0102540">
        <ele>564.2</ele>
        <time>2021-12-27T17:26:33Z</time>
      </trkpt>
      <trkpt lat="37.6893060" lon="-4.0102600">
        <ele>564.2</ele>
        <time>2021-12-27T17:26:34Z</time>
      </trkpt>
      <trkpt lat="37.6892450" lon="-4.0102670">
        <ele>564.0</ele>
        <time>2021-12-27T17:26:35Z</time>
      </trkpt>
      <trkpt lat="37.6891810" lon="-4.0102740">
        <ele>564.0</ele>
        <time>2021-12-27T17:26:36Z</time>
      </trkpt>
      <trkpt lat="37.6891260" lon="-4.0102800">
        <ele>564.0</ele>
        <time>2021-12-27T17:26:37Z</time>
      </trkpt>
      <trkpt lat="37.6890690" lon="-4.0102850">
        <ele>563.8</ele>
        <time>2021-12-27T17:26:38Z</time>
      </trkpt>
      <trkpt lat="37.6890020" lon="-4.0102880">
        <ele>563.6</ele>
        <time>2021-12-27T17:26:39Z</time>
      </trkpt>
      <trkpt lat="37.6889410" lon="-4.0102880">
        <ele>563.4</ele>
        <time>2021-12-27T17:26:40Z</time>
      </trkpt>
      <trkpt lat="37.6888800" lon="-4.0102880">
        <ele>563.4</ele>
        <time>2021-12-27T17:26:41Z</time>
      </trkpt>
      <trkpt lat="37.6888190" lon="-4.0102870">
        <ele>563.2</ele>
        <time>2021-12-27T17:26:42Z</time>
      </trkpt>
      <trkpt lat="37.6887620" lon="-4.0102850">
        <ele>563.0</ele>
        <time>2021-12-27T17:26:43Z</time>
      </trkpt>
      <trkpt lat="37.6887010" lon="-4.0102770">
        <ele>563.0</ele>
        <time>2021-12-27T17:26:44Z</time>
      </trkpt>
      <trkpt lat="37.6886430" lon="-4.0102680">
        <ele>562.8</ele>
        <time>2021-12-27T17:26:45Z</time>
      </trkpt>
      <trkpt lat="37.6885820" lon="-4.0102600">
        <ele>562.8</ele>
        <time>2021-12-27T17:26:46Z</time>
      </trkpt>
      <trkpt lat="37.6885250" lon="-4.0102540">
        <ele>562.8</ele>
        <time>2021-12-27T17:26:47Z</time>
      </trkpt>
      <trkpt lat="37.6884740" lon="-4.0102470">
        <ele>562.8</ele>
        <time>2021-12-27T17:26:48Z</time>
      </trkpt>
      <trkpt lat="37.6884190" lon="-4.0102370">
        <ele>562.8</ele>
        <time>2021-12-27T17:26:49Z</time>
      </trkpt>
      <trkpt lat="37.6883780" lon="-4.0102280">
        <ele>562.8</ele>
        <time>2021-12-27T17:26:50Z</time>
      </trkpt>
      <trkpt lat="37.6883170" lon="-4.0102150">
        <ele>562.8</ele>
        <time>2021-12-27T17:26:51Z</time>
      </trkpt>
      <trkpt lat="37.6882660" lon="-4.0102030">
        <ele>562.8</ele>
        <time>2021-12-27T17:26:52Z</time>
      </trkpt>
      <trkpt lat="37.6882180" lon="-4.0101900">
        <ele>562.8</ele>
        <time>2021-12-27T17:26:53Z</time>
      </trkpt>
      <trkpt lat="37.6881660" lon="-4.0101780">
        <ele>562.8</ele>
        <time>2021-12-27T17:26:54Z</time>
      </trkpt>
      <trkpt lat="37.6881180" lon="-4.0101670">
        <ele>562.8</ele>
        <time>2021-12-27T17:26:55Z</time>
      </trkpt>
      <trkpt lat="37.6880640" lon="-4.0101550">
        <ele>562.8</ele>
        <time>2021-12-27T17:26:56Z</time>
      </trkpt>
      <trkpt lat="37.6880160" lon="-4.0101430">
        <ele>562.6</ele>
        <time>2021-12-27T17:26:57Z</time>
      </trkpt>
      <trkpt lat="37.6879650" lon="-4.0101300">
        <ele>562.6</ele>
        <time>2021-12-27T17:26:58Z</time>
      </trkpt>
      <trkpt lat="37.6879200" lon="-4.0101130">
        <ele>562.6</ele>
        <time>2021-12-27T17:26:59Z</time>
      </trkpt>
      <trkpt lat="37.6878690" lon="-4.0100960">
        <ele>562.4</ele>
        <time>2021-12-27T17:27:00Z</time>
      </trkpt>
      <trkpt lat="37.6878210" lon="-4.0100820">
        <ele>562.4</ele>
        <time>2021-12-27T17:27:01Z</time>
      </trkpt>
      <trkpt lat="37.6877760" lon="-4.0100630">
        <ele>562.4</ele>
        <time>2021-12-27T17:27:02Z</time>
      </trkpt>
      <trkpt lat="37.6877280" lon="-4.0100400">
        <ele>562.4</ele>
        <time>2021-12-27T17:27:03Z</time>
      </trkpt>
      <trkpt lat="37.6876960" lon="-4.0100230">
        <ele>562.2</ele>
        <time>2021-12-27T17:27:04Z</time>
      </trkpt>
      <trkpt lat="37.6876450" lon="-4.0099970">
        <ele>562.2</ele>
        <time>2021-12-27T17:27:05Z</time>
      </trkpt>
      <trkpt lat="37.6876030" lon="-4.0099770">
        <ele>562.0</ele>
        <time>2021-12-27T17:27:06Z</time>
      </trkpt>
      <trkpt lat="37.6875620" lon="-4.0099600">
        <ele>562.0</ele>
        <time>2021-12-27T17:27:07Z</time>
      </trkpt>
      <trkpt lat="37.6875200" lon="-4.0099420">
        <ele>562.0</ele>
        <time>2021-12-27T17:27:08Z</time>
      </trkpt>
      <trkpt lat="37.6874820" lon="-4.0099240">
        <ele>561.8</ele>
        <time>2021-12-27T17:27:09Z</time>
      </trkpt>
      <trkpt lat="37.6874430" lon="-4.0099080">
        <ele>561.8</ele>
        <time>2021-12-27T17:27:10Z</time>
      </trkpt>
      <trkpt lat="37.6874110" lon="-4.0098880">
        <ele>561.6</ele>
        <time>2021-12-27T17:27:11Z</time>
      </trkpt>
      <trkpt lat="37.6873630" lon="-4.0098570">
        <ele>561.6</ele>
        <time>2021-12-27T17:27:12Z</time>
      </trkpt>
      <trkpt lat="37.6873280" lon="-4.0098350">
        <ele>561.6</ele>
        <time>2021-12-27T17:27:13Z</time>
      </trkpt>
      <trkpt lat="37.6872800" lon="-4.0098000">
        <ele>561.6</ele>
        <time>2021-12-27T17:27:14Z</time>
      </trkpt>
      <trkpt lat="37.6872350" lon="-4.0097720">
        <ele>561.6</ele>
        <time>2021-12-27T17:27:15Z</time>
      </trkpt>
      <trkpt lat="37.6871900" lon="-4.0097420">
        <ele>561.6</ele>
        <time>2021-12-27T17:27:16Z</time>
      </trkpt>
      <trkpt lat="37.6871460" lon="-4.0097050">
        <ele>561.6</ele>
        <time>2021-12-27T17:27:17Z</time>
      </trkpt>
      <trkpt lat="37.6871010" lon="-4.0096660">
        <ele>561.6</ele>
        <time>2021-12-27T17:27:18Z</time>
      </trkpt>
      <trkpt lat="37.6870500" lon="-4.0096300">
        <ele>561.6</ele>
        <time>2021-12-27T17:27:19Z</time>
      </trkpt>
      <trkpt lat="37.6870080" lon="-4.0095940">
        <ele>561.6</ele>
        <time>2021-12-27T17:27:20Z</time>
      </trkpt>
      <trkpt lat="37.6869570" lon="-4.0095570">
        <ele>561.6</ele>
        <time>2021-12-27T17:27:21Z</time>
      </trkpt>
      <trkpt lat="37.6869150" lon="-4.0095200">
        <ele>561.4</ele>
        <time>2021-12-27T17:27:22Z</time>
      </trkpt>
      <trkpt lat="37.6868670" lon="-4.0094820">
        <ele>561.2</ele>
        <time>2021-12-27T17:27:23Z</time>
      </trkpt>
      <trkpt lat="37.6868260" lon="-4.0094430">
        <ele>561.2</ele>
        <time>2021-12-27T17:27:24Z</time>
      </trkpt>
      <trkpt lat="37.6867780" lon="-4.0094050">
        <ele>561.2</ele>
        <time>2021-12-27T17:27:25Z</time>
      </trkpt>
      <trkpt lat="37.6867330" lon="-4.0093650">
        <ele>561.2</ele>
        <time>2021-12-27T17:27:26Z</time>
      </trkpt>
      <trkpt lat="37.6866910" lon="-4.0093220">
        <ele>561.0</ele>
        <time>2021-12-27T17:27:27Z</time>
      </trkpt>
      <trkpt lat="37.6866500" lon="-4.0092770">
        <ele>561.2</ele>
        <time>2021-12-27T17:27:28Z</time>
      </trkpt>
      <trkpt lat="37.6866050" lon="-4.0092320">
        <ele>561.2</ele>
        <time>2021-12-27T17:27:29Z</time>
      </trkpt>
      <trkpt lat="37.6865570" lon="-4.0091850">
        <ele>561.2</ele>
        <time>2021-12-27T17:27:30Z</time>
      </trkpt>
      <trkpt lat="37.6865150" lon="-4.0091350">
        <ele>561.0</ele>
        <time>2021-12-27T17:27:31Z</time>
      </trkpt>
      <trkpt lat="37.6864700" lon="-4.0090850">
        <ele>561.0</ele>
        <time>2021-12-27T17:27:32Z</time>
      </trkpt>
      <trkpt lat="37.6864290" lon="-4.0090320">
        <ele>561.0</ele>
        <time>2021-12-27T17:27:33Z</time>
      </trkpt>
      <trkpt lat="37.6863870" lon="-4.0089760">
        <ele>560.8</ele>
        <time>2021-12-27T17:27:34Z</time>
      </trkpt>
      <trkpt lat="37.6863460" lon="-4.0089220">
        <ele>560.6</ele>
        <time>2021-12-27T17:27:35Z</time>
      </trkpt>
      <trkpt lat="37.6863100" lon="-4.0088780">
        <ele>560.6</ele>
        <time>2021-12-27T17:27:36Z</time>
      </trkpt>
      <trkpt lat="37.6862660" lon="-4.0088130">
        <ele>560.4</ele>
        <time>2021-12-27T17:27:37Z</time>
      </trkpt>
      <trkpt lat="37.6862270" lon="-4.0087620">
        <ele>560.4</ele>
        <time>2021-12-27T17:27:38Z</time>
      </trkpt>
      <trkpt lat="37.6861820" lon="-4.0087080">
        <ele>560.2</ele>
        <time>2021-12-27T17:27:39Z</time>
      </trkpt>
      <trkpt lat="37.6861500" lon="-4.0086530">
        <ele>560.2</ele>
        <time>2021-12-27T17:27:40Z</time>
      </trkpt>
      <trkpt lat="37.6861120" lon="-4.0085980">
        <ele>560.2</ele>
        <time>2021-12-27T17:27:41Z</time>
      </trkpt>
      <trkpt lat="37.6860770" lon="-4.0085470">
        <ele>560.2</ele>
        <time>2021-12-27T17:27:42Z</time>
      </trkpt>
      <trkpt lat="37.6860480" lon="-4.0084950">
        <ele>560.0</ele>
        <time>2021-12-27T17:27:43Z</time>
      </trkpt>
      <trkpt lat="37.6860160" lon="-4.0084420">
        <ele>560.0</ele>
        <time>2021-12-27T17:27:44Z</time>
      </trkpt>
      <trkpt lat="37.6859840" lon="-4.0083880">
        <ele>559.8</ele>
        <time>2021-12-27T17:27:45Z</time>
      </trkpt>
      <trkpt lat="37.6859550" lon="-4.0083330">
        <ele>559.6</ele>
        <time>2021-12-27T17:27:46Z</time>
      </trkpt>
      <trkpt lat="37.6859300" lon="-4.0082780">
        <ele>559.6</ele>
        <time>2021-12-27T17:27:47Z</time>
      </trkpt>
      <trkpt lat="37.6858980" lon="-4.0082240">
        <ele>559.4</ele>
        <time>2021-12-27T17:27:48Z</time>
      </trkpt>
      <trkpt lat="37.6858690" lon="-4.0081680">
        <ele>559.4</ele>
        <time>2021-12-27T17:27:49Z</time>
      </trkpt>
      <trkpt lat="37.6858400" lon="-4.0081120">
        <ele>559.2</ele>
        <time>2021-12-27T17:27:50Z</time>
      </trkpt>
      <trkpt lat="37.6858110" lon="-4.0080530">
        <ele>559.2</ele>
        <time>2021-12-27T17:27:51Z</time>
      </trkpt>
      <trkpt lat="37.6857820" lon="-4.0079920">
        <ele>559.0</ele>
        <time>2021-12-27T17:27:52Z</time>
      </trkpt>
      <trkpt lat="37.6857570" lon="-4.0079300">
        <ele>558.8</ele>
        <time>2021-12-27T17:27:53Z</time>
      </trkpt>
      <trkpt lat="37.6857380" lon="-4.0078670">
        <ele>558.6</ele>
        <time>2021-12-27T17:27:54Z</time>
      </trkpt>
      <trkpt lat="37.6857150" lon="-4.0078050">
        <ele>558.4</ele>
        <time>2021-12-27T17:27:55Z</time>
      </trkpt>
      <trkpt lat="37.6856930" lon="-4.0077470">
        <ele>558.2</ele>
        <time>2021-12-27T17:27:56Z</time>
      </trkpt>
      <trkpt lat="37.6856700" lon="-4.0076920">
        <ele>558.2</ele>
        <time>2021-12-27T17:27:57Z</time>
      </trkpt>
      <trkpt lat="37.6856450" lon="-4.0076350">
        <ele>558.0</ele>
        <time>2021-12-27T17:27:58Z</time>
      </trkpt>
      <trkpt lat="37.6856220" lon="-4.0075750">
        <ele>557.8</ele>
        <time>2021-12-27T17:27:59Z</time>
      </trkpt>
      <trkpt lat="37.6856030" lon="-4.0075170">
        <ele>557.6</ele>
        <time>2021-12-27T17:28:00Z</time>
      </trkpt>
      <trkpt lat="37.6855900" lon="-4.0074570">
        <ele>557.6</ele>
        <time>2021-12-27T17:28:01Z</time>
      </trkpt>
      <trkpt lat="37.6855710" lon="-4.0073980">
        <ele>557.4</ele>
        <time>2021-12-27T17:28:02Z</time>
      </trkpt>
      <trkpt lat="37.6855460" lon="-4.0073400">
        <ele>557.2</ele>
        <time>2021-12-27T17:28:03Z</time>
      </trkpt>
      <trkpt lat="37.6855260" lon="-4.0072820">
        <ele>557.0</ele>
        <time>2021-12-27T17:28:04Z</time>
      </trkpt>
      <trkpt lat="37.6855070" lon="-4.0072230">
        <ele>556.8</ele>
        <time>2021-12-27T17:28:05Z</time>
      </trkpt>
      <trkpt lat="37.6854910" lon="-4.0071650">
        <ele>556.6</ele>
        <time>2021-12-27T17:28:06Z</time>
      </trkpt>
      <trkpt lat="37.6854660" lon="-4.0071080">
        <ele>556.4</ele>
        <time>2021-12-27T17:28:07Z</time>
      </trkpt>
      <trkpt lat="37.6854460" lon="-4.0070520">
        <ele>556.2</ele>
        <time>2021-12-27T17:28:08Z</time>
      </trkpt>
      <trkpt lat="37.6854270" lon="-4.0069950">
        <ele>556.0</ele>
        <time>2021-12-27T17:28:09Z</time>
      </trkpt>
      <trkpt lat="37.6854140" lon="-4.0069350">
        <ele>555.8</ele>
        <time>2021-12-27T17:28:10Z</time>
      </trkpt>
      <trkpt lat="37.6854020" lon="-4.0068860">
        <ele>555.8</ele>
        <time>2021-12-27T17:28:11Z</time>
      </trkpt>
      <trkpt lat="37.6853760" lon="-4.0068170">
        <ele>555.6</ele>
        <time>2021-12-27T17:28:12Z</time>
      </trkpt>
      <trkpt lat="37.6853600" lon="-4.0067580">
        <ele>555.4</ele>
        <time>2021-12-27T17:28:13Z</time>
      </trkpt>
      <trkpt lat="37.6853410" lon="-4.0067000">
        <ele>555.4</ele>
        <time>2021-12-27T17:28:14Z</time>
      </trkpt>
      <trkpt lat="37.6853280" lon="-4.0066550">
        <ele>555.2</ele>
        <time>2021-12-27T17:28:15Z</time>
      </trkpt>
      <trkpt lat="37.6853060" lon="-4.0065900">
        <ele>555.0</ele>
        <time>2021-12-27T17:28:16Z</time>
      </trkpt>
      <trkpt lat="37.6852960" lon="-4.0065330">
        <ele>555.0</ele>
        <time>2021-12-27T17:28:17Z</time>
      </trkpt>
      <trkpt lat="37.6852800" lon="-4.0064880">
        <ele>554.8</ele>
        <time>2021-12-27T17:28:18Z</time>
      </trkpt>
      <trkpt lat="37.6852580" lon="-4.0064220">
        <ele>554.8</ele>
        <time>2021-12-27T17:28:19Z</time>
      </trkpt>
      <trkpt lat="37.6852380" lon="-4.0063630">
        <ele>554.6</ele>
        <time>2021-12-27T17:28:20Z</time>
      </trkpt>
      <trkpt lat="37.6852190" lon="-4.0063030">
        <ele>554.4</ele>
        <time>2021-12-27T17:28:21Z</time>
      </trkpt>
      <trkpt lat="37.6852000" lon="-4.0062450">
        <ele>554.4</ele>
        <time>2021-12-27T17:28:22Z</time>
      </trkpt>
      <trkpt lat="37.6851780" lon="-4.0061860">
        <ele>554.2</ele>
        <time>2021-12-27T17:28:23Z</time>
      </trkpt>
      <trkpt lat="37.6851580" lon="-4.0061280">
        <ele>554.2</ele>
        <time>2021-12-27T17:28:24Z</time>
      </trkpt>
      <trkpt lat="37.6851390" lon="-4.0060700">
        <ele>554.2</ele>
        <time>2021-12-27T17:28:25Z</time>
      </trkpt>
      <trkpt lat="37.6851200" lon="-4.0060100">
        <ele>554.2</ele>
        <time>2021-12-27T17:28:26Z</time>
      </trkpt>
      <trkpt lat="37.6851040" lon="-4.0059630">
        <ele>554.2</ele>
        <time>2021-12-27T17:28:27Z</time>
      </trkpt>
      <trkpt lat="37.6850820" lon="-4.0058920">
        <ele>554.0</ele>
        <time>2021-12-27T17:28:28Z</time>
      </trkpt>
      <trkpt lat="37.6850620" lon="-4.0058350">
        <ele>554.0</ele>
        <time>2021-12-27T17:28:29Z</time>
      </trkpt>
      <trkpt lat="37.6850430" lon="-4.0057770">
        <ele>553.8</ele>
        <time>2021-12-27T17:28:30Z</time>
      </trkpt>
      <trkpt lat="37.6850240" lon="-4.0057200">
        <ele>553.6</ele>
        <time>2021-12-27T17:28:31Z</time>
      </trkpt>
      <trkpt lat="37.6850050" lon="-4.0056580">
        <ele>553.4</ele>
        <time>2021-12-27T17:28:32Z</time>
      </trkpt>
      <trkpt lat="37.6849820" lon="-4.0055980">
        <ele>553.2</ele>
        <time>2021-12-27T17:28:33Z</time>
      </trkpt>
      <trkpt lat="37.6849630" lon="-4.0055360">
        <ele>553.2</ele>
        <time>2021-12-27T17:28:34Z</time>
      </trkpt>
      <trkpt lat="37.6849440" lon="-4.0054760">
        <ele>553.0</ele>
        <time>2021-12-27T17:28:35Z</time>
      </trkpt>
      <trkpt lat="37.6849310" lon="-4.0054280">
        <ele>553.0</ele>
        <time>2021-12-27T17:28:36Z</time>
      </trkpt>
      <trkpt lat="37.6849060" lon="-4.0053550">
        <ele>552.8</ele>
        <time>2021-12-27T17:28:37Z</time>
      </trkpt>
      <trkpt lat="37.6848830" lon="-4.0052930">
        <ele>552.8</ele>
        <time>2021-12-27T17:28:38Z</time>
      </trkpt>
      <trkpt lat="37.6848640" lon="-4.0052280">
        <ele>552.6</ele>
        <time>2021-12-27T17:28:39Z</time>
      </trkpt>
      <trkpt lat="37.6848450" lon="-4.0051630">
        <ele>552.6</ele>
        <time>2021-12-27T17:28:40Z</time>
      </trkpt>
      <trkpt lat="37.6848190" lon="-4.0050980">
        <ele>552.4</ele>
        <time>2021-12-27T17:28:41Z</time>
      </trkpt>
      <trkpt lat="37.6848000" lon="-4.0050340">
        <ele>552.4</ele>
        <time>2021-12-27T17:28:42Z</time>
      </trkpt>
      <trkpt lat="37.6847780" lon="-4.0049680">
        <ele>552.2</ele>
        <time>2021-12-27T17:28:43Z</time>
      </trkpt>
      <trkpt lat="37.6847520" lon="-4.0049050">
        <ele>552.2</ele>
        <time>2021-12-27T17:28:44Z</time>
      </trkpt>
      <trkpt lat="37.6847300" lon="-4.0048380">
        <ele>552.2</ele>
        <time>2021-12-27T17:28:45Z</time>
      </trkpt>
      <trkpt lat="37.6847070" lon="-4.0047730">
        <ele>552.0</ele>
        <time>2021-12-27T17:28:46Z</time>
      </trkpt>
      <trkpt lat="37.6846850" lon="-4.0047100">
        <ele>552.0</ele>
        <time>2021-12-27T17:28:47Z</time>
      </trkpt>
      <trkpt lat="37.6846690" lon="-4.0046600">
        <ele>551.8</ele>
        <time>2021-12-27T17:28:48Z</time>
      </trkpt>
      <trkpt lat="37.6846460" lon="-4.0045830">
        <ele>551.8</ele>
        <time>2021-12-27T17:28:49Z</time>
      </trkpt>
      <trkpt lat="37.6846270" lon="-4.0045200">
        <ele>551.6</ele>
        <time>2021-12-27T17:28:50Z</time>
      </trkpt>
      <trkpt lat="37.6846080" lon="-4.0044580">
        <ele>551.4</ele>
        <time>2021-12-27T17:28:51Z</time>
      </trkpt>
      <trkpt lat="37.6845860" lon="-4.0043960">
        <ele>551.4</ele>
        <time>2021-12-27T17:28:52Z</time>
      </trkpt>
      <trkpt lat="37.6845630" lon="-4.0043350">
        <ele>551.2</ele>
        <time>2021-12-27T17:28:53Z</time>
      </trkpt>
      <trkpt lat="37.6845410" lon="-4.0042720">
        <ele>551.2</ele>
        <time>2021-12-27T17:28:54Z</time>
      </trkpt>
      <trkpt lat="37.6845220" lon="-4.0042100">
        <ele>551.0</ele>
        <time>2021-12-27T17:28:55Z</time>
      </trkpt>
      <trkpt lat="37.6845020" lon="-4.0041480">
        <ele>551.0</ele>
        <time>2021-12-27T17:28:56Z</time>
      </trkpt>
      <trkpt lat="37.6844860" lon="-4.0040880">
        <ele>550.8</ele>
        <time>2021-12-27T17:28:57Z</time>
      </trkpt>
      <trkpt lat="37.6844640" lon="-4.0040300">
        <ele>550.6</ele>
        <time>2021-12-27T17:28:58Z</time>
      </trkpt>
      <trkpt lat="37.6844480" lon="-4.0039720">
        <ele>550.6</ele>
        <time>2021-12-27T17:28:59Z</time>
      </trkpt>
      <trkpt lat="37.6844260" lon="-4.0039120">
        <ele>550.4</ele>
        <time>2021-12-27T17:29:00Z</time>
      </trkpt>
      <trkpt lat="37.6844100" lon="-4.0038520">
        <ele>550.2</ele>
        <time>2021-12-27T17:29:01Z</time>
      </trkpt>
      <trkpt lat="37.6843870" lon="-4.0037930">
        <ele>550.2</ele>
        <time>2021-12-27T17:29:02Z</time>
      </trkpt>
      <trkpt lat="37.6843680" lon="-4.0037360">
        <ele>550.0</ele>
        <time>2021-12-27T17:29:03Z</time>
      </trkpt>
      <trkpt lat="37.6843490" lon="-4.0036800">
        <ele>550.0</ele>
        <time>2021-12-27T17:29:04Z</time>
      </trkpt>
      <trkpt lat="37.6843300" lon="-4.0036240">
        <ele>549.8</ele>
        <time>2021-12-27T17:29:05Z</time>
      </trkpt>
      <trkpt lat="37.6843100" lon="-4.0035670">
        <ele>549.8</ele>
        <time>2021-12-27T17:29:06Z</time>
      </trkpt>
      <trkpt lat="37.6842910" lon="-4.0035080">
        <ele>549.6</ele>
        <time>2021-12-27T17:29:07Z</time>
      </trkpt>
      <trkpt lat="37.6842720" lon="-4.0034520">
        <ele>549.6</ele>
        <time>2021-12-27T17:29:08Z</time>
      </trkpt>
      <trkpt lat="37.6842530" lon="-4.0033930">
        <ele>549.4</ele>
        <time>2021-12-27T17:29:09Z</time>
      </trkpt>
      <trkpt lat="37.6842340" lon="-4.0033350">
        <ele>549.2</ele>
        <time>2021-12-27T17:29:10Z</time>
      </trkpt>
      <trkpt lat="37.6842140" lon="-4.0032770">
        <ele>549.2</ele>
        <time>2021-12-27T17:29:11Z</time>
      </trkpt>
      <trkpt lat="37.6841950" lon="-4.0032170">
        <ele>549.0</ele>
        <time>2021-12-27T17:29:12Z</time>
      </trkpt>
      <trkpt lat="37.6841760" lon="-4.0031580">
        <ele>549.0</ele>
        <time>2021-12-27T17:29:13Z</time>
      </trkpt>
      <trkpt lat="37.6841570" lon="-4.0031000">
        <ele>548.8</ele>
        <time>2021-12-27T17:29:14Z</time>
      </trkpt>
      <trkpt lat="37.6841410" lon="-4.0030430">
        <ele>548.8</ele>
        <time>2021-12-27T17:29:15Z</time>
      </trkpt>
      <trkpt lat="37.6841220" lon="-4.0029860">
        <ele>548.6</ele>
        <time>2021-12-27T17:29:16Z</time>
      </trkpt>
      <trkpt lat="37.6841020" lon="-4.0029280">
        <ele>548.4</ele>
        <time>2021-12-27T17:29:17Z</time>
      </trkpt>
      <trkpt lat="37.6840830" lon="-4.0028700">
        <ele>548.4</ele>
        <time>2021-12-27T17:29:18Z</time>
      </trkpt>
      <trkpt lat="37.6840670" lon="-4.0028120">
        <ele>548.2</ele>
        <time>2021-12-27T17:29:19Z</time>
      </trkpt>
      <trkpt lat="37.6840480" lon="-4.0027550">
        <ele>548.0</ele>
        <time>2021-12-27T17:29:20Z</time>
      </trkpt>
      <trkpt lat="37.6840290" lon="-4.0026960">
        <ele>548.0</ele>
        <time>2021-12-27T17:29:21Z</time>
      </trkpt>
      <trkpt lat="37.6840100" lon="-4.0026530">
        <ele>547.8</ele>
        <time>2021-12-27T17:29:22Z</time>
      </trkpt>
      <trkpt lat="37.6839840" lon="-4.0025870">
        <ele>547.8</ele>
        <time>2021-12-27T17:29:23Z</time>
      </trkpt>
      <trkpt lat="37.6839650" lon="-4.0025300">
        <ele>547.6</ele>
        <time>2021-12-27T17:29:24Z</time>
      </trkpt>
      <trkpt lat="37.6839490" lon="-4.0024730">
        <ele>547.6</ele>
        <time>2021-12-27T17:29:25Z</time>
      </trkpt>
      <trkpt lat="37.6839300" lon="-4.0024180">
        <ele>547.4</ele>
        <time>2021-12-27T17:29:26Z</time>
      </trkpt>
      <trkpt lat="37.6839100" lon="-4.0023730">
        <ele>547.4</ele>
        <time>2021-12-27T17:29:27Z</time>
      </trkpt>
      <trkpt lat="37.6838910" lon="-4.0023050">
        <ele>547.2</ele>
        <time>2021-12-27T17:29:28Z</time>
      </trkpt>
      <trkpt lat="37.6838720" lon="-4.0022480">
        <ele>547.0</ele>
        <time>2021-12-27T17:29:29Z</time>
      </trkpt>
      <trkpt lat="37.6838530" lon="-4.0021880">
        <ele>546.8</ele>
        <time>2021-12-27T17:29:30Z</time>
      </trkpt>
      <trkpt lat="37.6838430" lon="-4.0021430">
        <ele>546.6</ele>
        <time>2021-12-27T17:29:31Z</time>
      </trkpt>
      <trkpt lat="37.6838240" lon="-4.0020880">
        <ele>546.6</ele>
        <time>2021-12-27T17:29:32Z</time>
      </trkpt>
      <trkpt lat="37.6837980" lon="-4.0020230">
        <ele>546.4</ele>
        <time>2021-12-27T17:29:33Z</time>
      </trkpt>
      <trkpt lat="37.6837890" lon="-4.0019820">
        <ele>546.4</ele>
        <time>2021-12-27T17:29:34Z</time>
      </trkpt>
      <trkpt lat="37.6837660" lon="-4.0019170">
        <ele>546.4</ele>
        <time>2021-12-27T17:29:35Z</time>
      </trkpt>
      <trkpt lat="37.6837500" lon="-4.0018740">
        <ele>546.4</ele>
        <time>2021-12-27T17:29:36Z</time>
      </trkpt>
      <trkpt lat="37.6837280" lon="-4.0018070">
        <ele>546.2</ele>
        <time>2021-12-27T17:29:37Z</time>
      </trkpt>
      <trkpt lat="37.6837090" lon="-4.0017520">
        <ele>546.2</ele>
        <time>2021-12-27T17:29:38Z</time>
      </trkpt>
      <trkpt lat="37.6836930" lon="-4.0017080">
        <ele>546.2</ele>
        <time>2021-12-27T17:29:39Z</time>
      </trkpt>
      <trkpt lat="37.6836740" lon="-4.0016530">
        <ele>546.0</ele>
        <time>2021-12-27T17:29:40Z</time>
      </trkpt>
      <trkpt lat="37.6836540" lon="-4.0015980">
        <ele>545.8</ele>
        <time>2021-12-27T17:29:41Z</time>
      </trkpt>
      <trkpt lat="37.6836350" lon="-4.0015300">
        <ele>545.6</ele>
        <time>2021-12-27T17:29:42Z</time>
      </trkpt>
      <trkpt lat="37.6836160" lon="-4.0014740">
        <ele>545.4</ele>
        <time>2021-12-27T17:29:43Z</time>
      </trkpt>
      <trkpt lat="37.6835970" lon="-4.0014170">
        <ele>545.4</ele>
        <time>2021-12-27T17:29:44Z</time>
      </trkpt>
      <trkpt lat="37.6835810" lon="-4.0013600">
        <ele>545.2</ele>
        <time>2021-12-27T17:29:45Z</time>
      </trkpt>
      <trkpt lat="37.6835650" lon="-4.0013050">
        <ele>545.0</ele>
        <time>2021-12-27T17:29:46Z</time>
      </trkpt>
      <trkpt lat="37.6835390" lon="-4.0012500">
        <ele>545.0</ele>
        <time>2021-12-27T17:29:47Z</time>
      </trkpt>
      <trkpt lat="37.6835200" lon="-4.0011950">
        <ele>545.0</ele>
        <time>2021-12-27T17:29:48Z</time>
      </trkpt>
      <trkpt lat="37.6835070" lon="-4.0011380">
        <ele>545.0</ele>
        <time>2021-12-27T17:29:49Z</time>
      </trkpt>
      <trkpt lat="37.6834910" lon="-4.0010930">
        <ele>544.8</ele>
        <time>2021-12-27T17:29:50Z</time>
      </trkpt>
      <trkpt lat="37.6834720" lon="-4.0010270">
        <ele>544.8</ele>
        <time>2021-12-27T17:29:51Z</time>
      </trkpt>
      <trkpt lat="37.6834560" lon="-4.0009820">
        <ele>544.8</ele>
        <time>2021-12-27T17:29:52Z</time>
      </trkpt>
      <trkpt lat="37.6834370" lon="-4.0009130">
        <ele>544.8</ele>
        <time>2021-12-27T17:29:53Z</time>
      </trkpt>
      <trkpt lat="37.6834180" lon="-4.0008550">
        <ele>544.8</ele>
        <time>2021-12-27T17:29:54Z</time>
      </trkpt>
      <trkpt lat="37.6834020" lon="-4.0008100">
        <ele>544.8</ele>
        <time>2021-12-27T17:29:55Z</time>
      </trkpt>
      <trkpt lat="37.6833820" lon="-4.0007420">
        <ele>544.8</ele>
        <time>2021-12-27T17:29:56Z</time>
      </trkpt>
      <trkpt lat="37.6833660" lon="-4.0006980">
        <ele>544.8</ele>
        <time>2021-12-27T17:29:57Z</time>
      </trkpt>
      <trkpt lat="37.6833470" lon="-4.0006320">
        <ele>544.6</ele>
        <time>2021-12-27T17:29:58Z</time>
      </trkpt>
      <trkpt lat="37.6833310" lon="-4.0005900">
        <ele>544.6</ele>
        <time>2021-12-27T17:29:59Z</time>
      </trkpt>
      <trkpt lat="37.6833020" lon="-4.0005120">
        <ele>544.6</ele>
        <time>2021-12-27T17:30:00Z</time>
      </trkpt>
      <trkpt lat="37.6832930" lon="-4.0004850">
        <ele>544.2</ele>
        <time>2021-12-27T17:30:01Z</time>
      </trkpt>
      <trkpt lat="37.6832740" lon="-4.0004250">
        <ele>544.2</ele>
        <time>2021-12-27T17:30:02Z</time>
      </trkpt>
      <trkpt lat="37.6832610" lon="-4.0003770">
        <ele>544.2</ele>
        <time>2021-12-27T17:30:03Z</time>
      </trkpt>
      <trkpt lat="37.6832510" lon="-4.0003380">
        <ele>544.2</ele>
        <time>2021-12-27T17:30:04Z</time>
      </trkpt>
      <trkpt lat="37.6832350" lon="-4.0002900">
        <ele>544.0</ele>
        <time>2021-12-27T17:30:05Z</time>
      </trkpt>
      <trkpt lat="37.6832160" lon="-4.0002330">
        <ele>544.0</ele>
        <time>2021-12-27T17:30:06Z</time>
      </trkpt>
      <trkpt lat="37.6832000" lon="-4.0001860">
        <ele>544.0</ele>
        <time>2021-12-27T17:30:07Z</time>
      </trkpt>
      <trkpt lat="37.6831810" lon="-4.0001400">
        <ele>543.8</ele>
        <time>2021-12-27T17:30:08Z</time>
      </trkpt>
      <trkpt lat="37.6831620" lon="-4.0000950">
        <ele>543.6</ele>
        <time>2021-12-27T17:30:09Z</time>
      </trkpt>
      <trkpt lat="37.6831420" lon="-4.0000500">
        <ele>543.4</ele>
        <time>2021-12-27T17:30:10Z</time>
      </trkpt>
      <trkpt lat="37.6831330" lon="-4.0000130">
        <ele>543.4</ele>
        <time>2021-12-27T17:30:11Z</time>
      </trkpt>
      <trkpt lat="37.6831140" lon="-3.9999700">
        <ele>543.2</ele>
        <time>2021-12-27T17:30:12Z</time>
      </trkpt>
      <trkpt lat="37.6830980" lon="-3.9999260">
        <ele>543.0</ele>
        <time>2021-12-27T17:30:13Z</time>
      </trkpt>
      <trkpt lat="37.6830750" lon="-3.9998750">
        <ele>543.0</ele>
        <time>2021-12-27T17:30:14Z</time>
      </trkpt>
      <trkpt lat="37.6830560" lon="-3.9998330">
        <ele>542.8</ele>
        <time>2021-12-27T17:30:15Z</time>
      </trkpt>
      <trkpt lat="37.6830370" lon="-3.9997920">
        <ele>542.6</ele>
        <time>2021-12-27T17:30:16Z</time>
      </trkpt>
      <trkpt lat="37.6830140" lon="-3.9997480">
        <ele>542.6</ele>
        <time>2021-12-27T17:30:17Z</time>
      </trkpt>
      <trkpt lat="37.6829950" lon="-3.9997050">
        <ele>542.6</ele>
        <time>2021-12-27T17:30:18Z</time>
      </trkpt>
      <trkpt lat="37.6829760" lon="-3.9996600">
        <ele>542.4</ele>
        <time>2021-12-27T17:30:19Z</time>
      </trkpt>
      <trkpt lat="37.6829570" lon="-3.9996250">
        <ele>542.4</ele>
        <time>2021-12-27T17:30:20Z</time>
      </trkpt>
      <trkpt lat="37.6829310" lon="-3.9995720">
        <ele>542.4</ele>
        <time>2021-12-27T17:30:21Z</time>
      </trkpt>
      <trkpt lat="37.6829150" lon="-3.9995350">
        <ele>542.4</ele>
        <time>2021-12-27T17:30:22Z</time>
      </trkpt>
      <trkpt lat="37.6828930" lon="-3.9994920">
        <ele>542.2</ele>
        <time>2021-12-27T17:30:23Z</time>
      </trkpt>
      <trkpt lat="37.6828640" lon="-3.9994400">
        <ele>542.2</ele>
        <time>2021-12-27T17:30:24Z</time>
      </trkpt>
      <trkpt lat="37.6828450" lon="-3.9994020">
        <ele>542.0</ele>
        <time>2021-12-27T17:30:25Z</time>
      </trkpt>
      <trkpt lat="37.6828220" lon="-3.9993620">
        <ele>542.0</ele>
        <time>2021-12-27T17:30:26Z</time>
      </trkpt>
      <trkpt lat="37.6828000" lon="-3.9993230">
        <ele>542.0</ele>
        <time>2021-12-27T17:30:27Z</time>
      </trkpt>
      <trkpt lat="37.6827810" lon="-3.9992920">
        <ele>541.8</ele>
        <time>2021-12-27T17:30:28Z</time>
      </trkpt>
      <trkpt lat="37.6827550" lon="-3.9992530">
        <ele>541.8</ele>
        <time>2021-12-27T17:30:29Z</time>
      </trkpt>
      <trkpt lat="37.6827260" lon="-3.9992060">
        <ele>541.6</ele>
        <time>2021-12-27T17:30:30Z</time>
      </trkpt>
      <trkpt lat="37.6827070" lon="-3.9991750">
        <ele>541.6</ele>
        <time>2021-12-27T17:30:31Z</time>
      </trkpt>
      <trkpt lat="37.6826780" lon="-3.9991320">
        <ele>541.6</ele>
        <time>2021-12-27T17:30:32Z</time>
      </trkpt>
      <trkpt lat="37.6826560" lon="-3.9990970">
        <ele>541.6</ele>
        <time>2021-12-27T17:30:33Z</time>
      </trkpt>
      <trkpt lat="37.6826370" lon="-3.9990620">
        <ele>541.6</ele>
        <time>2021-12-27T17:30:34Z</time>
      </trkpt>
      <trkpt lat="37.6826140" lon="-3.9990280">
        <ele>541.6</ele>
        <time>2021-12-27T17:30:35Z</time>
      </trkpt>
      <trkpt lat="37.6825920" lon="-3.9989970">
        <ele>541.6</ele>
        <time>2021-12-27T17:30:36Z</time>
      </trkpt>
      <trkpt lat="37.6825630" lon="-3.9989630">
        <ele>541.4</ele>
        <time>2021-12-27T17:30:37Z</time>
      </trkpt>
      <trkpt lat="37.6825470" lon="-3.9989380">
        <ele>541.4</ele>
        <time>2021-12-27T17:30:38Z</time>
      </trkpt>
      <trkpt lat="37.6825220" lon="-3.9989050">
        <ele>541.4</ele>
        <time>2021-12-27T17:30:39Z</time>
      </trkpt>
      <trkpt lat="37.6824960" lon="-3.9988700">
        <ele>541.4</ele>
        <time>2021-12-27T17:30:40Z</time>
      </trkpt>
      <trkpt lat="37.6824670" lon="-3.9988350">
        <ele>541.6</ele>
        <time>2021-12-27T17:30:41Z</time>
      </trkpt>
      <trkpt lat="37.6824290" lon="-3.9987920">
        <ele>541.6</ele>
        <time>2021-12-27T17:30:42Z</time>
      </trkpt>
      <trkpt lat="37.6824030" lon="-3.9987650">
        <ele>541.6</ele>
        <time>2021-12-27T17:30:43Z</time>
      </trkpt>
      <trkpt lat="37.6823740" lon="-3.9987320">
        <ele>541.6</ele>
        <time>2021-12-27T17:30:44Z</time>
      </trkpt>
      <trkpt lat="37.6823420" lon="-3.9986970">
        <ele>541.6</ele>
        <time>2021-12-27T17:30:45Z</time>
      </trkpt>
      <trkpt lat="37.6823140" lon="-3.9986620">
        <ele>541.6</ele>
        <time>2021-12-27T17:30:46Z</time>
      </trkpt>
      <trkpt lat="37.6822820" lon="-3.9986230">
        <ele>541.6</ele>
        <time>2021-12-27T17:30:47Z</time>
      </trkpt>
      <trkpt lat="37.6822500" lon="-3.9985880">
        <ele>541.6</ele>
        <time>2021-12-27T17:30:48Z</time>
      </trkpt>
      <trkpt lat="37.6822180" lon="-3.9985550">
        <ele>541.6</ele>
        <time>2021-12-27T17:30:49Z</time>
      </trkpt>
      <trkpt lat="37.6821890" lon="-3.9985230">
        <ele>541.4</ele>
        <time>2021-12-27T17:30:50Z</time>
      </trkpt>
      <trkpt lat="37.6821570" lon="-3.9984920">
        <ele>541.4</ele>
        <time>2021-12-27T17:30:51Z</time>
      </trkpt>
      <trkpt lat="37.6821250" lon="-3.9984620">
        <ele>541.4</ele>
        <time>2021-12-27T17:30:52Z</time>
      </trkpt>
      <trkpt lat="37.6820990" lon="-3.9984320">
        <ele>541.4</ele>
        <time>2021-12-27T17:30:53Z</time>
      </trkpt>
      <trkpt lat="37.6820670" lon="-3.9984050">
        <ele>541.2</ele>
        <time>2021-12-27T17:30:54Z</time>
      </trkpt>
      <trkpt lat="37.6820420" lon="-3.9983750">
        <ele>541.2</ele>
        <time>2021-12-27T17:30:55Z</time>
      </trkpt>
      <trkpt lat="37.6820160" lon="-3.9983470">
        <ele>541.2</ele>
        <time>2021-12-27T17:30:56Z</time>
      </trkpt>
      <trkpt lat="37.6819870" lon="-3.9983220">
        <ele>541.2</ele>
        <time>2021-12-27T17:30:57Z</time>
      </trkpt>
      <trkpt lat="37.6819580" lon="-3.9982950">
        <ele>541.0</ele>
        <time>2021-12-27T17:30:58Z</time>
      </trkpt>
      <trkpt lat="37.6819300" lon="-3.9982680">
        <ele>541.0</ele>
        <time>2021-12-27T17:30:59Z</time>
      </trkpt>
      <trkpt lat="37.6819040" lon="-3.9982400">
        <ele>541.0</ele>
        <time>2021-12-27T17:31:00Z</time>
      </trkpt>
      <trkpt lat="37.6818820" lon="-3.9982170">
        <ele>540.8</ele>
        <time>2021-12-27T17:31:01Z</time>
      </trkpt>
      <trkpt lat="37.6818590" lon="-3.9981970">
        <ele>540.8</ele>
        <time>2021-12-27T17:31:02Z</time>
      </trkpt>
      <trkpt lat="37.6818340" lon="-3.9981820">
        <ele>540.6</ele>
        <time>2021-12-27T17:31:03Z</time>
      </trkpt>
      <trkpt lat="37.6818180" lon="-3.9981660">
        <ele>540.6</ele>
        <time>2021-12-27T17:31:04Z</time>
      </trkpt>
      <trkpt lat="37.6817920" lon="-3.9981560">
        <ele>540.6</ele>
        <time>2021-12-27T17:31:05Z</time>
      </trkpt>
      <trkpt lat="37.6817700" lon="-3.9981460">
        <ele>540.6</ele>
        <time>2021-12-27T17:31:06Z</time>
      </trkpt>
      <trkpt lat="37.6817470" lon="-3.9981300">
        <ele>540.6</ele>
        <time>2021-12-27T17:31:07Z</time>
      </trkpt>
      <trkpt lat="37.6817250" lon="-3.9981150">
        <ele>540.6</ele>
        <time>2021-12-27T17:31:08Z</time>
      </trkpt>
      <trkpt lat="37.6816990" lon="-3.9980970">
        <ele>540.6</ele>
        <time>2021-12-27T17:31:09Z</time>
      </trkpt>
      <trkpt lat="37.6816700" lon="-3.9980770">
        <ele>540.6</ele>
        <time>2021-12-27T17:31:10Z</time>
      </trkpt>
      <trkpt lat="37.6816450" lon="-3.9980570">
        <ele>540.6</ele>
        <time>2021-12-27T17:31:11Z</time>
      </trkpt>
      <trkpt lat="37.6816100" lon="-3.9980370">
        <ele>540.6</ele>
        <time>2021-12-27T17:31:12Z</time>
      </trkpt>
      <trkpt lat="37.6815810" lon="-3.9980160">
        <ele>540.6</ele>
        <time>2021-12-27T17:31:13Z</time>
      </trkpt>
      <trkpt lat="37.6815460" lon="-3.9979940">
        <ele>540.6</ele>
        <time>2021-12-27T17:31:14Z</time>
      </trkpt>
      <trkpt lat="37.6815100" lon="-3.9979720">
        <ele>540.6</ele>
        <time>2021-12-27T17:31:15Z</time>
      </trkpt>
      <trkpt lat="37.6814720" lon="-3.9979500">
        <ele>540.6</ele>
        <time>2021-12-27T17:31:16Z</time>
      </trkpt>
      <trkpt lat="37.6814400" lon="-3.9979320">
        <ele>540.6</ele>
        <time>2021-12-27T17:31:17Z</time>
      </trkpt>
      <trkpt lat="37.6814020" lon="-3.9979120">
        <ele>540.6</ele>
        <time>2021-12-27T17:31:18Z</time>
      </trkpt>
      <trkpt lat="37.6813660" lon="-3.9978900">
        <ele>540.4</ele>
        <time>2021-12-27T17:31:19Z</time>
      </trkpt>
      <trkpt lat="37.6813250" lon="-3.9978680">
        <ele>540.4</ele>
        <time>2021-12-27T17:31:20Z</time>
      </trkpt>
      <trkpt lat="37.6812900" lon="-3.9978470">
        <ele>540.2</ele>
        <time>2021-12-27T17:31:21Z</time>
      </trkpt>
      <trkpt lat="37.6812510" lon="-3.9978250">
        <ele>540.2</ele>
        <time>2021-12-27T17:31:22Z</time>
      </trkpt>
      <trkpt lat="37.6812130" lon="-3.9978030">
        <ele>540.2</ele>
        <time>2021-12-27T17:31:23Z</time>
      </trkpt>
      <trkpt lat="37.6811740" lon="-3.9977820">
        <ele>540.0</ele>
        <time>2021-12-27T17:31:24Z</time>
      </trkpt>
      <trkpt lat="37.6811330" lon="-3.9977620">
        <ele>540.0</ele>
        <time>2021-12-27T17:31:25Z</time>
      </trkpt>
      <trkpt lat="37.6810880" lon="-3.9977430">
        <ele>540.0</ele>
        <time>2021-12-27T17:31:26Z</time>
      </trkpt>
      <trkpt lat="37.6810460" lon="-3.9977250">
        <ele>540.0</ele>
        <time>2021-12-27T17:31:27Z</time>
      </trkpt>
      <trkpt lat="37.6810050" lon="-3.9977070">
        <ele>540.0</ele>
        <time>2021-12-27T17:31:28Z</time>
      </trkpt>
      <trkpt lat="37.6809630" lon="-3.9976880">
        <ele>540.0</ele>
        <time>2021-12-27T17:31:29Z</time>
      </trkpt>
      <trkpt lat="37.6809180" lon="-3.9976720">
        <ele>540.0</ele>
        <time>2021-12-27T17:31:30Z</time>
      </trkpt>
      <trkpt lat="37.6808770" lon="-3.9976580">
        <ele>540.0</ele>
        <time>2021-12-27T17:31:31Z</time>
      </trkpt>
      <trkpt lat="37.6808320" lon="-3.9976440">
        <ele>540.0</ele>
        <time>2021-12-27T17:31:32Z</time>
      </trkpt>
      <trkpt lat="37.6807940" lon="-3.9976320">
        <ele>540.2</ele>
        <time>2021-12-27T17:31:33Z</time>
      </trkpt>
      <trkpt lat="37.6807520" lon="-3.9976180">
        <ele>540.2</ele>
        <time>2021-12-27T17:31:34Z</time>
      </trkpt>
      <trkpt lat="37.6807100" lon="-3.9976050">
        <ele>540.0</ele>
        <time>2021-12-27T17:31:35Z</time>
      </trkpt>
      <trkpt lat="37.6806750" lon="-3.9975940">
        <ele>540.0</ele>
        <time>2021-12-27T17:31:36Z</time>
      </trkpt>
      <trkpt lat="37.6806370" lon="-3.9975800">
        <ele>540.0</ele>
        <time>2021-12-27T17:31:37Z</time>
      </trkpt>
      <trkpt lat="37.6805950" lon="-3.9975680">
        <ele>540.0</ele>
        <time>2021-12-27T17:31:38Z</time>
      </trkpt>
      <trkpt lat="37.6805540" lon="-3.9975580">
        <ele>540.0</ele>
        <time>2021-12-27T17:31:39Z</time>
      </trkpt>
      <trkpt lat="37.6805120" lon="-3.9975480">
        <ele>539.8</ele>
        <time>2021-12-27T17:31:40Z</time>
      </trkpt>
      <trkpt lat="37.6804700" lon="-3.9975380">
        <ele>539.8</ele>
        <time>2021-12-27T17:31:41Z</time>
      </trkpt>
      <trkpt lat="37.6804290" lon="-3.9975320">
        <ele>539.8</ele>
        <time>2021-12-27T17:31:42Z</time>
      </trkpt>
      <trkpt lat="37.6803840" lon="-3.9975250">
        <ele>539.6</ele>
        <time>2021-12-27T17:31:43Z</time>
      </trkpt>
      <trkpt lat="37.6803390" lon="-3.9975170">
        <ele>539.6</ele>
        <time>2021-12-27T17:31:44Z</time>
      </trkpt>
      <trkpt lat="37.6803010" lon="-3.9975120">
        <ele>539.6</ele>
        <time>2021-12-27T17:31:45Z</time>
      </trkpt>
      <trkpt lat="37.6802560" lon="-3.9975070">
        <ele>539.4</ele>
        <time>2021-12-27T17:31:46Z</time>
      </trkpt>
      <trkpt lat="37.6802180" lon="-3.9975000">
        <ele>539.4</ele>
        <time>2021-12-27T17:31:47Z</time>
      </trkpt>
      <trkpt lat="37.6801760" lon="-3.9974970">
        <ele>539.4</ele>
        <time>2021-12-27T17:31:48Z</time>
      </trkpt>
      <trkpt lat="37.6801340" lon="-3.9974930">
        <ele>539.4</ele>
        <time>2021-12-27T17:31:49Z</time>
      </trkpt>
      <trkpt lat="37.6800990" lon="-3.9974920">
        <ele>539.4</ele>
        <time>2021-12-27T17:31:50Z</time>
      </trkpt>
      <trkpt lat="37.6800580" lon="-3.9974860">
        <ele>539.2</ele>
        <time>2021-12-27T17:31:51Z</time>
      </trkpt>
      <trkpt lat="37.6800160" lon="-3.9974820">
        <ele>539.2</ele>
        <time>2021-12-27T17:31:52Z</time>
      </trkpt>
      <trkpt lat="37.6799740" lon="-3.9974830">
        <ele>539.2</ele>
        <time>2021-12-27T17:31:53Z</time>
      </trkpt>
      <trkpt lat="37.6799330" lon="-3.9974850">
        <ele>539.2</ele>
        <time>2021-12-27T17:31:54Z</time>
      </trkpt>
      <trkpt lat="37.6798850" lon="-3.9974860">
        <ele>539.2</ele>
        <time>2021-12-27T17:31:55Z</time>
      </trkpt>
      <trkpt lat="37.6798400" lon="-3.9974880">
        <ele>539.0</ele>
        <time>2021-12-27T17:31:56Z</time>
      </trkpt>
      <trkpt lat="37.6797980" lon="-3.9974860">
        <ele>539.0</ele>
        <time>2021-12-27T17:31:57Z</time>
      </trkpt>
      <trkpt lat="37.6797540" lon="-3.9974850">
        <ele>539.0</ele>
        <time>2021-12-27T17:31:58Z</time>
      </trkpt>
      <trkpt lat="37.6797090" lon="-3.9974850">
        <ele>538.8</ele>
        <time>2021-12-27T17:31:59Z</time>
      </trkpt>
      <trkpt lat="37.6796670" lon="-3.9974880">
        <ele>538.8</ele>
        <time>2021-12-27T17:32:00Z</time>
      </trkpt>
      <trkpt lat="37.6796290" lon="-3.9974950">
        <ele>538.8</ele>
        <time>2021-12-27T17:32:01Z</time>
      </trkpt>
      <trkpt lat="37.6795940" lon="-3.9975020">
        <ele>538.8</ele>
        <time>2021-12-27T17:32:02Z</time>
      </trkpt>
      <trkpt lat="37.6795490" lon="-3.9975050">
        <ele>538.6</ele>
        <time>2021-12-27T17:32:03Z</time>
      </trkpt>
      <trkpt lat="37.6795140" lon="-3.9975120">
        <ele>538.6</ele>
        <time>2021-12-27T17:32:04Z</time>
      </trkpt>
      <trkpt lat="37.6794750" lon="-3.9975200">
        <ele>538.6</ele>
        <time>2021-12-27T17:32:05Z</time>
      </trkpt>
      <trkpt lat="37.6794300" lon="-3.9975270">
        <ele>538.6</ele>
        <time>2021-12-27T17:32:06Z</time>
      </trkpt>
      <trkpt lat="37.6793890" lon="-3.9975320">
        <ele>538.6</ele>
        <time>2021-12-27T17:32:07Z</time>
      </trkpt>
      <trkpt lat="37.6793500" lon="-3.9975380">
        <ele>538.6</ele>
        <time>2021-12-27T17:32:08Z</time>
      </trkpt>
      <trkpt lat="37.6793090" lon="-3.9975470">
        <ele>538.6</ele>
        <time>2021-12-27T17:32:09Z</time>
      </trkpt>
      <trkpt lat="37.6792670" lon="-3.9975570">
        <ele>538.6</ele>
        <time>2021-12-27T17:32:10Z</time>
      </trkpt>
      <trkpt lat="37.6792220" lon="-3.9975680">
        <ele>538.6</ele>
        <time>2021-12-27T17:32:11Z</time>
      </trkpt>
      <trkpt lat="37.6791810" lon="-3.9975780">
        <ele>538.4</ele>
        <time>2021-12-27T17:32:12Z</time>
      </trkpt>
      <trkpt lat="37.6791330" lon="-3.9975900">
        <ele>538.4</ele>
        <time>2021-12-27T17:32:13Z</time>
      </trkpt>
      <trkpt lat="37.6790850" lon="-3.9976000">
        <ele>538.2</ele>
        <time>2021-12-27T17:32:14Z</time>
      </trkpt>
      <trkpt lat="37.6790400" lon="-3.9976120">
        <ele>538.2</ele>
        <time>2021-12-27T17:32:15Z</time>
      </trkpt>
      <trkpt lat="37.6789920" lon="-3.9976250">
        <ele>538.0</ele>
        <time>2021-12-27T17:32:16Z</time>
      </trkpt>
      <trkpt lat="37.6789440" lon="-3.9976400">
        <ele>538.0</ele>
        <time>2021-12-27T17:32:17Z</time>
      </trkpt>
      <trkpt lat="37.6788930" lon="-3.9976580">
        <ele>537.8</ele>
        <time>2021-12-27T17:32:18Z</time>
      </trkpt>
      <trkpt lat="37.6788480" lon="-3.9976770">
        <ele>537.8</ele>
        <time>2021-12-27T17:32:19Z</time>
      </trkpt>
      <trkpt lat="37.6788000" lon="-3.9976950">
        <ele>537.6</ele>
        <time>2021-12-27T17:32:20Z</time>
      </trkpt>
      <trkpt lat="37.6787520" lon="-3.9977150">
        <ele>537.6</ele>
        <time>2021-12-27T17:32:21Z</time>
      </trkpt>
      <trkpt lat="37.6787040" lon="-3.9977350">
        <ele>537.6</ele>
        <time>2021-12-27T17:32:22Z</time>
      </trkpt>
      <trkpt lat="37.6786560" lon="-3.9977530">
        <ele>537.4</ele>
        <time>2021-12-27T17:32:23Z</time>
      </trkpt>
      <trkpt lat="37.6786080" lon="-3.9977720">
        <ele>537.4</ele>
        <time>2021-12-27T17:32:24Z</time>
      </trkpt>
      <trkpt lat="37.6785630" lon="-3.9977900">
        <ele>537.6</ele>
        <time>2021-12-27T17:32:25Z</time>
      </trkpt>
      <trkpt lat="37.6785220" lon="-3.9978120">
        <ele>537.6</ele>
        <time>2021-12-27T17:32:26Z</time>
      </trkpt>
      <trkpt lat="37.6784770" lon="-3.9978350">
        <ele>537.4</ele>
        <time>2021-12-27T17:32:27Z</time>
      </trkpt>
      <trkpt lat="37.6784420" lon="-3.9978580">
        <ele>537.4</ele>
        <time>2021-12-27T17:32:28Z</time>
      </trkpt>
      <trkpt lat="37.6783970" lon="-3.9978830">
        <ele>537.4</ele>
        <time>2021-12-27T17:32:29Z</time>
      </trkpt>
      <trkpt lat="37.6783550" lon="-3.9979030">
        <ele>537.2</ele>
        <time>2021-12-27T17:32:30Z</time>
      </trkpt>
      <trkpt lat="37.6783100" lon="-3.9979250">
        <ele>537.2</ele>
        <time>2021-12-27T17:32:31Z</time>
      </trkpt>
      <trkpt lat="37.6782690" lon="-3.9979480">
        <ele>537.2</ele>
        <time>2021-12-27T17:32:32Z</time>
      </trkpt>
      <trkpt lat="37.6782300" lon="-3.9979750">
        <ele>537.2</ele>
        <time>2021-12-27T17:32:33Z</time>
      </trkpt>
      <trkpt lat="37.6781890" lon="-3.9980020">
        <ele>537.0</ele>
        <time>2021-12-27T17:32:34Z</time>
      </trkpt>
      <trkpt lat="37.6781500" lon="-3.9980280">
        <ele>537.0</ele>
        <time>2021-12-27T17:32:35Z</time>
      </trkpt>
      <trkpt lat="37.6781090" lon="-3.9980530">
        <ele>536.8</ele>
        <time>2021-12-27T17:32:36Z</time>
      </trkpt>
      <trkpt lat="37.6780700" lon="-3.9980800">
        <ele>536.8</ele>
        <time>2021-12-27T17:32:37Z</time>
      </trkpt>
      <trkpt lat="37.6780320" lon="-3.9981070">
        <ele>536.8</ele>
        <time>2021-12-27T17:32:38Z</time>
      </trkpt>
      <trkpt lat="37.6779940" lon="-3.9981350">
        <ele>536.6</ele>
        <time>2021-12-27T17:32:39Z</time>
      </trkpt>
      <trkpt lat="37.6779520" lon="-3.9981630">
        <ele>536.6</ele>
        <time>2021-12-27T17:32:40Z</time>
      </trkpt>
      <trkpt lat="37.6779140" lon="-3.9981930">
        <ele>536.6</ele>
        <time>2021-12-27T17:32:41Z</time>
      </trkpt>
      <trkpt lat="37.6778750" lon="-3.9982220">
        <ele>536.4</ele>
        <time>2021-12-27T17:32:42Z</time>
      </trkpt>
      <trkpt lat="37.6778400" lon="-3.9982480">
        <ele>536.4</ele>
        <time>2021-12-27T17:32:43Z</time>
      </trkpt>
      <trkpt lat="37.6778020" lon="-3.9982780">
        <ele>536.4</ele>
        <time>2021-12-27T17:32:44Z</time>
      </trkpt>
      <trkpt lat="37.6777660" lon="-3.9983080">
        <ele>536.4</ele>
        <time>2021-12-27T17:32:45Z</time>
      </trkpt>
      <trkpt lat="37.6777310" lon="-3.9983420">
        <ele>536.4</ele>
        <time>2021-12-27T17:32:46Z</time>
      </trkpt>
      <trkpt lat="37.6776960" lon="-3.9983770">
        <ele>536.2</ele>
        <time>2021-12-27T17:32:47Z</time>
      </trkpt>
      <trkpt lat="37.6776580" lon="-3.9984080">
        <ele>536.2</ele>
        <time>2021-12-27T17:32:48Z</time>
      </trkpt>
      <trkpt lat="37.6776190" lon="-3.9984400">
        <ele>536.2</ele>
        <time>2021-12-27T17:32:49Z</time>
      </trkpt>
      <trkpt lat="37.6775870" lon="-3.9984740">
        <ele>536.0</ele>
        <time>2021-12-27T17:32:50Z</time>
      </trkpt>
      <trkpt lat="37.6775520" lon="-3.9985050">
        <ele>535.8</ele>
        <time>2021-12-27T17:32:51Z</time>
      </trkpt>
      <trkpt lat="37.6775200" lon="-3.9985380">
        <ele>535.8</ele>
        <time>2021-12-27T17:32:52Z</time>
      </trkpt>
      <trkpt lat="37.6774880" lon="-3.9985720">
        <ele>535.8</ele>
        <time>2021-12-27T17:32:53Z</time>
      </trkpt>
      <trkpt lat="37.6774530" lon="-3.9986050">
        <ele>536.0</ele>
        <time>2021-12-27T17:32:54Z</time>
      </trkpt>
      <trkpt lat="37.6774210" lon="-3.9986400">
        <ele>536.0</ele>
        <time>2021-12-27T17:32:55Z</time>
      </trkpt>
      <trkpt lat="37.6773920" lon="-3.9986740">
        <ele>536.0</ele>
        <time>2021-12-27T17:32:56Z</time>
      </trkpt>
      <trkpt lat="37.6773570" lon="-3.9987080">
        <ele>536.0</ele>
        <time>2021-12-27T17:32:57Z</time>
      </trkpt>
      <trkpt lat="37.6773250" lon="-3.9987420">
        <ele>535.8</ele>
        <time>2021-12-27T17:32:58Z</time>
      </trkpt>
      <trkpt lat="37.6772930" lon="-3.9987750">
        <ele>535.8</ele>
        <time>2021-12-27T17:32:59Z</time>
      </trkpt>
      <trkpt lat="37.6772610" lon="-3.9988080">
        <ele>535.8</ele>
        <time>2021-12-27T17:33:00Z</time>
      </trkpt>
      <trkpt lat="37.6772260" lon="-3.9988420">
        <ele>535.6</ele>
        <time>2021-12-27T17:33:01Z</time>
      </trkpt>
      <trkpt lat="37.6771970" lon="-3.9988750">
        <ele>535.6</ele>
        <time>2021-12-27T17:33:02Z</time>
      </trkpt>
      <trkpt lat="37.6771620" lon="-3.9989080">
        <ele>535.6</ele>
        <time>2021-12-27T17:33:03Z</time>
      </trkpt>
      <trkpt lat="37.6771330" lon="-3.9989430">
        <ele>535.6</ele>
        <time>2021-12-27T17:33:04Z</time>
      </trkpt>
      <trkpt lat="37.6771010" lon="-3.9989770">
        <ele>535.6</ele>
        <time>2021-12-27T17:33:05Z</time>
      </trkpt>
      <trkpt lat="37.6770660" lon="-3.9990120">
        <ele>535.6</ele>
        <time>2021-12-27T17:33:06Z</time>
      </trkpt>
      <trkpt lat="37.6770370" lon="-3.9990470">
        <ele>535.6</ele>
        <time>2021-12-27T17:33:07Z</time>
      </trkpt>
      <trkpt lat="37.6770020" lon="-3.9990830">
        <ele>535.4</ele>
        <time>2021-12-27T17:33:08Z</time>
      </trkpt>
      <trkpt lat="37.6769730" lon="-3.9991200">
        <ele>535.4</ele>
        <time>2021-12-27T17:33:09Z</time>
      </trkpt>
      <trkpt lat="37.6769410" lon="-3.9991600">
        <ele>535.4</ele>
        <time>2021-12-27T17:33:10Z</time>
      </trkpt>
      <trkpt lat="37.6769060" lon="-3.9991980">
        <ele>535.2</ele>
        <time>2021-12-27T17:33:11Z</time>
      </trkpt>
      <trkpt lat="37.6768740" lon="-3.9992350">
        <ele>535.2</ele>
        <time>2021-12-27T17:33:12Z</time>
      </trkpt>
      <trkpt lat="37.6768380" lon="-3.9992730">
        <ele>535.2</ele>
        <time>2021-12-27T17:33:13Z</time>
      </trkpt>
      <trkpt lat="37.6768030" lon="-3.9993100">
        <ele>535.2</ele>
        <time>2021-12-27T17:33:14Z</time>
      </trkpt>
      <trkpt lat="37.6767680" lon="-3.9993470">
        <ele>535.2</ele>
        <time>2021-12-27T17:33:15Z</time>
      </trkpt>
      <trkpt lat="37.6767300" lon="-3.9993850">
        <ele>535.2</ele>
        <time>2021-12-27T17:33:16Z</time>
      </trkpt>
      <trkpt lat="37.6766880" lon="-3.9994220">
        <ele>535.2</ele>
        <time>2021-12-27T17:33:17Z</time>
      </trkpt>
      <trkpt lat="37.6766500" lon="-3.9994620">
        <ele>535.0</ele>
        <time>2021-12-27T17:33:18Z</time>
      </trkpt>
      <trkpt lat="37.6766180" lon="-3.9995020">
        <ele>535.0</ele>
        <time>2021-12-27T17:33:19Z</time>
      </trkpt>
      <trkpt lat="37.6765790" lon="-3.9995420">
        <ele>534.8</ele>
        <time>2021-12-27T17:33:20Z</time>
      </trkpt>
      <trkpt lat="37.6765410" lon="-3.9995830">
        <ele>534.6</ele>
        <time>2021-12-27T17:33:21Z</time>
      </trkpt>
      <trkpt lat="37.6765020" lon="-3.9996270">
        <ele>534.6</ele>
        <time>2021-12-27T17:33:22Z</time>
      </trkpt>
      <trkpt lat="37.6764640" lon="-3.9996670">
        <ele>534.4</ele>
        <time>2021-12-27T17:33:23Z</time>
      </trkpt>
      <trkpt lat="37.6764290" lon="-3.9997070">
        <ele>534.2</ele>
        <time>2021-12-27T17:33:24Z</time>
      </trkpt>
      <trkpt lat="37.6763900" lon="-3.9997470">
        <ele>534.2</ele>
        <time>2021-12-27T17:33:25Z</time>
      </trkpt>
      <trkpt lat="37.6763520" lon="-3.9997850">
        <ele>534.0</ele>
        <time>2021-12-27T17:33:26Z</time>
      </trkpt>
      <trkpt lat="37.6763170" lon="-3.9998220">
        <ele>534.0</ele>
        <time>2021-12-27T17:33:27Z</time>
      </trkpt>
      <trkpt lat="37.6762820" lon="-3.9998630">
        <ele>533.8</ele>
        <time>2021-12-27T17:33:28Z</time>
      </trkpt>
      <trkpt lat="37.6762430" lon="-3.9999030">
        <ele>533.8</ele>
        <time>2021-12-27T17:33:29Z</time>
      </trkpt>
      <trkpt lat="37.6762080" lon="-3.9999430">
        <ele>533.6</ele>
        <time>2021-12-27T17:33:30Z</time>
      </trkpt>
      <trkpt lat="37.6761700" lon="-3.9999870">
        <ele>533.4</ele>
        <time>2021-12-27T17:33:31Z</time>
      </trkpt>
      <trkpt lat="37.6761310" lon="-4.0000270">
        <ele>533.4</ele>
        <time>2021-12-27T17:33:32Z</time>
      </trkpt>
      <trkpt lat="37.6760990" lon="-4.0000680">
        <ele>533.2</ele>
        <time>2021-12-27T17:33:33Z</time>
      </trkpt>
      <trkpt lat="37.6760610" lon="-4.0001100">
        <ele>533.0</ele>
        <time>2021-12-27T17:33:34Z</time>
      </trkpt>
      <trkpt lat="37.6760220" lon="-4.0001500">
        <ele>533.0</ele>
        <time>2021-12-27T17:33:35Z</time>
      </trkpt>
      <trkpt lat="37.6759840" lon="-4.0001860">
        <ele>532.8</ele>
        <time>2021-12-27T17:33:36Z</time>
      </trkpt>
      <trkpt lat="37.6759420" lon="-4.0002260">
        <ele>532.8</ele>
        <time>2021-12-27T17:33:37Z</time>
      </trkpt>
      <trkpt lat="37.6759040" lon="-4.0002650">
        <ele>532.8</ele>
        <time>2021-12-27T17:33:38Z</time>
      </trkpt>
      <trkpt lat="37.6758660" lon="-4.0003070">
        <ele>532.6</ele>
        <time>2021-12-27T17:33:39Z</time>
      </trkpt>
      <trkpt lat="37.6758300" lon="-4.0003450">
        <ele>532.4</ele>
        <time>2021-12-27T17:33:40Z</time>
      </trkpt>
      <trkpt lat="37.6757950" lon="-4.0003830">
        <ele>532.4</ele>
        <time>2021-12-27T17:33:41Z</time>
      </trkpt>
      <trkpt lat="37.6757570" lon="-4.0004240">
        <ele>532.2</ele>
        <time>2021-12-27T17:33:42Z</time>
      </trkpt>
      <trkpt lat="37.6757220" lon="-4.0004600">
        <ele>532.0</ele>
        <time>2021-12-27T17:33:43Z</time>
      </trkpt>
      <trkpt lat="37.6756830" lon="-4.0005000">
        <ele>531.8</ele>
        <time>2021-12-27T17:33:44Z</time>
      </trkpt>
      <trkpt lat="37.6756450" lon="-4.0005420">
        <ele>531.8</ele>
        <time>2021-12-27T17:33:45Z</time>
      </trkpt>
      <trkpt lat="37.6756060" lon="-4.0005850">
        <ele>531.6</ele>
        <time>2021-12-27T17:33:46Z</time>
      </trkpt>
      <trkpt lat="37.6755680" lon="-4.0006260">
        <ele>531.6</ele>
        <time>2021-12-27T17:33:47Z</time>
      </trkpt>
      <trkpt lat="37.6755300" lon="-4.0006670">
        <ele>531.4</ele>
        <time>2021-12-27T17:33:48Z</time>
      </trkpt>
      <trkpt lat="37.6754880" lon="-4.0007070">
        <ele>531.4</ele>
        <time>2021-12-27T17:33:49Z</time>
      </trkpt>
      <trkpt lat="37.6754500" lon="-4.0007450">
        <ele>531.2</ele>
        <time>2021-12-27T17:33:50Z</time>
      </trkpt>
      <trkpt lat="37.6754110" lon="-4.0007850">
        <ele>531.2</ele>
        <time>2021-12-27T17:33:51Z</time>
      </trkpt>
      <trkpt lat="37.6753730" lon="-4.0008250">
        <ele>531.2</ele>
        <time>2021-12-27T17:33:52Z</time>
      </trkpt>
      <trkpt lat="37.6753340" lon="-4.0008640">
        <ele>531.2</ele>
        <time>2021-12-27T17:33:53Z</time>
      </trkpt>
      <trkpt lat="37.6752960" lon="-4.0009030">
        <ele>531.2</ele>
        <time>2021-12-27T17:33:54Z</time>
      </trkpt>
      <trkpt lat="37.6752540" lon="-4.0009460">
        <ele>531.2</ele>
        <time>2021-12-27T17:33:55Z</time>
      </trkpt>
      <trkpt lat="37.6752160" lon="-4.0009880">
        <ele>531.0</ele>
        <time>2021-12-27T17:33:56Z</time>
      </trkpt>
      <trkpt lat="37.6751780" lon="-4.0010300">
        <ele>531.0</ele>
        <time>2021-12-27T17:33:57Z</time>
      </trkpt>
      <trkpt lat="37.6751390" lon="-4.0010730">
        <ele>531.0</ele>
        <time>2021-12-27T17:33:58Z</time>
      </trkpt>
      <trkpt lat="37.6751070" lon="-4.0011150">
        <ele>531.0</ele>
        <time>2021-12-27T17:33:59Z</time>
      </trkpt>
      <trkpt lat="37.6750690" lon="-4.0011570">
        <ele>531.0</ele>
        <time>2021-12-27T17:34:00Z</time>
      </trkpt>
      <trkpt lat="37.6750300" lon="-4.0011980">
        <ele>530.8</ele>
        <time>2021-12-27T17:34:01Z</time>
      </trkpt>
      <trkpt lat="37.6749920" lon="-4.0012380">
        <ele>530.8</ele>
        <time>2021-12-27T17:34:02Z</time>
      </trkpt>
      <trkpt lat="37.6749540" lon="-4.0012800">
        <ele>530.8</ele>
        <time>2021-12-27T17:34:03Z</time>
      </trkpt>
      <trkpt lat="37.6749150" lon="-4.0013200">
        <ele>530.8</ele>
        <time>2021-12-27T17:34:04Z</time>
      </trkpt>
      <trkpt lat="37.6748800" lon="-4.0013580">
        <ele>530.6</ele>
        <time>2021-12-27T17:34:05Z</time>
      </trkpt>
      <trkpt lat="37.6748420" lon="-4.0013970">
        <ele>530.6</ele>
        <time>2021-12-27T17:34:06Z</time>
      </trkpt>
      <trkpt lat="37.6748030" lon="-4.0014370">
        <ele>530.6</ele>
        <time>2021-12-27T17:34:07Z</time>
      </trkpt>
      <trkpt lat="37.6747680" lon="-4.0014770">
        <ele>530.4</ele>
        <time>2021-12-27T17:34:08Z</time>
      </trkpt>
      <trkpt lat="37.6747230" lon="-4.0015180">
        <ele>530.4</ele>
        <time>2021-12-27T17:34:09Z</time>
      </trkpt>
      <trkpt lat="37.6746910" lon="-4.0015620">
        <ele>530.4</ele>
        <time>2021-12-27T17:34:10Z</time>
      </trkpt>
      <trkpt lat="37.6746530" lon="-4.0016030">
        <ele>530.2</ele>
        <time>2021-12-27T17:34:11Z</time>
      </trkpt>
      <trkpt lat="37.6746140" lon="-4.0016450">
        <ele>530.2</ele>
        <time>2021-12-27T17:34:12Z</time>
      </trkpt>
      <trkpt lat="37.6745760" lon="-4.0016850">
        <ele>530.0</ele>
        <time>2021-12-27T17:34:13Z</time>
      </trkpt>
      <trkpt lat="37.6745410" lon="-4.0017250">
        <ele>530.0</ele>
        <time>2021-12-27T17:34:14Z</time>
      </trkpt>
      <trkpt lat="37.6744990" lon="-4.0017630">
        <ele>530.0</ele>
        <time>2021-12-27T17:34:15Z</time>
      </trkpt>
      <trkpt lat="37.6744610" lon="-4.0018030">
        <ele>530.0</ele>
        <time>2021-12-27T17:34:16Z</time>
      </trkpt>
      <trkpt lat="37.6744220" lon="-4.0018420">
        <ele>530.0</ele>
        <time>2021-12-27T17:34:17Z</time>
      </trkpt>
      <trkpt lat="37.6743840" lon="-4.0018800">
        <ele>529.8</ele>
        <time>2021-12-27T17:34:18Z</time>
      </trkpt>
      <trkpt lat="37.6743460" lon="-4.0019180">
        <ele>529.8</ele>
        <time>2021-12-27T17:34:19Z</time>
      </trkpt>
      <trkpt lat="37.6743070" lon="-4.0019580">
        <ele>529.8</ele>
        <time>2021-12-27T17:34:20Z</time>
      </trkpt>
      <trkpt lat="37.6742660" lon="-4.0020000">
        <ele>529.6</ele>
        <time>2021-12-27T17:34:21Z</time>
      </trkpt>
      <trkpt lat="37.6742270" lon="-4.0020400">
        <ele>529.4</ele>
        <time>2021-12-27T17:34:22Z</time>
      </trkpt>
      <trkpt lat="37.6741920" lon="-4.0020800">
        <ele>529.2</ele>
        <time>2021-12-27T17:34:23Z</time>
      </trkpt>
      <trkpt lat="37.6741470" lon="-4.0021180">
        <ele>529.2</ele>
        <time>2021-12-27T17:34:24Z</time>
      </trkpt>
      <trkpt lat="37.6741120" lon="-4.0021580">
        <ele>529.0</ele>
        <time>2021-12-27T17:34:25Z</time>
      </trkpt>
      <trkpt lat="37.6740740" lon="-4.0021970">
        <ele>529.0</ele>
        <time>2021-12-27T17:34:26Z</time>
      </trkpt>
      <trkpt lat="37.6740350" lon="-4.0022370">
        <ele>528.8</ele>
        <time>2021-12-27T17:34:27Z</time>
      </trkpt>
      <trkpt lat="37.6739970" lon="-4.0022770">
        <ele>528.8</ele>
        <time>2021-12-27T17:34:28Z</time>
      </trkpt>
      <trkpt lat="37.6739620" lon="-4.0023150">
        <ele>528.6</ele>
        <time>2021-12-27T17:34:29Z</time>
      </trkpt>
      <trkpt lat="37.6739230" lon="-4.0023550">
        <ele>528.4</ele>
        <time>2021-12-27T17:34:30Z</time>
      </trkpt>
      <trkpt lat="37.6738820" lon="-4.0023930">
        <ele>528.4</ele>
        <time>2021-12-27T17:34:31Z</time>
      </trkpt>
      <trkpt lat="37.6738430" lon="-4.0024330">
        <ele>528.2</ele>
        <time>2021-12-27T17:34:32Z</time>
      </trkpt>
      <trkpt lat="37.6738050" lon="-4.0024720">
        <ele>528.2</ele>
        <time>2021-12-27T17:34:33Z</time>
      </trkpt>
      <trkpt lat="37.6737660" lon="-4.0025100">
        <ele>528.0</ele>
        <time>2021-12-27T17:34:34Z</time>
      </trkpt>
      <trkpt lat="37.6737280" lon="-4.0025480">
        <ele>528.0</ele>
        <time>2021-12-27T17:34:35Z</time>
      </trkpt>
      <trkpt lat="37.6736900" lon="-4.0025870">
        <ele>527.8</ele>
        <time>2021-12-27T17:34:36Z</time>
      </trkpt>
      <trkpt lat="37.6736510" lon="-4.0026250">
        <ele>527.6</ele>
        <time>2021-12-27T17:34:37Z</time>
      </trkpt>
      <trkpt lat="37.6736190" lon="-4.0026630">
        <ele>527.6</ele>
        <time>2021-12-27T17:34:38Z</time>
      </trkpt>
      <trkpt lat="37.6735810" lon="-4.0027020">
        <ele>527.4</ele>
        <time>2021-12-27T17:34:39Z</time>
      </trkpt>
      <trkpt lat="37.6735420" lon="-4.0027400">
        <ele>527.2</ele>
        <time>2021-12-27T17:34:40Z</time>
      </trkpt>
      <trkpt lat="37.6735040" lon="-4.0027780">
        <ele>527.2</ele>
        <time>2021-12-27T17:34:41Z</time>
      </trkpt>
      <trkpt lat="37.6734660" lon="-4.0028180">
        <ele>527.0</ele>
        <time>2021-12-27T17:34:42Z</time>
      </trkpt>
      <trkpt lat="37.6734300" lon="-4.0028570">
        <ele>527.0</ele>
        <time>2021-12-27T17:34:43Z</time>
      </trkpt>
      <trkpt lat="37.6733980" lon="-4.0028950">
        <ele>527.0</ele>
        <time>2021-12-27T17:34:44Z</time>
      </trkpt>
      <trkpt lat="37.6733630" lon="-4.0029350">
        <ele>527.0</ele>
        <time>2021-12-27T17:34:45Z</time>
      </trkpt>
      <trkpt lat="37.6733280" lon="-4.0029720">
        <ele>526.8</ele>
        <time>2021-12-27T17:34:46Z</time>
      </trkpt>
      <trkpt lat="37.6732900" lon="-4.0030100">
        <ele>526.8</ele>
        <time>2021-12-27T17:34:47Z</time>
      </trkpt>
      <trkpt lat="37.6732610" lon="-4.0030520">
        <ele>526.6</ele>
        <time>2021-12-27T17:34:48Z</time>
      </trkpt>
      <trkpt lat="37.6732220" lon="-4.0030900">
        <ele>526.6</ele>
        <time>2021-12-27T17:34:49Z</time>
      </trkpt>
      <trkpt lat="37.6731870" lon="-4.0031280">
        <ele>526.4</ele>
        <time>2021-12-27T17:34:50Z</time>
      </trkpt>
      <trkpt lat="37.6731520" lon="-4.0031670">
        <ele>526.4</ele>
        <time>2021-12-27T17:34:51Z</time>
      </trkpt>
      <trkpt lat="37.6731200" lon="-4.0032030">
        <ele>526.4</ele>
        <time>2021-12-27T17:34:52Z</time>
      </trkpt>
      <trkpt lat="37.6730850" lon="-4.0032380">
        <ele>526.2</ele>
        <time>2021-12-27T17:34:53Z</time>
      </trkpt>
      <trkpt lat="37.6730500" lon="-4.0032740">
        <ele>526.2</ele>
        <time>2021-12-27T17:34:54Z</time>
      </trkpt>
      <trkpt lat="37.6730110" lon="-4.0033080">
        <ele>526.2</ele>
        <time>2021-12-27T17:34:55Z</time>
      </trkpt>
      <trkpt lat="37.6729760" lon="-4.0033450">
        <ele>526.2</ele>
        <time>2021-12-27T17:34:56Z</time>
      </trkpt>
      <trkpt lat="37.6729440" lon="-4.0033780">
        <ele>526.2</ele>
        <time>2021-12-27T17:34:57Z</time>
      </trkpt>
      <trkpt lat="37.6729120" lon="-4.0034120">
        <ele>526.0</ele>
        <time>2021-12-27T17:34:58Z</time>
      </trkpt>
      <trkpt lat="37.6728770" lon="-4.0034450">
        <ele>526.0</ele>
        <time>2021-12-27T17:34:59Z</time>
      </trkpt>
      <trkpt lat="37.6728480" lon="-4.0034800">
        <ele>525.8</ele>
        <time>2021-12-27T17:35:00Z</time>
      </trkpt>
      <trkpt lat="37.6728130" lon="-4.0035170">
        <ele>525.6</ele>
        <time>2021-12-27T17:35:01Z</time>
      </trkpt>
      <trkpt lat="37.6727840" lon="-4.0035520">
        <ele>525.6</ele>
        <time>2021-12-27T17:35:02Z</time>
      </trkpt>
      <trkpt lat="37.6727520" lon="-4.0035880">
        <ele>525.4</ele>
        <time>2021-12-27T17:35:03Z</time>
      </trkpt>
      <trkpt lat="37.6727230" lon="-4.0036240">
        <ele>525.4</ele>
        <time>2021-12-27T17:35:04Z</time>
      </trkpt>
      <trkpt lat="37.6726880" lon="-4.0036570">
        <ele>525.2</ele>
        <time>2021-12-27T17:35:05Z</time>
      </trkpt>
      <trkpt lat="37.6726560" lon="-4.0036900">
        <ele>525.0</ele>
        <time>2021-12-27T17:35:06Z</time>
      </trkpt>
      <trkpt lat="37.6726270" lon="-4.0037220">
        <ele>524.8</ele>
        <time>2021-12-27T17:35:07Z</time>
      </trkpt>
      <trkpt lat="37.6725950" lon="-4.0037530">
        <ele>524.8</ele>
        <time>2021-12-27T17:35:08Z</time>
      </trkpt>
      <trkpt lat="37.6725660" lon="-4.0037820">
        <ele>524.8</ele>
        <time>2021-12-27T17:35:09Z</time>
      </trkpt>
      <trkpt lat="37.6725340" lon="-4.0038100">
        <ele>524.6</ele>
        <time>2021-12-27T17:35:10Z</time>
      </trkpt>
      <trkpt lat="37.6725090" lon="-4.0038330">
        <ele>524.6</ele>
        <time>2021-12-27T17:35:11Z</time>
      </trkpt>
      <trkpt lat="37.6724770" lon="-4.0038580">
        <ele>524.4</ele>
        <time>2021-12-27T17:35:12Z</time>
      </trkpt>
      <trkpt lat="37.6724540" lon="-4.0038780">
        <ele>524.4</ele>
        <time>2021-12-27T17:35:13Z</time>
      </trkpt>
      <trkpt lat="37.6724320" lon="-4.0039020">
        <ele>524.4</ele>
        <time>2021-12-27T17:35:14Z</time>
      </trkpt>
      <trkpt lat="37.6724060" lon="-4.0039270">
        <ele>524.4</ele>
        <time>2021-12-27T17:35:15Z</time>
      </trkpt>
      <trkpt lat="37.6723810" lon="-4.0039520">
        <ele>524.4</ele>
        <time>2021-12-27T17:35:16Z</time>
      </trkpt>
      <trkpt lat="37.6723580" lon="-4.0039800">
        <ele>524.2</ele>
        <time>2021-12-27T17:35:17Z</time>
      </trkpt>
      <trkpt lat="37.6723330" lon="-4.0040100">
        <ele>524.2</ele>
        <time>2021-12-27T17:35:18Z</time>
      </trkpt>
      <trkpt lat="37.6723070" lon="-4.0040380">
        <ele>524.2</ele>
        <time>2021-12-27T17:35:19Z</time>
      </trkpt>
      <trkpt lat="37.6722820" lon="-4.0040680">
        <ele>524.2</ele>
        <time>2021-12-27T17:35:20Z</time>
      </trkpt>
      <trkpt lat="37.6722530" lon="-4.0041000">
        <ele>524.2</ele>
        <time>2021-12-27T17:35:21Z</time>
      </trkpt>
      <trkpt lat="37.6722270" lon="-4.0041320">
        <ele>524.2</ele>
        <time>2021-12-27T17:35:22Z</time>
      </trkpt>
      <trkpt lat="37.6721980" lon="-4.0041580">
        <ele>524.2</ele>
        <time>2021-12-27T17:35:23Z</time>
      </trkpt>
      <trkpt lat="37.6721730" lon="-4.0041870">
        <ele>524.0</ele>
        <time>2021-12-27T17:35:24Z</time>
      </trkpt>
      <trkpt lat="37.6721470" lon="-4.0042170">
        <ele>524.0</ele>
        <time>2021-12-27T17:35:25Z</time>
      </trkpt>
      <trkpt lat="37.6721220" lon="-4.0042480">
        <ele>524.2</ele>
        <time>2021-12-27T17:35:26Z</time>
      </trkpt>
      <trkpt lat="37.6720960" lon="-4.0042770">
        <ele>524.2</ele>
        <time>2021-12-27T17:35:27Z</time>
      </trkpt>
      <trkpt lat="37.6720740" lon="-4.0043070">
        <ele>524.2</ele>
        <time>2021-12-27T17:35:28Z</time>
      </trkpt>
      <trkpt lat="37.6720480" lon="-4.0043350">
        <ele>524.2</ele>
        <time>2021-12-27T17:35:29Z</time>
      </trkpt>
      <trkpt lat="37.6720190" lon="-4.0043620">
        <ele>524.2</ele>
        <time>2021-12-27T17:35:30Z</time>
      </trkpt>
      <trkpt lat="37.6719940" lon="-4.0043880">
        <ele>524.2</ele>
        <time>2021-12-27T17:35:31Z</time>
      </trkpt>
      <trkpt lat="37.6719620" lon="-4.0044160">
        <ele>524.2</ele>
        <time>2021-12-27T17:35:32Z</time>
      </trkpt>
      <trkpt lat="37.6719360" lon="-4.0044480">
        <ele>524.2</ele>
        <time>2021-12-27T17:35:33Z</time>
      </trkpt>
      <trkpt lat="37.6719040" lon="-4.0044780">
        <ele>524.2</ele>
        <time>2021-12-27T17:35:34Z</time>
      </trkpt>
      <trkpt lat="37.6718780" lon="-4.0045080">
        <ele>524.0</ele>
        <time>2021-12-27T17:35:35Z</time>
      </trkpt>
      <trkpt lat="37.6718500" lon="-4.0045370">
        <ele>524.0</ele>
        <time>2021-12-27T17:35:36Z</time>
      </trkpt>
      <trkpt lat="37.6718210" lon="-4.0045680">
        <ele>524.0</ele>
        <time>2021-12-27T17:35:37Z</time>
      </trkpt>
      <trkpt lat="37.6717950" lon="-4.0045970">
        <ele>524.0</ele>
        <time>2021-12-27T17:35:38Z</time>
      </trkpt>
      <trkpt lat="37.6717630" lon="-4.0046240">
        <ele>524.0</ele>
        <time>2021-12-27T17:35:39Z</time>
      </trkpt>
      <trkpt lat="37.6717380" lon="-4.0046540">
        <ele>524.0</ele>
        <time>2021-12-27T17:35:40Z</time>
      </trkpt>
      <trkpt lat="37.6717060" lon="-4.0046870">
        <ele>524.0</ele>
        <time>2021-12-27T17:35:41Z</time>
      </trkpt>
      <trkpt lat="37.6716800" lon="-4.0047180">
        <ele>523.8</ele>
        <time>2021-12-27T17:35:42Z</time>
      </trkpt>
      <trkpt lat="37.6716510" lon="-4.0047520">
        <ele>524.0</ele>
        <time>2021-12-27T17:35:43Z</time>
      </trkpt>
      <trkpt lat="37.6716220" lon="-4.0047850">
        <ele>524.0</ele>
        <time>2021-12-27T17:35:44Z</time>
      </trkpt>
      <trkpt lat="37.6715900" lon="-4.0048160">
        <ele>524.0</ele>
        <time>2021-12-27T17:35:45Z</time>
      </trkpt>
      <trkpt lat="37.6715580" lon="-4.0048480">
        <ele>524.2</ele>
        <time>2021-12-27T17:35:46Z</time>
      </trkpt>
      <trkpt lat="37.6715260" lon="-4.0048780">
        <ele>524.2</ele>
        <time>2021-12-27T17:35:47Z</time>
      </trkpt>
      <trkpt lat="37.6714980" lon="-4.0049120">
        <ele>524.4</ele>
        <time>2021-12-27T17:35:48Z</time>
      </trkpt>
      <trkpt lat="37.6714660" lon="-4.0049470">
        <ele>524.4</ele>
        <time>2021-12-27T17:35:49Z</time>
      </trkpt>
      <trkpt lat="37.6714370" lon="-4.0049780">
        <ele>524.4</ele>
        <time>2021-12-27T17:35:50Z</time>
      </trkpt>
      <trkpt lat="37.6714050" lon="-4.0050140">
        <ele>524.4</ele>
        <time>2021-12-27T17:35:51Z</time>
      </trkpt>
      <trkpt lat="37.6713760" lon="-4.0050470">
        <ele>524.6</ele>
        <time>2021-12-27T17:35:52Z</time>
      </trkpt>
      <trkpt lat="37.6713470" lon="-4.0050780">
        <ele>524.6</ele>
        <time>2021-12-27T17:35:53Z</time>
      </trkpt>
      <trkpt lat="37.6713220" lon="-4.0051100">
        <ele>524.6</ele>
        <time>2021-12-27T17:35:54Z</time>
      </trkpt>
      <trkpt lat="37.6712960" lon="-4.0051400">
        <ele>524.8</ele>
        <time>2021-12-27T17:35:55Z</time>
      </trkpt>
      <trkpt lat="37.6712670" lon="-4.0051700">
        <ele>524.8</ele>
        <time>2021-12-27T17:35:56Z</time>
      </trkpt>
      <trkpt lat="37.6712380" lon="-4.0051980">
        <ele>524.8</ele>
        <time>2021-12-27T17:35:57Z</time>
      </trkpt>
      <trkpt lat="37.6712130" lon="-4.0052250">
        <ele>525.0</ele>
        <time>2021-12-27T17:35:58Z</time>
      </trkpt>
      <trkpt lat="37.6711870" lon="-4.0052520">
        <ele>525.0</ele>
        <time>2021-12-27T17:35:59Z</time>
      </trkpt>
      <trkpt lat="37.6711620" lon="-4.0052800">
        <ele>525.0</ele>
        <time>2021-12-27T17:36:00Z</time>
      </trkpt>
      <trkpt lat="37.6711360" lon="-4.0053080">
        <ele>525.0</ele>
        <time>2021-12-27T17:36:01Z</time>
      </trkpt>
      <trkpt lat="37.6711040" lon="-4.0053370">
        <ele>525.0</ele>
        <time>2021-12-27T17:36:02Z</time>
      </trkpt>
      <trkpt lat="37.6710780" lon="-4.0053650">
        <ele>525.0</ele>
        <time>2021-12-27T17:36:03Z</time>
      </trkpt>
      <trkpt lat="37.6710500" lon="-4.0053940">
        <ele>525.2</ele>
        <time>2021-12-27T17:36:04Z</time>
      </trkpt>
      <trkpt lat="37.6710270" lon="-4.0054200">
        <ele>525.0</ele>
        <time>2021-12-27T17:36:05Z</time>
      </trkpt>
      <trkpt lat="37.6710050" lon="-4.0054460">
        <ele>525.0</ele>
        <time>2021-12-27T17:36:06Z</time>
      </trkpt>
      <trkpt lat="37.6709820" lon="-4.0054700">
        <ele>525.0</ele>
        <time>2021-12-27T17:36:07Z</time>
      </trkpt>
      <trkpt lat="37.6709630" lon="-4.0054950">
        <ele>524.8</ele>
        <time>2021-12-27T17:36:08Z</time>
      </trkpt>
      <trkpt lat="37.6709410" lon="-4.0055180">
        <ele>524.6</ele>
        <time>2021-12-27T17:36:09Z</time>
      </trkpt>
      <trkpt lat="37.6709250" lon="-4.0055430">
        <ele>524.6</ele>
        <time>2021-12-27T17:36:10Z</time>
      </trkpt>
      <trkpt lat="37.6709060" lon="-4.0055680">
        <ele>524.4</ele>
        <time>2021-12-27T17:36:11Z</time>
      </trkpt>
      <trkpt lat="37.6708900" lon="-4.0055920">
        <ele>524.4</ele>
        <time>2021-12-27T17:36:12Z</time>
      </trkpt>
      <trkpt lat="37.6708700" lon="-4.0056150">
        <ele>524.4</ele>
        <time>2021-12-27T17:36:13Z</time>
      </trkpt>
      <trkpt lat="37.6708510" lon="-4.0056330">
        <ele>524.2</ele>
        <time>2021-12-27T17:36:14Z</time>
      </trkpt>
      <trkpt lat="37.6708290" lon="-4.0056520">
        <ele>524.2</ele>
        <time>2021-12-27T17:36:15Z</time>
      </trkpt>
      <trkpt lat="37.6708160" lon="-4.0056680">
        <ele>524.0</ele>
        <time>2021-12-27T17:36:16Z</time>
      </trkpt>
      <trkpt lat="37.6708000" lon="-4.0056870">
        <ele>524.0</ele>
        <time>2021-12-27T17:36:17Z</time>
      </trkpt>
      <trkpt lat="37.6707840" lon="-4.0057020">
        <ele>523.8</ele>
        <time>2021-12-27T17:36:18Z</time>
      </trkpt>
      <trkpt lat="37.6707650" lon="-4.0057220">
        <ele>523.8</ele>
        <time>2021-12-27T17:36:19Z</time>
      </trkpt>
      <trkpt lat="37.6707520" lon="-4.0057400">
        <ele>523.8</ele>
        <time>2021-12-27T17:36:20Z</time>
      </trkpt>
      <trkpt lat="37.6707360" lon="-4.0057640">
        <ele>523.8</ele>
        <time>2021-12-27T17:36:21Z</time>
      </trkpt>
      <trkpt lat="37.6707170" lon="-4.0057900">
        <ele>523.8</ele>
        <time>2021-12-27T17:36:22Z</time>
      </trkpt>
      <trkpt lat="37.6706980" lon="-4.0058200">
        <ele>523.8</ele>
        <time>2021-12-27T17:36:23Z</time>
      </trkpt>
      <trkpt lat="37.6706720" lon="-4.0058460">
        <ele>523.8</ele>
        <time>2021-12-27T17:36:24Z</time>
      </trkpt>
      <trkpt lat="37.6706500" lon="-4.0058730">
        <ele>524.0</ele>
        <time>2021-12-27T17:36:25Z</time>
      </trkpt>
      <trkpt lat="37.6706300" lon="-4.0059000">
        <ele>524.0</ele>
        <time>2021-12-27T17:36:26Z</time>
      </trkpt>
      <trkpt lat="37.6706050" lon="-4.0059280">
        <ele>524.0</ele>
        <time>2021-12-27T17:36:27Z</time>
      </trkpt>
      <trkpt lat="37.6705820" lon="-4.0059550">
        <ele>524.0</ele>
        <time>2021-12-27T17:36:28Z</time>
      </trkpt>
      <trkpt lat="37.6705630" lon="-4.0059820">
        <ele>524.0</ele>
        <time>2021-12-27T17:36:29Z</time>
      </trkpt>
      <trkpt lat="37.6705410" lon="-4.0060080">
        <ele>524.0</ele>
        <time>2021-12-27T17:36:30Z</time>
      </trkpt>
      <trkpt lat="37.6705120" lon="-4.0060420">
        <ele>524.0</ele>
        <time>2021-12-27T17:36:31Z</time>
      </trkpt>
      <trkpt lat="37.6704930" lon="-4.0060670">
        <ele>524.0</ele>
        <time>2021-12-27T17:36:32Z</time>
      </trkpt>
      <trkpt lat="37.6704800" lon="-4.0060840">
        <ele>523.8</ele>
        <time>2021-12-27T17:36:33Z</time>
      </trkpt>
      <trkpt lat="37.6704610" lon="-4.0061080">
        <ele>523.8</ele>
        <time>2021-12-27T17:36:34Z</time>
      </trkpt>
      <trkpt lat="37.6704420" lon="-4.0061380">
        <ele>523.6</ele>
        <time>2021-12-27T17:36:35Z</time>
      </trkpt>
      <trkpt lat="37.6704260" lon="-4.0061600">
        <ele>523.6</ele>
        <time>2021-12-27T17:36:36Z</time>
      </trkpt>
      <trkpt lat="37.6704060" lon="-4.0061830">
        <ele>523.4</ele>
        <time>2021-12-27T17:36:37Z</time>
      </trkpt>
      <trkpt lat="37.6703900" lon="-4.0062080">
        <ele>523.2</ele>
        <time>2021-12-27T17:36:38Z</time>
      </trkpt>
      <trkpt lat="37.6703740" lon="-4.0062360">
        <ele>523.2</ele>
        <time>2021-12-27T17:36:39Z</time>
      </trkpt>
      <trkpt lat="37.6703550" lon="-4.0062550">
        <ele>523.0</ele>
        <time>2021-12-27T17:36:40Z</time>
      </trkpt>
      <trkpt lat="37.6703550" lon="-4.0062550">
        <ele>523.0</ele>
        <time>2021-12-27T17:36:41Z</time>
      </trkpt>
      <trkpt lat="37.6703550" lon="-4.0062550">
        <ele>523.0</ele>
        <time>2021-12-27T17:36:42Z</time>
      </trkpt>
      <trkpt lat="37.6703550" lon="-4.0062550">
        <ele>522.8</ele>
        <time>2021-12-27T17:36:43Z</time>
      </trkpt>
      <trkpt lat="37.6703550" lon="-4.0062550">
        <ele>523.0</ele>
        <time>2021-12-27T17:36:44Z</time>
      </trkpt>
      <trkpt lat="37.6703550" lon="-4.0062550">
        <ele>523.0</ele>
        <time>2021-12-27T17:36:45Z</time>
      </trkpt>
      <trkpt lat="37.6703550" lon="-4.0062550">
        <ele>521.2</ele>
        <time>2021-12-27T17:39:02Z</time>
      </trkpt>
      <trkpt lat="37.6702340" lon="-4.0063520">
        <ele>521.2</ele>
        <time>2021-12-27T17:39:03Z</time>
      </trkpt>
      <trkpt lat="37.6702340" lon="-4.0063520">
        <ele>521.2</ele>
        <time>2021-12-27T17:39:04Z</time>
      </trkpt>
      <trkpt lat="37.6702110" lon="-4.0063720">
        <ele>521.2</ele>
        <time>2021-12-27T17:39:05Z</time>
      </trkpt>
      <trkpt lat="37.6702110" lon="-4.0063720">
        <ele>521.2</ele>
        <time>2021-12-27T17:39:06Z</time>
      </trkpt>
      <trkpt lat="37.6701890" lon="-4.0063800">
        <ele>521.2</ele>
        <time>2021-12-27T17:39:07Z</time>
      </trkpt>
      <trkpt lat="37.6701890" lon="-4.0063800">
        <ele>521.2</ele>
        <time>2021-12-27T17:39:08Z</time>
      </trkpt>
      <trkpt lat="37.6701890" lon="-4.0063800">
        <ele>521.2</ele>
        <time>2021-12-27T17:39:09Z</time>
      </trkpt>
      <trkpt lat="37.6701890" lon="-4.0063800">
        <ele>521.2</ele>
        <time>2021-12-27T17:39:10Z</time>
      </trkpt>
      <trkpt lat="37.6701890" lon="-4.0063800">
        <ele>521.2</ele>
        <time>2021-12-27T17:39:11Z</time>
      </trkpt>
      <trkpt lat="37.6701660" lon="-4.0064850">
        <ele>525.6</ele>
        <time>2021-12-27T17:42:22Z</time>
      </trkpt>
      <trkpt lat="37.6701500" lon="-4.0065100">
        <ele>525.6</ele>
        <time>2021-12-27T17:42:23Z</time>
      </trkpt>
      <trkpt lat="37.6701440" lon="-4.0065330">
        <ele>525.6</ele>
        <time>2021-12-27T17:42:24Z</time>
      </trkpt>
      <trkpt lat="37.6701440" lon="-4.0065330">
        <ele>525.6</ele>
        <time>2021-12-27T17:42:25Z</time>
      </trkpt>
      <trkpt lat="37.6701200" lon="-4.0065940">
        <ele>525.6</ele>
        <time>2021-12-27T17:42:26Z</time>
      </trkpt>
      <trkpt lat="37.6701150" lon="-4.0066060">
        <ele>525.6</ele>
        <time>2021-12-27T17:42:27Z</time>
      </trkpt>
      <trkpt lat="37.6701060" lon="-4.0066350">
        <ele>525.6</ele>
        <time>2021-12-27T17:42:28Z</time>
      </trkpt>
      <trkpt lat="37.6700930" lon="-4.0066620">
        <ele>525.6</ele>
        <time>2021-12-27T17:42:29Z</time>
      </trkpt>
      <trkpt lat="37.6700770" lon="-4.0066830">
        <ele>525.6</ele>
        <time>2021-12-27T17:42:30Z</time>
      </trkpt>
      <trkpt lat="37.6700700" lon="-4.0067120">
        <ele>525.6</ele>
        <time>2021-12-27T17:42:31Z</time>
      </trkpt>
      <trkpt lat="37.6700540" lon="-4.0067370">
        <ele>525.6</ele>
        <time>2021-12-27T17:42:32Z</time>
      </trkpt>
      <trkpt lat="37.6700480" lon="-4.0067650">
        <ele>525.6</ele>
        <time>2021-12-27T17:42:33Z</time>
      </trkpt>
      <trkpt lat="37.6700420" lon="-4.0067950">
        <ele>525.6</ele>
        <time>2021-12-27T17:42:34Z</time>
      </trkpt>
      <trkpt lat="37.6700260" lon="-4.0068250">
        <ele>525.6</ele>
        <time>2021-12-27T17:42:35Z</time>
      </trkpt>
      <trkpt lat="37.6700100" lon="-4.0068530">
        <ele>525.6</ele>
        <time>2021-12-27T17:42:36Z</time>
      </trkpt>
      <trkpt lat="37.6699970" lon="-4.0068850">
        <ele>525.6</ele>
        <time>2021-12-27T17:42:37Z</time>
      </trkpt>
      <trkpt lat="37.6699870" lon="-4.0069160">
        <ele>525.4</ele>
        <time>2021-12-27T17:42:38Z</time>
      </trkpt>
      <trkpt lat="37.6699840" lon="-4.0069430">
        <ele>525.4</ele>
        <time>2021-12-27T17:42:39Z</time>
      </trkpt>
      <trkpt lat="37.6699710" lon="-4.0069820">
        <ele>525.4</ele>
        <time>2021-12-27T17:42:40Z</time>
      </trkpt>
      <trkpt lat="37.6699620" lon="-4.0070120">
        <ele>525.4</ele>
        <time>2021-12-27T17:42:41Z</time>
      </trkpt>
      <trkpt lat="37.6699550" lon="-4.0070420">
        <ele>525.2</ele>
        <time>2021-12-27T17:42:42Z</time>
      </trkpt>
      <trkpt lat="37.6699460" lon="-4.0070680">
        <ele>525.2</ele>
        <time>2021-12-27T17:42:43Z</time>
      </trkpt>
      <trkpt lat="37.6699360" lon="-4.0070880">
        <ele>525.2</ele>
        <time>2021-12-27T17:42:44Z</time>
      </trkpt>
      <trkpt lat="37.6699260" lon="-4.0071180">
        <ele>525.0</ele>
        <time>2021-12-27T17:42:45Z</time>
      </trkpt>
      <trkpt lat="37.6699170" lon="-4.0071470">
        <ele>525.0</ele>
        <time>2021-12-27T17:42:46Z</time>
      </trkpt>
      <trkpt lat="37.6699100" lon="-4.0071770">
        <ele>525.0</ele>
        <time>2021-12-27T17:42:47Z</time>
      </trkpt>
      <trkpt lat="37.6699070" lon="-4.0072020">
        <ele>524.8</ele>
        <time>2021-12-27T17:42:48Z</time>
      </trkpt>
      <trkpt lat="37.6698980" lon="-4.0072320">
        <ele>524.8</ele>
        <time>2021-12-27T17:42:49Z</time>
      </trkpt>
      <trkpt lat="37.6698910" lon="-4.0072630">
        <ele>524.8</ele>
        <time>2021-12-27T17:42:50Z</time>
      </trkpt>
      <trkpt lat="37.6698850" lon="-4.0072930">
        <ele>524.8</ele>
        <time>2021-12-27T17:42:51Z</time>
      </trkpt>
      <trkpt lat="37.6698750" lon="-4.0073230">
        <ele>524.8</ele>
        <time>2021-12-27T17:42:52Z</time>
      </trkpt>
      <trkpt lat="37.6698690" lon="-4.0073530">
        <ele>524.8</ele>
        <time>2021-12-27T17:42:53Z</time>
      </trkpt>
      <trkpt lat="37.6698620" lon="-4.0073830">
        <ele>524.8</ele>
        <time>2021-12-27T17:42:54Z</time>
      </trkpt>
      <trkpt lat="37.6698530" lon="-4.0074150">
        <ele>524.8</ele>
        <time>2021-12-27T17:42:55Z</time>
      </trkpt>
      <trkpt lat="37.6698460" lon="-4.0074440">
        <ele>524.8</ele>
        <time>2021-12-27T17:42:56Z</time>
      </trkpt>
      <trkpt lat="37.6698340" lon="-4.0074680">
        <ele>524.8</ele>
        <time>2021-12-27T17:42:57Z</time>
      </trkpt>
      <trkpt lat="37.6698270" lon="-4.0074940">
        <ele>524.8</ele>
        <time>2021-12-27T17:42:58Z</time>
      </trkpt>
      <trkpt lat="37.6698180" lon="-4.0075180">
        <ele>524.8</ele>
        <time>2021-12-27T17:42:59Z</time>
      </trkpt>
      <trkpt lat="37.6698140" lon="-4.0075450">
        <ele>524.8</ele>
        <time>2021-12-27T17:43:00Z</time>
      </trkpt>
      <trkpt lat="37.6698080" lon="-4.0075720">
        <ele>524.8</ele>
        <time>2021-12-27T17:43:01Z</time>
      </trkpt>
      <trkpt lat="37.6698050" lon="-4.0075960">
        <ele>524.8</ele>
        <time>2021-12-27T17:43:02Z</time>
      </trkpt>
      <trkpt lat="37.6697980" lon="-4.0076220">
        <ele>524.8</ele>
        <time>2021-12-27T17:43:03Z</time>
      </trkpt>
      <trkpt lat="37.6697950" lon="-4.0076500">
        <ele>524.8</ele>
        <time>2021-12-27T17:43:04Z</time>
      </trkpt>
      <trkpt lat="37.6697890" lon="-4.0076770">
        <ele>524.8</ele>
        <time>2021-12-27T17:43:05Z</time>
      </trkpt>
      <trkpt lat="37.6697860" lon="-4.0077030">
        <ele>524.8</ele>
        <time>2021-12-27T17:43:06Z</time>
      </trkpt>
      <trkpt lat="37.6697730" lon="-4.0077320">
        <ele>524.6</ele>
        <time>2021-12-27T17:43:07Z</time>
      </trkpt>
      <trkpt lat="37.6697700" lon="-4.0077580">
        <ele>524.6</ele>
        <time>2021-12-27T17:43:08Z</time>
      </trkpt>
      <trkpt lat="37.6697660" lon="-4.0077870">
        <ele>524.6</ele>
        <time>2021-12-27T17:43:09Z</time>
      </trkpt>
      <trkpt lat="37.6697630" lon="-4.0078150">
        <ele>524.6</ele>
        <time>2021-12-27T17:43:10Z</time>
      </trkpt>
      <trkpt lat="37.6697630" lon="-4.0078420">
        <ele>524.6</ele>
        <time>2021-12-27T17:43:11Z</time>
      </trkpt>
      <trkpt lat="37.6697500" lon="-4.0078670">
        <ele>524.6</ele>
        <time>2021-12-27T17:43:12Z</time>
      </trkpt>
      <trkpt lat="37.6697470" lon="-4.0078920">
        <ele>524.6</ele>
        <time>2021-12-27T17:43:13Z</time>
      </trkpt>
      <trkpt lat="37.6697470" lon="-4.0079200">
        <ele>524.6</ele>
        <time>2021-12-27T17:43:14Z</time>
      </trkpt>
      <trkpt lat="37.6697470" lon="-4.0079460">
        <ele>524.6</ele>
        <time>2021-12-27T17:43:15Z</time>
      </trkpt>
      <trkpt lat="37.6697440" lon="-4.0079730">
        <ele>524.6</ele>
        <time>2021-12-27T17:43:16Z</time>
      </trkpt>
      <trkpt lat="37.6697380" lon="-4.0079980">
        <ele>524.6</ele>
        <time>2021-12-27T17:43:17Z</time>
      </trkpt>
      <trkpt lat="37.6697380" lon="-4.0080250">
        <ele>524.8</ele>
        <time>2021-12-27T17:43:18Z</time>
      </trkpt>
      <trkpt lat="37.6697340" lon="-4.0080500">
        <ele>524.8</ele>
        <time>2021-12-27T17:43:19Z</time>
      </trkpt>
      <trkpt lat="37.6697340" lon="-4.0080800">
        <ele>524.8</ele>
        <time>2021-12-27T17:43:20Z</time>
      </trkpt>
      <trkpt lat="37.6697310" lon="-4.0081070">
        <ele>525.0</ele>
        <time>2021-12-27T17:43:21Z</time>
      </trkpt>
      <trkpt lat="37.6697310" lon="-4.0081320">
        <ele>525.0</ele>
        <time>2021-12-27T17:43:22Z</time>
      </trkpt>
      <trkpt lat="37.6697280" lon="-4.0081620">
        <ele>525.2</ele>
        <time>2021-12-27T17:43:23Z</time>
      </trkpt>
      <trkpt lat="37.6697280" lon="-4.0081920">
        <ele>525.2</ele>
        <time>2021-12-27T17:43:24Z</time>
      </trkpt>
      <trkpt lat="37.6697250" lon="-4.0082200">
        <ele>525.2</ele>
        <time>2021-12-27T17:43:25Z</time>
      </trkpt>
      <trkpt lat="37.6697250" lon="-4.0082520">
        <ele>525.4</ele>
        <time>2021-12-27T17:43:26Z</time>
      </trkpt>
      <trkpt lat="37.6697150" lon="-4.0082850">
        <ele>525.6</ele>
        <time>2021-12-27T17:43:27Z</time>
      </trkpt>
      <trkpt lat="37.6697120" lon="-4.0083200">
        <ele>525.6</ele>
        <time>2021-12-27T17:43:28Z</time>
      </trkpt>
      <trkpt lat="37.6697090" lon="-4.0083520">
        <ele>525.8</ele>
        <time>2021-12-27T17:43:29Z</time>
      </trkpt>
      <trkpt lat="37.6697090" lon="-4.0083850">
        <ele>526.0</ele>
        <time>2021-12-27T17:43:30Z</time>
      </trkpt>
      <trkpt lat="37.6697090" lon="-4.0084180">
        <ele>526.0</ele>
        <time>2021-12-27T17:43:31Z</time>
      </trkpt>
      <trkpt lat="37.6697090" lon="-4.0084530">
        <ele>526.2</ele>
        <time>2021-12-27T17:43:32Z</time>
      </trkpt>
      <trkpt lat="37.6697090" lon="-4.0084870">
        <ele>526.4</ele>
        <time>2021-12-27T17:43:33Z</time>
      </trkpt>
      <trkpt lat="37.6697090" lon="-4.0085200">
        <ele>526.6</ele>
        <time>2021-12-27T17:43:34Z</time>
      </trkpt>
      <trkpt lat="37.6697090" lon="-4.0085550">
        <ele>526.6</ele>
        <time>2021-12-27T17:43:35Z</time>
      </trkpt>
      <trkpt lat="37.6697120" lon="-4.0085970">
        <ele>526.8</ele>
        <time>2021-12-27T17:43:36Z</time>
      </trkpt>
      <trkpt lat="37.6697120" lon="-4.0086260">
        <ele>526.8</ele>
        <time>2021-12-27T17:43:37Z</time>
      </trkpt>
      <trkpt lat="37.6697120" lon="-4.0086560">
        <ele>527.0</ele>
        <time>2021-12-27T17:43:38Z</time>
      </trkpt>
      <trkpt lat="37.6697120" lon="-4.0086950">
        <ele>527.0</ele>
        <time>2021-12-27T17:43:39Z</time>
      </trkpt>
      <trkpt lat="37.6697120" lon="-4.0087300">
        <ele>527.0</ele>
        <time>2021-12-27T17:43:40Z</time>
      </trkpt>
      <trkpt lat="37.6697090" lon="-4.0087780">
        <ele>527.2</ele>
        <time>2021-12-27T17:43:41Z</time>
      </trkpt>
      <trkpt lat="37.6697090" lon="-4.0088100">
        <ele>527.2</ele>
        <time>2021-12-27T17:43:42Z</time>
      </trkpt>
      <trkpt lat="37.6697090" lon="-4.0088520">
        <ele>527.2</ele>
        <time>2021-12-27T17:43:43Z</time>
      </trkpt>
      <trkpt lat="37.6697090" lon="-4.0088940">
        <ele>527.2</ele>
        <time>2021-12-27T17:43:44Z</time>
      </trkpt>
      <trkpt lat="37.6697090" lon="-4.0089350">
        <ele>527.2</ele>
        <time>2021-12-27T17:43:45Z</time>
      </trkpt>
      <trkpt lat="37.6697090" lon="-4.0089800">
        <ele>527.4</ele>
        <time>2021-12-27T17:43:46Z</time>
      </trkpt>
      <trkpt lat="37.6697120" lon="-4.0090130">
        <ele>527.4</ele>
        <time>2021-12-27T17:43:47Z</time>
      </trkpt>
      <trkpt lat="37.6697150" lon="-4.0090530">
        <ele>527.4</ele>
        <time>2021-12-27T17:43:48Z</time>
      </trkpt>
      <trkpt lat="37.6697180" lon="-4.0090980">
        <ele>527.4</ele>
        <time>2021-12-27T17:43:49Z</time>
      </trkpt>
      <trkpt lat="37.6697250" lon="-4.0091430">
        <ele>527.6</ele>
        <time>2021-12-27T17:43:50Z</time>
      </trkpt>
      <trkpt lat="37.6697180" lon="-4.0091950">
        <ele>527.6</ele>
        <time>2021-12-27T17:43:51Z</time>
      </trkpt>
      <trkpt lat="37.6697180" lon="-4.0092320">
        <ele>527.8</ele>
        <time>2021-12-27T17:43:52Z</time>
      </trkpt>
      <trkpt lat="37.6697180" lon="-4.0092850">
        <ele>527.8</ele>
        <time>2021-12-27T17:43:53Z</time>
      </trkpt>
      <trkpt lat="37.6697180" lon="-4.0093180">
        <ele>527.8</ele>
        <time>2021-12-27T17:43:54Z</time>
      </trkpt>
      <trkpt lat="37.6697180" lon="-4.0093600">
        <ele>527.8</ele>
        <time>2021-12-27T17:43:55Z</time>
      </trkpt>
      <trkpt lat="37.6697180" lon="-4.0094120">
        <ele>527.8</ele>
        <time>2021-12-27T17:43:56Z</time>
      </trkpt>
      <trkpt lat="37.6697180" lon="-4.0094480">
        <ele>527.8</ele>
        <time>2021-12-27T17:43:57Z</time>
      </trkpt>
      <trkpt lat="37.6697250" lon="-4.0094930">
        <ele>527.8</ele>
        <time>2021-12-27T17:43:58Z</time>
      </trkpt>
      <trkpt lat="37.6697250" lon="-4.0095370">
        <ele>527.8</ele>
        <time>2021-12-27T17:43:59Z</time>
      </trkpt>
      <trkpt lat="37.6697250" lon="-4.0095820">
        <ele>527.8</ele>
        <time>2021-12-27T17:44:00Z</time>
      </trkpt>
      <trkpt lat="37.6697250" lon="-4.0096270">
        <ele>527.8</ele>
        <time>2021-12-27T17:44:01Z</time>
      </trkpt>
      <trkpt lat="37.6697250" lon="-4.0096720">
        <ele>527.8</ele>
        <time>2021-12-27T17:44:02Z</time>
      </trkpt>
      <trkpt lat="37.6697250" lon="-4.0097160">
        <ele>527.8</ele>
        <time>2021-12-27T17:44:03Z</time>
      </trkpt>
      <trkpt lat="37.6697280" lon="-4.0097650">
        <ele>527.8</ele>
        <time>2021-12-27T17:44:04Z</time>
      </trkpt>
      <trkpt lat="37.6697280" lon="-4.0098100">
        <ele>527.6</ele>
        <time>2021-12-27T17:44:05Z</time>
      </trkpt>
      <trkpt lat="37.6697280" lon="-4.0098520">
        <ele>527.6</ele>
        <time>2021-12-27T17:44:06Z</time>
      </trkpt>
      <trkpt lat="37.6697280" lon="-4.0098950">
        <ele>527.6</ele>
        <time>2021-12-27T17:44:07Z</time>
      </trkpt>
      <trkpt lat="37.6697280" lon="-4.0099340">
        <ele>527.6</ele>
        <time>2021-12-27T17:44:08Z</time>
      </trkpt>
      <trkpt lat="37.6697280" lon="-4.0099720">
        <ele>527.4</ele>
        <time>2021-12-27T17:44:09Z</time>
      </trkpt>
      <trkpt lat="37.6697310" lon="-4.0100160">
        <ele>527.4</ele>
        <time>2021-12-27T17:44:10Z</time>
      </trkpt>
      <trkpt lat="37.6697340" lon="-4.0100600">
        <ele>527.4</ele>
        <time>2021-12-27T17:44:11Z</time>
      </trkpt>
      <trkpt lat="37.6697340" lon="-4.0101050">
        <ele>527.4</ele>
        <time>2021-12-27T17:44:12Z</time>
      </trkpt>
      <trkpt lat="37.6697310" lon="-4.0101520">
        <ele>527.4</ele>
        <time>2021-12-27T17:44:13Z</time>
      </trkpt>
      <trkpt lat="37.6697310" lon="-4.0101980">
        <ele>527.2</ele>
        <time>2021-12-27T17:44:14Z</time>
      </trkpt>
      <trkpt lat="37.6697310" lon="-4.0102440">
        <ele>527.2</ele>
        <time>2021-12-27T17:44:15Z</time>
      </trkpt>
      <trkpt lat="37.6697310" lon="-4.0102880">
        <ele>527.2</ele>
        <time>2021-12-27T17:44:16Z</time>
      </trkpt>
      <trkpt lat="37.6697310" lon="-4.0103350">
        <ele>527.2</ele>
        <time>2021-12-27T17:44:17Z</time>
      </trkpt>
      <trkpt lat="37.6697310" lon="-4.0103820">
        <ele>527.2</ele>
        <time>2021-12-27T17:44:18Z</time>
      </trkpt>
      <trkpt lat="37.6697310" lon="-4.0104400">
        <ele>527.2</ele>
        <time>2021-12-27T17:44:19Z</time>
      </trkpt>
      <trkpt lat="37.6697340" lon="-4.0104760">
        <ele>527.2</ele>
        <time>2021-12-27T17:44:20Z</time>
      </trkpt>
      <trkpt lat="37.6697340" lon="-4.0105250">
        <ele>527.2</ele>
        <time>2021-12-27T17:44:21Z</time>
      </trkpt>
      <trkpt lat="37.6697340" lon="-4.0105730">
        <ele>527.2</ele>
        <time>2021-12-27T17:44:22Z</time>
      </trkpt>
      <trkpt lat="37.6697380" lon="-4.0106200">
        <ele>527.2</ele>
        <time>2021-12-27T17:44:23Z</time>
      </trkpt>
      <trkpt lat="37.6697380" lon="-4.0106650">
        <ele>527.2</ele>
        <time>2021-12-27T17:44:24Z</time>
      </trkpt>
      <trkpt lat="37.6697380" lon="-4.0107070">
        <ele>527.2</ele>
        <time>2021-12-27T17:44:25Z</time>
      </trkpt>
      <trkpt lat="37.6697340" lon="-4.0107430">
        <ele>527.2</ele>
        <time>2021-12-27T17:44:26Z</time>
      </trkpt>
      <trkpt lat="37.6697380" lon="-4.0107820">
        <ele>527.0</ele>
        <time>2021-12-27T17:44:27Z</time>
      </trkpt>
      <trkpt lat="37.6697380" lon="-4.0108200">
        <ele>527.0</ele>
        <time>2021-12-27T17:44:28Z</time>
      </trkpt>
      <trkpt lat="37.6697380" lon="-4.0108580">
        <ele>527.0</ele>
        <time>2021-12-27T17:44:29Z</time>
      </trkpt>
      <trkpt lat="37.6697380" lon="-4.0108980">
        <ele>527.0</ele>
        <time>2021-12-27T17:44:30Z</time>
      </trkpt>
      <trkpt lat="37.6697440" lon="-4.0109380">
        <ele>527.2</ele>
        <time>2021-12-27T17:44:31Z</time>
      </trkpt>
      <trkpt lat="37.6697380" lon="-4.0109800">
        <ele>527.2</ele>
        <time>2021-12-27T17:44:32Z</time>
      </trkpt>
      <trkpt lat="37.6697440" lon="-4.0110200">
        <ele>527.2</ele>
        <time>2021-12-27T17:44:33Z</time>
      </trkpt>
      <trkpt lat="37.6697380" lon="-4.0110620">
        <ele>527.2</ele>
        <time>2021-12-27T17:44:34Z</time>
      </trkpt>
      <trkpt lat="37.6697440" lon="-4.0111060">
        <ele>527.4</ele>
        <time>2021-12-27T17:44:35Z</time>
      </trkpt>
      <trkpt lat="37.6697440" lon="-4.0111460">
        <ele>527.4</ele>
        <time>2021-12-27T17:44:36Z</time>
      </trkpt>
      <trkpt lat="37.6697470" lon="-4.0111880">
        <ele>527.6</ele>
        <time>2021-12-27T17:44:37Z</time>
      </trkpt>
      <trkpt lat="37.6697470" lon="-4.0112300">
        <ele>527.6</ele>
        <time>2021-12-27T17:44:38Z</time>
      </trkpt>
      <trkpt lat="37.6697470" lon="-4.0112770">
        <ele>527.6</ele>
        <time>2021-12-27T17:44:39Z</time>
      </trkpt>
      <trkpt lat="37.6697440" lon="-4.0113080">
        <ele>527.8</ele>
        <time>2021-12-27T17:44:40Z</time>
      </trkpt>
      <trkpt lat="37.6697470" lon="-4.0113500">
        <ele>527.8</ele>
        <time>2021-12-27T17:44:41Z</time>
      </trkpt>
      <trkpt lat="37.6697440" lon="-4.0113880">
        <ele>527.8</ele>
        <time>2021-12-27T17:44:42Z</time>
      </trkpt>
      <trkpt lat="37.6697440" lon="-4.0114280">
        <ele>527.8</ele>
        <time>2021-12-27T17:44:43Z</time>
      </trkpt>
      <trkpt lat="37.6697380" lon="-4.0114680">
        <ele>528.0</ele>
        <time>2021-12-27T17:44:44Z</time>
      </trkpt>
      <trkpt lat="37.6697380" lon="-4.0115100">
        <ele>528.0</ele>
        <time>2021-12-27T17:44:45Z</time>
      </trkpt>
      <trkpt lat="37.6697440" lon="-4.0115520">
        <ele>528.0</ele>
        <time>2021-12-27T17:44:46Z</time>
      </trkpt>
      <trkpt lat="37.6697440" lon="-4.0115950">
        <ele>528.2</ele>
        <time>2021-12-27T17:44:47Z</time>
      </trkpt>
      <trkpt lat="37.6697470" lon="-4.0116380">
        <ele>528.2</ele>
        <time>2021-12-27T17:44:48Z</time>
      </trkpt>
      <trkpt lat="37.6697470" lon="-4.0116820">
        <ele>528.4</ele>
        <time>2021-12-27T17:44:49Z</time>
      </trkpt>
      <trkpt lat="37.6697470" lon="-4.0117250">
        <ele>528.4</ele>
        <time>2021-12-27T17:44:50Z</time>
      </trkpt>
      <trkpt lat="37.6697470" lon="-4.0117620">
        <ele>528.4</ele>
        <time>2021-12-27T17:44:51Z</time>
      </trkpt>
      <trkpt lat="37.6697470" lon="-4.0117980">
        <ele>528.6</ele>
        <time>2021-12-27T17:44:52Z</time>
      </trkpt>
      <trkpt lat="37.6697470" lon="-4.0118350">
        <ele>528.6</ele>
        <time>2021-12-27T17:44:53Z</time>
      </trkpt>
      <trkpt lat="37.6697540" lon="-4.0118820">
        <ele>528.6</ele>
        <time>2021-12-27T17:44:54Z</time>
      </trkpt>
      <trkpt lat="37.6697500" lon="-4.0119220">
        <ele>528.6</ele>
        <time>2021-12-27T17:44:55Z</time>
      </trkpt>
      <trkpt lat="37.6697500" lon="-4.0119650">
        <ele>528.6</ele>
        <time>2021-12-27T17:44:56Z</time>
      </trkpt>
      <trkpt lat="37.6697570" lon="-4.0120120">
        <ele>528.6</ele>
        <time>2021-12-27T17:44:57Z</time>
      </trkpt>
      <trkpt lat="37.6697630" lon="-4.0120620">
        <ele>528.8</ele>
        <time>2021-12-27T17:44:58Z</time>
      </trkpt>
      <trkpt lat="37.6697630" lon="-4.0121050">
        <ele>528.8</ele>
        <time>2021-12-27T17:44:59Z</time>
      </trkpt>
      <trkpt lat="37.6697570" lon="-4.0121460">
        <ele>528.8</ele>
        <time>2021-12-27T17:45:00Z</time>
      </trkpt>
      <trkpt lat="37.6697570" lon="-4.0121850">
        <ele>529.0</ele>
        <time>2021-12-27T17:45:01Z</time>
      </trkpt>
      <trkpt lat="37.6697570" lon="-4.0122260">
        <ele>529.0</ele>
        <time>2021-12-27T17:45:02Z</time>
      </trkpt>
      <trkpt lat="37.6697570" lon="-4.0122670">
        <ele>529.0</ele>
        <time>2021-12-27T17:45:03Z</time>
      </trkpt>
      <trkpt lat="37.6697540" lon="-4.0123070">
        <ele>529.0</ele>
        <time>2021-12-27T17:45:04Z</time>
      </trkpt>
      <trkpt lat="37.6697540" lon="-4.0123480">
        <ele>529.0</ele>
        <time>2021-12-27T17:45:05Z</time>
      </trkpt>
      <trkpt lat="37.6697570" lon="-4.0123880">
        <ele>529.0</ele>
        <time>2021-12-27T17:45:06Z</time>
      </trkpt>
      <trkpt lat="37.6697630" lon="-4.0124280">
        <ele>528.8</ele>
        <time>2021-12-27T17:45:07Z</time>
      </trkpt>
      <trkpt lat="37.6697570" lon="-4.0124660">
        <ele>528.8</ele>
        <time>2021-12-27T17:45:08Z</time>
      </trkpt>
      <trkpt lat="37.6697570" lon="-4.0125050">
        <ele>528.8</ele>
        <time>2021-12-27T17:45:09Z</time>
      </trkpt>
      <trkpt lat="37.6697630" lon="-4.0125450">
        <ele>528.6</ele>
        <time>2021-12-27T17:45:10Z</time>
      </trkpt>
      <trkpt lat="37.6697630" lon="-4.0125860">
        <ele>528.6</ele>
        <time>2021-12-27T17:45:11Z</time>
      </trkpt>
      <trkpt lat="37.6697660" lon="-4.0126270">
        <ele>528.6</ele>
        <time>2021-12-27T17:45:12Z</time>
      </trkpt>
      <trkpt lat="37.6697660" lon="-4.0126630">
        <ele>528.6</ele>
        <time>2021-12-27T17:45:13Z</time>
      </trkpt>
      <trkpt lat="37.6697660" lon="-4.0127050">
        <ele>528.6</ele>
        <time>2021-12-27T17:45:14Z</time>
      </trkpt>
      <trkpt lat="37.6697660" lon="-4.0127470">
        <ele>528.6</ele>
        <time>2021-12-27T17:45:15Z</time>
      </trkpt>
      <trkpt lat="37.6697630" lon="-4.0127880">
        <ele>528.6</ele>
        <time>2021-12-27T17:45:16Z</time>
      </trkpt>
      <trkpt lat="37.6697660" lon="-4.0128320">
        <ele>528.6</ele>
        <time>2021-12-27T17:45:17Z</time>
      </trkpt>
      <trkpt lat="37.6697630" lon="-4.0128730">
        <ele>528.6</ele>
        <time>2021-12-27T17:45:18Z</time>
      </trkpt>
      <trkpt lat="37.6697660" lon="-4.0129150">
        <ele>528.6</ele>
        <time>2021-12-27T17:45:19Z</time>
      </trkpt>
      <trkpt lat="37.6697660" lon="-4.0129580">
        <ele>528.6</ele>
        <time>2021-12-27T17:45:20Z</time>
      </trkpt>
      <trkpt lat="37.6697700" lon="-4.0130020">
        <ele>528.6</ele>
        <time>2021-12-27T17:45:21Z</time>
      </trkpt>
      <trkpt lat="37.6697730" lon="-4.0130480">
        <ele>528.4</ele>
        <time>2021-12-27T17:45:22Z</time>
      </trkpt>
      <trkpt lat="37.6697760" lon="-4.0130940">
        <ele>528.4</ele>
        <time>2021-12-27T17:45:23Z</time>
      </trkpt>
      <trkpt lat="37.6697790" lon="-4.0131380">
        <ele>528.4</ele>
        <time>2021-12-27T17:45:24Z</time>
      </trkpt>
      <trkpt lat="37.6697860" lon="-4.0131850">
        <ele>528.4</ele>
        <time>2021-12-27T17:45:25Z</time>
      </trkpt>
      <trkpt lat="37.6697890" lon="-4.0132330">
        <ele>528.4</ele>
        <time>2021-12-27T17:45:26Z</time>
      </trkpt>
      <trkpt lat="37.6697920" lon="-4.0132830">
        <ele>528.4</ele>
        <time>2021-12-27T17:45:27Z</time>
      </trkpt>
      <trkpt lat="37.6697950" lon="-4.0133350">
        <ele>528.4</ele>
        <time>2021-12-27T17:45:28Z</time>
      </trkpt>
      <trkpt lat="37.6697980" lon="-4.0133850">
        <ele>528.4</ele>
        <time>2021-12-27T17:45:29Z</time>
      </trkpt>
      <trkpt lat="37.6698080" lon="-4.0134370">
        <ele>528.4</ele>
        <time>2021-12-27T17:45:30Z</time>
      </trkpt>
      <trkpt lat="37.6698110" lon="-4.0134870">
        <ele>528.4</ele>
        <time>2021-12-27T17:45:31Z</time>
      </trkpt>
      <trkpt lat="37.6698180" lon="-4.0135380">
        <ele>528.4</ele>
        <time>2021-12-27T17:45:32Z</time>
      </trkpt>
      <trkpt lat="37.6698180" lon="-4.0135880">
        <ele>528.4</ele>
        <time>2021-12-27T17:45:33Z</time>
      </trkpt>
      <trkpt lat="37.6698270" lon="-4.0136380">
        <ele>528.4</ele>
        <time>2021-12-27T17:45:34Z</time>
      </trkpt>
      <trkpt lat="37.6698300" lon="-4.0136920">
        <ele>528.4</ele>
        <time>2021-12-27T17:45:35Z</time>
      </trkpt>
      <trkpt lat="37.6698370" lon="-4.0137470">
        <ele>528.4</ele>
        <time>2021-12-27T17:45:36Z</time>
      </trkpt>
      <trkpt lat="37.6698460" lon="-4.0138020">
        <ele>528.4</ele>
        <time>2021-12-27T17:45:37Z</time>
      </trkpt>
      <trkpt lat="37.6698530" lon="-4.0138550">
        <ele>528.4</ele>
        <time>2021-12-27T17:45:38Z</time>
      </trkpt>
      <trkpt lat="37.6698620" lon="-4.0139080">
        <ele>528.4</ele>
        <time>2021-12-27T17:45:39Z</time>
      </trkpt>
      <trkpt lat="37.6698690" lon="-4.0139650">
        <ele>528.2</ele>
        <time>2021-12-27T17:45:40Z</time>
      </trkpt>
      <trkpt lat="37.6698720" lon="-4.0140200">
        <ele>528.2</ele>
        <time>2021-12-27T17:45:41Z</time>
      </trkpt>
      <trkpt lat="37.6698780" lon="-4.0140770">
        <ele>528.2</ele>
        <time>2021-12-27T17:45:42Z</time>
      </trkpt>
      <trkpt lat="37.6698880" lon="-4.0141340">
        <ele>528.2</ele>
        <time>2021-12-27T17:45:43Z</time>
      </trkpt>
      <trkpt lat="37.6698940" lon="-4.0141920">
        <ele>528.0</ele>
        <time>2021-12-27T17:45:44Z</time>
      </trkpt>
      <trkpt lat="37.6698980" lon="-4.0142520">
        <ele>528.0</ele>
        <time>2021-12-27T17:45:45Z</time>
      </trkpt>
      <trkpt lat="37.6699070" lon="-4.0143100">
        <ele>528.0</ele>
        <time>2021-12-27T17:45:46Z</time>
      </trkpt>
      <trkpt lat="37.6699170" lon="-4.0143730">
        <ele>527.8</ele>
        <time>2021-12-27T17:45:47Z</time>
      </trkpt>
      <trkpt lat="37.6699260" lon="-4.0144370">
        <ele>527.8</ele>
        <time>2021-12-27T17:45:48Z</time>
      </trkpt>
      <trkpt lat="37.6699360" lon="-4.0144980">
        <ele>527.8</ele>
        <time>2021-12-27T17:45:49Z</time>
      </trkpt>
      <trkpt lat="37.6699490" lon="-4.0145700">
        <ele>527.8</ele>
        <time>2021-12-27T17:45:50Z</time>
      </trkpt>
      <trkpt lat="37.6699550" lon="-4.0146280">
        <ele>527.8</ele>
        <time>2021-12-27T17:45:51Z</time>
      </trkpt>
      <trkpt lat="37.6699650" lon="-4.0146760">
        <ele>527.8</ele>
        <time>2021-12-27T17:45:52Z</time>
      </trkpt>
      <trkpt lat="37.6699710" lon="-4.0147350">
        <ele>527.8</ele>
        <time>2021-12-27T17:45:53Z</time>
      </trkpt>
      <trkpt lat="37.6699780" lon="-4.0147930">
        <ele>527.8</ele>
        <time>2021-12-27T17:45:54Z</time>
      </trkpt>
      <trkpt lat="37.6699870" lon="-4.0148670">
        <ele>527.8</ele>
        <time>2021-12-27T17:45:55Z</time>
      </trkpt>
      <trkpt lat="37.6699900" lon="-4.0149140">
        <ele>527.8</ele>
        <time>2021-12-27T17:45:56Z</time>
      </trkpt>
      <trkpt lat="37.6699970" lon="-4.0149730">
        <ele>527.8</ele>
        <time>2021-12-27T17:45:57Z</time>
      </trkpt>
      <trkpt lat="37.6700030" lon="-4.0150360">
        <ele>527.8</ele>
        <time>2021-12-27T17:45:58Z</time>
      </trkpt>
      <trkpt lat="37.6700130" lon="-4.0150970">
        <ele>527.8</ele>
        <time>2021-12-27T17:45:59Z</time>
      </trkpt>
      <trkpt lat="37.6700260" lon="-4.0151550">
        <ele>527.8</ele>
        <time>2021-12-27T17:46:00Z</time>
      </trkpt>
      <trkpt lat="37.6700320" lon="-4.0152140">
        <ele>527.6</ele>
        <time>2021-12-27T17:46:01Z</time>
      </trkpt>
      <trkpt lat="37.6700350" lon="-4.0152700">
        <ele>527.6</ele>
        <time>2021-12-27T17:46:02Z</time>
      </trkpt>
      <trkpt lat="37.6700420" lon="-4.0153300">
        <ele>527.6</ele>
        <time>2021-12-27T17:46:03Z</time>
      </trkpt>
      <trkpt lat="37.6700510" lon="-4.0154000">
        <ele>527.6</ele>
        <time>2021-12-27T17:46:04Z</time>
      </trkpt>
      <trkpt lat="37.6700540" lon="-4.0154570">
        <ele>527.6</ele>
        <time>2021-12-27T17:46:05Z</time>
      </trkpt>
      <trkpt lat="37.6700610" lon="-4.0155020">
        <ele>527.6</ele>
        <time>2021-12-27T17:46:06Z</time>
      </trkpt>
      <trkpt lat="37.6700640" lon="-4.0155570">
        <ele>527.6</ele>
        <time>2021-12-27T17:46:07Z</time>
      </trkpt>
      <trkpt lat="37.6700700" lon="-4.0156150">
        <ele>527.6</ele>
        <time>2021-12-27T17:46:08Z</time>
      </trkpt>
      <trkpt lat="37.6700830" lon="-4.0156860">
        <ele>527.8</ele>
        <time>2021-12-27T17:46:09Z</time>
      </trkpt>
      <trkpt lat="37.6700900" lon="-4.0157330">
        <ele>527.8</ele>
        <time>2021-12-27T17:46:10Z</time>
      </trkpt>
      <trkpt lat="37.6701020" lon="-4.0158050">
        <ele>527.8</ele>
        <time>2021-12-27T17:46:11Z</time>
      </trkpt>
      <trkpt lat="37.6701090" lon="-4.0158550">
        <ele>527.8</ele>
        <time>2021-12-27T17:46:12Z</time>
      </trkpt>
      <trkpt lat="37.6701220" lon="-4.0159280">
        <ele>528.0</ele>
        <time>2021-12-27T17:46:13Z</time>
      </trkpt>
      <trkpt lat="37.6701280" lon="-4.0159900">
        <ele>528.0</ele>
        <time>2021-12-27T17:46:14Z</time>
      </trkpt>
      <trkpt lat="37.6701310" lon="-4.0160380">
        <ele>528.0</ele>
        <time>2021-12-27T17:46:15Z</time>
      </trkpt>
      <trkpt lat="37.6701410" lon="-4.0161100">
        <ele>528.2</ele>
        <time>2021-12-27T17:46:16Z</time>
      </trkpt>
      <trkpt lat="37.6701470" lon="-4.0161600">
        <ele>528.2</ele>
        <time>2021-12-27T17:46:17Z</time>
      </trkpt>
      <trkpt lat="37.6701570" lon="-4.0162280">
        <ele>528.2</ele>
        <time>2021-12-27T17:46:18Z</time>
      </trkpt>
      <trkpt lat="37.6701660" lon="-4.0162670">
        <ele>528.2</ele>
        <time>2021-12-27T17:46:19Z</time>
      </trkpt>
      <trkpt lat="37.6701760" lon="-4.0163100">
        <ele>528.4</ele>
        <time>2021-12-27T17:46:20Z</time>
      </trkpt>
      <trkpt lat="37.6701820" lon="-4.0163430">
        <ele>528.4</ele>
        <time>2021-12-27T17:46:21Z</time>
      </trkpt>
      <trkpt lat="37.6701860" lon="-4.0163700">
        <ele>528.4</ele>
        <time>2021-12-27T17:46:22Z</time>
      </trkpt>
      <trkpt lat="37.6701860" lon="-4.0163980">
        <ele>528.4</ele>
        <time>2021-12-27T17:46:23Z</time>
      </trkpt>
      <trkpt lat="37.6701860" lon="-4.0164300">
        <ele>528.4</ele>
        <time>2021-12-27T17:46:24Z</time>
      </trkpt>
      <trkpt lat="37.6701860" lon="-4.0164650">
        <ele>528.4</ele>
        <time>2021-12-27T17:46:25Z</time>
      </trkpt>
      <trkpt lat="37.6701890" lon="-4.0165020">
        <ele>528.4</ele>
        <time>2021-12-27T17:46:26Z</time>
      </trkpt>
      <trkpt lat="37.6701950" lon="-4.0165400">
        <ele>528.2</ele>
        <time>2021-12-27T17:46:27Z</time>
      </trkpt>
      <trkpt lat="37.6702020" lon="-4.0165740">
        <ele>528.2</ele>
        <time>2021-12-27T17:46:28Z</time>
      </trkpt>
      <trkpt lat="37.6702050" lon="-4.0166040">
        <ele>528.2</ele>
        <time>2021-12-27T17:46:29Z</time>
      </trkpt>
      <trkpt lat="37.6702080" lon="-4.0166350">
        <ele>528.0</ele>
        <time>2021-12-27T17:46:30Z</time>
      </trkpt>
      <trkpt lat="37.6702110" lon="-4.0166650">
        <ele>528.0</ele>
        <time>2021-12-27T17:46:31Z</time>
      </trkpt>
      <trkpt lat="37.6702140" lon="-4.0166960">
        <ele>527.8</ele>
        <time>2021-12-27T17:46:32Z</time>
      </trkpt>
      <trkpt lat="37.6702210" lon="-4.0167280">
        <ele>527.8</ele>
        <time>2021-12-27T17:46:33Z</time>
      </trkpt>
      <trkpt lat="37.6702240" lon="-4.0167560">
        <ele>527.8</ele>
        <time>2021-12-27T17:46:34Z</time>
      </trkpt>
      <trkpt lat="37.6702270" lon="-4.0167850">
        <ele>527.8</ele>
        <time>2021-12-27T17:46:35Z</time>
      </trkpt>
      <trkpt lat="37.6702300" lon="-4.0168130">
        <ele>527.8</ele>
        <time>2021-12-27T17:46:36Z</time>
      </trkpt>
      <trkpt lat="37.6702340" lon="-4.0168380">
        <ele>527.6</ele>
        <time>2021-12-27T17:46:37Z</time>
      </trkpt>
      <trkpt lat="37.6702400" lon="-4.0168650">
        <ele>527.6</ele>
        <time>2021-12-27T17:46:38Z</time>
      </trkpt>
      <trkpt lat="37.6702430" lon="-4.0168900">
        <ele>527.6</ele>
        <time>2021-12-27T17:46:39Z</time>
      </trkpt>
      <trkpt lat="37.6702460" lon="-4.0169180">
        <ele>527.6</ele>
        <time>2021-12-27T17:46:40Z</time>
      </trkpt>
      <trkpt lat="37.6702500" lon="-4.0169450">
        <ele>527.6</ele>
        <time>2021-12-27T17:46:41Z</time>
      </trkpt>
      <trkpt lat="37.6702530" lon="-4.0169700">
        <ele>527.6</ele>
        <time>2021-12-27T17:46:42Z</time>
      </trkpt>
      <trkpt lat="37.6702560" lon="-4.0169950">
        <ele>527.6</ele>
        <time>2021-12-27T17:46:43Z</time>
      </trkpt>
      <trkpt lat="37.6702560" lon="-4.0170180">
        <ele>527.6</ele>
        <time>2021-12-27T17:46:44Z</time>
      </trkpt>
      <trkpt lat="37.6702620" lon="-4.0170420">
        <ele>527.6</ele>
        <time>2021-12-27T17:46:45Z</time>
      </trkpt>
      <trkpt lat="37.6702660" lon="-4.0170660">
        <ele>527.8</ele>
        <time>2021-12-27T17:46:46Z</time>
      </trkpt>
      <trkpt lat="37.6702660" lon="-4.0170930">
        <ele>527.8</ele>
        <time>2021-12-27T17:46:47Z</time>
      </trkpt>
      <trkpt lat="37.6702690" lon="-4.0171200">
        <ele>527.8</ele>
        <time>2021-12-27T17:46:48Z</time>
      </trkpt>
      <trkpt lat="37.6702720" lon="-4.0171480">
        <ele>527.8</ele>
        <time>2021-12-27T17:46:49Z</time>
      </trkpt>
      <trkpt lat="37.6702750" lon="-4.0171770">
        <ele>527.6</ele>
        <time>2021-12-27T17:46:50Z</time>
      </trkpt>
      <trkpt lat="37.6702820" lon="-4.0172070">
        <ele>527.6</ele>
        <time>2021-12-27T17:46:51Z</time>
      </trkpt>
      <trkpt lat="37.6702850" lon="-4.0172350">
        <ele>527.6</ele>
        <time>2021-12-27T17:46:52Z</time>
      </trkpt>
      <trkpt lat="37.6702880" lon="-4.0172620">
        <ele>527.6</ele>
        <time>2021-12-27T17:46:53Z</time>
      </trkpt>
      <trkpt lat="37.6702880" lon="-4.0172870">
        <ele>527.6</ele>
        <time>2021-12-27T17:46:54Z</time>
      </trkpt>
      <trkpt lat="37.6702880" lon="-4.0173170">
        <ele>527.6</ele>
        <time>2021-12-27T17:46:55Z</time>
      </trkpt>
      <trkpt lat="37.6702910" lon="-4.0173440">
        <ele>527.6</ele>
        <time>2021-12-27T17:46:56Z</time>
      </trkpt>
      <trkpt lat="37.6703010" lon="-4.0173700">
        <ele>527.6</ele>
        <time>2021-12-27T17:46:57Z</time>
      </trkpt>
      <trkpt lat="37.6703040" lon="-4.0173960">
        <ele>527.6</ele>
        <time>2021-12-27T17:46:58Z</time>
      </trkpt>
      <trkpt lat="37.6703070" lon="-4.0174250">
        <ele>527.6</ele>
        <time>2021-12-27T17:46:59Z</time>
      </trkpt>
      <trkpt lat="37.6703140" lon="-4.0174530">
        <ele>527.6</ele>
        <time>2021-12-27T17:47:00Z</time>
      </trkpt>
      <trkpt lat="37.6703200" lon="-4.0174800">
        <ele>527.6</ele>
        <time>2021-12-27T17:47:01Z</time>
      </trkpt>
      <trkpt lat="37.6703200" lon="-4.0175050">
        <ele>527.6</ele>
        <time>2021-12-27T17:47:02Z</time>
      </trkpt>
      <trkpt lat="37.6703230" lon="-4.0175300">
        <ele>527.6</ele>
        <time>2021-12-27T17:47:03Z</time>
      </trkpt>
      <trkpt lat="37.6703260" lon="-4.0175570">
        <ele>527.8</ele>
        <time>2021-12-27T17:47:04Z</time>
      </trkpt>
      <trkpt lat="37.6703300" lon="-4.0175820">
        <ele>527.8</ele>
        <time>2021-12-27T17:47:05Z</time>
      </trkpt>
      <trkpt lat="37.6703300" lon="-4.0176100">
        <ele>527.8</ele>
        <time>2021-12-27T17:47:06Z</time>
      </trkpt>
      <trkpt lat="37.6703390" lon="-4.0176380">
        <ele>527.8</ele>
        <time>2021-12-27T17:47:07Z</time>
      </trkpt>
      <trkpt lat="37.6703420" lon="-4.0176670">
        <ele>527.8</ele>
        <time>2021-12-27T17:47:08Z</time>
      </trkpt>
      <trkpt lat="37.6703460" lon="-4.0176920">
        <ele>527.8</ele>
        <time>2021-12-27T17:47:09Z</time>
      </trkpt>
      <trkpt lat="37.6703490" lon="-4.0177170">
        <ele>527.8</ele>
        <time>2021-12-27T17:47:10Z</time>
      </trkpt>
      <trkpt lat="37.6703520" lon="-4.0177430">
        <ele>527.6</ele>
        <time>2021-12-27T17:47:11Z</time>
      </trkpt>
      <trkpt lat="37.6703520" lon="-4.0177700">
        <ele>527.6</ele>
        <time>2021-12-27T17:47:12Z</time>
      </trkpt>
      <trkpt lat="37.6703620" lon="-4.0178000">
        <ele>527.6</ele>
        <time>2021-12-27T17:47:13Z</time>
      </trkpt>
      <trkpt lat="37.6703680" lon="-4.0178300">
        <ele>527.6</ele>
        <time>2021-12-27T17:47:14Z</time>
      </trkpt>
      <trkpt lat="37.6703680" lon="-4.0178650">
        <ele>527.6</ele>
        <time>2021-12-27T17:47:15Z</time>
      </trkpt>
      <trkpt lat="37.6703710" lon="-4.0178880">
        <ele>527.6</ele>
        <time>2021-12-27T17:47:16Z</time>
      </trkpt>
      <trkpt lat="37.6703810" lon="-4.0179180">
        <ele>527.6</ele>
        <time>2021-12-27T17:47:17Z</time>
      </trkpt>
      <trkpt lat="37.6703840" lon="-4.0179470">
        <ele>527.4</ele>
        <time>2021-12-27T17:47:18Z</time>
      </trkpt>
      <trkpt lat="37.6703840" lon="-4.0179770">
        <ele>527.4</ele>
        <time>2021-12-27T17:47:19Z</time>
      </trkpt>
      <trkpt lat="37.6703870" lon="-4.0180070">
        <ele>527.4</ele>
        <time>2021-12-27T17:47:20Z</time>
      </trkpt>
      <trkpt lat="37.6703900" lon="-4.0180370">
        <ele>527.4</ele>
        <time>2021-12-27T17:47:21Z</time>
      </trkpt>
      <trkpt lat="37.6703940" lon="-4.0180680">
        <ele>527.4</ele>
        <time>2021-12-27T17:47:22Z</time>
      </trkpt>
      <trkpt lat="37.6703940" lon="-4.0181020">
        <ele>527.4</ele>
        <time>2021-12-27T17:47:23Z</time>
      </trkpt>
      <trkpt lat="37.6704030" lon="-4.0181400">
        <ele>527.4</ele>
        <time>2021-12-27T17:47:24Z</time>
      </trkpt>
      <trkpt lat="37.6704060" lon="-4.0181800">
        <ele>527.6</ele>
        <time>2021-12-27T17:47:25Z</time>
      </trkpt>
      <trkpt lat="37.6704100" lon="-4.0182230">
        <ele>527.6</ele>
        <time>2021-12-27T17:47:26Z</time>
      </trkpt>
      <trkpt lat="37.6704130" lon="-4.0182630">
        <ele>527.8</ele>
        <time>2021-12-27T17:47:27Z</time>
      </trkpt>
      <trkpt lat="37.6704220" lon="-4.0183080">
        <ele>527.8</ele>
        <time>2021-12-27T17:47:28Z</time>
      </trkpt>
      <trkpt lat="37.6704260" lon="-4.0183550">
        <ele>528.0</ele>
        <time>2021-12-27T17:47:29Z</time>
      </trkpt>
      <trkpt lat="37.6704290" lon="-4.0184040">
        <ele>528.2</ele>
        <time>2021-12-27T17:47:30Z</time>
      </trkpt>
      <trkpt lat="37.6704380" lon="-4.0184520">
        <ele>528.2</ele>
        <time>2021-12-27T17:47:31Z</time>
      </trkpt>
      <trkpt lat="37.6704450" lon="-4.0184980">
        <ele>528.2</ele>
        <time>2021-12-27T17:47:32Z</time>
      </trkpt>
      <trkpt lat="37.6704480" lon="-4.0185480">
        <ele>528.2</ele>
        <time>2021-12-27T17:47:33Z</time>
      </trkpt>
      <trkpt lat="37.6704540" lon="-4.0185980">
        <ele>528.4</ele>
        <time>2021-12-27T17:47:34Z</time>
      </trkpt>
      <trkpt lat="37.6704610" lon="-4.0186500">
        <ele>528.4</ele>
        <time>2021-12-27T17:47:35Z</time>
      </trkpt>
      <trkpt lat="37.6704640" lon="-4.0187040">
        <ele>528.6</ele>
        <time>2021-12-27T17:47:36Z</time>
      </trkpt>
      <trkpt lat="37.6704700" lon="-4.0187550">
        <ele>528.6</ele>
        <time>2021-12-27T17:47:37Z</time>
      </trkpt>
      <trkpt lat="37.6704800" lon="-4.0188030">
        <ele>528.6</ele>
        <time>2021-12-27T17:47:38Z</time>
      </trkpt>
      <trkpt lat="37.6704830" lon="-4.0188500">
        <ele>528.6</ele>
        <time>2021-12-27T17:47:39Z</time>
      </trkpt>
      <trkpt lat="37.6704900" lon="-4.0188950">
        <ele>528.6</ele>
        <time>2021-12-27T17:47:40Z</time>
      </trkpt>
      <trkpt lat="37.6704990" lon="-4.0189380">
        <ele>528.6</ele>
        <time>2021-12-27T17:47:41Z</time>
      </trkpt>
      <trkpt lat="37.6705020" lon="-4.0189800">
        <ele>528.6</ele>
        <time>2021-12-27T17:47:42Z</time>
      </trkpt>
      <trkpt lat="37.6705090" lon="-4.0190200">
        <ele>528.6</ele>
        <time>2021-12-27T17:47:43Z</time>
      </trkpt>
      <trkpt lat="37.6705120" lon="-4.0190580">
        <ele>528.4</ele>
        <time>2021-12-27T17:47:44Z</time>
      </trkpt>
      <trkpt lat="37.6705180" lon="-4.0190950">
        <ele>528.4</ele>
        <time>2021-12-27T17:47:45Z</time>
      </trkpt>
      <trkpt lat="37.6705250" lon="-4.0191320">
        <ele>528.4</ele>
        <time>2021-12-27T17:47:46Z</time>
      </trkpt>
      <trkpt lat="37.6705280" lon="-4.0191680">
        <ele>528.4</ele>
        <time>2021-12-27T17:47:47Z</time>
      </trkpt>
      <trkpt lat="37.6705310" lon="-4.0192050">
        <ele>528.4</ele>
        <time>2021-12-27T17:47:48Z</time>
      </trkpt>
      <trkpt lat="37.6705380" lon="-4.0192430">
        <ele>528.4</ele>
        <time>2021-12-27T17:47:49Z</time>
      </trkpt>
      <trkpt lat="37.6705410" lon="-4.0192830">
        <ele>528.6</ele>
        <time>2021-12-27T17:47:50Z</time>
      </trkpt>
      <trkpt lat="37.6705470" lon="-4.0193230">
        <ele>528.6</ele>
        <time>2021-12-27T17:47:51Z</time>
      </trkpt>
      <trkpt lat="37.6705540" lon="-4.0193640">
        <ele>528.6</ele>
        <time>2021-12-27T17:47:52Z</time>
      </trkpt>
      <trkpt lat="37.6705600" lon="-4.0194050">
        <ele>528.6</ele>
        <time>2021-12-27T17:47:53Z</time>
      </trkpt>
      <trkpt lat="37.6705630" lon="-4.0194450">
        <ele>528.6</ele>
        <time>2021-12-27T17:47:54Z</time>
      </trkpt>
      <trkpt lat="37.6705700" lon="-4.0194920">
        <ele>528.6</ele>
        <time>2021-12-27T17:47:55Z</time>
      </trkpt>
      <trkpt lat="37.6705730" lon="-4.0195230">
        <ele>528.6</ele>
        <time>2021-12-27T17:47:56Z</time>
      </trkpt>
      <trkpt lat="37.6705820" lon="-4.0195630">
        <ele>528.8</ele>
        <time>2021-12-27T17:47:57Z</time>
      </trkpt>
      <trkpt lat="37.6705890" lon="-4.0196080">
        <ele>528.8</ele>
        <time>2021-12-27T17:47:58Z</time>
      </trkpt>
      <trkpt lat="37.6705920" lon="-4.0196500">
        <ele>528.8</ele>
        <time>2021-12-27T17:47:59Z</time>
      </trkpt>
      <trkpt lat="37.6706020" lon="-4.0196920">
        <ele>528.8</ele>
        <time>2021-12-27T17:48:00Z</time>
      </trkpt>
      <trkpt lat="37.6706080" lon="-4.0197350">
        <ele>528.8</ele>
        <time>2021-12-27T17:48:01Z</time>
      </trkpt>
      <trkpt lat="37.6706110" lon="-4.0197750">
        <ele>528.8</ele>
        <time>2021-12-27T17:48:02Z</time>
      </trkpt>
      <trkpt lat="37.6706210" lon="-4.0198170">
        <ele>528.8</ele>
        <time>2021-12-27T17:48:03Z</time>
      </trkpt>
      <trkpt lat="37.6706240" lon="-4.0198600">
        <ele>528.8</ele>
        <time>2021-12-27T17:48:04Z</time>
      </trkpt>
      <trkpt lat="37.6706300" lon="-4.0199030">
        <ele>528.8</ele>
        <time>2021-12-27T17:48:05Z</time>
      </trkpt>
      <trkpt lat="37.6706300" lon="-4.0199450">
        <ele>528.8</ele>
        <time>2021-12-27T17:48:06Z</time>
      </trkpt>
      <trkpt lat="37.6706400" lon="-4.0199870">
        <ele>528.8</ele>
        <time>2021-12-27T17:48:07Z</time>
      </trkpt>
      <trkpt lat="37.6706430" lon="-4.0200300">
        <ele>529.0</ele>
        <time>2021-12-27T17:48:08Z</time>
      </trkpt>
      <trkpt lat="37.6706460" lon="-4.0200700">
        <ele>529.0</ele>
        <time>2021-12-27T17:48:09Z</time>
      </trkpt>
      <trkpt lat="37.6706500" lon="-4.0201100">
        <ele>529.0</ele>
        <time>2021-12-27T17:48:10Z</time>
      </trkpt>
      <trkpt lat="37.6706530" lon="-4.0201480">
        <ele>529.0</ele>
        <time>2021-12-27T17:48:11Z</time>
      </trkpt>
      <trkpt lat="37.6706590" lon="-4.0201870">
        <ele>529.0</ele>
        <time>2021-12-27T17:48:12Z</time>
      </trkpt>
      <trkpt lat="37.6706620" lon="-4.0202250">
        <ele>528.8</ele>
        <time>2021-12-27T17:48:13Z</time>
      </trkpt>
      <trkpt lat="37.6706660" lon="-4.0202680">
        <ele>528.8</ele>
        <time>2021-12-27T17:48:14Z</time>
      </trkpt>
      <trkpt lat="37.6706720" lon="-4.0203100">
        <ele>528.8</ele>
        <time>2021-12-27T17:48:15Z</time>
      </trkpt>
      <trkpt lat="37.6706780" lon="-4.0203530">
        <ele>528.8</ele>
        <time>2021-12-27T17:48:16Z</time>
      </trkpt>
      <trkpt lat="37.6706820" lon="-4.0203980">
        <ele>528.8</ele>
        <time>2021-12-27T17:48:17Z</time>
      </trkpt>
      <trkpt lat="37.6706850" lon="-4.0204420">
        <ele>528.8</ele>
        <time>2021-12-27T17:48:18Z</time>
      </trkpt>
      <trkpt lat="37.6706880" lon="-4.0204870">
        <ele>528.8</ele>
        <time>2021-12-27T17:48:19Z</time>
      </trkpt>
      <trkpt lat="37.6706980" lon="-4.0205320">
        <ele>528.8</ele>
        <time>2021-12-27T17:48:20Z</time>
      </trkpt>
      <trkpt lat="37.6707040" lon="-4.0205750">
        <ele>528.8</ele>
        <time>2021-12-27T17:48:21Z</time>
      </trkpt>
      <trkpt lat="37.6707100" lon="-4.0206180">
        <ele>529.0</ele>
        <time>2021-12-27T17:48:22Z</time>
      </trkpt>
      <trkpt lat="37.6707170" lon="-4.0206600">
        <ele>529.0</ele>
        <time>2021-12-27T17:48:23Z</time>
      </trkpt>
      <trkpt lat="37.6707200" lon="-4.0207030">
        <ele>529.0</ele>
        <time>2021-12-27T17:48:24Z</time>
      </trkpt>
      <trkpt lat="37.6707260" lon="-4.0207450">
        <ele>529.0</ele>
        <time>2021-12-27T17:48:25Z</time>
      </trkpt>
      <trkpt lat="37.6707390" lon="-4.0207880">
        <ele>529.0</ele>
        <time>2021-12-27T17:48:26Z</time>
      </trkpt>
      <trkpt lat="37.6707420" lon="-4.0208300">
        <ele>529.0</ele>
        <time>2021-12-27T17:48:27Z</time>
      </trkpt>
      <trkpt lat="37.6707490" lon="-4.0208740">
        <ele>529.0</ele>
        <time>2021-12-27T17:48:28Z</time>
      </trkpt>
      <trkpt lat="37.6707580" lon="-4.0209150">
        <ele>529.0</ele>
        <time>2021-12-27T17:48:29Z</time>
      </trkpt>
      <trkpt lat="37.6707620" lon="-4.0209560">
        <ele>529.0</ele>
        <time>2021-12-27T17:48:30Z</time>
      </trkpt>
      <trkpt lat="37.6707650" lon="-4.0209980">
        <ele>529.0</ele>
        <time>2021-12-27T17:48:31Z</time>
      </trkpt>
      <trkpt lat="37.6707680" lon="-4.0210430">
        <ele>529.0</ele>
        <time>2021-12-27T17:48:32Z</time>
      </trkpt>
      <trkpt lat="37.6707710" lon="-4.0210880">
        <ele>529.0</ele>
        <time>2021-12-27T17:48:33Z</time>
      </trkpt>
      <trkpt lat="37.6707810" lon="-4.0211320">
        <ele>529.2</ele>
        <time>2021-12-27T17:48:34Z</time>
      </trkpt>
      <trkpt lat="37.6707840" lon="-4.0211750">
        <ele>529.2</ele>
        <time>2021-12-27T17:48:35Z</time>
      </trkpt>
      <trkpt lat="37.6707900" lon="-4.0212170">
        <ele>529.2</ele>
        <time>2021-12-27T17:48:36Z</time>
      </trkpt>
      <trkpt lat="37.6707970" lon="-4.0212630">
        <ele>529.4</ele>
        <time>2021-12-27T17:48:37Z</time>
      </trkpt>
      <trkpt lat="37.6708030" lon="-4.0213080">
        <ele>529.2</ele>
        <time>2021-12-27T17:48:38Z</time>
      </trkpt>
      <trkpt lat="37.6708060" lon="-4.0213530">
        <ele>529.4</ele>
        <time>2021-12-27T17:48:39Z</time>
      </trkpt>
      <trkpt lat="37.6708160" lon="-4.0213980">
        <ele>529.4</ele>
        <time>2021-12-27T17:48:40Z</time>
      </trkpt>
      <trkpt lat="37.6708190" lon="-4.0214420">
        <ele>529.4</ele>
        <time>2021-12-27T17:48:41Z</time>
      </trkpt>
      <trkpt lat="37.6708260" lon="-4.0214870">
        <ele>529.4</ele>
        <time>2021-12-27T17:48:42Z</time>
      </trkpt>
      <trkpt lat="37.6708290" lon="-4.0215300">
        <ele>529.4</ele>
        <time>2021-12-27T17:48:43Z</time>
      </trkpt>
      <trkpt lat="37.6708380" lon="-4.0215720">
        <ele>529.4</ele>
        <time>2021-12-27T17:48:44Z</time>
      </trkpt>
      <trkpt lat="37.6708420" lon="-4.0216150">
        <ele>529.4</ele>
        <time>2021-12-27T17:48:45Z</time>
      </trkpt>
      <trkpt lat="37.6708450" lon="-4.0216550">
        <ele>529.4</ele>
        <time>2021-12-27T17:48:46Z</time>
      </trkpt>
      <trkpt lat="37.6708480" lon="-4.0216950">
        <ele>529.2</ele>
        <time>2021-12-27T17:48:47Z</time>
      </trkpt>
      <trkpt lat="37.6708510" lon="-4.0217350">
        <ele>529.2</ele>
        <time>2021-12-27T17:48:48Z</time>
      </trkpt>
      <trkpt lat="37.6708610" lon="-4.0217750">
        <ele>529.2</ele>
        <time>2021-12-27T17:48:49Z</time>
      </trkpt>
      <trkpt lat="37.6708670" lon="-4.0218170">
        <ele>529.2</ele>
        <time>2021-12-27T17:48:50Z</time>
      </trkpt>
      <trkpt lat="37.6708700" lon="-4.0218570">
        <ele>529.2</ele>
        <time>2021-12-27T17:48:51Z</time>
      </trkpt>
      <trkpt lat="37.6708770" lon="-4.0218950">
        <ele>529.2</ele>
        <time>2021-12-27T17:48:52Z</time>
      </trkpt>
      <trkpt lat="37.6708830" lon="-4.0219340">
        <ele>529.2</ele>
        <time>2021-12-27T17:48:53Z</time>
      </trkpt>
      <trkpt lat="37.6708860" lon="-4.0219700">
        <ele>529.2</ele>
        <time>2021-12-27T17:48:54Z</time>
      </trkpt>
      <trkpt lat="37.6708900" lon="-4.0220100">
        <ele>529.2</ele>
        <time>2021-12-27T17:48:55Z</time>
      </trkpt>
      <trkpt lat="37.6708990" lon="-4.0220460">
        <ele>529.2</ele>
        <time>2021-12-27T17:48:56Z</time>
      </trkpt>
      <trkpt lat="37.6709020" lon="-4.0220850">
        <ele>529.2</ele>
        <time>2021-12-27T17:48:57Z</time>
      </trkpt>
      <trkpt lat="37.6709060" lon="-4.0221230">
        <ele>529.2</ele>
        <time>2021-12-27T17:48:58Z</time>
      </trkpt>
      <trkpt lat="37.6709150" lon="-4.0221630">
        <ele>529.2</ele>
        <time>2021-12-27T17:48:59Z</time>
      </trkpt>
      <trkpt lat="37.6709180" lon="-4.0222020">
        <ele>529.2</ele>
        <time>2021-12-27T17:49:00Z</time>
      </trkpt>
      <trkpt lat="37.6709220" lon="-4.0222400">
        <ele>529.2</ele>
        <time>2021-12-27T17:49:01Z</time>
      </trkpt>
      <trkpt lat="37.6709280" lon="-4.0222780">
        <ele>529.2</ele>
        <time>2021-12-27T17:49:02Z</time>
      </trkpt>
      <trkpt lat="37.6709310" lon="-4.0223150">
        <ele>529.4</ele>
        <time>2021-12-27T17:49:03Z</time>
      </trkpt>
      <trkpt lat="37.6709380" lon="-4.0223520">
        <ele>529.4</ele>
        <time>2021-12-27T17:49:04Z</time>
      </trkpt>
      <trkpt lat="37.6709470" lon="-4.0223860">
        <ele>529.6</ele>
        <time>2021-12-27T17:49:05Z</time>
      </trkpt>
      <trkpt lat="37.6709500" lon="-4.0224180">
        <ele>529.6</ele>
        <time>2021-12-27T17:49:06Z</time>
      </trkpt>
      <trkpt lat="37.6709570" lon="-4.0224500">
        <ele>529.6</ele>
        <time>2021-12-27T17:49:07Z</time>
      </trkpt>
      <trkpt lat="37.6709600" lon="-4.0224820">
        <ele>529.8</ele>
        <time>2021-12-27T17:49:08Z</time>
      </trkpt>
      <trkpt lat="37.6709630" lon="-4.0225200">
        <ele>529.8</ele>
        <time>2021-12-27T17:49:09Z</time>
      </trkpt>
      <trkpt lat="37.6709630" lon="-4.0225470">
        <ele>529.8</ele>
        <time>2021-12-27T17:49:10Z</time>
      </trkpt>
      <trkpt lat="37.6709660" lon="-4.0225820">
        <ele>529.8</ele>
        <time>2021-12-27T17:49:11Z</time>
      </trkpt>
      <trkpt lat="37.6709660" lon="-4.0226070">
        <ele>529.8</ele>
        <time>2021-12-27T17:49:12Z</time>
      </trkpt>
      <trkpt lat="37.6709760" lon="-4.0226340">
        <ele>529.8</ele>
        <time>2021-12-27T17:49:13Z</time>
      </trkpt>
      <trkpt lat="37.6709790" lon="-4.0226660">
        <ele>529.8</ele>
        <time>2021-12-27T17:49:14Z</time>
      </trkpt>
      <trkpt lat="37.6709860" lon="-4.0226900">
        <ele>529.8</ele>
        <time>2021-12-27T17:49:15Z</time>
      </trkpt>
      <trkpt lat="37.6709890" lon="-4.0227180">
        <ele>529.8</ele>
        <time>2021-12-27T17:49:16Z</time>
      </trkpt>
      <trkpt lat="37.6709890" lon="-4.0227500">
        <ele>529.8</ele>
        <time>2021-12-27T17:49:17Z</time>
      </trkpt>
      <trkpt lat="37.6709950" lon="-4.0227820">
        <ele>529.8</ele>
        <time>2021-12-27T17:49:18Z</time>
      </trkpt>
      <trkpt lat="37.6709980" lon="-4.0228100">
        <ele>529.8</ele>
        <time>2021-12-27T17:49:19Z</time>
      </trkpt>
      <trkpt lat="37.6710020" lon="-4.0228400">
        <ele>529.8</ele>
        <time>2021-12-27T17:49:20Z</time>
      </trkpt>
      <trkpt lat="37.6710050" lon="-4.0228670">
        <ele>529.8</ele>
        <time>2021-12-27T17:49:21Z</time>
      </trkpt>
      <trkpt lat="37.6710080" lon="-4.0228950">
        <ele>529.8</ele>
        <time>2021-12-27T17:49:22Z</time>
      </trkpt>
      <trkpt lat="37.6710140" lon="-4.0229240">
        <ele>529.8</ele>
        <time>2021-12-27T17:49:23Z</time>
      </trkpt>
      <trkpt lat="37.6710180" lon="-4.0229540">
        <ele>529.8</ele>
        <time>2021-12-27T17:49:24Z</time>
      </trkpt>
      <trkpt lat="37.6710210" lon="-4.0229850">
        <ele>529.6</ele>
        <time>2021-12-27T17:49:25Z</time>
      </trkpt>
      <trkpt lat="37.6710240" lon="-4.0230130">
        <ele>529.6</ele>
        <time>2021-12-27T17:49:26Z</time>
      </trkpt>
      <trkpt lat="37.6710270" lon="-4.0230400">
        <ele>529.6</ele>
        <time>2021-12-27T17:49:27Z</time>
      </trkpt>
      <trkpt lat="37.6710300" lon="-4.0230660">
        <ele>529.6</ele>
        <time>2021-12-27T17:49:28Z</time>
      </trkpt>
      <trkpt lat="37.6710370" lon="-4.0230960">
        <ele>529.8</ele>
        <time>2021-12-27T17:49:29Z</time>
      </trkpt>
      <trkpt lat="37.6710400" lon="-4.0231250">
        <ele>529.8</ele>
        <time>2021-12-27T17:49:30Z</time>
      </trkpt>
      <trkpt lat="37.6710430" lon="-4.0231570">
        <ele>529.8</ele>
        <time>2021-12-27T17:49:31Z</time>
      </trkpt>
      <trkpt lat="37.6710460" lon="-4.0231920">
        <ele>529.8</ele>
        <time>2021-12-27T17:49:32Z</time>
      </trkpt>
      <trkpt lat="37.6710460" lon="-4.0232170">
        <ele>529.8</ele>
        <time>2021-12-27T17:49:33Z</time>
      </trkpt>
      <trkpt lat="37.6710560" lon="-4.0232470">
        <ele>530.0</ele>
        <time>2021-12-27T17:49:34Z</time>
      </trkpt>
      <trkpt lat="37.6710560" lon="-4.0232770">
        <ele>530.0</ele>
        <time>2021-12-27T17:49:35Z</time>
      </trkpt>
      <trkpt lat="37.6710620" lon="-4.0233080">
        <ele>530.2</ele>
        <time>2021-12-27T17:49:36Z</time>
      </trkpt>
      <trkpt lat="37.6710660" lon="-4.0233400">
        <ele>530.2</ele>
        <time>2021-12-27T17:49:37Z</time>
      </trkpt>
      <trkpt lat="37.6710690" lon="-4.0233720">
        <ele>530.2</ele>
        <time>2021-12-27T17:49:38Z</time>
      </trkpt>
      <trkpt lat="37.6710690" lon="-4.0234020">
        <ele>530.4</ele>
        <time>2021-12-27T17:49:39Z</time>
      </trkpt>
      <trkpt lat="37.6710780" lon="-4.0234280">
        <ele>530.4</ele>
        <time>2021-12-27T17:49:40Z</time>
      </trkpt>
      <trkpt lat="37.6710820" lon="-4.0234550">
        <ele>530.4</ele>
        <time>2021-12-27T17:49:41Z</time>
      </trkpt>
      <trkpt lat="37.6710850" lon="-4.0234850">
        <ele>530.6</ele>
        <time>2021-12-27T17:49:42Z</time>
      </trkpt>
      <trkpt lat="37.6710850" lon="-4.0235220">
        <ele>530.6</ele>
        <time>2021-12-27T17:49:43Z</time>
      </trkpt>
      <trkpt lat="37.6710940" lon="-4.0235500">
        <ele>530.6</ele>
        <time>2021-12-27T17:49:44Z</time>
      </trkpt>
      <trkpt lat="37.6710980" lon="-4.0235840">
        <ele>530.8</ele>
        <time>2021-12-27T17:49:45Z</time>
      </trkpt>
      <trkpt lat="37.6711010" lon="-4.0236150">
        <ele>530.8</ele>
        <time>2021-12-27T17:49:46Z</time>
      </trkpt>
      <trkpt lat="37.6711040" lon="-4.0236470">
        <ele>530.8</ele>
        <time>2021-12-27T17:49:47Z</time>
      </trkpt>
      <trkpt lat="37.6711040" lon="-4.0236800">
        <ele>530.8</ele>
        <time>2021-12-27T17:49:48Z</time>
      </trkpt>
      <trkpt lat="37.6711070" lon="-4.0237180">
        <ele>530.8</ele>
        <time>2021-12-27T17:49:49Z</time>
      </trkpt>
      <trkpt lat="37.6711140" lon="-4.0237460">
        <ele>531.0</ele>
        <time>2021-12-27T17:49:50Z</time>
      </trkpt>
      <trkpt lat="37.6711170" lon="-4.0237830">
        <ele>531.0</ele>
        <time>2021-12-27T17:49:51Z</time>
      </trkpt>
      <trkpt lat="37.6711200" lon="-4.0238160">
        <ele>531.0</ele>
        <time>2021-12-27T17:49:52Z</time>
      </trkpt>
      <trkpt lat="37.6711230" lon="-4.0238500">
        <ele>531.2</ele>
        <time>2021-12-27T17:49:53Z</time>
      </trkpt>
      <trkpt lat="37.6711300" lon="-4.0238880">
        <ele>531.2</ele>
        <time>2021-12-27T17:49:54Z</time>
      </trkpt>
      <trkpt lat="37.6711300" lon="-4.0239220">
        <ele>531.4</ele>
        <time>2021-12-27T17:49:55Z</time>
      </trkpt>
      <trkpt lat="37.6711360" lon="-4.0239540">
        <ele>531.4</ele>
        <time>2021-12-27T17:49:56Z</time>
      </trkpt>
      <trkpt lat="37.6711300" lon="-4.0239850">
        <ele>531.4</ele>
        <time>2021-12-27T17:49:57Z</time>
      </trkpt>
      <trkpt lat="37.6711300" lon="-4.0240150">
        <ele>531.6</ele>
        <time>2021-12-27T17:49:58Z</time>
      </trkpt>
      <trkpt lat="37.6711300" lon="-4.0240470">
        <ele>531.6</ele>
        <time>2021-12-27T17:49:59Z</time>
      </trkpt>
      <trkpt lat="37.6711300" lon="-4.0240960">
        <ele>531.6</ele>
        <time>2021-12-27T17:50:00Z</time>
      </trkpt>
      <trkpt lat="37.6711300" lon="-4.0241130">
        <ele>531.8</ele>
        <time>2021-12-27T17:50:01Z</time>
      </trkpt>
      <trkpt lat="37.6711360" lon="-4.0241480">
        <ele>532.0</ele>
        <time>2021-12-27T17:50:02Z</time>
      </trkpt>
      <trkpt lat="37.6711360" lon="-4.0241800">
        <ele>532.0</ele>
        <time>2021-12-27T17:50:03Z</time>
      </trkpt>
      <trkpt lat="37.6711360" lon="-4.0242170">
        <ele>532.0</ele>
        <time>2021-12-27T17:50:04Z</time>
      </trkpt>
      <trkpt lat="37.6711360" lon="-4.0242170">
        <ele>532.0</ele>
        <time>2021-12-27T17:50:05Z</time>
      </trkpt>
      <trkpt lat="37.6711390" lon="-4.0242670">
        <ele>532.0</ele>
        <time>2021-12-27T17:50:06Z</time>
      </trkpt>
      <trkpt lat="37.6711390" lon="-4.0242970">
        <ele>532.0</ele>
        <time>2021-12-27T17:50:07Z</time>
      </trkpt>
      <trkpt lat="37.6711420" lon="-4.0243270">
        <ele>532.0</ele>
        <time>2021-12-27T17:50:08Z</time>
      </trkpt>
      <trkpt lat="37.6711390" lon="-4.0243600">
        <ele>532.0</ele>
        <time>2021-12-27T17:50:09Z</time>
      </trkpt>
      <trkpt lat="37.6711390" lon="-4.0243940">
        <ele>532.2</ele>
        <time>2021-12-27T17:50:10Z</time>
      </trkpt>
      <trkpt lat="37.6711390" lon="-4.0244280">
        <ele>532.2</ele>
        <time>2021-12-27T17:50:11Z</time>
      </trkpt>
      <trkpt lat="37.6711360" lon="-4.0244580">
        <ele>532.4</ele>
        <time>2021-12-27T17:50:12Z</time>
      </trkpt>
      <trkpt lat="37.6711360" lon="-4.0244860">
        <ele>532.4</ele>
        <time>2021-12-27T17:50:13Z</time>
      </trkpt>
      <trkpt lat="37.6711300" lon="-4.0245130">
        <ele>532.4</ele>
        <time>2021-12-27T17:50:14Z</time>
      </trkpt>
      <trkpt lat="37.6711260" lon="-4.0245420">
        <ele>532.4</ele>
        <time>2021-12-27T17:50:15Z</time>
      </trkpt>
      <trkpt lat="37.6711260" lon="-4.0245700">
        <ele>532.4</ele>
        <time>2021-12-27T17:50:16Z</time>
      </trkpt>
      <trkpt lat="37.6711260" lon="-4.0245970">
        <ele>532.4</ele>
        <time>2021-12-27T17:50:17Z</time>
      </trkpt>
      <trkpt lat="37.6711230" lon="-4.0246270">
        <ele>532.6</ele>
        <time>2021-12-27T17:50:18Z</time>
      </trkpt>
      <trkpt lat="37.6711230" lon="-4.0246550">
        <ele>532.6</ele>
        <time>2021-12-27T17:50:19Z</time>
      </trkpt>
      <trkpt lat="37.6711230" lon="-4.0246840">
        <ele>532.6</ele>
        <time>2021-12-27T17:50:20Z</time>
      </trkpt>
      <trkpt lat="37.6711200" lon="-4.0247140">
        <ele>532.8</ele>
        <time>2021-12-27T17:50:21Z</time>
      </trkpt>
      <trkpt lat="37.6711170" lon="-4.0247380">
        <ele>532.8</ele>
        <time>2021-12-27T17:50:22Z</time>
      </trkpt>
      <trkpt lat="37.6711140" lon="-4.0247660">
        <ele>533.0</ele>
        <time>2021-12-27T17:50:23Z</time>
      </trkpt>
      <trkpt lat="37.6711070" lon="-4.0247950">
        <ele>533.0</ele>
        <time>2021-12-27T17:50:24Z</time>
      </trkpt>
      <trkpt lat="37.6711070" lon="-4.0248230">
        <ele>533.2</ele>
        <time>2021-12-27T17:50:25Z</time>
      </trkpt>
      <trkpt lat="37.6711070" lon="-4.0248500">
        <ele>533.2</ele>
        <time>2021-12-27T17:50:26Z</time>
      </trkpt>
      <trkpt lat="37.6711040" lon="-4.0248800">
        <ele>533.2</ele>
        <time>2021-12-27T17:50:27Z</time>
      </trkpt>
      <trkpt lat="37.6711010" lon="-4.0249100">
        <ele>533.2</ele>
        <time>2021-12-27T17:50:28Z</time>
      </trkpt>
      <trkpt lat="37.6711010" lon="-4.0249380">
        <ele>533.2</ele>
        <time>2021-12-27T17:50:29Z</time>
      </trkpt>
      <trkpt lat="37.6710980" lon="-4.0249650">
        <ele>533.0</ele>
        <time>2021-12-27T17:50:30Z</time>
      </trkpt>
      <trkpt lat="37.6710940" lon="-4.0249940">
        <ele>533.2</ele>
        <time>2021-12-27T17:50:31Z</time>
      </trkpt>
      <trkpt lat="37.6710850" lon="-4.0250220">
        <ele>533.2</ele>
        <time>2021-12-27T17:50:32Z</time>
      </trkpt>
      <trkpt lat="37.6710820" lon="-4.0250500">
        <ele>533.0</ele>
        <time>2021-12-27T17:50:33Z</time>
      </trkpt>
      <trkpt lat="37.6710780" lon="-4.0250780">
        <ele>533.0</ele>
        <time>2021-12-27T17:50:34Z</time>
      </trkpt>
      <trkpt lat="37.6710750" lon="-4.0251060">
        <ele>533.0</ele>
        <time>2021-12-27T17:50:35Z</time>
      </trkpt>
      <trkpt lat="37.6710690" lon="-4.0251360">
        <ele>533.0</ele>
        <time>2021-12-27T17:50:36Z</time>
      </trkpt>
      <trkpt lat="37.6710660" lon="-4.0251660">
        <ele>533.0</ele>
        <time>2021-12-27T17:50:37Z</time>
      </trkpt>
      <trkpt lat="37.6710620" lon="-4.0251950">
        <ele>533.0</ele>
        <time>2021-12-27T17:50:38Z</time>
      </trkpt>
      <trkpt lat="37.6710590" lon="-4.0252260">
        <ele>533.0</ele>
        <time>2021-12-27T17:50:39Z</time>
      </trkpt>
      <trkpt lat="37.6710560" lon="-4.0252550">
        <ele>533.0</ele>
        <time>2021-12-27T17:50:40Z</time>
      </trkpt>
      <trkpt lat="37.6710500" lon="-4.0252830">
        <ele>533.0</ele>
        <time>2021-12-27T17:50:41Z</time>
      </trkpt>
      <trkpt lat="37.6710430" lon="-4.0253120">
        <ele>533.2</ele>
        <time>2021-12-27T17:50:42Z</time>
      </trkpt>
      <trkpt lat="37.6710370" lon="-4.0253400">
        <ele>533.2</ele>
        <time>2021-12-27T17:50:43Z</time>
      </trkpt>
      <trkpt lat="37.6710300" lon="-4.0253670">
        <ele>533.2</ele>
        <time>2021-12-27T17:50:44Z</time>
      </trkpt>
      <trkpt lat="37.6710240" lon="-4.0253970">
        <ele>533.2</ele>
        <time>2021-12-27T17:50:45Z</time>
      </trkpt>
      <trkpt lat="37.6710180" lon="-4.0254250">
        <ele>533.4</ele>
        <time>2021-12-27T17:50:46Z</time>
      </trkpt>
      <trkpt lat="37.6710140" lon="-4.0254540">
        <ele>533.4</ele>
        <time>2021-12-27T17:50:47Z</time>
      </trkpt>
      <trkpt lat="37.6710050" lon="-4.0254800">
        <ele>533.6</ele>
        <time>2021-12-27T17:50:48Z</time>
      </trkpt>
      <trkpt lat="37.6710020" lon="-4.0255100">
        <ele>533.6</ele>
        <time>2021-12-27T17:50:49Z</time>
      </trkpt>
      <trkpt lat="37.6709980" lon="-4.0255400">
        <ele>533.8</ele>
        <time>2021-12-27T17:50:50Z</time>
      </trkpt>
      <trkpt lat="37.6709870" lon="-4.0255820">
        <ele>533.8</ele>
        <time>2021-12-27T17:50:51Z</time>
      </trkpt>
      <trkpt lat="37.6709860" lon="-4.0255950">
        <ele>534.0</ele>
        <time>2021-12-27T17:50:52Z</time>
      </trkpt>
      <trkpt lat="37.6709790" lon="-4.0256220">
        <ele>534.0</ele>
        <time>2021-12-27T17:50:53Z</time>
      </trkpt>
      <trkpt lat="37.6709700" lon="-4.0256480">
        <ele>534.0</ele>
        <time>2021-12-27T17:50:54Z</time>
      </trkpt>
      <trkpt lat="37.6709630" lon="-4.0256770">
        <ele>534.0</ele>
        <time>2021-12-27T17:50:55Z</time>
      </trkpt>
      <trkpt lat="37.6709570" lon="-4.0257050">
        <ele>534.0</ele>
        <time>2021-12-27T17:50:56Z</time>
      </trkpt>
      <trkpt lat="37.6709440" lon="-4.0257350">
        <ele>534.2</ele>
        <time>2021-12-27T17:50:57Z</time>
      </trkpt>
      <trkpt lat="37.6709380" lon="-4.0257640">
        <ele>534.2</ele>
        <time>2021-12-27T17:50:58Z</time>
      </trkpt>
      <trkpt lat="37.6709280" lon="-4.0257920">
        <ele>534.2</ele>
        <time>2021-12-27T17:50:59Z</time>
      </trkpt>
      <trkpt lat="37.6709250" lon="-4.0258180">
        <ele>534.2</ele>
        <time>2021-12-27T17:51:00Z</time>
      </trkpt>
      <trkpt lat="37.6709180" lon="-4.0258460">
        <ele>534.2</ele>
        <time>2021-12-27T17:51:01Z</time>
      </trkpt>
      <trkpt lat="37.6709090" lon="-4.0258760">
        <ele>534.2</ele>
        <time>2021-12-27T17:51:02Z</time>
      </trkpt>
      <trkpt lat="37.6708990" lon="-4.0259060">
        <ele>534.4</ele>
        <time>2021-12-27T17:51:03Z</time>
      </trkpt>
      <trkpt lat="37.6708900" lon="-4.0259370">
        <ele>534.4</ele>
        <time>2021-12-27T17:51:04Z</time>
      </trkpt>
      <trkpt lat="37.6708830" lon="-4.0259630">
        <ele>534.4</ele>
        <time>2021-12-27T17:51:05Z</time>
      </trkpt>
      <trkpt lat="37.6708700" lon="-4.0259950">
        <ele>534.4</ele>
        <time>2021-12-27T17:51:06Z</time>
      </trkpt>
      <trkpt lat="37.6708640" lon="-4.0260270">
        <ele>534.4</ele>
        <time>2021-12-27T17:51:07Z</time>
      </trkpt>
      <trkpt lat="37.6708580" lon="-4.0260580">
        <ele>534.4</ele>
        <time>2021-12-27T17:51:08Z</time>
      </trkpt>
      <trkpt lat="37.6708480" lon="-4.0260880">
        <ele>534.4</ele>
        <time>2021-12-27T17:51:09Z</time>
      </trkpt>
      <trkpt lat="37.6708380" lon="-4.0261150">
        <ele>534.4</ele>
        <time>2021-12-27T17:51:10Z</time>
      </trkpt>
      <trkpt lat="37.6708290" lon="-4.0261440">
        <ele>534.4</ele>
        <time>2021-12-27T17:51:11Z</time>
      </trkpt>
      <trkpt lat="37.6708190" lon="-4.0261720">
        <ele>534.4</ele>
        <time>2021-12-27T17:51:12Z</time>
      </trkpt>
      <trkpt lat="37.6708100" lon="-4.0262020">
        <ele>534.2</ele>
        <time>2021-12-27T17:51:13Z</time>
      </trkpt>
      <trkpt lat="37.6708030" lon="-4.0262300">
        <ele>534.2</ele>
        <time>2021-12-27T17:51:14Z</time>
      </trkpt>
      <trkpt lat="37.6707900" lon="-4.0262580">
        <ele>534.2</ele>
        <time>2021-12-27T17:51:15Z</time>
      </trkpt>
      <trkpt lat="37.6707810" lon="-4.0262870">
        <ele>534.2</ele>
        <time>2021-12-27T17:51:16Z</time>
      </trkpt>
      <trkpt lat="37.6707710" lon="-4.0263130">
        <ele>534.4</ele>
        <time>2021-12-27T17:51:17Z</time>
      </trkpt>
      <trkpt lat="37.6707650" lon="-4.0263400">
        <ele>534.4</ele>
        <time>2021-12-27T17:51:18Z</time>
      </trkpt>
      <trkpt lat="37.6707520" lon="-4.0263720">
        <ele>534.4</ele>
        <time>2021-12-27T17:51:19Z</time>
      </trkpt>
      <trkpt lat="37.6707460" lon="-4.0263950">
        <ele>534.4</ele>
        <time>2021-12-27T17:51:20Z</time>
      </trkpt>
      <trkpt lat="37.6707390" lon="-4.0264220">
        <ele>534.4</ele>
        <time>2021-12-27T17:51:21Z</time>
      </trkpt>
      <trkpt lat="37.6707300" lon="-4.0264480">
        <ele>534.4</ele>
        <time>2021-12-27T17:51:22Z</time>
      </trkpt>
      <trkpt lat="37.6707230" lon="-4.0264750">
        <ele>534.4</ele>
        <time>2021-12-27T17:51:23Z</time>
      </trkpt>
      <trkpt lat="37.6707170" lon="-4.0265020">
        <ele>534.4</ele>
        <time>2021-12-27T17:51:24Z</time>
      </trkpt>
      <trkpt lat="37.6707070" lon="-4.0265280">
        <ele>534.6</ele>
        <time>2021-12-27T17:51:25Z</time>
      </trkpt>
      <trkpt lat="37.6706980" lon="-4.0265520">
        <ele>534.6</ele>
        <time>2021-12-27T17:51:26Z</time>
      </trkpt>
      <trkpt lat="37.6706850" lon="-4.0265760">
        <ele>534.6</ele>
        <time>2021-12-27T17:51:27Z</time>
      </trkpt>
      <trkpt lat="37.6706780" lon="-4.0266030">
        <ele>534.6</ele>
        <time>2021-12-27T17:51:28Z</time>
      </trkpt>
      <trkpt lat="37.6706690" lon="-4.0266300">
        <ele>534.6</ele>
        <time>2021-12-27T17:51:29Z</time>
      </trkpt>
      <trkpt lat="37.6706590" lon="-4.0266530">
        <ele>534.6</ele>
        <time>2021-12-27T17:51:30Z</time>
      </trkpt>
      <trkpt lat="37.6706460" lon="-4.0266800">
        <ele>534.6</ele>
        <time>2021-12-27T17:51:31Z</time>
      </trkpt>
      <trkpt lat="37.6706400" lon="-4.0267080">
        <ele>534.6</ele>
        <time>2021-12-27T17:51:32Z</time>
      </trkpt>
      <trkpt lat="37.6706300" lon="-4.0267400">
        <ele>534.4</ele>
        <time>2021-12-27T17:51:33Z</time>
      </trkpt>
      <trkpt lat="37.6706300" lon="-4.0267400">
        <ele>534.4</ele>
        <time>2021-12-27T17:51:34Z</time>
      </trkpt>
      <trkpt lat="37.6706180" lon="-4.0267840">
        <ele>534.6</ele>
        <time>2021-12-27T17:51:35Z</time>
      </trkpt>
      <trkpt lat="37.6706080" lon="-4.0268120">
        <ele>534.6</ele>
        <time>2021-12-27T17:51:36Z</time>
      </trkpt>
      <trkpt lat="37.6705980" lon="-4.0268400">
        <ele>534.6</ele>
        <time>2021-12-27T17:51:37Z</time>
      </trkpt>
      <trkpt lat="37.6705860" lon="-4.0268680">
        <ele>534.6</ele>
        <time>2021-12-27T17:51:38Z</time>
      </trkpt>
      <trkpt lat="37.6705790" lon="-4.0268960">
        <ele>534.6</ele>
        <time>2021-12-27T17:51:39Z</time>
      </trkpt>
      <trkpt lat="37.6705700" lon="-4.0269220">
        <ele>534.6</ele>
        <time>2021-12-27T17:51:40Z</time>
      </trkpt>
      <trkpt lat="37.6705630" lon="-4.0269460">
        <ele>534.8</ele>
        <time>2021-12-27T17:51:41Z</time>
      </trkpt>
      <trkpt lat="37.6705540" lon="-4.0269730">
        <ele>534.8</ele>
        <time>2021-12-27T17:51:42Z</time>
      </trkpt>
      <trkpt lat="37.6705470" lon="-4.0270030">
        <ele>534.8</ele>
        <time>2021-12-27T17:51:43Z</time>
      </trkpt>
      <trkpt lat="37.6705410" lon="-4.0270300">
        <ele>535.0</ele>
        <time>2021-12-27T17:51:44Z</time>
      </trkpt>
      <trkpt lat="37.6705280" lon="-4.0270580">
        <ele>535.0</ele>
        <time>2021-12-27T17:51:45Z</time>
      </trkpt>
      <trkpt lat="37.6705220" lon="-4.0270870">
        <ele>535.2</ele>
        <time>2021-12-27T17:51:46Z</time>
      </trkpt>
      <trkpt lat="37.6705090" lon="-4.0271180">
        <ele>535.2</ele>
        <time>2021-12-27T17:51:47Z</time>
      </trkpt>
      <trkpt lat="37.6705020" lon="-4.0271500">
        <ele>535.4</ele>
        <time>2021-12-27T17:51:48Z</time>
      </trkpt>
      <trkpt lat="37.6704900" lon="-4.0271820">
        <ele>535.4</ele>
        <time>2021-12-27T17:51:49Z</time>
      </trkpt>
      <trkpt lat="37.6704800" lon="-4.0272130">
        <ele>535.4</ele>
        <time>2021-12-27T17:51:50Z</time>
      </trkpt>
      <trkpt lat="37.6704670" lon="-4.0272460">
        <ele>535.4</ele>
        <time>2021-12-27T17:51:51Z</time>
      </trkpt>
      <trkpt lat="37.6704540" lon="-4.0272780">
        <ele>535.4</ele>
        <time>2021-12-27T17:51:52Z</time>
      </trkpt>
      <trkpt lat="37.6704480" lon="-4.0273120">
        <ele>535.4</ele>
        <time>2021-12-27T17:51:53Z</time>
      </trkpt>
      <trkpt lat="37.6704380" lon="-4.0273420">
        <ele>535.4</ele>
        <time>2021-12-27T17:51:54Z</time>
      </trkpt>
      <trkpt lat="37.6704260" lon="-4.0273730">
        <ele>535.4</ele>
        <time>2021-12-27T17:51:55Z</time>
      </trkpt>
      <trkpt lat="37.6704100" lon="-4.0274030">
        <ele>535.2</ele>
        <time>2021-12-27T17:51:56Z</time>
      </trkpt>
      <trkpt lat="37.6704000" lon="-4.0274350">
        <ele>535.2</ele>
        <time>2021-12-27T17:51:57Z</time>
      </trkpt>
      <trkpt lat="37.6703870" lon="-4.0274670">
        <ele>535.2</ele>
        <time>2021-12-27T17:51:58Z</time>
      </trkpt>
      <trkpt lat="37.6703740" lon="-4.0274970">
        <ele>535.2</ele>
        <time>2021-12-27T17:51:59Z</time>
      </trkpt>
      <trkpt lat="37.6703650" lon="-4.0275300">
        <ele>535.2</ele>
        <time>2021-12-27T17:52:00Z</time>
      </trkpt>
      <trkpt lat="37.6703620" lon="-4.0275680">
        <ele>535.4</ele>
        <time>2021-12-27T17:52:01Z</time>
      </trkpt>
      <trkpt lat="37.6703550" lon="-4.0276080">
        <ele>535.4</ele>
        <time>2021-12-27T17:52:02Z</time>
      </trkpt>
      <trkpt lat="37.6703460" lon="-4.0276430">
        <ele>535.4</ele>
        <time>2021-12-27T17:52:03Z</time>
      </trkpt>
      <trkpt lat="37.6703390" lon="-4.0276750">
        <ele>535.4</ele>
        <time>2021-12-27T17:52:04Z</time>
      </trkpt>
      <trkpt lat="37.6703230" lon="-4.0277070">
        <ele>535.4</ele>
        <time>2021-12-27T17:52:05Z</time>
      </trkpt>
      <trkpt lat="37.6703100" lon="-4.0277400">
        <ele>535.6</ele>
        <time>2021-12-27T17:52:06Z</time>
      </trkpt>
      <trkpt lat="37.6702940" lon="-4.0277730">
        <ele>535.6</ele>
        <time>2021-12-27T17:52:07Z</time>
      </trkpt>
      <trkpt lat="37.6702880" lon="-4.0278020">
        <ele>535.6</ele>
        <time>2021-12-27T17:52:08Z</time>
      </trkpt>
      <trkpt lat="37.6702750" lon="-4.0278280">
        <ele>535.6</ele>
        <time>2021-12-27T17:52:09Z</time>
      </trkpt>
      <trkpt lat="37.6702720" lon="-4.0278550">
        <ele>535.6</ele>
        <time>2021-12-27T17:52:10Z</time>
      </trkpt>
      <trkpt lat="37.6702660" lon="-4.0278770">
        <ele>535.6</ele>
        <time>2021-12-27T17:52:11Z</time>
      </trkpt>
      <trkpt lat="37.6702660" lon="-4.0278770">
        <ele>535.6</ele>
        <time>2021-12-27T17:52:12Z</time>
      </trkpt>
      <trkpt lat="37.6702500" lon="-4.0278950">
        <ele>535.6</ele>
        <time>2021-12-27T17:52:13Z</time>
      </trkpt>
      <trkpt lat="37.6702500" lon="-4.0278950">
        <ele>535.6</ele>
        <time>2021-12-27T17:52:14Z</time>
      </trkpt>
      <trkpt lat="37.6702500" lon="-4.0278950">
        <ele>535.6</ele>
        <time>2021-12-27T17:52:15Z</time>
      </trkpt>
      <trkpt lat="37.6702500" lon="-4.0278950">
        <ele>535.6</ele>
        <time>2021-12-27T17:52:16Z</time>
      </trkpt>
      <trkpt lat="37.6701760" lon="-4.0280550">
        <ele>539.0</ele>
        <time>2021-12-27T17:55:25Z</time>
      </trkpt>
      <trkpt lat="37.6701660" lon="-4.0280970">
        <ele>539.0</ele>
        <time>2021-12-27T17:55:26Z</time>
      </trkpt>
      <trkpt lat="37.6701500" lon="-4.0281400">
        <ele>539.0</ele>
        <time>2021-12-27T17:55:27Z</time>
      </trkpt>
      <trkpt lat="37.6701410" lon="-4.0281870">
        <ele>539.0</ele>
        <time>2021-12-27T17:55:28Z</time>
      </trkpt>
      <trkpt lat="37.6701280" lon="-4.0282340">
        <ele>539.0</ele>
        <time>2021-12-27T17:55:29Z</time>
      </trkpt>
      <trkpt lat="37.6701120" lon="-4.0282780">
        <ele>539.0</ele>
        <time>2021-12-27T17:55:30Z</time>
      </trkpt>
      <trkpt lat="37.6701060" lon="-4.0283180">
        <ele>539.0</ele>
        <time>2021-12-27T17:55:31Z</time>
      </trkpt>
      <trkpt lat="37.6700930" lon="-4.0283560">
        <ele>539.0</ele>
        <time>2021-12-27T17:55:32Z</time>
      </trkpt>
      <trkpt lat="37.6700770" lon="-4.0283980">
        <ele>538.8</ele>
        <time>2021-12-27T17:55:33Z</time>
      </trkpt>
      <trkpt lat="37.6700670" lon="-4.0284400">
        <ele>538.8</ele>
        <time>2021-12-27T17:55:34Z</time>
      </trkpt>
      <trkpt lat="37.6700510" lon="-4.0284830">
        <ele>538.8</ele>
        <time>2021-12-27T17:55:35Z</time>
      </trkpt>
      <trkpt lat="37.6700420" lon="-4.0285270">
        <ele>538.8</ele>
        <time>2021-12-27T17:55:36Z</time>
      </trkpt>
      <trkpt lat="37.6700290" lon="-4.0285700">
        <ele>538.6</ele>
        <time>2021-12-27T17:55:37Z</time>
      </trkpt>
      <trkpt lat="37.6700130" lon="-4.0286140">
        <ele>538.6</ele>
        <time>2021-12-27T17:55:38Z</time>
      </trkpt>
      <trkpt lat="37.6699970" lon="-4.0286530">
        <ele>538.6</ele>
        <time>2021-12-27T17:55:39Z</time>
      </trkpt>
      <trkpt lat="37.6699780" lon="-4.0286950">
        <ele>538.4</ele>
        <time>2021-12-27T17:55:40Z</time>
      </trkpt>
      <trkpt lat="37.6699650" lon="-4.0287360">
        <ele>538.6</ele>
        <time>2021-12-27T17:55:41Z</time>
      </trkpt>
      <trkpt lat="37.6699550" lon="-4.0287800">
        <ele>538.6</ele>
        <time>2021-12-27T17:55:42Z</time>
      </trkpt>
      <trkpt lat="37.6699460" lon="-4.0288270">
        <ele>538.6</ele>
        <time>2021-12-27T17:55:43Z</time>
      </trkpt>
      <trkpt lat="37.6699300" lon="-4.0288680">
        <ele>538.6</ele>
        <time>2021-12-27T17:55:44Z</time>
      </trkpt>
      <trkpt lat="37.6699170" lon="-4.0289140">
        <ele>538.6</ele>
        <time>2021-12-27T17:55:45Z</time>
      </trkpt>
      <trkpt lat="37.6699070" lon="-4.0289570">
        <ele>538.6</ele>
        <time>2021-12-27T17:55:46Z</time>
      </trkpt>
      <trkpt lat="37.6698910" lon="-4.0289980">
        <ele>538.6</ele>
        <time>2021-12-27T17:55:47Z</time>
      </trkpt>
      <trkpt lat="37.6698750" lon="-4.0290400">
        <ele>538.6</ele>
        <time>2021-12-27T17:55:48Z</time>
      </trkpt>
      <trkpt lat="37.6698560" lon="-4.0290780">
        <ele>538.6</ele>
        <time>2021-12-27T17:55:49Z</time>
      </trkpt>
      <trkpt lat="37.6698430" lon="-4.0291150">
        <ele>538.6</ele>
        <time>2021-12-27T17:55:50Z</time>
      </trkpt>
      <trkpt lat="37.6698270" lon="-4.0291530">
        <ele>538.6</ele>
        <time>2021-12-27T17:55:51Z</time>
      </trkpt>
      <trkpt lat="37.6698140" lon="-4.0291970">
        <ele>538.8</ele>
        <time>2021-12-27T17:55:52Z</time>
      </trkpt>
      <trkpt lat="37.6697980" lon="-4.0292370">
        <ele>538.8</ele>
        <time>2021-12-27T17:55:53Z</time>
      </trkpt>
      <trkpt lat="37.6697890" lon="-4.0292800">
        <ele>538.8</ele>
        <time>2021-12-27T17:55:54Z</time>
      </trkpt>
      <trkpt lat="37.6697730" lon="-4.0293200">
        <ele>538.8</ele>
        <time>2021-12-27T17:55:55Z</time>
      </trkpt>
      <trkpt lat="37.6697630" lon="-4.0293600">
        <ele>538.6</ele>
        <time>2021-12-27T17:55:56Z</time>
      </trkpt>
      <trkpt lat="37.6697470" lon="-4.0294020">
        <ele>538.6</ele>
        <time>2021-12-27T17:55:57Z</time>
      </trkpt>
      <trkpt lat="37.6697380" lon="-4.0294430">
        <ele>538.6</ele>
        <time>2021-12-27T17:55:58Z</time>
      </trkpt>
      <trkpt lat="37.6697280" lon="-4.0294850">
        <ele>538.6</ele>
        <time>2021-12-27T17:55:59Z</time>
      </trkpt>
      <trkpt lat="37.6697150" lon="-4.0295270">
        <ele>538.4</ele>
        <time>2021-12-27T17:56:00Z</time>
      </trkpt>
      <trkpt lat="37.6697060" lon="-4.0295720">
        <ele>538.4</ele>
        <time>2021-12-27T17:56:01Z</time>
      </trkpt>
      <trkpt lat="37.6696900" lon="-4.0296150">
        <ele>538.4</ele>
        <time>2021-12-27T17:56:02Z</time>
      </trkpt>
      <trkpt lat="37.6696770" lon="-4.0296570">
        <ele>538.6</ele>
        <time>2021-12-27T17:56:03Z</time>
      </trkpt>
      <trkpt lat="37.6696640" lon="-4.0297000">
        <ele>538.6</ele>
        <time>2021-12-27T17:56:04Z</time>
      </trkpt>
      <trkpt lat="37.6696510" lon="-4.0297450">
        <ele>538.8</ele>
        <time>2021-12-27T17:56:05Z</time>
      </trkpt>
      <trkpt lat="37.6696350" lon="-4.0297860">
        <ele>538.8</ele>
        <time>2021-12-27T17:56:06Z</time>
      </trkpt>
      <trkpt lat="37.6696190" lon="-4.0298300">
        <ele>538.8</ele>
        <time>2021-12-27T17:56:07Z</time>
      </trkpt>
      <trkpt lat="37.6696100" lon="-4.0298720">
        <ele>538.8</ele>
        <time>2021-12-27T17:56:08Z</time>
      </trkpt>
      <trkpt lat="37.6695970" lon="-4.0299140">
        <ele>538.8</ele>
        <time>2021-12-27T17:56:09Z</time>
      </trkpt>
      <trkpt lat="37.6695870" lon="-4.0299550">
        <ele>538.8</ele>
        <time>2021-12-27T17:56:10Z</time>
      </trkpt>
      <trkpt lat="37.6695710" lon="-4.0299970">
        <ele>538.6</ele>
        <time>2021-12-27T17:56:11Z</time>
      </trkpt>
      <trkpt lat="37.6695550" lon="-4.0300360">
        <ele>538.6</ele>
        <time>2021-12-27T17:56:12Z</time>
      </trkpt>
      <trkpt lat="37.6695390" lon="-4.0300780">
        <ele>538.6</ele>
        <time>2021-12-27T17:56:13Z</time>
      </trkpt>
      <trkpt lat="37.6695300" lon="-4.0301200">
        <ele>538.4</ele>
        <time>2021-12-27T17:56:14Z</time>
      </trkpt>
      <trkpt lat="37.6695170" lon="-4.0301630">
        <ele>538.4</ele>
        <time>2021-12-27T17:56:15Z</time>
      </trkpt>
      <trkpt lat="37.6695010" lon="-4.0302050">
        <ele>538.4</ele>
        <time>2021-12-27T17:56:16Z</time>
      </trkpt>
      <trkpt lat="37.6694880" lon="-4.0302470">
        <ele>538.2</ele>
        <time>2021-12-27T17:56:17Z</time>
      </trkpt>
      <trkpt lat="37.6694750" lon="-4.0302880">
        <ele>538.2</ele>
        <time>2021-12-27T17:56:18Z</time>
      </trkpt>
      <trkpt lat="37.6694660" lon="-4.0303300">
        <ele>538.2</ele>
        <time>2021-12-27T17:56:19Z</time>
      </trkpt>
      <trkpt lat="37.6694500" lon="-4.0303730">
        <ele>538.2</ele>
        <time>2021-12-27T17:56:20Z</time>
      </trkpt>
      <trkpt lat="37.6694340" lon="-4.0304160">
        <ele>538.2</ele>
        <time>2021-12-27T17:56:21Z</time>
      </trkpt>
      <trkpt lat="37.6694210" lon="-4.0304620">
        <ele>538.2</ele>
        <time>2021-12-27T17:56:22Z</time>
      </trkpt>
      <trkpt lat="37.6694110" lon="-4.0305050">
        <ele>538.2</ele>
        <time>2021-12-27T17:56:23Z</time>
      </trkpt>
      <trkpt lat="37.6693950" lon="-4.0305480">
        <ele>538.0</ele>
        <time>2021-12-27T17:56:24Z</time>
      </trkpt>
      <trkpt lat="37.6693860" lon="-4.0305880">
        <ele>538.2</ele>
        <time>2021-12-27T17:56:25Z</time>
      </trkpt>
      <trkpt lat="37.6693700" lon="-4.0306300">
        <ele>538.2</ele>
        <time>2021-12-27T17:56:26Z</time>
      </trkpt>
      <trkpt lat="37.6693570" lon="-4.0306700">
        <ele>538.2</ele>
        <time>2021-12-27T17:56:27Z</time>
      </trkpt>
      <trkpt lat="37.6693410" lon="-4.0307140">
        <ele>538.0</ele>
        <time>2021-12-27T17:56:28Z</time>
      </trkpt>
      <trkpt lat="37.6693310" lon="-4.0307520">
        <ele>538.0</ele>
        <time>2021-12-27T17:56:29Z</time>
      </trkpt>
      <trkpt lat="37.6693150" lon="-4.0307930">
        <ele>538.2</ele>
        <time>2021-12-27T17:56:30Z</time>
      </trkpt>
      <trkpt lat="37.6693020" lon="-4.0308350">
        <ele>538.2</ele>
        <time>2021-12-27T17:56:31Z</time>
      </trkpt>
      <trkpt lat="37.6692930" lon="-4.0308770">
        <ele>538.2</ele>
        <time>2021-12-27T17:56:32Z</time>
      </trkpt>
      <trkpt lat="37.6692770" lon="-4.0309180">
        <ele>538.2</ele>
        <time>2021-12-27T17:56:33Z</time>
      </trkpt>
      <trkpt lat="37.6692670" lon="-4.0309620">
        <ele>538.2</ele>
        <time>2021-12-27T17:56:34Z</time>
      </trkpt>
      <trkpt lat="37.6692540" lon="-4.0310050">
        <ele>538.2</ele>
        <time>2021-12-27T17:56:35Z</time>
      </trkpt>
      <trkpt lat="37.6692420" lon="-4.0310470">
        <ele>538.2</ele>
        <time>2021-12-27T17:56:36Z</time>
      </trkpt>
      <trkpt lat="37.6692320" lon="-4.0310860">
        <ele>538.2</ele>
        <time>2021-12-27T17:56:37Z</time>
      </trkpt>
      <trkpt lat="37.6692160" lon="-4.0311280">
        <ele>538.0</ele>
        <time>2021-12-27T17:56:38Z</time>
      </trkpt>
      <trkpt lat="37.6692000" lon="-4.0311700">
        <ele>538.0</ele>
        <time>2021-12-27T17:56:39Z</time>
      </trkpt>
      <trkpt lat="37.6691900" lon="-4.0312150">
        <ele>538.0</ele>
        <time>2021-12-27T17:56:40Z</time>
      </trkpt>
      <trkpt lat="37.6691740" lon="-4.0312600">
        <ele>537.8</ele>
        <time>2021-12-27T17:56:41Z</time>
      </trkpt>
      <trkpt lat="37.6691580" lon="-4.0313070">
        <ele>537.8</ele>
        <time>2021-12-27T17:56:42Z</time>
      </trkpt>
      <trkpt lat="37.6691420" lon="-4.0313520">
        <ele>537.8</ele>
        <time>2021-12-27T17:56:43Z</time>
      </trkpt>
      <trkpt lat="37.6691330" lon="-4.0314020">
        <ele>537.8</ele>
        <time>2021-12-27T17:56:44Z</time>
      </trkpt>
      <trkpt lat="37.6691170" lon="-4.0314500">
        <ele>537.8</ele>
        <time>2021-12-27T17:56:45Z</time>
      </trkpt>
      <trkpt lat="37.6691010" lon="-4.0314980">
        <ele>537.8</ele>
        <time>2021-12-27T17:56:46Z</time>
      </trkpt>
      <trkpt lat="37.6690880" lon="-4.0315430">
        <ele>537.8</ele>
        <time>2021-12-27T17:56:47Z</time>
      </trkpt>
      <trkpt lat="37.6690750" lon="-4.0315880">
        <ele>537.8</ele>
        <time>2021-12-27T17:56:48Z</time>
      </trkpt>
      <trkpt lat="37.6690560" lon="-4.0316330">
        <ele>537.8</ele>
        <time>2021-12-27T17:56:49Z</time>
      </trkpt>
      <trkpt lat="37.6690400" lon="-4.0316770">
        <ele>537.8</ele>
        <time>2021-12-27T17:56:50Z</time>
      </trkpt>
      <trkpt lat="37.6690210" lon="-4.0317180">
        <ele>537.8</ele>
        <time>2021-12-27T17:56:51Z</time>
      </trkpt>
      <trkpt lat="37.6690110" lon="-4.0317600">
        <ele>537.8</ele>
        <time>2021-12-27T17:56:52Z</time>
      </trkpt>
      <trkpt lat="37.6689950" lon="-4.0318030">
        <ele>537.8</ele>
        <time>2021-12-27T17:56:53Z</time>
      </trkpt>
      <trkpt lat="37.6689790" lon="-4.0318450">
        <ele>537.8</ele>
        <time>2021-12-27T17:56:54Z</time>
      </trkpt>
      <trkpt lat="37.6689630" lon="-4.0318900">
        <ele>537.8</ele>
        <time>2021-12-27T17:56:55Z</time>
      </trkpt>
      <trkpt lat="37.6689500" lon="-4.0319350">
        <ele>537.8</ele>
        <time>2021-12-27T17:56:56Z</time>
      </trkpt>
      <trkpt lat="37.6689340" lon="-4.0319800">
        <ele>538.0</ele>
        <time>2021-12-27T17:56:57Z</time>
      </trkpt>
      <trkpt lat="37.6689180" lon="-4.0320250">
        <ele>538.0</ele>
        <time>2021-12-27T17:56:58Z</time>
      </trkpt>
      <trkpt lat="37.6689020" lon="-4.0320680">
        <ele>538.0</ele>
        <time>2021-12-27T17:56:59Z</time>
      </trkpt>
      <trkpt lat="37.6688900" lon="-4.0321080">
        <ele>538.0</ele>
        <time>2021-12-27T17:57:00Z</time>
      </trkpt>
      <trkpt lat="37.6688770" lon="-4.0321500">
        <ele>538.2</ele>
        <time>2021-12-27T17:57:01Z</time>
      </trkpt>
      <trkpt lat="37.6688610" lon="-4.0321960">
        <ele>538.2</ele>
        <time>2021-12-27T17:57:02Z</time>
      </trkpt>
      <trkpt lat="37.6688510" lon="-4.0322420">
        <ele>538.2</ele>
        <time>2021-12-27T17:57:03Z</time>
      </trkpt>
      <trkpt lat="37.6688350" lon="-4.0322900">
        <ele>538.2</ele>
        <time>2021-12-27T17:57:04Z</time>
      </trkpt>
      <trkpt lat="37.6688190" lon="-4.0323400">
        <ele>538.0</ele>
        <time>2021-12-27T17:57:05Z</time>
      </trkpt>
      <trkpt lat="37.6688030" lon="-4.0323900">
        <ele>538.0</ele>
        <time>2021-12-27T17:57:06Z</time>
      </trkpt>
      <trkpt lat="37.6687840" lon="-4.0324370">
        <ele>538.0</ele>
        <time>2021-12-27T17:57:07Z</time>
      </trkpt>
      <trkpt lat="37.6687740" lon="-4.0324860">
        <ele>538.0</ele>
        <time>2021-12-27T17:57:08Z</time>
      </trkpt>
      <trkpt lat="37.6687580" lon="-4.0325350">
        <ele>538.0</ele>
        <time>2021-12-27T17:57:09Z</time>
      </trkpt>
      <trkpt lat="37.6687420" lon="-4.0325850">
        <ele>538.0</ele>
        <time>2021-12-27T17:57:10Z</time>
      </trkpt>
      <trkpt lat="37.6687330" lon="-4.0326350">
        <ele>538.0</ele>
        <time>2021-12-27T17:57:11Z</time>
      </trkpt>
      <trkpt lat="37.6687170" lon="-4.0326850">
        <ele>538.0</ele>
        <time>2021-12-27T17:57:12Z</time>
      </trkpt>
      <trkpt lat="37.6687010" lon="-4.0327370">
        <ele>538.0</ele>
        <time>2021-12-27T17:57:13Z</time>
      </trkpt>
      <trkpt lat="37.6686850" lon="-4.0327870">
        <ele>538.0</ele>
        <time>2021-12-27T17:57:14Z</time>
      </trkpt>
      <trkpt lat="37.6686660" lon="-4.0328360">
        <ele>538.0</ele>
        <time>2021-12-27T17:57:15Z</time>
      </trkpt>
      <trkpt lat="37.6686530" lon="-4.0328860">
        <ele>537.8</ele>
        <time>2021-12-27T17:57:16Z</time>
      </trkpt>
      <trkpt lat="37.6686370" lon="-4.0329360">
        <ele>537.8</ele>
        <time>2021-12-27T17:57:17Z</time>
      </trkpt>
      <trkpt lat="37.6686210" lon="-4.0329880">
        <ele>537.8</ele>
        <time>2021-12-27T17:57:18Z</time>
      </trkpt>
      <trkpt lat="37.6686020" lon="-4.0330420">
        <ele>537.8</ele>
        <time>2021-12-27T17:57:19Z</time>
      </trkpt>
      <trkpt lat="37.6685920" lon="-4.0330950">
        <ele>537.8</ele>
        <time>2021-12-27T17:57:20Z</time>
      </trkpt>
      <trkpt lat="37.6685730" lon="-4.0331440">
        <ele>537.8</ele>
        <time>2021-12-27T17:57:21Z</time>
      </trkpt>
      <trkpt lat="37.6685600" lon="-4.0331920">
        <ele>537.8</ele>
        <time>2021-12-27T17:57:22Z</time>
      </trkpt>
      <trkpt lat="37.6685440" lon="-4.0332380">
        <ele>537.6</ele>
        <time>2021-12-27T17:57:23Z</time>
      </trkpt>
      <trkpt lat="37.6685280" lon="-4.0332850">
        <ele>537.6</ele>
        <time>2021-12-27T17:57:24Z</time>
      </trkpt>
      <trkpt lat="37.6685120" lon="-4.0333330">
        <ele>537.6</ele>
        <time>2021-12-27T17:57:25Z</time>
      </trkpt>
      <trkpt lat="37.6684960" lon="-4.0333780">
        <ele>537.8</ele>
        <time>2021-12-27T17:57:26Z</time>
      </trkpt>
      <trkpt lat="37.6684800" lon="-4.0334250">
        <ele>537.8</ele>
        <time>2021-12-27T17:57:27Z</time>
      </trkpt>
      <trkpt lat="37.6684640" lon="-4.0334720">
        <ele>537.8</ele>
        <time>2021-12-27T17:57:28Z</time>
      </trkpt>
      <trkpt lat="37.6684480" lon="-4.0335180">
        <ele>537.8</ele>
        <time>2021-12-27T17:57:29Z</time>
      </trkpt>
      <trkpt lat="37.6684380" lon="-4.0335620">
        <ele>537.8</ele>
        <time>2021-12-27T17:57:30Z</time>
      </trkpt>
      <trkpt lat="37.6684260" lon="-4.0336030">
        <ele>537.8</ele>
        <time>2021-12-27T17:57:31Z</time>
      </trkpt>
      <trkpt lat="37.6684130" lon="-4.0336450">
        <ele>537.8</ele>
        <time>2021-12-27T17:57:32Z</time>
      </trkpt>
      <trkpt lat="37.6684000" lon="-4.0336870">
        <ele>537.8</ele>
        <time>2021-12-27T17:57:33Z</time>
      </trkpt>
      <trkpt lat="37.6683840" lon="-4.0337300">
        <ele>537.8</ele>
        <time>2021-12-27T17:57:34Z</time>
      </trkpt>
      <trkpt lat="37.6683740" lon="-4.0337740">
        <ele>537.8</ele>
        <time>2021-12-27T17:57:35Z</time>
      </trkpt>
      <trkpt lat="37.6683580" lon="-4.0338170">
        <ele>537.8</ele>
        <time>2021-12-27T17:57:36Z</time>
      </trkpt>
      <trkpt lat="37.6683460" lon="-4.0338600">
        <ele>537.8</ele>
        <time>2021-12-27T17:57:37Z</time>
      </trkpt>
      <trkpt lat="37.6683300" lon="-4.0339020">
        <ele>537.8</ele>
        <time>2021-12-27T17:57:38Z</time>
      </trkpt>
      <trkpt lat="37.6683200" lon="-4.0339420">
        <ele>537.6</ele>
        <time>2021-12-27T17:57:39Z</time>
      </trkpt>
      <trkpt lat="37.6683070" lon="-4.0339830">
        <ele>537.6</ele>
        <time>2021-12-27T17:57:40Z</time>
      </trkpt>
      <trkpt lat="37.6682940" lon="-4.0340250">
        <ele>537.6</ele>
        <time>2021-12-27T17:57:41Z</time>
      </trkpt>
      <trkpt lat="37.6682780" lon="-4.0340650">
        <ele>537.6</ele>
        <time>2021-12-27T17:57:42Z</time>
      </trkpt>
      <trkpt lat="37.6682660" lon="-4.0341080">
        <ele>537.6</ele>
        <time>2021-12-27T17:57:43Z</time>
      </trkpt>
      <trkpt lat="37.6682500" lon="-4.0341500">
        <ele>537.6</ele>
        <time>2021-12-27T17:57:44Z</time>
      </trkpt>
      <trkpt lat="37.6682370" lon="-4.0341940">
        <ele>537.6</ele>
        <time>2021-12-27T17:57:45Z</time>
      </trkpt>
      <trkpt lat="37.6682210" lon="-4.0342350">
        <ele>537.6</ele>
        <time>2021-12-27T17:57:46Z</time>
      </trkpt>
      <trkpt lat="37.6682080" lon="-4.0342800">
        <ele>537.6</ele>
        <time>2021-12-27T17:57:47Z</time>
      </trkpt>
      <trkpt lat="37.6681950" lon="-4.0343230">
        <ele>537.6</ele>
        <time>2021-12-27T17:57:48Z</time>
      </trkpt>
      <trkpt lat="37.6681820" lon="-4.0343670">
        <ele>537.6</ele>
        <time>2021-12-27T17:57:49Z</time>
      </trkpt>
      <trkpt lat="37.6681700" lon="-4.0344080">
        <ele>537.6</ele>
        <time>2021-12-27T17:57:50Z</time>
      </trkpt>
      <trkpt lat="37.6681570" lon="-4.0344470">
        <ele>537.6</ele>
        <time>2021-12-27T17:57:51Z</time>
      </trkpt>
      <trkpt lat="37.6681440" lon="-4.0344850">
        <ele>537.6</ele>
        <time>2021-12-27T17:57:52Z</time>
      </trkpt>
      <trkpt lat="37.6681310" lon="-4.0345240">
        <ele>537.6</ele>
        <time>2021-12-27T17:57:53Z</time>
      </trkpt>
      <trkpt lat="37.6681220" lon="-4.0345620">
        <ele>537.6</ele>
        <time>2021-12-27T17:57:54Z</time>
      </trkpt>
      <trkpt lat="37.6681060" lon="-4.0346000">
        <ele>537.6</ele>
        <time>2021-12-27T17:57:55Z</time>
      </trkpt>
      <trkpt lat="37.6680960" lon="-4.0346380">
        <ele>537.8</ele>
        <time>2021-12-27T17:57:56Z</time>
      </trkpt>
      <trkpt lat="37.6680830" lon="-4.0346760">
        <ele>537.8</ele>
        <time>2021-12-27T17:57:57Z</time>
      </trkpt>
      <trkpt lat="37.6680670" lon="-4.0347150">
        <ele>537.8</ele>
        <time>2021-12-27T17:57:58Z</time>
      </trkpt>
      <trkpt lat="37.6680580" lon="-4.0347520">
        <ele>537.8</ele>
        <time>2021-12-27T17:57:59Z</time>
      </trkpt>
      <trkpt lat="37.6680420" lon="-4.0347880">
        <ele>537.6</ele>
        <time>2021-12-27T17:58:00Z</time>
      </trkpt>
      <trkpt lat="37.6680260" lon="-4.0348240">
        <ele>537.6</ele>
        <time>2021-12-27T17:58:01Z</time>
      </trkpt>
      <trkpt lat="37.6680060" lon="-4.0348570">
        <ele>537.6</ele>
        <time>2021-12-27T17:58:02Z</time>
      </trkpt>
      <trkpt lat="37.6679970" lon="-4.0348920">
        <ele>537.8</ele>
        <time>2021-12-27T17:58:03Z</time>
      </trkpt>
      <trkpt lat="37.6679870" lon="-4.0349270">
        <ele>537.8</ele>
        <time>2021-12-27T17:58:04Z</time>
      </trkpt>
      <trkpt lat="37.6679780" lon="-4.0349650">
        <ele>537.8</ele>
        <time>2021-12-27T17:58:05Z</time>
      </trkpt>
      <trkpt lat="37.6679650" lon="-4.0350030">
        <ele>537.8</ele>
        <time>2021-12-27T17:58:06Z</time>
      </trkpt>
      <trkpt lat="37.6679520" lon="-4.0350430">
        <ele>537.8</ele>
        <time>2021-12-27T17:58:07Z</time>
      </trkpt>
      <trkpt lat="37.6679390" lon="-4.0350820">
        <ele>537.8</ele>
        <time>2021-12-27T17:58:08Z</time>
      </trkpt>
      <trkpt lat="37.6679260" lon="-4.0351220">
        <ele>537.6</ele>
        <time>2021-12-27T17:58:09Z</time>
      </trkpt>
      <trkpt lat="37.6679100" lon="-4.0351640">
        <ele>537.6</ele>
        <time>2021-12-27T17:58:10Z</time>
      </trkpt>
      <trkpt lat="37.6679010" lon="-4.0352050">
        <ele>537.6</ele>
        <time>2021-12-27T17:58:11Z</time>
      </trkpt>
      <trkpt lat="37.6678820" lon="-4.0352470">
        <ele>537.8</ele>
        <time>2021-12-27T17:58:12Z</time>
      </trkpt>
      <trkpt lat="37.6678690" lon="-4.0352920">
        <ele>537.8</ele>
        <time>2021-12-27T17:58:13Z</time>
      </trkpt>
      <trkpt lat="37.6678530" lon="-4.0353360">
        <ele>537.6</ele>
        <time>2021-12-27T17:58:14Z</time>
      </trkpt>
      <trkpt lat="37.6678430" lon="-4.0353820">
        <ele>537.6</ele>
        <time>2021-12-27T17:58:15Z</time>
      </trkpt>
      <trkpt lat="37.6678270" lon="-4.0354250">
        <ele>537.6</ele>
        <time>2021-12-27T17:58:16Z</time>
      </trkpt>
      <trkpt lat="37.6678110" lon="-4.0354700">
        <ele>537.6</ele>
        <time>2021-12-27T17:58:17Z</time>
      </trkpt>
      <trkpt lat="37.6678020" lon="-4.0355140">
        <ele>537.4</ele>
        <time>2021-12-27T17:58:18Z</time>
      </trkpt>
      <trkpt lat="37.6677820" lon="-4.0355570">
        <ele>537.4</ele>
        <time>2021-12-27T17:58:19Z</time>
      </trkpt>
      <trkpt lat="37.6677700" lon="-4.0356000">
        <ele>537.4</ele>
        <time>2021-12-27T17:58:20Z</time>
      </trkpt>
      <trkpt lat="37.6677540" lon="-4.0356450">
        <ele>537.4</ele>
        <time>2021-12-27T17:58:21Z</time>
      </trkpt>
      <trkpt lat="37.6677440" lon="-4.0356900">
        <ele>537.4</ele>
        <time>2021-12-27T17:58:22Z</time>
      </trkpt>
      <trkpt lat="37.6677280" lon="-4.0357320">
        <ele>537.4</ele>
        <time>2021-12-27T17:58:23Z</time>
      </trkpt>
      <trkpt lat="37.6677120" lon="-4.0357730">
        <ele>537.6</ele>
        <time>2021-12-27T17:58:24Z</time>
      </trkpt>
      <trkpt lat="37.6677020" lon="-4.0358150">
        <ele>537.6</ele>
        <time>2021-12-27T17:58:25Z</time>
      </trkpt>
      <trkpt lat="37.6676860" lon="-4.0358550">
        <ele>537.6</ele>
        <time>2021-12-27T17:58:26Z</time>
      </trkpt>
      <trkpt lat="37.6676740" lon="-4.0358970">
        <ele>537.8</ele>
        <time>2021-12-27T17:58:27Z</time>
      </trkpt>
      <trkpt lat="37.6676640" lon="-4.0359380">
        <ele>537.8</ele>
        <time>2021-12-27T17:58:28Z</time>
      </trkpt>
      <trkpt lat="37.6676480" lon="-4.0359780">
        <ele>537.8</ele>
        <time>2021-12-27T17:58:29Z</time>
      </trkpt>
      <trkpt lat="37.6676380" lon="-4.0360220">
        <ele>537.6</ele>
        <time>2021-12-27T17:58:30Z</time>
      </trkpt>
      <trkpt lat="37.6676220" lon="-4.0360650">
        <ele>537.6</ele>
        <time>2021-12-27T17:58:31Z</time>
      </trkpt>
      <trkpt lat="37.6676060" lon="-4.0361080">
        <ele>537.6</ele>
        <time>2021-12-27T17:58:32Z</time>
      </trkpt>
      <trkpt lat="37.6675940" lon="-4.0361520">
        <ele>537.6</ele>
        <time>2021-12-27T17:58:33Z</time>
      </trkpt>
      <trkpt lat="37.6675810" lon="-4.0361930">
        <ele>537.6</ele>
        <time>2021-12-27T17:58:34Z</time>
      </trkpt>
      <trkpt lat="37.6675650" lon="-4.0362340">
        <ele>537.6</ele>
        <time>2021-12-27T17:58:35Z</time>
      </trkpt>
      <trkpt lat="37.6675490" lon="-4.0362770">
        <ele>537.6</ele>
        <time>2021-12-27T17:58:36Z</time>
      </trkpt>
      <trkpt lat="37.6675330" lon="-4.0363180">
        <ele>537.6</ele>
        <time>2021-12-27T17:58:37Z</time>
      </trkpt>
      <trkpt lat="37.6675230" lon="-4.0363650">
        <ele>537.6</ele>
        <time>2021-12-27T17:58:38Z</time>
      </trkpt>
      <trkpt lat="37.6675100" lon="-4.0364080">
        <ele>537.6</ele>
        <time>2021-12-27T17:58:39Z</time>
      </trkpt>
      <trkpt lat="37.6674940" lon="-4.0364500">
        <ele>537.8</ele>
        <time>2021-12-27T17:58:40Z</time>
      </trkpt>
      <trkpt lat="37.6674820" lon="-4.0364950">
        <ele>537.8</ele>
        <time>2021-12-27T17:58:41Z</time>
      </trkpt>
      <trkpt lat="37.6674660" lon="-4.0365380">
        <ele>537.8</ele>
        <time>2021-12-27T17:58:42Z</time>
      </trkpt>
      <trkpt lat="37.6674530" lon="-4.0365850">
        <ele>537.8</ele>
        <time>2021-12-27T17:58:43Z</time>
      </trkpt>
      <trkpt lat="37.6674400" lon="-4.0366280">
        <ele>538.0</ele>
        <time>2021-12-27T17:58:44Z</time>
      </trkpt>
      <trkpt lat="37.6674240" lon="-4.0366700">
        <ele>538.0</ele>
        <time>2021-12-27T17:58:45Z</time>
      </trkpt>
      <trkpt lat="37.6674080" lon="-4.0367120">
        <ele>538.0</ele>
        <time>2021-12-27T17:58:46Z</time>
      </trkpt>
      <trkpt lat="37.6673920" lon="-4.0367560">
        <ele>538.0</ele>
        <time>2021-12-27T17:58:47Z</time>
      </trkpt>
      <trkpt lat="37.6673820" lon="-4.0368020">
        <ele>537.8</ele>
        <time>2021-12-27T17:58:48Z</time>
      </trkpt>
      <trkpt lat="37.6673660" lon="-4.0368470">
        <ele>537.8</ele>
        <time>2021-12-27T17:58:49Z</time>
      </trkpt>
      <trkpt lat="37.6673500" lon="-4.0368920">
        <ele>537.8</ele>
        <time>2021-12-27T17:58:50Z</time>
      </trkpt>
      <trkpt lat="37.6673410" lon="-4.0369370">
        <ele>537.8</ele>
        <time>2021-12-27T17:58:51Z</time>
      </trkpt>
      <trkpt lat="37.6673220" lon="-4.0369800">
        <ele>538.0</ele>
        <time>2021-12-27T17:58:52Z</time>
      </trkpt>
      <trkpt lat="37.6673060" lon="-4.0370250">
        <ele>538.0</ele>
        <time>2021-12-27T17:58:53Z</time>
      </trkpt>
      <trkpt lat="37.6672930" lon="-4.0370730">
        <ele>538.0</ele>
        <time>2021-12-27T17:58:54Z</time>
      </trkpt>
      <trkpt lat="37.6672830" lon="-4.0371180">
        <ele>538.0</ele>
        <time>2021-12-27T17:58:55Z</time>
      </trkpt>
      <trkpt lat="37.6672670" lon="-4.0371650">
        <ele>538.0</ele>
        <time>2021-12-27T17:58:56Z</time>
      </trkpt>
      <trkpt lat="37.6672510" lon="-4.0372070">
        <ele>538.0</ele>
        <time>2021-12-27T17:58:57Z</time>
      </trkpt>
      <trkpt lat="37.6672350" lon="-4.0372500">
        <ele>538.0</ele>
        <time>2021-12-27T17:58:58Z</time>
      </trkpt>
      <trkpt lat="37.6672220" lon="-4.0372940">
        <ele>538.0</ele>
        <time>2021-12-27T17:58:59Z</time>
      </trkpt>
      <trkpt lat="37.6672060" lon="-4.0373400">
        <ele>538.0</ele>
        <time>2021-12-27T17:59:00Z</time>
      </trkpt>
      <trkpt lat="37.6671940" lon="-4.0373880">
        <ele>538.0</ele>
        <time>2021-12-27T17:59:01Z</time>
      </trkpt>
      <trkpt lat="37.6671780" lon="-4.0374350">
        <ele>538.0</ele>
        <time>2021-12-27T17:59:02Z</time>
      </trkpt>
      <trkpt lat="37.6671650" lon="-4.0374800">
        <ele>538.0</ele>
        <time>2021-12-27T17:59:03Z</time>
      </trkpt>
      <trkpt lat="37.6671520" lon="-4.0375270">
        <ele>538.0</ele>
        <time>2021-12-27T17:59:04Z</time>
      </trkpt>
      <trkpt lat="37.6671360" lon="-4.0375750">
        <ele>538.0</ele>
        <time>2021-12-27T17:59:05Z</time>
      </trkpt>
      <trkpt lat="37.6671230" lon="-4.0376240">
        <ele>538.0</ele>
        <time>2021-12-27T17:59:06Z</time>
      </trkpt>
      <trkpt lat="37.6671100" lon="-4.0376740">
        <ele>537.8</ele>
        <time>2021-12-27T17:59:07Z</time>
      </trkpt>
      <trkpt lat="37.6670940" lon="-4.0377200">
        <ele>537.8</ele>
        <time>2021-12-27T17:59:08Z</time>
      </trkpt>
      <trkpt lat="37.6670780" lon="-4.0377680">
        <ele>537.8</ele>
        <time>2021-12-27T17:59:09Z</time>
      </trkpt>
      <trkpt lat="37.6670660" lon="-4.0378150">
        <ele>537.6</ele>
        <time>2021-12-27T17:59:10Z</time>
      </trkpt>
      <trkpt lat="37.6670500" lon="-4.0378600">
        <ele>537.6</ele>
        <time>2021-12-27T17:59:11Z</time>
      </trkpt>
      <trkpt lat="37.6670370" lon="-4.0379050">
        <ele>537.6</ele>
        <time>2021-12-27T17:59:12Z</time>
      </trkpt>
      <trkpt lat="37.6670240" lon="-4.0379530">
        <ele>537.4</ele>
        <time>2021-12-27T17:59:13Z</time>
      </trkpt>
      <trkpt lat="37.6670140" lon="-4.0379970">
        <ele>537.4</ele>
        <time>2021-12-27T17:59:14Z</time>
      </trkpt>
      <trkpt lat="37.6669980" lon="-4.0380400">
        <ele>537.4</ele>
        <time>2021-12-27T17:59:15Z</time>
      </trkpt>
      <trkpt lat="37.6669890" lon="-4.0380840">
        <ele>537.4</ele>
        <time>2021-12-27T17:59:16Z</time>
      </trkpt>
      <trkpt lat="37.6669760" lon="-4.0381250">
        <ele>537.4</ele>
        <time>2021-12-27T17:59:17Z</time>
      </trkpt>
      <trkpt lat="37.6669630" lon="-4.0381630">
        <ele>537.2</ele>
        <time>2021-12-27T17:59:18Z</time>
      </trkpt>
      <trkpt lat="37.6669540" lon="-4.0381960">
        <ele>537.4</ele>
        <time>2021-12-27T17:59:19Z</time>
      </trkpt>
      <trkpt lat="37.6669470" lon="-4.0382370">
        <ele>537.4</ele>
        <time>2021-12-27T17:59:20Z</time>
      </trkpt>
      <trkpt lat="37.6669340" lon="-4.0382750">
        <ele>537.4</ele>
        <time>2021-12-27T17:59:21Z</time>
      </trkpt>
      <trkpt lat="37.6669250" lon="-4.0383130">
        <ele>537.4</ele>
        <time>2021-12-27T17:59:22Z</time>
      </trkpt>
      <trkpt lat="37.6669090" lon="-4.0383450">
        <ele>537.4</ele>
        <time>2021-12-27T17:59:23Z</time>
      </trkpt>
      <trkpt lat="37.6668990" lon="-4.0383770">
        <ele>537.4</ele>
        <time>2021-12-27T17:59:24Z</time>
      </trkpt>
      <trkpt lat="37.6668900" lon="-4.0384120">
        <ele>537.4</ele>
        <time>2021-12-27T17:59:25Z</time>
      </trkpt>
      <trkpt lat="37.6668770" lon="-4.0384460">
        <ele>537.6</ele>
        <time>2021-12-27T17:59:26Z</time>
      </trkpt>
      <trkpt lat="37.6668670" lon="-4.0384850">
        <ele>537.6</ele>
        <time>2021-12-27T17:59:27Z</time>
      </trkpt>
      <trkpt lat="37.6668510" lon="-4.0385220">
        <ele>537.8</ele>
        <time>2021-12-27T17:59:28Z</time>
      </trkpt>
      <trkpt lat="37.6668380" lon="-4.0385630">
        <ele>537.8</ele>
        <time>2021-12-27T17:59:29Z</time>
      </trkpt>
      <trkpt lat="37.6668260" lon="-4.0386070">
        <ele>537.6</ele>
        <time>2021-12-27T17:59:30Z</time>
      </trkpt>
      <trkpt lat="37.6668100" lon="-4.0386500">
        <ele>537.8</ele>
        <time>2021-12-27T17:59:31Z</time>
      </trkpt>
      <trkpt lat="37.6667940" lon="-4.0386940">
        <ele>537.8</ele>
        <time>2021-12-27T17:59:32Z</time>
      </trkpt>
      <trkpt lat="37.6667810" lon="-4.0387350">
        <ele>538.0</ele>
        <time>2021-12-27T17:59:33Z</time>
      </trkpt>
      <trkpt lat="37.6667680" lon="-4.0387740">
        <ele>538.0</ele>
        <time>2021-12-27T17:59:34Z</time>
      </trkpt>
      <trkpt lat="37.6667550" lon="-4.0388120">
        <ele>538.0</ele>
        <time>2021-12-27T17:59:35Z</time>
      </trkpt>
      <trkpt lat="37.6667460" lon="-4.0388500">
        <ele>538.0</ele>
        <time>2021-12-27T17:59:36Z</time>
      </trkpt>
      <trkpt lat="37.6667300" lon="-4.0388900">
        <ele>538.0</ele>
        <time>2021-12-27T17:59:37Z</time>
      </trkpt>
      <trkpt lat="37.6667140" lon="-4.0389320">
        <ele>538.2</ele>
        <time>2021-12-27T17:59:38Z</time>
      </trkpt>
      <trkpt lat="37.6667010" lon="-4.0389730">
        <ele>538.0</ele>
        <time>2021-12-27T17:59:39Z</time>
      </trkpt>
      <trkpt lat="37.6666910" lon="-4.0390130">
        <ele>538.0</ele>
        <time>2021-12-27T17:59:40Z</time>
      </trkpt>
      <trkpt lat="37.6666780" lon="-4.0390540">
        <ele>538.0</ele>
        <time>2021-12-27T17:59:41Z</time>
      </trkpt>
      <trkpt lat="37.6666690" lon="-4.0390940">
        <ele>538.0</ele>
        <time>2021-12-27T17:59:42Z</time>
      </trkpt>
      <trkpt lat="37.6666560" lon="-4.0391350">
        <ele>538.0</ele>
        <time>2021-12-27T17:59:43Z</time>
      </trkpt>
      <trkpt lat="37.6666400" lon="-4.0391730">
        <ele>538.0</ele>
        <time>2021-12-27T17:59:44Z</time>
      </trkpt>
      <trkpt lat="37.6666300" lon="-4.0392100">
        <ele>538.0</ele>
        <time>2021-12-27T17:59:45Z</time>
      </trkpt>
      <trkpt lat="37.6666140" lon="-4.0392480">
        <ele>538.0</ele>
        <time>2021-12-27T17:59:46Z</time>
      </trkpt>
      <trkpt lat="37.6666020" lon="-4.0392870">
        <ele>538.0</ele>
        <time>2021-12-27T17:59:47Z</time>
      </trkpt>
      <trkpt lat="37.6665920" lon="-4.0393250">
        <ele>538.0</ele>
        <time>2021-12-27T17:59:48Z</time>
      </trkpt>
      <trkpt lat="37.6665760" lon="-4.0393630">
        <ele>538.0</ele>
        <time>2021-12-27T17:59:49Z</time>
      </trkpt>
      <trkpt lat="37.6665660" lon="-4.0394040">
        <ele>538.0</ele>
        <time>2021-12-27T17:59:50Z</time>
      </trkpt>
      <trkpt lat="37.6665540" lon="-4.0394450">
        <ele>538.0</ele>
        <time>2021-12-27T17:59:51Z</time>
      </trkpt>
      <trkpt lat="37.6665380" lon="-4.0394870">
        <ele>538.0</ele>
        <time>2021-12-27T17:59:52Z</time>
      </trkpt>
      <trkpt lat="37.6665280" lon="-4.0395300">
        <ele>538.0</ele>
        <time>2021-12-27T17:59:53Z</time>
      </trkpt>
      <trkpt lat="37.6665120" lon="-4.0395720">
        <ele>538.0</ele>
        <time>2021-12-27T17:59:54Z</time>
      </trkpt>
      <trkpt lat="37.6664930" lon="-4.0396150">
        <ele>538.0</ele>
        <time>2021-12-27T17:59:55Z</time>
      </trkpt>
      <trkpt lat="37.6664770" lon="-4.0396600">
        <ele>538.2</ele>
        <time>2021-12-27T17:59:56Z</time>
      </trkpt>
      <trkpt lat="37.6664610" lon="-4.0397050">
        <ele>538.2</ele>
        <time>2021-12-27T17:59:57Z</time>
      </trkpt>
      <trkpt lat="37.6664480" lon="-4.0397480">
        <ele>538.2</ele>
        <time>2021-12-27T17:59:58Z</time>
      </trkpt>
      <trkpt lat="37.6664320" lon="-4.0397880">
        <ele>538.4</ele>
        <time>2021-12-27T17:59:59Z</time>
      </trkpt>
      <trkpt lat="37.6664080" lon="-4.0398470">
        <ele>538.4</ele>
        <time>2021-12-27T18:00:00Z</time>
      </trkpt>
      <trkpt lat="37.6664000" lon="-4.0398660">
        <ele>538.6</ele>
        <time>2021-12-27T18:00:01Z</time>
      </trkpt>
      <trkpt lat="37.6663870" lon="-4.0399050">
        <ele>538.6</ele>
        <time>2021-12-27T18:00:02Z</time>
      </trkpt>
      <trkpt lat="37.6663710" lon="-4.0399420">
        <ele>538.6</ele>
        <time>2021-12-27T18:00:03Z</time>
      </trkpt>
      <trkpt lat="37.6663550" lon="-4.0399760">
        <ele>538.6</ele>
        <time>2021-12-27T18:00:04Z</time>
      </trkpt>
      <trkpt lat="37.6663360" lon="-4.0400120">
        <ele>538.6</ele>
        <time>2021-12-27T18:00:05Z</time>
      </trkpt>
      <trkpt lat="37.6663230" lon="-4.0400480">
        <ele>538.6</ele>
        <time>2021-12-27T18:00:06Z</time>
      </trkpt>
      <trkpt lat="37.6663100" lon="-4.0400850">
        <ele>538.6</ele>
        <time>2021-12-27T18:00:07Z</time>
      </trkpt>
      <trkpt lat="37.6662940" lon="-4.0401220">
        <ele>538.6</ele>
        <time>2021-12-27T18:00:08Z</time>
      </trkpt>
      <trkpt lat="37.6662750" lon="-4.0401570">
        <ele>538.6</ele>
        <time>2021-12-27T18:00:09Z</time>
      </trkpt>
      <trkpt lat="37.6662590" lon="-4.0401920">
        <ele>538.6</ele>
        <time>2021-12-27T18:00:10Z</time>
      </trkpt>
      <trkpt lat="37.6662430" lon="-4.0402260">
        <ele>538.6</ele>
        <time>2021-12-27T18:00:11Z</time>
      </trkpt>
      <trkpt lat="37.6662300" lon="-4.0402620">
        <ele>538.6</ele>
        <time>2021-12-27T18:00:12Z</time>
      </trkpt>
      <trkpt lat="37.6662110" lon="-4.0402980">
        <ele>538.6</ele>
        <time>2021-12-27T18:00:13Z</time>
      </trkpt>
      <trkpt lat="37.6661950" lon="-4.0403330">
        <ele>538.6</ele>
        <time>2021-12-27T18:00:14Z</time>
      </trkpt>
      <trkpt lat="37.6661790" lon="-4.0403670">
        <ele>538.6</ele>
        <time>2021-12-27T18:00:15Z</time>
      </trkpt>
      <trkpt lat="37.6661630" lon="-4.0404000">
        <ele>538.6</ele>
        <time>2021-12-27T18:00:16Z</time>
      </trkpt>
      <trkpt lat="37.6661440" lon="-4.0404340">
        <ele>538.6</ele>
        <time>2021-12-27T18:00:17Z</time>
      </trkpt>
      <trkpt lat="37.6661250" lon="-4.0404650">
        <ele>538.8</ele>
        <time>2021-12-27T18:00:18Z</time>
      </trkpt>
      <trkpt lat="37.6661020" lon="-4.0404970">
        <ele>538.8</ele>
        <time>2021-12-27T18:00:19Z</time>
      </trkpt>
      <trkpt lat="37.6660830" lon="-4.0405280">
        <ele>538.6</ele>
        <time>2021-12-27T18:00:20Z</time>
      </trkpt>
      <trkpt lat="37.6660610" lon="-4.0405600">
        <ele>538.6</ele>
        <time>2021-12-27T18:00:21Z</time>
      </trkpt>
      <trkpt lat="37.6660420" lon="-4.0405900">
        <ele>538.6</ele>
        <time>2021-12-27T18:00:22Z</time>
      </trkpt>
      <trkpt lat="37.6660220" lon="-4.0406220">
        <ele>538.6</ele>
        <time>2021-12-27T18:00:23Z</time>
      </trkpt>
      <trkpt lat="37.6660030" lon="-4.0406530">
        <ele>538.6</ele>
        <time>2021-12-27T18:00:24Z</time>
      </trkpt>
      <trkpt lat="37.6659840" lon="-4.0406850">
        <ele>538.8</ele>
        <time>2021-12-27T18:00:25Z</time>
      </trkpt>
      <trkpt lat="37.6659710" lon="-4.0407170">
        <ele>538.8</ele>
        <time>2021-12-27T18:00:26Z</time>
      </trkpt>
      <trkpt lat="37.6659460" lon="-4.0407470">
        <ele>538.8</ele>
        <time>2021-12-27T18:00:27Z</time>
      </trkpt>
      <trkpt lat="37.6659330" lon="-4.0407750">
        <ele>538.8</ele>
        <time>2021-12-27T18:00:28Z</time>
      </trkpt>
      <trkpt lat="37.6659100" lon="-4.0408000">
        <ele>538.8</ele>
        <time>2021-12-27T18:00:29Z</time>
      </trkpt>
      <trkpt lat="37.6658910" lon="-4.0408300">
        <ele>538.8</ele>
        <time>2021-12-27T18:00:30Z</time>
      </trkpt>
      <trkpt lat="37.6658720" lon="-4.0408580">
        <ele>538.8</ele>
        <time>2021-12-27T18:00:31Z</time>
      </trkpt>
      <trkpt lat="37.6658560" lon="-4.0408870">
        <ele>538.8</ele>
        <time>2021-12-27T18:00:32Z</time>
      </trkpt>
      <trkpt lat="37.6658400" lon="-4.0409120">
        <ele>538.8</ele>
        <time>2021-12-27T18:00:33Z</time>
      </trkpt>
      <trkpt lat="37.6658240" lon="-4.0409360">
        <ele>538.8</ele>
        <time>2021-12-27T18:00:34Z</time>
      </trkpt>
      <trkpt lat="37.6658050" lon="-4.0409600">
        <ele>538.8</ele>
        <time>2021-12-27T18:00:35Z</time>
      </trkpt>
      <trkpt lat="37.6657860" lon="-4.0409820">
        <ele>539.0</ele>
        <time>2021-12-27T18:00:36Z</time>
      </trkpt>
      <trkpt lat="37.6657660" lon="-4.0410050">
        <ele>539.0</ele>
        <time>2021-12-27T18:00:37Z</time>
      </trkpt>
      <trkpt lat="37.6657440" lon="-4.0410260">
        <ele>539.0</ele>
        <time>2021-12-27T18:00:38Z</time>
      </trkpt>
      <trkpt lat="37.6657250" lon="-4.0410530">
        <ele>539.2</ele>
        <time>2021-12-27T18:00:39Z</time>
      </trkpt>
      <trkpt lat="37.6657060" lon="-4.0410770">
        <ele>539.2</ele>
        <time>2021-12-27T18:00:40Z</time>
      </trkpt>
      <trkpt lat="37.6656860" lon="-4.0411020">
        <ele>539.2</ele>
        <time>2021-12-27T18:00:41Z</time>
      </trkpt>
      <trkpt lat="37.6656640" lon="-4.0411230">
        <ele>539.2</ele>
        <time>2021-12-27T18:00:42Z</time>
      </trkpt>
      <trkpt lat="37.6656420" lon="-4.0411470">
        <ele>539.2</ele>
        <time>2021-12-27T18:00:43Z</time>
      </trkpt>
      <trkpt lat="37.6656190" lon="-4.0411700">
        <ele>539.4</ele>
        <time>2021-12-27T18:00:44Z</time>
      </trkpt>
      <trkpt lat="37.6655860" lon="-4.0412070">
        <ele>539.4</ele>
        <time>2021-12-27T18:00:45Z</time>
      </trkpt>
      <trkpt lat="37.6655740" lon="-4.0412180">
        <ele>539.4</ele>
        <time>2021-12-27T18:00:46Z</time>
      </trkpt>
      <trkpt lat="37.6655490" lon="-4.0412380">
        <ele>539.4</ele>
        <time>2021-12-27T18:00:47Z</time>
      </trkpt>
      <trkpt lat="37.6655300" lon="-4.0412580">
        <ele>539.4</ele>
        <time>2021-12-27T18:00:48Z</time>
      </trkpt>
      <trkpt lat="37.6655070" lon="-4.0412830">
        <ele>539.6</ele>
        <time>2021-12-27T18:00:49Z</time>
      </trkpt>
      <trkpt lat="37.6654850" lon="-4.0413050">
        <ele>539.6</ele>
        <time>2021-12-27T18:00:50Z</time>
      </trkpt>
      <trkpt lat="37.6654620" lon="-4.0413250">
        <ele>539.6</ele>
        <time>2021-12-27T18:00:51Z</time>
      </trkpt>
      <trkpt lat="37.6654370" lon="-4.0413460">
        <ele>539.6</ele>
        <time>2021-12-27T18:00:52Z</time>
      </trkpt>
      <trkpt lat="37.6654140" lon="-4.0413650">
        <ele>539.8</ele>
        <time>2021-12-27T18:00:53Z</time>
      </trkpt>
      <trkpt lat="37.6653890" lon="-4.0413870">
        <ele>539.8</ele>
        <time>2021-12-27T18:00:54Z</time>
      </trkpt>
      <trkpt lat="37.6653660" lon="-4.0414070">
        <ele>540.0</ele>
        <time>2021-12-27T18:00:55Z</time>
      </trkpt>
      <trkpt lat="37.6653470" lon="-4.0414300">
        <ele>540.0</ele>
        <time>2021-12-27T18:00:56Z</time>
      </trkpt>
      <trkpt lat="37.6653250" lon="-4.0414530">
        <ele>540.2</ele>
        <time>2021-12-27T18:00:57Z</time>
      </trkpt>
      <trkpt lat="37.6653060" lon="-4.0414750">
        <ele>540.4</ele>
        <time>2021-12-27T18:00:58Z</time>
      </trkpt>
      <trkpt lat="37.6652830" lon="-4.0414950">
        <ele>540.4</ele>
        <time>2021-12-27T18:00:59Z</time>
      </trkpt>
      <trkpt lat="37.6652610" lon="-4.0415170">
        <ele>540.6</ele>
        <time>2021-12-27T18:01:00Z</time>
      </trkpt>
      <trkpt lat="37.6652420" lon="-4.0415380">
        <ele>540.8</ele>
        <time>2021-12-27T18:01:01Z</time>
      </trkpt>
      <trkpt lat="37.6652190" lon="-4.0415600">
        <ele>540.8</ele>
        <time>2021-12-27T18:01:02Z</time>
      </trkpt>
      <trkpt lat="37.6652000" lon="-4.0415840">
        <ele>540.8</ele>
        <time>2021-12-27T18:01:03Z</time>
      </trkpt>
      <trkpt lat="37.6651780" lon="-4.0416040">
        <ele>541.0</ele>
        <time>2021-12-27T18:01:04Z</time>
      </trkpt>
      <trkpt lat="37.6651520" lon="-4.0416250">
        <ele>541.0</ele>
        <time>2021-12-27T18:01:05Z</time>
      </trkpt>
      <trkpt lat="37.6651360" lon="-4.0416480">
        <ele>541.0</ele>
        <time>2021-12-27T18:01:06Z</time>
      </trkpt>
      <trkpt lat="37.6651100" lon="-4.0416720">
        <ele>541.2</ele>
        <time>2021-12-27T18:01:07Z</time>
      </trkpt>
      <trkpt lat="37.6650880" lon="-4.0416930">
        <ele>541.2</ele>
        <time>2021-12-27T18:01:08Z</time>
      </trkpt>
      <trkpt lat="37.6650660" lon="-4.0417160">
        <ele>541.2</ele>
        <time>2021-12-27T18:01:09Z</time>
      </trkpt>
      <trkpt lat="37.6650400" lon="-4.0417400">
        <ele>541.2</ele>
        <time>2021-12-27T18:01:10Z</time>
      </trkpt>
      <trkpt lat="37.6650180" lon="-4.0417670">
        <ele>541.4</ele>
        <time>2021-12-27T18:01:11Z</time>
      </trkpt>
      <trkpt lat="37.6649890" lon="-4.0417930">
        <ele>541.6</ele>
        <time>2021-12-27T18:01:12Z</time>
      </trkpt>
      <trkpt lat="37.6649630" lon="-4.0418180">
        <ele>541.6</ele>
        <time>2021-12-27T18:01:13Z</time>
      </trkpt>
      <trkpt lat="37.6649410" lon="-4.0418440">
        <ele>541.8</ele>
        <time>2021-12-27T18:01:14Z</time>
      </trkpt>
      <trkpt lat="37.6649180" lon="-4.0418700">
        <ele>541.8</ele>
        <time>2021-12-27T18:01:15Z</time>
      </trkpt>
      <trkpt lat="37.6648990" lon="-4.0418980">
        <ele>542.0</ele>
        <time>2021-12-27T18:01:16Z</time>
      </trkpt>
      <trkpt lat="37.6648700" lon="-4.0419200">
        <ele>542.2</ele>
        <time>2021-12-27T18:01:17Z</time>
      </trkpt>
      <trkpt lat="37.6648450" lon="-4.0419420">
        <ele>542.2</ele>
        <time>2021-12-27T18:01:18Z</time>
      </trkpt>
      <trkpt lat="37.6648190" lon="-4.0419620">
        <ele>542.4</ele>
        <time>2021-12-27T18:01:19Z</time>
      </trkpt>
      <trkpt lat="37.6647940" lon="-4.0419850">
        <ele>542.4</ele>
        <time>2021-12-27T18:01:20Z</time>
      </trkpt>
      <trkpt lat="37.6647740" lon="-4.0420120">
        <ele>542.4</ele>
        <time>2021-12-27T18:01:21Z</time>
      </trkpt>
      <trkpt lat="37.6647550" lon="-4.0420380">
        <ele>542.4</ele>
        <time>2021-12-27T18:01:22Z</time>
      </trkpt>
      <trkpt lat="37.6647330" lon="-4.0420620">
        <ele>542.4</ele>
        <time>2021-12-27T18:01:23Z</time>
      </trkpt>
      <trkpt lat="37.6647140" lon="-4.0420880">
        <ele>542.6</ele>
        <time>2021-12-27T18:01:24Z</time>
      </trkpt>
      <trkpt lat="37.6646880" lon="-4.0421120">
        <ele>542.6</ele>
        <time>2021-12-27T18:01:25Z</time>
      </trkpt>
      <trkpt lat="37.6646660" lon="-4.0421320">
        <ele>542.8</ele>
        <time>2021-12-27T18:01:26Z</time>
      </trkpt>
      <trkpt lat="37.6646430" lon="-4.0421520">
        <ele>542.8</ele>
        <time>2021-12-27T18:01:27Z</time>
      </trkpt>
      <trkpt lat="37.6646240" lon="-4.0421720">
        <ele>542.8</ele>
        <time>2021-12-27T18:01:28Z</time>
      </trkpt>
      <trkpt lat="37.6646020" lon="-4.0421940">
        <ele>542.8</ele>
        <time>2021-12-27T18:01:29Z</time>
      </trkpt>
      <trkpt lat="37.6645820" lon="-4.0422170">
        <ele>542.8</ele>
        <time>2021-12-27T18:01:30Z</time>
      </trkpt>
      <trkpt lat="37.6645600" lon="-4.0422420">
        <ele>542.8</ele>
        <time>2021-12-27T18:01:31Z</time>
      </trkpt>
      <trkpt lat="37.6645410" lon="-4.0422620">
        <ele>542.8</ele>
        <time>2021-12-27T18:01:32Z</time>
      </trkpt>
      <trkpt lat="37.6645220" lon="-4.0422820">
        <ele>543.0</ele>
        <time>2021-12-27T18:01:33Z</time>
      </trkpt>
      <trkpt lat="37.6644960" lon="-4.0423000">
        <ele>543.0</ele>
        <time>2021-12-27T18:01:34Z</time>
      </trkpt>
      <trkpt lat="37.6644770" lon="-4.0423200">
        <ele>543.0</ele>
        <time>2021-12-27T18:01:35Z</time>
      </trkpt>
      <trkpt lat="37.6644540" lon="-4.0423420">
        <ele>543.0</ele>
        <time>2021-12-27T18:01:36Z</time>
      </trkpt>
      <trkpt lat="37.6644350" lon="-4.0423660">
        <ele>543.0</ele>
        <time>2021-12-27T18:01:37Z</time>
      </trkpt>
      <trkpt lat="37.6644130" lon="-4.0423880">
        <ele>543.2</ele>
        <time>2021-12-27T18:01:38Z</time>
      </trkpt>
      <trkpt lat="37.6643870" lon="-4.0424060">
        <ele>543.4</ele>
        <time>2021-12-27T18:01:39Z</time>
      </trkpt>
      <trkpt lat="37.6643650" lon="-4.0424220">
        <ele>543.4</ele>
        <time>2021-12-27T18:01:40Z</time>
      </trkpt>
      <trkpt lat="37.6643460" lon="-4.0424420">
        <ele>543.6</ele>
        <time>2021-12-27T18:01:41Z</time>
      </trkpt>
      <trkpt lat="37.6643230" lon="-4.0424670">
        <ele>543.6</ele>
        <time>2021-12-27T18:01:42Z</time>
      </trkpt>
      <trkpt lat="37.6643040" lon="-4.0424920">
        <ele>543.6</ele>
        <time>2021-12-27T18:01:43Z</time>
      </trkpt>
      <trkpt lat="37.6642780" lon="-4.0425170">
        <ele>543.8</ele>
        <time>2021-12-27T18:01:44Z</time>
      </trkpt>
      <trkpt lat="37.6642560" lon="-4.0425370">
        <ele>543.8</ele>
        <time>2021-12-27T18:01:45Z</time>
      </trkpt>
      <trkpt lat="37.6642370" lon="-4.0425600">
        <ele>543.8</ele>
        <time>2021-12-27T18:01:46Z</time>
      </trkpt>
      <trkpt lat="37.6642140" lon="-4.0425820">
        <ele>543.8</ele>
        <time>2021-12-27T18:01:47Z</time>
      </trkpt>
      <trkpt lat="37.6641920" lon="-4.0426070">
        <ele>543.8</ele>
        <time>2021-12-27T18:01:48Z</time>
      </trkpt>
      <trkpt lat="37.6641730" lon="-4.0426350">
        <ele>543.8</ele>
        <time>2021-12-27T18:01:49Z</time>
      </trkpt>
      <trkpt lat="37.6641540" lon="-4.0426580">
        <ele>544.0</ele>
        <time>2021-12-27T18:01:50Z</time>
      </trkpt>
      <trkpt lat="37.6641310" lon="-4.0426780">
        <ele>544.0</ele>
        <time>2021-12-27T18:01:51Z</time>
      </trkpt>
      <trkpt lat="37.6641090" lon="-4.0427020">
        <ele>544.0</ele>
        <time>2021-12-27T18:01:52Z</time>
      </trkpt>
      <trkpt lat="37.6640900" lon="-4.0427230">
        <ele>544.0</ele>
        <time>2021-12-27T18:01:53Z</time>
      </trkpt>
      <trkpt lat="37.6640670" lon="-4.0427480">
        <ele>544.0</ele>
        <time>2021-12-27T18:01:54Z</time>
      </trkpt>
      <trkpt lat="37.6640450" lon="-4.0427760">
        <ele>544.2</ele>
        <time>2021-12-27T18:01:55Z</time>
      </trkpt>
      <trkpt lat="37.6640290" lon="-4.0428070">
        <ele>544.2</ele>
        <time>2021-12-27T18:01:56Z</time>
      </trkpt>
      <trkpt lat="37.6640060" lon="-4.0428320">
        <ele>544.4</ele>
        <time>2021-12-27T18:01:57Z</time>
      </trkpt>
      <trkpt lat="37.6639810" lon="-4.0428580">
        <ele>544.4</ele>
        <time>2021-12-27T18:01:58Z</time>
      </trkpt>
      <trkpt lat="37.6639650" lon="-4.0428830">
        <ele>544.6</ele>
        <time>2021-12-27T18:01:59Z</time>
      </trkpt>
      <trkpt lat="37.6639460" lon="-4.0429080">
        <ele>544.6</ele>
        <time>2021-12-27T18:02:00Z</time>
      </trkpt>
      <trkpt lat="37.6639260" lon="-4.0429340">
        <ele>544.8</ele>
        <time>2021-12-27T18:02:01Z</time>
      </trkpt>
      <trkpt lat="37.6639070" lon="-4.0429570">
        <ele>544.8</ele>
        <time>2021-12-27T18:02:02Z</time>
      </trkpt>
      <trkpt lat="37.6638880" lon="-4.0429800">
        <ele>544.6</ele>
        <time>2021-12-27T18:02:03Z</time>
      </trkpt>
      <trkpt lat="37.6638690" lon="-4.0430050">
        <ele>544.8</ele>
        <time>2021-12-27T18:02:04Z</time>
      </trkpt>
      <trkpt lat="37.6638500" lon="-4.0430300">
        <ele>544.8</ele>
        <time>2021-12-27T18:02:05Z</time>
      </trkpt>
      <trkpt lat="37.6638300" lon="-4.0430550">
        <ele>544.8</ele>
        <time>2021-12-27T18:02:06Z</time>
      </trkpt>
      <trkpt lat="37.6638110" lon="-4.0430800">
        <ele>544.8</ele>
        <time>2021-12-27T18:02:07Z</time>
      </trkpt>
      <trkpt lat="37.6637920" lon="-4.0431060">
        <ele>544.8</ele>
        <time>2021-12-27T18:02:08Z</time>
      </trkpt>
      <trkpt lat="37.6637790" lon="-4.0431320">
        <ele>544.8</ele>
        <time>2021-12-27T18:02:09Z</time>
      </trkpt>
      <trkpt lat="37.6637600" lon="-4.0431580">
        <ele>544.8</ele>
        <time>2021-12-27T18:02:10Z</time>
      </trkpt>
      <trkpt lat="37.6637470" lon="-4.0431820">
        <ele>544.8</ele>
        <time>2021-12-27T18:02:11Z</time>
      </trkpt>
      <trkpt lat="37.6637280" lon="-4.0432050">
        <ele>544.8</ele>
        <time>2021-12-27T18:02:12Z</time>
      </trkpt>
      <trkpt lat="37.6637120" lon="-4.0432320">
        <ele>544.8</ele>
        <time>2021-12-27T18:02:13Z</time>
      </trkpt>
      <trkpt lat="37.6636930" lon="-4.0432600">
        <ele>544.8</ele>
        <time>2021-12-27T18:02:14Z</time>
      </trkpt>
      <trkpt lat="37.6636770" lon="-4.0432880">
        <ele>544.8</ele>
        <time>2021-12-27T18:02:15Z</time>
      </trkpt>
      <trkpt lat="37.6636580" lon="-4.0433150">
        <ele>545.0</ele>
        <time>2021-12-27T18:02:16Z</time>
      </trkpt>
      <trkpt lat="37.6636380" lon="-4.0433420">
        <ele>545.0</ele>
        <time>2021-12-27T18:02:17Z</time>
      </trkpt>
      <trkpt lat="37.6636190" lon="-4.0433660">
        <ele>545.0</ele>
        <time>2021-12-27T18:02:18Z</time>
      </trkpt>
      <trkpt lat="37.6636030" lon="-4.0433930">
        <ele>545.0</ele>
        <time>2021-12-27T18:02:19Z</time>
      </trkpt>
      <trkpt lat="37.6635900" lon="-4.0434160">
        <ele>545.2</ele>
        <time>2021-12-27T18:02:20Z</time>
      </trkpt>
      <trkpt lat="37.6635740" lon="-4.0434400">
        <ele>545.2</ele>
        <time>2021-12-27T18:02:21Z</time>
      </trkpt>
      <trkpt lat="37.6635580" lon="-4.0434650">
        <ele>545.2</ele>
        <time>2021-12-27T18:02:22Z</time>
      </trkpt>
      <trkpt lat="37.6635420" lon="-4.0434920">
        <ele>545.2</ele>
        <time>2021-12-27T18:02:23Z</time>
      </trkpt>
      <trkpt lat="37.6635300" lon="-4.0435200">
        <ele>545.2</ele>
        <time>2021-12-27T18:02:24Z</time>
      </trkpt>
      <trkpt lat="37.6635140" lon="-4.0435470">
        <ele>545.2</ele>
        <time>2021-12-27T18:02:25Z</time>
      </trkpt>
      <trkpt lat="37.6635010" lon="-4.0435730">
        <ele>545.2</ele>
        <time>2021-12-27T18:02:26Z</time>
      </trkpt>
      <trkpt lat="37.6634880" lon="-4.0436000">
        <ele>545.4</ele>
        <time>2021-12-27T18:02:27Z</time>
      </trkpt>
      <trkpt lat="37.6634720" lon="-4.0436270">
        <ele>545.4</ele>
        <time>2021-12-27T18:02:28Z</time>
      </trkpt>
      <trkpt lat="37.6634590" lon="-4.0436540">
        <ele>545.4</ele>
        <time>2021-12-27T18:02:29Z</time>
      </trkpt>
      <trkpt lat="37.6634430" lon="-4.0436820">
        <ele>545.4</ele>
        <time>2021-12-27T18:02:30Z</time>
      </trkpt>
      <trkpt lat="37.6634340" lon="-4.0437100">
        <ele>545.4</ele>
        <time>2021-12-27T18:02:31Z</time>
      </trkpt>
      <trkpt lat="37.6634180" lon="-4.0437380">
        <ele>545.4</ele>
        <time>2021-12-27T18:02:32Z</time>
      </trkpt>
      <trkpt lat="37.6634020" lon="-4.0437680">
        <ele>545.4</ele>
        <time>2021-12-27T18:02:33Z</time>
      </trkpt>
      <trkpt lat="37.6633820" lon="-4.0437960">
        <ele>545.4</ele>
        <time>2021-12-27T18:02:34Z</time>
      </trkpt>
      <trkpt lat="37.6633730" lon="-4.0438250">
        <ele>545.4</ele>
        <time>2021-12-27T18:02:35Z</time>
      </trkpt>
      <trkpt lat="37.6633570" lon="-4.0438530">
        <ele>545.4</ele>
        <time>2021-12-27T18:02:36Z</time>
      </trkpt>
      <trkpt lat="37.6633410" lon="-4.0438800">
        <ele>545.4</ele>
        <time>2021-12-27T18:02:37Z</time>
      </trkpt>
      <trkpt lat="37.6633250" lon="-4.0439080">
        <ele>545.4</ele>
        <time>2021-12-27T18:02:38Z</time>
      </trkpt>
      <trkpt lat="37.6633120" lon="-4.0439370">
        <ele>545.4</ele>
        <time>2021-12-27T18:02:39Z</time>
      </trkpt>
      <trkpt lat="37.6632960" lon="-4.0439650">
        <ele>545.4</ele>
        <time>2021-12-27T18:02:40Z</time>
      </trkpt>
      <trkpt lat="37.6632900" lon="-4.0439950">
        <ele>545.4</ele>
        <time>2021-12-27T18:02:41Z</time>
      </trkpt>
      <trkpt lat="37.6632740" lon="-4.0440270">
        <ele>545.4</ele>
        <time>2021-12-27T18:02:42Z</time>
      </trkpt>
      <trkpt lat="37.6632610" lon="-4.0440580">
        <ele>545.4</ele>
        <time>2021-12-27T18:02:43Z</time>
      </trkpt>
      <trkpt lat="37.6632510" lon="-4.0440860">
        <ele>545.4</ele>
        <time>2021-12-27T18:02:44Z</time>
      </trkpt>
      <trkpt lat="37.6632380" lon="-4.0441150">
        <ele>545.4</ele>
        <time>2021-12-27T18:02:45Z</time>
      </trkpt>
      <trkpt lat="37.6632260" lon="-4.0441430">
        <ele>545.2</ele>
        <time>2021-12-27T18:02:46Z</time>
      </trkpt>
      <trkpt lat="37.6632160" lon="-4.0441750">
        <ele>545.2</ele>
        <time>2021-12-27T18:02:47Z</time>
      </trkpt>
      <trkpt lat="37.6632030" lon="-4.0442050">
        <ele>545.2</ele>
        <time>2021-12-27T18:02:48Z</time>
      </trkpt>
      <trkpt lat="37.6631940" lon="-4.0442370">
        <ele>545.2</ele>
        <time>2021-12-27T18:02:49Z</time>
      </trkpt>
      <trkpt lat="37.6631810" lon="-4.0442680">
        <ele>545.2</ele>
        <time>2021-12-27T18:02:50Z</time>
      </trkpt>
      <trkpt lat="37.6631710" lon="-4.0443020">
        <ele>545.2</ele>
        <time>2021-12-27T18:02:51Z</time>
      </trkpt>
      <trkpt lat="37.6631550" lon="-4.0443320">
        <ele>545.2</ele>
        <time>2021-12-27T18:02:52Z</time>
      </trkpt>
      <trkpt lat="37.6631390" lon="-4.0443620">
        <ele>545.2</ele>
        <time>2021-12-27T18:02:53Z</time>
      </trkpt>
      <trkpt lat="37.6631260" lon="-4.0443880">
        <ele>545.2</ele>
        <time>2021-12-27T18:02:54Z</time>
      </trkpt>
      <trkpt lat="37.6631140" lon="-4.0444150">
        <ele>545.2</ele>
        <time>2021-12-27T18:02:55Z</time>
      </trkpt>
      <trkpt lat="37.6631040" lon="-4.0444430">
        <ele>545.2</ele>
        <time>2021-12-27T18:02:56Z</time>
      </trkpt>
      <trkpt lat="37.6630980" lon="-4.0444730">
        <ele>545.4</ele>
        <time>2021-12-27T18:02:57Z</time>
      </trkpt>
      <trkpt lat="37.6630850" lon="-4.0445050">
        <ele>545.4</ele>
        <time>2021-12-27T18:02:58Z</time>
      </trkpt>
      <trkpt lat="37.6630750" lon="-4.0445350">
        <ele>545.4</ele>
        <time>2021-12-27T18:02:59Z</time>
      </trkpt>
      <trkpt lat="37.6630620" lon="-4.0445650">
        <ele>545.4</ele>
        <time>2021-12-27T18:03:00Z</time>
      </trkpt>
      <trkpt lat="37.6630530" lon="-4.0445970">
        <ele>545.4</ele>
        <time>2021-12-27T18:03:01Z</time>
      </trkpt>
      <trkpt lat="37.6630400" lon="-4.0446270">
        <ele>545.4</ele>
        <time>2021-12-27T18:03:02Z</time>
      </trkpt>
      <trkpt lat="37.6630270" lon="-4.0446570">
        <ele>545.4</ele>
        <time>2021-12-27T18:03:03Z</time>
      </trkpt>
      <trkpt lat="37.6630180" lon="-4.0446880">
        <ele>545.4</ele>
        <time>2021-12-27T18:03:04Z</time>
      </trkpt>
      <trkpt lat="37.6630050" lon="-4.0447180">
        <ele>545.4</ele>
        <time>2021-12-27T18:03:05Z</time>
      </trkpt>
      <trkpt lat="37.6629980" lon="-4.0447470">
        <ele>545.4</ele>
        <time>2021-12-27T18:03:06Z</time>
      </trkpt>
      <trkpt lat="37.6629860" lon="-4.0447760">
        <ele>545.6</ele>
        <time>2021-12-27T18:03:07Z</time>
      </trkpt>
      <trkpt lat="37.6629790" lon="-4.0448060">
        <ele>545.6</ele>
        <time>2021-12-27T18:03:08Z</time>
      </trkpt>
      <trkpt lat="37.6629730" lon="-4.0448360">
        <ele>545.6</ele>
        <time>2021-12-27T18:03:09Z</time>
      </trkpt>
      <trkpt lat="37.6629630" lon="-4.0448660">
        <ele>545.4</ele>
        <time>2021-12-27T18:03:10Z</time>
      </trkpt>
      <trkpt lat="37.6629600" lon="-4.0448970">
        <ele>545.4</ele>
        <time>2021-12-27T18:03:11Z</time>
      </trkpt>
      <trkpt lat="37.6629540" lon="-4.0449230">
        <ele>545.4</ele>
        <time>2021-12-27T18:03:12Z</time>
      </trkpt>
      <trkpt lat="37.6629470" lon="-4.0449520">
        <ele>545.4</ele>
        <time>2021-12-27T18:03:13Z</time>
      </trkpt>
      <trkpt lat="37.6629440" lon="-4.0449800">
        <ele>545.4</ele>
        <time>2021-12-27T18:03:14Z</time>
      </trkpt>
      <trkpt lat="37.6629380" lon="-4.0450120">
        <ele>545.4</ele>
        <time>2021-12-27T18:03:15Z</time>
      </trkpt>
      <trkpt lat="37.6629280" lon="-4.0450420">
        <ele>545.4</ele>
        <time>2021-12-27T18:03:16Z</time>
      </trkpt>
      <trkpt lat="37.6629220" lon="-4.0450720">
        <ele>545.4</ele>
        <time>2021-12-27T18:03:17Z</time>
      </trkpt>
      <trkpt lat="37.6629150" lon="-4.0451000">
        <ele>545.6</ele>
        <time>2021-12-27T18:03:18Z</time>
      </trkpt>
      <trkpt lat="37.6629060" lon="-4.0451320">
        <ele>545.6</ele>
        <time>2021-12-27T18:03:19Z</time>
      </trkpt>
      <trkpt lat="37.6628990" lon="-4.0451630">
        <ele>545.6</ele>
        <time>2021-12-27T18:03:20Z</time>
      </trkpt>
      <trkpt lat="37.6628930" lon="-4.0451950">
        <ele>545.8</ele>
        <time>2021-12-27T18:03:21Z</time>
      </trkpt>
      <trkpt lat="37.6628830" lon="-4.0452260">
        <ele>545.8</ele>
        <time>2021-12-27T18:03:22Z</time>
      </trkpt>
      <trkpt lat="37.6628770" lon="-4.0452600">
        <ele>546.0</ele>
        <time>2021-12-27T18:03:23Z</time>
      </trkpt>
      <trkpt lat="37.6628670" lon="-4.0452930">
        <ele>546.0</ele>
        <time>2021-12-27T18:03:24Z</time>
      </trkpt>
      <trkpt lat="37.6628640" lon="-4.0453280">
        <ele>546.0</ele>
        <time>2021-12-27T18:03:25Z</time>
      </trkpt>
      <trkpt lat="37.6628580" lon="-4.0453640">
        <ele>546.2</ele>
        <time>2021-12-27T18:03:26Z</time>
      </trkpt>
      <trkpt lat="37.6628480" lon="-4.0454000">
        <ele>546.2</ele>
        <time>2021-12-27T18:03:27Z</time>
      </trkpt>
      <trkpt lat="37.6628450" lon="-4.0454350">
        <ele>546.4</ele>
        <time>2021-12-27T18:03:28Z</time>
      </trkpt>
      <trkpt lat="37.6628420" lon="-4.0454700">
        <ele>546.4</ele>
        <time>2021-12-27T18:03:29Z</time>
      </trkpt>
      <trkpt lat="37.6628380" lon="-4.0455060">
        <ele>546.6</ele>
        <time>2021-12-27T18:03:30Z</time>
      </trkpt>
      <trkpt lat="37.6628350" lon="-4.0455450">
        <ele>546.8</ele>
        <time>2021-12-27T18:03:31Z</time>
      </trkpt>
      <trkpt lat="37.6628290" lon="-4.0455800">
        <ele>546.8</ele>
        <time>2021-12-27T18:03:32Z</time>
      </trkpt>
      <trkpt lat="37.6628260" lon="-4.0456130">
        <ele>547.0</ele>
        <time>2021-12-27T18:03:33Z</time>
      </trkpt>
      <trkpt lat="37.6628220" lon="-4.0456500">
        <ele>547.0</ele>
        <time>2021-12-27T18:03:34Z</time>
      </trkpt>
      <trkpt lat="37.6628160" lon="-4.0456850">
        <ele>547.0</ele>
        <time>2021-12-27T18:03:35Z</time>
      </trkpt>
      <trkpt lat="37.6628130" lon="-4.0457240">
        <ele>547.0</ele>
        <time>2021-12-27T18:03:36Z</time>
      </trkpt>
      <trkpt lat="37.6628060" lon="-4.0457620">
        <ele>547.2</ele>
        <time>2021-12-27T18:03:37Z</time>
      </trkpt>
      <trkpt lat="37.6628000" lon="-4.0457950">
        <ele>547.2</ele>
        <time>2021-12-27T18:03:38Z</time>
      </trkpt>
      <trkpt lat="37.6628000" lon="-4.0458280">
        <ele>547.4</ele>
        <time>2021-12-27T18:03:39Z</time>
      </trkpt>
      <trkpt lat="37.6627970" lon="-4.0458630">
        <ele>547.4</ele>
        <time>2021-12-27T18:03:40Z</time>
      </trkpt>
      <trkpt lat="37.6627940" lon="-4.0458980">
        <ele>547.6</ele>
        <time>2021-12-27T18:03:41Z</time>
      </trkpt>
      <trkpt lat="37.6627870" lon="-4.0459330">
        <ele>547.8</ele>
        <time>2021-12-27T18:03:42Z</time>
      </trkpt>
      <trkpt lat="37.6627870" lon="-4.0459650">
        <ele>547.8</ele>
        <time>2021-12-27T18:03:43Z</time>
      </trkpt>
      <trkpt lat="37.6627840" lon="-4.0460000">
        <ele>547.8</ele>
        <time>2021-12-27T18:03:44Z</time>
      </trkpt>
      <trkpt lat="37.6627810" lon="-4.0460350">
        <ele>547.8</ele>
        <time>2021-12-27T18:03:45Z</time>
      </trkpt>
      <trkpt lat="37.6627740" lon="-4.0460740">
        <ele>548.0</ele>
        <time>2021-12-27T18:03:46Z</time>
      </trkpt>
      <trkpt lat="37.6627740" lon="-4.0461140">
        <ele>548.0</ele>
        <time>2021-12-27T18:03:47Z</time>
      </trkpt>
      <trkpt lat="37.6627680" lon="-4.0461570">
        <ele>548.2</ele>
        <time>2021-12-27T18:03:48Z</time>
      </trkpt>
      <trkpt lat="37.6627650" lon="-4.0461860">
        <ele>548.2</ele>
        <time>2021-12-27T18:03:49Z</time>
      </trkpt>
      <trkpt lat="37.6627620" lon="-4.0462230">
        <ele>548.0</ele>
        <time>2021-12-27T18:03:50Z</time>
      </trkpt>
      <trkpt lat="37.6627620" lon="-4.0462560">
        <ele>548.0</ele>
        <time>2021-12-27T18:03:51Z</time>
      </trkpt>
      <trkpt lat="37.6627580" lon="-4.0462920">
        <ele>548.0</ele>
        <time>2021-12-27T18:03:52Z</time>
      </trkpt>
      <trkpt lat="37.6627550" lon="-4.0463280">
        <ele>548.0</ele>
        <time>2021-12-27T18:03:53Z</time>
      </trkpt>
      <trkpt lat="37.6627550" lon="-4.0463630">
        <ele>547.8</ele>
        <time>2021-12-27T18:03:54Z</time>
      </trkpt>
      <trkpt lat="37.6627550" lon="-4.0464000">
        <ele>547.8</ele>
        <time>2021-12-27T18:03:55Z</time>
      </trkpt>
      <trkpt lat="37.6627550" lon="-4.0464340">
        <ele>547.8</ele>
        <time>2021-12-27T18:03:56Z</time>
      </trkpt>
      <trkpt lat="37.6627550" lon="-4.0464670">
        <ele>548.0</ele>
        <time>2021-12-27T18:03:57Z</time>
      </trkpt>
      <trkpt lat="37.6627550" lon="-4.0465000">
        <ele>548.0</ele>
        <time>2021-12-27T18:03:58Z</time>
      </trkpt>
      <trkpt lat="37.6627550" lon="-4.0465350">
        <ele>548.0</ele>
        <time>2021-12-27T18:03:59Z</time>
      </trkpt>
      <trkpt lat="37.6627550" lon="-4.0465700">
        <ele>548.2</ele>
        <time>2021-12-27T18:04:00Z</time>
      </trkpt>
      <trkpt lat="37.6627550" lon="-4.0466050">
        <ele>548.2</ele>
        <time>2021-12-27T18:04:01Z</time>
      </trkpt>
      <trkpt lat="37.6627550" lon="-4.0466420">
        <ele>548.2</ele>
        <time>2021-12-27T18:04:02Z</time>
      </trkpt>
      <trkpt lat="37.6627580" lon="-4.0466770">
        <ele>548.4</ele>
        <time>2021-12-27T18:04:03Z</time>
      </trkpt>
      <trkpt lat="37.6627580" lon="-4.0467070">
        <ele>548.4</ele>
        <time>2021-12-27T18:04:04Z</time>
      </trkpt>
      <trkpt lat="37.6627580" lon="-4.0467400">
        <ele>548.4</ele>
        <time>2021-12-27T18:04:05Z</time>
      </trkpt>
      <trkpt lat="37.6627580" lon="-4.0467720">
        <ele>548.4</ele>
        <time>2021-12-27T18:04:06Z</time>
      </trkpt>
      <trkpt lat="37.6627580" lon="-4.0468040">
        <ele>548.4</ele>
        <time>2021-12-27T18:04:07Z</time>
      </trkpt>
      <trkpt lat="37.6627580" lon="-4.0468350">
        <ele>548.6</ele>
        <time>2021-12-27T18:04:08Z</time>
      </trkpt>
      <trkpt lat="37.6627580" lon="-4.0468670">
        <ele>548.6</ele>
        <time>2021-12-27T18:04:09Z</time>
      </trkpt>
      <trkpt lat="37.6627580" lon="-4.0469000">
        <ele>548.8</ele>
        <time>2021-12-27T18:04:10Z</time>
      </trkpt>
      <trkpt lat="37.6627620" lon="-4.0469320">
        <ele>548.8</ele>
        <time>2021-12-27T18:04:11Z</time>
      </trkpt>
      <trkpt lat="37.6627650" lon="-4.0469630">
        <ele>549.0</ele>
        <time>2021-12-27T18:04:12Z</time>
      </trkpt>
      <trkpt lat="37.6627680" lon="-4.0469930">
        <ele>549.0</ele>
        <time>2021-12-27T18:04:13Z</time>
      </trkpt>
      <trkpt lat="37.6627680" lon="-4.0470230">
        <ele>549.2</ele>
        <time>2021-12-27T18:04:14Z</time>
      </trkpt>
      <trkpt lat="37.6627740" lon="-4.0470550">
        <ele>549.2</ele>
        <time>2021-12-27T18:04:15Z</time>
      </trkpt>
      <trkpt lat="37.6627780" lon="-4.0470880">
        <ele>549.4</ele>
        <time>2021-12-27T18:04:16Z</time>
      </trkpt>
      <trkpt lat="37.6627810" lon="-4.0471200">
        <ele>549.4</ele>
        <time>2021-12-27T18:04:17Z</time>
      </trkpt>
      <trkpt lat="37.6627870" lon="-4.0471550">
        <ele>549.6</ele>
        <time>2021-12-27T18:04:18Z</time>
      </trkpt>
      <trkpt lat="37.6627970" lon="-4.0471880">
        <ele>549.6</ele>
        <time>2021-12-27T18:04:19Z</time>
      </trkpt>
      <trkpt lat="37.6628000" lon="-4.0472240">
        <ele>549.8</ele>
        <time>2021-12-27T18:04:20Z</time>
      </trkpt>
      <trkpt lat="37.6628030" lon="-4.0472550">
        <ele>549.6</ele>
        <time>2021-12-27T18:04:21Z</time>
      </trkpt>
      <trkpt lat="37.6628060" lon="-4.0472860">
        <ele>549.6</ele>
        <time>2021-12-27T18:04:22Z</time>
      </trkpt>
      <trkpt lat="37.6628130" lon="-4.0473160">
        <ele>549.6</ele>
        <time>2021-12-27T18:04:23Z</time>
      </trkpt>
      <trkpt lat="37.6628160" lon="-4.0473500">
        <ele>549.6</ele>
        <time>2021-12-27T18:04:24Z</time>
      </trkpt>
      <trkpt lat="37.6628190" lon="-4.0473870">
        <ele>549.6</ele>
        <time>2021-12-27T18:04:25Z</time>
      </trkpt>
      <trkpt lat="37.6628220" lon="-4.0474180">
        <ele>549.4</ele>
        <time>2021-12-27T18:04:26Z</time>
      </trkpt>
      <trkpt lat="37.6628260" lon="-4.0474540">
        <ele>549.6</ele>
        <time>2021-12-27T18:04:27Z</time>
      </trkpt>
      <trkpt lat="37.6628350" lon="-4.0474880">
        <ele>549.6</ele>
        <time>2021-12-27T18:04:28Z</time>
      </trkpt>
      <trkpt lat="37.6628420" lon="-4.0475270">
        <ele>549.6</ele>
        <time>2021-12-27T18:04:29Z</time>
      </trkpt>
      <trkpt lat="37.6628480" lon="-4.0475680">
        <ele>549.6</ele>
        <time>2021-12-27T18:04:30Z</time>
      </trkpt>
      <trkpt lat="37.6628540" lon="-4.0476060">
        <ele>549.6</ele>
        <time>2021-12-27T18:04:31Z</time>
      </trkpt>
      <trkpt lat="37.6628640" lon="-4.0476480">
        <ele>549.6</ele>
        <time>2021-12-27T18:04:32Z</time>
      </trkpt>
      <trkpt lat="37.6628670" lon="-4.0476850">
        <ele>549.6</ele>
        <time>2021-12-27T18:04:33Z</time>
      </trkpt>
      <trkpt lat="37.6628740" lon="-4.0477230">
        <ele>549.8</ele>
        <time>2021-12-27T18:04:34Z</time>
      </trkpt>
      <trkpt lat="37.6628800" lon="-4.0477650">
        <ele>549.8</ele>
        <time>2021-12-27T18:04:35Z</time>
      </trkpt>
      <trkpt lat="37.6628930" lon="-4.0478050">
        <ele>549.8</ele>
        <time>2021-12-27T18:04:36Z</time>
      </trkpt>
      <trkpt lat="37.6628990" lon="-4.0478470">
        <ele>549.6</ele>
        <time>2021-12-27T18:04:37Z</time>
      </trkpt>
      <trkpt lat="37.6629120" lon="-4.0478880">
        <ele>549.6</ele>
        <time>2021-12-27T18:04:38Z</time>
      </trkpt>
      <trkpt lat="37.6629180" lon="-4.0479300">
        <ele>549.6</ele>
        <time>2021-12-27T18:04:39Z</time>
      </trkpt>
      <trkpt lat="37.6629280" lon="-4.0479730">
        <ele>549.4</ele>
        <time>2021-12-27T18:04:40Z</time>
      </trkpt>
      <trkpt lat="37.6629410" lon="-4.0480180">
        <ele>549.4</ele>
        <time>2021-12-27T18:04:41Z</time>
      </trkpt>
      <trkpt lat="37.6629540" lon="-4.0480630">
        <ele>549.4</ele>
        <time>2021-12-27T18:04:42Z</time>
      </trkpt>
      <trkpt lat="37.6629630" lon="-4.0481080">
        <ele>549.2</ele>
        <time>2021-12-27T18:04:43Z</time>
      </trkpt>
      <trkpt lat="37.6629760" lon="-4.0481550">
        <ele>549.2</ele>
        <time>2021-12-27T18:04:44Z</time>
      </trkpt>
      <trkpt lat="37.6629860" lon="-4.0482020">
        <ele>549.2</ele>
        <time>2021-12-27T18:04:45Z</time>
      </trkpt>
      <trkpt lat="37.6630020" lon="-4.0482480">
        <ele>549.2</ele>
        <time>2021-12-27T18:04:46Z</time>
      </trkpt>
      <trkpt lat="37.6630140" lon="-4.0482930">
        <ele>549.2</ele>
        <time>2021-12-27T18:04:47Z</time>
      </trkpt>
      <trkpt lat="37.6630240" lon="-4.0483380">
        <ele>549.2</ele>
        <time>2021-12-27T18:04:48Z</time>
      </trkpt>
      <trkpt lat="37.6630400" lon="-4.0483780">
        <ele>549.2</ele>
        <time>2021-12-27T18:04:49Z</time>
      </trkpt>
      <trkpt lat="37.6630530" lon="-4.0484150">
        <ele>549.2</ele>
        <time>2021-12-27T18:04:50Z</time>
      </trkpt>
      <trkpt lat="37.6630620" lon="-4.0484530">
        <ele>549.2</ele>
        <time>2021-12-27T18:04:51Z</time>
      </trkpt>
      <trkpt lat="37.6630750" lon="-4.0484930">
        <ele>549.2</ele>
        <time>2021-12-27T18:04:52Z</time>
      </trkpt>
      <trkpt lat="37.6630850" lon="-4.0485300">
        <ele>549.4</ele>
        <time>2021-12-27T18:04:53Z</time>
      </trkpt>
      <trkpt lat="37.6631010" lon="-4.0485670">
        <ele>549.4</ele>
        <time>2021-12-27T18:04:54Z</time>
      </trkpt>
      <trkpt lat="37.6631170" lon="-4.0486070">
        <ele>549.4</ele>
        <time>2021-12-27T18:04:55Z</time>
      </trkpt>
      <trkpt lat="37.6631260" lon="-4.0486460">
        <ele>549.6</ele>
        <time>2021-12-27T18:04:56Z</time>
      </trkpt>
      <trkpt lat="37.6631390" lon="-4.0486860">
        <ele>549.6</ele>
        <time>2021-12-27T18:04:57Z</time>
      </trkpt>
      <trkpt lat="37.6631550" lon="-4.0487260">
        <ele>549.8</ele>
        <time>2021-12-27T18:04:58Z</time>
      </trkpt>
      <trkpt lat="37.6631710" lon="-4.0487650">
        <ele>549.8</ele>
        <time>2021-12-27T18:04:59Z</time>
      </trkpt>
      <trkpt lat="37.6631840" lon="-4.0488020">
        <ele>550.0</ele>
        <time>2021-12-27T18:05:00Z</time>
      </trkpt>
      <trkpt lat="37.6632000" lon="-4.0488370">
        <ele>550.0</ele>
        <time>2021-12-27T18:05:01Z</time>
      </trkpt>
      <trkpt lat="37.6632130" lon="-4.0488700">
        <ele>550.0</ele>
        <time>2021-12-27T18:05:02Z</time>
      </trkpt>
      <trkpt lat="37.6632220" lon="-4.0489040">
        <ele>550.0</ele>
        <time>2021-12-27T18:05:03Z</time>
      </trkpt>
      <trkpt lat="37.6632380" lon="-4.0489380">
        <ele>549.8</ele>
        <time>2021-12-27T18:05:04Z</time>
      </trkpt>
      <trkpt lat="37.6632540" lon="-4.0489740">
        <ele>550.0</ele>
        <time>2021-12-27T18:05:05Z</time>
      </trkpt>
      <trkpt lat="37.6632640" lon="-4.0490080">
        <ele>550.0</ele>
        <time>2021-12-27T18:05:06Z</time>
      </trkpt>
      <trkpt lat="37.6632770" lon="-4.0490420">
        <ele>550.0</ele>
        <time>2021-12-27T18:05:07Z</time>
      </trkpt>
      <trkpt lat="37.6632930" lon="-4.0490760">
        <ele>550.0</ele>
        <time>2021-12-27T18:05:08Z</time>
      </trkpt>
      <trkpt lat="37.6633060" lon="-4.0491050">
        <ele>550.0</ele>
        <time>2021-12-27T18:05:09Z</time>
      </trkpt>
      <trkpt lat="37.6633180" lon="-4.0491330">
        <ele>550.0</ele>
        <time>2021-12-27T18:05:10Z</time>
      </trkpt>
      <trkpt lat="37.6633310" lon="-4.0491600">
        <ele>550.0</ele>
        <time>2021-12-27T18:05:11Z</time>
      </trkpt>
      <trkpt lat="37.6633410" lon="-4.0491880">
        <ele>550.0</ele>
        <time>2021-12-27T18:05:12Z</time>
      </trkpt>
      <trkpt lat="37.6633500" lon="-4.0492120">
        <ele>550.2</ele>
        <time>2021-12-27T18:05:13Z</time>
      </trkpt>
      <trkpt lat="37.6633570" lon="-4.0492340">
        <ele>550.2</ele>
        <time>2021-12-27T18:05:14Z</time>
      </trkpt>
      <trkpt lat="37.6633700" lon="-4.0492540">
        <ele>550.4</ele>
        <time>2021-12-27T18:05:15Z</time>
      </trkpt>
      <trkpt lat="37.6633700" lon="-4.0492540">
        <ele>550.6</ele>
        <time>2021-12-27T18:05:16Z</time>
      </trkpt>
      <trkpt lat="37.6633820" lon="-4.0492820">
        <ele>550.6</ele>
        <time>2021-12-27T18:05:17Z</time>
      </trkpt>
      <trkpt lat="37.6633820" lon="-4.0492820">
        <ele>550.8</ele>
        <time>2021-12-27T18:05:18Z</time>
      </trkpt>
      <trkpt lat="37.6633950" lon="-4.0492980">
        <ele>551.0</ele>
        <time>2021-12-27T18:05:19Z</time>
      </trkpt>
      <trkpt lat="37.6633950" lon="-4.0492980">
        <ele>551.2</ele>
        <time>2021-12-27T18:05:20Z</time>
      </trkpt>
      <trkpt lat="37.6633950" lon="-4.0492980">
        <ele>551.2</ele>
        <time>2021-12-27T18:05:21Z</time>
      </trkpt>
      <trkpt lat="37.6633950" lon="-4.0492980">
        <ele>551.4</ele>
        <time>2021-12-27T18:05:22Z</time>
      </trkpt>
      <trkpt lat="37.6633950" lon="-4.0492980">
        <ele>551.4</ele>
        <time>2021-12-27T18:05:23Z</time>
      </trkpt>
      <trkpt lat="37.6633950" lon="-4.0492980">
        <ele>553.0</ele>
        <time>2021-12-27T18:12:21Z</time>
      </trkpt>
      <trkpt lat="37.6632220" lon="-4.0494700">
        <ele>553.2</ele>
        <time>2021-12-27T18:12:22Z</time>
      </trkpt>
      <trkpt lat="37.6632220" lon="-4.0494700">
        <ele>553.2</ele>
        <time>2021-12-27T18:12:23Z</time>
      </trkpt>
      <trkpt lat="37.6632160" lon="-4.0494980">
        <ele>553.2</ele>
        <time>2021-12-27T18:12:24Z</time>
      </trkpt>
      <trkpt lat="37.6632160" lon="-4.0494980">
        <ele>553.2</ele>
        <time>2021-12-27T18:12:25Z</time>
      </trkpt>
      <trkpt lat="37.6632130" lon="-4.0495230">
        <ele>553.0</ele>
        <time>2021-12-27T18:12:26Z</time>
      </trkpt>
      <trkpt lat="37.6632130" lon="-4.0495230">
        <ele>552.8</ele>
        <time>2021-12-27T18:12:27Z</time>
      </trkpt>
      <trkpt lat="37.6632100" lon="-4.0495530">
        <ele>552.8</ele>
        <time>2021-12-27T18:12:28Z</time>
      </trkpt>
      <trkpt lat="37.6632100" lon="-4.0495530">
        <ele>552.6</ele>
        <time>2021-12-27T18:12:29Z</time>
      </trkpt>
      <trkpt lat="37.6632130" lon="-4.0495940">
        <ele>552.4</ele>
        <time>2021-12-27T18:12:30Z</time>
      </trkpt>
      <trkpt lat="37.6632130" lon="-4.0495940">
        <ele>552.2</ele>
        <time>2021-12-27T18:12:31Z</time>
      </trkpt>
      <trkpt lat="37.6632220" lon="-4.0496240">
        <ele>552.2</ele>
        <time>2021-12-27T18:12:32Z</time>
      </trkpt>
      <trkpt lat="37.6632220" lon="-4.0496240">
        <ele>552.2</ele>
        <time>2021-12-27T18:12:33Z</time>
      </trkpt>
      <trkpt lat="37.6632350" lon="-4.0496470">
        <ele>552.2</ele>
        <time>2021-12-27T18:12:34Z</time>
      </trkpt>
      <trkpt lat="37.6632350" lon="-4.0496470">
        <ele>552.2</ele>
        <time>2021-12-27T18:12:35Z</time>
      </trkpt>
      <trkpt lat="37.6632350" lon="-4.0496470">
        <ele>552.2</ele>
        <time>2021-12-27T18:12:36Z</time>
      </trkpt>
      <trkpt lat="37.6632450" lon="-4.0496770">
        <ele>552.4</ele>
        <time>2021-12-27T18:12:37Z</time>
      </trkpt>
      <trkpt lat="37.6632450" lon="-4.0496770">
        <ele>552.4</ele>
        <time>2021-12-27T18:12:38Z</time>
      </trkpt>
      <trkpt lat="37.6632450" lon="-4.0496770">
        <ele>552.4</ele>
        <time>2021-12-27T18:12:39Z</time>
      </trkpt>
      <trkpt lat="37.6632510" lon="-4.0497030">
        <ele>552.4</ele>
        <time>2021-12-27T18:12:40Z</time>
      </trkpt>
      <trkpt lat="37.6632510" lon="-4.0497030">
        <ele>552.4</ele>
        <time>2021-12-27T18:12:41Z</time>
      </trkpt>
      <trkpt lat="37.6632510" lon="-4.0497030">
        <ele>552.2</ele>
        <time>2021-12-27T18:12:42Z</time>
      </trkpt>
      <trkpt lat="37.6632510" lon="-4.0497030">
        <ele>552.2</ele>
        <time>2021-12-27T18:12:43Z</time>
      </trkpt>
      <trkpt lat="37.6632510" lon="-4.0497030">
        <ele>552.4</ele>
        <time>2021-12-27T18:13:01Z</time>
      </trkpt>
      <trkpt lat="37.6632510" lon="-4.0497030">
        <ele>552.6</ele>
        <time>2021-12-27T18:13:02Z</time>
      </trkpt>
      <trkpt lat="37.6632510" lon="-4.0497030">
        <ele>552.6</ele>
        <time>2021-12-27T18:13:03Z</time>
      </trkpt>
      <trkpt lat="37.6632510" lon="-4.0497030">
        <ele>552.6</ele>
        <time>2021-12-27T18:13:04Z</time>
      </trkpt>
      <trkpt lat="37.6632510" lon="-4.0497030">
        <ele>552.6</ele>
        <time>2021-12-27T18:13:05Z</time>
      </trkpt>
      <trkpt lat="37.6630590" lon="-4.0500480">
        <ele>558.8</ele>
        <time>2021-12-27T18:19:02Z</time>
      </trkpt>
      <trkpt lat="37.6630590" lon="-4.0500480">
        <ele>558.8</ele>
        <time>2021-12-27T18:19:03Z</time>
      </trkpt>
      <trkpt lat="37.6630820" lon="-4.0500680">
        <ele>558.8</ele>
        <time>2021-12-27T18:19:04Z</time>
      </trkpt>
      <trkpt lat="37.6630820" lon="-4.0500680">
        <ele>558.8</ele>
        <time>2021-12-27T18:19:05Z</time>
      </trkpt>
      <trkpt lat="37.6631100" lon="-4.0500900">
        <ele>558.8</ele>
        <time>2021-12-27T18:19:06Z</time>
      </trkpt>
      <trkpt lat="37.6631100" lon="-4.0500900">
        <ele>558.8</ele>
        <time>2021-12-27T18:19:07Z</time>
      </trkpt>
      <trkpt lat="37.6631230" lon="-4.0501100">
        <ele>558.8</ele>
        <time>2021-12-27T18:19:08Z</time>
      </trkpt>
      <trkpt lat="37.6631230" lon="-4.0501100">
        <ele>558.6</ele>
        <time>2021-12-27T18:19:09Z</time>
      </trkpt>
      <trkpt lat="37.6631360" lon="-4.0501280">
        <ele>558.6</ele>
        <time>2021-12-27T18:19:10Z</time>
      </trkpt>
      <trkpt lat="37.6631360" lon="-4.0501280">
        <ele>558.4</ele>
        <time>2021-12-27T18:19:11Z</time>
      </trkpt>
      <trkpt lat="37.6631520" lon="-4.0501450">
        <ele>558.4</ele>
        <time>2021-12-27T18:19:12Z</time>
      </trkpt>
      <trkpt lat="37.6631520" lon="-4.0501450">
        <ele>558.2</ele>
        <time>2021-12-27T18:19:13Z</time>
      </trkpt>
      <trkpt lat="37.6631520" lon="-4.0501450">
        <ele>557.4</ele>
        <time>2021-12-27T18:35:00Z</time>
      </trkpt>
      <trkpt lat="37.6632580" lon="-4.0501930">
        <ele>557.4</ele>
        <time>2021-12-27T18:35:01Z</time>
      </trkpt>
      <trkpt lat="37.6632580" lon="-4.0501930">
        <ele>557.4</ele>
        <time>2021-12-27T18:35:02Z</time>
      </trkpt>
      <trkpt lat="37.6632580" lon="-4.0501930">
        <ele>557.4</ele>
        <time>2021-12-27T18:35:03Z</time>
      </trkpt>
      <trkpt lat="37.6632580" lon="-4.0501930">
        <ele>556.6</ele>
        <time>2021-12-27T18:35:22Z</time>
      </trkpt>
      <trkpt lat="37.6632580" lon="-4.0501930">
        <ele>556.4</ele>
        <time>2021-12-27T18:35:23Z</time>
      </trkpt>
      <trkpt lat="37.6632580" lon="-4.0501930">
        <ele>556.4</ele>
        <time>2021-12-27T18:35:24Z</time>
      </trkpt>
      <trkpt lat="37.6632580" lon="-4.0501930">
        <ele>556.4</ele>
        <time>2021-12-27T18:35:25Z</time>
      </trkpt>
      <trkpt lat="37.6632580" lon="-4.0501930">
        <ele>556.4</ele>
        <time>2021-12-27T18:35:26Z</time>
      </trkpt>
      <trkpt lat="37.6646880" lon="-4.0518300">
        <ele>586.6</ele>
        <time>2021-12-28T08:39:43Z</time>
      </trkpt>
      <trkpt lat="37.6646920" lon="-4.0518460">
        <ele>586.6</ele>
        <time>2021-12-28T08:39:49Z</time>
      </trkpt>
      <trkpt lat="37.6646960" lon="-4.0518630">
        <ele>586.6</ele>
        <time>2021-12-28T08:39:51Z</time>
      </trkpt>
      <trkpt lat="37.6647000" lon="-4.0518790">
        <ele>586.6</ele>
        <time>2021-12-28T08:39:53Z</time>
      </trkpt>
      <trkpt lat="37.6647040" lon="-4.0518950">
        <ele>586.6</ele>
        <time>2021-12-28T08:39:54Z</time>
      </trkpt>
      <trkpt lat="37.6647200" lon="-4.0519250">
        <ele>585.2</ele>
        <time>2021-12-28T08:39:55Z</time>
      </trkpt>
      <trkpt lat="37.6647390" lon="-4.0519570">
        <ele>584.6</ele>
        <time>2021-12-28T08:39:56Z</time>
      </trkpt>
      <trkpt lat="37.6647520" lon="-4.0519900">
        <ele>584.0</ele>
        <time>2021-12-28T08:39:57Z</time>
      </trkpt>
      <trkpt lat="37.6647650" lon="-4.0520280">
        <ele>583.4</ele>
        <time>2021-12-28T08:39:58Z</time>
      </trkpt>
      <trkpt lat="37.6647810" lon="-4.0520670">
        <ele>582.8</ele>
        <time>2021-12-28T08:39:59Z</time>
      </trkpt>
      <trkpt lat="37.6648000" lon="-4.0521270">
        <ele>582.8</ele>
        <time>2021-12-28T08:40:00Z</time>
      </trkpt>
      <trkpt lat="37.6648060" lon="-4.0521460">
        <ele>581.6</ele>
        <time>2021-12-28T08:40:01Z</time>
      </trkpt>
      <trkpt lat="37.6648220" lon="-4.0521920">
        <ele>581.0</ele>
        <time>2021-12-28T08:40:02Z</time>
      </trkpt>
      <trkpt lat="37.6648320" lon="-4.0522380">
        <ele>580.4</ele>
        <time>2021-12-28T08:40:03Z</time>
      </trkpt>
      <trkpt lat="37.6648420" lon="-4.0522850">
        <ele>579.8</ele>
        <time>2021-12-28T08:40:04Z</time>
      </trkpt>
      <trkpt lat="37.6648480" lon="-4.0523300">
        <ele>579.2</ele>
        <time>2021-12-28T08:40:05Z</time>
      </trkpt>
      <trkpt lat="37.6648610" lon="-4.0523700">
        <ele>578.4</ele>
        <time>2021-12-28T08:40:06Z</time>
      </trkpt>
      <trkpt lat="37.6648670" lon="-4.0524100">
        <ele>577.8</ele>
        <time>2021-12-28T08:40:07Z</time>
      </trkpt>
      <trkpt lat="37.6648740" lon="-4.0524480">
        <ele>577.2</ele>
        <time>2021-12-28T08:40:08Z</time>
      </trkpt>
      <trkpt lat="37.6648860" lon="-4.0524850">
        <ele>576.6</ele>
        <time>2021-12-28T08:40:09Z</time>
      </trkpt>
      <trkpt lat="37.6649020" lon="-4.0525230">
        <ele>576.2</ele>
        <time>2021-12-28T08:40:10Z</time>
      </trkpt>
      <trkpt lat="37.6649090" lon="-4.0525660">
        <ele>575.6</ele>
        <time>2021-12-28T08:40:11Z</time>
      </trkpt>
      <trkpt lat="37.6649120" lon="-4.0526120">
        <ele>575.0</ele>
        <time>2021-12-28T08:40:12Z</time>
      </trkpt>
      <trkpt lat="37.6649250" lon="-4.0526620">
        <ele>575.0</ele>
        <time>2021-12-28T08:40:13Z</time>
      </trkpt>
      <trkpt lat="37.6649310" lon="-4.0527100">
        <ele>574.0</ele>
        <time>2021-12-28T08:40:14Z</time>
      </trkpt>
      <trkpt lat="37.6649410" lon="-4.0527600">
        <ele>573.4</ele>
        <time>2021-12-28T08:40:15Z</time>
      </trkpt>
      <trkpt lat="37.6649500" lon="-4.0528100">
        <ele>573.0</ele>
        <time>2021-12-28T08:40:16Z</time>
      </trkpt>
      <trkpt lat="37.6649540" lon="-4.0528580">
        <ele>572.4</ele>
        <time>2021-12-28T08:40:17Z</time>
      </trkpt>
      <trkpt lat="37.6649630" lon="-4.0529030">
        <ele>572.0</ele>
        <time>2021-12-28T08:40:18Z</time>
      </trkpt>
      <trkpt lat="37.6649700" lon="-4.0529450">
        <ele>571.4</ele>
        <time>2021-12-28T08:40:19Z</time>
      </trkpt>
      <trkpt lat="37.6649790" lon="-4.0529900">
        <ele>571.0</ele>
        <time>2021-12-28T08:40:20Z</time>
      </trkpt>
      <trkpt lat="37.6649820" lon="-4.0530350">
        <ele>570.4</ele>
        <time>2021-12-28T08:40:21Z</time>
      </trkpt>
      <trkpt lat="37.6649890" lon="-4.0530800">
        <ele>570.0</ele>
        <time>2021-12-28T08:40:22Z</time>
      </trkpt>
      <trkpt lat="37.6649890" lon="-4.0531240">
        <ele>569.6</ele>
        <time>2021-12-28T08:40:23Z</time>
      </trkpt>
      <trkpt lat="37.6649920" lon="-4.0531680">
        <ele>569.0</ele>
        <time>2021-12-28T08:40:24Z</time>
      </trkpt>
      <trkpt lat="37.6649980" lon="-4.0532080">
        <ele>568.6</ele>
        <time>2021-12-28T08:40:25Z</time>
      </trkpt>
      <trkpt lat="37.6650020" lon="-4.0532520">
        <ele>568.2</ele>
        <time>2021-12-28T08:40:26Z</time>
      </trkpt>
      <trkpt lat="37.6650050" lon="-4.0533000">
        <ele>567.8</ele>
        <time>2021-12-28T08:40:27Z</time>
      </trkpt>
      <trkpt lat="37.6650080" lon="-4.0533470">
        <ele>567.4</ele>
        <time>2021-12-28T08:40:28Z</time>
      </trkpt>
      <trkpt lat="37.6650080" lon="-4.0533970">
        <ele>567.0</ele>
        <time>2021-12-28T08:40:29Z</time>
      </trkpt>
      <trkpt lat="37.6650110" lon="-4.0534470">
        <ele>566.6</ele>
        <time>2021-12-28T08:40:30Z</time>
      </trkpt>
      <trkpt lat="37.6650180" lon="-4.0534980">
        <ele>566.2</ele>
        <time>2021-12-28T08:40:31Z</time>
      </trkpt>
      <trkpt lat="37.6650110" lon="-4.0535480">
        <ele>565.8</ele>
        <time>2021-12-28T08:40:32Z</time>
      </trkpt>
      <trkpt lat="37.6650110" lon="-4.0535960">
        <ele>565.4</ele>
        <time>2021-12-28T08:40:33Z</time>
      </trkpt>
      <trkpt lat="37.6650110" lon="-4.0536400">
        <ele>565.0</ele>
        <time>2021-12-28T08:40:34Z</time>
      </trkpt>
      <trkpt lat="37.6650180" lon="-4.0536880">
        <ele>564.6</ele>
        <time>2021-12-28T08:40:35Z</time>
      </trkpt>
      <trkpt lat="37.6650110" lon="-4.0537420">
        <ele>564.2</ele>
        <time>2021-12-28T08:40:36Z</time>
      </trkpt>
      <trkpt lat="37.6650080" lon="-4.0537940">
        <ele>564.0</ele>
        <time>2021-12-28T08:40:37Z</time>
      </trkpt>
      <trkpt lat="37.6650080" lon="-4.0538440">
        <ele>563.6</ele>
        <time>2021-12-28T08:40:38Z</time>
      </trkpt>
      <trkpt lat="37.6650050" lon="-4.0538940">
        <ele>563.2</ele>
        <time>2021-12-28T08:40:39Z</time>
      </trkpt>
      <trkpt lat="37.6650050" lon="-4.0539420">
        <ele>563.0</ele>
        <time>2021-12-28T08:40:40Z</time>
      </trkpt>
      <trkpt lat="37.6650020" lon="-4.0539900">
        <ele>562.6</ele>
        <time>2021-12-28T08:40:41Z</time>
      </trkpt>
      <trkpt lat="37.6649980" lon="-4.0540370">
        <ele>562.4</ele>
        <time>2021-12-28T08:40:42Z</time>
      </trkpt>
      <trkpt lat="37.6649920" lon="-4.0540850">
        <ele>562.0</ele>
        <time>2021-12-28T08:40:43Z</time>
      </trkpt>
      <trkpt lat="37.6649920" lon="-4.0541350">
        <ele>561.8</ele>
        <time>2021-12-28T08:40:44Z</time>
      </trkpt>
      <trkpt lat="37.6649860" lon="-4.0541850">
        <ele>561.8</ele>
        <time>2021-12-28T08:40:45Z</time>
      </trkpt>
      <trkpt lat="37.6649820" lon="-4.0542350">
        <ele>561.2</ele>
        <time>2021-12-28T08:40:46Z</time>
      </trkpt>
      <trkpt lat="37.6649730" lon="-4.0542830">
        <ele>560.8</ele>
        <time>2021-12-28T08:40:47Z</time>
      </trkpt>
      <trkpt lat="37.6649660" lon="-4.0543330">
        <ele>560.4</ele>
        <time>2021-12-28T08:40:48Z</time>
      </trkpt>
      <trkpt lat="37.6649600" lon="-4.0543830">
        <ele>560.2</ele>
        <time>2021-12-28T08:40:49Z</time>
      </trkpt>
      <trkpt lat="37.6649500" lon="-4.0544330">
        <ele>559.8</ele>
        <time>2021-12-28T08:40:50Z</time>
      </trkpt>
      <trkpt lat="37.6649440" lon="-4.0544850">
        <ele>559.4</ele>
        <time>2021-12-28T08:40:51Z</time>
      </trkpt>
      <trkpt lat="37.6649380" lon="-4.0545370">
        <ele>559.0</ele>
        <time>2021-12-28T08:40:52Z</time>
      </trkpt>
      <trkpt lat="37.6649280" lon="-4.0545880">
        <ele>558.6</ele>
        <time>2021-12-28T08:40:53Z</time>
      </trkpt>
      <trkpt lat="37.6649120" lon="-4.0546400">
        <ele>558.4</ele>
        <time>2021-12-28T08:40:54Z</time>
      </trkpt>
      <trkpt lat="37.6649020" lon="-4.0546950">
        <ele>558.0</ele>
        <time>2021-12-28T08:40:55Z</time>
      </trkpt>
      <trkpt lat="37.6648900" lon="-4.0547520">
        <ele>557.6</ele>
        <time>2021-12-28T08:40:56Z</time>
      </trkpt>
      <trkpt lat="37.6648800" lon="-4.0548050">
        <ele>557.4</ele>
        <time>2021-12-28T08:40:57Z</time>
      </trkpt>
      <trkpt lat="37.6648640" lon="-4.0548570">
        <ele>557.2</ele>
        <time>2021-12-28T08:40:58Z</time>
      </trkpt>
      <trkpt lat="37.6648540" lon="-4.0549070">
        <ele>557.0</ele>
        <time>2021-12-28T08:40:59Z</time>
      </trkpt>
      <trkpt lat="37.6648450" lon="-4.0549580">
        <ele>556.8</ele>
        <time>2021-12-28T08:41:00Z</time>
      </trkpt>
      <trkpt lat="37.6648290" lon="-4.0550080">
        <ele>556.6</ele>
        <time>2021-12-28T08:41:01Z</time>
      </trkpt>
      <trkpt lat="37.6648190" lon="-4.0550560">
        <ele>556.4</ele>
        <time>2021-12-28T08:41:02Z</time>
      </trkpt>
      <trkpt lat="37.6648060" lon="-4.0551030">
        <ele>556.2</ele>
        <time>2021-12-28T08:41:03Z</time>
      </trkpt>
      <trkpt lat="37.6647940" lon="-4.0551530">
        <ele>556.0</ele>
        <time>2021-12-28T08:41:04Z</time>
      </trkpt>
      <trkpt lat="37.6647840" lon="-4.0552050">
        <ele>555.8</ele>
        <time>2021-12-28T08:41:05Z</time>
      </trkpt>
      <trkpt lat="37.6647680" lon="-4.0552550">
        <ele>555.6</ele>
        <time>2021-12-28T08:41:06Z</time>
      </trkpt>
      <trkpt lat="37.6647520" lon="-4.0553060">
        <ele>555.4</ele>
        <time>2021-12-28T08:41:07Z</time>
      </trkpt>
      <trkpt lat="37.6647390" lon="-4.0553580">
        <ele>555.2</ele>
        <time>2021-12-28T08:41:08Z</time>
      </trkpt>
      <trkpt lat="37.6647260" lon="-4.0554120">
        <ele>555.0</ele>
        <time>2021-12-28T08:41:09Z</time>
      </trkpt>
      <trkpt lat="37.6647100" lon="-4.0554620">
        <ele>554.8</ele>
        <time>2021-12-28T08:41:10Z</time>
      </trkpt>
      <trkpt lat="37.6646940" lon="-4.0555120">
        <ele>554.8</ele>
        <time>2021-12-28T08:41:11Z</time>
      </trkpt>
      <trkpt lat="37.6646850" lon="-4.0555600">
        <ele>554.6</ele>
        <time>2021-12-28T08:41:12Z</time>
      </trkpt>
      <trkpt lat="37.6646720" lon="-4.0556120">
        <ele>554.4</ele>
        <time>2021-12-28T08:41:13Z</time>
      </trkpt>
      <trkpt lat="37.6646620" lon="-4.0556620">
        <ele>554.2</ele>
        <time>2021-12-28T08:41:14Z</time>
      </trkpt>
      <trkpt lat="37.6646500" lon="-4.0557150">
        <ele>554.2</ele>
        <time>2021-12-28T08:41:15Z</time>
      </trkpt>
      <trkpt lat="37.6646400" lon="-4.0557680">
        <ele>554.0</ele>
        <time>2021-12-28T08:41:16Z</time>
      </trkpt>
      <trkpt lat="37.6646240" lon="-4.0558230">
        <ele>553.8</ele>
        <time>2021-12-28T08:41:17Z</time>
      </trkpt>
      <trkpt lat="37.6646110" lon="-4.0558750">
        <ele>553.6</ele>
        <time>2021-12-28T08:41:18Z</time>
      </trkpt>
      <trkpt lat="37.6645950" lon="-4.0559280">
        <ele>553.4</ele>
        <time>2021-12-28T08:41:19Z</time>
      </trkpt>
      <trkpt lat="37.6645820" lon="-4.0559820">
        <ele>553.4</ele>
        <time>2021-12-28T08:41:20Z</time>
      </trkpt>
      <trkpt lat="37.6645660" lon="-4.0560350">
        <ele>553.2</ele>
        <time>2021-12-28T08:41:21Z</time>
      </trkpt>
      <trkpt lat="37.6645540" lon="-4.0560860">
        <ele>553.0</ele>
        <time>2021-12-28T08:41:22Z</time>
      </trkpt>
      <trkpt lat="37.6645410" lon="-4.0561380">
        <ele>553.0</ele>
        <time>2021-12-28T08:41:23Z</time>
      </trkpt>
      <trkpt lat="37.6645250" lon="-4.0561900">
        <ele>552.8</ele>
        <time>2021-12-28T08:41:24Z</time>
      </trkpt>
      <trkpt lat="37.6645120" lon="-4.0562400">
        <ele>552.8</ele>
        <time>2021-12-28T08:41:25Z</time>
      </trkpt>
      <trkpt lat="37.6644960" lon="-4.0562880">
        <ele>552.6</ele>
        <time>2021-12-28T08:41:26Z</time>
      </trkpt>
      <trkpt lat="37.6644860" lon="-4.0563380">
        <ele>552.4</ele>
        <time>2021-12-28T08:41:27Z</time>
      </trkpt>
      <trkpt lat="37.6644700" lon="-4.0563900">
        <ele>552.2</ele>
        <time>2021-12-28T08:41:28Z</time>
      </trkpt>
      <trkpt lat="37.6644610" lon="-4.0564400">
        <ele>552.0</ele>
        <time>2021-12-28T08:41:29Z</time>
      </trkpt>
      <trkpt lat="37.6644480" lon="-4.0564920">
        <ele>551.8</ele>
        <time>2021-12-28T08:41:30Z</time>
      </trkpt>
      <trkpt lat="37.6644320" lon="-4.0565430">
        <ele>551.6</ele>
        <time>2021-12-28T08:41:31Z</time>
      </trkpt>
      <trkpt lat="37.6644220" lon="-4.0565920">
        <ele>551.4</ele>
        <time>2021-12-28T08:41:32Z</time>
      </trkpt>
      <trkpt lat="37.6644100" lon="-4.0566420">
        <ele>551.2</ele>
        <time>2021-12-28T08:41:33Z</time>
      </trkpt>
      <trkpt lat="37.6643970" lon="-4.0566920">
        <ele>551.0</ele>
        <time>2021-12-28T08:41:34Z</time>
      </trkpt>
      <trkpt lat="37.6643840" lon="-4.0567430">
        <ele>551.0</ele>
        <time>2021-12-28T08:41:35Z</time>
      </trkpt>
      <trkpt lat="37.6643710" lon="-4.0567930">
        <ele>550.8</ele>
        <time>2021-12-28T08:41:36Z</time>
      </trkpt>
      <trkpt lat="37.6643550" lon="-4.0568420">
        <ele>550.6</ele>
        <time>2021-12-28T08:41:37Z</time>
      </trkpt>
      <trkpt lat="37.6643460" lon="-4.0568930">
        <ele>550.4</ele>
        <time>2021-12-28T08:41:38Z</time>
      </trkpt>
      <trkpt lat="37.6643300" lon="-4.0569440">
        <ele>550.4</ele>
        <time>2021-12-28T08:41:39Z</time>
      </trkpt>
      <trkpt lat="37.6643170" lon="-4.0569940">
        <ele>550.4</ele>
        <time>2021-12-28T08:41:40Z</time>
      </trkpt>
      <trkpt lat="37.6643040" lon="-4.0570450">
        <ele>550.0</ele>
        <time>2021-12-28T08:41:41Z</time>
      </trkpt>
      <trkpt lat="37.6642910" lon="-4.0570950">
        <ele>550.0</ele>
        <time>2021-12-28T08:41:42Z</time>
      </trkpt>
      <trkpt lat="37.6642780" lon="-4.0571430">
        <ele>549.8</ele>
        <time>2021-12-28T08:41:43Z</time>
      </trkpt>
      <trkpt lat="37.6642690" lon="-4.0571880">
        <ele>549.6</ele>
        <time>2021-12-28T08:41:44Z</time>
      </trkpt>
      <trkpt lat="37.6642560" lon="-4.0572320">
        <ele>549.4</ele>
        <time>2021-12-28T08:41:45Z</time>
      </trkpt>
      <trkpt lat="37.6642460" lon="-4.0572780">
        <ele>549.2</ele>
        <time>2021-12-28T08:41:46Z</time>
      </trkpt>
      <trkpt lat="37.6642340" lon="-4.0573270">
        <ele>549.2</ele>
        <time>2021-12-28T08:41:47Z</time>
      </trkpt>
      <trkpt lat="37.6642240" lon="-4.0573750">
        <ele>549.0</ele>
        <time>2021-12-28T08:41:48Z</time>
      </trkpt>
      <trkpt lat="37.6642110" lon="-4.0574250">
        <ele>548.8</ele>
        <time>2021-12-28T08:41:49Z</time>
      </trkpt>
      <trkpt lat="37.6641950" lon="-4.0574750">
        <ele>548.6</ele>
        <time>2021-12-28T08:41:50Z</time>
      </trkpt>
      <trkpt lat="37.6641860" lon="-4.0575260">
        <ele>548.4</ele>
        <time>2021-12-28T08:41:51Z</time>
      </trkpt>
      <trkpt lat="37.6641700" lon="-4.0575770">
        <ele>548.2</ele>
        <time>2021-12-28T08:41:52Z</time>
      </trkpt>
      <trkpt lat="37.6641570" lon="-4.0576280">
        <ele>548.2</ele>
        <time>2021-12-28T08:41:53Z</time>
      </trkpt>
      <trkpt lat="37.6641440" lon="-4.0576780">
        <ele>548.0</ele>
        <time>2021-12-28T08:41:54Z</time>
      </trkpt>
      <trkpt lat="37.6641310" lon="-4.0577300">
        <ele>548.0</ele>
        <time>2021-12-28T08:41:55Z</time>
      </trkpt>
      <trkpt lat="37.6641180" lon="-4.0577820">
        <ele>547.8</ele>
        <time>2021-12-28T08:41:56Z</time>
      </trkpt>
      <trkpt lat="37.6641090" lon="-4.0578320">
        <ele>547.8</ele>
        <time>2021-12-28T08:41:57Z</time>
      </trkpt>
      <trkpt lat="37.6640960" lon="-4.0578830">
        <ele>547.8</ele>
        <time>2021-12-28T08:41:58Z</time>
      </trkpt>
      <trkpt lat="37.6640800" lon="-4.0579330">
        <ele>547.6</ele>
        <time>2021-12-28T08:41:59Z</time>
      </trkpt>
      <trkpt lat="37.6640670" lon="-4.0579870">
        <ele>547.4</ele>
        <time>2021-12-28T08:42:00Z</time>
      </trkpt>
      <trkpt lat="37.6640510" lon="-4.0580380">
        <ele>547.4</ele>
        <time>2021-12-28T08:42:01Z</time>
      </trkpt>
      <trkpt lat="37.6640350" lon="-4.0580870">
        <ele>547.2</ele>
        <time>2021-12-28T08:42:02Z</time>
      </trkpt>
      <trkpt lat="37.6640190" lon="-4.0581330">
        <ele>547.0</ele>
        <time>2021-12-28T08:42:03Z</time>
      </trkpt>
      <trkpt lat="37.6640100" lon="-4.0581800">
        <ele>546.8</ele>
        <time>2021-12-28T08:42:04Z</time>
      </trkpt>
      <trkpt lat="37.6640000" lon="-4.0582280">
        <ele>546.6</ele>
        <time>2021-12-28T08:42:05Z</time>
      </trkpt>
      <trkpt lat="37.6639900" lon="-4.0582770">
        <ele>546.6</ele>
        <time>2021-12-28T08:42:06Z</time>
      </trkpt>
      <trkpt lat="37.6639780" lon="-4.0583250">
        <ele>546.4</ele>
        <time>2021-12-28T08:42:07Z</time>
      </trkpt>
      <trkpt lat="37.6639650" lon="-4.0583750">
        <ele>546.4</ele>
        <time>2021-12-28T08:42:08Z</time>
      </trkpt>
      <trkpt lat="37.6639520" lon="-4.0584220">
        <ele>546.4</ele>
        <time>2021-12-28T08:42:09Z</time>
      </trkpt>
      <trkpt lat="37.6639390" lon="-4.0584680">
        <ele>546.4</ele>
        <time>2021-12-28T08:42:10Z</time>
      </trkpt>
      <trkpt lat="37.6639300" lon="-4.0585180">
        <ele>546.2</ele>
        <time>2021-12-28T08:42:11Z</time>
      </trkpt>
      <trkpt lat="37.6639200" lon="-4.0585650">
        <ele>546.2</ele>
        <time>2021-12-28T08:42:12Z</time>
      </trkpt>
      <trkpt lat="37.6639100" lon="-4.0586130">
        <ele>546.2</ele>
        <time>2021-12-28T08:42:13Z</time>
      </trkpt>
      <trkpt lat="37.6638940" lon="-4.0586570">
        <ele>546.0</ele>
        <time>2021-12-28T08:42:14Z</time>
      </trkpt>
      <trkpt lat="37.6638850" lon="-4.0587020">
        <ele>545.8</ele>
        <time>2021-12-28T08:42:15Z</time>
      </trkpt>
      <trkpt lat="37.6638690" lon="-4.0587470">
        <ele>545.8</ele>
        <time>2021-12-28T08:42:16Z</time>
      </trkpt>
      <trkpt lat="37.6638560" lon="-4.0587940">
        <ele>545.6</ele>
        <time>2021-12-28T08:42:17Z</time>
      </trkpt>
      <trkpt lat="37.6638400" lon="-4.0588430">
        <ele>545.6</ele>
        <time>2021-12-28T08:42:18Z</time>
      </trkpt>
      <trkpt lat="37.6638300" lon="-4.0588930">
        <ele>545.4</ele>
        <time>2021-12-28T08:42:19Z</time>
      </trkpt>
      <trkpt lat="37.6638180" lon="-4.0589450">
        <ele>545.4</ele>
        <time>2021-12-28T08:42:20Z</time>
      </trkpt>
      <trkpt lat="37.6638020" lon="-4.0589970">
        <ele>545.2</ele>
        <time>2021-12-28T08:42:21Z</time>
      </trkpt>
      <trkpt lat="37.6637920" lon="-4.0590480">
        <ele>545.2</ele>
        <time>2021-12-28T08:42:22Z</time>
      </trkpt>
      <trkpt lat="37.6637790" lon="-4.0591000">
        <ele>545.0</ele>
        <time>2021-12-28T08:42:23Z</time>
      </trkpt>
      <trkpt lat="37.6637660" lon="-4.0591520">
        <ele>544.8</ele>
        <time>2021-12-28T08:42:24Z</time>
      </trkpt>
      <trkpt lat="37.6637540" lon="-4.0592000">
        <ele>544.8</ele>
        <time>2021-12-28T08:42:25Z</time>
      </trkpt>
      <trkpt lat="37.6637380" lon="-4.0592500">
        <ele>544.6</ele>
        <time>2021-12-28T08:42:26Z</time>
      </trkpt>
      <trkpt lat="37.6637280" lon="-4.0593000">
        <ele>544.4</ele>
        <time>2021-12-28T08:42:27Z</time>
      </trkpt>
      <trkpt lat="37.6637120" lon="-4.0593480">
        <ele>544.2</ele>
        <time>2021-12-28T08:42:28Z</time>
      </trkpt>
      <trkpt lat="37.6636990" lon="-4.0593980">
        <ele>544.2</ele>
        <time>2021-12-28T08:42:29Z</time>
      </trkpt>
      <trkpt lat="37.6636800" lon="-4.0594450">
        <ele>544.0</ele>
        <time>2021-12-28T08:42:30Z</time>
      </trkpt>
      <trkpt lat="37.6636610" lon="-4.0594940">
        <ele>543.8</ele>
        <time>2021-12-28T08:42:31Z</time>
      </trkpt>
      <trkpt lat="37.6636480" lon="-4.0595430">
        <ele>543.6</ele>
        <time>2021-12-28T08:42:32Z</time>
      </trkpt>
      <trkpt lat="37.6636350" lon="-4.0595920">
        <ele>543.4</ele>
        <time>2021-12-28T08:42:33Z</time>
      </trkpt>
      <trkpt lat="37.6636190" lon="-4.0596400">
        <ele>543.4</ele>
        <time>2021-12-28T08:42:34Z</time>
      </trkpt>
      <trkpt lat="37.6636030" lon="-4.0596900">
        <ele>543.2</ele>
        <time>2021-12-28T08:42:35Z</time>
      </trkpt>
      <trkpt lat="37.6635940" lon="-4.0597380">
        <ele>543.0</ele>
        <time>2021-12-28T08:42:36Z</time>
      </trkpt>
      <trkpt lat="37.6635780" lon="-4.0597850">
        <ele>542.8</ele>
        <time>2021-12-28T08:42:37Z</time>
      </trkpt>
      <trkpt lat="37.6635620" lon="-4.0598320">
        <ele>542.6</ele>
        <time>2021-12-28T08:42:38Z</time>
      </trkpt>
      <trkpt lat="37.6635420" lon="-4.0598780">
        <ele>542.6</ele>
        <time>2021-12-28T08:42:39Z</time>
      </trkpt>
      <trkpt lat="37.6635300" lon="-4.0599230">
        <ele>542.4</ele>
        <time>2021-12-28T08:42:40Z</time>
      </trkpt>
      <trkpt lat="37.6635170" lon="-4.0599650">
        <ele>542.2</ele>
        <time>2021-12-28T08:42:41Z</time>
      </trkpt>
      <trkpt lat="37.6635010" lon="-4.0600080">
        <ele>542.0</ele>
        <time>2021-12-28T08:42:42Z</time>
      </trkpt>
      <trkpt lat="37.6634820" lon="-4.0600530">
        <ele>542.0</ele>
        <time>2021-12-28T08:42:43Z</time>
      </trkpt>
      <trkpt lat="37.6634690" lon="-4.0600970">
        <ele>541.8</ele>
        <time>2021-12-28T08:42:44Z</time>
      </trkpt>
      <trkpt lat="37.6634500" lon="-4.0601400">
        <ele>541.6</ele>
        <time>2021-12-28T08:42:45Z</time>
      </trkpt>
      <trkpt lat="37.6634300" lon="-4.0601850">
        <ele>541.6</ele>
        <time>2021-12-28T08:42:46Z</time>
      </trkpt>
      <trkpt lat="37.6634110" lon="-4.0602280">
        <ele>541.4</ele>
        <time>2021-12-28T08:42:47Z</time>
      </trkpt>
      <trkpt lat="37.6633920" lon="-4.0602730">
        <ele>541.2</ele>
        <time>2021-12-28T08:42:48Z</time>
      </trkpt>
      <trkpt lat="37.6633700" lon="-4.0603200">
        <ele>541.0</ele>
        <time>2021-12-28T08:42:49Z</time>
      </trkpt>
      <trkpt lat="37.6633500" lon="-4.0603650">
        <ele>540.8</ele>
        <time>2021-12-28T08:42:50Z</time>
      </trkpt>
      <trkpt lat="37.6633250" lon="-4.0604100">
        <ele>540.8</ele>
        <time>2021-12-28T08:42:51Z</time>
      </trkpt>
      <trkpt lat="37.6633060" lon="-4.0604520">
        <ele>540.6</ele>
        <time>2021-12-28T08:42:52Z</time>
      </trkpt>
      <trkpt lat="37.6632930" lon="-4.0604920">
        <ele>540.4</ele>
        <time>2021-12-28T08:42:53Z</time>
      </trkpt>
      <trkpt lat="37.6632700" lon="-4.0605350">
        <ele>540.4</ele>
        <time>2021-12-28T08:42:54Z</time>
      </trkpt>
      <trkpt lat="37.6632510" lon="-4.0605760">
        <ele>540.2</ele>
        <time>2021-12-28T08:42:55Z</time>
      </trkpt>
      <trkpt lat="37.6632260" lon="-4.0606180">
        <ele>540.2</ele>
        <time>2021-12-28T08:42:56Z</time>
      </trkpt>
      <trkpt lat="37.6632000" lon="-4.0606600">
        <ele>540.2</ele>
        <time>2021-12-28T08:42:57Z</time>
      </trkpt>
      <trkpt lat="37.6631780" lon="-4.0607020">
        <ele>540.2</ele>
        <time>2021-12-28T08:42:58Z</time>
      </trkpt>
      <trkpt lat="37.6631550" lon="-4.0607420">
        <ele>540.2</ele>
        <time>2021-12-28T08:42:59Z</time>
      </trkpt>
      <trkpt lat="37.6631330" lon="-4.0607830">
        <ele>540.2</ele>
        <time>2021-12-28T08:43:00Z</time>
      </trkpt>
      <trkpt lat="37.6631100" lon="-4.0608250">
        <ele>540.2</ele>
        <time>2021-12-28T08:43:01Z</time>
      </trkpt>
      <trkpt lat="37.6630910" lon="-4.0608620">
        <ele>540.0</ele>
        <time>2021-12-28T08:43:02Z</time>
      </trkpt>
      <trkpt lat="37.6630660" lon="-4.0608980">
        <ele>540.0</ele>
        <time>2021-12-28T08:43:03Z</time>
      </trkpt>
      <trkpt lat="37.6630460" lon="-4.0609320">
        <ele>540.0</ele>
        <time>2021-12-28T08:43:04Z</time>
      </trkpt>
      <trkpt lat="37.6630240" lon="-4.0609630">
        <ele>539.8</ele>
        <time>2021-12-28T08:43:05Z</time>
      </trkpt>
      <trkpt lat="37.6630020" lon="-4.0609980">
        <ele>539.8</ele>
        <time>2021-12-28T08:43:06Z</time>
      </trkpt>
      <trkpt lat="37.6629790" lon="-4.0610320">
        <ele>539.6</ele>
        <time>2021-12-28T08:43:07Z</time>
      </trkpt>
      <trkpt lat="37.6629570" lon="-4.0610670">
        <ele>539.6</ele>
        <time>2021-12-28T08:43:08Z</time>
      </trkpt>
      <trkpt lat="37.6629280" lon="-4.0611020">
        <ele>539.6</ele>
        <time>2021-12-28T08:43:09Z</time>
      </trkpt>
      <trkpt lat="37.6629060" lon="-4.0611370">
        <ele>539.4</ele>
        <time>2021-12-28T08:43:10Z</time>
      </trkpt>
      <trkpt lat="37.6628770" lon="-4.0611770">
        <ele>539.4</ele>
        <time>2021-12-28T08:43:11Z</time>
      </trkpt>
      <trkpt lat="37.6628450" lon="-4.0612180">
        <ele>539.4</ele>
        <time>2021-12-28T08:43:12Z</time>
      </trkpt>
      <trkpt lat="37.6628160" lon="-4.0612580">
        <ele>539.2</ele>
        <time>2021-12-28T08:43:13Z</time>
      </trkpt>
      <trkpt lat="37.6627840" lon="-4.0612960">
        <ele>539.2</ele>
        <time>2021-12-28T08:43:14Z</time>
      </trkpt>
      <trkpt lat="37.6627490" lon="-4.0613360">
        <ele>539.2</ele>
        <time>2021-12-28T08:43:15Z</time>
      </trkpt>
      <trkpt lat="37.6627230" lon="-4.0613750">
        <ele>539.0</ele>
        <time>2021-12-28T08:43:16Z</time>
      </trkpt>
      <trkpt lat="37.6626940" lon="-4.0614130">
        <ele>539.0</ele>
        <time>2021-12-28T08:43:17Z</time>
      </trkpt>
      <trkpt lat="37.6626620" lon="-4.0614470">
        <ele>538.8</ele>
        <time>2021-12-28T08:43:18Z</time>
      </trkpt>
      <trkpt lat="37.6626270" lon="-4.0614800">
        <ele>538.6</ele>
        <time>2021-12-28T08:43:19Z</time>
      </trkpt>
      <trkpt lat="37.6625950" lon="-4.0615140">
        <ele>538.6</ele>
        <time>2021-12-28T08:43:20Z</time>
      </trkpt>
      <trkpt lat="37.6625630" lon="-4.0615450">
        <ele>538.4</ele>
        <time>2021-12-28T08:43:21Z</time>
      </trkpt>
      <trkpt lat="37.6625280" lon="-4.0615780">
        <ele>538.2</ele>
        <time>2021-12-28T08:43:22Z</time>
      </trkpt>
      <trkpt lat="37.6624990" lon="-4.0616100">
        <ele>538.2</ele>
        <time>2021-12-28T08:43:23Z</time>
      </trkpt>
      <trkpt lat="37.6624670" lon="-4.0616420">
        <ele>538.0</ele>
        <time>2021-12-28T08:43:24Z</time>
      </trkpt>
      <trkpt lat="37.6624350" lon="-4.0616750">
        <ele>537.8</ele>
        <time>2021-12-28T08:43:25Z</time>
      </trkpt>
      <trkpt lat="37.6623970" lon="-4.0617060">
        <ele>537.8</ele>
        <time>2021-12-28T08:43:26Z</time>
      </trkpt>
      <trkpt lat="37.6623580" lon="-4.0617360">
        <ele>537.6</ele>
        <time>2021-12-28T08:43:27Z</time>
      </trkpt>
      <trkpt lat="37.6623230" lon="-4.0617680">
        <ele>537.6</ele>
        <time>2021-12-28T08:43:28Z</time>
      </trkpt>
      <trkpt lat="37.6622850" lon="-4.0618000">
        <ele>537.6</ele>
        <time>2021-12-28T08:43:29Z</time>
      </trkpt>
      <trkpt lat="37.6622500" lon="-4.0618320">
        <ele>537.6</ele>
        <time>2021-12-28T08:43:30Z</time>
      </trkpt>
      <trkpt lat="37.6622180" lon="-4.0618580">
        <ele>537.6</ele>
        <time>2021-12-28T08:43:31Z</time>
      </trkpt>
      <trkpt lat="37.6621790" lon="-4.0618840">
        <ele>537.6</ele>
        <time>2021-12-28T08:43:32Z</time>
      </trkpt>
      <trkpt lat="37.6621410" lon="-4.0619050">
        <ele>537.6</ele>
        <time>2021-12-28T08:43:33Z</time>
      </trkpt>
      <trkpt lat="37.6621060" lon="-4.0619270">
        <ele>537.4</ele>
        <time>2021-12-28T08:43:34Z</time>
      </trkpt>
      <trkpt lat="37.6620700" lon="-4.0619520">
        <ele>537.4</ele>
        <time>2021-12-28T08:43:35Z</time>
      </trkpt>
      <trkpt lat="37.6620320" lon="-4.0619800">
        <ele>537.4</ele>
        <time>2021-12-28T08:43:36Z</time>
      </trkpt>
      <trkpt lat="37.6620000" lon="-4.0620060">
        <ele>537.4</ele>
        <time>2021-12-28T08:43:37Z</time>
      </trkpt>
      <trkpt lat="37.6619620" lon="-4.0620350">
        <ele>537.4</ele>
        <time>2021-12-28T08:43:38Z</time>
      </trkpt>
      <trkpt lat="37.6619230" lon="-4.0620630">
        <ele>537.4</ele>
        <time>2021-12-28T08:43:39Z</time>
      </trkpt>
      <trkpt lat="37.6618820" lon="-4.0620930">
        <ele>537.4</ele>
        <time>2021-12-28T08:43:40Z</time>
      </trkpt>
      <trkpt lat="37.6618400" lon="-4.0621220">
        <ele>537.4</ele>
        <time>2021-12-28T08:43:41Z</time>
      </trkpt>
      <trkpt lat="37.6617950" lon="-4.0621520">
        <ele>537.4</ele>
        <time>2021-12-28T08:43:42Z</time>
      </trkpt>
      <trkpt lat="37.6617540" lon="-4.0621800">
        <ele>537.2</ele>
        <time>2021-12-28T08:43:43Z</time>
      </trkpt>
      <trkpt lat="37.6617090" lon="-4.0622050">
        <ele>537.2</ele>
        <time>2021-12-28T08:43:44Z</time>
      </trkpt>
      <trkpt lat="37.6616670" lon="-4.0622280">
        <ele>537.0</ele>
        <time>2021-12-28T08:43:45Z</time>
      </trkpt>
      <trkpt lat="37.6616220" lon="-4.0622500">
        <ele>537.0</ele>
        <time>2021-12-28T08:43:46Z</time>
      </trkpt>
      <trkpt lat="37.6615740" lon="-4.0622720">
        <ele>537.0</ele>
        <time>2021-12-28T08:43:47Z</time>
      </trkpt>
      <trkpt lat="37.6615330" lon="-4.0622880">
        <ele>536.8</ele>
        <time>2021-12-28T08:43:48Z</time>
      </trkpt>
      <trkpt lat="37.6614850" lon="-4.0623050">
        <ele>536.8</ele>
        <time>2021-12-28T08:43:49Z</time>
      </trkpt>
      <trkpt lat="37.6614430" lon="-4.0623200">
        <ele>536.6</ele>
        <time>2021-12-28T08:43:50Z</time>
      </trkpt>
      <trkpt lat="37.6613950" lon="-4.0623380">
        <ele>536.4</ele>
        <time>2021-12-28T08:43:51Z</time>
      </trkpt>
      <trkpt lat="37.6613500" lon="-4.0623530">
        <ele>536.4</ele>
        <time>2021-12-28T08:43:52Z</time>
      </trkpt>
      <trkpt lat="37.6613090" lon="-4.0623720">
        <ele>536.2</ele>
        <time>2021-12-28T08:43:53Z</time>
      </trkpt>
      <trkpt lat="37.6612640" lon="-4.0623860">
        <ele>536.2</ele>
        <time>2021-12-28T08:43:54Z</time>
      </trkpt>
      <trkpt lat="37.6612160" lon="-4.0624020">
        <ele>536.0</ele>
        <time>2021-12-28T08:43:55Z</time>
      </trkpt>
      <trkpt lat="37.6611740" lon="-4.0624160">
        <ele>536.0</ele>
        <time>2021-12-28T08:43:56Z</time>
      </trkpt>
      <trkpt lat="37.6611300" lon="-4.0624300">
        <ele>535.8</ele>
        <time>2021-12-28T08:43:57Z</time>
      </trkpt>
      <trkpt lat="37.6610850" lon="-4.0624450">
        <ele>535.8</ele>
        <time>2021-12-28T08:43:58Z</time>
      </trkpt>
      <trkpt lat="37.6610370" lon="-4.0624580">
        <ele>535.8</ele>
        <time>2021-12-28T08:43:59Z</time>
      </trkpt>
      <trkpt lat="37.6609920" lon="-4.0624700">
        <ele>535.8</ele>
        <time>2021-12-28T08:44:00Z</time>
      </trkpt>
      <trkpt lat="37.6609470" lon="-4.0624820">
        <ele>535.8</ele>
        <time>2021-12-28T08:44:01Z</time>
      </trkpt>
      <trkpt lat="37.6608990" lon="-4.0624930">
        <ele>535.6</ele>
        <time>2021-12-28T08:44:02Z</time>
      </trkpt>
      <trkpt lat="37.6608580" lon="-4.0625030">
        <ele>535.6</ele>
        <time>2021-12-28T08:44:03Z</time>
      </trkpt>
      <trkpt lat="37.6608130" lon="-4.0625130">
        <ele>535.6</ele>
        <time>2021-12-28T08:44:04Z</time>
      </trkpt>
      <trkpt lat="37.6607680" lon="-4.0625220">
        <ele>535.6</ele>
        <time>2021-12-28T08:44:05Z</time>
      </trkpt>
      <trkpt lat="37.6607200" lon="-4.0625280">
        <ele>535.6</ele>
        <time>2021-12-28T08:44:06Z</time>
      </trkpt>
      <trkpt lat="37.6606750" lon="-4.0625350">
        <ele>535.6</ele>
        <time>2021-12-28T08:44:07Z</time>
      </trkpt>
      <trkpt lat="37.6606300" lon="-4.0625430">
        <ele>535.4</ele>
        <time>2021-12-28T08:44:08Z</time>
      </trkpt>
      <trkpt lat="37.6605820" lon="-4.0625500">
        <ele>535.4</ele>
        <time>2021-12-28T08:44:09Z</time>
      </trkpt>
      <trkpt lat="37.6605410" lon="-4.0625570">
        <ele>535.2</ele>
        <time>2021-12-28T08:44:10Z</time>
      </trkpt>
      <trkpt lat="37.6604990" lon="-4.0625620">
        <ele>535.2</ele>
        <time>2021-12-28T08:44:11Z</time>
      </trkpt>
      <trkpt lat="37.6604640" lon="-4.0625670">
        <ele>535.2</ele>
        <time>2021-12-28T08:44:12Z</time>
      </trkpt>
      <trkpt lat="37.6604320" lon="-4.0625700">
        <ele>535.0</ele>
        <time>2021-12-28T08:44:13Z</time>
      </trkpt>
      <trkpt lat="37.6603900" lon="-4.0625720">
        <ele>534.8</ele>
        <time>2021-12-28T08:44:14Z</time>
      </trkpt>
      <trkpt lat="37.6603520" lon="-4.0625750">
        <ele>534.8</ele>
        <time>2021-12-28T08:44:15Z</time>
      </trkpt>
      <trkpt lat="37.6603140" lon="-4.0625770">
        <ele>534.6</ele>
        <time>2021-12-28T08:44:16Z</time>
      </trkpt>
      <trkpt lat="37.6602750" lon="-4.0625770">
        <ele>534.6</ele>
        <time>2021-12-28T08:44:17Z</time>
      </trkpt>
      <trkpt lat="37.6602370" lon="-4.0625770">
        <ele>534.6</ele>
        <time>2021-12-28T08:44:18Z</time>
      </trkpt>
      <trkpt lat="37.6601980" lon="-4.0625770">
        <ele>534.6</ele>
        <time>2021-12-28T08:44:19Z</time>
      </trkpt>
      <trkpt lat="37.6601600" lon="-4.0625770">
        <ele>534.6</ele>
        <time>2021-12-28T08:44:20Z</time>
      </trkpt>
      <trkpt lat="37.6601180" lon="-4.0625750">
        <ele>534.6</ele>
        <time>2021-12-28T08:44:21Z</time>
      </trkpt>
      <trkpt lat="37.6600800" lon="-4.0625740">
        <ele>534.6</ele>
        <time>2021-12-28T08:44:22Z</time>
      </trkpt>
      <trkpt lat="37.6600420" lon="-4.0625720">
        <ele>534.6</ele>
        <time>2021-12-28T08:44:23Z</time>
      </trkpt>
      <trkpt lat="37.6600000" lon="-4.0625700">
        <ele>534.6</ele>
        <time>2021-12-28T08:44:24Z</time>
      </trkpt>
      <trkpt lat="37.6599620" lon="-4.0625670">
        <ele>534.4</ele>
        <time>2021-12-28T08:44:25Z</time>
      </trkpt>
      <trkpt lat="37.6599200" lon="-4.0625620">
        <ele>534.4</ele>
        <time>2021-12-28T08:44:26Z</time>
      </trkpt>
      <trkpt lat="37.6598820" lon="-4.0625550">
        <ele>534.4</ele>
        <time>2021-12-28T08:44:27Z</time>
      </trkpt>
      <trkpt lat="37.6598430" lon="-4.0625480">
        <ele>534.4</ele>
        <time>2021-12-28T08:44:28Z</time>
      </trkpt>
      <trkpt lat="37.6598050" lon="-4.0625430">
        <ele>534.4</ele>
        <time>2021-12-28T08:44:29Z</time>
      </trkpt>
      <trkpt lat="37.6597660" lon="-4.0625400">
        <ele>534.4</ele>
        <time>2021-12-28T08:44:30Z</time>
      </trkpt>
      <trkpt lat="37.6597280" lon="-4.0625350">
        <ele>534.4</ele>
        <time>2021-12-28T08:44:31Z</time>
      </trkpt>
      <trkpt lat="37.6596900" lon="-4.0625300">
        <ele>534.2</ele>
        <time>2021-12-28T08:44:32Z</time>
      </trkpt>
      <trkpt lat="37.6596510" lon="-4.0625230">
        <ele>534.2</ele>
        <time>2021-12-28T08:44:33Z</time>
      </trkpt>
      <trkpt lat="37.6596100" lon="-4.0625150">
        <ele>534.0</ele>
        <time>2021-12-28T08:44:34Z</time>
      </trkpt>
      <trkpt lat="37.6595710" lon="-4.0625100">
        <ele>534.0</ele>
        <time>2021-12-28T08:44:35Z</time>
      </trkpt>
      <trkpt lat="37.6595300" lon="-4.0625050">
        <ele>534.0</ele>
        <time>2021-12-28T08:44:36Z</time>
      </trkpt>
      <trkpt lat="37.6594880" lon="-4.0625000">
        <ele>533.8</ele>
        <time>2021-12-28T08:44:37Z</time>
      </trkpt>
      <trkpt lat="37.6594460" lon="-4.0624930">
        <ele>533.8</ele>
        <time>2021-12-28T08:44:38Z</time>
      </trkpt>
      <trkpt lat="37.6594050" lon="-4.0624870">
        <ele>533.8</ele>
        <time>2021-12-28T08:44:39Z</time>
      </trkpt>
      <trkpt lat="37.6593630" lon="-4.0624820">
        <ele>533.6</ele>
        <time>2021-12-28T08:44:40Z</time>
      </trkpt>
      <trkpt lat="37.6593220" lon="-4.0624780">
        <ele>533.6</ele>
        <time>2021-12-28T08:44:41Z</time>
      </trkpt>
      <trkpt lat="37.6592800" lon="-4.0624730">
        <ele>533.6</ele>
        <time>2021-12-28T08:44:42Z</time>
      </trkpt>
      <trkpt lat="37.6592380" lon="-4.0624650">
        <ele>533.6</ele>
        <time>2021-12-28T08:44:43Z</time>
      </trkpt>
      <trkpt lat="37.6591940" lon="-4.0624580">
        <ele>533.6</ele>
        <time>2021-12-28T08:44:44Z</time>
      </trkpt>
      <trkpt lat="37.6591490" lon="-4.0624520">
        <ele>533.6</ele>
        <time>2021-12-28T08:44:45Z</time>
      </trkpt>
      <trkpt lat="37.6591040" lon="-4.0624430">
        <ele>533.4</ele>
        <time>2021-12-28T08:44:46Z</time>
      </trkpt>
      <trkpt lat="37.6590620" lon="-4.0624350">
        <ele>533.4</ele>
        <time>2021-12-28T08:44:47Z</time>
      </trkpt>
      <trkpt lat="37.6590140" lon="-4.0624280">
        <ele>533.4</ele>
        <time>2021-12-28T08:44:48Z</time>
      </trkpt>
      <trkpt lat="37.6589730" lon="-4.0624230">
        <ele>533.2</ele>
        <time>2021-12-28T08:44:49Z</time>
      </trkpt>
      <trkpt lat="37.6589310" lon="-4.0624180">
        <ele>533.2</ele>
        <time>2021-12-28T08:44:50Z</time>
      </trkpt>
      <trkpt lat="37.6588900" lon="-4.0624120">
        <ele>533.2</ele>
        <time>2021-12-28T08:44:51Z</time>
      </trkpt>
      <trkpt lat="37.6588480" lon="-4.0624060">
        <ele>533.0</ele>
        <time>2021-12-28T08:44:52Z</time>
      </trkpt>
      <trkpt lat="37.6588100" lon="-4.0624060">
        <ele>533.0</ele>
        <time>2021-12-28T08:44:53Z</time>
      </trkpt>
      <trkpt lat="37.6587680" lon="-4.0624030">
        <ele>532.8</ele>
        <time>2021-12-28T08:44:54Z</time>
      </trkpt>
      <trkpt lat="37.6587260" lon="-4.0623980">
        <ele>532.8</ele>
        <time>2021-12-28T08:44:55Z</time>
      </trkpt>
      <trkpt lat="37.6586780" lon="-4.0623930">
        <ele>532.6</ele>
        <time>2021-12-28T08:44:56Z</time>
      </trkpt>
      <trkpt lat="37.6586370" lon="-4.0623860">
        <ele>532.6</ele>
        <time>2021-12-28T08:44:57Z</time>
      </trkpt>
      <trkpt lat="37.6585950" lon="-4.0623800">
        <ele>532.6</ele>
        <time>2021-12-28T08:44:58Z</time>
      </trkpt>
      <trkpt lat="37.6585500" lon="-4.0623720">
        <ele>532.4</ele>
        <time>2021-12-28T08:44:59Z</time>
      </trkpt>
      <trkpt lat="37.6585090" lon="-4.0623650">
        <ele>532.4</ele>
        <time>2021-12-28T08:45:00Z</time>
      </trkpt>
      <trkpt lat="37.6584640" lon="-4.0623600">
        <ele>532.4</ele>
        <time>2021-12-28T08:45:01Z</time>
      </trkpt>
      <trkpt lat="37.6584160" lon="-4.0623550">
        <ele>532.4</ele>
        <time>2021-12-28T08:45:02Z</time>
      </trkpt>
      <trkpt lat="37.6583710" lon="-4.0623460">
        <ele>532.4</ele>
        <time>2021-12-28T08:45:03Z</time>
      </trkpt>
      <trkpt lat="37.6583260" lon="-4.0623420">
        <ele>532.4</ele>
        <time>2021-12-28T08:45:04Z</time>
      </trkpt>
      <trkpt lat="37.6582780" lon="-4.0623350">
        <ele>532.4</ele>
        <time>2021-12-28T08:45:05Z</time>
      </trkpt>
      <trkpt lat="37.6582340" lon="-4.0623260">
        <ele>532.2</ele>
        <time>2021-12-28T08:45:06Z</time>
      </trkpt>
      <trkpt lat="37.6581920" lon="-4.0623200">
        <ele>532.2</ele>
        <time>2021-12-28T08:45:07Z</time>
      </trkpt>
      <trkpt lat="37.6581500" lon="-4.0623140">
        <ele>532.2</ele>
        <time>2021-12-28T08:45:08Z</time>
      </trkpt>
      <trkpt lat="37.6581090" lon="-4.0623080">
        <ele>532.0</ele>
        <time>2021-12-28T08:45:09Z</time>
      </trkpt>
      <trkpt lat="37.6580670" lon="-4.0623000">
        <ele>532.0</ele>
        <time>2021-12-28T08:45:10Z</time>
      </trkpt>
      <trkpt lat="37.6580190" lon="-4.0622920">
        <ele>532.0</ele>
        <time>2021-12-28T08:45:11Z</time>
      </trkpt>
      <trkpt lat="37.6579740" lon="-4.0622840">
        <ele>531.8</ele>
        <time>2021-12-28T08:45:12Z</time>
      </trkpt>
      <trkpt lat="37.6579330" lon="-4.0622750">
        <ele>531.8</ele>
        <time>2021-12-28T08:45:13Z</time>
      </trkpt>
      <trkpt lat="37.6578880" lon="-4.0622700">
        <ele>531.8</ele>
        <time>2021-12-28T08:45:14Z</time>
      </trkpt>
      <trkpt lat="37.6578400" lon="-4.0622650">
        <ele>531.8</ele>
        <time>2021-12-28T08:45:15Z</time>
      </trkpt>
      <trkpt lat="37.6577950" lon="-4.0622580">
        <ele>531.6</ele>
        <time>2021-12-28T08:45:16Z</time>
      </trkpt>
      <trkpt lat="37.6577500" lon="-4.0622540">
        <ele>531.6</ele>
        <time>2021-12-28T08:45:17Z</time>
      </trkpt>
      <trkpt lat="37.6577020" lon="-4.0622450">
        <ele>531.6</ele>
        <time>2021-12-28T08:45:18Z</time>
      </trkpt>
      <trkpt lat="37.6576540" lon="-4.0622380">
        <ele>531.4</ele>
        <time>2021-12-28T08:45:19Z</time>
      </trkpt>
      <trkpt lat="37.6576100" lon="-4.0622300">
        <ele>531.4</ele>
        <time>2021-12-28T08:45:20Z</time>
      </trkpt>
      <trkpt lat="37.6575620" lon="-4.0622250">
        <ele>531.4</ele>
        <time>2021-12-28T08:45:21Z</time>
      </trkpt>
      <trkpt lat="37.6575170" lon="-4.0622180">
        <ele>531.2</ele>
        <time>2021-12-28T08:45:22Z</time>
      </trkpt>
      <trkpt lat="37.6574660" lon="-4.0622120">
        <ele>531.2</ele>
        <time>2021-12-28T08:45:23Z</time>
      </trkpt>
      <trkpt lat="37.6574210" lon="-4.0622040">
        <ele>531.0</ele>
        <time>2021-12-28T08:45:24Z</time>
      </trkpt>
      <trkpt lat="37.6573760" lon="-4.0621970">
        <ele>531.0</ele>
        <time>2021-12-28T08:45:25Z</time>
      </trkpt>
      <trkpt lat="37.6573280" lon="-4.0621880">
        <ele>530.8</ele>
        <time>2021-12-28T08:45:26Z</time>
      </trkpt>
      <trkpt lat="37.6572830" lon="-4.0621800">
        <ele>530.8</ele>
        <time>2021-12-28T08:45:27Z</time>
      </trkpt>
      <trkpt lat="37.6572380" lon="-4.0621770">
        <ele>530.8</ele>
        <time>2021-12-28T08:45:28Z</time>
      </trkpt>
      <trkpt lat="37.6571940" lon="-4.0621700">
        <ele>530.6</ele>
        <time>2021-12-28T08:45:29Z</time>
      </trkpt>
      <trkpt lat="37.6571460" lon="-4.0621650">
        <ele>530.6</ele>
        <time>2021-12-28T08:45:30Z</time>
      </trkpt>
      <trkpt lat="37.6571010" lon="-4.0621620">
        <ele>530.4</ele>
        <time>2021-12-28T08:45:31Z</time>
      </trkpt>
      <trkpt lat="37.6570560" lon="-4.0621570">
        <ele>530.2</ele>
        <time>2021-12-28T08:45:32Z</time>
      </trkpt>
      <trkpt lat="37.6570080" lon="-4.0621500">
        <ele>530.2</ele>
        <time>2021-12-28T08:45:33Z</time>
      </trkpt>
      <trkpt lat="37.6569660" lon="-4.0621450">
        <ele>530.0</ele>
        <time>2021-12-28T08:45:34Z</time>
      </trkpt>
      <trkpt lat="37.6569220" lon="-4.0621420">
        <ele>530.0</ele>
        <time>2021-12-28T08:45:35Z</time>
      </trkpt>
      <trkpt lat="37.6568770" lon="-4.0621350">
        <ele>529.8</ele>
        <time>2021-12-28T08:45:36Z</time>
      </trkpt>
      <trkpt lat="37.6568290" lon="-4.0621280">
        <ele>529.8</ele>
        <time>2021-12-28T08:45:37Z</time>
      </trkpt>
      <trkpt lat="37.6567810" lon="-4.0621220">
        <ele>529.6</ele>
        <time>2021-12-28T08:45:38Z</time>
      </trkpt>
      <trkpt lat="37.6567360" lon="-4.0621130">
        <ele>529.6</ele>
        <time>2021-12-28T08:45:39Z</time>
      </trkpt>
      <trkpt lat="37.6566880" lon="-4.0621070">
        <ele>529.4</ele>
        <time>2021-12-28T08:45:40Z</time>
      </trkpt>
      <trkpt lat="37.6566430" lon="-4.0621020">
        <ele>529.4</ele>
        <time>2021-12-28T08:45:41Z</time>
      </trkpt>
      <trkpt lat="37.6565980" lon="-4.0620960">
        <ele>529.2</ele>
        <time>2021-12-28T08:45:42Z</time>
      </trkpt>
      <trkpt lat="37.6565500" lon="-4.0620900">
        <ele>529.2</ele>
        <time>2021-12-28T08:45:43Z</time>
      </trkpt>
      <trkpt lat="37.6565020" lon="-4.0620830">
        <ele>529.2</ele>
        <time>2021-12-28T08:45:44Z</time>
      </trkpt>
      <trkpt lat="37.6564510" lon="-4.0620750">
        <ele>529.2</ele>
        <time>2021-12-28T08:45:45Z</time>
      </trkpt>
      <trkpt lat="37.6564060" lon="-4.0620650">
        <ele>529.2</ele>
        <time>2021-12-28T08:45:46Z</time>
      </trkpt>
      <trkpt lat="37.6563580" lon="-4.0620550">
        <ele>529.0</ele>
        <time>2021-12-28T08:45:47Z</time>
      </trkpt>
      <trkpt lat="37.6563070" lon="-4.0620460">
        <ele>529.0</ele>
        <time>2021-12-28T08:45:48Z</time>
      </trkpt>
      <trkpt lat="37.6562620" lon="-4.0620420">
        <ele>529.0</ele>
        <time>2021-12-28T08:45:49Z</time>
      </trkpt>
      <trkpt lat="37.6562140" lon="-4.0620360">
        <ele>529.0</ele>
        <time>2021-12-28T08:45:50Z</time>
      </trkpt>
      <trkpt lat="37.6561660" lon="-4.0620320">
        <ele>528.8</ele>
        <time>2021-12-28T08:45:51Z</time>
      </trkpt>
      <trkpt lat="37.6561220" lon="-4.0620260">
        <ele>528.8</ele>
        <time>2021-12-28T08:45:52Z</time>
      </trkpt>
      <trkpt lat="37.6560740" lon="-4.0620200">
        <ele>528.8</ele>
        <time>2021-12-28T08:45:53Z</time>
      </trkpt>
      <trkpt lat="37.6560260" lon="-4.0620120">
        <ele>528.6</ele>
        <time>2021-12-28T08:45:54Z</time>
      </trkpt>
      <trkpt lat="37.6559780" lon="-4.0620050">
        <ele>528.6</ele>
        <time>2021-12-28T08:45:55Z</time>
      </trkpt>
      <trkpt lat="37.6559330" lon="-4.0620000">
        <ele>528.6</ele>
        <time>2021-12-28T08:45:56Z</time>
      </trkpt>
      <trkpt lat="37.6558880" lon="-4.0619950">
        <ele>528.4</ele>
        <time>2021-12-28T08:45:57Z</time>
      </trkpt>
      <trkpt lat="37.6558430" lon="-4.0619930">
        <ele>528.4</ele>
        <time>2021-12-28T08:45:58Z</time>
      </trkpt>
      <trkpt lat="37.6557980" lon="-4.0619860">
        <ele>528.4</ele>
        <time>2021-12-28T08:45:59Z</time>
      </trkpt>
      <trkpt lat="37.6557540" lon="-4.0619780">
        <ele>528.2</ele>
        <time>2021-12-28T08:46:00Z</time>
      </trkpt>
      <trkpt lat="37.6557060" lon="-4.0619700">
        <ele>528.2</ele>
        <time>2021-12-28T08:46:01Z</time>
      </trkpt>
      <trkpt lat="37.6556540" lon="-4.0619650">
        <ele>528.2</ele>
        <time>2021-12-28T08:46:02Z</time>
      </trkpt>
      <trkpt lat="37.6556100" lon="-4.0619600">
        <ele>528.0</ele>
        <time>2021-12-28T08:46:03Z</time>
      </trkpt>
      <trkpt lat="37.6555650" lon="-4.0619550">
        <ele>528.0</ele>
        <time>2021-12-28T08:46:04Z</time>
      </trkpt>
      <trkpt lat="37.6555140" lon="-4.0619520">
        <ele>528.0</ele>
        <time>2021-12-28T08:46:05Z</time>
      </trkpt>
      <trkpt lat="37.6554690" lon="-4.0619440">
        <ele>527.8</ele>
        <time>2021-12-28T08:46:06Z</time>
      </trkpt>
      <trkpt lat="37.6554180" lon="-4.0619350">
        <ele>527.8</ele>
        <time>2021-12-28T08:46:07Z</time>
      </trkpt>
      <trkpt lat="37.6553700" lon="-4.0619270">
        <ele>527.8</ele>
        <time>2021-12-28T08:46:08Z</time>
      </trkpt>
      <trkpt lat="37.6553220" lon="-4.0619180">
        <ele>527.6</ele>
        <time>2021-12-28T08:46:09Z</time>
      </trkpt>
      <trkpt lat="37.6552740" lon="-4.0619120">
        <ele>527.6</ele>
        <time>2021-12-28T08:46:10Z</time>
      </trkpt>
      <trkpt lat="37.6552220" lon="-4.0619050">
        <ele>527.4</ele>
        <time>2021-12-28T08:46:11Z</time>
      </trkpt>
      <trkpt lat="37.6551740" lon="-4.0618970">
        <ele>527.4</ele>
        <time>2021-12-28T08:46:12Z</time>
      </trkpt>
      <trkpt lat="37.6551230" lon="-4.0618880">
        <ele>527.2</ele>
        <time>2021-12-28T08:46:13Z</time>
      </trkpt>
      <trkpt lat="37.6550750" lon="-4.0618800">
        <ele>527.2</ele>
        <time>2021-12-28T08:46:14Z</time>
      </trkpt>
      <trkpt lat="37.6550300" lon="-4.0618740">
        <ele>527.0</ele>
        <time>2021-12-28T08:46:15Z</time>
      </trkpt>
      <trkpt lat="37.6549790" lon="-4.0618670">
        <ele>526.8</ele>
        <time>2021-12-28T08:46:16Z</time>
      </trkpt>
      <trkpt lat="37.6549310" lon="-4.0618620">
        <ele>526.8</ele>
        <time>2021-12-28T08:46:17Z</time>
      </trkpt>
      <trkpt lat="37.6548800" lon="-4.0618570">
        <ele>526.6</ele>
        <time>2021-12-28T08:46:18Z</time>
      </trkpt>
      <trkpt lat="37.6548320" lon="-4.0618500">
        <ele>526.6</ele>
        <time>2021-12-28T08:46:19Z</time>
      </trkpt>
      <trkpt lat="37.6547810" lon="-4.0618450">
        <ele>526.4</ele>
        <time>2021-12-28T08:46:20Z</time>
      </trkpt>
      <trkpt lat="37.6547330" lon="-4.0618400">
        <ele>526.2</ele>
        <time>2021-12-28T08:46:21Z</time>
      </trkpt>
      <trkpt lat="37.6546820" lon="-4.0618350">
        <ele>526.2</ele>
        <time>2021-12-28T08:46:22Z</time>
      </trkpt>
      <trkpt lat="37.6546340" lon="-4.0618300">
        <ele>526.0</ele>
        <time>2021-12-28T08:46:23Z</time>
      </trkpt>
      <trkpt lat="37.6545730" lon="-4.0618250">
        <ele>525.8</ele>
        <time>2021-12-28T08:46:24Z</time>
      </trkpt>
      <trkpt lat="37.6545280" lon="-4.0618180">
        <ele>525.8</ele>
        <time>2021-12-28T08:46:25Z</time>
      </trkpt>
      <trkpt lat="37.6544800" lon="-4.0618120">
        <ele>525.6</ele>
        <time>2021-12-28T08:46:26Z</time>
      </trkpt>
      <trkpt lat="37.6544350" lon="-4.0618030">
        <ele>525.6</ele>
        <time>2021-12-28T08:46:27Z</time>
      </trkpt>
      <trkpt lat="37.6543840" lon="-4.0617970">
        <ele>525.6</ele>
        <time>2021-12-28T08:46:28Z</time>
      </trkpt>
      <trkpt lat="37.6543360" lon="-4.0617900">
        <ele>525.4</ele>
        <time>2021-12-28T08:46:29Z</time>
      </trkpt>
      <trkpt lat="37.6542880" lon="-4.0617820">
        <ele>525.4</ele>
        <time>2021-12-28T08:46:30Z</time>
      </trkpt>
      <trkpt lat="37.6542430" lon="-4.0617770">
        <ele>525.4</ele>
        <time>2021-12-28T08:46:31Z</time>
      </trkpt>
      <trkpt lat="37.6541890" lon="-4.0617700">
        <ele>525.4</ele>
        <time>2021-12-28T08:46:32Z</time>
      </trkpt>
      <trkpt lat="37.6541500" lon="-4.0617650">
        <ele>525.4</ele>
        <time>2021-12-28T08:46:33Z</time>
      </trkpt>
      <trkpt lat="37.6541060" lon="-4.0617600">
        <ele>525.4</ele>
        <time>2021-12-28T08:46:34Z</time>
      </trkpt>
      <trkpt lat="37.6540610" lon="-4.0617530">
        <ele>525.4</ele>
        <time>2021-12-28T08:46:35Z</time>
      </trkpt>
      <trkpt lat="37.6540160" lon="-4.0617480">
        <ele>525.4</ele>
        <time>2021-12-28T08:46:36Z</time>
      </trkpt>
      <trkpt lat="37.6539710" lon="-4.0617420">
        <ele>525.2</ele>
        <time>2021-12-28T08:46:37Z</time>
      </trkpt>
      <trkpt lat="37.6539260" lon="-4.0617350">
        <ele>525.2</ele>
        <time>2021-12-28T08:46:38Z</time>
      </trkpt>
      <trkpt lat="37.6538820" lon="-4.0617300">
        <ele>525.2</ele>
        <time>2021-12-28T08:46:39Z</time>
      </trkpt>
      <trkpt lat="37.6538300" lon="-4.0617250">
        <ele>525.2</ele>
        <time>2021-12-28T08:46:40Z</time>
      </trkpt>
      <trkpt lat="37.6537860" lon="-4.0617200">
        <ele>525.0</ele>
        <time>2021-12-28T08:46:41Z</time>
      </trkpt>
      <trkpt lat="37.6537410" lon="-4.0617150">
        <ele>525.0</ele>
        <time>2021-12-28T08:46:42Z</time>
      </trkpt>
      <trkpt lat="37.6536990" lon="-4.0617130">
        <ele>524.8</ele>
        <time>2021-12-28T08:46:43Z</time>
      </trkpt>
      <trkpt lat="37.6536580" lon="-4.0617100">
        <ele>524.8</ele>
        <time>2021-12-28T08:46:44Z</time>
      </trkpt>
      <trkpt lat="37.6536100" lon="-4.0617030">
        <ele>524.6</ele>
        <time>2021-12-28T08:46:45Z</time>
      </trkpt>
      <trkpt lat="37.6535650" lon="-4.0616960">
        <ele>524.6</ele>
        <time>2021-12-28T08:46:46Z</time>
      </trkpt>
      <trkpt lat="37.6535200" lon="-4.0616900">
        <ele>524.6</ele>
        <time>2021-12-28T08:46:47Z</time>
      </trkpt>
      <trkpt lat="37.6534720" lon="-4.0616820">
        <ele>524.6</ele>
        <time>2021-12-28T08:46:48Z</time>
      </trkpt>
      <trkpt lat="37.6534240" lon="-4.0616750">
        <ele>524.6</ele>
        <time>2021-12-28T08:46:49Z</time>
      </trkpt>
      <trkpt lat="37.6533760" lon="-4.0616700">
        <ele>524.6</ele>
        <time>2021-12-28T08:46:50Z</time>
      </trkpt>
      <trkpt lat="37.6533310" lon="-4.0616630">
        <ele>524.4</ele>
        <time>2021-12-28T08:46:51Z</time>
      </trkpt>
      <trkpt lat="37.6532830" lon="-4.0616560">
        <ele>524.4</ele>
        <time>2021-12-28T08:46:52Z</time>
      </trkpt>
      <trkpt lat="37.6532320" lon="-4.0616500">
        <ele>524.2</ele>
        <time>2021-12-28T08:46:53Z</time>
      </trkpt>
      <trkpt lat="37.6531840" lon="-4.0616430">
        <ele>524.2</ele>
        <time>2021-12-28T08:46:54Z</time>
      </trkpt>
      <trkpt lat="37.6531330" lon="-4.0616380">
        <ele>524.0</ele>
        <time>2021-12-28T08:46:55Z</time>
      </trkpt>
      <trkpt lat="37.6530780" lon="-4.0616330">
        <ele>524.0</ele>
        <time>2021-12-28T08:46:56Z</time>
      </trkpt>
      <trkpt lat="37.6530340" lon="-4.0616280">
        <ele>523.8</ele>
        <time>2021-12-28T08:46:57Z</time>
      </trkpt>
      <trkpt lat="37.6529860" lon="-4.0616200">
        <ele>523.8</ele>
        <time>2021-12-28T08:46:58Z</time>
      </trkpt>
      <trkpt lat="37.6529340" lon="-4.0616120">
        <ele>523.6</ele>
        <time>2021-12-28T08:46:59Z</time>
      </trkpt>
      <trkpt lat="37.6528860" lon="-4.0616040">
        <ele>523.6</ele>
        <time>2021-12-28T08:47:00Z</time>
      </trkpt>
      <trkpt lat="37.6528350" lon="-4.0615950">
        <ele>523.6</ele>
        <time>2021-12-28T08:47:01Z</time>
      </trkpt>
      <trkpt lat="37.6527840" lon="-4.0615880">
        <ele>523.4</ele>
        <time>2021-12-28T08:47:02Z</time>
      </trkpt>
      <trkpt lat="37.6527360" lon="-4.0615820">
        <ele>523.4</ele>
        <time>2021-12-28T08:47:03Z</time>
      </trkpt>
      <trkpt lat="37.6526880" lon="-4.0615750">
        <ele>523.4</ele>
        <time>2021-12-28T08:47:04Z</time>
      </trkpt>
      <trkpt lat="37.6526370" lon="-4.0615700">
        <ele>523.4</ele>
        <time>2021-12-28T08:47:05Z</time>
      </trkpt>
      <trkpt lat="37.6525890" lon="-4.0615670">
        <ele>523.4</ele>
        <time>2021-12-28T08:47:06Z</time>
      </trkpt>
      <trkpt lat="37.6525380" lon="-4.0615650">
        <ele>523.2</ele>
        <time>2021-12-28T08:47:07Z</time>
      </trkpt>
      <trkpt lat="37.6524930" lon="-4.0615650">
        <ele>523.0</ele>
        <time>2021-12-28T08:47:08Z</time>
      </trkpt>
      <trkpt lat="37.6524480" lon="-4.0615670">
        <ele>523.0</ele>
        <time>2021-12-28T08:47:09Z</time>
      </trkpt>
      <trkpt lat="37.6523970" lon="-4.0615670">
        <ele>522.8</ele>
        <time>2021-12-28T08:47:10Z</time>
      </trkpt>
      <trkpt lat="37.6523550" lon="-4.0615680">
        <ele>522.8</ele>
        <time>2021-12-28T08:47:11Z</time>
      </trkpt>
      <trkpt lat="37.6523100" lon="-4.0615720">
        <ele>522.8</ele>
        <time>2021-12-28T08:47:12Z</time>
      </trkpt>
      <trkpt lat="37.6522620" lon="-4.0615750">
        <ele>522.6</ele>
        <time>2021-12-28T08:47:13Z</time>
      </trkpt>
      <trkpt lat="37.6522210" lon="-4.0615780">
        <ele>522.6</ele>
        <time>2021-12-28T08:47:14Z</time>
      </trkpt>
      <trkpt lat="37.6521820" lon="-4.0615820">
        <ele>522.4</ele>
        <time>2021-12-28T08:47:15Z</time>
      </trkpt>
      <trkpt lat="37.6521540" lon="-4.0615870">
        <ele>522.4</ele>
        <time>2021-12-28T08:47:16Z</time>
      </trkpt>
      <trkpt lat="37.6521310" lon="-4.0615920">
        <ele>522.4</ele>
        <time>2021-12-28T08:47:17Z</time>
      </trkpt>
      <trkpt lat="37.6521310" lon="-4.0615920">
        <ele>522.2</ele>
        <time>2021-12-28T08:47:18Z</time>
      </trkpt>
      <trkpt lat="37.6521090" lon="-4.0615970">
        <ele>522.2</ele>
        <time>2021-12-28T08:47:19Z</time>
      </trkpt>
      <trkpt lat="37.6521090" lon="-4.0615970">
        <ele>522.2</ele>
        <time>2021-12-28T08:47:20Z</time>
      </trkpt>
      <trkpt lat="37.6521090" lon="-4.0615970">
        <ele>522.2</ele>
        <time>2021-12-28T08:47:21Z</time>
      </trkpt>
      <trkpt lat="37.6521090" lon="-4.0615970">
        <ele>522.0</ele>
        <time>2021-12-28T08:47:22Z</time>
      </trkpt>
      <trkpt lat="37.6521090" lon="-4.0615970">
        <ele>522.0</ele>
        <time>2021-12-28T08:47:23Z</time>
      </trkpt>
      <trkpt lat="37.6522020" lon="-4.0616000">
        <ele>522.0</ele>
        <time>2021-12-28T08:47:35Z</time>
      </trkpt>
      <trkpt lat="37.6522210" lon="-4.0615980">
        <ele>521.8</ele>
        <time>2021-12-28T08:47:36Z</time>
      </trkpt>
      <trkpt lat="37.6522430" lon="-4.0615950">
        <ele>521.8</ele>
        <time>2021-12-28T08:47:37Z</time>
      </trkpt>
      <trkpt lat="37.6522690" lon="-4.0615940">
        <ele>521.8</ele>
        <time>2021-12-28T08:47:38Z</time>
      </trkpt>
      <trkpt lat="37.6522940" lon="-4.0615920">
        <ele>521.8</ele>
        <time>2021-12-28T08:47:39Z</time>
      </trkpt>
      <trkpt lat="37.6523230" lon="-4.0615880">
        <ele>521.8</ele>
        <time>2021-12-28T08:47:40Z</time>
      </trkpt>
      <trkpt lat="37.6523520" lon="-4.0615870">
        <ele>521.8</ele>
        <time>2021-12-28T08:47:41Z</time>
      </trkpt>
      <trkpt lat="37.6523810" lon="-4.0615880">
        <ele>521.8</ele>
        <time>2021-12-28T08:47:42Z</time>
      </trkpt>
      <trkpt lat="37.6524100" lon="-4.0615880">
        <ele>521.6</ele>
        <time>2021-12-28T08:47:43Z</time>
      </trkpt>
      <trkpt lat="37.6524350" lon="-4.0615880">
        <ele>521.6</ele>
        <time>2021-12-28T08:47:44Z</time>
      </trkpt>
      <trkpt lat="37.6524580" lon="-4.0615900">
        <ele>521.6</ele>
        <time>2021-12-28T08:47:45Z</time>
      </trkpt>
      <trkpt lat="37.6524770" lon="-4.0615920">
        <ele>521.6</ele>
        <time>2021-12-28T08:47:46Z</time>
      </trkpt>
      <trkpt lat="37.6524770" lon="-4.0615920">
        <ele>521.6</ele>
        <time>2021-12-28T08:47:47Z</time>
      </trkpt>
      <trkpt lat="37.6525090" lon="-4.0615950">
        <ele>521.6</ele>
        <time>2021-12-28T08:47:48Z</time>
      </trkpt>
      <trkpt lat="37.6525090" lon="-4.0615950">
        <ele>521.6</ele>
        <time>2021-12-28T08:47:49Z</time>
      </trkpt>
      <trkpt lat="37.6525090" lon="-4.0615950">
        <ele>521.4</ele>
        <time>2021-12-28T08:47:50Z</time>
      </trkpt>
      <trkpt lat="37.6525090" lon="-4.0615950">
        <ele>521.4</ele>
        <time>2021-12-28T08:47:51Z</time>
      </trkpt>
      <trkpt lat="37.6525090" lon="-4.0615950">
        <ele>521.4</ele>
        <time>2021-12-28T08:47:52Z</time>
      </trkpt>
      <trkpt lat="37.6525090" lon="-4.0615950">
        <ele>521.4</ele>
        <time>2021-12-28T08:47:53Z</time>
      </trkpt>
      <trkpt lat="37.6523970" lon="-4.0615780">
        <ele>521.4</ele>
        <time>2021-12-28T08:53:07Z</time>
      </trkpt>
      <trkpt lat="37.6523580" lon="-4.0615780">
        <ele>521.4</ele>
        <time>2021-12-28T08:53:08Z</time>
      </trkpt>
      <trkpt lat="37.6523140" lon="-4.0615770">
        <ele>521.4</ele>
        <time>2021-12-28T08:53:09Z</time>
      </trkpt>
      <trkpt lat="37.6522720" lon="-4.0615800">
        <ele>521.2</ele>
        <time>2021-12-28T08:53:10Z</time>
      </trkpt>
      <trkpt lat="37.6522240" lon="-4.0615840">
        <ele>521.2</ele>
        <time>2021-12-28T08:53:11Z</time>
      </trkpt>
      <trkpt lat="37.6521820" lon="-4.0615880">
        <ele>521.0</ele>
        <time>2021-12-28T08:53:12Z</time>
      </trkpt>
      <trkpt lat="37.6521410" lon="-4.0615940">
        <ele>521.0</ele>
        <time>2021-12-28T08:53:13Z</time>
      </trkpt>
      <trkpt lat="37.6521020" lon="-4.0615970">
        <ele>520.8</ele>
        <time>2021-12-28T08:53:14Z</time>
      </trkpt>
      <trkpt lat="37.6520610" lon="-4.0616040">
        <ele>520.8</ele>
        <time>2021-12-28T08:53:15Z</time>
      </trkpt>
      <trkpt lat="37.6520220" lon="-4.0616080">
        <ele>520.8</ele>
        <time>2021-12-28T08:53:16Z</time>
      </trkpt>
      <trkpt lat="37.6519810" lon="-4.0616150">
        <ele>520.8</ele>
        <time>2021-12-28T08:53:17Z</time>
      </trkpt>
      <trkpt lat="37.6519390" lon="-4.0616240">
        <ele>520.6</ele>
        <time>2021-12-28T08:53:18Z</time>
      </trkpt>
      <trkpt lat="37.6518940" lon="-4.0616320">
        <ele>520.6</ele>
        <time>2021-12-28T08:53:19Z</time>
      </trkpt>
      <trkpt lat="37.6518460" lon="-4.0616400">
        <ele>520.6</ele>
        <time>2021-12-28T08:53:20Z</time>
      </trkpt>
      <trkpt lat="37.6518020" lon="-4.0616520">
        <ele>520.4</ele>
        <time>2021-12-28T08:53:21Z</time>
      </trkpt>
      <trkpt lat="37.6517570" lon="-4.0616630">
        <ele>520.4</ele>
        <time>2021-12-28T08:53:22Z</time>
      </trkpt>
      <trkpt lat="37.6517060" lon="-4.0616730">
        <ele>520.4</ele>
        <time>2021-12-28T08:53:23Z</time>
      </trkpt>
      <trkpt lat="37.6516640" lon="-4.0616850">
        <ele>520.2</ele>
        <time>2021-12-28T08:53:24Z</time>
      </trkpt>
      <trkpt lat="37.6516160" lon="-4.0616980">
        <ele>520.2</ele>
        <time>2021-12-28T08:53:25Z</time>
      </trkpt>
      <trkpt lat="37.6515740" lon="-4.0617130">
        <ele>520.2</ele>
        <time>2021-12-28T08:53:26Z</time>
      </trkpt>
      <trkpt lat="37.6515330" lon="-4.0617300">
        <ele>520.2</ele>
        <time>2021-12-28T08:53:27Z</time>
      </trkpt>
      <trkpt lat="37.6514850" lon="-4.0617460">
        <ele>520.2</ele>
        <time>2021-12-28T08:53:28Z</time>
      </trkpt>
      <trkpt lat="37.6514430" lon="-4.0617630">
        <ele>520.2</ele>
        <time>2021-12-28T08:53:29Z</time>
      </trkpt>
      <trkpt lat="37.6514020" lon="-4.0617820">
        <ele>520.0</ele>
        <time>2021-12-28T08:53:30Z</time>
      </trkpt>
      <trkpt lat="37.6513570" lon="-4.0618020">
        <ele>520.0</ele>
        <time>2021-12-28T08:53:31Z</time>
      </trkpt>
      <trkpt lat="37.6513090" lon="-4.0618180">
        <ele>520.0</ele>
        <time>2021-12-28T08:53:32Z</time>
      </trkpt>
      <trkpt lat="37.6512640" lon="-4.0618370">
        <ele>520.0</ele>
        <time>2021-12-28T08:53:33Z</time>
      </trkpt>
      <trkpt lat="37.6512190" lon="-4.0618600">
        <ele>520.0</ele>
        <time>2021-12-28T08:53:34Z</time>
      </trkpt>
      <trkpt lat="37.6511710" lon="-4.0618800">
        <ele>520.0</ele>
        <time>2021-12-28T08:53:35Z</time>
      </trkpt>
      <trkpt lat="37.6511260" lon="-4.0619020">
        <ele>520.0</ele>
        <time>2021-12-28T08:53:36Z</time>
      </trkpt>
      <trkpt lat="37.6510850" lon="-4.0619240">
        <ele>519.8</ele>
        <time>2021-12-28T08:53:37Z</time>
      </trkpt>
      <trkpt lat="37.6510400" lon="-4.0619470">
        <ele>519.8</ele>
        <time>2021-12-28T08:53:38Z</time>
      </trkpt>
      <trkpt lat="37.6509920" lon="-4.0619700">
        <ele>519.8</ele>
        <time>2021-12-28T08:53:39Z</time>
      </trkpt>
      <trkpt lat="37.6509500" lon="-4.0619950">
        <ele>519.8</ele>
        <time>2021-12-28T08:53:40Z</time>
      </trkpt>
      <trkpt lat="37.6509090" lon="-4.0620220">
        <ele>519.8</ele>
        <time>2021-12-28T08:53:41Z</time>
      </trkpt>
      <trkpt lat="37.6508670" lon="-4.0620480">
        <ele>519.6</ele>
        <time>2021-12-28T08:53:42Z</time>
      </trkpt>
      <trkpt lat="37.6508220" lon="-4.0620750">
        <ele>519.6</ele>
        <time>2021-12-28T08:53:43Z</time>
      </trkpt>
      <trkpt lat="37.6507840" lon="-4.0621030">
        <ele>519.4</ele>
        <time>2021-12-28T08:53:44Z</time>
      </trkpt>
      <trkpt lat="37.6507420" lon="-4.0621280">
        <ele>519.4</ele>
        <time>2021-12-28T08:53:45Z</time>
      </trkpt>
      <trkpt lat="37.6507040" lon="-4.0621550">
        <ele>519.4</ele>
        <time>2021-12-28T08:53:46Z</time>
      </trkpt>
      <trkpt lat="37.6506620" lon="-4.0621850">
        <ele>519.2</ele>
        <time>2021-12-28T08:53:47Z</time>
      </trkpt>
      <trkpt lat="37.6506240" lon="-4.0622150">
        <ele>519.2</ele>
        <time>2021-12-28T08:53:48Z</time>
      </trkpt>
      <trkpt lat="37.6505860" lon="-4.0622450">
        <ele>519.2</ele>
        <time>2021-12-28T08:53:49Z</time>
      </trkpt>
      <trkpt lat="37.6505440" lon="-4.0622740">
        <ele>519.2</ele>
        <time>2021-12-28T08:53:50Z</time>
      </trkpt>
      <trkpt lat="37.6505060" lon="-4.0623000">
        <ele>519.0</ele>
        <time>2021-12-28T08:53:51Z</time>
      </trkpt>
      <trkpt lat="37.6504670" lon="-4.0623300">
        <ele>519.0</ele>
        <time>2021-12-28T08:53:52Z</time>
      </trkpt>
      <trkpt lat="37.6504320" lon="-4.0623620">
        <ele>518.8</ele>
        <time>2021-12-28T08:53:53Z</time>
      </trkpt>
      <trkpt lat="37.6503940" lon="-4.0623920">
        <ele>518.6</ele>
        <time>2021-12-28T08:53:54Z</time>
      </trkpt>
      <trkpt lat="37.6503620" lon="-4.0624250">
        <ele>518.6</ele>
        <time>2021-12-28T08:53:55Z</time>
      </trkpt>
      <trkpt lat="37.6503230" lon="-4.0624600">
        <ele>518.6</ele>
        <time>2021-12-28T08:53:56Z</time>
      </trkpt>
      <trkpt lat="37.6502880" lon="-4.0624970">
        <ele>518.6</ele>
        <time>2021-12-28T08:53:57Z</time>
      </trkpt>
      <trkpt lat="37.6502500" lon="-4.0625320">
        <ele>518.6</ele>
        <time>2021-12-28T08:53:58Z</time>
      </trkpt>
      <trkpt lat="37.6502110" lon="-4.0625670">
        <ele>518.6</ele>
        <time>2021-12-28T08:53:59Z</time>
      </trkpt>
      <trkpt lat="37.6501730" lon="-4.0626050">
        <ele>518.4</ele>
        <time>2021-12-28T08:54:00Z</time>
      </trkpt>
      <trkpt lat="37.6501340" lon="-4.0626440">
        <ele>518.4</ele>
        <time>2021-12-28T08:54:01Z</time>
      </trkpt>
      <trkpt lat="37.6500990" lon="-4.0626820">
        <ele>518.4</ele>
        <time>2021-12-28T08:54:02Z</time>
      </trkpt>
      <trkpt lat="37.6500640" lon="-4.0627220">
        <ele>518.2</ele>
        <time>2021-12-28T08:54:03Z</time>
      </trkpt>
      <trkpt lat="37.6500290" lon="-4.0627620">
        <ele>518.2</ele>
        <time>2021-12-28T08:54:04Z</time>
      </trkpt>
      <trkpt lat="37.6499900" lon="-4.0628020">
        <ele>518.2</ele>
        <time>2021-12-28T08:54:05Z</time>
      </trkpt>
      <trkpt lat="37.6499580" lon="-4.0628420">
        <ele>518.4</ele>
        <time>2021-12-28T08:54:06Z</time>
      </trkpt>
      <trkpt lat="37.6499260" lon="-4.0628800">
        <ele>518.2</ele>
        <time>2021-12-28T08:54:07Z</time>
      </trkpt>
      <trkpt lat="37.6498940" lon="-4.0629200">
        <ele>518.2</ele>
        <time>2021-12-28T08:54:08Z</time>
      </trkpt>
      <trkpt lat="37.6498590" lon="-4.0629640">
        <ele>518.0</ele>
        <time>2021-12-28T08:54:09Z</time>
      </trkpt>
      <trkpt lat="37.6498300" lon="-4.0630050">
        <ele>518.0</ele>
        <time>2021-12-28T08:54:10Z</time>
      </trkpt>
      <trkpt lat="37.6497950" lon="-4.0630460">
        <ele>518.0</ele>
        <time>2021-12-28T08:54:11Z</time>
      </trkpt>
      <trkpt lat="37.6497660" lon="-4.0630930">
        <ele>518.0</ele>
        <time>2021-12-28T08:54:12Z</time>
      </trkpt>
      <trkpt lat="37.6497340" lon="-4.0631400">
        <ele>517.8</ele>
        <time>2021-12-28T08:54:13Z</time>
      </trkpt>
      <trkpt lat="37.6496990" lon="-4.0631880">
        <ele>517.8</ele>
        <time>2021-12-28T08:54:14Z</time>
      </trkpt>
      <trkpt lat="37.6496700" lon="-4.0632350">
        <ele>517.6</ele>
        <time>2021-12-28T08:54:15Z</time>
      </trkpt>
      <trkpt lat="37.6496380" lon="-4.0632820">
        <ele>517.6</ele>
        <time>2021-12-28T08:54:16Z</time>
      </trkpt>
      <trkpt lat="37.6496100" lon="-4.0633300">
        <ele>517.6</ele>
        <time>2021-12-28T08:54:17Z</time>
      </trkpt>
      <trkpt lat="37.6495810" lon="-4.0633780">
        <ele>517.4</ele>
        <time>2021-12-28T08:54:18Z</time>
      </trkpt>
      <trkpt lat="37.6495520" lon="-4.0634250">
        <ele>517.4</ele>
        <time>2021-12-28T08:54:19Z</time>
      </trkpt>
      <trkpt lat="37.6495230" lon="-4.0634730">
        <ele>517.2</ele>
        <time>2021-12-28T08:54:20Z</time>
      </trkpt>
      <trkpt lat="37.6494940" lon="-4.0635200">
        <ele>517.0</ele>
        <time>2021-12-28T08:54:21Z</time>
      </trkpt>
      <trkpt lat="37.6494690" lon="-4.0635700">
        <ele>517.0</ele>
        <time>2021-12-28T08:54:22Z</time>
      </trkpt>
      <trkpt lat="37.6494400" lon="-4.0636200">
        <ele>517.0</ele>
        <time>2021-12-28T08:54:23Z</time>
      </trkpt>
      <trkpt lat="37.6494180" lon="-4.0636740">
        <ele>516.8</ele>
        <time>2021-12-28T08:54:24Z</time>
      </trkpt>
      <trkpt lat="37.6493920" lon="-4.0637260">
        <ele>516.8</ele>
        <time>2021-12-28T08:54:25Z</time>
      </trkpt>
      <trkpt lat="37.6493700" lon="-4.0637800">
        <ele>516.8</ele>
        <time>2021-12-28T08:54:26Z</time>
      </trkpt>
      <trkpt lat="37.6493410" lon="-4.0638320">
        <ele>516.8</ele>
        <time>2021-12-28T08:54:27Z</time>
      </trkpt>
      <trkpt lat="37.6493180" lon="-4.0638850">
        <ele>516.8</ele>
        <time>2021-12-28T08:54:28Z</time>
      </trkpt>
      <trkpt lat="37.6492960" lon="-4.0639350">
        <ele>516.8</ele>
        <time>2021-12-28T08:54:29Z</time>
      </trkpt>
      <trkpt lat="37.6492770" lon="-4.0639870">
        <ele>516.6</ele>
        <time>2021-12-28T08:54:30Z</time>
      </trkpt>
      <trkpt lat="37.6492540" lon="-4.0640380">
        <ele>516.6</ele>
        <time>2021-12-28T08:54:31Z</time>
      </trkpt>
      <trkpt lat="37.6492350" lon="-4.0640930">
        <ele>516.6</ele>
        <time>2021-12-28T08:54:32Z</time>
      </trkpt>
      <trkpt lat="37.6492130" lon="-4.0641460">
        <ele>516.4</ele>
        <time>2021-12-28T08:54:33Z</time>
      </trkpt>
      <trkpt lat="37.6491940" lon="-4.0642050">
        <ele>516.4</ele>
        <time>2021-12-28T08:54:34Z</time>
      </trkpt>
      <trkpt lat="37.6491710" lon="-4.0642630">
        <ele>516.4</ele>
        <time>2021-12-28T08:54:35Z</time>
      </trkpt>
      <trkpt lat="37.6491520" lon="-4.0643200">
        <ele>516.2</ele>
        <time>2021-12-28T08:54:36Z</time>
      </trkpt>
      <trkpt lat="37.6491330" lon="-4.0643770">
        <ele>516.2</ele>
        <time>2021-12-28T08:54:37Z</time>
      </trkpt>
      <trkpt lat="37.6491100" lon="-4.0644330">
        <ele>516.2</ele>
        <time>2021-12-28T08:54:38Z</time>
      </trkpt>
      <trkpt lat="37.6490910" lon="-4.0644900">
        <ele>516.0</ele>
        <time>2021-12-28T08:54:39Z</time>
      </trkpt>
      <trkpt lat="37.6490720" lon="-4.0645460">
        <ele>516.0</ele>
        <time>2021-12-28T08:54:40Z</time>
      </trkpt>
      <trkpt lat="37.6490530" lon="-4.0646020">
        <ele>516.0</ele>
        <time>2021-12-28T08:54:41Z</time>
      </trkpt>
      <trkpt lat="37.6490370" lon="-4.0646570">
        <ele>516.0</ele>
        <time>2021-12-28T08:54:42Z</time>
      </trkpt>
      <trkpt lat="37.6490180" lon="-4.0647150">
        <ele>515.8</ele>
        <time>2021-12-28T08:54:43Z</time>
      </trkpt>
      <trkpt lat="37.6489980" lon="-4.0647740">
        <ele>515.8</ele>
        <time>2021-12-28T08:54:44Z</time>
      </trkpt>
      <trkpt lat="37.6489790" lon="-4.0648320">
        <ele>515.8</ele>
        <time>2021-12-28T08:54:45Z</time>
      </trkpt>
      <trkpt lat="37.6489600" lon="-4.0648930">
        <ele>515.6</ele>
        <time>2021-12-28T08:54:46Z</time>
      </trkpt>
      <trkpt lat="37.6489410" lon="-4.0649570">
        <ele>515.6</ele>
        <time>2021-12-28T08:54:47Z</time>
      </trkpt>
      <trkpt lat="37.6489220" lon="-4.0650180">
        <ele>515.4</ele>
        <time>2021-12-28T08:54:48Z</time>
      </trkpt>
      <trkpt lat="37.6489020" lon="-4.0650800">
        <ele>515.4</ele>
        <time>2021-12-28T08:54:49Z</time>
      </trkpt>
      <trkpt lat="37.6488830" lon="-4.0651400">
        <ele>515.4</ele>
        <time>2021-12-28T08:54:50Z</time>
      </trkpt>
      <trkpt lat="37.6488640" lon="-4.0652000">
        <ele>515.2</ele>
        <time>2021-12-28T08:54:51Z</time>
      </trkpt>
      <trkpt lat="37.6488450" lon="-4.0652600">
        <ele>515.2</ele>
        <time>2021-12-28T08:54:52Z</time>
      </trkpt>
      <trkpt lat="37.6488260" lon="-4.0653170">
        <ele>515.0</ele>
        <time>2021-12-28T08:54:53Z</time>
      </trkpt>
      <trkpt lat="37.6488060" lon="-4.0653750">
        <ele>515.0</ele>
        <time>2021-12-28T08:54:54Z</time>
      </trkpt>
      <trkpt lat="37.6487870" lon="-4.0654320">
        <ele>514.8</ele>
        <time>2021-12-28T08:54:55Z</time>
      </trkpt>
      <trkpt lat="37.6487680" lon="-4.0654880">
        <ele>514.8</ele>
        <time>2021-12-28T08:54:56Z</time>
      </trkpt>
      <trkpt lat="37.6487490" lon="-4.0655430">
        <ele>514.8</ele>
        <time>2021-12-28T08:54:57Z</time>
      </trkpt>
      <trkpt lat="37.6487330" lon="-4.0655980">
        <ele>514.8</ele>
        <time>2021-12-28T08:54:58Z</time>
      </trkpt>
      <trkpt lat="37.6487170" lon="-4.0656530">
        <ele>514.6</ele>
        <time>2021-12-28T08:54:59Z</time>
      </trkpt>
      <trkpt lat="37.6486980" lon="-4.0657070">
        <ele>514.6</ele>
        <time>2021-12-28T08:55:00Z</time>
      </trkpt>
      <trkpt lat="37.6486820" lon="-4.0657640">
        <ele>514.4</ele>
        <time>2021-12-28T08:55:01Z</time>
      </trkpt>
      <trkpt lat="37.6486620" lon="-4.0658170">
        <ele>514.4</ele>
        <time>2021-12-28T08:55:02Z</time>
      </trkpt>
      <trkpt lat="37.6486430" lon="-4.0658720">
        <ele>514.2</ele>
        <time>2021-12-28T08:55:03Z</time>
      </trkpt>
      <trkpt lat="37.6486270" lon="-4.0659260">
        <ele>514.2</ele>
        <time>2021-12-28T08:55:04Z</time>
      </trkpt>
      <trkpt lat="37.6486180" lon="-4.0659780">
        <ele>514.2</ele>
        <time>2021-12-28T08:55:05Z</time>
      </trkpt>
      <trkpt lat="37.6485980" lon="-4.0660280">
        <ele>514.0</ele>
        <time>2021-12-28T08:55:06Z</time>
      </trkpt>
      <trkpt lat="37.6485820" lon="-4.0660780">
        <ele>514.0</ele>
        <time>2021-12-28T08:55:07Z</time>
      </trkpt>
      <trkpt lat="37.6485630" lon="-4.0661280">
        <ele>513.8</ele>
        <time>2021-12-28T08:55:08Z</time>
      </trkpt>
      <trkpt lat="37.6485470" lon="-4.0661800">
        <ele>513.8</ele>
        <time>2021-12-28T08:55:09Z</time>
      </trkpt>
      <trkpt lat="37.6485280" lon="-4.0662320">
        <ele>513.6</ele>
        <time>2021-12-28T08:55:10Z</time>
      </trkpt>
      <trkpt lat="37.6485150" lon="-4.0662850">
        <ele>513.6</ele>
        <time>2021-12-28T08:55:11Z</time>
      </trkpt>
      <trkpt lat="37.6484990" lon="-4.0663400">
        <ele>513.6</ele>
        <time>2021-12-28T08:55:12Z</time>
      </trkpt>
      <trkpt lat="37.6484800" lon="-4.0663930">
        <ele>513.4</ele>
        <time>2021-12-28T08:55:13Z</time>
      </trkpt>
      <trkpt lat="37.6484610" lon="-4.0664480">
        <ele>513.4</ele>
        <time>2021-12-28T08:55:14Z</time>
      </trkpt>
      <trkpt lat="37.6484450" lon="-4.0665020">
        <ele>513.4</ele>
        <time>2021-12-28T08:55:15Z</time>
      </trkpt>
      <trkpt lat="37.6484290" lon="-4.0665560">
        <ele>513.2</ele>
        <time>2021-12-28T08:55:16Z</time>
      </trkpt>
      <trkpt lat="37.6484100" lon="-4.0666100">
        <ele>513.2</ele>
        <time>2021-12-28T08:55:17Z</time>
      </trkpt>
      <trkpt lat="37.6483900" lon="-4.0666650">
        <ele>513.2</ele>
        <time>2021-12-28T08:55:18Z</time>
      </trkpt>
      <trkpt lat="37.6483710" lon="-4.0667170">
        <ele>513.0</ele>
        <time>2021-12-28T08:55:19Z</time>
      </trkpt>
      <trkpt lat="37.6483520" lon="-4.0667700">
        <ele>513.0</ele>
        <time>2021-12-28T08:55:20Z</time>
      </trkpt>
      <trkpt lat="37.6483390" lon="-4.0668250">
        <ele>513.0</ele>
        <time>2021-12-28T08:55:21Z</time>
      </trkpt>
      <trkpt lat="37.6483200" lon="-4.0668800">
        <ele>513.0</ele>
        <time>2021-12-28T08:55:22Z</time>
      </trkpt>
      <trkpt lat="37.6483010" lon="-4.0669330">
        <ele>512.8</ele>
        <time>2021-12-28T08:55:23Z</time>
      </trkpt>
      <trkpt lat="37.6482850" lon="-4.0669880">
        <ele>512.8</ele>
        <time>2021-12-28T08:55:24Z</time>
      </trkpt>
      <trkpt lat="37.6482660" lon="-4.0670430">
        <ele>512.8</ele>
        <time>2021-12-28T08:55:25Z</time>
      </trkpt>
      <trkpt lat="37.6482460" lon="-4.0670980">
        <ele>512.6</ele>
        <time>2021-12-28T08:55:26Z</time>
      </trkpt>
      <trkpt lat="37.6482270" lon="-4.0671520">
        <ele>512.6</ele>
        <time>2021-12-28T08:55:27Z</time>
      </trkpt>
      <trkpt lat="37.6482080" lon="-4.0672070">
        <ele>512.6</ele>
        <time>2021-12-28T08:55:28Z</time>
      </trkpt>
      <trkpt lat="37.6481920" lon="-4.0672600">
        <ele>512.4</ele>
        <time>2021-12-28T08:55:29Z</time>
      </trkpt>
      <trkpt lat="37.6481730" lon="-4.0673120">
        <ele>512.4</ele>
        <time>2021-12-28T08:55:30Z</time>
      </trkpt>
      <trkpt lat="37.6481600" lon="-4.0673650">
        <ele>512.4</ele>
        <time>2021-12-28T08:55:31Z</time>
      </trkpt>
      <trkpt lat="37.6481440" lon="-4.0674150">
        <ele>512.4</ele>
        <time>2021-12-28T08:55:32Z</time>
      </trkpt>
      <trkpt lat="37.6481280" lon="-4.0674700">
        <ele>512.2</ele>
        <time>2021-12-28T08:55:33Z</time>
      </trkpt>
      <trkpt lat="37.6481120" lon="-4.0675240">
        <ele>512.2</ele>
        <time>2021-12-28T08:55:34Z</time>
      </trkpt>
      <trkpt lat="37.6480930" lon="-4.0675800">
        <ele>512.0</ele>
        <time>2021-12-28T08:55:35Z</time>
      </trkpt>
      <trkpt lat="37.6480740" lon="-4.0676350">
        <ele>512.0</ele>
        <time>2021-12-28T08:55:36Z</time>
      </trkpt>
      <trkpt lat="37.6480580" lon="-4.0676920">
        <ele>512.0</ele>
        <time>2021-12-28T08:55:37Z</time>
      </trkpt>
      <trkpt lat="37.6480380" lon="-4.0677450">
        <ele>512.0</ele>
        <time>2021-12-28T08:55:38Z</time>
      </trkpt>
      <trkpt lat="37.6480190" lon="-4.0677970">
        <ele>511.8</ele>
        <time>2021-12-28T08:55:39Z</time>
      </trkpt>
      <trkpt lat="37.6480030" lon="-4.0678500">
        <ele>511.8</ele>
        <time>2021-12-28T08:55:40Z</time>
      </trkpt>
      <trkpt lat="37.6479840" lon="-4.0679040">
        <ele>511.8</ele>
        <time>2021-12-28T08:55:41Z</time>
      </trkpt>
      <trkpt lat="37.6479680" lon="-4.0679560">
        <ele>511.8</ele>
        <time>2021-12-28T08:55:42Z</time>
      </trkpt>
      <trkpt lat="37.6479490" lon="-4.0680120">
        <ele>511.6</ele>
        <time>2021-12-28T08:55:43Z</time>
      </trkpt>
      <trkpt lat="37.6479300" lon="-4.0680680">
        <ele>511.6</ele>
        <time>2021-12-28T08:55:44Z</time>
      </trkpt>
      <trkpt lat="37.6479140" lon="-4.0681250">
        <ele>511.4</ele>
        <time>2021-12-28T08:55:45Z</time>
      </trkpt>
      <trkpt lat="37.6478910" lon="-4.0681840">
        <ele>511.4</ele>
        <time>2021-12-28T08:55:46Z</time>
      </trkpt>
      <trkpt lat="37.6478720" lon="-4.0682400">
        <ele>511.4</ele>
        <time>2021-12-28T08:55:47Z</time>
      </trkpt>
      <trkpt lat="37.6478530" lon="-4.0682980">
        <ele>511.4</ele>
        <time>2021-12-28T08:55:48Z</time>
      </trkpt>
      <trkpt lat="37.6478340" lon="-4.0683560">
        <ele>511.4</ele>
        <time>2021-12-28T08:55:49Z</time>
      </trkpt>
      <trkpt lat="37.6478140" lon="-4.0684150">
        <ele>511.2</ele>
        <time>2021-12-28T08:55:50Z</time>
      </trkpt>
      <trkpt lat="37.6477950" lon="-4.0684730">
        <ele>511.2</ele>
        <time>2021-12-28T08:55:51Z</time>
      </trkpt>
      <trkpt lat="37.6477760" lon="-4.0685300">
        <ele>511.2</ele>
        <time>2021-12-28T08:55:52Z</time>
      </trkpt>
      <trkpt lat="37.6477600" lon="-4.0685880">
        <ele>511.2</ele>
        <time>2021-12-28T08:55:53Z</time>
      </trkpt>
      <trkpt lat="37.6477410" lon="-4.0686480">
        <ele>511.0</ele>
        <time>2021-12-28T08:55:54Z</time>
      </trkpt>
      <trkpt lat="37.6477220" lon="-4.0687050">
        <ele>511.0</ele>
        <time>2021-12-28T08:55:55Z</time>
      </trkpt>
      <trkpt lat="37.6477060" lon="-4.0687620">
        <ele>511.0</ele>
        <time>2021-12-28T08:55:56Z</time>
      </trkpt>
      <trkpt lat="37.6476860" lon="-4.0688170">
        <ele>511.0</ele>
        <time>2021-12-28T08:55:57Z</time>
      </trkpt>
      <trkpt lat="37.6476670" lon="-4.0688750">
        <ele>510.8</ele>
        <time>2021-12-28T08:55:58Z</time>
      </trkpt>
      <trkpt lat="37.6476480" lon="-4.0689320">
        <ele>510.8</ele>
        <time>2021-12-28T08:55:59Z</time>
      </trkpt>
      <trkpt lat="37.6476290" lon="-4.0689900">
        <ele>510.6</ele>
        <time>2021-12-28T08:56:00Z</time>
      </trkpt>
      <trkpt lat="37.6476100" lon="-4.0690460">
        <ele>510.6</ele>
        <time>2021-12-28T08:56:01Z</time>
      </trkpt>
      <trkpt lat="37.6475870" lon="-4.0691030">
        <ele>510.4</ele>
        <time>2021-12-28T08:56:02Z</time>
      </trkpt>
      <trkpt lat="37.6475680" lon="-4.0691620">
        <ele>510.4</ele>
        <time>2021-12-28T08:56:03Z</time>
      </trkpt>
      <trkpt lat="37.6475490" lon="-4.0692180">
        <ele>510.2</ele>
        <time>2021-12-28T08:56:04Z</time>
      </trkpt>
      <trkpt lat="37.6475330" lon="-4.0692740">
        <ele>510.2</ele>
        <time>2021-12-28T08:56:05Z</time>
      </trkpt>
      <trkpt lat="37.6475140" lon="-4.0693280">
        <ele>510.2</ele>
        <time>2021-12-28T08:56:06Z</time>
      </trkpt>
      <trkpt lat="37.6474940" lon="-4.0693860">
        <ele>510.0</ele>
        <time>2021-12-28T08:56:07Z</time>
      </trkpt>
      <trkpt lat="37.6474750" lon="-4.0694450">
        <ele>510.0</ele>
        <time>2021-12-28T08:56:08Z</time>
      </trkpt>
      <trkpt lat="37.6474560" lon="-4.0695030">
        <ele>509.8</ele>
        <time>2021-12-28T08:56:09Z</time>
      </trkpt>
      <trkpt lat="37.6474370" lon="-4.0695620">
        <ele>509.8</ele>
        <time>2021-12-28T08:56:10Z</time>
      </trkpt>
      <trkpt lat="37.6474180" lon="-4.0696150">
        <ele>509.8</ele>
        <time>2021-12-28T08:56:11Z</time>
      </trkpt>
      <trkpt lat="37.6474050" lon="-4.0696570">
        <ele>509.6</ele>
        <time>2021-12-28T08:56:12Z</time>
      </trkpt>
      <trkpt lat="37.6473890" lon="-4.0696920">
        <ele>509.4</ele>
        <time>2021-12-28T08:56:13Z</time>
      </trkpt>
      <trkpt lat="37.6473760" lon="-4.0697230">
        <ele>509.4</ele>
        <time>2021-12-28T08:56:14Z</time>
      </trkpt>
      <trkpt lat="37.6473660" lon="-4.0697580">
        <ele>509.2</ele>
        <time>2021-12-28T08:56:15Z</time>
      </trkpt>
      <trkpt lat="37.6473540" lon="-4.0697980">
        <ele>509.0</ele>
        <time>2021-12-28T08:56:16Z</time>
      </trkpt>
      <trkpt lat="37.6473440" lon="-4.0698400">
        <ele>509.0</ele>
        <time>2021-12-28T08:56:17Z</time>
      </trkpt>
      <trkpt lat="37.6473250" lon="-4.0698870">
        <ele>508.8</ele>
        <time>2021-12-28T08:56:18Z</time>
      </trkpt>
      <trkpt lat="37.6473090" lon="-4.0699400">
        <ele>508.8</ele>
        <time>2021-12-28T08:56:19Z</time>
      </trkpt>
      <trkpt lat="37.6472930" lon="-4.0699950">
        <ele>508.8</ele>
        <time>2021-12-28T08:56:20Z</time>
      </trkpt>
      <trkpt lat="37.6472770" lon="-4.0700530">
        <ele>508.8</ele>
        <time>2021-12-28T08:56:21Z</time>
      </trkpt>
      <trkpt lat="37.6472540" lon="-4.0701100">
        <ele>508.6</ele>
        <time>2021-12-28T08:56:22Z</time>
      </trkpt>
      <trkpt lat="37.6472350" lon="-4.0701700">
        <ele>508.6</ele>
        <time>2021-12-28T08:56:23Z</time>
      </trkpt>
      <trkpt lat="37.6472160" lon="-4.0702320">
        <ele>508.6</ele>
        <time>2021-12-28T08:56:24Z</time>
      </trkpt>
      <trkpt lat="37.6471940" lon="-4.0702940">
        <ele>508.6</ele>
        <time>2021-12-28T08:56:25Z</time>
      </trkpt>
      <trkpt lat="37.6471740" lon="-4.0703550">
        <ele>508.4</ele>
        <time>2021-12-28T08:56:26Z</time>
      </trkpt>
      <trkpt lat="37.6471550" lon="-4.0704200">
        <ele>508.4</ele>
        <time>2021-12-28T08:56:27Z</time>
      </trkpt>
      <trkpt lat="37.6471360" lon="-4.0704820">
        <ele>508.2</ele>
        <time>2021-12-28T08:56:28Z</time>
      </trkpt>
      <trkpt lat="37.6471170" lon="-4.0705430">
        <ele>508.2</ele>
        <time>2021-12-28T08:56:29Z</time>
      </trkpt>
      <trkpt lat="37.6470940" lon="-4.0706050">
        <ele>508.2</ele>
        <time>2021-12-28T08:56:30Z</time>
      </trkpt>
      <trkpt lat="37.6470750" lon="-4.0706670">
        <ele>508.2</ele>
        <time>2021-12-28T08:56:31Z</time>
      </trkpt>
      <trkpt lat="37.6470560" lon="-4.0707280">
        <ele>508.0</ele>
        <time>2021-12-28T08:56:32Z</time>
      </trkpt>
      <trkpt lat="37.6470370" lon="-4.0707900">
        <ele>508.0</ele>
        <time>2021-12-28T08:56:33Z</time>
      </trkpt>
      <trkpt lat="37.6470180" lon="-4.0708500">
        <ele>508.0</ele>
        <time>2021-12-28T08:56:34Z</time>
      </trkpt>
      <trkpt lat="37.6469980" lon="-4.0709080">
        <ele>507.8</ele>
        <time>2021-12-28T08:56:35Z</time>
      </trkpt>
      <trkpt lat="37.6469760" lon="-4.0709700">
        <ele>507.8</ele>
        <time>2021-12-28T08:56:36Z</time>
      </trkpt>
      <trkpt lat="37.6469570" lon="-4.0710300">
        <ele>507.6</ele>
        <time>2021-12-28T08:56:37Z</time>
      </trkpt>
      <trkpt lat="37.6469380" lon="-4.0710900">
        <ele>507.6</ele>
        <time>2021-12-28T08:56:38Z</time>
      </trkpt>
      <trkpt lat="37.6469220" lon="-4.0711530">
        <ele>507.4</ele>
        <time>2021-12-28T08:56:39Z</time>
      </trkpt>
      <trkpt lat="37.6469020" lon="-4.0712120">
        <ele>507.4</ele>
        <time>2021-12-28T08:56:40Z</time>
      </trkpt>
      <trkpt lat="37.6468860" lon="-4.0712720">
        <ele>507.4</ele>
        <time>2021-12-28T08:56:41Z</time>
      </trkpt>
      <trkpt lat="37.6468700" lon="-4.0713350">
        <ele>507.2</ele>
        <time>2021-12-28T08:56:42Z</time>
      </trkpt>
      <trkpt lat="37.6468480" lon="-4.0713950">
        <ele>507.2</ele>
        <time>2021-12-28T08:56:43Z</time>
      </trkpt>
      <trkpt lat="37.6468290" lon="-4.0714580">
        <ele>507.0</ele>
        <time>2021-12-28T08:56:44Z</time>
      </trkpt>
      <trkpt lat="37.6468060" lon="-4.0715200">
        <ele>507.0</ele>
        <time>2021-12-28T08:56:45Z</time>
      </trkpt>
      <trkpt lat="37.6467870" lon="-4.0715820">
        <ele>507.0</ele>
        <time>2021-12-28T08:56:46Z</time>
      </trkpt>
      <trkpt lat="37.6467680" lon="-4.0716420">
        <ele>506.8</ele>
        <time>2021-12-28T08:56:47Z</time>
      </trkpt>
      <trkpt lat="37.6467490" lon="-4.0717020">
        <ele>506.6</ele>
        <time>2021-12-28T08:56:48Z</time>
      </trkpt>
      <trkpt lat="37.6467300" lon="-4.0717640">
        <ele>506.6</ele>
        <time>2021-12-28T08:56:49Z</time>
      </trkpt>
      <trkpt lat="37.6467140" lon="-4.0718200">
        <ele>506.4</ele>
        <time>2021-12-28T08:56:50Z</time>
      </trkpt>
      <trkpt lat="37.6466940" lon="-4.0718780">
        <ele>506.4</ele>
        <time>2021-12-28T08:56:51Z</time>
      </trkpt>
      <trkpt lat="37.6466780" lon="-4.0719350">
        <ele>506.2</ele>
        <time>2021-12-28T08:56:52Z</time>
      </trkpt>
      <trkpt lat="37.6466620" lon="-4.0719900">
        <ele>506.0</ele>
        <time>2021-12-28T08:56:53Z</time>
      </trkpt>
      <trkpt lat="37.6466430" lon="-4.0720450">
        <ele>506.0</ele>
        <time>2021-12-28T08:56:54Z</time>
      </trkpt>
      <trkpt lat="37.6466300" lon="-4.0721000">
        <ele>505.8</ele>
        <time>2021-12-28T08:56:55Z</time>
      </trkpt>
      <trkpt lat="37.6466180" lon="-4.0721550">
        <ele>505.8</ele>
        <time>2021-12-28T08:56:56Z</time>
      </trkpt>
      <trkpt lat="37.6466020" lon="-4.0722080">
        <ele>505.8</ele>
        <time>2021-12-28T08:56:57Z</time>
      </trkpt>
      <trkpt lat="37.6465920" lon="-4.0722630">
        <ele>505.6</ele>
        <time>2021-12-28T08:56:58Z</time>
      </trkpt>
      <trkpt lat="37.6465790" lon="-4.0723150">
        <ele>505.6</ele>
        <time>2021-12-28T08:56:59Z</time>
      </trkpt>
      <trkpt lat="37.6465700" lon="-4.0723680">
        <ele>505.6</ele>
        <time>2021-12-28T08:57:00Z</time>
      </trkpt>
      <trkpt lat="37.6465540" lon="-4.0724220">
        <ele>505.6</ele>
        <time>2021-12-28T08:57:01Z</time>
      </trkpt>
      <trkpt lat="37.6465410" lon="-4.0724770">
        <ele>505.4</ele>
        <time>2021-12-28T08:57:02Z</time>
      </trkpt>
      <trkpt lat="37.6465310" lon="-4.0725260">
        <ele>505.4</ele>
        <time>2021-12-28T08:57:03Z</time>
      </trkpt>
      <trkpt lat="37.6465180" lon="-4.0725800">
        <ele>505.4</ele>
        <time>2021-12-28T08:57:04Z</time>
      </trkpt>
      <trkpt lat="37.6465090" lon="-4.0726320">
        <ele>505.2</ele>
        <time>2021-12-28T08:57:05Z</time>
      </trkpt>
      <trkpt lat="37.6464960" lon="-4.0726820">
        <ele>505.2</ele>
        <time>2021-12-28T08:57:06Z</time>
      </trkpt>
      <trkpt lat="37.6464830" lon="-4.0727340">
        <ele>505.2</ele>
        <time>2021-12-28T08:57:07Z</time>
      </trkpt>
      <trkpt lat="37.6464740" lon="-4.0727850">
        <ele>505.2</ele>
        <time>2021-12-28T08:57:08Z</time>
      </trkpt>
      <trkpt lat="37.6464610" lon="-4.0728370">
        <ele>505.0</ele>
        <time>2021-12-28T08:57:09Z</time>
      </trkpt>
      <trkpt lat="37.6464540" lon="-4.0728900">
        <ele>505.0</ele>
        <time>2021-12-28T08:57:10Z</time>
      </trkpt>
      <trkpt lat="37.6464420" lon="-4.0729420">
        <ele>504.8</ele>
        <time>2021-12-28T08:57:11Z</time>
      </trkpt>
      <trkpt lat="37.6464350" lon="-4.0729950">
        <ele>504.8</ele>
        <time>2021-12-28T08:57:12Z</time>
      </trkpt>
      <trkpt lat="37.6464220" lon="-4.0730470">
        <ele>504.6</ele>
        <time>2021-12-28T08:57:13Z</time>
      </trkpt>
      <trkpt lat="37.6464130" lon="-4.0730980">
        <ele>504.6</ele>
        <time>2021-12-28T08:57:14Z</time>
      </trkpt>
      <trkpt lat="37.6464030" lon="-4.0731520">
        <ele>504.4</ele>
        <time>2021-12-28T08:57:15Z</time>
      </trkpt>
      <trkpt lat="37.6463940" lon="-4.0732040">
        <ele>504.4</ele>
        <time>2021-12-28T08:57:16Z</time>
      </trkpt>
      <trkpt lat="37.6463840" lon="-4.0732550">
        <ele>504.2</ele>
        <time>2021-12-28T08:57:17Z</time>
      </trkpt>
      <trkpt lat="37.6463740" lon="-4.0733080">
        <ele>504.2</ele>
        <time>2021-12-28T08:57:18Z</time>
      </trkpt>
      <trkpt lat="37.6463620" lon="-4.0733650">
        <ele>504.0</ele>
        <time>2021-12-28T08:57:19Z</time>
      </trkpt>
      <trkpt lat="37.6463550" lon="-4.0734220">
        <ele>504.0</ele>
        <time>2021-12-28T08:57:20Z</time>
      </trkpt>
      <trkpt lat="37.6463420" lon="-4.0734780">
        <ele>503.8</ele>
        <time>2021-12-28T08:57:21Z</time>
      </trkpt>
      <trkpt lat="37.6463330" lon="-4.0735350">
        <ele>503.8</ele>
        <time>2021-12-28T08:57:22Z</time>
      </trkpt>
      <trkpt lat="37.6463200" lon="-4.0735920">
        <ele>503.8</ele>
        <time>2021-12-28T08:57:23Z</time>
      </trkpt>
      <trkpt lat="37.6463140" lon="-4.0736460">
        <ele>503.6</ele>
        <time>2021-12-28T08:57:24Z</time>
      </trkpt>
      <trkpt lat="37.6463010" lon="-4.0737030">
        <ele>503.6</ele>
        <time>2021-12-28T08:57:25Z</time>
      </trkpt>
      <trkpt lat="37.6462910" lon="-4.0737620">
        <ele>503.4</ele>
        <time>2021-12-28T08:57:26Z</time>
      </trkpt>
      <trkpt lat="37.6462780" lon="-4.0738200">
        <ele>503.4</ele>
        <time>2021-12-28T08:57:27Z</time>
      </trkpt>
      <trkpt lat="37.6462720" lon="-4.0738770">
        <ele>503.4</ele>
        <time>2021-12-28T08:57:28Z</time>
      </trkpt>
      <trkpt lat="37.6462590" lon="-4.0739320">
        <ele>503.2</ele>
        <time>2021-12-28T08:57:29Z</time>
      </trkpt>
      <trkpt lat="37.6462460" lon="-4.0739880">
        <ele>503.2</ele>
        <time>2021-12-28T08:57:30Z</time>
      </trkpt>
      <trkpt lat="37.6462370" lon="-4.0740450">
        <ele>503.2</ele>
        <time>2021-12-28T08:57:31Z</time>
      </trkpt>
      <trkpt lat="37.6462240" lon="-4.0741020">
        <ele>503.2</ele>
        <time>2021-12-28T08:57:32Z</time>
      </trkpt>
      <trkpt lat="37.6462140" lon="-4.0741580">
        <ele>503.0</ele>
        <time>2021-12-28T08:57:33Z</time>
      </trkpt>
      <trkpt lat="37.6462020" lon="-4.0742150">
        <ele>503.0</ele>
        <time>2021-12-28T08:57:34Z</time>
      </trkpt>
      <trkpt lat="37.6461950" lon="-4.0742730">
        <ele>503.0</ele>
        <time>2021-12-28T08:57:35Z</time>
      </trkpt>
      <trkpt lat="37.6461820" lon="-4.0743280">
        <ele>503.0</ele>
        <time>2021-12-28T08:57:36Z</time>
      </trkpt>
      <trkpt lat="37.6461730" lon="-4.0743850">
        <ele>502.8</ele>
        <time>2021-12-28T08:57:37Z</time>
      </trkpt>
      <trkpt lat="37.6461600" lon="-4.0744420">
        <ele>502.8</ele>
        <time>2021-12-28T08:57:38Z</time>
      </trkpt>
      <trkpt lat="37.6461470" lon="-4.0744980">
        <ele>502.6</ele>
        <time>2021-12-28T08:57:39Z</time>
      </trkpt>
      <trkpt lat="37.6461380" lon="-4.0745550">
        <ele>502.6</ele>
        <time>2021-12-28T08:57:40Z</time>
      </trkpt>
      <trkpt lat="37.6461310" lon="-4.0746120">
        <ele>502.4</ele>
        <time>2021-12-28T08:57:41Z</time>
      </trkpt>
      <trkpt lat="37.6461180" lon="-4.0746660">
        <ele>502.4</ele>
        <time>2021-12-28T08:57:42Z</time>
      </trkpt>
      <trkpt lat="37.6461060" lon="-4.0747230">
        <ele>502.4</ele>
        <time>2021-12-28T08:57:43Z</time>
      </trkpt>
      <trkpt lat="37.6460960" lon="-4.0747800">
        <ele>502.4</ele>
        <time>2021-12-28T08:57:44Z</time>
      </trkpt>
      <trkpt lat="37.6460830" lon="-4.0748370">
        <ele>502.2</ele>
        <time>2021-12-28T08:57:45Z</time>
      </trkpt>
      <trkpt lat="37.6460740" lon="-4.0748920">
        <ele>502.2</ele>
        <time>2021-12-28T08:57:46Z</time>
      </trkpt>
      <trkpt lat="37.6460610" lon="-4.0749470">
        <ele>502.2</ele>
        <time>2021-12-28T08:57:47Z</time>
      </trkpt>
      <trkpt lat="37.6460480" lon="-4.0750000">
        <ele>502.2</ele>
        <time>2021-12-28T08:57:48Z</time>
      </trkpt>
      <trkpt lat="37.6460420" lon="-4.0750530">
        <ele>502.0</ele>
        <time>2021-12-28T08:57:49Z</time>
      </trkpt>
      <trkpt lat="37.6460320" lon="-4.0751070">
        <ele>502.0</ele>
        <time>2021-12-28T08:57:50Z</time>
      </trkpt>
      <trkpt lat="37.6460190" lon="-4.0751600">
        <ele>501.8</ele>
        <time>2021-12-28T08:57:51Z</time>
      </trkpt>
      <trkpt lat="37.6460130" lon="-4.0752150">
        <ele>501.8</ele>
        <time>2021-12-28T08:57:52Z</time>
      </trkpt>
      <trkpt lat="37.6460000" lon="-4.0752680">
        <ele>501.8</ele>
        <time>2021-12-28T08:57:53Z</time>
      </trkpt>
      <trkpt lat="37.6459940" lon="-4.0753230">
        <ele>501.6</ele>
        <time>2021-12-28T08:57:54Z</time>
      </trkpt>
      <trkpt lat="37.6459810" lon="-4.0753760">
        <ele>501.4</ele>
        <time>2021-12-28T08:57:55Z</time>
      </trkpt>
      <trkpt lat="37.6459680" lon="-4.0754320">
        <ele>501.2</ele>
        <time>2021-12-28T08:57:56Z</time>
      </trkpt>
      <trkpt lat="37.6459620" lon="-4.0754850">
        <ele>501.2</ele>
        <time>2021-12-28T08:57:57Z</time>
      </trkpt>
      <trkpt lat="37.6459550" lon="-4.0755380">
        <ele>501.0</ele>
        <time>2021-12-28T08:57:58Z</time>
      </trkpt>
      <trkpt lat="37.6459460" lon="-4.0755880">
        <ele>501.0</ele>
        <time>2021-12-28T08:57:59Z</time>
      </trkpt>
      <trkpt lat="37.6459360" lon="-4.0756400">
        <ele>501.0</ele>
        <time>2021-12-28T08:58:00Z</time>
      </trkpt>
      <trkpt lat="37.6459260" lon="-4.0756900">
        <ele>500.8</ele>
        <time>2021-12-28T08:58:01Z</time>
      </trkpt>
      <trkpt lat="37.6459200" lon="-4.0757380">
        <ele>500.8</ele>
        <time>2021-12-28T08:58:02Z</time>
      </trkpt>
      <trkpt lat="37.6459070" lon="-4.0757880">
        <ele>500.6</ele>
        <time>2021-12-28T08:58:03Z</time>
      </trkpt>
      <trkpt lat="37.6459010" lon="-4.0758370">
        <ele>500.6</ele>
        <time>2021-12-28T08:58:04Z</time>
      </trkpt>
      <trkpt lat="37.6458880" lon="-4.0758850">
        <ele>500.4</ele>
        <time>2021-12-28T08:58:05Z</time>
      </trkpt>
      <trkpt lat="37.6458780" lon="-4.0759370">
        <ele>500.4</ele>
        <time>2021-12-28T08:58:06Z</time>
      </trkpt>
      <trkpt lat="37.6458690" lon="-4.0759870">
        <ele>500.2</ele>
        <time>2021-12-28T08:58:07Z</time>
      </trkpt>
      <trkpt lat="37.6458620" lon="-4.0760380">
        <ele>500.2</ele>
        <time>2021-12-28T08:58:08Z</time>
      </trkpt>
      <trkpt lat="37.6458500" lon="-4.0760880">
        <ele>500.0</ele>
        <time>2021-12-28T08:58:09Z</time>
      </trkpt>
      <trkpt lat="37.6458430" lon="-4.0761380">
        <ele>500.0</ele>
        <time>2021-12-28T08:58:10Z</time>
      </trkpt>
      <trkpt lat="37.6458370" lon="-4.0761900">
        <ele>499.8</ele>
        <time>2021-12-28T08:58:11Z</time>
      </trkpt>
      <trkpt lat="37.6458270" lon="-4.0762400">
        <ele>499.8</ele>
        <time>2021-12-28T08:58:12Z</time>
      </trkpt>
      <trkpt lat="37.6458180" lon="-4.0762900">
        <ele>499.6</ele>
        <time>2021-12-28T08:58:13Z</time>
      </trkpt>
      <trkpt lat="37.6458050" lon="-4.0763400">
        <ele>499.6</ele>
        <time>2021-12-28T08:58:14Z</time>
      </trkpt>
      <trkpt lat="37.6457950" lon="-4.0763900">
        <ele>499.6</ele>
        <time>2021-12-28T08:58:15Z</time>
      </trkpt>
      <trkpt lat="37.6457860" lon="-4.0764360">
        <ele>499.4</ele>
        <time>2021-12-28T08:58:16Z</time>
      </trkpt>
      <trkpt lat="37.6457790" lon="-4.0764830">
        <ele>499.4</ele>
        <time>2021-12-28T08:58:17Z</time>
      </trkpt>
      <trkpt lat="37.6457700" lon="-4.0765280">
        <ele>499.4</ele>
        <time>2021-12-28T08:58:18Z</time>
      </trkpt>
      <trkpt lat="37.6457630" lon="-4.0765730">
        <ele>499.4</ele>
        <time>2021-12-28T08:58:19Z</time>
      </trkpt>
      <trkpt lat="37.6457570" lon="-4.0766170">
        <ele>499.2</ele>
        <time>2021-12-28T08:58:20Z</time>
      </trkpt>
      <trkpt lat="37.6457500" lon="-4.0766570">
        <ele>499.2</ele>
        <time>2021-12-28T08:58:21Z</time>
      </trkpt>
      <trkpt lat="37.6457470" lon="-4.0766970">
        <ele>499.0</ele>
        <time>2021-12-28T08:58:22Z</time>
      </trkpt>
      <trkpt lat="37.6457500" lon="-4.0767300">
        <ele>499.0</ele>
        <time>2021-12-28T08:58:23Z</time>
      </trkpt>
      <trkpt lat="37.6457700" lon="-4.0767550">
        <ele>498.8</ele>
        <time>2021-12-28T08:58:24Z</time>
      </trkpt>
      <trkpt lat="37.6457890" lon="-4.0767730">
        <ele>498.6</ele>
        <time>2021-12-28T08:58:25Z</time>
      </trkpt>
      <trkpt lat="37.6458140" lon="-4.0767900">
        <ele>498.6</ele>
        <time>2021-12-28T08:58:26Z</time>
      </trkpt>
      <trkpt lat="37.6458340" lon="-4.0768000">
        <ele>498.6</ele>
        <time>2021-12-28T08:58:27Z</time>
      </trkpt>
      <trkpt lat="37.6458340" lon="-4.0768000">
        <ele>498.6</ele>
        <time>2021-12-28T08:58:28Z</time>
      </trkpt>
      <trkpt lat="37.6458590" lon="-4.0768130">
        <ele>498.6</ele>
        <time>2021-12-28T08:58:29Z</time>
      </trkpt>
      <trkpt lat="37.6458590" lon="-4.0768130">
        <ele>498.6</ele>
        <time>2021-12-28T08:58:30Z</time>
      </trkpt>
      <trkpt lat="37.6458590" lon="-4.0768130">
        <ele>498.4</ele>
        <time>2021-12-28T08:58:31Z</time>
      </trkpt>
      <trkpt lat="37.6458620" lon="-4.0768460">
        <ele>498.4</ele>
        <time>2021-12-28T08:58:32Z</time>
      </trkpt>
      <trkpt lat="37.6458620" lon="-4.0768460">
        <ele>498.4</ele>
        <time>2021-12-28T08:58:33Z</time>
      </trkpt>
      <trkpt lat="37.6458660" lon="-4.0768720">
        <ele>498.4</ele>
        <time>2021-12-28T08:58:34Z</time>
      </trkpt>
      <trkpt lat="37.6458660" lon="-4.0768720">
        <ele>498.4</ele>
        <time>2021-12-28T08:58:35Z</time>
      </trkpt>
      <trkpt lat="37.6458690" lon="-4.0768950">
        <ele>498.4</ele>
        <time>2021-12-28T08:58:36Z</time>
      </trkpt>
      <trkpt lat="37.6458690" lon="-4.0768950">
        <ele>498.4</ele>
        <time>2021-12-28T08:58:37Z</time>
      </trkpt>
      <trkpt lat="37.6458690" lon="-4.0768950">
        <ele>498.4</ele>
        <time>2021-12-28T08:58:38Z</time>
      </trkpt>
      <trkpt lat="37.6458690" lon="-4.0768950">
        <ele>498.4</ele>
        <time>2021-12-28T08:58:39Z</time>
      </trkpt>
      <trkpt lat="37.6458690" lon="-4.0768950">
        <ele>498.4</ele>
        <time>2021-12-28T08:58:40Z</time>
      </trkpt>
      <trkpt lat="37.6458690" lon="-4.0768950">
        <ele>498.4</ele>
        <time>2021-12-28T08:58:41Z</time>
      </trkpt>
      <trkpt lat="37.6458690" lon="-4.0768950">
        <ele>497.4</ele>
        <time>2021-12-28T08:58:50Z</time>
      </trkpt>
      <trkpt lat="37.6458690" lon="-4.0768950">
        <ele>497.4</ele>
        <time>2021-12-28T08:58:51Z</time>
      </trkpt>
      <trkpt lat="37.6458690" lon="-4.0768950">
        <ele>497.4</ele>
        <time>2021-12-28T08:58:52Z</time>
      </trkpt>
      <trkpt lat="37.6457570" lon="-4.0768730">
        <ele>497.4</ele>
        <time>2021-12-28T08:58:53Z</time>
      </trkpt>
      <trkpt lat="37.6457570" lon="-4.0768730">
        <ele>497.4</ele>
        <time>2021-12-28T08:58:54Z</time>
      </trkpt>
      <trkpt lat="37.6457570" lon="-4.0768730">
        <ele>497.4</ele>
        <time>2021-12-28T08:58:55Z</time>
      </trkpt>
      <trkpt lat="37.6457180" lon="-4.0770200">
        <ele>497.0</ele>
        <time>2021-12-28T08:59:22Z</time>
      </trkpt>
      <trkpt lat="37.6457060" lon="-4.0770700">
        <ele>497.0</ele>
        <time>2021-12-28T08:59:23Z</time>
      </trkpt>
      <trkpt lat="37.6456900" lon="-4.0771260">
        <ele>497.0</ele>
        <time>2021-12-28T08:59:24Z</time>
      </trkpt>
      <trkpt lat="37.6456800" lon="-4.0771880">
        <ele>497.0</ele>
        <time>2021-12-28T08:59:25Z</time>
      </trkpt>
      <trkpt lat="37.6456640" lon="-4.0772500">
        <ele>497.0</ele>
        <time>2021-12-28T08:59:26Z</time>
      </trkpt>
      <trkpt lat="37.6456480" lon="-4.0773170">
        <ele>496.8</ele>
        <time>2021-12-28T08:59:27Z</time>
      </trkpt>
      <trkpt lat="37.6456380" lon="-4.0773780">
        <ele>496.8</ele>
        <time>2021-12-28T08:59:28Z</time>
      </trkpt>
      <trkpt lat="37.6456220" lon="-4.0774400">
        <ele>496.8</ele>
        <time>2021-12-28T08:59:29Z</time>
      </trkpt>
      <trkpt lat="37.6456100" lon="-4.0775050">
        <ele>496.8</ele>
        <time>2021-12-28T08:59:30Z</time>
      </trkpt>
      <trkpt lat="37.6456000" lon="-4.0775680">
        <ele>496.8</ele>
        <time>2021-12-28T08:59:31Z</time>
      </trkpt>
      <trkpt lat="37.6455840" lon="-4.0776320">
        <ele>496.8</ele>
        <time>2021-12-28T08:59:32Z</time>
      </trkpt>
      <trkpt lat="37.6455710" lon="-4.0776970">
        <ele>496.8</ele>
        <time>2021-12-28T08:59:33Z</time>
      </trkpt>
      <trkpt lat="37.6455580" lon="-4.0777620">
        <ele>496.8</ele>
        <time>2021-12-28T08:59:34Z</time>
      </trkpt>
      <trkpt lat="37.6455460" lon="-4.0778260">
        <ele>496.6</ele>
        <time>2021-12-28T08:59:35Z</time>
      </trkpt>
      <trkpt lat="37.6455360" lon="-4.0778930">
        <ele>496.6</ele>
        <time>2021-12-28T08:59:36Z</time>
      </trkpt>
      <trkpt lat="37.6455200" lon="-4.0779620">
        <ele>496.6</ele>
        <time>2021-12-28T08:59:37Z</time>
      </trkpt>
      <trkpt lat="37.6455070" lon="-4.0780280">
        <ele>496.8</ele>
        <time>2021-12-28T08:59:38Z</time>
      </trkpt>
      <trkpt lat="37.6454980" lon="-4.0780970">
        <ele>496.6</ele>
        <time>2021-12-28T08:59:39Z</time>
      </trkpt>
      <trkpt lat="37.6454850" lon="-4.0781650">
        <ele>496.6</ele>
        <time>2021-12-28T08:59:40Z</time>
      </trkpt>
      <trkpt lat="37.6454720" lon="-4.0782300">
        <ele>496.6</ele>
        <time>2021-12-28T08:59:41Z</time>
      </trkpt>
      <trkpt lat="37.6454590" lon="-4.0782950">
        <ele>496.6</ele>
        <time>2021-12-28T08:59:42Z</time>
      </trkpt>
      <trkpt lat="37.6454460" lon="-4.0783600">
        <ele>496.6</ele>
        <time>2021-12-28T08:59:43Z</time>
      </trkpt>
      <trkpt lat="37.6454300" lon="-4.0784250">
        <ele>496.6</ele>
        <time>2021-12-28T08:59:44Z</time>
      </trkpt>
      <trkpt lat="37.6454210" lon="-4.0784900">
        <ele>496.4</ele>
        <time>2021-12-28T08:59:45Z</time>
      </trkpt>
      <trkpt lat="37.6454050" lon="-4.0785580">
        <ele>496.4</ele>
        <time>2021-12-28T08:59:46Z</time>
      </trkpt>
      <trkpt lat="37.6453920" lon="-4.0786250">
        <ele>496.2</ele>
        <time>2021-12-28T08:59:47Z</time>
      </trkpt>
      <trkpt lat="37.6453790" lon="-4.0786950">
        <ele>496.2</ele>
        <time>2021-12-28T08:59:48Z</time>
      </trkpt>
      <trkpt lat="37.6453660" lon="-4.0787650">
        <ele>496.0</ele>
        <time>2021-12-28T08:59:49Z</time>
      </trkpt>
      <trkpt lat="37.6453570" lon="-4.0788350">
        <ele>495.8</ele>
        <time>2021-12-28T08:59:50Z</time>
      </trkpt>
      <trkpt lat="37.6453380" lon="-4.0789050">
        <ele>495.8</ele>
        <time>2021-12-28T08:59:51Z</time>
      </trkpt>
      <trkpt lat="37.6453220" lon="-4.0789750">
        <ele>495.8</ele>
        <time>2021-12-28T08:59:52Z</time>
      </trkpt>
      <trkpt lat="37.6453060" lon="-4.0790450">
        <ele>495.6</ele>
        <time>2021-12-28T08:59:53Z</time>
      </trkpt>
      <trkpt lat="37.6452930" lon="-4.0791180">
        <ele>495.6</ele>
        <time>2021-12-28T08:59:54Z</time>
      </trkpt>
      <trkpt lat="37.6452830" lon="-4.0791900">
        <ele>495.6</ele>
        <time>2021-12-28T08:59:55Z</time>
      </trkpt>
      <trkpt lat="37.6452700" lon="-4.0792580">
        <ele>495.4</ele>
        <time>2021-12-28T08:59:56Z</time>
      </trkpt>
      <trkpt lat="37.6452580" lon="-4.0793280">
        <ele>495.4</ele>
        <time>2021-12-28T08:59:57Z</time>
      </trkpt>
      <trkpt lat="37.6452450" lon="-4.0793980">
        <ele>495.2</ele>
        <time>2021-12-28T08:59:58Z</time>
      </trkpt>
      <trkpt lat="37.6452320" lon="-4.0794680">
        <ele>495.2</ele>
        <time>2021-12-28T08:59:59Z</time>
      </trkpt>
      <trkpt lat="37.6452140" lon="-4.0795750">
        <ele>495.2</ele>
        <time>2021-12-28T09:00:00Z</time>
      </trkpt>
      <trkpt lat="37.6452100" lon="-4.0796100">
        <ele>495.0</ele>
        <time>2021-12-28T09:00:01Z</time>
      </trkpt>
      <trkpt lat="37.6452000" lon="-4.0796800">
        <ele>495.0</ele>
        <time>2021-12-28T09:00:02Z</time>
      </trkpt>
      <trkpt lat="37.6451870" lon="-4.0797470">
        <ele>494.8</ele>
        <time>2021-12-28T09:00:03Z</time>
      </trkpt>
      <trkpt lat="37.6451710" lon="-4.0798150">
        <ele>494.8</ele>
        <time>2021-12-28T09:00:04Z</time>
      </trkpt>
      <trkpt lat="37.6451580" lon="-4.0798780">
        <ele>494.6</ele>
        <time>2021-12-28T09:00:05Z</time>
      </trkpt>
      <trkpt lat="37.6451420" lon="-4.0799430">
        <ele>494.6</ele>
        <time>2021-12-28T09:00:06Z</time>
      </trkpt>
      <trkpt lat="37.6451260" lon="-4.0800050">
        <ele>494.6</ele>
        <time>2021-12-28T09:00:07Z</time>
      </trkpt>
      <trkpt lat="37.6451070" lon="-4.0800670">
        <ele>494.6</ele>
        <time>2021-12-28T09:00:08Z</time>
      </trkpt>
      <trkpt lat="37.6450880" lon="-4.0801250">
        <ele>494.4</ele>
        <time>2021-12-28T09:00:09Z</time>
      </trkpt>
      <trkpt lat="37.6450720" lon="-4.0801840">
        <ele>494.4</ele>
        <time>2021-12-28T09:00:10Z</time>
      </trkpt>
      <trkpt lat="37.6450530" lon="-4.0802430">
        <ele>494.4</ele>
        <time>2021-12-28T09:00:11Z</time>
      </trkpt>
      <trkpt lat="37.6450340" lon="-4.0803000">
        <ele>494.4</ele>
        <time>2021-12-28T09:00:12Z</time>
      </trkpt>
      <trkpt lat="37.6450110" lon="-4.0803560">
        <ele>494.4</ele>
        <time>2021-12-28T09:00:13Z</time>
      </trkpt>
      <trkpt lat="37.6449920" lon="-4.0804130">
        <ele>494.2</ele>
        <time>2021-12-28T09:00:14Z</time>
      </trkpt>
      <trkpt lat="37.6449700" lon="-4.0804680">
        <ele>494.2</ele>
        <time>2021-12-28T09:00:15Z</time>
      </trkpt>
      <trkpt lat="37.6449440" lon="-4.0805270">
        <ele>494.2</ele>
        <time>2021-12-28T09:00:16Z</time>
      </trkpt>
      <trkpt lat="37.6449220" lon="-4.0805850">
        <ele>494.0</ele>
        <time>2021-12-28T09:00:17Z</time>
      </trkpt>
      <trkpt lat="37.6448930" lon="-4.0806420">
        <ele>494.0</ele>
        <time>2021-12-28T09:00:18Z</time>
      </trkpt>
      <trkpt lat="37.6448670" lon="-4.0806980">
        <ele>493.8</ele>
        <time>2021-12-28T09:00:19Z</time>
      </trkpt>
      <trkpt lat="37.6448420" lon="-4.0807550">
        <ele>493.8</ele>
        <time>2021-12-28T09:00:20Z</time>
      </trkpt>
      <trkpt lat="37.6448100" lon="-4.0808140">
        <ele>493.8</ele>
        <time>2021-12-28T09:00:21Z</time>
      </trkpt>
      <trkpt lat="37.6447810" lon="-4.0808700">
        <ele>493.8</ele>
        <time>2021-12-28T09:00:22Z</time>
      </trkpt>
      <trkpt lat="37.6447460" lon="-4.0809270">
        <ele>493.8</ele>
        <time>2021-12-28T09:00:23Z</time>
      </trkpt>
      <trkpt lat="37.6447140" lon="-4.0809820">
        <ele>493.6</ele>
        <time>2021-12-28T09:00:24Z</time>
      </trkpt>
      <trkpt lat="37.6446850" lon="-4.0810360">
        <ele>493.6</ele>
        <time>2021-12-28T09:00:25Z</time>
      </trkpt>
      <trkpt lat="37.6446500" lon="-4.0810920">
        <ele>493.4</ele>
        <time>2021-12-28T09:00:26Z</time>
      </trkpt>
      <trkpt lat="37.6446110" lon="-4.0811450">
        <ele>493.4</ele>
        <time>2021-12-28T09:00:27Z</time>
      </trkpt>
      <trkpt lat="37.6445730" lon="-4.0811970">
        <ele>493.4</ele>
        <time>2021-12-28T09:00:28Z</time>
      </trkpt>
      <trkpt lat="37.6445310" lon="-4.0812500">
        <ele>493.2</ele>
        <time>2021-12-28T09:00:29Z</time>
      </trkpt>
      <trkpt lat="37.6444900" lon="-4.0813020">
        <ele>493.2</ele>
        <time>2021-12-28T09:00:30Z</time>
      </trkpt>
      <trkpt lat="37.6444480" lon="-4.0813530">
        <ele>493.2</ele>
        <time>2021-12-28T09:00:31Z</time>
      </trkpt>
      <trkpt lat="37.6444000" lon="-4.0814030">
        <ele>493.0</ele>
        <time>2021-12-28T09:00:32Z</time>
      </trkpt>
      <trkpt lat="37.6443550" lon="-4.0814530">
        <ele>493.0</ele>
        <time>2021-12-28T09:00:33Z</time>
      </trkpt>
      <trkpt lat="37.6443100" lon="-4.0815030">
        <ele>492.8</ele>
        <time>2021-12-28T09:00:34Z</time>
      </trkpt>
      <trkpt lat="37.6442590" lon="-4.0815550">
        <ele>492.8</ele>
        <time>2021-12-28T09:00:35Z</time>
      </trkpt>
      <trkpt lat="37.6442110" lon="-4.0816040">
        <ele>492.6</ele>
        <time>2021-12-28T09:00:36Z</time>
      </trkpt>
      <trkpt lat="37.6441600" lon="-4.0816520">
        <ele>492.6</ele>
        <time>2021-12-28T09:00:37Z</time>
      </trkpt>
      <trkpt lat="37.6441090" lon="-4.0816980">
        <ele>492.4</ele>
        <time>2021-12-28T09:00:38Z</time>
      </trkpt>
      <trkpt lat="37.6440580" lon="-4.0817430">
        <ele>492.4</ele>
        <time>2021-12-28T09:00:39Z</time>
      </trkpt>
      <trkpt lat="37.6440000" lon="-4.0817880">
        <ele>492.4</ele>
        <time>2021-12-28T09:00:40Z</time>
      </trkpt>
      <trkpt lat="37.6439490" lon="-4.0818320">
        <ele>492.2</ele>
        <time>2021-12-28T09:00:41Z</time>
      </trkpt>
      <trkpt lat="37.6438910" lon="-4.0818720">
        <ele>492.2</ele>
        <time>2021-12-28T09:00:42Z</time>
      </trkpt>
      <trkpt lat="37.6438340" lon="-4.0819100">
        <ele>492.0</ele>
        <time>2021-12-28T09:00:43Z</time>
      </trkpt>
      <trkpt lat="37.6437790" lon="-4.0819470">
        <ele>492.0</ele>
        <time>2021-12-28T09:00:44Z</time>
      </trkpt>
      <trkpt lat="37.6437220" lon="-4.0819840">
        <ele>491.8</ele>
        <time>2021-12-28T09:00:45Z</time>
      </trkpt>
      <trkpt lat="37.6436610" lon="-4.0820180">
        <ele>491.6</ele>
        <time>2021-12-28T09:00:46Z</time>
      </trkpt>
      <trkpt lat="37.6436030" lon="-4.0820520">
        <ele>491.6</ele>
        <time>2021-12-28T09:00:47Z</time>
      </trkpt>
      <trkpt lat="37.6435420" lon="-4.0820830">
        <ele>491.6</ele>
        <time>2021-12-28T09:00:48Z</time>
      </trkpt>
      <trkpt lat="37.6434850" lon="-4.0821120">
        <ele>491.4</ele>
        <time>2021-12-28T09:00:49Z</time>
      </trkpt>
      <trkpt lat="37.6434240" lon="-4.0821370">
        <ele>491.2</ele>
        <time>2021-12-28T09:00:50Z</time>
      </trkpt>
      <trkpt lat="37.6433600" lon="-4.0821620">
        <ele>491.2</ele>
        <time>2021-12-28T09:00:51Z</time>
      </trkpt>
      <trkpt lat="37.6432990" lon="-4.0821830">
        <ele>491.0</ele>
        <time>2021-12-28T09:00:52Z</time>
      </trkpt>
      <trkpt lat="37.6432350" lon="-4.0822050">
        <ele>491.0</ele>
        <time>2021-12-28T09:00:53Z</time>
      </trkpt>
      <trkpt lat="37.6431680" lon="-4.0822240">
        <ele>490.8</ele>
        <time>2021-12-28T09:00:54Z</time>
      </trkpt>
      <trkpt lat="37.6431070" lon="-4.0822420">
        <ele>490.8</ele>
        <time>2021-12-28T09:00:55Z</time>
      </trkpt>
      <trkpt lat="37.6430430" lon="-4.0822570">
        <ele>490.6</ele>
        <time>2021-12-28T09:00:56Z</time>
      </trkpt>
      <trkpt lat="37.6429760" lon="-4.0822720">
        <ele>490.6</ele>
        <time>2021-12-28T09:00:57Z</time>
      </trkpt>
      <trkpt lat="37.6429150" lon="-4.0822840">
        <ele>490.4</ele>
        <time>2021-12-28T09:00:58Z</time>
      </trkpt>
      <trkpt lat="37.6428510" lon="-4.0822940">
        <ele>490.2</ele>
        <time>2021-12-28T09:00:59Z</time>
      </trkpt>
      <trkpt lat="37.6427870" lon="-4.0823020">
        <ele>490.2</ele>
        <time>2021-12-28T09:01:00Z</time>
      </trkpt>
      <trkpt lat="37.6427260" lon="-4.0823100">
        <ele>490.0</ele>
        <time>2021-12-28T09:01:01Z</time>
      </trkpt>
      <trkpt lat="37.6426660" lon="-4.0823170">
        <ele>490.0</ele>
        <time>2021-12-28T09:01:02Z</time>
      </trkpt>
      <trkpt lat="37.6426050" lon="-4.0823240">
        <ele>489.8</ele>
        <time>2021-12-28T09:01:03Z</time>
      </trkpt>
      <trkpt lat="37.6425470" lon="-4.0823270">
        <ele>489.8</ele>
        <time>2021-12-28T09:01:04Z</time>
      </trkpt>
      <trkpt lat="37.6424860" lon="-4.0823280">
        <ele>489.8</ele>
        <time>2021-12-28T09:01:05Z</time>
      </trkpt>
      <trkpt lat="37.6424260" lon="-4.0823270">
        <ele>489.6</ele>
        <time>2021-12-28T09:01:06Z</time>
      </trkpt>
      <trkpt lat="37.6423680" lon="-4.0823250">
        <ele>489.6</ele>
        <time>2021-12-28T09:01:07Z</time>
      </trkpt>
      <trkpt lat="37.6423040" lon="-4.0823270">
        <ele>489.4</ele>
        <time>2021-12-28T09:01:08Z</time>
      </trkpt>
      <trkpt lat="37.6422430" lon="-4.0823280">
        <ele>489.4</ele>
        <time>2021-12-28T09:01:09Z</time>
      </trkpt>
      <trkpt lat="37.6421820" lon="-4.0823300">
        <ele>489.2</ele>
        <time>2021-12-28T09:01:10Z</time>
      </trkpt>
      <trkpt lat="37.6421150" lon="-4.0823300">
        <ele>489.0</ele>
        <time>2021-12-28T09:01:11Z</time>
      </trkpt>
      <trkpt lat="37.6420540" lon="-4.0823300">
        <ele>488.8</ele>
        <time>2021-12-28T09:01:12Z</time>
      </trkpt>
      <trkpt lat="37.6419940" lon="-4.0823300">
        <ele>488.8</ele>
        <time>2021-12-28T09:01:13Z</time>
      </trkpt>
      <trkpt lat="37.6419300" lon="-4.0823300">
        <ele>488.6</ele>
        <time>2021-12-28T09:01:14Z</time>
      </trkpt>
      <trkpt lat="37.6418660" lon="-4.0823300">
        <ele>488.6</ele>
        <time>2021-12-28T09:01:15Z</time>
      </trkpt>
      <trkpt lat="37.6417980" lon="-4.0823300">
        <ele>488.6</ele>
        <time>2021-12-28T09:01:16Z</time>
      </trkpt>
      <trkpt lat="37.6417310" lon="-4.0823300">
        <ele>488.4</ele>
        <time>2021-12-28T09:01:17Z</time>
      </trkpt>
      <trkpt lat="37.6416640" lon="-4.0823300">
        <ele>488.4</ele>
        <time>2021-12-28T09:01:18Z</time>
      </trkpt>
      <trkpt lat="37.6415900" lon="-4.0823300">
        <ele>488.4</ele>
        <time>2021-12-28T09:01:19Z</time>
      </trkpt>
      <trkpt lat="37.6415170" lon="-4.0823300">
        <ele>488.2</ele>
        <time>2021-12-28T09:01:20Z</time>
      </trkpt>
      <trkpt lat="37.6414460" lon="-4.0823300">
        <ele>488.2</ele>
        <time>2021-12-28T09:01:21Z</time>
      </trkpt>
      <trkpt lat="37.6413760" lon="-4.0823300">
        <ele>488.0</ele>
        <time>2021-12-28T09:01:22Z</time>
      </trkpt>
      <trkpt lat="37.6413090" lon="-4.0823320">
        <ele>488.0</ele>
        <time>2021-12-28T09:01:23Z</time>
      </trkpt>
      <trkpt lat="37.6412350" lon="-4.0823320">
        <ele>487.8</ele>
        <time>2021-12-28T09:01:24Z</time>
      </trkpt>
      <trkpt lat="37.6411680" lon="-4.0823320">
        <ele>487.8</ele>
        <time>2021-12-28T09:01:25Z</time>
      </trkpt>
      <trkpt lat="37.6411010" lon="-4.0823300">
        <ele>487.6</ele>
        <time>2021-12-28T09:01:26Z</time>
      </trkpt>
      <trkpt lat="37.6410340" lon="-4.0823320">
        <ele>487.6</ele>
        <time>2021-12-28T09:01:27Z</time>
      </trkpt>
      <trkpt lat="37.6409700" lon="-4.0823320">
        <ele>487.4</ele>
        <time>2021-12-28T09:01:28Z</time>
      </trkpt>
      <trkpt lat="37.6409020" lon="-4.0823300">
        <ele>487.4</ele>
        <time>2021-12-28T09:01:29Z</time>
      </trkpt>
      <trkpt lat="37.6408380" lon="-4.0823320">
        <ele>487.2</ele>
        <time>2021-12-28T09:01:30Z</time>
      </trkpt>
      <trkpt lat="37.6407780" lon="-4.0823320">
        <ele>487.0</ele>
        <time>2021-12-28T09:01:31Z</time>
      </trkpt>
      <trkpt lat="37.6407170" lon="-4.0823340">
        <ele>487.0</ele>
        <time>2021-12-28T09:01:32Z</time>
      </trkpt>
      <trkpt lat="37.6406560" lon="-4.0823320">
        <ele>486.8</ele>
        <time>2021-12-28T09:01:33Z</time>
      </trkpt>
      <trkpt lat="37.6405980" lon="-4.0823320">
        <ele>486.8</ele>
        <time>2021-12-28T09:01:34Z</time>
      </trkpt>
      <trkpt lat="37.6405380" lon="-4.0823320">
        <ele>486.6</ele>
        <time>2021-12-28T09:01:35Z</time>
      </trkpt>
      <trkpt lat="37.6404800" lon="-4.0823340">
        <ele>486.4</ele>
        <time>2021-12-28T09:01:36Z</time>
      </trkpt>
      <trkpt lat="37.6404260" lon="-4.0823350">
        <ele>486.4</ele>
        <time>2021-12-28T09:01:37Z</time>
      </trkpt>
      <trkpt lat="37.6403780" lon="-4.0823340">
        <ele>486.2</ele>
        <time>2021-12-28T09:01:38Z</time>
      </trkpt>
      <trkpt lat="37.6403360" lon="-4.0823340">
        <ele>486.4</ele>
        <time>2021-12-28T09:01:39Z</time>
      </trkpt>
      <trkpt lat="37.6403010" lon="-4.0823340">
        <ele>486.4</ele>
        <time>2021-12-28T09:01:40Z</time>
      </trkpt>
      <trkpt lat="37.6402690" lon="-4.0823380">
        <ele>486.4</ele>
        <time>2021-12-28T09:01:41Z</time>
      </trkpt>
      <trkpt lat="37.6402500" lon="-4.0823380">
        <ele>486.2</ele>
        <time>2021-12-28T09:01:42Z</time>
      </trkpt>
      <trkpt lat="37.6402500" lon="-4.0823380">
        <ele>486.2</ele>
        <time>2021-12-28T09:01:43Z</time>
      </trkpt>
      <trkpt lat="37.6402270" lon="-4.0823400">
        <ele>486.0</ele>
        <time>2021-12-28T09:01:44Z</time>
      </trkpt>
      <trkpt lat="37.6402270" lon="-4.0823400">
        <ele>486.0</ele>
        <time>2021-12-28T09:01:45Z</time>
      </trkpt>
      <trkpt lat="37.6402270" lon="-4.0823400">
        <ele>485.8</ele>
        <time>2021-12-28T09:01:46Z</time>
      </trkpt>
      <trkpt lat="37.6402270" lon="-4.0823400">
        <ele>485.8</ele>
        <time>2021-12-28T09:01:47Z</time>
      </trkpt>
      <trkpt lat="37.6402270" lon="-4.0823400">
        <ele>485.6</ele>
        <time>2021-12-28T09:01:48Z</time>
      </trkpt>
      <trkpt lat="37.6401250" lon="-4.0823280">
        <ele>483.2</ele>
        <time>2021-12-28T09:03:47Z</time>
      </trkpt>
      <trkpt lat="37.6400990" lon="-4.0823270">
        <ele>483.2</ele>
        <time>2021-12-28T09:03:48Z</time>
      </trkpt>
      <trkpt lat="37.6400670" lon="-4.0823270">
        <ele>483.2</ele>
        <time>2021-12-28T09:03:49Z</time>
      </trkpt>
      <trkpt lat="37.6400380" lon="-4.0823280">
        <ele>483.2</ele>
        <time>2021-12-28T09:03:50Z</time>
      </trkpt>
      <trkpt lat="37.6400030" lon="-4.0823250">
        <ele>483.0</ele>
        <time>2021-12-28T09:03:51Z</time>
      </trkpt>
      <trkpt lat="37.6399680" lon="-4.0823250">
        <ele>483.0</ele>
        <time>2021-12-28T09:03:52Z</time>
      </trkpt>
      <trkpt lat="37.6399390" lon="-4.0823270">
        <ele>483.0</ele>
        <time>2021-12-28T09:03:53Z</time>
      </trkpt>
      <trkpt lat="37.6399040" lon="-4.0823270">
        <ele>483.0</ele>
        <time>2021-12-28T09:03:54Z</time>
      </trkpt>
      <trkpt lat="37.6398720" lon="-4.0823280">
        <ele>483.0</ele>
        <time>2021-12-28T09:03:55Z</time>
      </trkpt>
      <trkpt lat="37.6398370" lon="-4.0823280">
        <ele>482.8</ele>
        <time>2021-12-28T09:03:56Z</time>
      </trkpt>
      <trkpt lat="37.6398020" lon="-4.0823300">
        <ele>482.8</ele>
        <time>2021-12-28T09:03:57Z</time>
      </trkpt>
      <trkpt lat="37.6397660" lon="-4.0823320">
        <ele>482.8</ele>
        <time>2021-12-28T09:03:58Z</time>
      </trkpt>
      <trkpt lat="37.6397280" lon="-4.0823340">
        <ele>482.8</ele>
        <time>2021-12-28T09:03:59Z</time>
      </trkpt>
      <trkpt lat="37.6396900" lon="-4.0823360">
        <ele>482.6</ele>
        <time>2021-12-28T09:04:00Z</time>
      </trkpt>
      <trkpt lat="37.6396510" lon="-4.0823360">
        <ele>482.6</ele>
        <time>2021-12-28T09:04:01Z</time>
      </trkpt>
      <trkpt lat="37.6396130" lon="-4.0823400">
        <ele>482.6</ele>
        <time>2021-12-28T09:04:02Z</time>
      </trkpt>
      <trkpt lat="37.6395810" lon="-4.0823420">
        <ele>482.6</ele>
        <time>2021-12-28T09:04:03Z</time>
      </trkpt>
      <trkpt lat="37.6395390" lon="-4.0823420">
        <ele>482.6</ele>
        <time>2021-12-28T09:04:04Z</time>
      </trkpt>
      <trkpt lat="37.6395010" lon="-4.0823400">
        <ele>482.6</ele>
        <time>2021-12-28T09:04:05Z</time>
      </trkpt>
      <trkpt lat="37.6394620" lon="-4.0823380">
        <ele>482.6</ele>
        <time>2021-12-28T09:04:06Z</time>
      </trkpt>
      <trkpt lat="37.6394210" lon="-4.0823380">
        <ele>482.6</ele>
        <time>2021-12-28T09:04:07Z</time>
      </trkpt>
      <trkpt lat="37.6393820" lon="-4.0823380">
        <ele>482.4</ele>
        <time>2021-12-28T09:04:08Z</time>
      </trkpt>
      <trkpt lat="37.6393410" lon="-4.0823400">
        <ele>482.4</ele>
        <time>2021-12-28T09:04:09Z</time>
      </trkpt>
      <trkpt lat="37.6392960" lon="-4.0823400">
        <ele>482.2</ele>
        <time>2021-12-28T09:04:10Z</time>
      </trkpt>
      <trkpt lat="37.6392510" lon="-4.0823430">
        <ele>482.2</ele>
        <time>2021-12-28T09:04:11Z</time>
      </trkpt>
      <trkpt lat="37.6392130" lon="-4.0823430">
        <ele>482.2</ele>
        <time>2021-12-28T09:04:12Z</time>
      </trkpt>
      <trkpt lat="37.6391710" lon="-4.0823450">
        <ele>482.2</ele>
        <time>2021-12-28T09:04:13Z</time>
      </trkpt>
      <trkpt lat="37.6391260" lon="-4.0823450">
        <ele>482.2</ele>
        <time>2021-12-28T09:04:14Z</time>
      </trkpt>
      <trkpt lat="37.6390850" lon="-4.0823460">
        <ele>482.2</ele>
        <time>2021-12-28T09:04:15Z</time>
      </trkpt>
      <trkpt lat="37.6390370" lon="-4.0823460">
        <ele>482.0</ele>
        <time>2021-12-28T09:04:16Z</time>
      </trkpt>
      <trkpt lat="37.6389950" lon="-4.0823450">
        <ele>482.0</ele>
        <time>2021-12-28T09:04:17Z</time>
      </trkpt>
      <trkpt lat="37.6389540" lon="-4.0823450">
        <ele>482.0</ele>
        <time>2021-12-28T09:04:18Z</time>
      </trkpt>
      <trkpt lat="37.6389120" lon="-4.0823480">
        <ele>482.0</ele>
        <time>2021-12-28T09:04:19Z</time>
      </trkpt>
      <trkpt lat="37.6388700" lon="-4.0823520">
        <ele>481.8</ele>
        <time>2021-12-28T09:04:20Z</time>
      </trkpt>
      <trkpt lat="37.6388260" lon="-4.0823500">
        <ele>481.8</ele>
        <time>2021-12-28T09:04:21Z</time>
      </trkpt>
      <trkpt lat="37.6387840" lon="-4.0823500">
        <ele>481.8</ele>
        <time>2021-12-28T09:04:22Z</time>
      </trkpt>
      <trkpt lat="37.6387390" lon="-4.0823520">
        <ele>481.8</ele>
        <time>2021-12-28T09:04:23Z</time>
      </trkpt>
      <trkpt lat="37.6386940" lon="-4.0823520">
        <ele>481.8</ele>
        <time>2021-12-28T09:04:24Z</time>
      </trkpt>
      <trkpt lat="37.6386530" lon="-4.0823500">
        <ele>481.8</ele>
        <time>2021-12-28T09:04:25Z</time>
      </trkpt>
      <trkpt lat="37.6386110" lon="-4.0823480">
        <ele>481.8</ele>
        <time>2021-12-28T09:04:26Z</time>
      </trkpt>
      <trkpt lat="37.6385700" lon="-4.0823480">
        <ele>481.8</ele>
        <time>2021-12-28T09:04:27Z</time>
      </trkpt>
      <trkpt lat="37.6385310" lon="-4.0823480">
        <ele>481.8</ele>
        <time>2021-12-28T09:04:28Z</time>
      </trkpt>
      <trkpt lat="37.6384930" lon="-4.0823460">
        <ele>481.6</ele>
        <time>2021-12-28T09:04:29Z</time>
      </trkpt>
      <trkpt lat="37.6384580" lon="-4.0823430">
        <ele>481.6</ele>
        <time>2021-12-28T09:04:30Z</time>
      </trkpt>
      <trkpt lat="37.6384220" lon="-4.0823420">
        <ele>481.6</ele>
        <time>2021-12-28T09:04:31Z</time>
      </trkpt>
      <trkpt lat="37.6383970" lon="-4.0823400">
        <ele>481.6</ele>
        <time>2021-12-28T09:04:32Z</time>
      </trkpt>
      <trkpt lat="37.6383680" lon="-4.0823380">
        <ele>481.6</ele>
        <time>2021-12-28T09:04:33Z</time>
      </trkpt>
      <trkpt lat="37.6383390" lon="-4.0823380">
        <ele>481.6</ele>
        <time>2021-12-28T09:04:34Z</time>
      </trkpt>
      <trkpt lat="37.6383070" lon="-4.0823380">
        <ele>481.4</ele>
        <time>2021-12-28T09:04:35Z</time>
      </trkpt>
      <trkpt lat="37.6382750" lon="-4.0823400">
        <ele>481.4</ele>
        <time>2021-12-28T09:04:36Z</time>
      </trkpt>
      <trkpt lat="37.6382370" lon="-4.0823420">
        <ele>481.4</ele>
        <time>2021-12-28T09:04:37Z</time>
      </trkpt>
      <trkpt lat="37.6382020" lon="-4.0823430">
        <ele>481.4</ele>
        <time>2021-12-28T09:04:38Z</time>
      </trkpt>
      <trkpt lat="37.6381700" lon="-4.0823450">
        <ele>481.4</ele>
        <time>2021-12-28T09:04:39Z</time>
      </trkpt>
      <trkpt lat="37.6381340" lon="-4.0823450">
        <ele>481.4</ele>
        <time>2021-12-28T09:04:40Z</time>
      </trkpt>
      <trkpt lat="37.6380990" lon="-4.0823430">
        <ele>481.4</ele>
        <time>2021-12-28T09:04:41Z</time>
      </trkpt>
      <trkpt lat="37.6380610" lon="-4.0823460">
        <ele>481.4</ele>
        <time>2021-12-28T09:04:42Z</time>
      </trkpt>
      <trkpt lat="37.6380260" lon="-4.0823460">
        <ele>481.4</ele>
        <time>2021-12-28T09:04:43Z</time>
      </trkpt>
      <trkpt lat="37.6379940" lon="-4.0823480">
        <ele>481.4</ele>
        <time>2021-12-28T09:04:44Z</time>
      </trkpt>
      <trkpt lat="37.6379580" lon="-4.0823480">
        <ele>481.4</ele>
        <time>2021-12-28T09:04:45Z</time>
      </trkpt>
      <trkpt lat="37.6379230" lon="-4.0823500">
        <ele>481.6</ele>
        <time>2021-12-28T09:04:46Z</time>
      </trkpt>
      <trkpt lat="37.6378910" lon="-4.0823520">
        <ele>481.6</ele>
        <time>2021-12-28T09:04:47Z</time>
      </trkpt>
      <trkpt lat="37.6378590" lon="-4.0823520">
        <ele>481.8</ele>
        <time>2021-12-28T09:04:48Z</time>
      </trkpt>
      <trkpt lat="37.6378240" lon="-4.0823520">
        <ele>481.8</ele>
        <time>2021-12-28T09:04:49Z</time>
      </trkpt>
      <trkpt lat="37.6377920" lon="-4.0823520">
        <ele>482.0</ele>
        <time>2021-12-28T09:04:50Z</time>
      </trkpt>
      <trkpt lat="37.6377600" lon="-4.0823480">
        <ele>482.0</ele>
        <time>2021-12-28T09:04:51Z</time>
      </trkpt>
      <trkpt lat="37.6377250" lon="-4.0823460">
        <ele>482.0</ele>
        <time>2021-12-28T09:04:52Z</time>
      </trkpt>
      <trkpt lat="37.6376930" lon="-4.0823460">
        <ele>482.0</ele>
        <time>2021-12-28T09:04:53Z</time>
      </trkpt>
      <trkpt lat="37.6376540" lon="-4.0823460">
        <ele>482.2</ele>
        <time>2021-12-28T09:04:54Z</time>
      </trkpt>
      <trkpt lat="37.6376160" lon="-4.0823480">
        <ele>482.2</ele>
        <time>2021-12-28T09:04:55Z</time>
      </trkpt>
      <trkpt lat="37.6375810" lon="-4.0823480">
        <ele>482.2</ele>
        <time>2021-12-28T09:04:56Z</time>
      </trkpt>
      <trkpt lat="37.6375420" lon="-4.0823480">
        <ele>482.2</ele>
        <time>2021-12-28T09:04:57Z</time>
      </trkpt>
      <trkpt lat="37.6375070" lon="-4.0823480">
        <ele>482.2</ele>
        <time>2021-12-28T09:04:58Z</time>
      </trkpt>
      <trkpt lat="37.6374690" lon="-4.0823460">
        <ele>482.2</ele>
        <time>2021-12-28T09:04:59Z</time>
      </trkpt>
      <trkpt lat="37.6374340" lon="-4.0823480">
        <ele>482.0</ele>
        <time>2021-12-28T09:05:00Z</time>
      </trkpt>
      <trkpt lat="37.6373950" lon="-4.0823500">
        <ele>482.0</ele>
        <time>2021-12-28T09:05:01Z</time>
      </trkpt>
      <trkpt lat="37.6373600" lon="-4.0823500">
        <ele>482.0</ele>
        <time>2021-12-28T09:05:02Z</time>
      </trkpt>
      <trkpt lat="37.6373220" lon="-4.0823500">
        <ele>482.0</ele>
        <time>2021-12-28T09:05:03Z</time>
      </trkpt>
      <trkpt lat="37.6372830" lon="-4.0823520">
        <ele>482.0</ele>
        <time>2021-12-28T09:05:04Z</time>
      </trkpt>
      <trkpt lat="37.6372450" lon="-4.0823520">
        <ele>482.0</ele>
        <time>2021-12-28T09:05:05Z</time>
      </trkpt>
      <trkpt lat="37.6372060" lon="-4.0823530">
        <ele>482.0</ele>
        <time>2021-12-28T09:05:06Z</time>
      </trkpt>
      <trkpt lat="37.6371680" lon="-4.0823530">
        <ele>482.0</ele>
        <time>2021-12-28T09:05:07Z</time>
      </trkpt>
      <trkpt lat="37.6371300" lon="-4.0823530">
        <ele>482.0</ele>
        <time>2021-12-28T09:05:08Z</time>
      </trkpt>
      <trkpt lat="37.6370910" lon="-4.0823530">
        <ele>482.0</ele>
        <time>2021-12-28T09:05:09Z</time>
      </trkpt>
      <trkpt lat="37.6370560" lon="-4.0823530">
        <ele>481.8</ele>
        <time>2021-12-28T09:05:10Z</time>
      </trkpt>
      <trkpt lat="37.6370110" lon="-4.0823530">
        <ele>481.8</ele>
        <time>2021-12-28T09:05:11Z</time>
      </trkpt>
      <trkpt lat="37.6369730" lon="-4.0823530">
        <ele>481.8</ele>
        <time>2021-12-28T09:05:12Z</time>
      </trkpt>
      <trkpt lat="37.6369310" lon="-4.0823560">
        <ele>481.8</ele>
        <time>2021-12-28T09:05:13Z</time>
      </trkpt>
      <trkpt lat="37.6368900" lon="-4.0823560">
        <ele>481.8</ele>
        <time>2021-12-28T09:05:14Z</time>
      </trkpt>
      <trkpt lat="37.6368510" lon="-4.0823600">
        <ele>481.8</ele>
        <time>2021-12-28T09:05:15Z</time>
      </trkpt>
      <trkpt lat="37.6368130" lon="-4.0823600">
        <ele>481.8</ele>
        <time>2021-12-28T09:05:16Z</time>
      </trkpt>
      <trkpt lat="37.6367710" lon="-4.0823580">
        <ele>481.8</ele>
        <time>2021-12-28T09:05:17Z</time>
      </trkpt>
      <trkpt lat="37.6367300" lon="-4.0823600">
        <ele>481.8</ele>
        <time>2021-12-28T09:05:18Z</time>
      </trkpt>
      <trkpt lat="37.6366880" lon="-4.0823580">
        <ele>481.8</ele>
        <time>2021-12-28T09:05:19Z</time>
      </trkpt>
      <trkpt lat="37.6366500" lon="-4.0823580">
        <ele>481.8</ele>
        <time>2021-12-28T09:05:20Z</time>
      </trkpt>
      <trkpt lat="37.6366140" lon="-4.0823600">
        <ele>481.8</ele>
        <time>2021-12-28T09:05:21Z</time>
      </trkpt>
      <trkpt lat="37.6365790" lon="-4.0823620">
        <ele>481.8</ele>
        <time>2021-12-28T09:05:22Z</time>
      </trkpt>
      <trkpt lat="37.6365440" lon="-4.0823630">
        <ele>481.8</ele>
        <time>2021-12-28T09:05:23Z</time>
      </trkpt>
      <trkpt lat="37.6365120" lon="-4.0823620">
        <ele>481.6</ele>
        <time>2021-12-28T09:05:24Z</time>
      </trkpt>
      <trkpt lat="37.6364800" lon="-4.0823620">
        <ele>481.6</ele>
        <time>2021-12-28T09:05:25Z</time>
      </trkpt>
      <trkpt lat="37.6364480" lon="-4.0823600">
        <ele>481.6</ele>
        <time>2021-12-28T09:05:26Z</time>
      </trkpt>
      <trkpt lat="37.6364160" lon="-4.0823630">
        <ele>481.4</ele>
        <time>2021-12-28T09:05:27Z</time>
      </trkpt>
      <trkpt lat="37.6363900" lon="-4.0823650">
        <ele>481.4</ele>
        <time>2021-12-28T09:05:28Z</time>
      </trkpt>
      <trkpt lat="37.6363680" lon="-4.0823700">
        <ele>481.4</ele>
        <time>2021-12-28T09:05:29Z</time>
      </trkpt>
      <trkpt lat="37.6363460" lon="-4.0823730">
        <ele>481.4</ele>
        <time>2021-12-28T09:05:30Z</time>
      </trkpt>
      <trkpt lat="37.6363460" lon="-4.0823730">
        <ele>481.2</ele>
        <time>2021-12-28T09:05:31Z</time>
      </trkpt>
      <trkpt lat="37.6363140" lon="-4.0823760">
        <ele>481.2</ele>
        <time>2021-12-28T09:05:32Z</time>
      </trkpt>
      <trkpt lat="37.6363140" lon="-4.0823760">
        <ele>481.2</ele>
        <time>2021-12-28T09:05:33Z</time>
      </trkpt>
      <trkpt lat="37.6362910" lon="-4.0823860">
        <ele>481.2</ele>
        <time>2021-12-28T09:05:34Z</time>
      </trkpt>
      <trkpt lat="37.6362910" lon="-4.0823860">
        <ele>481.0</ele>
        <time>2021-12-28T09:05:35Z</time>
      </trkpt>
      <trkpt lat="37.6362910" lon="-4.0823860">
        <ele>481.0</ele>
        <time>2021-12-28T09:05:36Z</time>
      </trkpt>
      <trkpt lat="37.6362720" lon="-4.0823900">
        <ele>481.0</ele>
        <time>2021-12-28T09:05:37Z</time>
      </trkpt>
      <trkpt lat="37.6362720" lon="-4.0823900">
        <ele>481.0</ele>
        <time>2021-12-28T09:05:38Z</time>
      </trkpt>
      <trkpt lat="37.6362720" lon="-4.0823900">
        <ele>481.0</ele>
        <time>2021-12-28T09:05:39Z</time>
      </trkpt>
      <trkpt lat="37.6362720" lon="-4.0823900">
        <ele>480.6</ele>
        <time>2021-12-28T09:05:46Z</time>
      </trkpt>
      <trkpt lat="37.6363900" lon="-4.0823760">
        <ele>480.6</ele>
        <time>2021-12-28T09:05:47Z</time>
      </trkpt>
      <trkpt lat="37.6363900" lon="-4.0823760">
        <ele>480.6</ele>
        <time>2021-12-28T09:05:48Z</time>
      </trkpt>
      <trkpt lat="37.6364220" lon="-4.0823700">
        <ele>480.6</ele>
        <time>2021-12-28T09:05:49Z</time>
      </trkpt>
      <trkpt lat="37.6364220" lon="-4.0823700">
        <ele>480.6</ele>
        <time>2021-12-28T09:05:50Z</time>
      </trkpt>
      <trkpt lat="37.6364220" lon="-4.0823700">
        <ele>480.6</ele>
        <time>2021-12-28T09:05:51Z</time>
      </trkpt>
      <trkpt lat="37.6364220" lon="-4.0823700">
        <ele>480.6</ele>
        <time>2021-12-28T09:05:52Z</time>
      </trkpt>
      <trkpt lat="37.6364220" lon="-4.0823700">
        <ele>480.8</ele>
        <time>2021-12-28T09:05:53Z</time>
      </trkpt>
      <trkpt lat="37.6364220" lon="-4.0823700">
        <ele>480.8</ele>
        <time>2021-12-28T09:05:54Z</time>
      </trkpt>
      <trkpt lat="37.6363550" lon="-4.0823800">
        <ele>483.0</ele>
        <time>2021-12-28T09:10:11Z</time>
      </trkpt>
      <trkpt lat="37.6363550" lon="-4.0823800">
        <ele>482.8</ele>
        <time>2021-12-28T09:10:12Z</time>
      </trkpt>
      <trkpt lat="37.6363330" lon="-4.0823780">
        <ele>482.8</ele>
        <time>2021-12-28T09:10:13Z</time>
      </trkpt>
      <trkpt lat="37.6363330" lon="-4.0823780">
        <ele>482.6</ele>
        <time>2021-12-28T09:10:14Z</time>
      </trkpt>
      <trkpt lat="37.6363070" lon="-4.0823800">
        <ele>482.6</ele>
        <time>2021-12-28T09:10:15Z</time>
      </trkpt>
      <trkpt lat="37.6363070" lon="-4.0823800">
        <ele>482.6</ele>
        <time>2021-12-28T09:10:16Z</time>
      </trkpt>
      <trkpt lat="37.6362820" lon="-4.0823800">
        <ele>482.6</ele>
        <time>2021-12-28T09:10:17Z</time>
      </trkpt>
      <trkpt lat="37.6362820" lon="-4.0823800">
        <ele>482.6</ele>
        <time>2021-12-28T09:10:18Z</time>
      </trkpt>
      <trkpt lat="37.6362530" lon="-4.0823820">
        <ele>482.4</ele>
        <time>2021-12-28T09:10:19Z</time>
      </trkpt>
      <trkpt lat="37.6362530" lon="-4.0823820">
        <ele>482.4</ele>
        <time>2021-12-28T09:10:20Z</time>
      </trkpt>
      <trkpt lat="37.6362270" lon="-4.0823780">
        <ele>482.4</ele>
        <time>2021-12-28T09:10:21Z</time>
      </trkpt>
      <trkpt lat="37.6362270" lon="-4.0823780">
        <ele>482.4</ele>
        <time>2021-12-28T09:10:22Z</time>
      </trkpt>
      <trkpt lat="37.6362080" lon="-4.0823780">
        <ele>482.4</ele>
        <time>2021-12-28T09:10:23Z</time>
      </trkpt>
      <trkpt lat="37.6362080" lon="-4.0823780">
        <ele>482.2</ele>
        <time>2021-12-28T09:10:24Z</time>
      </trkpt>
      <trkpt lat="37.6362080" lon="-4.0823780">
        <ele>482.2</ele>
        <time>2021-12-28T09:10:25Z</time>
      </trkpt>
      <trkpt lat="37.6362080" lon="-4.0823780">
        <ele>482.0</ele>
        <time>2021-12-28T09:10:26Z</time>
      </trkpt>
      <trkpt lat="37.6362080" lon="-4.0823780">
        <ele>482.0</ele>
        <time>2021-12-28T09:10:27Z</time>
      </trkpt>
      <trkpt lat="37.6362080" lon="-4.0823780">
        <ele>482.0</ele>
        <time>2021-12-28T09:10:28Z</time>
      </trkpt>
      <trkpt lat="37.6360740" lon="-4.0823820">
        <ele>481.6</ele>
        <time>2021-12-28T09:17:38Z</time>
      </trkpt>
      <trkpt lat="37.6360480" lon="-4.0823830">
        <ele>481.4</ele>
        <time>2021-12-28T09:17:39Z</time>
      </trkpt>
      <trkpt lat="37.6360190" lon="-4.0823850">
        <ele>481.4</ele>
        <time>2021-12-28T09:17:40Z</time>
      </trkpt>
      <trkpt lat="37.6359900" lon="-4.0823880">
        <ele>481.4</ele>
        <time>2021-12-28T09:17:41Z</time>
      </trkpt>
      <trkpt lat="37.6359580" lon="-4.0823860">
        <ele>481.4</ele>
        <time>2021-12-28T09:17:42Z</time>
      </trkpt>
      <trkpt lat="37.6359260" lon="-4.0823850">
        <ele>481.2</ele>
        <time>2021-12-28T09:17:43Z</time>
      </trkpt>
      <trkpt lat="37.6359040" lon="-4.0823830">
        <ele>481.2</ele>
        <time>2021-12-28T09:17:44Z</time>
      </trkpt>
      <trkpt lat="37.6358750" lon="-4.0823860">
        <ele>481.2</ele>
        <time>2021-12-28T09:17:45Z</time>
      </trkpt>
      <trkpt lat="37.6358500" lon="-4.0823880">
        <ele>481.2</ele>
        <time>2021-12-28T09:17:46Z</time>
      </trkpt>
      <trkpt lat="37.6358270" lon="-4.0823860">
        <ele>481.0</ele>
        <time>2021-12-28T09:17:47Z</time>
      </trkpt>
      <trkpt lat="37.6357950" lon="-4.0823860">
        <ele>481.0</ele>
        <time>2021-12-28T09:17:48Z</time>
      </trkpt>
      <trkpt lat="37.6357700" lon="-4.0823880">
        <ele>481.0</ele>
        <time>2021-12-28T09:17:49Z</time>
      </trkpt>
      <trkpt lat="37.6357380" lon="-4.0823860">
        <ele>481.0</ele>
        <time>2021-12-28T09:17:50Z</time>
      </trkpt>
      <trkpt lat="37.6357090" lon="-4.0823860">
        <ele>481.0</ele>
        <time>2021-12-28T09:17:51Z</time>
      </trkpt>
      <trkpt lat="37.6356740" lon="-4.0823860">
        <ele>481.0</ele>
        <time>2021-12-28T09:17:52Z</time>
      </trkpt>
      <trkpt lat="37.6356420" lon="-4.0823880">
        <ele>481.2</ele>
        <time>2021-12-28T09:17:53Z</time>
      </trkpt>
      <trkpt lat="37.6356060" lon="-4.0823860">
        <ele>481.2</ele>
        <time>2021-12-28T09:17:54Z</time>
      </trkpt>
      <trkpt lat="37.6355710" lon="-4.0823860">
        <ele>481.2</ele>
        <time>2021-12-28T09:17:55Z</time>
      </trkpt>
      <trkpt lat="37.6355360" lon="-4.0823880">
        <ele>481.2</ele>
        <time>2021-12-28T09:17:56Z</time>
      </trkpt>
      <trkpt lat="37.6355010" lon="-4.0823900">
        <ele>481.2</ele>
        <time>2021-12-28T09:17:57Z</time>
      </trkpt>
      <trkpt lat="37.6354720" lon="-4.0823900">
        <ele>481.2</ele>
        <time>2021-12-28T09:17:58Z</time>
      </trkpt>
      <trkpt lat="37.6354370" lon="-4.0823900">
        <ele>481.2</ele>
        <time>2021-12-28T09:17:59Z</time>
      </trkpt>
      <trkpt lat="37.6354080" lon="-4.0823920">
        <ele>481.2</ele>
        <time>2021-12-28T09:18:00Z</time>
      </trkpt>
      <trkpt lat="37.6353760" lon="-4.0823950">
        <ele>481.2</ele>
        <time>2021-12-28T09:18:01Z</time>
      </trkpt>
      <trkpt lat="37.6353500" lon="-4.0823950">
        <ele>481.2</ele>
        <time>2021-12-28T09:18:02Z</time>
      </trkpt>
      <trkpt lat="37.6353180" lon="-4.0823950">
        <ele>481.2</ele>
        <time>2021-12-28T09:18:03Z</time>
      </trkpt>
      <trkpt lat="37.6352900" lon="-4.0823950">
        <ele>481.2</ele>
        <time>2021-12-28T09:18:04Z</time>
      </trkpt>
      <trkpt lat="37.6352580" lon="-4.0823950">
        <ele>481.0</ele>
        <time>2021-12-28T09:18:05Z</time>
      </trkpt>
      <trkpt lat="37.6352220" lon="-4.0823960">
        <ele>481.0</ele>
        <time>2021-12-28T09:18:06Z</time>
      </trkpt>
      <trkpt lat="37.6351900" lon="-4.0823980">
        <ele>481.0</ele>
        <time>2021-12-28T09:18:07Z</time>
      </trkpt>
      <trkpt lat="37.6351580" lon="-4.0823980">
        <ele>481.0</ele>
        <time>2021-12-28T09:18:08Z</time>
      </trkpt>
      <trkpt lat="37.6351300" lon="-4.0824000">
        <ele>481.0</ele>
        <time>2021-12-28T09:18:09Z</time>
      </trkpt>
      <trkpt lat="37.6350980" lon="-4.0824020">
        <ele>481.0</ele>
        <time>2021-12-28T09:18:10Z</time>
      </trkpt>
      <trkpt lat="37.6350660" lon="-4.0824020">
        <ele>481.0</ele>
        <time>2021-12-28T09:18:11Z</time>
      </trkpt>
      <trkpt lat="37.6350370" lon="-4.0824030">
        <ele>481.0</ele>
        <time>2021-12-28T09:18:12Z</time>
      </trkpt>
      <trkpt lat="37.6350110" lon="-4.0824030">
        <ele>480.8</ele>
        <time>2021-12-28T09:18:13Z</time>
      </trkpt>
      <trkpt lat="37.6349790" lon="-4.0824030">
        <ele>480.8</ele>
        <time>2021-12-28T09:18:14Z</time>
      </trkpt>
      <trkpt lat="37.6349470" lon="-4.0824030">
        <ele>480.6</ele>
        <time>2021-12-28T09:18:15Z</time>
      </trkpt>
      <trkpt lat="37.6349180" lon="-4.0824030">
        <ele>480.6</ele>
        <time>2021-12-28T09:18:16Z</time>
      </trkpt>
      <trkpt lat="37.6348860" lon="-4.0824050">
        <ele>480.6</ele>
        <time>2021-12-28T09:18:17Z</time>
      </trkpt>
      <trkpt lat="37.6348610" lon="-4.0824050">
        <ele>480.6</ele>
        <time>2021-12-28T09:18:18Z</time>
      </trkpt>
      <trkpt lat="37.6348350" lon="-4.0824060">
        <ele>480.6</ele>
        <time>2021-12-28T09:18:19Z</time>
      </trkpt>
      <trkpt lat="37.6348030" lon="-4.0824060">
        <ele>480.6</ele>
        <time>2021-12-28T09:18:20Z</time>
      </trkpt>
      <trkpt lat="37.6347780" lon="-4.0824060">
        <ele>480.6</ele>
        <time>2021-12-28T09:18:21Z</time>
      </trkpt>
      <trkpt lat="37.6347490" lon="-4.0824060">
        <ele>480.6</ele>
        <time>2021-12-28T09:18:22Z</time>
      </trkpt>
      <trkpt lat="37.6347260" lon="-4.0824060">
        <ele>480.6</ele>
        <time>2021-12-28T09:18:23Z</time>
      </trkpt>
      <trkpt lat="37.6347010" lon="-4.0824080">
        <ele>480.6</ele>
        <time>2021-12-28T09:18:24Z</time>
      </trkpt>
      <trkpt lat="37.6346750" lon="-4.0824060">
        <ele>480.6</ele>
        <time>2021-12-28T09:18:25Z</time>
      </trkpt>
      <trkpt lat="37.6346460" lon="-4.0824060">
        <ele>480.6</ele>
        <time>2021-12-28T09:18:26Z</time>
      </trkpt>
      <trkpt lat="37.6346210" lon="-4.0824060">
        <ele>480.4</ele>
        <time>2021-12-28T09:18:27Z</time>
      </trkpt>
      <trkpt lat="37.6345950" lon="-4.0824060">
        <ele>480.4</ele>
        <time>2021-12-28T09:18:28Z</time>
      </trkpt>
      <trkpt lat="37.6345630" lon="-4.0824080">
        <ele>480.4</ele>
        <time>2021-12-28T09:18:29Z</time>
      </trkpt>
      <trkpt lat="37.6345380" lon="-4.0824100">
        <ele>480.6</ele>
        <time>2021-12-28T09:18:30Z</time>
      </trkpt>
      <trkpt lat="37.6345090" lon="-4.0824100">
        <ele>480.6</ele>
        <time>2021-12-28T09:18:31Z</time>
      </trkpt>
      <trkpt lat="37.6344800" lon="-4.0824120">
        <ele>480.6</ele>
        <time>2021-12-28T09:18:32Z</time>
      </trkpt>
      <trkpt lat="37.6344540" lon="-4.0824130">
        <ele>480.6</ele>
        <time>2021-12-28T09:18:33Z</time>
      </trkpt>
      <trkpt lat="37.6344220" lon="-4.0824130">
        <ele>480.6</ele>
        <time>2021-12-28T09:18:34Z</time>
      </trkpt>
      <trkpt lat="37.6343970" lon="-4.0824120">
        <ele>480.6</ele>
        <time>2021-12-28T09:18:35Z</time>
      </trkpt>
      <trkpt lat="37.6343650" lon="-4.0824120">
        <ele>480.6</ele>
        <time>2021-12-28T09:18:36Z</time>
      </trkpt>
      <trkpt lat="37.6343390" lon="-4.0824120">
        <ele>480.6</ele>
        <time>2021-12-28T09:18:37Z</time>
      </trkpt>
      <trkpt lat="37.6343100" lon="-4.0824130">
        <ele>480.6</ele>
        <time>2021-12-28T09:18:38Z</time>
      </trkpt>
      <trkpt lat="37.6342820" lon="-4.0824150">
        <ele>480.6</ele>
        <time>2021-12-28T09:18:39Z</time>
      </trkpt>
      <trkpt lat="37.6342560" lon="-4.0824160">
        <ele>480.6</ele>
        <time>2021-12-28T09:18:40Z</time>
      </trkpt>
      <trkpt lat="37.6342300" lon="-4.0824160">
        <ele>480.6</ele>
        <time>2021-12-28T09:18:41Z</time>
      </trkpt>
      <trkpt lat="37.6342050" lon="-4.0824160">
        <ele>480.8</ele>
        <time>2021-12-28T09:18:42Z</time>
      </trkpt>
      <trkpt lat="37.6341790" lon="-4.0824160">
        <ele>480.8</ele>
        <time>2021-12-28T09:18:43Z</time>
      </trkpt>
      <trkpt lat="37.6341570" lon="-4.0824180">
        <ele>480.8</ele>
        <time>2021-12-28T09:18:44Z</time>
      </trkpt>
      <trkpt lat="37.6341380" lon="-4.0824200">
        <ele>480.8</ele>
        <time>2021-12-28T09:18:45Z</time>
      </trkpt>
      <trkpt lat="37.6341120" lon="-4.0824220">
        <ele>480.8</ele>
        <time>2021-12-28T09:18:46Z</time>
      </trkpt>
      <trkpt lat="37.6341120" lon="-4.0824220">
        <ele>480.8</ele>
        <time>2021-12-28T09:18:47Z</time>
      </trkpt>
      <trkpt lat="37.6340860" lon="-4.0824250">
        <ele>480.8</ele>
        <time>2021-12-28T09:18:48Z</time>
      </trkpt>
      <trkpt lat="37.6340860" lon="-4.0824250">
        <ele>480.8</ele>
        <time>2021-12-28T09:18:49Z</time>
      </trkpt>
      <trkpt lat="37.6340860" lon="-4.0824250">
        <ele>480.8</ele>
        <time>2021-12-28T09:18:50Z</time>
      </trkpt>
      <trkpt lat="37.6340860" lon="-4.0824250">
        <ele>481.0</ele>
        <time>2021-12-28T09:18:51Z</time>
      </trkpt>
      <trkpt lat="37.6340860" lon="-4.0824250">
        <ele>481.0</ele>
        <time>2021-12-28T09:18:52Z</time>
      </trkpt>
      <trkpt lat="37.6340860" lon="-4.0824250">
        <ele>481.0</ele>
        <time>2021-12-28T09:18:53Z</time>
      </trkpt>
      <trkpt lat="37.6340000" lon="-4.0824500">
        <ele>483.4</ele>
        <time>2021-12-28T09:20:50Z</time>
      </trkpt>
      <trkpt lat="37.6339810" lon="-4.0824500">
        <ele>483.2</ele>
        <time>2021-12-28T09:20:51Z</time>
      </trkpt>
      <trkpt lat="37.6339580" lon="-4.0824480">
        <ele>483.2</ele>
        <time>2021-12-28T09:20:52Z</time>
      </trkpt>
      <trkpt lat="37.6339330" lon="-4.0824460">
        <ele>483.2</ele>
        <time>2021-12-28T09:20:53Z</time>
      </trkpt>
      <trkpt lat="37.6339070" lon="-4.0824480">
        <ele>483.2</ele>
        <time>2021-12-28T09:20:54Z</time>
      </trkpt>
      <trkpt lat="37.6338780" lon="-4.0824530">
        <ele>483.2</ele>
        <time>2021-12-28T09:20:55Z</time>
      </trkpt>
      <trkpt lat="37.6338530" lon="-4.0824600">
        <ele>483.2</ele>
        <time>2021-12-28T09:20:56Z</time>
      </trkpt>
      <trkpt lat="37.6338300" lon="-4.0824650">
        <ele>483.0</ele>
        <time>2021-12-28T09:20:57Z</time>
      </trkpt>
      <trkpt lat="37.6338050" lon="-4.0824680">
        <ele>483.0</ele>
        <time>2021-12-28T09:20:58Z</time>
      </trkpt>
      <trkpt lat="37.6337820" lon="-4.0824720">
        <ele>483.0</ele>
        <time>2021-12-28T09:20:59Z</time>
      </trkpt>
      <trkpt lat="37.6337600" lon="-4.0824720">
        <ele>483.0</ele>
        <time>2021-12-28T09:21:00Z</time>
      </trkpt>
      <trkpt lat="37.6337600" lon="-4.0824720">
        <ele>483.0</ele>
        <time>2021-12-28T09:21:01Z</time>
      </trkpt>
      <trkpt lat="37.6337220" lon="-4.0824800">
        <ele>483.0</ele>
        <time>2021-12-28T09:21:02Z</time>
      </trkpt>
      <trkpt lat="37.6337020" lon="-4.0824850">
        <ele>482.8</ele>
        <time>2021-12-28T09:21:03Z</time>
      </trkpt>
      <trkpt lat="37.6336800" lon="-4.0824880">
        <ele>482.8</ele>
        <time>2021-12-28T09:21:04Z</time>
      </trkpt>
      <trkpt lat="37.6336510" lon="-4.0824930">
        <ele>482.8</ele>
        <time>2021-12-28T09:21:05Z</time>
      </trkpt>
      <trkpt lat="37.6336290" lon="-4.0824980">
        <ele>482.6</ele>
        <time>2021-12-28T09:21:06Z</time>
      </trkpt>
      <trkpt lat="37.6336030" lon="-4.0825070">
        <ele>482.6</ele>
        <time>2021-12-28T09:21:07Z</time>
      </trkpt>
      <trkpt lat="37.6335740" lon="-4.0825130">
        <ele>482.6</ele>
        <time>2021-12-28T09:21:08Z</time>
      </trkpt>
      <trkpt lat="37.6335490" lon="-4.0825200">
        <ele>482.6</ele>
        <time>2021-12-28T09:21:09Z</time>
      </trkpt>
      <trkpt lat="37.6335170" lon="-4.0825280">
        <ele>482.4</ele>
        <time>2021-12-28T09:21:10Z</time>
      </trkpt>
      <trkpt lat="37.6334880" lon="-4.0825350">
        <ele>482.4</ele>
        <time>2021-12-28T09:21:11Z</time>
      </trkpt>
      <trkpt lat="37.6334530" lon="-4.0825430">
        <ele>482.4</ele>
        <time>2021-12-28T09:21:12Z</time>
      </trkpt>
      <trkpt lat="37.6334240" lon="-4.0825530">
        <ele>482.4</ele>
        <time>2021-12-28T09:21:13Z</time>
      </trkpt>
      <trkpt lat="37.6333890" lon="-4.0825640">
        <ele>482.2</ele>
        <time>2021-12-28T09:21:14Z</time>
      </trkpt>
      <trkpt lat="37.6333540" lon="-4.0825720">
        <ele>482.2</ele>
        <time>2021-12-28T09:21:15Z</time>
      </trkpt>
      <trkpt lat="37.6333180" lon="-4.0825820">
        <ele>482.2</ele>
        <time>2021-12-28T09:21:16Z</time>
      </trkpt>
      <trkpt lat="37.6332900" lon="-4.0825920">
        <ele>482.0</ele>
        <time>2021-12-28T09:21:17Z</time>
      </trkpt>
      <trkpt lat="37.6332540" lon="-4.0826050">
        <ele>482.0</ele>
        <time>2021-12-28T09:21:18Z</time>
      </trkpt>
      <trkpt lat="37.6332290" lon="-4.0826180">
        <ele>482.0</ele>
        <time>2021-12-28T09:21:19Z</time>
      </trkpt>
      <trkpt lat="37.6331970" lon="-4.0826280">
        <ele>481.8</ele>
        <time>2021-12-28T09:21:20Z</time>
      </trkpt>
      <trkpt lat="37.6331710" lon="-4.0826400">
        <ele>481.8</ele>
        <time>2021-12-28T09:21:21Z</time>
      </trkpt>
      <trkpt lat="37.6331390" lon="-4.0826500">
        <ele>481.8</ele>
        <time>2021-12-28T09:21:22Z</time>
      </trkpt>
      <trkpt lat="37.6331140" lon="-4.0826600">
        <ele>481.8</ele>
        <time>2021-12-28T09:21:23Z</time>
      </trkpt>
      <trkpt lat="37.6330880" lon="-4.0826720">
        <ele>481.6</ele>
        <time>2021-12-28T09:21:24Z</time>
      </trkpt>
      <trkpt lat="37.6330590" lon="-4.0826820">
        <ele>481.6</ele>
        <time>2021-12-28T09:21:25Z</time>
      </trkpt>
      <trkpt lat="37.6330340" lon="-4.0826930">
        <ele>481.6</ele>
        <time>2021-12-28T09:21:26Z</time>
      </trkpt>
      <trkpt lat="37.6330080" lon="-4.0827080">
        <ele>481.6</ele>
        <time>2021-12-28T09:21:27Z</time>
      </trkpt>
      <trkpt lat="37.6329790" lon="-4.0827250">
        <ele>481.6</ele>
        <time>2021-12-28T09:21:28Z</time>
      </trkpt>
      <trkpt lat="37.6329500" lon="-4.0827400">
        <ele>481.6</ele>
        <time>2021-12-28T09:21:29Z</time>
      </trkpt>
      <trkpt lat="37.6329220" lon="-4.0827550">
        <ele>481.6</ele>
        <time>2021-12-28T09:21:30Z</time>
      </trkpt>
      <trkpt lat="37.6328960" lon="-4.0827700">
        <ele>481.6</ele>
        <time>2021-12-28T09:21:31Z</time>
      </trkpt>
      <trkpt lat="37.6328670" lon="-4.0827850">
        <ele>481.6</ele>
        <time>2021-12-28T09:21:32Z</time>
      </trkpt>
      <trkpt lat="37.6328380" lon="-4.0828000">
        <ele>481.6</ele>
        <time>2021-12-28T09:21:33Z</time>
      </trkpt>
      <trkpt lat="37.6328130" lon="-4.0828130">
        <ele>481.6</ele>
        <time>2021-12-28T09:21:34Z</time>
      </trkpt>
      <trkpt lat="37.6327870" lon="-4.0828280">
        <ele>481.6</ele>
        <time>2021-12-28T09:21:35Z</time>
      </trkpt>
      <trkpt lat="37.6327580" lon="-4.0828430">
        <ele>481.6</ele>
        <time>2021-12-28T09:21:36Z</time>
      </trkpt>
      <trkpt lat="37.6327300" lon="-4.0828620">
        <ele>481.6</ele>
        <time>2021-12-28T09:21:37Z</time>
      </trkpt>
      <trkpt lat="37.6327010" lon="-4.0828800">
        <ele>481.4</ele>
        <time>2021-12-28T09:21:38Z</time>
      </trkpt>
      <trkpt lat="37.6326720" lon="-4.0828970">
        <ele>481.4</ele>
        <time>2021-12-28T09:21:39Z</time>
      </trkpt>
      <trkpt lat="37.6326400" lon="-4.0829170">
        <ele>481.4</ele>
        <time>2021-12-28T09:21:40Z</time>
      </trkpt>
      <trkpt lat="37.6326110" lon="-4.0829370">
        <ele>481.4</ele>
        <time>2021-12-28T09:21:41Z</time>
      </trkpt>
      <trkpt lat="37.6325790" lon="-4.0829570">
        <ele>481.4</ele>
        <time>2021-12-28T09:21:42Z</time>
      </trkpt>
      <trkpt lat="37.6325500" lon="-4.0829770">
        <ele>481.2</ele>
        <time>2021-12-28T09:21:43Z</time>
      </trkpt>
      <trkpt lat="37.6325180" lon="-4.0829950">
        <ele>481.2</ele>
        <time>2021-12-28T09:21:44Z</time>
      </trkpt>
      <trkpt lat="37.6324900" lon="-4.0830170">
        <ele>481.2</ele>
        <time>2021-12-28T09:21:45Z</time>
      </trkpt>
      <trkpt lat="37.6324610" lon="-4.0830380">
        <ele>481.2</ele>
        <time>2021-12-28T09:21:46Z</time>
      </trkpt>
      <trkpt lat="37.6324320" lon="-4.0830600">
        <ele>481.2</ele>
        <time>2021-12-28T09:21:47Z</time>
      </trkpt>
      <trkpt lat="37.6324030" lon="-4.0830820">
        <ele>481.0</ele>
        <time>2021-12-28T09:21:48Z</time>
      </trkpt>
      <trkpt lat="37.6323740" lon="-4.0831030">
        <ele>481.0</ele>
        <time>2021-12-28T09:21:49Z</time>
      </trkpt>
      <trkpt lat="37.6323420" lon="-4.0831230">
        <ele>481.0</ele>
        <time>2021-12-28T09:21:50Z</time>
      </trkpt>
      <trkpt lat="37.6323170" lon="-4.0831460">
        <ele>481.2</ele>
        <time>2021-12-28T09:21:51Z</time>
      </trkpt>
      <trkpt lat="37.6322910" lon="-4.0831680">
        <ele>481.2</ele>
        <time>2021-12-28T09:21:52Z</time>
      </trkpt>
      <trkpt lat="37.6322590" lon="-4.0831920">
        <ele>481.2</ele>
        <time>2021-12-28T09:21:53Z</time>
      </trkpt>
      <trkpt lat="37.6322340" lon="-4.0832170">
        <ele>481.2</ele>
        <time>2021-12-28T09:21:54Z</time>
      </trkpt>
      <trkpt lat="37.6322050" lon="-4.0832420">
        <ele>481.2</ele>
        <time>2021-12-28T09:21:55Z</time>
      </trkpt>
      <trkpt lat="37.6321790" lon="-4.0832650">
        <ele>481.2</ele>
        <time>2021-12-28T09:21:56Z</time>
      </trkpt>
      <trkpt lat="37.6321470" lon="-4.0832870">
        <ele>481.2</ele>
        <time>2021-12-28T09:21:57Z</time>
      </trkpt>
      <trkpt lat="37.6321250" lon="-4.0833100">
        <ele>481.2</ele>
        <time>2021-12-28T09:21:58Z</time>
      </trkpt>
      <trkpt lat="37.6320990" lon="-4.0833340">
        <ele>481.2</ele>
        <time>2021-12-28T09:21:59Z</time>
      </trkpt>
      <trkpt lat="37.6320770" lon="-4.0833550">
        <ele>481.2</ele>
        <time>2021-12-28T09:22:00Z</time>
      </trkpt>
      <trkpt lat="37.6320540" lon="-4.0833770">
        <ele>481.2</ele>
        <time>2021-12-28T09:22:01Z</time>
      </trkpt>
      <trkpt lat="37.6320350" lon="-4.0833980">
        <ele>481.0</ele>
        <time>2021-12-28T09:22:02Z</time>
      </trkpt>
      <trkpt lat="37.6320130" lon="-4.0834220">
        <ele>481.2</ele>
        <time>2021-12-28T09:22:03Z</time>
      </trkpt>
      <trkpt lat="37.6319870" lon="-4.0834450">
        <ele>481.2</ele>
        <time>2021-12-28T09:22:04Z</time>
      </trkpt>
      <trkpt lat="37.6319620" lon="-4.0834700">
        <ele>481.0</ele>
        <time>2021-12-28T09:22:05Z</time>
      </trkpt>
      <trkpt lat="37.6319360" lon="-4.0834960">
        <ele>481.0</ele>
        <time>2021-12-28T09:22:06Z</time>
      </trkpt>
      <trkpt lat="37.6319070" lon="-4.0835250">
        <ele>481.0</ele>
        <time>2021-12-28T09:22:07Z</time>
      </trkpt>
      <trkpt lat="37.6318820" lon="-4.0835500">
        <ele>481.2</ele>
        <time>2021-12-28T09:22:08Z</time>
      </trkpt>
      <trkpt lat="37.6318560" lon="-4.0835770">
        <ele>481.2</ele>
        <time>2021-12-28T09:22:09Z</time>
      </trkpt>
      <trkpt lat="37.6318270" lon="-4.0836070">
        <ele>481.2</ele>
        <time>2021-12-28T09:22:10Z</time>
      </trkpt>
      <trkpt lat="37.6318050" lon="-4.0836370">
        <ele>481.2</ele>
        <time>2021-12-28T09:22:11Z</time>
      </trkpt>
      <trkpt lat="37.6317790" lon="-4.0836670">
        <ele>481.2</ele>
        <time>2021-12-28T09:22:12Z</time>
      </trkpt>
      <trkpt lat="37.6317540" lon="-4.0836970">
        <ele>481.0</ele>
        <time>2021-12-28T09:22:13Z</time>
      </trkpt>
      <trkpt lat="37.6317280" lon="-4.0837270">
        <ele>481.0</ele>
        <time>2021-12-28T09:22:14Z</time>
      </trkpt>
      <trkpt lat="37.6317060" lon="-4.0837560">
        <ele>481.0</ele>
        <time>2021-12-28T09:22:15Z</time>
      </trkpt>
      <trkpt lat="37.6316830" lon="-4.0837860">
        <ele>481.0</ele>
        <time>2021-12-28T09:22:16Z</time>
      </trkpt>
      <trkpt lat="37.6316580" lon="-4.0838160">
        <ele>480.8</ele>
        <time>2021-12-28T09:22:17Z</time>
      </trkpt>
      <trkpt lat="37.6316350" lon="-4.0838460">
        <ele>480.8</ele>
        <time>2021-12-28T09:22:18Z</time>
      </trkpt>
      <trkpt lat="37.6316100" lon="-4.0838770">
        <ele>480.8</ele>
        <time>2021-12-28T09:22:19Z</time>
      </trkpt>
      <trkpt lat="37.6315900" lon="-4.0839080">
        <ele>480.8</ele>
        <time>2021-12-28T09:22:20Z</time>
      </trkpt>
      <trkpt lat="37.6315650" lon="-4.0839400">
        <ele>480.8</ele>
        <time>2021-12-28T09:22:21Z</time>
      </trkpt>
      <trkpt lat="37.6315420" lon="-4.0839720">
        <ele>480.8</ele>
        <time>2021-12-28T09:22:22Z</time>
      </trkpt>
      <trkpt lat="37.6315230" lon="-4.0840040">
        <ele>480.8</ele>
        <time>2021-12-28T09:22:23Z</time>
      </trkpt>
      <trkpt lat="37.6315010" lon="-4.0840340">
        <ele>480.8</ele>
        <time>2021-12-28T09:22:24Z</time>
      </trkpt>
      <trkpt lat="37.6314780" lon="-4.0840640">
        <ele>480.8</ele>
        <time>2021-12-28T09:22:25Z</time>
      </trkpt>
      <trkpt lat="37.6314590" lon="-4.0840950">
        <ele>480.8</ele>
        <time>2021-12-28T09:22:26Z</time>
      </trkpt>
      <trkpt lat="37.6314400" lon="-4.0841250">
        <ele>480.8</ele>
        <time>2021-12-28T09:22:27Z</time>
      </trkpt>
      <trkpt lat="37.6314210" lon="-4.0841580">
        <ele>480.8</ele>
        <time>2021-12-28T09:22:28Z</time>
      </trkpt>
      <trkpt lat="37.6314020" lon="-4.0841900">
        <ele>480.8</ele>
        <time>2021-12-28T09:22:29Z</time>
      </trkpt>
      <trkpt lat="37.6313790" lon="-4.0842200">
        <ele>480.8</ele>
        <time>2021-12-28T09:22:30Z</time>
      </trkpt>
      <trkpt lat="37.6313630" lon="-4.0842500">
        <ele>480.6</ele>
        <time>2021-12-28T09:22:31Z</time>
      </trkpt>
      <trkpt lat="37.6313440" lon="-4.0842800">
        <ele>480.6</ele>
        <time>2021-12-28T09:22:32Z</time>
      </trkpt>
      <trkpt lat="37.6313280" lon="-4.0843100">
        <ele>480.6</ele>
        <time>2021-12-28T09:22:33Z</time>
      </trkpt>
      <trkpt lat="37.6313090" lon="-4.0843420">
        <ele>480.6</ele>
        <time>2021-12-28T09:22:34Z</time>
      </trkpt>
      <trkpt lat="37.6312930" lon="-4.0843740">
        <ele>480.6</ele>
        <time>2021-12-28T09:22:35Z</time>
      </trkpt>
      <trkpt lat="37.6312800" lon="-4.0844050">
        <ele>480.6</ele>
        <time>2021-12-28T09:22:36Z</time>
      </trkpt>
      <trkpt lat="37.6312610" lon="-4.0844400">
        <ele>480.6</ele>
        <time>2021-12-28T09:22:37Z</time>
      </trkpt>
      <trkpt lat="37.6312450" lon="-4.0844730">
        <ele>480.6</ele>
        <time>2021-12-28T09:22:38Z</time>
      </trkpt>
      <trkpt lat="37.6312290" lon="-4.0845060">
        <ele>480.6</ele>
        <time>2021-12-28T09:22:39Z</time>
      </trkpt>
      <trkpt lat="37.6312130" lon="-4.0845420">
        <ele>480.6</ele>
        <time>2021-12-28T09:22:40Z</time>
      </trkpt>
      <trkpt lat="37.6311940" lon="-4.0845750">
        <ele>480.8</ele>
        <time>2021-12-28T09:22:41Z</time>
      </trkpt>
      <trkpt lat="37.6311740" lon="-4.0846100">
        <ele>480.8</ele>
        <time>2021-12-28T09:22:42Z</time>
      </trkpt>
      <trkpt lat="37.6311580" lon="-4.0846470">
        <ele>480.8</ele>
        <time>2021-12-28T09:22:43Z</time>
      </trkpt>
      <trkpt lat="37.6311390" lon="-4.0846840">
        <ele>480.6</ele>
        <time>2021-12-28T09:22:44Z</time>
      </trkpt>
      <trkpt lat="37.6311230" lon="-4.0847200">
        <ele>480.6</ele>
        <time>2021-12-28T09:22:45Z</time>
      </trkpt>
      <trkpt lat="37.6311070" lon="-4.0847540">
        <ele>480.8</ele>
        <time>2021-12-28T09:22:46Z</time>
      </trkpt>
      <trkpt lat="37.6310880" lon="-4.0847900">
        <ele>480.8</ele>
        <time>2021-12-28T09:22:47Z</time>
      </trkpt>
      <trkpt lat="37.6310720" lon="-4.0848250">
        <ele>480.8</ele>
        <time>2021-12-28T09:22:48Z</time>
      </trkpt>
      <trkpt lat="37.6310530" lon="-4.0848600">
        <ele>480.8</ele>
        <time>2021-12-28T09:22:49Z</time>
      </trkpt>
      <trkpt lat="37.6310400" lon="-4.0848950">
        <ele>480.8</ele>
        <time>2021-12-28T09:22:50Z</time>
      </trkpt>
      <trkpt lat="37.6310240" lon="-4.0849280">
        <ele>480.8</ele>
        <time>2021-12-28T09:22:51Z</time>
      </trkpt>
      <trkpt lat="37.6310080" lon="-4.0849620">
        <ele>480.8</ele>
        <time>2021-12-28T09:22:52Z</time>
      </trkpt>
      <trkpt lat="37.6309950" lon="-4.0849920">
        <ele>481.0</ele>
        <time>2021-12-28T09:22:53Z</time>
      </trkpt>
      <trkpt lat="37.6309790" lon="-4.0850220">
        <ele>481.0</ele>
        <time>2021-12-28T09:22:54Z</time>
      </trkpt>
      <trkpt lat="37.6309630" lon="-4.0850540">
        <ele>481.0</ele>
        <time>2021-12-28T09:22:55Z</time>
      </trkpt>
      <trkpt lat="37.6309470" lon="-4.0850880">
        <ele>481.0</ele>
        <time>2021-12-28T09:22:56Z</time>
      </trkpt>
      <trkpt lat="37.6309340" lon="-4.0851240">
        <ele>481.0</ele>
        <time>2021-12-28T09:22:57Z</time>
      </trkpt>
      <trkpt lat="37.6309150" lon="-4.0851600">
        <ele>481.0</ele>
        <time>2021-12-28T09:22:58Z</time>
      </trkpt>
      <trkpt lat="37.6309020" lon="-4.0851960">
        <ele>481.2</ele>
        <time>2021-12-28T09:22:59Z</time>
      </trkpt>
      <trkpt lat="37.6308860" lon="-4.0852300">
        <ele>481.2</ele>
        <time>2021-12-28T09:23:00Z</time>
      </trkpt>
      <trkpt lat="37.6308700" lon="-4.0852650">
        <ele>481.2</ele>
        <time>2021-12-28T09:23:01Z</time>
      </trkpt>
      <trkpt lat="37.6308540" lon="-4.0853000">
        <ele>481.2</ele>
        <time>2021-12-28T09:23:02Z</time>
      </trkpt>
      <trkpt lat="37.6308350" lon="-4.0853330">
        <ele>481.2</ele>
        <time>2021-12-28T09:23:03Z</time>
      </trkpt>
      <trkpt lat="37.6308220" lon="-4.0853670">
        <ele>481.0</ele>
        <time>2021-12-28T09:23:04Z</time>
      </trkpt>
      <trkpt lat="37.6308060" lon="-4.0854040">
        <ele>481.0</ele>
        <time>2021-12-28T09:23:05Z</time>
      </trkpt>
      <trkpt lat="37.6307900" lon="-4.0854370">
        <ele>481.0</ele>
        <time>2021-12-28T09:23:06Z</time>
      </trkpt>
      <trkpt lat="37.6307740" lon="-4.0854720">
        <ele>481.0</ele>
        <time>2021-12-28T09:23:07Z</time>
      </trkpt>
      <trkpt lat="37.6307620" lon="-4.0855050">
        <ele>481.0</ele>
        <time>2021-12-28T09:23:08Z</time>
      </trkpt>
      <trkpt lat="37.6307460" lon="-4.0855380">
        <ele>481.0</ele>
        <time>2021-12-28T09:23:09Z</time>
      </trkpt>
      <trkpt lat="37.6307330" lon="-4.0855720">
        <ele>481.2</ele>
        <time>2021-12-28T09:23:10Z</time>
      </trkpt>
      <trkpt lat="37.6307230" lon="-4.0856030">
        <ele>481.2</ele>
        <time>2021-12-28T09:23:11Z</time>
      </trkpt>
      <trkpt lat="37.6307070" lon="-4.0856320">
        <ele>481.2</ele>
        <time>2021-12-28T09:23:12Z</time>
      </trkpt>
      <trkpt lat="37.6306910" lon="-4.0856630">
        <ele>481.4</ele>
        <time>2021-12-28T09:23:13Z</time>
      </trkpt>
      <trkpt lat="37.6306750" lon="-4.0856950">
        <ele>481.4</ele>
        <time>2021-12-28T09:23:14Z</time>
      </trkpt>
      <trkpt lat="37.6306620" lon="-4.0857250">
        <ele>481.6</ele>
        <time>2021-12-28T09:23:15Z</time>
      </trkpt>
      <trkpt lat="37.6306430" lon="-4.0857570">
        <ele>481.6</ele>
        <time>2021-12-28T09:23:16Z</time>
      </trkpt>
      <trkpt lat="37.6306270" lon="-4.0857880">
        <ele>481.6</ele>
        <time>2021-12-28T09:23:17Z</time>
      </trkpt>
      <trkpt lat="37.6306080" lon="-4.0858180">
        <ele>481.8</ele>
        <time>2021-12-28T09:23:18Z</time>
      </trkpt>
      <trkpt lat="37.6305890" lon="-4.0858500">
        <ele>481.8</ele>
        <time>2021-12-28T09:23:19Z</time>
      </trkpt>
      <trkpt lat="37.6305730" lon="-4.0858820">
        <ele>481.8</ele>
        <time>2021-12-28T09:23:20Z</time>
      </trkpt>
      <trkpt lat="37.6305570" lon="-4.0859160">
        <ele>481.8</ele>
        <time>2021-12-28T09:23:21Z</time>
      </trkpt>
      <trkpt lat="37.6305380" lon="-4.0859520">
        <ele>481.8</ele>
        <time>2021-12-28T09:23:22Z</time>
      </trkpt>
      <trkpt lat="37.6305250" lon="-4.0859880">
        <ele>482.0</ele>
        <time>2021-12-28T09:23:23Z</time>
      </trkpt>
      <trkpt lat="37.6305090" lon="-4.0860250">
        <ele>482.0</ele>
        <time>2021-12-28T09:23:24Z</time>
      </trkpt>
      <trkpt lat="37.6304930" lon="-4.0860570">
        <ele>482.0</ele>
        <time>2021-12-28T09:23:25Z</time>
      </trkpt>
      <trkpt lat="37.6304770" lon="-4.0860880">
        <ele>482.0</ele>
        <time>2021-12-28T09:23:26Z</time>
      </trkpt>
      <trkpt lat="37.6304640" lon="-4.0861200">
        <ele>482.0</ele>
        <time>2021-12-28T09:23:27Z</time>
      </trkpt>
      <trkpt lat="37.6304480" lon="-4.0861540">
        <ele>482.0</ele>
        <time>2021-12-28T09:23:28Z</time>
      </trkpt>
      <trkpt lat="37.6304290" lon="-4.0861880">
        <ele>482.0</ele>
        <time>2021-12-28T09:23:29Z</time>
      </trkpt>
      <trkpt lat="37.6304130" lon="-4.0862220">
        <ele>482.0</ele>
        <time>2021-12-28T09:23:30Z</time>
      </trkpt>
      <trkpt lat="37.6303940" lon="-4.0862550">
        <ele>482.0</ele>
        <time>2021-12-28T09:23:31Z</time>
      </trkpt>
      <trkpt lat="37.6303740" lon="-4.0862860">
        <ele>482.0</ele>
        <time>2021-12-28T09:23:32Z</time>
      </trkpt>
      <trkpt lat="37.6303580" lon="-4.0863200">
        <ele>482.0</ele>
        <time>2021-12-28T09:23:33Z</time>
      </trkpt>
      <trkpt lat="37.6303390" lon="-4.0863520">
        <ele>481.8</ele>
        <time>2021-12-28T09:23:34Z</time>
      </trkpt>
      <trkpt lat="37.6303260" lon="-4.0863850">
        <ele>481.8</ele>
        <time>2021-12-28T09:23:35Z</time>
      </trkpt>
      <trkpt lat="37.6303100" lon="-4.0864170">
        <ele>481.8</ele>
        <time>2021-12-28T09:23:36Z</time>
      </trkpt>
      <trkpt lat="37.6302910" lon="-4.0864500">
        <ele>481.8</ele>
        <time>2021-12-28T09:23:37Z</time>
      </trkpt>
      <trkpt lat="37.6302720" lon="-4.0864800">
        <ele>481.8</ele>
        <time>2021-12-28T09:23:38Z</time>
      </trkpt>
      <trkpt lat="37.6302530" lon="-4.0865100">
        <ele>481.8</ele>
        <time>2021-12-28T09:23:39Z</time>
      </trkpt>
      <trkpt lat="37.6302300" lon="-4.0865400">
        <ele>481.8</ele>
        <time>2021-12-28T09:23:40Z</time>
      </trkpt>
      <trkpt lat="37.6302140" lon="-4.0865680">
        <ele>481.8</ele>
        <time>2021-12-28T09:23:41Z</time>
      </trkpt>
      <trkpt lat="37.6301950" lon="-4.0866000">
        <ele>481.8</ele>
        <time>2021-12-28T09:23:42Z</time>
      </trkpt>
      <trkpt lat="37.6301760" lon="-4.0866300">
        <ele>481.8</ele>
        <time>2021-12-28T09:23:43Z</time>
      </trkpt>
      <trkpt lat="37.6301600" lon="-4.0866600">
        <ele>481.8</ele>
        <time>2021-12-28T09:23:44Z</time>
      </trkpt>
      <trkpt lat="37.6301380" lon="-4.0866870">
        <ele>481.8</ele>
        <time>2021-12-28T09:23:45Z</time>
      </trkpt>
      <trkpt lat="37.6301150" lon="-4.0867130">
        <ele>481.8</ele>
        <time>2021-12-28T09:23:46Z</time>
      </trkpt>
      <trkpt lat="37.6300960" lon="-4.0867420">
        <ele>481.8</ele>
        <time>2021-12-28T09:23:47Z</time>
      </trkpt>
      <trkpt lat="37.6300770" lon="-4.0867700">
        <ele>481.8</ele>
        <time>2021-12-28T09:23:48Z</time>
      </trkpt>
      <trkpt lat="37.6300580" lon="-4.0867970">
        <ele>481.8</ele>
        <time>2021-12-28T09:23:49Z</time>
      </trkpt>
      <trkpt lat="37.6300380" lon="-4.0868250">
        <ele>481.8</ele>
        <time>2021-12-28T09:23:50Z</time>
      </trkpt>
      <trkpt lat="37.6300190" lon="-4.0868540">
        <ele>481.8</ele>
        <time>2021-12-28T09:23:51Z</time>
      </trkpt>
      <trkpt lat="37.6299970" lon="-4.0868820">
        <ele>481.8</ele>
        <time>2021-12-28T09:23:52Z</time>
      </trkpt>
      <trkpt lat="37.6299780" lon="-4.0869080">
        <ele>481.8</ele>
        <time>2021-12-28T09:23:53Z</time>
      </trkpt>
      <trkpt lat="37.6299550" lon="-4.0869360">
        <ele>481.8</ele>
        <time>2021-12-28T09:23:54Z</time>
      </trkpt>
      <trkpt lat="37.6299360" lon="-4.0869650">
        <ele>482.0</ele>
        <time>2021-12-28T09:23:55Z</time>
      </trkpt>
      <trkpt lat="37.6299140" lon="-4.0869900">
        <ele>482.0</ele>
        <time>2021-12-28T09:23:56Z</time>
      </trkpt>
      <trkpt lat="37.6298910" lon="-4.0870180">
        <ele>482.0</ele>
        <time>2021-12-28T09:23:57Z</time>
      </trkpt>
      <trkpt lat="37.6298720" lon="-4.0870450">
        <ele>482.0</ele>
        <time>2021-12-28T09:23:58Z</time>
      </trkpt>
      <trkpt lat="37.6298500" lon="-4.0870680">
        <ele>482.0</ele>
        <time>2021-12-28T09:23:59Z</time>
      </trkpt>
      <trkpt lat="37.6298240" lon="-4.0870930">
        <ele>482.0</ele>
        <time>2021-12-28T09:24:00Z</time>
      </trkpt>
      <trkpt lat="37.6298020" lon="-4.0871200">
        <ele>482.0</ele>
        <time>2021-12-28T09:24:01Z</time>
      </trkpt>
      <trkpt lat="37.6297790" lon="-4.0871470">
        <ele>482.0</ele>
        <time>2021-12-28T09:24:02Z</time>
      </trkpt>
      <trkpt lat="37.6297540" lon="-4.0871720">
        <ele>482.0</ele>
        <time>2021-12-28T09:24:03Z</time>
      </trkpt>
      <trkpt lat="37.6297310" lon="-4.0871980">
        <ele>482.0</ele>
        <time>2021-12-28T09:24:04Z</time>
      </trkpt>
      <trkpt lat="37.6297020" lon="-4.0872240">
        <ele>482.0</ele>
        <time>2021-12-28T09:24:05Z</time>
      </trkpt>
      <trkpt lat="37.6296800" lon="-4.0872480">
        <ele>481.8</ele>
        <time>2021-12-28T09:24:06Z</time>
      </trkpt>
      <trkpt lat="37.6296580" lon="-4.0872720">
        <ele>481.8</ele>
        <time>2021-12-28T09:24:07Z</time>
      </trkpt>
      <trkpt lat="37.6296350" lon="-4.0872930">
        <ele>481.8</ele>
        <time>2021-12-28T09:24:08Z</time>
      </trkpt>
      <trkpt lat="37.6296130" lon="-4.0873160">
        <ele>481.8</ele>
        <time>2021-12-28T09:24:09Z</time>
      </trkpt>
      <trkpt lat="37.6295840" lon="-4.0873430">
        <ele>481.8</ele>
        <time>2021-12-28T09:24:10Z</time>
      </trkpt>
      <trkpt lat="37.6295620" lon="-4.0873660">
        <ele>481.8</ele>
        <time>2021-12-28T09:24:11Z</time>
      </trkpt>
      <trkpt lat="37.6295360" lon="-4.0873920">
        <ele>481.8</ele>
        <time>2021-12-28T09:24:12Z</time>
      </trkpt>
      <trkpt lat="37.6295140" lon="-4.0874170">
        <ele>481.8</ele>
        <time>2021-12-28T09:24:13Z</time>
      </trkpt>
      <trkpt lat="37.6294850" lon="-4.0874430">
        <ele>481.8</ele>
        <time>2021-12-28T09:24:14Z</time>
      </trkpt>
      <trkpt lat="37.6294620" lon="-4.0874720">
        <ele>481.6</ele>
        <time>2021-12-28T09:24:15Z</time>
      </trkpt>
      <trkpt lat="37.6294370" lon="-4.0874980">
        <ele>481.6</ele>
        <time>2021-12-28T09:24:16Z</time>
      </trkpt>
      <trkpt lat="37.6294110" lon="-4.0875240">
        <ele>481.6</ele>
        <time>2021-12-28T09:24:17Z</time>
      </trkpt>
      <trkpt lat="37.6293860" lon="-4.0875500">
        <ele>481.6</ele>
        <time>2021-12-28T09:24:18Z</time>
      </trkpt>
      <trkpt lat="37.6293600" lon="-4.0875750">
        <ele>481.6</ele>
        <time>2021-12-28T09:24:19Z</time>
      </trkpt>
      <trkpt lat="37.6293340" lon="-4.0876020">
        <ele>481.8</ele>
        <time>2021-12-28T09:24:20Z</time>
      </trkpt>
      <trkpt lat="37.6293120" lon="-4.0876260">
        <ele>481.8</ele>
        <time>2021-12-28T09:24:21Z</time>
      </trkpt>
      <trkpt lat="37.6292830" lon="-4.0876530">
        <ele>481.8</ele>
        <time>2021-12-28T09:24:22Z</time>
      </trkpt>
      <trkpt lat="37.6292610" lon="-4.0876780">
        <ele>481.8</ele>
        <time>2021-12-28T09:24:23Z</time>
      </trkpt>
      <trkpt lat="37.6292350" lon="-4.0877050">
        <ele>481.8</ele>
        <time>2021-12-28T09:24:24Z</time>
      </trkpt>
      <trkpt lat="37.6292060" lon="-4.0877300">
        <ele>481.8</ele>
        <time>2021-12-28T09:24:25Z</time>
      </trkpt>
      <trkpt lat="37.6291810" lon="-4.0877570">
        <ele>481.8</ele>
        <time>2021-12-28T09:24:26Z</time>
      </trkpt>
      <trkpt lat="37.6291550" lon="-4.0877850">
        <ele>481.8</ele>
        <time>2021-12-28T09:24:27Z</time>
      </trkpt>
      <trkpt lat="37.6291260" lon="-4.0878130">
        <ele>481.8</ele>
        <time>2021-12-28T09:24:28Z</time>
      </trkpt>
      <trkpt lat="37.6291010" lon="-4.0878400">
        <ele>481.8</ele>
        <time>2021-12-28T09:24:29Z</time>
      </trkpt>
      <trkpt lat="37.6290780" lon="-4.0878650">
        <ele>481.8</ele>
        <time>2021-12-28T09:24:30Z</time>
      </trkpt>
      <trkpt lat="37.6290530" lon="-4.0878920">
        <ele>481.8</ele>
        <time>2021-12-28T09:24:31Z</time>
      </trkpt>
      <trkpt lat="37.6290270" lon="-4.0879200">
        <ele>481.8</ele>
        <time>2021-12-28T09:24:32Z</time>
      </trkpt>
      <trkpt lat="37.6290020" lon="-4.0879450">
        <ele>481.8</ele>
        <time>2021-12-28T09:24:33Z</time>
      </trkpt>
      <trkpt lat="37.6289760" lon="-4.0879720">
        <ele>481.8</ele>
        <time>2021-12-28T09:24:34Z</time>
      </trkpt>
      <trkpt lat="37.6289470" lon="-4.0879960">
        <ele>481.8</ele>
        <time>2021-12-28T09:24:35Z</time>
      </trkpt>
      <trkpt lat="37.6289220" lon="-4.0880250">
        <ele>481.8</ele>
        <time>2021-12-28T09:24:36Z</time>
      </trkpt>
      <trkpt lat="37.6288960" lon="-4.0880520">
        <ele>481.8</ele>
        <time>2021-12-28T09:24:37Z</time>
      </trkpt>
      <trkpt lat="37.6288670" lon="-4.0880780">
        <ele>481.8</ele>
        <time>2021-12-28T09:24:38Z</time>
      </trkpt>
      <trkpt lat="37.6288450" lon="-4.0881050">
        <ele>481.6</ele>
        <time>2021-12-28T09:24:39Z</time>
      </trkpt>
      <trkpt lat="37.6288190" lon="-4.0881300">
        <ele>481.6</ele>
        <time>2021-12-28T09:24:40Z</time>
      </trkpt>
      <trkpt lat="37.6287900" lon="-4.0881570">
        <ele>481.6</ele>
        <time>2021-12-28T09:24:41Z</time>
      </trkpt>
      <trkpt lat="37.6287650" lon="-4.0881820">
        <ele>481.8</ele>
        <time>2021-12-28T09:24:42Z</time>
      </trkpt>
      <trkpt lat="37.6287420" lon="-4.0882080">
        <ele>481.8</ele>
        <time>2021-12-28T09:24:43Z</time>
      </trkpt>
      <trkpt lat="37.6287170" lon="-4.0882340">
        <ele>481.8</ele>
        <time>2021-12-28T09:24:44Z</time>
      </trkpt>
      <trkpt lat="37.6286910" lon="-4.0882600">
        <ele>481.8</ele>
        <time>2021-12-28T09:24:45Z</time>
      </trkpt>
      <trkpt lat="37.6286690" lon="-4.0882840">
        <ele>481.8</ele>
        <time>2021-12-28T09:24:46Z</time>
      </trkpt>
      <trkpt lat="37.6286430" lon="-4.0883080">
        <ele>482.0</ele>
        <time>2021-12-28T09:24:47Z</time>
      </trkpt>
      <trkpt lat="37.6286210" lon="-4.0883330">
        <ele>482.0</ele>
        <time>2021-12-28T09:24:48Z</time>
      </trkpt>
      <trkpt lat="37.6285980" lon="-4.0883580">
        <ele>482.0</ele>
        <time>2021-12-28T09:24:49Z</time>
      </trkpt>
      <trkpt lat="37.6285730" lon="-4.0883820">
        <ele>482.0</ele>
        <time>2021-12-28T09:24:50Z</time>
      </trkpt>
      <trkpt lat="37.6285500" lon="-4.0884060">
        <ele>482.0</ele>
        <time>2021-12-28T09:24:51Z</time>
      </trkpt>
      <trkpt lat="37.6285280" lon="-4.0884320">
        <ele>482.0</ele>
        <time>2021-12-28T09:24:52Z</time>
      </trkpt>
      <trkpt lat="37.6285020" lon="-4.0884570">
        <ele>482.0</ele>
        <time>2021-12-28T09:24:53Z</time>
      </trkpt>
      <trkpt lat="37.6284740" lon="-4.0884830">
        <ele>482.0</ele>
        <time>2021-12-28T09:24:54Z</time>
      </trkpt>
      <trkpt lat="37.6284510" lon="-4.0885080">
        <ele>482.0</ele>
        <time>2021-12-28T09:24:55Z</time>
      </trkpt>
      <trkpt lat="37.6284260" lon="-4.0885340">
        <ele>482.0</ele>
        <time>2021-12-28T09:24:56Z</time>
      </trkpt>
      <trkpt lat="37.6284000" lon="-4.0885580">
        <ele>482.2</ele>
        <time>2021-12-28T09:24:57Z</time>
      </trkpt>
      <trkpt lat="37.6283710" lon="-4.0885840">
        <ele>482.2</ele>
        <time>2021-12-28T09:24:58Z</time>
      </trkpt>
      <trkpt lat="37.6283490" lon="-4.0886100">
        <ele>482.4</ele>
        <time>2021-12-28T09:24:59Z</time>
      </trkpt>
      <trkpt lat="37.6283260" lon="-4.0886350">
        <ele>482.4</ele>
        <time>2021-12-28T09:25:00Z</time>
      </trkpt>
      <trkpt lat="37.6283010" lon="-4.0886620">
        <ele>482.4</ele>
        <time>2021-12-28T09:25:01Z</time>
      </trkpt>
      <trkpt lat="37.6282780" lon="-4.0886880">
        <ele>482.4</ele>
        <time>2021-12-28T09:25:02Z</time>
      </trkpt>
      <trkpt lat="37.6282500" lon="-4.0887130">
        <ele>482.4</ele>
        <time>2021-12-28T09:25:03Z</time>
      </trkpt>
      <trkpt lat="37.6282270" lon="-4.0887380">
        <ele>482.4</ele>
        <time>2021-12-28T09:25:04Z</time>
      </trkpt>
      <trkpt lat="37.6282020" lon="-4.0887630">
        <ele>482.4</ele>
        <time>2021-12-28T09:25:05Z</time>
      </trkpt>
      <trkpt lat="37.6281790" lon="-4.0887900">
        <ele>482.4</ele>
        <time>2021-12-28T09:25:06Z</time>
      </trkpt>
      <trkpt lat="37.6281540" lon="-4.0888130">
        <ele>482.4</ele>
        <time>2021-12-28T09:25:07Z</time>
      </trkpt>
      <trkpt lat="37.6281310" lon="-4.0888350">
        <ele>482.6</ele>
        <time>2021-12-28T09:25:08Z</time>
      </trkpt>
      <trkpt lat="37.6281090" lon="-4.0888570">
        <ele>482.4</ele>
        <time>2021-12-28T09:25:09Z</time>
      </trkpt>
      <trkpt lat="37.6280900" lon="-4.0888780">
        <ele>482.4</ele>
        <time>2021-12-28T09:25:10Z</time>
      </trkpt>
      <trkpt lat="37.6280670" lon="-4.0889000">
        <ele>482.4</ele>
        <time>2021-12-28T09:25:11Z</time>
      </trkpt>
      <trkpt lat="37.6280450" lon="-4.0889220">
        <ele>482.4</ele>
        <time>2021-12-28T09:25:12Z</time>
      </trkpt>
      <trkpt lat="37.6280220" lon="-4.0889440">
        <ele>482.4</ele>
        <time>2021-12-28T09:25:13Z</time>
      </trkpt>
      <trkpt lat="37.6279970" lon="-4.0889650">
        <ele>482.4</ele>
        <time>2021-12-28T09:25:14Z</time>
      </trkpt>
      <trkpt lat="37.6279810" lon="-4.0889880">
        <ele>482.4</ele>
        <time>2021-12-28T09:25:15Z</time>
      </trkpt>
      <trkpt lat="37.6279620" lon="-4.0890120">
        <ele>482.2</ele>
        <time>2021-12-28T09:25:16Z</time>
      </trkpt>
      <trkpt lat="37.6279360" lon="-4.0890350">
        <ele>482.4</ele>
        <time>2021-12-28T09:25:17Z</time>
      </trkpt>
      <trkpt lat="37.6279170" lon="-4.0890550">
        <ele>482.4</ele>
        <time>2021-12-28T09:25:18Z</time>
      </trkpt>
      <trkpt lat="37.6278940" lon="-4.0890730">
        <ele>482.4</ele>
        <time>2021-12-28T09:25:19Z</time>
      </trkpt>
      <trkpt lat="37.6278750" lon="-4.0890950">
        <ele>482.4</ele>
        <time>2021-12-28T09:25:20Z</time>
      </trkpt>
      <trkpt lat="37.6278560" lon="-4.0891200">
        <ele>482.2</ele>
        <time>2021-12-28T09:25:21Z</time>
      </trkpt>
      <trkpt lat="37.6278340" lon="-4.0891420">
        <ele>482.2</ele>
        <time>2021-12-28T09:25:22Z</time>
      </trkpt>
      <trkpt lat="37.6278110" lon="-4.0891650">
        <ele>482.2</ele>
        <time>2021-12-28T09:25:23Z</time>
      </trkpt>
      <trkpt lat="37.6277890" lon="-4.0891870">
        <ele>482.2</ele>
        <time>2021-12-28T09:25:24Z</time>
      </trkpt>
      <trkpt lat="37.6277660" lon="-4.0892100">
        <ele>482.2</ele>
        <time>2021-12-28T09:25:25Z</time>
      </trkpt>
      <trkpt lat="37.6277440" lon="-4.0892350">
        <ele>482.2</ele>
        <time>2021-12-28T09:25:26Z</time>
      </trkpt>
      <trkpt lat="37.6277150" lon="-4.0892600">
        <ele>482.2</ele>
        <time>2021-12-28T09:25:27Z</time>
      </trkpt>
      <trkpt lat="37.6276930" lon="-4.0892850">
        <ele>482.2</ele>
        <time>2021-12-28T09:25:28Z</time>
      </trkpt>
      <trkpt lat="37.6276670" lon="-4.0893120">
        <ele>482.2</ele>
        <time>2021-12-28T09:25:29Z</time>
      </trkpt>
      <trkpt lat="37.6276380" lon="-4.0893370">
        <ele>482.2</ele>
        <time>2021-12-28T09:25:30Z</time>
      </trkpt>
      <trkpt lat="37.6276160" lon="-4.0893620">
        <ele>482.2</ele>
        <time>2021-12-28T09:25:31Z</time>
      </trkpt>
      <trkpt lat="37.6275900" lon="-4.0893860">
        <ele>482.2</ele>
        <time>2021-12-28T09:25:32Z</time>
      </trkpt>
      <trkpt lat="37.6275650" lon="-4.0894100">
        <ele>482.4</ele>
        <time>2021-12-28T09:25:33Z</time>
      </trkpt>
      <trkpt lat="37.6275390" lon="-4.0894330">
        <ele>482.4</ele>
        <time>2021-12-28T09:25:34Z</time>
      </trkpt>
      <trkpt lat="37.6275170" lon="-4.0894620">
        <ele>482.4</ele>
        <time>2021-12-28T09:25:35Z</time>
      </trkpt>
      <trkpt lat="37.6274940" lon="-4.0894860">
        <ele>482.4</ele>
        <time>2021-12-28T09:25:36Z</time>
      </trkpt>
      <trkpt lat="37.6274720" lon="-4.0895100">
        <ele>482.4</ele>
        <time>2021-12-28T09:25:37Z</time>
      </trkpt>
      <trkpt lat="37.6274460" lon="-4.0895330">
        <ele>482.4</ele>
        <time>2021-12-28T09:25:38Z</time>
      </trkpt>
      <trkpt lat="37.6274210" lon="-4.0895600">
        <ele>482.4</ele>
        <time>2021-12-28T09:25:39Z</time>
      </trkpt>
      <trkpt lat="37.6273950" lon="-4.0895850">
        <ele>482.4</ele>
        <time>2021-12-28T09:25:40Z</time>
      </trkpt>
      <trkpt lat="37.6273700" lon="-4.0896100">
        <ele>482.4</ele>
        <time>2021-12-28T09:25:41Z</time>
      </trkpt>
      <trkpt lat="37.6273410" lon="-4.0896370">
        <ele>482.6</ele>
        <time>2021-12-28T09:25:42Z</time>
      </trkpt>
      <trkpt lat="37.6273150" lon="-4.0896640">
        <ele>482.6</ele>
        <time>2021-12-28T09:25:43Z</time>
      </trkpt>
      <trkpt lat="37.6272900" lon="-4.0896920">
        <ele>482.6</ele>
        <time>2021-12-28T09:25:44Z</time>
      </trkpt>
      <trkpt lat="37.6272670" lon="-4.0897200">
        <ele>482.6</ele>
        <time>2021-12-28T09:25:45Z</time>
      </trkpt>
      <trkpt lat="37.6272420" lon="-4.0897480">
        <ele>482.6</ele>
        <time>2021-12-28T09:25:46Z</time>
      </trkpt>
      <trkpt lat="37.6272160" lon="-4.0897750">
        <ele>482.6</ele>
        <time>2021-12-28T09:25:47Z</time>
      </trkpt>
      <trkpt lat="37.6271940" lon="-4.0898000">
        <ele>482.6</ele>
        <time>2021-12-28T09:25:48Z</time>
      </trkpt>
      <trkpt lat="37.6271680" lon="-4.0898260">
        <ele>482.6</ele>
        <time>2021-12-28T09:25:49Z</time>
      </trkpt>
      <trkpt lat="37.6271390" lon="-4.0898530">
        <ele>482.6</ele>
        <time>2021-12-28T09:25:50Z</time>
      </trkpt>
      <trkpt lat="37.6271170" lon="-4.0898770">
        <ele>482.6</ele>
        <time>2021-12-28T09:25:51Z</time>
      </trkpt>
      <trkpt lat="37.6270940" lon="-4.0899000">
        <ele>482.4</ele>
        <time>2021-12-28T09:25:52Z</time>
      </trkpt>
      <trkpt lat="37.6270750" lon="-4.0899250">
        <ele>482.4</ele>
        <time>2021-12-28T09:25:53Z</time>
      </trkpt>
      <trkpt lat="37.6270530" lon="-4.0899500">
        <ele>482.4</ele>
        <time>2021-12-28T09:25:54Z</time>
      </trkpt>
      <trkpt lat="37.6270300" lon="-4.0899740">
        <ele>482.4</ele>
        <time>2021-12-28T09:25:55Z</time>
      </trkpt>
      <trkpt lat="37.6270080" lon="-4.0899980">
        <ele>482.4</ele>
        <time>2021-12-28T09:25:56Z</time>
      </trkpt>
      <trkpt lat="37.6269820" lon="-4.0900250">
        <ele>482.4</ele>
        <time>2021-12-28T09:25:57Z</time>
      </trkpt>
      <trkpt lat="37.6269570" lon="-4.0900520">
        <ele>482.6</ele>
        <time>2021-12-28T09:25:58Z</time>
      </trkpt>
      <trkpt lat="37.6269340" lon="-4.0900780">
        <ele>482.6</ele>
        <time>2021-12-28T09:25:59Z</time>
      </trkpt>
      <trkpt lat="37.6269090" lon="-4.0901030">
        <ele>482.6</ele>
        <time>2021-12-28T09:26:00Z</time>
      </trkpt>
      <trkpt lat="37.6268830" lon="-4.0901300">
        <ele>482.6</ele>
        <time>2021-12-28T09:26:01Z</time>
      </trkpt>
      <trkpt lat="37.6268580" lon="-4.0901530">
        <ele>482.8</ele>
        <time>2021-12-28T09:26:02Z</time>
      </trkpt>
      <trkpt lat="37.6268350" lon="-4.0901760">
        <ele>482.8</ele>
        <time>2021-12-28T09:26:03Z</time>
      </trkpt>
      <trkpt lat="37.6268100" lon="-4.0902030">
        <ele>482.8</ele>
        <time>2021-12-28T09:26:04Z</time>
      </trkpt>
      <trkpt lat="37.6267840" lon="-4.0902320">
        <ele>482.8</ele>
        <time>2021-12-28T09:26:05Z</time>
      </trkpt>
      <trkpt lat="37.6267580" lon="-4.0902600">
        <ele>482.8</ele>
        <time>2021-12-28T09:26:06Z</time>
      </trkpt>
      <trkpt lat="37.6267360" lon="-4.0902870">
        <ele>482.8</ele>
        <time>2021-12-28T09:26:07Z</time>
      </trkpt>
      <trkpt lat="37.6267100" lon="-4.0903140">
        <ele>482.8</ele>
        <time>2021-12-28T09:26:08Z</time>
      </trkpt>
      <trkpt lat="37.6266850" lon="-4.0903400">
        <ele>482.8</ele>
        <time>2021-12-28T09:26:09Z</time>
      </trkpt>
      <trkpt lat="37.6266590" lon="-4.0903650">
        <ele>482.6</ele>
        <time>2021-12-28T09:26:10Z</time>
      </trkpt>
      <trkpt lat="37.6266370" lon="-4.0903920">
        <ele>482.8</ele>
        <time>2021-12-28T09:26:11Z</time>
      </trkpt>
      <trkpt lat="37.6266110" lon="-4.0904170">
        <ele>482.6</ele>
        <time>2021-12-28T09:26:12Z</time>
      </trkpt>
      <trkpt lat="37.6265820" lon="-4.0904420">
        <ele>482.6</ele>
        <time>2021-12-28T09:26:13Z</time>
      </trkpt>
      <trkpt lat="37.6265570" lon="-4.0904700">
        <ele>482.6</ele>
        <time>2021-12-28T09:26:14Z</time>
      </trkpt>
      <trkpt lat="37.6265310" lon="-4.0904980">
        <ele>482.6</ele>
        <time>2021-12-28T09:26:15Z</time>
      </trkpt>
      <trkpt lat="37.6265060" lon="-4.0905260">
        <ele>482.4</ele>
        <time>2021-12-28T09:26:16Z</time>
      </trkpt>
      <trkpt lat="37.6264800" lon="-4.0905530">
        <ele>482.4</ele>
        <time>2021-12-28T09:26:17Z</time>
      </trkpt>
      <trkpt lat="37.6264540" lon="-4.0905820">
        <ele>482.4</ele>
        <time>2021-12-28T09:26:18Z</time>
      </trkpt>
      <trkpt lat="37.6264260" lon="-4.0906080">
        <ele>482.4</ele>
        <time>2021-12-28T09:26:19Z</time>
      </trkpt>
      <trkpt lat="37.6264000" lon="-4.0906350">
        <ele>482.4</ele>
        <time>2021-12-28T09:26:20Z</time>
      </trkpt>
      <trkpt lat="37.6263780" lon="-4.0906640">
        <ele>482.4</ele>
        <time>2021-12-28T09:26:21Z</time>
      </trkpt>
      <trkpt lat="37.6263520" lon="-4.0906880">
        <ele>482.4</ele>
        <time>2021-12-28T09:26:22Z</time>
      </trkpt>
      <trkpt lat="37.6263260" lon="-4.0907140">
        <ele>482.6</ele>
        <time>2021-12-28T09:26:23Z</time>
      </trkpt>
      <trkpt lat="37.6263010" lon="-4.0907400">
        <ele>482.6</ele>
        <time>2021-12-28T09:26:24Z</time>
      </trkpt>
      <trkpt lat="37.6262750" lon="-4.0907670">
        <ele>482.6</ele>
        <time>2021-12-28T09:26:25Z</time>
      </trkpt>
      <trkpt lat="37.6262460" lon="-4.0907950">
        <ele>482.6</ele>
        <time>2021-12-28T09:26:26Z</time>
      </trkpt>
      <trkpt lat="37.6262240" lon="-4.0908230">
        <ele>482.8</ele>
        <time>2021-12-28T09:26:27Z</time>
      </trkpt>
      <trkpt lat="37.6261980" lon="-4.0908520">
        <ele>482.8</ele>
        <time>2021-12-28T09:26:28Z</time>
      </trkpt>
      <trkpt lat="37.6261660" lon="-4.0908800">
        <ele>482.8</ele>
        <time>2021-12-28T09:26:29Z</time>
      </trkpt>
      <trkpt lat="37.6261380" lon="-4.0909080">
        <ele>482.8</ele>
        <time>2021-12-28T09:26:30Z</time>
      </trkpt>
      <trkpt lat="37.6261060" lon="-4.0909370">
        <ele>482.8</ele>
        <time>2021-12-28T09:26:31Z</time>
      </trkpt>
      <trkpt lat="37.6260800" lon="-4.0909670">
        <ele>483.0</ele>
        <time>2021-12-28T09:26:32Z</time>
      </trkpt>
      <trkpt lat="37.6260480" lon="-4.0909950">
        <ele>483.0</ele>
        <time>2021-12-28T09:26:33Z</time>
      </trkpt>
      <trkpt lat="37.6260190" lon="-4.0910240">
        <ele>483.2</ele>
        <time>2021-12-28T09:26:34Z</time>
      </trkpt>
      <trkpt lat="37.6259900" lon="-4.0910540">
        <ele>483.2</ele>
        <time>2021-12-28T09:26:35Z</time>
      </trkpt>
      <trkpt lat="37.6259620" lon="-4.0910840">
        <ele>483.2</ele>
        <time>2021-12-28T09:26:36Z</time>
      </trkpt>
      <trkpt lat="37.6259300" lon="-4.0911120">
        <ele>483.4</ele>
        <time>2021-12-28T09:26:37Z</time>
      </trkpt>
      <trkpt lat="37.6259010" lon="-4.0911420">
        <ele>483.4</ele>
        <time>2021-12-28T09:26:38Z</time>
      </trkpt>
      <trkpt lat="37.6258690" lon="-4.0911720">
        <ele>483.4</ele>
        <time>2021-12-28T09:26:39Z</time>
      </trkpt>
      <trkpt lat="37.6258400" lon="-4.0912020">
        <ele>483.6</ele>
        <time>2021-12-28T09:26:40Z</time>
      </trkpt>
      <trkpt lat="37.6258080" lon="-4.0912330">
        <ele>483.6</ele>
        <time>2021-12-28T09:26:41Z</time>
      </trkpt>
      <trkpt lat="37.6257790" lon="-4.0912650">
        <ele>483.6</ele>
        <time>2021-12-28T09:26:42Z</time>
      </trkpt>
      <trkpt lat="37.6257470" lon="-4.0912950">
        <ele>483.8</ele>
        <time>2021-12-28T09:26:43Z</time>
      </trkpt>
      <trkpt lat="37.6257180" lon="-4.0913250">
        <ele>483.8</ele>
        <time>2021-12-28T09:26:44Z</time>
      </trkpt>
      <trkpt lat="37.6256860" lon="-4.0913550">
        <ele>483.8</ele>
        <time>2021-12-28T09:26:45Z</time>
      </trkpt>
      <trkpt lat="37.6256610" lon="-4.0913840">
        <ele>483.8</ele>
        <time>2021-12-28T09:26:46Z</time>
      </trkpt>
      <trkpt lat="37.6256290" lon="-4.0914120">
        <ele>483.8</ele>
        <time>2021-12-28T09:26:47Z</time>
      </trkpt>
      <trkpt lat="37.6256030" lon="-4.0914400">
        <ele>483.8</ele>
        <time>2021-12-28T09:26:48Z</time>
      </trkpt>
      <trkpt lat="37.6255710" lon="-4.0914670">
        <ele>483.6</ele>
        <time>2021-12-28T09:26:49Z</time>
      </trkpt>
      <trkpt lat="37.6255460" lon="-4.0914930">
        <ele>483.6</ele>
        <time>2021-12-28T09:26:50Z</time>
      </trkpt>
      <trkpt lat="37.6255140" lon="-4.0915220">
        <ele>483.8</ele>
        <time>2021-12-28T09:26:51Z</time>
      </trkpt>
      <trkpt lat="37.6254880" lon="-4.0915500">
        <ele>483.8</ele>
        <time>2021-12-28T09:26:52Z</time>
      </trkpt>
      <trkpt lat="37.6254620" lon="-4.0915760">
        <ele>483.8</ele>
        <time>2021-12-28T09:26:53Z</time>
      </trkpt>
      <trkpt lat="37.6254340" lon="-4.0916070">
        <ele>483.8</ele>
        <time>2021-12-28T09:26:54Z</time>
      </trkpt>
      <trkpt lat="37.6254080" lon="-4.0916370">
        <ele>483.8</ele>
        <time>2021-12-28T09:26:55Z</time>
      </trkpt>
      <trkpt lat="37.6253820" lon="-4.0916650">
        <ele>483.8</ele>
        <time>2021-12-28T09:26:56Z</time>
      </trkpt>
      <trkpt lat="37.6253540" lon="-4.0916940">
        <ele>484.0</ele>
        <time>2021-12-28T09:26:57Z</time>
      </trkpt>
      <trkpt lat="37.6253250" lon="-4.0917220">
        <ele>484.0</ele>
        <time>2021-12-28T09:26:58Z</time>
      </trkpt>
      <trkpt lat="37.6252930" lon="-4.0917480">
        <ele>483.8</ele>
        <time>2021-12-28T09:26:59Z</time>
      </trkpt>
      <trkpt lat="37.6252670" lon="-4.0917770">
        <ele>483.8</ele>
        <time>2021-12-28T09:27:00Z</time>
      </trkpt>
      <trkpt lat="37.6252420" lon="-4.0918050">
        <ele>483.8</ele>
        <time>2021-12-28T09:27:01Z</time>
      </trkpt>
      <trkpt lat="37.6252130" lon="-4.0918350">
        <ele>483.8</ele>
        <time>2021-12-28T09:27:02Z</time>
      </trkpt>
      <trkpt lat="37.6251840" lon="-4.0918630">
        <ele>483.6</ele>
        <time>2021-12-28T09:27:03Z</time>
      </trkpt>
      <trkpt lat="37.6251550" lon="-4.0918920">
        <ele>483.6</ele>
        <time>2021-12-28T09:27:04Z</time>
      </trkpt>
      <trkpt lat="37.6251260" lon="-4.0919180">
        <ele>483.6</ele>
        <time>2021-12-28T09:27:05Z</time>
      </trkpt>
      <trkpt lat="37.6250980" lon="-4.0919480">
        <ele>483.8</ele>
        <time>2021-12-28T09:27:06Z</time>
      </trkpt>
      <trkpt lat="37.6250690" lon="-4.0919750">
        <ele>483.8</ele>
        <time>2021-12-28T09:27:07Z</time>
      </trkpt>
      <trkpt lat="37.6250430" lon="-4.0920030">
        <ele>483.8</ele>
        <time>2021-12-28T09:27:08Z</time>
      </trkpt>
      <trkpt lat="37.6250140" lon="-4.0920330">
        <ele>483.8</ele>
        <time>2021-12-28T09:27:09Z</time>
      </trkpt>
      <trkpt lat="37.6249890" lon="-4.0920640">
        <ele>483.8</ele>
        <time>2021-12-28T09:27:10Z</time>
      </trkpt>
      <trkpt lat="37.6249630" lon="-4.0920940">
        <ele>483.8</ele>
        <time>2021-12-28T09:27:11Z</time>
      </trkpt>
      <trkpt lat="37.6249340" lon="-4.0921220">
        <ele>483.8</ele>
        <time>2021-12-28T09:27:12Z</time>
      </trkpt>
      <trkpt lat="37.6249060" lon="-4.0921500">
        <ele>484.0</ele>
        <time>2021-12-28T09:27:13Z</time>
      </trkpt>
      <trkpt lat="37.6248740" lon="-4.0921760">
        <ele>484.0</ele>
        <time>2021-12-28T09:27:14Z</time>
      </trkpt>
      <trkpt lat="37.6248480" lon="-4.0922060">
        <ele>484.0</ele>
        <time>2021-12-28T09:27:15Z</time>
      </trkpt>
      <trkpt lat="37.6248190" lon="-4.0922350">
        <ele>484.0</ele>
        <time>2021-12-28T09:27:16Z</time>
      </trkpt>
      <trkpt lat="37.6247940" lon="-4.0922630">
        <ele>484.0</ele>
        <time>2021-12-28T09:27:17Z</time>
      </trkpt>
      <trkpt lat="37.6247680" lon="-4.0922880">
        <ele>484.0</ele>
        <time>2021-12-28T09:27:18Z</time>
      </trkpt>
      <trkpt lat="37.6247460" lon="-4.0923130">
        <ele>483.8</ele>
        <time>2021-12-28T09:27:19Z</time>
      </trkpt>
      <trkpt lat="37.6247170" lon="-4.0923380">
        <ele>483.8</ele>
        <time>2021-12-28T09:27:20Z</time>
      </trkpt>
      <trkpt lat="37.6246940" lon="-4.0923630">
        <ele>483.8</ele>
        <time>2021-12-28T09:27:21Z</time>
      </trkpt>
      <trkpt lat="37.6246720" lon="-4.0923880">
        <ele>483.8</ele>
        <time>2021-12-28T09:27:22Z</time>
      </trkpt>
      <trkpt lat="37.6246400" lon="-4.0924170">
        <ele>483.8</ele>
        <time>2021-12-28T09:27:23Z</time>
      </trkpt>
      <trkpt lat="37.6246180" lon="-4.0924470">
        <ele>483.8</ele>
        <time>2021-12-28T09:27:24Z</time>
      </trkpt>
      <trkpt lat="37.6245890" lon="-4.0924770">
        <ele>483.8</ele>
        <time>2021-12-28T09:27:25Z</time>
      </trkpt>
      <trkpt lat="37.6245600" lon="-4.0925050">
        <ele>483.8</ele>
        <time>2021-12-28T09:27:26Z</time>
      </trkpt>
      <trkpt lat="37.6245310" lon="-4.0925330">
        <ele>483.8</ele>
        <time>2021-12-28T09:27:27Z</time>
      </trkpt>
      <trkpt lat="37.6245060" lon="-4.0925630">
        <ele>484.0</ele>
        <time>2021-12-28T09:27:28Z</time>
      </trkpt>
      <trkpt lat="37.6244740" lon="-4.0925920">
        <ele>484.0</ele>
        <time>2021-12-28T09:27:29Z</time>
      </trkpt>
      <trkpt lat="37.6244480" lon="-4.0926220">
        <ele>484.0</ele>
        <time>2021-12-28T09:27:30Z</time>
      </trkpt>
      <trkpt lat="37.6244190" lon="-4.0926500">
        <ele>484.0</ele>
        <time>2021-12-28T09:27:31Z</time>
      </trkpt>
      <trkpt lat="37.6243900" lon="-4.0926820">
        <ele>484.0</ele>
        <time>2021-12-28T09:27:32Z</time>
      </trkpt>
      <trkpt lat="37.6243580" lon="-4.0927100">
        <ele>484.0</ele>
        <time>2021-12-28T09:27:33Z</time>
      </trkpt>
      <trkpt lat="37.6243300" lon="-4.0927400">
        <ele>483.8</ele>
        <time>2021-12-28T09:27:34Z</time>
      </trkpt>
      <trkpt lat="37.6243010" lon="-4.0927700">
        <ele>483.8</ele>
        <time>2021-12-28T09:27:35Z</time>
      </trkpt>
      <trkpt lat="37.6242720" lon="-4.0928000">
        <ele>483.8</ele>
        <time>2021-12-28T09:27:36Z</time>
      </trkpt>
      <trkpt lat="37.6242400" lon="-4.0928320">
        <ele>483.8</ele>
        <time>2021-12-28T09:27:37Z</time>
      </trkpt>
      <trkpt lat="37.6242110" lon="-4.0928640">
        <ele>483.6</ele>
        <time>2021-12-28T09:27:38Z</time>
      </trkpt>
      <trkpt lat="37.6241790" lon="-4.0928930">
        <ele>483.6</ele>
        <time>2021-12-28T09:27:39Z</time>
      </trkpt>
      <trkpt lat="37.6241500" lon="-4.0929260">
        <ele>483.6</ele>
        <time>2021-12-28T09:27:40Z</time>
      </trkpt>
      <trkpt lat="37.6241180" lon="-4.0929560">
        <ele>483.6</ele>
        <time>2021-12-28T09:27:41Z</time>
      </trkpt>
      <trkpt lat="37.6240900" lon="-4.0929900">
        <ele>483.6</ele>
        <time>2021-12-28T09:27:42Z</time>
      </trkpt>
      <trkpt lat="37.6240580" lon="-4.0930230">
        <ele>483.6</ele>
        <time>2021-12-28T09:27:43Z</time>
      </trkpt>
      <trkpt lat="37.6240290" lon="-4.0930550">
        <ele>483.6</ele>
        <time>2021-12-28T09:27:44Z</time>
      </trkpt>
      <trkpt lat="37.6239970" lon="-4.0930870">
        <ele>483.6</ele>
        <time>2021-12-28T09:27:45Z</time>
      </trkpt>
      <trkpt lat="37.6239620" lon="-4.0931200">
        <ele>483.6</ele>
        <time>2021-12-28T09:27:46Z</time>
      </trkpt>
      <trkpt lat="37.6239330" lon="-4.0931540">
        <ele>483.6</ele>
        <time>2021-12-28T09:27:47Z</time>
      </trkpt>
      <trkpt lat="37.6238940" lon="-4.0931840">
        <ele>483.6</ele>
        <time>2021-12-28T09:27:48Z</time>
      </trkpt>
      <trkpt lat="37.6238620" lon="-4.0932140">
        <ele>483.6</ele>
        <time>2021-12-28T09:27:49Z</time>
      </trkpt>
      <trkpt lat="37.6238240" lon="-4.0932450">
        <ele>483.6</ele>
        <time>2021-12-28T09:27:50Z</time>
      </trkpt>
      <trkpt lat="37.6237950" lon="-4.0932760">
        <ele>483.6</ele>
        <time>2021-12-28T09:27:51Z</time>
      </trkpt>
      <trkpt lat="37.6237630" lon="-4.0933100">
        <ele>483.6</ele>
        <time>2021-12-28T09:27:52Z</time>
      </trkpt>
      <trkpt lat="37.6237340" lon="-4.0933430">
        <ele>483.6</ele>
        <time>2021-12-28T09:27:53Z</time>
      </trkpt>
      <trkpt lat="37.6237020" lon="-4.0933770">
        <ele>483.6</ele>
        <time>2021-12-28T09:27:54Z</time>
      </trkpt>
      <trkpt lat="37.6236770" lon="-4.0934120">
        <ele>483.8</ele>
        <time>2021-12-28T09:27:55Z</time>
      </trkpt>
      <trkpt lat="37.6236480" lon="-4.0934480">
        <ele>483.8</ele>
        <time>2021-12-28T09:27:56Z</time>
      </trkpt>
      <trkpt lat="37.6236190" lon="-4.0934820">
        <ele>484.0</ele>
        <time>2021-12-28T09:27:57Z</time>
      </trkpt>
      <trkpt lat="37.6235870" lon="-4.0935150">
        <ele>484.0</ele>
        <time>2021-12-28T09:27:58Z</time>
      </trkpt>
      <trkpt lat="37.6235620" lon="-4.0935480">
        <ele>484.0</ele>
        <time>2021-12-28T09:27:59Z</time>
      </trkpt>
      <trkpt lat="37.6235330" lon="-4.0935850">
        <ele>484.2</ele>
        <time>2021-12-28T09:28:00Z</time>
      </trkpt>
      <trkpt lat="37.6235010" lon="-4.0936180">
        <ele>484.2</ele>
        <time>2021-12-28T09:28:01Z</time>
      </trkpt>
      <trkpt lat="37.6234690" lon="-4.0936530">
        <ele>484.2</ele>
        <time>2021-12-28T09:28:02Z</time>
      </trkpt>
      <trkpt lat="37.6234400" lon="-4.0936880">
        <ele>484.4</ele>
        <time>2021-12-28T09:28:03Z</time>
      </trkpt>
      <trkpt lat="37.6234140" lon="-4.0937230">
        <ele>484.4</ele>
        <time>2021-12-28T09:28:04Z</time>
      </trkpt>
      <trkpt lat="37.6233820" lon="-4.0937550">
        <ele>484.4</ele>
        <time>2021-12-28T09:28:05Z</time>
      </trkpt>
      <trkpt lat="37.6233600" lon="-4.0937870">
        <ele>484.6</ele>
        <time>2021-12-28T09:28:06Z</time>
      </trkpt>
      <trkpt lat="37.6233380" lon="-4.0938150">
        <ele>484.6</ele>
        <time>2021-12-28T09:28:07Z</time>
      </trkpt>
      <trkpt lat="37.6233220" lon="-4.0938370">
        <ele>484.6</ele>
        <time>2021-12-28T09:28:08Z</time>
      </trkpt>
      <trkpt lat="37.6233220" lon="-4.0938370">
        <ele>484.6</ele>
        <time>2021-12-28T09:28:09Z</time>
      </trkpt>
      <trkpt lat="37.6233020" lon="-4.0938700">
        <ele>484.6</ele>
        <time>2021-12-28T09:28:10Z</time>
      </trkpt>
      <trkpt lat="37.6233020" lon="-4.0938700">
        <ele>484.6</ele>
        <time>2021-12-28T09:28:11Z</time>
      </trkpt>
      <trkpt lat="37.6232800" lon="-4.0939040">
        <ele>484.4</ele>
        <time>2021-12-28T09:28:12Z</time>
      </trkpt>
      <trkpt lat="37.6232640" lon="-4.0939240">
        <ele>484.4</ele>
        <time>2021-12-28T09:28:13Z</time>
      </trkpt>
      <trkpt lat="37.6232540" lon="-4.0939450">
        <ele>484.4</ele>
        <time>2021-12-28T09:28:14Z</time>
      </trkpt>
      <trkpt lat="37.6232380" lon="-4.0939660">
        <ele>484.2</ele>
        <time>2021-12-28T09:28:15Z</time>
      </trkpt>
      <trkpt lat="37.6232260" lon="-4.0939880">
        <ele>484.2</ele>
        <time>2021-12-28T09:28:16Z</time>
      </trkpt>
      <trkpt lat="37.6232160" lon="-4.0940100">
        <ele>484.2</ele>
        <time>2021-12-28T09:28:17Z</time>
      </trkpt>
      <trkpt lat="37.6232030" lon="-4.0940330">
        <ele>484.2</ele>
        <time>2021-12-28T09:28:18Z</time>
      </trkpt>
      <trkpt lat="37.6231870" lon="-4.0940600">
        <ele>484.0</ele>
        <time>2021-12-28T09:28:19Z</time>
      </trkpt>
      <trkpt lat="37.6231710" lon="-4.0940880">
        <ele>484.0</ele>
        <time>2021-12-28T09:28:20Z</time>
      </trkpt>
      <trkpt lat="37.6231580" lon="-4.0941180">
        <ele>483.8</ele>
        <time>2021-12-28T09:28:21Z</time>
      </trkpt>
      <trkpt lat="37.6231390" lon="-4.0941480">
        <ele>483.8</ele>
        <time>2021-12-28T09:28:22Z</time>
      </trkpt>
      <trkpt lat="37.6231230" lon="-4.0941780">
        <ele>483.8</ele>
        <time>2021-12-28T09:28:23Z</time>
      </trkpt>
      <trkpt lat="37.6231040" lon="-4.0942100">
        <ele>483.8</ele>
        <time>2021-12-28T09:28:24Z</time>
      </trkpt>
      <trkpt lat="37.6230850" lon="-4.0942420">
        <ele>483.6</ele>
        <time>2021-12-28T09:28:25Z</time>
      </trkpt>
      <trkpt lat="37.6230690" lon="-4.0942740">
        <ele>483.6</ele>
        <time>2021-12-28T09:28:26Z</time>
      </trkpt>
      <trkpt lat="37.6230500" lon="-4.0943020">
        <ele>483.4</ele>
        <time>2021-12-28T09:28:27Z</time>
      </trkpt>
      <trkpt lat="37.6230300" lon="-4.0943320">
        <ele>483.4</ele>
        <time>2021-12-28T09:28:28Z</time>
      </trkpt>
      <trkpt lat="37.6230180" lon="-4.0943580">
        <ele>483.4</ele>
        <time>2021-12-28T09:28:29Z</time>
      </trkpt>
      <trkpt lat="37.6230020" lon="-4.0943850">
        <ele>483.4</ele>
        <time>2021-12-28T09:28:30Z</time>
      </trkpt>
      <trkpt lat="37.6229820" lon="-4.0944130">
        <ele>483.4</ele>
        <time>2021-12-28T09:28:31Z</time>
      </trkpt>
      <trkpt lat="37.6229660" lon="-4.0944420">
        <ele>483.4</ele>
        <time>2021-12-28T09:28:32Z</time>
      </trkpt>
      <trkpt lat="37.6229500" lon="-4.0944680">
        <ele>483.2</ele>
        <time>2021-12-28T09:28:33Z</time>
      </trkpt>
      <trkpt lat="37.6229380" lon="-4.0944970">
        <ele>483.2</ele>
        <time>2021-12-28T09:28:34Z</time>
      </trkpt>
      <trkpt lat="37.6229250" lon="-4.0945250">
        <ele>483.2</ele>
        <time>2021-12-28T09:28:35Z</time>
      </trkpt>
      <trkpt lat="37.6229060" lon="-4.0945520">
        <ele>483.2</ele>
        <time>2021-12-28T09:28:36Z</time>
      </trkpt>
      <trkpt lat="37.6228900" lon="-4.0945780">
        <ele>483.2</ele>
        <time>2021-12-28T09:28:37Z</time>
      </trkpt>
      <trkpt lat="37.6228800" lon="-4.0946070">
        <ele>483.2</ele>
        <time>2021-12-28T09:28:38Z</time>
      </trkpt>
      <trkpt lat="37.6228640" lon="-4.0946350">
        <ele>483.2</ele>
        <time>2021-12-28T09:28:39Z</time>
      </trkpt>
      <trkpt lat="37.6228480" lon="-4.0946620">
        <ele>483.2</ele>
        <time>2021-12-28T09:28:40Z</time>
      </trkpt>
      <trkpt lat="37.6228380" lon="-4.0946860">
        <ele>483.2</ele>
        <time>2021-12-28T09:28:41Z</time>
      </trkpt>
      <trkpt lat="37.6228260" lon="-4.0947120">
        <ele>483.2</ele>
        <time>2021-12-28T09:28:42Z</time>
      </trkpt>
      <trkpt lat="37.6228130" lon="-4.0947380">
        <ele>483.2</ele>
        <time>2021-12-28T09:28:43Z</time>
      </trkpt>
      <trkpt lat="37.6228000" lon="-4.0947650">
        <ele>483.0</ele>
        <time>2021-12-28T09:28:44Z</time>
      </trkpt>
      <trkpt lat="37.6227840" lon="-4.0947930">
        <ele>483.0</ele>
        <time>2021-12-28T09:28:45Z</time>
      </trkpt>
      <trkpt lat="37.6227710" lon="-4.0948150">
        <ele>483.0</ele>
        <time>2021-12-28T09:28:46Z</time>
      </trkpt>
      <trkpt lat="37.6227620" lon="-4.0948370">
        <ele>483.0</ele>
        <time>2021-12-28T09:28:47Z</time>
      </trkpt>
      <trkpt lat="37.6227520" lon="-4.0948580">
        <ele>483.0</ele>
        <time>2021-12-28T09:28:48Z</time>
      </trkpt>
      <trkpt lat="37.6227420" lon="-4.0948780">
        <ele>483.2</ele>
        <time>2021-12-28T09:28:49Z</time>
      </trkpt>
      <trkpt lat="37.6227390" lon="-4.0949020">
        <ele>483.2</ele>
        <time>2021-12-28T09:28:50Z</time>
      </trkpt>
      <trkpt lat="37.6227260" lon="-4.0949240">
        <ele>483.2</ele>
        <time>2021-12-28T09:28:51Z</time>
      </trkpt>
      <trkpt lat="37.6227140" lon="-4.0949450">
        <ele>483.2</ele>
        <time>2021-12-28T09:28:52Z</time>
      </trkpt>
      <trkpt lat="37.6227070" lon="-4.0949680">
        <ele>483.2</ele>
        <time>2021-12-28T09:28:53Z</time>
      </trkpt>
      <trkpt lat="37.6227010" lon="-4.0949930">
        <ele>483.2</ele>
        <time>2021-12-28T09:28:54Z</time>
      </trkpt>
      <trkpt lat="37.6226880" lon="-4.0950200">
        <ele>483.2</ele>
        <time>2021-12-28T09:28:55Z</time>
      </trkpt>
      <trkpt lat="37.6226820" lon="-4.0950460">
        <ele>483.4</ele>
        <time>2021-12-28T09:28:56Z</time>
      </trkpt>
      <trkpt lat="37.6226690" lon="-4.0950760">
        <ele>483.4</ele>
        <time>2021-12-28T09:28:57Z</time>
      </trkpt>
      <trkpt lat="37.6226590" lon="-4.0951050">
        <ele>483.4</ele>
        <time>2021-12-28T09:28:58Z</time>
      </trkpt>
      <trkpt lat="37.6226500" lon="-4.0951330">
        <ele>483.6</ele>
        <time>2021-12-28T09:28:59Z</time>
      </trkpt>
      <trkpt lat="37.6226430" lon="-4.0951620">
        <ele>483.6</ele>
        <time>2021-12-28T09:29:00Z</time>
      </trkpt>
      <trkpt lat="37.6226300" lon="-4.0951920">
        <ele>483.6</ele>
        <time>2021-12-28T09:29:01Z</time>
      </trkpt>
      <trkpt lat="37.6226140" lon="-4.0952180">
        <ele>483.4</ele>
        <time>2021-12-28T09:29:02Z</time>
      </trkpt>
      <trkpt lat="37.6226080" lon="-4.0952500">
        <ele>483.4</ele>
        <time>2021-12-28T09:29:03Z</time>
      </trkpt>
      <trkpt lat="37.6225950" lon="-4.0952800">
        <ele>483.4</ele>
        <time>2021-12-28T09:29:04Z</time>
      </trkpt>
      <trkpt lat="37.6225820" lon="-4.0953100">
        <ele>483.4</ele>
        <time>2021-12-28T09:29:05Z</time>
      </trkpt>
      <trkpt lat="37.6225700" lon="-4.0953400">
        <ele>483.4</ele>
        <time>2021-12-28T09:29:06Z</time>
      </trkpt>
      <trkpt lat="37.6225600" lon="-4.0953660">
        <ele>483.4</ele>
        <time>2021-12-28T09:29:07Z</time>
      </trkpt>
      <trkpt lat="37.6225440" lon="-4.0953980">
        <ele>483.4</ele>
        <time>2021-12-28T09:29:08Z</time>
      </trkpt>
      <trkpt lat="37.6225310" lon="-4.0954300">
        <ele>483.4</ele>
        <time>2021-12-28T09:29:09Z</time>
      </trkpt>
      <trkpt lat="37.6225250" lon="-4.0954600">
        <ele>483.2</ele>
        <time>2021-12-28T09:29:10Z</time>
      </trkpt>
      <trkpt lat="37.6225120" lon="-4.0954930">
        <ele>483.2</ele>
        <time>2021-12-28T09:29:11Z</time>
      </trkpt>
      <trkpt lat="37.6225020" lon="-4.0955270">
        <ele>483.2</ele>
        <time>2021-12-28T09:29:12Z</time>
      </trkpt>
      <trkpt lat="37.6224900" lon="-4.0955640">
        <ele>483.2</ele>
        <time>2021-12-28T09:29:13Z</time>
      </trkpt>
      <trkpt lat="37.6224830" lon="-4.0956000">
        <ele>483.2</ele>
        <time>2021-12-28T09:29:14Z</time>
      </trkpt>
      <trkpt lat="37.6224700" lon="-4.0956350">
        <ele>483.2</ele>
        <time>2021-12-28T09:29:15Z</time>
      </trkpt>
      <trkpt lat="37.6224640" lon="-4.0956720">
        <ele>483.2</ele>
        <time>2021-12-28T09:29:16Z</time>
      </trkpt>
      <trkpt lat="37.6224510" lon="-4.0957080">
        <ele>483.4</ele>
        <time>2021-12-28T09:29:17Z</time>
      </trkpt>
      <trkpt lat="37.6224450" lon="-4.0957430">
        <ele>483.4</ele>
        <time>2021-12-28T09:29:18Z</time>
      </trkpt>
      <trkpt lat="37.6224320" lon="-4.0957800">
        <ele>483.4</ele>
        <time>2021-12-28T09:29:19Z</time>
      </trkpt>
      <trkpt lat="37.6224260" lon="-4.0958170">
        <ele>483.2</ele>
        <time>2021-12-28T09:29:20Z</time>
      </trkpt>
      <trkpt lat="37.6224130" lon="-4.0958520">
        <ele>483.2</ele>
        <time>2021-12-28T09:29:21Z</time>
      </trkpt>
      <trkpt lat="37.6224060" lon="-4.0958880">
        <ele>483.2</ele>
        <time>2021-12-28T09:29:22Z</time>
      </trkpt>
      <trkpt lat="37.6223940" lon="-4.0959240">
        <ele>483.2</ele>
        <time>2021-12-28T09:29:23Z</time>
      </trkpt>
      <trkpt lat="37.6223870" lon="-4.0959600">
        <ele>483.2</ele>
        <time>2021-12-28T09:29:24Z</time>
      </trkpt>
      <trkpt lat="37.6223810" lon="-4.0959980">
        <ele>483.0</ele>
        <time>2021-12-28T09:29:25Z</time>
      </trkpt>
      <trkpt lat="37.6223680" lon="-4.0960350">
        <ele>483.0</ele>
        <time>2021-12-28T09:29:26Z</time>
      </trkpt>
      <trkpt lat="37.6223620" lon="-4.0960730">
        <ele>483.0</ele>
        <time>2021-12-28T09:29:27Z</time>
      </trkpt>
      <trkpt lat="37.6223490" lon="-4.0961120">
        <ele>483.0</ele>
        <time>2021-12-28T09:29:28Z</time>
      </trkpt>
      <trkpt lat="37.6223420" lon="-4.0961520">
        <ele>483.0</ele>
        <time>2021-12-28T09:29:29Z</time>
      </trkpt>
      <trkpt lat="37.6223330" lon="-4.0961900">
        <ele>483.0</ele>
        <time>2021-12-28T09:29:30Z</time>
      </trkpt>
      <trkpt lat="37.6223260" lon="-4.0962300">
        <ele>482.8</ele>
        <time>2021-12-28T09:29:31Z</time>
      </trkpt>
      <trkpt lat="37.6223170" lon="-4.0962680">
        <ele>482.8</ele>
        <time>2021-12-28T09:29:32Z</time>
      </trkpt>
      <trkpt lat="37.6223070" lon="-4.0963100">
        <ele>482.8</ele>
        <time>2021-12-28T09:29:33Z</time>
      </trkpt>
      <trkpt lat="37.6222980" lon="-4.0963520">
        <ele>482.8</ele>
        <time>2021-12-28T09:29:34Z</time>
      </trkpt>
      <trkpt lat="37.6222910" lon="-4.0963930">
        <ele>483.0</ele>
        <time>2021-12-28T09:29:35Z</time>
      </trkpt>
      <trkpt lat="37.6222880" lon="-4.0964360">
        <ele>483.0</ele>
        <time>2021-12-28T09:29:36Z</time>
      </trkpt>
      <trkpt lat="37.6222850" lon="-4.0964800">
        <ele>483.0</ele>
        <time>2021-12-28T09:29:37Z</time>
      </trkpt>
      <trkpt lat="37.6222750" lon="-4.0965200">
        <ele>483.2</ele>
        <time>2021-12-28T09:29:38Z</time>
      </trkpt>
      <trkpt lat="37.6222720" lon="-4.0965600">
        <ele>483.2</ele>
        <time>2021-12-28T09:29:39Z</time>
      </trkpt>
      <trkpt lat="37.6222660" lon="-4.0965980">
        <ele>483.2</ele>
        <time>2021-12-28T09:29:40Z</time>
      </trkpt>
      <trkpt lat="37.6222560" lon="-4.0966380">
        <ele>483.2</ele>
        <time>2021-12-28T09:29:41Z</time>
      </trkpt>
      <trkpt lat="37.6222500" lon="-4.0966800">
        <ele>483.2</ele>
        <time>2021-12-28T09:29:42Z</time>
      </trkpt>
      <trkpt lat="37.6222430" lon="-4.0967240">
        <ele>483.4</ele>
        <time>2021-12-28T09:29:43Z</time>
      </trkpt>
      <trkpt lat="37.6222370" lon="-4.0967650">
        <ele>483.4</ele>
        <time>2021-12-28T09:29:44Z</time>
      </trkpt>
      <trkpt lat="37.6222300" lon="-4.0968080">
        <ele>483.4</ele>
        <time>2021-12-28T09:29:45Z</time>
      </trkpt>
      <trkpt lat="37.6222240" lon="-4.0968500">
        <ele>483.6</ele>
        <time>2021-12-28T09:29:46Z</time>
      </trkpt>
      <trkpt lat="37.6222140" lon="-4.0968930">
        <ele>483.6</ele>
        <time>2021-12-28T09:29:47Z</time>
      </trkpt>
      <trkpt lat="37.6222080" lon="-4.0969370">
        <ele>483.6</ele>
        <time>2021-12-28T09:29:48Z</time>
      </trkpt>
      <trkpt lat="37.6222020" lon="-4.0969780">
        <ele>483.6</ele>
        <time>2021-12-28T09:29:49Z</time>
      </trkpt>
      <trkpt lat="37.6221950" lon="-4.0970220">
        <ele>483.6</ele>
        <time>2021-12-28T09:29:50Z</time>
      </trkpt>
      <trkpt lat="37.6221920" lon="-4.0970650">
        <ele>483.6</ele>
        <time>2021-12-28T09:29:51Z</time>
      </trkpt>
      <trkpt lat="37.6221890" lon="-4.0971060">
        <ele>483.6</ele>
        <time>2021-12-28T09:29:52Z</time>
      </trkpt>
      <trkpt lat="37.6221820" lon="-4.0971520">
        <ele>483.6</ele>
        <time>2021-12-28T09:29:53Z</time>
      </trkpt>
      <trkpt lat="37.6221730" lon="-4.0971930">
        <ele>483.8</ele>
        <time>2021-12-28T09:29:54Z</time>
      </trkpt>
      <trkpt lat="37.6221700" lon="-4.0972370">
        <ele>483.8</ele>
        <time>2021-12-28T09:29:55Z</time>
      </trkpt>
      <trkpt lat="37.6221630" lon="-4.0972820">
        <ele>483.8</ele>
        <time>2021-12-28T09:29:56Z</time>
      </trkpt>
      <trkpt lat="37.6221570" lon="-4.0973250">
        <ele>483.8</ele>
        <time>2021-12-28T09:29:57Z</time>
      </trkpt>
      <trkpt lat="37.6221500" lon="-4.0973680">
        <ele>483.8</ele>
        <time>2021-12-28T09:29:58Z</time>
      </trkpt>
      <trkpt lat="37.6221470" lon="-4.0974140">
        <ele>483.8</ele>
        <time>2021-12-28T09:29:59Z</time>
      </trkpt>
      <trkpt lat="37.6221390" lon="-4.0974770">
        <ele>483.8</ele>
        <time>2021-12-28T09:30:00Z</time>
      </trkpt>
      <trkpt lat="37.6221340" lon="-4.0974980">
        <ele>484.0</ele>
        <time>2021-12-28T09:30:01Z</time>
      </trkpt>
      <trkpt lat="37.6221310" lon="-4.0975420">
        <ele>484.0</ele>
        <time>2021-12-28T09:30:02Z</time>
      </trkpt>
      <trkpt lat="37.6221280" lon="-4.0975870">
        <ele>484.2</ele>
        <time>2021-12-28T09:30:03Z</time>
      </trkpt>
      <trkpt lat="37.6221180" lon="-4.0976280">
        <ele>484.2</ele>
        <time>2021-12-28T09:30:04Z</time>
      </trkpt>
      <trkpt lat="37.6221120" lon="-4.0976670">
        <ele>484.4</ele>
        <time>2021-12-28T09:30:05Z</time>
      </trkpt>
      <trkpt lat="37.6221090" lon="-4.0977080">
        <ele>484.4</ele>
        <time>2021-12-28T09:30:06Z</time>
      </trkpt>
      <trkpt lat="37.6221020" lon="-4.0977520">
        <ele>484.2</ele>
        <time>2021-12-28T09:30:07Z</time>
      </trkpt>
      <trkpt lat="37.6220930" lon="-4.0977950">
        <ele>484.2</ele>
        <time>2021-12-28T09:30:08Z</time>
      </trkpt>
      <trkpt lat="37.6220860" lon="-4.0978380">
        <ele>484.4</ele>
        <time>2021-12-28T09:30:09Z</time>
      </trkpt>
      <trkpt lat="37.6220830" lon="-4.0978830">
        <ele>484.4</ele>
        <time>2021-12-28T09:30:10Z</time>
      </trkpt>
      <trkpt lat="37.6220770" lon="-4.0979270">
        <ele>484.2</ele>
        <time>2021-12-28T09:30:11Z</time>
      </trkpt>
      <trkpt lat="37.6220700" lon="-4.0979700">
        <ele>484.2</ele>
        <time>2021-12-28T09:30:12Z</time>
      </trkpt>
      <trkpt lat="37.6220640" lon="-4.0980140">
        <ele>484.2</ele>
        <time>2021-12-28T09:30:13Z</time>
      </trkpt>
      <trkpt lat="37.6220540" lon="-4.0980570">
        <ele>484.2</ele>
        <time>2021-12-28T09:30:14Z</time>
      </trkpt>
      <trkpt lat="37.6220480" lon="-4.0981000">
        <ele>484.2</ele>
        <time>2021-12-28T09:30:15Z</time>
      </trkpt>
      <trkpt lat="37.6220380" lon="-4.0981420">
        <ele>484.2</ele>
        <time>2021-12-28T09:30:16Z</time>
      </trkpt>
      <trkpt lat="37.6220320" lon="-4.0981880">
        <ele>484.2</ele>
        <time>2021-12-28T09:30:17Z</time>
      </trkpt>
      <trkpt lat="37.6220260" lon="-4.0982330">
        <ele>484.2</ele>
        <time>2021-12-28T09:30:18Z</time>
      </trkpt>
      <trkpt lat="37.6220160" lon="-4.0982780">
        <ele>484.2</ele>
        <time>2021-12-28T09:30:19Z</time>
      </trkpt>
      <trkpt lat="37.6220100" lon="-4.0983230">
        <ele>484.2</ele>
        <time>2021-12-28T09:30:20Z</time>
      </trkpt>
      <trkpt lat="37.6220030" lon="-4.0983680">
        <ele>484.0</ele>
        <time>2021-12-28T09:30:21Z</time>
      </trkpt>
      <trkpt lat="37.6219900" lon="-4.0984140">
        <ele>484.0</ele>
        <time>2021-12-28T09:30:22Z</time>
      </trkpt>
      <trkpt lat="37.6219840" lon="-4.0984570">
        <ele>484.0</ele>
        <time>2021-12-28T09:30:23Z</time>
      </trkpt>
      <trkpt lat="37.6219740" lon="-4.0985000">
        <ele>484.0</ele>
        <time>2021-12-28T09:30:24Z</time>
      </trkpt>
      <trkpt lat="37.6219650" lon="-4.0985430">
        <ele>484.0</ele>
        <time>2021-12-28T09:30:25Z</time>
      </trkpt>
      <trkpt lat="37.6219550" lon="-4.0985850">
        <ele>484.0</ele>
        <time>2021-12-28T09:30:26Z</time>
      </trkpt>
      <trkpt lat="37.6219460" lon="-4.0986280">
        <ele>483.8</ele>
        <time>2021-12-28T09:30:27Z</time>
      </trkpt>
      <trkpt lat="37.6219330" lon="-4.0986730">
        <ele>483.8</ele>
        <time>2021-12-28T09:30:28Z</time>
      </trkpt>
      <trkpt lat="37.6219200" lon="-4.0987150">
        <ele>483.8</ele>
        <time>2021-12-28T09:30:29Z</time>
      </trkpt>
      <trkpt lat="37.6219100" lon="-4.0987570">
        <ele>483.8</ele>
        <time>2021-12-28T09:30:30Z</time>
      </trkpt>
      <trkpt lat="37.6218980" lon="-4.0988000">
        <ele>483.8</ele>
        <time>2021-12-28T09:30:31Z</time>
      </trkpt>
      <trkpt lat="37.6218880" lon="-4.0988420">
        <ele>483.8</ele>
        <time>2021-12-28T09:30:32Z</time>
      </trkpt>
      <trkpt lat="37.6218720" lon="-4.0988830">
        <ele>483.8</ele>
        <time>2021-12-28T09:30:33Z</time>
      </trkpt>
      <trkpt lat="37.6218590" lon="-4.0989230">
        <ele>483.8</ele>
        <time>2021-12-28T09:30:34Z</time>
      </trkpt>
      <trkpt lat="37.6218460" lon="-4.0989630">
        <ele>483.6</ele>
        <time>2021-12-28T09:30:35Z</time>
      </trkpt>
      <trkpt lat="37.6218300" lon="-4.0990020">
        <ele>483.6</ele>
        <time>2021-12-28T09:30:36Z</time>
      </trkpt>
      <trkpt lat="37.6218180" lon="-4.0990420">
        <ele>483.6</ele>
        <time>2021-12-28T09:30:37Z</time>
      </trkpt>
      <trkpt lat="37.6218050" lon="-4.0990840">
        <ele>483.6</ele>
        <time>2021-12-28T09:30:38Z</time>
      </trkpt>
      <trkpt lat="37.6217920" lon="-4.0991220">
        <ele>483.6</ele>
        <time>2021-12-28T09:30:39Z</time>
      </trkpt>
      <trkpt lat="37.6217790" lon="-4.0991620">
        <ele>483.6</ele>
        <time>2021-12-28T09:30:40Z</time>
      </trkpt>
      <trkpt lat="37.6217660" lon="-4.0992020">
        <ele>483.6</ele>
        <time>2021-12-28T09:30:41Z</time>
      </trkpt>
      <trkpt lat="37.6217540" lon="-4.0992420">
        <ele>483.6</ele>
        <time>2021-12-28T09:30:42Z</time>
      </trkpt>
      <trkpt lat="37.6217380" lon="-4.0992820">
        <ele>483.4</ele>
        <time>2021-12-28T09:30:43Z</time>
      </trkpt>
      <trkpt lat="37.6217220" lon="-4.0993230">
        <ele>483.4</ele>
        <time>2021-12-28T09:30:44Z</time>
      </trkpt>
      <trkpt lat="37.6217090" lon="-4.0993650">
        <ele>483.4</ele>
        <time>2021-12-28T09:30:45Z</time>
      </trkpt>
      <trkpt lat="37.6216930" lon="-4.0994050">
        <ele>483.4</ele>
        <time>2021-12-28T09:30:46Z</time>
      </trkpt>
      <trkpt lat="37.6216770" lon="-4.0994470">
        <ele>483.6</ele>
        <time>2021-12-28T09:30:47Z</time>
      </trkpt>
      <trkpt lat="37.6216610" lon="-4.0994880">
        <ele>483.4</ele>
        <time>2021-12-28T09:30:48Z</time>
      </trkpt>
      <trkpt lat="37.6216480" lon="-4.0995300">
        <ele>483.6</ele>
        <time>2021-12-28T09:30:49Z</time>
      </trkpt>
      <trkpt lat="37.6216320" lon="-4.0995720">
        <ele>483.6</ele>
        <time>2021-12-28T09:30:50Z</time>
      </trkpt>
      <trkpt lat="37.6216190" lon="-4.0996120">
        <ele>483.6</ele>
        <time>2021-12-28T09:30:51Z</time>
      </trkpt>
      <trkpt lat="37.6216060" lon="-4.0996550">
        <ele>483.6</ele>
        <time>2021-12-28T09:30:52Z</time>
      </trkpt>
      <trkpt lat="37.6215900" lon="-4.0996970">
        <ele>483.6</ele>
        <time>2021-12-28T09:30:53Z</time>
      </trkpt>
      <trkpt lat="37.6215740" lon="-4.0997380">
        <ele>483.8</ele>
        <time>2021-12-28T09:30:54Z</time>
      </trkpt>
      <trkpt lat="37.6215580" lon="-4.0997800">
        <ele>483.8</ele>
        <time>2021-12-28T09:30:55Z</time>
      </trkpt>
      <trkpt lat="37.6215420" lon="-4.0998220">
        <ele>483.8</ele>
        <time>2021-12-28T09:30:56Z</time>
      </trkpt>
      <trkpt lat="37.6215300" lon="-4.0998620">
        <ele>483.8</ele>
        <time>2021-12-28T09:30:57Z</time>
      </trkpt>
      <trkpt lat="37.6215140" lon="-4.0999020">
        <ele>483.8</ele>
        <time>2021-12-28T09:30:58Z</time>
      </trkpt>
      <trkpt lat="37.6214980" lon="-4.0999430">
        <ele>483.8</ele>
        <time>2021-12-28T09:30:59Z</time>
      </trkpt>
      <trkpt lat="37.6214820" lon="-4.0999850">
        <ele>483.8</ele>
        <time>2021-12-28T09:31:00Z</time>
      </trkpt>
      <trkpt lat="37.6214690" lon="-4.1000250">
        <ele>484.0</ele>
        <time>2021-12-28T09:31:01Z</time>
      </trkpt>
      <trkpt lat="37.6214530" lon="-4.1000630">
        <ele>484.0</ele>
        <time>2021-12-28T09:31:02Z</time>
      </trkpt>
      <trkpt lat="37.6214370" lon="-4.1001020">
        <ele>484.2</ele>
        <time>2021-12-28T09:31:03Z</time>
      </trkpt>
      <trkpt lat="37.6214270" lon="-4.1001400">
        <ele>484.2</ele>
        <time>2021-12-28T09:31:04Z</time>
      </trkpt>
      <trkpt lat="37.6214110" lon="-4.1001750">
        <ele>484.2</ele>
        <time>2021-12-28T09:31:05Z</time>
      </trkpt>
      <trkpt lat="37.6214020" lon="-4.1002050">
        <ele>484.2</ele>
        <time>2021-12-28T09:31:06Z</time>
      </trkpt>
      <trkpt lat="37.6213950" lon="-4.1002280">
        <ele>484.2</ele>
        <time>2021-12-28T09:31:07Z</time>
      </trkpt>
      <trkpt lat="37.6213950" lon="-4.1002280">
        <ele>484.2</ele>
        <time>2021-12-28T09:31:08Z</time>
      </trkpt>
      <trkpt lat="37.6213890" lon="-4.1002580">
        <ele>484.2</ele>
        <time>2021-12-28T09:31:09Z</time>
      </trkpt>
      <trkpt lat="37.6213890" lon="-4.1002580">
        <ele>484.2</ele>
        <time>2021-12-28T09:31:10Z</time>
      </trkpt>
      <trkpt lat="37.6213890" lon="-4.1002580">
        <ele>484.2</ele>
        <time>2021-12-28T09:31:11Z</time>
      </trkpt>
      <trkpt lat="37.6213890" lon="-4.1002580">
        <ele>484.2</ele>
        <time>2021-12-28T09:31:12Z</time>
      </trkpt>
      <trkpt lat="37.6213890" lon="-4.1002580">
        <ele>484.4</ele>
        <time>2021-12-28T09:31:13Z</time>
      </trkpt>
      <trkpt lat="37.6213540" lon="-4.1003920">
        <ele>486.4</ele>
        <time>2021-12-28T09:35:01Z</time>
      </trkpt>
      <trkpt lat="37.6213380" lon="-4.1004370">
        <ele>486.4</ele>
        <time>2021-12-28T09:35:02Z</time>
      </trkpt>
      <trkpt lat="37.6213220" lon="-4.1004840">
        <ele>486.4</ele>
        <time>2021-12-28T09:35:03Z</time>
      </trkpt>
      <trkpt lat="37.6213090" lon="-4.1005320">
        <ele>486.4</ele>
        <time>2021-12-28T09:35:04Z</time>
      </trkpt>
      <trkpt lat="37.6212960" lon="-4.1005780">
        <ele>486.4</ele>
        <time>2021-12-28T09:35:05Z</time>
      </trkpt>
      <trkpt lat="37.6212770" lon="-4.1006220">
        <ele>486.4</ele>
        <time>2021-12-28T09:35:06Z</time>
      </trkpt>
      <trkpt lat="37.6212640" lon="-4.1006600">
        <ele>486.4</ele>
        <time>2021-12-28T09:35:07Z</time>
      </trkpt>
      <trkpt lat="37.6212510" lon="-4.1006980">
        <ele>486.2</ele>
        <time>2021-12-28T09:35:08Z</time>
      </trkpt>
      <trkpt lat="37.6212350" lon="-4.1007370">
        <ele>486.2</ele>
        <time>2021-12-28T09:35:09Z</time>
      </trkpt>
      <trkpt lat="37.6212220" lon="-4.1007770">
        <ele>486.2</ele>
        <time>2021-12-28T09:35:10Z</time>
      </trkpt>
      <trkpt lat="37.6212100" lon="-4.1008150">
        <ele>486.2</ele>
        <time>2021-12-28T09:35:11Z</time>
      </trkpt>
      <trkpt lat="37.6211970" lon="-4.1008540">
        <ele>486.2</ele>
        <time>2021-12-28T09:35:12Z</time>
      </trkpt>
      <trkpt lat="37.6211810" lon="-4.1008900">
        <ele>486.2</ele>
        <time>2021-12-28T09:35:13Z</time>
      </trkpt>
      <trkpt lat="37.6211710" lon="-4.1009270">
        <ele>486.2</ele>
        <time>2021-12-28T09:35:14Z</time>
      </trkpt>
      <trkpt lat="37.6211550" lon="-4.1009620">
        <ele>486.2</ele>
        <time>2021-12-28T09:35:15Z</time>
      </trkpt>
      <trkpt lat="37.6211420" lon="-4.1010000">
        <ele>486.2</ele>
        <time>2021-12-28T09:35:16Z</time>
      </trkpt>
      <trkpt lat="37.6211330" lon="-4.1010360">
        <ele>486.2</ele>
        <time>2021-12-28T09:35:17Z</time>
      </trkpt>
      <trkpt lat="37.6211170" lon="-4.1010730">
        <ele>486.2</ele>
        <time>2021-12-28T09:35:18Z</time>
      </trkpt>
      <trkpt lat="37.6211040" lon="-4.1011100">
        <ele>486.2</ele>
        <time>2021-12-28T09:35:19Z</time>
      </trkpt>
      <trkpt lat="37.6210910" lon="-4.1011570">
        <ele>486.2</ele>
        <time>2021-12-28T09:35:20Z</time>
      </trkpt>
      <trkpt lat="37.6210780" lon="-4.1011870">
        <ele>486.2</ele>
        <time>2021-12-28T09:35:21Z</time>
      </trkpt>
      <trkpt lat="37.6210660" lon="-4.1012240">
        <ele>486.2</ele>
        <time>2021-12-28T09:35:22Z</time>
      </trkpt>
      <trkpt lat="37.6210530" lon="-4.1012600">
        <ele>486.2</ele>
        <time>2021-12-28T09:35:23Z</time>
      </trkpt>
      <trkpt lat="37.6210370" lon="-4.1012960">
        <ele>486.2</ele>
        <time>2021-12-28T09:35:24Z</time>
      </trkpt>
      <trkpt lat="37.6210210" lon="-4.1013330">
        <ele>486.0</ele>
        <time>2021-12-28T09:35:25Z</time>
      </trkpt>
      <trkpt lat="37.6210050" lon="-4.1013720">
        <ele>486.0</ele>
        <time>2021-12-28T09:35:26Z</time>
      </trkpt>
      <trkpt lat="37.6209950" lon="-4.1014120">
        <ele>486.0</ele>
        <time>2021-12-28T09:35:27Z</time>
      </trkpt>
      <trkpt lat="37.6209790" lon="-4.1014520">
        <ele>485.8</ele>
        <time>2021-12-28T09:35:28Z</time>
      </trkpt>
      <trkpt lat="37.6209630" lon="-4.1014920">
        <ele>485.8</ele>
        <time>2021-12-28T09:35:29Z</time>
      </trkpt>
      <trkpt lat="37.6209540" lon="-4.1015320">
        <ele>485.8</ele>
        <time>2021-12-28T09:35:30Z</time>
      </trkpt>
      <trkpt lat="37.6209410" lon="-4.1015700">
        <ele>485.8</ele>
        <time>2021-12-28T09:35:31Z</time>
      </trkpt>
      <trkpt lat="37.6209250" lon="-4.1016080">
        <ele>485.8</ele>
        <time>2021-12-28T09:35:32Z</time>
      </trkpt>
      <trkpt lat="37.6209120" lon="-4.1016450">
        <ele>485.8</ele>
        <time>2021-12-28T09:35:33Z</time>
      </trkpt>
      <trkpt lat="37.6208990" lon="-4.1016830">
        <ele>485.8</ele>
        <time>2021-12-28T09:35:34Z</time>
      </trkpt>
      <trkpt lat="37.6208800" lon="-4.1017230">
        <ele>485.8</ele>
        <time>2021-12-28T09:35:35Z</time>
      </trkpt>
      <trkpt lat="37.6208640" lon="-4.1017620">
        <ele>485.8</ele>
        <time>2021-12-28T09:35:36Z</time>
      </trkpt>
      <trkpt lat="37.6208510" lon="-4.1018030">
        <ele>485.8</ele>
        <time>2021-12-28T09:35:37Z</time>
      </trkpt>
      <trkpt lat="37.6208350" lon="-4.1018470">
        <ele>486.0</ele>
        <time>2021-12-28T09:35:38Z</time>
      </trkpt>
      <trkpt lat="37.6208160" lon="-4.1018920">
        <ele>486.0</ele>
        <time>2021-12-28T09:35:39Z</time>
      </trkpt>
      <trkpt lat="37.6208000" lon="-4.1019350">
        <ele>486.0</ele>
        <time>2021-12-28T09:35:40Z</time>
      </trkpt>
      <trkpt lat="37.6207780" lon="-4.1019780">
        <ele>486.0</ele>
        <time>2021-12-28T09:35:41Z</time>
      </trkpt>
      <trkpt lat="37.6207620" lon="-4.1020220">
        <ele>486.0</ele>
        <time>2021-12-28T09:35:42Z</time>
      </trkpt>
      <trkpt lat="37.6207460" lon="-4.1020630">
        <ele>486.0</ele>
        <time>2021-12-28T09:35:43Z</time>
      </trkpt>
      <trkpt lat="37.6207360" lon="-4.1021050">
        <ele>486.0</ele>
        <time>2021-12-28T09:35:44Z</time>
      </trkpt>
      <trkpt lat="37.6207200" lon="-4.1021430">
        <ele>486.0</ele>
        <time>2021-12-28T09:35:45Z</time>
      </trkpt>
      <trkpt lat="37.6207040" lon="-4.1021750">
        <ele>486.0</ele>
        <time>2021-12-28T09:35:46Z</time>
      </trkpt>
      <trkpt lat="37.6206850" lon="-4.1022050">
        <ele>486.0</ele>
        <time>2021-12-28T09:35:47Z</time>
      </trkpt>
      <trkpt lat="37.6206690" lon="-4.1022370">
        <ele>486.0</ele>
        <time>2021-12-28T09:35:48Z</time>
      </trkpt>
      <trkpt lat="37.6206560" lon="-4.1022720">
        <ele>486.0</ele>
        <time>2021-12-28T09:35:49Z</time>
      </trkpt>
      <trkpt lat="37.6206400" lon="-4.1023120">
        <ele>486.0</ele>
        <time>2021-12-28T09:35:50Z</time>
      </trkpt>
      <trkpt lat="37.6206240" lon="-4.1023530">
        <ele>486.0</ele>
        <time>2021-12-28T09:35:51Z</time>
      </trkpt>
      <trkpt lat="37.6206080" lon="-4.1023980">
        <ele>486.0</ele>
        <time>2021-12-28T09:35:52Z</time>
      </trkpt>
      <trkpt lat="37.6205980" lon="-4.1024420">
        <ele>486.0</ele>
        <time>2021-12-28T09:35:53Z</time>
      </trkpt>
      <trkpt lat="37.6205860" lon="-4.1024830">
        <ele>486.0</ele>
        <time>2021-12-28T09:35:54Z</time>
      </trkpt>
      <trkpt lat="37.6205700" lon="-4.1025250">
        <ele>486.0</ele>
        <time>2021-12-28T09:35:55Z</time>
      </trkpt>
      <trkpt lat="37.6205600" lon="-4.1025620">
        <ele>486.2</ele>
        <time>2021-12-28T09:35:56Z</time>
      </trkpt>
      <trkpt lat="37.6205440" lon="-4.1025980">
        <ele>486.2</ele>
        <time>2021-12-28T09:35:57Z</time>
      </trkpt>
      <trkpt lat="37.6205340" lon="-4.1026370">
        <ele>486.2</ele>
        <time>2021-12-28T09:35:58Z</time>
      </trkpt>
      <trkpt lat="37.6205180" lon="-4.1026750">
        <ele>486.2</ele>
        <time>2021-12-28T09:35:59Z</time>
      </trkpt>
      <trkpt lat="37.6205020" lon="-4.1027150">
        <ele>486.4</ele>
        <time>2021-12-28T09:36:00Z</time>
      </trkpt>
      <trkpt lat="37.6204860" lon="-4.1027550">
        <ele>486.4</ele>
        <time>2021-12-28T09:36:01Z</time>
      </trkpt>
      <trkpt lat="37.6204700" lon="-4.1027930">
        <ele>486.4</ele>
        <time>2021-12-28T09:36:02Z</time>
      </trkpt>
      <trkpt lat="37.6204610" lon="-4.1028300">
        <ele>486.4</ele>
        <time>2021-12-28T09:36:03Z</time>
      </trkpt>
      <trkpt lat="37.6204450" lon="-4.1028670">
        <ele>486.4</ele>
        <time>2021-12-28T09:36:04Z</time>
      </trkpt>
      <trkpt lat="37.6204290" lon="-4.1029050">
        <ele>486.4</ele>
        <time>2021-12-28T09:36:05Z</time>
      </trkpt>
      <trkpt lat="37.6204160" lon="-4.1029450">
        <ele>486.4</ele>
        <time>2021-12-28T09:36:06Z</time>
      </trkpt>
      <trkpt lat="37.6204030" lon="-4.1029840">
        <ele>486.4</ele>
        <time>2021-12-28T09:36:07Z</time>
      </trkpt>
      <trkpt lat="37.6203900" lon="-4.1030240">
        <ele>486.4</ele>
        <time>2021-12-28T09:36:08Z</time>
      </trkpt>
      <trkpt lat="37.6203780" lon="-4.1030650">
        <ele>486.4</ele>
        <time>2021-12-28T09:36:09Z</time>
      </trkpt>
      <trkpt lat="37.6203650" lon="-4.1031030">
        <ele>486.4</ele>
        <time>2021-12-28T09:36:10Z</time>
      </trkpt>
      <trkpt lat="37.6203550" lon="-4.1031450">
        <ele>486.4</ele>
        <time>2021-12-28T09:36:11Z</time>
      </trkpt>
      <trkpt lat="37.6203390" lon="-4.1031880">
        <ele>486.2</ele>
        <time>2021-12-28T09:36:12Z</time>
      </trkpt>
      <trkpt lat="37.6203230" lon="-4.1032280">
        <ele>486.2</ele>
        <time>2021-12-28T09:36:13Z</time>
      </trkpt>
      <trkpt lat="37.6203100" lon="-4.1032680">
        <ele>486.2</ele>
        <time>2021-12-28T09:36:14Z</time>
      </trkpt>
      <trkpt lat="37.6202980" lon="-4.1033070">
        <ele>486.2</ele>
        <time>2021-12-28T09:36:15Z</time>
      </trkpt>
      <trkpt lat="37.6202850" lon="-4.1033440">
        <ele>486.4</ele>
        <time>2021-12-28T09:36:16Z</time>
      </trkpt>
      <trkpt lat="37.6202720" lon="-4.1033820">
        <ele>486.2</ele>
        <time>2021-12-28T09:36:17Z</time>
      </trkpt>
      <trkpt lat="37.6202620" lon="-4.1034180">
        <ele>486.2</ele>
        <time>2021-12-28T09:36:18Z</time>
      </trkpt>
      <trkpt lat="37.6202460" lon="-4.1034550">
        <ele>486.2</ele>
        <time>2021-12-28T09:36:19Z</time>
      </trkpt>
      <trkpt lat="37.6202370" lon="-4.1034920">
        <ele>486.2</ele>
        <time>2021-12-28T09:36:20Z</time>
      </trkpt>
      <trkpt lat="37.6202240" lon="-4.1035300">
        <ele>486.2</ele>
        <time>2021-12-28T09:36:21Z</time>
      </trkpt>
      <trkpt lat="37.6202110" lon="-4.1035650">
        <ele>486.0</ele>
        <time>2021-12-28T09:36:22Z</time>
      </trkpt>
      <trkpt lat="37.6201980" lon="-4.1036030">
        <ele>486.2</ele>
        <time>2021-12-28T09:36:23Z</time>
      </trkpt>
      <trkpt lat="37.6201860" lon="-4.1036420">
        <ele>486.2</ele>
        <time>2021-12-28T09:36:24Z</time>
      </trkpt>
      <trkpt lat="37.6201760" lon="-4.1036820">
        <ele>486.2</ele>
        <time>2021-12-28T09:36:25Z</time>
      </trkpt>
      <trkpt lat="37.6201630" lon="-4.1037220">
        <ele>486.2</ele>
        <time>2021-12-28T09:36:26Z</time>
      </trkpt>
      <trkpt lat="37.6201470" lon="-4.1037630">
        <ele>486.2</ele>
        <time>2021-12-28T09:36:27Z</time>
      </trkpt>
      <trkpt lat="37.6201310" lon="-4.1038050">
        <ele>486.2</ele>
        <time>2021-12-28T09:36:28Z</time>
      </trkpt>
      <trkpt lat="37.6201180" lon="-4.1038450">
        <ele>486.0</ele>
        <time>2021-12-28T09:36:29Z</time>
      </trkpt>
      <trkpt lat="37.6201020" lon="-4.1038850">
        <ele>486.0</ele>
        <time>2021-12-28T09:36:30Z</time>
      </trkpt>
      <trkpt lat="37.6200900" lon="-4.1039270">
        <ele>486.0</ele>
        <time>2021-12-28T09:36:31Z</time>
      </trkpt>
      <trkpt lat="37.6200770" lon="-4.1039680">
        <ele>486.2</ele>
        <time>2021-12-28T09:36:32Z</time>
      </trkpt>
      <trkpt lat="37.6200640" lon="-4.1040080">
        <ele>486.2</ele>
        <time>2021-12-28T09:36:33Z</time>
      </trkpt>
      <trkpt lat="37.6200480" lon="-4.1040480">
        <ele>486.2</ele>
        <time>2021-12-28T09:36:34Z</time>
      </trkpt>
      <trkpt lat="37.6200320" lon="-4.1040880">
        <ele>486.2</ele>
        <time>2021-12-28T09:36:35Z</time>
      </trkpt>
      <trkpt lat="37.6200220" lon="-4.1041260">
        <ele>486.2</ele>
        <time>2021-12-28T09:36:36Z</time>
      </trkpt>
      <trkpt lat="37.6200060" lon="-4.1041660">
        <ele>486.2</ele>
        <time>2021-12-28T09:36:37Z</time>
      </trkpt>
      <trkpt lat="37.6199940" lon="-4.1042050">
        <ele>486.2</ele>
        <time>2021-12-28T09:36:38Z</time>
      </trkpt>
      <trkpt lat="37.6199810" lon="-4.1042420">
        <ele>486.2</ele>
        <time>2021-12-28T09:36:39Z</time>
      </trkpt>
      <trkpt lat="37.6199680" lon="-4.1042800">
        <ele>486.0</ele>
        <time>2021-12-28T09:36:40Z</time>
      </trkpt>
      <trkpt lat="37.6199520" lon="-4.1043180">
        <ele>486.0</ele>
        <time>2021-12-28T09:36:41Z</time>
      </trkpt>
      <trkpt lat="37.6199420" lon="-4.1043570">
        <ele>486.0</ele>
        <time>2021-12-28T09:36:42Z</time>
      </trkpt>
      <trkpt lat="37.6199300" lon="-4.1043950">
        <ele>486.0</ele>
        <time>2021-12-28T09:36:43Z</time>
      </trkpt>
      <trkpt lat="37.6199140" lon="-4.1044320">
        <ele>485.8</ele>
        <time>2021-12-28T09:36:44Z</time>
      </trkpt>
      <trkpt lat="37.6199040" lon="-4.1044680">
        <ele>485.8</ele>
        <time>2021-12-28T09:36:45Z</time>
      </trkpt>
      <trkpt lat="37.6198910" lon="-4.1045060">
        <ele>485.8</ele>
        <time>2021-12-28T09:36:46Z</time>
      </trkpt>
      <trkpt lat="37.6198780" lon="-4.1045450">
        <ele>485.8</ele>
        <time>2021-12-28T09:36:47Z</time>
      </trkpt>
      <trkpt lat="37.6198620" lon="-4.1045850">
        <ele>485.8</ele>
        <time>2021-12-28T09:36:48Z</time>
      </trkpt>
      <trkpt lat="37.6198500" lon="-4.1046230">
        <ele>485.8</ele>
        <time>2021-12-28T09:36:49Z</time>
      </trkpt>
      <trkpt lat="37.6198340" lon="-4.1046650">
        <ele>485.8</ele>
        <time>2021-12-28T09:36:50Z</time>
      </trkpt>
      <trkpt lat="37.6198240" lon="-4.1047050">
        <ele>485.8</ele>
        <time>2021-12-28T09:36:51Z</time>
      </trkpt>
      <trkpt lat="37.6198110" lon="-4.1047480">
        <ele>485.8</ele>
        <time>2021-12-28T09:36:52Z</time>
      </trkpt>
      <trkpt lat="37.6198020" lon="-4.1047900">
        <ele>486.0</ele>
        <time>2021-12-28T09:36:53Z</time>
      </trkpt>
      <trkpt lat="37.6197890" lon="-4.1048300">
        <ele>486.0</ele>
        <time>2021-12-28T09:36:54Z</time>
      </trkpt>
      <trkpt lat="37.6197730" lon="-4.1048720">
        <ele>486.0</ele>
        <time>2021-12-28T09:36:55Z</time>
      </trkpt>
      <trkpt lat="37.6197630" lon="-4.1049120">
        <ele>486.0</ele>
        <time>2021-12-28T09:36:56Z</time>
      </trkpt>
      <trkpt lat="37.6197500" lon="-4.1049520">
        <ele>486.0</ele>
        <time>2021-12-28T09:36:57Z</time>
      </trkpt>
      <trkpt lat="37.6197410" lon="-4.1049920">
        <ele>486.0</ele>
        <time>2021-12-28T09:36:58Z</time>
      </trkpt>
      <trkpt lat="37.6197250" lon="-4.1050300">
        <ele>486.0</ele>
        <time>2021-12-28T09:36:59Z</time>
      </trkpt>
      <trkpt lat="37.6197120" lon="-4.1050670">
        <ele>485.8</ele>
        <time>2021-12-28T09:37:00Z</time>
      </trkpt>
      <trkpt lat="37.6196960" lon="-4.1051080">
        <ele>485.8</ele>
        <time>2021-12-28T09:37:01Z</time>
      </trkpt>
      <trkpt lat="37.6196860" lon="-4.1051480">
        <ele>485.8</ele>
        <time>2021-12-28T09:37:02Z</time>
      </trkpt>
      <trkpt lat="37.6196700" lon="-4.1051900">
        <ele>485.6</ele>
        <time>2021-12-28T09:37:03Z</time>
      </trkpt>
      <trkpt lat="37.6196510" lon="-4.1052320">
        <ele>485.6</ele>
        <time>2021-12-28T09:37:04Z</time>
      </trkpt>
      <trkpt lat="37.6196350" lon="-4.1052720">
        <ele>485.6</ele>
        <time>2021-12-28T09:37:05Z</time>
      </trkpt>
      <trkpt lat="37.6196220" lon="-4.1053130">
        <ele>485.6</ele>
        <time>2021-12-28T09:37:06Z</time>
      </trkpt>
      <trkpt lat="37.6196100" lon="-4.1053550">
        <ele>485.6</ele>
        <time>2021-12-28T09:37:07Z</time>
      </trkpt>
      <trkpt lat="37.6195970" lon="-4.1053950">
        <ele>485.6</ele>
        <time>2021-12-28T09:37:08Z</time>
      </trkpt>
      <trkpt lat="37.6195840" lon="-4.1054370">
        <ele>485.6</ele>
        <time>2021-12-28T09:37:09Z</time>
      </trkpt>
      <trkpt lat="37.6195710" lon="-4.1054770">
        <ele>485.6</ele>
        <time>2021-12-28T09:37:10Z</time>
      </trkpt>
      <trkpt lat="37.6195550" lon="-4.1055160">
        <ele>485.4</ele>
        <time>2021-12-28T09:37:11Z</time>
      </trkpt>
      <trkpt lat="37.6195460" lon="-4.1055560">
        <ele>485.6</ele>
        <time>2021-12-28T09:37:12Z</time>
      </trkpt>
      <trkpt lat="37.6195300" lon="-4.1055960">
        <ele>485.6</ele>
        <time>2021-12-28T09:37:13Z</time>
      </trkpt>
      <trkpt lat="37.6195140" lon="-4.1056360">
        <ele>485.6</ele>
        <time>2021-12-28T09:37:14Z</time>
      </trkpt>
      <trkpt lat="37.6195010" lon="-4.1056770">
        <ele>485.6</ele>
        <time>2021-12-28T09:37:15Z</time>
      </trkpt>
      <trkpt lat="37.6194850" lon="-4.1057150">
        <ele>485.6</ele>
        <time>2021-12-28T09:37:16Z</time>
      </trkpt>
      <trkpt lat="37.6194720" lon="-4.1057520">
        <ele>485.6</ele>
        <time>2021-12-28T09:37:17Z</time>
      </trkpt>
      <trkpt lat="37.6194560" lon="-4.1057880">
        <ele>485.6</ele>
        <time>2021-12-28T09:37:18Z</time>
      </trkpt>
      <trkpt lat="37.6194460" lon="-4.1058240">
        <ele>485.6</ele>
        <time>2021-12-28T09:37:19Z</time>
      </trkpt>
      <trkpt lat="37.6194370" lon="-4.1058540">
        <ele>485.6</ele>
        <time>2021-12-28T09:37:20Z</time>
      </trkpt>
      <trkpt lat="37.6194300" lon="-4.1058750">
        <ele>485.6</ele>
        <time>2021-12-28T09:37:21Z</time>
      </trkpt>
      <trkpt lat="37.6194300" lon="-4.1058750">
        <ele>485.6</ele>
        <time>2021-12-28T09:37:22Z</time>
      </trkpt>
      <trkpt lat="37.6194300" lon="-4.1058750">
        <ele>485.6</ele>
        <time>2021-12-28T09:37:23Z</time>
      </trkpt>
      <trkpt lat="37.6194300" lon="-4.1058750">
        <ele>485.8</ele>
        <time>2021-12-28T09:37:24Z</time>
      </trkpt>
      <trkpt lat="37.6194300" lon="-4.1058750">
        <ele>485.8</ele>
        <time>2021-12-28T09:37:25Z</time>
      </trkpt>
      <trkpt lat="37.6194300" lon="-4.1058750">
        <ele>485.8</ele>
        <time>2021-12-28T09:37:26Z</time>
      </trkpt>
      <trkpt lat="37.6193820" lon="-4.1060280">
        <ele>485.6</ele>
        <time>2021-12-28T09:37:36Z</time>
      </trkpt>
      <trkpt lat="37.6193660" lon="-4.1060630">
        <ele>485.6</ele>
        <time>2021-12-28T09:37:37Z</time>
      </trkpt>
      <trkpt lat="37.6193540" lon="-4.1061000">
        <ele>485.6</ele>
        <time>2021-12-28T09:37:38Z</time>
      </trkpt>
      <trkpt lat="37.6193440" lon="-4.1061370">
        <ele>485.4</ele>
        <time>2021-12-28T09:37:39Z</time>
      </trkpt>
      <trkpt lat="37.6193310" lon="-4.1061720">
        <ele>485.4</ele>
        <time>2021-12-28T09:37:40Z</time>
      </trkpt>
      <trkpt lat="37.6193180" lon="-4.1062070">
        <ele>485.4</ele>
        <time>2021-12-28T09:37:41Z</time>
      </trkpt>
      <trkpt lat="37.6193060" lon="-4.1062400">
        <ele>485.4</ele>
        <time>2021-12-28T09:37:42Z</time>
      </trkpt>
      <trkpt lat="37.6192930" lon="-4.1062750">
        <ele>485.2</ele>
        <time>2021-12-28T09:37:43Z</time>
      </trkpt>
      <trkpt lat="37.6192830" lon="-4.1063100">
        <ele>485.2</ele>
        <time>2021-12-28T09:37:44Z</time>
      </trkpt>
      <trkpt lat="37.6192670" lon="-4.1063450">
        <ele>485.2</ele>
        <time>2021-12-28T09:37:45Z</time>
      </trkpt>
      <trkpt lat="37.6192540" lon="-4.1063830">
        <ele>485.2</ele>
        <time>2021-12-28T09:37:46Z</time>
      </trkpt>
      <trkpt lat="37.6192450" lon="-4.1064200">
        <ele>485.2</ele>
        <time>2021-12-28T09:37:47Z</time>
      </trkpt>
      <trkpt lat="37.6192290" lon="-4.1064580">
        <ele>485.2</ele>
        <time>2021-12-28T09:37:48Z</time>
      </trkpt>
      <trkpt lat="37.6192160" lon="-4.1064950">
        <ele>485.2</ele>
        <time>2021-12-28T09:37:49Z</time>
      </trkpt>
      <trkpt lat="37.6192030" lon="-4.1065320">
        <ele>485.2</ele>
        <time>2021-12-28T09:37:50Z</time>
      </trkpt>
      <trkpt lat="37.6191900" lon="-4.1065700">
        <ele>485.2</ele>
        <time>2021-12-28T09:37:51Z</time>
      </trkpt>
      <trkpt lat="37.6191740" lon="-4.1066060">
        <ele>485.2</ele>
        <time>2021-12-28T09:37:52Z</time>
      </trkpt>
      <trkpt lat="37.6191650" lon="-4.1066430">
        <ele>485.4</ele>
        <time>2021-12-28T09:37:53Z</time>
      </trkpt>
      <trkpt lat="37.6191490" lon="-4.1066820">
        <ele>485.2</ele>
        <time>2021-12-28T09:37:54Z</time>
      </trkpt>
      <trkpt lat="37.6191360" lon="-4.1067200">
        <ele>485.2</ele>
        <time>2021-12-28T09:37:55Z</time>
      </trkpt>
      <trkpt lat="37.6191200" lon="-4.1067580">
        <ele>485.2</ele>
        <time>2021-12-28T09:37:56Z</time>
      </trkpt>
      <trkpt lat="37.6191070" lon="-4.1067950">
        <ele>485.2</ele>
        <time>2021-12-28T09:37:57Z</time>
      </trkpt>
      <trkpt lat="37.6190940" lon="-4.1068320">
        <ele>485.2</ele>
        <time>2021-12-28T09:37:58Z</time>
      </trkpt>
      <trkpt lat="37.6190780" lon="-4.1068700">
        <ele>485.2</ele>
        <time>2021-12-28T09:37:59Z</time>
      </trkpt>
      <trkpt lat="37.6190660" lon="-4.1069080">
        <ele>485.2</ele>
        <time>2021-12-28T09:38:00Z</time>
      </trkpt>
      <trkpt lat="37.6190500" lon="-4.1069450">
        <ele>485.0</ele>
        <time>2021-12-28T09:38:01Z</time>
      </trkpt>
      <trkpt lat="37.6190340" lon="-4.1069830">
        <ele>485.0</ele>
        <time>2021-12-28T09:38:02Z</time>
      </trkpt>
      <trkpt lat="37.6190210" lon="-4.1070200">
        <ele>485.0</ele>
        <time>2021-12-28T09:38:03Z</time>
      </trkpt>
      <trkpt lat="37.6190080" lon="-4.1070570">
        <ele>485.0</ele>
        <time>2021-12-28T09:38:04Z</time>
      </trkpt>
      <trkpt lat="37.6189920" lon="-4.1070900">
        <ele>485.0</ele>
        <time>2021-12-28T09:38:05Z</time>
      </trkpt>
      <trkpt lat="37.6189730" lon="-4.1071250">
        <ele>485.0</ele>
        <time>2021-12-28T09:38:06Z</time>
      </trkpt>
      <trkpt lat="37.6189570" lon="-4.1071600">
        <ele>485.0</ele>
        <time>2021-12-28T09:38:07Z</time>
      </trkpt>
      <trkpt lat="37.6189410" lon="-4.1071950">
        <ele>485.2</ele>
        <time>2021-12-28T09:38:08Z</time>
      </trkpt>
      <trkpt lat="37.6189220" lon="-4.1072300">
        <ele>485.2</ele>
        <time>2021-12-28T09:38:09Z</time>
      </trkpt>
      <trkpt lat="37.6189060" lon="-4.1072650">
        <ele>485.2</ele>
        <time>2021-12-28T09:38:10Z</time>
      </trkpt>
      <trkpt lat="37.6188900" lon="-4.1073020">
        <ele>485.2</ele>
        <time>2021-12-28T09:38:11Z</time>
      </trkpt>
      <trkpt lat="37.6188740" lon="-4.1073360">
        <ele>485.2</ele>
        <time>2021-12-28T09:38:12Z</time>
      </trkpt>
      <trkpt lat="37.6188540" lon="-4.1073730">
        <ele>485.2</ele>
        <time>2021-12-28T09:38:13Z</time>
      </trkpt>
      <trkpt lat="37.6188350" lon="-4.1074120">
        <ele>485.2</ele>
        <time>2021-12-28T09:38:14Z</time>
      </trkpt>
      <trkpt lat="37.6188190" lon="-4.1074470">
        <ele>485.2</ele>
        <time>2021-12-28T09:38:15Z</time>
      </trkpt>
      <trkpt lat="37.6187970" lon="-4.1074830">
        <ele>485.2</ele>
        <time>2021-12-28T09:38:16Z</time>
      </trkpt>
      <trkpt lat="37.6187780" lon="-4.1075220">
        <ele>485.2</ele>
        <time>2021-12-28T09:38:17Z</time>
      </trkpt>
      <trkpt lat="37.6187550" lon="-4.1075570">
        <ele>485.4</ele>
        <time>2021-12-28T09:38:18Z</time>
      </trkpt>
      <trkpt lat="37.6187330" lon="-4.1075940">
        <ele>485.4</ele>
        <time>2021-12-28T09:38:19Z</time>
      </trkpt>
      <trkpt lat="37.6187100" lon="-4.1076300">
        <ele>485.4</ele>
        <time>2021-12-28T09:38:20Z</time>
      </trkpt>
      <trkpt lat="37.6186820" lon="-4.1076660">
        <ele>485.4</ele>
        <time>2021-12-28T09:38:21Z</time>
      </trkpt>
      <trkpt lat="37.6186530" lon="-4.1077030">
        <ele>485.4</ele>
        <time>2021-12-28T09:38:22Z</time>
      </trkpt>
      <trkpt lat="37.6186270" lon="-4.1077400">
        <ele>485.4</ele>
        <time>2021-12-28T09:38:23Z</time>
      </trkpt>
      <trkpt lat="37.6185980" lon="-4.1077770">
        <ele>485.4</ele>
        <time>2021-12-28T09:38:24Z</time>
      </trkpt>
      <trkpt lat="37.6185730" lon="-4.1078150">
        <ele>485.4</ele>
        <time>2021-12-28T09:38:25Z</time>
      </trkpt>
      <trkpt lat="37.6185440" lon="-4.1078540">
        <ele>485.4</ele>
        <time>2021-12-28T09:38:26Z</time>
      </trkpt>
      <trkpt lat="37.6185220" lon="-4.1078900">
        <ele>485.2</ele>
        <time>2021-12-28T09:38:27Z</time>
      </trkpt>
      <trkpt lat="37.6184960" lon="-4.1079270">
        <ele>485.2</ele>
        <time>2021-12-28T09:38:28Z</time>
      </trkpt>
      <trkpt lat="37.6184700" lon="-4.1079640">
        <ele>485.2</ele>
        <time>2021-12-28T09:38:29Z</time>
      </trkpt>
      <trkpt lat="37.6184420" lon="-4.1080000">
        <ele>485.2</ele>
        <time>2021-12-28T09:38:30Z</time>
      </trkpt>
      <trkpt lat="37.6184160" lon="-4.1080400">
        <ele>485.2</ele>
        <time>2021-12-28T09:38:31Z</time>
      </trkpt>
      <trkpt lat="37.6183900" lon="-4.1080780">
        <ele>485.4</ele>
        <time>2021-12-28T09:38:32Z</time>
      </trkpt>
      <trkpt lat="37.6183620" lon="-4.1081170">
        <ele>485.4</ele>
        <time>2021-12-28T09:38:33Z</time>
      </trkpt>
      <trkpt lat="37.6183330" lon="-4.1081550">
        <ele>485.6</ele>
        <time>2021-12-28T09:38:34Z</time>
      </trkpt>
      <trkpt lat="37.6183040" lon="-4.1081920">
        <ele>485.6</ele>
        <time>2021-12-28T09:38:35Z</time>
      </trkpt>
      <trkpt lat="37.6182780" lon="-4.1082280">
        <ele>485.8</ele>
        <time>2021-12-28T09:38:36Z</time>
      </trkpt>
      <trkpt lat="37.6182460" lon="-4.1082640">
        <ele>485.8</ele>
        <time>2021-12-28T09:38:37Z</time>
      </trkpt>
      <trkpt lat="37.6182140" lon="-4.1082980">
        <ele>485.8</ele>
        <time>2021-12-28T09:38:38Z</time>
      </trkpt>
      <trkpt lat="37.6181860" lon="-4.1083320">
        <ele>485.8</ele>
        <time>2021-12-28T09:38:39Z</time>
      </trkpt>
      <trkpt lat="37.6181570" lon="-4.1083680">
        <ele>486.0</ele>
        <time>2021-12-28T09:38:40Z</time>
      </trkpt>
      <trkpt lat="37.6181250" lon="-4.1084020">
        <ele>486.2</ele>
        <time>2021-12-28T09:38:41Z</time>
      </trkpt>
      <trkpt lat="37.6180930" lon="-4.1084320">
        <ele>486.2</ele>
        <time>2021-12-28T09:38:42Z</time>
      </trkpt>
      <trkpt lat="37.6180610" lon="-4.1084620">
        <ele>486.4</ele>
        <time>2021-12-28T09:38:43Z</time>
      </trkpt>
      <trkpt lat="37.6180260" lon="-4.1084930">
        <ele>486.4</ele>
        <time>2021-12-28T09:38:44Z</time>
      </trkpt>
      <trkpt lat="37.6179970" lon="-4.1085230">
        <ele>486.6</ele>
        <time>2021-12-28T09:38:45Z</time>
      </trkpt>
      <trkpt lat="37.6179650" lon="-4.1085520">
        <ele>486.6</ele>
        <time>2021-12-28T09:38:46Z</time>
      </trkpt>
      <trkpt lat="37.6179330" lon="-4.1085800">
        <ele>486.6</ele>
        <time>2021-12-28T09:38:47Z</time>
      </trkpt>
      <trkpt lat="37.6178980" lon="-4.1086070">
        <ele>486.6</ele>
        <time>2021-12-28T09:38:48Z</time>
      </trkpt>
      <trkpt lat="37.6178660" lon="-4.1086320">
        <ele>486.6</ele>
        <time>2021-12-28T09:38:49Z</time>
      </trkpt>
      <trkpt lat="37.6178270" lon="-4.1086570">
        <ele>486.6</ele>
        <time>2021-12-28T09:38:50Z</time>
      </trkpt>
      <trkpt lat="37.6177980" lon="-4.1086850">
        <ele>486.6</ele>
        <time>2021-12-28T09:38:51Z</time>
      </trkpt>
      <trkpt lat="37.6177630" lon="-4.1087130">
        <ele>486.6</ele>
        <time>2021-12-28T09:38:52Z</time>
      </trkpt>
      <trkpt lat="37.6177280" lon="-4.1087420">
        <ele>486.6</ele>
        <time>2021-12-28T09:38:53Z</time>
      </trkpt>
      <trkpt lat="37.6176960" lon="-4.1087680">
        <ele>486.6</ele>
        <time>2021-12-28T09:38:54Z</time>
      </trkpt>
      <trkpt lat="37.6176580" lon="-4.1087930">
        <ele>486.6</ele>
        <time>2021-12-28T09:38:55Z</time>
      </trkpt>
      <trkpt lat="37.6176220" lon="-4.1088180">
        <ele>486.6</ele>
        <time>2021-12-28T09:38:56Z</time>
      </trkpt>
      <trkpt lat="37.6175840" lon="-4.1088420">
        <ele>486.4</ele>
        <time>2021-12-28T09:38:57Z</time>
      </trkpt>
      <trkpt lat="37.6175490" lon="-4.1088670">
        <ele>486.6</ele>
        <time>2021-12-28T09:38:58Z</time>
      </trkpt>
      <trkpt lat="37.6175100" lon="-4.1088880">
        <ele>486.6</ele>
        <time>2021-12-28T09:38:59Z</time>
      </trkpt>
      <trkpt lat="37.6174750" lon="-4.1089100">
        <ele>486.6</ele>
        <time>2021-12-28T09:39:00Z</time>
      </trkpt>
      <trkpt lat="37.6174370" lon="-4.1089300">
        <ele>486.8</ele>
        <time>2021-12-28T09:39:01Z</time>
      </trkpt>
      <trkpt lat="37.6174050" lon="-4.1089520">
        <ele>486.8</ele>
        <time>2021-12-28T09:39:02Z</time>
      </trkpt>
      <trkpt lat="37.6173790" lon="-4.1089720">
        <ele>487.0</ele>
        <time>2021-12-28T09:39:03Z</time>
      </trkpt>
      <trkpt lat="37.6173500" lon="-4.1089920">
        <ele>487.0</ele>
        <time>2021-12-28T09:39:04Z</time>
      </trkpt>
      <trkpt lat="37.6173220" lon="-4.1090100">
        <ele>487.2</ele>
        <time>2021-12-28T09:39:05Z</time>
      </trkpt>
      <trkpt lat="37.6172900" lon="-4.1090300">
        <ele>487.2</ele>
        <time>2021-12-28T09:39:06Z</time>
      </trkpt>
      <trkpt lat="37.6172610" lon="-4.1090530">
        <ele>487.2</ele>
        <time>2021-12-28T09:39:07Z</time>
      </trkpt>
      <trkpt lat="37.6172260" lon="-4.1090730">
        <ele>487.2</ele>
        <time>2021-12-28T09:39:08Z</time>
      </trkpt>
      <trkpt lat="37.6171940" lon="-4.1090930">
        <ele>487.2</ele>
        <time>2021-12-28T09:39:09Z</time>
      </trkpt>
      <trkpt lat="37.6171680" lon="-4.1091150">
        <ele>487.2</ele>
        <time>2021-12-28T09:39:10Z</time>
      </trkpt>
      <trkpt lat="37.6171390" lon="-4.1091320">
        <ele>487.2</ele>
        <time>2021-12-28T09:39:11Z</time>
      </trkpt>
      <trkpt lat="37.6171070" lon="-4.1091460">
        <ele>487.2</ele>
        <time>2021-12-28T09:39:12Z</time>
      </trkpt>
      <trkpt lat="37.6170780" lon="-4.1091630">
        <ele>487.2</ele>
        <time>2021-12-28T09:39:13Z</time>
      </trkpt>
      <trkpt lat="37.6170460" lon="-4.1091820">
        <ele>487.0</ele>
        <time>2021-12-28T09:39:14Z</time>
      </trkpt>
      <trkpt lat="37.6170140" lon="-4.1092030">
        <ele>487.0</ele>
        <time>2021-12-28T09:39:15Z</time>
      </trkpt>
      <trkpt lat="37.6169820" lon="-4.1092250">
        <ele>487.0</ele>
        <time>2021-12-28T09:39:16Z</time>
      </trkpt>
      <trkpt lat="37.6169470" lon="-4.1092450">
        <ele>487.0</ele>
        <time>2021-12-28T09:39:17Z</time>
      </trkpt>
      <trkpt lat="37.6169150" lon="-4.1092650">
        <ele>487.0</ele>
        <time>2021-12-28T09:39:18Z</time>
      </trkpt>
      <trkpt lat="37.6168830" lon="-4.1092850">
        <ele>486.8</ele>
        <time>2021-12-28T09:39:19Z</time>
      </trkpt>
      <trkpt lat="37.6168480" lon="-4.1093050">
        <ele>486.8</ele>
        <time>2021-12-28T09:39:20Z</time>
      </trkpt>
      <trkpt lat="37.6168130" lon="-4.1093240">
        <ele>486.8</ele>
        <time>2021-12-28T09:39:21Z</time>
      </trkpt>
      <trkpt lat="37.6167810" lon="-4.1093440">
        <ele>486.8</ele>
        <time>2021-12-28T09:39:22Z</time>
      </trkpt>
      <trkpt lat="37.6167490" lon="-4.1093640">
        <ele>486.6</ele>
        <time>2021-12-28T09:39:23Z</time>
      </trkpt>
      <trkpt lat="37.6167140" lon="-4.1093860">
        <ele>486.6</ele>
        <time>2021-12-28T09:39:24Z</time>
      </trkpt>
      <trkpt lat="37.6166820" lon="-4.1094100">
        <ele>486.6</ele>
        <time>2021-12-28T09:39:25Z</time>
      </trkpt>
      <trkpt lat="37.6166430" lon="-4.1094330">
        <ele>486.4</ele>
        <time>2021-12-28T09:39:26Z</time>
      </trkpt>
      <trkpt lat="37.6166080" lon="-4.1094560">
        <ele>486.4</ele>
        <time>2021-12-28T09:39:27Z</time>
      </trkpt>
      <trkpt lat="37.6165700" lon="-4.1094780">
        <ele>486.4</ele>
        <time>2021-12-28T09:39:28Z</time>
      </trkpt>
      <trkpt lat="37.6165340" lon="-4.1095000">
        <ele>486.4</ele>
        <time>2021-12-28T09:39:29Z</time>
      </trkpt>
      <trkpt lat="37.6164960" lon="-4.1095230">
        <ele>486.4</ele>
        <time>2021-12-28T09:39:30Z</time>
      </trkpt>
      <trkpt lat="37.6164640" lon="-4.1095450">
        <ele>486.4</ele>
        <time>2021-12-28T09:39:31Z</time>
      </trkpt>
      <trkpt lat="37.6164260" lon="-4.1095650">
        <ele>486.4</ele>
        <time>2021-12-28T09:39:32Z</time>
      </trkpt>
      <trkpt lat="37.6163870" lon="-4.1095870">
        <ele>486.4</ele>
        <time>2021-12-28T09:39:33Z</time>
      </trkpt>
      <trkpt lat="37.6163520" lon="-4.1096080">
        <ele>486.4</ele>
        <time>2021-12-28T09:39:34Z</time>
      </trkpt>
      <trkpt lat="37.6163170" lon="-4.1096300">
        <ele>486.4</ele>
        <time>2021-12-28T09:39:35Z</time>
      </trkpt>
      <trkpt lat="37.6162850" lon="-4.1096540">
        <ele>486.2</ele>
        <time>2021-12-28T09:39:36Z</time>
      </trkpt>
      <trkpt lat="37.6162530" lon="-4.1096780">
        <ele>486.2</ele>
        <time>2021-12-28T09:39:37Z</time>
      </trkpt>
      <trkpt lat="37.6162180" lon="-4.1097020">
        <ele>486.4</ele>
        <time>2021-12-28T09:39:38Z</time>
      </trkpt>
      <trkpt lat="37.6161920" lon="-4.1097250">
        <ele>486.4</ele>
        <time>2021-12-28T09:39:39Z</time>
      </trkpt>
      <trkpt lat="37.6161570" lon="-4.1097480">
        <ele>486.4</ele>
        <time>2021-12-28T09:39:40Z</time>
      </trkpt>
      <trkpt lat="37.6161280" lon="-4.1097720">
        <ele>486.4</ele>
        <time>2021-12-28T09:39:41Z</time>
      </trkpt>
      <trkpt lat="37.6160930" lon="-4.1097960">
        <ele>486.4</ele>
        <time>2021-12-28T09:39:42Z</time>
      </trkpt>
      <trkpt lat="37.6160610" lon="-4.1098230">
        <ele>486.4</ele>
        <time>2021-12-28T09:39:43Z</time>
      </trkpt>
      <trkpt lat="37.6160320" lon="-4.1098530">
        <ele>486.4</ele>
        <time>2021-12-28T09:39:44Z</time>
      </trkpt>
      <trkpt lat="37.6160000" lon="-4.1098830">
        <ele>486.4</ele>
        <time>2021-12-28T09:39:45Z</time>
      </trkpt>
      <trkpt lat="37.6159680" lon="-4.1099120">
        <ele>486.6</ele>
        <time>2021-12-28T09:39:46Z</time>
      </trkpt>
      <trkpt lat="37.6159360" lon="-4.1099420">
        <ele>486.6</ele>
        <time>2021-12-28T09:39:47Z</time>
      </trkpt>
      <trkpt lat="37.6158980" lon="-4.1099720">
        <ele>486.6</ele>
        <time>2021-12-28T09:39:48Z</time>
      </trkpt>
      <trkpt lat="37.6158720" lon="-4.1100040">
        <ele>486.8</ele>
        <time>2021-12-28T09:39:49Z</time>
      </trkpt>
      <trkpt lat="37.6158400" lon="-4.1100370">
        <ele>486.8</ele>
        <time>2021-12-28T09:39:50Z</time>
      </trkpt>
      <trkpt lat="37.6158110" lon="-4.1100700">
        <ele>486.8</ele>
        <time>2021-12-28T09:39:51Z</time>
      </trkpt>
      <trkpt lat="37.6157790" lon="-4.1101020">
        <ele>486.8</ele>
        <time>2021-12-28T09:39:52Z</time>
      </trkpt>
      <trkpt lat="37.6157500" lon="-4.1101320">
        <ele>486.8</ele>
        <time>2021-12-28T09:39:53Z</time>
      </trkpt>
      <trkpt lat="37.6157180" lon="-4.1101650">
        <ele>486.8</ele>
        <time>2021-12-28T09:39:54Z</time>
      </trkpt>
      <trkpt lat="37.6156900" lon="-4.1101980">
        <ele>486.8</ele>
        <time>2021-12-28T09:39:55Z</time>
      </trkpt>
      <trkpt lat="37.6156580" lon="-4.1102350">
        <ele>486.8</ele>
        <time>2021-12-28T09:39:56Z</time>
      </trkpt>
      <trkpt lat="37.6156320" lon="-4.1102720">
        <ele>486.8</ele>
        <time>2021-12-28T09:39:57Z</time>
      </trkpt>
      <trkpt lat="37.6156000" lon="-4.1103080">
        <ele>486.8</ele>
        <time>2021-12-28T09:39:58Z</time>
      </trkpt>
      <trkpt lat="37.6155740" lon="-4.1103440">
        <ele>486.8</ele>
        <time>2021-12-28T09:39:59Z</time>
      </trkpt>
      <trkpt lat="37.6155420" lon="-4.1103780">
        <ele>486.8</ele>
        <time>2021-12-28T09:40:00Z</time>
      </trkpt>
      <trkpt lat="37.6155170" lon="-4.1104150">
        <ele>486.8</ele>
        <time>2021-12-28T09:40:01Z</time>
      </trkpt>
      <trkpt lat="37.6154910" lon="-4.1104520">
        <ele>486.8</ele>
        <time>2021-12-28T09:40:02Z</time>
      </trkpt>
      <trkpt lat="37.6154620" lon="-4.1104920">
        <ele>486.8</ele>
        <time>2021-12-28T09:40:03Z</time>
      </trkpt>
      <trkpt lat="37.6154370" lon="-4.1105300">
        <ele>486.8</ele>
        <time>2021-12-28T09:40:04Z</time>
      </trkpt>
      <trkpt lat="37.6154110" lon="-4.1105670">
        <ele>486.8</ele>
        <time>2021-12-28T09:40:05Z</time>
      </trkpt>
      <trkpt lat="37.6153820" lon="-4.1106050">
        <ele>487.0</ele>
        <time>2021-12-28T09:40:06Z</time>
      </trkpt>
      <trkpt lat="37.6153600" lon="-4.1106430">
        <ele>487.0</ele>
        <time>2021-12-28T09:40:07Z</time>
      </trkpt>
      <trkpt lat="37.6153380" lon="-4.1106840">
        <ele>487.0</ele>
        <time>2021-12-28T09:40:08Z</time>
      </trkpt>
      <trkpt lat="37.6153180" lon="-4.1107220">
        <ele>487.0</ele>
        <time>2021-12-28T09:40:09Z</time>
      </trkpt>
      <trkpt lat="37.6152930" lon="-4.1107650">
        <ele>487.0</ele>
        <time>2021-12-28T09:40:10Z</time>
      </trkpt>
      <trkpt lat="37.6152740" lon="-4.1108060">
        <ele>487.0</ele>
        <time>2021-12-28T09:40:11Z</time>
      </trkpt>
      <trkpt lat="37.6152510" lon="-4.1108500">
        <ele>487.0</ele>
        <time>2021-12-28T09:40:12Z</time>
      </trkpt>
      <trkpt lat="37.6152260" lon="-4.1108920">
        <ele>487.0</ele>
        <time>2021-12-28T09:40:13Z</time>
      </trkpt>
      <trkpt lat="37.6152030" lon="-4.1109330">
        <ele>487.0</ele>
        <time>2021-12-28T09:40:14Z</time>
      </trkpt>
      <trkpt lat="37.6151810" lon="-4.1109780">
        <ele>486.8</ele>
        <time>2021-12-28T09:40:15Z</time>
      </trkpt>
      <trkpt lat="37.6151620" lon="-4.1110240">
        <ele>486.8</ele>
        <time>2021-12-28T09:40:16Z</time>
      </trkpt>
      <trkpt lat="37.6151390" lon="-4.1110670">
        <ele>486.8</ele>
        <time>2021-12-28T09:40:17Z</time>
      </trkpt>
      <trkpt lat="37.6151200" lon="-4.1111140">
        <ele>486.8</ele>
        <time>2021-12-28T09:40:18Z</time>
      </trkpt>
      <trkpt lat="37.6150980" lon="-4.1111580">
        <ele>486.8</ele>
        <time>2021-12-28T09:40:19Z</time>
      </trkpt>
      <trkpt lat="37.6150820" lon="-4.1112050">
        <ele>486.8</ele>
        <time>2021-12-28T09:40:20Z</time>
      </trkpt>
      <trkpt lat="37.6150590" lon="-4.1112530">
        <ele>486.6</ele>
        <time>2021-12-28T09:40:21Z</time>
      </trkpt>
      <trkpt lat="37.6150400" lon="-4.1113000">
        <ele>486.6</ele>
        <time>2021-12-28T09:40:22Z</time>
      </trkpt>
      <trkpt lat="37.6150210" lon="-4.1113470">
        <ele>486.6</ele>
        <time>2021-12-28T09:40:23Z</time>
      </trkpt>
      <trkpt lat="37.6150020" lon="-4.1113920">
        <ele>486.6</ele>
        <time>2021-12-28T09:40:24Z</time>
      </trkpt>
      <trkpt lat="37.6149820" lon="-4.1114380">
        <ele>486.4</ele>
        <time>2021-12-28T09:40:25Z</time>
      </trkpt>
      <trkpt lat="37.6149600" lon="-4.1114840">
        <ele>486.4</ele>
        <time>2021-12-28T09:40:26Z</time>
      </trkpt>
      <trkpt lat="37.6149410" lon="-4.1115280">
        <ele>486.2</ele>
        <time>2021-12-28T09:40:27Z</time>
      </trkpt>
      <trkpt lat="37.6149220" lon="-4.1115730">
        <ele>486.2</ele>
        <time>2021-12-28T09:40:28Z</time>
      </trkpt>
      <trkpt lat="37.6148990" lon="-4.1116170">
        <ele>486.2</ele>
        <time>2021-12-28T09:40:29Z</time>
      </trkpt>
      <trkpt lat="37.6148800" lon="-4.1116620">
        <ele>486.2</ele>
        <time>2021-12-28T09:40:30Z</time>
      </trkpt>
      <trkpt lat="37.6148580" lon="-4.1117070">
        <ele>486.2</ele>
        <time>2021-12-28T09:40:31Z</time>
      </trkpt>
      <trkpt lat="37.6148380" lon="-4.1117520">
        <ele>486.2</ele>
        <time>2021-12-28T09:40:32Z</time>
      </trkpt>
      <trkpt lat="37.6148190" lon="-4.1117980">
        <ele>486.2</ele>
        <time>2021-12-28T09:40:33Z</time>
      </trkpt>
      <trkpt lat="37.6148000" lon="-4.1118450">
        <ele>486.2</ele>
        <time>2021-12-28T09:40:34Z</time>
      </trkpt>
      <trkpt lat="37.6147810" lon="-4.1118880">
        <ele>486.2</ele>
        <time>2021-12-28T09:40:35Z</time>
      </trkpt>
      <trkpt lat="37.6147620" lon="-4.1119300">
        <ele>486.2</ele>
        <time>2021-12-28T09:40:36Z</time>
      </trkpt>
      <trkpt lat="37.6147390" lon="-4.1119720">
        <ele>486.2</ele>
        <time>2021-12-28T09:40:37Z</time>
      </trkpt>
      <trkpt lat="37.6147200" lon="-4.1120120">
        <ele>486.2</ele>
        <time>2021-12-28T09:40:38Z</time>
      </trkpt>
      <trkpt lat="37.6147010" lon="-4.1120500">
        <ele>486.2</ele>
        <time>2021-12-28T09:40:39Z</time>
      </trkpt>
      <trkpt lat="37.6146850" lon="-4.1120880">
        <ele>486.2</ele>
        <time>2021-12-28T09:40:40Z</time>
      </trkpt>
      <trkpt lat="37.6146690" lon="-4.1121280">
        <ele>486.2</ele>
        <time>2021-12-28T09:40:41Z</time>
      </trkpt>
      <trkpt lat="37.6146560" lon="-4.1121680">
        <ele>486.2</ele>
        <time>2021-12-28T09:40:42Z</time>
      </trkpt>
      <trkpt lat="37.6146400" lon="-4.1122100">
        <ele>486.2</ele>
        <time>2021-12-28T09:40:43Z</time>
      </trkpt>
      <trkpt lat="37.6146210" lon="-4.1122520">
        <ele>486.0</ele>
        <time>2021-12-28T09:40:44Z</time>
      </trkpt>
      <trkpt lat="37.6145980" lon="-4.1122950">
        <ele>486.0</ele>
        <time>2021-12-28T09:40:45Z</time>
      </trkpt>
      <trkpt lat="37.6145790" lon="-4.1123380">
        <ele>486.0</ele>
        <time>2021-12-28T09:40:46Z</time>
      </trkpt>
      <trkpt lat="37.6145630" lon="-4.1123830">
        <ele>486.0</ele>
        <time>2021-12-28T09:40:47Z</time>
      </trkpt>
      <trkpt lat="37.6145440" lon="-4.1124270">
        <ele>486.0</ele>
        <time>2021-12-28T09:40:48Z</time>
      </trkpt>
      <trkpt lat="37.6145250" lon="-4.1124700">
        <ele>486.0</ele>
        <time>2021-12-28T09:40:49Z</time>
      </trkpt>
      <trkpt lat="37.6145060" lon="-4.1125100">
        <ele>486.0</ele>
        <time>2021-12-28T09:40:50Z</time>
      </trkpt>
      <trkpt lat="37.6144900" lon="-4.1125480">
        <ele>486.0</ele>
        <time>2021-12-28T09:40:51Z</time>
      </trkpt>
      <trkpt lat="37.6144770" lon="-4.1125860">
        <ele>486.0</ele>
        <time>2021-12-28T09:40:52Z</time>
      </trkpt>
      <trkpt lat="37.6144610" lon="-4.1126220">
        <ele>486.2</ele>
        <time>2021-12-28T09:40:53Z</time>
      </trkpt>
      <trkpt lat="37.6144420" lon="-4.1126560">
        <ele>486.2</ele>
        <time>2021-12-28T09:40:54Z</time>
      </trkpt>
      <trkpt lat="37.6144260" lon="-4.1126930">
        <ele>486.4</ele>
        <time>2021-12-28T09:40:55Z</time>
      </trkpt>
      <trkpt lat="37.6144100" lon="-4.1127320">
        <ele>486.4</ele>
        <time>2021-12-28T09:40:56Z</time>
      </trkpt>
      <trkpt lat="37.6143940" lon="-4.1127680">
        <ele>486.4</ele>
        <time>2021-12-28T09:40:57Z</time>
      </trkpt>
      <trkpt lat="37.6143780" lon="-4.1128050">
        <ele>486.4</ele>
        <time>2021-12-28T09:40:58Z</time>
      </trkpt>
      <trkpt lat="37.6143620" lon="-4.1128420">
        <ele>486.4</ele>
        <time>2021-12-28T09:40:59Z</time>
      </trkpt>
      <trkpt lat="37.6143460" lon="-4.1128780">
        <ele>486.4</ele>
        <time>2021-12-28T09:41:00Z</time>
      </trkpt>
      <trkpt lat="37.6143300" lon="-4.1129120">
        <ele>486.6</ele>
        <time>2021-12-28T09:41:01Z</time>
      </trkpt>
      <trkpt lat="37.6143100" lon="-4.1129450">
        <ele>486.6</ele>
        <time>2021-12-28T09:41:02Z</time>
      </trkpt>
      <trkpt lat="37.6142910" lon="-4.1129800">
        <ele>486.6</ele>
        <time>2021-12-28T09:41:03Z</time>
      </trkpt>
      <trkpt lat="37.6142780" lon="-4.1130170">
        <ele>486.6</ele>
        <time>2021-12-28T09:41:04Z</time>
      </trkpt>
      <trkpt lat="37.6142620" lon="-4.1130570">
        <ele>486.6</ele>
        <time>2021-12-28T09:41:05Z</time>
      </trkpt>
      <trkpt lat="37.6142460" lon="-4.1130950">
        <ele>486.6</ele>
        <time>2021-12-28T09:41:06Z</time>
      </trkpt>
      <trkpt lat="37.6142270" lon="-4.1131350">
        <ele>486.6</ele>
        <time>2021-12-28T09:41:07Z</time>
      </trkpt>
      <trkpt lat="37.6142110" lon="-4.1131750">
        <ele>486.6</ele>
        <time>2021-12-28T09:41:08Z</time>
      </trkpt>
      <trkpt lat="37.6141950" lon="-4.1132120">
        <ele>486.6</ele>
        <time>2021-12-28T09:41:09Z</time>
      </trkpt>
      <trkpt lat="37.6141820" lon="-4.1132480">
        <ele>486.8</ele>
        <time>2021-12-28T09:41:10Z</time>
      </trkpt>
      <trkpt lat="37.6141660" lon="-4.1132850">
        <ele>486.8</ele>
        <time>2021-12-28T09:41:11Z</time>
      </trkpt>
      <trkpt lat="37.6141470" lon="-4.1133200">
        <ele>486.8</ele>
        <time>2021-12-28T09:41:12Z</time>
      </trkpt>
      <trkpt lat="37.6141340" lon="-4.1133560">
        <ele>486.8</ele>
        <time>2021-12-28T09:41:13Z</time>
      </trkpt>
      <trkpt lat="37.6141220" lon="-4.1133900">
        <ele>486.8</ele>
        <time>2021-12-28T09:41:14Z</time>
      </trkpt>
      <trkpt lat="37.6141060" lon="-4.1134250">
        <ele>486.8</ele>
        <time>2021-12-28T09:41:15Z</time>
      </trkpt>
      <trkpt lat="37.6140900" lon="-4.1134550">
        <ele>487.0</ele>
        <time>2021-12-28T09:41:16Z</time>
      </trkpt>
      <trkpt lat="37.6140800" lon="-4.1134870">
        <ele>487.0</ele>
        <time>2021-12-28T09:41:17Z</time>
      </trkpt>
      <trkpt lat="37.6140640" lon="-4.1135170">
        <ele>487.0</ele>
        <time>2021-12-28T09:41:18Z</time>
      </trkpt>
      <trkpt lat="37.6140480" lon="-4.1135480">
        <ele>487.0</ele>
        <time>2021-12-28T09:41:19Z</time>
      </trkpt>
      <trkpt lat="37.6140290" lon="-4.1135820">
        <ele>486.8</ele>
        <time>2021-12-28T09:41:20Z</time>
      </trkpt>
      <trkpt lat="37.6140130" lon="-4.1136180">
        <ele>487.0</ele>
        <time>2021-12-28T09:41:21Z</time>
      </trkpt>
      <trkpt lat="37.6140000" lon="-4.1136550">
        <ele>487.0</ele>
        <time>2021-12-28T09:41:22Z</time>
      </trkpt>
      <trkpt lat="37.6139870" lon="-4.1136930">
        <ele>487.0</ele>
        <time>2021-12-28T09:41:23Z</time>
      </trkpt>
      <trkpt lat="37.6139710" lon="-4.1137300">
        <ele>487.0</ele>
        <time>2021-12-28T09:41:24Z</time>
      </trkpt>
      <trkpt lat="37.6139520" lon="-4.1137650">
        <ele>486.8</ele>
        <time>2021-12-28T09:41:25Z</time>
      </trkpt>
      <trkpt lat="37.6139330" lon="-4.1138030">
        <ele>486.8</ele>
        <time>2021-12-28T09:41:26Z</time>
      </trkpt>
      <trkpt lat="37.6139140" lon="-4.1138420">
        <ele>486.8</ele>
        <time>2021-12-28T09:41:27Z</time>
      </trkpt>
      <trkpt lat="37.6139010" lon="-4.1138820">
        <ele>486.8</ele>
        <time>2021-12-28T09:41:28Z</time>
      </trkpt>
      <trkpt lat="37.6138820" lon="-4.1139220">
        <ele>486.8</ele>
        <time>2021-12-28T09:41:29Z</time>
      </trkpt>
      <trkpt lat="37.6138620" lon="-4.1139630">
        <ele>486.8</ele>
        <time>2021-12-28T09:41:30Z</time>
      </trkpt>
      <trkpt lat="37.6138460" lon="-4.1140030">
        <ele>486.8</ele>
        <time>2021-12-28T09:41:31Z</time>
      </trkpt>
      <trkpt lat="37.6138270" lon="-4.1140430">
        <ele>486.6</ele>
        <time>2021-12-28T09:41:32Z</time>
      </trkpt>
      <trkpt lat="37.6138110" lon="-4.1140850">
        <ele>486.6</ele>
        <time>2021-12-28T09:41:33Z</time>
      </trkpt>
      <trkpt lat="37.6137920" lon="-4.1141270">
        <ele>486.4</ele>
        <time>2021-12-28T09:41:34Z</time>
      </trkpt>
      <trkpt lat="37.6137730" lon="-4.1141670">
        <ele>486.4</ele>
        <time>2021-12-28T09:41:35Z</time>
      </trkpt>
      <trkpt lat="37.6137500" lon="-4.1142080">
        <ele>486.4</ele>
        <time>2021-12-28T09:41:36Z</time>
      </trkpt>
      <trkpt lat="37.6137340" lon="-4.1142520">
        <ele>486.4</ele>
        <time>2021-12-28T09:41:37Z</time>
      </trkpt>
      <trkpt lat="37.6137120" lon="-4.1142980">
        <ele>486.4</ele>
        <time>2021-12-28T09:41:38Z</time>
      </trkpt>
      <trkpt lat="37.6136900" lon="-4.1143450">
        <ele>486.4</ele>
        <time>2021-12-28T09:41:39Z</time>
      </trkpt>
      <trkpt lat="37.6136670" lon="-4.1143930">
        <ele>486.2</ele>
        <time>2021-12-28T09:41:40Z</time>
      </trkpt>
      <trkpt lat="37.6136480" lon="-4.1144420">
        <ele>486.2</ele>
        <time>2021-12-28T09:41:41Z</time>
      </trkpt>
      <trkpt lat="37.6136260" lon="-4.1144900">
        <ele>486.2</ele>
        <time>2021-12-28T09:41:42Z</time>
      </trkpt>
      <trkpt lat="37.6136030" lon="-4.1145380">
        <ele>486.0</ele>
        <time>2021-12-28T09:41:43Z</time>
      </trkpt>
      <trkpt lat="37.6135840" lon="-4.1145850">
        <ele>486.0</ele>
        <time>2021-12-28T09:41:44Z</time>
      </trkpt>
      <trkpt lat="37.6135650" lon="-4.1146320">
        <ele>486.0</ele>
        <time>2021-12-28T09:41:45Z</time>
      </trkpt>
      <trkpt lat="37.6135360" lon="-4.1146780">
        <ele>485.8</ele>
        <time>2021-12-28T09:41:46Z</time>
      </trkpt>
      <trkpt lat="37.6135170" lon="-4.1147260">
        <ele>485.8</ele>
        <time>2021-12-28T09:41:47Z</time>
      </trkpt>
      <trkpt lat="37.6134980" lon="-4.1147750">
        <ele>485.8</ele>
        <time>2021-12-28T09:41:48Z</time>
      </trkpt>
      <trkpt lat="37.6134750" lon="-4.1148220">
        <ele>485.8</ele>
        <time>2021-12-28T09:41:49Z</time>
      </trkpt>
      <trkpt lat="37.6134560" lon="-4.1148720">
        <ele>485.6</ele>
        <time>2021-12-28T09:41:50Z</time>
      </trkpt>
      <trkpt lat="37.6134340" lon="-4.1149200">
        <ele>485.6</ele>
        <time>2021-12-28T09:41:51Z</time>
      </trkpt>
      <trkpt lat="37.6134110" lon="-4.1149680">
        <ele>485.6</ele>
        <time>2021-12-28T09:41:52Z</time>
      </trkpt>
      <trkpt lat="37.6133920" lon="-4.1150130">
        <ele>485.6</ele>
        <time>2021-12-28T09:41:53Z</time>
      </trkpt>
      <trkpt lat="37.6133660" lon="-4.1150620">
        <ele>485.6</ele>
        <time>2021-12-28T09:41:54Z</time>
      </trkpt>
      <trkpt lat="37.6133470" lon="-4.1151080">
        <ele>485.6</ele>
        <time>2021-12-28T09:41:55Z</time>
      </trkpt>
      <trkpt lat="37.6133250" lon="-4.1151580">
        <ele>485.6</ele>
        <time>2021-12-28T09:41:56Z</time>
      </trkpt>
      <trkpt lat="37.6132990" lon="-4.1152070">
        <ele>485.6</ele>
        <time>2021-12-28T09:41:57Z</time>
      </trkpt>
      <trkpt lat="37.6132800" lon="-4.1152550">
        <ele>485.4</ele>
        <time>2021-12-28T09:41:58Z</time>
      </trkpt>
      <trkpt lat="37.6132580" lon="-4.1153040">
        <ele>485.4</ele>
        <time>2021-12-28T09:41:59Z</time>
      </trkpt>
      <trkpt lat="37.6132350" lon="-4.1153530">
        <ele>485.4</ele>
        <time>2021-12-28T09:42:00Z</time>
      </trkpt>
      <trkpt lat="37.6132130" lon="-4.1154020">
        <ele>485.4</ele>
        <time>2021-12-28T09:42:01Z</time>
      </trkpt>
      <trkpt lat="37.6131940" lon="-4.1154480">
        <ele>485.4</ele>
        <time>2021-12-28T09:42:02Z</time>
      </trkpt>
      <trkpt lat="37.6131710" lon="-4.1154970">
        <ele>485.6</ele>
        <time>2021-12-28T09:42:03Z</time>
      </trkpt>
      <trkpt lat="37.6131490" lon="-4.1155450">
        <ele>485.6</ele>
        <time>2021-12-28T09:42:04Z</time>
      </trkpt>
      <trkpt lat="37.6131260" lon="-4.1155970">
        <ele>485.4</ele>
        <time>2021-12-28T09:42:05Z</time>
      </trkpt>
      <trkpt lat="37.6130980" lon="-4.1156470">
        <ele>485.4</ele>
        <time>2021-12-28T09:42:06Z</time>
      </trkpt>
      <trkpt lat="37.6130750" lon="-4.1156980">
        <ele>485.2</ele>
        <time>2021-12-28T09:42:07Z</time>
      </trkpt>
      <trkpt lat="37.6130530" lon="-4.1157480">
        <ele>485.2</ele>
        <time>2021-12-28T09:42:08Z</time>
      </trkpt>
      <trkpt lat="37.6130300" lon="-4.1157980">
        <ele>485.2</ele>
        <time>2021-12-28T09:42:09Z</time>
      </trkpt>
      <trkpt lat="37.6130080" lon="-4.1158500">
        <ele>485.2</ele>
        <time>2021-12-28T09:42:10Z</time>
      </trkpt>
      <trkpt lat="37.6129820" lon="-4.1159000">
        <ele>485.2</ele>
        <time>2021-12-28T09:42:11Z</time>
      </trkpt>
      <trkpt lat="37.6129630" lon="-4.1159520">
        <ele>485.2</ele>
        <time>2021-12-28T09:42:12Z</time>
      </trkpt>
      <trkpt lat="37.6129410" lon="-4.1160040">
        <ele>485.2</ele>
        <time>2021-12-28T09:42:13Z</time>
      </trkpt>
      <trkpt lat="37.6129150" lon="-4.1160530">
        <ele>485.2</ele>
        <time>2021-12-28T09:42:14Z</time>
      </trkpt>
      <trkpt lat="37.6128930" lon="-4.1161060">
        <ele>485.4</ele>
        <time>2021-12-28T09:42:15Z</time>
      </trkpt>
      <trkpt lat="37.6128740" lon="-4.1161580">
        <ele>485.4</ele>
        <time>2021-12-28T09:42:16Z</time>
      </trkpt>
      <trkpt lat="37.6128510" lon="-4.1162070">
        <ele>485.4</ele>
        <time>2021-12-28T09:42:17Z</time>
      </trkpt>
      <trkpt lat="37.6128290" lon="-4.1162580">
        <ele>485.4</ele>
        <time>2021-12-28T09:42:18Z</time>
      </trkpt>
      <trkpt lat="37.6128030" lon="-4.1163120">
        <ele>485.4</ele>
        <time>2021-12-28T09:42:19Z</time>
      </trkpt>
      <trkpt lat="37.6127780" lon="-4.1163640">
        <ele>485.4</ele>
        <time>2021-12-28T09:42:20Z</time>
      </trkpt>
      <trkpt lat="37.6127550" lon="-4.1164130">
        <ele>485.4</ele>
        <time>2021-12-28T09:42:21Z</time>
      </trkpt>
      <trkpt lat="37.6127330" lon="-4.1164660">
        <ele>485.4</ele>
        <time>2021-12-28T09:42:22Z</time>
      </trkpt>
      <trkpt lat="37.6127040" lon="-4.1165200">
        <ele>485.4</ele>
        <time>2021-12-28T09:42:23Z</time>
      </trkpt>
      <trkpt lat="37.6126820" lon="-4.1165730">
        <ele>485.6</ele>
        <time>2021-12-28T09:42:24Z</time>
      </trkpt>
      <trkpt lat="37.6126560" lon="-4.1166270">
        <ele>485.6</ele>
        <time>2021-12-28T09:42:25Z</time>
      </trkpt>
      <trkpt lat="37.6126340" lon="-4.1166780">
        <ele>485.6</ele>
        <time>2021-12-28T09:42:26Z</time>
      </trkpt>
      <trkpt lat="37.6126110" lon="-4.1167320">
        <ele>485.6</ele>
        <time>2021-12-28T09:42:27Z</time>
      </trkpt>
      <trkpt lat="37.6125820" lon="-4.1167830">
        <ele>485.6</ele>
        <time>2021-12-28T09:42:28Z</time>
      </trkpt>
      <trkpt lat="37.6125600" lon="-4.1168360">
        <ele>485.6</ele>
        <time>2021-12-28T09:42:29Z</time>
      </trkpt>
      <trkpt lat="37.6125380" lon="-4.1168880">
        <ele>485.6</ele>
        <time>2021-12-28T09:42:30Z</time>
      </trkpt>
      <trkpt lat="37.6125150" lon="-4.1169420">
        <ele>485.6</ele>
        <time>2021-12-28T09:42:31Z</time>
      </trkpt>
      <trkpt lat="37.6124860" lon="-4.1169920">
        <ele>485.6</ele>
        <time>2021-12-28T09:42:32Z</time>
      </trkpt>
      <trkpt lat="37.6124640" lon="-4.1170420">
        <ele>485.4</ele>
        <time>2021-12-28T09:42:33Z</time>
      </trkpt>
      <trkpt lat="37.6124420" lon="-4.1170940">
        <ele>485.4</ele>
        <time>2021-12-28T09:42:34Z</time>
      </trkpt>
      <trkpt lat="37.6124190" lon="-4.1171430">
        <ele>485.4</ele>
        <time>2021-12-28T09:42:35Z</time>
      </trkpt>
      <trkpt lat="37.6124000" lon="-4.1171950">
        <ele>485.4</ele>
        <time>2021-12-28T09:42:36Z</time>
      </trkpt>
      <trkpt lat="37.6123780" lon="-4.1172450">
        <ele>485.4</ele>
        <time>2021-12-28T09:42:37Z</time>
      </trkpt>
      <trkpt lat="37.6123550" lon="-4.1172970">
        <ele>485.2</ele>
        <time>2021-12-28T09:42:38Z</time>
      </trkpt>
      <trkpt lat="37.6123330" lon="-4.1173470">
        <ele>485.2</ele>
        <time>2021-12-28T09:42:39Z</time>
      </trkpt>
      <trkpt lat="37.6123070" lon="-4.1173970">
        <ele>485.2</ele>
        <time>2021-12-28T09:42:40Z</time>
      </trkpt>
      <trkpt lat="37.6122820" lon="-4.1174500">
        <ele>485.0</ele>
        <time>2021-12-28T09:42:41Z</time>
      </trkpt>
      <trkpt lat="37.6122620" lon="-4.1175000">
        <ele>485.0</ele>
        <time>2021-12-28T09:42:42Z</time>
      </trkpt>
      <trkpt lat="37.6122400" lon="-4.1175520">
        <ele>485.0</ele>
        <time>2021-12-28T09:42:43Z</time>
      </trkpt>
      <trkpt lat="37.6122180" lon="-4.1176030">
        <ele>484.8</ele>
        <time>2021-12-28T09:42:44Z</time>
      </trkpt>
      <trkpt lat="37.6121950" lon="-4.1176530">
        <ele>484.8</ele>
        <time>2021-12-28T09:42:45Z</time>
      </trkpt>
      <trkpt lat="37.6121660" lon="-4.1177040">
        <ele>484.8</ele>
        <time>2021-12-28T09:42:46Z</time>
      </trkpt>
      <trkpt lat="37.6121440" lon="-4.1177550">
        <ele>484.8</ele>
        <time>2021-12-28T09:42:47Z</time>
      </trkpt>
      <trkpt lat="37.6121220" lon="-4.1178060">
        <ele>484.8</ele>
        <time>2021-12-28T09:42:48Z</time>
      </trkpt>
      <trkpt lat="37.6120990" lon="-4.1178560">
        <ele>484.8</ele>
        <time>2021-12-28T09:42:49Z</time>
      </trkpt>
      <trkpt lat="37.6120800" lon="-4.1179050">
        <ele>484.6</ele>
        <time>2021-12-28T09:42:50Z</time>
      </trkpt>
      <trkpt lat="37.6120580" lon="-4.1179550">
        <ele>484.6</ele>
        <time>2021-12-28T09:42:51Z</time>
      </trkpt>
      <trkpt lat="37.6120350" lon="-4.1180030">
        <ele>484.4</ele>
        <time>2021-12-28T09:42:52Z</time>
      </trkpt>
      <trkpt lat="37.6120160" lon="-4.1180520">
        <ele>484.4</ele>
        <time>2021-12-28T09:42:53Z</time>
      </trkpt>
      <trkpt lat="37.6119900" lon="-4.1181000">
        <ele>484.2</ele>
        <time>2021-12-28T09:42:54Z</time>
      </trkpt>
      <trkpt lat="37.6119680" lon="-4.1181500">
        <ele>484.2</ele>
        <time>2021-12-28T09:42:55Z</time>
      </trkpt>
      <trkpt lat="37.6119460" lon="-4.1182000">
        <ele>484.0</ele>
        <time>2021-12-28T09:42:56Z</time>
      </trkpt>
      <trkpt lat="37.6119230" lon="-4.1182500">
        <ele>484.0</ele>
        <time>2021-12-28T09:42:57Z</time>
      </trkpt>
      <trkpt lat="37.6119010" lon="-4.1183000">
        <ele>483.8</ele>
        <time>2021-12-28T09:42:58Z</time>
      </trkpt>
      <trkpt lat="37.6118780" lon="-4.1183480">
        <ele>483.8</ele>
        <time>2021-12-28T09:42:59Z</time>
      </trkpt>
      <trkpt lat="37.6118590" lon="-4.1183950">
        <ele>483.8</ele>
        <time>2021-12-28T09:43:00Z</time>
      </trkpt>
      <trkpt lat="37.6118400" lon="-4.1184420">
        <ele>483.8</ele>
        <time>2021-12-28T09:43:01Z</time>
      </trkpt>
      <trkpt lat="37.6118180" lon="-4.1184850">
        <ele>483.8</ele>
        <time>2021-12-28T09:43:02Z</time>
      </trkpt>
      <trkpt lat="37.6117980" lon="-4.1185280">
        <ele>483.8</ele>
        <time>2021-12-28T09:43:03Z</time>
      </trkpt>
      <trkpt lat="37.6117790" lon="-4.1185700">
        <ele>483.6</ele>
        <time>2021-12-28T09:43:04Z</time>
      </trkpt>
      <trkpt lat="37.6117630" lon="-4.1186150">
        <ele>483.6</ele>
        <time>2021-12-28T09:43:05Z</time>
      </trkpt>
      <trkpt lat="37.6117410" lon="-4.1186580">
        <ele>483.4</ele>
        <time>2021-12-28T09:43:06Z</time>
      </trkpt>
      <trkpt lat="37.6117220" lon="-4.1187020">
        <ele>483.4</ele>
        <time>2021-12-28T09:43:07Z</time>
      </trkpt>
      <trkpt lat="37.6117020" lon="-4.1187470">
        <ele>483.2</ele>
        <time>2021-12-28T09:43:08Z</time>
      </trkpt>
      <trkpt lat="37.6116800" lon="-4.1187920">
        <ele>483.2</ele>
        <time>2021-12-28T09:43:09Z</time>
      </trkpt>
      <trkpt lat="37.6116610" lon="-4.1188350">
        <ele>483.0</ele>
        <time>2021-12-28T09:43:10Z</time>
      </trkpt>
      <trkpt lat="37.6116420" lon="-4.1188780">
        <ele>483.0</ele>
        <time>2021-12-28T09:43:11Z</time>
      </trkpt>
      <trkpt lat="37.6116220" lon="-4.1189220">
        <ele>482.8</ele>
        <time>2021-12-28T09:43:12Z</time>
      </trkpt>
      <trkpt lat="37.6116000" lon="-4.1189650">
        <ele>482.8</ele>
        <time>2021-12-28T09:43:13Z</time>
      </trkpt>
      <trkpt lat="37.6115810" lon="-4.1190100">
        <ele>482.8</ele>
        <time>2021-12-28T09:43:14Z</time>
      </trkpt>
      <trkpt lat="37.6115650" lon="-4.1190520">
        <ele>482.8</ele>
        <time>2021-12-28T09:43:15Z</time>
      </trkpt>
      <trkpt lat="37.6115420" lon="-4.1190920">
        <ele>482.6</ele>
        <time>2021-12-28T09:43:16Z</time>
      </trkpt>
      <trkpt lat="37.6115260" lon="-4.1191350">
        <ele>482.6</ele>
        <time>2021-12-28T09:43:17Z</time>
      </trkpt>
      <trkpt lat="37.6115070" lon="-4.1191770">
        <ele>482.6</ele>
        <time>2021-12-28T09:43:18Z</time>
      </trkpt>
      <trkpt lat="37.6114880" lon="-4.1192180">
        <ele>482.6</ele>
        <time>2021-12-28T09:43:19Z</time>
      </trkpt>
      <trkpt lat="37.6114720" lon="-4.1192560">
        <ele>482.4</ele>
        <time>2021-12-28T09:43:20Z</time>
      </trkpt>
      <trkpt lat="37.6114530" lon="-4.1192950">
        <ele>482.4</ele>
        <time>2021-12-28T09:43:21Z</time>
      </trkpt>
      <trkpt lat="37.6114340" lon="-4.1193330">
        <ele>482.4</ele>
        <time>2021-12-28T09:43:22Z</time>
      </trkpt>
      <trkpt lat="37.6114140" lon="-4.1193720">
        <ele>482.4</ele>
        <time>2021-12-28T09:43:23Z</time>
      </trkpt>
      <trkpt lat="37.6114020" lon="-4.1194120">
        <ele>482.4</ele>
        <time>2021-12-28T09:43:24Z</time>
      </trkpt>
      <trkpt lat="37.6113820" lon="-4.1194540">
        <ele>482.2</ele>
        <time>2021-12-28T09:43:25Z</time>
      </trkpt>
      <trkpt lat="37.6113630" lon="-4.1194940">
        <ele>482.2</ele>
        <time>2021-12-28T09:43:26Z</time>
      </trkpt>
      <trkpt lat="37.6113470" lon="-4.1195320">
        <ele>482.2</ele>
        <time>2021-12-28T09:43:27Z</time>
      </trkpt>
      <trkpt lat="37.6113280" lon="-4.1195680">
        <ele>482.2</ele>
        <time>2021-12-28T09:43:28Z</time>
      </trkpt>
      <trkpt lat="37.6113120" lon="-4.1196030">
        <ele>482.2</ele>
        <time>2021-12-28T09:43:29Z</time>
      </trkpt>
      <trkpt lat="37.6112930" lon="-4.1196360">
        <ele>482.2</ele>
        <time>2021-12-28T09:43:30Z</time>
      </trkpt>
      <trkpt lat="37.6112800" lon="-4.1196660">
        <ele>482.0</ele>
        <time>2021-12-28T09:43:31Z</time>
      </trkpt>
      <trkpt lat="37.6112670" lon="-4.1196920">
        <ele>482.0</ele>
        <time>2021-12-28T09:43:32Z</time>
      </trkpt>
      <trkpt lat="37.6112540" lon="-4.1197100">
        <ele>481.8</ele>
        <time>2021-12-28T09:43:33Z</time>
      </trkpt>
      <trkpt lat="37.6112540" lon="-4.1197100">
        <ele>481.8</ele>
        <time>2021-12-28T09:43:34Z</time>
      </trkpt>
      <trkpt lat="37.6112480" lon="-4.1197320">
        <ele>481.8</ele>
        <time>2021-12-28T09:43:35Z</time>
      </trkpt>
      <trkpt lat="37.6112480" lon="-4.1197320">
        <ele>481.8</ele>
        <time>2021-12-28T09:43:36Z</time>
      </trkpt>
      <trkpt lat="37.6112480" lon="-4.1197320">
        <ele>481.8</ele>
        <time>2021-12-28T09:43:37Z</time>
      </trkpt>
      <trkpt lat="37.6112480" lon="-4.1197320">
        <ele>482.0</ele>
        <time>2021-12-28T09:43:38Z</time>
      </trkpt>
      <trkpt lat="37.6111650" lon="-4.1199330">
        <ele>481.2</ele>
        <time>2021-12-28T09:44:03Z</time>
      </trkpt>
      <trkpt lat="37.6111650" lon="-4.1199330">
        <ele>481.4</ele>
        <time>2021-12-28T09:44:04Z</time>
      </trkpt>
      <trkpt lat="37.6111460" lon="-4.1199680">
        <ele>481.4</ele>
        <time>2021-12-28T09:44:05Z</time>
      </trkpt>
      <trkpt lat="37.6111460" lon="-4.1199680">
        <ele>481.4</ele>
        <time>2021-12-28T09:44:06Z</time>
      </trkpt>
      <trkpt lat="37.6111300" lon="-4.1200030">
        <ele>481.4</ele>
        <time>2021-12-28T09:44:07Z</time>
      </trkpt>
      <trkpt lat="37.6111300" lon="-4.1200030">
        <ele>481.2</ele>
        <time>2021-12-28T09:44:08Z</time>
      </trkpt>
      <trkpt lat="37.6111170" lon="-4.1200380">
        <ele>481.2</ele>
        <time>2021-12-28T09:44:09Z</time>
      </trkpt>
      <trkpt lat="37.6111070" lon="-4.1200580">
        <ele>481.2</ele>
        <time>2021-12-28T09:44:10Z</time>
      </trkpt>
      <trkpt lat="37.6111070" lon="-4.1200580">
        <ele>481.2</ele>
        <time>2021-12-28T09:44:11Z</time>
      </trkpt>
      <trkpt lat="37.6110940" lon="-4.1201020">
        <ele>481.0</ele>
        <time>2021-12-28T09:44:12Z</time>
      </trkpt>
      <trkpt lat="37.6110850" lon="-4.1201270">
        <ele>481.0</ele>
        <time>2021-12-28T09:44:13Z</time>
      </trkpt>
      <trkpt lat="37.6110750" lon="-4.1201500">
        <ele>480.8</ele>
        <time>2021-12-28T09:44:14Z</time>
      </trkpt>
      <trkpt lat="37.6110660" lon="-4.1201750">
        <ele>480.8</ele>
        <time>2021-12-28T09:44:15Z</time>
      </trkpt>
      <trkpt lat="37.6110530" lon="-4.1202020">
        <ele>480.8</ele>
        <time>2021-12-28T09:44:16Z</time>
      </trkpt>
      <trkpt lat="37.6110430" lon="-4.1202270">
        <ele>480.8</ele>
        <time>2021-12-28T09:44:17Z</time>
      </trkpt>
      <trkpt lat="37.6110300" lon="-4.1202520">
        <ele>480.8</ele>
        <time>2021-12-28T09:44:18Z</time>
      </trkpt>
      <trkpt lat="37.6110240" lon="-4.1202760">
        <ele>480.8</ele>
        <time>2021-12-28T09:44:19Z</time>
      </trkpt>
      <trkpt lat="37.6110110" lon="-4.1203000">
        <ele>480.8</ele>
        <time>2021-12-28T09:44:20Z</time>
      </trkpt>
      <trkpt lat="37.6110020" lon="-4.1203220">
        <ele>480.8</ele>
        <time>2021-12-28T09:44:21Z</time>
      </trkpt>
      <trkpt lat="37.6109890" lon="-4.1203450">
        <ele>480.8</ele>
        <time>2021-12-28T09:44:22Z</time>
      </trkpt>
      <trkpt lat="37.6109760" lon="-4.1203660">
        <ele>480.8</ele>
        <time>2021-12-28T09:44:23Z</time>
      </trkpt>
      <trkpt lat="37.6109660" lon="-4.1203920">
        <ele>480.8</ele>
        <time>2021-12-28T09:44:24Z</time>
      </trkpt>
      <trkpt lat="37.6109540" lon="-4.1204200">
        <ele>480.8</ele>
        <time>2021-12-28T09:44:25Z</time>
      </trkpt>
      <trkpt lat="37.6109380" lon="-4.1204480">
        <ele>481.0</ele>
        <time>2021-12-28T09:44:26Z</time>
      </trkpt>
      <trkpt lat="37.6109280" lon="-4.1204780">
        <ele>481.0</ele>
        <time>2021-12-28T09:44:27Z</time>
      </trkpt>
      <trkpt lat="37.6109120" lon="-4.1205100">
        <ele>481.0</ele>
        <time>2021-12-28T09:44:28Z</time>
      </trkpt>
      <trkpt lat="37.6108960" lon="-4.1205420">
        <ele>481.0</ele>
        <time>2021-12-28T09:44:29Z</time>
      </trkpt>
      <trkpt lat="37.6108860" lon="-4.1205750">
        <ele>481.0</ele>
        <time>2021-12-28T09:44:30Z</time>
      </trkpt>
      <trkpt lat="37.6108700" lon="-4.1206070">
        <ele>481.0</ele>
        <time>2021-12-28T09:44:31Z</time>
      </trkpt>
      <trkpt lat="37.6108540" lon="-4.1206400">
        <ele>480.8</ele>
        <time>2021-12-28T09:44:32Z</time>
      </trkpt>
      <trkpt lat="37.6108380" lon="-4.1206780">
        <ele>480.6</ele>
        <time>2021-12-28T09:44:33Z</time>
      </trkpt>
      <trkpt lat="37.6108190" lon="-4.1207130">
        <ele>480.6</ele>
        <time>2021-12-28T09:44:34Z</time>
      </trkpt>
      <trkpt lat="37.6108060" lon="-4.1207530">
        <ele>480.6</ele>
        <time>2021-12-28T09:44:35Z</time>
      </trkpt>
      <trkpt lat="37.6107900" lon="-4.1207920">
        <ele>480.6</ele>
        <time>2021-12-28T09:44:36Z</time>
      </trkpt>
      <trkpt lat="37.6107740" lon="-4.1208270">
        <ele>480.4</ele>
        <time>2021-12-28T09:44:37Z</time>
      </trkpt>
      <trkpt lat="37.6107580" lon="-4.1208600">
        <ele>480.4</ele>
        <time>2021-12-28T09:44:38Z</time>
      </trkpt>
      <trkpt lat="37.6107460" lon="-4.1208970">
        <ele>480.4</ele>
        <time>2021-12-28T09:44:39Z</time>
      </trkpt>
      <trkpt lat="37.6107260" lon="-4.1209340">
        <ele>480.4</ele>
        <time>2021-12-28T09:44:40Z</time>
      </trkpt>
      <trkpt lat="37.6107100" lon="-4.1209700">
        <ele>480.4</ele>
        <time>2021-12-28T09:44:41Z</time>
      </trkpt>
      <trkpt lat="37.6106910" lon="-4.1210060">
        <ele>480.4</ele>
        <time>2021-12-28T09:44:42Z</time>
      </trkpt>
      <trkpt lat="37.6106720" lon="-4.1210450">
        <ele>480.4</ele>
        <time>2021-12-28T09:44:43Z</time>
      </trkpt>
      <trkpt lat="37.6106560" lon="-4.1210850">
        <ele>480.4</ele>
        <time>2021-12-28T09:44:44Z</time>
      </trkpt>
      <trkpt lat="37.6106370" lon="-4.1211230">
        <ele>480.2</ele>
        <time>2021-12-28T09:44:45Z</time>
      </trkpt>
      <trkpt lat="37.6106180" lon="-4.1211620">
        <ele>480.2</ele>
        <time>2021-12-28T09:44:46Z</time>
      </trkpt>
      <trkpt lat="37.6105980" lon="-4.1212020">
        <ele>480.2</ele>
        <time>2021-12-28T09:44:47Z</time>
      </trkpt>
      <trkpt lat="37.6105790" lon="-4.1212400">
        <ele>480.2</ele>
        <time>2021-12-28T09:44:48Z</time>
      </trkpt>
      <trkpt lat="37.6105660" lon="-4.1212780">
        <ele>480.2</ele>
        <time>2021-12-28T09:44:49Z</time>
      </trkpt>
      <trkpt lat="37.6105470" lon="-4.1213180">
        <ele>480.2</ele>
        <time>2021-12-28T09:44:50Z</time>
      </trkpt>
      <trkpt lat="37.6105280" lon="-4.1213560">
        <ele>480.2</ele>
        <time>2021-12-28T09:44:51Z</time>
      </trkpt>
      <trkpt lat="37.6105120" lon="-4.1213930">
        <ele>480.2</ele>
        <time>2021-12-28T09:44:52Z</time>
      </trkpt>
      <trkpt lat="37.6104930" lon="-4.1214300">
        <ele>480.2</ele>
        <time>2021-12-28T09:44:53Z</time>
      </trkpt>
      <trkpt lat="37.6104740" lon="-4.1214670">
        <ele>480.2</ele>
        <time>2021-12-28T09:44:54Z</time>
      </trkpt>
      <trkpt lat="37.6104580" lon="-4.1215000">
        <ele>480.4</ele>
        <time>2021-12-28T09:44:55Z</time>
      </trkpt>
      <trkpt lat="37.6104420" lon="-4.1215220">
        <ele>480.4</ele>
        <time>2021-12-28T09:44:56Z</time>
      </trkpt>
      <trkpt lat="37.6104190" lon="-4.1215350">
        <ele>480.4</ele>
        <time>2021-12-28T09:44:57Z</time>
      </trkpt>
      <trkpt lat="37.6103970" lon="-4.1215420">
        <ele>480.4</ele>
        <time>2021-12-28T09:44:58Z</time>
      </trkpt>
      <trkpt lat="37.6103780" lon="-4.1215450">
        <ele>480.6</ele>
        <time>2021-12-28T09:44:59Z</time>
      </trkpt>
      <trkpt lat="37.6103550" lon="-4.1215440">
        <ele>480.6</ele>
        <time>2021-12-28T09:45:00Z</time>
      </trkpt>
      <trkpt lat="37.6103330" lon="-4.1215420">
        <ele>480.6</ele>
        <time>2021-12-28T09:45:01Z</time>
      </trkpt>
      <trkpt lat="37.6103070" lon="-4.1215380">
        <ele>480.6</ele>
        <time>2021-12-28T09:45:02Z</time>
      </trkpt>
      <trkpt lat="37.6102820" lon="-4.1215300">
        <ele>480.6</ele>
        <time>2021-12-28T09:45:03Z</time>
      </trkpt>
      <trkpt lat="37.6102590" lon="-4.1215270">
        <ele>480.6</ele>
        <time>2021-12-28T09:45:04Z</time>
      </trkpt>
      <trkpt lat="37.6102340" lon="-4.1215270">
        <ele>480.8</ele>
        <time>2021-12-28T09:45:05Z</time>
      </trkpt>
      <trkpt lat="37.6102140" lon="-4.1215400">
        <ele>480.8</ele>
        <time>2021-12-28T09:45:06Z</time>
      </trkpt>
      <trkpt lat="37.6102020" lon="-4.1215600">
        <ele>480.8</ele>
        <time>2021-12-28T09:45:07Z</time>
      </trkpt>
      <trkpt lat="37.6101920" lon="-4.1215870">
        <ele>480.8</ele>
        <time>2021-12-28T09:45:08Z</time>
      </trkpt>
      <trkpt lat="37.6101820" lon="-4.1216170">
        <ele>480.8</ele>
        <time>2021-12-28T09:45:09Z</time>
      </trkpt>
      <trkpt lat="37.6101760" lon="-4.1216470">
        <ele>481.0</ele>
        <time>2021-12-28T09:45:10Z</time>
      </trkpt>
      <trkpt lat="37.6101600" lon="-4.1216720">
        <ele>481.0</ele>
        <time>2021-12-28T09:45:11Z</time>
      </trkpt>
      <trkpt lat="37.6101500" lon="-4.1216960">
        <ele>481.0</ele>
        <time>2021-12-28T09:45:12Z</time>
      </trkpt>
      <trkpt lat="37.6101340" lon="-4.1217230">
        <ele>481.2</ele>
        <time>2021-12-28T09:45:13Z</time>
      </trkpt>
      <trkpt lat="37.6101180" lon="-4.1217520">
        <ele>481.2</ele>
        <time>2021-12-28T09:45:14Z</time>
      </trkpt>
      <trkpt lat="37.6101120" lon="-4.1217780">
        <ele>481.4</ele>
        <time>2021-12-28T09:45:15Z</time>
      </trkpt>
      <trkpt lat="37.6100990" lon="-4.1218050">
        <ele>481.4</ele>
        <time>2021-12-28T09:45:16Z</time>
      </trkpt>
      <trkpt lat="37.6100930" lon="-4.1218350">
        <ele>481.6</ele>
        <time>2021-12-28T09:45:17Z</time>
      </trkpt>
      <trkpt lat="37.6100800" lon="-4.1218630">
        <ele>481.8</ele>
        <time>2021-12-28T09:45:18Z</time>
      </trkpt>
      <trkpt lat="37.6100610" lon="-4.1218880">
        <ele>482.0</ele>
        <time>2021-12-28T09:45:19Z</time>
      </trkpt>
      <trkpt lat="37.6100510" lon="-4.1219140">
        <ele>482.2</ele>
        <time>2021-12-28T09:45:20Z</time>
      </trkpt>
      <trkpt lat="37.6100380" lon="-4.1219340">
        <ele>482.4</ele>
        <time>2021-12-28T09:45:21Z</time>
      </trkpt>
      <trkpt lat="37.6100220" lon="-4.1219470">
        <ele>482.4</ele>
        <time>2021-12-28T09:45:22Z</time>
      </trkpt>
      <trkpt lat="37.6100220" lon="-4.1219470">
        <ele>482.4</ele>
        <time>2021-12-28T09:45:23Z</time>
      </trkpt>
      <trkpt lat="37.6100000" lon="-4.1219840">
        <ele>482.4</ele>
        <time>2021-12-28T09:45:24Z</time>
      </trkpt>
      <trkpt lat="37.6099970" lon="-4.1220120">
        <ele>482.2</ele>
        <time>2021-12-28T09:45:25Z</time>
      </trkpt>
      <trkpt lat="37.6099900" lon="-4.1220430">
        <ele>482.2</ele>
        <time>2021-12-28T09:45:26Z</time>
      </trkpt>
      <trkpt lat="37.6099810" lon="-4.1220720">
        <ele>482.2</ele>
        <time>2021-12-28T09:45:27Z</time>
      </trkpt>
      <trkpt lat="37.6099810" lon="-4.1220980">
        <ele>482.0</ele>
        <time>2021-12-28T09:45:28Z</time>
      </trkpt>
      <trkpt lat="37.6099940" lon="-4.1221250">
        <ele>482.0</ele>
        <time>2021-12-28T09:45:29Z</time>
      </trkpt>
      <trkpt lat="37.6100100" lon="-4.1221400">
        <ele>482.0</ele>
        <time>2021-12-28T09:45:30Z</time>
      </trkpt>
      <trkpt lat="37.6100290" lon="-4.1221480">
        <ele>482.0</ele>
        <time>2021-12-28T09:45:31Z</time>
      </trkpt>
      <trkpt lat="37.6100290" lon="-4.1221480">
        <ele>482.0</ele>
        <time>2021-12-28T09:45:32Z</time>
      </trkpt>
      <trkpt lat="37.6100510" lon="-4.1221530">
        <ele>482.0</ele>
        <time>2021-12-28T09:45:33Z</time>
      </trkpt>
      <trkpt lat="37.6100510" lon="-4.1221530">
        <ele>482.0</ele>
        <time>2021-12-28T09:45:34Z</time>
      </trkpt>
      <trkpt lat="37.6100510" lon="-4.1221530">
        <ele>482.0</ele>
        <time>2021-12-28T09:45:35Z</time>
      </trkpt>
      <trkpt lat="37.6100640" lon="-4.1221800">
        <ele>481.8</ele>
        <time>2021-12-28T09:45:36Z</time>
      </trkpt>
      <trkpt lat="37.6100640" lon="-4.1221800">
        <ele>481.8</ele>
        <time>2021-12-28T09:45:37Z</time>
      </trkpt>
      <trkpt lat="37.6100580" lon="-4.1222020">
        <ele>482.0</ele>
        <time>2021-12-28T09:45:38Z</time>
      </trkpt>
      <trkpt lat="37.6100580" lon="-4.1222020">
        <ele>482.0</ele>
        <time>2021-12-28T09:45:39Z</time>
      </trkpt>
      <trkpt lat="37.6100510" lon="-4.1222250">
        <ele>481.8</ele>
        <time>2021-12-28T09:45:40Z</time>
      </trkpt>
      <trkpt lat="37.6100510" lon="-4.1222250">
        <ele>481.8</ele>
        <time>2021-12-28T09:45:41Z</time>
      </trkpt>
      <trkpt lat="37.6100350" lon="-4.1222550">
        <ele>481.8</ele>
        <time>2021-12-28T09:45:42Z</time>
      </trkpt>
      <trkpt lat="37.6100350" lon="-4.1222550">
        <ele>481.8</ele>
        <time>2021-12-28T09:45:43Z</time>
      </trkpt>
      <trkpt lat="37.6100130" lon="-4.1222850">
        <ele>481.8</ele>
        <time>2021-12-28T09:45:44Z</time>
      </trkpt>
      <trkpt lat="37.6100000" lon="-4.1223020">
        <ele>481.8</ele>
        <time>2021-12-28T09:45:45Z</time>
      </trkpt>
      <trkpt lat="37.6100000" lon="-4.1223020">
        <ele>481.8</ele>
        <time>2021-12-28T09:45:46Z</time>
      </trkpt>
      <trkpt lat="37.6099810" lon="-4.1223440">
        <ele>481.8</ele>
        <time>2021-12-28T09:45:47Z</time>
      </trkpt>
      <trkpt lat="37.6099650" lon="-4.1223670">
        <ele>481.8</ele>
        <time>2021-12-28T09:45:48Z</time>
      </trkpt>
      <trkpt lat="37.6099550" lon="-4.1223950">
        <ele>481.8</ele>
        <time>2021-12-28T09:45:49Z</time>
      </trkpt>
      <trkpt lat="37.6099390" lon="-4.1224220">
        <ele>481.8</ele>
        <time>2021-12-28T09:45:50Z</time>
      </trkpt>
      <trkpt lat="37.6099300" lon="-4.1224460">
        <ele>481.8</ele>
        <time>2021-12-28T09:45:51Z</time>
      </trkpt>
      <trkpt lat="37.6099170" lon="-4.1224730">
        <ele>481.8</ele>
        <time>2021-12-28T09:45:52Z</time>
      </trkpt>
      <trkpt lat="37.6099040" lon="-4.1225020">
        <ele>481.8</ele>
        <time>2021-12-28T09:45:53Z</time>
      </trkpt>
      <trkpt lat="37.6098940" lon="-4.1225320">
        <ele>481.8</ele>
        <time>2021-12-28T09:45:54Z</time>
      </trkpt>
      <trkpt lat="37.6098820" lon="-4.1225620">
        <ele>481.8</ele>
        <time>2021-12-28T09:45:55Z</time>
      </trkpt>
      <trkpt lat="37.6098720" lon="-4.1225870">
        <ele>481.8</ele>
        <time>2021-12-28T09:45:56Z</time>
      </trkpt>
      <trkpt lat="37.6098560" lon="-4.1226100">
        <ele>481.8</ele>
        <time>2021-12-28T09:45:57Z</time>
      </trkpt>
      <trkpt lat="37.6098400" lon="-4.1226300">
        <ele>481.8</ele>
        <time>2021-12-28T09:45:58Z</time>
      </trkpt>
      <trkpt lat="37.6098400" lon="-4.1226300">
        <ele>481.8</ele>
        <time>2021-12-28T09:45:59Z</time>
      </trkpt>
      <trkpt lat="37.6098240" lon="-4.1226620">
        <ele>481.8</ele>
        <time>2021-12-28T09:46:00Z</time>
      </trkpt>
      <trkpt lat="37.6098240" lon="-4.1226620">
        <ele>481.8</ele>
        <time>2021-12-28T09:46:01Z</time>
      </trkpt>
      <trkpt lat="37.6098240" lon="-4.1226620">
        <ele>482.0</ele>
        <time>2021-12-28T09:46:02Z</time>
      </trkpt>
      <trkpt lat="37.6098050" lon="-4.1226750">
        <ele>482.0</ele>
        <time>2021-12-28T09:46:03Z</time>
      </trkpt>
      <trkpt lat="37.6098050" lon="-4.1226750">
        <ele>482.2</ele>
        <time>2021-12-28T09:46:04Z</time>
      </trkpt>
      <trkpt lat="37.6098050" lon="-4.1226750">
        <ele>482.2</ele>
        <time>2021-12-28T09:46:05Z</time>
      </trkpt>
      <trkpt lat="37.6098050" lon="-4.1226750">
        <ele>488.4</ele>
        <time>2021-12-28T09:49:28Z</time>
      </trkpt>
      <trkpt lat="37.6098050" lon="-4.1226750">
        <ele>488.4</ele>
        <time>2021-12-28T09:49:29Z</time>
      </trkpt>
      <trkpt lat="37.6098050" lon="-4.1226750">
        <ele>488.4</ele>
        <time>2021-12-28T09:49:30Z</time>
      </trkpt>
      <trkpt lat="37.6098050" lon="-4.1226750">
        <ele>488.4</ele>
        <time>2021-12-28T09:49:31Z</time>
      </trkpt>
      <trkpt lat="37.6098050" lon="-4.1226750">
        <ele>487.2</ele>
        <time>2021-12-28T09:52:35Z</time>
      </trkpt>
      <trkpt lat="37.6098050" lon="-4.1226750">
        <ele>487.2</ele>
        <time>2021-12-28T09:52:36Z</time>
      </trkpt>
      <trkpt lat="37.6098050" lon="-4.1226750">
        <ele>487.2</ele>
        <time>2021-12-28T09:52:37Z</time>
      </trkpt>
      <trkpt lat="37.6098240" lon="-4.1228200">
        <ele>485.8</ele>
        <time>2021-12-28T09:53:05Z</time>
      </trkpt>
      <trkpt lat="37.6098050" lon="-4.1228330">
        <ele>485.6</ele>
        <time>2021-12-28T09:53:06Z</time>
      </trkpt>
      <trkpt lat="37.6097860" lon="-4.1228470">
        <ele>485.6</ele>
        <time>2021-12-28T09:53:07Z</time>
      </trkpt>
      <trkpt lat="37.6097860" lon="-4.1228470">
        <ele>485.4</ele>
        <time>2021-12-28T09:53:08Z</time>
      </trkpt>
      <trkpt lat="37.6097630" lon="-4.1228770">
        <ele>485.4</ele>
        <time>2021-12-28T09:53:09Z</time>
      </trkpt>
      <trkpt lat="37.6097630" lon="-4.1228770">
        <ele>485.2</ele>
        <time>2021-12-28T09:53:10Z</time>
      </trkpt>
      <trkpt lat="37.6097440" lon="-4.1229020">
        <ele>485.0</ele>
        <time>2021-12-28T09:53:11Z</time>
      </trkpt>
      <trkpt lat="37.6097440" lon="-4.1229020">
        <ele>485.0</ele>
        <time>2021-12-28T09:53:12Z</time>
      </trkpt>
      <trkpt lat="37.6097250" lon="-4.1229000">
        <ele>485.0</ele>
        <time>2021-12-28T09:53:13Z</time>
      </trkpt>
      <trkpt lat="37.6097250" lon="-4.1229000">
        <ele>485.0</ele>
        <time>2021-12-28T09:53:14Z</time>
      </trkpt>
      <trkpt lat="37.6097250" lon="-4.1229000">
        <ele>484.8</ele>
        <time>2021-12-28T09:53:15Z</time>
      </trkpt>
      <trkpt lat="37.6097250" lon="-4.1229000">
        <ele>484.8</ele>
        <time>2021-12-28T09:53:16Z</time>
      </trkpt>
      <trkpt lat="37.6097250" lon="-4.1229000">
        <ele>484.8</ele>
        <time>2021-12-28T09:53:17Z</time>
      </trkpt>
      <trkpt lat="37.6097250" lon="-4.1229000">
        <ele>485.0</ele>
        <time>2021-12-28T09:53:58Z</time>
      </trkpt>
      <trkpt lat="37.6097380" lon="-4.1229020">
        <ele>485.2</ele>
        <time>2021-12-28T09:53:59Z</time>
      </trkpt>
      <trkpt lat="37.6097380" lon="-4.1229020">
        <ele>485.2</ele>
        <time>2021-12-28T09:54:00Z</time>
      </trkpt>
      <trkpt lat="37.6097500" lon="-4.1228820">
        <ele>485.2</ele>
        <time>2021-12-28T09:54:01Z</time>
      </trkpt>
      <trkpt lat="37.6097500" lon="-4.1228820">
        <ele>485.2</ele>
        <time>2021-12-28T09:54:02Z</time>
      </trkpt>
      <trkpt lat="37.6097630" lon="-4.1228600">
        <ele>485.2</ele>
        <time>2021-12-28T09:54:03Z</time>
      </trkpt>
      <trkpt lat="37.6097630" lon="-4.1228600">
        <ele>485.0</ele>
        <time>2021-12-28T09:54:04Z</time>
      </trkpt>
      <trkpt lat="37.6097730" lon="-4.1228350">
        <ele>485.0</ele>
        <time>2021-12-28T09:54:05Z</time>
      </trkpt>
      <trkpt lat="37.6097730" lon="-4.1228350">
        <ele>485.0</ele>
        <time>2021-12-28T09:54:06Z</time>
      </trkpt>
      <trkpt lat="37.6097820" lon="-4.1228150">
        <ele>485.0</ele>
        <time>2021-12-28T09:54:07Z</time>
      </trkpt>
      <trkpt lat="37.6097820" lon="-4.1228150">
        <ele>485.0</ele>
        <time>2021-12-28T09:54:08Z</time>
      </trkpt>
      <trkpt lat="37.6097980" lon="-4.1227980">
        <ele>485.0</ele>
        <time>2021-12-28T09:54:09Z</time>
      </trkpt>
      <trkpt lat="37.6097980" lon="-4.1227980">
        <ele>485.0</ele>
        <time>2021-12-28T09:54:10Z</time>
      </trkpt>
      <trkpt lat="37.6097980" lon="-4.1227980">
        <ele>485.0</ele>
        <time>2021-12-28T09:54:11Z</time>
      </trkpt>
      <trkpt lat="37.6098210" lon="-4.1227880">
        <ele>485.0</ele>
        <time>2021-12-28T09:54:12Z</time>
      </trkpt>
      <trkpt lat="37.6098210" lon="-4.1227880">
        <ele>485.0</ele>
        <time>2021-12-28T09:54:13Z</time>
      </trkpt>
      <trkpt lat="37.6098210" lon="-4.1227880">
        <ele>485.0</ele>
        <time>2021-12-28T09:54:14Z</time>
      </trkpt>
      <trkpt lat="37.6098210" lon="-4.1227880">
        <ele>485.0</ele>
        <time>2021-12-28T09:54:15Z</time>
      </trkpt>
      <trkpt lat="37.6098210" lon="-4.1227880">
        <ele>488.0</ele>
        <time>2021-12-28T09:59:06Z</time>
      </trkpt>
      <trkpt lat="37.6098210" lon="-4.1227880">
        <ele>488.0</ele>
        <time>2021-12-28T09:59:07Z</time>
      </trkpt>
      <trkpt lat="37.6098210" lon="-4.1227880">
        <ele>488.2</ele>
        <time>2021-12-28T09:59:08Z</time>
      </trkpt>
      <trkpt lat="37.6098210" lon="-4.1227880">
        <ele>488.4</ele>
        <time>2021-12-28T09:59:17Z</time>
      </trkpt>
      <trkpt lat="37.6097180" lon="-4.1230440">
        <ele>488.2</ele>
        <time>2021-12-28T09:59:18Z</time>
      </trkpt>
      <trkpt lat="37.6097180" lon="-4.1230440">
        <ele>488.2</ele>
        <time>2021-12-28T09:59:19Z</time>
      </trkpt>
      <trkpt lat="37.6097120" lon="-4.1230730">
        <ele>488.2</ele>
        <time>2021-12-28T09:59:20Z</time>
      </trkpt>
      <trkpt lat="37.6097060" lon="-4.1230950">
        <ele>488.0</ele>
        <time>2021-12-28T09:59:21Z</time>
      </trkpt>
      <trkpt lat="37.6097060" lon="-4.1230950">
        <ele>488.0</ele>
        <time>2021-12-28T09:59:22Z</time>
      </trkpt>
      <trkpt lat="37.6097150" lon="-4.1231260">
        <ele>487.8</ele>
        <time>2021-12-28T09:59:23Z</time>
      </trkpt>
      <trkpt lat="37.6097150" lon="-4.1231260">
        <ele>487.8</ele>
        <time>2021-12-28T09:59:24Z</time>
      </trkpt>
      <trkpt lat="37.6097150" lon="-4.1231260">
        <ele>487.6</ele>
        <time>2021-12-28T09:59:25Z</time>
      </trkpt>
      <trkpt lat="37.6097150" lon="-4.1231260">
        <ele>487.6</ele>
        <time>2021-12-28T09:59:26Z</time>
      </trkpt>
      <trkpt lat="37.6097150" lon="-4.1231260">
        <ele>487.6</ele>
        <time>2021-12-28T09:59:27Z</time>
      </trkpt>
      <trkpt lat="37.6097150" lon="-4.1231260">
        <ele>487.6</ele>
        <time>2021-12-28T09:59:28Z</time>
      </trkpt>
      <trkpt lat="37.6096580" lon="-4.1232720">
        <ele>483.8</ele>
        <time>2021-12-28T10:00:14Z</time>
      </trkpt>
      <trkpt lat="37.6096510" lon="-4.1232950">
        <ele>483.8</ele>
        <time>2021-12-28T10:00:15Z</time>
      </trkpt>
      <trkpt lat="37.6096380" lon="-4.1233170">
        <ele>483.8</ele>
        <time>2021-12-28T10:00:16Z</time>
      </trkpt>
      <trkpt lat="37.6096220" lon="-4.1233380">
        <ele>483.6</ele>
        <time>2021-12-28T10:00:17Z</time>
      </trkpt>
      <trkpt lat="37.6096060" lon="-4.1233620">
        <ele>483.6</ele>
        <time>2021-12-28T10:00:18Z</time>
      </trkpt>
      <trkpt lat="37.6095940" lon="-4.1233880">
        <ele>483.8</ele>
        <time>2021-12-28T10:00:19Z</time>
      </trkpt>
      <trkpt lat="37.6095810" lon="-4.1234150">
        <ele>483.8</ele>
        <time>2021-12-28T10:00:20Z</time>
      </trkpt>
      <trkpt lat="37.6095650" lon="-4.1234450">
        <ele>483.8</ele>
        <time>2021-12-28T10:00:21Z</time>
      </trkpt>
      <trkpt lat="37.6095550" lon="-4.1234760">
        <ele>483.8</ele>
        <time>2021-12-28T10:00:22Z</time>
      </trkpt>
      <trkpt lat="37.6095420" lon="-4.1235060">
        <ele>483.8</ele>
        <time>2021-12-28T10:00:23Z</time>
      </trkpt>
      <trkpt lat="37.6095260" lon="-4.1235350">
        <ele>483.8</ele>
        <time>2021-12-28T10:00:24Z</time>
      </trkpt>
      <trkpt lat="37.6095140" lon="-4.1235670">
        <ele>483.8</ele>
        <time>2021-12-28T10:00:25Z</time>
      </trkpt>
      <trkpt lat="37.6094980" lon="-4.1235970">
        <ele>483.6</ele>
        <time>2021-12-28T10:00:26Z</time>
      </trkpt>
      <trkpt lat="37.6094820" lon="-4.1236280">
        <ele>483.8</ele>
        <time>2021-12-28T10:00:27Z</time>
      </trkpt>
      <trkpt lat="37.6094660" lon="-4.1236600">
        <ele>483.8</ele>
        <time>2021-12-28T10:00:28Z</time>
      </trkpt>
      <trkpt lat="37.6094560" lon="-4.1236940">
        <ele>483.6</ele>
        <time>2021-12-28T10:00:29Z</time>
      </trkpt>
      <trkpt lat="37.6094400" lon="-4.1237270">
        <ele>483.6</ele>
        <time>2021-12-28T10:00:30Z</time>
      </trkpt>
      <trkpt lat="37.6094240" lon="-4.1237550">
        <ele>483.6</ele>
        <time>2021-12-28T10:00:31Z</time>
      </trkpt>
      <trkpt lat="37.6094140" lon="-4.1237850">
        <ele>483.6</ele>
        <time>2021-12-28T10:00:32Z</time>
      </trkpt>
      <trkpt lat="37.6094020" lon="-4.1238100">
        <ele>483.6</ele>
        <time>2021-12-28T10:00:33Z</time>
      </trkpt>
      <trkpt lat="37.6093890" lon="-4.1238350">
        <ele>483.6</ele>
        <time>2021-12-28T10:00:34Z</time>
      </trkpt>
      <trkpt lat="37.6093790" lon="-4.1238580">
        <ele>483.6</ele>
        <time>2021-12-28T10:00:35Z</time>
      </trkpt>
      <trkpt lat="37.6093660" lon="-4.1238800">
        <ele>483.6</ele>
        <time>2021-12-28T10:00:36Z</time>
      </trkpt>
      <trkpt lat="37.6093570" lon="-4.1239030">
        <ele>483.6</ele>
        <time>2021-12-28T10:00:37Z</time>
      </trkpt>
      <trkpt lat="37.6093470" lon="-4.1239280">
        <ele>483.6</ele>
        <time>2021-12-28T10:00:38Z</time>
      </trkpt>
      <trkpt lat="37.6093470" lon="-4.1239280">
        <ele>483.8</ele>
        <time>2021-12-28T10:00:39Z</time>
      </trkpt>
      <trkpt lat="37.6093380" lon="-4.1239680">
        <ele>483.8</ele>
        <time>2021-12-28T10:00:40Z</time>
      </trkpt>
      <trkpt lat="37.6093380" lon="-4.1239680">
        <ele>483.8</ele>
        <time>2021-12-28T10:00:41Z</time>
      </trkpt>
      <trkpt lat="37.6093090" lon="-4.1240170">
        <ele>483.8</ele>
        <time>2021-12-28T10:00:42Z</time>
      </trkpt>
      <trkpt lat="37.6093020" lon="-4.1240280">
        <ele>484.0</ele>
        <time>2021-12-28T10:00:43Z</time>
      </trkpt>
      <trkpt lat="37.6092860" lon="-4.1240500">
        <ele>484.0</ele>
        <time>2021-12-28T10:00:44Z</time>
      </trkpt>
      <trkpt lat="37.6092800" lon="-4.1240740">
        <ele>484.2</ele>
        <time>2021-12-28T10:00:45Z</time>
      </trkpt>
      <trkpt lat="37.6092670" lon="-4.1240970">
        <ele>484.2</ele>
        <time>2021-12-28T10:00:46Z</time>
      </trkpt>
      <trkpt lat="37.6092580" lon="-4.1241200">
        <ele>484.2</ele>
        <time>2021-12-28T10:00:47Z</time>
      </trkpt>
      <trkpt lat="37.6092480" lon="-4.1241430">
        <ele>484.2</ele>
        <time>2021-12-28T10:00:48Z</time>
      </trkpt>
      <trkpt lat="37.6092380" lon="-4.1241650">
        <ele>484.2</ele>
        <time>2021-12-28T10:00:49Z</time>
      </trkpt>
      <trkpt lat="37.6092290" lon="-4.1241860">
        <ele>484.2</ele>
        <time>2021-12-28T10:00:50Z</time>
      </trkpt>
      <trkpt lat="37.6092160" lon="-4.1242080">
        <ele>484.2</ele>
        <time>2021-12-28T10:00:51Z</time>
      </trkpt>
      <trkpt lat="37.6092030" lon="-4.1242320">
        <ele>484.2</ele>
        <time>2021-12-28T10:00:52Z</time>
      </trkpt>
      <trkpt lat="37.6091970" lon="-4.1242530">
        <ele>484.2</ele>
        <time>2021-12-28T10:00:53Z</time>
      </trkpt>
      <trkpt lat="37.6091870" lon="-4.1242780">
        <ele>484.4</ele>
        <time>2021-12-28T10:00:54Z</time>
      </trkpt>
      <trkpt lat="37.6091780" lon="-4.1243030">
        <ele>484.4</ele>
        <time>2021-12-28T10:00:55Z</time>
      </trkpt>
      <trkpt lat="37.6091650" lon="-4.1243280">
        <ele>484.4</ele>
        <time>2021-12-28T10:00:56Z</time>
      </trkpt>
      <trkpt lat="37.6091490" lon="-4.1243550">
        <ele>484.4</ele>
        <time>2021-12-28T10:00:57Z</time>
      </trkpt>
      <trkpt lat="37.6091390" lon="-4.1243820">
        <ele>484.6</ele>
        <time>2021-12-28T10:00:58Z</time>
      </trkpt>
      <trkpt lat="37.6091230" lon="-4.1244080">
        <ele>484.6</ele>
        <time>2021-12-28T10:00:59Z</time>
      </trkpt>
      <trkpt lat="37.6091100" lon="-4.1244370">
        <ele>484.6</ele>
        <time>2021-12-28T10:01:00Z</time>
      </trkpt>
      <trkpt lat="37.6091010" lon="-4.1244650">
        <ele>484.8</ele>
        <time>2021-12-28T10:01:01Z</time>
      </trkpt>
      <trkpt lat="37.6090850" lon="-4.1244950">
        <ele>484.8</ele>
        <time>2021-12-28T10:01:02Z</time>
      </trkpt>
      <trkpt lat="37.6090690" lon="-4.1245260">
        <ele>484.8</ele>
        <time>2021-12-28T10:01:03Z</time>
      </trkpt>
      <trkpt lat="37.6090560" lon="-4.1245630">
        <ele>485.0</ele>
        <time>2021-12-28T10:01:04Z</time>
      </trkpt>
      <trkpt lat="37.6090300" lon="-4.1246030">
        <ele>485.0</ele>
        <time>2021-12-28T10:01:05Z</time>
      </trkpt>
      <trkpt lat="37.6090020" lon="-4.1246520">
        <ele>485.0</ele>
        <time>2021-12-28T10:01:06Z</time>
      </trkpt>
      <trkpt lat="37.6089790" lon="-4.1247070">
        <ele>485.0</ele>
        <time>2021-12-28T10:01:07Z</time>
      </trkpt>
      <trkpt lat="37.6089500" lon="-4.1247640">
        <ele>485.2</ele>
        <time>2021-12-28T10:01:08Z</time>
      </trkpt>
      <trkpt lat="37.6089250" lon="-4.1248250">
        <ele>485.2</ele>
        <time>2021-12-28T10:01:09Z</time>
      </trkpt>
      <trkpt lat="37.6088990" lon="-4.1248860">
        <ele>485.2</ele>
        <time>2021-12-28T10:01:10Z</time>
      </trkpt>
      <trkpt lat="37.6088670" lon="-4.1249550">
        <ele>485.2</ele>
        <time>2021-12-28T10:01:11Z</time>
      </trkpt>
      <trkpt lat="37.6088380" lon="-4.1250280">
        <ele>485.2</ele>
        <time>2021-12-28T10:01:12Z</time>
      </trkpt>
      <trkpt lat="37.6088030" lon="-4.1251050">
        <ele>485.0</ele>
        <time>2021-12-28T10:01:13Z</time>
      </trkpt>
      <trkpt lat="37.6087680" lon="-4.1251830">
        <ele>485.0</ele>
        <time>2021-12-28T10:01:14Z</time>
      </trkpt>
      <trkpt lat="37.6087390" lon="-4.1252560">
        <ele>485.0</ele>
        <time>2021-12-28T10:01:15Z</time>
      </trkpt>
      <trkpt lat="37.6087070" lon="-4.1253280">
        <ele>485.0</ele>
        <time>2021-12-28T10:01:16Z</time>
      </trkpt>
      <trkpt lat="37.6086780" lon="-4.1253930">
        <ele>485.0</ele>
        <time>2021-12-28T10:01:17Z</time>
      </trkpt>
      <trkpt lat="37.6086500" lon="-4.1254600">
        <ele>484.8</ele>
        <time>2021-12-28T10:01:18Z</time>
      </trkpt>
      <trkpt lat="37.6086240" lon="-4.1255220">
        <ele>484.8</ele>
        <time>2021-12-28T10:01:19Z</time>
      </trkpt>
      <trkpt lat="37.6085980" lon="-4.1255800">
        <ele>484.8</ele>
        <time>2021-12-28T10:01:20Z</time>
      </trkpt>
      <trkpt lat="37.6085730" lon="-4.1256350">
        <ele>484.8</ele>
        <time>2021-12-28T10:01:21Z</time>
      </trkpt>
      <trkpt lat="37.6085470" lon="-4.1256880">
        <ele>484.8</ele>
        <time>2021-12-28T10:01:22Z</time>
      </trkpt>
      <trkpt lat="37.6085250" lon="-4.1257420">
        <ele>484.6</ele>
        <time>2021-12-28T10:01:23Z</time>
      </trkpt>
      <trkpt lat="37.6085060" lon="-4.1257880">
        <ele>484.6</ele>
        <time>2021-12-28T10:01:24Z</time>
      </trkpt>
      <trkpt lat="37.6084830" lon="-4.1258350">
        <ele>484.6</ele>
        <time>2021-12-28T10:01:25Z</time>
      </trkpt>
      <trkpt lat="37.6084640" lon="-4.1258820">
        <ele>484.4</ele>
        <time>2021-12-28T10:01:26Z</time>
      </trkpt>
      <trkpt lat="37.6084450" lon="-4.1259260">
        <ele>484.2</ele>
        <time>2021-12-28T10:01:27Z</time>
      </trkpt>
      <trkpt lat="37.6084260" lon="-4.1259730">
        <ele>484.2</ele>
        <time>2021-12-28T10:01:28Z</time>
      </trkpt>
      <trkpt lat="37.6084030" lon="-4.1260200">
        <ele>484.0</ele>
        <time>2021-12-28T10:01:29Z</time>
      </trkpt>
      <trkpt lat="37.6083840" lon="-4.1260680">
        <ele>483.8</ele>
        <time>2021-12-28T10:01:30Z</time>
      </trkpt>
      <trkpt lat="37.6083650" lon="-4.1261170">
        <ele>483.8</ele>
        <time>2021-12-28T10:01:31Z</time>
      </trkpt>
      <trkpt lat="37.6083460" lon="-4.1261640">
        <ele>483.6</ele>
        <time>2021-12-28T10:01:32Z</time>
      </trkpt>
      <trkpt lat="37.6083170" lon="-4.1262100">
        <ele>483.6</ele>
        <time>2021-12-28T10:01:33Z</time>
      </trkpt>
      <trkpt lat="37.6083010" lon="-4.1262600">
        <ele>483.4</ele>
        <time>2021-12-28T10:01:34Z</time>
      </trkpt>
      <trkpt lat="37.6082820" lon="-4.1263100">
        <ele>483.4</ele>
        <time>2021-12-28T10:01:35Z</time>
      </trkpt>
      <trkpt lat="37.6082560" lon="-4.1263600">
        <ele>483.4</ele>
        <time>2021-12-28T10:01:36Z</time>
      </trkpt>
      <trkpt lat="37.6082340" lon="-4.1264080">
        <ele>483.2</ele>
        <time>2021-12-28T10:01:37Z</time>
      </trkpt>
      <trkpt lat="37.6082110" lon="-4.1264580">
        <ele>483.2</ele>
        <time>2021-12-28T10:01:38Z</time>
      </trkpt>
      <trkpt lat="37.6081920" lon="-4.1265070">
        <ele>483.2</ele>
        <time>2021-12-28T10:01:39Z</time>
      </trkpt>
      <trkpt lat="37.6081730" lon="-4.1265550">
        <ele>483.2</ele>
        <time>2021-12-28T10:01:40Z</time>
      </trkpt>
      <trkpt lat="37.6081540" lon="-4.1266000">
        <ele>483.2</ele>
        <time>2021-12-28T10:01:41Z</time>
      </trkpt>
      <trkpt lat="37.6081340" lon="-4.1266450">
        <ele>483.0</ele>
        <time>2021-12-28T10:01:42Z</time>
      </trkpt>
      <trkpt lat="37.6081150" lon="-4.1266920">
        <ele>483.0</ele>
        <time>2021-12-28T10:01:43Z</time>
      </trkpt>
      <trkpt lat="37.6080930" lon="-4.1267380">
        <ele>483.0</ele>
        <time>2021-12-28T10:01:44Z</time>
      </trkpt>
      <trkpt lat="37.6080740" lon="-4.1267850">
        <ele>483.0</ele>
        <time>2021-12-28T10:01:45Z</time>
      </trkpt>
      <trkpt lat="37.6080540" lon="-4.1268280">
        <ele>482.8</ele>
        <time>2021-12-28T10:01:46Z</time>
      </trkpt>
      <trkpt lat="37.6080320" lon="-4.1268700">
        <ele>482.8</ele>
        <time>2021-12-28T10:01:47Z</time>
      </trkpt>
      <trkpt lat="37.6080130" lon="-4.1269100">
        <ele>482.8</ele>
        <time>2021-12-28T10:01:48Z</time>
      </trkpt>
      <trkpt lat="37.6079970" lon="-4.1269520">
        <ele>482.8</ele>
        <time>2021-12-28T10:01:49Z</time>
      </trkpt>
      <trkpt lat="37.6079780" lon="-4.1269920">
        <ele>482.8</ele>
        <time>2021-12-28T10:01:50Z</time>
      </trkpt>
      <trkpt lat="37.6079650" lon="-4.1270320">
        <ele>482.8</ele>
        <time>2021-12-28T10:01:51Z</time>
      </trkpt>
      <trkpt lat="37.6079460" lon="-4.1270750">
        <ele>482.8</ele>
        <time>2021-12-28T10:01:52Z</time>
      </trkpt>
      <trkpt lat="37.6079260" lon="-4.1271180">
        <ele>482.8</ele>
        <time>2021-12-28T10:01:53Z</time>
      </trkpt>
      <trkpt lat="37.6079070" lon="-4.1271600">
        <ele>482.8</ele>
        <time>2021-12-28T10:01:54Z</time>
      </trkpt>
      <trkpt lat="37.6078880" lon="-4.1272040">
        <ele>482.8</ele>
        <time>2021-12-28T10:01:55Z</time>
      </trkpt>
      <trkpt lat="37.6078690" lon="-4.1272440">
        <ele>482.8</ele>
        <time>2021-12-28T10:01:56Z</time>
      </trkpt>
      <trkpt lat="37.6078460" lon="-4.1272850">
        <ele>482.8</ele>
        <time>2021-12-28T10:01:57Z</time>
      </trkpt>
      <trkpt lat="37.6078270" lon="-4.1273250">
        <ele>482.8</ele>
        <time>2021-12-28T10:01:58Z</time>
      </trkpt>
      <trkpt lat="37.6078080" lon="-4.1273650">
        <ele>482.8</ele>
        <time>2021-12-28T10:01:59Z</time>
      </trkpt>
      <trkpt lat="37.6077890" lon="-4.1274050">
        <ele>482.6</ele>
        <time>2021-12-28T10:02:00Z</time>
      </trkpt>
      <trkpt lat="37.6077730" lon="-4.1274450">
        <ele>482.6</ele>
        <time>2021-12-28T10:02:01Z</time>
      </trkpt>
      <trkpt lat="37.6077540" lon="-4.1274820">
        <ele>482.6</ele>
        <time>2021-12-28T10:02:02Z</time>
      </trkpt>
      <trkpt lat="37.6077340" lon="-4.1275200">
        <ele>482.4</ele>
        <time>2021-12-28T10:02:03Z</time>
      </trkpt>
      <trkpt lat="37.6077120" lon="-4.1275580">
        <ele>482.2</ele>
        <time>2021-12-28T10:02:04Z</time>
      </trkpt>
      <trkpt lat="37.6076900" lon="-4.1276000">
        <ele>482.2</ele>
        <time>2021-12-28T10:02:05Z</time>
      </trkpt>
      <trkpt lat="37.6076670" lon="-4.1276420">
        <ele>482.0</ele>
        <time>2021-12-28T10:02:06Z</time>
      </trkpt>
      <trkpt lat="37.6076420" lon="-4.1276830">
        <ele>482.0</ele>
        <time>2021-12-28T10:02:07Z</time>
      </trkpt>
      <trkpt lat="37.6076190" lon="-4.1277250">
        <ele>481.8</ele>
        <time>2021-12-28T10:02:08Z</time>
      </trkpt>
      <trkpt lat="37.6075940" lon="-4.1277680">
        <ele>481.8</ele>
        <time>2021-12-28T10:02:09Z</time>
      </trkpt>
      <trkpt lat="37.6075710" lon="-4.1278080">
        <ele>481.8</ele>
        <time>2021-12-28T10:02:10Z</time>
      </trkpt>
      <trkpt lat="37.6075420" lon="-4.1278470">
        <ele>481.8</ele>
        <time>2021-12-28T10:02:11Z</time>
      </trkpt>
      <trkpt lat="37.6075200" lon="-4.1278820">
        <ele>481.8</ele>
        <time>2021-12-28T10:02:12Z</time>
      </trkpt>
      <trkpt lat="37.6074940" lon="-4.1279180">
        <ele>481.8</ele>
        <time>2021-12-28T10:02:13Z</time>
      </trkpt>
      <trkpt lat="37.6074720" lon="-4.1279540">
        <ele>481.8</ele>
        <time>2021-12-28T10:02:14Z</time>
      </trkpt>
      <trkpt lat="37.6074500" lon="-4.1279870">
        <ele>481.8</ele>
        <time>2021-12-28T10:02:15Z</time>
      </trkpt>
      <trkpt lat="37.6074270" lon="-4.1280200">
        <ele>481.8</ele>
        <time>2021-12-28T10:02:16Z</time>
      </trkpt>
      <trkpt lat="37.6074020" lon="-4.1280530">
        <ele>481.8</ele>
        <time>2021-12-28T10:02:17Z</time>
      </trkpt>
      <trkpt lat="37.6073790" lon="-4.1280860">
        <ele>481.8</ele>
        <time>2021-12-28T10:02:18Z</time>
      </trkpt>
      <trkpt lat="37.6073570" lon="-4.1281180">
        <ele>481.6</ele>
        <time>2021-12-28T10:02:19Z</time>
      </trkpt>
      <trkpt lat="37.6073340" lon="-4.1281520">
        <ele>481.4</ele>
        <time>2021-12-28T10:02:20Z</time>
      </trkpt>
      <trkpt lat="37.6073150" lon="-4.1281830">
        <ele>481.2</ele>
        <time>2021-12-28T10:02:21Z</time>
      </trkpt>
      <trkpt lat="37.6072930" lon="-4.1282120">
        <ele>481.2</ele>
        <time>2021-12-28T10:02:22Z</time>
      </trkpt>
      <trkpt lat="37.6072770" lon="-4.1282380">
        <ele>481.0</ele>
        <time>2021-12-28T10:02:23Z</time>
      </trkpt>
      <trkpt lat="37.6072610" lon="-4.1282570">
        <ele>481.0</ele>
        <time>2021-12-28T10:02:24Z</time>
      </trkpt>
      <trkpt lat="37.6072610" lon="-4.1282570">
        <ele>480.8</ele>
        <time>2021-12-28T10:02:25Z</time>
      </trkpt>
      <trkpt lat="37.6072450" lon="-4.1282740">
        <ele>480.6</ele>
        <time>2021-12-28T10:02:26Z</time>
      </trkpt>
      <trkpt lat="37.6072450" lon="-4.1282740">
        <ele>480.6</ele>
        <time>2021-12-28T10:02:27Z</time>
      </trkpt>
      <trkpt lat="37.6072290" lon="-4.1282850">
        <ele>480.6</ele>
        <time>2021-12-28T10:02:28Z</time>
      </trkpt>
      <trkpt lat="37.6072290" lon="-4.1282850">
        <ele>480.6</ele>
        <time>2021-12-28T10:02:29Z</time>
      </trkpt>
      <trkpt lat="37.6072130" lon="-4.1282980">
        <ele>480.6</ele>
        <time>2021-12-28T10:02:30Z</time>
      </trkpt>
      <trkpt lat="37.6072130" lon="-4.1282980">
        <ele>480.6</ele>
        <time>2021-12-28T10:02:31Z</time>
      </trkpt>
      <trkpt lat="37.6072130" lon="-4.1282980">
        <ele>480.6</ele>
        <time>2021-12-28T10:02:32Z</time>
      </trkpt>
      <trkpt lat="37.6071940" lon="-4.1283180">
        <ele>480.6</ele>
        <time>2021-12-28T10:02:33Z</time>
      </trkpt>
      <trkpt lat="37.6071940" lon="-4.1283180">
        <ele>480.8</ele>
        <time>2021-12-28T10:02:34Z</time>
      </trkpt>
      <trkpt lat="37.6071780" lon="-4.1283400">
        <ele>480.8</ele>
        <time>2021-12-28T10:02:35Z</time>
      </trkpt>
      <trkpt lat="37.6071780" lon="-4.1283400">
        <ele>481.0</ele>
        <time>2021-12-28T10:02:36Z</time>
      </trkpt>
      <trkpt lat="37.6071550" lon="-4.1283680">
        <ele>481.0</ele>
        <time>2021-12-28T10:02:37Z</time>
      </trkpt>
      <trkpt lat="37.6071330" lon="-4.1283900">
        <ele>481.0</ele>
        <time>2021-12-28T10:02:38Z</time>
      </trkpt>
      <trkpt lat="37.6071100" lon="-4.1284200">
        <ele>481.0</ele>
        <time>2021-12-28T10:02:39Z</time>
      </trkpt>
      <trkpt lat="37.6070780" lon="-4.1284560">
        <ele>481.0</ele>
        <time>2021-12-28T10:02:40Z</time>
      </trkpt>
      <trkpt lat="37.6070430" lon="-4.1284900">
        <ele>481.0</ele>
        <time>2021-12-28T10:02:41Z</time>
      </trkpt>
      <trkpt lat="37.6070020" lon="-4.1285250">
        <ele>481.0</ele>
        <time>2021-12-28T10:02:42Z</time>
      </trkpt>
      <trkpt lat="37.6069600" lon="-4.1285640">
        <ele>480.8</ele>
        <time>2021-12-28T10:02:43Z</time>
      </trkpt>
      <trkpt lat="37.6069180" lon="-4.1286040">
        <ele>480.8</ele>
        <time>2021-12-28T10:02:44Z</time>
      </trkpt>
      <trkpt lat="37.6068800" lon="-4.1286420">
        <ele>480.6</ele>
        <time>2021-12-28T10:02:45Z</time>
      </trkpt>
      <trkpt lat="37.6068420" lon="-4.1286820">
        <ele>480.6</ele>
        <time>2021-12-28T10:02:46Z</time>
      </trkpt>
      <trkpt lat="37.6068060" lon="-4.1287180">
        <ele>480.6</ele>
        <time>2021-12-28T10:02:47Z</time>
      </trkpt>
      <trkpt lat="37.6067680" lon="-4.1287520">
        <ele>480.4</ele>
        <time>2021-12-28T10:02:48Z</time>
      </trkpt>
      <trkpt lat="37.6067330" lon="-4.1287860">
        <ele>480.4</ele>
        <time>2021-12-28T10:02:49Z</time>
      </trkpt>
      <trkpt lat="37.6066940" lon="-4.1288180">
        <ele>480.4</ele>
        <time>2021-12-28T10:02:50Z</time>
      </trkpt>
      <trkpt lat="37.6066560" lon="-4.1288500">
        <ele>480.6</ele>
        <time>2021-12-28T10:02:51Z</time>
      </trkpt>
      <trkpt lat="37.6066180" lon="-4.1288830">
        <ele>480.6</ele>
        <time>2021-12-28T10:02:52Z</time>
      </trkpt>
      <trkpt lat="37.6065790" lon="-4.1289140">
        <ele>480.6</ele>
        <time>2021-12-28T10:02:53Z</time>
      </trkpt>
      <trkpt lat="37.6065410" lon="-4.1289420">
        <ele>480.6</ele>
        <time>2021-12-28T10:02:54Z</time>
      </trkpt>
      <trkpt lat="37.6065020" lon="-4.1289680">
        <ele>480.4</ele>
        <time>2021-12-28T10:02:55Z</time>
      </trkpt>
      <trkpt lat="37.6064670" lon="-4.1289940">
        <ele>480.4</ele>
        <time>2021-12-28T10:02:56Z</time>
      </trkpt>
      <trkpt lat="37.6064290" lon="-4.1290180">
        <ele>480.4</ele>
        <time>2021-12-28T10:02:57Z</time>
      </trkpt>
      <trkpt lat="37.6063900" lon="-4.1290400">
        <ele>480.4</ele>
        <time>2021-12-28T10:02:58Z</time>
      </trkpt>
      <trkpt lat="37.6063580" lon="-4.1290650">
        <ele>480.4</ele>
        <time>2021-12-28T10:02:59Z</time>
      </trkpt>
      <trkpt lat="37.6063200" lon="-4.1290880">
        <ele>480.4</ele>
        <time>2021-12-28T10:03:00Z</time>
      </trkpt>
      <trkpt lat="37.6062850" lon="-4.1291120">
        <ele>480.4</ele>
        <time>2021-12-28T10:03:01Z</time>
      </trkpt>
      <trkpt lat="37.6062500" lon="-4.1291330">
        <ele>480.4</ele>
        <time>2021-12-28T10:03:02Z</time>
      </trkpt>
      <trkpt lat="37.6062180" lon="-4.1291560">
        <ele>480.4</ele>
        <time>2021-12-28T10:03:03Z</time>
      </trkpt>
      <trkpt lat="37.6061820" lon="-4.1291800">
        <ele>480.2</ele>
        <time>2021-12-28T10:03:04Z</time>
      </trkpt>
      <trkpt lat="37.6061470" lon="-4.1292020">
        <ele>480.2</ele>
        <time>2021-12-28T10:03:05Z</time>
      </trkpt>
      <trkpt lat="37.6061120" lon="-4.1292250">
        <ele>480.0</ele>
        <time>2021-12-28T10:03:06Z</time>
      </trkpt>
      <trkpt lat="37.6060800" lon="-4.1292470">
        <ele>480.0</ele>
        <time>2021-12-28T10:03:07Z</time>
      </trkpt>
      <trkpt lat="37.6060450" lon="-4.1292650">
        <ele>480.0</ele>
        <time>2021-12-28T10:03:08Z</time>
      </trkpt>
      <trkpt lat="37.6060060" lon="-4.1292870">
        <ele>480.0</ele>
        <time>2021-12-28T10:03:09Z</time>
      </trkpt>
      <trkpt lat="37.6059710" lon="-4.1293080">
        <ele>480.0</ele>
        <time>2021-12-28T10:03:10Z</time>
      </trkpt>
      <trkpt lat="37.6059420" lon="-4.1293280">
        <ele>480.0</ele>
        <time>2021-12-28T10:03:11Z</time>
      </trkpt>
      <trkpt lat="37.6059070" lon="-4.1293520">
        <ele>480.0</ele>
        <time>2021-12-28T10:03:12Z</time>
      </trkpt>
      <trkpt lat="37.6058720" lon="-4.1293740">
        <ele>480.0</ele>
        <time>2021-12-28T10:03:13Z</time>
      </trkpt>
      <trkpt lat="37.6058460" lon="-4.1293950">
        <ele>480.0</ele>
        <time>2021-12-28T10:03:14Z</time>
      </trkpt>
      <trkpt lat="37.6058110" lon="-4.1294120">
        <ele>480.0</ele>
        <time>2021-12-28T10:03:15Z</time>
      </trkpt>
      <trkpt lat="37.6057820" lon="-4.1294300">
        <ele>480.0</ele>
        <time>2021-12-28T10:03:16Z</time>
      </trkpt>
      <trkpt lat="37.6057470" lon="-4.1294500">
        <ele>479.8</ele>
        <time>2021-12-28T10:03:17Z</time>
      </trkpt>
      <trkpt lat="37.6057150" lon="-4.1294700">
        <ele>479.8</ele>
        <time>2021-12-28T10:03:18Z</time>
      </trkpt>
      <trkpt lat="37.6056860" lon="-4.1294920">
        <ele>479.8</ele>
        <time>2021-12-28T10:03:19Z</time>
      </trkpt>
      <trkpt lat="37.6056510" lon="-4.1295150">
        <ele>479.6</ele>
        <time>2021-12-28T10:03:20Z</time>
      </trkpt>
      <trkpt lat="37.6056160" lon="-4.1295400">
        <ele>479.6</ele>
        <time>2021-12-28T10:03:21Z</time>
      </trkpt>
      <trkpt lat="37.6055840" lon="-4.1295650">
        <ele>479.4</ele>
        <time>2021-12-28T10:03:22Z</time>
      </trkpt>
      <trkpt lat="37.6055490" lon="-4.1295880">
        <ele>479.4</ele>
        <time>2021-12-28T10:03:23Z</time>
      </trkpt>
      <trkpt lat="37.6055140" lon="-4.1296100">
        <ele>479.2</ele>
        <time>2021-12-28T10:03:24Z</time>
      </trkpt>
      <trkpt lat="37.6054850" lon="-4.1296320">
        <ele>479.0</ele>
        <time>2021-12-28T10:03:25Z</time>
      </trkpt>
      <trkpt lat="37.6054530" lon="-4.1296540">
        <ele>479.0</ele>
        <time>2021-12-28T10:03:26Z</time>
      </trkpt>
      <trkpt lat="37.6054180" lon="-4.1296740">
        <ele>479.0</ele>
        <time>2021-12-28T10:03:27Z</time>
      </trkpt>
      <trkpt lat="37.6053890" lon="-4.1296950">
        <ele>478.8</ele>
        <time>2021-12-28T10:03:28Z</time>
      </trkpt>
      <trkpt lat="37.6053570" lon="-4.1297200">
        <ele>478.8</ele>
        <time>2021-12-28T10:03:29Z</time>
      </trkpt>
      <trkpt lat="37.6053280" lon="-4.1297450">
        <ele>478.8</ele>
        <time>2021-12-28T10:03:30Z</time>
      </trkpt>
      <trkpt lat="37.6052960" lon="-4.1297660">
        <ele>478.6</ele>
        <time>2021-12-28T10:03:31Z</time>
      </trkpt>
      <trkpt lat="37.6052670" lon="-4.1297860">
        <ele>478.4</ele>
        <time>2021-12-28T10:03:32Z</time>
      </trkpt>
      <trkpt lat="37.6052350" lon="-4.1298100">
        <ele>478.4</ele>
        <time>2021-12-28T10:03:33Z</time>
      </trkpt>
      <trkpt lat="37.6052060" lon="-4.1298330">
        <ele>478.2</ele>
        <time>2021-12-28T10:03:34Z</time>
      </trkpt>
      <trkpt lat="37.6051740" lon="-4.1298550">
        <ele>478.2</ele>
        <time>2021-12-28T10:03:35Z</time>
      </trkpt>
      <trkpt lat="37.6051490" lon="-4.1298780">
        <ele>478.2</ele>
        <time>2021-12-28T10:03:36Z</time>
      </trkpt>
      <trkpt lat="37.6051170" lon="-4.1299020">
        <ele>478.0</ele>
        <time>2021-12-28T10:03:37Z</time>
      </trkpt>
      <trkpt lat="37.6050910" lon="-4.1299250">
        <ele>478.0</ele>
        <time>2021-12-28T10:03:38Z</time>
      </trkpt>
      <trkpt lat="37.6050660" lon="-4.1299520">
        <ele>478.0</ele>
        <time>2021-12-28T10:03:39Z</time>
      </trkpt>
      <trkpt lat="37.6050340" lon="-4.1299770">
        <ele>477.8</ele>
        <time>2021-12-28T10:03:40Z</time>
      </trkpt>
      <trkpt lat="37.6050110" lon="-4.1300040">
        <ele>477.8</ele>
        <time>2021-12-28T10:03:41Z</time>
      </trkpt>
      <trkpt lat="37.6049860" lon="-4.1300280">
        <ele>477.8</ele>
        <time>2021-12-28T10:03:42Z</time>
      </trkpt>
      <trkpt lat="37.6049660" lon="-4.1300520">
        <ele>477.8</ele>
        <time>2021-12-28T10:03:43Z</time>
      </trkpt>
      <trkpt lat="37.6049500" lon="-4.1300670">
        <ele>477.6</ele>
        <time>2021-12-28T10:03:44Z</time>
      </trkpt>
      <trkpt lat="37.6049500" lon="-4.1300670">
        <ele>477.6</ele>
        <time>2021-12-28T10:03:45Z</time>
      </trkpt>
      <trkpt lat="37.6049500" lon="-4.1300670">
        <ele>477.6</ele>
        <time>2021-12-28T10:03:46Z</time>
      </trkpt>
      <trkpt lat="37.6049500" lon="-4.1300670">
        <ele>477.4</ele>
        <time>2021-12-28T10:03:47Z</time>
      </trkpt>
      <trkpt lat="37.6049500" lon="-4.1300670">
        <ele>477.4</ele>
        <time>2021-12-28T10:03:48Z</time>
      </trkpt>
      <trkpt lat="37.6049500" lon="-4.1300670">
        <ele>477.2</ele>
        <time>2021-12-28T10:03:49Z</time>
      </trkpt>
      <trkpt lat="37.6048610" lon="-4.1301520">
        <ele>475.4</ele>
        <time>2021-12-28T10:04:13Z</time>
      </trkpt>
      <trkpt lat="37.6048420" lon="-4.1301720">
        <ele>475.4</ele>
        <time>2021-12-28T10:04:14Z</time>
      </trkpt>
      <trkpt lat="37.6048190" lon="-4.1301950">
        <ele>475.2</ele>
        <time>2021-12-28T10:04:15Z</time>
      </trkpt>
      <trkpt lat="37.6047970" lon="-4.1302200">
        <ele>475.2</ele>
        <time>2021-12-28T10:04:16Z</time>
      </trkpt>
      <trkpt lat="37.6047710" lon="-4.1302500">
        <ele>475.0</ele>
        <time>2021-12-28T10:04:17Z</time>
      </trkpt>
      <trkpt lat="37.6047390" lon="-4.1302780">
        <ele>475.0</ele>
        <time>2021-12-28T10:04:18Z</time>
      </trkpt>
      <trkpt lat="37.6047100" lon="-4.1303100">
        <ele>475.2</ele>
        <time>2021-12-28T10:04:19Z</time>
      </trkpt>
      <trkpt lat="37.6046780" lon="-4.1303440">
        <ele>475.2</ele>
        <time>2021-12-28T10:04:20Z</time>
      </trkpt>
      <trkpt lat="37.6046500" lon="-4.1303800">
        <ele>475.2</ele>
        <time>2021-12-28T10:04:21Z</time>
      </trkpt>
      <trkpt lat="37.6046180" lon="-4.1304200">
        <ele>475.2</ele>
        <time>2021-12-28T10:04:22Z</time>
      </trkpt>
      <trkpt lat="37.6045890" lon="-4.1304620">
        <ele>475.2</ele>
        <time>2021-12-28T10:04:23Z</time>
      </trkpt>
      <trkpt lat="37.6045540" lon="-4.1305030">
        <ele>475.4</ele>
        <time>2021-12-28T10:04:24Z</time>
      </trkpt>
      <trkpt lat="37.6045220" lon="-4.1305480">
        <ele>475.4</ele>
        <time>2021-12-28T10:04:25Z</time>
      </trkpt>
      <trkpt lat="37.6044900" lon="-4.1305950">
        <ele>475.2</ele>
        <time>2021-12-28T10:04:26Z</time>
      </trkpt>
      <trkpt lat="37.6044580" lon="-4.1306430">
        <ele>475.2</ele>
        <time>2021-12-28T10:04:27Z</time>
      </trkpt>
      <trkpt lat="37.6044220" lon="-4.1306940">
        <ele>475.2</ele>
        <time>2021-12-28T10:04:28Z</time>
      </trkpt>
      <trkpt lat="37.6043900" lon="-4.1307450">
        <ele>475.0</ele>
        <time>2021-12-28T10:04:29Z</time>
      </trkpt>
      <trkpt lat="37.6043520" lon="-4.1307950">
        <ele>475.0</ele>
        <time>2021-12-28T10:04:30Z</time>
      </trkpt>
      <trkpt lat="37.6043170" lon="-4.1308450">
        <ele>475.0</ele>
        <time>2021-12-28T10:04:31Z</time>
      </trkpt>
      <trkpt lat="37.6042850" lon="-4.1309000">
        <ele>475.0</ele>
        <time>2021-12-28T10:04:32Z</time>
      </trkpt>
      <trkpt lat="37.6042560" lon="-4.1309550">
        <ele>475.0</ele>
        <time>2021-12-28T10:04:33Z</time>
      </trkpt>
      <trkpt lat="37.6042240" lon="-4.1310100">
        <ele>474.8</ele>
        <time>2021-12-28T10:04:34Z</time>
      </trkpt>
      <trkpt lat="37.6041920" lon="-4.1310650">
        <ele>474.8</ele>
        <time>2021-12-28T10:04:35Z</time>
      </trkpt>
      <trkpt lat="37.6041600" lon="-4.1311180">
        <ele>474.8</ele>
        <time>2021-12-28T10:04:36Z</time>
      </trkpt>
      <trkpt lat="37.6041340" lon="-4.1311700">
        <ele>474.8</ele>
        <time>2021-12-28T10:04:37Z</time>
      </trkpt>
      <trkpt lat="37.6041020" lon="-4.1312250">
        <ele>474.8</ele>
        <time>2021-12-28T10:04:38Z</time>
      </trkpt>
      <trkpt lat="37.6040800" lon="-4.1312820">
        <ele>474.8</ele>
        <time>2021-12-28T10:04:39Z</time>
      </trkpt>
      <trkpt lat="37.6040540" lon="-4.1313400">
        <ele>474.8</ele>
        <time>2021-12-28T10:04:40Z</time>
      </trkpt>
      <trkpt lat="37.6040220" lon="-4.1314000">
        <ele>474.6</ele>
        <time>2021-12-28T10:04:41Z</time>
      </trkpt>
      <trkpt lat="37.6039970" lon="-4.1314600">
        <ele>474.6</ele>
        <time>2021-12-28T10:04:42Z</time>
      </trkpt>
      <trkpt lat="37.6039650" lon="-4.1315220">
        <ele>474.4</ele>
        <time>2021-12-28T10:04:43Z</time>
      </trkpt>
      <trkpt lat="37.6039360" lon="-4.1315850">
        <ele>474.4</ele>
        <time>2021-12-28T10:04:44Z</time>
      </trkpt>
      <trkpt lat="37.6039070" lon="-4.1316480">
        <ele>474.4</ele>
        <time>2021-12-28T10:04:45Z</time>
      </trkpt>
      <trkpt lat="37.6038820" lon="-4.1317130">
        <ele>474.4</ele>
        <time>2021-12-28T10:04:46Z</time>
      </trkpt>
      <trkpt lat="37.6038560" lon="-4.1317800">
        <ele>474.4</ele>
        <time>2021-12-28T10:04:47Z</time>
      </trkpt>
      <trkpt lat="37.6038270" lon="-4.1318480">
        <ele>474.4</ele>
        <time>2021-12-28T10:04:48Z</time>
      </trkpt>
      <trkpt lat="37.6038020" lon="-4.1319160">
        <ele>474.4</ele>
        <time>2021-12-28T10:04:49Z</time>
      </trkpt>
      <trkpt lat="37.6037760" lon="-4.1319850">
        <ele>474.4</ele>
        <time>2021-12-28T10:04:50Z</time>
      </trkpt>
      <trkpt lat="37.6037540" lon="-4.1320520">
        <ele>474.4</ele>
        <time>2021-12-28T10:04:51Z</time>
      </trkpt>
      <trkpt lat="37.6037220" lon="-4.1321200">
        <ele>474.4</ele>
        <time>2021-12-28T10:04:52Z</time>
      </trkpt>
      <trkpt lat="37.6036960" lon="-4.1321900">
        <ele>474.4</ele>
        <time>2021-12-28T10:04:53Z</time>
      </trkpt>
      <trkpt lat="37.6036670" lon="-4.1322580">
        <ele>474.4</ele>
        <time>2021-12-28T10:04:54Z</time>
      </trkpt>
      <trkpt lat="37.6036420" lon="-4.1323280">
        <ele>474.2</ele>
        <time>2021-12-28T10:04:55Z</time>
      </trkpt>
      <trkpt lat="37.6036160" lon="-4.1324000">
        <ele>474.2</ele>
        <time>2021-12-28T10:04:56Z</time>
      </trkpt>
      <trkpt lat="37.6035870" lon="-4.1324720">
        <ele>474.2</ele>
        <time>2021-12-28T10:04:57Z</time>
      </trkpt>
      <trkpt lat="37.6035620" lon="-4.1325440">
        <ele>474.0</ele>
        <time>2021-12-28T10:04:58Z</time>
      </trkpt>
      <trkpt lat="37.6035300" lon="-4.1326150">
        <ele>474.0</ele>
        <time>2021-12-28T10:04:59Z</time>
      </trkpt>
      <trkpt lat="37.6035040" lon="-4.1326850">
        <ele>473.8</ele>
        <time>2021-12-28T10:05:00Z</time>
      </trkpt>
      <trkpt lat="37.6034780" lon="-4.1327580">
        <ele>473.8</ele>
        <time>2021-12-28T10:05:01Z</time>
      </trkpt>
      <trkpt lat="37.6034560" lon="-4.1328300">
        <ele>473.8</ele>
        <time>2021-12-28T10:05:02Z</time>
      </trkpt>
      <trkpt lat="37.6034240" lon="-4.1329000">
        <ele>473.6</ele>
        <time>2021-12-28T10:05:03Z</time>
      </trkpt>
      <trkpt lat="37.6033920" lon="-4.1329660">
        <ele>473.6</ele>
        <time>2021-12-28T10:05:04Z</time>
      </trkpt>
      <trkpt lat="37.6033660" lon="-4.1330320">
        <ele>473.6</ele>
        <time>2021-12-28T10:05:05Z</time>
      </trkpt>
      <trkpt lat="37.6033410" lon="-4.1330950">
        <ele>473.6</ele>
        <time>2021-12-28T10:05:06Z</time>
      </trkpt>
      <trkpt lat="37.6033180" lon="-4.1331600">
        <ele>473.6</ele>
        <time>2021-12-28T10:05:07Z</time>
      </trkpt>
      <trkpt lat="37.6032900" lon="-4.1332250">
        <ele>473.6</ele>
        <time>2021-12-28T10:05:08Z</time>
      </trkpt>
      <trkpt lat="37.6032670" lon="-4.1332900">
        <ele>473.4</ele>
        <time>2021-12-28T10:05:09Z</time>
      </trkpt>
      <trkpt lat="37.6032420" lon="-4.1333530">
        <ele>473.4</ele>
        <time>2021-12-28T10:05:10Z</time>
      </trkpt>
      <trkpt lat="37.6032190" lon="-4.1334180">
        <ele>473.2</ele>
        <time>2021-12-28T10:05:11Z</time>
      </trkpt>
      <trkpt lat="37.6031900" lon="-4.1334800">
        <ele>473.2</ele>
        <time>2021-12-28T10:05:12Z</time>
      </trkpt>
      <trkpt lat="37.6031680" lon="-4.1335370">
        <ele>473.0</ele>
        <time>2021-12-28T10:05:13Z</time>
      </trkpt>
      <trkpt lat="37.6031490" lon="-4.1335900">
        <ele>473.0</ele>
        <time>2021-12-28T10:05:14Z</time>
      </trkpt>
      <trkpt lat="37.6031300" lon="-4.1336420">
        <ele>473.0</ele>
        <time>2021-12-28T10:05:15Z</time>
      </trkpt>
      <trkpt lat="37.6031100" lon="-4.1336900">
        <ele>473.0</ele>
        <time>2021-12-28T10:05:16Z</time>
      </trkpt>
      <trkpt lat="37.6030910" lon="-4.1337380">
        <ele>472.8</ele>
        <time>2021-12-28T10:05:17Z</time>
      </trkpt>
      <trkpt lat="37.6030780" lon="-4.1337830">
        <ele>472.8</ele>
        <time>2021-12-28T10:05:18Z</time>
      </trkpt>
      <trkpt lat="37.6030620" lon="-4.1338270">
        <ele>472.6</ele>
        <time>2021-12-28T10:05:19Z</time>
      </trkpt>
      <trkpt lat="37.6030460" lon="-4.1338720">
        <ele>472.6</ele>
        <time>2021-12-28T10:05:20Z</time>
      </trkpt>
      <trkpt lat="37.6030270" lon="-4.1339180">
        <ele>472.6</ele>
        <time>2021-12-28T10:05:21Z</time>
      </trkpt>
      <trkpt lat="37.6030080" lon="-4.1339660">
        <ele>472.4</ele>
        <time>2021-12-28T10:05:22Z</time>
      </trkpt>
      <trkpt lat="37.6029890" lon="-4.1340150">
        <ele>472.4</ele>
        <time>2021-12-28T10:05:23Z</time>
      </trkpt>
      <trkpt lat="37.6029700" lon="-4.1340600">
        <ele>472.4</ele>
        <time>2021-12-28T10:05:24Z</time>
      </trkpt>
      <trkpt lat="37.6029470" lon="-4.1341070">
        <ele>472.4</ele>
        <time>2021-12-28T10:05:25Z</time>
      </trkpt>
      <trkpt lat="37.6029280" lon="-4.1341550">
        <ele>472.4</ele>
        <time>2021-12-28T10:05:26Z</time>
      </trkpt>
      <trkpt lat="37.6029120" lon="-4.1342070">
        <ele>472.4</ele>
        <time>2021-12-28T10:05:27Z</time>
      </trkpt>
      <trkpt lat="37.6028900" lon="-4.1342570">
        <ele>472.2</ele>
        <time>2021-12-28T10:05:28Z</time>
      </trkpt>
      <trkpt lat="37.6028670" lon="-4.1343070">
        <ele>472.2</ele>
        <time>2021-12-28T10:05:29Z</time>
      </trkpt>
      <trkpt lat="37.6028480" lon="-4.1343580">
        <ele>472.0</ele>
        <time>2021-12-28T10:05:30Z</time>
      </trkpt>
      <trkpt lat="37.6028260" lon="-4.1344100">
        <ele>472.0</ele>
        <time>2021-12-28T10:05:31Z</time>
      </trkpt>
      <trkpt lat="37.6028100" lon="-4.1344620">
        <ele>471.8</ele>
        <time>2021-12-28T10:05:32Z</time>
      </trkpt>
      <trkpt lat="37.6027870" lon="-4.1345130">
        <ele>471.8</ele>
        <time>2021-12-28T10:05:33Z</time>
      </trkpt>
      <trkpt lat="37.6027650" lon="-4.1345700">
        <ele>471.8</ele>
        <time>2021-12-28T10:05:34Z</time>
      </trkpt>
      <trkpt lat="37.6027360" lon="-4.1346280">
        <ele>471.8</ele>
        <time>2021-12-28T10:05:35Z</time>
      </trkpt>
      <trkpt lat="37.6027100" lon="-4.1346880">
        <ele>471.8</ele>
        <time>2021-12-28T10:05:36Z</time>
      </trkpt>
      <trkpt lat="37.6026880" lon="-4.1347480">
        <ele>471.8</ele>
        <time>2021-12-28T10:05:37Z</time>
      </trkpt>
      <trkpt lat="37.6026660" lon="-4.1348100">
        <ele>471.8</ele>
        <time>2021-12-28T10:05:38Z</time>
      </trkpt>
      <trkpt lat="37.6026370" lon="-4.1348680">
        <ele>471.8</ele>
        <time>2021-12-28T10:05:39Z</time>
      </trkpt>
      <trkpt lat="37.6026180" lon="-4.1349270">
        <ele>471.8</ele>
        <time>2021-12-28T10:05:40Z</time>
      </trkpt>
      <trkpt lat="37.6025950" lon="-4.1349850">
        <ele>471.6</ele>
        <time>2021-12-28T10:05:41Z</time>
      </trkpt>
      <trkpt lat="37.6025730" lon="-4.1350450">
        <ele>471.6</ele>
        <time>2021-12-28T10:05:42Z</time>
      </trkpt>
      <trkpt lat="37.6025500" lon="-4.1351020">
        <ele>471.4</ele>
        <time>2021-12-28T10:05:43Z</time>
      </trkpt>
      <trkpt lat="37.6025250" lon="-4.1351600">
        <ele>471.4</ele>
        <time>2021-12-28T10:05:44Z</time>
      </trkpt>
      <trkpt lat="37.6025020" lon="-4.1352170">
        <ele>471.2</ele>
        <time>2021-12-28T10:05:45Z</time>
      </trkpt>
      <trkpt lat="37.6024770" lon="-4.1352740">
        <ele>471.0</ele>
        <time>2021-12-28T10:05:46Z</time>
      </trkpt>
      <trkpt lat="37.6024540" lon="-4.1353300">
        <ele>471.0</ele>
        <time>2021-12-28T10:05:47Z</time>
      </trkpt>
      <trkpt lat="37.6024320" lon="-4.1353860">
        <ele>471.0</ele>
        <time>2021-12-28T10:05:48Z</time>
      </trkpt>
      <trkpt lat="37.6024100" lon="-4.1354420">
        <ele>471.0</ele>
        <time>2021-12-28T10:05:49Z</time>
      </trkpt>
      <trkpt lat="37.6023900" lon="-4.1354970">
        <ele>471.0</ele>
        <time>2021-12-28T10:05:50Z</time>
      </trkpt>
      <trkpt lat="37.6023680" lon="-4.1355520">
        <ele>470.8</ele>
        <time>2021-12-28T10:05:51Z</time>
      </trkpt>
      <trkpt lat="37.6023490" lon="-4.1356070">
        <ele>470.8</ele>
        <time>2021-12-28T10:05:52Z</time>
      </trkpt>
      <trkpt lat="37.6023260" lon="-4.1356620">
        <ele>470.8</ele>
        <time>2021-12-28T10:05:53Z</time>
      </trkpt>
      <trkpt lat="37.6023070" lon="-4.1357150">
        <ele>470.6</ele>
        <time>2021-12-28T10:05:54Z</time>
      </trkpt>
      <trkpt lat="37.6022850" lon="-4.1357700">
        <ele>470.6</ele>
        <time>2021-12-28T10:05:55Z</time>
      </trkpt>
      <trkpt lat="37.6022590" lon="-4.1358250">
        <ele>470.4</ele>
        <time>2021-12-28T10:05:56Z</time>
      </trkpt>
      <trkpt lat="37.6022400" lon="-4.1358780">
        <ele>470.2</ele>
        <time>2021-12-28T10:05:57Z</time>
      </trkpt>
      <trkpt lat="37.6022180" lon="-4.1359350">
        <ele>470.2</ele>
        <time>2021-12-28T10:05:58Z</time>
      </trkpt>
      <trkpt lat="37.6021950" lon="-4.1359920">
        <ele>470.0</ele>
        <time>2021-12-28T10:05:59Z</time>
      </trkpt>
      <trkpt lat="37.6021730" lon="-4.1360500">
        <ele>470.0</ele>
        <time>2021-12-28T10:06:00Z</time>
      </trkpt>
      <trkpt lat="37.6021500" lon="-4.1361060">
        <ele>470.0</ele>
        <time>2021-12-28T10:06:01Z</time>
      </trkpt>
      <trkpt lat="37.6021280" lon="-4.1361630">
        <ele>470.0</ele>
        <time>2021-12-28T10:06:02Z</time>
      </trkpt>
      <trkpt lat="37.6021090" lon="-4.1362200">
        <ele>470.0</ele>
        <time>2021-12-28T10:06:03Z</time>
      </trkpt>
      <trkpt lat="37.6020860" lon="-4.1362770">
        <ele>469.8</ele>
        <time>2021-12-28T10:06:04Z</time>
      </trkpt>
      <trkpt lat="37.6020610" lon="-4.1363350">
        <ele>469.6</ele>
        <time>2021-12-28T10:06:05Z</time>
      </trkpt>
      <trkpt lat="37.6020380" lon="-4.1363940">
        <ele>469.4</ele>
        <time>2021-12-28T10:06:06Z</time>
      </trkpt>
      <trkpt lat="37.6020160" lon="-4.1364530">
        <ele>469.4</ele>
        <time>2021-12-28T10:06:07Z</time>
      </trkpt>
      <trkpt lat="37.6019900" lon="-4.1365120">
        <ele>469.2</ele>
        <time>2021-12-28T10:06:08Z</time>
      </trkpt>
      <trkpt lat="37.6019680" lon="-4.1365720">
        <ele>469.0</ele>
        <time>2021-12-28T10:06:09Z</time>
      </trkpt>
      <trkpt lat="37.6019490" lon="-4.1366300">
        <ele>469.0</ele>
        <time>2021-12-28T10:06:10Z</time>
      </trkpt>
      <trkpt lat="37.6019260" lon="-4.1366900">
        <ele>468.8</ele>
        <time>2021-12-28T10:06:11Z</time>
      </trkpt>
      <trkpt lat="37.6018980" lon="-4.1367520">
        <ele>468.8</ele>
        <time>2021-12-28T10:06:12Z</time>
      </trkpt>
      <trkpt lat="37.6018780" lon="-4.1368120">
        <ele>468.6</ele>
        <time>2021-12-28T10:06:13Z</time>
      </trkpt>
      <trkpt lat="37.6018560" lon="-4.1368700">
        <ele>468.4</ele>
        <time>2021-12-28T10:06:14Z</time>
      </trkpt>
      <trkpt lat="37.6018300" lon="-4.1369300">
        <ele>468.4</ele>
        <time>2021-12-28T10:06:15Z</time>
      </trkpt>
      <trkpt lat="37.6018080" lon="-4.1369900">
        <ele>468.2</ele>
        <time>2021-12-28T10:06:16Z</time>
      </trkpt>
      <trkpt lat="37.6017820" lon="-4.1370480">
        <ele>468.0</ele>
        <time>2021-12-28T10:06:17Z</time>
      </trkpt>
      <trkpt lat="37.6017630" lon="-4.1371070">
        <ele>468.0</ele>
        <time>2021-12-28T10:06:18Z</time>
      </trkpt>
      <trkpt lat="37.6017410" lon="-4.1371650">
        <ele>467.8</ele>
        <time>2021-12-28T10:06:19Z</time>
      </trkpt>
      <trkpt lat="37.6017150" lon="-4.1372230">
        <ele>467.8</ele>
        <time>2021-12-28T10:06:20Z</time>
      </trkpt>
      <trkpt lat="37.6016930" lon="-4.1372820">
        <ele>467.6</ele>
        <time>2021-12-28T10:06:21Z</time>
      </trkpt>
      <trkpt lat="37.6016700" lon="-4.1373380">
        <ele>467.6</ele>
        <time>2021-12-28T10:06:22Z</time>
      </trkpt>
      <trkpt lat="37.6016480" lon="-4.1373940">
        <ele>467.6</ele>
        <time>2021-12-28T10:06:23Z</time>
      </trkpt>
      <trkpt lat="37.6016290" lon="-4.1374520">
        <ele>467.6</ele>
        <time>2021-12-28T10:06:24Z</time>
      </trkpt>
      <trkpt lat="37.6016000" lon="-4.1375080">
        <ele>467.6</ele>
        <time>2021-12-28T10:06:25Z</time>
      </trkpt>
      <trkpt lat="37.6015780" lon="-4.1375650">
        <ele>467.6</ele>
        <time>2021-12-28T10:06:26Z</time>
      </trkpt>
      <trkpt lat="37.6015550" lon="-4.1376220">
        <ele>467.4</ele>
        <time>2021-12-28T10:06:27Z</time>
      </trkpt>
      <trkpt lat="37.6015330" lon="-4.1376800">
        <ele>467.4</ele>
        <time>2021-12-28T10:06:28Z</time>
      </trkpt>
      <trkpt lat="37.6015140" lon="-4.1377370">
        <ele>467.4</ele>
        <time>2021-12-28T10:06:29Z</time>
      </trkpt>
      <trkpt lat="37.6014910" lon="-4.1377940">
        <ele>467.2</ele>
        <time>2021-12-28T10:06:30Z</time>
      </trkpt>
      <trkpt lat="37.6014660" lon="-4.1378480">
        <ele>467.0</ele>
        <time>2021-12-28T10:06:31Z</time>
      </trkpt>
      <trkpt lat="37.6014500" lon="-4.1379030">
        <ele>467.0</ele>
        <time>2021-12-28T10:06:32Z</time>
      </trkpt>
      <trkpt lat="37.6014240" lon="-4.1379600">
        <ele>466.8</ele>
        <time>2021-12-28T10:06:33Z</time>
      </trkpt>
      <trkpt lat="37.6013980" lon="-4.1380150">
        <ele>466.8</ele>
        <time>2021-12-28T10:06:34Z</time>
      </trkpt>
      <trkpt lat="37.6013760" lon="-4.1380750">
        <ele>466.8</ele>
        <time>2021-12-28T10:06:35Z</time>
      </trkpt>
      <trkpt lat="37.6013540" lon="-4.1381320">
        <ele>466.8</ele>
        <time>2021-12-28T10:06:36Z</time>
      </trkpt>
      <trkpt lat="37.6013310" lon="-4.1381900">
        <ele>466.8</ele>
        <time>2021-12-28T10:06:37Z</time>
      </trkpt>
      <trkpt lat="37.6013120" lon="-4.1382460">
        <ele>466.8</ele>
        <time>2021-12-28T10:06:38Z</time>
      </trkpt>
      <trkpt lat="37.6012930" lon="-4.1383030">
        <ele>466.6</ele>
        <time>2021-12-28T10:06:39Z</time>
      </trkpt>
      <trkpt lat="37.6012740" lon="-4.1383600">
        <ele>466.6</ele>
        <time>2021-12-28T10:06:40Z</time>
      </trkpt>
      <trkpt lat="37.6012540" lon="-4.1384170">
        <ele>466.4</ele>
        <time>2021-12-28T10:06:41Z</time>
      </trkpt>
      <trkpt lat="37.6012350" lon="-4.1384750">
        <ele>466.2</ele>
        <time>2021-12-28T10:06:42Z</time>
      </trkpt>
      <trkpt lat="37.6012130" lon="-4.1385330">
        <ele>466.2</ele>
        <time>2021-12-28T10:06:43Z</time>
      </trkpt>
      <trkpt lat="37.6011940" lon="-4.1385930">
        <ele>466.2</ele>
        <time>2021-12-28T10:06:44Z</time>
      </trkpt>
      <trkpt lat="37.6011780" lon="-4.1386500">
        <ele>466.2</ele>
        <time>2021-12-28T10:06:45Z</time>
      </trkpt>
      <trkpt lat="37.6011580" lon="-4.1387080">
        <ele>466.0</ele>
        <time>2021-12-28T10:06:46Z</time>
      </trkpt>
      <trkpt lat="37.6011460" lon="-4.1387680">
        <ele>466.0</ele>
        <time>2021-12-28T10:06:47Z</time>
      </trkpt>
      <trkpt lat="37.6011330" lon="-4.1388280">
        <ele>466.0</ele>
        <time>2021-12-28T10:06:48Z</time>
      </trkpt>
      <trkpt lat="37.6011170" lon="-4.1388880">
        <ele>465.8</ele>
        <time>2021-12-28T10:06:49Z</time>
      </trkpt>
      <trkpt lat="37.6011010" lon="-4.1389500">
        <ele>465.8</ele>
        <time>2021-12-28T10:06:50Z</time>
      </trkpt>
      <trkpt lat="37.6010880" lon="-4.1390130">
        <ele>465.8</ele>
        <time>2021-12-28T10:06:51Z</time>
      </trkpt>
      <trkpt lat="37.6010750" lon="-4.1390770">
        <ele>465.6</ele>
        <time>2021-12-28T10:06:52Z</time>
      </trkpt>
      <trkpt lat="37.6010660" lon="-4.1391420">
        <ele>465.6</ele>
        <time>2021-12-28T10:06:53Z</time>
      </trkpt>
      <trkpt lat="37.6010530" lon="-4.1392070">
        <ele>465.6</ele>
        <time>2021-12-28T10:06:54Z</time>
      </trkpt>
      <trkpt lat="37.6010400" lon="-4.1392750">
        <ele>465.6</ele>
        <time>2021-12-28T10:06:55Z</time>
      </trkpt>
      <trkpt lat="37.6010340" lon="-4.1393420">
        <ele>465.6</ele>
        <time>2021-12-28T10:06:56Z</time>
      </trkpt>
      <trkpt lat="37.6010240" lon="-4.1394080">
        <ele>465.4</ele>
        <time>2021-12-28T10:06:57Z</time>
      </trkpt>
      <trkpt lat="37.6010140" lon="-4.1394740">
        <ele>465.4</ele>
        <time>2021-12-28T10:06:58Z</time>
      </trkpt>
      <trkpt lat="37.6010050" lon="-4.1395420">
        <ele>465.2</ele>
        <time>2021-12-28T10:06:59Z</time>
      </trkpt>
      <trkpt lat="37.6010020" lon="-4.1396080">
        <ele>465.2</ele>
        <time>2021-12-28T10:07:00Z</time>
      </trkpt>
      <trkpt lat="37.6009950" lon="-4.1396760">
        <ele>465.0</ele>
        <time>2021-12-28T10:07:01Z</time>
      </trkpt>
      <trkpt lat="37.6009860" lon="-4.1397470">
        <ele>465.0</ele>
        <time>2021-12-28T10:07:02Z</time>
      </trkpt>
      <trkpt lat="37.6009820" lon="-4.1398150">
        <ele>465.0</ele>
        <time>2021-12-28T10:07:03Z</time>
      </trkpt>
      <trkpt lat="37.6009790" lon="-4.1398850">
        <ele>464.8</ele>
        <time>2021-12-28T10:07:04Z</time>
      </trkpt>
      <trkpt lat="37.6009790" lon="-4.1399550">
        <ele>464.6</ele>
        <time>2021-12-28T10:07:05Z</time>
      </trkpt>
      <trkpt lat="37.6009760" lon="-4.1400250">
        <ele>464.6</ele>
        <time>2021-12-28T10:07:06Z</time>
      </trkpt>
      <trkpt lat="37.6009760" lon="-4.1400930">
        <ele>464.4</ele>
        <time>2021-12-28T10:07:07Z</time>
      </trkpt>
      <trkpt lat="37.6009760" lon="-4.1401650">
        <ele>464.4</ele>
        <time>2021-12-28T10:07:08Z</time>
      </trkpt>
      <trkpt lat="37.6009760" lon="-4.1402350">
        <ele>464.4</ele>
        <time>2021-12-28T10:07:09Z</time>
      </trkpt>
      <trkpt lat="37.6009760" lon="-4.1403030">
        <ele>464.2</ele>
        <time>2021-12-28T10:07:10Z</time>
      </trkpt>
      <trkpt lat="37.6009790" lon="-4.1403720">
        <ele>464.2</ele>
        <time>2021-12-28T10:07:11Z</time>
      </trkpt>
      <trkpt lat="37.6009820" lon="-4.1404380">
        <ele>464.2</ele>
        <time>2021-12-28T10:07:12Z</time>
      </trkpt>
      <trkpt lat="37.6009860" lon="-4.1405040">
        <ele>464.0</ele>
        <time>2021-12-28T10:07:13Z</time>
      </trkpt>
      <trkpt lat="37.6009860" lon="-4.1405740">
        <ele>464.0</ele>
        <time>2021-12-28T10:07:14Z</time>
      </trkpt>
      <trkpt lat="37.6009890" lon="-4.1406420">
        <ele>464.0</ele>
        <time>2021-12-28T10:07:15Z</time>
      </trkpt>
      <trkpt lat="37.6009980" lon="-4.1407120">
        <ele>464.0</ele>
        <time>2021-12-28T10:07:16Z</time>
      </trkpt>
      <trkpt lat="37.6010050" lon="-4.1407800">
        <ele>464.0</ele>
        <time>2021-12-28T10:07:17Z</time>
      </trkpt>
      <trkpt lat="37.6010140" lon="-4.1408470">
        <ele>464.0</ele>
        <time>2021-12-28T10:07:18Z</time>
      </trkpt>
      <trkpt lat="37.6010240" lon="-4.1409120">
        <ele>464.0</ele>
        <time>2021-12-28T10:07:19Z</time>
      </trkpt>
      <trkpt lat="37.6010370" lon="-4.1409780">
        <ele>463.8</ele>
        <time>2021-12-28T10:07:20Z</time>
      </trkpt>
      <trkpt lat="37.6010460" lon="-4.1410420">
        <ele>463.8</ele>
        <time>2021-12-28T10:07:21Z</time>
      </trkpt>
      <trkpt lat="37.6010560" lon="-4.1411070">
        <ele>463.8</ele>
        <time>2021-12-28T10:07:22Z</time>
      </trkpt>
      <trkpt lat="37.6010660" lon="-4.1411720">
        <ele>463.6</ele>
        <time>2021-12-28T10:07:23Z</time>
      </trkpt>
      <trkpt lat="37.6010820" lon="-4.1412350">
        <ele>463.6</ele>
        <time>2021-12-28T10:07:24Z</time>
      </trkpt>
      <trkpt lat="37.6010940" lon="-4.1413000">
        <ele>463.4</ele>
        <time>2021-12-28T10:07:25Z</time>
      </trkpt>
      <trkpt lat="37.6011040" lon="-4.1413650">
        <ele>463.4</ele>
        <time>2021-12-28T10:07:26Z</time>
      </trkpt>
      <trkpt lat="37.6011200" lon="-4.1414260">
        <ele>463.2</ele>
        <time>2021-12-28T10:07:27Z</time>
      </trkpt>
      <trkpt lat="37.6011360" lon="-4.1414880">
        <ele>463.0</ele>
        <time>2021-12-28T10:07:28Z</time>
      </trkpt>
      <trkpt lat="37.6011520" lon="-4.1415500">
        <ele>463.0</ele>
        <time>2021-12-28T10:07:29Z</time>
      </trkpt>
      <trkpt lat="37.6011650" lon="-4.1416140">
        <ele>462.8</ele>
        <time>2021-12-28T10:07:30Z</time>
      </trkpt>
      <trkpt lat="37.6011810" lon="-4.1416770">
        <ele>462.6</ele>
        <time>2021-12-28T10:07:31Z</time>
      </trkpt>
      <trkpt lat="37.6012000" lon="-4.1417380">
        <ele>462.6</ele>
        <time>2021-12-28T10:07:32Z</time>
      </trkpt>
      <trkpt lat="37.6012190" lon="-4.1418000">
        <ele>462.6</ele>
        <time>2021-12-28T10:07:33Z</time>
      </trkpt>
      <trkpt lat="37.6012380" lon="-4.1418620">
        <ele>462.6</ele>
        <time>2021-12-28T10:07:34Z</time>
      </trkpt>
      <trkpt lat="37.6012610" lon="-4.1419240">
        <ele>462.6</ele>
        <time>2021-12-28T10:07:35Z</time>
      </trkpt>
      <trkpt lat="37.6012800" lon="-4.1419820">
        <ele>462.4</ele>
        <time>2021-12-28T10:07:36Z</time>
      </trkpt>
      <trkpt lat="37.6013020" lon="-4.1420400">
        <ele>462.4</ele>
        <time>2021-12-28T10:07:37Z</time>
      </trkpt>
      <trkpt lat="37.6013220" lon="-4.1420980">
        <ele>462.4</ele>
        <time>2021-12-28T10:07:38Z</time>
      </trkpt>
      <trkpt lat="37.6013440" lon="-4.1421570">
        <ele>462.2</ele>
        <time>2021-12-28T10:07:39Z</time>
      </trkpt>
      <trkpt lat="37.6013660" lon="-4.1422130">
        <ele>462.2</ele>
        <time>2021-12-28T10:07:40Z</time>
      </trkpt>
      <trkpt lat="37.6013920" lon="-4.1422700">
        <ele>462.0</ele>
        <time>2021-12-28T10:07:41Z</time>
      </trkpt>
      <trkpt lat="37.6014180" lon="-4.1423250">
        <ele>461.8</ele>
        <time>2021-12-28T10:07:42Z</time>
      </trkpt>
      <trkpt lat="37.6014430" lon="-4.1423800">
        <ele>461.8</ele>
        <time>2021-12-28T10:07:43Z</time>
      </trkpt>
      <trkpt lat="37.6014660" lon="-4.1424320">
        <ele>461.6</ele>
        <time>2021-12-28T10:07:44Z</time>
      </trkpt>
      <trkpt lat="37.6014980" lon="-4.1424850">
        <ele>461.4</ele>
        <time>2021-12-28T10:07:45Z</time>
      </trkpt>
      <trkpt lat="37.6015230" lon="-4.1425380">
        <ele>461.2</ele>
        <time>2021-12-28T10:07:46Z</time>
      </trkpt>
      <trkpt lat="37.6015490" lon="-4.1425900">
        <ele>461.2</ele>
        <time>2021-12-28T10:07:47Z</time>
      </trkpt>
      <trkpt lat="37.6015740" lon="-4.1426440">
        <ele>461.2</ele>
        <time>2021-12-28T10:07:48Z</time>
      </trkpt>
      <trkpt lat="37.6016000" lon="-4.1426950">
        <ele>461.0</ele>
        <time>2021-12-28T10:07:49Z</time>
      </trkpt>
      <trkpt lat="37.6016320" lon="-4.1427460">
        <ele>461.0</ele>
        <time>2021-12-28T10:07:50Z</time>
      </trkpt>
      <trkpt lat="37.6016580" lon="-4.1427960">
        <ele>460.8</ele>
        <time>2021-12-28T10:07:51Z</time>
      </trkpt>
      <trkpt lat="37.6016900" lon="-4.1428450">
        <ele>460.8</ele>
        <time>2021-12-28T10:07:52Z</time>
      </trkpt>
      <trkpt lat="37.6017150" lon="-4.1428930">
        <ele>460.8</ele>
        <time>2021-12-28T10:07:53Z</time>
      </trkpt>
      <trkpt lat="37.6017470" lon="-4.1429420">
        <ele>460.8</ele>
        <time>2021-12-28T10:07:54Z</time>
      </trkpt>
      <trkpt lat="37.6017730" lon="-4.1429900">
        <ele>460.8</ele>
        <time>2021-12-28T10:07:55Z</time>
      </trkpt>
      <trkpt lat="37.6018020" lon="-4.1430380">
        <ele>460.6</ele>
        <time>2021-12-28T10:07:56Z</time>
      </trkpt>
      <trkpt lat="37.6018300" lon="-4.1430860">
        <ele>460.6</ele>
        <time>2021-12-28T10:07:57Z</time>
      </trkpt>
      <trkpt lat="37.6018560" lon="-4.1431330">
        <ele>460.6</ele>
        <time>2021-12-28T10:07:58Z</time>
      </trkpt>
      <trkpt lat="37.6018880" lon="-4.1431800">
        <ele>460.4</ele>
        <time>2021-12-28T10:07:59Z</time>
      </trkpt>
      <trkpt lat="37.6019100" lon="-4.1432270">
        <ele>460.4</ele>
        <time>2021-12-28T10:08:00Z</time>
      </trkpt>
      <trkpt lat="37.6019360" lon="-4.1432720">
        <ele>460.4</ele>
        <time>2021-12-28T10:08:01Z</time>
      </trkpt>
      <trkpt lat="37.6019620" lon="-4.1433170">
        <ele>460.2</ele>
        <time>2021-12-28T10:08:02Z</time>
      </trkpt>
      <trkpt lat="37.6019940" lon="-4.1433620">
        <ele>460.2</ele>
        <time>2021-12-28T10:08:03Z</time>
      </trkpt>
      <trkpt lat="37.6020190" lon="-4.1434040">
        <ele>460.2</ele>
        <time>2021-12-28T10:08:04Z</time>
      </trkpt>
      <trkpt lat="37.6020510" lon="-4.1434450">
        <ele>460.0</ele>
        <time>2021-12-28T10:08:05Z</time>
      </trkpt>
      <trkpt lat="37.6020770" lon="-4.1434920">
        <ele>460.0</ele>
        <time>2021-12-28T10:08:06Z</time>
      </trkpt>
      <trkpt lat="37.6021060" lon="-4.1435380">
        <ele>459.8</ele>
        <time>2021-12-28T10:08:07Z</time>
      </trkpt>
      <trkpt lat="37.6021340" lon="-4.1435830">
        <ele>459.8</ele>
        <time>2021-12-28T10:08:08Z</time>
      </trkpt>
      <trkpt lat="37.6021660" lon="-4.1436320">
        <ele>459.6</ele>
        <time>2021-12-28T10:08:09Z</time>
      </trkpt>
      <trkpt lat="37.6021920" lon="-4.1436780">
        <ele>459.6</ele>
        <time>2021-12-28T10:08:10Z</time>
      </trkpt>
      <trkpt lat="37.6022180" lon="-4.1437270">
        <ele>459.6</ele>
        <time>2021-12-28T10:08:11Z</time>
      </trkpt>
      <trkpt lat="37.6022500" lon="-4.1437750">
        <ele>459.4</ele>
        <time>2021-12-28T10:08:12Z</time>
      </trkpt>
      <trkpt lat="37.6022750" lon="-4.1438220">
        <ele>459.2</ele>
        <time>2021-12-28T10:08:13Z</time>
      </trkpt>
      <trkpt lat="37.6023070" lon="-4.1438720">
        <ele>459.0</ele>
        <time>2021-12-28T10:08:14Z</time>
      </trkpt>
      <trkpt lat="37.6023360" lon="-4.1439170">
        <ele>459.0</ele>
        <time>2021-12-28T10:08:15Z</time>
      </trkpt>
      <trkpt lat="37.6023680" lon="-4.1439650">
        <ele>458.8</ele>
        <time>2021-12-28T10:08:16Z</time>
      </trkpt>
      <trkpt lat="37.6023940" lon="-4.1440140">
        <ele>458.8</ele>
        <time>2021-12-28T10:08:17Z</time>
      </trkpt>
      <trkpt lat="37.6024260" lon="-4.1440620">
        <ele>458.8</ele>
        <time>2021-12-28T10:08:18Z</time>
      </trkpt>
      <trkpt lat="37.6024540" lon="-4.1441100">
        <ele>458.6</ele>
        <time>2021-12-28T10:08:19Z</time>
      </trkpt>
      <trkpt lat="37.6024830" lon="-4.1441600">
        <ele>458.4</ele>
        <time>2021-12-28T10:08:20Z</time>
      </trkpt>
      <trkpt lat="37.6025120" lon="-4.1442080">
        <ele>458.4</ele>
        <time>2021-12-28T10:08:21Z</time>
      </trkpt>
      <trkpt lat="37.6025440" lon="-4.1442600">
        <ele>458.2</ele>
        <time>2021-12-28T10:08:22Z</time>
      </trkpt>
      <trkpt lat="37.6025730" lon="-4.1443100">
        <ele>458.2</ele>
        <time>2021-12-28T10:08:23Z</time>
      </trkpt>
      <trkpt lat="37.6026020" lon="-4.1443600">
        <ele>458.0</ele>
        <time>2021-12-28T10:08:24Z</time>
      </trkpt>
      <trkpt lat="37.6026300" lon="-4.1444140">
        <ele>458.0</ele>
        <time>2021-12-28T10:08:25Z</time>
      </trkpt>
      <trkpt lat="37.6026560" lon="-4.1444650">
        <ele>458.0</ele>
        <time>2021-12-28T10:08:26Z</time>
      </trkpt>
      <trkpt lat="37.6026850" lon="-4.1445160">
        <ele>457.8</ele>
        <time>2021-12-28T10:08:27Z</time>
      </trkpt>
      <trkpt lat="37.6027100" lon="-4.1445700">
        <ele>457.8</ele>
        <time>2021-12-28T10:08:28Z</time>
      </trkpt>
      <trkpt lat="37.6027360" lon="-4.1446220">
        <ele>457.8</ele>
        <time>2021-12-28T10:08:29Z</time>
      </trkpt>
      <trkpt lat="37.6027650" lon="-4.1446730">
        <ele>457.6</ele>
        <time>2021-12-28T10:08:30Z</time>
      </trkpt>
      <trkpt lat="37.6027840" lon="-4.1447250">
        <ele>457.6</ele>
        <time>2021-12-28T10:08:31Z</time>
      </trkpt>
      <trkpt lat="37.6028100" lon="-4.1447800">
        <ele>457.4</ele>
        <time>2021-12-28T10:08:32Z</time>
      </trkpt>
      <trkpt lat="37.6028290" lon="-4.1448340">
        <ele>457.4</ele>
        <time>2021-12-28T10:08:33Z</time>
      </trkpt>
      <trkpt lat="37.6028510" lon="-4.1448860">
        <ele>457.4</ele>
        <time>2021-12-28T10:08:34Z</time>
      </trkpt>
      <trkpt lat="37.6028740" lon="-4.1449430">
        <ele>457.2</ele>
        <time>2021-12-28T10:08:35Z</time>
      </trkpt>
      <trkpt lat="37.6028930" lon="-4.1450000">
        <ele>457.2</ele>
        <time>2021-12-28T10:08:36Z</time>
      </trkpt>
      <trkpt lat="37.6029150" lon="-4.1450580">
        <ele>457.0</ele>
        <time>2021-12-28T10:08:37Z</time>
      </trkpt>
      <trkpt lat="37.6029340" lon="-4.1451170">
        <ele>457.0</ele>
        <time>2021-12-28T10:08:38Z</time>
      </trkpt>
      <trkpt lat="37.6029540" lon="-4.1451750">
        <ele>456.8</ele>
        <time>2021-12-28T10:08:39Z</time>
      </trkpt>
      <trkpt lat="37.6029700" lon="-4.1452320">
        <ele>456.8</ele>
        <time>2021-12-28T10:08:40Z</time>
      </trkpt>
      <trkpt lat="37.6029890" lon="-4.1452900">
        <ele>456.6</ele>
        <time>2021-12-28T10:08:41Z</time>
      </trkpt>
      <trkpt lat="37.6030050" lon="-4.1453480">
        <ele>456.6</ele>
        <time>2021-12-28T10:08:42Z</time>
      </trkpt>
      <trkpt lat="37.6030240" lon="-4.1454100">
        <ele>456.4</ele>
        <time>2021-12-28T10:08:43Z</time>
      </trkpt>
      <trkpt lat="37.6030340" lon="-4.1454740">
        <ele>456.4</ele>
        <time>2021-12-28T10:08:44Z</time>
      </trkpt>
      <trkpt lat="37.6030500" lon="-4.1455360">
        <ele>456.2</ele>
        <time>2021-12-28T10:08:45Z</time>
      </trkpt>
      <trkpt lat="37.6030620" lon="-4.1456030">
        <ele>456.2</ele>
        <time>2021-12-28T10:08:46Z</time>
      </trkpt>
      <trkpt lat="37.6030720" lon="-4.1456680">
        <ele>456.2</ele>
        <time>2021-12-28T10:08:47Z</time>
      </trkpt>
      <trkpt lat="37.6030880" lon="-4.1457320">
        <ele>456.2</ele>
        <time>2021-12-28T10:08:48Z</time>
      </trkpt>
      <trkpt lat="37.6031010" lon="-4.1457970">
        <ele>456.2</ele>
        <time>2021-12-28T10:08:49Z</time>
      </trkpt>
      <trkpt lat="37.6031100" lon="-4.1458600">
        <ele>456.2</ele>
        <time>2021-12-28T10:08:50Z</time>
      </trkpt>
      <trkpt lat="37.6031200" lon="-4.1459230">
        <ele>456.2</ele>
        <time>2021-12-28T10:08:51Z</time>
      </trkpt>
      <trkpt lat="37.6031260" lon="-4.1459860">
        <ele>456.2</ele>
        <time>2021-12-28T10:08:52Z</time>
      </trkpt>
      <trkpt lat="37.6031390" lon="-4.1460470">
        <ele>456.0</ele>
        <time>2021-12-28T10:08:53Z</time>
      </trkpt>
      <trkpt lat="37.6031460" lon="-4.1461080">
        <ele>456.0</ele>
        <time>2021-12-28T10:08:54Z</time>
      </trkpt>
      <trkpt lat="37.6031520" lon="-4.1461700">
        <ele>455.8</ele>
        <time>2021-12-28T10:08:55Z</time>
      </trkpt>
      <trkpt lat="37.6031580" lon="-4.1462320">
        <ele>455.8</ele>
        <time>2021-12-28T10:08:56Z</time>
      </trkpt>
      <trkpt lat="37.6031650" lon="-4.1462950">
        <ele>455.6</ele>
        <time>2021-12-28T10:08:57Z</time>
      </trkpt>
      <trkpt lat="37.6031680" lon="-4.1463580">
        <ele>455.6</ele>
        <time>2021-12-28T10:08:58Z</time>
      </trkpt>
      <trkpt lat="37.6031710" lon="-4.1464230">
        <ele>455.4</ele>
        <time>2021-12-28T10:08:59Z</time>
      </trkpt>
      <trkpt lat="37.6031780" lon="-4.1464870">
        <ele>455.2</ele>
        <time>2021-12-28T10:09:00Z</time>
      </trkpt>
      <trkpt lat="37.6031780" lon="-4.1465520">
        <ele>455.2</ele>
        <time>2021-12-28T10:09:01Z</time>
      </trkpt>
      <trkpt lat="37.6031780" lon="-4.1466150">
        <ele>455.0</ele>
        <time>2021-12-28T10:09:02Z</time>
      </trkpt>
      <trkpt lat="37.6031810" lon="-4.1466800">
        <ele>454.8</ele>
        <time>2021-12-28T10:09:03Z</time>
      </trkpt>
      <trkpt lat="37.6031810" lon="-4.1467470">
        <ele>454.8</ele>
        <time>2021-12-28T10:09:04Z</time>
      </trkpt>
      <trkpt lat="37.6031780" lon="-4.1468120">
        <ele>454.6</ele>
        <time>2021-12-28T10:09:05Z</time>
      </trkpt>
      <trkpt lat="37.6031780" lon="-4.1468770">
        <ele>454.6</ele>
        <time>2021-12-28T10:09:06Z</time>
      </trkpt>
      <trkpt lat="37.6031710" lon="-4.1469420">
        <ele>454.4</ele>
        <time>2021-12-28T10:09:07Z</time>
      </trkpt>
      <trkpt lat="37.6031710" lon="-4.1470060">
        <ele>454.4</ele>
        <time>2021-12-28T10:09:08Z</time>
      </trkpt>
      <trkpt lat="37.6031680" lon="-4.1470720">
        <ele>454.2</ele>
        <time>2021-12-28T10:09:09Z</time>
      </trkpt>
      <trkpt lat="37.6031680" lon="-4.1471350">
        <ele>454.2</ele>
        <time>2021-12-28T10:09:10Z</time>
      </trkpt>
      <trkpt lat="37.6031680" lon="-4.1471980">
        <ele>454.0</ele>
        <time>2021-12-28T10:09:11Z</time>
      </trkpt>
      <trkpt lat="37.6031680" lon="-4.1472640">
        <ele>453.8</ele>
        <time>2021-12-28T10:09:12Z</time>
      </trkpt>
      <trkpt lat="37.6031650" lon="-4.1473250">
        <ele>453.8</ele>
        <time>2021-12-28T10:09:13Z</time>
      </trkpt>
      <trkpt lat="37.6031620" lon="-4.1473880">
        <ele>453.6</ele>
        <time>2021-12-28T10:09:14Z</time>
      </trkpt>
      <trkpt lat="37.6031620" lon="-4.1474500">
        <ele>453.6</ele>
        <time>2021-12-28T10:09:15Z</time>
      </trkpt>
      <trkpt lat="37.6031580" lon="-4.1475130">
        <ele>453.4</ele>
        <time>2021-12-28T10:09:16Z</time>
      </trkpt>
      <trkpt lat="37.6031520" lon="-4.1475780">
        <ele>453.4</ele>
        <time>2021-12-28T10:09:17Z</time>
      </trkpt>
      <trkpt lat="37.6031490" lon="-4.1476380">
        <ele>453.2</ele>
        <time>2021-12-28T10:09:18Z</time>
      </trkpt>
      <trkpt lat="37.6031490" lon="-4.1477020">
        <ele>453.2</ele>
        <time>2021-12-28T10:09:19Z</time>
      </trkpt>
      <trkpt lat="37.6031460" lon="-4.1477630">
        <ele>453.0</ele>
        <time>2021-12-28T10:09:20Z</time>
      </trkpt>
      <trkpt lat="37.6031420" lon="-4.1478250">
        <ele>453.0</ele>
        <time>2021-12-28T10:09:21Z</time>
      </trkpt>
      <trkpt lat="37.6031420" lon="-4.1478850">
        <ele>452.8</ele>
        <time>2021-12-28T10:09:22Z</time>
      </trkpt>
      <trkpt lat="37.6031420" lon="-4.1479470">
        <ele>452.8</ele>
        <time>2021-12-28T10:09:23Z</time>
      </trkpt>
      <trkpt lat="37.6031420" lon="-4.1480060">
        <ele>452.6</ele>
        <time>2021-12-28T10:09:24Z</time>
      </trkpt>
      <trkpt lat="37.6031390" lon="-4.1480680">
        <ele>452.6</ele>
        <time>2021-12-28T10:09:25Z</time>
      </trkpt>
      <trkpt lat="37.6031330" lon="-4.1481300">
        <ele>452.6</ele>
        <time>2021-12-28T10:09:26Z</time>
      </trkpt>
      <trkpt lat="37.6031300" lon="-4.1481930">
        <ele>452.4</ele>
        <time>2021-12-28T10:09:27Z</time>
      </trkpt>
      <trkpt lat="37.6031300" lon="-4.1482550">
        <ele>452.4</ele>
        <time>2021-12-28T10:09:28Z</time>
      </trkpt>
      <trkpt lat="37.6031300" lon="-4.1483170">
        <ele>452.2</ele>
        <time>2021-12-28T10:09:29Z</time>
      </trkpt>
      <trkpt lat="37.6031330" lon="-4.1483760">
        <ele>452.0</ele>
        <time>2021-12-28T10:09:30Z</time>
      </trkpt>
      <trkpt lat="37.6031330" lon="-4.1484380">
        <ele>451.8</ele>
        <time>2021-12-28T10:09:31Z</time>
      </trkpt>
      <trkpt lat="37.6031330" lon="-4.1485000">
        <ele>451.6</ele>
        <time>2021-12-28T10:09:32Z</time>
      </trkpt>
      <trkpt lat="37.6031330" lon="-4.1485600">
        <ele>451.4</ele>
        <time>2021-12-28T10:09:33Z</time>
      </trkpt>
      <trkpt lat="37.6031330" lon="-4.1486250">
        <ele>451.2</ele>
        <time>2021-12-28T10:09:34Z</time>
      </trkpt>
      <trkpt lat="37.6031330" lon="-4.1486880">
        <ele>451.2</ele>
        <time>2021-12-28T10:09:35Z</time>
      </trkpt>
      <trkpt lat="37.6031390" lon="-4.1487530">
        <ele>451.0</ele>
        <time>2021-12-28T10:09:36Z</time>
      </trkpt>
      <trkpt lat="37.6031420" lon="-4.1488180">
        <ele>451.0</ele>
        <time>2021-12-28T10:09:37Z</time>
      </trkpt>
      <trkpt lat="37.6031490" lon="-4.1488820">
        <ele>450.8</ele>
        <time>2021-12-28T10:09:38Z</time>
      </trkpt>
      <trkpt lat="37.6031520" lon="-4.1489450">
        <ele>450.8</ele>
        <time>2021-12-28T10:09:39Z</time>
      </trkpt>
      <trkpt lat="37.6031620" lon="-4.1490070">
        <ele>450.8</ele>
        <time>2021-12-28T10:09:40Z</time>
      </trkpt>
      <trkpt lat="37.6031650" lon="-4.1490730">
        <ele>450.6</ele>
        <time>2021-12-28T10:09:41Z</time>
      </trkpt>
      <trkpt lat="37.6031680" lon="-4.1491380">
        <ele>450.6</ele>
        <time>2021-12-28T10:09:42Z</time>
      </trkpt>
      <trkpt lat="37.6031810" lon="-4.1492020">
        <ele>450.4</ele>
        <time>2021-12-28T10:09:43Z</time>
      </trkpt>
      <trkpt lat="37.6031870" lon="-4.1492670">
        <ele>450.4</ele>
        <time>2021-12-28T10:09:44Z</time>
      </trkpt>
      <trkpt lat="37.6031940" lon="-4.1493300">
        <ele>450.4</ele>
        <time>2021-12-28T10:09:45Z</time>
      </trkpt>
      <trkpt lat="37.6032060" lon="-4.1493920">
        <ele>450.2</ele>
        <time>2021-12-28T10:09:46Z</time>
      </trkpt>
      <trkpt lat="37.6032130" lon="-4.1494530">
        <ele>450.2</ele>
        <time>2021-12-28T10:09:47Z</time>
      </trkpt>
      <trkpt lat="37.6032260" lon="-4.1495160">
        <ele>450.2</ele>
        <time>2021-12-28T10:09:48Z</time>
      </trkpt>
      <trkpt lat="37.6032380" lon="-4.1495800">
        <ele>450.2</ele>
        <time>2021-12-28T10:09:49Z</time>
      </trkpt>
      <trkpt lat="37.6032480" lon="-4.1496440">
        <ele>450.0</ele>
        <time>2021-12-28T10:09:50Z</time>
      </trkpt>
      <trkpt lat="37.6032610" lon="-4.1497050">
        <ele>450.0</ele>
        <time>2021-12-28T10:09:51Z</time>
      </trkpt>
      <trkpt lat="37.6032700" lon="-4.1497660">
        <ele>450.0</ele>
        <time>2021-12-28T10:09:52Z</time>
      </trkpt>
      <trkpt lat="37.6032860" lon="-4.1498260">
        <ele>449.8</ele>
        <time>2021-12-28T10:09:53Z</time>
      </trkpt>
      <trkpt lat="37.6033020" lon="-4.1498870">
        <ele>449.8</ele>
        <time>2021-12-28T10:09:54Z</time>
      </trkpt>
      <trkpt lat="37.6033120" lon="-4.1499450">
        <ele>449.6</ele>
        <time>2021-12-28T10:09:55Z</time>
      </trkpt>
      <trkpt lat="37.6033280" lon="-4.1500050">
        <ele>449.4</ele>
        <time>2021-12-28T10:09:56Z</time>
      </trkpt>
      <trkpt lat="37.6033440" lon="-4.1500650">
        <ele>449.2</ele>
        <time>2021-12-28T10:09:57Z</time>
      </trkpt>
      <trkpt lat="37.6033630" lon="-4.1501280">
        <ele>449.0</ele>
        <time>2021-12-28T10:09:58Z</time>
      </trkpt>
      <trkpt lat="37.6033790" lon="-4.1501920">
        <ele>449.0</ele>
        <time>2021-12-28T10:09:59Z</time>
      </trkpt>
      <trkpt lat="37.6034060" lon="-4.1502800">
        <ele>449.0</ele>
        <time>2021-12-28T10:10:00Z</time>
      </trkpt>
      <trkpt lat="37.6034140" lon="-4.1503110">
        <ele>448.8</ele>
        <time>2021-12-28T10:10:01Z</time>
      </trkpt>
      <trkpt lat="37.6034300" lon="-4.1503720">
        <ele>448.6</ele>
        <time>2021-12-28T10:10:02Z</time>
      </trkpt>
      <trkpt lat="37.6034500" lon="-4.1504300">
        <ele>448.6</ele>
        <time>2021-12-28T10:10:03Z</time>
      </trkpt>
      <trkpt lat="37.6034690" lon="-4.1504880">
        <ele>448.6</ele>
        <time>2021-12-28T10:10:04Z</time>
      </trkpt>
      <trkpt lat="37.6034910" lon="-4.1505460">
        <ele>448.4</ele>
        <time>2021-12-28T10:10:05Z</time>
      </trkpt>
      <trkpt lat="37.6035100" lon="-4.1506030">
        <ele>448.4</ele>
        <time>2021-12-28T10:10:06Z</time>
      </trkpt>
      <trkpt lat="37.6035300" lon="-4.1506620">
        <ele>448.2</ele>
        <time>2021-12-28T10:10:07Z</time>
      </trkpt>
      <trkpt lat="37.6035550" lon="-4.1507200">
        <ele>448.2</ele>
        <time>2021-12-28T10:10:08Z</time>
      </trkpt>
      <trkpt lat="37.6035780" lon="-4.1507800">
        <ele>448.0</ele>
        <time>2021-12-28T10:10:09Z</time>
      </trkpt>
      <trkpt lat="37.6035970" lon="-4.1508360">
        <ele>448.0</ele>
        <time>2021-12-28T10:10:10Z</time>
      </trkpt>
      <trkpt lat="37.6036190" lon="-4.1508930">
        <ele>447.8</ele>
        <time>2021-12-28T10:10:11Z</time>
      </trkpt>
      <trkpt lat="37.6036420" lon="-4.1509500">
        <ele>447.6</ele>
        <time>2021-12-28T10:10:12Z</time>
      </trkpt>
      <trkpt lat="37.6036670" lon="-4.1510070">
        <ele>447.6</ele>
        <time>2021-12-28T10:10:13Z</time>
      </trkpt>
      <trkpt lat="37.6036900" lon="-4.1510650">
        <ele>447.6</ele>
        <time>2021-12-28T10:10:14Z</time>
      </trkpt>
      <trkpt lat="37.6037150" lon="-4.1511240">
        <ele>447.6</ele>
        <time>2021-12-28T10:10:15Z</time>
      </trkpt>
      <trkpt lat="37.6037410" lon="-4.1511820">
        <ele>447.6</ele>
        <time>2021-12-28T10:10:16Z</time>
      </trkpt>
      <trkpt lat="37.6037660" lon="-4.1512360">
        <ele>447.6</ele>
        <time>2021-12-28T10:10:17Z</time>
      </trkpt>
      <trkpt lat="37.6037950" lon="-4.1512920">
        <ele>447.4</ele>
        <time>2021-12-28T10:10:18Z</time>
      </trkpt>
      <trkpt lat="37.6038240" lon="-4.1513470">
        <ele>447.4</ele>
        <time>2021-12-28T10:10:19Z</time>
      </trkpt>
      <trkpt lat="37.6038530" lon="-4.1514000">
        <ele>447.4</ele>
        <time>2021-12-28T10:10:20Z</time>
      </trkpt>
      <trkpt lat="37.6038780" lon="-4.1514540">
        <ele>447.4</ele>
        <time>2021-12-28T10:10:21Z</time>
      </trkpt>
      <trkpt lat="37.6039070" lon="-4.1515060">
        <ele>447.2</ele>
        <time>2021-12-28T10:10:22Z</time>
      </trkpt>
      <trkpt lat="37.6039390" lon="-4.1515560">
        <ele>447.2</ele>
        <time>2021-12-28T10:10:23Z</time>
      </trkpt>
      <trkpt lat="37.6039650" lon="-4.1516060">
        <ele>447.0</ele>
        <time>2021-12-28T10:10:24Z</time>
      </trkpt>
      <trkpt lat="37.6039970" lon="-4.1516580">
        <ele>446.8</ele>
        <time>2021-12-28T10:10:25Z</time>
      </trkpt>
      <trkpt lat="37.6040260" lon="-4.1517100">
        <ele>446.8</ele>
        <time>2021-12-28T10:10:26Z</time>
      </trkpt>
      <trkpt lat="37.6040540" lon="-4.1517600">
        <ele>446.6</ele>
        <time>2021-12-28T10:10:27Z</time>
      </trkpt>
      <trkpt lat="37.6040830" lon="-4.1518120">
        <ele>446.6</ele>
        <time>2021-12-28T10:10:28Z</time>
      </trkpt>
      <trkpt lat="37.6041120" lon="-4.1518650">
        <ele>446.4</ele>
        <time>2021-12-28T10:10:29Z</time>
      </trkpt>
      <trkpt lat="37.6041380" lon="-4.1519160">
        <ele>446.4</ele>
        <time>2021-12-28T10:10:30Z</time>
      </trkpt>
      <trkpt lat="37.6041630" lon="-4.1519700">
        <ele>446.2</ele>
        <time>2021-12-28T10:10:31Z</time>
      </trkpt>
      <trkpt lat="37.6041950" lon="-4.1520250">
        <ele>446.2</ele>
        <time>2021-12-28T10:10:32Z</time>
      </trkpt>
      <trkpt lat="37.6042210" lon="-4.1520820">
        <ele>446.2</ele>
        <time>2021-12-28T10:10:33Z</time>
      </trkpt>
      <trkpt lat="37.6042530" lon="-4.1521350">
        <ele>446.2</ele>
        <time>2021-12-28T10:10:34Z</time>
      </trkpt>
      <trkpt lat="37.6042780" lon="-4.1521870">
        <ele>446.2</ele>
        <time>2021-12-28T10:10:35Z</time>
      </trkpt>
      <trkpt lat="37.6043100" lon="-4.1522400">
        <ele>446.0</ele>
        <time>2021-12-28T10:10:36Z</time>
      </trkpt>
      <trkpt lat="37.6043390" lon="-4.1522950">
        <ele>446.0</ele>
        <time>2021-12-28T10:10:37Z</time>
      </trkpt>
      <trkpt lat="37.6043650" lon="-4.1523480">
        <ele>445.8</ele>
        <time>2021-12-28T10:10:38Z</time>
      </trkpt>
      <trkpt lat="37.6043940" lon="-4.1524020">
        <ele>445.8</ele>
        <time>2021-12-28T10:10:39Z</time>
      </trkpt>
      <trkpt lat="37.6044220" lon="-4.1524570">
        <ele>445.8</ele>
        <time>2021-12-28T10:10:40Z</time>
      </trkpt>
      <trkpt lat="37.6044510" lon="-4.1525140">
        <ele>445.8</ele>
        <time>2021-12-28T10:10:41Z</time>
      </trkpt>
      <trkpt lat="37.6044770" lon="-4.1525680">
        <ele>445.8</ele>
        <time>2021-12-28T10:10:42Z</time>
      </trkpt>
      <trkpt lat="37.6045090" lon="-4.1526230">
        <ele>445.6</ele>
        <time>2021-12-28T10:10:43Z</time>
      </trkpt>
      <trkpt lat="37.6045380" lon="-4.1526760">
        <ele>445.6</ele>
        <time>2021-12-28T10:10:44Z</time>
      </trkpt>
      <trkpt lat="37.6045700" lon="-4.1527330">
        <ele>445.6</ele>
        <time>2021-12-28T10:10:45Z</time>
      </trkpt>
      <trkpt lat="37.6045980" lon="-4.1527870">
        <ele>445.6</ele>
        <time>2021-12-28T10:10:46Z</time>
      </trkpt>
      <trkpt lat="37.6046300" lon="-4.1528420">
        <ele>445.4</ele>
        <time>2021-12-28T10:10:47Z</time>
      </trkpt>
      <trkpt lat="37.6046590" lon="-4.1528970">
        <ele>445.4</ele>
        <time>2021-12-28T10:10:48Z</time>
      </trkpt>
      <trkpt lat="37.6046880" lon="-4.1529530">
        <ele>445.4</ele>
        <time>2021-12-28T10:10:49Z</time>
      </trkpt>
      <trkpt lat="37.6047170" lon="-4.1530100">
        <ele>445.2</ele>
        <time>2021-12-28T10:10:50Z</time>
      </trkpt>
      <trkpt lat="37.6047490" lon="-4.1530630">
        <ele>445.2</ele>
        <time>2021-12-28T10:10:51Z</time>
      </trkpt>
      <trkpt lat="37.6047740" lon="-4.1531200">
        <ele>445.0</ele>
        <time>2021-12-28T10:10:52Z</time>
      </trkpt>
      <trkpt lat="37.6048060" lon="-4.1531750">
        <ele>445.0</ele>
        <time>2021-12-28T10:10:53Z</time>
      </trkpt>
      <trkpt lat="37.6048380" lon="-4.1532280">
        <ele>445.0</ele>
        <time>2021-12-28T10:10:54Z</time>
      </trkpt>
      <trkpt lat="37.6048700" lon="-4.1532850">
        <ele>444.8</ele>
        <time>2021-12-28T10:10:55Z</time>
      </trkpt>
      <trkpt lat="37.6048960" lon="-4.1533420">
        <ele>444.8</ele>
        <time>2021-12-28T10:10:56Z</time>
      </trkpt>
      <trkpt lat="37.6049280" lon="-4.1533980">
        <ele>444.6</ele>
        <time>2021-12-28T10:10:57Z</time>
      </trkpt>
      <trkpt lat="37.6049540" lon="-4.1534550">
        <ele>444.6</ele>
        <time>2021-12-28T10:10:58Z</time>
      </trkpt>
      <trkpt lat="37.6049860" lon="-4.1535120">
        <ele>444.4</ele>
        <time>2021-12-28T10:10:59Z</time>
      </trkpt>
      <trkpt lat="37.6050140" lon="-4.1535700">
        <ele>444.4</ele>
        <time>2021-12-28T10:11:00Z</time>
      </trkpt>
      <trkpt lat="37.6050400" lon="-4.1536300">
        <ele>444.4</ele>
        <time>2021-12-28T10:11:01Z</time>
      </trkpt>
      <trkpt lat="37.6050720" lon="-4.1536900">
        <ele>444.2</ele>
        <time>2021-12-28T10:11:02Z</time>
      </trkpt>
      <trkpt lat="37.6050980" lon="-4.1537480">
        <ele>444.2</ele>
        <time>2021-12-28T10:11:03Z</time>
      </trkpt>
      <trkpt lat="37.6051260" lon="-4.1538080">
        <ele>444.0</ele>
        <time>2021-12-28T10:11:04Z</time>
      </trkpt>
      <trkpt lat="37.6051490" lon="-4.1538700">
        <ele>444.0</ele>
        <time>2021-12-28T10:11:05Z</time>
      </trkpt>
      <trkpt lat="37.6051740" lon="-4.1539350">
        <ele>444.0</ele>
        <time>2021-12-28T10:11:06Z</time>
      </trkpt>
      <trkpt lat="37.6052030" lon="-4.1540020">
        <ele>444.0</ele>
        <time>2021-12-28T10:11:07Z</time>
      </trkpt>
      <trkpt lat="37.6052260" lon="-4.1540650">
        <ele>443.8</ele>
        <time>2021-12-28T10:11:08Z</time>
      </trkpt>
      <trkpt lat="37.6052480" lon="-4.1541280">
        <ele>443.8</ele>
        <time>2021-12-28T10:11:09Z</time>
      </trkpt>
      <trkpt lat="37.6052700" lon="-4.1541920">
        <ele>443.6</ele>
        <time>2021-12-28T10:11:10Z</time>
      </trkpt>
      <trkpt lat="37.6052930" lon="-4.1542550">
        <ele>443.4</ele>
        <time>2021-12-28T10:11:11Z</time>
      </trkpt>
      <trkpt lat="37.6053120" lon="-4.1543200">
        <ele>443.4</ele>
        <time>2021-12-28T10:11:12Z</time>
      </trkpt>
      <trkpt lat="37.6053310" lon="-4.1543850">
        <ele>443.2</ele>
        <time>2021-12-28T10:11:13Z</time>
      </trkpt>
      <trkpt lat="37.6053470" lon="-4.1544500">
        <ele>443.2</ele>
        <time>2021-12-28T10:11:14Z</time>
      </trkpt>
      <trkpt lat="37.6053630" lon="-4.1545200">
        <ele>443.2</ele>
        <time>2021-12-28T10:11:15Z</time>
      </trkpt>
      <trkpt lat="37.6053760" lon="-4.1545880">
        <ele>443.2</ele>
        <time>2021-12-28T10:11:16Z</time>
      </trkpt>
      <trkpt lat="37.6053890" lon="-4.1546550">
        <ele>443.0</ele>
        <time>2021-12-28T10:11:17Z</time>
      </trkpt>
      <trkpt lat="37.6054020" lon="-4.1547230">
        <ele>443.0</ele>
        <time>2021-12-28T10:11:18Z</time>
      </trkpt>
      <trkpt lat="37.6054110" lon="-4.1547920">
        <ele>442.8</ele>
        <time>2021-12-28T10:11:19Z</time>
      </trkpt>
      <trkpt lat="37.6054240" lon="-4.1548600">
        <ele>442.8</ele>
        <time>2021-12-28T10:11:20Z</time>
      </trkpt>
      <trkpt lat="37.6054300" lon="-4.1549280">
        <ele>442.6</ele>
        <time>2021-12-28T10:11:21Z</time>
      </trkpt>
      <trkpt lat="37.6054370" lon="-4.1549970">
        <ele>442.4</ele>
        <time>2021-12-28T10:11:22Z</time>
      </trkpt>
      <trkpt lat="37.6054430" lon="-4.1550660">
        <ele>442.4</ele>
        <time>2021-12-28T10:11:23Z</time>
      </trkpt>
      <trkpt lat="37.6054460" lon="-4.1551350">
        <ele>442.2</ele>
        <time>2021-12-28T10:11:24Z</time>
      </trkpt>
      <trkpt lat="37.6054500" lon="-4.1552030">
        <ele>442.2</ele>
        <time>2021-12-28T10:11:25Z</time>
      </trkpt>
      <trkpt lat="37.6054530" lon="-4.1552720">
        <ele>442.0</ele>
        <time>2021-12-28T10:11:26Z</time>
      </trkpt>
      <trkpt lat="37.6054560" lon="-4.1553420">
        <ele>442.0</ele>
        <time>2021-12-28T10:11:27Z</time>
      </trkpt>
      <trkpt lat="37.6054560" lon="-4.1554060">
        <ele>442.0</ele>
        <time>2021-12-28T10:11:28Z</time>
      </trkpt>
      <trkpt lat="37.6054620" lon="-4.1554720">
        <ele>441.8</ele>
        <time>2021-12-28T10:11:29Z</time>
      </trkpt>
      <trkpt lat="37.6054620" lon="-4.1555370">
        <ele>441.6</ele>
        <time>2021-12-28T10:11:30Z</time>
      </trkpt>
      <trkpt lat="37.6054620" lon="-4.1556020">
        <ele>441.4</ele>
        <time>2021-12-28T10:11:31Z</time>
      </trkpt>
      <trkpt lat="37.6054560" lon="-4.1556680">
        <ele>441.2</ele>
        <time>2021-12-28T10:11:32Z</time>
      </trkpt>
      <trkpt lat="37.6054530" lon="-4.1557360">
        <ele>441.2</ele>
        <time>2021-12-28T10:11:33Z</time>
      </trkpt>
      <trkpt lat="37.6054500" lon="-4.1558050">
        <ele>441.0</ele>
        <time>2021-12-28T10:11:34Z</time>
      </trkpt>
      <trkpt lat="37.6054430" lon="-4.1558720">
        <ele>440.8</ele>
        <time>2021-12-28T10:11:35Z</time>
      </trkpt>
      <trkpt lat="37.6054300" lon="-4.1559400">
        <ele>440.8</ele>
        <time>2021-12-28T10:11:36Z</time>
      </trkpt>
      <trkpt lat="37.6054240" lon="-4.1560080">
        <ele>440.6</ele>
        <time>2021-12-28T10:11:37Z</time>
      </trkpt>
      <trkpt lat="37.6054110" lon="-4.1560750">
        <ele>440.6</ele>
        <time>2021-12-28T10:11:38Z</time>
      </trkpt>
      <trkpt lat="37.6054020" lon="-4.1561420">
        <ele>440.4</ele>
        <time>2021-12-28T10:11:39Z</time>
      </trkpt>
      <trkpt lat="37.6053920" lon="-4.1562100">
        <ele>440.4</ele>
        <time>2021-12-28T10:11:40Z</time>
      </trkpt>
      <trkpt lat="37.6053820" lon="-4.1562800">
        <ele>440.2</ele>
        <time>2021-12-28T10:11:41Z</time>
      </trkpt>
      <trkpt lat="37.6053700" lon="-4.1563480">
        <ele>440.2</ele>
        <time>2021-12-28T10:11:42Z</time>
      </trkpt>
      <trkpt lat="37.6053540" lon="-4.1564150">
        <ele>440.0</ele>
        <time>2021-12-28T10:11:43Z</time>
      </trkpt>
      <trkpt lat="37.6053340" lon="-4.1564800">
        <ele>440.0</ele>
        <time>2021-12-28T10:11:44Z</time>
      </trkpt>
      <trkpt lat="37.6053180" lon="-4.1565450">
        <ele>440.0</ele>
        <time>2021-12-28T10:11:45Z</time>
      </trkpt>
      <trkpt lat="37.6053020" lon="-4.1566120">
        <ele>439.8</ele>
        <time>2021-12-28T10:11:46Z</time>
      </trkpt>
      <trkpt lat="37.6052830" lon="-4.1566780">
        <ele>439.8</ele>
        <time>2021-12-28T10:11:47Z</time>
      </trkpt>
      <trkpt lat="37.6052580" lon="-4.1567420">
        <ele>439.8</ele>
        <time>2021-12-28T10:11:48Z</time>
      </trkpt>
      <trkpt lat="37.6052380" lon="-4.1568050">
        <ele>439.6</ele>
        <time>2021-12-28T10:11:49Z</time>
      </trkpt>
      <trkpt lat="37.6052130" lon="-4.1568680">
        <ele>439.6</ele>
        <time>2021-12-28T10:11:50Z</time>
      </trkpt>
      <trkpt lat="37.6051900" lon="-4.1569320">
        <ele>439.6</ele>
        <time>2021-12-28T10:11:51Z</time>
      </trkpt>
      <trkpt lat="37.6051680" lon="-4.1569930">
        <ele>439.6</ele>
        <time>2021-12-28T10:11:52Z</time>
      </trkpt>
      <trkpt lat="37.6051390" lon="-4.1570540">
        <ele>439.6</ele>
        <time>2021-12-28T10:11:53Z</time>
      </trkpt>
      <trkpt lat="37.6051140" lon="-4.1571120">
        <ele>439.6</ele>
        <time>2021-12-28T10:11:54Z</time>
      </trkpt>
      <trkpt lat="37.6050880" lon="-4.1571720">
        <ele>439.6</ele>
        <time>2021-12-28T10:11:55Z</time>
      </trkpt>
      <trkpt lat="37.6050560" lon="-4.1572320">
        <ele>439.4</ele>
        <time>2021-12-28T10:11:56Z</time>
      </trkpt>
      <trkpt lat="37.6050300" lon="-4.1572920">
        <ele>439.4</ele>
        <time>2021-12-28T10:11:57Z</time>
      </trkpt>
      <trkpt lat="37.6049980" lon="-4.1573500">
        <ele>439.2</ele>
        <time>2021-12-28T10:11:58Z</time>
      </trkpt>
      <trkpt lat="37.6049700" lon="-4.1574050">
        <ele>439.2</ele>
        <time>2021-12-28T10:11:59Z</time>
      </trkpt>
      <trkpt lat="37.6049380" lon="-4.1574600">
        <ele>439.0</ele>
        <time>2021-12-28T10:12:00Z</time>
      </trkpt>
      <trkpt lat="37.6049090" lon="-4.1575130">
        <ele>439.0</ele>
        <time>2021-12-28T10:12:01Z</time>
      </trkpt>
      <trkpt lat="37.6048740" lon="-4.1575650">
        <ele>438.8</ele>
        <time>2021-12-28T10:12:02Z</time>
      </trkpt>
      <trkpt lat="37.6048380" lon="-4.1576150">
        <ele>438.8</ele>
        <time>2021-12-28T10:12:03Z</time>
      </trkpt>
      <trkpt lat="37.6048060" lon="-4.1576620">
        <ele>438.6</ele>
        <time>2021-12-28T10:12:04Z</time>
      </trkpt>
      <trkpt lat="37.6047710" lon="-4.1577100">
        <ele>438.4</ele>
        <time>2021-12-28T10:12:05Z</time>
      </trkpt>
      <trkpt lat="37.6047360" lon="-4.1577580">
        <ele>438.4</ele>
        <time>2021-12-28T10:12:06Z</time>
      </trkpt>
      <trkpt lat="37.6046980" lon="-4.1578040">
        <ele>438.2</ele>
        <time>2021-12-28T10:12:07Z</time>
      </trkpt>
      <trkpt lat="37.6046590" lon="-4.1578500">
        <ele>438.2</ele>
        <time>2021-12-28T10:12:08Z</time>
      </trkpt>
      <trkpt lat="37.6046270" lon="-4.1578950">
        <ele>438.2</ele>
        <time>2021-12-28T10:12:09Z</time>
      </trkpt>
      <trkpt lat="37.6045890" lon="-4.1579420">
        <ele>438.2</ele>
        <time>2021-12-28T10:12:10Z</time>
      </trkpt>
      <trkpt lat="37.6045500" lon="-4.1579820">
        <ele>438.0</ele>
        <time>2021-12-28T10:12:11Z</time>
      </trkpt>
      <trkpt lat="37.6045090" lon="-4.1580220">
        <ele>438.0</ele>
        <time>2021-12-28T10:12:12Z</time>
      </trkpt>
      <trkpt lat="37.6044700" lon="-4.1580620">
        <ele>437.8</ele>
        <time>2021-12-28T10:12:13Z</time>
      </trkpt>
      <trkpt lat="37.6044290" lon="-4.1581020">
        <ele>437.8</ele>
        <time>2021-12-28T10:12:14Z</time>
      </trkpt>
      <trkpt lat="37.6043840" lon="-4.1581420">
        <ele>437.8</ele>
        <time>2021-12-28T10:12:15Z</time>
      </trkpt>
      <trkpt lat="37.6043390" lon="-4.1581800">
        <ele>437.8</ele>
        <time>2021-12-28T10:12:16Z</time>
      </trkpt>
      <trkpt lat="37.6042980" lon="-4.1582180">
        <ele>437.6</ele>
        <time>2021-12-28T10:12:17Z</time>
      </trkpt>
      <trkpt lat="37.6042560" lon="-4.1582550">
        <ele>437.6</ele>
        <time>2021-12-28T10:12:18Z</time>
      </trkpt>
      <trkpt lat="37.6042110" lon="-4.1582900">
        <ele>437.4</ele>
        <time>2021-12-28T10:12:19Z</time>
      </trkpt>
      <trkpt lat="37.6041730" lon="-4.1583230">
        <ele>437.2</ele>
        <time>2021-12-28T10:12:20Z</time>
      </trkpt>
      <trkpt lat="37.6041250" lon="-4.1583570">
        <ele>437.2</ele>
        <time>2021-12-28T10:12:21Z</time>
      </trkpt>
      <trkpt lat="37.6040860" lon="-4.1583870">
        <ele>437.0</ele>
        <time>2021-12-28T10:12:22Z</time>
      </trkpt>
      <trkpt lat="37.6040450" lon="-4.1584170">
        <ele>437.0</ele>
        <time>2021-12-28T10:12:23Z</time>
      </trkpt>
      <trkpt lat="37.6040030" lon="-4.1584440">
        <ele>436.8</ele>
        <time>2021-12-28T10:12:24Z</time>
      </trkpt>
      <trkpt lat="37.6039620" lon="-4.1584680">
        <ele>436.8</ele>
        <time>2021-12-28T10:12:25Z</time>
      </trkpt>
      <trkpt lat="37.6039230" lon="-4.1584940">
        <ele>436.6</ele>
        <time>2021-12-28T10:12:26Z</time>
      </trkpt>
      <trkpt lat="37.6038820" lon="-4.1585200">
        <ele>436.4</ele>
        <time>2021-12-28T10:12:27Z</time>
      </trkpt>
      <trkpt lat="37.6038400" lon="-4.1585450">
        <ele>436.4</ele>
        <time>2021-12-28T10:12:28Z</time>
      </trkpt>
      <trkpt lat="37.6037980" lon="-4.1585700">
        <ele>436.2</ele>
        <time>2021-12-28T10:12:29Z</time>
      </trkpt>
      <trkpt lat="37.6037470" lon="-4.1585900">
        <ele>436.2</ele>
        <time>2021-12-28T10:12:30Z</time>
      </trkpt>
      <trkpt lat="37.6037060" lon="-4.1586120">
        <ele>436.0</ele>
        <time>2021-12-28T10:12:31Z</time>
      </trkpt>
      <trkpt lat="37.6036640" lon="-4.1586350">
        <ele>435.8</ele>
        <time>2021-12-28T10:12:32Z</time>
      </trkpt>
      <trkpt lat="37.6036220" lon="-4.1586550">
        <ele>435.8</ele>
        <time>2021-12-28T10:12:33Z</time>
      </trkpt>
      <trkpt lat="37.6035780" lon="-4.1586750">
        <ele>435.8</ele>
        <time>2021-12-28T10:12:34Z</time>
      </trkpt>
      <trkpt lat="37.6035300" lon="-4.1586930">
        <ele>435.6</ele>
        <time>2021-12-28T10:12:35Z</time>
      </trkpt>
      <trkpt lat="37.6034850" lon="-4.1587080">
        <ele>435.6</ele>
        <time>2021-12-28T10:12:36Z</time>
      </trkpt>
      <trkpt lat="37.6034400" lon="-4.1587220">
        <ele>435.6</ele>
        <time>2021-12-28T10:12:37Z</time>
      </trkpt>
      <trkpt lat="37.6033920" lon="-4.1587330">
        <ele>435.4</ele>
        <time>2021-12-28T10:12:38Z</time>
      </trkpt>
      <trkpt lat="37.6033470" lon="-4.1587450">
        <ele>435.4</ele>
        <time>2021-12-28T10:12:39Z</time>
      </trkpt>
      <trkpt lat="37.6032990" lon="-4.1587570">
        <ele>435.4</ele>
        <time>2021-12-28T10:12:40Z</time>
      </trkpt>
      <trkpt lat="37.6032510" lon="-4.1587720">
        <ele>435.2</ele>
        <time>2021-12-28T10:12:41Z</time>
      </trkpt>
      <trkpt lat="37.6032030" lon="-4.1587840">
        <ele>435.0</ele>
        <time>2021-12-28T10:12:42Z</time>
      </trkpt>
      <trkpt lat="37.6031580" lon="-4.1587920">
        <ele>435.0</ele>
        <time>2021-12-28T10:12:43Z</time>
      </trkpt>
      <trkpt lat="37.6031070" lon="-4.1588000">
        <ele>434.8</ele>
        <time>2021-12-28T10:12:44Z</time>
      </trkpt>
      <trkpt lat="37.6030590" lon="-4.1588050">
        <ele>434.8</ele>
        <time>2021-12-28T10:12:45Z</time>
      </trkpt>
      <trkpt lat="37.6030080" lon="-4.1588120">
        <ele>434.8</ele>
        <time>2021-12-28T10:12:46Z</time>
      </trkpt>
      <trkpt lat="37.6029600" lon="-4.1588180">
        <ele>434.8</ele>
        <time>2021-12-28T10:12:47Z</time>
      </trkpt>
      <trkpt lat="37.6029090" lon="-4.1588220">
        <ele>434.6</ele>
        <time>2021-12-28T10:12:48Z</time>
      </trkpt>
      <trkpt lat="37.6028540" lon="-4.1588250">
        <ele>434.6</ele>
        <time>2021-12-28T10:12:49Z</time>
      </trkpt>
      <trkpt lat="37.6028060" lon="-4.1588270">
        <ele>434.6</ele>
        <time>2021-12-28T10:12:50Z</time>
      </trkpt>
      <trkpt lat="37.6027550" lon="-4.1588280">
        <ele>434.4</ele>
        <time>2021-12-28T10:12:51Z</time>
      </trkpt>
      <trkpt lat="37.6027040" lon="-4.1588270">
        <ele>434.4</ele>
        <time>2021-12-28T10:12:52Z</time>
      </trkpt>
      <trkpt lat="37.6026530" lon="-4.1588270">
        <ele>434.4</ele>
        <time>2021-12-28T10:12:53Z</time>
      </trkpt>
      <trkpt lat="37.6026050" lon="-4.1588240">
        <ele>434.2</ele>
        <time>2021-12-28T10:12:54Z</time>
      </trkpt>
      <trkpt lat="37.6025540" lon="-4.1588200">
        <ele>434.2</ele>
        <time>2021-12-28T10:12:55Z</time>
      </trkpt>
      <trkpt lat="37.6025090" lon="-4.1588150">
        <ele>434.0</ele>
        <time>2021-12-28T10:12:56Z</time>
      </trkpt>
      <trkpt lat="37.6024580" lon="-4.1588070">
        <ele>433.8</ele>
        <time>2021-12-28T10:12:57Z</time>
      </trkpt>
      <trkpt lat="37.6024130" lon="-4.1588020">
        <ele>433.8</ele>
        <time>2021-12-28T10:12:58Z</time>
      </trkpt>
      <trkpt lat="37.6023680" lon="-4.1587950">
        <ele>433.8</ele>
        <time>2021-12-28T10:12:59Z</time>
      </trkpt>
      <trkpt lat="37.6023230" lon="-4.1587870">
        <ele>433.8</ele>
        <time>2021-12-28T10:13:00Z</time>
      </trkpt>
      <trkpt lat="37.6022720" lon="-4.1587770">
        <ele>433.6</ele>
        <time>2021-12-28T10:13:01Z</time>
      </trkpt>
      <trkpt lat="37.6022270" lon="-4.1587650">
        <ele>433.6</ele>
        <time>2021-12-28T10:13:02Z</time>
      </trkpt>
      <trkpt lat="37.6021790" lon="-4.1587520">
        <ele>433.8</ele>
        <time>2021-12-28T10:13:03Z</time>
      </trkpt>
      <trkpt lat="37.6021340" lon="-4.1587380">
        <ele>433.8</ele>
        <time>2021-12-28T10:13:04Z</time>
      </trkpt>
      <trkpt lat="37.6020900" lon="-4.1587270">
        <ele>433.8</ele>
        <time>2021-12-28T10:13:05Z</time>
      </trkpt>
      <trkpt lat="37.6020420" lon="-4.1587150">
        <ele>434.0</ele>
        <time>2021-12-28T10:13:06Z</time>
      </trkpt>
      <trkpt lat="37.6020000" lon="-4.1587020">
        <ele>434.0</ele>
        <time>2021-12-28T10:13:07Z</time>
      </trkpt>
      <trkpt lat="37.6019580" lon="-4.1586870">
        <ele>433.8</ele>
        <time>2021-12-28T10:13:08Z</time>
      </trkpt>
      <trkpt lat="37.6019140" lon="-4.1586700">
        <ele>433.8</ele>
        <time>2021-12-28T10:13:09Z</time>
      </trkpt>
      <trkpt lat="37.6018720" lon="-4.1586530">
        <ele>433.8</ele>
        <time>2021-12-28T10:13:10Z</time>
      </trkpt>
      <trkpt lat="37.6018340" lon="-4.1586350">
        <ele>433.8</ele>
        <time>2021-12-28T10:13:11Z</time>
      </trkpt>
      <trkpt lat="37.6017890" lon="-4.1586150">
        <ele>433.8</ele>
        <time>2021-12-28T10:13:12Z</time>
      </trkpt>
      <trkpt lat="37.6017470" lon="-4.1586000">
        <ele>433.8</ele>
        <time>2021-12-28T10:13:13Z</time>
      </trkpt>
      <trkpt lat="37.6017090" lon="-4.1585850">
        <ele>433.8</ele>
        <time>2021-12-28T10:13:14Z</time>
      </trkpt>
      <trkpt lat="37.6016740" lon="-4.1585660">
        <ele>433.8</ele>
        <time>2021-12-28T10:13:15Z</time>
      </trkpt>
      <trkpt lat="37.6016320" lon="-4.1585460">
        <ele>433.6</ele>
        <time>2021-12-28T10:13:16Z</time>
      </trkpt>
      <trkpt lat="37.6015940" lon="-4.1585250">
        <ele>433.6</ele>
        <time>2021-12-28T10:13:17Z</time>
      </trkpt>
      <trkpt lat="37.6015550" lon="-4.1585050">
        <ele>433.4</ele>
        <time>2021-12-28T10:13:18Z</time>
      </trkpt>
      <trkpt lat="37.6015170" lon="-4.1584800">
        <ele>433.4</ele>
        <time>2021-12-28T10:13:19Z</time>
      </trkpt>
      <trkpt lat="37.6014780" lon="-4.1584570">
        <ele>433.4</ele>
        <time>2021-12-28T10:13:20Z</time>
      </trkpt>
      <trkpt lat="37.6014400" lon="-4.1584340">
        <ele>433.4</ele>
        <time>2021-12-28T10:13:21Z</time>
      </trkpt>
      <trkpt lat="37.6014050" lon="-4.1584080">
        <ele>433.4</ele>
        <time>2021-12-28T10:13:22Z</time>
      </trkpt>
      <trkpt lat="37.6013660" lon="-4.1583820">
        <ele>433.4</ele>
        <time>2021-12-28T10:13:23Z</time>
      </trkpt>
      <trkpt lat="37.6013340" lon="-4.1583500">
        <ele>433.4</ele>
        <time>2021-12-28T10:13:24Z</time>
      </trkpt>
      <trkpt lat="37.6012990" lon="-4.1583180">
        <ele>433.2</ele>
        <time>2021-12-28T10:13:25Z</time>
      </trkpt>
      <trkpt lat="37.6012610" lon="-4.1582880">
        <ele>433.2</ele>
        <time>2021-12-28T10:13:26Z</time>
      </trkpt>
      <trkpt lat="37.6012220" lon="-4.1582600">
        <ele>433.0</ele>
        <time>2021-12-28T10:13:27Z</time>
      </trkpt>
      <trkpt lat="37.6011840" lon="-4.1582260">
        <ele>433.0</ele>
        <time>2021-12-28T10:13:28Z</time>
      </trkpt>
      <trkpt lat="37.6011520" lon="-4.1581930">
        <ele>432.8</ele>
        <time>2021-12-28T10:13:29Z</time>
      </trkpt>
      <trkpt lat="37.6011170" lon="-4.1581570">
        <ele>432.6</ele>
        <time>2021-12-28T10:13:30Z</time>
      </trkpt>
      <trkpt lat="37.6010820" lon="-4.1581180">
        <ele>432.6</ele>
        <time>2021-12-28T10:13:31Z</time>
      </trkpt>
      <trkpt lat="37.6010460" lon="-4.1580820">
        <ele>432.4</ele>
        <time>2021-12-28T10:13:32Z</time>
      </trkpt>
      <trkpt lat="37.6010140" lon="-4.1580450">
        <ele>432.4</ele>
        <time>2021-12-28T10:13:33Z</time>
      </trkpt>
      <trkpt lat="37.6009790" lon="-4.1580080">
        <ele>432.2</ele>
        <time>2021-12-28T10:13:34Z</time>
      </trkpt>
      <trkpt lat="37.6009440" lon="-4.1579680">
        <ele>432.2</ele>
        <time>2021-12-28T10:13:35Z</time>
      </trkpt>
      <trkpt lat="37.6009090" lon="-4.1579300">
        <ele>432.0</ele>
        <time>2021-12-28T10:13:36Z</time>
      </trkpt>
      <trkpt lat="37.6008770" lon="-4.1578880">
        <ele>431.8</ele>
        <time>2021-12-28T10:13:37Z</time>
      </trkpt>
      <trkpt lat="37.6008380" lon="-4.1578460">
        <ele>431.8</ele>
        <time>2021-12-28T10:13:38Z</time>
      </trkpt>
      <trkpt lat="37.6008030" lon="-4.1578070">
        <ele>431.6</ele>
        <time>2021-12-28T10:13:39Z</time>
      </trkpt>
      <trkpt lat="37.6007650" lon="-4.1577650">
        <ele>431.6</ele>
        <time>2021-12-28T10:13:40Z</time>
      </trkpt>
      <trkpt lat="37.6007260" lon="-4.1577220">
        <ele>431.4</ele>
        <time>2021-12-28T10:13:41Z</time>
      </trkpt>
      <trkpt lat="37.6006980" lon="-4.1576780">
        <ele>431.4</ele>
        <time>2021-12-28T10:13:42Z</time>
      </trkpt>
      <trkpt lat="37.6006590" lon="-4.1576370">
        <ele>431.4</ele>
        <time>2021-12-28T10:13:43Z</time>
      </trkpt>
      <trkpt lat="37.6006210" lon="-4.1575950">
        <ele>431.2</ele>
        <time>2021-12-28T10:13:44Z</time>
      </trkpt>
      <trkpt lat="37.6005860" lon="-4.1575530">
        <ele>431.2</ele>
        <time>2021-12-28T10:13:45Z</time>
      </trkpt>
      <trkpt lat="37.6005500" lon="-4.1575120">
        <ele>431.0</ele>
        <time>2021-12-28T10:13:46Z</time>
      </trkpt>
      <trkpt lat="37.6005120" lon="-4.1574750">
        <ele>430.8</ele>
        <time>2021-12-28T10:13:47Z</time>
      </trkpt>
      <trkpt lat="37.6004800" lon="-4.1574370">
        <ele>430.6</ele>
        <time>2021-12-28T10:13:48Z</time>
      </trkpt>
      <trkpt lat="37.6004450" lon="-4.1573970">
        <ele>430.4</ele>
        <time>2021-12-28T10:13:49Z</time>
      </trkpt>
      <trkpt lat="37.6004130" lon="-4.1573570">
        <ele>430.4</ele>
        <time>2021-12-28T10:13:50Z</time>
      </trkpt>
      <trkpt lat="37.6003840" lon="-4.1573180">
        <ele>430.2</ele>
        <time>2021-12-28T10:13:51Z</time>
      </trkpt>
      <trkpt lat="37.6003520" lon="-4.1572800">
        <ele>430.0</ele>
        <time>2021-12-28T10:13:52Z</time>
      </trkpt>
      <trkpt lat="37.6003140" lon="-4.1572450">
        <ele>429.8</ele>
        <time>2021-12-28T10:13:53Z</time>
      </trkpt>
      <trkpt lat="37.6002850" lon="-4.1572080">
        <ele>429.8</ele>
        <time>2021-12-28T10:13:54Z</time>
      </trkpt>
      <trkpt lat="37.6002500" lon="-4.1571720">
        <ele>429.6</ele>
        <time>2021-12-28T10:13:55Z</time>
      </trkpt>
      <trkpt lat="37.6002140" lon="-4.1571330">
        <ele>429.6</ele>
        <time>2021-12-28T10:13:56Z</time>
      </trkpt>
      <trkpt lat="37.6001820" lon="-4.1570940">
        <ele>429.6</ele>
        <time>2021-12-28T10:13:57Z</time>
      </trkpt>
      <trkpt lat="37.6001470" lon="-4.1570500">
        <ele>429.4</ele>
        <time>2021-12-28T10:13:58Z</time>
      </trkpt>
      <trkpt lat="37.6001120" lon="-4.1570100">
        <ele>429.4</ele>
        <time>2021-12-28T10:13:59Z</time>
      </trkpt>
      <trkpt lat="37.6000740" lon="-4.1569700">
        <ele>429.4</ele>
        <time>2021-12-28T10:14:00Z</time>
      </trkpt>
      <trkpt lat="37.6000350" lon="-4.1569300">
        <ele>429.2</ele>
        <time>2021-12-28T10:14:01Z</time>
      </trkpt>
      <trkpt lat="37.6000030" lon="-4.1568900">
        <ele>429.2</ele>
        <time>2021-12-28T10:14:02Z</time>
      </trkpt>
      <trkpt lat="37.5999680" lon="-4.1568520">
        <ele>429.2</ele>
        <time>2021-12-28T10:14:03Z</time>
      </trkpt>
      <trkpt lat="37.5999300" lon="-4.1568150">
        <ele>429.2</ele>
        <time>2021-12-28T10:14:04Z</time>
      </trkpt>
      <trkpt lat="37.5998910" lon="-4.1567820">
        <ele>429.0</ele>
        <time>2021-12-28T10:14:05Z</time>
      </trkpt>
      <trkpt lat="37.5998530" lon="-4.1567470">
        <ele>429.0</ele>
        <time>2021-12-28T10:14:06Z</time>
      </trkpt>
      <trkpt lat="37.5998140" lon="-4.1567120">
        <ele>429.0</ele>
        <time>2021-12-28T10:14:07Z</time>
      </trkpt>
      <trkpt lat="37.5997820" lon="-4.1566770">
        <ele>429.0</ele>
        <time>2021-12-28T10:14:08Z</time>
      </trkpt>
      <trkpt lat="37.5997380" lon="-4.1566430">
        <ele>429.0</ele>
        <time>2021-12-28T10:14:09Z</time>
      </trkpt>
      <trkpt lat="37.5997020" lon="-4.1566080">
        <ele>428.8</ele>
        <time>2021-12-28T10:14:10Z</time>
      </trkpt>
      <trkpt lat="37.5996640" lon="-4.1565730">
        <ele>428.6</ele>
        <time>2021-12-28T10:14:11Z</time>
      </trkpt>
      <trkpt lat="37.5996220" lon="-4.1565420">
        <ele>428.6</ele>
        <time>2021-12-28T10:14:12Z</time>
      </trkpt>
      <trkpt lat="37.5995840" lon="-4.1565060">
        <ele>428.4</ele>
        <time>2021-12-28T10:14:13Z</time>
      </trkpt>
      <trkpt lat="37.5995390" lon="-4.1564730">
        <ele>428.4</ele>
        <time>2021-12-28T10:14:14Z</time>
      </trkpt>
      <trkpt lat="37.5994980" lon="-4.1564420">
        <ele>428.2</ele>
        <time>2021-12-28T10:14:15Z</time>
      </trkpt>
      <trkpt lat="37.5994560" lon="-4.1564140">
        <ele>428.0</ele>
        <time>2021-12-28T10:14:16Z</time>
      </trkpt>
      <trkpt lat="37.5994140" lon="-4.1563840">
        <ele>427.8</ele>
        <time>2021-12-28T10:14:17Z</time>
      </trkpt>
      <trkpt lat="37.5993760" lon="-4.1563480">
        <ele>427.6</ele>
        <time>2021-12-28T10:14:18Z</time>
      </trkpt>
      <trkpt lat="37.5993340" lon="-4.1563170">
        <ele>427.4</ele>
        <time>2021-12-28T10:14:19Z</time>
      </trkpt>
      <trkpt lat="37.5992960" lon="-4.1562870">
        <ele>427.4</ele>
        <time>2021-12-28T10:14:20Z</time>
      </trkpt>
      <trkpt lat="37.5992610" lon="-4.1562630">
        <ele>427.2</ele>
        <time>2021-12-28T10:14:21Z</time>
      </trkpt>
      <trkpt lat="37.5992320" lon="-4.1562450">
        <ele>427.2</ele>
        <time>2021-12-28T10:14:22Z</time>
      </trkpt>
      <trkpt lat="37.5992060" lon="-4.1562280">
        <ele>427.0</ele>
        <time>2021-12-28T10:14:23Z</time>
      </trkpt>
      <trkpt lat="37.5991740" lon="-4.1562120">
        <ele>427.0</ele>
        <time>2021-12-28T10:14:24Z</time>
      </trkpt>
      <trkpt lat="37.5991420" lon="-4.1561930">
        <ele>426.8</ele>
        <time>2021-12-28T10:14:25Z</time>
      </trkpt>
      <trkpt lat="37.5991170" lon="-4.1561760">
        <ele>426.8</ele>
        <time>2021-12-28T10:14:26Z</time>
      </trkpt>
      <trkpt lat="37.5990880" lon="-4.1561600">
        <ele>426.6</ele>
        <time>2021-12-28T10:14:27Z</time>
      </trkpt>
      <trkpt lat="37.5990590" lon="-4.1561450">
        <ele>426.6</ele>
        <time>2021-12-28T10:14:28Z</time>
      </trkpt>
      <trkpt lat="37.5990300" lon="-4.1561280">
        <ele>426.6</ele>
        <time>2021-12-28T10:14:29Z</time>
      </trkpt>
      <trkpt lat="37.5990020" lon="-4.1561120">
        <ele>426.6</ele>
        <time>2021-12-28T10:14:30Z</time>
      </trkpt>
      <trkpt lat="37.5989730" lon="-4.1560920">
        <ele>426.4</ele>
        <time>2021-12-28T10:14:31Z</time>
      </trkpt>
      <trkpt lat="37.5989410" lon="-4.1560750">
        <ele>426.4</ele>
        <time>2021-12-28T10:14:32Z</time>
      </trkpt>
      <trkpt lat="37.5989150" lon="-4.1560580">
        <ele>426.4</ele>
        <time>2021-12-28T10:14:33Z</time>
      </trkpt>
      <trkpt lat="37.5988830" lon="-4.1560420">
        <ele>426.4</ele>
        <time>2021-12-28T10:14:34Z</time>
      </trkpt>
      <trkpt lat="37.5988510" lon="-4.1560250">
        <ele>426.4</ele>
        <time>2021-12-28T10:14:35Z</time>
      </trkpt>
      <trkpt lat="37.5988190" lon="-4.1560100">
        <ele>426.4</ele>
        <time>2021-12-28T10:14:36Z</time>
      </trkpt>
      <trkpt lat="37.5987900" lon="-4.1559950">
        <ele>426.4</ele>
        <time>2021-12-28T10:14:37Z</time>
      </trkpt>
      <trkpt lat="37.5987580" lon="-4.1559800">
        <ele>426.2</ele>
        <time>2021-12-28T10:14:38Z</time>
      </trkpt>
      <trkpt lat="37.5987300" lon="-4.1559650">
        <ele>426.2</ele>
        <time>2021-12-28T10:14:39Z</time>
      </trkpt>
      <trkpt lat="37.5987010" lon="-4.1559520">
        <ele>426.0</ele>
        <time>2021-12-28T10:14:40Z</time>
      </trkpt>
      <trkpt lat="37.5986720" lon="-4.1559380">
        <ele>426.0</ele>
        <time>2021-12-28T10:14:41Z</time>
      </trkpt>
      <trkpt lat="37.5986400" lon="-4.1559250">
        <ele>426.0</ele>
        <time>2021-12-28T10:14:42Z</time>
      </trkpt>
      <trkpt lat="37.5986110" lon="-4.1559120">
        <ele>426.0</ele>
        <time>2021-12-28T10:14:43Z</time>
      </trkpt>
      <trkpt lat="37.5985820" lon="-4.1558980">
        <ele>425.8</ele>
        <time>2021-12-28T10:14:44Z</time>
      </trkpt>
      <trkpt lat="37.5985540" lon="-4.1558850">
        <ele>425.8</ele>
        <time>2021-12-28T10:14:45Z</time>
      </trkpt>
      <trkpt lat="37.5985220" lon="-4.1558750">
        <ele>425.8</ele>
        <time>2021-12-28T10:14:46Z</time>
      </trkpt>
      <trkpt lat="37.5984930" lon="-4.1558630">
        <ele>425.6</ele>
        <time>2021-12-28T10:14:47Z</time>
      </trkpt>
      <trkpt lat="37.5984640" lon="-4.1558550">
        <ele>425.6</ele>
        <time>2021-12-28T10:14:48Z</time>
      </trkpt>
      <trkpt lat="37.5984320" lon="-4.1558450">
        <ele>425.4</ele>
        <time>2021-12-28T10:14:49Z</time>
      </trkpt>
      <trkpt lat="37.5984000" lon="-4.1558350">
        <ele>425.4</ele>
        <time>2021-12-28T10:14:50Z</time>
      </trkpt>
      <trkpt lat="37.5983680" lon="-4.1558250">
        <ele>425.2</ele>
        <time>2021-12-28T10:14:51Z</time>
      </trkpt>
      <trkpt lat="37.5983390" lon="-4.1558150">
        <ele>425.2</ele>
        <time>2021-12-28T10:14:52Z</time>
      </trkpt>
      <trkpt lat="37.5983070" lon="-4.1558050">
        <ele>425.2</ele>
        <time>2021-12-28T10:14:53Z</time>
      </trkpt>
      <trkpt lat="37.5982780" lon="-4.1557950">
        <ele>425.2</ele>
        <time>2021-12-28T10:14:54Z</time>
      </trkpt>
      <trkpt lat="37.5982430" lon="-4.1557850">
        <ele>425.2</ele>
        <time>2021-12-28T10:14:55Z</time>
      </trkpt>
      <trkpt lat="37.5982080" lon="-4.1557760">
        <ele>425.2</ele>
        <time>2021-12-28T10:14:56Z</time>
      </trkpt>
      <trkpt lat="37.5981760" lon="-4.1557660">
        <ele>425.2</ele>
        <time>2021-12-28T10:14:57Z</time>
      </trkpt>
      <trkpt lat="37.5981410" lon="-4.1557560">
        <ele>425.2</ele>
        <time>2021-12-28T10:14:58Z</time>
      </trkpt>
      <trkpt lat="37.5981090" lon="-4.1557500">
        <ele>425.2</ele>
        <time>2021-12-28T10:14:59Z</time>
      </trkpt>
      <trkpt lat="37.5980770" lon="-4.1557420">
        <ele>425.0</ele>
        <time>2021-12-28T10:15:00Z</time>
      </trkpt>
      <trkpt lat="37.5980420" lon="-4.1557350">
        <ele>425.0</ele>
        <time>2021-12-28T10:15:01Z</time>
      </trkpt>
      <trkpt lat="37.5980100" lon="-4.1557280">
        <ele>424.8</ele>
        <time>2021-12-28T10:15:02Z</time>
      </trkpt>
      <trkpt lat="37.5979780" lon="-4.1557170">
        <ele>424.8</ele>
        <time>2021-12-28T10:15:03Z</time>
      </trkpt>
      <trkpt lat="37.5979390" lon="-4.1557100">
        <ele>424.6</ele>
        <time>2021-12-28T10:15:04Z</time>
      </trkpt>
      <trkpt lat="37.5979040" lon="-4.1557050">
        <ele>424.6</ele>
        <time>2021-12-28T10:15:05Z</time>
      </trkpt>
      <trkpt lat="37.5978690" lon="-4.1557000">
        <ele>424.4</ele>
        <time>2021-12-28T10:15:06Z</time>
      </trkpt>
      <trkpt lat="37.5978370" lon="-4.1556920">
        <ele>424.2</ele>
        <time>2021-12-28T10:15:07Z</time>
      </trkpt>
      <trkpt lat="37.5978020" lon="-4.1556870">
        <ele>424.2</ele>
        <time>2021-12-28T10:15:08Z</time>
      </trkpt>
      <trkpt lat="37.5977660" lon="-4.1556800">
        <ele>424.0</ele>
        <time>2021-12-28T10:15:09Z</time>
      </trkpt>
      <trkpt lat="37.5977250" lon="-4.1556750">
        <ele>424.0</ele>
        <time>2021-12-28T10:15:10Z</time>
      </trkpt>
      <trkpt lat="37.5976900" lon="-4.1556680">
        <ele>423.8</ele>
        <time>2021-12-28T10:15:11Z</time>
      </trkpt>
      <trkpt lat="37.5976480" lon="-4.1556640">
        <ele>423.8</ele>
        <time>2021-12-28T10:15:12Z</time>
      </trkpt>
      <trkpt lat="37.5976100" lon="-4.1556600">
        <ele>423.8</ele>
        <time>2021-12-28T10:15:13Z</time>
      </trkpt>
      <trkpt lat="37.5975680" lon="-4.1556550">
        <ele>423.6</ele>
        <time>2021-12-28T10:15:14Z</time>
      </trkpt>
      <trkpt lat="37.5975330" lon="-4.1556520">
        <ele>423.4</ele>
        <time>2021-12-28T10:15:15Z</time>
      </trkpt>
      <trkpt lat="37.5975010" lon="-4.1556480">
        <ele>423.4</ele>
        <time>2021-12-28T10:15:16Z</time>
      </trkpt>
      <trkpt lat="37.5974620" lon="-4.1556450">
        <ele>423.2</ele>
        <time>2021-12-28T10:15:17Z</time>
      </trkpt>
      <trkpt lat="37.5974240" lon="-4.1556440">
        <ele>423.2</ele>
        <time>2021-12-28T10:15:18Z</time>
      </trkpt>
      <trkpt lat="37.5973860" lon="-4.1556420">
        <ele>423.2</ele>
        <time>2021-12-28T10:15:19Z</time>
      </trkpt>
      <trkpt lat="37.5973440" lon="-4.1556420">
        <ele>423.0</ele>
        <time>2021-12-28T10:15:20Z</time>
      </trkpt>
      <trkpt lat="37.5973060" lon="-4.1556400">
        <ele>423.0</ele>
        <time>2021-12-28T10:15:21Z</time>
      </trkpt>
      <trkpt lat="37.5972640" lon="-4.1556380">
        <ele>423.0</ele>
        <time>2021-12-28T10:15:22Z</time>
      </trkpt>
      <trkpt lat="37.5972260" lon="-4.1556350">
        <ele>423.0</ele>
        <time>2021-12-28T10:15:23Z</time>
      </trkpt>
      <trkpt lat="37.5971840" lon="-4.1556350">
        <ele>423.0</ele>
        <time>2021-12-28T10:15:24Z</time>
      </trkpt>
      <trkpt lat="37.5971460" lon="-4.1556370">
        <ele>423.0</ele>
        <time>2021-12-28T10:15:25Z</time>
      </trkpt>
      <trkpt lat="37.5971070" lon="-4.1556380">
        <ele>423.0</ele>
        <time>2021-12-28T10:15:26Z</time>
      </trkpt>
      <trkpt lat="37.5970660" lon="-4.1556400">
        <ele>422.8</ele>
        <time>2021-12-28T10:15:27Z</time>
      </trkpt>
      <trkpt lat="37.5970240" lon="-4.1556420">
        <ele>422.8</ele>
        <time>2021-12-28T10:15:28Z</time>
      </trkpt>
      <trkpt lat="37.5969860" lon="-4.1556450">
        <ele>422.8</ele>
        <time>2021-12-28T10:15:29Z</time>
      </trkpt>
      <trkpt lat="37.5969440" lon="-4.1556480">
        <ele>422.6</ele>
        <time>2021-12-28T10:15:30Z</time>
      </trkpt>
      <trkpt lat="37.5969020" lon="-4.1556520">
        <ele>422.6</ele>
        <time>2021-12-28T10:15:31Z</time>
      </trkpt>
      <trkpt lat="37.5968640" lon="-4.1556550">
        <ele>422.6</ele>
        <time>2021-12-28T10:15:32Z</time>
      </trkpt>
      <trkpt lat="37.5968220" lon="-4.1556580">
        <ele>422.4</ele>
        <time>2021-12-28T10:15:33Z</time>
      </trkpt>
      <trkpt lat="37.5967780" lon="-4.1556620">
        <ele>422.4</ele>
        <time>2021-12-28T10:15:34Z</time>
      </trkpt>
      <trkpt lat="37.5967360" lon="-4.1556680">
        <ele>422.4</ele>
        <time>2021-12-28T10:15:35Z</time>
      </trkpt>
      <trkpt lat="37.5966980" lon="-4.1556750">
        <ele>422.4</ele>
        <time>2021-12-28T10:15:36Z</time>
      </trkpt>
      <trkpt lat="37.5966560" lon="-4.1556820">
        <ele>422.4</ele>
        <time>2021-12-28T10:15:37Z</time>
      </trkpt>
      <trkpt lat="37.5966140" lon="-4.1556900">
        <ele>422.4</ele>
        <time>2021-12-28T10:15:38Z</time>
      </trkpt>
      <trkpt lat="37.5965700" lon="-4.1557000">
        <ele>422.4</ele>
        <time>2021-12-28T10:15:39Z</time>
      </trkpt>
      <trkpt lat="37.5965280" lon="-4.1557120">
        <ele>422.4</ele>
        <time>2021-12-28T10:15:40Z</time>
      </trkpt>
      <trkpt lat="37.5964860" lon="-4.1557200">
        <ele>422.2</ele>
        <time>2021-12-28T10:15:41Z</time>
      </trkpt>
      <trkpt lat="37.5964420" lon="-4.1557320">
        <ele>422.2</ele>
        <time>2021-12-28T10:15:42Z</time>
      </trkpt>
      <trkpt lat="37.5964000" lon="-4.1557420">
        <ele>422.2</ele>
        <time>2021-12-28T10:15:43Z</time>
      </trkpt>
      <trkpt lat="37.5963580" lon="-4.1557520">
        <ele>422.2</ele>
        <time>2021-12-28T10:15:44Z</time>
      </trkpt>
      <trkpt lat="37.5963140" lon="-4.1557630">
        <ele>422.0</ele>
        <time>2021-12-28T10:15:45Z</time>
      </trkpt>
      <trkpt lat="37.5962720" lon="-4.1557730">
        <ele>422.0</ele>
        <time>2021-12-28T10:15:46Z</time>
      </trkpt>
      <trkpt lat="37.5962300" lon="-4.1557820">
        <ele>422.0</ele>
        <time>2021-12-28T10:15:47Z</time>
      </trkpt>
      <trkpt lat="37.5961890" lon="-4.1557930">
        <ele>421.8</ele>
        <time>2021-12-28T10:15:48Z</time>
      </trkpt>
      <trkpt lat="37.5961410" lon="-4.1558060">
        <ele>421.8</ele>
        <time>2021-12-28T10:15:49Z</time>
      </trkpt>
      <trkpt lat="37.5960990" lon="-4.1558220">
        <ele>421.6</ele>
        <time>2021-12-28T10:15:50Z</time>
      </trkpt>
      <trkpt lat="37.5960580" lon="-4.1558360">
        <ele>421.6</ele>
        <time>2021-12-28T10:15:51Z</time>
      </trkpt>
      <trkpt lat="37.5960130" lon="-4.1558520">
        <ele>421.6</ele>
        <time>2021-12-28T10:15:52Z</time>
      </trkpt>
      <trkpt lat="37.5959710" lon="-4.1558700">
        <ele>421.6</ele>
        <time>2021-12-28T10:15:53Z</time>
      </trkpt>
      <trkpt lat="37.5959230" lon="-4.1558880">
        <ele>421.6</ele>
        <time>2021-12-28T10:15:54Z</time>
      </trkpt>
      <trkpt lat="37.5958820" lon="-4.1559070">
        <ele>421.6</ele>
        <time>2021-12-28T10:15:55Z</time>
      </trkpt>
      <trkpt lat="37.5958370" lon="-4.1559230">
        <ele>421.6</ele>
        <time>2021-12-28T10:15:56Z</time>
      </trkpt>
      <trkpt lat="37.5957950" lon="-4.1559420">
        <ele>421.6</ele>
        <time>2021-12-28T10:15:57Z</time>
      </trkpt>
      <trkpt lat="37.5957500" lon="-4.1559580">
        <ele>421.6</ele>
        <time>2021-12-28T10:15:58Z</time>
      </trkpt>
      <trkpt lat="37.5957020" lon="-4.1559780">
        <ele>421.6</ele>
        <time>2021-12-28T10:15:59Z</time>
      </trkpt>
      <trkpt lat="37.5956580" lon="-4.1560020">
        <ele>421.4</ele>
        <time>2021-12-28T10:16:00Z</time>
      </trkpt>
      <trkpt lat="37.5956130" lon="-4.1560250">
        <ele>421.4</ele>
        <time>2021-12-28T10:16:01Z</time>
      </trkpt>
      <trkpt lat="37.5955710" lon="-4.1560480">
        <ele>421.4</ele>
        <time>2021-12-28T10:16:02Z</time>
      </trkpt>
      <trkpt lat="37.5955260" lon="-4.1560720">
        <ele>421.2</ele>
        <time>2021-12-28T10:16:03Z</time>
      </trkpt>
      <trkpt lat="37.5954820" lon="-4.1560930">
        <ele>421.2</ele>
        <time>2021-12-28T10:16:04Z</time>
      </trkpt>
      <trkpt lat="37.5954370" lon="-4.1561180">
        <ele>421.2</ele>
        <time>2021-12-28T10:16:05Z</time>
      </trkpt>
      <trkpt lat="37.5953950" lon="-4.1561450">
        <ele>421.2</ele>
        <time>2021-12-28T10:16:06Z</time>
      </trkpt>
      <trkpt lat="37.5953540" lon="-4.1561700">
        <ele>421.0</ele>
        <time>2021-12-28T10:16:07Z</time>
      </trkpt>
      <trkpt lat="37.5953060" lon="-4.1561960">
        <ele>421.0</ele>
        <time>2021-12-28T10:16:08Z</time>
      </trkpt>
      <trkpt lat="37.5952640" lon="-4.1562250">
        <ele>421.0</ele>
        <time>2021-12-28T10:16:09Z</time>
      </trkpt>
      <trkpt lat="37.5952220" lon="-4.1562530">
        <ele>421.0</ele>
        <time>2021-12-28T10:16:10Z</time>
      </trkpt>
      <trkpt lat="37.5951780" lon="-4.1562820">
        <ele>420.8</ele>
        <time>2021-12-28T10:16:11Z</time>
      </trkpt>
      <trkpt lat="37.5951360" lon="-4.1563140">
        <ele>420.8</ele>
        <time>2021-12-28T10:16:12Z</time>
      </trkpt>
      <trkpt lat="37.5950910" lon="-4.1563440">
        <ele>420.6</ele>
        <time>2021-12-28T10:16:13Z</time>
      </trkpt>
      <trkpt lat="37.5950460" lon="-4.1563750">
        <ele>420.6</ele>
        <time>2021-12-28T10:16:14Z</time>
      </trkpt>
      <trkpt lat="37.5950050" lon="-4.1564080">
        <ele>420.6</ele>
        <time>2021-12-28T10:16:15Z</time>
      </trkpt>
      <trkpt lat="37.5949630" lon="-4.1564430">
        <ele>420.4</ele>
        <time>2021-12-28T10:16:16Z</time>
      </trkpt>
      <trkpt lat="37.5949180" lon="-4.1564760">
        <ele>420.4</ele>
        <time>2021-12-28T10:16:17Z</time>
      </trkpt>
      <trkpt lat="37.5948700" lon="-4.1565060">
        <ele>420.4</ele>
        <time>2021-12-28T10:16:18Z</time>
      </trkpt>
      <trkpt lat="37.5948290" lon="-4.1565400">
        <ele>420.6</ele>
        <time>2021-12-28T10:16:19Z</time>
      </trkpt>
      <trkpt lat="37.5947870" lon="-4.1565750">
        <ele>420.6</ele>
        <time>2021-12-28T10:16:20Z</time>
      </trkpt>
      <trkpt lat="37.5947460" lon="-4.1566080">
        <ele>420.4</ele>
        <time>2021-12-28T10:16:21Z</time>
      </trkpt>
      <trkpt lat="37.5947040" lon="-4.1566430">
        <ele>420.4</ele>
        <time>2021-12-28T10:16:22Z</time>
      </trkpt>
      <trkpt lat="37.5946620" lon="-4.1566780">
        <ele>420.2</ele>
        <time>2021-12-28T10:16:23Z</time>
      </trkpt>
      <trkpt lat="37.5946210" lon="-4.1567150">
        <ele>420.2</ele>
        <time>2021-12-28T10:16:24Z</time>
      </trkpt>
      <trkpt lat="37.5945790" lon="-4.1567500">
        <ele>420.0</ele>
        <time>2021-12-28T10:16:25Z</time>
      </trkpt>
      <trkpt lat="37.5945340" lon="-4.1567830">
        <ele>420.0</ele>
        <time>2021-12-28T10:16:26Z</time>
      </trkpt>
      <trkpt lat="37.5944930" lon="-4.1568160">
        <ele>419.8</ele>
        <time>2021-12-28T10:16:27Z</time>
      </trkpt>
      <trkpt lat="37.5944510" lon="-4.1568520">
        <ele>419.6</ele>
        <time>2021-12-28T10:16:28Z</time>
      </trkpt>
      <trkpt lat="37.5944100" lon="-4.1568850">
        <ele>419.6</ele>
        <time>2021-12-28T10:16:29Z</time>
      </trkpt>
      <trkpt lat="37.5943710" lon="-4.1569180">
        <ele>419.6</ele>
        <time>2021-12-28T10:16:30Z</time>
      </trkpt>
      <trkpt lat="37.5943300" lon="-4.1569530">
        <ele>419.6</ele>
        <time>2021-12-28T10:16:31Z</time>
      </trkpt>
      <trkpt lat="37.5942910" lon="-4.1569850">
        <ele>419.6</ele>
        <time>2021-12-28T10:16:32Z</time>
      </trkpt>
      <trkpt lat="37.5942500" lon="-4.1570170">
        <ele>419.6</ele>
        <time>2021-12-28T10:16:33Z</time>
      </trkpt>
      <trkpt lat="37.5942110" lon="-4.1570480">
        <ele>419.4</ele>
        <time>2021-12-28T10:16:34Z</time>
      </trkpt>
      <trkpt lat="37.5941730" lon="-4.1570780">
        <ele>419.4</ele>
        <time>2021-12-28T10:16:35Z</time>
      </trkpt>
      <trkpt lat="37.5941310" lon="-4.1571100">
        <ele>419.2</ele>
        <time>2021-12-28T10:16:36Z</time>
      </trkpt>
      <trkpt lat="37.5940900" lon="-4.1571420">
        <ele>419.2</ele>
        <time>2021-12-28T10:16:37Z</time>
      </trkpt>
      <trkpt lat="37.5940510" lon="-4.1571750">
        <ele>419.0</ele>
        <time>2021-12-28T10:16:38Z</time>
      </trkpt>
      <trkpt lat="37.5940100" lon="-4.1572060">
        <ele>419.0</ele>
        <time>2021-12-28T10:16:39Z</time>
      </trkpt>
      <trkpt lat="37.5939710" lon="-4.1572400">
        <ele>419.0</ele>
        <time>2021-12-28T10:16:40Z</time>
      </trkpt>
      <trkpt lat="37.5939300" lon="-4.1572730">
        <ele>418.8</ele>
        <time>2021-12-28T10:16:41Z</time>
      </trkpt>
      <trkpt lat="37.5938880" lon="-4.1573070">
        <ele>418.8</ele>
        <time>2021-12-28T10:16:42Z</time>
      </trkpt>
      <trkpt lat="37.5938460" lon="-4.1573400">
        <ele>418.6</ele>
        <time>2021-12-28T10:16:43Z</time>
      </trkpt>
      <trkpt lat="37.5938050" lon="-4.1573750">
        <ele>418.6</ele>
        <time>2021-12-28T10:16:44Z</time>
      </trkpt>
      <trkpt lat="37.5937660" lon="-4.1574080">
        <ele>418.6</ele>
        <time>2021-12-28T10:16:45Z</time>
      </trkpt>
      <trkpt lat="37.5937250" lon="-4.1574440">
        <ele>418.6</ele>
        <time>2021-12-28T10:16:46Z</time>
      </trkpt>
      <trkpt lat="37.5936860" lon="-4.1574760">
        <ele>418.4</ele>
        <time>2021-12-28T10:16:47Z</time>
      </trkpt>
      <trkpt lat="37.5936420" lon="-4.1575100">
        <ele>418.4</ele>
        <time>2021-12-28T10:16:48Z</time>
      </trkpt>
      <trkpt lat="37.5936060" lon="-4.1575430">
        <ele>418.4</ele>
        <time>2021-12-28T10:16:49Z</time>
      </trkpt>
      <trkpt lat="37.5935620" lon="-4.1575760">
        <ele>418.2</ele>
        <time>2021-12-28T10:16:50Z</time>
      </trkpt>
      <trkpt lat="37.5935260" lon="-4.1576100">
        <ele>418.0</ele>
        <time>2021-12-28T10:16:51Z</time>
      </trkpt>
      <trkpt lat="37.5934820" lon="-4.1576430">
        <ele>418.0</ele>
        <time>2021-12-28T10:16:52Z</time>
      </trkpt>
      <trkpt lat="37.5934460" lon="-4.1576770">
        <ele>417.8</ele>
        <time>2021-12-28T10:16:53Z</time>
      </trkpt>
      <trkpt lat="37.5934020" lon="-4.1577080">
        <ele>417.8</ele>
        <time>2021-12-28T10:16:54Z</time>
      </trkpt>
      <trkpt lat="37.5933600" lon="-4.1577420">
        <ele>417.6</ele>
        <time>2021-12-28T10:16:55Z</time>
      </trkpt>
      <trkpt lat="37.5933220" lon="-4.1577750">
        <ele>417.4</ele>
        <time>2021-12-28T10:16:56Z</time>
      </trkpt>
      <trkpt lat="37.5932830" lon="-4.1578100">
        <ele>417.4</ele>
        <time>2021-12-28T10:16:57Z</time>
      </trkpt>
      <trkpt lat="37.5932480" lon="-4.1578460">
        <ele>417.4</ele>
        <time>2021-12-28T10:16:58Z</time>
      </trkpt>
      <trkpt lat="37.5932100" lon="-4.1578820">
        <ele>417.2</ele>
        <time>2021-12-28T10:16:59Z</time>
      </trkpt>
      <trkpt lat="37.5931710" lon="-4.1579160">
        <ele>417.2</ele>
        <time>2021-12-28T10:17:00Z</time>
      </trkpt>
      <trkpt lat="37.5931330" lon="-4.1579500">
        <ele>417.0</ele>
        <time>2021-12-28T10:17:01Z</time>
      </trkpt>
      <trkpt lat="37.5930980" lon="-4.1579870">
        <ele>417.0</ele>
        <time>2021-12-28T10:17:02Z</time>
      </trkpt>
      <trkpt lat="37.5930620" lon="-4.1580250">
        <ele>416.8</ele>
        <time>2021-12-28T10:17:03Z</time>
      </trkpt>
      <trkpt lat="37.5930240" lon="-4.1580620">
        <ele>416.6</ele>
        <time>2021-12-28T10:17:04Z</time>
      </trkpt>
      <trkpt lat="37.5929860" lon="-4.1581000">
        <ele>416.6</ele>
        <time>2021-12-28T10:17:05Z</time>
      </trkpt>
      <trkpt lat="37.5929540" lon="-4.1581380">
        <ele>416.4</ele>
        <time>2021-12-28T10:17:06Z</time>
      </trkpt>
      <trkpt lat="37.5929180" lon="-4.1581800">
        <ele>416.4</ele>
        <time>2021-12-28T10:17:07Z</time>
      </trkpt>
      <trkpt lat="37.5928830" lon="-4.1582220">
        <ele>416.2</ele>
        <time>2021-12-28T10:17:08Z</time>
      </trkpt>
      <trkpt lat="37.5928510" lon="-4.1582650">
        <ele>416.2</ele>
        <time>2021-12-28T10:17:09Z</time>
      </trkpt>
      <trkpt lat="37.5928160" lon="-4.1583080">
        <ele>416.0</ele>
        <time>2021-12-28T10:17:10Z</time>
      </trkpt>
      <trkpt lat="37.5927840" lon="-4.1583550">
        <ele>416.0</ele>
        <time>2021-12-28T10:17:11Z</time>
      </trkpt>
      <trkpt lat="37.5927550" lon="-4.1583980">
        <ele>416.0</ele>
        <time>2021-12-28T10:17:12Z</time>
      </trkpt>
      <trkpt lat="37.5927230" lon="-4.1584450">
        <ele>415.8</ele>
        <time>2021-12-28T10:17:13Z</time>
      </trkpt>
      <trkpt lat="37.5926940" lon="-4.1584920">
        <ele>415.8</ele>
        <time>2021-12-28T10:17:14Z</time>
      </trkpt>
      <trkpt lat="37.5926620" lon="-4.1585400">
        <ele>415.6</ele>
        <time>2021-12-28T10:17:15Z</time>
      </trkpt>
      <trkpt lat="37.5926370" lon="-4.1585880">
        <ele>415.6</ele>
        <time>2021-12-28T10:17:16Z</time>
      </trkpt>
      <trkpt lat="37.5926050" lon="-4.1586360">
        <ele>415.4</ele>
        <time>2021-12-28T10:17:17Z</time>
      </trkpt>
      <trkpt lat="37.5925790" lon="-4.1586850">
        <ele>415.2</ele>
        <time>2021-12-28T10:17:18Z</time>
      </trkpt>
      <trkpt lat="37.5925470" lon="-4.1587330">
        <ele>415.2</ele>
        <time>2021-12-28T10:17:19Z</time>
      </trkpt>
      <trkpt lat="37.5925220" lon="-4.1587850">
        <ele>415.0</ele>
        <time>2021-12-28T10:17:20Z</time>
      </trkpt>
      <trkpt lat="37.5924960" lon="-4.1588400">
        <ele>414.8</ele>
        <time>2021-12-28T10:17:21Z</time>
      </trkpt>
      <trkpt lat="37.5924670" lon="-4.1588950">
        <ele>414.8</ele>
        <time>2021-12-28T10:17:22Z</time>
      </trkpt>
      <trkpt lat="37.5924420" lon="-4.1589500">
        <ele>414.6</ele>
        <time>2021-12-28T10:17:23Z</time>
      </trkpt>
      <trkpt lat="37.5924160" lon="-4.1590050">
        <ele>414.6</ele>
        <time>2021-12-28T10:17:24Z</time>
      </trkpt>
      <trkpt lat="37.5923900" lon="-4.1590630">
        <ele>414.4</ele>
        <time>2021-12-28T10:17:25Z</time>
      </trkpt>
      <trkpt lat="37.5923680" lon="-4.1591220">
        <ele>414.4</ele>
        <time>2021-12-28T10:17:26Z</time>
      </trkpt>
      <trkpt lat="37.5923490" lon="-4.1591800">
        <ele>414.4</ele>
        <time>2021-12-28T10:17:27Z</time>
      </trkpt>
      <trkpt lat="37.5923300" lon="-4.1592370">
        <ele>414.2</ele>
        <time>2021-12-28T10:17:28Z</time>
      </trkpt>
      <trkpt lat="37.5923070" lon="-4.1592930">
        <ele>414.2</ele>
        <time>2021-12-28T10:17:29Z</time>
      </trkpt>
      <trkpt lat="37.5922880" lon="-4.1593500">
        <ele>414.2</ele>
        <time>2021-12-28T10:17:30Z</time>
      </trkpt>
      <trkpt lat="37.5922660" lon="-4.1594100">
        <ele>414.0</ele>
        <time>2021-12-28T10:17:31Z</time>
      </trkpt>
      <trkpt lat="37.5922460" lon="-4.1594700">
        <ele>414.0</ele>
        <time>2021-12-28T10:17:32Z</time>
      </trkpt>
      <trkpt lat="37.5922300" lon="-4.1595320">
        <ele>414.0</ele>
        <time>2021-12-28T10:17:33Z</time>
      </trkpt>
      <trkpt lat="37.5922110" lon="-4.1595930">
        <ele>413.8</ele>
        <time>2021-12-28T10:17:34Z</time>
      </trkpt>
      <trkpt lat="37.5921980" lon="-4.1596580">
        <ele>413.8</ele>
        <time>2021-12-28T10:17:35Z</time>
      </trkpt>
      <trkpt lat="37.5921820" lon="-4.1597220">
        <ele>413.8</ele>
        <time>2021-12-28T10:17:36Z</time>
      </trkpt>
      <trkpt lat="37.5921660" lon="-4.1597870">
        <ele>413.8</ele>
        <time>2021-12-28T10:17:37Z</time>
      </trkpt>
      <trkpt lat="37.5921500" lon="-4.1598480">
        <ele>413.8</ele>
        <time>2021-12-28T10:17:38Z</time>
      </trkpt>
      <trkpt lat="37.5921410" lon="-4.1599100">
        <ele>413.6</ele>
        <time>2021-12-28T10:17:39Z</time>
      </trkpt>
      <trkpt lat="37.5921310" lon="-4.1599720">
        <ele>413.6</ele>
        <time>2021-12-28T10:17:40Z</time>
      </trkpt>
      <trkpt lat="37.5921220" lon="-4.1600330">
        <ele>413.4</ele>
        <time>2021-12-28T10:17:41Z</time>
      </trkpt>
      <trkpt lat="37.5921120" lon="-4.1600950">
        <ele>413.4</ele>
        <time>2021-12-28T10:17:42Z</time>
      </trkpt>
      <trkpt lat="37.5921060" lon="-4.1601550">
        <ele>413.2</ele>
        <time>2021-12-28T10:17:43Z</time>
      </trkpt>
      <trkpt lat="37.5920990" lon="-4.1602150">
        <ele>413.2</ele>
        <time>2021-12-28T10:17:44Z</time>
      </trkpt>
      <trkpt lat="37.5920960" lon="-4.1602750">
        <ele>413.2</ele>
        <time>2021-12-28T10:17:45Z</time>
      </trkpt>
      <trkpt lat="37.5920960" lon="-4.1603320">
        <ele>413.0</ele>
        <time>2021-12-28T10:17:46Z</time>
      </trkpt>
      <trkpt lat="37.5920900" lon="-4.1603900">
        <ele>413.0</ele>
        <time>2021-12-28T10:17:47Z</time>
      </trkpt>
      <trkpt lat="37.5920860" lon="-4.1604430">
        <ele>413.0</ele>
        <time>2021-12-28T10:17:48Z</time>
      </trkpt>
      <trkpt lat="37.5920860" lon="-4.1605000">
        <ele>413.0</ele>
        <time>2021-12-28T10:17:49Z</time>
      </trkpt>
      <trkpt lat="37.5920860" lon="-4.1605570">
        <ele>412.8</ele>
        <time>2021-12-28T10:17:50Z</time>
      </trkpt>
      <trkpt lat="37.5920860" lon="-4.1606100">
        <ele>412.8</ele>
        <time>2021-12-28T10:17:51Z</time>
      </trkpt>
      <trkpt lat="37.5920900" lon="-4.1606650">
        <ele>412.6</ele>
        <time>2021-12-28T10:17:52Z</time>
      </trkpt>
      <trkpt lat="37.5920960" lon="-4.1607180">
        <ele>412.6</ele>
        <time>2021-12-28T10:17:53Z</time>
      </trkpt>
      <trkpt lat="37.5920990" lon="-4.1607720">
        <ele>412.4</ele>
        <time>2021-12-28T10:17:54Z</time>
      </trkpt>
      <trkpt lat="37.5920990" lon="-4.1608250">
        <ele>412.4</ele>
        <time>2021-12-28T10:17:55Z</time>
      </trkpt>
      <trkpt lat="37.5920990" lon="-4.1608780">
        <ele>412.2</ele>
        <time>2021-12-28T10:17:56Z</time>
      </trkpt>
      <trkpt lat="37.5921020" lon="-4.1609300">
        <ele>412.2</ele>
        <time>2021-12-28T10:17:57Z</time>
      </trkpt>
      <trkpt lat="37.5921020" lon="-4.1609850">
        <ele>412.0</ele>
        <time>2021-12-28T10:17:58Z</time>
      </trkpt>
      <trkpt lat="37.5921060" lon="-4.1610430">
        <ele>412.0</ele>
        <time>2021-12-28T10:17:59Z</time>
      </trkpt>
      <trkpt lat="37.5921120" lon="-4.1611030">
        <ele>412.0</ele>
        <time>2021-12-28T10:18:00Z</time>
      </trkpt>
      <trkpt lat="37.5921180" lon="-4.1611620">
        <ele>412.0</ele>
        <time>2021-12-28T10:18:01Z</time>
      </trkpt>
      <trkpt lat="37.5921250" lon="-4.1612200">
        <ele>411.8</ele>
        <time>2021-12-28T10:18:02Z</time>
      </trkpt>
      <trkpt lat="37.5921380" lon="-4.1612770">
        <ele>411.8</ele>
        <time>2021-12-28T10:18:03Z</time>
      </trkpt>
      <trkpt lat="37.5921440" lon="-4.1613400">
        <ele>411.8</ele>
        <time>2021-12-28T10:18:04Z</time>
      </trkpt>
      <trkpt lat="37.5921500" lon="-4.1614020">
        <ele>411.8</ele>
        <time>2021-12-28T10:18:05Z</time>
      </trkpt>
      <trkpt lat="37.5921630" lon="-4.1614630">
        <ele>411.8</ele>
        <time>2021-12-28T10:18:06Z</time>
      </trkpt>
      <trkpt lat="37.5921790" lon="-4.1615230">
        <ele>411.8</ele>
        <time>2021-12-28T10:18:07Z</time>
      </trkpt>
      <trkpt lat="37.5921890" lon="-4.1615850">
        <ele>411.8</ele>
        <time>2021-12-28T10:18:08Z</time>
      </trkpt>
      <trkpt lat="37.5922050" lon="-4.1616470">
        <ele>411.6</ele>
        <time>2021-12-28T10:18:09Z</time>
      </trkpt>
      <trkpt lat="37.5922180" lon="-4.1617100">
        <ele>411.6</ele>
        <time>2021-12-28T10:18:10Z</time>
      </trkpt>
      <trkpt lat="37.5922300" lon="-4.1617730">
        <ele>411.6</ele>
        <time>2021-12-28T10:18:11Z</time>
      </trkpt>
      <trkpt lat="37.5922460" lon="-4.1618350">
        <ele>411.6</ele>
        <time>2021-12-28T10:18:12Z</time>
      </trkpt>
      <trkpt lat="37.5922620" lon="-4.1618980">
        <ele>411.6</ele>
        <time>2021-12-28T10:18:13Z</time>
      </trkpt>
      <trkpt lat="37.5922780" lon="-4.1619620">
        <ele>411.4</ele>
        <time>2021-12-28T10:18:14Z</time>
      </trkpt>
      <trkpt lat="37.5922910" lon="-4.1620250">
        <ele>411.4</ele>
        <time>2021-12-28T10:18:15Z</time>
      </trkpt>
      <trkpt lat="37.5923040" lon="-4.1620860">
        <ele>411.4</ele>
        <time>2021-12-28T10:18:16Z</time>
      </trkpt>
      <trkpt lat="37.5923170" lon="-4.1621520">
        <ele>411.2</ele>
        <time>2021-12-28T10:18:17Z</time>
      </trkpt>
      <trkpt lat="37.5923300" lon="-4.1622170">
        <ele>411.2</ele>
        <time>2021-12-28T10:18:18Z</time>
      </trkpt>
      <trkpt lat="37.5923420" lon="-4.1622800">
        <ele>411.0</ele>
        <time>2021-12-28T10:18:19Z</time>
      </trkpt>
      <trkpt lat="37.5923550" lon="-4.1623440">
        <ele>411.0</ele>
        <time>2021-12-28T10:18:20Z</time>
      </trkpt>
      <trkpt lat="37.5923680" lon="-4.1624030">
        <ele>411.0</ele>
        <time>2021-12-28T10:18:21Z</time>
      </trkpt>
      <trkpt lat="37.5923780" lon="-4.1624660">
        <ele>410.8</ele>
        <time>2021-12-28T10:18:22Z</time>
      </trkpt>
      <trkpt lat="37.5923870" lon="-4.1625300">
        <ele>410.6</ele>
        <time>2021-12-28T10:18:23Z</time>
      </trkpt>
      <trkpt lat="37.5924000" lon="-4.1625950">
        <ele>410.4</ele>
        <time>2021-12-28T10:18:24Z</time>
      </trkpt>
      <trkpt lat="37.5924100" lon="-4.1626600">
        <ele>410.2</ele>
        <time>2021-12-28T10:18:25Z</time>
      </trkpt>
      <trkpt lat="37.5924260" lon="-4.1627270">
        <ele>410.2</ele>
        <time>2021-12-28T10:18:26Z</time>
      </trkpt>
      <trkpt lat="37.5924420" lon="-4.1627920">
        <ele>410.0</ele>
        <time>2021-12-28T10:18:27Z</time>
      </trkpt>
      <trkpt lat="37.5924580" lon="-4.1628600">
        <ele>410.0</ele>
        <time>2021-12-28T10:18:28Z</time>
      </trkpt>
      <trkpt lat="37.5924670" lon="-4.1629300">
        <ele>409.8</ele>
        <time>2021-12-28T10:18:29Z</time>
      </trkpt>
      <trkpt lat="37.5924800" lon="-4.1630000">
        <ele>409.8</ele>
        <time>2021-12-28T10:18:30Z</time>
      </trkpt>
      <trkpt lat="37.5924900" lon="-4.1630680">
        <ele>409.6</ele>
        <time>2021-12-28T10:18:31Z</time>
      </trkpt>
      <trkpt lat="37.5925060" lon="-4.1631350">
        <ele>409.6</ele>
        <time>2021-12-28T10:18:32Z</time>
      </trkpt>
      <trkpt lat="37.5925180" lon="-4.1632030">
        <ele>409.4</ele>
        <time>2021-12-28T10:18:33Z</time>
      </trkpt>
      <trkpt lat="37.5925280" lon="-4.1632700">
        <ele>409.4</ele>
        <time>2021-12-28T10:18:34Z</time>
      </trkpt>
      <trkpt lat="37.5925380" lon="-4.1633400">
        <ele>409.2</ele>
        <time>2021-12-28T10:18:35Z</time>
      </trkpt>
      <trkpt lat="37.5925440" lon="-4.1634080">
        <ele>409.2</ele>
        <time>2021-12-28T10:18:36Z</time>
      </trkpt>
      <trkpt lat="37.5925540" lon="-4.1634780">
        <ele>409.0</ele>
        <time>2021-12-28T10:18:37Z</time>
      </trkpt>
      <trkpt lat="37.5925600" lon="-4.1635500">
        <ele>409.0</ele>
        <time>2021-12-28T10:18:38Z</time>
      </trkpt>
      <trkpt lat="37.5925630" lon="-4.1636220">
        <ele>409.0</ele>
        <time>2021-12-28T10:18:39Z</time>
      </trkpt>
      <trkpt lat="37.5925660" lon="-4.1636920">
        <ele>409.0</ele>
        <time>2021-12-28T10:18:40Z</time>
      </trkpt>
      <trkpt lat="37.5925660" lon="-4.1637620">
        <ele>408.8</ele>
        <time>2021-12-28T10:18:41Z</time>
      </trkpt>
      <trkpt lat="37.5925660" lon="-4.1638280">
        <ele>408.8</ele>
        <time>2021-12-28T10:18:42Z</time>
      </trkpt>
      <trkpt lat="37.5925660" lon="-4.1638960">
        <ele>408.6</ele>
        <time>2021-12-28T10:18:43Z</time>
      </trkpt>
      <trkpt lat="37.5925630" lon="-4.1639670">
        <ele>408.4</ele>
        <time>2021-12-28T10:18:44Z</time>
      </trkpt>
      <trkpt lat="37.5925600" lon="-4.1640350">
        <ele>408.4</ele>
        <time>2021-12-28T10:18:45Z</time>
      </trkpt>
      <trkpt lat="37.5925600" lon="-4.1641040">
        <ele>408.4</ele>
        <time>2021-12-28T10:18:46Z</time>
      </trkpt>
      <trkpt lat="37.5925470" lon="-4.1641730">
        <ele>408.2</ele>
        <time>2021-12-28T10:18:47Z</time>
      </trkpt>
      <trkpt lat="37.5925410" lon="-4.1642420">
        <ele>408.2</ele>
        <time>2021-12-28T10:18:48Z</time>
      </trkpt>
      <trkpt lat="37.5925340" lon="-4.1643070">
        <ele>408.2</ele>
        <time>2021-12-28T10:18:49Z</time>
      </trkpt>
      <trkpt lat="37.5925220" lon="-4.1643750">
        <ele>408.0</ele>
        <time>2021-12-28T10:18:50Z</time>
      </trkpt>
      <trkpt lat="37.5925150" lon="-4.1644420">
        <ele>407.8</ele>
        <time>2021-12-28T10:18:51Z</time>
      </trkpt>
      <trkpt lat="37.5925020" lon="-4.1645070">
        <ele>407.8</ele>
        <time>2021-12-28T10:18:52Z</time>
      </trkpt>
      <trkpt lat="37.5924900" lon="-4.1645720">
        <ele>407.6</ele>
        <time>2021-12-28T10:18:53Z</time>
      </trkpt>
      <trkpt lat="37.5924770" lon="-4.1646350">
        <ele>407.6</ele>
        <time>2021-12-28T10:18:54Z</time>
      </trkpt>
      <trkpt lat="37.5924610" lon="-4.1646970">
        <ele>407.4</ele>
        <time>2021-12-28T10:18:55Z</time>
      </trkpt>
      <trkpt lat="37.5924450" lon="-4.1647570">
        <ele>407.4</ele>
        <time>2021-12-28T10:18:56Z</time>
      </trkpt>
      <trkpt lat="37.5924290" lon="-4.1648180">
        <ele>407.2</ele>
        <time>2021-12-28T10:18:57Z</time>
      </trkpt>
      <trkpt lat="37.5924160" lon="-4.1648780">
        <ele>407.2</ele>
        <time>2021-12-28T10:18:58Z</time>
      </trkpt>
      <trkpt lat="37.5923970" lon="-4.1649360">
        <ele>407.0</ele>
        <time>2021-12-28T10:18:59Z</time>
      </trkpt>
      <trkpt lat="37.5923780" lon="-4.1649950">
        <ele>406.8</ele>
        <time>2021-12-28T10:19:00Z</time>
      </trkpt>
      <trkpt lat="37.5923620" lon="-4.1650530">
        <ele>406.8</ele>
        <time>2021-12-28T10:19:01Z</time>
      </trkpt>
      <trkpt lat="37.5923420" lon="-4.1651120">
        <ele>406.6</ele>
        <time>2021-12-28T10:19:02Z</time>
      </trkpt>
      <trkpt lat="37.5923200" lon="-4.1651670">
        <ele>406.6</ele>
        <time>2021-12-28T10:19:03Z</time>
      </trkpt>
      <trkpt lat="37.5923010" lon="-4.1652220">
        <ele>406.4</ele>
        <time>2021-12-28T10:19:04Z</time>
      </trkpt>
      <trkpt lat="37.5922820" lon="-4.1652750">
        <ele>406.4</ele>
        <time>2021-12-28T10:19:05Z</time>
      </trkpt>
      <trkpt lat="37.5922590" lon="-4.1653300">
        <ele>406.2</ele>
        <time>2021-12-28T10:19:06Z</time>
      </trkpt>
      <trkpt lat="37.5922300" lon="-4.1653850">
        <ele>406.2</ele>
        <time>2021-12-28T10:19:07Z</time>
      </trkpt>
      <trkpt lat="37.5922080" lon="-4.1654400">
        <ele>406.2</ele>
        <time>2021-12-28T10:19:08Z</time>
      </trkpt>
      <trkpt lat="37.5921820" lon="-4.1654920">
        <ele>406.2</ele>
        <time>2021-12-28T10:19:09Z</time>
      </trkpt>
      <trkpt lat="37.5921600" lon="-4.1655440">
        <ele>406.0</ele>
        <time>2021-12-28T10:19:10Z</time>
      </trkpt>
      <trkpt lat="37.5921310" lon="-4.1655930">
        <ele>406.0</ele>
        <time>2021-12-28T10:19:11Z</time>
      </trkpt>
      <trkpt lat="37.5921060" lon="-4.1656450">
        <ele>406.0</ele>
        <time>2021-12-28T10:19:12Z</time>
      </trkpt>
      <trkpt lat="37.5920800" lon="-4.1656930">
        <ele>405.8</ele>
        <time>2021-12-28T10:19:13Z</time>
      </trkpt>
      <trkpt lat="37.5920450" lon="-4.1657420">
        <ele>405.8</ele>
        <time>2021-12-28T10:19:14Z</time>
      </trkpt>
      <trkpt lat="37.5920130" lon="-4.1657940">
        <ele>405.6</ele>
        <time>2021-12-28T10:19:15Z</time>
      </trkpt>
      <trkpt lat="37.5919840" lon="-4.1658440">
        <ele>405.6</ele>
        <time>2021-12-28T10:19:16Z</time>
      </trkpt>
      <trkpt lat="37.5919520" lon="-4.1658940">
        <ele>405.6</ele>
        <time>2021-12-28T10:19:17Z</time>
      </trkpt>
      <trkpt lat="37.5919200" lon="-4.1659400">
        <ele>405.6</ele>
        <time>2021-12-28T10:19:18Z</time>
      </trkpt>
      <trkpt lat="37.5918880" lon="-4.1659860">
        <ele>405.6</ele>
        <time>2021-12-28T10:19:19Z</time>
      </trkpt>
      <trkpt lat="37.5918590" lon="-4.1660320">
        <ele>405.6</ele>
        <time>2021-12-28T10:19:20Z</time>
      </trkpt>
      <trkpt lat="37.5918270" lon="-4.1660730">
        <ele>405.4</ele>
        <time>2021-12-28T10:19:21Z</time>
      </trkpt>
      <trkpt lat="37.5917980" lon="-4.1661180">
        <ele>405.4</ele>
        <time>2021-12-28T10:19:22Z</time>
      </trkpt>
      <trkpt lat="37.5917630" lon="-4.1661600">
        <ele>405.2</ele>
        <time>2021-12-28T10:19:23Z</time>
      </trkpt>
      <trkpt lat="37.5917310" lon="-4.1662020">
        <ele>405.2</ele>
        <time>2021-12-28T10:19:24Z</time>
      </trkpt>
      <trkpt lat="37.5917020" lon="-4.1662420">
        <ele>405.2</ele>
        <time>2021-12-28T10:19:25Z</time>
      </trkpt>
      <trkpt lat="37.5916670" lon="-4.1662800">
        <ele>405.0</ele>
        <time>2021-12-28T10:19:26Z</time>
      </trkpt>
      <trkpt lat="37.5916290" lon="-4.1663160">
        <ele>405.0</ele>
        <time>2021-12-28T10:19:27Z</time>
      </trkpt>
      <trkpt lat="37.5915940" lon="-4.1663550">
        <ele>405.0</ele>
        <time>2021-12-28T10:19:28Z</time>
      </trkpt>
      <trkpt lat="37.5915550" lon="-4.1663920">
        <ele>405.0</ele>
        <time>2021-12-28T10:19:29Z</time>
      </trkpt>
      <trkpt lat="37.5915230" lon="-4.1664300">
        <ele>405.0</ele>
        <time>2021-12-28T10:19:30Z</time>
      </trkpt>
      <trkpt lat="37.5914850" lon="-4.1664630">
        <ele>405.0</ele>
        <time>2021-12-28T10:19:31Z</time>
      </trkpt>
      <trkpt lat="37.5914460" lon="-4.1664980">
        <ele>404.8</ele>
        <time>2021-12-28T10:19:32Z</time>
      </trkpt>
      <trkpt lat="37.5914080" lon="-4.1665300">
        <ele>404.8</ele>
        <time>2021-12-28T10:19:33Z</time>
      </trkpt>
      <trkpt lat="37.5913730" lon="-4.1665640">
        <ele>404.8</ele>
        <time>2021-12-28T10:19:34Z</time>
      </trkpt>
      <trkpt lat="37.5913310" lon="-4.1665950">
        <ele>404.8</ele>
        <time>2021-12-28T10:19:35Z</time>
      </trkpt>
      <trkpt lat="37.5912930" lon="-4.1666260">
        <ele>404.8</ele>
        <time>2021-12-28T10:19:36Z</time>
      </trkpt>
      <trkpt lat="37.5912540" lon="-4.1666560">
        <ele>404.6</ele>
        <time>2021-12-28T10:19:37Z</time>
      </trkpt>
      <trkpt lat="37.5912130" lon="-4.1666900">
        <ele>404.6</ele>
        <time>2021-12-28T10:19:38Z</time>
      </trkpt>
      <trkpt lat="37.5911710" lon="-4.1667180">
        <ele>404.4</ele>
        <time>2021-12-28T10:19:39Z</time>
      </trkpt>
      <trkpt lat="37.5911330" lon="-4.1667470">
        <ele>404.2</ele>
        <time>2021-12-28T10:19:40Z</time>
      </trkpt>
      <trkpt lat="37.5910910" lon="-4.1667750">
        <ele>404.2</ele>
        <time>2021-12-28T10:19:41Z</time>
      </trkpt>
      <trkpt lat="37.5910530" lon="-4.1668000">
        <ele>404.2</ele>
        <time>2021-12-28T10:19:42Z</time>
      </trkpt>
      <trkpt lat="37.5910110" lon="-4.1668270">
        <ele>404.0</ele>
        <time>2021-12-28T10:19:43Z</time>
      </trkpt>
      <trkpt lat="37.5909730" lon="-4.1668540">
        <ele>404.0</ele>
        <time>2021-12-28T10:19:44Z</time>
      </trkpt>
      <trkpt lat="37.5909310" lon="-4.1668800">
        <ele>404.0</ele>
        <time>2021-12-28T10:19:45Z</time>
      </trkpt>
      <trkpt lat="37.5908900" lon="-4.1669070">
        <ele>403.8</ele>
        <time>2021-12-28T10:19:46Z</time>
      </trkpt>
      <trkpt lat="37.5908480" lon="-4.1669350">
        <ele>403.6</ele>
        <time>2021-12-28T10:19:47Z</time>
      </trkpt>
      <trkpt lat="37.5908060" lon="-4.1669620">
        <ele>403.6</ele>
        <time>2021-12-28T10:19:48Z</time>
      </trkpt>
      <trkpt lat="37.5907680" lon="-4.1669880">
        <ele>403.4</ele>
        <time>2021-12-28T10:19:49Z</time>
      </trkpt>
      <trkpt lat="37.5907200" lon="-4.1670150">
        <ele>403.4</ele>
        <time>2021-12-28T10:19:50Z</time>
      </trkpt>
      <trkpt lat="37.5906780" lon="-4.1670420">
        <ele>403.2</ele>
        <time>2021-12-28T10:19:51Z</time>
      </trkpt>
      <trkpt lat="37.5906340" lon="-4.1670700">
        <ele>403.2</ele>
        <time>2021-12-28T10:19:52Z</time>
      </trkpt>
      <trkpt lat="37.5905920" lon="-4.1670980">
        <ele>403.0</ele>
        <time>2021-12-28T10:19:53Z</time>
      </trkpt>
      <trkpt lat="37.5905470" lon="-4.1671230">
        <ele>403.0</ele>
        <time>2021-12-28T10:19:54Z</time>
      </trkpt>
      <trkpt lat="37.5905020" lon="-4.1671500">
        <ele>403.0</ele>
        <time>2021-12-28T10:19:55Z</time>
      </trkpt>
      <trkpt lat="37.5904610" lon="-4.1671780">
        <ele>402.8</ele>
        <time>2021-12-28T10:19:56Z</time>
      </trkpt>
      <trkpt lat="37.5904190" lon="-4.1672070">
        <ele>402.6</ele>
        <time>2021-12-28T10:19:57Z</time>
      </trkpt>
      <trkpt lat="37.5903740" lon="-4.1672340">
        <ele>402.6</ele>
        <time>2021-12-28T10:19:58Z</time>
      </trkpt>
      <trkpt lat="37.5903330" lon="-4.1672580">
        <ele>402.4</ele>
        <time>2021-12-28T10:19:59Z</time>
      </trkpt>
      <trkpt lat="37.5902740" lon="-4.1672940">
        <ele>402.4</ele>
        <time>2021-12-28T10:20:00Z</time>
      </trkpt>
      <trkpt lat="37.5902530" lon="-4.1673070">
        <ele>402.0</ele>
        <time>2021-12-28T10:20:01Z</time>
      </trkpt>
      <trkpt lat="37.5902180" lon="-4.1673320">
        <ele>402.0</ele>
        <time>2021-12-28T10:20:02Z</time>
      </trkpt>
      <trkpt lat="37.5901790" lon="-4.1673560">
        <ele>401.8</ele>
        <time>2021-12-28T10:20:03Z</time>
      </trkpt>
      <trkpt lat="37.5901410" lon="-4.1673780">
        <ele>401.8</ele>
        <time>2021-12-28T10:20:04Z</time>
      </trkpt>
      <trkpt lat="37.5901020" lon="-4.1674030">
        <ele>401.8</ele>
        <time>2021-12-28T10:20:05Z</time>
      </trkpt>
      <trkpt lat="37.5900610" lon="-4.1674260">
        <ele>401.6</ele>
        <time>2021-12-28T10:20:06Z</time>
      </trkpt>
      <trkpt lat="37.5900220" lon="-4.1674500">
        <ele>401.6</ele>
        <time>2021-12-28T10:20:07Z</time>
      </trkpt>
      <trkpt lat="37.5899840" lon="-4.1674750">
        <ele>401.4</ele>
        <time>2021-12-28T10:20:08Z</time>
      </trkpt>
      <trkpt lat="37.5899460" lon="-4.1675000">
        <ele>401.2</ele>
        <time>2021-12-28T10:20:09Z</time>
      </trkpt>
      <trkpt lat="37.5899070" lon="-4.1675250">
        <ele>401.2</ele>
        <time>2021-12-28T10:20:10Z</time>
      </trkpt>
      <trkpt lat="37.5898660" lon="-4.1675480">
        <ele>401.0</ele>
        <time>2021-12-28T10:20:11Z</time>
      </trkpt>
      <trkpt lat="37.5898270" lon="-4.1675740">
        <ele>401.0</ele>
        <time>2021-12-28T10:20:12Z</time>
      </trkpt>
      <trkpt lat="37.5897860" lon="-4.1675980">
        <ele>400.8</ele>
        <time>2021-12-28T10:20:13Z</time>
      </trkpt>
      <trkpt lat="37.5897470" lon="-4.1676240">
        <ele>400.8</ele>
        <time>2021-12-28T10:20:14Z</time>
      </trkpt>
      <trkpt lat="37.5897060" lon="-4.1676480">
        <ele>400.8</ele>
        <time>2021-12-28T10:20:15Z</time>
      </trkpt>
      <trkpt lat="37.5896670" lon="-4.1676750">
        <ele>400.8</ele>
        <time>2021-12-28T10:20:16Z</time>
      </trkpt>
      <trkpt lat="37.5896290" lon="-4.1677030">
        <ele>400.8</ele>
        <time>2021-12-28T10:20:17Z</time>
      </trkpt>
      <trkpt lat="37.5895870" lon="-4.1677260">
        <ele>400.8</ele>
        <time>2021-12-28T10:20:18Z</time>
      </trkpt>
      <trkpt lat="37.5895490" lon="-4.1677530">
        <ele>400.8</ele>
        <time>2021-12-28T10:20:19Z</time>
      </trkpt>
      <trkpt lat="37.5895100" lon="-4.1677780">
        <ele>400.6</ele>
        <time>2021-12-28T10:20:20Z</time>
      </trkpt>
      <trkpt lat="37.5894750" lon="-4.1678030">
        <ele>400.6</ele>
        <time>2021-12-28T10:20:21Z</time>
      </trkpt>
      <trkpt lat="37.5894370" lon="-4.1678250">
        <ele>400.4</ele>
        <time>2021-12-28T10:20:22Z</time>
      </trkpt>
      <trkpt lat="37.5893950" lon="-4.1678480">
        <ele>400.4</ele>
        <time>2021-12-28T10:20:23Z</time>
      </trkpt>
      <trkpt lat="37.5893500" lon="-4.1678730">
        <ele>400.2</ele>
        <time>2021-12-28T10:20:24Z</time>
      </trkpt>
      <trkpt lat="37.5893120" lon="-4.1678980">
        <ele>400.2</ele>
        <time>2021-12-28T10:20:25Z</time>
      </trkpt>
      <trkpt lat="37.5892700" lon="-4.1679240">
        <ele>400.2</ele>
        <time>2021-12-28T10:20:26Z</time>
      </trkpt>
      <trkpt lat="37.5892290" lon="-4.1679500">
        <ele>400.0</ele>
        <time>2021-12-28T10:20:27Z</time>
      </trkpt>
      <trkpt lat="37.5891870" lon="-4.1679780">
        <ele>400.0</ele>
        <time>2021-12-28T10:20:28Z</time>
      </trkpt>
      <trkpt lat="37.5891460" lon="-4.1680070">
        <ele>400.0</ele>
        <time>2021-12-28T10:20:29Z</time>
      </trkpt>
      <trkpt lat="37.5891070" lon="-4.1680350">
        <ele>400.0</ele>
        <time>2021-12-28T10:20:30Z</time>
      </trkpt>
      <trkpt lat="37.5890660" lon="-4.1680630">
        <ele>399.8</ele>
        <time>2021-12-28T10:20:31Z</time>
      </trkpt>
      <trkpt lat="37.5890300" lon="-4.1680880">
        <ele>399.8</ele>
        <time>2021-12-28T10:20:32Z</time>
      </trkpt>
      <trkpt lat="37.5889980" lon="-4.1681150">
        <ele>399.8</ele>
        <time>2021-12-28T10:20:33Z</time>
      </trkpt>
      <trkpt lat="37.5889600" lon="-4.1681430">
        <ele>399.8</ele>
        <time>2021-12-28T10:20:34Z</time>
      </trkpt>
      <trkpt lat="37.5889280" lon="-4.1681680">
        <ele>399.8</ele>
        <time>2021-12-28T10:20:35Z</time>
      </trkpt>
      <trkpt lat="37.5888930" lon="-4.1681970">
        <ele>400.0</ele>
        <time>2021-12-28T10:20:36Z</time>
      </trkpt>
      <trkpt lat="37.5888670" lon="-4.1682180">
        <ele>399.8</ele>
        <time>2021-12-28T10:20:37Z</time>
      </trkpt>
      <trkpt lat="37.5888510" lon="-4.1682330">
        <ele>400.0</ele>
        <time>2021-12-28T10:20:38Z</time>
      </trkpt>
      <trkpt lat="37.5888510" lon="-4.1682330">
        <ele>399.8</ele>
        <time>2021-12-28T10:20:39Z</time>
      </trkpt>
      <trkpt lat="37.5888510" lon="-4.1682330">
        <ele>399.8</ele>
        <time>2021-12-28T10:20:40Z</time>
      </trkpt>
      <trkpt lat="37.5888510" lon="-4.1682330">
        <ele>399.8</ele>
        <time>2021-12-28T10:20:41Z</time>
      </trkpt>
      <trkpt lat="37.5888510" lon="-4.1682330">
        <ele>399.8</ele>
        <time>2021-12-28T10:20:42Z</time>
      </trkpt>
      <trkpt lat="37.5888510" lon="-4.1682330">
        <ele>399.8</ele>
        <time>2021-12-28T10:20:43Z</time>
      </trkpt>
      <trkpt lat="37.5887360" lon="-4.1683340">
        <ele>399.2</ele>
        <time>2021-12-28T10:20:54Z</time>
      </trkpt>
      <trkpt lat="37.5887140" lon="-4.1683520">
        <ele>399.2</ele>
        <time>2021-12-28T10:20:55Z</time>
      </trkpt>
      <trkpt lat="37.5886910" lon="-4.1683750">
        <ele>399.0</ele>
        <time>2021-12-28T10:20:56Z</time>
      </trkpt>
      <trkpt lat="37.5886660" lon="-4.1684000">
        <ele>399.0</ele>
        <time>2021-12-28T10:20:57Z</time>
      </trkpt>
      <trkpt lat="37.5886370" lon="-4.1684280">
        <ele>399.0</ele>
        <time>2021-12-28T10:20:58Z</time>
      </trkpt>
      <trkpt lat="37.5886110" lon="-4.1684560">
        <ele>398.8</ele>
        <time>2021-12-28T10:20:59Z</time>
      </trkpt>
      <trkpt lat="37.5885860" lon="-4.1684850">
        <ele>398.8</ele>
        <time>2021-12-28T10:21:00Z</time>
      </trkpt>
      <trkpt lat="37.5885570" lon="-4.1685170">
        <ele>398.6</ele>
        <time>2021-12-28T10:21:01Z</time>
      </trkpt>
      <trkpt lat="37.5885310" lon="-4.1685480">
        <ele>398.6</ele>
        <time>2021-12-28T10:21:02Z</time>
      </trkpt>
      <trkpt lat="37.5885060" lon="-4.1685800">
        <ele>398.6</ele>
        <time>2021-12-28T10:21:03Z</time>
      </trkpt>
      <trkpt lat="37.5884740" lon="-4.1686120">
        <ele>398.6</ele>
        <time>2021-12-28T10:21:04Z</time>
      </trkpt>
      <trkpt lat="37.5884480" lon="-4.1686450">
        <ele>398.6</ele>
        <time>2021-12-28T10:21:05Z</time>
      </trkpt>
      <trkpt lat="37.5884160" lon="-4.1686780">
        <ele>398.4</ele>
        <time>2021-12-28T10:21:06Z</time>
      </trkpt>
      <trkpt lat="37.5883940" lon="-4.1687140">
        <ele>398.4</ele>
        <time>2021-12-28T10:21:07Z</time>
      </trkpt>
      <trkpt lat="37.5883680" lon="-4.1687460">
        <ele>398.4</ele>
        <time>2021-12-28T10:21:08Z</time>
      </trkpt>
      <trkpt lat="37.5883490" lon="-4.1687760">
        <ele>398.2</ele>
        <time>2021-12-28T10:21:09Z</time>
      </trkpt>
      <trkpt lat="37.5883260" lon="-4.1688050">
        <ele>398.2</ele>
        <time>2021-12-28T10:21:10Z</time>
      </trkpt>
      <trkpt lat="37.5883100" lon="-4.1688300">
        <ele>398.0</ele>
        <time>2021-12-28T10:21:11Z</time>
      </trkpt>
      <trkpt lat="37.5882940" lon="-4.1688550">
        <ele>398.0</ele>
        <time>2021-12-28T10:21:12Z</time>
      </trkpt>
      <trkpt lat="37.5882850" lon="-4.1688770">
        <ele>398.0</ele>
        <time>2021-12-28T10:21:13Z</time>
      </trkpt>
      <trkpt lat="37.5882690" lon="-4.1688980">
        <ele>397.8</ele>
        <time>2021-12-28T10:21:14Z</time>
      </trkpt>
      <trkpt lat="37.5882530" lon="-4.1689180">
        <ele>397.8</ele>
        <time>2021-12-28T10:21:15Z</time>
      </trkpt>
      <trkpt lat="37.5882340" lon="-4.1689400">
        <ele>397.6</ele>
        <time>2021-12-28T10:21:16Z</time>
      </trkpt>
      <trkpt lat="37.5882140" lon="-4.1689640">
        <ele>397.6</ele>
        <time>2021-12-28T10:21:17Z</time>
      </trkpt>
      <trkpt lat="37.5881980" lon="-4.1689880">
        <ele>397.6</ele>
        <time>2021-12-28T10:21:18Z</time>
      </trkpt>
      <trkpt lat="37.5881760" lon="-4.1690140">
        <ele>397.6</ele>
        <time>2021-12-28T10:21:19Z</time>
      </trkpt>
      <trkpt lat="37.5881570" lon="-4.1690380">
        <ele>397.4</ele>
        <time>2021-12-28T10:21:20Z</time>
      </trkpt>
      <trkpt lat="37.5881340" lon="-4.1690650">
        <ele>397.4</ele>
        <time>2021-12-28T10:21:21Z</time>
      </trkpt>
      <trkpt lat="37.5881150" lon="-4.1690930">
        <ele>397.4</ele>
        <time>2021-12-28T10:21:22Z</time>
      </trkpt>
      <trkpt lat="37.5880960" lon="-4.1691200">
        <ele>397.4</ele>
        <time>2021-12-28T10:21:23Z</time>
      </trkpt>
      <trkpt lat="37.5880700" lon="-4.1691480">
        <ele>397.2</ele>
        <time>2021-12-28T10:21:24Z</time>
      </trkpt>
      <trkpt lat="37.5880480" lon="-4.1691760">
        <ele>397.2</ele>
        <time>2021-12-28T10:21:25Z</time>
      </trkpt>
      <trkpt lat="37.5880260" lon="-4.1692070">
        <ele>397.2</ele>
        <time>2021-12-28T10:21:26Z</time>
      </trkpt>
      <trkpt lat="37.5880000" lon="-4.1692350">
        <ele>397.2</ele>
        <time>2021-12-28T10:21:27Z</time>
      </trkpt>
      <trkpt lat="37.5879780" lon="-4.1692630">
        <ele>397.2</ele>
        <time>2021-12-28T10:21:28Z</time>
      </trkpt>
      <trkpt lat="37.5879550" lon="-4.1692900">
        <ele>397.2</ele>
        <time>2021-12-28T10:21:29Z</time>
      </trkpt>
      <trkpt lat="37.5879330" lon="-4.1693200">
        <ele>397.2</ele>
        <time>2021-12-28T10:21:30Z</time>
      </trkpt>
      <trkpt lat="37.5879100" lon="-4.1693500">
        <ele>397.2</ele>
        <time>2021-12-28T10:21:31Z</time>
      </trkpt>
      <trkpt lat="37.5878880" lon="-4.1693780">
        <ele>397.2</ele>
        <time>2021-12-28T10:21:32Z</time>
      </trkpt>
      <trkpt lat="37.5878590" lon="-4.1694080">
        <ele>397.2</ele>
        <time>2021-12-28T10:21:33Z</time>
      </trkpt>
      <trkpt lat="37.5878370" lon="-4.1694360">
        <ele>397.2</ele>
        <time>2021-12-28T10:21:34Z</time>
      </trkpt>
      <trkpt lat="37.5878140" lon="-4.1694660">
        <ele>397.2</ele>
        <time>2021-12-28T10:21:35Z</time>
      </trkpt>
      <trkpt lat="37.5877920" lon="-4.1694950">
        <ele>397.4</ele>
        <time>2021-12-28T10:21:36Z</time>
      </trkpt>
      <trkpt lat="37.5877700" lon="-4.1695230">
        <ele>397.4</ele>
        <time>2021-12-28T10:21:37Z</time>
      </trkpt>
      <trkpt lat="37.5877470" lon="-4.1695550">
        <ele>397.4</ele>
        <time>2021-12-28T10:21:38Z</time>
      </trkpt>
      <trkpt lat="37.5877220" lon="-4.1695870">
        <ele>397.4</ele>
        <time>2021-12-28T10:21:39Z</time>
      </trkpt>
      <trkpt lat="37.5876960" lon="-4.1696180">
        <ele>397.2</ele>
        <time>2021-12-28T10:21:40Z</time>
      </trkpt>
      <trkpt lat="37.5876700" lon="-4.1696520">
        <ele>397.2</ele>
        <time>2021-12-28T10:21:41Z</time>
      </trkpt>
      <trkpt lat="37.5876480" lon="-4.1696820">
        <ele>397.2</ele>
        <time>2021-12-28T10:21:42Z</time>
      </trkpt>
      <trkpt lat="37.5876190" lon="-4.1697140">
        <ele>397.2</ele>
        <time>2021-12-28T10:21:43Z</time>
      </trkpt>
      <trkpt lat="37.5875940" lon="-4.1697450">
        <ele>397.0</ele>
        <time>2021-12-28T10:21:44Z</time>
      </trkpt>
      <trkpt lat="37.5875650" lon="-4.1697760">
        <ele>397.2</ele>
        <time>2021-12-28T10:21:45Z</time>
      </trkpt>
      <trkpt lat="37.5875390" lon="-4.1698100">
        <ele>397.2</ele>
        <time>2021-12-28T10:21:46Z</time>
      </trkpt>
      <trkpt lat="37.5875140" lon="-4.1698420">
        <ele>397.2</ele>
        <time>2021-12-28T10:21:47Z</time>
      </trkpt>
      <trkpt lat="37.5874850" lon="-4.1698730">
        <ele>397.2</ele>
        <time>2021-12-28T10:21:48Z</time>
      </trkpt>
      <trkpt lat="37.5874590" lon="-4.1699070">
        <ele>397.2</ele>
        <time>2021-12-28T10:21:49Z</time>
      </trkpt>
      <trkpt lat="37.5874340" lon="-4.1699400">
        <ele>397.2</ele>
        <time>2021-12-28T10:21:50Z</time>
      </trkpt>
      <trkpt lat="37.5874050" lon="-4.1699730">
        <ele>397.2</ele>
        <time>2021-12-28T10:21:51Z</time>
      </trkpt>
      <trkpt lat="37.5873760" lon="-4.1700070">
        <ele>397.2</ele>
        <time>2021-12-28T10:21:52Z</time>
      </trkpt>
      <trkpt lat="37.5873500" lon="-4.1700370">
        <ele>397.4</ele>
        <time>2021-12-28T10:21:53Z</time>
      </trkpt>
      <trkpt lat="37.5873220" lon="-4.1700700">
        <ele>397.4</ele>
        <time>2021-12-28T10:21:54Z</time>
      </trkpt>
      <trkpt lat="37.5872960" lon="-4.1701050">
        <ele>397.4</ele>
        <time>2021-12-28T10:21:55Z</time>
      </trkpt>
      <trkpt lat="37.5872700" lon="-4.1701380">
        <ele>397.4</ele>
        <time>2021-12-28T10:21:56Z</time>
      </trkpt>
      <trkpt lat="37.5872420" lon="-4.1701720">
        <ele>397.4</ele>
        <time>2021-12-28T10:21:57Z</time>
      </trkpt>
      <trkpt lat="37.5872130" lon="-4.1702080">
        <ele>397.4</ele>
        <time>2021-12-28T10:21:58Z</time>
      </trkpt>
      <trkpt lat="37.5871840" lon="-4.1702450">
        <ele>397.4</ele>
        <time>2021-12-28T10:21:59Z</time>
      </trkpt>
      <trkpt lat="37.5871550" lon="-4.1702800">
        <ele>397.6</ele>
        <time>2021-12-28T10:22:00Z</time>
      </trkpt>
      <trkpt lat="37.5871230" lon="-4.1703150">
        <ele>397.6</ele>
        <time>2021-12-28T10:22:01Z</time>
      </trkpt>
      <trkpt lat="37.5870980" lon="-4.1703520">
        <ele>397.6</ele>
        <time>2021-12-28T10:22:02Z</time>
      </trkpt>
      <trkpt lat="37.5870660" lon="-4.1703880">
        <ele>397.6</ele>
        <time>2021-12-28T10:22:03Z</time>
      </trkpt>
      <trkpt lat="37.5870400" lon="-4.1704240">
        <ele>397.6</ele>
        <time>2021-12-28T10:22:04Z</time>
      </trkpt>
      <trkpt lat="37.5870140" lon="-4.1704570">
        <ele>397.6</ele>
        <time>2021-12-28T10:22:05Z</time>
      </trkpt>
      <trkpt lat="37.5869860" lon="-4.1704900">
        <ele>397.6</ele>
        <time>2021-12-28T10:22:06Z</time>
      </trkpt>
      <trkpt lat="37.5869630" lon="-4.1705200">
        <ele>397.4</ele>
        <time>2021-12-28T10:22:07Z</time>
      </trkpt>
      <trkpt lat="37.5869440" lon="-4.1705420">
        <ele>397.4</ele>
        <time>2021-12-28T10:22:08Z</time>
      </trkpt>
      <trkpt lat="37.5869440" lon="-4.1705420">
        <ele>397.2</ele>
        <time>2021-12-28T10:22:09Z</time>
      </trkpt>
      <trkpt lat="37.5869250" lon="-4.1705600">
        <ele>397.2</ele>
        <time>2021-12-28T10:22:10Z</time>
      </trkpt>
      <trkpt lat="37.5869250" lon="-4.1705600">
        <ele>397.2</ele>
        <time>2021-12-28T10:22:11Z</time>
      </trkpt>
      <trkpt lat="37.5869250" lon="-4.1705600">
        <ele>397.2</ele>
        <time>2021-12-28T10:22:12Z</time>
      </trkpt>
      <trkpt lat="37.5869090" lon="-4.1705720">
        <ele>397.2</ele>
        <time>2021-12-28T10:22:13Z</time>
      </trkpt>
      <trkpt lat="37.5869090" lon="-4.1705720">
        <ele>397.2</ele>
        <time>2021-12-28T10:22:14Z</time>
      </trkpt>
      <trkpt lat="37.5868100" lon="-4.1706820">
        <ele>395.6</ele>
        <time>2021-12-28T10:38:22Z</time>
      </trkpt>
      <trkpt lat="37.5867900" lon="-4.1707050">
        <ele>395.6</ele>
        <time>2021-12-28T10:38:23Z</time>
      </trkpt>
      <trkpt lat="37.5867740" lon="-4.1707320">
        <ele>395.6</ele>
        <time>2021-12-28T10:38:24Z</time>
      </trkpt>
      <trkpt lat="37.5867550" lon="-4.1707600">
        <ele>395.6</ele>
        <time>2021-12-28T10:38:25Z</time>
      </trkpt>
      <trkpt lat="37.5867360" lon="-4.1707900">
        <ele>395.6</ele>
        <time>2021-12-28T10:38:26Z</time>
      </trkpt>
      <trkpt lat="37.5867100" lon="-4.1708200">
        <ele>395.8</ele>
        <time>2021-12-28T10:38:27Z</time>
      </trkpt>
      <trkpt lat="37.5866940" lon="-4.1708450">
        <ele>395.8</ele>
        <time>2021-12-28T10:38:28Z</time>
      </trkpt>
      <trkpt lat="37.5866690" lon="-4.1708700">
        <ele>395.8</ele>
        <time>2021-12-28T10:38:29Z</time>
      </trkpt>
      <trkpt lat="37.5866560" lon="-4.1708960">
        <ele>395.8</ele>
        <time>2021-12-28T10:38:30Z</time>
      </trkpt>
      <trkpt lat="37.5866370" lon="-4.1709220">
        <ele>395.8</ele>
        <time>2021-12-28T10:38:31Z</time>
      </trkpt>
      <trkpt lat="37.5866180" lon="-4.1709500">
        <ele>395.8</ele>
        <time>2021-12-28T10:38:32Z</time>
      </trkpt>
      <trkpt lat="37.5866020" lon="-4.1709780">
        <ele>395.8</ele>
        <time>2021-12-28T10:38:33Z</time>
      </trkpt>
      <trkpt lat="37.5865820" lon="-4.1710070">
        <ele>395.8</ele>
        <time>2021-12-28T10:38:34Z</time>
      </trkpt>
      <trkpt lat="37.5865630" lon="-4.1710350">
        <ele>395.8</ele>
        <time>2021-12-28T10:38:35Z</time>
      </trkpt>
      <trkpt lat="37.5865410" lon="-4.1710640">
        <ele>396.0</ele>
        <time>2021-12-28T10:38:36Z</time>
      </trkpt>
      <trkpt lat="37.5865250" lon="-4.1710920">
        <ele>396.0</ele>
        <time>2021-12-28T10:38:37Z</time>
      </trkpt>
      <trkpt lat="37.5865060" lon="-4.1711200">
        <ele>395.8</ele>
        <time>2021-12-28T10:38:38Z</time>
      </trkpt>
      <trkpt lat="37.5864900" lon="-4.1711500">
        <ele>395.8</ele>
        <time>2021-12-28T10:38:39Z</time>
      </trkpt>
      <trkpt lat="37.5864770" lon="-4.1711820">
        <ele>395.8</ele>
        <time>2021-12-28T10:38:40Z</time>
      </trkpt>
      <trkpt lat="37.5864580" lon="-4.1712120">
        <ele>395.8</ele>
        <time>2021-12-28T10:38:41Z</time>
      </trkpt>
      <trkpt lat="37.5864420" lon="-4.1712420">
        <ele>395.8</ele>
        <time>2021-12-28T10:38:42Z</time>
      </trkpt>
      <trkpt lat="37.5864220" lon="-4.1712730">
        <ele>395.8</ele>
        <time>2021-12-28T10:38:43Z</time>
      </trkpt>
      <trkpt lat="37.5864060" lon="-4.1713030">
        <ele>395.8</ele>
        <time>2021-12-28T10:38:44Z</time>
      </trkpt>
      <trkpt lat="37.5863970" lon="-4.1713370">
        <ele>395.8</ele>
        <time>2021-12-28T10:38:45Z</time>
      </trkpt>
      <trkpt lat="37.5863780" lon="-4.1713700">
        <ele>395.8</ele>
        <time>2021-12-28T10:38:46Z</time>
      </trkpt>
      <trkpt lat="37.5863620" lon="-4.1714050">
        <ele>395.8</ele>
        <time>2021-12-28T10:38:47Z</time>
      </trkpt>
      <trkpt lat="37.5863490" lon="-4.1714370">
        <ele>395.8</ele>
        <time>2021-12-28T10:38:48Z</time>
      </trkpt>
      <trkpt lat="37.5863330" lon="-4.1714720">
        <ele>395.8</ele>
        <time>2021-12-28T10:38:49Z</time>
      </trkpt>
      <trkpt lat="37.5863230" lon="-4.1715040">
        <ele>395.8</ele>
        <time>2021-12-28T10:38:50Z</time>
      </trkpt>
      <trkpt lat="37.5863040" lon="-4.1715360">
        <ele>395.6</ele>
        <time>2021-12-28T10:38:51Z</time>
      </trkpt>
      <trkpt lat="37.5862880" lon="-4.1715680">
        <ele>395.6</ele>
        <time>2021-12-28T10:38:52Z</time>
      </trkpt>
      <trkpt lat="37.5862780" lon="-4.1716020">
        <ele>395.6</ele>
        <time>2021-12-28T10:38:53Z</time>
      </trkpt>
      <trkpt lat="37.5862660" lon="-4.1716320">
        <ele>395.6</ele>
        <time>2021-12-28T10:38:54Z</time>
      </trkpt>
      <trkpt lat="37.5862530" lon="-4.1716650">
        <ele>395.6</ele>
        <time>2021-12-28T10:38:55Z</time>
      </trkpt>
      <trkpt lat="37.5862400" lon="-4.1716980">
        <ele>395.8</ele>
        <time>2021-12-28T10:38:56Z</time>
      </trkpt>
      <trkpt lat="37.5862270" lon="-4.1717300">
        <ele>395.8</ele>
        <time>2021-12-28T10:38:57Z</time>
      </trkpt>
      <trkpt lat="37.5862140" lon="-4.1717620">
        <ele>395.8</ele>
        <time>2021-12-28T10:38:58Z</time>
      </trkpt>
      <trkpt lat="37.5862050" lon="-4.1717950">
        <ele>395.8</ele>
        <time>2021-12-28T10:38:59Z</time>
      </trkpt>
      <trkpt lat="37.5861920" lon="-4.1718280">
        <ele>395.8</ele>
        <time>2021-12-28T10:39:00Z</time>
      </trkpt>
      <trkpt lat="37.5861820" lon="-4.1718600">
        <ele>395.8</ele>
        <time>2021-12-28T10:39:01Z</time>
      </trkpt>
      <trkpt lat="37.5861730" lon="-4.1718930">
        <ele>395.8</ele>
        <time>2021-12-28T10:39:02Z</time>
      </trkpt>
      <trkpt lat="37.5861630" lon="-4.1719280">
        <ele>395.8</ele>
        <time>2021-12-28T10:39:03Z</time>
      </trkpt>
      <trkpt lat="37.5861500" lon="-4.1719630">
        <ele>395.8</ele>
        <time>2021-12-28T10:39:04Z</time>
      </trkpt>
      <trkpt lat="37.5861440" lon="-4.1719980">
        <ele>395.8</ele>
        <time>2021-12-28T10:39:05Z</time>
      </trkpt>
      <trkpt lat="37.5861310" lon="-4.1720330">
        <ele>395.8</ele>
        <time>2021-12-28T10:39:06Z</time>
      </trkpt>
      <trkpt lat="37.5861220" lon="-4.1720680">
        <ele>395.8</ele>
        <time>2021-12-28T10:39:07Z</time>
      </trkpt>
      <trkpt lat="37.5861120" lon="-4.1721040">
        <ele>395.8</ele>
        <time>2021-12-28T10:39:08Z</time>
      </trkpt>
      <trkpt lat="37.5861020" lon="-4.1721370">
        <ele>395.8</ele>
        <time>2021-12-28T10:39:09Z</time>
      </trkpt>
      <trkpt lat="37.5860930" lon="-4.1721720">
        <ele>395.8</ele>
        <time>2021-12-28T10:39:10Z</time>
      </trkpt>
      <trkpt lat="37.5860860" lon="-4.1722040">
        <ele>395.8</ele>
        <time>2021-12-28T10:39:11Z</time>
      </trkpt>
      <trkpt lat="37.5860800" lon="-4.1722380">
        <ele>395.6</ele>
        <time>2021-12-28T10:39:12Z</time>
      </trkpt>
      <trkpt lat="37.5860740" lon="-4.1722700">
        <ele>395.6</ele>
        <time>2021-12-28T10:39:13Z</time>
      </trkpt>
      <trkpt lat="37.5860670" lon="-4.1723030">
        <ele>395.6</ele>
        <time>2021-12-28T10:39:14Z</time>
      </trkpt>
      <trkpt lat="37.5860610" lon="-4.1723380">
        <ele>395.8</ele>
        <time>2021-12-28T10:39:15Z</time>
      </trkpt>
      <trkpt lat="37.5860510" lon="-4.1723730">
        <ele>395.8</ele>
        <time>2021-12-28T10:39:16Z</time>
      </trkpt>
      <trkpt lat="37.5860480" lon="-4.1724100">
        <ele>395.8</ele>
        <time>2021-12-28T10:39:17Z</time>
      </trkpt>
      <trkpt lat="37.5860420" lon="-4.1724480">
        <ele>395.8</ele>
        <time>2021-12-28T10:39:18Z</time>
      </trkpt>
      <trkpt lat="37.5860350" lon="-4.1724850">
        <ele>395.8</ele>
        <time>2021-12-28T10:39:19Z</time>
      </trkpt>
      <trkpt lat="37.5860290" lon="-4.1725200">
        <ele>396.0</ele>
        <time>2021-12-28T10:39:20Z</time>
      </trkpt>
      <trkpt lat="37.5860220" lon="-4.1725550">
        <ele>396.0</ele>
        <time>2021-12-28T10:39:21Z</time>
      </trkpt>
      <trkpt lat="37.5860190" lon="-4.1725930">
        <ele>396.0</ele>
        <time>2021-12-28T10:39:22Z</time>
      </trkpt>
      <trkpt lat="37.5860100" lon="-4.1726300">
        <ele>396.0</ele>
        <time>2021-12-28T10:39:23Z</time>
      </trkpt>
      <trkpt lat="37.5860000" lon="-4.1726660">
        <ele>396.0</ele>
        <time>2021-12-28T10:39:24Z</time>
      </trkpt>
      <trkpt lat="37.5860000" lon="-4.1727020">
        <ele>396.0</ele>
        <time>2021-12-28T10:39:25Z</time>
      </trkpt>
      <trkpt lat="37.5859900" lon="-4.1727380">
        <ele>396.0</ele>
        <time>2021-12-28T10:39:26Z</time>
      </trkpt>
      <trkpt lat="37.5859840" lon="-4.1727770">
        <ele>396.0</ele>
        <time>2021-12-28T10:39:27Z</time>
      </trkpt>
      <trkpt lat="37.5859810" lon="-4.1728120">
        <ele>396.0</ele>
        <time>2021-12-28T10:39:28Z</time>
      </trkpt>
      <trkpt lat="37.5859710" lon="-4.1728450">
        <ele>396.2</ele>
        <time>2021-12-28T10:39:29Z</time>
      </trkpt>
      <trkpt lat="37.5859680" lon="-4.1728820">
        <ele>396.2</ele>
        <time>2021-12-28T10:39:30Z</time>
      </trkpt>
      <trkpt lat="37.5859620" lon="-4.1729180">
        <ele>396.4</ele>
        <time>2021-12-28T10:39:31Z</time>
      </trkpt>
      <trkpt lat="37.5859550" lon="-4.1729530">
        <ele>396.4</ele>
        <time>2021-12-28T10:39:32Z</time>
      </trkpt>
      <trkpt lat="37.5859520" lon="-4.1729920">
        <ele>396.6</ele>
        <time>2021-12-28T10:39:33Z</time>
      </trkpt>
      <trkpt lat="37.5859460" lon="-4.1730280">
        <ele>396.6</ele>
        <time>2021-12-28T10:39:34Z</time>
      </trkpt>
      <trkpt lat="37.5859420" lon="-4.1730680">
        <ele>396.8</ele>
        <time>2021-12-28T10:39:35Z</time>
      </trkpt>
      <trkpt lat="37.5859330" lon="-4.1731070">
        <ele>396.8</ele>
        <time>2021-12-28T10:39:36Z</time>
      </trkpt>
      <trkpt lat="37.5859300" lon="-4.1731470">
        <ele>397.0</ele>
        <time>2021-12-28T10:39:37Z</time>
      </trkpt>
      <trkpt lat="37.5859230" lon="-4.1731850">
        <ele>397.0</ele>
        <time>2021-12-28T10:39:38Z</time>
      </trkpt>
      <trkpt lat="37.5859140" lon="-4.1732270">
        <ele>397.0</ele>
        <time>2021-12-28T10:39:39Z</time>
      </trkpt>
      <trkpt lat="37.5859040" lon="-4.1732680">
        <ele>397.0</ele>
        <time>2021-12-28T10:39:40Z</time>
      </trkpt>
      <trkpt lat="37.5859010" lon="-4.1733100">
        <ele>397.2</ele>
        <time>2021-12-28T10:39:41Z</time>
      </trkpt>
      <trkpt lat="37.5858910" lon="-4.1733500">
        <ele>397.2</ele>
        <time>2021-12-28T10:39:42Z</time>
      </trkpt>
      <trkpt lat="37.5858880" lon="-4.1733880">
        <ele>397.2</ele>
        <time>2021-12-28T10:39:43Z</time>
      </trkpt>
      <trkpt lat="37.5858850" lon="-4.1734270">
        <ele>397.4</ele>
        <time>2021-12-28T10:39:44Z</time>
      </trkpt>
      <trkpt lat="37.5858750" lon="-4.1734650">
        <ele>397.4</ele>
        <time>2021-12-28T10:39:45Z</time>
      </trkpt>
      <trkpt lat="37.5858720" lon="-4.1735050">
        <ele>397.4</ele>
        <time>2021-12-28T10:39:46Z</time>
      </trkpt>
      <trkpt lat="37.5858690" lon="-4.1735440">
        <ele>397.6</ele>
        <time>2021-12-28T10:39:47Z</time>
      </trkpt>
      <trkpt lat="37.5858660" lon="-4.1735780">
        <ele>397.6</ele>
        <time>2021-12-28T10:39:48Z</time>
      </trkpt>
      <trkpt lat="37.5858560" lon="-4.1736140">
        <ele>397.6</ele>
        <time>2021-12-28T10:39:49Z</time>
      </trkpt>
      <trkpt lat="37.5858530" lon="-4.1736520">
        <ele>397.6</ele>
        <time>2021-12-28T10:39:50Z</time>
      </trkpt>
      <trkpt lat="37.5858500" lon="-4.1736880">
        <ele>397.6</ele>
        <time>2021-12-28T10:39:51Z</time>
      </trkpt>
      <trkpt lat="37.5858430" lon="-4.1737250">
        <ele>397.6</ele>
        <time>2021-12-28T10:39:52Z</time>
      </trkpt>
      <trkpt lat="37.5858340" lon="-4.1737620">
        <ele>397.6</ele>
        <time>2021-12-28T10:39:53Z</time>
      </trkpt>
      <trkpt lat="37.5858270" lon="-4.1737980">
        <ele>397.4</ele>
        <time>2021-12-28T10:39:54Z</time>
      </trkpt>
      <trkpt lat="37.5858210" lon="-4.1738330">
        <ele>397.4</ele>
        <time>2021-12-28T10:39:55Z</time>
      </trkpt>
      <trkpt lat="37.5858140" lon="-4.1738650">
        <ele>397.4</ele>
        <time>2021-12-28T10:39:56Z</time>
      </trkpt>
      <trkpt lat="37.5858080" lon="-4.1738950">
        <ele>397.4</ele>
        <time>2021-12-28T10:39:57Z</time>
      </trkpt>
      <trkpt lat="37.5858020" lon="-4.1739280">
        <ele>397.2</ele>
        <time>2021-12-28T10:39:58Z</time>
      </trkpt>
      <trkpt lat="37.5857890" lon="-4.1739620">
        <ele>397.2</ele>
        <time>2021-12-28T10:39:59Z</time>
      </trkpt>
      <trkpt lat="37.5857810" lon="-4.1740160">
        <ele>397.2</ele>
        <time>2021-12-28T10:40:00Z</time>
      </trkpt>
      <trkpt lat="37.5857760" lon="-4.1740330">
        <ele>397.2</ele>
        <time>2021-12-28T10:40:01Z</time>
      </trkpt>
      <trkpt lat="37.5857730" lon="-4.1740660">
        <ele>397.4</ele>
        <time>2021-12-28T10:40:02Z</time>
      </trkpt>
      <trkpt lat="37.5857660" lon="-4.1740960">
        <ele>397.4</ele>
        <time>2021-12-28T10:40:03Z</time>
      </trkpt>
      <trkpt lat="37.5857570" lon="-4.1741270">
        <ele>397.4</ele>
        <time>2021-12-28T10:40:04Z</time>
      </trkpt>
      <trkpt lat="37.5857540" lon="-4.1741530">
        <ele>397.4</ele>
        <time>2021-12-28T10:40:05Z</time>
      </trkpt>
      <trkpt lat="37.5857470" lon="-4.1741780">
        <ele>397.4</ele>
        <time>2021-12-28T10:40:06Z</time>
      </trkpt>
      <trkpt lat="37.5857440" lon="-4.1742020">
        <ele>397.4</ele>
        <time>2021-12-28T10:40:07Z</time>
      </trkpt>
      <trkpt lat="37.5857380" lon="-4.1742240">
        <ele>397.4</ele>
        <time>2021-12-28T10:40:08Z</time>
      </trkpt>
      <trkpt lat="37.5857380" lon="-4.1742240">
        <ele>397.4</ele>
        <time>2021-12-28T10:40:09Z</time>
      </trkpt>
      <trkpt lat="37.5857310" lon="-4.1742620">
        <ele>397.4</ele>
        <time>2021-12-28T10:40:10Z</time>
      </trkpt>
      <trkpt lat="37.5857310" lon="-4.1742620">
        <ele>397.4</ele>
        <time>2021-12-28T10:40:11Z</time>
      </trkpt>
      <trkpt lat="37.5857310" lon="-4.1742620">
        <ele>397.4</ele>
        <time>2021-12-28T10:40:12Z</time>
      </trkpt>
      <trkpt lat="37.5857220" lon="-4.1742880">
        <ele>397.4</ele>
        <time>2021-12-28T10:40:13Z</time>
      </trkpt>
      <trkpt lat="37.5857220" lon="-4.1742880">
        <ele>397.4</ele>
        <time>2021-12-28T10:40:14Z</time>
      </trkpt>
      <trkpt lat="37.5857220" lon="-4.1742880">
        <ele>397.4</ele>
        <time>2021-12-28T10:40:15Z</time>
      </trkpt>
      <trkpt lat="37.5856670" lon="-4.1744280">
        <ele>398.6</ele>
        <time>2021-12-28T10:44:19Z</time>
      </trkpt>
      <trkpt lat="37.5856510" lon="-4.1744750">
        <ele>398.6</ele>
        <time>2021-12-28T10:44:20Z</time>
      </trkpt>
      <trkpt lat="37.5856350" lon="-4.1745200">
        <ele>398.6</ele>
        <time>2021-12-28T10:44:21Z</time>
      </trkpt>
      <trkpt lat="37.5856160" lon="-4.1745680">
        <ele>398.4</ele>
        <time>2021-12-28T10:44:22Z</time>
      </trkpt>
      <trkpt lat="37.5855940" lon="-4.1746180">
        <ele>398.4</ele>
        <time>2021-12-28T10:44:23Z</time>
      </trkpt>
      <trkpt lat="37.5855740" lon="-4.1746680">
        <ele>398.4</ele>
        <time>2021-12-28T10:44:24Z</time>
      </trkpt>
      <trkpt lat="37.5855550" lon="-4.1747160">
        <ele>398.4</ele>
        <time>2021-12-28T10:44:25Z</time>
      </trkpt>
      <trkpt lat="37.5855330" lon="-4.1747650">
        <ele>398.4</ele>
        <time>2021-12-28T10:44:26Z</time>
      </trkpt>
      <trkpt lat="37.5855140" lon="-4.1748120">
        <ele>398.4</ele>
        <time>2021-12-28T10:44:27Z</time>
      </trkpt>
      <trkpt lat="37.5854910" lon="-4.1748570">
        <ele>398.4</ele>
        <time>2021-12-28T10:44:28Z</time>
      </trkpt>
      <trkpt lat="37.5854690" lon="-4.1749000">
        <ele>398.4</ele>
        <time>2021-12-28T10:44:29Z</time>
      </trkpt>
      <trkpt lat="37.5854460" lon="-4.1749420">
        <ele>398.4</ele>
        <time>2021-12-28T10:44:30Z</time>
      </trkpt>
      <trkpt lat="37.5854270" lon="-4.1749850">
        <ele>398.4</ele>
        <time>2021-12-28T10:44:31Z</time>
      </trkpt>
      <trkpt lat="37.5854050" lon="-4.1750250">
        <ele>398.4</ele>
        <time>2021-12-28T10:44:32Z</time>
      </trkpt>
      <trkpt lat="37.5853860" lon="-4.1750650">
        <ele>398.4</ele>
        <time>2021-12-28T10:44:33Z</time>
      </trkpt>
      <trkpt lat="37.5853600" lon="-4.1751060">
        <ele>398.4</ele>
        <time>2021-12-28T10:44:34Z</time>
      </trkpt>
      <trkpt lat="37.5853380" lon="-4.1751460">
        <ele>398.4</ele>
        <time>2021-12-28T10:44:35Z</time>
      </trkpt>
      <trkpt lat="37.5853150" lon="-4.1751870">
        <ele>398.4</ele>
        <time>2021-12-28T10:44:36Z</time>
      </trkpt>
      <trkpt lat="37.5852930" lon="-4.1752250">
        <ele>398.4</ele>
        <time>2021-12-28T10:44:37Z</time>
      </trkpt>
      <trkpt lat="37.5852700" lon="-4.1752580">
        <ele>398.6</ele>
        <time>2021-12-28T10:44:38Z</time>
      </trkpt>
      <trkpt lat="37.5852480" lon="-4.1752920">
        <ele>398.6</ele>
        <time>2021-12-28T10:44:39Z</time>
      </trkpt>
      <trkpt lat="37.5852290" lon="-4.1753250">
        <ele>398.6</ele>
        <time>2021-12-28T10:44:40Z</time>
      </trkpt>
      <trkpt lat="37.5852060" lon="-4.1753550">
        <ele>398.6</ele>
        <time>2021-12-28T10:44:41Z</time>
      </trkpt>
      <trkpt lat="37.5851900" lon="-4.1753860">
        <ele>398.6</ele>
        <time>2021-12-28T10:44:42Z</time>
      </trkpt>
      <trkpt lat="37.5851680" lon="-4.1754180">
        <ele>398.6</ele>
        <time>2021-12-28T10:44:43Z</time>
      </trkpt>
      <trkpt lat="37.5851460" lon="-4.1754480">
        <ele>398.6</ele>
        <time>2021-12-28T10:44:44Z</time>
      </trkpt>
      <trkpt lat="37.5851260" lon="-4.1754750">
        <ele>398.6</ele>
        <time>2021-12-28T10:44:45Z</time>
      </trkpt>
      <trkpt lat="37.5851010" lon="-4.1755020">
        <ele>398.6</ele>
        <time>2021-12-28T10:44:46Z</time>
      </trkpt>
      <trkpt lat="37.5850820" lon="-4.1755270">
        <ele>398.6</ele>
        <time>2021-12-28T10:44:47Z</time>
      </trkpt>
      <trkpt lat="37.5850590" lon="-4.1755550">
        <ele>398.6</ele>
        <time>2021-12-28T10:44:48Z</time>
      </trkpt>
      <trkpt lat="37.5850370" lon="-4.1755800">
        <ele>398.6</ele>
        <time>2021-12-28T10:44:49Z</time>
      </trkpt>
      <trkpt lat="37.5850140" lon="-4.1756070">
        <ele>398.6</ele>
        <time>2021-12-28T10:44:50Z</time>
      </trkpt>
      <trkpt lat="37.5849920" lon="-4.1756320">
        <ele>398.6</ele>
        <time>2021-12-28T10:44:51Z</time>
      </trkpt>
      <trkpt lat="37.5849630" lon="-4.1756550">
        <ele>398.8</ele>
        <time>2021-12-28T10:44:52Z</time>
      </trkpt>
      <trkpt lat="37.5849410" lon="-4.1756800">
        <ele>398.8</ele>
        <time>2021-12-28T10:44:53Z</time>
      </trkpt>
      <trkpt lat="37.5849150" lon="-4.1757050">
        <ele>398.8</ele>
        <time>2021-12-28T10:44:54Z</time>
      </trkpt>
      <trkpt lat="37.5848900" lon="-4.1757280">
        <ele>398.8</ele>
        <time>2021-12-28T10:44:55Z</time>
      </trkpt>
      <trkpt lat="37.5848610" lon="-4.1757530">
        <ele>399.0</ele>
        <time>2021-12-28T10:44:56Z</time>
      </trkpt>
      <trkpt lat="37.5848350" lon="-4.1757780">
        <ele>399.0</ele>
        <time>2021-12-28T10:44:57Z</time>
      </trkpt>
      <trkpt lat="37.5848100" lon="-4.1758020">
        <ele>399.0</ele>
        <time>2021-12-28T10:44:58Z</time>
      </trkpt>
      <trkpt lat="37.5847810" lon="-4.1758250">
        <ele>399.0</ele>
        <time>2021-12-28T10:44:59Z</time>
      </trkpt>
      <trkpt lat="37.5847550" lon="-4.1758480">
        <ele>399.0</ele>
        <time>2021-12-28T10:45:00Z</time>
      </trkpt>
      <trkpt lat="37.5847230" lon="-4.1758730">
        <ele>399.0</ele>
        <time>2021-12-28T10:45:01Z</time>
      </trkpt>
      <trkpt lat="37.5846940" lon="-4.1759000">
        <ele>399.0</ele>
        <time>2021-12-28T10:45:02Z</time>
      </trkpt>
      <trkpt lat="37.5846620" lon="-4.1759230">
        <ele>399.2</ele>
        <time>2021-12-28T10:45:03Z</time>
      </trkpt>
      <trkpt lat="37.5846370" lon="-4.1759470">
        <ele>399.2</ele>
        <time>2021-12-28T10:45:04Z</time>
      </trkpt>
      <trkpt lat="37.5846050" lon="-4.1759700">
        <ele>399.2</ele>
        <time>2021-12-28T10:45:05Z</time>
      </trkpt>
      <trkpt lat="37.5845790" lon="-4.1759880">
        <ele>399.4</ele>
        <time>2021-12-28T10:45:06Z</time>
      </trkpt>
      <trkpt lat="37.5845500" lon="-4.1760080">
        <ele>399.4</ele>
        <time>2021-12-28T10:45:07Z</time>
      </trkpt>
      <trkpt lat="37.5845220" lon="-4.1760300">
        <ele>399.4</ele>
        <time>2021-12-28T10:45:08Z</time>
      </trkpt>
      <trkpt lat="37.5844930" lon="-4.1760520">
        <ele>399.4</ele>
        <time>2021-12-28T10:45:09Z</time>
      </trkpt>
      <trkpt lat="37.5844610" lon="-4.1760720">
        <ele>399.4</ele>
        <time>2021-12-28T10:45:10Z</time>
      </trkpt>
      <trkpt lat="37.5844320" lon="-4.1760880">
        <ele>399.2</ele>
        <time>2021-12-28T10:45:11Z</time>
      </trkpt>
      <trkpt lat="37.5843970" lon="-4.1761060">
        <ele>399.2</ele>
        <time>2021-12-28T10:45:12Z</time>
      </trkpt>
      <trkpt lat="37.5843650" lon="-4.1761260">
        <ele>399.2</ele>
        <time>2021-12-28T10:45:13Z</time>
      </trkpt>
      <trkpt lat="37.5843330" lon="-4.1761450">
        <ele>399.2</ele>
        <time>2021-12-28T10:45:14Z</time>
      </trkpt>
      <trkpt lat="37.5843010" lon="-4.1761630">
        <ele>399.2</ele>
        <time>2021-12-28T10:45:15Z</time>
      </trkpt>
      <trkpt lat="37.5842660" lon="-4.1761820">
        <ele>399.4</ele>
        <time>2021-12-28T10:45:16Z</time>
      </trkpt>
      <trkpt lat="37.5842370" lon="-4.1762000">
        <ele>399.4</ele>
        <time>2021-12-28T10:45:17Z</time>
      </trkpt>
      <trkpt lat="37.5842020" lon="-4.1762180">
        <ele>399.4</ele>
        <time>2021-12-28T10:45:18Z</time>
      </trkpt>
      <trkpt lat="37.5841660" lon="-4.1762350">
        <ele>399.4</ele>
        <time>2021-12-28T10:45:19Z</time>
      </trkpt>
      <trkpt lat="37.5841340" lon="-4.1762480">
        <ele>399.4</ele>
        <time>2021-12-28T10:45:20Z</time>
      </trkpt>
      <trkpt lat="37.5840990" lon="-4.1762620">
        <ele>399.4</ele>
        <time>2021-12-28T10:45:21Z</time>
      </trkpt>
      <trkpt lat="37.5840670" lon="-4.1762750">
        <ele>399.6</ele>
        <time>2021-12-28T10:45:22Z</time>
      </trkpt>
      <trkpt lat="37.5840350" lon="-4.1762900">
        <ele>399.6</ele>
        <time>2021-12-28T10:45:23Z</time>
      </trkpt>
      <trkpt lat="37.5840000" lon="-4.1763000">
        <ele>399.6</ele>
        <time>2021-12-28T10:45:24Z</time>
      </trkpt>
      <trkpt lat="37.5839680" lon="-4.1763080">
        <ele>399.6</ele>
        <time>2021-12-28T10:45:25Z</time>
      </trkpt>
      <trkpt lat="37.5839360" lon="-4.1763220">
        <ele>399.6</ele>
        <time>2021-12-28T10:45:26Z</time>
      </trkpt>
      <trkpt lat="37.5839010" lon="-4.1763350">
        <ele>399.6</ele>
        <time>2021-12-28T10:45:27Z</time>
      </trkpt>
      <trkpt lat="37.5838690" lon="-4.1763470">
        <ele>399.6</ele>
        <time>2021-12-28T10:45:28Z</time>
      </trkpt>
      <trkpt lat="37.5838430" lon="-4.1763570">
        <ele>399.6</ele>
        <time>2021-12-28T10:45:29Z</time>
      </trkpt>
      <trkpt lat="37.5838080" lon="-4.1763680">
        <ele>399.6</ele>
        <time>2021-12-28T10:45:30Z</time>
      </trkpt>
      <trkpt lat="37.5837790" lon="-4.1763800">
        <ele>399.8</ele>
        <time>2021-12-28T10:45:31Z</time>
      </trkpt>
      <trkpt lat="37.5837470" lon="-4.1763900">
        <ele>399.8</ele>
        <time>2021-12-28T10:45:32Z</time>
      </trkpt>
      <trkpt lat="37.5837120" lon="-4.1764020">
        <ele>399.8</ele>
        <time>2021-12-28T10:45:33Z</time>
      </trkpt>
      <trkpt lat="37.5836830" lon="-4.1764100">
        <ele>399.8</ele>
        <time>2021-12-28T10:45:34Z</time>
      </trkpt>
      <trkpt lat="37.5836510" lon="-4.1764170">
        <ele>400.0</ele>
        <time>2021-12-28T10:45:35Z</time>
      </trkpt>
      <trkpt lat="37.5836190" lon="-4.1764250">
        <ele>400.0</ele>
        <time>2021-12-28T10:45:36Z</time>
      </trkpt>
      <trkpt lat="37.5835870" lon="-4.1764320">
        <ele>400.0</ele>
        <time>2021-12-28T10:45:37Z</time>
      </trkpt>
      <trkpt lat="37.5835520" lon="-4.1764420">
        <ele>400.0</ele>
        <time>2021-12-28T10:45:38Z</time>
      </trkpt>
      <trkpt lat="37.5835200" lon="-4.1764500">
        <ele>400.0</ele>
        <time>2021-12-28T10:45:39Z</time>
      </trkpt>
      <trkpt lat="37.5834850" lon="-4.1764600">
        <ele>400.0</ele>
        <time>2021-12-28T10:45:40Z</time>
      </trkpt>
      <trkpt lat="37.5834460" lon="-4.1764660">
        <ele>400.2</ele>
        <time>2021-12-28T10:45:41Z</time>
      </trkpt>
      <trkpt lat="37.5834110" lon="-4.1764730">
        <ele>400.2</ele>
        <time>2021-12-28T10:45:42Z</time>
      </trkpt>
      <trkpt lat="37.5833730" lon="-4.1764820">
        <ele>400.2</ele>
        <time>2021-12-28T10:45:43Z</time>
      </trkpt>
      <trkpt lat="37.5833440" lon="-4.1764900">
        <ele>400.2</ele>
        <time>2021-12-28T10:45:44Z</time>
      </trkpt>
      <trkpt lat="37.5833090" lon="-4.1764950">
        <ele>400.2</ele>
        <time>2021-12-28T10:45:45Z</time>
      </trkpt>
      <trkpt lat="37.5832740" lon="-4.1765020">
        <ele>400.2</ele>
        <time>2021-12-28T10:45:46Z</time>
      </trkpt>
      <trkpt lat="37.5832420" lon="-4.1765060">
        <ele>400.2</ele>
        <time>2021-12-28T10:45:47Z</time>
      </trkpt>
      <trkpt lat="37.5832100" lon="-4.1765130">
        <ele>400.2</ele>
        <time>2021-12-28T10:45:48Z</time>
      </trkpt>
      <trkpt lat="37.5831740" lon="-4.1765220">
        <ele>400.2</ele>
        <time>2021-12-28T10:45:49Z</time>
      </trkpt>
      <trkpt lat="37.5831420" lon="-4.1765280">
        <ele>400.2</ele>
        <time>2021-12-28T10:45:50Z</time>
      </trkpt>
      <trkpt lat="37.5831070" lon="-4.1765360">
        <ele>400.2</ele>
        <time>2021-12-28T10:45:51Z</time>
      </trkpt>
      <trkpt lat="37.5830720" lon="-4.1765430">
        <ele>400.2</ele>
        <time>2021-12-28T10:45:52Z</time>
      </trkpt>
      <trkpt lat="37.5830370" lon="-4.1765480">
        <ele>400.2</ele>
        <time>2021-12-28T10:45:53Z</time>
      </trkpt>
      <trkpt lat="37.5830050" lon="-4.1765580">
        <ele>400.2</ele>
        <time>2021-12-28T10:45:54Z</time>
      </trkpt>
      <trkpt lat="37.5829730" lon="-4.1765650">
        <ele>400.2</ele>
        <time>2021-12-28T10:45:55Z</time>
      </trkpt>
      <trkpt lat="37.5829380" lon="-4.1765730">
        <ele>400.4</ele>
        <time>2021-12-28T10:45:56Z</time>
      </trkpt>
      <trkpt lat="37.5829060" lon="-4.1765820">
        <ele>400.4</ele>
        <time>2021-12-28T10:45:57Z</time>
      </trkpt>
      <trkpt lat="37.5828740" lon="-4.1765900">
        <ele>400.6</ele>
        <time>2021-12-28T10:45:58Z</time>
      </trkpt>
      <trkpt lat="37.5828450" lon="-4.1766000">
        <ele>400.6</ele>
        <time>2021-12-28T10:45:59Z</time>
      </trkpt>
      <trkpt lat="37.5828130" lon="-4.1766100">
        <ele>400.6</ele>
        <time>2021-12-28T10:46:00Z</time>
      </trkpt>
      <trkpt lat="37.5827840" lon="-4.1766150">
        <ele>400.8</ele>
        <time>2021-12-28T10:46:01Z</time>
      </trkpt>
      <trkpt lat="37.5827520" lon="-4.1766220">
        <ele>400.8</ele>
        <time>2021-12-28T10:46:02Z</time>
      </trkpt>
      <trkpt lat="37.5827230" lon="-4.1766270">
        <ele>400.8</ele>
        <time>2021-12-28T10:46:03Z</time>
      </trkpt>
      <trkpt lat="37.5826910" lon="-4.1766330">
        <ele>401.0</ele>
        <time>2021-12-28T10:46:04Z</time>
      </trkpt>
      <trkpt lat="37.5826590" lon="-4.1766400">
        <ele>401.0</ele>
        <time>2021-12-28T10:46:05Z</time>
      </trkpt>
      <trkpt lat="37.5826300" lon="-4.1766450">
        <ele>401.0</ele>
        <time>2021-12-28T10:46:06Z</time>
      </trkpt>
      <trkpt lat="37.5825950" lon="-4.1766500">
        <ele>401.2</ele>
        <time>2021-12-28T10:46:07Z</time>
      </trkpt>
      <trkpt lat="37.5825660" lon="-4.1766570">
        <ele>401.2</ele>
        <time>2021-12-28T10:46:08Z</time>
      </trkpt>
      <trkpt lat="37.5825340" lon="-4.1766630">
        <ele>401.2</ele>
        <time>2021-12-28T10:46:09Z</time>
      </trkpt>
      <trkpt lat="37.5824990" lon="-4.1766700">
        <ele>401.2</ele>
        <time>2021-12-28T10:46:10Z</time>
      </trkpt>
      <trkpt lat="37.5824700" lon="-4.1766770">
        <ele>401.4</ele>
        <time>2021-12-28T10:46:11Z</time>
      </trkpt>
      <trkpt lat="37.5824350" lon="-4.1766870">
        <ele>401.4</ele>
        <time>2021-12-28T10:46:12Z</time>
      </trkpt>
      <trkpt lat="37.5824000" lon="-4.1766950">
        <ele>401.4</ele>
        <time>2021-12-28T10:46:13Z</time>
      </trkpt>
      <trkpt lat="37.5823710" lon="-4.1767020">
        <ele>401.4</ele>
        <time>2021-12-28T10:46:14Z</time>
      </trkpt>
      <trkpt lat="37.5823360" lon="-4.1767080">
        <ele>401.4</ele>
        <time>2021-12-28T10:46:15Z</time>
      </trkpt>
      <trkpt lat="37.5823070" lon="-4.1767170">
        <ele>401.4</ele>
        <time>2021-12-28T10:46:16Z</time>
      </trkpt>
      <trkpt lat="37.5822720" lon="-4.1767240">
        <ele>401.4</ele>
        <time>2021-12-28T10:46:17Z</time>
      </trkpt>
      <trkpt lat="37.5822400" lon="-4.1767320">
        <ele>401.4</ele>
        <time>2021-12-28T10:46:18Z</time>
      </trkpt>
      <trkpt lat="37.5822140" lon="-4.1767380">
        <ele>401.4</ele>
        <time>2021-12-28T10:46:19Z</time>
      </trkpt>
      <trkpt lat="37.5821790" lon="-4.1767450">
        <ele>401.4</ele>
        <time>2021-12-28T10:46:20Z</time>
      </trkpt>
      <trkpt lat="37.5821500" lon="-4.1767500">
        <ele>401.4</ele>
        <time>2021-12-28T10:46:21Z</time>
      </trkpt>
      <trkpt lat="37.5821180" lon="-4.1767580">
        <ele>401.4</ele>
        <time>2021-12-28T10:46:22Z</time>
      </trkpt>
      <trkpt lat="37.5820900" lon="-4.1767680">
        <ele>401.4</ele>
        <time>2021-12-28T10:46:23Z</time>
      </trkpt>
      <trkpt lat="37.5820540" lon="-4.1767770">
        <ele>401.6</ele>
        <time>2021-12-28T10:46:24Z</time>
      </trkpt>
      <trkpt lat="37.5820190" lon="-4.1767840">
        <ele>401.6</ele>
        <time>2021-12-28T10:46:25Z</time>
      </trkpt>
      <trkpt lat="37.5819900" lon="-4.1767920">
        <ele>401.8</ele>
        <time>2021-12-28T10:46:26Z</time>
      </trkpt>
      <trkpt lat="37.5819580" lon="-4.1768030">
        <ele>401.8</ele>
        <time>2021-12-28T10:46:27Z</time>
      </trkpt>
      <trkpt lat="37.5819300" lon="-4.1768130">
        <ele>401.8</ele>
        <time>2021-12-28T10:46:28Z</time>
      </trkpt>
      <trkpt lat="37.5818980" lon="-4.1768230">
        <ele>401.8</ele>
        <time>2021-12-28T10:46:29Z</time>
      </trkpt>
      <trkpt lat="37.5818690" lon="-4.1768330">
        <ele>401.8</ele>
        <time>2021-12-28T10:46:30Z</time>
      </trkpt>
      <trkpt lat="37.5818370" lon="-4.1768430">
        <ele>401.8</ele>
        <time>2021-12-28T10:46:31Z</time>
      </trkpt>
      <trkpt lat="37.5818020" lon="-4.1768530">
        <ele>401.8</ele>
        <time>2021-12-28T10:46:32Z</time>
      </trkpt>
      <trkpt lat="37.5817730" lon="-4.1768680">
        <ele>402.0</ele>
        <time>2021-12-28T10:46:33Z</time>
      </trkpt>
      <trkpt lat="37.5817410" lon="-4.1768820">
        <ele>402.0</ele>
        <time>2021-12-28T10:46:34Z</time>
      </trkpt>
      <trkpt lat="37.5817120" lon="-4.1768930">
        <ele>402.0</ele>
        <time>2021-12-28T10:46:35Z</time>
      </trkpt>
      <trkpt lat="37.5816770" lon="-4.1769050">
        <ele>402.0</ele>
        <time>2021-12-28T10:46:36Z</time>
      </trkpt>
      <trkpt lat="37.5816510" lon="-4.1769180">
        <ele>402.0</ele>
        <time>2021-12-28T10:46:37Z</time>
      </trkpt>
      <trkpt lat="37.5816190" lon="-4.1769300">
        <ele>402.0</ele>
        <time>2021-12-28T10:46:38Z</time>
      </trkpt>
      <trkpt lat="37.5815840" lon="-4.1769420">
        <ele>402.0</ele>
        <time>2021-12-28T10:46:39Z</time>
      </trkpt>
      <trkpt lat="37.5815550" lon="-4.1769550">
        <ele>402.2</ele>
        <time>2021-12-28T10:46:40Z</time>
      </trkpt>
      <trkpt lat="37.5815200" lon="-4.1769700">
        <ele>402.2</ele>
        <time>2021-12-28T10:46:41Z</time>
      </trkpt>
      <trkpt lat="37.5814880" lon="-4.1769870">
        <ele>402.2</ele>
        <time>2021-12-28T10:46:42Z</time>
      </trkpt>
      <trkpt lat="37.5814560" lon="-4.1770000">
        <ele>402.2</ele>
        <time>2021-12-28T10:46:43Z</time>
      </trkpt>
      <trkpt lat="37.5814210" lon="-4.1770170">
        <ele>402.4</ele>
        <time>2021-12-28T10:46:44Z</time>
      </trkpt>
      <trkpt lat="37.5813890" lon="-4.1770350">
        <ele>402.4</ele>
        <time>2021-12-28T10:46:45Z</time>
      </trkpt>
      <trkpt lat="37.5813570" lon="-4.1770500">
        <ele>402.4</ele>
        <time>2021-12-28T10:46:46Z</time>
      </trkpt>
      <trkpt lat="37.5813250" lon="-4.1770670">
        <ele>402.4</ele>
        <time>2021-12-28T10:46:47Z</time>
      </trkpt>
      <trkpt lat="37.5812960" lon="-4.1770840">
        <ele>402.4</ele>
        <time>2021-12-28T10:46:48Z</time>
      </trkpt>
      <trkpt lat="37.5812610" lon="-4.1771020">
        <ele>402.6</ele>
        <time>2021-12-28T10:46:49Z</time>
      </trkpt>
      <trkpt lat="37.5812290" lon="-4.1771240">
        <ele>402.6</ele>
        <time>2021-12-28T10:46:50Z</time>
      </trkpt>
      <trkpt lat="37.5812030" lon="-4.1771420">
        <ele>402.8</ele>
        <time>2021-12-28T10:46:51Z</time>
      </trkpt>
      <trkpt lat="37.5811680" lon="-4.1771600">
        <ele>403.0</ele>
        <time>2021-12-28T10:46:52Z</time>
      </trkpt>
      <trkpt lat="37.5811390" lon="-4.1771780">
        <ele>403.0</ele>
        <time>2021-12-28T10:46:53Z</time>
      </trkpt>
      <trkpt lat="37.5811100" lon="-4.1771960">
        <ele>403.2</ele>
        <time>2021-12-28T10:46:54Z</time>
      </trkpt>
      <trkpt lat="37.5810850" lon="-4.1772150">
        <ele>403.2</ele>
        <time>2021-12-28T10:46:55Z</time>
      </trkpt>
      <trkpt lat="37.5810560" lon="-4.1772320">
        <ele>403.2</ele>
        <time>2021-12-28T10:46:56Z</time>
      </trkpt>
      <trkpt lat="37.5810240" lon="-4.1772480">
        <ele>403.4</ele>
        <time>2021-12-28T10:46:57Z</time>
      </trkpt>
      <trkpt lat="37.5809980" lon="-4.1772680">
        <ele>403.4</ele>
        <time>2021-12-28T10:46:58Z</time>
      </trkpt>
      <trkpt lat="37.5809700" lon="-4.1772880">
        <ele>403.4</ele>
        <time>2021-12-28T10:46:59Z</time>
      </trkpt>
      <trkpt lat="37.5809440" lon="-4.1773100">
        <ele>403.6</ele>
        <time>2021-12-28T10:47:00Z</time>
      </trkpt>
      <trkpt lat="37.5809120" lon="-4.1773320">
        <ele>403.6</ele>
        <time>2021-12-28T10:47:01Z</time>
      </trkpt>
      <trkpt lat="37.5808860" lon="-4.1773530">
        <ele>403.8</ele>
        <time>2021-12-28T10:47:02Z</time>
      </trkpt>
      <trkpt lat="37.5808610" lon="-4.1773700">
        <ele>403.8</ele>
        <time>2021-12-28T10:47:03Z</time>
      </trkpt>
      <trkpt lat="37.5808290" lon="-4.1773870">
        <ele>403.8</ele>
        <time>2021-12-28T10:47:04Z</time>
      </trkpt>
      <trkpt lat="37.5808030" lon="-4.1774050">
        <ele>403.8</ele>
        <time>2021-12-28T10:47:05Z</time>
      </trkpt>
      <trkpt lat="37.5807780" lon="-4.1774240">
        <ele>403.8</ele>
        <time>2021-12-28T10:47:06Z</time>
      </trkpt>
      <trkpt lat="37.5807460" lon="-4.1774440">
        <ele>403.8</ele>
        <time>2021-12-28T10:47:07Z</time>
      </trkpt>
      <trkpt lat="37.5807200" lon="-4.1774650">
        <ele>403.8</ele>
        <time>2021-12-28T10:47:08Z</time>
      </trkpt>
      <trkpt lat="37.5806910" lon="-4.1774880">
        <ele>403.8</ele>
        <time>2021-12-28T10:47:09Z</time>
      </trkpt>
      <trkpt lat="37.5806660" lon="-4.1775100">
        <ele>403.8</ele>
        <time>2021-12-28T10:47:10Z</time>
      </trkpt>
      <trkpt lat="37.5806340" lon="-4.1775300">
        <ele>403.8</ele>
        <time>2021-12-28T10:47:11Z</time>
      </trkpt>
      <trkpt lat="37.5806080" lon="-4.1775520">
        <ele>403.8</ele>
        <time>2021-12-28T10:47:12Z</time>
      </trkpt>
      <trkpt lat="37.5805820" lon="-4.1775730">
        <ele>403.8</ele>
        <time>2021-12-28T10:47:13Z</time>
      </trkpt>
      <trkpt lat="37.5805540" lon="-4.1775950">
        <ele>404.0</ele>
        <time>2021-12-28T10:47:14Z</time>
      </trkpt>
      <trkpt lat="37.5805250" lon="-4.1776200">
        <ele>403.8</ele>
        <time>2021-12-28T10:47:15Z</time>
      </trkpt>
      <trkpt lat="37.5804990" lon="-4.1776420">
        <ele>403.8</ele>
        <time>2021-12-28T10:47:16Z</time>
      </trkpt>
      <trkpt lat="37.5804670" lon="-4.1776650">
        <ele>403.8</ele>
        <time>2021-12-28T10:47:17Z</time>
      </trkpt>
      <trkpt lat="37.5804420" lon="-4.1776870">
        <ele>403.8</ele>
        <time>2021-12-28T10:47:18Z</time>
      </trkpt>
      <trkpt lat="37.5804130" lon="-4.1777120">
        <ele>403.8</ele>
        <time>2021-12-28T10:47:19Z</time>
      </trkpt>
      <trkpt lat="37.5803900" lon="-4.1777370">
        <ele>403.8</ele>
        <time>2021-12-28T10:47:20Z</time>
      </trkpt>
      <trkpt lat="37.5803680" lon="-4.1777640">
        <ele>404.0</ele>
        <time>2021-12-28T10:47:21Z</time>
      </trkpt>
      <trkpt lat="37.5803420" lon="-4.1777900">
        <ele>404.0</ele>
        <time>2021-12-28T10:47:22Z</time>
      </trkpt>
      <trkpt lat="37.5803140" lon="-4.1778170">
        <ele>404.0</ele>
        <time>2021-12-28T10:47:23Z</time>
      </trkpt>
      <trkpt lat="37.5802880" lon="-4.1778450">
        <ele>404.0</ele>
        <time>2021-12-28T10:47:24Z</time>
      </trkpt>
      <trkpt lat="37.5802620" lon="-4.1778760">
        <ele>404.2</ele>
        <time>2021-12-28T10:47:25Z</time>
      </trkpt>
      <trkpt lat="37.5802340" lon="-4.1779050">
        <ele>404.2</ele>
        <time>2021-12-28T10:47:26Z</time>
      </trkpt>
      <trkpt lat="37.5802050" lon="-4.1779320">
        <ele>404.4</ele>
        <time>2021-12-28T10:47:27Z</time>
      </trkpt>
      <trkpt lat="37.5801760" lon="-4.1779580">
        <ele>404.6</ele>
        <time>2021-12-28T10:47:28Z</time>
      </trkpt>
      <trkpt lat="37.5801500" lon="-4.1779870">
        <ele>404.6</ele>
        <time>2021-12-28T10:47:29Z</time>
      </trkpt>
      <trkpt lat="37.5801280" lon="-4.1780150">
        <ele>404.6</ele>
        <time>2021-12-28T10:47:30Z</time>
      </trkpt>
      <trkpt lat="37.5801060" lon="-4.1780430">
        <ele>404.8</ele>
        <time>2021-12-28T10:47:31Z</time>
      </trkpt>
      <trkpt lat="37.5800770" lon="-4.1780720">
        <ele>404.8</ele>
        <time>2021-12-28T10:47:32Z</time>
      </trkpt>
      <trkpt lat="37.5800540" lon="-4.1780980">
        <ele>404.8</ele>
        <time>2021-12-28T10:47:33Z</time>
      </trkpt>
      <trkpt lat="37.5800320" lon="-4.1781250">
        <ele>404.8</ele>
        <time>2021-12-28T10:47:34Z</time>
      </trkpt>
      <trkpt lat="37.5800100" lon="-4.1781500">
        <ele>405.0</ele>
        <time>2021-12-28T10:47:35Z</time>
      </trkpt>
      <trkpt lat="37.5799870" lon="-4.1781750">
        <ele>405.0</ele>
        <time>2021-12-28T10:47:36Z</time>
      </trkpt>
      <trkpt lat="37.5799580" lon="-4.1782020">
        <ele>405.0</ele>
        <time>2021-12-28T10:47:37Z</time>
      </trkpt>
      <trkpt lat="37.5799390" lon="-4.1782300">
        <ele>405.0</ele>
        <time>2021-12-28T10:47:38Z</time>
      </trkpt>
      <trkpt lat="37.5799230" lon="-4.1782620">
        <ele>405.0</ele>
        <time>2021-12-28T10:47:39Z</time>
      </trkpt>
      <trkpt lat="37.5798940" lon="-4.1782920">
        <ele>405.2</ele>
        <time>2021-12-28T10:47:40Z</time>
      </trkpt>
      <trkpt lat="37.5798690" lon="-4.1783220">
        <ele>405.2</ele>
        <time>2021-12-28T10:47:41Z</time>
      </trkpt>
      <trkpt lat="37.5798430" lon="-4.1783520">
        <ele>405.2</ele>
        <time>2021-12-28T10:47:42Z</time>
      </trkpt>
      <trkpt lat="37.5798240" lon="-4.1783830">
        <ele>405.2</ele>
        <time>2021-12-28T10:47:43Z</time>
      </trkpt>
      <trkpt lat="37.5797980" lon="-4.1784150">
        <ele>405.4</ele>
        <time>2021-12-28T10:47:44Z</time>
      </trkpt>
      <trkpt lat="37.5797730" lon="-4.1784470">
        <ele>405.4</ele>
        <time>2021-12-28T10:47:45Z</time>
      </trkpt>
      <trkpt lat="37.5797500" lon="-4.1784780">
        <ele>405.4</ele>
        <time>2021-12-28T10:47:46Z</time>
      </trkpt>
      <trkpt lat="37.5797280" lon="-4.1785100">
        <ele>405.4</ele>
        <time>2021-12-28T10:47:47Z</time>
      </trkpt>
      <trkpt lat="37.5797060" lon="-4.1785430">
        <ele>405.4</ele>
        <time>2021-12-28T10:47:48Z</time>
      </trkpt>
      <trkpt lat="37.5796800" lon="-4.1785750">
        <ele>405.6</ele>
        <time>2021-12-28T10:47:49Z</time>
      </trkpt>
      <trkpt lat="37.5796540" lon="-4.1786100">
        <ele>405.6</ele>
        <time>2021-12-28T10:47:50Z</time>
      </trkpt>
      <trkpt lat="37.5796320" lon="-4.1786450">
        <ele>405.8</ele>
        <time>2021-12-28T10:47:51Z</time>
      </trkpt>
      <trkpt lat="37.5796100" lon="-4.1786800">
        <ele>405.8</ele>
        <time>2021-12-28T10:47:52Z</time>
      </trkpt>
      <trkpt lat="37.5795870" lon="-4.1787130">
        <ele>405.8</ele>
        <time>2021-12-28T10:47:53Z</time>
      </trkpt>
      <trkpt lat="37.5795620" lon="-4.1787480">
        <ele>406.0</ele>
        <time>2021-12-28T10:47:54Z</time>
      </trkpt>
      <trkpt lat="37.5795460" lon="-4.1787820">
        <ele>406.0</ele>
        <time>2021-12-28T10:47:55Z</time>
      </trkpt>
      <trkpt lat="37.5795200" lon="-4.1788150">
        <ele>406.0</ele>
        <time>2021-12-28T10:47:56Z</time>
      </trkpt>
      <trkpt lat="37.5794980" lon="-4.1788520">
        <ele>406.2</ele>
        <time>2021-12-28T10:47:57Z</time>
      </trkpt>
      <trkpt lat="37.5794780" lon="-4.1788870">
        <ele>406.2</ele>
        <time>2021-12-28T10:47:58Z</time>
      </trkpt>
      <trkpt lat="37.5794590" lon="-4.1789200">
        <ele>406.2</ele>
        <time>2021-12-28T10:47:59Z</time>
      </trkpt>
      <trkpt lat="37.5794400" lon="-4.1789520">
        <ele>406.2</ele>
        <time>2021-12-28T10:48:00Z</time>
      </trkpt>
      <trkpt lat="37.5794210" lon="-4.1789860">
        <ele>406.2</ele>
        <time>2021-12-28T10:48:01Z</time>
      </trkpt>
      <trkpt lat="37.5794080" lon="-4.1790200">
        <ele>406.4</ele>
        <time>2021-12-28T10:48:02Z</time>
      </trkpt>
      <trkpt lat="37.5793890" lon="-4.1790530">
        <ele>406.4</ele>
        <time>2021-12-28T10:48:03Z</time>
      </trkpt>
      <trkpt lat="37.5793700" lon="-4.1790870">
        <ele>406.4</ele>
        <time>2021-12-28T10:48:04Z</time>
      </trkpt>
      <trkpt lat="37.5793540" lon="-4.1791200">
        <ele>406.6</ele>
        <time>2021-12-28T10:48:05Z</time>
      </trkpt>
      <trkpt lat="37.5793380" lon="-4.1791540">
        <ele>406.6</ele>
        <time>2021-12-28T10:48:06Z</time>
      </trkpt>
      <trkpt lat="37.5793180" lon="-4.1791870">
        <ele>406.8</ele>
        <time>2021-12-28T10:48:07Z</time>
      </trkpt>
      <trkpt lat="37.5792990" lon="-4.1792200">
        <ele>407.0</ele>
        <time>2021-12-28T10:48:08Z</time>
      </trkpt>
      <trkpt lat="37.5792830" lon="-4.1792520">
        <ele>407.0</ele>
        <time>2021-12-28T10:48:09Z</time>
      </trkpt>
      <trkpt lat="37.5792700" lon="-4.1792880">
        <ele>407.0</ele>
        <time>2021-12-28T10:48:10Z</time>
      </trkpt>
      <trkpt lat="37.5792540" lon="-4.1793230">
        <ele>407.2</ele>
        <time>2021-12-28T10:48:11Z</time>
      </trkpt>
      <trkpt lat="37.5792350" lon="-4.1793600">
        <ele>407.2</ele>
        <time>2021-12-28T10:48:12Z</time>
      </trkpt>
      <trkpt lat="37.5792190" lon="-4.1793950">
        <ele>407.2</ele>
        <time>2021-12-28T10:48:13Z</time>
      </trkpt>
      <trkpt lat="37.5792100" lon="-4.1794320">
        <ele>407.4</ele>
        <time>2021-12-28T10:48:14Z</time>
      </trkpt>
      <trkpt lat="37.5791940" lon="-4.1794700">
        <ele>407.4</ele>
        <time>2021-12-28T10:48:15Z</time>
      </trkpt>
      <trkpt lat="37.5791780" lon="-4.1795070">
        <ele>407.6</ele>
        <time>2021-12-28T10:48:16Z</time>
      </trkpt>
      <trkpt lat="37.5791620" lon="-4.1795440">
        <ele>407.6</ele>
        <time>2021-12-28T10:48:17Z</time>
      </trkpt>
      <trkpt lat="37.5791490" lon="-4.1795820">
        <ele>407.8</ele>
        <time>2021-12-28T10:48:18Z</time>
      </trkpt>
      <trkpt lat="37.5791300" lon="-4.1796200">
        <ele>407.8</ele>
        <time>2021-12-28T10:48:19Z</time>
      </trkpt>
      <trkpt lat="37.5791100" lon="-4.1796580">
        <ele>408.0</ele>
        <time>2021-12-28T10:48:20Z</time>
      </trkpt>
      <trkpt lat="37.5790940" lon="-4.1796980">
        <ele>408.0</ele>
        <time>2021-12-28T10:48:21Z</time>
      </trkpt>
      <trkpt lat="37.5790750" lon="-4.1797370">
        <ele>408.2</ele>
        <time>2021-12-28T10:48:22Z</time>
      </trkpt>
      <trkpt lat="37.5790560" lon="-4.1797770">
        <ele>408.4</ele>
        <time>2021-12-28T10:48:23Z</time>
      </trkpt>
      <trkpt lat="37.5790400" lon="-4.1798170">
        <ele>408.4</ele>
        <time>2021-12-28T10:48:24Z</time>
      </trkpt>
      <trkpt lat="37.5790240" lon="-4.1798540">
        <ele>408.6</ele>
        <time>2021-12-28T10:48:25Z</time>
      </trkpt>
      <trkpt lat="37.5790110" lon="-4.1798940">
        <ele>408.6</ele>
        <time>2021-12-28T10:48:26Z</time>
      </trkpt>
      <trkpt lat="37.5789920" lon="-4.1799340">
        <ele>408.6</ele>
        <time>2021-12-28T10:48:27Z</time>
      </trkpt>
      <trkpt lat="37.5789730" lon="-4.1799700">
        <ele>408.8</ele>
        <time>2021-12-28T10:48:28Z</time>
      </trkpt>
      <trkpt lat="37.5789570" lon="-4.1800060">
        <ele>408.8</ele>
        <time>2021-12-28T10:48:29Z</time>
      </trkpt>
      <trkpt lat="37.5789380" lon="-4.1800450">
        <ele>409.0</ele>
        <time>2021-12-28T10:48:30Z</time>
      </trkpt>
      <trkpt lat="37.5789220" lon="-4.1800850">
        <ele>409.0</ele>
        <time>2021-12-28T10:48:31Z</time>
      </trkpt>
      <trkpt lat="37.5789060" lon="-4.1801250">
        <ele>409.0</ele>
        <time>2021-12-28T10:48:32Z</time>
      </trkpt>
      <trkpt lat="37.5788930" lon="-4.1801650">
        <ele>409.2</ele>
        <time>2021-12-28T10:48:33Z</time>
      </trkpt>
      <trkpt lat="37.5788740" lon="-4.1802070">
        <ele>409.2</ele>
        <time>2021-12-28T10:48:34Z</time>
      </trkpt>
      <trkpt lat="37.5788580" lon="-4.1802480">
        <ele>409.4</ele>
        <time>2021-12-28T10:48:35Z</time>
      </trkpt>
      <trkpt lat="37.5788450" lon="-4.1802880">
        <ele>409.4</ele>
        <time>2021-12-28T10:48:36Z</time>
      </trkpt>
      <trkpt lat="37.5788320" lon="-4.1803280">
        <ele>409.6</ele>
        <time>2021-12-28T10:48:37Z</time>
      </trkpt>
      <trkpt lat="37.5788160" lon="-4.1803680">
        <ele>409.6</ele>
        <time>2021-12-28T10:48:38Z</time>
      </trkpt>
      <trkpt lat="37.5788030" lon="-4.1804080">
        <ele>409.6</ele>
        <time>2021-12-28T10:48:39Z</time>
      </trkpt>
      <trkpt lat="37.5787870" lon="-4.1804470">
        <ele>409.8</ele>
        <time>2021-12-28T10:48:40Z</time>
      </trkpt>
      <trkpt lat="37.5787740" lon="-4.1804850">
        <ele>409.8</ele>
        <time>2021-12-28T10:48:41Z</time>
      </trkpt>
      <trkpt lat="37.5787620" lon="-4.1805230">
        <ele>409.8</ele>
        <time>2021-12-28T10:48:42Z</time>
      </trkpt>
      <trkpt lat="37.5787460" lon="-4.1805600">
        <ele>409.8</ele>
        <time>2021-12-28T10:48:43Z</time>
      </trkpt>
      <trkpt lat="37.5787360" lon="-4.1805980">
        <ele>409.8</ele>
        <time>2021-12-28T10:48:44Z</time>
      </trkpt>
      <trkpt lat="37.5787230" lon="-4.1806380">
        <ele>409.8</ele>
        <time>2021-12-28T10:48:45Z</time>
      </trkpt>
      <trkpt lat="37.5787170" lon="-4.1806750">
        <ele>409.8</ele>
        <time>2021-12-28T10:48:46Z</time>
      </trkpt>
      <trkpt lat="37.5787040" lon="-4.1807060">
        <ele>410.0</ele>
        <time>2021-12-28T10:48:47Z</time>
      </trkpt>
      <trkpt lat="37.5787010" lon="-4.1807350">
        <ele>410.0</ele>
        <time>2021-12-28T10:48:48Z</time>
      </trkpt>
      <trkpt lat="37.5786940" lon="-4.1807600">
        <ele>410.0</ele>
        <time>2021-12-28T10:48:49Z</time>
      </trkpt>
      <trkpt lat="37.5786850" lon="-4.1807880">
        <ele>410.0</ele>
        <time>2021-12-28T10:48:50Z</time>
      </trkpt>
      <trkpt lat="37.5786780" lon="-4.1808150">
        <ele>410.0</ele>
        <time>2021-12-28T10:48:51Z</time>
      </trkpt>
      <trkpt lat="37.5786780" lon="-4.1808380">
        <ele>410.0</ele>
        <time>2021-12-28T10:48:52Z</time>
      </trkpt>
      <trkpt lat="37.5786750" lon="-4.1808620">
        <ele>410.0</ele>
        <time>2021-12-28T10:48:53Z</time>
      </trkpt>
      <trkpt lat="37.5786750" lon="-4.1808620">
        <ele>410.0</ele>
        <time>2021-12-28T10:48:54Z</time>
      </trkpt>
      <trkpt lat="37.5786660" lon="-4.1808880">
        <ele>410.0</ele>
        <time>2021-12-28T10:48:55Z</time>
      </trkpt>
      <trkpt lat="37.5786660" lon="-4.1808880">
        <ele>410.2</ele>
        <time>2021-12-28T10:48:56Z</time>
      </trkpt>
      <trkpt lat="37.5786660" lon="-4.1808880">
        <ele>410.2</ele>
        <time>2021-12-28T10:48:57Z</time>
      </trkpt>
      <trkpt lat="37.5786660" lon="-4.1808880">
        <ele>410.4</ele>
        <time>2021-12-28T10:48:58Z</time>
      </trkpt>
      <trkpt lat="37.5786660" lon="-4.1808880">
        <ele>410.6</ele>
        <time>2021-12-28T10:48:59Z</time>
      </trkpt>
      <trkpt lat="37.5786270" lon="-4.1810420">
        <ele>411.2</ele>
        <time>2021-12-28T10:49:23Z</time>
      </trkpt>
      <trkpt lat="37.5786210" lon="-4.1810820">
        <ele>411.2</ele>
        <time>2021-12-28T10:49:24Z</time>
      </trkpt>
      <trkpt lat="37.5786180" lon="-4.1811180">
        <ele>411.2</ele>
        <time>2021-12-28T10:49:25Z</time>
      </trkpt>
      <trkpt lat="37.5786140" lon="-4.1811580">
        <ele>411.2</ele>
        <time>2021-12-28T10:49:26Z</time>
      </trkpt>
      <trkpt lat="37.5786050" lon="-4.1811970">
        <ele>411.2</ele>
        <time>2021-12-28T10:49:27Z</time>
      </trkpt>
      <trkpt lat="37.5786020" lon="-4.1812370">
        <ele>411.2</ele>
        <time>2021-12-28T10:49:28Z</time>
      </trkpt>
      <trkpt lat="37.5785980" lon="-4.1812680">
        <ele>411.4</ele>
        <time>2021-12-28T10:49:29Z</time>
      </trkpt>
      <trkpt lat="37.5785950" lon="-4.1813040">
        <ele>411.4</ele>
        <time>2021-12-28T10:49:30Z</time>
      </trkpt>
      <trkpt lat="37.5785890" lon="-4.1813350">
        <ele>411.4</ele>
        <time>2021-12-28T10:49:31Z</time>
      </trkpt>
      <trkpt lat="37.5785860" lon="-4.1813700">
        <ele>411.4</ele>
        <time>2021-12-28T10:49:32Z</time>
      </trkpt>
      <trkpt lat="37.5785860" lon="-4.1814030">
        <ele>411.4</ele>
        <time>2021-12-28T10:49:33Z</time>
      </trkpt>
      <trkpt lat="37.5785820" lon="-4.1814400">
        <ele>411.4</ele>
        <time>2021-12-28T10:49:34Z</time>
      </trkpt>
      <trkpt lat="37.5785790" lon="-4.1814760">
        <ele>411.4</ele>
        <time>2021-12-28T10:49:35Z</time>
      </trkpt>
      <trkpt lat="37.5785790" lon="-4.1815130">
        <ele>411.6</ele>
        <time>2021-12-28T10:49:36Z</time>
      </trkpt>
      <trkpt lat="37.5785790" lon="-4.1815480">
        <ele>411.6</ele>
        <time>2021-12-28T10:49:37Z</time>
      </trkpt>
      <trkpt lat="37.5785760" lon="-4.1815840">
        <ele>411.6</ele>
        <time>2021-12-28T10:49:38Z</time>
      </trkpt>
      <trkpt lat="37.5785760" lon="-4.1816150">
        <ele>411.6</ele>
        <time>2021-12-28T10:49:39Z</time>
      </trkpt>
      <trkpt lat="37.5785760" lon="-4.1816500">
        <ele>411.6</ele>
        <time>2021-12-28T10:49:40Z</time>
      </trkpt>
      <trkpt lat="37.5785790" lon="-4.1816850">
        <ele>411.6</ele>
        <time>2021-12-28T10:49:41Z</time>
      </trkpt>
      <trkpt lat="37.5785790" lon="-4.1817200">
        <ele>411.6</ele>
        <time>2021-12-28T10:49:42Z</time>
      </trkpt>
      <trkpt lat="37.5785760" lon="-4.1817550">
        <ele>411.8</ele>
        <time>2021-12-28T10:49:43Z</time>
      </trkpt>
      <trkpt lat="37.5785760" lon="-4.1817880">
        <ele>411.8</ele>
        <time>2021-12-28T10:49:44Z</time>
      </trkpt>
      <trkpt lat="37.5785760" lon="-4.1818200">
        <ele>411.8</ele>
        <time>2021-12-28T10:49:45Z</time>
      </trkpt>
      <trkpt lat="37.5785760" lon="-4.1818520">
        <ele>411.8</ele>
        <time>2021-12-28T10:49:46Z</time>
      </trkpt>
      <trkpt lat="37.5785760" lon="-4.1818820">
        <ele>411.8</ele>
        <time>2021-12-28T10:49:47Z</time>
      </trkpt>
      <trkpt lat="37.5785760" lon="-4.1819100">
        <ele>411.8</ele>
        <time>2021-12-28T10:49:48Z</time>
      </trkpt>
      <trkpt lat="37.5785760" lon="-4.1819420">
        <ele>411.8</ele>
        <time>2021-12-28T10:49:49Z</time>
      </trkpt>
      <trkpt lat="37.5785760" lon="-4.1819750">
        <ele>411.8</ele>
        <time>2021-12-28T10:49:50Z</time>
      </trkpt>
      <trkpt lat="37.5785760" lon="-4.1820080">
        <ele>411.8</ele>
        <time>2021-12-28T10:49:51Z</time>
      </trkpt>
      <trkpt lat="37.5785790" lon="-4.1820420">
        <ele>411.8</ele>
        <time>2021-12-28T10:49:52Z</time>
      </trkpt>
      <trkpt lat="37.5785820" lon="-4.1820750">
        <ele>411.8</ele>
        <time>2021-12-28T10:49:53Z</time>
      </trkpt>
      <trkpt lat="37.5785860" lon="-4.1821100">
        <ele>411.8</ele>
        <time>2021-12-28T10:49:54Z</time>
      </trkpt>
      <trkpt lat="37.5785890" lon="-4.1821430">
        <ele>411.8</ele>
        <time>2021-12-28T10:49:55Z</time>
      </trkpt>
      <trkpt lat="37.5785980" lon="-4.1821780">
        <ele>411.8</ele>
        <time>2021-12-28T10:49:56Z</time>
      </trkpt>
      <trkpt lat="37.5786050" lon="-4.1822150">
        <ele>411.8</ele>
        <time>2021-12-28T10:49:57Z</time>
      </trkpt>
      <trkpt lat="37.5786080" lon="-4.1822520">
        <ele>411.8</ele>
        <time>2021-12-28T10:49:58Z</time>
      </trkpt>
      <trkpt lat="37.5786140" lon="-4.1822940">
        <ele>411.8</ele>
        <time>2021-12-28T10:49:59Z</time>
      </trkpt>
      <trkpt lat="37.5786220" lon="-4.1823580">
        <ele>411.8</ele>
        <time>2021-12-28T10:50:00Z</time>
      </trkpt>
      <trkpt lat="37.5786240" lon="-4.1823800">
        <ele>412.0</ele>
        <time>2021-12-28T10:50:01Z</time>
      </trkpt>
      <trkpt lat="37.5786340" lon="-4.1824220">
        <ele>412.0</ele>
        <time>2021-12-28T10:50:02Z</time>
      </trkpt>
      <trkpt lat="37.5786400" lon="-4.1824630">
        <ele>412.0</ele>
        <time>2021-12-28T10:50:03Z</time>
      </trkpt>
      <trkpt lat="37.5786430" lon="-4.1825030">
        <ele>412.0</ele>
        <time>2021-12-28T10:50:04Z</time>
      </trkpt>
      <trkpt lat="37.5786530" lon="-4.1825400">
        <ele>412.0</ele>
        <time>2021-12-28T10:50:05Z</time>
      </trkpt>
      <trkpt lat="37.5786590" lon="-4.1825750">
        <ele>412.0</ele>
        <time>2021-12-28T10:50:06Z</time>
      </trkpt>
      <trkpt lat="37.5786620" lon="-4.1826050">
        <ele>412.0</ele>
        <time>2021-12-28T10:50:07Z</time>
      </trkpt>
      <trkpt lat="37.5786660" lon="-4.1826380">
        <ele>412.0</ele>
        <time>2021-12-28T10:50:08Z</time>
      </trkpt>
      <trkpt lat="37.5786750" lon="-4.1826720">
        <ele>412.2</ele>
        <time>2021-12-28T10:50:09Z</time>
      </trkpt>
      <trkpt lat="37.5786780" lon="-4.1827040">
        <ele>412.2</ele>
        <time>2021-12-28T10:50:10Z</time>
      </trkpt>
      <trkpt lat="37.5786820" lon="-4.1827340">
        <ele>412.4</ele>
        <time>2021-12-28T10:50:11Z</time>
      </trkpt>
      <trkpt lat="37.5786850" lon="-4.1827620">
        <ele>412.4</ele>
        <time>2021-12-28T10:50:12Z</time>
      </trkpt>
      <trkpt lat="37.5786940" lon="-4.1827860">
        <ele>412.4</ele>
        <time>2021-12-28T10:50:13Z</time>
      </trkpt>
      <trkpt lat="37.5787010" lon="-4.1828150">
        <ele>412.4</ele>
        <time>2021-12-28T10:50:14Z</time>
      </trkpt>
      <trkpt lat="37.5787140" lon="-4.1828420">
        <ele>412.4</ele>
        <time>2021-12-28T10:50:15Z</time>
      </trkpt>
      <trkpt lat="37.5787200" lon="-4.1828700">
        <ele>412.4</ele>
        <time>2021-12-28T10:50:16Z</time>
      </trkpt>
      <trkpt lat="37.5787330" lon="-4.1829000">
        <ele>412.6</ele>
        <time>2021-12-28T10:50:17Z</time>
      </trkpt>
      <trkpt lat="37.5787420" lon="-4.1829330">
        <ele>412.6</ele>
        <time>2021-12-28T10:50:18Z</time>
      </trkpt>
      <trkpt lat="37.5787520" lon="-4.1829650">
        <ele>412.8</ele>
        <time>2021-12-28T10:50:19Z</time>
      </trkpt>
      <trkpt lat="37.5787620" lon="-4.1829980">
        <ele>412.8</ele>
        <time>2021-12-28T10:50:20Z</time>
      </trkpt>
      <trkpt lat="37.5787710" lon="-4.1830340">
        <ele>413.0</ele>
        <time>2021-12-28T10:50:21Z</time>
      </trkpt>
      <trkpt lat="37.5787810" lon="-4.1830700">
        <ele>413.0</ele>
        <time>2021-12-28T10:50:22Z</time>
      </trkpt>
      <trkpt lat="37.5787940" lon="-4.1831060">
        <ele>413.0</ele>
        <time>2021-12-28T10:50:23Z</time>
      </trkpt>
      <trkpt lat="37.5788060" lon="-4.1831420">
        <ele>413.2</ele>
        <time>2021-12-28T10:50:24Z</time>
      </trkpt>
      <trkpt lat="37.5788220" lon="-4.1831720">
        <ele>413.2</ele>
        <time>2021-12-28T10:50:25Z</time>
      </trkpt>
      <trkpt lat="37.5788350" lon="-4.1832050">
        <ele>413.2</ele>
        <time>2021-12-28T10:50:26Z</time>
      </trkpt>
      <trkpt lat="37.5788450" lon="-4.1832380">
        <ele>413.2</ele>
        <time>2021-12-28T10:50:27Z</time>
      </trkpt>
      <trkpt lat="37.5788610" lon="-4.1832720">
        <ele>413.2</ele>
        <time>2021-12-28T10:50:28Z</time>
      </trkpt>
      <trkpt lat="37.5788700" lon="-4.1833030">
        <ele>413.2</ele>
        <time>2021-12-28T10:50:29Z</time>
      </trkpt>
      <trkpt lat="37.5788800" lon="-4.1833330">
        <ele>413.2</ele>
        <time>2021-12-28T10:50:30Z</time>
      </trkpt>
      <trkpt lat="37.5788960" lon="-4.1833600">
        <ele>413.2</ele>
        <time>2021-12-28T10:50:31Z</time>
      </trkpt>
      <trkpt lat="37.5789120" lon="-4.1833900">
        <ele>413.2</ele>
        <time>2021-12-28T10:50:32Z</time>
      </trkpt>
      <trkpt lat="37.5789250" lon="-4.1834220">
        <ele>413.2</ele>
        <time>2021-12-28T10:50:33Z</time>
      </trkpt>
      <trkpt lat="37.5789410" lon="-4.1834560">
        <ele>413.2</ele>
        <time>2021-12-28T10:50:34Z</time>
      </trkpt>
      <trkpt lat="37.5789540" lon="-4.1834920">
        <ele>413.4</ele>
        <time>2021-12-28T10:50:35Z</time>
      </trkpt>
      <trkpt lat="37.5789730" lon="-4.1835230">
        <ele>413.4</ele>
        <time>2021-12-28T10:50:36Z</time>
      </trkpt>
      <trkpt lat="37.5789820" lon="-4.1835560">
        <ele>413.4</ele>
        <time>2021-12-28T10:50:37Z</time>
      </trkpt>
      <trkpt lat="37.5789980" lon="-4.1835880">
        <ele>413.4</ele>
        <time>2021-12-28T10:50:38Z</time>
      </trkpt>
      <trkpt lat="37.5790140" lon="-4.1836200">
        <ele>413.6</ele>
        <time>2021-12-28T10:50:39Z</time>
      </trkpt>
      <trkpt lat="37.5790300" lon="-4.1836500">
        <ele>413.6</ele>
        <time>2021-12-28T10:50:40Z</time>
      </trkpt>
      <trkpt lat="37.5790500" lon="-4.1836780">
        <ele>413.6</ele>
        <time>2021-12-28T10:50:41Z</time>
      </trkpt>
      <trkpt lat="37.5790620" lon="-4.1837070">
        <ele>413.6</ele>
        <time>2021-12-28T10:50:42Z</time>
      </trkpt>
      <trkpt lat="37.5790820" lon="-4.1837370">
        <ele>413.8</ele>
        <time>2021-12-28T10:50:43Z</time>
      </trkpt>
      <trkpt lat="37.5790980" lon="-4.1837650">
        <ele>413.8</ele>
        <time>2021-12-28T10:50:44Z</time>
      </trkpt>
      <trkpt lat="37.5791170" lon="-4.1837920">
        <ele>414.0</ele>
        <time>2021-12-28T10:50:45Z</time>
      </trkpt>
      <trkpt lat="37.5791360" lon="-4.1838220">
        <ele>414.0</ele>
        <time>2021-12-28T10:50:46Z</time>
      </trkpt>
      <trkpt lat="37.5791550" lon="-4.1838500">
        <ele>414.2</ele>
        <time>2021-12-28T10:50:47Z</time>
      </trkpt>
      <trkpt lat="37.5791710" lon="-4.1838780">
        <ele>414.2</ele>
        <time>2021-12-28T10:50:48Z</time>
      </trkpt>
      <trkpt lat="37.5791900" lon="-4.1839050">
        <ele>414.2</ele>
        <time>2021-12-28T10:50:49Z</time>
      </trkpt>
      <trkpt lat="37.5792030" lon="-4.1839320">
        <ele>414.2</ele>
        <time>2021-12-28T10:50:50Z</time>
      </trkpt>
      <trkpt lat="37.5792220" lon="-4.1839570">
        <ele>414.4</ele>
        <time>2021-12-28T10:50:51Z</time>
      </trkpt>
      <trkpt lat="37.5792420" lon="-4.1839820">
        <ele>414.4</ele>
        <time>2021-12-28T10:50:52Z</time>
      </trkpt>
      <trkpt lat="37.5792610" lon="-4.1840080">
        <ele>414.6</ele>
        <time>2021-12-28T10:50:53Z</time>
      </trkpt>
      <trkpt lat="37.5792800" lon="-4.1840330">
        <ele>414.6</ele>
        <time>2021-12-28T10:50:54Z</time>
      </trkpt>
      <trkpt lat="37.5792990" lon="-4.1840570">
        <ele>414.8</ele>
        <time>2021-12-28T10:50:55Z</time>
      </trkpt>
      <trkpt lat="37.5793220" lon="-4.1840780">
        <ele>415.0</ele>
        <time>2021-12-28T10:50:56Z</time>
      </trkpt>
      <trkpt lat="37.5793410" lon="-4.1841000">
        <ele>415.0</ele>
        <time>2021-12-28T10:50:57Z</time>
      </trkpt>
      <trkpt lat="37.5793600" lon="-4.1841200">
        <ele>415.2</ele>
        <time>2021-12-28T10:50:58Z</time>
      </trkpt>
      <trkpt lat="37.5793790" lon="-4.1841440">
        <ele>415.2</ele>
        <time>2021-12-28T10:50:59Z</time>
      </trkpt>
      <trkpt lat="37.5793980" lon="-4.1841680">
        <ele>415.4</ele>
        <time>2021-12-28T10:51:00Z</time>
      </trkpt>
      <trkpt lat="37.5794180" lon="-4.1841950">
        <ele>415.4</ele>
        <time>2021-12-28T10:51:01Z</time>
      </trkpt>
      <trkpt lat="37.5794370" lon="-4.1842160">
        <ele>415.4</ele>
        <time>2021-12-28T10:51:02Z</time>
      </trkpt>
      <trkpt lat="37.5794560" lon="-4.1842380">
        <ele>415.6</ele>
        <time>2021-12-28T10:51:03Z</time>
      </trkpt>
      <trkpt lat="37.5794720" lon="-4.1842580">
        <ele>415.8</ele>
        <time>2021-12-28T10:51:04Z</time>
      </trkpt>
      <trkpt lat="37.5794940" lon="-4.1842760">
        <ele>415.8</ele>
        <time>2021-12-28T10:51:05Z</time>
      </trkpt>
      <trkpt lat="37.5795140" lon="-4.1842950">
        <ele>416.0</ele>
        <time>2021-12-28T10:51:06Z</time>
      </trkpt>
      <trkpt lat="37.5795330" lon="-4.1843170">
        <ele>416.0</ele>
        <time>2021-12-28T10:51:07Z</time>
      </trkpt>
      <trkpt lat="37.5795520" lon="-4.1843350">
        <ele>416.0</ele>
        <time>2021-12-28T10:51:08Z</time>
      </trkpt>
      <trkpt lat="37.5795710" lon="-4.1843570">
        <ele>416.0</ele>
        <time>2021-12-28T10:51:09Z</time>
      </trkpt>
      <trkpt lat="37.5795870" lon="-4.1843770">
        <ele>415.8</ele>
        <time>2021-12-28T10:51:10Z</time>
      </trkpt>
      <trkpt lat="37.5796000" lon="-4.1843980">
        <ele>415.8</ele>
        <time>2021-12-28T10:51:11Z</time>
      </trkpt>
      <trkpt lat="37.5796190" lon="-4.1844180">
        <ele>415.8</ele>
        <time>2021-12-28T10:51:12Z</time>
      </trkpt>
      <trkpt lat="37.5796380" lon="-4.1844380">
        <ele>415.8</ele>
        <time>2021-12-28T10:51:13Z</time>
      </trkpt>
      <trkpt lat="37.5796610" lon="-4.1844570">
        <ele>415.8</ele>
        <time>2021-12-28T10:51:14Z</time>
      </trkpt>
      <trkpt lat="37.5796800" lon="-4.1844770">
        <ele>415.8</ele>
        <time>2021-12-28T10:51:15Z</time>
      </trkpt>
      <trkpt lat="37.5797090" lon="-4.1844980">
        <ele>416.0</ele>
        <time>2021-12-28T10:51:16Z</time>
      </trkpt>
      <trkpt lat="37.5797250" lon="-4.1845120">
        <ele>416.0</ele>
        <time>2021-12-28T10:51:17Z</time>
      </trkpt>
      <trkpt lat="37.5797440" lon="-4.1845300">
        <ele>416.0</ele>
        <time>2021-12-28T10:51:18Z</time>
      </trkpt>
      <trkpt lat="37.5797570" lon="-4.1845500">
        <ele>416.2</ele>
        <time>2021-12-28T10:51:19Z</time>
      </trkpt>
      <trkpt lat="37.5797760" lon="-4.1845650">
        <ele>416.2</ele>
        <time>2021-12-28T10:51:20Z</time>
      </trkpt>
      <trkpt lat="37.5797950" lon="-4.1845800">
        <ele>416.4</ele>
        <time>2021-12-28T10:51:21Z</time>
      </trkpt>
      <trkpt lat="37.5798140" lon="-4.1845960">
        <ele>416.4</ele>
        <time>2021-12-28T10:51:22Z</time>
      </trkpt>
      <trkpt lat="37.5798370" lon="-4.1846130">
        <ele>416.4</ele>
        <time>2021-12-28T10:51:23Z</time>
      </trkpt>
      <trkpt lat="37.5798560" lon="-4.1846300">
        <ele>416.4</ele>
        <time>2021-12-28T10:51:24Z</time>
      </trkpt>
      <trkpt lat="37.5798780" lon="-4.1846470">
        <ele>416.6</ele>
        <time>2021-12-28T10:51:25Z</time>
      </trkpt>
      <trkpt lat="37.5798980" lon="-4.1846620">
        <ele>416.6</ele>
        <time>2021-12-28T10:51:26Z</time>
      </trkpt>
      <trkpt lat="37.5799230" lon="-4.1846770">
        <ele>416.4</ele>
        <time>2021-12-28T10:51:27Z</time>
      </trkpt>
      <trkpt lat="37.5799460" lon="-4.1846920">
        <ele>416.4</ele>
        <time>2021-12-28T10:51:28Z</time>
      </trkpt>
      <trkpt lat="37.5799680" lon="-4.1847080">
        <ele>416.4</ele>
        <time>2021-12-28T10:51:29Z</time>
      </trkpt>
      <trkpt lat="37.5799900" lon="-4.1847250">
        <ele>416.6</ele>
        <time>2021-12-28T10:51:30Z</time>
      </trkpt>
      <trkpt lat="37.5800130" lon="-4.1847400">
        <ele>416.6</ele>
        <time>2021-12-28T10:51:31Z</time>
      </trkpt>
      <trkpt lat="37.5800350" lon="-4.1847550">
        <ele>416.6</ele>
        <time>2021-12-28T10:51:32Z</time>
      </trkpt>
      <trkpt lat="37.5800580" lon="-4.1847680">
        <ele>416.6</ele>
        <time>2021-12-28T10:51:33Z</time>
      </trkpt>
      <trkpt lat="37.5800860" lon="-4.1847820">
        <ele>416.6</ele>
        <time>2021-12-28T10:51:34Z</time>
      </trkpt>
      <trkpt lat="37.5801090" lon="-4.1847950">
        <ele>416.8</ele>
        <time>2021-12-28T10:51:35Z</time>
      </trkpt>
      <trkpt lat="37.5801310" lon="-4.1848080">
        <ele>416.8</ele>
        <time>2021-12-28T10:51:36Z</time>
      </trkpt>
      <trkpt lat="37.5801540" lon="-4.1848220">
        <ele>416.8</ele>
        <time>2021-12-28T10:51:37Z</time>
      </trkpt>
      <trkpt lat="37.5801760" lon="-4.1848350">
        <ele>416.8</ele>
        <time>2021-12-28T10:51:38Z</time>
      </trkpt>
      <trkpt lat="37.5802050" lon="-4.1848500">
        <ele>416.8</ele>
        <time>2021-12-28T10:51:39Z</time>
      </trkpt>
      <trkpt lat="37.5802270" lon="-4.1848650">
        <ele>416.8</ele>
        <time>2021-12-28T10:51:40Z</time>
      </trkpt>
      <trkpt lat="37.5802500" lon="-4.1848780">
        <ele>416.8</ele>
        <time>2021-12-28T10:51:41Z</time>
      </trkpt>
      <trkpt lat="37.5802720" lon="-4.1848920">
        <ele>416.8</ele>
        <time>2021-12-28T10:51:42Z</time>
      </trkpt>
      <trkpt lat="37.5802940" lon="-4.1849020">
        <ele>416.8</ele>
        <time>2021-12-28T10:51:43Z</time>
      </trkpt>
      <trkpt lat="37.5803200" lon="-4.1849120">
        <ele>417.0</ele>
        <time>2021-12-28T10:51:44Z</time>
      </trkpt>
      <trkpt lat="37.5803460" lon="-4.1849230">
        <ele>417.0</ele>
        <time>2021-12-28T10:51:45Z</time>
      </trkpt>
      <trkpt lat="37.5803710" lon="-4.1849350">
        <ele>417.2</ele>
        <time>2021-12-28T10:51:46Z</time>
      </trkpt>
      <trkpt lat="37.5804000" lon="-4.1849480">
        <ele>417.2</ele>
        <time>2021-12-28T10:51:47Z</time>
      </trkpt>
      <trkpt lat="37.5804220" lon="-4.1849620">
        <ele>417.4</ele>
        <time>2021-12-28T10:51:48Z</time>
      </trkpt>
      <trkpt lat="37.5804480" lon="-4.1849750">
        <ele>417.4</ele>
        <time>2021-12-28T10:51:49Z</time>
      </trkpt>
      <trkpt lat="37.5804740" lon="-4.1849880">
        <ele>417.6</ele>
        <time>2021-12-28T10:51:50Z</time>
      </trkpt>
      <trkpt lat="37.5805020" lon="-4.1850030">
        <ele>417.6</ele>
        <time>2021-12-28T10:51:51Z</time>
      </trkpt>
      <trkpt lat="37.5805280" lon="-4.1850180">
        <ele>417.8</ele>
        <time>2021-12-28T10:51:52Z</time>
      </trkpt>
      <trkpt lat="37.5805540" lon="-4.1850320">
        <ele>417.8</ele>
        <time>2021-12-28T10:51:53Z</time>
      </trkpt>
      <trkpt lat="37.5805820" lon="-4.1850450">
        <ele>417.8</ele>
        <time>2021-12-28T10:51:54Z</time>
      </trkpt>
      <trkpt lat="37.5806080" lon="-4.1850600">
        <ele>417.8</ele>
        <time>2021-12-28T10:51:55Z</time>
      </trkpt>
      <trkpt lat="37.5806300" lon="-4.1850730">
        <ele>418.0</ele>
        <time>2021-12-28T10:51:56Z</time>
      </trkpt>
      <trkpt lat="37.5806590" lon="-4.1850850">
        <ele>418.0</ele>
        <time>2021-12-28T10:51:57Z</time>
      </trkpt>
      <trkpt lat="37.5806850" lon="-4.1850950">
        <ele>418.0</ele>
        <time>2021-12-28T10:51:58Z</time>
      </trkpt>
      <trkpt lat="37.5807070" lon="-4.1851070">
        <ele>418.0</ele>
        <time>2021-12-28T10:51:59Z</time>
      </trkpt>
      <trkpt lat="37.5807390" lon="-4.1851180">
        <ele>418.0</ele>
        <time>2021-12-28T10:52:00Z</time>
      </trkpt>
      <trkpt lat="37.5807620" lon="-4.1851320">
        <ele>418.0</ele>
        <time>2021-12-28T10:52:01Z</time>
      </trkpt>
      <trkpt lat="37.5807870" lon="-4.1851440">
        <ele>418.0</ele>
        <time>2021-12-28T10:52:02Z</time>
      </trkpt>
      <trkpt lat="37.5808130" lon="-4.1851570">
        <ele>418.0</ele>
        <time>2021-12-28T10:52:03Z</time>
      </trkpt>
      <trkpt lat="37.5808420" lon="-4.1851700">
        <ele>418.2</ele>
        <time>2021-12-28T10:52:04Z</time>
      </trkpt>
      <trkpt lat="37.5808670" lon="-4.1851840">
        <ele>418.2</ele>
        <time>2021-12-28T10:52:05Z</time>
      </trkpt>
      <trkpt lat="37.5808900" lon="-4.1851970">
        <ele>418.2</ele>
        <time>2021-12-28T10:52:06Z</time>
      </trkpt>
      <trkpt lat="37.5809120" lon="-4.1852070">
        <ele>418.2</ele>
        <time>2021-12-28T10:52:07Z</time>
      </trkpt>
      <trkpt lat="37.5809380" lon="-4.1852180">
        <ele>418.2</ele>
        <time>2021-12-28T10:52:08Z</time>
      </trkpt>
      <trkpt lat="37.5809600" lon="-4.1852300">
        <ele>418.2</ele>
        <time>2021-12-28T10:52:09Z</time>
      </trkpt>
      <trkpt lat="37.5809820" lon="-4.1852420">
        <ele>418.2</ele>
        <time>2021-12-28T10:52:10Z</time>
      </trkpt>
      <trkpt lat="37.5810050" lon="-4.1852530">
        <ele>418.4</ele>
        <time>2021-12-28T10:52:11Z</time>
      </trkpt>
      <trkpt lat="37.5810300" lon="-4.1852630">
        <ele>418.4</ele>
        <time>2021-12-28T10:52:12Z</time>
      </trkpt>
      <trkpt lat="37.5810590" lon="-4.1852760">
        <ele>418.4</ele>
        <time>2021-12-28T10:52:13Z</time>
      </trkpt>
      <trkpt lat="37.5810820" lon="-4.1852920">
        <ele>418.4</ele>
        <time>2021-12-28T10:52:14Z</time>
      </trkpt>
      <trkpt lat="37.5811070" lon="-4.1853030">
        <ele>418.4</ele>
        <time>2021-12-28T10:52:15Z</time>
      </trkpt>
      <trkpt lat="37.5811300" lon="-4.1853160">
        <ele>418.6</ele>
        <time>2021-12-28T10:52:16Z</time>
      </trkpt>
      <trkpt lat="37.5811550" lon="-4.1853260">
        <ele>418.8</ele>
        <time>2021-12-28T10:52:17Z</time>
      </trkpt>
      <trkpt lat="37.5811780" lon="-4.1853380">
        <ele>419.0</ele>
        <time>2021-12-28T10:52:18Z</time>
      </trkpt>
      <trkpt lat="37.5812000" lon="-4.1853520">
        <ele>419.0</ele>
        <time>2021-12-28T10:52:19Z</time>
      </trkpt>
      <trkpt lat="37.5812260" lon="-4.1853620">
        <ele>419.2</ele>
        <time>2021-12-28T10:52:20Z</time>
      </trkpt>
      <trkpt lat="37.5812480" lon="-4.1853750">
        <ele>419.2</ele>
        <time>2021-12-28T10:52:21Z</time>
      </trkpt>
      <trkpt lat="37.5812770" lon="-4.1853900">
        <ele>419.2</ele>
        <time>2021-12-28T10:52:22Z</time>
      </trkpt>
      <trkpt lat="37.5813020" lon="-4.1854030">
        <ele>419.0</ele>
        <time>2021-12-28T10:52:23Z</time>
      </trkpt>
      <trkpt lat="37.5813280" lon="-4.1854170">
        <ele>419.0</ele>
        <time>2021-12-28T10:52:24Z</time>
      </trkpt>
      <trkpt lat="37.5813470" lon="-4.1854320">
        <ele>419.0</ele>
        <time>2021-12-28T10:52:25Z</time>
      </trkpt>
      <trkpt lat="37.5813760" lon="-4.1854470">
        <ele>419.2</ele>
        <time>2021-12-28T10:52:26Z</time>
      </trkpt>
      <trkpt lat="37.5813980" lon="-4.1854600">
        <ele>419.2</ele>
        <time>2021-12-28T10:52:27Z</time>
      </trkpt>
      <trkpt lat="37.5814210" lon="-4.1854750">
        <ele>419.2</ele>
        <time>2021-12-28T10:52:28Z</time>
      </trkpt>
      <trkpt lat="37.5814460" lon="-4.1854920">
        <ele>419.4</ele>
        <time>2021-12-28T10:52:29Z</time>
      </trkpt>
      <trkpt lat="37.5814720" lon="-4.1855050">
        <ele>419.4</ele>
        <time>2021-12-28T10:52:30Z</time>
      </trkpt>
      <trkpt lat="37.5814940" lon="-4.1855220">
        <ele>419.6</ele>
        <time>2021-12-28T10:52:31Z</time>
      </trkpt>
      <trkpt lat="37.5815200" lon="-4.1855370">
        <ele>419.6</ele>
        <time>2021-12-28T10:52:32Z</time>
      </trkpt>
      <trkpt lat="37.5815420" lon="-4.1855520">
        <ele>419.6</ele>
        <time>2021-12-28T10:52:33Z</time>
      </trkpt>
      <trkpt lat="37.5815620" lon="-4.1855650">
        <ele>419.6</ele>
        <time>2021-12-28T10:52:34Z</time>
      </trkpt>
      <trkpt lat="37.5815840" lon="-4.1855800">
        <ele>419.8</ele>
        <time>2021-12-28T10:52:35Z</time>
      </trkpt>
      <trkpt lat="37.5816060" lon="-4.1855930">
        <ele>419.8</ele>
        <time>2021-12-28T10:52:36Z</time>
      </trkpt>
      <trkpt lat="37.5816320" lon="-4.1856100">
        <ele>419.8</ele>
        <time>2021-12-28T10:52:37Z</time>
      </trkpt>
      <trkpt lat="37.5816510" lon="-4.1856230">
        <ele>419.8</ele>
        <time>2021-12-28T10:52:38Z</time>
      </trkpt>
      <trkpt lat="37.5816700" lon="-4.1856400">
        <ele>419.8</ele>
        <time>2021-12-28T10:52:39Z</time>
      </trkpt>
      <trkpt lat="37.5816860" lon="-4.1856580">
        <ele>419.6</ele>
        <time>2021-12-28T10:52:40Z</time>
      </trkpt>
      <trkpt lat="37.5817020" lon="-4.1856730">
        <ele>419.6</ele>
        <time>2021-12-28T10:52:41Z</time>
      </trkpt>
      <trkpt lat="37.5817250" lon="-4.1856880">
        <ele>419.6</ele>
        <time>2021-12-28T10:52:42Z</time>
      </trkpt>
      <trkpt lat="37.5817500" lon="-4.1857030">
        <ele>419.6</ele>
        <time>2021-12-28T10:52:43Z</time>
      </trkpt>
      <trkpt lat="37.5817730" lon="-4.1857200">
        <ele>419.8</ele>
        <time>2021-12-28T10:52:44Z</time>
      </trkpt>
      <trkpt lat="37.5817920" lon="-4.1857370">
        <ele>419.8</ele>
        <time>2021-12-28T10:52:45Z</time>
      </trkpt>
      <trkpt lat="37.5818140" lon="-4.1857570">
        <ele>419.8</ele>
        <time>2021-12-28T10:52:46Z</time>
      </trkpt>
      <trkpt lat="37.5818370" lon="-4.1857770">
        <ele>420.0</ele>
        <time>2021-12-28T10:52:47Z</time>
      </trkpt>
      <trkpt lat="37.5818560" lon="-4.1857980">
        <ele>420.0</ele>
        <time>2021-12-28T10:52:48Z</time>
      </trkpt>
      <trkpt lat="37.5818750" lon="-4.1858180">
        <ele>420.2</ele>
        <time>2021-12-28T10:52:49Z</time>
      </trkpt>
      <trkpt lat="37.5818940" lon="-4.1858400">
        <ele>420.2</ele>
        <time>2021-12-28T10:52:50Z</time>
      </trkpt>
      <trkpt lat="37.5819170" lon="-4.1858600">
        <ele>420.2</ele>
        <time>2021-12-28T10:52:51Z</time>
      </trkpt>
      <trkpt lat="37.5819360" lon="-4.1858780">
        <ele>420.2</ele>
        <time>2021-12-28T10:52:52Z</time>
      </trkpt>
      <trkpt lat="37.5819550" lon="-4.1858970">
        <ele>420.4</ele>
        <time>2021-12-28T10:52:53Z</time>
      </trkpt>
      <trkpt lat="37.5819780" lon="-4.1859170">
        <ele>420.4</ele>
        <time>2021-12-28T10:52:54Z</time>
      </trkpt>
      <trkpt lat="37.5819970" lon="-4.1859350">
        <ele>420.4</ele>
        <time>2021-12-28T10:52:55Z</time>
      </trkpt>
      <trkpt lat="37.5820160" lon="-4.1859550">
        <ele>420.6</ele>
        <time>2021-12-28T10:52:56Z</time>
      </trkpt>
      <trkpt lat="37.5820350" lon="-4.1859750">
        <ele>420.6</ele>
        <time>2021-12-28T10:52:57Z</time>
      </trkpt>
      <trkpt lat="37.5820540" lon="-4.1859950">
        <ele>420.6</ele>
        <time>2021-12-28T10:52:58Z</time>
      </trkpt>
      <trkpt lat="37.5820740" lon="-4.1860160">
        <ele>420.6</ele>
        <time>2021-12-28T10:52:59Z</time>
      </trkpt>
      <trkpt lat="37.5820930" lon="-4.1860400">
        <ele>420.6</ele>
        <time>2021-12-28T10:53:00Z</time>
      </trkpt>
      <trkpt lat="37.5821150" lon="-4.1860600">
        <ele>420.6</ele>
        <time>2021-12-28T10:53:01Z</time>
      </trkpt>
      <trkpt lat="37.5821380" lon="-4.1860820">
        <ele>420.8</ele>
        <time>2021-12-28T10:53:02Z</time>
      </trkpt>
      <trkpt lat="37.5821600" lon="-4.1861050">
        <ele>420.8</ele>
        <time>2021-12-28T10:53:03Z</time>
      </trkpt>
      <trkpt lat="37.5821820" lon="-4.1861320">
        <ele>420.8</ele>
        <time>2021-12-28T10:53:04Z</time>
      </trkpt>
      <trkpt lat="37.5822080" lon="-4.1861570">
        <ele>420.8</ele>
        <time>2021-12-28T10:53:05Z</time>
      </trkpt>
      <trkpt lat="37.5822270" lon="-4.1861870">
        <ele>420.8</ele>
        <time>2021-12-28T10:53:06Z</time>
      </trkpt>
      <trkpt lat="37.5822460" lon="-4.1862140">
        <ele>421.0</ele>
        <time>2021-12-28T10:53:07Z</time>
      </trkpt>
      <trkpt lat="37.5822620" lon="-4.1862440">
        <ele>421.0</ele>
        <time>2021-12-28T10:53:08Z</time>
      </trkpt>
      <trkpt lat="37.5822880" lon="-4.1862720">
        <ele>421.2</ele>
        <time>2021-12-28T10:53:09Z</time>
      </trkpt>
      <trkpt lat="37.5823070" lon="-4.1863020">
        <ele>421.2</ele>
        <time>2021-12-28T10:53:10Z</time>
      </trkpt>
      <trkpt lat="37.5823260" lon="-4.1863280">
        <ele>421.4</ele>
        <time>2021-12-28T10:53:11Z</time>
      </trkpt>
      <trkpt lat="37.5823460" lon="-4.1863580">
        <ele>421.2</ele>
        <time>2021-12-28T10:53:12Z</time>
      </trkpt>
      <trkpt lat="37.5823580" lon="-4.1863880">
        <ele>421.2</ele>
        <time>2021-12-28T10:53:13Z</time>
      </trkpt>
      <trkpt lat="37.5823780" lon="-4.1864180">
        <ele>421.2</ele>
        <time>2021-12-28T10:53:14Z</time>
      </trkpt>
      <trkpt lat="37.5823940" lon="-4.1864500">
        <ele>421.4</ele>
        <time>2021-12-28T10:53:15Z</time>
      </trkpt>
      <trkpt lat="37.5824100" lon="-4.1864820">
        <ele>421.4</ele>
        <time>2021-12-28T10:53:16Z</time>
      </trkpt>
      <trkpt lat="37.5824260" lon="-4.1865150">
        <ele>421.4</ele>
        <time>2021-12-28T10:53:17Z</time>
      </trkpt>
      <trkpt lat="37.5824450" lon="-4.1865480">
        <ele>421.6</ele>
        <time>2021-12-28T10:53:18Z</time>
      </trkpt>
      <trkpt lat="37.5824580" lon="-4.1865820">
        <ele>421.6</ele>
        <time>2021-12-28T10:53:19Z</time>
      </trkpt>
      <trkpt lat="37.5824740" lon="-4.1866150">
        <ele>421.6</ele>
        <time>2021-12-28T10:53:20Z</time>
      </trkpt>
      <trkpt lat="37.5824900" lon="-4.1866460">
        <ele>421.6</ele>
        <time>2021-12-28T10:53:21Z</time>
      </trkpt>
      <trkpt lat="37.5825060" lon="-4.1866820">
        <ele>421.6</ele>
        <time>2021-12-28T10:53:22Z</time>
      </trkpt>
      <trkpt lat="37.5825150" lon="-4.1867200">
        <ele>421.8</ele>
        <time>2021-12-28T10:53:23Z</time>
      </trkpt>
      <trkpt lat="37.5825310" lon="-4.1867550">
        <ele>421.8</ele>
        <time>2021-12-28T10:53:24Z</time>
      </trkpt>
      <trkpt lat="37.5825440" lon="-4.1867920">
        <ele>422.0</ele>
        <time>2021-12-28T10:53:25Z</time>
      </trkpt>
      <trkpt lat="37.5825540" lon="-4.1868270">
        <ele>422.0</ele>
        <time>2021-12-28T10:53:26Z</time>
      </trkpt>
      <trkpt lat="37.5825700" lon="-4.1868620">
        <ele>422.0</ele>
        <time>2021-12-28T10:53:27Z</time>
      </trkpt>
      <trkpt lat="37.5825760" lon="-4.1868980">
        <ele>422.0</ele>
        <time>2021-12-28T10:53:28Z</time>
      </trkpt>
      <trkpt lat="37.5825890" lon="-4.1869340">
        <ele>422.2</ele>
        <time>2021-12-28T10:53:29Z</time>
      </trkpt>
      <trkpt lat="37.5825950" lon="-4.1869700">
        <ele>422.2</ele>
        <time>2021-12-28T10:53:30Z</time>
      </trkpt>
      <trkpt lat="37.5826050" lon="-4.1870060">
        <ele>422.2</ele>
        <time>2021-12-28T10:53:31Z</time>
      </trkpt>
      <trkpt lat="37.5826140" lon="-4.1870450">
        <ele>422.2</ele>
        <time>2021-12-28T10:53:32Z</time>
      </trkpt>
      <trkpt lat="37.5826240" lon="-4.1870820">
        <ele>422.4</ele>
        <time>2021-12-28T10:53:33Z</time>
      </trkpt>
      <trkpt lat="37.5826340" lon="-4.1871200">
        <ele>422.4</ele>
        <time>2021-12-28T10:53:34Z</time>
      </trkpt>
      <trkpt lat="37.5826430" lon="-4.1871570">
        <ele>422.6</ele>
        <time>2021-12-28T10:53:35Z</time>
      </trkpt>
      <trkpt lat="37.5826530" lon="-4.1871950">
        <ele>422.6</ele>
        <time>2021-12-28T10:53:36Z</time>
      </trkpt>
      <trkpt lat="37.5826660" lon="-4.1872350">
        <ele>422.6</ele>
        <time>2021-12-28T10:53:37Z</time>
      </trkpt>
      <trkpt lat="37.5826750" lon="-4.1872770">
        <ele>422.6</ele>
        <time>2021-12-28T10:53:38Z</time>
      </trkpt>
      <trkpt lat="37.5826850" lon="-4.1873150">
        <ele>422.6</ele>
        <time>2021-12-28T10:53:39Z</time>
      </trkpt>
      <trkpt lat="37.5826910" lon="-4.1873530">
        <ele>422.8</ele>
        <time>2021-12-28T10:53:40Z</time>
      </trkpt>
      <trkpt lat="37.5827040" lon="-4.1873880">
        <ele>422.8</ele>
        <time>2021-12-28T10:53:41Z</time>
      </trkpt>
      <trkpt lat="37.5827100" lon="-4.1874250">
        <ele>422.8</ele>
        <time>2021-12-28T10:53:42Z</time>
      </trkpt>
      <trkpt lat="37.5827170" lon="-4.1874620">
        <ele>422.8</ele>
        <time>2021-12-28T10:53:43Z</time>
      </trkpt>
      <trkpt lat="37.5827260" lon="-4.1874970">
        <ele>423.0</ele>
        <time>2021-12-28T10:53:44Z</time>
      </trkpt>
      <trkpt lat="37.5827330" lon="-4.1875320">
        <ele>423.0</ele>
        <time>2021-12-28T10:53:45Z</time>
      </trkpt>
      <trkpt lat="37.5827460" lon="-4.1875650">
        <ele>423.0</ele>
        <time>2021-12-28T10:53:46Z</time>
      </trkpt>
      <trkpt lat="37.5827520" lon="-4.1875970">
        <ele>423.0</ele>
        <time>2021-12-28T10:53:47Z</time>
      </trkpt>
      <trkpt lat="37.5827580" lon="-4.1876280">
        <ele>423.2</ele>
        <time>2021-12-28T10:53:48Z</time>
      </trkpt>
      <trkpt lat="37.5827680" lon="-4.1876620">
        <ele>423.2</ele>
        <time>2021-12-28T10:53:49Z</time>
      </trkpt>
      <trkpt lat="37.5827740" lon="-4.1876950">
        <ele>423.2</ele>
        <time>2021-12-28T10:53:50Z</time>
      </trkpt>
      <trkpt lat="37.5827840" lon="-4.1877260">
        <ele>423.2</ele>
        <time>2021-12-28T10:53:51Z</time>
      </trkpt>
      <trkpt lat="37.5827900" lon="-4.1877600">
        <ele>423.2</ele>
        <time>2021-12-28T10:53:52Z</time>
      </trkpt>
      <trkpt lat="37.5827970" lon="-4.1877960">
        <ele>423.2</ele>
        <time>2021-12-28T10:53:53Z</time>
      </trkpt>
      <trkpt lat="37.5828060" lon="-4.1878280">
        <ele>423.2</ele>
        <time>2021-12-28T10:53:54Z</time>
      </trkpt>
      <trkpt lat="37.5828130" lon="-4.1878620">
        <ele>423.2</ele>
        <time>2021-12-28T10:53:55Z</time>
      </trkpt>
      <trkpt lat="37.5828220" lon="-4.1878950">
        <ele>423.4</ele>
        <time>2021-12-28T10:53:56Z</time>
      </trkpt>
      <trkpt lat="37.5828290" lon="-4.1879270">
        <ele>423.4</ele>
        <time>2021-12-28T10:53:57Z</time>
      </trkpt>
      <trkpt lat="37.5828380" lon="-4.1879570">
        <ele>423.4</ele>
        <time>2021-12-28T10:53:58Z</time>
      </trkpt>
      <trkpt lat="37.5828480" lon="-4.1879920">
        <ele>423.4</ele>
        <time>2021-12-28T10:53:59Z</time>
      </trkpt>
      <trkpt lat="37.5828510" lon="-4.1880280">
        <ele>423.4</ele>
        <time>2021-12-28T10:54:00Z</time>
      </trkpt>
      <trkpt lat="37.5828540" lon="-4.1880630">
        <ele>423.4</ele>
        <time>2021-12-28T10:54:01Z</time>
      </trkpt>
      <trkpt lat="37.5828640" lon="-4.1880960">
        <ele>423.4</ele>
        <time>2021-12-28T10:54:02Z</time>
      </trkpt>
      <trkpt lat="37.5828700" lon="-4.1881320">
        <ele>423.4</ele>
        <time>2021-12-28T10:54:03Z</time>
      </trkpt>
      <trkpt lat="37.5828770" lon="-4.1881650">
        <ele>423.4</ele>
        <time>2021-12-28T10:54:04Z</time>
      </trkpt>
      <trkpt lat="37.5828860" lon="-4.1882000">
        <ele>423.4</ele>
        <time>2021-12-28T10:54:05Z</time>
      </trkpt>
      <trkpt lat="37.5828930" lon="-4.1882330">
        <ele>423.6</ele>
        <time>2021-12-28T10:54:06Z</time>
      </trkpt>
      <trkpt lat="37.5829060" lon="-4.1882670">
        <ele>423.6</ele>
        <time>2021-12-28T10:54:07Z</time>
      </trkpt>
      <trkpt lat="37.5829090" lon="-4.1883000">
        <ele>423.6</ele>
        <time>2021-12-28T10:54:08Z</time>
      </trkpt>
      <trkpt lat="37.5829220" lon="-4.1883350">
        <ele>423.6</ele>
        <time>2021-12-28T10:54:09Z</time>
      </trkpt>
      <trkpt lat="37.5829280" lon="-4.1883680">
        <ele>423.6</ele>
        <time>2021-12-28T10:54:10Z</time>
      </trkpt>
      <trkpt lat="37.5829340" lon="-4.1884020">
        <ele>423.6</ele>
        <time>2021-12-28T10:54:11Z</time>
      </trkpt>
      <trkpt lat="37.5829470" lon="-4.1884330">
        <ele>423.6</ele>
        <time>2021-12-28T10:54:12Z</time>
      </trkpt>
      <trkpt lat="37.5829500" lon="-4.1884650">
        <ele>423.6</ele>
        <time>2021-12-28T10:54:13Z</time>
      </trkpt>
      <trkpt lat="37.5829570" lon="-4.1885000">
        <ele>423.6</ele>
        <time>2021-12-28T10:54:14Z</time>
      </trkpt>
      <trkpt lat="37.5829630" lon="-4.1885330">
        <ele>423.8</ele>
        <time>2021-12-28T10:54:15Z</time>
      </trkpt>
      <trkpt lat="37.5829700" lon="-4.1885670">
        <ele>423.8</ele>
        <time>2021-12-28T10:54:16Z</time>
      </trkpt>
      <trkpt lat="37.5829760" lon="-4.1886020">
        <ele>423.8</ele>
        <time>2021-12-28T10:54:17Z</time>
      </trkpt>
      <trkpt lat="37.5829820" lon="-4.1886380">
        <ele>423.8</ele>
        <time>2021-12-28T10:54:18Z</time>
      </trkpt>
      <trkpt lat="37.5829860" lon="-4.1886770">
        <ele>423.8</ele>
        <time>2021-12-28T10:54:19Z</time>
      </trkpt>
      <trkpt lat="37.5829890" lon="-4.1887120">
        <ele>424.0</ele>
        <time>2021-12-28T10:54:20Z</time>
      </trkpt>
      <trkpt lat="37.5829950" lon="-4.1887450">
        <ele>424.0</ele>
        <time>2021-12-28T10:54:21Z</time>
      </trkpt>
      <trkpt lat="37.5830020" lon="-4.1887800">
        <ele>424.0</ele>
        <time>2021-12-28T10:54:22Z</time>
      </trkpt>
      <trkpt lat="37.5830020" lon="-4.1888130">
        <ele>424.0</ele>
        <time>2021-12-28T10:54:23Z</time>
      </trkpt>
      <trkpt lat="37.5830050" lon="-4.1888450">
        <ele>424.2</ele>
        <time>2021-12-28T10:54:24Z</time>
      </trkpt>
      <trkpt lat="37.5830080" lon="-4.1888780">
        <ele>424.2</ele>
        <time>2021-12-28T10:54:25Z</time>
      </trkpt>
      <trkpt lat="37.5830110" lon="-4.1889080">
        <ele>424.2</ele>
        <time>2021-12-28T10:54:26Z</time>
      </trkpt>
      <trkpt lat="37.5830140" lon="-4.1889420">
        <ele>424.4</ele>
        <time>2021-12-28T10:54:27Z</time>
      </trkpt>
      <trkpt lat="37.5830210" lon="-4.1889720">
        <ele>424.4</ele>
        <time>2021-12-28T10:54:28Z</time>
      </trkpt>
      <trkpt lat="37.5830240" lon="-4.1890040">
        <ele>424.4</ele>
        <time>2021-12-28T10:54:29Z</time>
      </trkpt>
      <trkpt lat="37.5830270" lon="-4.1890340">
        <ele>424.4</ele>
        <time>2021-12-28T10:54:30Z</time>
      </trkpt>
      <trkpt lat="37.5830300" lon="-4.1890640">
        <ele>424.6</ele>
        <time>2021-12-28T10:54:31Z</time>
      </trkpt>
      <trkpt lat="37.5830340" lon="-4.1890920">
        <ele>424.6</ele>
        <time>2021-12-28T10:54:32Z</time>
      </trkpt>
      <trkpt lat="37.5830340" lon="-4.1891200">
        <ele>424.6</ele>
        <time>2021-12-28T10:54:33Z</time>
      </trkpt>
      <trkpt lat="37.5830370" lon="-4.1891500">
        <ele>424.8</ele>
        <time>2021-12-28T10:54:34Z</time>
      </trkpt>
      <trkpt lat="37.5830370" lon="-4.1891800">
        <ele>424.8</ele>
        <time>2021-12-28T10:54:35Z</time>
      </trkpt>
      <trkpt lat="37.5830430" lon="-4.1892100">
        <ele>424.8</ele>
        <time>2021-12-28T10:54:36Z</time>
      </trkpt>
      <trkpt lat="37.5830460" lon="-4.1892400">
        <ele>424.8</ele>
        <time>2021-12-28T10:54:37Z</time>
      </trkpt>
      <trkpt lat="37.5830460" lon="-4.1892700">
        <ele>425.0</ele>
        <time>2021-12-28T10:54:38Z</time>
      </trkpt>
      <trkpt lat="37.5830460" lon="-4.1893000">
        <ele>425.0</ele>
        <time>2021-12-28T10:54:39Z</time>
      </trkpt>
      <trkpt lat="37.5830460" lon="-4.1893340">
        <ele>425.0</ele>
        <time>2021-12-28T10:54:40Z</time>
      </trkpt>
      <trkpt lat="37.5830500" lon="-4.1893670">
        <ele>425.0</ele>
        <time>2021-12-28T10:54:41Z</time>
      </trkpt>
      <trkpt lat="37.5830530" lon="-4.1893980">
        <ele>425.2</ele>
        <time>2021-12-28T10:54:42Z</time>
      </trkpt>
      <trkpt lat="37.5830530" lon="-4.1894300">
        <ele>425.2</ele>
        <time>2021-12-28T10:54:43Z</time>
      </trkpt>
      <trkpt lat="37.5830560" lon="-4.1894620">
        <ele>425.4</ele>
        <time>2021-12-28T10:54:44Z</time>
      </trkpt>
      <trkpt lat="37.5830620" lon="-4.1894920">
        <ele>425.4</ele>
        <time>2021-12-28T10:54:45Z</time>
      </trkpt>
      <trkpt lat="37.5830660" lon="-4.1895260">
        <ele>425.6</ele>
        <time>2021-12-28T10:54:46Z</time>
      </trkpt>
      <trkpt lat="37.5830660" lon="-4.1895600">
        <ele>425.8</ele>
        <time>2021-12-28T10:54:47Z</time>
      </trkpt>
      <trkpt lat="37.5830660" lon="-4.1895950">
        <ele>425.8</ele>
        <time>2021-12-28T10:54:48Z</time>
      </trkpt>
      <trkpt lat="37.5830690" lon="-4.1896270">
        <ele>426.0</ele>
        <time>2021-12-28T10:54:49Z</time>
      </trkpt>
      <trkpt lat="37.5830690" lon="-4.1896600">
        <ele>426.2</ele>
        <time>2021-12-28T10:54:50Z</time>
      </trkpt>
      <trkpt lat="37.5830690" lon="-4.1896940">
        <ele>426.2</ele>
        <time>2021-12-28T10:54:51Z</time>
      </trkpt>
      <trkpt lat="37.5830720" lon="-4.1897250">
        <ele>426.2</ele>
        <time>2021-12-28T10:54:52Z</time>
      </trkpt>
      <trkpt lat="37.5830720" lon="-4.1897570">
        <ele>426.2</ele>
        <time>2021-12-28T10:54:53Z</time>
      </trkpt>
      <trkpt lat="37.5830750" lon="-4.1897920">
        <ele>426.2</ele>
        <time>2021-12-28T10:54:54Z</time>
      </trkpt>
      <trkpt lat="37.5830750" lon="-4.1898250">
        <ele>426.4</ele>
        <time>2021-12-28T10:54:55Z</time>
      </trkpt>
      <trkpt lat="37.5830750" lon="-4.1898580">
        <ele>426.4</ele>
        <time>2021-12-28T10:54:56Z</time>
      </trkpt>
      <trkpt lat="37.5830750" lon="-4.1898930">
        <ele>426.4</ele>
        <time>2021-12-28T10:54:57Z</time>
      </trkpt>
      <trkpt lat="37.5830750" lon="-4.1899270">
        <ele>426.4</ele>
        <time>2021-12-28T10:54:58Z</time>
      </trkpt>
      <trkpt lat="37.5830820" lon="-4.1899600">
        <ele>426.6</ele>
        <time>2021-12-28T10:54:59Z</time>
      </trkpt>
      <trkpt lat="37.5830820" lon="-4.1899950">
        <ele>426.6</ele>
        <time>2021-12-28T10:55:00Z</time>
      </trkpt>
      <trkpt lat="37.5830820" lon="-4.1900300">
        <ele>426.6</ele>
        <time>2021-12-28T10:55:01Z</time>
      </trkpt>
      <trkpt lat="37.5830850" lon="-4.1900650">
        <ele>426.6</ele>
        <time>2021-12-28T10:55:02Z</time>
      </trkpt>
      <trkpt lat="37.5830850" lon="-4.1900980">
        <ele>426.6</ele>
        <time>2021-12-28T10:55:03Z</time>
      </trkpt>
      <trkpt lat="37.5830850" lon="-4.1901330">
        <ele>426.6</ele>
        <time>2021-12-28T10:55:04Z</time>
      </trkpt>
      <trkpt lat="37.5830850" lon="-4.1901660">
        <ele>426.6</ele>
        <time>2021-12-28T10:55:05Z</time>
      </trkpt>
      <trkpt lat="37.5830880" lon="-4.1901980">
        <ele>426.6</ele>
        <time>2021-12-28T10:55:06Z</time>
      </trkpt>
      <trkpt lat="37.5830880" lon="-4.1902300">
        <ele>426.8</ele>
        <time>2021-12-28T10:55:07Z</time>
      </trkpt>
      <trkpt lat="37.5830880" lon="-4.1902650">
        <ele>426.8</ele>
        <time>2021-12-28T10:55:08Z</time>
      </trkpt>
      <trkpt lat="37.5830880" lon="-4.1903020">
        <ele>426.8</ele>
        <time>2021-12-28T10:55:09Z</time>
      </trkpt>
      <trkpt lat="37.5830850" lon="-4.1903380">
        <ele>427.0</ele>
        <time>2021-12-28T10:55:10Z</time>
      </trkpt>
      <trkpt lat="37.5830850" lon="-4.1903740">
        <ele>427.0</ele>
        <time>2021-12-28T10:55:11Z</time>
      </trkpt>
      <trkpt lat="37.5830820" lon="-4.1904080">
        <ele>427.0</ele>
        <time>2021-12-28T10:55:12Z</time>
      </trkpt>
      <trkpt lat="37.5830750" lon="-4.1904440">
        <ele>427.0</ele>
        <time>2021-12-28T10:55:13Z</time>
      </trkpt>
      <trkpt lat="37.5830750" lon="-4.1904770">
        <ele>427.0</ele>
        <time>2021-12-28T10:55:14Z</time>
      </trkpt>
      <trkpt lat="37.5830750" lon="-4.1905080">
        <ele>427.2</ele>
        <time>2021-12-28T10:55:15Z</time>
      </trkpt>
      <trkpt lat="37.5830720" lon="-4.1905420">
        <ele>427.2</ele>
        <time>2021-12-28T10:55:16Z</time>
      </trkpt>
      <trkpt lat="37.5830690" lon="-4.1905780">
        <ele>427.2</ele>
        <time>2021-12-28T10:55:17Z</time>
      </trkpt>
      <trkpt lat="37.5830660" lon="-4.1906130">
        <ele>427.2</ele>
        <time>2021-12-28T10:55:18Z</time>
      </trkpt>
      <trkpt lat="37.5830620" lon="-4.1906480">
        <ele>427.4</ele>
        <time>2021-12-28T10:55:19Z</time>
      </trkpt>
      <trkpt lat="37.5830620" lon="-4.1906830">
        <ele>427.4</ele>
        <time>2021-12-28T10:55:20Z</time>
      </trkpt>
      <trkpt lat="37.5830560" lon="-4.1907140">
        <ele>427.4</ele>
        <time>2021-12-28T10:55:21Z</time>
      </trkpt>
      <trkpt lat="37.5830530" lon="-4.1907470">
        <ele>427.4</ele>
        <time>2021-12-28T10:55:22Z</time>
      </trkpt>
      <trkpt lat="37.5830500" lon="-4.1907820">
        <ele>427.4</ele>
        <time>2021-12-28T10:55:23Z</time>
      </trkpt>
      <trkpt lat="37.5830430" lon="-4.1908170">
        <ele>427.4</ele>
        <time>2021-12-28T10:55:24Z</time>
      </trkpt>
      <trkpt lat="37.5830430" lon="-4.1908500">
        <ele>427.4</ele>
        <time>2021-12-28T10:55:25Z</time>
      </trkpt>
      <trkpt lat="37.5830370" lon="-4.1908830">
        <ele>427.4</ele>
        <time>2021-12-28T10:55:26Z</time>
      </trkpt>
      <trkpt lat="37.5830340" lon="-4.1909150">
        <ele>427.6</ele>
        <time>2021-12-28T10:55:27Z</time>
      </trkpt>
      <trkpt lat="37.5830270" lon="-4.1909480">
        <ele>427.6</ele>
        <time>2021-12-28T10:55:28Z</time>
      </trkpt>
      <trkpt lat="37.5830210" lon="-4.1909800">
        <ele>427.6</ele>
        <time>2021-12-28T10:55:29Z</time>
      </trkpt>
      <trkpt lat="37.5830110" lon="-4.1910120">
        <ele>427.6</ele>
        <time>2021-12-28T10:55:30Z</time>
      </trkpt>
      <trkpt lat="37.5830080" lon="-4.1910430">
        <ele>427.6</ele>
        <time>2021-12-28T10:55:31Z</time>
      </trkpt>
      <trkpt lat="37.5830020" lon="-4.1910770">
        <ele>427.6</ele>
        <time>2021-12-28T10:55:32Z</time>
      </trkpt>
      <trkpt lat="37.5829920" lon="-4.1911120">
        <ele>427.6</ele>
        <time>2021-12-28T10:55:33Z</time>
      </trkpt>
      <trkpt lat="37.5829890" lon="-4.1911470">
        <ele>427.8</ele>
        <time>2021-12-28T10:55:34Z</time>
      </trkpt>
      <trkpt lat="37.5829820" lon="-4.1911770">
        <ele>427.8</ele>
        <time>2021-12-28T10:55:35Z</time>
      </trkpt>
      <trkpt lat="37.5829730" lon="-4.1912060">
        <ele>427.8</ele>
        <time>2021-12-28T10:55:36Z</time>
      </trkpt>
      <trkpt lat="37.5829700" lon="-4.1912360">
        <ele>427.8</ele>
        <time>2021-12-28T10:55:37Z</time>
      </trkpt>
      <trkpt lat="37.5829630" lon="-4.1912660">
        <ele>427.8</ele>
        <time>2021-12-28T10:55:38Z</time>
      </trkpt>
      <trkpt lat="37.5829570" lon="-4.1912980">
        <ele>427.8</ele>
        <time>2021-12-28T10:55:39Z</time>
      </trkpt>
      <trkpt lat="37.5829470" lon="-4.1913320">
        <ele>427.8</ele>
        <time>2021-12-28T10:55:40Z</time>
      </trkpt>
      <trkpt lat="37.5829440" lon="-4.1913650">
        <ele>427.8</ele>
        <time>2021-12-28T10:55:41Z</time>
      </trkpt>
      <trkpt lat="37.5829310" lon="-4.1914000">
        <ele>427.8</ele>
        <time>2021-12-28T10:55:42Z</time>
      </trkpt>
      <trkpt lat="37.5829250" lon="-4.1914320">
        <ele>428.0</ele>
        <time>2021-12-28T10:55:43Z</time>
      </trkpt>
      <trkpt lat="37.5829120" lon="-4.1914640">
        <ele>428.0</ele>
        <time>2021-12-28T10:55:44Z</time>
      </trkpt>
      <trkpt lat="37.5829020" lon="-4.1914950">
        <ele>428.0</ele>
        <time>2021-12-28T10:55:45Z</time>
      </trkpt>
      <trkpt lat="37.5828930" lon="-4.1915280">
        <ele>428.0</ele>
        <time>2021-12-28T10:55:46Z</time>
      </trkpt>
      <trkpt lat="37.5828830" lon="-4.1915620">
        <ele>428.0</ele>
        <time>2021-12-28T10:55:47Z</time>
      </trkpt>
      <trkpt lat="37.5828740" lon="-4.1915950">
        <ele>428.0</ele>
        <time>2021-12-28T10:55:48Z</time>
      </trkpt>
      <trkpt lat="37.5828640" lon="-4.1916300">
        <ele>428.0</ele>
        <time>2021-12-28T10:55:49Z</time>
      </trkpt>
      <trkpt lat="37.5828540" lon="-4.1916630">
        <ele>428.0</ele>
        <time>2021-12-28T10:55:50Z</time>
      </trkpt>
      <trkpt lat="37.5828450" lon="-4.1916970">
        <ele>428.0</ele>
        <time>2021-12-28T10:55:51Z</time>
      </trkpt>
      <trkpt lat="37.5828320" lon="-4.1917280">
        <ele>428.0</ele>
        <time>2021-12-28T10:55:52Z</time>
      </trkpt>
      <trkpt lat="37.5828220" lon="-4.1917640">
        <ele>428.0</ele>
        <time>2021-12-28T10:55:53Z</time>
      </trkpt>
      <trkpt lat="37.5828100" lon="-4.1917980">
        <ele>428.2</ele>
        <time>2021-12-28T10:55:54Z</time>
      </trkpt>
      <trkpt lat="37.5827970" lon="-4.1918340">
        <ele>428.2</ele>
        <time>2021-12-28T10:55:55Z</time>
      </trkpt>
      <trkpt lat="37.5827870" lon="-4.1918670">
        <ele>428.2</ele>
        <time>2021-12-28T10:55:56Z</time>
      </trkpt>
      <trkpt lat="37.5827740" lon="-4.1919000">
        <ele>428.2</ele>
        <time>2021-12-28T10:55:57Z</time>
      </trkpt>
      <trkpt lat="37.5827650" lon="-4.1919330">
        <ele>428.2</ele>
        <time>2021-12-28T10:55:58Z</time>
      </trkpt>
      <trkpt lat="37.5827550" lon="-4.1919660">
        <ele>428.2</ele>
        <time>2021-12-28T10:55:59Z</time>
      </trkpt>
      <trkpt lat="37.5827460" lon="-4.1920020">
        <ele>428.2</ele>
        <time>2021-12-28T10:56:00Z</time>
      </trkpt>
      <trkpt lat="37.5827330" lon="-4.1920370">
        <ele>428.2</ele>
        <time>2021-12-28T10:56:01Z</time>
      </trkpt>
      <trkpt lat="37.5827230" lon="-4.1920720">
        <ele>428.2</ele>
        <time>2021-12-28T10:56:02Z</time>
      </trkpt>
      <trkpt lat="37.5827100" lon="-4.1921070">
        <ele>428.2</ele>
        <time>2021-12-28T10:56:03Z</time>
      </trkpt>
      <trkpt lat="37.5826980" lon="-4.1921420">
        <ele>428.4</ele>
        <time>2021-12-28T10:56:04Z</time>
      </trkpt>
      <trkpt lat="37.5826910" lon="-4.1921740">
        <ele>428.4</ele>
        <time>2021-12-28T10:56:05Z</time>
      </trkpt>
      <trkpt lat="37.5826780" lon="-4.1922080">
        <ele>428.4</ele>
        <time>2021-12-28T10:56:06Z</time>
      </trkpt>
      <trkpt lat="37.5826690" lon="-4.1922420">
        <ele>428.6</ele>
        <time>2021-12-28T10:56:07Z</time>
      </trkpt>
      <trkpt lat="37.5826590" lon="-4.1922760">
        <ele>428.6</ele>
        <time>2021-12-28T10:56:08Z</time>
      </trkpt>
      <trkpt lat="37.5826500" lon="-4.1923120">
        <ele>428.6</ele>
        <time>2021-12-28T10:56:09Z</time>
      </trkpt>
      <trkpt lat="37.5826370" lon="-4.1923430">
        <ele>428.6</ele>
        <time>2021-12-28T10:56:10Z</time>
      </trkpt>
      <trkpt lat="37.5826270" lon="-4.1923720">
        <ele>428.6</ele>
        <time>2021-12-28T10:56:11Z</time>
      </trkpt>
      <trkpt lat="37.5826180" lon="-4.1924020">
        <ele>428.6</ele>
        <time>2021-12-28T10:56:12Z</time>
      </trkpt>
      <trkpt lat="37.5826080" lon="-4.1924330">
        <ele>428.6</ele>
        <time>2021-12-28T10:56:13Z</time>
      </trkpt>
      <trkpt lat="37.5825950" lon="-4.1924650">
        <ele>428.6</ele>
        <time>2021-12-28T10:56:14Z</time>
      </trkpt>
      <trkpt lat="37.5825860" lon="-4.1924970">
        <ele>428.6</ele>
        <time>2021-12-28T10:56:15Z</time>
      </trkpt>
      <trkpt lat="37.5825760" lon="-4.1925280">
        <ele>428.8</ele>
        <time>2021-12-28T10:56:16Z</time>
      </trkpt>
      <trkpt lat="37.5825660" lon="-4.1925600">
        <ele>428.8</ele>
        <time>2021-12-28T10:56:17Z</time>
      </trkpt>
      <trkpt lat="37.5825600" lon="-4.1925900">
        <ele>428.8</ele>
        <time>2021-12-28T10:56:18Z</time>
      </trkpt>
      <trkpt lat="37.5825500" lon="-4.1926220">
        <ele>429.0</ele>
        <time>2021-12-28T10:56:19Z</time>
      </trkpt>
      <trkpt lat="37.5825380" lon="-4.1926550">
        <ele>429.0</ele>
        <time>2021-12-28T10:56:20Z</time>
      </trkpt>
      <trkpt lat="37.5825310" lon="-4.1926860">
        <ele>429.2</ele>
        <time>2021-12-28T10:56:21Z</time>
      </trkpt>
      <trkpt lat="37.5825250" lon="-4.1927180">
        <ele>429.2</ele>
        <time>2021-12-28T10:56:22Z</time>
      </trkpt>
      <trkpt lat="37.5825120" lon="-4.1927480">
        <ele>429.2</ele>
        <time>2021-12-28T10:56:23Z</time>
      </trkpt>
      <trkpt lat="37.5824990" lon="-4.1927800">
        <ele>429.2</ele>
        <time>2021-12-28T10:56:24Z</time>
      </trkpt>
      <trkpt lat="37.5824900" lon="-4.1928100">
        <ele>429.2</ele>
        <time>2021-12-28T10:56:25Z</time>
      </trkpt>
      <trkpt lat="37.5824770" lon="-4.1928400">
        <ele>429.2</ele>
        <time>2021-12-28T10:56:26Z</time>
      </trkpt>
      <trkpt lat="37.5824700" lon="-4.1928700">
        <ele>429.4</ele>
        <time>2021-12-28T10:56:27Z</time>
      </trkpt>
      <trkpt lat="37.5824580" lon="-4.1929000">
        <ele>429.4</ele>
        <time>2021-12-28T10:56:28Z</time>
      </trkpt>
      <trkpt lat="37.5824510" lon="-4.1929320">
        <ele>429.4</ele>
        <time>2021-12-28T10:56:29Z</time>
      </trkpt>
      <trkpt lat="37.5824380" lon="-4.1929650">
        <ele>429.4</ele>
        <time>2021-12-28T10:56:30Z</time>
      </trkpt>
      <trkpt lat="37.5824320" lon="-4.1929960">
        <ele>429.4</ele>
        <time>2021-12-28T10:56:31Z</time>
      </trkpt>
      <trkpt lat="37.5824190" lon="-4.1930260">
        <ele>429.4</ele>
        <time>2021-12-28T10:56:32Z</time>
      </trkpt>
      <trkpt lat="37.5824100" lon="-4.1930580">
        <ele>429.6</ele>
        <time>2021-12-28T10:56:33Z</time>
      </trkpt>
      <trkpt lat="37.5823970" lon="-4.1930900">
        <ele>429.6</ele>
        <time>2021-12-28T10:56:34Z</time>
      </trkpt>
      <trkpt lat="37.5823900" lon="-4.1931220">
        <ele>429.6</ele>
        <time>2021-12-28T10:56:35Z</time>
      </trkpt>
      <trkpt lat="37.5823780" lon="-4.1931520">
        <ele>429.6</ele>
        <time>2021-12-28T10:56:36Z</time>
      </trkpt>
      <trkpt lat="37.5823680" lon="-4.1931840">
        <ele>429.6</ele>
        <time>2021-12-28T10:56:37Z</time>
      </trkpt>
      <trkpt lat="37.5823550" lon="-4.1932170">
        <ele>429.8</ele>
        <time>2021-12-28T10:56:38Z</time>
      </trkpt>
      <trkpt lat="37.5823490" lon="-4.1932500">
        <ele>429.8</ele>
        <time>2021-12-28T10:56:39Z</time>
      </trkpt>
      <trkpt lat="37.5823360" lon="-4.1932840">
        <ele>429.8</ele>
        <time>2021-12-28T10:56:40Z</time>
      </trkpt>
      <trkpt lat="37.5823300" lon="-4.1933180">
        <ele>430.0</ele>
        <time>2021-12-28T10:56:41Z</time>
      </trkpt>
      <trkpt lat="37.5823200" lon="-4.1933530">
        <ele>430.0</ele>
        <time>2021-12-28T10:56:42Z</time>
      </trkpt>
      <trkpt lat="37.5823100" lon="-4.1933880">
        <ele>430.0</ele>
        <time>2021-12-28T10:56:43Z</time>
      </trkpt>
      <trkpt lat="37.5822980" lon="-4.1934220">
        <ele>430.0</ele>
        <time>2021-12-28T10:56:44Z</time>
      </trkpt>
      <trkpt lat="37.5822880" lon="-4.1934530">
        <ele>430.2</ele>
        <time>2021-12-28T10:56:45Z</time>
      </trkpt>
      <trkpt lat="37.5822750" lon="-4.1934850">
        <ele>430.2</ele>
        <time>2021-12-28T10:56:46Z</time>
      </trkpt>
      <trkpt lat="37.5822620" lon="-4.1935200">
        <ele>430.4</ele>
        <time>2021-12-28T10:56:47Z</time>
      </trkpt>
      <trkpt lat="37.5822530" lon="-4.1935570">
        <ele>430.4</ele>
        <time>2021-12-28T10:56:48Z</time>
      </trkpt>
      <trkpt lat="37.5822400" lon="-4.1935940">
        <ele>430.4</ele>
        <time>2021-12-28T10:56:49Z</time>
      </trkpt>
      <trkpt lat="37.5822340" lon="-4.1936270">
        <ele>430.4</ele>
        <time>2021-12-28T10:56:50Z</time>
      </trkpt>
      <trkpt lat="37.5822210" lon="-4.1936600">
        <ele>430.6</ele>
        <time>2021-12-28T10:56:51Z</time>
      </trkpt>
      <trkpt lat="37.5822110" lon="-4.1936920">
        <ele>430.6</ele>
        <time>2021-12-28T10:56:52Z</time>
      </trkpt>
      <trkpt lat="37.5821980" lon="-4.1937250">
        <ele>430.6</ele>
        <time>2021-12-28T10:56:53Z</time>
      </trkpt>
      <trkpt lat="37.5821890" lon="-4.1937580">
        <ele>430.6</ele>
        <time>2021-12-28T10:56:54Z</time>
      </trkpt>
      <trkpt lat="37.5821790" lon="-4.1937900">
        <ele>430.8</ele>
        <time>2021-12-28T10:56:55Z</time>
      </trkpt>
      <trkpt lat="37.5821700" lon="-4.1938230">
        <ele>430.8</ele>
        <time>2021-12-28T10:56:56Z</time>
      </trkpt>
      <trkpt lat="37.5821570" lon="-4.1938550">
        <ele>431.0</ele>
        <time>2021-12-28T10:56:57Z</time>
      </trkpt>
      <trkpt lat="37.5821500" lon="-4.1938880">
        <ele>431.0</ele>
        <time>2021-12-28T10:56:58Z</time>
      </trkpt>
      <trkpt lat="37.5821380" lon="-4.1939240">
        <ele>431.0</ele>
        <time>2021-12-28T10:56:59Z</time>
      </trkpt>
      <trkpt lat="37.5821280" lon="-4.1939570">
        <ele>431.0</ele>
        <time>2021-12-28T10:57:00Z</time>
      </trkpt>
      <trkpt lat="37.5821180" lon="-4.1939900">
        <ele>431.2</ele>
        <time>2021-12-28T10:57:01Z</time>
      </trkpt>
      <trkpt lat="37.5821120" lon="-4.1940230">
        <ele>431.2</ele>
        <time>2021-12-28T10:57:02Z</time>
      </trkpt>
      <trkpt lat="37.5820990" lon="-4.1940550">
        <ele>431.2</ele>
        <time>2021-12-28T10:57:03Z</time>
      </trkpt>
      <trkpt lat="37.5820930" lon="-4.1940880">
        <ele>431.2</ele>
        <time>2021-12-28T10:57:04Z</time>
      </trkpt>
      <trkpt lat="37.5820830" lon="-4.1941200">
        <ele>431.2</ele>
        <time>2021-12-28T10:57:05Z</time>
      </trkpt>
      <trkpt lat="37.5820770" lon="-4.1941520">
        <ele>431.2</ele>
        <time>2021-12-28T10:57:06Z</time>
      </trkpt>
      <trkpt lat="37.5820700" lon="-4.1941800">
        <ele>431.4</ele>
        <time>2021-12-28T10:57:07Z</time>
      </trkpt>
      <trkpt lat="37.5820610" lon="-4.1942070">
        <ele>431.4</ele>
        <time>2021-12-28T10:57:08Z</time>
      </trkpt>
      <trkpt lat="37.5820510" lon="-4.1942300">
        <ele>431.4</ele>
        <time>2021-12-28T10:57:09Z</time>
      </trkpt>
      <trkpt lat="37.5820480" lon="-4.1942550">
        <ele>431.6</ele>
        <time>2021-12-28T10:57:10Z</time>
      </trkpt>
      <trkpt lat="37.5820380" lon="-4.1942840">
        <ele>431.6</ele>
        <time>2021-12-28T10:57:11Z</time>
      </trkpt>
      <trkpt lat="37.5820320" lon="-4.1943120">
        <ele>431.6</ele>
        <time>2021-12-28T10:57:12Z</time>
      </trkpt>
      <trkpt lat="37.5820290" lon="-4.1943370">
        <ele>431.6</ele>
        <time>2021-12-28T10:57:13Z</time>
      </trkpt>
      <trkpt lat="37.5820190" lon="-4.1943560">
        <ele>431.8</ele>
        <time>2021-12-28T10:57:14Z</time>
      </trkpt>
      <trkpt lat="37.5820190" lon="-4.1943560">
        <ele>431.8</ele>
        <time>2021-12-28T10:57:15Z</time>
      </trkpt>
      <trkpt lat="37.5820130" lon="-4.1943930">
        <ele>431.8</ele>
        <time>2021-12-28T10:57:16Z</time>
      </trkpt>
      <trkpt lat="37.5820130" lon="-4.1943930">
        <ele>432.0</ele>
        <time>2021-12-28T10:57:17Z</time>
      </trkpt>
      <trkpt lat="37.5820130" lon="-4.1943930">
        <ele>432.0</ele>
        <time>2021-12-28T10:57:18Z</time>
      </trkpt>
      <trkpt lat="37.5820130" lon="-4.1943930">
        <ele>432.0</ele>
        <time>2021-12-28T10:57:19Z</time>
      </trkpt>
      <trkpt lat="37.5820130" lon="-4.1943930">
        <ele>432.0</ele>
        <time>2021-12-28T10:57:20Z</time>
      </trkpt>
      <trkpt lat="37.5820130" lon="-4.1943930">
        <ele>432.0</ele>
        <time>2021-12-28T10:57:21Z</time>
      </trkpt>
      <trkpt lat="37.5819970" lon="-4.1945220">
        <ele>433.8</ele>
        <time>2021-12-28T10:59:29Z</time>
      </trkpt>
      <trkpt lat="37.5819940" lon="-4.1945520">
        <ele>433.8</ele>
        <time>2021-12-28T10:59:30Z</time>
      </trkpt>
      <trkpt lat="37.5819840" lon="-4.1945800">
        <ele>433.8</ele>
        <time>2021-12-28T10:59:31Z</time>
      </trkpt>
      <trkpt lat="37.5819810" lon="-4.1946100">
        <ele>433.8</ele>
        <time>2021-12-28T10:59:32Z</time>
      </trkpt>
      <trkpt lat="37.5819740" lon="-4.1946380">
        <ele>433.8</ele>
        <time>2021-12-28T10:59:33Z</time>
      </trkpt>
      <trkpt lat="37.5819740" lon="-4.1946700">
        <ele>433.8</ele>
        <time>2021-12-28T10:59:34Z</time>
      </trkpt>
      <trkpt lat="37.5819710" lon="-4.1946950">
        <ele>433.8</ele>
        <time>2021-12-28T10:59:35Z</time>
      </trkpt>
      <trkpt lat="37.5819710" lon="-4.1947200">
        <ele>433.8</ele>
        <time>2021-12-28T10:59:36Z</time>
      </trkpt>
      <trkpt lat="37.5819620" lon="-4.1947460">
        <ele>433.6</ele>
        <time>2021-12-28T10:59:37Z</time>
      </trkpt>
      <trkpt lat="37.5819550" lon="-4.1947720">
        <ele>433.6</ele>
        <time>2021-12-28T10:59:38Z</time>
      </trkpt>
      <trkpt lat="37.5819520" lon="-4.1948020">
        <ele>433.6</ele>
        <time>2021-12-28T10:59:39Z</time>
      </trkpt>
      <trkpt lat="37.5819490" lon="-4.1948330">
        <ele>433.6</ele>
        <time>2021-12-28T10:59:40Z</time>
      </trkpt>
      <trkpt lat="37.5819420" lon="-4.1948630">
        <ele>433.6</ele>
        <time>2021-12-28T10:59:41Z</time>
      </trkpt>
      <trkpt lat="37.5819420" lon="-4.1948900">
        <ele>433.6</ele>
        <time>2021-12-28T10:59:42Z</time>
      </trkpt>
      <trkpt lat="37.5819420" lon="-4.1949150">
        <ele>433.6</ele>
        <time>2021-12-28T10:59:43Z</time>
      </trkpt>
      <trkpt lat="37.5819420" lon="-4.1949420">
        <ele>433.6</ele>
        <time>2021-12-28T10:59:44Z</time>
      </trkpt>
      <trkpt lat="37.5819490" lon="-4.1949670">
        <ele>433.6</ele>
        <time>2021-12-28T10:59:45Z</time>
      </trkpt>
      <trkpt lat="37.5819420" lon="-4.1949940">
        <ele>433.6</ele>
        <time>2021-12-28T10:59:46Z</time>
      </trkpt>
      <trkpt lat="37.5819390" lon="-4.1950200">
        <ele>433.6</ele>
        <time>2021-12-28T10:59:47Z</time>
      </trkpt>
      <trkpt lat="37.5819360" lon="-4.1950450">
        <ele>433.6</ele>
        <time>2021-12-28T10:59:48Z</time>
      </trkpt>
      <trkpt lat="37.5819360" lon="-4.1950680">
        <ele>433.6</ele>
        <time>2021-12-28T10:59:49Z</time>
      </trkpt>
      <trkpt lat="37.5819360" lon="-4.1950680">
        <ele>433.6</ele>
        <time>2021-12-28T10:59:50Z</time>
      </trkpt>
      <trkpt lat="37.5819360" lon="-4.1950950">
        <ele>433.6</ele>
        <time>2021-12-28T10:59:51Z</time>
      </trkpt>
      <trkpt lat="37.5819360" lon="-4.1950950">
        <ele>433.6</ele>
        <time>2021-12-28T10:59:52Z</time>
      </trkpt>
      <trkpt lat="37.5819360" lon="-4.1950950">
        <ele>433.6</ele>
        <time>2021-12-28T10:59:53Z</time>
      </trkpt>
      <trkpt lat="37.5819360" lon="-4.1950950">
        <ele>433.6</ele>
        <time>2021-12-28T10:59:54Z</time>
      </trkpt>
      <trkpt lat="37.5819360" lon="-4.1950950">
        <ele>433.8</ele>
        <time>2021-12-28T10:59:55Z</time>
      </trkpt>
      <trkpt lat="37.5819360" lon="-4.1950950">
        <ele>438.2</ele>
        <time>2021-12-28T11:03:18Z</time>
      </trkpt>
      <trkpt lat="37.5819360" lon="-4.1950950">
        <ele>438.2</ele>
        <time>2021-12-28T11:03:19Z</time>
      </trkpt>
      <trkpt lat="37.5819360" lon="-4.1950950">
        <ele>438.0</ele>
        <time>2021-12-28T11:03:20Z</time>
      </trkpt>
      <trkpt lat="37.5819360" lon="-4.1950950">
        <ele>438.0</ele>
        <time>2021-12-28T11:03:21Z</time>
      </trkpt>
      <trkpt lat="37.5819360" lon="-4.1950950">
        <ele>437.8</ele>
        <time>2021-12-28T11:03:22Z</time>
      </trkpt>
      <trkpt lat="37.5819490" lon="-4.1958620">
        <ele>434.0</ele>
        <time>2021-12-28T11:04:53Z</time>
      </trkpt>
      <trkpt lat="37.5819490" lon="-4.1958620">
        <ele>433.8</ele>
        <time>2021-12-28T11:04:54Z</time>
      </trkpt>
      <trkpt lat="37.5819420" lon="-4.1958930">
        <ele>433.8</ele>
        <time>2021-12-28T11:04:55Z</time>
      </trkpt>
      <trkpt lat="37.5819420" lon="-4.1958930">
        <ele>433.6</ele>
        <time>2021-12-28T11:04:56Z</time>
      </trkpt>
      <trkpt lat="37.5819420" lon="-4.1959180">
        <ele>433.6</ele>
        <time>2021-12-28T11:04:57Z</time>
      </trkpt>
      <trkpt lat="37.5819420" lon="-4.1959180">
        <ele>433.4</ele>
        <time>2021-12-28T11:04:58Z</time>
      </trkpt>
      <trkpt lat="37.5819420" lon="-4.1959180">
        <ele>433.4</ele>
        <time>2021-12-28T11:04:59Z</time>
      </trkpt>
      <trkpt lat="37.5819550" lon="-4.1959450">
        <ele>433.4</ele>
        <time>2021-12-28T11:05:00Z</time>
      </trkpt>
      <trkpt lat="37.5819550" lon="-4.1959450">
        <ele>433.4</ele>
        <time>2021-12-28T11:05:01Z</time>
      </trkpt>
      <trkpt lat="37.5819550" lon="-4.1959450">
        <ele>433.4</ele>
        <time>2021-12-28T11:05:06Z</time>
      </trkpt>
      <trkpt lat="37.5819550" lon="-4.1959450">
        <ele>433.4</ele>
        <time>2021-12-28T11:05:07Z</time>
      </trkpt>
      <trkpt lat="37.5819710" lon="-4.1960380">
        <ele>433.4</ele>
        <time>2021-12-28T11:05:08Z</time>
      </trkpt>
      <trkpt lat="37.5819710" lon="-4.1960380">
        <ele>433.4</ele>
        <time>2021-12-28T11:05:09Z</time>
      </trkpt>
      <trkpt lat="37.5819710" lon="-4.1960380">
        <ele>433.6</ele>
        <time>2021-12-28T11:05:40Z</time>
      </trkpt>
      <trkpt lat="37.5820130" lon="-4.1962480">
        <ele>433.6</ele>
        <time>2021-12-28T11:05:41Z</time>
      </trkpt>
      <trkpt lat="37.5820130" lon="-4.1962480">
        <ele>433.6</ele>
        <time>2021-12-28T11:05:42Z</time>
      </trkpt>
      <trkpt lat="37.5820190" lon="-4.1962750">
        <ele>433.6</ele>
        <time>2021-12-28T11:05:43Z</time>
      </trkpt>
      <trkpt lat="37.5820190" lon="-4.1962750">
        <ele>433.6</ele>
        <time>2021-12-28T11:05:44Z</time>
      </trkpt>
      <trkpt lat="37.5820350" lon="-4.1962970">
        <ele>433.6</ele>
        <time>2021-12-28T11:05:45Z</time>
      </trkpt>
      <trkpt lat="37.5820350" lon="-4.1962970">
        <ele>433.6</ele>
        <time>2021-12-28T11:05:46Z</time>
      </trkpt>
      <trkpt lat="37.5820480" lon="-4.1963170">
        <ele>433.6</ele>
        <time>2021-12-28T11:05:47Z</time>
      </trkpt>
      <trkpt lat="37.5820480" lon="-4.1963170">
        <ele>433.6</ele>
        <time>2021-12-28T11:05:48Z</time>
      </trkpt>
      <trkpt lat="37.5820510" lon="-4.1963440">
        <ele>433.6</ele>
        <time>2021-12-28T11:05:49Z</time>
      </trkpt>
      <trkpt lat="37.5820510" lon="-4.1963440">
        <ele>433.6</ele>
        <time>2021-12-28T11:05:50Z</time>
      </trkpt>
      <trkpt lat="37.5820580" lon="-4.1963650">
        <ele>433.4</ele>
        <time>2021-12-28T11:05:51Z</time>
      </trkpt>
      <trkpt lat="37.5820580" lon="-4.1963650">
        <ele>433.4</ele>
        <time>2021-12-28T11:05:52Z</time>
      </trkpt>
      <trkpt lat="37.5820700" lon="-4.1963900">
        <ele>433.4</ele>
        <time>2021-12-28T11:05:53Z</time>
      </trkpt>
      <trkpt lat="37.5820700" lon="-4.1963900">
        <ele>433.2</ele>
        <time>2021-12-28T11:05:54Z</time>
      </trkpt>
      <trkpt lat="37.5820800" lon="-4.1964180">
        <ele>433.2</ele>
        <time>2021-12-28T11:05:55Z</time>
      </trkpt>
      <trkpt lat="37.5820800" lon="-4.1964180">
        <ele>433.2</ele>
        <time>2021-12-28T11:05:56Z</time>
      </trkpt>
      <trkpt lat="37.5820900" lon="-4.1964440">
        <ele>433.2</ele>
        <time>2021-12-28T11:05:57Z</time>
      </trkpt>
      <trkpt lat="37.5820900" lon="-4.1964440">
        <ele>433.0</ele>
        <time>2021-12-28T11:05:58Z</time>
      </trkpt>
      <trkpt lat="37.5820990" lon="-4.1964680">
        <ele>433.0</ele>
        <time>2021-12-28T11:05:59Z</time>
      </trkpt>
      <trkpt lat="37.5820990" lon="-4.1964680">
        <ele>433.0</ele>
        <time>2021-12-28T11:06:00Z</time>
      </trkpt>
      <trkpt lat="37.5821090" lon="-4.1964960">
        <ele>433.0</ele>
        <time>2021-12-28T11:06:01Z</time>
      </trkpt>
      <trkpt lat="37.5821090" lon="-4.1964960">
        <ele>433.0</ele>
        <time>2021-12-28T11:06:02Z</time>
      </trkpt>
      <trkpt lat="37.5821090" lon="-4.1964960">
        <ele>433.0</ele>
        <time>2021-12-28T11:06:03Z</time>
      </trkpt>
      <trkpt lat="37.5821150" lon="-4.1965260">
        <ele>433.0</ele>
        <time>2021-12-28T11:06:04Z</time>
      </trkpt>
      <trkpt lat="37.5821150" lon="-4.1965260">
        <ele>433.0</ele>
        <time>2021-12-28T11:06:05Z</time>
      </trkpt>
      <trkpt lat="37.5821150" lon="-4.1965260">
        <ele>433.0</ele>
        <time>2021-12-28T11:06:06Z</time>
      </trkpt>
      <trkpt lat="37.5821410" lon="-4.1966920">
        <ele>433.0</ele>
        <time>2021-12-28T11:11:30Z</time>
      </trkpt>
      <trkpt lat="37.5821410" lon="-4.1966920">
        <ele>433.0</ele>
        <time>2021-12-28T11:11:31Z</time>
      </trkpt>
      <trkpt lat="37.5821540" lon="-4.1967270">
        <ele>433.0</ele>
        <time>2021-12-28T11:11:32Z</time>
      </trkpt>
      <trkpt lat="37.5821540" lon="-4.1967270">
        <ele>433.0</ele>
        <time>2021-12-28T11:11:33Z</time>
      </trkpt>
      <trkpt lat="37.5821630" lon="-4.1967650">
        <ele>433.0</ele>
        <time>2021-12-28T11:11:34Z</time>
      </trkpt>
      <trkpt lat="37.5821630" lon="-4.1967650">
        <ele>433.0</ele>
        <time>2021-12-28T11:11:35Z</time>
      </trkpt>
      <trkpt lat="37.5821790" lon="-4.1967970">
        <ele>433.0</ele>
        <time>2021-12-28T11:11:36Z</time>
      </trkpt>
      <trkpt lat="37.5821790" lon="-4.1967970">
        <ele>432.8</ele>
        <time>2021-12-28T11:11:37Z</time>
      </trkpt>
      <trkpt lat="37.5821920" lon="-4.1968200">
        <ele>432.8</ele>
        <time>2021-12-28T11:11:38Z</time>
      </trkpt>
      <trkpt lat="37.5821920" lon="-4.1968200">
        <ele>432.8</ele>
        <time>2021-12-28T11:11:39Z</time>
      </trkpt>
      <trkpt lat="37.5822080" lon="-4.1968480">
        <ele>432.6</ele>
        <time>2021-12-28T11:11:40Z</time>
      </trkpt>
      <trkpt lat="37.5822080" lon="-4.1968480">
        <ele>432.6</ele>
        <time>2021-12-28T11:11:41Z</time>
      </trkpt>
      <trkpt lat="37.5822180" lon="-4.1968730">
        <ele>432.6</ele>
        <time>2021-12-28T11:11:42Z</time>
      </trkpt>
      <trkpt lat="37.5822180" lon="-4.1968730">
        <ele>432.6</ele>
        <time>2021-12-28T11:11:43Z</time>
      </trkpt>
      <trkpt lat="37.5822370" lon="-4.1968930">
        <ele>432.6</ele>
        <time>2021-12-28T11:11:44Z</time>
      </trkpt>
      <trkpt lat="37.5822370" lon="-4.1968930">
        <ele>432.6</ele>
        <time>2021-12-28T11:11:45Z</time>
      </trkpt>
      <trkpt lat="37.5822590" lon="-4.1969120">
        <ele>432.6</ele>
        <time>2021-12-28T11:11:46Z</time>
      </trkpt>
      <trkpt lat="37.5822590" lon="-4.1969120">
        <ele>432.6</ele>
        <time>2021-12-28T11:11:47Z</time>
      </trkpt>
      <trkpt lat="37.5822590" lon="-4.1969120">
        <ele>432.6</ele>
        <time>2021-12-28T11:11:48Z</time>
      </trkpt>
      <trkpt lat="37.5822590" lon="-4.1969120">
        <ele>432.6</ele>
        <time>2021-12-28T11:11:49Z</time>
      </trkpt>
      <trkpt lat="37.5822590" lon="-4.1969120">
        <ele>432.6</ele>
        <time>2021-12-28T11:11:50Z</time>
      </trkpt>
      <trkpt lat="37.5822590" lon="-4.1969120">
        <ele>432.8</ele>
        <time>2021-12-28T11:11:51Z</time>
      </trkpt>
      <trkpt lat="37.5822590" lon="-4.1969120">
        <ele>432.8</ele>
        <time>2021-12-28T11:12:00Z</time>
      </trkpt>
      <trkpt lat="37.5822590" lon="-4.1969120">
        <ele>432.8</ele>
        <time>2021-12-28T11:12:01Z</time>
      </trkpt>
      <trkpt lat="37.5823100" lon="-4.1969850">
        <ele>432.6</ele>
        <time>2021-12-28T11:12:02Z</time>
      </trkpt>
      <trkpt lat="37.5823100" lon="-4.1969850">
        <ele>432.6</ele>
        <time>2021-12-28T11:12:03Z</time>
      </trkpt>
      <trkpt lat="37.5823300" lon="-4.1970200">
        <ele>432.6</ele>
        <time>2021-12-28T11:12:04Z</time>
      </trkpt>
      <trkpt lat="37.5823390" lon="-4.1970400">
        <ele>432.6</ele>
        <time>2021-12-28T11:12:05Z</time>
      </trkpt>
      <trkpt lat="37.5823520" lon="-4.1970620">
        <ele>432.8</ele>
        <time>2021-12-28T11:12:06Z</time>
      </trkpt>
      <trkpt lat="37.5823620" lon="-4.1970870">
        <ele>432.8</ele>
        <time>2021-12-28T11:12:07Z</time>
      </trkpt>
      <trkpt lat="37.5823740" lon="-4.1971140">
        <ele>432.8</ele>
        <time>2021-12-28T11:12:08Z</time>
      </trkpt>
      <trkpt lat="37.5823870" lon="-4.1971450">
        <ele>432.8</ele>
        <time>2021-12-28T11:12:09Z</time>
      </trkpt>
      <trkpt lat="37.5824000" lon="-4.1971760">
        <ele>432.8</ele>
        <time>2021-12-28T11:12:10Z</time>
      </trkpt>
      <trkpt lat="37.5824130" lon="-4.1972060">
        <ele>432.8</ele>
        <time>2021-12-28T11:12:11Z</time>
      </trkpt>
      <trkpt lat="37.5824290" lon="-4.1972320">
        <ele>432.8</ele>
        <time>2021-12-28T11:12:12Z</time>
      </trkpt>
      <trkpt lat="37.5824380" lon="-4.1972550">
        <ele>432.8</ele>
        <time>2021-12-28T11:12:13Z</time>
      </trkpt>
      <trkpt lat="37.5824510" lon="-4.1972820">
        <ele>432.8</ele>
        <time>2021-12-28T11:12:14Z</time>
      </trkpt>
      <trkpt lat="37.5824670" lon="-4.1973080">
        <ele>432.8</ele>
        <time>2021-12-28T11:12:15Z</time>
      </trkpt>
      <trkpt lat="37.5824860" lon="-4.1973370">
        <ele>432.8</ele>
        <time>2021-12-28T11:12:16Z</time>
      </trkpt>
      <trkpt lat="37.5824960" lon="-4.1973670">
        <ele>432.8</ele>
        <time>2021-12-28T11:12:17Z</time>
      </trkpt>
      <trkpt lat="37.5825120" lon="-4.1973970">
        <ele>432.8</ele>
        <time>2021-12-28T11:12:18Z</time>
      </trkpt>
      <trkpt lat="37.5825280" lon="-4.1974240">
        <ele>432.8</ele>
        <time>2021-12-28T11:12:19Z</time>
      </trkpt>
      <trkpt lat="37.5825380" lon="-4.1974580">
        <ele>432.6</ele>
        <time>2021-12-28T11:12:20Z</time>
      </trkpt>
      <trkpt lat="37.5825540" lon="-4.1974920">
        <ele>432.6</ele>
        <time>2021-12-28T11:12:21Z</time>
      </trkpt>
      <trkpt lat="37.5825700" lon="-4.1975230">
        <ele>432.6</ele>
        <time>2021-12-28T11:12:22Z</time>
      </trkpt>
      <trkpt lat="37.5825860" lon="-4.1975530">
        <ele>432.6</ele>
        <time>2021-12-28T11:12:23Z</time>
      </trkpt>
      <trkpt lat="37.5825980" lon="-4.1975830">
        <ele>432.6</ele>
        <time>2021-12-28T11:12:24Z</time>
      </trkpt>
      <trkpt lat="37.5826140" lon="-4.1976080">
        <ele>432.6</ele>
        <time>2021-12-28T11:12:25Z</time>
      </trkpt>
      <trkpt lat="37.5826240" lon="-4.1976370">
        <ele>432.6</ele>
        <time>2021-12-28T11:12:26Z</time>
      </trkpt>
      <trkpt lat="37.5826270" lon="-4.1976650">
        <ele>432.6</ele>
        <time>2021-12-28T11:12:27Z</time>
      </trkpt>
      <trkpt lat="37.5826340" lon="-4.1976950">
        <ele>432.6</ele>
        <time>2021-12-28T11:12:28Z</time>
      </trkpt>
      <trkpt lat="37.5826430" lon="-4.1977250">
        <ele>432.6</ele>
        <time>2021-12-28T11:12:29Z</time>
      </trkpt>
      <trkpt lat="37.5826500" lon="-4.1977500">
        <ele>432.6</ele>
        <time>2021-12-28T11:12:30Z</time>
      </trkpt>
      <trkpt lat="37.5826500" lon="-4.1977500">
        <ele>432.4</ele>
        <time>2021-12-28T11:12:31Z</time>
      </trkpt>
      <trkpt lat="37.5826590" lon="-4.1977770">
        <ele>432.4</ele>
        <time>2021-12-28T11:12:32Z</time>
      </trkpt>
      <trkpt lat="37.5826590" lon="-4.1977770">
        <ele>432.4</ele>
        <time>2021-12-28T11:12:33Z</time>
      </trkpt>
      <trkpt lat="37.5826590" lon="-4.1977770">
        <ele>432.4</ele>
        <time>2021-12-28T11:12:34Z</time>
      </trkpt>
      <trkpt lat="37.5826590" lon="-4.1977770">
        <ele>432.4</ele>
        <time>2021-12-28T11:12:35Z</time>
      </trkpt>
      <trkpt lat="37.5826590" lon="-4.1977770">
        <ele>432.4</ele>
        <time>2021-12-28T11:12:36Z</time>
      </trkpt>
      <trkpt lat="37.5826590" lon="-4.1977770">
        <ele>432.2</ele>
        <time>2021-12-28T11:12:51Z</time>
      </trkpt>
      <trkpt lat="37.5826910" lon="-4.1978600">
        <ele>432.2</ele>
        <time>2021-12-28T11:12:52Z</time>
      </trkpt>
      <trkpt lat="37.5826910" lon="-4.1978600">
        <ele>432.2</ele>
        <time>2021-12-28T11:12:53Z</time>
      </trkpt>
      <trkpt lat="37.5827040" lon="-4.1978860">
        <ele>432.2</ele>
        <time>2021-12-28T11:12:54Z</time>
      </trkpt>
      <trkpt lat="37.5827040" lon="-4.1978860">
        <ele>432.0</ele>
        <time>2021-12-28T11:12:55Z</time>
      </trkpt>
      <trkpt lat="37.5827170" lon="-4.1979130">
        <ele>432.0</ele>
        <time>2021-12-28T11:12:56Z</time>
      </trkpt>
      <trkpt lat="37.5827170" lon="-4.1979130">
        <ele>432.0</ele>
        <time>2021-12-28T11:12:57Z</time>
      </trkpt>
      <trkpt lat="37.5827330" lon="-4.1979400">
        <ele>432.0</ele>
        <time>2021-12-28T11:12:58Z</time>
      </trkpt>
      <trkpt lat="37.5827330" lon="-4.1979400">
        <ele>432.0</ele>
        <time>2021-12-28T11:12:59Z</time>
      </trkpt>
      <trkpt lat="37.5827460" lon="-4.1979680">
        <ele>432.0</ele>
        <time>2021-12-28T11:13:00Z</time>
      </trkpt>
      <trkpt lat="37.5827460" lon="-4.1979680">
        <ele>432.0</ele>
        <time>2021-12-28T11:13:01Z</time>
      </trkpt>
      <trkpt lat="37.5827520" lon="-4.1980030">
        <ele>432.0</ele>
        <time>2021-12-28T11:13:02Z</time>
      </trkpt>
      <trkpt lat="37.5827520" lon="-4.1980030">
        <ele>431.8</ele>
        <time>2021-12-28T11:13:03Z</time>
      </trkpt>
      <trkpt lat="37.5827650" lon="-4.1980280">
        <ele>431.8</ele>
        <time>2021-12-28T11:13:04Z</time>
      </trkpt>
      <trkpt lat="37.5827650" lon="-4.1980280">
        <ele>431.8</ele>
        <time>2021-12-28T11:13:05Z</time>
      </trkpt>
      <trkpt lat="37.5827650" lon="-4.1980280">
        <ele>431.8</ele>
        <time>2021-12-28T11:13:06Z</time>
      </trkpt>
      <trkpt lat="37.5827650" lon="-4.1980280">
        <ele>431.8</ele>
        <time>2021-12-28T11:13:07Z</time>
      </trkpt>
      <trkpt lat="37.5827650" lon="-4.1980280">
        <ele>431.8</ele>
        <time>2021-12-28T11:13:08Z</time>
      </trkpt>
      <trkpt lat="37.5828060" lon="-4.1980650">
        <ele>431.4</ele>
        <time>2021-12-28T11:13:57Z</time>
      </trkpt>
      <trkpt lat="37.5828060" lon="-4.1980650">
        <ele>431.2</ele>
        <time>2021-12-28T11:13:58Z</time>
      </trkpt>
      <trkpt lat="37.5828060" lon="-4.1980650">
        <ele>431.2</ele>
        <time>2021-12-28T11:13:59Z</time>
      </trkpt>
      <trkpt lat="37.5828060" lon="-4.1980650">
        <ele>431.2</ele>
        <time>2021-12-28T11:14:00Z</time>
      </trkpt>
      <trkpt lat="37.5829150" lon="-4.1983300">
        <ele>431.2</ele>
        <time>2021-12-28T11:15:10Z</time>
      </trkpt>
      <trkpt lat="37.5829150" lon="-4.1983300">
        <ele>431.2</ele>
        <time>2021-12-28T11:15:11Z</time>
      </trkpt>
      <trkpt lat="37.5829250" lon="-4.1983520">
        <ele>431.2</ele>
        <time>2021-12-28T11:15:12Z</time>
      </trkpt>
      <trkpt lat="37.5829250" lon="-4.1983520">
        <ele>431.2</ele>
        <time>2021-12-28T11:15:13Z</time>
      </trkpt>
      <trkpt lat="37.5829340" lon="-4.1983720">
        <ele>431.2</ele>
        <time>2021-12-28T11:15:14Z</time>
      </trkpt>
      <trkpt lat="37.5829340" lon="-4.1983720">
        <ele>431.2</ele>
        <time>2021-12-28T11:15:15Z</time>
      </trkpt>
      <trkpt lat="37.5829470" lon="-4.1983920">
        <ele>431.2</ele>
        <time>2021-12-28T11:15:16Z</time>
      </trkpt>
      <trkpt lat="37.5829470" lon="-4.1983920">
        <ele>431.2</ele>
        <time>2021-12-28T11:15:17Z</time>
      </trkpt>
      <trkpt lat="37.5829470" lon="-4.1984170">
        <ele>431.2</ele>
        <time>2021-12-28T11:15:18Z</time>
      </trkpt>
      <trkpt lat="37.5829470" lon="-4.1984170">
        <ele>431.2</ele>
        <time>2021-12-28T11:15:19Z</time>
      </trkpt>
      <trkpt lat="37.5829470" lon="-4.1984170">
        <ele>431.2</ele>
        <time>2021-12-28T11:15:20Z</time>
      </trkpt>
      <trkpt lat="37.5829470" lon="-4.1984480">
        <ele>431.2</ele>
        <time>2021-12-28T11:15:21Z</time>
      </trkpt>
      <trkpt lat="37.5829470" lon="-4.1984480">
        <ele>431.2</ele>
        <time>2021-12-28T11:15:22Z</time>
      </trkpt>
      <trkpt lat="37.5829470" lon="-4.1984480">
        <ele>430.8</ele>
        <time>2021-12-28T11:19:07Z</time>
      </trkpt>
      <trkpt lat="37.5829700" lon="-4.1985480">
        <ele>430.8</ele>
        <time>2021-12-28T11:19:08Z</time>
      </trkpt>
      <trkpt lat="37.5829700" lon="-4.1985480">
        <ele>430.8</ele>
        <time>2021-12-28T11:19:09Z</time>
      </trkpt>
      <trkpt lat="37.5829860" lon="-4.1985780">
        <ele>430.8</ele>
        <time>2021-12-28T11:19:10Z</time>
      </trkpt>
      <trkpt lat="37.5829860" lon="-4.1985780">
        <ele>430.8</ele>
        <time>2021-12-28T11:19:11Z</time>
      </trkpt>
      <trkpt lat="37.5830020" lon="-4.1986030">
        <ele>430.8</ele>
        <time>2021-12-28T11:19:12Z</time>
      </trkpt>
      <trkpt lat="37.5830020" lon="-4.1986030">
        <ele>430.8</ele>
        <time>2021-12-28T11:19:13Z</time>
      </trkpt>
      <trkpt lat="37.5830020" lon="-4.1986030">
        <ele>430.6</ele>
        <time>2021-12-28T11:19:14Z</time>
      </trkpt>
      <trkpt lat="37.5830020" lon="-4.1986030">
        <ele>430.6</ele>
        <time>2021-12-28T11:19:15Z</time>
      </trkpt>
      <trkpt lat="37.5830660" lon="-4.1987070">
        <ele>431.8</ele>
        <time>2021-12-28T11:19:46Z</time>
      </trkpt>
      <trkpt lat="37.5830820" lon="-4.1987380">
        <ele>431.8</ele>
        <time>2021-12-28T11:19:47Z</time>
      </trkpt>
      <trkpt lat="37.5831040" lon="-4.1987730">
        <ele>431.8</ele>
        <time>2021-12-28T11:19:48Z</time>
      </trkpt>
      <trkpt lat="37.5831230" lon="-4.1988140">
        <ele>431.6</ele>
        <time>2021-12-28T11:19:49Z</time>
      </trkpt>
      <trkpt lat="37.5831460" lon="-4.1988580">
        <ele>431.6</ele>
        <time>2021-12-28T11:19:50Z</time>
      </trkpt>
      <trkpt lat="37.5831650" lon="-4.1989000">
        <ele>431.6</ele>
        <time>2021-12-28T11:19:51Z</time>
      </trkpt>
      <trkpt lat="37.5831810" lon="-4.1989350">
        <ele>431.6</ele>
        <time>2021-12-28T11:19:52Z</time>
      </trkpt>
      <trkpt lat="37.5831900" lon="-4.1989700">
        <ele>431.6</ele>
        <time>2021-12-28T11:19:53Z</time>
      </trkpt>
      <trkpt lat="37.5832030" lon="-4.1990050">
        <ele>431.6</ele>
        <time>2021-12-28T11:19:54Z</time>
      </trkpt>
      <trkpt lat="37.5832130" lon="-4.1990430">
        <ele>431.8</ele>
        <time>2021-12-28T11:19:55Z</time>
      </trkpt>
      <trkpt lat="37.5832260" lon="-4.1990820">
        <ele>431.8</ele>
        <time>2021-12-28T11:19:56Z</time>
      </trkpt>
      <trkpt lat="37.5832420" lon="-4.1991180">
        <ele>431.6</ele>
        <time>2021-12-28T11:19:57Z</time>
      </trkpt>
      <trkpt lat="37.5832510" lon="-4.1991540">
        <ele>431.6</ele>
        <time>2021-12-28T11:19:58Z</time>
      </trkpt>
      <trkpt lat="37.5832670" lon="-4.1991900">
        <ele>431.8</ele>
        <time>2021-12-28T11:19:59Z</time>
      </trkpt>
      <trkpt lat="37.5832780" lon="-4.1992470">
        <ele>431.8</ele>
        <time>2021-12-28T11:20:00Z</time>
      </trkpt>
      <trkpt lat="37.5832830" lon="-4.1992660">
        <ele>431.8</ele>
        <time>2021-12-28T11:20:01Z</time>
      </trkpt>
      <trkpt lat="37.5832930" lon="-4.1993050">
        <ele>431.8</ele>
        <time>2021-12-28T11:20:02Z</time>
      </trkpt>
      <trkpt lat="37.5833060" lon="-4.1993380">
        <ele>432.0</ele>
        <time>2021-12-28T11:20:03Z</time>
      </trkpt>
      <trkpt lat="37.5833180" lon="-4.1993700">
        <ele>432.0</ele>
        <time>2021-12-28T11:20:04Z</time>
      </trkpt>
      <trkpt lat="37.5833280" lon="-4.1994000">
        <ele>432.0</ele>
        <time>2021-12-28T11:20:05Z</time>
      </trkpt>
      <trkpt lat="37.5833410" lon="-4.1994280">
        <ele>432.0</ele>
        <time>2021-12-28T11:20:06Z</time>
      </trkpt>
      <trkpt lat="37.5833470" lon="-4.1994620">
        <ele>432.0</ele>
        <time>2021-12-28T11:20:07Z</time>
      </trkpt>
      <trkpt lat="37.5833540" lon="-4.1994940">
        <ele>432.0</ele>
        <time>2021-12-28T11:20:08Z</time>
      </trkpt>
      <trkpt lat="37.5833660" lon="-4.1995250">
        <ele>432.0</ele>
        <time>2021-12-28T11:20:09Z</time>
      </trkpt>
      <trkpt lat="37.5833790" lon="-4.1995620">
        <ele>432.0</ele>
        <time>2021-12-28T11:20:10Z</time>
      </trkpt>
      <trkpt lat="37.5833860" lon="-4.1995970">
        <ele>432.0</ele>
        <time>2021-12-28T11:20:11Z</time>
      </trkpt>
      <trkpt lat="37.5833980" lon="-4.1996350">
        <ele>432.0</ele>
        <time>2021-12-28T11:20:12Z</time>
      </trkpt>
      <trkpt lat="37.5834020" lon="-4.1996780">
        <ele>432.0</ele>
        <time>2021-12-28T11:20:13Z</time>
      </trkpt>
      <trkpt lat="37.5834110" lon="-4.1997150">
        <ele>432.2</ele>
        <time>2021-12-28T11:20:14Z</time>
      </trkpt>
      <trkpt lat="37.5834240" lon="-4.1997550">
        <ele>432.0</ele>
        <time>2021-12-28T11:20:15Z</time>
      </trkpt>
      <trkpt lat="37.5834300" lon="-4.1998020">
        <ele>432.0</ele>
        <time>2021-12-28T11:20:16Z</time>
      </trkpt>
      <trkpt lat="37.5834400" lon="-4.1998450">
        <ele>432.0</ele>
        <time>2021-12-28T11:20:17Z</time>
      </trkpt>
      <trkpt lat="37.5834460" lon="-4.1998880">
        <ele>432.0</ele>
        <time>2021-12-28T11:20:18Z</time>
      </trkpt>
      <trkpt lat="37.5834530" lon="-4.1999280">
        <ele>432.2</ele>
        <time>2021-12-28T11:20:19Z</time>
      </trkpt>
      <trkpt lat="37.5834620" lon="-4.1999720">
        <ele>432.0</ele>
        <time>2021-12-28T11:20:20Z</time>
      </trkpt>
      <trkpt lat="37.5834660" lon="-4.2000130">
        <ele>432.2</ele>
        <time>2021-12-28T11:20:21Z</time>
      </trkpt>
      <trkpt lat="37.5834720" lon="-4.2000550">
        <ele>432.0</ele>
        <time>2021-12-28T11:20:22Z</time>
      </trkpt>
      <trkpt lat="37.5834780" lon="-4.2000950">
        <ele>432.0</ele>
        <time>2021-12-28T11:20:23Z</time>
      </trkpt>
      <trkpt lat="37.5834820" lon="-4.2001380">
        <ele>432.0</ele>
        <time>2021-12-28T11:20:24Z</time>
      </trkpt>
      <trkpt lat="37.5834820" lon="-4.2001830">
        <ele>432.0</ele>
        <time>2021-12-28T11:20:25Z</time>
      </trkpt>
      <trkpt lat="37.5834850" lon="-4.2002250">
        <ele>431.8</ele>
        <time>2021-12-28T11:20:26Z</time>
      </trkpt>
      <trkpt lat="37.5834880" lon="-4.2002650">
        <ele>431.8</ele>
        <time>2021-12-28T11:20:27Z</time>
      </trkpt>
      <trkpt lat="37.5834980" lon="-4.2003080">
        <ele>431.8</ele>
        <time>2021-12-28T11:20:28Z</time>
      </trkpt>
      <trkpt lat="37.5835010" lon="-4.2003560">
        <ele>431.8</ele>
        <time>2021-12-28T11:20:29Z</time>
      </trkpt>
      <trkpt lat="37.5835040" lon="-4.2004080">
        <ele>431.8</ele>
        <time>2021-12-28T11:20:30Z</time>
      </trkpt>
      <trkpt lat="37.5835070" lon="-4.2004620">
        <ele>431.6</ele>
        <time>2021-12-28T11:20:31Z</time>
      </trkpt>
      <trkpt lat="37.5835140" lon="-4.2005130">
        <ele>431.6</ele>
        <time>2021-12-28T11:20:32Z</time>
      </trkpt>
      <trkpt lat="37.5835200" lon="-4.2005720">
        <ele>431.6</ele>
        <time>2021-12-28T11:20:33Z</time>
      </trkpt>
      <trkpt lat="37.5835200" lon="-4.2006340">
        <ele>431.4</ele>
        <time>2021-12-28T11:20:34Z</time>
      </trkpt>
      <trkpt lat="37.5835230" lon="-4.2006980">
        <ele>431.2</ele>
        <time>2021-12-28T11:20:35Z</time>
      </trkpt>
      <trkpt lat="37.5835260" lon="-4.2007660">
        <ele>431.2</ele>
        <time>2021-12-28T11:20:36Z</time>
      </trkpt>
      <trkpt lat="37.5835330" lon="-4.2008330">
        <ele>431.0</ele>
        <time>2021-12-28T11:20:37Z</time>
      </trkpt>
      <trkpt lat="37.5835390" lon="-4.2009020">
        <ele>431.0</ele>
        <time>2021-12-28T11:20:38Z</time>
      </trkpt>
      <trkpt lat="37.5835390" lon="-4.2009700">
        <ele>431.0</ele>
        <time>2021-12-28T11:20:39Z</time>
      </trkpt>
      <trkpt lat="37.5835330" lon="-4.2010400">
        <ele>431.0</ele>
        <time>2021-12-28T11:20:40Z</time>
      </trkpt>
      <trkpt lat="37.5835260" lon="-4.2011100">
        <ele>431.0</ele>
        <time>2021-12-28T11:20:41Z</time>
      </trkpt>
      <trkpt lat="37.5835260" lon="-4.2011800">
        <ele>430.8</ele>
        <time>2021-12-28T11:20:42Z</time>
      </trkpt>
      <trkpt lat="37.5835230" lon="-4.2012520">
        <ele>430.8</ele>
        <time>2021-12-28T11:20:43Z</time>
      </trkpt>
      <trkpt lat="37.5835200" lon="-4.2013220">
        <ele>430.8</ele>
        <time>2021-12-28T11:20:44Z</time>
      </trkpt>
      <trkpt lat="37.5835140" lon="-4.2013920">
        <ele>430.8</ele>
        <time>2021-12-28T11:20:45Z</time>
      </trkpt>
      <trkpt lat="37.5835140" lon="-4.2014600">
        <ele>430.8</ele>
        <time>2021-12-28T11:20:46Z</time>
      </trkpt>
      <trkpt lat="37.5835070" lon="-4.2015270">
        <ele>430.8</ele>
        <time>2021-12-28T11:20:47Z</time>
      </trkpt>
      <trkpt lat="37.5835040" lon="-4.2015930">
        <ele>430.6</ele>
        <time>2021-12-28T11:20:48Z</time>
      </trkpt>
      <trkpt lat="37.5834980" lon="-4.2016620">
        <ele>430.6</ele>
        <time>2021-12-28T11:20:49Z</time>
      </trkpt>
      <trkpt lat="37.5834880" lon="-4.2017280">
        <ele>430.6</ele>
        <time>2021-12-28T11:20:50Z</time>
      </trkpt>
      <trkpt lat="37.5834820" lon="-4.2017930">
        <ele>430.6</ele>
        <time>2021-12-28T11:20:51Z</time>
      </trkpt>
      <trkpt lat="37.5834720" lon="-4.2018600">
        <ele>430.6</ele>
        <time>2021-12-28T11:20:52Z</time>
      </trkpt>
      <trkpt lat="37.5834660" lon="-4.2019270">
        <ele>430.4</ele>
        <time>2021-12-28T11:20:53Z</time>
      </trkpt>
      <trkpt lat="37.5834620" lon="-4.2019940">
        <ele>430.4</ele>
        <time>2021-12-28T11:20:54Z</time>
      </trkpt>
      <trkpt lat="37.5834500" lon="-4.2020640">
        <ele>430.4</ele>
        <time>2021-12-28T11:20:55Z</time>
      </trkpt>
      <trkpt lat="37.5834460" lon="-4.2021350">
        <ele>430.2</ele>
        <time>2021-12-28T11:20:56Z</time>
      </trkpt>
      <trkpt lat="37.5834430" lon="-4.2022070">
        <ele>430.2</ele>
        <time>2021-12-28T11:20:57Z</time>
      </trkpt>
      <trkpt lat="37.5834340" lon="-4.2022800">
        <ele>430.2</ele>
        <time>2021-12-28T11:20:58Z</time>
      </trkpt>
      <trkpt lat="37.5834300" lon="-4.2023520">
        <ele>430.2</ele>
        <time>2021-12-28T11:20:59Z</time>
      </trkpt>
      <trkpt lat="37.5834270" lon="-4.2024220">
        <ele>430.2</ele>
        <time>2021-12-28T11:21:00Z</time>
      </trkpt>
      <trkpt lat="37.5834210" lon="-4.2024950">
        <ele>430.0</ele>
        <time>2021-12-28T11:21:01Z</time>
      </trkpt>
      <trkpt lat="37.5834140" lon="-4.2025680">
        <ele>430.0</ele>
        <time>2021-12-28T11:21:02Z</time>
      </trkpt>
      <trkpt lat="37.5834080" lon="-4.2026430">
        <ele>430.0</ele>
        <time>2021-12-28T11:21:03Z</time>
      </trkpt>
      <trkpt lat="37.5833980" lon="-4.2027180">
        <ele>429.8</ele>
        <time>2021-12-28T11:21:04Z</time>
      </trkpt>
      <trkpt lat="37.5833920" lon="-4.2027950">
        <ele>429.8</ele>
        <time>2021-12-28T11:21:05Z</time>
      </trkpt>
      <trkpt lat="37.5833860" lon="-4.2028680">
        <ele>429.8</ele>
        <time>2021-12-28T11:21:06Z</time>
      </trkpt>
      <trkpt lat="37.5833790" lon="-4.2029450">
        <ele>429.6</ele>
        <time>2021-12-28T11:21:07Z</time>
      </trkpt>
      <trkpt lat="37.5833700" lon="-4.2030250">
        <ele>429.6</ele>
        <time>2021-12-28T11:21:08Z</time>
      </trkpt>
      <trkpt lat="37.5833630" lon="-4.2031020">
        <ele>429.6</ele>
        <time>2021-12-28T11:21:09Z</time>
      </trkpt>
      <trkpt lat="37.5833600" lon="-4.2031760">
        <ele>429.4</ele>
        <time>2021-12-28T11:21:10Z</time>
      </trkpt>
      <trkpt lat="37.5833500" lon="-4.2032550">
        <ele>429.4</ele>
        <time>2021-12-28T11:21:11Z</time>
      </trkpt>
      <trkpt lat="37.5833470" lon="-4.2033320">
        <ele>429.4</ele>
        <time>2021-12-28T11:21:12Z</time>
      </trkpt>
      <trkpt lat="37.5833410" lon="-4.2034080">
        <ele>429.4</ele>
        <time>2021-12-28T11:21:13Z</time>
      </trkpt>
      <trkpt lat="37.5833310" lon="-4.2034860">
        <ele>429.4</ele>
        <time>2021-12-28T11:21:14Z</time>
      </trkpt>
      <trkpt lat="37.5833250" lon="-4.2035650">
        <ele>429.2</ele>
        <time>2021-12-28T11:21:15Z</time>
      </trkpt>
      <trkpt lat="37.5833180" lon="-4.2036450">
        <ele>429.2</ele>
        <time>2021-12-28T11:21:16Z</time>
      </trkpt>
      <trkpt lat="37.5833090" lon="-4.2037250">
        <ele>429.0</ele>
        <time>2021-12-28T11:21:17Z</time>
      </trkpt>
      <trkpt lat="37.5833020" lon="-4.2038070">
        <ele>429.0</ele>
        <time>2021-12-28T11:21:18Z</time>
      </trkpt>
      <trkpt lat="37.5832930" lon="-4.2038880">
        <ele>429.0</ele>
        <time>2021-12-28T11:21:19Z</time>
      </trkpt>
      <trkpt lat="37.5832860" lon="-4.2039750">
        <ele>429.0</ele>
        <time>2021-12-28T11:21:20Z</time>
      </trkpt>
      <trkpt lat="37.5832800" lon="-4.2040570">
        <ele>429.0</ele>
        <time>2021-12-28T11:21:21Z</time>
      </trkpt>
      <trkpt lat="37.5832700" lon="-4.2041400">
        <ele>429.0</ele>
        <time>2021-12-28T11:21:22Z</time>
      </trkpt>
      <trkpt lat="37.5832640" lon="-4.2042230">
        <ele>428.8</ele>
        <time>2021-12-28T11:21:23Z</time>
      </trkpt>
      <trkpt lat="37.5832540" lon="-4.2043070">
        <ele>428.8</ele>
        <time>2021-12-28T11:21:24Z</time>
      </trkpt>
      <trkpt lat="37.5832480" lon="-4.2043880">
        <ele>428.8</ele>
        <time>2021-12-28T11:21:25Z</time>
      </trkpt>
      <trkpt lat="37.5832420" lon="-4.2044670">
        <ele>429.0</ele>
        <time>2021-12-28T11:21:26Z</time>
      </trkpt>
      <trkpt lat="37.5832320" lon="-4.2045430">
        <ele>428.8</ele>
        <time>2021-12-28T11:21:27Z</time>
      </trkpt>
      <trkpt lat="37.5832260" lon="-4.2046200">
        <ele>428.8</ele>
        <time>2021-12-28T11:21:28Z</time>
      </trkpt>
      <trkpt lat="37.5832190" lon="-4.2046950">
        <ele>428.8</ele>
        <time>2021-12-28T11:21:29Z</time>
      </trkpt>
      <trkpt lat="37.5832130" lon="-4.2047680">
        <ele>428.6</ele>
        <time>2021-12-28T11:21:30Z</time>
      </trkpt>
      <trkpt lat="37.5832060" lon="-4.2048400">
        <ele>428.6</ele>
        <time>2021-12-28T11:21:31Z</time>
      </trkpt>
      <trkpt lat="37.5832030" lon="-4.2049100">
        <ele>428.6</ele>
        <time>2021-12-28T11:21:32Z</time>
      </trkpt>
      <trkpt lat="37.5832000" lon="-4.2049800">
        <ele>428.6</ele>
        <time>2021-12-28T11:21:33Z</time>
      </trkpt>
      <trkpt lat="37.5831870" lon="-4.2050520">
        <ele>428.6</ele>
        <time>2021-12-28T11:21:34Z</time>
      </trkpt>
      <trkpt lat="37.5831840" lon="-4.2051240">
        <ele>428.4</ele>
        <time>2021-12-28T11:21:35Z</time>
      </trkpt>
      <trkpt lat="37.5831710" lon="-4.2051980">
        <ele>428.4</ele>
        <time>2021-12-28T11:21:36Z</time>
      </trkpt>
      <trkpt lat="37.5831680" lon="-4.2052730">
        <ele>428.4</ele>
        <time>2021-12-28T11:21:37Z</time>
      </trkpt>
      <trkpt lat="37.5831650" lon="-4.2053460">
        <ele>428.4</ele>
        <time>2021-12-28T11:21:38Z</time>
      </trkpt>
      <trkpt lat="37.5831550" lon="-4.2054200">
        <ele>428.4</ele>
        <time>2021-12-28T11:21:39Z</time>
      </trkpt>
      <trkpt lat="37.5831520" lon="-4.2054920">
        <ele>428.2</ele>
        <time>2021-12-28T11:21:40Z</time>
      </trkpt>
      <trkpt lat="37.5831460" lon="-4.2055600">
        <ele>428.2</ele>
        <time>2021-12-28T11:21:41Z</time>
      </trkpt>
      <trkpt lat="37.5831420" lon="-4.2056280">
        <ele>428.2</ele>
        <time>2021-12-28T11:21:42Z</time>
      </trkpt>
      <trkpt lat="37.5831330" lon="-4.2056950">
        <ele>428.2</ele>
        <time>2021-12-28T11:21:43Z</time>
      </trkpt>
      <trkpt lat="37.5831300" lon="-4.2057600">
        <ele>428.0</ele>
        <time>2021-12-28T11:21:44Z</time>
      </trkpt>
      <trkpt lat="37.5831230" lon="-4.2058220">
        <ele>428.0</ele>
        <time>2021-12-28T11:21:45Z</time>
      </trkpt>
      <trkpt lat="37.5831200" lon="-4.2058850">
        <ele>427.8</ele>
        <time>2021-12-28T11:21:46Z</time>
      </trkpt>
      <trkpt lat="37.5831100" lon="-4.2059460">
        <ele>427.8</ele>
        <time>2021-12-28T11:21:47Z</time>
      </trkpt>
      <trkpt lat="37.5831070" lon="-4.2060060">
        <ele>427.8</ele>
        <time>2021-12-28T11:21:48Z</time>
      </trkpt>
      <trkpt lat="37.5831010" lon="-4.2060650">
        <ele>427.6</ele>
        <time>2021-12-28T11:21:49Z</time>
      </trkpt>
      <trkpt lat="37.5830910" lon="-4.2061250">
        <ele>427.6</ele>
        <time>2021-12-28T11:21:50Z</time>
      </trkpt>
      <trkpt lat="37.5830880" lon="-4.2061850">
        <ele>427.6</ele>
        <time>2021-12-28T11:21:51Z</time>
      </trkpt>
      <trkpt lat="37.5830820" lon="-4.2062440">
        <ele>427.6</ele>
        <time>2021-12-28T11:21:52Z</time>
      </trkpt>
      <trkpt lat="37.5830750" lon="-4.2063030">
        <ele>427.6</ele>
        <time>2021-12-28T11:21:53Z</time>
      </trkpt>
      <trkpt lat="37.5830690" lon="-4.2063600">
        <ele>427.6</ele>
        <time>2021-12-28T11:21:54Z</time>
      </trkpt>
      <trkpt lat="37.5830530" lon="-4.2064060">
        <ele>427.6</ele>
        <time>2021-12-28T11:21:55Z</time>
      </trkpt>
      <trkpt lat="37.5830430" lon="-4.2064520">
        <ele>427.6</ele>
        <time>2021-12-28T11:21:56Z</time>
      </trkpt>
      <trkpt lat="37.5830240" lon="-4.2064950">
        <ele>427.6</ele>
        <time>2021-12-28T11:21:57Z</time>
      </trkpt>
      <trkpt lat="37.5830050" lon="-4.2065370">
        <ele>427.6</ele>
        <time>2021-12-28T11:21:58Z</time>
      </trkpt>
      <trkpt lat="37.5829890" lon="-4.2065780">
        <ele>427.6</ele>
        <time>2021-12-28T11:21:59Z</time>
      </trkpt>
      <trkpt lat="37.5829860" lon="-4.2066200">
        <ele>427.4</ele>
        <time>2021-12-28T11:22:00Z</time>
      </trkpt>
      <trkpt lat="37.5829860" lon="-4.2066580">
        <ele>427.4</ele>
        <time>2021-12-28T11:22:01Z</time>
      </trkpt>
      <trkpt lat="37.5829820" lon="-4.2066900">
        <ele>427.4</ele>
        <time>2021-12-28T11:22:02Z</time>
      </trkpt>
      <trkpt lat="37.5829760" lon="-4.2067120">
        <ele>427.2</ele>
        <time>2021-12-28T11:22:03Z</time>
      </trkpt>
      <trkpt lat="37.5829760" lon="-4.2067120">
        <ele>427.2</ele>
        <time>2021-12-28T11:22:04Z</time>
      </trkpt>
      <trkpt lat="37.5829760" lon="-4.2067120">
        <ele>427.2</ele>
        <time>2021-12-28T11:22:05Z</time>
      </trkpt>
      <trkpt lat="37.5829760" lon="-4.2067120">
        <ele>427.2</ele>
        <time>2021-12-28T11:22:06Z</time>
      </trkpt>
      <trkpt lat="37.5829760" lon="-4.2067120">
        <ele>427.2</ele>
        <time>2021-12-28T11:22:07Z</time>
      </trkpt>
      <trkpt lat="37.5829760" lon="-4.2067120">
        <ele>427.0</ele>
        <time>2021-12-28T11:22:08Z</time>
      </trkpt>
      <trkpt lat="37.5830140" lon="-4.2067750">
        <ele>423.6</ele>
        <time>2021-12-28T11:23:39Z</time>
      </trkpt>
      <trkpt lat="37.5830140" lon="-4.2068100">
        <ele>423.6</ele>
        <time>2021-12-28T11:23:40Z</time>
      </trkpt>
      <trkpt lat="37.5830110" lon="-4.2068480">
        <ele>423.8</ele>
        <time>2021-12-28T11:23:41Z</time>
      </trkpt>
      <trkpt lat="37.5830110" lon="-4.2068920">
        <ele>423.8</ele>
        <time>2021-12-28T11:23:42Z</time>
      </trkpt>
      <trkpt lat="37.5830110" lon="-4.2069380">
        <ele>423.8</ele>
        <time>2021-12-28T11:23:43Z</time>
      </trkpt>
      <trkpt lat="37.5830110" lon="-4.2069850">
        <ele>424.0</ele>
        <time>2021-12-28T11:23:44Z</time>
      </trkpt>
      <trkpt lat="37.5830080" lon="-4.2070320">
        <ele>424.0</ele>
        <time>2021-12-28T11:23:45Z</time>
      </trkpt>
      <trkpt lat="37.5830050" lon="-4.2070800">
        <ele>424.0</ele>
        <time>2021-12-28T11:23:46Z</time>
      </trkpt>
      <trkpt lat="37.5830020" lon="-4.2071320">
        <ele>424.0</ele>
        <time>2021-12-28T11:23:47Z</time>
      </trkpt>
      <trkpt lat="37.5829950" lon="-4.2071880">
        <ele>424.0</ele>
        <time>2021-12-28T11:23:48Z</time>
      </trkpt>
      <trkpt lat="37.5829920" lon="-4.2072440">
        <ele>424.2</ele>
        <time>2021-12-28T11:23:49Z</time>
      </trkpt>
      <trkpt lat="37.5829860" lon="-4.2072980">
        <ele>424.2</ele>
        <time>2021-12-28T11:23:50Z</time>
      </trkpt>
      <trkpt lat="37.5829760" lon="-4.2073550">
        <ele>424.2</ele>
        <time>2021-12-28T11:23:51Z</time>
      </trkpt>
      <trkpt lat="37.5829730" lon="-4.2074120">
        <ele>424.2</ele>
        <time>2021-12-28T11:23:52Z</time>
      </trkpt>
      <trkpt lat="37.5829700" lon="-4.2074650">
        <ele>424.4</ele>
        <time>2021-12-28T11:23:53Z</time>
      </trkpt>
      <trkpt lat="37.5829630" lon="-4.2075150">
        <ele>424.4</ele>
        <time>2021-12-28T11:23:54Z</time>
      </trkpt>
      <trkpt lat="37.5829570" lon="-4.2075680">
        <ele>424.2</ele>
        <time>2021-12-28T11:23:55Z</time>
      </trkpt>
      <trkpt lat="37.5829570" lon="-4.2076180">
        <ele>424.2</ele>
        <time>2021-12-28T11:23:56Z</time>
      </trkpt>
      <trkpt lat="37.5829540" lon="-4.2076620">
        <ele>424.2</ele>
        <time>2021-12-28T11:23:57Z</time>
      </trkpt>
      <trkpt lat="37.5829540" lon="-4.2077000">
        <ele>424.2</ele>
        <time>2021-12-28T11:23:58Z</time>
      </trkpt>
      <trkpt lat="37.5829500" lon="-4.2077380">
        <ele>424.4</ele>
        <time>2021-12-28T11:23:59Z</time>
      </trkpt>
      <trkpt lat="37.5829470" lon="-4.2077760">
        <ele>424.4</ele>
        <time>2021-12-28T11:24:00Z</time>
      </trkpt>
      <trkpt lat="37.5829380" lon="-4.2078170">
        <ele>424.4</ele>
        <time>2021-12-28T11:24:01Z</time>
      </trkpt>
      <trkpt lat="37.5829310" lon="-4.2078550">
        <ele>424.4</ele>
        <time>2021-12-28T11:24:02Z</time>
      </trkpt>
      <trkpt lat="37.5829280" lon="-4.2078950">
        <ele>424.4</ele>
        <time>2021-12-28T11:24:03Z</time>
      </trkpt>
      <trkpt lat="37.5829280" lon="-4.2079370">
        <ele>424.2</ele>
        <time>2021-12-28T11:24:04Z</time>
      </trkpt>
      <trkpt lat="37.5829250" lon="-4.2079780">
        <ele>424.2</ele>
        <time>2021-12-28T11:24:05Z</time>
      </trkpt>
      <trkpt lat="37.5829220" lon="-4.2080220">
        <ele>424.2</ele>
        <time>2021-12-28T11:24:06Z</time>
      </trkpt>
      <trkpt lat="37.5829150" lon="-4.2080630">
        <ele>424.2</ele>
        <time>2021-12-28T11:24:07Z</time>
      </trkpt>
      <trkpt lat="37.5829090" lon="-4.2081050">
        <ele>424.2</ele>
        <time>2021-12-28T11:24:08Z</time>
      </trkpt>
      <trkpt lat="37.5829060" lon="-4.2081500">
        <ele>424.0</ele>
        <time>2021-12-28T11:24:09Z</time>
      </trkpt>
      <trkpt lat="37.5828960" lon="-4.2081970">
        <ele>424.0</ele>
        <time>2021-12-28T11:24:10Z</time>
      </trkpt>
      <trkpt lat="37.5828900" lon="-4.2082470">
        <ele>424.0</ele>
        <time>2021-12-28T11:24:11Z</time>
      </trkpt>
      <trkpt lat="37.5828830" lon="-4.2082980">
        <ele>424.0</ele>
        <time>2021-12-28T11:24:12Z</time>
      </trkpt>
      <trkpt lat="37.5828770" lon="-4.2083520">
        <ele>424.0</ele>
        <time>2021-12-28T11:24:13Z</time>
      </trkpt>
      <trkpt lat="37.5828700" lon="-4.2084030">
        <ele>424.0</ele>
        <time>2021-12-28T11:24:14Z</time>
      </trkpt>
      <trkpt lat="37.5828670" lon="-4.2084550">
        <ele>424.0</ele>
        <time>2021-12-28T11:24:15Z</time>
      </trkpt>
      <trkpt lat="37.5828580" lon="-4.2085030">
        <ele>424.0</ele>
        <time>2021-12-28T11:24:16Z</time>
      </trkpt>
      <trkpt lat="37.5828540" lon="-4.2085500">
        <ele>424.0</ele>
        <time>2021-12-28T11:24:17Z</time>
      </trkpt>
      <trkpt lat="37.5828480" lon="-4.2085980">
        <ele>424.0</ele>
        <time>2021-12-28T11:24:18Z</time>
      </trkpt>
      <trkpt lat="37.5828380" lon="-4.2086470">
        <ele>424.0</ele>
        <time>2021-12-28T11:24:19Z</time>
      </trkpt>
      <trkpt lat="37.5828350" lon="-4.2086920">
        <ele>424.0</ele>
        <time>2021-12-28T11:24:20Z</time>
      </trkpt>
      <trkpt lat="37.5828290" lon="-4.2087350">
        <ele>424.0</ele>
        <time>2021-12-28T11:24:21Z</time>
      </trkpt>
      <trkpt lat="37.5828160" lon="-4.2087760">
        <ele>424.2</ele>
        <time>2021-12-28T11:24:22Z</time>
      </trkpt>
      <trkpt lat="37.5828130" lon="-4.2088160">
        <ele>424.2</ele>
        <time>2021-12-28T11:24:23Z</time>
      </trkpt>
      <trkpt lat="37.5828060" lon="-4.2088580">
        <ele>424.2</ele>
        <time>2021-12-28T11:24:24Z</time>
      </trkpt>
      <trkpt lat="37.5827970" lon="-4.2089000">
        <ele>424.4</ele>
        <time>2021-12-28T11:24:25Z</time>
      </trkpt>
      <trkpt lat="37.5827900" lon="-4.2089400">
        <ele>424.6</ele>
        <time>2021-12-28T11:24:26Z</time>
      </trkpt>
      <trkpt lat="37.5827840" lon="-4.2089800">
        <ele>424.6</ele>
        <time>2021-12-28T11:24:27Z</time>
      </trkpt>
      <trkpt lat="37.5827740" lon="-4.2090180">
        <ele>424.8</ele>
        <time>2021-12-28T11:24:28Z</time>
      </trkpt>
      <trkpt lat="37.5827710" lon="-4.2090600">
        <ele>424.8</ele>
        <time>2021-12-28T11:24:29Z</time>
      </trkpt>
      <trkpt lat="37.5827680" lon="-4.2090980">
        <ele>424.8</ele>
        <time>2021-12-28T11:24:30Z</time>
      </trkpt>
      <trkpt lat="37.5827580" lon="-4.2091380">
        <ele>425.0</ele>
        <time>2021-12-28T11:24:31Z</time>
      </trkpt>
      <trkpt lat="37.5827520" lon="-4.2091820">
        <ele>425.0</ele>
        <time>2021-12-28T11:24:32Z</time>
      </trkpt>
      <trkpt lat="37.5827460" lon="-4.2092230">
        <ele>424.8</ele>
        <time>2021-12-28T11:24:33Z</time>
      </trkpt>
      <trkpt lat="37.5827330" lon="-4.2092670">
        <ele>424.8</ele>
        <time>2021-12-28T11:24:34Z</time>
      </trkpt>
      <trkpt lat="37.5827260" lon="-4.2093120">
        <ele>424.8</ele>
        <time>2021-12-28T11:24:35Z</time>
      </trkpt>
      <trkpt lat="37.5827230" lon="-4.2093570">
        <ele>424.6</ele>
        <time>2021-12-28T11:24:36Z</time>
      </trkpt>
      <trkpt lat="37.5827100" lon="-4.2094000">
        <ele>424.6</ele>
        <time>2021-12-28T11:24:37Z</time>
      </trkpt>
      <trkpt lat="37.5826980" lon="-4.2094420">
        <ele>424.6</ele>
        <time>2021-12-28T11:24:38Z</time>
      </trkpt>
      <trkpt lat="37.5826910" lon="-4.2094860">
        <ele>424.4</ele>
        <time>2021-12-28T11:24:39Z</time>
      </trkpt>
      <trkpt lat="37.5826780" lon="-4.2095330">
        <ele>424.2</ele>
        <time>2021-12-28T11:24:40Z</time>
      </trkpt>
      <trkpt lat="37.5826690" lon="-4.2095800">
        <ele>424.2</ele>
        <time>2021-12-28T11:24:41Z</time>
      </trkpt>
      <trkpt lat="37.5826590" lon="-4.2096230">
        <ele>424.2</ele>
        <time>2021-12-28T11:24:42Z</time>
      </trkpt>
      <trkpt lat="37.5826530" lon="-4.2096650">
        <ele>424.2</ele>
        <time>2021-12-28T11:24:43Z</time>
      </trkpt>
      <trkpt lat="37.5826430" lon="-4.2097120">
        <ele>424.4</ele>
        <time>2021-12-28T11:24:44Z</time>
      </trkpt>
      <trkpt lat="37.5826300" lon="-4.2097570">
        <ele>424.4</ele>
        <time>2021-12-28T11:24:45Z</time>
      </trkpt>
      <trkpt lat="37.5826240" lon="-4.2098030">
        <ele>424.4</ele>
        <time>2021-12-28T11:24:46Z</time>
      </trkpt>
      <trkpt lat="37.5826110" lon="-4.2098450">
        <ele>424.4</ele>
        <time>2021-12-28T11:24:47Z</time>
      </trkpt>
      <trkpt lat="37.5825950" lon="-4.2098880">
        <ele>424.4</ele>
        <time>2021-12-28T11:24:48Z</time>
      </trkpt>
      <trkpt lat="37.5825860" lon="-4.2099350">
        <ele>424.4</ele>
        <time>2021-12-28T11:24:49Z</time>
      </trkpt>
      <trkpt lat="37.5825700" lon="-4.2099830">
        <ele>424.4</ele>
        <time>2021-12-28T11:24:50Z</time>
      </trkpt>
      <trkpt lat="37.5825570" lon="-4.2100320">
        <ele>424.4</ele>
        <time>2021-12-28T11:24:51Z</time>
      </trkpt>
      <trkpt lat="37.5825470" lon="-4.2100750">
        <ele>424.2</ele>
        <time>2021-12-28T11:24:52Z</time>
      </trkpt>
      <trkpt lat="37.5825340" lon="-4.2101180">
        <ele>424.2</ele>
        <time>2021-12-28T11:24:53Z</time>
      </trkpt>
      <trkpt lat="37.5825250" lon="-4.2101620">
        <ele>424.2</ele>
        <time>2021-12-28T11:24:54Z</time>
      </trkpt>
      <trkpt lat="37.5825120" lon="-4.2102080">
        <ele>424.2</ele>
        <time>2021-12-28T11:24:55Z</time>
      </trkpt>
      <trkpt lat="37.5824990" lon="-4.2102550">
        <ele>424.4</ele>
        <time>2021-12-28T11:24:56Z</time>
      </trkpt>
      <trkpt lat="37.5824860" lon="-4.2103020">
        <ele>424.4</ele>
        <time>2021-12-28T11:24:57Z</time>
      </trkpt>
      <trkpt lat="37.5824740" lon="-4.2103480">
        <ele>424.4</ele>
        <time>2021-12-28T11:24:58Z</time>
      </trkpt>
      <trkpt lat="37.5824610" lon="-4.2103940">
        <ele>424.6</ele>
        <time>2021-12-28T11:24:59Z</time>
      </trkpt>
      <trkpt lat="37.5824480" lon="-4.2104380">
        <ele>424.6</ele>
        <time>2021-12-28T11:25:00Z</time>
      </trkpt>
      <trkpt lat="37.5824320" lon="-4.2104820">
        <ele>424.6</ele>
        <time>2021-12-28T11:25:01Z</time>
      </trkpt>
      <trkpt lat="37.5824190" lon="-4.2105250">
        <ele>424.6</ele>
        <time>2021-12-28T11:25:02Z</time>
      </trkpt>
      <trkpt lat="37.5824100" lon="-4.2105680">
        <ele>424.6</ele>
        <time>2021-12-28T11:25:03Z</time>
      </trkpt>
      <trkpt lat="37.5823970" lon="-4.2106120">
        <ele>424.6</ele>
        <time>2021-12-28T11:25:04Z</time>
      </trkpt>
      <trkpt lat="37.5823870" lon="-4.2106550">
        <ele>424.6</ele>
        <time>2021-12-28T11:25:05Z</time>
      </trkpt>
      <trkpt lat="37.5823740" lon="-4.2107020">
        <ele>424.6</ele>
        <time>2021-12-28T11:25:06Z</time>
      </trkpt>
      <trkpt lat="37.5823620" lon="-4.2107440">
        <ele>424.6</ele>
        <time>2021-12-28T11:25:07Z</time>
      </trkpt>
      <trkpt lat="37.5823490" lon="-4.2107870">
        <ele>424.6</ele>
        <time>2021-12-28T11:25:08Z</time>
      </trkpt>
      <trkpt lat="37.5823360" lon="-4.2108300">
        <ele>424.6</ele>
        <time>2021-12-28T11:25:09Z</time>
      </trkpt>
      <trkpt lat="37.5823260" lon="-4.2108750">
        <ele>424.6</ele>
        <time>2021-12-28T11:25:10Z</time>
      </trkpt>
      <trkpt lat="37.5823100" lon="-4.2109220">
        <ele>424.6</ele>
        <time>2021-12-28T11:25:11Z</time>
      </trkpt>
      <trkpt lat="37.5822980" lon="-4.2109660">
        <ele>424.6</ele>
        <time>2021-12-28T11:25:12Z</time>
      </trkpt>
      <trkpt lat="37.5822880" lon="-4.2110100">
        <ele>424.6</ele>
        <time>2021-12-28T11:25:13Z</time>
      </trkpt>
      <trkpt lat="37.5822750" lon="-4.2110550">
        <ele>424.8</ele>
        <time>2021-12-28T11:25:14Z</time>
      </trkpt>
      <trkpt lat="37.5822620" lon="-4.2110970">
        <ele>424.8</ele>
        <time>2021-12-28T11:25:15Z</time>
      </trkpt>
      <trkpt lat="37.5822530" lon="-4.2111350">
        <ele>424.8</ele>
        <time>2021-12-28T11:25:16Z</time>
      </trkpt>
      <trkpt lat="37.5822400" lon="-4.2111700">
        <ele>424.8</ele>
        <time>2021-12-28T11:25:17Z</time>
      </trkpt>
      <trkpt lat="37.5822300" lon="-4.2112050">
        <ele>424.8</ele>
        <time>2021-12-28T11:25:18Z</time>
      </trkpt>
      <trkpt lat="37.5822210" lon="-4.2112380">
        <ele>424.8</ele>
        <time>2021-12-28T11:25:19Z</time>
      </trkpt>
      <trkpt lat="37.5822140" lon="-4.2112680">
        <ele>424.6</ele>
        <time>2021-12-28T11:25:20Z</time>
      </trkpt>
      <trkpt lat="37.5822080" lon="-4.2112960">
        <ele>424.6</ele>
        <time>2021-12-28T11:25:21Z</time>
      </trkpt>
      <trkpt lat="37.5821980" lon="-4.2113220">
        <ele>424.6</ele>
        <time>2021-12-28T11:25:22Z</time>
      </trkpt>
      <trkpt lat="37.5821920" lon="-4.2113450">
        <ele>424.6</ele>
        <time>2021-12-28T11:25:23Z</time>
      </trkpt>
      <trkpt lat="37.5821920" lon="-4.2113450">
        <ele>424.6</ele>
        <time>2021-12-28T11:25:24Z</time>
      </trkpt>
      <trkpt lat="37.5821790" lon="-4.2113880">
        <ele>424.6</ele>
        <time>2021-12-28T11:25:25Z</time>
      </trkpt>
      <trkpt lat="37.5821730" lon="-4.2114100">
        <ele>424.4</ele>
        <time>2021-12-28T11:25:26Z</time>
      </trkpt>
      <trkpt lat="37.5821730" lon="-4.2114100">
        <ele>424.4</ele>
        <time>2021-12-28T11:25:27Z</time>
      </trkpt>
      <trkpt lat="37.5821630" lon="-4.2114540">
        <ele>424.4</ele>
        <time>2021-12-28T11:25:28Z</time>
      </trkpt>
      <trkpt lat="37.5821630" lon="-4.2114540">
        <ele>424.4</ele>
        <time>2021-12-28T11:25:29Z</time>
      </trkpt>
      <trkpt lat="37.5821540" lon="-4.2114880">
        <ele>424.4</ele>
        <time>2021-12-28T11:25:30Z</time>
      </trkpt>
      <trkpt lat="37.5821540" lon="-4.2114880">
        <ele>424.2</ele>
        <time>2021-12-28T11:25:31Z</time>
      </trkpt>
      <trkpt lat="37.5821470" lon="-4.2115200">
        <ele>424.2</ele>
        <time>2021-12-28T11:25:32Z</time>
      </trkpt>
      <trkpt lat="37.5821470" lon="-4.2115200">
        <ele>424.2</ele>
        <time>2021-12-28T11:25:33Z</time>
      </trkpt>
      <trkpt lat="37.5821340" lon="-4.2115540">
        <ele>424.4</ele>
        <time>2021-12-28T11:25:34Z</time>
      </trkpt>
      <trkpt lat="37.5821340" lon="-4.2115540">
        <ele>424.4</ele>
        <time>2021-12-28T11:25:35Z</time>
      </trkpt>
      <trkpt lat="37.5821280" lon="-4.2115860">
        <ele>424.6</ele>
        <time>2021-12-28T11:25:36Z</time>
      </trkpt>
      <trkpt lat="37.5821180" lon="-4.2116060">
        <ele>424.6</ele>
        <time>2021-12-28T11:25:37Z</time>
      </trkpt>
      <trkpt lat="37.5821180" lon="-4.2116060">
        <ele>424.6</ele>
        <time>2021-12-28T11:25:38Z</time>
      </trkpt>
      <trkpt lat="37.5821090" lon="-4.2116500">
        <ele>424.6</ele>
        <time>2021-12-28T11:25:39Z</time>
      </trkpt>
      <trkpt lat="37.5821020" lon="-4.2116750">
        <ele>424.6</ele>
        <time>2021-12-28T11:25:40Z</time>
      </trkpt>
      <trkpt lat="37.5820960" lon="-4.2116970">
        <ele>424.6</ele>
        <time>2021-12-28T11:25:41Z</time>
      </trkpt>
      <trkpt lat="37.5820900" lon="-4.2117200">
        <ele>424.6</ele>
        <time>2021-12-28T11:25:42Z</time>
      </trkpt>
      <trkpt lat="37.5820830" lon="-4.2117430">
        <ele>424.6</ele>
        <time>2021-12-28T11:25:43Z</time>
      </trkpt>
      <trkpt lat="37.5820830" lon="-4.2117430">
        <ele>424.6</ele>
        <time>2021-12-28T11:25:44Z</time>
      </trkpt>
      <trkpt lat="37.5820740" lon="-4.2117820">
        <ele>424.6</ele>
        <time>2021-12-28T11:25:45Z</time>
      </trkpt>
      <trkpt lat="37.5820740" lon="-4.2117820">
        <ele>424.4</ele>
        <time>2021-12-28T11:25:46Z</time>
      </trkpt>
      <trkpt lat="37.5820740" lon="-4.2117820">
        <ele>424.4</ele>
        <time>2021-12-28T11:25:47Z</time>
      </trkpt>
      <trkpt lat="37.5820740" lon="-4.2117820">
        <ele>424.4</ele>
        <time>2021-12-28T11:25:48Z</time>
      </trkpt>
      <trkpt lat="37.5820740" lon="-4.2117820">
        <ele>424.2</ele>
        <time>2021-12-28T11:25:49Z</time>
      </trkpt>
      <trkpt lat="37.5820740" lon="-4.2117820">
        <ele>424.0</ele>
        <time>2021-12-28T11:25:50Z</time>
      </trkpt>
      <trkpt lat="37.5820350" lon="-4.2119200">
        <ele>423.4</ele>
        <time>2021-12-28T11:25:59Z</time>
      </trkpt>
      <trkpt lat="37.5820220" lon="-4.2119430">
        <ele>423.6</ele>
        <time>2021-12-28T11:26:00Z</time>
      </trkpt>
      <trkpt lat="37.5820220" lon="-4.2119430">
        <ele>423.6</ele>
        <time>2021-12-28T11:26:01Z</time>
      </trkpt>
      <trkpt lat="37.5820160" lon="-4.2119880">
        <ele>423.6</ele>
        <time>2021-12-28T11:26:02Z</time>
      </trkpt>
      <trkpt lat="37.5820100" lon="-4.2120130">
        <ele>423.6</ele>
        <time>2021-12-28T11:26:03Z</time>
      </trkpt>
      <trkpt lat="37.5820030" lon="-4.2120370">
        <ele>423.8</ele>
        <time>2021-12-28T11:26:04Z</time>
      </trkpt>
      <trkpt lat="37.5819970" lon="-4.2120620">
        <ele>423.8</ele>
        <time>2021-12-28T11:26:05Z</time>
      </trkpt>
      <trkpt lat="37.5819900" lon="-4.2120880">
        <ele>423.8</ele>
        <time>2021-12-28T11:26:06Z</time>
      </trkpt>
      <trkpt lat="37.5819810" lon="-4.2121130">
        <ele>423.8</ele>
        <time>2021-12-28T11:26:07Z</time>
      </trkpt>
      <trkpt lat="37.5819710" lon="-4.2121420">
        <ele>424.0</ele>
        <time>2021-12-28T11:26:08Z</time>
      </trkpt>
      <trkpt lat="37.5819620" lon="-4.2121720">
        <ele>424.0</ele>
        <time>2021-12-28T11:26:09Z</time>
      </trkpt>
      <trkpt lat="37.5819550" lon="-4.2122040">
        <ele>424.0</ele>
        <time>2021-12-28T11:26:10Z</time>
      </trkpt>
      <trkpt lat="37.5819490" lon="-4.2122340">
        <ele>424.2</ele>
        <time>2021-12-28T11:26:11Z</time>
      </trkpt>
      <trkpt lat="37.5819420" lon="-4.2122600">
        <ele>424.2</ele>
        <time>2021-12-28T11:26:12Z</time>
      </trkpt>
      <trkpt lat="37.5819360" lon="-4.2122900">
        <ele>424.2</ele>
        <time>2021-12-28T11:26:13Z</time>
      </trkpt>
      <trkpt lat="37.5819300" lon="-4.2123180">
        <ele>424.2</ele>
        <time>2021-12-28T11:26:14Z</time>
      </trkpt>
      <trkpt lat="37.5819170" lon="-4.2123520">
        <ele>424.0</ele>
        <time>2021-12-28T11:26:15Z</time>
      </trkpt>
      <trkpt lat="37.5819100" lon="-4.2123870">
        <ele>424.0</ele>
        <time>2021-12-28T11:26:16Z</time>
      </trkpt>
      <trkpt lat="37.5818980" lon="-4.2124230">
        <ele>424.0</ele>
        <time>2021-12-28T11:26:17Z</time>
      </trkpt>
      <trkpt lat="37.5818850" lon="-4.2124620">
        <ele>423.8</ele>
        <time>2021-12-28T11:26:18Z</time>
      </trkpt>
      <trkpt lat="37.5818750" lon="-4.2125000">
        <ele>423.8</ele>
        <time>2021-12-28T11:26:19Z</time>
      </trkpt>
      <trkpt lat="37.5818620" lon="-4.2125420">
        <ele>423.6</ele>
        <time>2021-12-28T11:26:20Z</time>
      </trkpt>
      <trkpt lat="37.5818530" lon="-4.2125850">
        <ele>423.6</ele>
        <time>2021-12-28T11:26:21Z</time>
      </trkpt>
      <trkpt lat="37.5818370" lon="-4.2126260">
        <ele>423.6</ele>
        <time>2021-12-28T11:26:22Z</time>
      </trkpt>
      <trkpt lat="37.5818240" lon="-4.2126700">
        <ele>423.4</ele>
        <time>2021-12-28T11:26:23Z</time>
      </trkpt>
      <trkpt lat="37.5818140" lon="-4.2127120">
        <ele>423.4</ele>
        <time>2021-12-28T11:26:24Z</time>
      </trkpt>
      <trkpt lat="37.5818020" lon="-4.2127520">
        <ele>423.4</ele>
        <time>2021-12-28T11:26:25Z</time>
      </trkpt>
      <trkpt lat="37.5817920" lon="-4.2127920">
        <ele>423.4</ele>
        <time>2021-12-28T11:26:26Z</time>
      </trkpt>
      <trkpt lat="37.5817760" lon="-4.2128350">
        <ele>423.4</ele>
        <time>2021-12-28T11:26:27Z</time>
      </trkpt>
      <trkpt lat="37.5817630" lon="-4.2128750">
        <ele>423.4</ele>
        <time>2021-12-28T11:26:28Z</time>
      </trkpt>
      <trkpt lat="37.5817540" lon="-4.2129170">
        <ele>423.4</ele>
        <time>2021-12-28T11:26:29Z</time>
      </trkpt>
      <trkpt lat="37.5817410" lon="-4.2129550">
        <ele>423.4</ele>
        <time>2021-12-28T11:26:30Z</time>
      </trkpt>
      <trkpt lat="37.5817310" lon="-4.2129930">
        <ele>423.4</ele>
        <time>2021-12-28T11:26:31Z</time>
      </trkpt>
      <trkpt lat="37.5817180" lon="-4.2130350">
        <ele>423.4</ele>
        <time>2021-12-28T11:26:32Z</time>
      </trkpt>
      <trkpt lat="37.5817060" lon="-4.2130730">
        <ele>423.4</ele>
        <time>2021-12-28T11:26:33Z</time>
      </trkpt>
      <trkpt lat="37.5816960" lon="-4.2131070">
        <ele>423.4</ele>
        <time>2021-12-28T11:26:34Z</time>
      </trkpt>
      <trkpt lat="37.5816800" lon="-4.2131450">
        <ele>423.4</ele>
        <time>2021-12-28T11:26:35Z</time>
      </trkpt>
      <trkpt lat="37.5816640" lon="-4.2131840">
        <ele>423.4</ele>
        <time>2021-12-28T11:26:36Z</time>
      </trkpt>
      <trkpt lat="37.5816510" lon="-4.2132220">
        <ele>423.4</ele>
        <time>2021-12-28T11:26:37Z</time>
      </trkpt>
      <trkpt lat="37.5816380" lon="-4.2132600">
        <ele>423.2</ele>
        <time>2021-12-28T11:26:38Z</time>
      </trkpt>
      <trkpt lat="37.5816220" lon="-4.2133000">
        <ele>423.2</ele>
        <time>2021-12-28T11:26:39Z</time>
      </trkpt>
      <trkpt lat="37.5816060" lon="-4.2133400">
        <ele>423.2</ele>
        <time>2021-12-28T11:26:40Z</time>
      </trkpt>
      <trkpt lat="37.5815940" lon="-4.2133780">
        <ele>423.4</ele>
        <time>2021-12-28T11:26:41Z</time>
      </trkpt>
      <trkpt lat="37.5815810" lon="-4.2134150">
        <ele>423.4</ele>
        <time>2021-12-28T11:26:42Z</time>
      </trkpt>
      <trkpt lat="37.5815710" lon="-4.2134520">
        <ele>423.6</ele>
        <time>2021-12-28T11:26:43Z</time>
      </trkpt>
      <trkpt lat="37.5815550" lon="-4.2134870">
        <ele>423.6</ele>
        <time>2021-12-28T11:26:44Z</time>
      </trkpt>
      <trkpt lat="37.5815420" lon="-4.2135220">
        <ele>423.8</ele>
        <time>2021-12-28T11:26:45Z</time>
      </trkpt>
      <trkpt lat="37.5815260" lon="-4.2135570">
        <ele>423.8</ele>
        <time>2021-12-28T11:26:46Z</time>
      </trkpt>
      <trkpt lat="37.5815140" lon="-4.2135900">
        <ele>423.8</ele>
        <time>2021-12-28T11:26:47Z</time>
      </trkpt>
      <trkpt lat="37.5815010" lon="-4.2136240">
        <ele>423.8</ele>
        <time>2021-12-28T11:26:48Z</time>
      </trkpt>
      <trkpt lat="37.5814850" lon="-4.2136550">
        <ele>423.8</ele>
        <time>2021-12-28T11:26:49Z</time>
      </trkpt>
      <trkpt lat="37.5814720" lon="-4.2136860">
        <ele>423.8</ele>
        <time>2021-12-28T11:26:50Z</time>
      </trkpt>
      <trkpt lat="37.5814560" lon="-4.2137150">
        <ele>424.0</ele>
        <time>2021-12-28T11:26:51Z</time>
      </trkpt>
      <trkpt lat="37.5814400" lon="-4.2137480">
        <ele>424.0</ele>
        <time>2021-12-28T11:26:52Z</time>
      </trkpt>
      <trkpt lat="37.5814210" lon="-4.2137820">
        <ele>424.0</ele>
        <time>2021-12-28T11:26:53Z</time>
      </trkpt>
      <trkpt lat="37.5814050" lon="-4.2138150">
        <ele>424.0</ele>
        <time>2021-12-28T11:26:54Z</time>
      </trkpt>
      <trkpt lat="37.5813860" lon="-4.2138480">
        <ele>424.2</ele>
        <time>2021-12-28T11:26:55Z</time>
      </trkpt>
      <trkpt lat="37.5813730" lon="-4.2138780">
        <ele>424.2</ele>
        <time>2021-12-28T11:26:56Z</time>
      </trkpt>
      <trkpt lat="37.5813600" lon="-4.2139070">
        <ele>424.2</ele>
        <time>2021-12-28T11:26:57Z</time>
      </trkpt>
      <trkpt lat="37.5813470" lon="-4.2139300">
        <ele>424.2</ele>
        <time>2021-12-28T11:26:58Z</time>
      </trkpt>
      <trkpt lat="37.5813470" lon="-4.2139300">
        <ele>424.2</ele>
        <time>2021-12-28T11:26:59Z</time>
      </trkpt>
      <trkpt lat="37.5813250" lon="-4.2139670">
        <ele>424.2</ele>
        <time>2021-12-28T11:27:00Z</time>
      </trkpt>
      <trkpt lat="37.5813150" lon="-4.2139880">
        <ele>424.2</ele>
        <time>2021-12-28T11:27:01Z</time>
      </trkpt>
      <trkpt lat="37.5813020" lon="-4.2140100">
        <ele>424.2</ele>
        <time>2021-12-28T11:27:02Z</time>
      </trkpt>
      <trkpt lat="37.5812900" lon="-4.2140300">
        <ele>424.2</ele>
        <time>2021-12-28T11:27:03Z</time>
      </trkpt>
      <trkpt lat="37.5812800" lon="-4.2140520">
        <ele>424.2</ele>
        <time>2021-12-28T11:27:04Z</time>
      </trkpt>
      <trkpt lat="37.5812640" lon="-4.2140720">
        <ele>424.2</ele>
        <time>2021-12-28T11:27:05Z</time>
      </trkpt>
      <trkpt lat="37.5812480" lon="-4.2140960">
        <ele>424.2</ele>
        <time>2021-12-28T11:27:06Z</time>
      </trkpt>
      <trkpt lat="37.5812350" lon="-4.2141200">
        <ele>424.2</ele>
        <time>2021-12-28T11:27:07Z</time>
      </trkpt>
      <trkpt lat="37.5812220" lon="-4.2141450">
        <ele>424.2</ele>
        <time>2021-12-28T11:27:08Z</time>
      </trkpt>
      <trkpt lat="37.5812060" lon="-4.2141700">
        <ele>424.2</ele>
        <time>2021-12-28T11:27:09Z</time>
      </trkpt>
      <trkpt lat="37.5811970" lon="-4.2141900">
        <ele>424.2</ele>
        <time>2021-12-28T11:27:10Z</time>
      </trkpt>
      <trkpt lat="37.5811780" lon="-4.2142120">
        <ele>424.2</ele>
        <time>2021-12-28T11:27:11Z</time>
      </trkpt>
      <trkpt lat="37.5811620" lon="-4.2142350">
        <ele>424.2</ele>
        <time>2021-12-28T11:27:12Z</time>
      </trkpt>
      <trkpt lat="37.5811490" lon="-4.2142580">
        <ele>424.4</ele>
        <time>2021-12-28T11:27:13Z</time>
      </trkpt>
      <trkpt lat="37.5811420" lon="-4.2142820">
        <ele>424.4</ele>
        <time>2021-12-28T11:27:14Z</time>
      </trkpt>
      <trkpt lat="37.5811420" lon="-4.2142820">
        <ele>424.4</ele>
        <time>2021-12-28T11:27:15Z</time>
      </trkpt>
      <trkpt lat="37.5811200" lon="-4.2143180">
        <ele>424.4</ele>
        <time>2021-12-28T11:27:16Z</time>
      </trkpt>
      <trkpt lat="37.5811040" lon="-4.2143440">
        <ele>424.6</ele>
        <time>2021-12-28T11:27:17Z</time>
      </trkpt>
      <trkpt lat="37.5810850" lon="-4.2143660">
        <ele>424.6</ele>
        <time>2021-12-28T11:27:18Z</time>
      </trkpt>
      <trkpt lat="37.5810750" lon="-4.2143920">
        <ele>424.4</ele>
        <time>2021-12-28T11:27:19Z</time>
      </trkpt>
      <trkpt lat="37.5810620" lon="-4.2144130">
        <ele>424.4</ele>
        <time>2021-12-28T11:27:20Z</time>
      </trkpt>
      <trkpt lat="37.5810430" lon="-4.2144360">
        <ele>424.4</ele>
        <time>2021-12-28T11:27:21Z</time>
      </trkpt>
      <trkpt lat="37.5810270" lon="-4.2144600">
        <ele>424.4</ele>
        <time>2021-12-28T11:27:22Z</time>
      </trkpt>
      <trkpt lat="37.5810080" lon="-4.2144860">
        <ele>424.4</ele>
        <time>2021-12-28T11:27:23Z</time>
      </trkpt>
      <trkpt lat="37.5809890" lon="-4.2145170">
        <ele>424.4</ele>
        <time>2021-12-28T11:27:24Z</time>
      </trkpt>
      <trkpt lat="37.5809700" lon="-4.2145480">
        <ele>424.6</ele>
        <time>2021-12-28T11:27:25Z</time>
      </trkpt>
      <trkpt lat="37.5809500" lon="-4.2145770">
        <ele>424.6</ele>
        <time>2021-12-28T11:27:26Z</time>
      </trkpt>
      <trkpt lat="37.5809380" lon="-4.2146080">
        <ele>424.6</ele>
        <time>2021-12-28T11:27:27Z</time>
      </trkpt>
      <trkpt lat="37.5809120" lon="-4.2146380">
        <ele>424.4</ele>
        <time>2021-12-28T11:27:28Z</time>
      </trkpt>
      <trkpt lat="37.5808960" lon="-4.2146700">
        <ele>424.4</ele>
        <time>2021-12-28T11:27:29Z</time>
      </trkpt>
      <trkpt lat="37.5808700" lon="-4.2146980">
        <ele>424.4</ele>
        <time>2021-12-28T11:27:30Z</time>
      </trkpt>
      <trkpt lat="37.5808480" lon="-4.2147260">
        <ele>424.6</ele>
        <time>2021-12-28T11:27:31Z</time>
      </trkpt>
      <trkpt lat="37.5808290" lon="-4.2147530">
        <ele>424.6</ele>
        <time>2021-12-28T11:27:32Z</time>
      </trkpt>
      <trkpt lat="37.5808060" lon="-4.2147820">
        <ele>424.6</ele>
        <time>2021-12-28T11:27:33Z</time>
      </trkpt>
      <trkpt lat="37.5807840" lon="-4.2148050">
        <ele>424.6</ele>
        <time>2021-12-28T11:27:34Z</time>
      </trkpt>
      <trkpt lat="37.5807650" lon="-4.2148260">
        <ele>424.6</ele>
        <time>2021-12-28T11:27:35Z</time>
      </trkpt>
      <trkpt lat="37.5807390" lon="-4.2148480">
        <ele>424.6</ele>
        <time>2021-12-28T11:27:36Z</time>
      </trkpt>
      <trkpt lat="37.5807100" lon="-4.2148750">
        <ele>424.8</ele>
        <time>2021-12-28T11:27:37Z</time>
      </trkpt>
      <trkpt lat="37.5806880" lon="-4.2149030">
        <ele>424.8</ele>
        <time>2021-12-28T11:27:38Z</time>
      </trkpt>
      <trkpt lat="37.5806620" lon="-4.2149320">
        <ele>424.8</ele>
        <time>2021-12-28T11:27:39Z</time>
      </trkpt>
      <trkpt lat="37.5806340" lon="-4.2149570">
        <ele>424.8</ele>
        <time>2021-12-28T11:27:40Z</time>
      </trkpt>
      <trkpt lat="37.5806050" lon="-4.2149850">
        <ele>425.0</ele>
        <time>2021-12-28T11:27:41Z</time>
      </trkpt>
      <trkpt lat="37.5805790" lon="-4.2150100">
        <ele>425.0</ele>
        <time>2021-12-28T11:27:42Z</time>
      </trkpt>
      <trkpt lat="37.5805470" lon="-4.2150400">
        <ele>425.0</ele>
        <time>2021-12-28T11:27:43Z</time>
      </trkpt>
      <trkpt lat="37.5805220" lon="-4.2150680">
        <ele>425.0</ele>
        <time>2021-12-28T11:27:44Z</time>
      </trkpt>
      <trkpt lat="37.5804930" lon="-4.2150960">
        <ele>425.0</ele>
        <time>2021-12-28T11:27:45Z</time>
      </trkpt>
      <trkpt lat="37.5804640" lon="-4.2151220">
        <ele>425.2</ele>
        <time>2021-12-28T11:27:46Z</time>
      </trkpt>
      <trkpt lat="37.5804350" lon="-4.2151460">
        <ele>425.2</ele>
        <time>2021-12-28T11:27:47Z</time>
      </trkpt>
      <trkpt lat="37.5804060" lon="-4.2151720">
        <ele>425.2</ele>
        <time>2021-12-28T11:27:48Z</time>
      </trkpt>
      <trkpt lat="37.5803810" lon="-4.2151980">
        <ele>425.2</ele>
        <time>2021-12-28T11:27:49Z</time>
      </trkpt>
      <trkpt lat="37.5803520" lon="-4.2152270">
        <ele>425.0</ele>
        <time>2021-12-28T11:27:50Z</time>
      </trkpt>
      <trkpt lat="37.5803230" lon="-4.2152530">
        <ele>425.0</ele>
        <time>2021-12-28T11:27:51Z</time>
      </trkpt>
      <trkpt lat="37.5802940" lon="-4.2152780">
        <ele>425.0</ele>
        <time>2021-12-28T11:27:52Z</time>
      </trkpt>
      <trkpt lat="37.5802660" lon="-4.2153040">
        <ele>425.0</ele>
        <time>2021-12-28T11:27:53Z</time>
      </trkpt>
      <trkpt lat="37.5802340" lon="-4.2153280">
        <ele>425.0</ele>
        <time>2021-12-28T11:27:54Z</time>
      </trkpt>
      <trkpt lat="37.5802050" lon="-4.2153520">
        <ele>425.0</ele>
        <time>2021-12-28T11:27:55Z</time>
      </trkpt>
      <trkpt lat="37.5801700" lon="-4.2153780">
        <ele>425.0</ele>
        <time>2021-12-28T11:27:56Z</time>
      </trkpt>
      <trkpt lat="37.5801340" lon="-4.2154050">
        <ele>425.0</ele>
        <time>2021-12-28T11:27:57Z</time>
      </trkpt>
      <trkpt lat="37.5800960" lon="-4.2154280">
        <ele>425.0</ele>
        <time>2021-12-28T11:27:58Z</time>
      </trkpt>
      <trkpt lat="37.5800640" lon="-4.2154480">
        <ele>425.2</ele>
        <time>2021-12-28T11:27:59Z</time>
      </trkpt>
      <trkpt lat="37.5800260" lon="-4.2154720">
        <ele>425.2</ele>
        <time>2021-12-28T11:28:00Z</time>
      </trkpt>
      <trkpt lat="37.5799900" lon="-4.2154930">
        <ele>425.4</ele>
        <time>2021-12-28T11:28:01Z</time>
      </trkpt>
      <trkpt lat="37.5799550" lon="-4.2155160">
        <ele>425.4</ele>
        <time>2021-12-28T11:28:02Z</time>
      </trkpt>
      <trkpt lat="37.5799230" lon="-4.2155380">
        <ele>425.4</ele>
        <time>2021-12-28T11:28:03Z</time>
      </trkpt>
      <trkpt lat="37.5798850" lon="-4.2155580">
        <ele>425.6</ele>
        <time>2021-12-28T11:28:04Z</time>
      </trkpt>
      <trkpt lat="37.5798500" lon="-4.2155730">
        <ele>425.6</ele>
        <time>2021-12-28T11:28:05Z</time>
      </trkpt>
      <trkpt lat="37.5798140" lon="-4.2155880">
        <ele>425.8</ele>
        <time>2021-12-28T11:28:06Z</time>
      </trkpt>
      <trkpt lat="37.5797860" lon="-4.2156020">
        <ele>425.8</ele>
        <time>2021-12-28T11:28:07Z</time>
      </trkpt>
      <trkpt lat="37.5797500" lon="-4.2156170">
        <ele>426.0</ele>
        <time>2021-12-28T11:28:08Z</time>
      </trkpt>
      <trkpt lat="37.5797250" lon="-4.2156320">
        <ele>426.0</ele>
        <time>2021-12-28T11:28:09Z</time>
      </trkpt>
      <trkpt lat="37.5796930" lon="-4.2156470">
        <ele>426.0</ele>
        <time>2021-12-28T11:28:10Z</time>
      </trkpt>
      <trkpt lat="37.5796610" lon="-4.2156600">
        <ele>426.0</ele>
        <time>2021-12-28T11:28:11Z</time>
      </trkpt>
      <trkpt lat="37.5796350" lon="-4.2156750">
        <ele>426.0</ele>
        <time>2021-12-28T11:28:12Z</time>
      </trkpt>
      <trkpt lat="37.5796100" lon="-4.2156920">
        <ele>425.8</ele>
        <time>2021-12-28T11:28:13Z</time>
      </trkpt>
      <trkpt lat="37.5795810" lon="-4.2157070">
        <ele>426.0</ele>
        <time>2021-12-28T11:28:14Z</time>
      </trkpt>
      <trkpt lat="37.5795620" lon="-4.2157200">
        <ele>426.0</ele>
        <time>2021-12-28T11:28:15Z</time>
      </trkpt>
      <trkpt lat="37.5795390" lon="-4.2157280">
        <ele>426.0</ele>
        <time>2021-12-28T11:28:16Z</time>
      </trkpt>
      <trkpt lat="37.5795200" lon="-4.2157370">
        <ele>426.0</ele>
        <time>2021-12-28T11:28:17Z</time>
      </trkpt>
      <trkpt lat="37.5795010" lon="-4.2157420">
        <ele>426.2</ele>
        <time>2021-12-28T11:28:18Z</time>
      </trkpt>
      <trkpt lat="37.5795010" lon="-4.2157420">
        <ele>426.2</ele>
        <time>2021-12-28T11:28:19Z</time>
      </trkpt>
      <trkpt lat="37.5794690" lon="-4.2157580">
        <ele>426.2</ele>
        <time>2021-12-28T11:28:20Z</time>
      </trkpt>
      <trkpt lat="37.5794500" lon="-4.2157680">
        <ele>426.2</ele>
        <time>2021-12-28T11:28:21Z</time>
      </trkpt>
      <trkpt lat="37.5794500" lon="-4.2157680">
        <ele>426.2</ele>
        <time>2021-12-28T11:28:22Z</time>
      </trkpt>
      <trkpt lat="37.5794180" lon="-4.2157830">
        <ele>426.2</ele>
        <time>2021-12-28T11:28:23Z</time>
      </trkpt>
      <trkpt lat="37.5793950" lon="-4.2157880">
        <ele>426.2</ele>
        <time>2021-12-28T11:28:24Z</time>
      </trkpt>
      <trkpt lat="37.5793760" lon="-4.2157950">
        <ele>426.2</ele>
        <time>2021-12-28T11:28:25Z</time>
      </trkpt>
      <trkpt lat="37.5793760" lon="-4.2157950">
        <ele>426.2</ele>
        <time>2021-12-28T11:28:26Z</time>
      </trkpt>
      <trkpt lat="37.5793470" lon="-4.2158150">
        <ele>426.2</ele>
        <time>2021-12-28T11:28:27Z</time>
      </trkpt>
      <trkpt lat="37.5793470" lon="-4.2158150">
        <ele>426.2</ele>
        <time>2021-12-28T11:28:28Z</time>
      </trkpt>
      <trkpt lat="37.5793180" lon="-4.2158250">
        <ele>426.4</ele>
        <time>2021-12-28T11:28:29Z</time>
      </trkpt>
      <trkpt lat="37.5792990" lon="-4.2158280">
        <ele>426.4</ele>
        <time>2021-12-28T11:28:30Z</time>
      </trkpt>
      <trkpt lat="37.5792990" lon="-4.2158280">
        <ele>426.4</ele>
        <time>2021-12-28T11:28:31Z</time>
      </trkpt>
      <trkpt lat="37.5792740" lon="-4.2158380">
        <ele>426.4</ele>
        <time>2021-12-28T11:28:32Z</time>
      </trkpt>
      <trkpt lat="37.5792740" lon="-4.2158380">
        <ele>426.4</ele>
        <time>2021-12-28T11:28:33Z</time>
      </trkpt>
      <trkpt lat="37.5792740" lon="-4.2158380">
        <ele>426.4</ele>
        <time>2021-12-28T11:28:34Z</time>
      </trkpt>
      <trkpt lat="37.5792740" lon="-4.2158380">
        <ele>426.4</ele>
        <time>2021-12-28T11:28:35Z</time>
      </trkpt>
      <trkpt lat="37.5792740" lon="-4.2158380">
        <ele>426.4</ele>
        <time>2021-12-28T11:28:36Z</time>
      </trkpt>
      <trkpt lat="37.5792740" lon="-4.2158380">
        <ele>426.6</ele>
        <time>2021-12-28T11:28:37Z</time>
      </trkpt>
      <trkpt lat="37.5791520" lon="-4.2158800">
        <ele>429.0</ele>
        <time>2021-12-28T11:29:13Z</time>
      </trkpt>
      <trkpt lat="37.5791230" lon="-4.2158880">
        <ele>429.0</ele>
        <time>2021-12-28T11:29:14Z</time>
      </trkpt>
      <trkpt lat="37.5791010" lon="-4.2158970">
        <ele>429.0</ele>
        <time>2021-12-28T11:29:15Z</time>
      </trkpt>
      <trkpt lat="37.5790720" lon="-4.2159070">
        <ele>429.2</ele>
        <time>2021-12-28T11:29:16Z</time>
      </trkpt>
      <trkpt lat="37.5790430" lon="-4.2159130">
        <ele>429.2</ele>
        <time>2021-12-28T11:29:17Z</time>
      </trkpt>
      <trkpt lat="37.5790210" lon="-4.2159220">
        <ele>429.2</ele>
        <time>2021-12-28T11:29:18Z</time>
      </trkpt>
      <trkpt lat="37.5790020" lon="-4.2159300">
        <ele>429.2</ele>
        <time>2021-12-28T11:29:19Z</time>
      </trkpt>
      <trkpt lat="37.5789820" lon="-4.2159380">
        <ele>429.2</ele>
        <time>2021-12-28T11:29:20Z</time>
      </trkpt>
      <trkpt lat="37.5789630" lon="-4.2159470">
        <ele>429.2</ele>
        <time>2021-12-28T11:29:21Z</time>
      </trkpt>
      <trkpt lat="37.5789440" lon="-4.2159570">
        <ele>429.2</ele>
        <time>2021-12-28T11:29:22Z</time>
      </trkpt>
      <trkpt lat="37.5789440" lon="-4.2159570">
        <ele>429.2</ele>
        <time>2021-12-28T11:29:23Z</time>
      </trkpt>
      <trkpt lat="37.5789120" lon="-4.2159750">
        <ele>429.2</ele>
        <time>2021-12-28T11:29:24Z</time>
      </trkpt>
      <trkpt lat="37.5788930" lon="-4.2159830">
        <ele>429.2</ele>
        <time>2021-12-28T11:29:25Z</time>
      </trkpt>
      <trkpt lat="37.5788740" lon="-4.2159940">
        <ele>429.4</ele>
        <time>2021-12-28T11:29:26Z</time>
      </trkpt>
      <trkpt lat="37.5788540" lon="-4.2160050">
        <ele>429.4</ele>
        <time>2021-12-28T11:29:27Z</time>
      </trkpt>
      <trkpt lat="37.5788320" lon="-4.2160140">
        <ele>429.4</ele>
        <time>2021-12-28T11:29:28Z</time>
      </trkpt>
      <trkpt lat="37.5788060" lon="-4.2160250">
        <ele>429.4</ele>
        <time>2021-12-28T11:29:29Z</time>
      </trkpt>
      <trkpt lat="37.5787840" lon="-4.2160350">
        <ele>429.4</ele>
        <time>2021-12-28T11:29:30Z</time>
      </trkpt>
      <trkpt lat="37.5787580" lon="-4.2160480">
        <ele>429.4</ele>
        <time>2021-12-28T11:29:31Z</time>
      </trkpt>
      <trkpt lat="37.5787360" lon="-4.2160640">
        <ele>429.4</ele>
        <time>2021-12-28T11:29:32Z</time>
      </trkpt>
      <trkpt lat="37.5787070" lon="-4.2160750">
        <ele>429.4</ele>
        <time>2021-12-28T11:29:33Z</time>
      </trkpt>
      <trkpt lat="37.5786850" lon="-4.2160850">
        <ele>429.6</ele>
        <time>2021-12-28T11:29:34Z</time>
      </trkpt>
      <trkpt lat="37.5786620" lon="-4.2160950">
        <ele>429.6</ele>
        <time>2021-12-28T11:29:35Z</time>
      </trkpt>
      <trkpt lat="37.5786370" lon="-4.2161050">
        <ele>429.6</ele>
        <time>2021-12-28T11:29:36Z</time>
      </trkpt>
      <trkpt lat="37.5786080" lon="-4.2161150">
        <ele>429.8</ele>
        <time>2021-12-28T11:29:37Z</time>
      </trkpt>
      <trkpt lat="37.5785820" lon="-4.2161250">
        <ele>429.8</ele>
        <time>2021-12-28T11:29:38Z</time>
      </trkpt>
      <trkpt lat="37.5785600" lon="-4.2161330">
        <ele>429.8</ele>
        <time>2021-12-28T11:29:39Z</time>
      </trkpt>
      <trkpt lat="37.5785340" lon="-4.2161430">
        <ele>429.8</ele>
        <time>2021-12-28T11:29:40Z</time>
      </trkpt>
      <trkpt lat="37.5785060" lon="-4.2161550">
        <ele>429.8</ele>
        <time>2021-12-28T11:29:41Z</time>
      </trkpt>
      <trkpt lat="37.5784830" lon="-4.2161660">
        <ele>429.6</ele>
        <time>2021-12-28T11:29:42Z</time>
      </trkpt>
      <trkpt lat="37.5784540" lon="-4.2161800">
        <ele>429.6</ele>
        <time>2021-12-28T11:29:43Z</time>
      </trkpt>
      <trkpt lat="37.5784290" lon="-4.2161950">
        <ele>429.6</ele>
        <time>2021-12-28T11:29:44Z</time>
      </trkpt>
      <trkpt lat="37.5784030" lon="-4.2162060">
        <ele>429.8</ele>
        <time>2021-12-28T11:29:45Z</time>
      </trkpt>
      <trkpt lat="37.5783810" lon="-4.2162160">
        <ele>429.6</ele>
        <time>2021-12-28T11:29:46Z</time>
      </trkpt>
      <trkpt lat="37.5783580" lon="-4.2162280">
        <ele>429.8</ele>
        <time>2021-12-28T11:29:47Z</time>
      </trkpt>
      <trkpt lat="37.5783360" lon="-4.2162400">
        <ele>429.8</ele>
        <time>2021-12-28T11:29:48Z</time>
      </trkpt>
      <trkpt lat="37.5783070" lon="-4.2162520">
        <ele>429.8</ele>
        <time>2021-12-28T11:29:49Z</time>
      </trkpt>
      <trkpt lat="37.5782850" lon="-4.2162650">
        <ele>429.8</ele>
        <time>2021-12-28T11:29:50Z</time>
      </trkpt>
      <trkpt lat="37.5782620" lon="-4.2162780">
        <ele>429.8</ele>
        <time>2021-12-28T11:29:51Z</time>
      </trkpt>
      <trkpt lat="37.5782370" lon="-4.2162920">
        <ele>429.8</ele>
        <time>2021-12-28T11:29:52Z</time>
      </trkpt>
      <trkpt lat="37.5782110" lon="-4.2163050">
        <ele>429.8</ele>
        <time>2021-12-28T11:29:53Z</time>
      </trkpt>
      <trkpt lat="37.5781860" lon="-4.2163200">
        <ele>429.8</ele>
        <time>2021-12-28T11:29:54Z</time>
      </trkpt>
      <trkpt lat="37.5781630" lon="-4.2163330">
        <ele>429.8</ele>
        <time>2021-12-28T11:29:55Z</time>
      </trkpt>
      <trkpt lat="37.5781410" lon="-4.2163480">
        <ele>429.8</ele>
        <time>2021-12-28T11:29:56Z</time>
      </trkpt>
      <trkpt lat="37.5781120" lon="-4.2163640">
        <ele>429.8</ele>
        <time>2021-12-28T11:29:57Z</time>
      </trkpt>
      <trkpt lat="37.5780860" lon="-4.2163770">
        <ele>429.8</ele>
        <time>2021-12-28T11:29:58Z</time>
      </trkpt>
      <trkpt lat="37.5780610" lon="-4.2163920">
        <ele>429.8</ele>
        <time>2021-12-28T11:29:59Z</time>
      </trkpt>
      <trkpt lat="37.5780210" lon="-4.2164170">
        <ele>429.8</ele>
        <time>2021-12-28T11:30:00Z</time>
      </trkpt>
      <trkpt lat="37.5780100" lon="-4.2164250">
        <ele>429.6</ele>
        <time>2021-12-28T11:30:01Z</time>
      </trkpt>
      <trkpt lat="37.5779840" lon="-4.2164440">
        <ele>429.6</ele>
        <time>2021-12-28T11:30:02Z</time>
      </trkpt>
      <trkpt lat="37.5779580" lon="-4.2164600">
        <ele>429.6</ele>
        <time>2021-12-28T11:30:03Z</time>
      </trkpt>
      <trkpt lat="37.5779300" lon="-4.2164760">
        <ele>429.4</ele>
        <time>2021-12-28T11:30:04Z</time>
      </trkpt>
      <trkpt lat="37.5779040" lon="-4.2164950">
        <ele>429.4</ele>
        <time>2021-12-28T11:30:05Z</time>
      </trkpt>
      <trkpt lat="37.5778820" lon="-4.2165080">
        <ele>429.4</ele>
        <time>2021-12-28T11:30:06Z</time>
      </trkpt>
      <trkpt lat="37.5778590" lon="-4.2165260">
        <ele>429.4</ele>
        <time>2021-12-28T11:30:07Z</time>
      </trkpt>
      <trkpt lat="37.5778300" lon="-4.2165450">
        <ele>429.2</ele>
        <time>2021-12-28T11:30:08Z</time>
      </trkpt>
      <trkpt lat="37.5778080" lon="-4.2165630">
        <ele>429.2</ele>
        <time>2021-12-28T11:30:09Z</time>
      </trkpt>
      <trkpt lat="37.5777820" lon="-4.2165800">
        <ele>429.2</ele>
        <time>2021-12-28T11:30:10Z</time>
      </trkpt>
      <trkpt lat="37.5777540" lon="-4.2165950">
        <ele>429.2</ele>
        <time>2021-12-28T11:30:11Z</time>
      </trkpt>
      <trkpt lat="37.5777310" lon="-4.2166150">
        <ele>429.2</ele>
        <time>2021-12-28T11:30:12Z</time>
      </trkpt>
      <trkpt lat="37.5777060" lon="-4.2166350">
        <ele>429.2</ele>
        <time>2021-12-28T11:30:13Z</time>
      </trkpt>
      <trkpt lat="37.5776830" lon="-4.2166550">
        <ele>429.2</ele>
        <time>2021-12-28T11:30:14Z</time>
      </trkpt>
      <trkpt lat="37.5776540" lon="-4.2166750">
        <ele>429.2</ele>
        <time>2021-12-28T11:30:15Z</time>
      </trkpt>
      <trkpt lat="37.5776320" lon="-4.2166950">
        <ele>429.2</ele>
        <time>2021-12-28T11:30:16Z</time>
      </trkpt>
      <trkpt lat="37.5776060" lon="-4.2167170">
        <ele>429.4</ele>
        <time>2021-12-28T11:30:17Z</time>
      </trkpt>
      <trkpt lat="37.5775810" lon="-4.2167380">
        <ele>429.4</ele>
        <time>2021-12-28T11:30:18Z</time>
      </trkpt>
      <trkpt lat="37.5775550" lon="-4.2167580">
        <ele>429.4</ele>
        <time>2021-12-28T11:30:19Z</time>
      </trkpt>
      <trkpt lat="37.5775300" lon="-4.2167800">
        <ele>429.4</ele>
        <time>2021-12-28T11:30:20Z</time>
      </trkpt>
      <trkpt lat="37.5775070" lon="-4.2168020">
        <ele>429.4</ele>
        <time>2021-12-28T11:30:21Z</time>
      </trkpt>
      <trkpt lat="37.5774850" lon="-4.2168240">
        <ele>429.4</ele>
        <time>2021-12-28T11:30:22Z</time>
      </trkpt>
      <trkpt lat="37.5774620" lon="-4.2168460">
        <ele>429.4</ele>
        <time>2021-12-28T11:30:23Z</time>
      </trkpt>
      <trkpt lat="37.5774340" lon="-4.2168700">
        <ele>429.4</ele>
        <time>2021-12-28T11:30:24Z</time>
      </trkpt>
      <trkpt lat="37.5774110" lon="-4.2168950">
        <ele>429.4</ele>
        <time>2021-12-28T11:30:25Z</time>
      </trkpt>
      <trkpt lat="37.5773890" lon="-4.2169200">
        <ele>429.4</ele>
        <time>2021-12-28T11:30:26Z</time>
      </trkpt>
      <trkpt lat="37.5773660" lon="-4.2169430">
        <ele>429.4</ele>
        <time>2021-12-28T11:30:27Z</time>
      </trkpt>
      <trkpt lat="37.5773440" lon="-4.2169700">
        <ele>429.6</ele>
        <time>2021-12-28T11:30:28Z</time>
      </trkpt>
      <trkpt lat="37.5773220" lon="-4.2169980">
        <ele>429.6</ele>
        <time>2021-12-28T11:30:29Z</time>
      </trkpt>
      <trkpt lat="37.5772930" lon="-4.2170230">
        <ele>429.6</ele>
        <time>2021-12-28T11:30:30Z</time>
      </trkpt>
      <trkpt lat="37.5772700" lon="-4.2170500">
        <ele>429.8</ele>
        <time>2021-12-28T11:30:31Z</time>
      </trkpt>
      <trkpt lat="37.5772510" lon="-4.2170780">
        <ele>429.8</ele>
        <time>2021-12-28T11:30:32Z</time>
      </trkpt>
      <trkpt lat="37.5772290" lon="-4.2171050">
        <ele>429.8</ele>
        <time>2021-12-28T11:30:33Z</time>
      </trkpt>
      <trkpt lat="37.5772060" lon="-4.2171320">
        <ele>429.8</ele>
        <time>2021-12-28T11:30:34Z</time>
      </trkpt>
      <trkpt lat="37.5771870" lon="-4.2171550">
        <ele>429.8</ele>
        <time>2021-12-28T11:30:35Z</time>
      </trkpt>
      <trkpt lat="37.5771650" lon="-4.2171830">
        <ele>429.8</ele>
        <time>2021-12-28T11:30:36Z</time>
      </trkpt>
      <trkpt lat="37.5771460" lon="-4.2172100">
        <ele>429.8</ele>
        <time>2021-12-28T11:30:37Z</time>
      </trkpt>
      <trkpt lat="37.5771230" lon="-4.2172380">
        <ele>429.8</ele>
        <time>2021-12-28T11:30:38Z</time>
      </trkpt>
      <trkpt lat="37.5771040" lon="-4.2172650">
        <ele>430.0</ele>
        <time>2021-12-28T11:30:39Z</time>
      </trkpt>
      <trkpt lat="37.5770850" lon="-4.2172920">
        <ele>430.0</ele>
        <time>2021-12-28T11:30:40Z</time>
      </trkpt>
      <trkpt lat="37.5770660" lon="-4.2173170">
        <ele>430.0</ele>
        <time>2021-12-28T11:30:41Z</time>
      </trkpt>
      <trkpt lat="37.5770430" lon="-4.2173430">
        <ele>430.0</ele>
        <time>2021-12-28T11:30:42Z</time>
      </trkpt>
      <trkpt lat="37.5770180" lon="-4.2173830">
        <ele>430.0</ele>
        <time>2021-12-28T11:30:43Z</time>
      </trkpt>
      <trkpt lat="37.5770080" lon="-4.2173970">
        <ele>430.0</ele>
        <time>2021-12-28T11:30:44Z</time>
      </trkpt>
      <trkpt lat="37.5769890" lon="-4.2174250">
        <ele>430.0</ele>
        <time>2021-12-28T11:30:45Z</time>
      </trkpt>
      <trkpt lat="37.5769700" lon="-4.2174550">
        <ele>430.0</ele>
        <time>2021-12-28T11:30:46Z</time>
      </trkpt>
      <trkpt lat="37.5769500" lon="-4.2174850">
        <ele>430.0</ele>
        <time>2021-12-28T11:30:47Z</time>
      </trkpt>
      <trkpt lat="37.5769310" lon="-4.2175120">
        <ele>429.8</ele>
        <time>2021-12-28T11:30:48Z</time>
      </trkpt>
      <trkpt lat="37.5769120" lon="-4.2175400">
        <ele>429.8</ele>
        <time>2021-12-28T11:30:49Z</time>
      </trkpt>
      <trkpt lat="37.5768930" lon="-4.2175680">
        <ele>429.8</ele>
        <time>2021-12-28T11:30:50Z</time>
      </trkpt>
      <trkpt lat="37.5768740" lon="-4.2175960">
        <ele>430.0</ele>
        <time>2021-12-28T11:30:51Z</time>
      </trkpt>
      <trkpt lat="37.5768540" lon="-4.2176260">
        <ele>430.0</ele>
        <time>2021-12-28T11:30:52Z</time>
      </trkpt>
      <trkpt lat="37.5768350" lon="-4.2176530">
        <ele>430.0</ele>
        <time>2021-12-28T11:30:53Z</time>
      </trkpt>
      <trkpt lat="37.5768160" lon="-4.2176770">
        <ele>430.2</ele>
        <time>2021-12-28T11:30:54Z</time>
      </trkpt>
      <trkpt lat="37.5767940" lon="-4.2177020">
        <ele>430.2</ele>
        <time>2021-12-28T11:30:55Z</time>
      </trkpt>
      <trkpt lat="37.5767740" lon="-4.2177270">
        <ele>430.2</ele>
        <time>2021-12-28T11:30:56Z</time>
      </trkpt>
      <trkpt lat="37.5767520" lon="-4.2177550">
        <ele>430.4</ele>
        <time>2021-12-28T11:30:57Z</time>
      </trkpt>
      <trkpt lat="37.5767360" lon="-4.2177850">
        <ele>430.4</ele>
        <time>2021-12-28T11:30:58Z</time>
      </trkpt>
      <trkpt lat="37.5767200" lon="-4.2178140">
        <ele>430.6</ele>
        <time>2021-12-28T11:30:59Z</time>
      </trkpt>
      <trkpt lat="37.5767010" lon="-4.2178420">
        <ele>430.8</ele>
        <time>2021-12-28T11:31:00Z</time>
      </trkpt>
      <trkpt lat="37.5766880" lon="-4.2178680">
        <ele>430.8</ele>
        <time>2021-12-28T11:31:01Z</time>
      </trkpt>
      <trkpt lat="37.5766620" lon="-4.2178950">
        <ele>430.8</ele>
        <time>2021-12-28T11:31:02Z</time>
      </trkpt>
      <trkpt lat="37.5766500" lon="-4.2179230">
        <ele>430.8</ele>
        <time>2021-12-28T11:31:03Z</time>
      </trkpt>
      <trkpt lat="37.5766300" lon="-4.2179500">
        <ele>430.8</ele>
        <time>2021-12-28T11:31:04Z</time>
      </trkpt>
      <trkpt lat="37.5766110" lon="-4.2179780">
        <ele>430.8</ele>
        <time>2021-12-28T11:31:05Z</time>
      </trkpt>
      <trkpt lat="37.5765920" lon="-4.2180050">
        <ele>431.0</ele>
        <time>2021-12-28T11:31:06Z</time>
      </trkpt>
      <trkpt lat="37.5765790" lon="-4.2180320">
        <ele>431.0</ele>
        <time>2021-12-28T11:31:07Z</time>
      </trkpt>
      <trkpt lat="37.5765600" lon="-4.2180580">
        <ele>431.0</ele>
        <time>2021-12-28T11:31:08Z</time>
      </trkpt>
      <trkpt lat="37.5765410" lon="-4.2180830">
        <ele>431.0</ele>
        <time>2021-12-28T11:31:09Z</time>
      </trkpt>
      <trkpt lat="37.5765280" lon="-4.2181070">
        <ele>431.0</ele>
        <time>2021-12-28T11:31:10Z</time>
      </trkpt>
      <trkpt lat="37.5765120" lon="-4.2181340">
        <ele>431.0</ele>
        <time>2021-12-28T11:31:11Z</time>
      </trkpt>
      <trkpt lat="37.5764930" lon="-4.2181600">
        <ele>431.2</ele>
        <time>2021-12-28T11:31:12Z</time>
      </trkpt>
      <trkpt lat="37.5764740" lon="-4.2181870">
        <ele>431.2</ele>
        <time>2021-12-28T11:31:13Z</time>
      </trkpt>
      <trkpt lat="37.5764540" lon="-4.2182140">
        <ele>431.2</ele>
        <time>2021-12-28T11:31:14Z</time>
      </trkpt>
      <trkpt lat="37.5764380" lon="-4.2182380">
        <ele>431.2</ele>
        <time>2021-12-28T11:31:15Z</time>
      </trkpt>
      <trkpt lat="37.5764190" lon="-4.2182650">
        <ele>431.4</ele>
        <time>2021-12-28T11:31:16Z</time>
      </trkpt>
      <trkpt lat="37.5764000" lon="-4.2182920">
        <ele>431.4</ele>
        <time>2021-12-28T11:31:17Z</time>
      </trkpt>
      <trkpt lat="37.5763810" lon="-4.2183160">
        <ele>431.4</ele>
        <time>2021-12-28T11:31:18Z</time>
      </trkpt>
      <trkpt lat="37.5763680" lon="-4.2183430">
        <ele>431.6</ele>
        <time>2021-12-28T11:31:19Z</time>
      </trkpt>
      <trkpt lat="37.5763490" lon="-4.2183680">
        <ele>431.8</ele>
        <time>2021-12-28T11:31:20Z</time>
      </trkpt>
      <trkpt lat="37.5763330" lon="-4.2183970">
        <ele>432.0</ele>
        <time>2021-12-28T11:31:21Z</time>
      </trkpt>
      <trkpt lat="37.5763170" lon="-4.2184230">
        <ele>432.0</ele>
        <time>2021-12-28T11:31:22Z</time>
      </trkpt>
      <trkpt lat="37.5762980" lon="-4.2184480">
        <ele>432.2</ele>
        <time>2021-12-28T11:31:23Z</time>
      </trkpt>
      <trkpt lat="37.5762780" lon="-4.2184750">
        <ele>432.2</ele>
        <time>2021-12-28T11:31:24Z</time>
      </trkpt>
      <trkpt lat="37.5762590" lon="-4.2185040">
        <ele>432.4</ele>
        <time>2021-12-28T11:31:25Z</time>
      </trkpt>
      <trkpt lat="37.5762400" lon="-4.2185320">
        <ele>432.4</ele>
        <time>2021-12-28T11:31:26Z</time>
      </trkpt>
      <trkpt lat="37.5762210" lon="-4.2185620">
        <ele>432.4</ele>
        <time>2021-12-28T11:31:27Z</time>
      </trkpt>
      <trkpt lat="37.5762050" lon="-4.2185900">
        <ele>432.6</ele>
        <time>2021-12-28T11:31:28Z</time>
      </trkpt>
      <trkpt lat="37.5761860" lon="-4.2186160">
        <ele>432.8</ele>
        <time>2021-12-28T11:31:29Z</time>
      </trkpt>
      <trkpt lat="37.5761700" lon="-4.2186450">
        <ele>432.8</ele>
        <time>2021-12-28T11:31:30Z</time>
      </trkpt>
      <trkpt lat="37.5761500" lon="-4.2186720">
        <ele>432.8</ele>
        <time>2021-12-28T11:31:31Z</time>
      </trkpt>
      <trkpt lat="37.5761310" lon="-4.2187000">
        <ele>433.0</ele>
        <time>2021-12-28T11:31:32Z</time>
      </trkpt>
      <trkpt lat="37.5761120" lon="-4.2187270">
        <ele>433.0</ele>
        <time>2021-12-28T11:31:33Z</time>
      </trkpt>
      <trkpt lat="37.5760930" lon="-4.2187530">
        <ele>433.2</ele>
        <time>2021-12-28T11:31:34Z</time>
      </trkpt>
      <trkpt lat="37.5760740" lon="-4.2187800">
        <ele>433.2</ele>
        <time>2021-12-28T11:31:35Z</time>
      </trkpt>
      <trkpt lat="37.5760540" lon="-4.2188070">
        <ele>433.2</ele>
        <time>2021-12-28T11:31:36Z</time>
      </trkpt>
      <trkpt lat="37.5760350" lon="-4.2188320">
        <ele>433.2</ele>
        <time>2021-12-28T11:31:37Z</time>
      </trkpt>
      <trkpt lat="37.5760160" lon="-4.2188580">
        <ele>433.4</ele>
        <time>2021-12-28T11:31:38Z</time>
      </trkpt>
      <trkpt lat="37.5760000" lon="-4.2188840">
        <ele>433.4</ele>
        <time>2021-12-28T11:31:39Z</time>
      </trkpt>
      <trkpt lat="37.5759840" lon="-4.2189080">
        <ele>433.6</ele>
        <time>2021-12-28T11:31:40Z</time>
      </trkpt>
      <trkpt lat="37.5759650" lon="-4.2189330">
        <ele>433.6</ele>
        <time>2021-12-28T11:31:41Z</time>
      </trkpt>
      <trkpt lat="37.5759520" lon="-4.2189560">
        <ele>433.6</ele>
        <time>2021-12-28T11:31:42Z</time>
      </trkpt>
      <trkpt lat="37.5759330" lon="-4.2189780">
        <ele>433.6</ele>
        <time>2021-12-28T11:31:43Z</time>
      </trkpt>
      <trkpt lat="37.5759170" lon="-4.2190050">
        <ele>433.6</ele>
        <time>2021-12-28T11:31:44Z</time>
      </trkpt>
      <trkpt lat="37.5758980" lon="-4.2190300">
        <ele>433.6</ele>
        <time>2021-12-28T11:31:45Z</time>
      </trkpt>
      <trkpt lat="37.5758820" lon="-4.2190550">
        <ele>433.6</ele>
        <time>2021-12-28T11:31:46Z</time>
      </trkpt>
      <trkpt lat="37.5758660" lon="-4.2190800">
        <ele>433.6</ele>
        <time>2021-12-28T11:31:47Z</time>
      </trkpt>
      <trkpt lat="37.5758530" lon="-4.2191000">
        <ele>433.6</ele>
        <time>2021-12-28T11:31:48Z</time>
      </trkpt>
      <trkpt lat="37.5758370" lon="-4.2191200">
        <ele>433.6</ele>
        <time>2021-12-28T11:31:49Z</time>
      </trkpt>
      <trkpt lat="37.5758210" lon="-4.2191400">
        <ele>433.8</ele>
        <time>2021-12-28T11:31:50Z</time>
      </trkpt>
      <trkpt lat="37.5758080" lon="-4.2191580">
        <ele>433.8</ele>
        <time>2021-12-28T11:31:51Z</time>
      </trkpt>
      <trkpt lat="37.5758080" lon="-4.2191580">
        <ele>433.8</ele>
        <time>2021-12-28T11:31:52Z</time>
      </trkpt>
      <trkpt lat="37.5757920" lon="-4.2191940">
        <ele>433.8</ele>
        <time>2021-12-28T11:31:53Z</time>
      </trkpt>
      <trkpt lat="37.5757920" lon="-4.2191940">
        <ele>433.8</ele>
        <time>2021-12-28T11:31:54Z</time>
      </trkpt>
      <trkpt lat="37.5757760" lon="-4.2192270">
        <ele>433.8</ele>
        <time>2021-12-28T11:31:55Z</time>
      </trkpt>
      <trkpt lat="37.5757760" lon="-4.2192270">
        <ele>433.8</ele>
        <time>2021-12-28T11:31:56Z</time>
      </trkpt>
      <trkpt lat="37.5757600" lon="-4.2192520">
        <ele>433.8</ele>
        <time>2021-12-28T11:31:57Z</time>
      </trkpt>
      <trkpt lat="37.5757600" lon="-4.2192520">
        <ele>433.8</ele>
        <time>2021-12-28T11:31:58Z</time>
      </trkpt>
      <trkpt lat="37.5757600" lon="-4.2192520">
        <ele>433.8</ele>
        <time>2021-12-28T11:31:59Z</time>
      </trkpt>
      <trkpt lat="37.5757600" lon="-4.2192520">
        <ele>434.0</ele>
        <time>2021-12-28T11:32:00Z</time>
      </trkpt>
      <trkpt lat="37.5757600" lon="-4.2192520">
        <ele>434.0</ele>
        <time>2021-12-28T11:32:01Z</time>
      </trkpt>
      <trkpt lat="37.5757600" lon="-4.2192520">
        <ele>434.0</ele>
        <time>2021-12-28T11:32:02Z</time>
      </trkpt>
      <trkpt lat="37.5757020" lon="-4.2193330">
        <ele>434.6</ele>
        <time>2021-12-28T11:36:03Z</time>
      </trkpt>
      <trkpt lat="37.5756860" lon="-4.2193600">
        <ele>434.6</ele>
        <time>2021-12-28T11:36:04Z</time>
      </trkpt>
      <trkpt lat="37.5756670" lon="-4.2193860">
        <ele>434.6</ele>
        <time>2021-12-28T11:36:05Z</time>
      </trkpt>
      <trkpt lat="37.5756480" lon="-4.2194150">
        <ele>434.6</ele>
        <time>2021-12-28T11:36:06Z</time>
      </trkpt>
      <trkpt lat="37.5756260" lon="-4.2194430">
        <ele>434.8</ele>
        <time>2021-12-28T11:36:07Z</time>
      </trkpt>
      <trkpt lat="37.5756030" lon="-4.2194750">
        <ele>434.8</ele>
        <time>2021-12-28T11:36:08Z</time>
      </trkpt>
      <trkpt lat="37.5755840" lon="-4.2195040">
        <ele>434.8</ele>
        <time>2021-12-28T11:36:09Z</time>
      </trkpt>
      <trkpt lat="37.5755650" lon="-4.2195340">
        <ele>434.8</ele>
        <time>2021-12-28T11:36:10Z</time>
      </trkpt>
      <trkpt lat="37.5755490" lon="-4.2195620">
        <ele>434.8</ele>
        <time>2021-12-28T11:36:11Z</time>
      </trkpt>
      <trkpt lat="37.5755260" lon="-4.2195880">
        <ele>435.0</ele>
        <time>2021-12-28T11:36:12Z</time>
      </trkpt>
      <trkpt lat="37.5755070" lon="-4.2196170">
        <ele>435.0</ele>
        <time>2021-12-28T11:36:13Z</time>
      </trkpt>
      <trkpt lat="37.5754940" lon="-4.2196450">
        <ele>434.8</ele>
        <time>2021-12-28T11:36:14Z</time>
      </trkpt>
      <trkpt lat="37.5754780" lon="-4.2196720">
        <ele>434.8</ele>
        <time>2021-12-28T11:36:15Z</time>
      </trkpt>
      <trkpt lat="37.5754590" lon="-4.2197000">
        <ele>434.8</ele>
        <time>2021-12-28T11:36:16Z</time>
      </trkpt>
      <trkpt lat="37.5754400" lon="-4.2197300">
        <ele>434.8</ele>
        <time>2021-12-28T11:36:17Z</time>
      </trkpt>
      <trkpt lat="37.5754180" lon="-4.2197630">
        <ele>434.8</ele>
        <time>2021-12-28T11:36:18Z</time>
      </trkpt>
      <trkpt lat="37.5753980" lon="-4.2197950">
        <ele>434.8</ele>
        <time>2021-12-28T11:36:19Z</time>
      </trkpt>
      <trkpt lat="37.5753820" lon="-4.2198280">
        <ele>434.8</ele>
        <time>2021-12-28T11:36:20Z</time>
      </trkpt>
      <trkpt lat="37.5753660" lon="-4.2198550">
        <ele>434.8</ele>
        <time>2021-12-28T11:36:21Z</time>
      </trkpt>
      <trkpt lat="37.5753500" lon="-4.2198750">
        <ele>435.0</ele>
        <time>2021-12-28T11:36:22Z</time>
      </trkpt>
      <trkpt lat="37.5753380" lon="-4.2198970">
        <ele>435.0</ele>
        <time>2021-12-28T11:36:23Z</time>
      </trkpt>
      <trkpt lat="37.5753220" lon="-4.2199170">
        <ele>435.0</ele>
        <time>2021-12-28T11:36:24Z</time>
      </trkpt>
      <trkpt lat="37.5753060" lon="-4.2199370">
        <ele>435.0</ele>
        <time>2021-12-28T11:36:25Z</time>
      </trkpt>
      <trkpt lat="37.5753060" lon="-4.2199370">
        <ele>435.0</ele>
        <time>2021-12-28T11:36:26Z</time>
      </trkpt>
      <trkpt lat="37.5752700" lon="-4.2199890">
        <ele>435.0</ele>
        <time>2021-12-28T11:36:27Z</time>
      </trkpt>
      <trkpt lat="37.5752610" lon="-4.2200000">
        <ele>435.2</ele>
        <time>2021-12-28T11:36:28Z</time>
      </trkpt>
      <trkpt lat="37.5752480" lon="-4.2200230">
        <ele>435.2</ele>
        <time>2021-12-28T11:36:29Z</time>
      </trkpt>
      <trkpt lat="37.5752320" lon="-4.2200450">
        <ele>435.0</ele>
        <time>2021-12-28T11:36:30Z</time>
      </trkpt>
      <trkpt lat="37.5752220" lon="-4.2200650">
        <ele>435.0</ele>
        <time>2021-12-28T11:36:31Z</time>
      </trkpt>
      <trkpt lat="37.5752060" lon="-4.2200860">
        <ele>435.0</ele>
        <time>2021-12-28T11:36:32Z</time>
      </trkpt>
      <trkpt lat="37.5751900" lon="-4.2201050">
        <ele>435.0</ele>
        <time>2021-12-28T11:36:33Z</time>
      </trkpt>
      <trkpt lat="37.5751810" lon="-4.2201270">
        <ele>435.0</ele>
        <time>2021-12-28T11:36:34Z</time>
      </trkpt>
      <trkpt lat="37.5751650" lon="-4.2201480">
        <ele>435.0</ele>
        <time>2021-12-28T11:36:35Z</time>
      </trkpt>
      <trkpt lat="37.5751490" lon="-4.2201680">
        <ele>435.0</ele>
        <time>2021-12-28T11:36:36Z</time>
      </trkpt>
      <trkpt lat="37.5751330" lon="-4.2201870">
        <ele>435.0</ele>
        <time>2021-12-28T11:36:37Z</time>
      </trkpt>
      <trkpt lat="37.5751330" lon="-4.2201870">
        <ele>435.0</ele>
        <time>2021-12-28T11:36:38Z</time>
      </trkpt>
      <trkpt lat="37.5751100" lon="-4.2202220">
        <ele>435.2</ele>
        <time>2021-12-28T11:36:39Z</time>
      </trkpt>
      <trkpt lat="37.5751100" lon="-4.2202220">
        <ele>435.0</ele>
        <time>2021-12-28T11:36:40Z</time>
      </trkpt>
      <trkpt lat="37.5750850" lon="-4.2202640">
        <ele>435.0</ele>
        <time>2021-12-28T11:36:41Z</time>
      </trkpt>
      <trkpt lat="37.5750690" lon="-4.2202850">
        <ele>435.0</ele>
        <time>2021-12-28T11:36:42Z</time>
      </trkpt>
      <trkpt lat="37.5750530" lon="-4.2203050">
        <ele>435.0</ele>
        <time>2021-12-28T11:36:43Z</time>
      </trkpt>
      <trkpt lat="37.5750400" lon="-4.2203260">
        <ele>435.0</ele>
        <time>2021-12-28T11:36:44Z</time>
      </trkpt>
      <trkpt lat="37.5750270" lon="-4.2203480">
        <ele>435.2</ele>
        <time>2021-12-28T11:36:45Z</time>
      </trkpt>
      <trkpt lat="37.5750110" lon="-4.2203680">
        <ele>435.2</ele>
        <time>2021-12-28T11:36:46Z</time>
      </trkpt>
      <trkpt lat="37.5749980" lon="-4.2203880">
        <ele>435.2</ele>
        <time>2021-12-28T11:36:47Z</time>
      </trkpt>
      <trkpt lat="37.5749820" lon="-4.2204100">
        <ele>435.4</ele>
        <time>2021-12-28T11:36:48Z</time>
      </trkpt>
      <trkpt lat="37.5749660" lon="-4.2204330">
        <ele>435.4</ele>
        <time>2021-12-28T11:36:49Z</time>
      </trkpt>
      <trkpt lat="37.5749500" lon="-4.2204550">
        <ele>435.6</ele>
        <time>2021-12-28T11:36:50Z</time>
      </trkpt>
      <trkpt lat="37.5749410" lon="-4.2204750">
        <ele>435.8</ele>
        <time>2021-12-28T11:36:51Z</time>
      </trkpt>
      <trkpt lat="37.5749250" lon="-4.2204970">
        <ele>435.8</ele>
        <time>2021-12-28T11:36:52Z</time>
      </trkpt>
      <trkpt lat="37.5749090" lon="-4.2205170">
        <ele>435.8</ele>
        <time>2021-12-28T11:36:53Z</time>
      </trkpt>
      <trkpt lat="37.5748930" lon="-4.2205370">
        <ele>436.0</ele>
        <time>2021-12-28T11:36:54Z</time>
      </trkpt>
      <trkpt lat="37.5748800" lon="-4.2205580">
        <ele>436.0</ele>
        <time>2021-12-28T11:36:55Z</time>
      </trkpt>
      <trkpt lat="37.5748670" lon="-4.2205800">
        <ele>436.0</ele>
        <time>2021-12-28T11:36:56Z</time>
      </trkpt>
      <trkpt lat="37.5748510" lon="-4.2206020">
        <ele>436.0</ele>
        <time>2021-12-28T11:36:57Z</time>
      </trkpt>
      <trkpt lat="37.5748350" lon="-4.2206240">
        <ele>436.0</ele>
        <time>2021-12-28T11:36:58Z</time>
      </trkpt>
      <trkpt lat="37.5748220" lon="-4.2206470">
        <ele>436.0</ele>
        <time>2021-12-28T11:36:59Z</time>
      </trkpt>
      <trkpt lat="37.5748100" lon="-4.2206670">
        <ele>436.0</ele>
        <time>2021-12-28T11:37:00Z</time>
      </trkpt>
      <trkpt lat="37.5747940" lon="-4.2206830">
        <ele>436.0</ele>
        <time>2021-12-28T11:37:01Z</time>
      </trkpt>
      <trkpt lat="37.5747940" lon="-4.2206830">
        <ele>436.0</ele>
        <time>2021-12-28T11:37:02Z</time>
      </trkpt>
      <trkpt lat="37.5747680" lon="-4.2207220">
        <ele>436.2</ele>
        <time>2021-12-28T11:37:03Z</time>
      </trkpt>
      <trkpt lat="37.5747520" lon="-4.2207420">
        <ele>436.2</ele>
        <time>2021-12-28T11:37:04Z</time>
      </trkpt>
      <trkpt lat="37.5747360" lon="-4.2207600">
        <ele>436.2</ele>
        <time>2021-12-28T11:37:05Z</time>
      </trkpt>
      <trkpt lat="37.5747360" lon="-4.2207600">
        <ele>436.2</ele>
        <time>2021-12-28T11:37:06Z</time>
      </trkpt>
      <trkpt lat="37.5747140" lon="-4.2207980">
        <ele>436.4</ele>
        <time>2021-12-28T11:37:07Z</time>
      </trkpt>
      <trkpt lat="37.5747010" lon="-4.2208180">
        <ele>436.4</ele>
        <time>2021-12-28T11:37:08Z</time>
      </trkpt>
      <trkpt lat="37.5746880" lon="-4.2208400">
        <ele>436.4</ele>
        <time>2021-12-28T11:37:09Z</time>
      </trkpt>
      <trkpt lat="37.5746720" lon="-4.2208620">
        <ele>436.4</ele>
        <time>2021-12-28T11:37:10Z</time>
      </trkpt>
      <trkpt lat="37.5746560" lon="-4.2208830">
        <ele>436.4</ele>
        <time>2021-12-28T11:37:11Z</time>
      </trkpt>
      <trkpt lat="37.5746430" lon="-4.2209030">
        <ele>436.4</ele>
        <time>2021-12-28T11:37:12Z</time>
      </trkpt>
      <trkpt lat="37.5746270" lon="-4.2209240">
        <ele>436.4</ele>
        <time>2021-12-28T11:37:13Z</time>
      </trkpt>
      <trkpt lat="37.5746110" lon="-4.2209450">
        <ele>436.2</ele>
        <time>2021-12-28T11:37:14Z</time>
      </trkpt>
      <trkpt lat="37.5746110" lon="-4.2209450">
        <ele>436.2</ele>
        <time>2021-12-28T11:37:15Z</time>
      </trkpt>
      <trkpt lat="37.5745780" lon="-4.2209900">
        <ele>436.2</ele>
        <time>2021-12-28T11:37:16Z</time>
      </trkpt>
      <trkpt lat="37.5745700" lon="-4.2210000">
        <ele>436.0</ele>
        <time>2021-12-28T11:37:17Z</time>
      </trkpt>
      <trkpt lat="37.5745570" lon="-4.2210200">
        <ele>436.0</ele>
        <time>2021-12-28T11:37:18Z</time>
      </trkpt>
      <trkpt lat="37.5745470" lon="-4.2210400">
        <ele>436.0</ele>
        <time>2021-12-28T11:37:19Z</time>
      </trkpt>
      <trkpt lat="37.5745310" lon="-4.2210600">
        <ele>436.0</ele>
        <time>2021-12-28T11:37:20Z</time>
      </trkpt>
      <trkpt lat="37.5745150" lon="-4.2210820">
        <ele>436.0</ele>
        <time>2021-12-28T11:37:21Z</time>
      </trkpt>
      <trkpt lat="37.5745060" lon="-4.2211020">
        <ele>436.0</ele>
        <time>2021-12-28T11:37:22Z</time>
      </trkpt>
      <trkpt lat="37.5744900" lon="-4.2211250">
        <ele>436.0</ele>
        <time>2021-12-28T11:37:23Z</time>
      </trkpt>
      <trkpt lat="37.5744740" lon="-4.2211430">
        <ele>436.2</ele>
        <time>2021-12-28T11:37:24Z</time>
      </trkpt>
      <trkpt lat="37.5744580" lon="-4.2211650">
        <ele>436.2</ele>
        <time>2021-12-28T11:37:25Z</time>
      </trkpt>
      <trkpt lat="37.5744450" lon="-4.2211880">
        <ele>436.2</ele>
        <time>2021-12-28T11:37:26Z</time>
      </trkpt>
      <trkpt lat="37.5744320" lon="-4.2212120">
        <ele>436.2</ele>
        <time>2021-12-28T11:37:27Z</time>
      </trkpt>
      <trkpt lat="37.5744160" lon="-4.2212330">
        <ele>436.2</ele>
        <time>2021-12-28T11:37:28Z</time>
      </trkpt>
      <trkpt lat="37.5744030" lon="-4.2212520">
        <ele>436.2</ele>
        <time>2021-12-28T11:37:29Z</time>
      </trkpt>
      <trkpt lat="37.5743870" lon="-4.2212720">
        <ele>436.2</ele>
        <time>2021-12-28T11:37:30Z</time>
      </trkpt>
      <trkpt lat="37.5743740" lon="-4.2212920">
        <ele>436.2</ele>
        <time>2021-12-28T11:37:31Z</time>
      </trkpt>
      <trkpt lat="37.5743580" lon="-4.2213140">
        <ele>436.2</ele>
        <time>2021-12-28T11:37:32Z</time>
      </trkpt>
      <trkpt lat="37.5743460" lon="-4.2213340">
        <ele>436.4</ele>
        <time>2021-12-28T11:37:33Z</time>
      </trkpt>
      <trkpt lat="37.5743300" lon="-4.2213540">
        <ele>436.4</ele>
        <time>2021-12-28T11:37:34Z</time>
      </trkpt>
      <trkpt lat="37.5743140" lon="-4.2213780">
        <ele>436.4</ele>
        <time>2021-12-28T11:37:35Z</time>
      </trkpt>
      <trkpt lat="37.5743040" lon="-4.2214000">
        <ele>436.4</ele>
        <time>2021-12-28T11:37:36Z</time>
      </trkpt>
      <trkpt lat="37.5742880" lon="-4.2214220">
        <ele>436.6</ele>
        <time>2021-12-28T11:37:37Z</time>
      </trkpt>
      <trkpt lat="37.5742720" lon="-4.2214430">
        <ele>436.6</ele>
        <time>2021-12-28T11:37:38Z</time>
      </trkpt>
      <trkpt lat="37.5742560" lon="-4.2214650">
        <ele>436.6</ele>
        <time>2021-12-28T11:37:39Z</time>
      </trkpt>
      <trkpt lat="37.5742430" lon="-4.2214860">
        <ele>436.6</ele>
        <time>2021-12-28T11:37:40Z</time>
      </trkpt>
      <trkpt lat="37.5742300" lon="-4.2215080">
        <ele>436.6</ele>
        <time>2021-12-28T11:37:41Z</time>
      </trkpt>
      <trkpt lat="37.5742140" lon="-4.2215270">
        <ele>436.6</ele>
        <time>2021-12-28T11:37:42Z</time>
      </trkpt>
      <trkpt lat="37.5742140" lon="-4.2215270">
        <ele>436.6</ele>
        <time>2021-12-28T11:37:43Z</time>
      </trkpt>
      <trkpt lat="37.5741980" lon="-4.2215600">
        <ele>436.6</ele>
        <time>2021-12-28T11:37:44Z</time>
      </trkpt>
      <trkpt lat="37.5741980" lon="-4.2215600">
        <ele>436.8</ele>
        <time>2021-12-28T11:37:45Z</time>
      </trkpt>
      <trkpt lat="37.5741790" lon="-4.2215850">
        <ele>436.8</ele>
        <time>2021-12-28T11:37:46Z</time>
      </trkpt>
      <trkpt lat="37.5741790" lon="-4.2215850">
        <ele>437.0</ele>
        <time>2021-12-28T11:37:47Z</time>
      </trkpt>
      <trkpt lat="37.5741600" lon="-4.2216070">
        <ele>437.0</ele>
        <time>2021-12-28T11:37:48Z</time>
      </trkpt>
      <trkpt lat="37.5741600" lon="-4.2216070">
        <ele>437.2</ele>
        <time>2021-12-28T11:37:49Z</time>
      </trkpt>
      <trkpt lat="37.5741440" lon="-4.2216300">
        <ele>437.4</ele>
        <time>2021-12-28T11:37:50Z</time>
      </trkpt>
      <trkpt lat="37.5741440" lon="-4.2216300">
        <ele>437.4</ele>
        <time>2021-12-28T11:37:51Z</time>
      </trkpt>
      <trkpt lat="37.5741250" lon="-4.2216580">
        <ele>437.4</ele>
        <time>2021-12-28T11:37:52Z</time>
      </trkpt>
      <trkpt lat="37.5741090" lon="-4.2216740">
        <ele>437.6</ele>
        <time>2021-12-28T11:37:53Z</time>
      </trkpt>
      <trkpt lat="37.5740960" lon="-4.2216950">
        <ele>437.6</ele>
        <time>2021-12-28T11:37:54Z</time>
      </trkpt>
      <trkpt lat="37.5740800" lon="-4.2217170">
        <ele>437.6</ele>
        <time>2021-12-28T11:37:55Z</time>
      </trkpt>
      <trkpt lat="37.5740800" lon="-4.2217170">
        <ele>437.6</ele>
        <time>2021-12-28T11:37:56Z</time>
      </trkpt>
      <trkpt lat="37.5740580" lon="-4.2217560">
        <ele>437.6</ele>
        <time>2021-12-28T11:37:57Z</time>
      </trkpt>
      <trkpt lat="37.5740480" lon="-4.2217780">
        <ele>437.6</ele>
        <time>2021-12-28T11:37:58Z</time>
      </trkpt>
      <trkpt lat="37.5740320" lon="-4.2217960">
        <ele>437.6</ele>
        <time>2021-12-28T11:37:59Z</time>
      </trkpt>
      <trkpt lat="37.5740190" lon="-4.2218180">
        <ele>437.6</ele>
        <time>2021-12-28T11:38:00Z</time>
      </trkpt>
      <trkpt lat="37.5740100" lon="-4.2218400">
        <ele>437.6</ele>
        <time>2021-12-28T11:38:01Z</time>
      </trkpt>
      <trkpt lat="37.5739940" lon="-4.2218600">
        <ele>437.6</ele>
        <time>2021-12-28T11:38:02Z</time>
      </trkpt>
      <trkpt lat="37.5739780" lon="-4.2218800">
        <ele>437.4</ele>
        <time>2021-12-28T11:38:03Z</time>
      </trkpt>
      <trkpt lat="37.5739620" lon="-4.2219050">
        <ele>437.4</ele>
        <time>2021-12-28T11:38:04Z</time>
      </trkpt>
      <trkpt lat="37.5739490" lon="-4.2219270">
        <ele>437.4</ele>
        <time>2021-12-28T11:38:05Z</time>
      </trkpt>
      <trkpt lat="37.5739330" lon="-4.2219470">
        <ele>437.4</ele>
        <time>2021-12-28T11:38:06Z</time>
      </trkpt>
      <trkpt lat="37.5739170" lon="-4.2219670">
        <ele>437.4</ele>
        <time>2021-12-28T11:38:07Z</time>
      </trkpt>
      <trkpt lat="37.5738980" lon="-4.2219880">
        <ele>437.4</ele>
        <time>2021-12-28T11:38:08Z</time>
      </trkpt>
      <trkpt lat="37.5738820" lon="-4.2220140">
        <ele>437.4</ele>
        <time>2021-12-28T11:38:09Z</time>
      </trkpt>
      <trkpt lat="37.5738690" lon="-4.2220380">
        <ele>437.4</ele>
        <time>2021-12-28T11:38:10Z</time>
      </trkpt>
      <trkpt lat="37.5738500" lon="-4.2220620">
        <ele>437.4</ele>
        <time>2021-12-28T11:38:11Z</time>
      </trkpt>
      <trkpt lat="37.5738340" lon="-4.2220880">
        <ele>437.4</ele>
        <time>2021-12-28T11:38:12Z</time>
      </trkpt>
      <trkpt lat="37.5738180" lon="-4.2221150">
        <ele>437.4</ele>
        <time>2021-12-28T11:38:13Z</time>
      </trkpt>
      <trkpt lat="37.5738080" lon="-4.2221400">
        <ele>437.6</ele>
        <time>2021-12-28T11:38:14Z</time>
      </trkpt>
      <trkpt lat="37.5737920" lon="-4.2221630">
        <ele>437.6</ele>
        <time>2021-12-28T11:38:15Z</time>
      </trkpt>
      <trkpt lat="37.5737760" lon="-4.2221880">
        <ele>437.4</ele>
        <time>2021-12-28T11:38:16Z</time>
      </trkpt>
      <trkpt lat="37.5737600" lon="-4.2222100">
        <ele>437.4</ele>
        <time>2021-12-28T11:38:17Z</time>
      </trkpt>
      <trkpt lat="37.5737470" lon="-4.2222330">
        <ele>437.4</ele>
        <time>2021-12-28T11:38:18Z</time>
      </trkpt>
      <trkpt lat="37.5737340" lon="-4.2222530">
        <ele>437.6</ele>
        <time>2021-12-28T11:38:19Z</time>
      </trkpt>
      <trkpt lat="37.5737150" lon="-4.2222720">
        <ele>437.6</ele>
        <time>2021-12-28T11:38:20Z</time>
      </trkpt>
      <trkpt lat="37.5736960" lon="-4.2222920">
        <ele>437.6</ele>
        <time>2021-12-28T11:38:21Z</time>
      </trkpt>
      <trkpt lat="37.5736800" lon="-4.2223170">
        <ele>437.6</ele>
        <time>2021-12-28T11:38:22Z</time>
      </trkpt>
      <trkpt lat="37.5736610" lon="-4.2223470">
        <ele>437.8</ele>
        <time>2021-12-28T11:38:23Z</time>
      </trkpt>
      <trkpt lat="37.5736480" lon="-4.2223780">
        <ele>437.8</ele>
        <time>2021-12-28T11:38:24Z</time>
      </trkpt>
      <trkpt lat="37.5736290" lon="-4.2224070">
        <ele>437.8</ele>
        <time>2021-12-28T11:38:25Z</time>
      </trkpt>
      <trkpt lat="37.5736100" lon="-4.2224330">
        <ele>437.8</ele>
        <time>2021-12-28T11:38:26Z</time>
      </trkpt>
      <trkpt lat="37.5735940" lon="-4.2224600">
        <ele>437.8</ele>
        <time>2021-12-28T11:38:27Z</time>
      </trkpt>
      <trkpt lat="37.5735740" lon="-4.2224820">
        <ele>437.8</ele>
        <time>2021-12-28T11:38:28Z</time>
      </trkpt>
      <trkpt lat="37.5735620" lon="-4.2225060">
        <ele>437.8</ele>
        <time>2021-12-28T11:38:29Z</time>
      </trkpt>
      <trkpt lat="37.5735620" lon="-4.2225060">
        <ele>437.8</ele>
        <time>2021-12-28T11:38:30Z</time>
      </trkpt>
      <trkpt lat="37.5735390" lon="-4.2225400">
        <ele>437.6</ele>
        <time>2021-12-28T11:38:31Z</time>
      </trkpt>
      <trkpt lat="37.5735230" lon="-4.2225620">
        <ele>437.6</ele>
        <time>2021-12-28T11:38:32Z</time>
      </trkpt>
      <trkpt lat="37.5735230" lon="-4.2225620">
        <ele>437.6</ele>
        <time>2021-12-28T11:38:33Z</time>
      </trkpt>
      <trkpt lat="37.5734980" lon="-4.2225980">
        <ele>437.6</ele>
        <time>2021-12-28T11:38:34Z</time>
      </trkpt>
      <trkpt lat="37.5734850" lon="-4.2226220">
        <ele>437.6</ele>
        <time>2021-12-28T11:38:35Z</time>
      </trkpt>
      <trkpt lat="37.5734720" lon="-4.2226450">
        <ele>437.6</ele>
        <time>2021-12-28T11:38:36Z</time>
      </trkpt>
      <trkpt lat="37.5734560" lon="-4.2226680">
        <ele>437.6</ele>
        <time>2021-12-28T11:38:37Z</time>
      </trkpt>
      <trkpt lat="37.5734400" lon="-4.2226900">
        <ele>437.6</ele>
        <time>2021-12-28T11:38:38Z</time>
      </trkpt>
      <trkpt lat="37.5734240" lon="-4.2227150">
        <ele>437.6</ele>
        <time>2021-12-28T11:38:39Z</time>
      </trkpt>
      <trkpt lat="37.5734110" lon="-4.2227370">
        <ele>437.6</ele>
        <time>2021-12-28T11:38:40Z</time>
      </trkpt>
      <trkpt lat="37.5733950" lon="-4.2227570">
        <ele>437.6</ele>
        <time>2021-12-28T11:38:41Z</time>
      </trkpt>
      <trkpt lat="37.5733820" lon="-4.2227750">
        <ele>437.6</ele>
        <time>2021-12-28T11:38:42Z</time>
      </trkpt>
      <trkpt lat="37.5733700" lon="-4.2228000">
        <ele>437.6</ele>
        <time>2021-12-28T11:38:43Z</time>
      </trkpt>
      <trkpt lat="37.5733570" lon="-4.2228220">
        <ele>437.6</ele>
        <time>2021-12-28T11:38:44Z</time>
      </trkpt>
      <trkpt lat="37.5733410" lon="-4.2228430">
        <ele>437.6</ele>
        <time>2021-12-28T11:38:45Z</time>
      </trkpt>
      <trkpt lat="37.5733250" lon="-4.2228650">
        <ele>437.8</ele>
        <time>2021-12-28T11:38:46Z</time>
      </trkpt>
      <trkpt lat="37.5733120" lon="-4.2228880">
        <ele>437.8</ele>
        <time>2021-12-28T11:38:47Z</time>
      </trkpt>
      <trkpt lat="37.5732960" lon="-4.2229080">
        <ele>437.8</ele>
        <time>2021-12-28T11:38:48Z</time>
      </trkpt>
      <trkpt lat="37.5732800" lon="-4.2229300">
        <ele>437.8</ele>
        <time>2021-12-28T11:38:49Z</time>
      </trkpt>
      <trkpt lat="37.5732640" lon="-4.2229530">
        <ele>437.8</ele>
        <time>2021-12-28T11:38:50Z</time>
      </trkpt>
      <trkpt lat="37.5732510" lon="-4.2229770">
        <ele>437.8</ele>
        <time>2021-12-28T11:38:51Z</time>
      </trkpt>
      <trkpt lat="37.5732350" lon="-4.2229970">
        <ele>438.0</ele>
        <time>2021-12-28T11:38:52Z</time>
      </trkpt>
      <trkpt lat="37.5732160" lon="-4.2230220">
        <ele>438.0</ele>
        <time>2021-12-28T11:38:53Z</time>
      </trkpt>
      <trkpt lat="37.5732000" lon="-4.2230450">
        <ele>438.0</ele>
        <time>2021-12-28T11:38:54Z</time>
      </trkpt>
      <trkpt lat="37.5731870" lon="-4.2230720">
        <ele>438.2</ele>
        <time>2021-12-28T11:38:55Z</time>
      </trkpt>
      <trkpt lat="37.5731710" lon="-4.2230970">
        <ele>438.2</ele>
        <time>2021-12-28T11:38:56Z</time>
      </trkpt>
      <trkpt lat="37.5731520" lon="-4.2231220">
        <ele>438.4</ele>
        <time>2021-12-28T11:38:57Z</time>
      </trkpt>
      <trkpt lat="37.5731330" lon="-4.2231460">
        <ele>438.4</ele>
        <time>2021-12-28T11:38:58Z</time>
      </trkpt>
      <trkpt lat="37.5731200" lon="-4.2231680">
        <ele>438.6</ele>
        <time>2021-12-28T11:38:59Z</time>
      </trkpt>
      <trkpt lat="37.5731010" lon="-4.2231880">
        <ele>438.8</ele>
        <time>2021-12-28T11:39:00Z</time>
      </trkpt>
      <trkpt lat="37.5730820" lon="-4.2232080">
        <ele>438.8</ele>
        <time>2021-12-28T11:39:01Z</time>
      </trkpt>
      <trkpt lat="37.5730620" lon="-4.2232330">
        <ele>438.8</ele>
        <time>2021-12-28T11:39:02Z</time>
      </trkpt>
      <trkpt lat="37.5730460" lon="-4.2232630">
        <ele>438.8</ele>
        <time>2021-12-28T11:39:03Z</time>
      </trkpt>
      <trkpt lat="37.5730340" lon="-4.2232930">
        <ele>439.0</ele>
        <time>2021-12-28T11:39:04Z</time>
      </trkpt>
      <trkpt lat="37.5730180" lon="-4.2233220">
        <ele>439.0</ele>
        <time>2021-12-28T11:39:05Z</time>
      </trkpt>
      <trkpt lat="37.5730020" lon="-4.2233470">
        <ele>439.0</ele>
        <time>2021-12-28T11:39:06Z</time>
      </trkpt>
      <trkpt lat="37.5729860" lon="-4.2233720">
        <ele>439.2</ele>
        <time>2021-12-28T11:39:07Z</time>
      </trkpt>
      <trkpt lat="37.5729730" lon="-4.2233970">
        <ele>439.2</ele>
        <time>2021-12-28T11:39:08Z</time>
      </trkpt>
      <trkpt lat="37.5729600" lon="-4.2234220">
        <ele>439.2</ele>
        <time>2021-12-28T11:39:09Z</time>
      </trkpt>
      <trkpt lat="37.5729440" lon="-4.2234480">
        <ele>439.2</ele>
        <time>2021-12-28T11:39:10Z</time>
      </trkpt>
      <trkpt lat="37.5729280" lon="-4.2234720">
        <ele>439.2</ele>
        <time>2021-12-28T11:39:11Z</time>
      </trkpt>
      <trkpt lat="37.5729180" lon="-4.2234920">
        <ele>439.2</ele>
        <time>2021-12-28T11:39:12Z</time>
      </trkpt>
      <trkpt lat="37.5729060" lon="-4.2235100">
        <ele>439.2</ele>
        <time>2021-12-28T11:39:13Z</time>
      </trkpt>
      <trkpt lat="37.5729060" lon="-4.2235100">
        <ele>439.2</ele>
        <time>2021-12-28T11:39:14Z</time>
      </trkpt>
      <trkpt lat="37.5728930" lon="-4.2235450">
        <ele>439.4</ele>
        <time>2021-12-28T11:39:15Z</time>
      </trkpt>
      <trkpt lat="37.5728800" lon="-4.2235630">
        <ele>439.4</ele>
        <time>2021-12-28T11:39:16Z</time>
      </trkpt>
      <trkpt lat="37.5728670" lon="-4.2235820">
        <ele>439.6</ele>
        <time>2021-12-28T11:39:17Z</time>
      </trkpt>
      <trkpt lat="37.5728670" lon="-4.2235820">
        <ele>439.8</ele>
        <time>2021-12-28T11:39:18Z</time>
      </trkpt>
      <trkpt lat="37.5728540" lon="-4.2236150">
        <ele>440.0</ele>
        <time>2021-12-28T11:39:19Z</time>
      </trkpt>
      <trkpt lat="37.5728420" lon="-4.2236320">
        <ele>440.0</ele>
        <time>2021-12-28T11:39:20Z</time>
      </trkpt>
      <trkpt lat="37.5728420" lon="-4.2236320">
        <ele>440.2</ele>
        <time>2021-12-28T11:39:21Z</time>
      </trkpt>
      <trkpt lat="37.5728260" lon="-4.2236720">
        <ele>440.2</ele>
        <time>2021-12-28T11:39:22Z</time>
      </trkpt>
      <trkpt lat="37.5728160" lon="-4.2236970">
        <ele>440.2</ele>
        <time>2021-12-28T11:39:23Z</time>
      </trkpt>
      <trkpt lat="37.5728060" lon="-4.2237240">
        <ele>440.2</ele>
        <time>2021-12-28T11:39:24Z</time>
      </trkpt>
      <trkpt lat="37.5727970" lon="-4.2237480">
        <ele>440.4</ele>
        <time>2021-12-28T11:39:25Z</time>
      </trkpt>
      <trkpt lat="37.5727840" lon="-4.2237750">
        <ele>440.4</ele>
        <time>2021-12-28T11:39:26Z</time>
      </trkpt>
      <trkpt lat="37.5727740" lon="-4.2238000">
        <ele>440.6</ele>
        <time>2021-12-28T11:39:27Z</time>
      </trkpt>
      <trkpt lat="37.5727620" lon="-4.2238250">
        <ele>440.6</ele>
        <time>2021-12-28T11:39:28Z</time>
      </trkpt>
      <trkpt lat="37.5727490" lon="-4.2238500">
        <ele>440.8</ele>
        <time>2021-12-28T11:39:29Z</time>
      </trkpt>
      <trkpt lat="37.5727390" lon="-4.2238720">
        <ele>440.8</ele>
        <time>2021-12-28T11:39:30Z</time>
      </trkpt>
      <trkpt lat="37.5727300" lon="-4.2238920">
        <ele>440.8</ele>
        <time>2021-12-28T11:39:31Z</time>
      </trkpt>
      <trkpt lat="37.5727200" lon="-4.2239150">
        <ele>441.0</ele>
        <time>2021-12-28T11:39:32Z</time>
      </trkpt>
      <trkpt lat="37.5727070" lon="-4.2239420">
        <ele>441.0</ele>
        <time>2021-12-28T11:39:33Z</time>
      </trkpt>
      <trkpt lat="37.5726980" lon="-4.2239680">
        <ele>441.0</ele>
        <time>2021-12-28T11:39:34Z</time>
      </trkpt>
      <trkpt lat="37.5726850" lon="-4.2239950">
        <ele>441.2</ele>
        <time>2021-12-28T11:39:35Z</time>
      </trkpt>
      <trkpt lat="37.5726750" lon="-4.2240230">
        <ele>441.2</ele>
        <time>2021-12-28T11:39:36Z</time>
      </trkpt>
      <trkpt lat="37.5726620" lon="-4.2240500">
        <ele>441.2</ele>
        <time>2021-12-28T11:39:37Z</time>
      </trkpt>
      <trkpt lat="37.5726460" lon="-4.2240820">
        <ele>441.2</ele>
        <time>2021-12-28T11:39:38Z</time>
      </trkpt>
      <trkpt lat="37.5726400" lon="-4.2241120">
        <ele>441.2</ele>
        <time>2021-12-28T11:39:39Z</time>
      </trkpt>
      <trkpt lat="37.5726300" lon="-4.2241420">
        <ele>441.4</ele>
        <time>2021-12-28T11:39:40Z</time>
      </trkpt>
      <trkpt lat="37.5726240" lon="-4.2241720">
        <ele>441.4</ele>
        <time>2021-12-28T11:39:41Z</time>
      </trkpt>
      <trkpt lat="37.5726180" lon="-4.2242000">
        <ele>441.6</ele>
        <time>2021-12-28T11:39:42Z</time>
      </trkpt>
      <trkpt lat="37.5726050" lon="-4.2242300">
        <ele>441.6</ele>
        <time>2021-12-28T11:39:43Z</time>
      </trkpt>
      <trkpt lat="37.5726020" lon="-4.2242560">
        <ele>441.6</ele>
        <time>2021-12-28T11:39:44Z</time>
      </trkpt>
      <trkpt lat="37.5725890" lon="-4.2242850">
        <ele>441.6</ele>
        <time>2021-12-28T11:39:45Z</time>
      </trkpt>
      <trkpt lat="37.5725790" lon="-4.2243100">
        <ele>441.8</ele>
        <time>2021-12-28T11:39:46Z</time>
      </trkpt>
      <trkpt lat="37.5725700" lon="-4.2243330">
        <ele>441.8</ele>
        <time>2021-12-28T11:39:47Z</time>
      </trkpt>
      <trkpt lat="37.5725630" lon="-4.2243580">
        <ele>442.0</ele>
        <time>2021-12-28T11:39:48Z</time>
      </trkpt>
      <trkpt lat="37.5725570" lon="-4.2243800">
        <ele>442.0</ele>
        <time>2021-12-28T11:39:49Z</time>
      </trkpt>
      <trkpt lat="37.5725470" lon="-4.2244050">
        <ele>442.2</ele>
        <time>2021-12-28T11:39:50Z</time>
      </trkpt>
      <trkpt lat="37.5725410" lon="-4.2244340">
        <ele>442.2</ele>
        <time>2021-12-28T11:39:51Z</time>
      </trkpt>
      <trkpt lat="37.5725310" lon="-4.2244550">
        <ele>442.4</ele>
        <time>2021-12-28T11:39:52Z</time>
      </trkpt>
      <trkpt lat="37.5725220" lon="-4.2244770">
        <ele>442.4</ele>
        <time>2021-12-28T11:39:53Z</time>
      </trkpt>
      <trkpt lat="37.5725090" lon="-4.2244970">
        <ele>442.4</ele>
        <time>2021-12-28T11:39:54Z</time>
      </trkpt>
      <trkpt lat="37.5724990" lon="-4.2245220">
        <ele>442.4</ele>
        <time>2021-12-28T11:39:55Z</time>
      </trkpt>
      <trkpt lat="37.5724990" lon="-4.2245220">
        <ele>442.6</ele>
        <time>2021-12-28T11:39:56Z</time>
      </trkpt>
      <trkpt lat="37.5724830" lon="-4.2245770">
        <ele>442.6</ele>
        <time>2021-12-28T11:39:57Z</time>
      </trkpt>
      <trkpt lat="37.5724800" lon="-4.2245880">
        <ele>442.6</ele>
        <time>2021-12-28T11:39:58Z</time>
      </trkpt>
      <trkpt lat="37.5724700" lon="-4.2246130">
        <ele>442.6</ele>
        <time>2021-12-28T11:39:59Z</time>
      </trkpt>
      <trkpt lat="37.5724560" lon="-4.2246520">
        <ele>442.6</ele>
        <time>2021-12-28T11:40:00Z</time>
      </trkpt>
      <trkpt lat="37.5724510" lon="-4.2246650">
        <ele>442.6</ele>
        <time>2021-12-28T11:40:01Z</time>
      </trkpt>
      <trkpt lat="37.5724450" lon="-4.2246920">
        <ele>442.8</ele>
        <time>2021-12-28T11:40:02Z</time>
      </trkpt>
      <trkpt lat="37.5724420" lon="-4.2247220">
        <ele>442.8</ele>
        <time>2021-12-28T11:40:03Z</time>
      </trkpt>
      <trkpt lat="37.5724320" lon="-4.2247480">
        <ele>443.0</ele>
        <time>2021-12-28T11:40:04Z</time>
      </trkpt>
      <trkpt lat="37.5724260" lon="-4.2247780">
        <ele>443.0</ele>
        <time>2021-12-28T11:40:05Z</time>
      </trkpt>
      <trkpt lat="37.5724190" lon="-4.2248050">
        <ele>443.2</ele>
        <time>2021-12-28T11:40:06Z</time>
      </trkpt>
      <trkpt lat="37.5724100" lon="-4.2248340">
        <ele>443.2</ele>
        <time>2021-12-28T11:40:07Z</time>
      </trkpt>
      <trkpt lat="37.5724060" lon="-4.2248570">
        <ele>443.4</ele>
        <time>2021-12-28T11:40:08Z</time>
      </trkpt>
      <trkpt lat="37.5724000" lon="-4.2248780">
        <ele>443.4</ele>
        <time>2021-12-28T11:40:09Z</time>
      </trkpt>
      <trkpt lat="37.5724000" lon="-4.2248780">
        <ele>443.4</ele>
        <time>2021-12-28T11:40:10Z</time>
      </trkpt>
      <trkpt lat="37.5723900" lon="-4.2249180">
        <ele>443.4</ele>
        <time>2021-12-28T11:40:11Z</time>
      </trkpt>
      <trkpt lat="37.5723870" lon="-4.2249420">
        <ele>443.4</ele>
        <time>2021-12-28T11:40:12Z</time>
      </trkpt>
      <trkpt lat="37.5723810" lon="-4.2249650">
        <ele>443.4</ele>
        <time>2021-12-28T11:40:13Z</time>
      </trkpt>
      <trkpt lat="37.5723780" lon="-4.2249900">
        <ele>443.4</ele>
        <time>2021-12-28T11:40:14Z</time>
      </trkpt>
      <trkpt lat="37.5723680" lon="-4.2250160">
        <ele>443.4</ele>
        <time>2021-12-28T11:40:15Z</time>
      </trkpt>
      <trkpt lat="37.5723650" lon="-4.2250420">
        <ele>443.4</ele>
        <time>2021-12-28T11:40:16Z</time>
      </trkpt>
      <trkpt lat="37.5723650" lon="-4.2250420">
        <ele>443.4</ele>
        <time>2021-12-28T11:40:17Z</time>
      </trkpt>
      <trkpt lat="37.5723520" lon="-4.2250820">
        <ele>443.4</ele>
        <time>2021-12-28T11:40:18Z</time>
      </trkpt>
      <trkpt lat="37.5723520" lon="-4.2250820">
        <ele>443.4</ele>
        <time>2021-12-28T11:40:19Z</time>
      </trkpt>
      <trkpt lat="37.5723460" lon="-4.2251240">
        <ele>443.4</ele>
        <time>2021-12-28T11:40:20Z</time>
      </trkpt>
      <trkpt lat="37.5723420" lon="-4.2251470">
        <ele>443.6</ele>
        <time>2021-12-28T11:40:21Z</time>
      </trkpt>
      <trkpt lat="37.5723420" lon="-4.2251470">
        <ele>443.6</ele>
        <time>2021-12-28T11:40:22Z</time>
      </trkpt>
      <trkpt lat="37.5723300" lon="-4.2251870">
        <ele>443.6</ele>
        <time>2021-12-28T11:40:23Z</time>
      </trkpt>
      <trkpt lat="37.5723300" lon="-4.2251870">
        <ele>443.6</ele>
        <time>2021-12-28T11:40:24Z</time>
      </trkpt>
      <trkpt lat="37.5723200" lon="-4.2252300">
        <ele>443.6</ele>
        <time>2021-12-28T11:40:25Z</time>
      </trkpt>
      <trkpt lat="37.5723170" lon="-4.2252550">
        <ele>443.6</ele>
        <time>2021-12-28T11:40:26Z</time>
      </trkpt>
      <trkpt lat="37.5723100" lon="-4.2252850">
        <ele>443.8</ele>
        <time>2021-12-28T11:40:27Z</time>
      </trkpt>
      <trkpt lat="37.5723040" lon="-4.2253130">
        <ele>443.8</ele>
        <time>2021-12-28T11:40:28Z</time>
      </trkpt>
      <trkpt lat="37.5723010" lon="-4.2253430">
        <ele>443.8</ele>
        <time>2021-12-28T11:40:29Z</time>
      </trkpt>
      <trkpt lat="37.5722980" lon="-4.2253720">
        <ele>443.8</ele>
        <time>2021-12-28T11:40:30Z</time>
      </trkpt>
      <trkpt lat="37.5722880" lon="-4.2254000">
        <ele>444.0</ele>
        <time>2021-12-28T11:40:31Z</time>
      </trkpt>
      <trkpt lat="37.5722850" lon="-4.2254300">
        <ele>444.0</ele>
        <time>2021-12-28T11:40:32Z</time>
      </trkpt>
      <trkpt lat="37.5722780" lon="-4.2254600">
        <ele>444.0</ele>
        <time>2021-12-28T11:40:33Z</time>
      </trkpt>
      <trkpt lat="37.5722720" lon="-4.2254900">
        <ele>444.0</ele>
        <time>2021-12-28T11:40:34Z</time>
      </trkpt>
      <trkpt lat="37.5722660" lon="-4.2255220">
        <ele>444.0</ele>
        <time>2021-12-28T11:40:35Z</time>
      </trkpt>
      <trkpt lat="37.5722620" lon="-4.2255520">
        <ele>444.0</ele>
        <time>2021-12-28T11:40:36Z</time>
      </trkpt>
      <trkpt lat="37.5722530" lon="-4.2255840">
        <ele>444.0</ele>
        <time>2021-12-28T11:40:37Z</time>
      </trkpt>
      <trkpt lat="37.5722500" lon="-4.2256160">
        <ele>444.0</ele>
        <time>2021-12-28T11:40:38Z</time>
      </trkpt>
      <trkpt lat="37.5722460" lon="-4.2256460">
        <ele>444.0</ele>
        <time>2021-12-28T11:40:39Z</time>
      </trkpt>
      <trkpt lat="37.5722400" lon="-4.2256780">
        <ele>444.0</ele>
        <time>2021-12-28T11:40:40Z</time>
      </trkpt>
      <trkpt lat="37.5722340" lon="-4.2257050">
        <ele>444.2</ele>
        <time>2021-12-28T11:40:41Z</time>
      </trkpt>
      <trkpt lat="37.5722300" lon="-4.2257350">
        <ele>444.2</ele>
        <time>2021-12-28T11:40:42Z</time>
      </trkpt>
      <trkpt lat="37.5722270" lon="-4.2257630">
        <ele>444.2</ele>
        <time>2021-12-28T11:40:43Z</time>
      </trkpt>
      <trkpt lat="37.5722240" lon="-4.2257950">
        <ele>444.2</ele>
        <time>2021-12-28T11:40:44Z</time>
      </trkpt>
      <trkpt lat="37.5722210" lon="-4.2258270">
        <ele>444.2</ele>
        <time>2021-12-28T11:40:45Z</time>
      </trkpt>
      <trkpt lat="37.5722180" lon="-4.2258570">
        <ele>444.2</ele>
        <time>2021-12-28T11:40:46Z</time>
      </trkpt>
      <trkpt lat="37.5722110" lon="-4.2258900">
        <ele>444.4</ele>
        <time>2021-12-28T11:40:47Z</time>
      </trkpt>
      <trkpt lat="37.5722080" lon="-4.2259250">
        <ele>444.4</ele>
        <time>2021-12-28T11:40:48Z</time>
      </trkpt>
      <trkpt lat="37.5722080" lon="-4.2259580">
        <ele>444.4</ele>
        <time>2021-12-28T11:40:49Z</time>
      </trkpt>
      <trkpt lat="37.5722050" lon="-4.2259920">
        <ele>444.4</ele>
        <time>2021-12-28T11:40:50Z</time>
      </trkpt>
      <trkpt lat="37.5722020" lon="-4.2260250">
        <ele>444.6</ele>
        <time>2021-12-28T11:40:51Z</time>
      </trkpt>
      <trkpt lat="37.5721980" lon="-4.2260560">
        <ele>444.6</ele>
        <time>2021-12-28T11:40:52Z</time>
      </trkpt>
      <trkpt lat="37.5721920" lon="-4.2260900">
        <ele>444.6</ele>
        <time>2021-12-28T11:40:53Z</time>
      </trkpt>
      <trkpt lat="37.5721890" lon="-4.2261220">
        <ele>444.6</ele>
        <time>2021-12-28T11:40:54Z</time>
      </trkpt>
      <trkpt lat="37.5721860" lon="-4.2261550">
        <ele>444.6</ele>
        <time>2021-12-28T11:40:55Z</time>
      </trkpt>
      <trkpt lat="37.5721820" lon="-4.2261900">
        <ele>444.6</ele>
        <time>2021-12-28T11:40:56Z</time>
      </trkpt>
      <trkpt lat="37.5721820" lon="-4.2262240">
        <ele>444.6</ele>
        <time>2021-12-28T11:40:57Z</time>
      </trkpt>
      <trkpt lat="37.5721730" lon="-4.2262550">
        <ele>444.6</ele>
        <time>2021-12-28T11:40:58Z</time>
      </trkpt>
      <trkpt lat="37.5721700" lon="-4.2262900">
        <ele>444.6</ele>
        <time>2021-12-28T11:40:59Z</time>
      </trkpt>
      <trkpt lat="37.5721660" lon="-4.2263230">
        <ele>444.6</ele>
        <time>2021-12-28T11:41:00Z</time>
      </trkpt>
      <trkpt lat="37.5721630" lon="-4.2263560">
        <ele>444.6</ele>
        <time>2021-12-28T11:41:01Z</time>
      </trkpt>
      <trkpt lat="37.5721600" lon="-4.2263930">
        <ele>444.6</ele>
        <time>2021-12-28T11:41:02Z</time>
      </trkpt>
      <trkpt lat="37.5721540" lon="-4.2264270">
        <ele>444.6</ele>
        <time>2021-12-28T11:41:03Z</time>
      </trkpt>
      <trkpt lat="37.5721540" lon="-4.2264620">
        <ele>444.6</ele>
        <time>2021-12-28T11:41:04Z</time>
      </trkpt>
      <trkpt lat="37.5721500" lon="-4.2264950">
        <ele>444.8</ele>
        <time>2021-12-28T11:41:05Z</time>
      </trkpt>
      <trkpt lat="37.5721440" lon="-4.2265300">
        <ele>444.8</ele>
        <time>2021-12-28T11:41:06Z</time>
      </trkpt>
      <trkpt lat="37.5721440" lon="-4.2265650">
        <ele>444.8</ele>
        <time>2021-12-28T11:41:07Z</time>
      </trkpt>
      <trkpt lat="37.5721340" lon="-4.2266000">
        <ele>445.0</ele>
        <time>2021-12-28T11:41:08Z</time>
      </trkpt>
      <trkpt lat="37.5721310" lon="-4.2266320">
        <ele>445.0</ele>
        <time>2021-12-28T11:41:09Z</time>
      </trkpt>
      <trkpt lat="37.5721280" lon="-4.2266660">
        <ele>445.0</ele>
        <time>2021-12-28T11:41:10Z</time>
      </trkpt>
      <trkpt lat="37.5721280" lon="-4.2267020">
        <ele>445.0</ele>
        <time>2021-12-28T11:41:11Z</time>
      </trkpt>
      <trkpt lat="37.5721250" lon="-4.2267320">
        <ele>445.0</ele>
        <time>2021-12-28T11:41:12Z</time>
      </trkpt>
      <trkpt lat="37.5721180" lon="-4.2267650">
        <ele>445.2</ele>
        <time>2021-12-28T11:41:13Z</time>
      </trkpt>
      <trkpt lat="37.5721180" lon="-4.2268000">
        <ele>445.2</ele>
        <time>2021-12-28T11:41:14Z</time>
      </trkpt>
      <trkpt lat="37.5721120" lon="-4.2268330">
        <ele>445.2</ele>
        <time>2021-12-28T11:41:15Z</time>
      </trkpt>
      <trkpt lat="37.5721060" lon="-4.2268700">
        <ele>445.2</ele>
        <time>2021-12-28T11:41:16Z</time>
      </trkpt>
      <trkpt lat="37.5721020" lon="-4.2269040">
        <ele>445.2</ele>
        <time>2021-12-28T11:41:17Z</time>
      </trkpt>
      <trkpt lat="37.5720990" lon="-4.2269380">
        <ele>445.2</ele>
        <time>2021-12-28T11:41:18Z</time>
      </trkpt>
      <trkpt lat="37.5720930" lon="-4.2269750">
        <ele>445.2</ele>
        <time>2021-12-28T11:41:19Z</time>
      </trkpt>
      <trkpt lat="37.5720900" lon="-4.2270080">
        <ele>445.2</ele>
        <time>2021-12-28T11:41:20Z</time>
      </trkpt>
      <trkpt lat="37.5720860" lon="-4.2270460">
        <ele>445.2</ele>
        <time>2021-12-28T11:41:21Z</time>
      </trkpt>
      <trkpt lat="37.5720830" lon="-4.2270820">
        <ele>445.2</ele>
        <time>2021-12-28T11:41:22Z</time>
      </trkpt>
      <trkpt lat="37.5720740" lon="-4.2271130">
        <ele>445.2</ele>
        <time>2021-12-28T11:41:23Z</time>
      </trkpt>
      <trkpt lat="37.5720740" lon="-4.2271470">
        <ele>445.2</ele>
        <time>2021-12-28T11:41:24Z</time>
      </trkpt>
      <trkpt lat="37.5720700" lon="-4.2271830">
        <ele>445.2</ele>
        <time>2021-12-28T11:41:25Z</time>
      </trkpt>
      <trkpt lat="37.5720640" lon="-4.2272200">
        <ele>445.2</ele>
        <time>2021-12-28T11:41:26Z</time>
      </trkpt>
      <trkpt lat="37.5720610" lon="-4.2272540">
        <ele>445.4</ele>
        <time>2021-12-28T11:41:27Z</time>
      </trkpt>
      <trkpt lat="37.5720540" lon="-4.2272850">
        <ele>445.4</ele>
        <time>2021-12-28T11:41:28Z</time>
      </trkpt>
      <trkpt lat="37.5720510" lon="-4.2273140">
        <ele>445.4</ele>
        <time>2021-12-28T11:41:29Z</time>
      </trkpt>
      <trkpt lat="37.5720480" lon="-4.2273420">
        <ele>445.4</ele>
        <time>2021-12-28T11:41:30Z</time>
      </trkpt>
      <trkpt lat="37.5720420" lon="-4.2273720">
        <ele>445.4</ele>
        <time>2021-12-28T11:41:31Z</time>
      </trkpt>
      <trkpt lat="37.5720350" lon="-4.2274060">
        <ele>445.6</ele>
        <time>2021-12-28T11:41:32Z</time>
      </trkpt>
      <trkpt lat="37.5720350" lon="-4.2274400">
        <ele>445.6</ele>
        <time>2021-12-28T11:41:33Z</time>
      </trkpt>
      <trkpt lat="37.5720350" lon="-4.2274700">
        <ele>445.6</ele>
        <time>2021-12-28T11:41:34Z</time>
      </trkpt>
      <trkpt lat="37.5720320" lon="-4.2275000">
        <ele>445.8</ele>
        <time>2021-12-28T11:41:35Z</time>
      </trkpt>
      <trkpt lat="37.5720320" lon="-4.2275300">
        <ele>445.8</ele>
        <time>2021-12-28T11:41:36Z</time>
      </trkpt>
      <trkpt lat="37.5720290" lon="-4.2275620">
        <ele>446.0</ele>
        <time>2021-12-28T11:41:37Z</time>
      </trkpt>
      <trkpt lat="37.5720260" lon="-4.2275940">
        <ele>446.0</ele>
        <time>2021-12-28T11:41:38Z</time>
      </trkpt>
      <trkpt lat="37.5720220" lon="-4.2276240">
        <ele>446.0</ele>
        <time>2021-12-28T11:41:39Z</time>
      </trkpt>
      <trkpt lat="37.5720220" lon="-4.2276550">
        <ele>446.0</ele>
        <time>2021-12-28T11:41:40Z</time>
      </trkpt>
      <trkpt lat="37.5720220" lon="-4.2276840">
        <ele>446.0</ele>
        <time>2021-12-28T11:41:41Z</time>
      </trkpt>
      <trkpt lat="37.5720220" lon="-4.2277080">
        <ele>446.0</ele>
        <time>2021-12-28T11:41:42Z</time>
      </trkpt>
      <trkpt lat="37.5720190" lon="-4.2277330">
        <ele>446.0</ele>
        <time>2021-12-28T11:41:43Z</time>
      </trkpt>
      <trkpt lat="37.5720130" lon="-4.2277600">
        <ele>446.0</ele>
        <time>2021-12-28T11:41:44Z</time>
      </trkpt>
      <trkpt lat="37.5720100" lon="-4.2277850">
        <ele>445.8</ele>
        <time>2021-12-28T11:41:45Z</time>
      </trkpt>
      <trkpt lat="37.5720100" lon="-4.2278130">
        <ele>445.8</ele>
        <time>2021-12-28T11:41:46Z</time>
      </trkpt>
      <trkpt lat="37.5720060" lon="-4.2278420">
        <ele>445.6</ele>
        <time>2021-12-28T11:41:47Z</time>
      </trkpt>
      <trkpt lat="37.5720000" lon="-4.2278680">
        <ele>445.6</ele>
        <time>2021-12-28T11:41:48Z</time>
      </trkpt>
      <trkpt lat="37.5720000" lon="-4.2278970">
        <ele>445.8</ele>
        <time>2021-12-28T11:41:49Z</time>
      </trkpt>
      <trkpt lat="37.5719940" lon="-4.2279250">
        <ele>445.8</ele>
        <time>2021-12-28T11:41:50Z</time>
      </trkpt>
      <trkpt lat="37.5719900" lon="-4.2279540">
        <ele>445.8</ele>
        <time>2021-12-28T11:41:51Z</time>
      </trkpt>
      <trkpt lat="37.5719870" lon="-4.2279840">
        <ele>445.8</ele>
        <time>2021-12-28T11:41:52Z</time>
      </trkpt>
      <trkpt lat="37.5719840" lon="-4.2280120">
        <ele>445.8</ele>
        <time>2021-12-28T11:41:53Z</time>
      </trkpt>
      <trkpt lat="37.5719740" lon="-4.2280400">
        <ele>445.8</ele>
        <time>2021-12-28T11:41:54Z</time>
      </trkpt>
      <trkpt lat="37.5719740" lon="-4.2280720">
        <ele>445.8</ele>
        <time>2021-12-28T11:41:55Z</time>
      </trkpt>
      <trkpt lat="37.5719740" lon="-4.2281000">
        <ele>445.8</ele>
        <time>2021-12-28T11:41:56Z</time>
      </trkpt>
      <trkpt lat="37.5719710" lon="-4.2281260">
        <ele>445.8</ele>
        <time>2021-12-28T11:41:57Z</time>
      </trkpt>
      <trkpt lat="37.5719680" lon="-4.2281580">
        <ele>445.8</ele>
        <time>2021-12-28T11:41:58Z</time>
      </trkpt>
      <trkpt lat="37.5719680" lon="-4.2281880">
        <ele>445.8</ele>
        <time>2021-12-28T11:41:59Z</time>
      </trkpt>
      <trkpt lat="37.5719650" lon="-4.2282200">
        <ele>445.8</ele>
        <time>2021-12-28T11:42:00Z</time>
      </trkpt>
      <trkpt lat="37.5719620" lon="-4.2282500">
        <ele>446.0</ele>
        <time>2021-12-28T11:42:01Z</time>
      </trkpt>
      <trkpt lat="37.5719550" lon="-4.2282800">
        <ele>446.0</ele>
        <time>2021-12-28T11:42:02Z</time>
      </trkpt>
      <trkpt lat="37.5719490" lon="-4.2283120">
        <ele>446.0</ele>
        <time>2021-12-28T11:42:03Z</time>
      </trkpt>
      <trkpt lat="37.5719460" lon="-4.2283420">
        <ele>446.0</ele>
        <time>2021-12-28T11:42:04Z</time>
      </trkpt>
      <trkpt lat="37.5719420" lon="-4.2283700">
        <ele>446.0</ele>
        <time>2021-12-28T11:42:05Z</time>
      </trkpt>
      <trkpt lat="37.5719420" lon="-4.2283980">
        <ele>446.0</ele>
        <time>2021-12-28T11:42:06Z</time>
      </trkpt>
      <trkpt lat="37.5719360" lon="-4.2284260">
        <ele>446.2</ele>
        <time>2021-12-28T11:42:07Z</time>
      </trkpt>
      <trkpt lat="37.5719360" lon="-4.2284550">
        <ele>446.2</ele>
        <time>2021-12-28T11:42:08Z</time>
      </trkpt>
      <trkpt lat="37.5719330" lon="-4.2284830">
        <ele>446.2</ele>
        <time>2021-12-28T11:42:09Z</time>
      </trkpt>
      <trkpt lat="37.5719300" lon="-4.2285130">
        <ele>446.2</ele>
        <time>2021-12-28T11:42:10Z</time>
      </trkpt>
      <trkpt lat="37.5719300" lon="-4.2285430">
        <ele>446.2</ele>
        <time>2021-12-28T11:42:11Z</time>
      </trkpt>
      <trkpt lat="37.5719260" lon="-4.2285730">
        <ele>446.2</ele>
        <time>2021-12-28T11:42:12Z</time>
      </trkpt>
      <trkpt lat="37.5719200" lon="-4.2286030">
        <ele>446.2</ele>
        <time>2021-12-28T11:42:13Z</time>
      </trkpt>
      <trkpt lat="37.5719200" lon="-4.2286340">
        <ele>446.2</ele>
        <time>2021-12-28T11:42:14Z</time>
      </trkpt>
      <trkpt lat="37.5719140" lon="-4.2286620">
        <ele>446.2</ele>
        <time>2021-12-28T11:42:15Z</time>
      </trkpt>
      <trkpt lat="37.5719140" lon="-4.2286870">
        <ele>446.2</ele>
        <time>2021-12-28T11:42:16Z</time>
      </trkpt>
      <trkpt lat="37.5719140" lon="-4.2287120">
        <ele>446.2</ele>
        <time>2021-12-28T11:42:17Z</time>
      </trkpt>
      <trkpt lat="37.5719140" lon="-4.2287120">
        <ele>446.2</ele>
        <time>2021-12-28T11:42:18Z</time>
      </trkpt>
      <trkpt lat="37.5719070" lon="-4.2287600">
        <ele>446.2</ele>
        <time>2021-12-28T11:42:19Z</time>
      </trkpt>
      <trkpt lat="37.5719040" lon="-4.2287880">
        <ele>446.2</ele>
        <time>2021-12-28T11:42:20Z</time>
      </trkpt>
      <trkpt lat="37.5719010" lon="-4.2288150">
        <ele>446.4</ele>
        <time>2021-12-28T11:42:21Z</time>
      </trkpt>
      <trkpt lat="37.5718940" lon="-4.2288420">
        <ele>446.6</ele>
        <time>2021-12-28T11:42:22Z</time>
      </trkpt>
      <trkpt lat="37.5718910" lon="-4.2288700">
        <ele>446.8</ele>
        <time>2021-12-28T11:42:23Z</time>
      </trkpt>
      <trkpt lat="37.5718910" lon="-4.2288980">
        <ele>446.8</ele>
        <time>2021-12-28T11:42:24Z</time>
      </trkpt>
      <trkpt lat="37.5718880" lon="-4.2289280">
        <ele>447.0</ele>
        <time>2021-12-28T11:42:25Z</time>
      </trkpt>
      <trkpt lat="37.5718850" lon="-4.2289600">
        <ele>447.0</ele>
        <time>2021-12-28T11:42:26Z</time>
      </trkpt>
      <trkpt lat="37.5718820" lon="-4.2289920">
        <ele>447.0</ele>
        <time>2021-12-28T11:42:27Z</time>
      </trkpt>
      <trkpt lat="37.5718750" lon="-4.2290240">
        <ele>447.2</ele>
        <time>2021-12-28T11:42:28Z</time>
      </trkpt>
      <trkpt lat="37.5718690" lon="-4.2290540">
        <ele>447.4</ele>
        <time>2021-12-28T11:42:29Z</time>
      </trkpt>
      <trkpt lat="37.5718660" lon="-4.2290840">
        <ele>447.6</ele>
        <time>2021-12-28T11:42:30Z</time>
      </trkpt>
      <trkpt lat="37.5718620" lon="-4.2291100">
        <ele>447.6</ele>
        <time>2021-12-28T11:42:31Z</time>
      </trkpt>
      <trkpt lat="37.5718620" lon="-4.2291360">
        <ele>447.8</ele>
        <time>2021-12-28T11:42:32Z</time>
      </trkpt>
      <trkpt lat="37.5718560" lon="-4.2291630">
        <ele>448.0</ele>
        <time>2021-12-28T11:42:33Z</time>
      </trkpt>
      <trkpt lat="37.5718560" lon="-4.2291930">
        <ele>448.0</ele>
        <time>2021-12-28T11:42:34Z</time>
      </trkpt>
      <trkpt lat="37.5718530" lon="-4.2292230">
        <ele>448.0</ele>
        <time>2021-12-28T11:42:35Z</time>
      </trkpt>
      <trkpt lat="37.5718500" lon="-4.2292530">
        <ele>448.0</ele>
        <time>2021-12-28T11:42:36Z</time>
      </trkpt>
      <trkpt lat="37.5718460" lon="-4.2292830">
        <ele>448.0</ele>
        <time>2021-12-28T11:42:37Z</time>
      </trkpt>
      <trkpt lat="37.5718430" lon="-4.2293100">
        <ele>448.0</ele>
        <time>2021-12-28T11:42:38Z</time>
      </trkpt>
      <trkpt lat="37.5718370" lon="-4.2293400">
        <ele>448.0</ele>
        <time>2021-12-28T11:42:39Z</time>
      </trkpt>
      <trkpt lat="37.5718370" lon="-4.2293700">
        <ele>448.0</ele>
        <time>2021-12-28T11:42:40Z</time>
      </trkpt>
      <trkpt lat="37.5718340" lon="-4.2294020">
        <ele>448.0</ele>
        <time>2021-12-28T11:42:41Z</time>
      </trkpt>
      <trkpt lat="37.5718300" lon="-4.2294320">
        <ele>448.0</ele>
        <time>2021-12-28T11:42:42Z</time>
      </trkpt>
      <trkpt lat="37.5718240" lon="-4.2294640">
        <ele>448.0</ele>
        <time>2021-12-28T11:42:43Z</time>
      </trkpt>
      <trkpt lat="37.5718240" lon="-4.2294930">
        <ele>448.0</ele>
        <time>2021-12-28T11:42:44Z</time>
      </trkpt>
      <trkpt lat="37.5718140" lon="-4.2295230">
        <ele>448.0</ele>
        <time>2021-12-28T11:42:45Z</time>
      </trkpt>
      <trkpt lat="37.5718110" lon="-4.2295530">
        <ele>448.0</ele>
        <time>2021-12-28T11:42:46Z</time>
      </trkpt>
      <trkpt lat="37.5718080" lon="-4.2295830">
        <ele>448.2</ele>
        <time>2021-12-28T11:42:47Z</time>
      </trkpt>
      <trkpt lat="37.5718050" lon="-4.2296150">
        <ele>448.2</ele>
        <time>2021-12-28T11:42:48Z</time>
      </trkpt>
      <trkpt lat="37.5718050" lon="-4.2296470">
        <ele>448.2</ele>
        <time>2021-12-28T11:42:49Z</time>
      </trkpt>
      <trkpt lat="37.5718020" lon="-4.2296730">
        <ele>448.2</ele>
        <time>2021-12-28T11:42:50Z</time>
      </trkpt>
      <trkpt lat="37.5717920" lon="-4.2296980">
        <ele>448.4</ele>
        <time>2021-12-28T11:42:51Z</time>
      </trkpt>
      <trkpt lat="37.5717890" lon="-4.2297250">
        <ele>448.4</ele>
        <time>2021-12-28T11:42:52Z</time>
      </trkpt>
      <trkpt lat="37.5717860" lon="-4.2297540">
        <ele>448.2</ele>
        <time>2021-12-28T11:42:53Z</time>
      </trkpt>
      <trkpt lat="37.5717760" lon="-4.2297820">
        <ele>448.2</ele>
        <time>2021-12-28T11:42:54Z</time>
      </trkpt>
      <trkpt lat="37.5717730" lon="-4.2298140">
        <ele>448.2</ele>
        <time>2021-12-28T11:42:55Z</time>
      </trkpt>
      <trkpt lat="37.5717700" lon="-4.2298430">
        <ele>448.2</ele>
        <time>2021-12-28T11:42:56Z</time>
      </trkpt>
      <trkpt lat="37.5717630" lon="-4.2298720">
        <ele>448.2</ele>
        <time>2021-12-28T11:42:57Z</time>
      </trkpt>
      <trkpt lat="37.5717570" lon="-4.2299020">
        <ele>448.2</ele>
        <time>2021-12-28T11:42:58Z</time>
      </trkpt>
      <trkpt lat="37.5717470" lon="-4.2299320">
        <ele>448.2</ele>
        <time>2021-12-28T11:42:59Z</time>
      </trkpt>
      <trkpt lat="37.5717440" lon="-4.2299620">
        <ele>448.2</ele>
        <time>2021-12-28T11:43:00Z</time>
      </trkpt>
      <trkpt lat="37.5717310" lon="-4.2299920">
        <ele>448.2</ele>
        <time>2021-12-28T11:43:01Z</time>
      </trkpt>
      <trkpt lat="37.5717250" lon="-4.2300220">
        <ele>448.2</ele>
        <time>2021-12-28T11:43:02Z</time>
      </trkpt>
      <trkpt lat="37.5717220" lon="-4.2300540">
        <ele>448.2</ele>
        <time>2021-12-28T11:43:03Z</time>
      </trkpt>
      <trkpt lat="37.5717090" lon="-4.2300850">
        <ele>448.4</ele>
        <time>2021-12-28T11:43:04Z</time>
      </trkpt>
      <trkpt lat="37.5717020" lon="-4.2301170">
        <ele>448.4</ele>
        <time>2021-12-28T11:43:05Z</time>
      </trkpt>
      <trkpt lat="37.5716930" lon="-4.2301470">
        <ele>448.6</ele>
        <time>2021-12-28T11:43:06Z</time>
      </trkpt>
      <trkpt lat="37.5716860" lon="-4.2301760">
        <ele>448.6</ele>
        <time>2021-12-28T11:43:07Z</time>
      </trkpt>
      <trkpt lat="37.5716770" lon="-4.2302050">
        <ele>448.6</ele>
        <time>2021-12-28T11:43:08Z</time>
      </trkpt>
      <trkpt lat="37.5716670" lon="-4.2302330">
        <ele>448.6</ele>
        <time>2021-12-28T11:43:09Z</time>
      </trkpt>
      <trkpt lat="37.5716580" lon="-4.2302620">
        <ele>448.8</ele>
        <time>2021-12-28T11:43:10Z</time>
      </trkpt>
      <trkpt lat="37.5716510" lon="-4.2302900">
        <ele>448.8</ele>
        <time>2021-12-28T11:43:11Z</time>
      </trkpt>
      <trkpt lat="37.5716420" lon="-4.2303200">
        <ele>448.8</ele>
        <time>2021-12-28T11:43:12Z</time>
      </trkpt>
      <trkpt lat="37.5716290" lon="-4.2303470">
        <ele>448.8</ele>
        <time>2021-12-28T11:43:13Z</time>
      </trkpt>
      <trkpt lat="37.5716220" lon="-4.2303770">
        <ele>448.8</ele>
        <time>2021-12-28T11:43:14Z</time>
      </trkpt>
      <trkpt lat="37.5716130" lon="-4.2304080">
        <ele>449.0</ele>
        <time>2021-12-28T11:43:15Z</time>
      </trkpt>
      <trkpt lat="37.5716060" lon="-4.2304400">
        <ele>449.0</ele>
        <time>2021-12-28T11:43:16Z</time>
      </trkpt>
      <trkpt lat="37.5715970" lon="-4.2304700">
        <ele>449.0</ele>
        <time>2021-12-28T11:43:17Z</time>
      </trkpt>
      <trkpt lat="37.5715900" lon="-4.2304980">
        <ele>449.0</ele>
        <time>2021-12-28T11:43:18Z</time>
      </trkpt>
      <trkpt lat="37.5715840" lon="-4.2305230">
        <ele>449.0</ele>
        <time>2021-12-28T11:43:19Z</time>
      </trkpt>
      <trkpt lat="37.5715740" lon="-4.2305480">
        <ele>449.0</ele>
        <time>2021-12-28T11:43:20Z</time>
      </trkpt>
      <trkpt lat="37.5715680" lon="-4.2305750">
        <ele>449.0</ele>
        <time>2021-12-28T11:43:21Z</time>
      </trkpt>
      <trkpt lat="37.5715580" lon="-4.2306000">
        <ele>449.0</ele>
        <time>2021-12-28T11:43:22Z</time>
      </trkpt>
      <trkpt lat="37.5715490" lon="-4.2306260">
        <ele>449.0</ele>
        <time>2021-12-28T11:43:23Z</time>
      </trkpt>
      <trkpt lat="37.5715360" lon="-4.2306550">
        <ele>449.0</ele>
        <time>2021-12-28T11:43:24Z</time>
      </trkpt>
      <trkpt lat="37.5715260" lon="-4.2306830">
        <ele>449.2</ele>
        <time>2021-12-28T11:43:25Z</time>
      </trkpt>
      <trkpt lat="37.5715140" lon="-4.2307120">
        <ele>449.2</ele>
        <time>2021-12-28T11:43:26Z</time>
      </trkpt>
      <trkpt lat="37.5715070" lon="-4.2307380">
        <ele>449.2</ele>
        <time>2021-12-28T11:43:27Z</time>
      </trkpt>
      <trkpt lat="37.5714940" lon="-4.2307650">
        <ele>449.4</ele>
        <time>2021-12-28T11:43:28Z</time>
      </trkpt>
      <trkpt lat="37.5714910" lon="-4.2307900">
        <ele>449.4</ele>
        <time>2021-12-28T11:43:29Z</time>
      </trkpt>
      <trkpt lat="37.5714780" lon="-4.2308150">
        <ele>449.4</ele>
        <time>2021-12-28T11:43:30Z</time>
      </trkpt>
      <trkpt lat="37.5714690" lon="-4.2308420">
        <ele>449.4</ele>
        <time>2021-12-28T11:43:31Z</time>
      </trkpt>
      <trkpt lat="37.5714590" lon="-4.2308700">
        <ele>449.2</ele>
        <time>2021-12-28T11:43:32Z</time>
      </trkpt>
      <trkpt lat="37.5714530" lon="-4.2308930">
        <ele>449.2</ele>
        <time>2021-12-28T11:43:33Z</time>
      </trkpt>
      <trkpt lat="37.5714430" lon="-4.2309160">
        <ele>449.2</ele>
        <time>2021-12-28T11:43:34Z</time>
      </trkpt>
      <trkpt lat="37.5714370" lon="-4.2309420">
        <ele>449.0</ele>
        <time>2021-12-28T11:43:35Z</time>
      </trkpt>
      <trkpt lat="37.5714270" lon="-4.2309660">
        <ele>449.0</ele>
        <time>2021-12-28T11:43:36Z</time>
      </trkpt>
      <trkpt lat="37.5714180" lon="-4.2309920">
        <ele>449.0</ele>
        <time>2021-12-28T11:43:37Z</time>
      </trkpt>
      <trkpt lat="37.5714080" lon="-4.2310180">
        <ele>449.0</ele>
        <time>2021-12-28T11:43:38Z</time>
      </trkpt>
      <trkpt lat="37.5713980" lon="-4.2310450">
        <ele>449.0</ele>
        <time>2021-12-28T11:43:39Z</time>
      </trkpt>
      <trkpt lat="37.5713890" lon="-4.2310720">
        <ele>449.0</ele>
        <time>2021-12-28T11:43:40Z</time>
      </trkpt>
      <trkpt lat="37.5713790" lon="-4.2311020">
        <ele>449.0</ele>
        <time>2021-12-28T11:43:41Z</time>
      </trkpt>
      <trkpt lat="37.5713730" lon="-4.2311280">
        <ele>449.0</ele>
        <time>2021-12-28T11:43:42Z</time>
      </trkpt>
      <trkpt lat="37.5713600" lon="-4.2311540">
        <ele>449.2</ele>
        <time>2021-12-28T11:43:43Z</time>
      </trkpt>
      <trkpt lat="37.5713540" lon="-4.2311800">
        <ele>449.2</ele>
        <time>2021-12-28T11:43:44Z</time>
      </trkpt>
      <trkpt lat="37.5713470" lon="-4.2312080">
        <ele>449.2</ele>
        <time>2021-12-28T11:43:45Z</time>
      </trkpt>
      <trkpt lat="37.5713340" lon="-4.2312320">
        <ele>449.4</ele>
        <time>2021-12-28T11:43:46Z</time>
      </trkpt>
      <trkpt lat="37.5713280" lon="-4.2312560">
        <ele>449.4</ele>
        <time>2021-12-28T11:43:47Z</time>
      </trkpt>
      <trkpt lat="37.5713150" lon="-4.2312820">
        <ele>449.6</ele>
        <time>2021-12-28T11:43:48Z</time>
      </trkpt>
      <trkpt lat="37.5713060" lon="-4.2313100">
        <ele>449.6</ele>
        <time>2021-12-28T11:43:49Z</time>
      </trkpt>
      <trkpt lat="37.5712960" lon="-4.2313380">
        <ele>449.8</ele>
        <time>2021-12-28T11:43:50Z</time>
      </trkpt>
      <trkpt lat="37.5712860" lon="-4.2313650">
        <ele>449.8</ele>
        <time>2021-12-28T11:43:51Z</time>
      </trkpt>
      <trkpt lat="37.5712770" lon="-4.2313930">
        <ele>450.0</ele>
        <time>2021-12-28T11:43:52Z</time>
      </trkpt>
      <trkpt lat="37.5712700" lon="-4.2314200">
        <ele>450.0</ele>
        <time>2021-12-28T11:43:53Z</time>
      </trkpt>
      <trkpt lat="37.5712580" lon="-4.2314470">
        <ele>450.2</ele>
        <time>2021-12-28T11:43:54Z</time>
      </trkpt>
      <trkpt lat="37.5712480" lon="-4.2314770">
        <ele>450.2</ele>
        <time>2021-12-28T11:43:55Z</time>
      </trkpt>
      <trkpt lat="37.5712380" lon="-4.2315050">
        <ele>450.2</ele>
        <time>2021-12-28T11:43:56Z</time>
      </trkpt>
      <trkpt lat="37.5712320" lon="-4.2315340">
        <ele>450.4</ele>
        <time>2021-12-28T11:43:57Z</time>
      </trkpt>
      <trkpt lat="37.5712190" lon="-4.2315620">
        <ele>450.4</ele>
        <time>2021-12-28T11:43:58Z</time>
      </trkpt>
      <trkpt lat="37.5712130" lon="-4.2315920">
        <ele>450.4</ele>
        <time>2021-12-28T11:43:59Z</time>
      </trkpt>
      <trkpt lat="37.5712000" lon="-4.2316200">
        <ele>450.4</ele>
        <time>2021-12-28T11:44:00Z</time>
      </trkpt>
      <trkpt lat="37.5711900" lon="-4.2316500">
        <ele>450.6</ele>
        <time>2021-12-28T11:44:01Z</time>
      </trkpt>
      <trkpt lat="37.5711810" lon="-4.2316800">
        <ele>450.6</ele>
        <time>2021-12-28T11:44:02Z</time>
      </trkpt>
      <trkpt lat="37.5711740" lon="-4.2317080">
        <ele>450.6</ele>
        <time>2021-12-28T11:44:03Z</time>
      </trkpt>
      <trkpt lat="37.5711620" lon="-4.2317350">
        <ele>450.6</ele>
        <time>2021-12-28T11:44:04Z</time>
      </trkpt>
      <trkpt lat="37.5711580" lon="-4.2317630">
        <ele>450.8</ele>
        <time>2021-12-28T11:44:05Z</time>
      </trkpt>
      <trkpt lat="37.5711490" lon="-4.2317900">
        <ele>450.8</ele>
        <time>2021-12-28T11:44:06Z</time>
      </trkpt>
      <trkpt lat="37.5711390" lon="-4.2318180">
        <ele>450.8</ele>
        <time>2021-12-28T11:44:07Z</time>
      </trkpt>
      <trkpt lat="37.5711300" lon="-4.2318450">
        <ele>450.8</ele>
        <time>2021-12-28T11:44:08Z</time>
      </trkpt>
      <trkpt lat="37.5711200" lon="-4.2318740">
        <ele>450.8</ele>
        <time>2021-12-28T11:44:09Z</time>
      </trkpt>
      <trkpt lat="37.5711140" lon="-4.2319020">
        <ele>450.8</ele>
        <time>2021-12-28T11:44:10Z</time>
      </trkpt>
      <trkpt lat="37.5711070" lon="-4.2319260">
        <ele>450.8</ele>
        <time>2021-12-28T11:44:11Z</time>
      </trkpt>
      <trkpt lat="37.5710980" lon="-4.2319520">
        <ele>451.0</ele>
        <time>2021-12-28T11:44:12Z</time>
      </trkpt>
      <trkpt lat="37.5710820" lon="-4.2319780">
        <ele>451.0</ele>
        <time>2021-12-28T11:44:13Z</time>
      </trkpt>
      <trkpt lat="37.5710750" lon="-4.2320060">
        <ele>451.2</ele>
        <time>2021-12-28T11:44:14Z</time>
      </trkpt>
      <trkpt lat="37.5710690" lon="-4.2320330">
        <ele>451.2</ele>
        <time>2021-12-28T11:44:15Z</time>
      </trkpt>
      <trkpt lat="37.5710560" lon="-4.2320580">
        <ele>451.2</ele>
        <time>2021-12-28T11:44:16Z</time>
      </trkpt>
      <trkpt lat="37.5710500" lon="-4.2320820">
        <ele>451.2</ele>
        <time>2021-12-28T11:44:17Z</time>
      </trkpt>
      <trkpt lat="37.5710400" lon="-4.2321070">
        <ele>451.4</ele>
        <time>2021-12-28T11:44:18Z</time>
      </trkpt>
      <trkpt lat="37.5710340" lon="-4.2321320">
        <ele>451.4</ele>
        <time>2021-12-28T11:44:19Z</time>
      </trkpt>
      <trkpt lat="37.5710210" lon="-4.2321620">
        <ele>451.4</ele>
        <time>2021-12-28T11:44:20Z</time>
      </trkpt>
      <trkpt lat="37.5710140" lon="-4.2321920">
        <ele>451.4</ele>
        <time>2021-12-28T11:44:21Z</time>
      </trkpt>
      <trkpt lat="37.5710020" lon="-4.2322200">
        <ele>451.4</ele>
        <time>2021-12-28T11:44:22Z</time>
      </trkpt>
      <trkpt lat="37.5709920" lon="-4.2322480">
        <ele>451.4</ele>
        <time>2021-12-28T11:44:23Z</time>
      </trkpt>
      <trkpt lat="37.5709790" lon="-4.2322760">
        <ele>451.6</ele>
        <time>2021-12-28T11:44:24Z</time>
      </trkpt>
      <trkpt lat="37.5709700" lon="-4.2323060">
        <ele>451.6</ele>
        <time>2021-12-28T11:44:25Z</time>
      </trkpt>
      <trkpt lat="37.5709600" lon="-4.2323350">
        <ele>451.6</ele>
        <time>2021-12-28T11:44:26Z</time>
      </trkpt>
      <trkpt lat="37.5709540" lon="-4.2323660">
        <ele>451.6</ele>
        <time>2021-12-28T11:44:27Z</time>
      </trkpt>
      <trkpt lat="37.5709410" lon="-4.2323970">
        <ele>451.6</ele>
        <time>2021-12-28T11:44:28Z</time>
      </trkpt>
      <trkpt lat="37.5709340" lon="-4.2324250">
        <ele>451.6</ele>
        <time>2021-12-28T11:44:29Z</time>
      </trkpt>
      <trkpt lat="37.5709280" lon="-4.2324480">
        <ele>451.6</ele>
        <time>2021-12-28T11:44:30Z</time>
      </trkpt>
      <trkpt lat="37.5709150" lon="-4.2324720">
        <ele>451.6</ele>
        <time>2021-12-28T11:44:31Z</time>
      </trkpt>
      <trkpt lat="37.5709090" lon="-4.2324950">
        <ele>451.6</ele>
        <time>2021-12-28T11:44:32Z</time>
      </trkpt>
      <trkpt lat="37.5708990" lon="-4.2325200">
        <ele>451.8</ele>
        <time>2021-12-28T11:44:33Z</time>
      </trkpt>
      <trkpt lat="37.5708900" lon="-4.2325440">
        <ele>451.8</ele>
        <time>2021-12-28T11:44:34Z</time>
      </trkpt>
      <trkpt lat="37.5708800" lon="-4.2325680">
        <ele>451.8</ele>
        <time>2021-12-28T11:44:35Z</time>
      </trkpt>
      <trkpt lat="37.5708700" lon="-4.2325940">
        <ele>451.8</ele>
        <time>2021-12-28T11:44:36Z</time>
      </trkpt>
      <trkpt lat="37.5708610" lon="-4.2326200">
        <ele>451.8</ele>
        <time>2021-12-28T11:44:37Z</time>
      </trkpt>
      <trkpt lat="37.5708510" lon="-4.2326450">
        <ele>451.8</ele>
        <time>2021-12-28T11:44:38Z</time>
      </trkpt>
      <trkpt lat="37.5708380" lon="-4.2326660">
        <ele>451.8</ele>
        <time>2021-12-28T11:44:39Z</time>
      </trkpt>
      <trkpt lat="37.5708320" lon="-4.2326920">
        <ele>451.8</ele>
        <time>2021-12-28T11:44:40Z</time>
      </trkpt>
      <trkpt lat="37.5708190" lon="-4.2327180">
        <ele>451.8</ele>
        <time>2021-12-28T11:44:41Z</time>
      </trkpt>
      <trkpt lat="37.5708100" lon="-4.2327450">
        <ele>451.8</ele>
        <time>2021-12-28T11:44:42Z</time>
      </trkpt>
      <trkpt lat="37.5707970" lon="-4.2327700">
        <ele>451.8</ele>
        <time>2021-12-28T11:44:43Z</time>
      </trkpt>
      <trkpt lat="37.5707900" lon="-4.2327980">
        <ele>451.8</ele>
        <time>2021-12-28T11:44:44Z</time>
      </trkpt>
      <trkpt lat="37.5707780" lon="-4.2328220">
        <ele>452.0</ele>
        <time>2021-12-28T11:44:45Z</time>
      </trkpt>
      <trkpt lat="37.5707710" lon="-4.2328470">
        <ele>452.0</ele>
        <time>2021-12-28T11:44:46Z</time>
      </trkpt>
      <trkpt lat="37.5707550" lon="-4.2328700">
        <ele>452.0</ele>
        <time>2021-12-28T11:44:47Z</time>
      </trkpt>
      <trkpt lat="37.5707420" lon="-4.2328950">
        <ele>452.0</ele>
        <time>2021-12-28T11:44:48Z</time>
      </trkpt>
      <trkpt lat="37.5707330" lon="-4.2329240">
        <ele>452.0</ele>
        <time>2021-12-28T11:44:49Z</time>
      </trkpt>
      <trkpt lat="37.5707200" lon="-4.2329520">
        <ele>452.0</ele>
        <time>2021-12-28T11:44:50Z</time>
      </trkpt>
      <trkpt lat="37.5707140" lon="-4.2329760">
        <ele>452.0</ele>
        <time>2021-12-28T11:44:51Z</time>
      </trkpt>
      <trkpt lat="37.5707010" lon="-4.2330030">
        <ele>452.0</ele>
        <time>2021-12-28T11:44:52Z</time>
      </trkpt>
      <trkpt lat="37.5706940" lon="-4.2330280">
        <ele>452.2</ele>
        <time>2021-12-28T11:44:53Z</time>
      </trkpt>
      <trkpt lat="37.5706820" lon="-4.2330480">
        <ele>452.2</ele>
        <time>2021-12-28T11:44:54Z</time>
      </trkpt>
      <trkpt lat="37.5706720" lon="-4.2330730">
        <ele>452.2</ele>
        <time>2021-12-28T11:44:55Z</time>
      </trkpt>
      <trkpt lat="37.5706620" lon="-4.2330950">
        <ele>452.2</ele>
        <time>2021-12-28T11:44:56Z</time>
      </trkpt>
      <trkpt lat="37.5706500" lon="-4.2331200">
        <ele>452.4</ele>
        <time>2021-12-28T11:44:57Z</time>
      </trkpt>
      <trkpt lat="37.5706400" lon="-4.2331470">
        <ele>452.4</ele>
        <time>2021-12-28T11:44:58Z</time>
      </trkpt>
      <trkpt lat="37.5706300" lon="-4.2331750">
        <ele>452.4</ele>
        <time>2021-12-28T11:44:59Z</time>
      </trkpt>
      <trkpt lat="37.5706140" lon="-4.2331980">
        <ele>452.4</ele>
        <time>2021-12-28T11:45:00Z</time>
      </trkpt>
      <trkpt lat="37.5706020" lon="-4.2332240">
        <ele>452.6</ele>
        <time>2021-12-28T11:45:01Z</time>
      </trkpt>
      <trkpt lat="37.5705920" lon="-4.2332480">
        <ele>452.6</ele>
        <time>2021-12-28T11:45:02Z</time>
      </trkpt>
      <trkpt lat="37.5705790" lon="-4.2332750">
        <ele>452.6</ele>
        <time>2021-12-28T11:45:03Z</time>
      </trkpt>
      <trkpt lat="37.5705630" lon="-4.2332970">
        <ele>452.8</ele>
        <time>2021-12-28T11:45:04Z</time>
      </trkpt>
      <trkpt lat="37.5705540" lon="-4.2333200">
        <ele>452.8</ele>
        <time>2021-12-28T11:45:05Z</time>
      </trkpt>
      <trkpt lat="37.5705410" lon="-4.2333420">
        <ele>452.8</ele>
        <time>2021-12-28T11:45:06Z</time>
      </trkpt>
      <trkpt lat="37.5705310" lon="-4.2333650">
        <ele>453.0</ele>
        <time>2021-12-28T11:45:07Z</time>
      </trkpt>
      <trkpt lat="37.5705180" lon="-4.2333850">
        <ele>453.0</ele>
        <time>2021-12-28T11:45:08Z</time>
      </trkpt>
      <trkpt lat="37.5705020" lon="-4.2334080">
        <ele>453.0</ele>
        <time>2021-12-28T11:45:09Z</time>
      </trkpt>
      <trkpt lat="37.5704930" lon="-4.2334300">
        <ele>453.0</ele>
        <time>2021-12-28T11:45:10Z</time>
      </trkpt>
      <trkpt lat="37.5704800" lon="-4.2334530">
        <ele>452.8</ele>
        <time>2021-12-28T11:45:11Z</time>
      </trkpt>
      <trkpt lat="37.5704640" lon="-4.2334750">
        <ele>452.8</ele>
        <time>2021-12-28T11:45:12Z</time>
      </trkpt>
      <trkpt lat="37.5704540" lon="-4.2334970">
        <ele>452.8</ele>
        <time>2021-12-28T11:45:13Z</time>
      </trkpt>
      <trkpt lat="37.5704380" lon="-4.2335220">
        <ele>452.8</ele>
        <time>2021-12-28T11:45:14Z</time>
      </trkpt>
      <trkpt lat="37.5704220" lon="-4.2335450">
        <ele>452.8</ele>
        <time>2021-12-28T11:45:15Z</time>
      </trkpt>
      <trkpt lat="37.5704130" lon="-4.2335680">
        <ele>452.8</ele>
        <time>2021-12-28T11:45:16Z</time>
      </trkpt>
      <trkpt lat="37.5703970" lon="-4.2335900">
        <ele>453.0</ele>
        <time>2021-12-28T11:45:17Z</time>
      </trkpt>
      <trkpt lat="37.5703840" lon="-4.2336140">
        <ele>453.0</ele>
        <time>2021-12-28T11:45:18Z</time>
      </trkpt>
      <trkpt lat="37.5703710" lon="-4.2336370">
        <ele>453.2</ele>
        <time>2021-12-28T11:45:19Z</time>
      </trkpt>
      <trkpt lat="37.5703550" lon="-4.2336580">
        <ele>453.2</ele>
        <time>2021-12-28T11:45:20Z</time>
      </trkpt>
      <trkpt lat="37.5703420" lon="-4.2336800">
        <ele>453.2</ele>
        <time>2021-12-28T11:45:21Z</time>
      </trkpt>
      <trkpt lat="37.5703260" lon="-4.2337020">
        <ele>453.4</ele>
        <time>2021-12-28T11:45:22Z</time>
      </trkpt>
      <trkpt lat="37.5703170" lon="-4.2337230">
        <ele>453.4</ele>
        <time>2021-12-28T11:45:23Z</time>
      </trkpt>
      <trkpt lat="37.5703040" lon="-4.2337450">
        <ele>453.4</ele>
        <time>2021-12-28T11:45:24Z</time>
      </trkpt>
      <trkpt lat="37.5702910" lon="-4.2337680">
        <ele>453.4</ele>
        <time>2021-12-28T11:45:25Z</time>
      </trkpt>
      <trkpt lat="37.5702750" lon="-4.2337900">
        <ele>453.4</ele>
        <time>2021-12-28T11:45:26Z</time>
      </trkpt>
      <trkpt lat="37.5702590" lon="-4.2338130">
        <ele>453.4</ele>
        <time>2021-12-28T11:45:27Z</time>
      </trkpt>
      <trkpt lat="37.5702430" lon="-4.2338320">
        <ele>453.4</ele>
        <time>2021-12-28T11:45:28Z</time>
      </trkpt>
      <trkpt lat="37.5702270" lon="-4.2338550">
        <ele>453.4</ele>
        <time>2021-12-28T11:45:29Z</time>
      </trkpt>
      <trkpt lat="37.5702140" lon="-4.2338780">
        <ele>453.4</ele>
        <time>2021-12-28T11:45:30Z</time>
      </trkpt>
      <trkpt lat="37.5701980" lon="-4.2339000">
        <ele>453.4</ele>
        <time>2021-12-28T11:45:31Z</time>
      </trkpt>
      <trkpt lat="37.5701820" lon="-4.2339220">
        <ele>453.4</ele>
        <time>2021-12-28T11:45:32Z</time>
      </trkpt>
      <trkpt lat="37.5701630" lon="-4.2339420">
        <ele>453.4</ele>
        <time>2021-12-28T11:45:33Z</time>
      </trkpt>
      <trkpt lat="37.5701470" lon="-4.2339620">
        <ele>453.4</ele>
        <time>2021-12-28T11:45:34Z</time>
      </trkpt>
      <trkpt lat="37.5701340" lon="-4.2339820">
        <ele>453.4</ele>
        <time>2021-12-28T11:45:35Z</time>
      </trkpt>
      <trkpt lat="37.5701150" lon="-4.2340000">
        <ele>453.4</ele>
        <time>2021-12-28T11:45:36Z</time>
      </trkpt>
      <trkpt lat="37.5700990" lon="-4.2340180">
        <ele>453.2</ele>
        <time>2021-12-28T11:45:37Z</time>
      </trkpt>
      <trkpt lat="37.5700830" lon="-4.2340380">
        <ele>453.2</ele>
        <time>2021-12-28T11:45:38Z</time>
      </trkpt>
      <trkpt lat="37.5700670" lon="-4.2340550">
        <ele>453.0</ele>
        <time>2021-12-28T11:45:39Z</time>
      </trkpt>
      <trkpt lat="37.5700540" lon="-4.2340730">
        <ele>453.0</ele>
        <time>2021-12-28T11:45:40Z</time>
      </trkpt>
      <trkpt lat="37.5700380" lon="-4.2340930">
        <ele>453.0</ele>
        <time>2021-12-28T11:45:41Z</time>
      </trkpt>
      <trkpt lat="37.5700220" lon="-4.2341120">
        <ele>453.0</ele>
        <time>2021-12-28T11:45:42Z</time>
      </trkpt>
      <trkpt lat="37.5700030" lon="-4.2341320">
        <ele>453.0</ele>
        <time>2021-12-28T11:45:43Z</time>
      </trkpt>
      <trkpt lat="37.5699870" lon="-4.2341530">
        <ele>453.0</ele>
        <time>2021-12-28T11:45:44Z</time>
      </trkpt>
      <trkpt lat="37.5699740" lon="-4.2341770">
        <ele>453.0</ele>
        <time>2021-12-28T11:45:45Z</time>
      </trkpt>
      <trkpt lat="37.5699580" lon="-4.2341970">
        <ele>453.2</ele>
        <time>2021-12-28T11:45:46Z</time>
      </trkpt>
      <trkpt lat="37.5699390" lon="-4.2342150">
        <ele>453.2</ele>
        <time>2021-12-28T11:45:47Z</time>
      </trkpt>
      <trkpt lat="37.5699230" lon="-4.2342350">
        <ele>453.2</ele>
        <time>2021-12-28T11:45:48Z</time>
      </trkpt>
      <trkpt lat="37.5699010" lon="-4.2342570">
        <ele>453.4</ele>
        <time>2021-12-28T11:45:49Z</time>
      </trkpt>
      <trkpt lat="37.5698850" lon="-4.2342770">
        <ele>453.4</ele>
        <time>2021-12-28T11:45:50Z</time>
      </trkpt>
      <trkpt lat="37.5698660" lon="-4.2342970">
        <ele>453.4</ele>
        <time>2021-12-28T11:45:51Z</time>
      </trkpt>
      <trkpt lat="37.5698460" lon="-4.2343180">
        <ele>453.4</ele>
        <time>2021-12-28T11:45:52Z</time>
      </trkpt>
      <trkpt lat="37.5698300" lon="-4.2343400">
        <ele>453.4</ele>
        <time>2021-12-28T11:45:53Z</time>
      </trkpt>
      <trkpt lat="37.5698180" lon="-4.2343620">
        <ele>453.6</ele>
        <time>2021-12-28T11:45:54Z</time>
      </trkpt>
      <trkpt lat="37.5698020" lon="-4.2343800">
        <ele>453.6</ele>
        <time>2021-12-28T11:45:55Z</time>
      </trkpt>
      <trkpt lat="37.5697790" lon="-4.2343960">
        <ele>453.6</ele>
        <time>2021-12-28T11:45:56Z</time>
      </trkpt>
      <trkpt lat="37.5697630" lon="-4.2344160">
        <ele>453.6</ele>
        <time>2021-12-28T11:45:57Z</time>
      </trkpt>
      <trkpt lat="37.5697440" lon="-4.2344380">
        <ele>453.6</ele>
        <time>2021-12-28T11:45:58Z</time>
      </trkpt>
      <trkpt lat="37.5697250" lon="-4.2344600">
        <ele>453.6</ele>
        <time>2021-12-28T11:45:59Z</time>
      </trkpt>
      <trkpt lat="37.5697060" lon="-4.2344820">
        <ele>453.6</ele>
        <time>2021-12-28T11:46:00Z</time>
      </trkpt>
      <trkpt lat="37.5696860" lon="-4.2345020">
        <ele>453.6</ele>
        <time>2021-12-28T11:46:01Z</time>
      </trkpt>
      <trkpt lat="37.5696640" lon="-4.2345230">
        <ele>453.6</ele>
        <time>2021-12-28T11:46:02Z</time>
      </trkpt>
      <trkpt lat="37.5696450" lon="-4.2345420">
        <ele>453.6</ele>
        <time>2021-12-28T11:46:03Z</time>
      </trkpt>
      <trkpt lat="37.5696260" lon="-4.2345620">
        <ele>453.6</ele>
        <time>2021-12-28T11:46:04Z</time>
      </trkpt>
      <trkpt lat="37.5696060" lon="-4.2345780">
        <ele>453.8</ele>
        <time>2021-12-28T11:46:05Z</time>
      </trkpt>
      <trkpt lat="37.5695870" lon="-4.2345950">
        <ele>453.8</ele>
        <time>2021-12-28T11:46:06Z</time>
      </trkpt>
      <trkpt lat="37.5695650" lon="-4.2346140">
        <ele>453.8</ele>
        <time>2021-12-28T11:46:07Z</time>
      </trkpt>
      <trkpt lat="37.5695460" lon="-4.2346340">
        <ele>453.8</ele>
        <time>2021-12-28T11:46:08Z</time>
      </trkpt>
      <trkpt lat="37.5695260" lon="-4.2346540">
        <ele>454.0</ele>
        <time>2021-12-28T11:46:09Z</time>
      </trkpt>
      <trkpt lat="37.5695040" lon="-4.2346720">
        <ele>454.0</ele>
        <time>2021-12-28T11:46:10Z</time>
      </trkpt>
      <trkpt lat="37.5694850" lon="-4.2346900">
        <ele>454.2</ele>
        <time>2021-12-28T11:46:11Z</time>
      </trkpt>
      <trkpt lat="37.5694660" lon="-4.2347070">
        <ele>454.2</ele>
        <time>2021-12-28T11:46:12Z</time>
      </trkpt>
      <trkpt lat="37.5694460" lon="-4.2347220">
        <ele>454.2</ele>
        <time>2021-12-28T11:46:13Z</time>
      </trkpt>
      <trkpt lat="37.5694270" lon="-4.2347350">
        <ele>454.4</ele>
        <time>2021-12-28T11:46:14Z</time>
      </trkpt>
      <trkpt lat="37.5694080" lon="-4.2347530">
        <ele>454.4</ele>
        <time>2021-12-28T11:46:15Z</time>
      </trkpt>
      <trkpt lat="37.5693860" lon="-4.2347700">
        <ele>454.4</ele>
        <time>2021-12-28T11:46:16Z</time>
      </trkpt>
      <trkpt lat="37.5693660" lon="-4.2347850">
        <ele>454.4</ele>
        <time>2021-12-28T11:46:17Z</time>
      </trkpt>
      <trkpt lat="37.5693440" lon="-4.2348000">
        <ele>454.4</ele>
        <time>2021-12-28T11:46:18Z</time>
      </trkpt>
      <trkpt lat="37.5693250" lon="-4.2348130">
        <ele>454.6</ele>
        <time>2021-12-28T11:46:19Z</time>
      </trkpt>
      <trkpt lat="37.5693020" lon="-4.2348260">
        <ele>454.6</ele>
        <time>2021-12-28T11:46:20Z</time>
      </trkpt>
      <trkpt lat="37.5692830" lon="-4.2348400">
        <ele>454.8</ele>
        <time>2021-12-28T11:46:21Z</time>
      </trkpt>
      <trkpt lat="37.5692670" lon="-4.2348570">
        <ele>454.8</ele>
        <time>2021-12-28T11:46:22Z</time>
      </trkpt>
      <trkpt lat="37.5692510" lon="-4.2348720">
        <ele>454.8</ele>
        <time>2021-12-28T11:46:23Z</time>
      </trkpt>
      <trkpt lat="37.5692320" lon="-4.2348830">
        <ele>454.8</ele>
        <time>2021-12-28T11:46:24Z</time>
      </trkpt>
      <trkpt lat="37.5692100" lon="-4.2348930">
        <ele>454.8</ele>
        <time>2021-12-28T11:46:25Z</time>
      </trkpt>
      <trkpt lat="37.5691900" lon="-4.2349070">
        <ele>454.8</ele>
        <time>2021-12-28T11:46:26Z</time>
      </trkpt>
      <trkpt lat="37.5691680" lon="-4.2349220">
        <ele>454.8</ele>
        <time>2021-12-28T11:46:27Z</time>
      </trkpt>
      <trkpt lat="37.5691490" lon="-4.2349370">
        <ele>454.8</ele>
        <time>2021-12-28T11:46:28Z</time>
      </trkpt>
      <trkpt lat="37.5691300" lon="-4.2349520">
        <ele>454.8</ele>
        <time>2021-12-28T11:46:29Z</time>
      </trkpt>
      <trkpt lat="37.5691070" lon="-4.2349670">
        <ele>454.8</ele>
        <time>2021-12-28T11:46:30Z</time>
      </trkpt>
      <trkpt lat="37.5690880" lon="-4.2349780">
        <ele>454.8</ele>
        <time>2021-12-28T11:46:31Z</time>
      </trkpt>
      <trkpt lat="37.5690690" lon="-4.2349940">
        <ele>454.8</ele>
        <time>2021-12-28T11:46:32Z</time>
      </trkpt>
      <trkpt lat="37.5690500" lon="-4.2350080">
        <ele>454.8</ele>
        <time>2021-12-28T11:46:33Z</time>
      </trkpt>
      <trkpt lat="37.5690300" lon="-4.2350240">
        <ele>455.0</ele>
        <time>2021-12-28T11:46:34Z</time>
      </trkpt>
      <trkpt lat="37.5690110" lon="-4.2350350">
        <ele>455.0</ele>
        <time>2021-12-28T11:46:35Z</time>
      </trkpt>
      <trkpt lat="37.5689920" lon="-4.2350500">
        <ele>455.0</ele>
        <time>2021-12-28T11:46:36Z</time>
      </trkpt>
      <trkpt lat="37.5689730" lon="-4.2350640">
        <ele>455.0</ele>
        <time>2021-12-28T11:46:37Z</time>
      </trkpt>
      <trkpt lat="37.5689500" lon="-4.2350750">
        <ele>455.0</ele>
        <time>2021-12-28T11:46:38Z</time>
      </trkpt>
      <trkpt lat="37.5689310" lon="-4.2350880">
        <ele>455.2</ele>
        <time>2021-12-28T11:46:39Z</time>
      </trkpt>
      <trkpt lat="37.5689090" lon="-4.2351000">
        <ele>455.4</ele>
        <time>2021-12-28T11:46:40Z</time>
      </trkpt>
      <trkpt lat="37.5688900" lon="-4.2351120">
        <ele>455.4</ele>
        <time>2021-12-28T11:46:41Z</time>
      </trkpt>
      <trkpt lat="37.5688700" lon="-4.2351200">
        <ele>455.6</ele>
        <time>2021-12-28T11:46:42Z</time>
      </trkpt>
      <trkpt lat="37.5688480" lon="-4.2351280">
        <ele>455.8</ele>
        <time>2021-12-28T11:46:43Z</time>
      </trkpt>
      <trkpt lat="37.5688290" lon="-4.2351350">
        <ele>455.8</ele>
        <time>2021-12-28T11:46:44Z</time>
      </trkpt>
      <trkpt lat="37.5688100" lon="-4.2351460">
        <ele>456.0</ele>
        <time>2021-12-28T11:46:45Z</time>
      </trkpt>
      <trkpt lat="37.5687900" lon="-4.2351530">
        <ele>456.2</ele>
        <time>2021-12-28T11:46:46Z</time>
      </trkpt>
      <trkpt lat="37.5687900" lon="-4.2351530">
        <ele>456.2</ele>
        <time>2021-12-28T11:46:47Z</time>
      </trkpt>
      <trkpt lat="37.5687460" lon="-4.2351800">
        <ele>456.4</ele>
        <time>2021-12-28T11:46:48Z</time>
      </trkpt>
      <trkpt lat="37.5687360" lon="-4.2351860">
        <ele>456.4</ele>
        <time>2021-12-28T11:46:49Z</time>
      </trkpt>
      <trkpt lat="37.5687170" lon="-4.2352000">
        <ele>456.6</ele>
        <time>2021-12-28T11:46:50Z</time>
      </trkpt>
      <trkpt lat="37.5686940" lon="-4.2352130">
        <ele>456.6</ele>
        <time>2021-12-28T11:46:51Z</time>
      </trkpt>
      <trkpt lat="37.5686750" lon="-4.2352230">
        <ele>456.8</ele>
        <time>2021-12-28T11:46:52Z</time>
      </trkpt>
      <trkpt lat="37.5686560" lon="-4.2352350">
        <ele>457.0</ele>
        <time>2021-12-28T11:46:53Z</time>
      </trkpt>
      <trkpt lat="37.5686340" lon="-4.2352500">
        <ele>457.0</ele>
        <time>2021-12-28T11:46:54Z</time>
      </trkpt>
      <trkpt lat="37.5686140" lon="-4.2352670">
        <ele>457.0</ele>
        <time>2021-12-28T11:46:55Z</time>
      </trkpt>
      <trkpt lat="37.5685980" lon="-4.2352820">
        <ele>457.2</ele>
        <time>2021-12-28T11:46:56Z</time>
      </trkpt>
      <trkpt lat="37.5685790" lon="-4.2352900">
        <ele>457.2</ele>
        <time>2021-12-28T11:46:57Z</time>
      </trkpt>
      <trkpt lat="37.5685600" lon="-4.2352980">
        <ele>457.4</ele>
        <time>2021-12-28T11:46:58Z</time>
      </trkpt>
      <trkpt lat="37.5685600" lon="-4.2352980">
        <ele>457.6</ele>
        <time>2021-12-28T11:46:59Z</time>
      </trkpt>
      <trkpt lat="37.5685340" lon="-4.2353140">
        <ele>457.6</ele>
        <time>2021-12-28T11:47:00Z</time>
      </trkpt>
      <trkpt lat="37.5685340" lon="-4.2353140">
        <ele>457.8</ele>
        <time>2021-12-28T11:47:01Z</time>
      </trkpt>
      <trkpt lat="37.5685060" lon="-4.2353250">
        <ele>458.0</ele>
        <time>2021-12-28T11:47:02Z</time>
      </trkpt>
      <trkpt lat="37.5685060" lon="-4.2353250">
        <ele>458.0</ele>
        <time>2021-12-28T11:47:03Z</time>
      </trkpt>
      <trkpt lat="37.5684770" lon="-4.2353380">
        <ele>458.2</ele>
        <time>2021-12-28T11:47:04Z</time>
      </trkpt>
      <trkpt lat="37.5684770" lon="-4.2353380">
        <ele>458.4</ele>
        <time>2021-12-28T11:47:05Z</time>
      </trkpt>
      <trkpt lat="37.5684580" lon="-4.2353550">
        <ele>458.6</ele>
        <time>2021-12-28T11:47:06Z</time>
      </trkpt>
      <trkpt lat="37.5684580" lon="-4.2353550">
        <ele>458.8</ele>
        <time>2021-12-28T11:47:07Z</time>
      </trkpt>
      <trkpt lat="37.5684320" lon="-4.2353700">
        <ele>459.0</ele>
        <time>2021-12-28T11:47:08Z</time>
      </trkpt>
      <trkpt lat="37.5684130" lon="-4.2353750">
        <ele>459.2</ele>
        <time>2021-12-28T11:47:09Z</time>
      </trkpt>
      <trkpt lat="37.5684130" lon="-4.2353750">
        <ele>459.4</ele>
        <time>2021-12-28T11:47:10Z</time>
      </trkpt>
      <trkpt lat="37.5683810" lon="-4.2353920">
        <ele>459.6</ele>
        <time>2021-12-28T11:47:11Z</time>
      </trkpt>
      <trkpt lat="37.5683620" lon="-4.2354020">
        <ele>459.6</ele>
        <time>2021-12-28T11:47:12Z</time>
      </trkpt>
      <trkpt lat="37.5683620" lon="-4.2354020">
        <ele>459.8</ele>
        <time>2021-12-28T11:47:13Z</time>
      </trkpt>
      <trkpt lat="37.5683330" lon="-4.2354180">
        <ele>460.0</ele>
        <time>2021-12-28T11:47:14Z</time>
      </trkpt>
      <trkpt lat="37.5683170" lon="-4.2354300">
        <ele>460.2</ele>
        <time>2021-12-28T11:47:15Z</time>
      </trkpt>
      <trkpt lat="37.5682980" lon="-4.2354380">
        <ele>460.4</ele>
        <time>2021-12-28T11:47:16Z</time>
      </trkpt>
      <trkpt lat="37.5682980" lon="-4.2354380">
        <ele>460.4</ele>
        <time>2021-12-28T11:47:17Z</time>
      </trkpt>
      <trkpt lat="37.5682690" lon="-4.2354600">
        <ele>460.6</ele>
        <time>2021-12-28T11:47:18Z</time>
      </trkpt>
      <trkpt lat="37.5682500" lon="-4.2354680">
        <ele>460.6</ele>
        <time>2021-12-28T11:47:19Z</time>
      </trkpt>
      <trkpt lat="37.5682500" lon="-4.2354680">
        <ele>460.8</ele>
        <time>2021-12-28T11:47:20Z</time>
      </trkpt>
      <trkpt lat="37.5682140" lon="-4.2354850">
        <ele>460.8</ele>
        <time>2021-12-28T11:47:21Z</time>
      </trkpt>
      <trkpt lat="37.5682140" lon="-4.2354850">
        <ele>461.0</ele>
        <time>2021-12-28T11:47:22Z</time>
      </trkpt>
      <trkpt lat="37.5681790" lon="-4.2355080">
        <ele>461.0</ele>
        <time>2021-12-28T11:47:23Z</time>
      </trkpt>
      <trkpt lat="37.5681570" lon="-4.2355200">
        <ele>461.0</ele>
        <time>2021-12-28T11:47:24Z</time>
      </trkpt>
      <trkpt lat="37.5681220" lon="-4.2355400">
        <ele>461.2</ele>
        <time>2021-12-28T11:47:25Z</time>
      </trkpt>
      <trkpt lat="37.5680830" lon="-4.2355670">
        <ele>461.2</ele>
        <time>2021-12-28T11:47:26Z</time>
      </trkpt>
      <trkpt lat="37.5680350" lon="-4.2355980">
        <ele>461.2</ele>
        <time>2021-12-28T11:47:27Z</time>
      </trkpt>
      <trkpt lat="37.5679940" lon="-4.2356300">
        <ele>461.2</ele>
        <time>2021-12-28T11:47:28Z</time>
      </trkpt>
      <trkpt lat="37.5679420" lon="-4.2356620">
        <ele>461.2</ele>
        <time>2021-12-28T11:47:29Z</time>
      </trkpt>
      <trkpt lat="37.5678980" lon="-4.2356920">
        <ele>461.4</ele>
        <time>2021-12-28T11:47:30Z</time>
      </trkpt>
      <trkpt lat="37.5678430" lon="-4.2357240">
        <ele>461.6</ele>
        <time>2021-12-28T11:47:31Z</time>
      </trkpt>
      <trkpt lat="37.5677860" lon="-4.2357570">
        <ele>461.6</ele>
        <time>2021-12-28T11:47:32Z</time>
      </trkpt>
      <trkpt lat="37.5677310" lon="-4.2357930">
        <ele>461.6</ele>
        <time>2021-12-28T11:47:33Z</time>
      </trkpt>
      <trkpt lat="37.5676770" lon="-4.2358300">
        <ele>461.6</ele>
        <time>2021-12-28T11:47:34Z</time>
      </trkpt>
      <trkpt lat="37.5676220" lon="-4.2358660">
        <ele>461.6</ele>
        <time>2021-12-28T11:47:35Z</time>
      </trkpt>
      <trkpt lat="37.5675740" lon="-4.2359050">
        <ele>461.4</ele>
        <time>2021-12-28T11:47:36Z</time>
      </trkpt>
      <trkpt lat="37.5675230" lon="-4.2359450">
        <ele>461.4</ele>
        <time>2021-12-28T11:47:37Z</time>
      </trkpt>
      <trkpt lat="37.5674820" lon="-4.2359820">
        <ele>461.4</ele>
        <time>2021-12-28T11:47:38Z</time>
      </trkpt>
      <trkpt lat="37.5674430" lon="-4.2360200">
        <ele>461.2</ele>
        <time>2021-12-28T11:47:39Z</time>
      </trkpt>
      <trkpt lat="37.5674080" lon="-4.2360540">
        <ele>461.2</ele>
        <time>2021-12-28T11:47:40Z</time>
      </trkpt>
      <trkpt lat="37.5673760" lon="-4.2360870">
        <ele>461.0</ele>
        <time>2021-12-28T11:47:41Z</time>
      </trkpt>
      <trkpt lat="37.5673470" lon="-4.2361180">
        <ele>461.0</ele>
        <time>2021-12-28T11:47:42Z</time>
      </trkpt>
      <trkpt lat="37.5673180" lon="-4.2361520">
        <ele>461.0</ele>
        <time>2021-12-28T11:47:43Z</time>
      </trkpt>
      <trkpt lat="37.5672930" lon="-4.2361830">
        <ele>460.8</ele>
        <time>2021-12-28T11:47:44Z</time>
      </trkpt>
      <trkpt lat="37.5672670" lon="-4.2362120">
        <ele>460.6</ele>
        <time>2021-12-28T11:47:45Z</time>
      </trkpt>
      <trkpt lat="37.5672480" lon="-4.2362400">
        <ele>460.6</ele>
        <time>2021-12-28T11:47:46Z</time>
      </trkpt>
      <trkpt lat="37.5672260" lon="-4.2362630">
        <ele>460.6</ele>
        <time>2021-12-28T11:47:47Z</time>
      </trkpt>
      <trkpt lat="37.5672100" lon="-4.2362870">
        <ele>460.4</ele>
        <time>2021-12-28T11:47:48Z</time>
      </trkpt>
      <trkpt lat="37.5671940" lon="-4.2363100">
        <ele>460.4</ele>
        <time>2021-12-28T11:47:49Z</time>
      </trkpt>
      <trkpt lat="37.5671780" lon="-4.2363330">
        <ele>460.4</ele>
        <time>2021-12-28T11:47:50Z</time>
      </trkpt>
      <trkpt lat="37.5671620" lon="-4.2363550">
        <ele>460.4</ele>
        <time>2021-12-28T11:47:51Z</time>
      </trkpt>
      <trkpt lat="37.5671490" lon="-4.2363770">
        <ele>460.4</ele>
        <time>2021-12-28T11:47:52Z</time>
      </trkpt>
      <trkpt lat="37.5671490" lon="-4.2363770">
        <ele>460.2</ele>
        <time>2021-12-28T11:47:53Z</time>
      </trkpt>
      <trkpt lat="37.5671260" lon="-4.2363980">
        <ele>460.2</ele>
        <time>2021-12-28T11:47:54Z</time>
      </trkpt>
      <trkpt lat="37.5671260" lon="-4.2363980">
        <ele>460.0</ele>
        <time>2021-12-28T11:47:55Z</time>
      </trkpt>
      <trkpt lat="37.5671260" lon="-4.2363980">
        <ele>460.0</ele>
        <time>2021-12-28T11:47:56Z</time>
      </trkpt>
      <trkpt lat="37.5671260" lon="-4.2363980">
        <ele>460.0</ele>
        <time>2021-12-28T11:47:57Z</time>
      </trkpt>
      <trkpt lat="37.5671260" lon="-4.2363980">
        <ele>459.8</ele>
        <time>2021-12-28T11:47:58Z</time>
      </trkpt>
      <trkpt lat="37.5671260" lon="-4.2363980">
        <ele>459.8</ele>
        <time>2021-12-28T11:48:15Z</time>
      </trkpt>
      <trkpt lat="37.5670460" lon="-4.2365060">
        <ele>459.8</ele>
        <time>2021-12-28T11:48:16Z</time>
      </trkpt>
      <trkpt lat="37.5670370" lon="-4.2365320">
        <ele>460.0</ele>
        <time>2021-12-28T11:48:17Z</time>
      </trkpt>
      <trkpt lat="37.5670240" lon="-4.2365550">
        <ele>460.0</ele>
        <time>2021-12-28T11:48:18Z</time>
      </trkpt>
      <trkpt lat="37.5670080" lon="-4.2365760">
        <ele>460.0</ele>
        <time>2021-12-28T11:48:19Z</time>
      </trkpt>
      <trkpt lat="37.5669950" lon="-4.2366000">
        <ele>460.0</ele>
        <time>2021-12-28T11:48:20Z</time>
      </trkpt>
      <trkpt lat="37.5669820" lon="-4.2366220">
        <ele>460.0</ele>
        <time>2021-12-28T11:48:21Z</time>
      </trkpt>
      <trkpt lat="37.5669660" lon="-4.2366430">
        <ele>460.0</ele>
        <time>2021-12-28T11:48:22Z</time>
      </trkpt>
      <trkpt lat="37.5669570" lon="-4.2366650">
        <ele>460.0</ele>
        <time>2021-12-28T11:48:23Z</time>
      </trkpt>
      <trkpt lat="37.5669570" lon="-4.2366650">
        <ele>460.0</ele>
        <time>2021-12-28T11:48:24Z</time>
      </trkpt>
      <trkpt lat="37.5669380" lon="-4.2367030">
        <ele>460.0</ele>
        <time>2021-12-28T11:48:25Z</time>
      </trkpt>
      <trkpt lat="37.5669220" lon="-4.2367250">
        <ele>460.0</ele>
        <time>2021-12-28T11:48:26Z</time>
      </trkpt>
      <trkpt lat="37.5669060" lon="-4.2367500">
        <ele>460.0</ele>
        <time>2021-12-28T11:48:27Z</time>
      </trkpt>
      <trkpt lat="37.5668960" lon="-4.2367740">
        <ele>460.0</ele>
        <time>2021-12-28T11:48:28Z</time>
      </trkpt>
      <trkpt lat="37.5668830" lon="-4.2367970">
        <ele>460.2</ele>
        <time>2021-12-28T11:48:29Z</time>
      </trkpt>
      <trkpt lat="37.5668700" lon="-4.2368180">
        <ele>460.2</ele>
        <time>2021-12-28T11:48:30Z</time>
      </trkpt>
      <trkpt lat="37.5668640" lon="-4.2368400">
        <ele>460.2</ele>
        <time>2021-12-28T11:48:31Z</time>
      </trkpt>
      <trkpt lat="37.5668510" lon="-4.2368580">
        <ele>460.2</ele>
        <time>2021-12-28T11:48:32Z</time>
      </trkpt>
      <trkpt lat="37.5668380" lon="-4.2368800">
        <ele>460.2</ele>
        <time>2021-12-28T11:48:33Z</time>
      </trkpt>
      <trkpt lat="37.5668260" lon="-4.2369030">
        <ele>460.2</ele>
        <time>2021-12-28T11:48:34Z</time>
      </trkpt>
      <trkpt lat="37.5668160" lon="-4.2369300">
        <ele>460.2</ele>
        <time>2021-12-28T11:48:35Z</time>
      </trkpt>
      <trkpt lat="37.5668030" lon="-4.2369550">
        <ele>460.2</ele>
        <time>2021-12-28T11:48:36Z</time>
      </trkpt>
      <trkpt lat="37.5667900" lon="-4.2369800">
        <ele>460.2</ele>
        <time>2021-12-28T11:48:37Z</time>
      </trkpt>
      <trkpt lat="37.5667810" lon="-4.2370070">
        <ele>460.2</ele>
        <time>2021-12-28T11:48:38Z</time>
      </trkpt>
      <trkpt lat="37.5667710" lon="-4.2370350">
        <ele>460.2</ele>
        <time>2021-12-28T11:48:39Z</time>
      </trkpt>
      <trkpt lat="37.5667620" lon="-4.2370600">
        <ele>460.2</ele>
        <time>2021-12-28T11:48:40Z</time>
      </trkpt>
      <trkpt lat="37.5667490" lon="-4.2370820">
        <ele>460.4</ele>
        <time>2021-12-28T11:48:41Z</time>
      </trkpt>
      <trkpt lat="37.5667390" lon="-4.2371040">
        <ele>460.4</ele>
        <time>2021-12-28T11:48:42Z</time>
      </trkpt>
      <trkpt lat="37.5667260" lon="-4.2371270">
        <ele>460.4</ele>
        <time>2021-12-28T11:48:43Z</time>
      </trkpt>
      <trkpt lat="37.5667170" lon="-4.2371550">
        <ele>460.6</ele>
        <time>2021-12-28T11:48:44Z</time>
      </trkpt>
      <trkpt lat="37.5667070" lon="-4.2371780">
        <ele>460.4</ele>
        <time>2021-12-28T11:48:45Z</time>
      </trkpt>
      <trkpt lat="37.5667070" lon="-4.2371780">
        <ele>460.4</ele>
        <time>2021-12-28T11:48:46Z</time>
      </trkpt>
      <trkpt lat="37.5666880" lon="-4.2372130">
        <ele>460.4</ele>
        <time>2021-12-28T11:48:47Z</time>
      </trkpt>
      <trkpt lat="37.5666880" lon="-4.2372130">
        <ele>460.4</ele>
        <time>2021-12-28T11:48:48Z</time>
      </trkpt>
      <trkpt lat="37.5666720" lon="-4.2372500">
        <ele>460.4</ele>
        <time>2021-12-28T11:48:49Z</time>
      </trkpt>
      <trkpt lat="37.5666620" lon="-4.2372730">
        <ele>460.4</ele>
        <time>2021-12-28T11:48:50Z</time>
      </trkpt>
      <trkpt lat="37.5666530" lon="-4.2372950">
        <ele>460.6</ele>
        <time>2021-12-28T11:48:51Z</time>
      </trkpt>
      <trkpt lat="37.5666460" lon="-4.2373180">
        <ele>460.6</ele>
        <time>2021-12-28T11:48:52Z</time>
      </trkpt>
      <trkpt lat="37.5666400" lon="-4.2373430">
        <ele>460.6</ele>
        <time>2021-12-28T11:48:53Z</time>
      </trkpt>
      <trkpt lat="37.5666270" lon="-4.2373680">
        <ele>460.4</ele>
        <time>2021-12-28T11:48:54Z</time>
      </trkpt>
      <trkpt lat="37.5666180" lon="-4.2373920">
        <ele>460.6</ele>
        <time>2021-12-28T11:48:55Z</time>
      </trkpt>
      <trkpt lat="37.5666080" lon="-4.2374180">
        <ele>460.6</ele>
        <time>2021-12-28T11:48:56Z</time>
      </trkpt>
      <trkpt lat="37.5665980" lon="-4.2374440">
        <ele>460.6</ele>
        <time>2021-12-28T11:48:57Z</time>
      </trkpt>
      <trkpt lat="37.5665890" lon="-4.2374680">
        <ele>460.6</ele>
        <time>2021-12-28T11:48:58Z</time>
      </trkpt>
      <trkpt lat="37.5665820" lon="-4.2374920">
        <ele>460.6</ele>
        <time>2021-12-28T11:48:59Z</time>
      </trkpt>
      <trkpt lat="37.5665730" lon="-4.2375150">
        <ele>460.6</ele>
        <time>2021-12-28T11:49:00Z</time>
      </trkpt>
      <trkpt lat="37.5665660" lon="-4.2375380">
        <ele>460.4</ele>
        <time>2021-12-28T11:49:01Z</time>
      </trkpt>
      <trkpt lat="37.5665540" lon="-4.2375620">
        <ele>460.4</ele>
        <time>2021-12-28T11:49:02Z</time>
      </trkpt>
      <trkpt lat="37.5665470" lon="-4.2375850">
        <ele>460.4</ele>
        <time>2021-12-28T11:49:03Z</time>
      </trkpt>
      <trkpt lat="37.5665410" lon="-4.2376060">
        <ele>460.2</ele>
        <time>2021-12-28T11:49:04Z</time>
      </trkpt>
      <trkpt lat="37.5665280" lon="-4.2376320">
        <ele>460.2</ele>
        <time>2021-12-28T11:49:05Z</time>
      </trkpt>
      <trkpt lat="37.5665220" lon="-4.2376580">
        <ele>460.4</ele>
        <time>2021-12-28T11:49:06Z</time>
      </trkpt>
      <trkpt lat="37.5665120" lon="-4.2376820">
        <ele>460.4</ele>
        <time>2021-12-28T11:49:07Z</time>
      </trkpt>
      <trkpt lat="37.5665020" lon="-4.2377030">
        <ele>460.4</ele>
        <time>2021-12-28T11:49:08Z</time>
      </trkpt>
      <trkpt lat="37.5664930" lon="-4.2377250">
        <ele>460.4</ele>
        <time>2021-12-28T11:49:09Z</time>
      </trkpt>
      <trkpt lat="37.5664930" lon="-4.2377250">
        <ele>460.6</ele>
        <time>2021-12-28T11:49:10Z</time>
      </trkpt>
      <trkpt lat="37.5664800" lon="-4.2377700">
        <ele>460.6</ele>
        <time>2021-12-28T11:49:11Z</time>
      </trkpt>
      <trkpt lat="37.5664700" lon="-4.2377920">
        <ele>460.6</ele>
        <time>2021-12-28T11:49:12Z</time>
      </trkpt>
      <trkpt lat="37.5664610" lon="-4.2378170">
        <ele>460.8</ele>
        <time>2021-12-28T11:49:13Z</time>
      </trkpt>
      <trkpt lat="37.5664510" lon="-4.2378400">
        <ele>460.8</ele>
        <time>2021-12-28T11:49:14Z</time>
      </trkpt>
      <trkpt lat="37.5664420" lon="-4.2378640">
        <ele>460.8</ele>
        <time>2021-12-28T11:49:15Z</time>
      </trkpt>
      <trkpt lat="37.5664320" lon="-4.2378850">
        <ele>460.8</ele>
        <time>2021-12-28T11:49:16Z</time>
      </trkpt>
      <trkpt lat="37.5664260" lon="-4.2379100">
        <ele>460.8</ele>
        <time>2021-12-28T11:49:17Z</time>
      </trkpt>
      <trkpt lat="37.5664130" lon="-4.2379330">
        <ele>460.8</ele>
        <time>2021-12-28T11:49:18Z</time>
      </trkpt>
      <trkpt lat="37.5664060" lon="-4.2379550">
        <ele>460.8</ele>
        <time>2021-12-28T11:49:19Z</time>
      </trkpt>
      <trkpt lat="37.5663940" lon="-4.2379780">
        <ele>461.0</ele>
        <time>2021-12-28T11:49:20Z</time>
      </trkpt>
      <trkpt lat="37.5663870" lon="-4.2380020">
        <ele>461.0</ele>
        <time>2021-12-28T11:49:21Z</time>
      </trkpt>
      <trkpt lat="37.5663810" lon="-4.2380230">
        <ele>461.0</ele>
        <time>2021-12-28T11:49:22Z</time>
      </trkpt>
      <trkpt lat="37.5663680" lon="-4.2380450">
        <ele>461.0</ele>
        <time>2021-12-28T11:49:23Z</time>
      </trkpt>
      <trkpt lat="37.5663550" lon="-4.2380670">
        <ele>461.0</ele>
        <time>2021-12-28T11:49:24Z</time>
      </trkpt>
      <trkpt lat="37.5663490" lon="-4.2380900">
        <ele>461.0</ele>
        <time>2021-12-28T11:49:25Z</time>
      </trkpt>
      <trkpt lat="37.5663420" lon="-4.2381120">
        <ele>461.0</ele>
        <time>2021-12-28T11:49:26Z</time>
      </trkpt>
      <trkpt lat="37.5663330" lon="-4.2381370">
        <ele>461.2</ele>
        <time>2021-12-28T11:49:27Z</time>
      </trkpt>
      <trkpt lat="37.5663260" lon="-4.2381620">
        <ele>461.2</ele>
        <time>2021-12-28T11:49:28Z</time>
      </trkpt>
      <trkpt lat="37.5663200" lon="-4.2381840">
        <ele>461.2</ele>
        <time>2021-12-28T11:49:29Z</time>
      </trkpt>
      <trkpt lat="37.5663100" lon="-4.2382070">
        <ele>461.2</ele>
        <time>2021-12-28T11:49:30Z</time>
      </trkpt>
      <trkpt lat="37.5663010" lon="-4.2382320">
        <ele>461.4</ele>
        <time>2021-12-28T11:49:31Z</time>
      </trkpt>
      <trkpt lat="37.5662910" lon="-4.2382580">
        <ele>461.4</ele>
        <time>2021-12-28T11:49:32Z</time>
      </trkpt>
      <trkpt lat="37.5662850" lon="-4.2382830">
        <ele>461.4</ele>
        <time>2021-12-28T11:49:33Z</time>
      </trkpt>
      <trkpt lat="37.5662750" lon="-4.2383060">
        <ele>461.4</ele>
        <time>2021-12-28T11:49:34Z</time>
      </trkpt>
      <trkpt lat="37.5662690" lon="-4.2383300">
        <ele>461.4</ele>
        <time>2021-12-28T11:49:35Z</time>
      </trkpt>
      <trkpt lat="37.5662620" lon="-4.2383520">
        <ele>461.4</ele>
        <time>2021-12-28T11:49:36Z</time>
      </trkpt>
      <trkpt lat="37.5662500" lon="-4.2383720">
        <ele>461.6</ele>
        <time>2021-12-28T11:49:37Z</time>
      </trkpt>
      <trkpt lat="37.5662430" lon="-4.2383950">
        <ele>461.6</ele>
        <time>2021-12-28T11:49:38Z</time>
      </trkpt>
      <trkpt lat="37.5662340" lon="-4.2384170">
        <ele>461.6</ele>
        <time>2021-12-28T11:49:39Z</time>
      </trkpt>
      <trkpt lat="37.5662240" lon="-4.2384380">
        <ele>461.6</ele>
        <time>2021-12-28T11:49:40Z</time>
      </trkpt>
      <trkpt lat="37.5662140" lon="-4.2384600">
        <ele>461.6</ele>
        <time>2021-12-28T11:49:41Z</time>
      </trkpt>
      <trkpt lat="37.5662080" lon="-4.2384820">
        <ele>461.8</ele>
        <time>2021-12-28T11:49:42Z</time>
      </trkpt>
      <trkpt lat="37.5661950" lon="-4.2385040">
        <ele>461.8</ele>
        <time>2021-12-28T11:49:43Z</time>
      </trkpt>
      <trkpt lat="37.5661890" lon="-4.2385250">
        <ele>461.8</ele>
        <time>2021-12-28T11:49:44Z</time>
      </trkpt>
      <trkpt lat="37.5661760" lon="-4.2385500">
        <ele>461.8</ele>
        <time>2021-12-28T11:49:45Z</time>
      </trkpt>
      <trkpt lat="37.5661700" lon="-4.2385720">
        <ele>461.8</ele>
        <time>2021-12-28T11:49:46Z</time>
      </trkpt>
      <trkpt lat="37.5661570" lon="-4.2385950">
        <ele>461.8</ele>
        <time>2021-12-28T11:49:47Z</time>
      </trkpt>
      <trkpt lat="37.5661470" lon="-4.2386200">
        <ele>462.0</ele>
        <time>2021-12-28T11:49:48Z</time>
      </trkpt>
      <trkpt lat="37.5661310" lon="-4.2386450">
        <ele>462.0</ele>
        <time>2021-12-28T11:49:49Z</time>
      </trkpt>
      <trkpt lat="37.5661220" lon="-4.2386730">
        <ele>462.0</ele>
        <time>2021-12-28T11:49:50Z</time>
      </trkpt>
      <trkpt lat="37.5661090" lon="-4.2386980">
        <ele>462.0</ele>
        <time>2021-12-28T11:49:51Z</time>
      </trkpt>
      <trkpt lat="37.5660960" lon="-4.2387230">
        <ele>462.2</ele>
        <time>2021-12-28T11:49:52Z</time>
      </trkpt>
      <trkpt lat="37.5660830" lon="-4.2387480">
        <ele>462.2</ele>
        <time>2021-12-28T11:49:53Z</time>
      </trkpt>
      <trkpt lat="37.5660700" lon="-4.2387750">
        <ele>462.2</ele>
        <time>2021-12-28T11:49:54Z</time>
      </trkpt>
      <trkpt lat="37.5660580" lon="-4.2388000">
        <ele>462.2</ele>
        <time>2021-12-28T11:49:55Z</time>
      </trkpt>
      <trkpt lat="37.5660510" lon="-4.2388240">
        <ele>462.2</ele>
        <time>2021-12-28T11:49:56Z</time>
      </trkpt>
      <trkpt lat="37.5660420" lon="-4.2388450">
        <ele>462.2</ele>
        <time>2021-12-28T11:49:57Z</time>
      </trkpt>
      <trkpt lat="37.5660260" lon="-4.2388670">
        <ele>462.2</ele>
        <time>2021-12-28T11:49:58Z</time>
      </trkpt>
      <trkpt lat="37.5660060" lon="-4.2388940">
        <ele>462.2</ele>
        <time>2021-12-28T11:49:59Z</time>
      </trkpt>
      <trkpt lat="37.5659760" lon="-4.2389330">
        <ele>462.2</ele>
        <time>2021-12-28T11:50:00Z</time>
      </trkpt>
      <trkpt lat="37.5659650" lon="-4.2389460">
        <ele>462.2</ele>
        <time>2021-12-28T11:50:01Z</time>
      </trkpt>
      <trkpt lat="37.5659460" lon="-4.2389720">
        <ele>462.2</ele>
        <time>2021-12-28T11:50:02Z</time>
      </trkpt>
      <trkpt lat="37.5659260" lon="-4.2389960">
        <ele>462.2</ele>
        <time>2021-12-28T11:50:03Z</time>
      </trkpt>
      <trkpt lat="37.5659070" lon="-4.2390200">
        <ele>462.2</ele>
        <time>2021-12-28T11:50:04Z</time>
      </trkpt>
      <trkpt lat="37.5658910" lon="-4.2390420">
        <ele>462.4</ele>
        <time>2021-12-28T11:50:05Z</time>
      </trkpt>
      <trkpt lat="37.5658750" lon="-4.2390620">
        <ele>462.4</ele>
        <time>2021-12-28T11:50:06Z</time>
      </trkpt>
      <trkpt lat="37.5658750" lon="-4.2390620">
        <ele>462.4</ele>
        <time>2021-12-28T11:50:07Z</time>
      </trkpt>
      <trkpt lat="37.5658530" lon="-4.2390870">
        <ele>462.6</ele>
        <time>2021-12-28T11:50:08Z</time>
      </trkpt>
      <trkpt lat="37.5658530" lon="-4.2390870">
        <ele>462.6</ele>
        <time>2021-12-28T11:50:09Z</time>
      </trkpt>
      <trkpt lat="37.5658530" lon="-4.2390870">
        <ele>462.8</ele>
        <time>2021-12-28T11:50:10Z</time>
      </trkpt>
      <trkpt lat="37.5658530" lon="-4.2390870">
        <ele>462.8</ele>
        <time>2021-12-28T11:50:11Z</time>
      </trkpt>
      <trkpt lat="37.5658370" lon="-4.2391050">
        <ele>462.8</ele>
        <time>2021-12-28T11:50:12Z</time>
      </trkpt>
      <trkpt lat="37.5658370" lon="-4.2391050">
        <ele>463.0</ele>
        <time>2021-12-28T11:50:13Z</time>
      </trkpt>
      <trkpt lat="37.5658370" lon="-4.2391050">
        <ele>463.2</ele>
        <time>2021-12-28T11:50:22Z</time>
      </trkpt>
      <trkpt lat="37.5657760" lon="-4.2392120">
        <ele>463.2</ele>
        <time>2021-12-28T11:50:23Z</time>
      </trkpt>
      <trkpt lat="37.5657760" lon="-4.2392120">
        <ele>463.0</ele>
        <time>2021-12-28T11:50:24Z</time>
      </trkpt>
      <trkpt lat="37.5657600" lon="-4.2392440">
        <ele>463.0</ele>
        <time>2021-12-28T11:50:25Z</time>
      </trkpt>
      <trkpt lat="37.5657600" lon="-4.2392440">
        <ele>463.0</ele>
        <time>2021-12-28T11:50:26Z</time>
      </trkpt>
      <trkpt lat="37.5657470" lon="-4.2392820">
        <ele>463.0</ele>
        <time>2021-12-28T11:50:27Z</time>
      </trkpt>
      <trkpt lat="37.5657380" lon="-4.2393030">
        <ele>463.2</ele>
        <time>2021-12-28T11:50:28Z</time>
      </trkpt>
      <trkpt lat="37.5657280" lon="-4.2393230">
        <ele>463.2</ele>
        <time>2021-12-28T11:50:29Z</time>
      </trkpt>
      <trkpt lat="37.5657150" lon="-4.2393460">
        <ele>463.2</ele>
        <time>2021-12-28T11:50:30Z</time>
      </trkpt>
      <trkpt lat="37.5657060" lon="-4.2393700">
        <ele>463.2</ele>
        <time>2021-12-28T11:50:31Z</time>
      </trkpt>
      <trkpt lat="37.5656930" lon="-4.2393950">
        <ele>463.2</ele>
        <time>2021-12-28T11:50:32Z</time>
      </trkpt>
      <trkpt lat="37.5656800" lon="-4.2394180">
        <ele>463.0</ele>
        <time>2021-12-28T11:50:33Z</time>
      </trkpt>
      <trkpt lat="37.5656670" lon="-4.2394400">
        <ele>463.0</ele>
        <time>2021-12-28T11:50:34Z</time>
      </trkpt>
      <trkpt lat="37.5656510" lon="-4.2394600">
        <ele>463.2</ele>
        <time>2021-12-28T11:50:35Z</time>
      </trkpt>
      <trkpt lat="37.5656320" lon="-4.2394800">
        <ele>463.2</ele>
        <time>2021-12-28T11:50:36Z</time>
      </trkpt>
      <trkpt lat="37.5656130" lon="-4.2395020">
        <ele>463.0</ele>
        <time>2021-12-28T11:50:37Z</time>
      </trkpt>
      <trkpt lat="37.5655940" lon="-4.2395250">
        <ele>463.0</ele>
        <time>2021-12-28T11:50:38Z</time>
      </trkpt>
      <trkpt lat="37.5655780" lon="-4.2395500">
        <ele>463.2</ele>
        <time>2021-12-28T11:50:39Z</time>
      </trkpt>
      <trkpt lat="37.5655580" lon="-4.2395770">
        <ele>463.2</ele>
        <time>2021-12-28T11:50:40Z</time>
      </trkpt>
      <trkpt lat="37.5655460" lon="-4.2396050">
        <ele>463.4</ele>
        <time>2021-12-28T11:50:41Z</time>
      </trkpt>
      <trkpt lat="37.5655300" lon="-4.2396320">
        <ele>463.4</ele>
        <time>2021-12-28T11:50:42Z</time>
      </trkpt>
      <trkpt lat="37.5655170" lon="-4.2396560">
        <ele>463.4</ele>
        <time>2021-12-28T11:50:43Z</time>
      </trkpt>
      <trkpt lat="37.5654980" lon="-4.2396800">
        <ele>463.4</ele>
        <time>2021-12-28T11:50:44Z</time>
      </trkpt>
      <trkpt lat="37.5654820" lon="-4.2397030">
        <ele>463.6</ele>
        <time>2021-12-28T11:50:45Z</time>
      </trkpt>
      <trkpt lat="37.5654690" lon="-4.2397230">
        <ele>463.6</ele>
        <time>2021-12-28T11:50:46Z</time>
      </trkpt>
      <trkpt lat="37.5654530" lon="-4.2397500">
        <ele>463.6</ele>
        <time>2021-12-28T11:50:47Z</time>
      </trkpt>
      <trkpt lat="37.5654340" lon="-4.2397800">
        <ele>463.6</ele>
        <time>2021-12-28T11:50:48Z</time>
      </trkpt>
      <trkpt lat="37.5654180" lon="-4.2398080">
        <ele>463.8</ele>
        <time>2021-12-28T11:50:49Z</time>
      </trkpt>
      <trkpt lat="37.5653980" lon="-4.2398400">
        <ele>463.8</ele>
        <time>2021-12-28T11:50:50Z</time>
      </trkpt>
      <trkpt lat="37.5653820" lon="-4.2398700">
        <ele>463.8</ele>
        <time>2021-12-28T11:50:51Z</time>
      </trkpt>
      <trkpt lat="37.5653700" lon="-4.2398980">
        <ele>463.8</ele>
        <time>2021-12-28T11:50:52Z</time>
      </trkpt>
      <trkpt lat="37.5653540" lon="-4.2399240">
        <ele>463.8</ele>
        <time>2021-12-28T11:50:53Z</time>
      </trkpt>
      <trkpt lat="37.5653380" lon="-4.2399480">
        <ele>463.8</ele>
        <time>2021-12-28T11:50:54Z</time>
      </trkpt>
      <trkpt lat="37.5653220" lon="-4.2399720">
        <ele>464.0</ele>
        <time>2021-12-28T11:50:55Z</time>
      </trkpt>
      <trkpt lat="37.5653090" lon="-4.2399970">
        <ele>464.0</ele>
        <time>2021-12-28T11:50:56Z</time>
      </trkpt>
      <trkpt lat="37.5652930" lon="-4.2400250">
        <ele>464.0</ele>
        <time>2021-12-28T11:50:57Z</time>
      </trkpt>
      <trkpt lat="37.5652800" lon="-4.2400500">
        <ele>464.0</ele>
        <time>2021-12-28T11:50:58Z</time>
      </trkpt>
      <trkpt lat="37.5652670" lon="-4.2400730">
        <ele>464.0</ele>
        <time>2021-12-28T11:50:59Z</time>
      </trkpt>
      <trkpt lat="37.5652510" lon="-4.2400980">
        <ele>464.0</ele>
        <time>2021-12-28T11:51:00Z</time>
      </trkpt>
      <trkpt lat="37.5652380" lon="-4.2401230">
        <ele>464.0</ele>
        <time>2021-12-28T11:51:01Z</time>
      </trkpt>
      <trkpt lat="37.5652220" lon="-4.2401470">
        <ele>464.0</ele>
        <time>2021-12-28T11:51:02Z</time>
      </trkpt>
      <trkpt lat="37.5652130" lon="-4.2401720">
        <ele>464.0</ele>
        <time>2021-12-28T11:51:03Z</time>
      </trkpt>
      <trkpt lat="37.5651970" lon="-4.2401950">
        <ele>464.0</ele>
        <time>2021-12-28T11:51:04Z</time>
      </trkpt>
      <trkpt lat="37.5651810" lon="-4.2402200">
        <ele>464.0</ele>
        <time>2021-12-28T11:51:05Z</time>
      </trkpt>
      <trkpt lat="37.5651680" lon="-4.2402420">
        <ele>464.0</ele>
        <time>2021-12-28T11:51:06Z</time>
      </trkpt>
      <trkpt lat="37.5651550" lon="-4.2402670">
        <ele>464.2</ele>
        <time>2021-12-28T11:51:07Z</time>
      </trkpt>
      <trkpt lat="37.5651390" lon="-4.2402920">
        <ele>464.4</ele>
        <time>2021-12-28T11:51:08Z</time>
      </trkpt>
      <trkpt lat="37.5651300" lon="-4.2403170">
        <ele>464.4</ele>
        <time>2021-12-28T11:51:09Z</time>
      </trkpt>
      <trkpt lat="37.5651170" lon="-4.2403420">
        <ele>464.4</ele>
        <time>2021-12-28T11:51:10Z</time>
      </trkpt>
      <trkpt lat="37.5651010" lon="-4.2403650">
        <ele>464.6</ele>
        <time>2021-12-28T11:51:11Z</time>
      </trkpt>
      <trkpt lat="37.5650910" lon="-4.2403860">
        <ele>464.6</ele>
        <time>2021-12-28T11:51:12Z</time>
      </trkpt>
      <trkpt lat="37.5650780" lon="-4.2404100">
        <ele>464.6</ele>
        <time>2021-12-28T11:51:13Z</time>
      </trkpt>
      <trkpt lat="37.5650620" lon="-4.2404350">
        <ele>464.6</ele>
        <time>2021-12-28T11:51:14Z</time>
      </trkpt>
      <trkpt lat="37.5650530" lon="-4.2404620">
        <ele>464.8</ele>
        <time>2021-12-28T11:51:15Z</time>
      </trkpt>
      <trkpt lat="37.5650370" lon="-4.2404880">
        <ele>464.8</ele>
        <time>2021-12-28T11:51:16Z</time>
      </trkpt>
      <trkpt lat="37.5650240" lon="-4.2405180">
        <ele>465.0</ele>
        <time>2021-12-28T11:51:17Z</time>
      </trkpt>
      <trkpt lat="37.5650140" lon="-4.2405470">
        <ele>465.0</ele>
        <time>2021-12-28T11:51:18Z</time>
      </trkpt>
      <trkpt lat="37.5650020" lon="-4.2405770">
        <ele>465.0</ele>
        <time>2021-12-28T11:51:19Z</time>
      </trkpt>
      <trkpt lat="37.5649920" lon="-4.2406070">
        <ele>465.0</ele>
        <time>2021-12-28T11:51:20Z</time>
      </trkpt>
      <trkpt lat="37.5649790" lon="-4.2406370">
        <ele>465.2</ele>
        <time>2021-12-28T11:51:21Z</time>
      </trkpt>
      <trkpt lat="37.5649700" lon="-4.2406670">
        <ele>465.2</ele>
        <time>2021-12-28T11:51:22Z</time>
      </trkpt>
      <trkpt lat="37.5649570" lon="-4.2406970">
        <ele>465.2</ele>
        <time>2021-12-28T11:51:23Z</time>
      </trkpt>
      <trkpt lat="37.5649440" lon="-4.2407250">
        <ele>465.4</ele>
        <time>2021-12-28T11:51:24Z</time>
      </trkpt>
      <trkpt lat="37.5649310" lon="-4.2407560">
        <ele>465.4</ele>
        <time>2021-12-28T11:51:25Z</time>
      </trkpt>
      <trkpt lat="37.5649180" lon="-4.2407860">
        <ele>465.6</ele>
        <time>2021-12-28T11:51:26Z</time>
      </trkpt>
      <trkpt lat="37.5649120" lon="-4.2408150">
        <ele>465.6</ele>
        <time>2021-12-28T11:51:27Z</time>
      </trkpt>
      <trkpt lat="37.5648990" lon="-4.2408400">
        <ele>465.6</ele>
        <time>2021-12-28T11:51:28Z</time>
      </trkpt>
      <trkpt lat="37.5648930" lon="-4.2408670">
        <ele>465.8</ele>
        <time>2021-12-28T11:51:29Z</time>
      </trkpt>
      <trkpt lat="37.5648800" lon="-4.2408880">
        <ele>466.0</ele>
        <time>2021-12-28T11:51:30Z</time>
      </trkpt>
      <trkpt lat="37.5648800" lon="-4.2408880">
        <ele>466.0</ele>
        <time>2021-12-28T11:51:31Z</time>
      </trkpt>
      <trkpt lat="37.5648640" lon="-4.2409280">
        <ele>466.0</ele>
        <time>2021-12-28T11:51:32Z</time>
      </trkpt>
      <trkpt lat="37.5648640" lon="-4.2409280">
        <ele>466.0</ele>
        <time>2021-12-28T11:51:33Z</time>
      </trkpt>
      <trkpt lat="37.5648610" lon="-4.2409520">
        <ele>466.0</ele>
        <time>2021-12-28T11:51:34Z</time>
      </trkpt>
      <trkpt lat="37.5648610" lon="-4.2409520">
        <ele>466.0</ele>
        <time>2021-12-28T11:51:35Z</time>
      </trkpt>
      <trkpt lat="37.5648610" lon="-4.2409520">
        <ele>466.0</ele>
        <time>2021-12-28T11:51:36Z</time>
      </trkpt>
      <trkpt lat="37.5648610" lon="-4.2409520">
        <ele>466.0</ele>
        <time>2021-12-28T11:51:37Z</time>
      </trkpt>
      <trkpt lat="37.5648610" lon="-4.2409520">
        <ele>466.2</ele>
        <time>2021-12-28T11:51:38Z</time>
      </trkpt>
      <trkpt lat="37.5648220" lon="-4.2410700">
        <ele>466.2</ele>
        <time>2021-12-28T11:51:46Z</time>
      </trkpt>
      <trkpt lat="37.5648220" lon="-4.2410700">
        <ele>466.2</ele>
        <time>2021-12-28T11:51:47Z</time>
      </trkpt>
      <trkpt lat="37.5648130" lon="-4.2411080">
        <ele>466.2</ele>
        <time>2021-12-28T11:51:48Z</time>
      </trkpt>
      <trkpt lat="37.5648130" lon="-4.2411080">
        <ele>466.2</ele>
        <time>2021-12-28T11:51:49Z</time>
      </trkpt>
      <trkpt lat="37.5647970" lon="-4.2411480">
        <ele>466.0</ele>
        <time>2021-12-28T11:51:50Z</time>
      </trkpt>
      <trkpt lat="37.5647970" lon="-4.2411480">
        <ele>466.0</ele>
        <time>2021-12-28T11:51:51Z</time>
      </trkpt>
      <trkpt lat="37.5647900" lon="-4.2411830">
        <ele>466.0</ele>
        <time>2021-12-28T11:51:52Z</time>
      </trkpt>
      <trkpt lat="37.5647900" lon="-4.2411830">
        <ele>466.0</ele>
        <time>2021-12-28T11:51:53Z</time>
      </trkpt>
      <trkpt lat="37.5647810" lon="-4.2412200">
        <ele>466.0</ele>
        <time>2021-12-28T11:51:54Z</time>
      </trkpt>
      <trkpt lat="37.5647810" lon="-4.2412200">
        <ele>466.0</ele>
        <time>2021-12-28T11:51:55Z</time>
      </trkpt>
      <trkpt lat="37.5647710" lon="-4.2412520">
        <ele>466.0</ele>
        <time>2021-12-28T11:51:56Z</time>
      </trkpt>
      <trkpt lat="37.5647710" lon="-4.2412520">
        <ele>466.0</ele>
        <time>2021-12-28T11:51:57Z</time>
      </trkpt>
      <trkpt lat="37.5647580" lon="-4.2412870">
        <ele>466.0</ele>
        <time>2021-12-28T11:51:58Z</time>
      </trkpt>
      <trkpt lat="37.5647580" lon="-4.2412870">
        <ele>466.2</ele>
        <time>2021-12-28T11:51:59Z</time>
      </trkpt>
      <trkpt lat="37.5647520" lon="-4.2413270">
        <ele>466.2</ele>
        <time>2021-12-28T11:52:00Z</time>
      </trkpt>
      <trkpt lat="37.5647520" lon="-4.2413270">
        <ele>466.2</ele>
        <time>2021-12-28T11:52:01Z</time>
      </trkpt>
      <trkpt lat="37.5647420" lon="-4.2413670">
        <ele>466.2</ele>
        <time>2021-12-28T11:52:02Z</time>
      </trkpt>
      <trkpt lat="37.5647420" lon="-4.2413670">
        <ele>466.2</ele>
        <time>2021-12-28T11:52:03Z</time>
      </trkpt>
      <trkpt lat="37.5647330" lon="-4.2414050">
        <ele>466.2</ele>
        <time>2021-12-28T11:52:04Z</time>
      </trkpt>
      <trkpt lat="37.5647200" lon="-4.2414230">
        <ele>466.2</ele>
        <time>2021-12-28T11:52:05Z</time>
      </trkpt>
      <trkpt lat="37.5647200" lon="-4.2414230">
        <ele>466.2</ele>
        <time>2021-12-28T11:52:06Z</time>
      </trkpt>
      <trkpt lat="37.5647070" lon="-4.2414660">
        <ele>466.2</ele>
        <time>2021-12-28T11:52:07Z</time>
      </trkpt>
      <trkpt lat="37.5647040" lon="-4.2414900">
        <ele>466.2</ele>
        <time>2021-12-28T11:52:08Z</time>
      </trkpt>
      <trkpt lat="37.5647040" lon="-4.2414900">
        <ele>466.4</ele>
        <time>2021-12-28T11:52:09Z</time>
      </trkpt>
      <trkpt lat="37.5646940" lon="-4.2415320">
        <ele>466.4</ele>
        <time>2021-12-28T11:52:10Z</time>
      </trkpt>
      <trkpt lat="37.5646940" lon="-4.2415320">
        <ele>466.4</ele>
        <time>2021-12-28T11:52:11Z</time>
      </trkpt>
      <trkpt lat="37.5646850" lon="-4.2415770">
        <ele>466.4</ele>
        <time>2021-12-28T11:52:12Z</time>
      </trkpt>
      <trkpt lat="37.5646780" lon="-4.2415980">
        <ele>466.6</ele>
        <time>2021-12-28T11:52:13Z</time>
      </trkpt>
      <trkpt lat="37.5646720" lon="-4.2416220">
        <ele>466.6</ele>
        <time>2021-12-28T11:52:14Z</time>
      </trkpt>
      <trkpt lat="37.5646660" lon="-4.2416470">
        <ele>466.8</ele>
        <time>2021-12-28T11:52:15Z</time>
      </trkpt>
      <trkpt lat="37.5646620" lon="-4.2416700">
        <ele>466.8</ele>
        <time>2021-12-28T11:52:16Z</time>
      </trkpt>
      <trkpt lat="37.5646590" lon="-4.2416940">
        <ele>467.0</ele>
        <time>2021-12-28T11:52:17Z</time>
      </trkpt>
      <trkpt lat="37.5646560" lon="-4.2417170">
        <ele>467.0</ele>
        <time>2021-12-28T11:52:18Z</time>
      </trkpt>
      <trkpt lat="37.5646460" lon="-4.2417380">
        <ele>467.0</ele>
        <time>2021-12-28T11:52:19Z</time>
      </trkpt>
      <trkpt lat="37.5646430" lon="-4.2417620">
        <ele>467.2</ele>
        <time>2021-12-28T11:52:20Z</time>
      </trkpt>
      <trkpt lat="37.5646370" lon="-4.2417860">
        <ele>467.2</ele>
        <time>2021-12-28T11:52:21Z</time>
      </trkpt>
      <trkpt lat="37.5646340" lon="-4.2418120">
        <ele>467.2</ele>
        <time>2021-12-28T11:52:22Z</time>
      </trkpt>
      <trkpt lat="37.5646270" lon="-4.2418380">
        <ele>467.2</ele>
        <time>2021-12-28T11:52:23Z</time>
      </trkpt>
      <trkpt lat="37.5646240" lon="-4.2418620">
        <ele>467.2</ele>
        <time>2021-12-28T11:52:24Z</time>
      </trkpt>
      <trkpt lat="37.5646210" lon="-4.2418850">
        <ele>467.2</ele>
        <time>2021-12-28T11:52:25Z</time>
      </trkpt>
      <trkpt lat="37.5646210" lon="-4.2419120">
        <ele>467.2</ele>
        <time>2021-12-28T11:52:26Z</time>
      </trkpt>
      <trkpt lat="37.5646180" lon="-4.2419370">
        <ele>467.2</ele>
        <time>2021-12-28T11:52:27Z</time>
      </trkpt>
      <trkpt lat="37.5646140" lon="-4.2419630">
        <ele>467.4</ele>
        <time>2021-12-28T11:52:28Z</time>
      </trkpt>
      <trkpt lat="37.5646080" lon="-4.2419870">
        <ele>467.4</ele>
        <time>2021-12-28T11:52:29Z</time>
      </trkpt>
      <trkpt lat="37.5646080" lon="-4.2419870">
        <ele>467.4</ele>
        <time>2021-12-28T11:52:30Z</time>
      </trkpt>
      <trkpt lat="37.5646080" lon="-4.2420280">
        <ele>467.4</ele>
        <time>2021-12-28T11:52:31Z</time>
      </trkpt>
      <trkpt lat="37.5646080" lon="-4.2420280">
        <ele>467.4</ele>
        <time>2021-12-28T11:52:32Z</time>
      </trkpt>
      <trkpt lat="37.5646050" lon="-4.2420680">
        <ele>467.4</ele>
        <time>2021-12-28T11:52:33Z</time>
      </trkpt>
      <trkpt lat="37.5646050" lon="-4.2420680">
        <ele>467.2</ele>
        <time>2021-12-28T11:52:34Z</time>
      </trkpt>
      <trkpt lat="37.5646020" lon="-4.2421000">
        <ele>467.2</ele>
        <time>2021-12-28T11:52:35Z</time>
      </trkpt>
      <trkpt lat="37.5646020" lon="-4.2421000">
        <ele>467.2</ele>
        <time>2021-12-28T11:52:36Z</time>
      </trkpt>
      <trkpt lat="37.5646020" lon="-4.2421000">
        <ele>467.2</ele>
        <time>2021-12-28T11:52:37Z</time>
      </trkpt>
      <trkpt lat="37.5646020" lon="-4.2421000">
        <ele>467.2</ele>
        <time>2021-12-28T11:52:38Z</time>
      </trkpt>
      <trkpt lat="37.5646020" lon="-4.2421000">
        <ele>467.2</ele>
        <time>2021-12-28T11:52:39Z</time>
      </trkpt>
      <trkpt lat="37.5645950" lon="-4.2422230">
        <ele>469.2</ele>
        <time>2021-12-28T11:54:43Z</time>
      </trkpt>
      <trkpt lat="37.5645860" lon="-4.2422600">
        <ele>469.2</ele>
        <time>2021-12-28T11:54:44Z</time>
      </trkpt>
      <trkpt lat="37.5645860" lon="-4.2422950">
        <ele>469.2</ele>
        <time>2021-12-28T11:54:45Z</time>
      </trkpt>
      <trkpt lat="37.5645820" lon="-4.2423280">
        <ele>469.2</ele>
        <time>2021-12-28T11:54:46Z</time>
      </trkpt>
      <trkpt lat="37.5645790" lon="-4.2423620">
        <ele>469.2</ele>
        <time>2021-12-28T11:54:47Z</time>
      </trkpt>
      <trkpt lat="37.5645760" lon="-4.2423970">
        <ele>469.2</ele>
        <time>2021-12-28T11:54:48Z</time>
      </trkpt>
      <trkpt lat="37.5645760" lon="-4.2423970">
        <ele>469.2</ele>
        <time>2021-12-28T11:54:49Z</time>
      </trkpt>
      <trkpt lat="37.5645760" lon="-4.2424400">
        <ele>469.2</ele>
        <time>2021-12-28T11:54:50Z</time>
      </trkpt>
      <trkpt lat="37.5645760" lon="-4.2424400">
        <ele>469.2</ele>
        <time>2021-12-28T11:54:51Z</time>
      </trkpt>
      <trkpt lat="37.5645760" lon="-4.2424830">
        <ele>469.2</ele>
        <time>2021-12-28T11:54:52Z</time>
      </trkpt>
      <trkpt lat="37.5645760" lon="-4.2424830">
        <ele>469.2</ele>
        <time>2021-12-28T11:54:53Z</time>
      </trkpt>
      <trkpt lat="37.5645760" lon="-4.2425260">
        <ele>469.2</ele>
        <time>2021-12-28T11:54:54Z</time>
      </trkpt>
      <trkpt lat="37.5645760" lon="-4.2425500">
        <ele>469.2</ele>
        <time>2021-12-28T11:54:55Z</time>
      </trkpt>
      <trkpt lat="37.5645730" lon="-4.2425760">
        <ele>469.2</ele>
        <time>2021-12-28T11:54:56Z</time>
      </trkpt>
      <trkpt lat="37.5645660" lon="-4.2426050">
        <ele>469.2</ele>
        <time>2021-12-28T11:54:57Z</time>
      </trkpt>
      <trkpt lat="37.5645630" lon="-4.2426330">
        <ele>469.2</ele>
        <time>2021-12-28T11:54:58Z</time>
      </trkpt>
      <trkpt lat="37.5645630" lon="-4.2426600">
        <ele>469.2</ele>
        <time>2021-12-28T11:54:59Z</time>
      </trkpt>
      <trkpt lat="37.5645660" lon="-4.2426850">
        <ele>469.4</ele>
        <time>2021-12-28T11:55:00Z</time>
      </trkpt>
      <trkpt lat="37.5645730" lon="-4.2427100">
        <ele>469.4</ele>
        <time>2021-12-28T11:55:01Z</time>
      </trkpt>
      <trkpt lat="37.5645730" lon="-4.2427350">
        <ele>469.6</ele>
        <time>2021-12-28T11:55:02Z</time>
      </trkpt>
      <trkpt lat="37.5645730" lon="-4.2427620">
        <ele>469.6</ele>
        <time>2021-12-28T11:55:03Z</time>
      </trkpt>
      <trkpt lat="37.5645730" lon="-4.2427870">
        <ele>469.8</ele>
        <time>2021-12-28T11:55:04Z</time>
      </trkpt>
      <trkpt lat="37.5645730" lon="-4.2428100">
        <ele>470.0</ele>
        <time>2021-12-28T11:55:05Z</time>
      </trkpt>
      <trkpt lat="37.5645660" lon="-4.2428320">
        <ele>470.0</ele>
        <time>2021-12-28T11:55:06Z</time>
      </trkpt>
      <trkpt lat="37.5645730" lon="-4.2428550">
        <ele>470.0</ele>
        <time>2021-12-28T11:55:07Z</time>
      </trkpt>
      <trkpt lat="37.5645730" lon="-4.2428800">
        <ele>470.2</ele>
        <time>2021-12-28T11:55:08Z</time>
      </trkpt>
      <trkpt lat="37.5645660" lon="-4.2429060">
        <ele>470.2</ele>
        <time>2021-12-28T11:55:09Z</time>
      </trkpt>
      <trkpt lat="37.5645660" lon="-4.2429060">
        <ele>470.4</ele>
        <time>2021-12-28T11:55:10Z</time>
      </trkpt>
      <trkpt lat="37.5645730" lon="-4.2429330">
        <ele>470.4</ele>
        <time>2021-12-28T11:55:11Z</time>
      </trkpt>
      <trkpt lat="37.5645730" lon="-4.2429330">
        <ele>470.6</ele>
        <time>2021-12-28T11:55:12Z</time>
      </trkpt>
      <trkpt lat="37.5645730" lon="-4.2429570">
        <ele>470.6</ele>
        <time>2021-12-28T11:55:13Z</time>
      </trkpt>
      <trkpt lat="37.5645730" lon="-4.2429570">
        <ele>470.6</ele>
        <time>2021-12-28T11:55:14Z</time>
      </trkpt>
      <trkpt lat="37.5645730" lon="-4.2429850">
        <ele>470.6</ele>
        <time>2021-12-28T11:55:15Z</time>
      </trkpt>
      <trkpt lat="37.5645730" lon="-4.2429850">
        <ele>470.8</ele>
        <time>2021-12-28T11:55:16Z</time>
      </trkpt>
      <trkpt lat="37.5645660" lon="-4.2430220">
        <ele>470.8</ele>
        <time>2021-12-28T11:55:17Z</time>
      </trkpt>
      <trkpt lat="37.5645730" lon="-4.2430440">
        <ele>470.6</ele>
        <time>2021-12-28T11:55:18Z</time>
      </trkpt>
      <trkpt lat="37.5645730" lon="-4.2430670">
        <ele>470.6</ele>
        <time>2021-12-28T11:55:19Z</time>
      </trkpt>
      <trkpt lat="37.5645730" lon="-4.2430920">
        <ele>470.6</ele>
        <time>2021-12-28T11:55:20Z</time>
      </trkpt>
      <trkpt lat="37.5645660" lon="-4.2431200">
        <ele>470.6</ele>
        <time>2021-12-28T11:55:21Z</time>
      </trkpt>
      <trkpt lat="37.5645630" lon="-4.2431480">
        <ele>470.6</ele>
        <time>2021-12-28T11:55:22Z</time>
      </trkpt>
      <trkpt lat="37.5645630" lon="-4.2431760">
        <ele>470.6</ele>
        <time>2021-12-28T11:55:23Z</time>
      </trkpt>
      <trkpt lat="37.5645660" lon="-4.2432060">
        <ele>470.6</ele>
        <time>2021-12-28T11:55:24Z</time>
      </trkpt>
      <trkpt lat="37.5645730" lon="-4.2432360">
        <ele>470.4</ele>
        <time>2021-12-28T11:55:25Z</time>
      </trkpt>
      <trkpt lat="37.5645760" lon="-4.2432660">
        <ele>470.4</ele>
        <time>2021-12-28T11:55:26Z</time>
      </trkpt>
      <trkpt lat="37.5645760" lon="-4.2432980">
        <ele>470.4</ele>
        <time>2021-12-28T11:55:27Z</time>
      </trkpt>
      <trkpt lat="37.5645790" lon="-4.2433320">
        <ele>470.4</ele>
        <time>2021-12-28T11:55:28Z</time>
      </trkpt>
      <trkpt lat="37.5645820" lon="-4.2433650">
        <ele>470.4</ele>
        <time>2021-12-28T11:55:29Z</time>
      </trkpt>
      <trkpt lat="37.5645860" lon="-4.2433970">
        <ele>470.4</ele>
        <time>2021-12-28T11:55:30Z</time>
      </trkpt>
      <trkpt lat="37.5645920" lon="-4.2434300">
        <ele>470.6</ele>
        <time>2021-12-28T11:55:31Z</time>
      </trkpt>
      <trkpt lat="37.5645950" lon="-4.2434650">
        <ele>470.6</ele>
        <time>2021-12-28T11:55:32Z</time>
      </trkpt>
      <trkpt lat="37.5645980" lon="-4.2434980">
        <ele>470.6</ele>
        <time>2021-12-28T11:55:33Z</time>
      </trkpt>
      <trkpt lat="37.5646050" lon="-4.2435320">
        <ele>470.6</ele>
        <time>2021-12-28T11:55:34Z</time>
      </trkpt>
      <trkpt lat="37.5646140" lon="-4.2435660">
        <ele>470.6</ele>
        <time>2021-12-28T11:55:35Z</time>
      </trkpt>
      <trkpt lat="37.5646180" lon="-4.2436050">
        <ele>470.6</ele>
        <time>2021-12-28T11:55:36Z</time>
      </trkpt>
      <trkpt lat="37.5646210" lon="-4.2436400">
        <ele>470.6</ele>
        <time>2021-12-28T11:55:37Z</time>
      </trkpt>
      <trkpt lat="37.5646270" lon="-4.2436770">
        <ele>470.6</ele>
        <time>2021-12-28T11:55:38Z</time>
      </trkpt>
      <trkpt lat="37.5646340" lon="-4.2437120">
        <ele>470.6</ele>
        <time>2021-12-28T11:55:39Z</time>
      </trkpt>
      <trkpt lat="37.5646370" lon="-4.2437450">
        <ele>470.6</ele>
        <time>2021-12-28T11:55:40Z</time>
      </trkpt>
      <trkpt lat="37.5646400" lon="-4.2437770">
        <ele>470.8</ele>
        <time>2021-12-28T11:55:41Z</time>
      </trkpt>
      <trkpt lat="37.5646530" lon="-4.2438100">
        <ele>470.8</ele>
        <time>2021-12-28T11:55:42Z</time>
      </trkpt>
      <trkpt lat="37.5646590" lon="-4.2438450">
        <ele>470.8</ele>
        <time>2021-12-28T11:55:43Z</time>
      </trkpt>
      <trkpt lat="37.5646660" lon="-4.2438820">
        <ele>470.8</ele>
        <time>2021-12-28T11:55:44Z</time>
      </trkpt>
      <trkpt lat="37.5646750" lon="-4.2439160">
        <ele>470.8</ele>
        <time>2021-12-28T11:55:45Z</time>
      </trkpt>
      <trkpt lat="37.5646780" lon="-4.2439520">
        <ele>470.8</ele>
        <time>2021-12-28T11:55:46Z</time>
      </trkpt>
      <trkpt lat="37.5646850" lon="-4.2439830">
        <ele>470.8</ele>
        <time>2021-12-28T11:55:47Z</time>
      </trkpt>
      <trkpt lat="37.5646940" lon="-4.2440150">
        <ele>470.8</ele>
        <time>2021-12-28T11:55:48Z</time>
      </trkpt>
      <trkpt lat="37.5647010" lon="-4.2440470">
        <ele>471.0</ele>
        <time>2021-12-28T11:55:49Z</time>
      </trkpt>
      <trkpt lat="37.5647070" lon="-4.2440770">
        <ele>471.0</ele>
        <time>2021-12-28T11:55:50Z</time>
      </trkpt>
      <trkpt lat="37.5647170" lon="-4.2441150">
        <ele>471.0</ele>
        <time>2021-12-28T11:55:51Z</time>
      </trkpt>
      <trkpt lat="37.5647260" lon="-4.2441480">
        <ele>471.0</ele>
        <time>2021-12-28T11:55:52Z</time>
      </trkpt>
      <trkpt lat="37.5647330" lon="-4.2441820">
        <ele>471.2</ele>
        <time>2021-12-28T11:55:53Z</time>
      </trkpt>
      <trkpt lat="37.5647420" lon="-4.2442160">
        <ele>471.2</ele>
        <time>2021-12-28T11:55:54Z</time>
      </trkpt>
      <trkpt lat="37.5647520" lon="-4.2442520">
        <ele>471.2</ele>
        <time>2021-12-28T11:55:55Z</time>
      </trkpt>
      <trkpt lat="37.5647580" lon="-4.2442880">
        <ele>471.2</ele>
        <time>2021-12-28T11:55:56Z</time>
      </trkpt>
      <trkpt lat="37.5647710" lon="-4.2443250">
        <ele>471.2</ele>
        <time>2021-12-28T11:55:57Z</time>
      </trkpt>
      <trkpt lat="37.5647780" lon="-4.2443580">
        <ele>471.4</ele>
        <time>2021-12-28T11:55:58Z</time>
      </trkpt>
      <trkpt lat="37.5647900" lon="-4.2443880">
        <ele>471.4</ele>
        <time>2021-12-28T11:55:59Z</time>
      </trkpt>
      <trkpt lat="37.5648000" lon="-4.2444200">
        <ele>471.2</ele>
        <time>2021-12-28T11:56:00Z</time>
      </trkpt>
      <trkpt lat="37.5648130" lon="-4.2444520">
        <ele>471.2</ele>
        <time>2021-12-28T11:56:01Z</time>
      </trkpt>
      <trkpt lat="37.5648220" lon="-4.2444850">
        <ele>471.2</ele>
        <time>2021-12-28T11:56:02Z</time>
      </trkpt>
      <trkpt lat="37.5648350" lon="-4.2445180">
        <ele>471.2</ele>
        <time>2021-12-28T11:56:03Z</time>
      </trkpt>
      <trkpt lat="37.5648420" lon="-4.2445500">
        <ele>471.2</ele>
        <time>2021-12-28T11:56:04Z</time>
      </trkpt>
      <trkpt lat="37.5648540" lon="-4.2445820">
        <ele>471.2</ele>
        <time>2021-12-28T11:56:05Z</time>
      </trkpt>
      <trkpt lat="37.5648640" lon="-4.2446130">
        <ele>471.2</ele>
        <time>2021-12-28T11:56:06Z</time>
      </trkpt>
      <trkpt lat="37.5648770" lon="-4.2446420">
        <ele>471.2</ele>
        <time>2021-12-28T11:56:07Z</time>
      </trkpt>
      <trkpt lat="37.5648930" lon="-4.2446700">
        <ele>471.2</ele>
        <time>2021-12-28T11:56:08Z</time>
      </trkpt>
      <trkpt lat="37.5649020" lon="-4.2446980">
        <ele>471.2</ele>
        <time>2021-12-28T11:56:09Z</time>
      </trkpt>
      <trkpt lat="37.5649180" lon="-4.2447270">
        <ele>471.0</ele>
        <time>2021-12-28T11:56:10Z</time>
      </trkpt>
      <trkpt lat="37.5649310" lon="-4.2447570">
        <ele>471.0</ele>
        <time>2021-12-28T11:56:11Z</time>
      </trkpt>
      <trkpt lat="37.5649410" lon="-4.2447870">
        <ele>471.0</ele>
        <time>2021-12-28T11:56:12Z</time>
      </trkpt>
      <trkpt lat="37.5649570" lon="-4.2448180">
        <ele>470.8</ele>
        <time>2021-12-28T11:56:13Z</time>
      </trkpt>
      <trkpt lat="37.5649730" lon="-4.2448480">
        <ele>470.8</ele>
        <time>2021-12-28T11:56:14Z</time>
      </trkpt>
      <trkpt lat="37.5649820" lon="-4.2448780">
        <ele>470.8</ele>
        <time>2021-12-28T11:56:15Z</time>
      </trkpt>
      <trkpt lat="37.5649950" lon="-4.2449120">
        <ele>470.6</ele>
        <time>2021-12-28T11:56:16Z</time>
      </trkpt>
      <trkpt lat="37.5650110" lon="-4.2449420">
        <ele>470.6</ele>
        <time>2021-12-28T11:56:17Z</time>
      </trkpt>
      <trkpt lat="37.5650210" lon="-4.2449720">
        <ele>470.6</ele>
        <time>2021-12-28T11:56:18Z</time>
      </trkpt>
      <trkpt lat="37.5650370" lon="-4.2450000">
        <ele>470.4</ele>
        <time>2021-12-28T11:56:19Z</time>
      </trkpt>
      <trkpt lat="37.5650530" lon="-4.2450280">
        <ele>470.4</ele>
        <time>2021-12-28T11:56:20Z</time>
      </trkpt>
      <trkpt lat="37.5650620" lon="-4.2450570">
        <ele>470.4</ele>
        <time>2021-12-28T11:56:21Z</time>
      </trkpt>
      <trkpt lat="37.5650780" lon="-4.2450830">
        <ele>470.4</ele>
        <time>2021-12-28T11:56:22Z</time>
      </trkpt>
      <trkpt lat="37.5650910" lon="-4.2451120">
        <ele>470.2</ele>
        <time>2021-12-28T11:56:23Z</time>
      </trkpt>
      <trkpt lat="37.5651010" lon="-4.2451420">
        <ele>470.2</ele>
        <time>2021-12-28T11:56:24Z</time>
      </trkpt>
      <trkpt lat="37.5651140" lon="-4.2451720">
        <ele>470.2</ele>
        <time>2021-12-28T11:56:25Z</time>
      </trkpt>
      <trkpt lat="37.5651300" lon="-4.2452000">
        <ele>470.2</ele>
        <time>2021-12-28T11:56:26Z</time>
      </trkpt>
      <trkpt lat="37.5651360" lon="-4.2452300">
        <ele>470.2</ele>
        <time>2021-12-28T11:56:27Z</time>
      </trkpt>
      <trkpt lat="37.5651550" lon="-4.2452600">
        <ele>470.2</ele>
        <time>2021-12-28T11:56:28Z</time>
      </trkpt>
      <trkpt lat="37.5651680" lon="-4.2452880">
        <ele>470.2</ele>
        <time>2021-12-28T11:56:29Z</time>
      </trkpt>
      <trkpt lat="37.5651810" lon="-4.2453130">
        <ele>470.2</ele>
        <time>2021-12-28T11:56:30Z</time>
      </trkpt>
      <trkpt lat="37.5651970" lon="-4.2453380">
        <ele>470.0</ele>
        <time>2021-12-28T11:56:31Z</time>
      </trkpt>
      <trkpt lat="37.5652160" lon="-4.2453650">
        <ele>470.0</ele>
        <time>2021-12-28T11:56:32Z</time>
      </trkpt>
      <trkpt lat="37.5652320" lon="-4.2453920">
        <ele>470.2</ele>
        <time>2021-12-28T11:56:33Z</time>
      </trkpt>
      <trkpt lat="37.5652480" lon="-4.2454170">
        <ele>470.2</ele>
        <time>2021-12-28T11:56:34Z</time>
      </trkpt>
      <trkpt lat="37.5652610" lon="-4.2454420">
        <ele>470.2</ele>
        <time>2021-12-28T11:56:35Z</time>
      </trkpt>
      <trkpt lat="37.5652770" lon="-4.2454670">
        <ele>470.2</ele>
        <time>2021-12-28T11:56:36Z</time>
      </trkpt>
      <trkpt lat="37.5652930" lon="-4.2454950">
        <ele>470.4</ele>
        <time>2021-12-28T11:56:37Z</time>
      </trkpt>
      <trkpt lat="37.5653090" lon="-4.2455200">
        <ele>470.4</ele>
        <time>2021-12-28T11:56:38Z</time>
      </trkpt>
      <trkpt lat="37.5653280" lon="-4.2455450">
        <ele>470.6</ele>
        <time>2021-12-28T11:56:39Z</time>
      </trkpt>
      <trkpt lat="37.5653380" lon="-4.2455720">
        <ele>470.6</ele>
        <time>2021-12-28T11:56:40Z</time>
      </trkpt>
      <trkpt lat="37.5653570" lon="-4.2456000">
        <ele>470.8</ele>
        <time>2021-12-28T11:56:41Z</time>
      </trkpt>
      <trkpt lat="37.5653730" lon="-4.2456260">
        <ele>470.8</ele>
        <time>2021-12-28T11:56:42Z</time>
      </trkpt>
      <trkpt lat="37.5653890" lon="-4.2456520">
        <ele>470.8</ele>
        <time>2021-12-28T11:56:43Z</time>
      </trkpt>
      <trkpt lat="37.5654020" lon="-4.2456800">
        <ele>471.0</ele>
        <time>2021-12-28T11:56:44Z</time>
      </trkpt>
      <trkpt lat="37.5654180" lon="-4.2457080">
        <ele>471.0</ele>
        <time>2021-12-28T11:56:45Z</time>
      </trkpt>
      <trkpt lat="37.5654340" lon="-4.2457350">
        <ele>471.2</ele>
        <time>2021-12-28T11:56:46Z</time>
      </trkpt>
      <trkpt lat="37.5654530" lon="-4.2457550">
        <ele>471.2</ele>
        <time>2021-12-28T11:56:47Z</time>
      </trkpt>
      <trkpt lat="37.5654720" lon="-4.2457780">
        <ele>471.4</ele>
        <time>2021-12-28T11:56:48Z</time>
      </trkpt>
      <trkpt lat="37.5654880" lon="-4.2458000">
        <ele>471.4</ele>
        <time>2021-12-28T11:56:49Z</time>
      </trkpt>
      <trkpt lat="37.5655070" lon="-4.2458230">
        <ele>471.4</ele>
        <time>2021-12-28T11:56:50Z</time>
      </trkpt>
      <trkpt lat="37.5655260" lon="-4.2458500">
        <ele>471.6</ele>
        <time>2021-12-28T11:56:51Z</time>
      </trkpt>
      <trkpt lat="37.5655360" lon="-4.2458770">
        <ele>471.6</ele>
        <time>2021-12-28T11:56:52Z</time>
      </trkpt>
      <trkpt lat="37.5655520" lon="-4.2459040">
        <ele>471.6</ele>
        <time>2021-12-28T11:56:53Z</time>
      </trkpt>
      <trkpt lat="37.5655710" lon="-4.2459280">
        <ele>471.8</ele>
        <time>2021-12-28T11:56:54Z</time>
      </trkpt>
      <trkpt lat="37.5655870" lon="-4.2459500">
        <ele>471.8</ele>
        <time>2021-12-28T11:56:55Z</time>
      </trkpt>
      <trkpt lat="37.5656060" lon="-4.2459720">
        <ele>472.0</ele>
        <time>2021-12-28T11:56:56Z</time>
      </trkpt>
      <trkpt lat="37.5656190" lon="-4.2459950">
        <ele>472.0</ele>
        <time>2021-12-28T11:56:57Z</time>
      </trkpt>
      <trkpt lat="37.5656380" lon="-4.2460160">
        <ele>472.0</ele>
        <time>2021-12-28T11:56:58Z</time>
      </trkpt>
      <trkpt lat="37.5656540" lon="-4.2460400">
        <ele>472.0</ele>
        <time>2021-12-28T11:56:59Z</time>
      </trkpt>
      <trkpt lat="37.5656700" lon="-4.2460620">
        <ele>472.0</ele>
        <time>2021-12-28T11:57:00Z</time>
      </trkpt>
      <trkpt lat="37.5656860" lon="-4.2460850">
        <ele>472.0</ele>
        <time>2021-12-28T11:57:01Z</time>
      </trkpt>
      <trkpt lat="37.5657060" lon="-4.2461100">
        <ele>472.2</ele>
        <time>2021-12-28T11:57:02Z</time>
      </trkpt>
      <trkpt lat="37.5657180" lon="-4.2461330">
        <ele>472.2</ele>
        <time>2021-12-28T11:57:03Z</time>
      </trkpt>
      <trkpt lat="37.5657340" lon="-4.2461550">
        <ele>472.2</ele>
        <time>2021-12-28T11:57:04Z</time>
      </trkpt>
      <trkpt lat="37.5657500" lon="-4.2461770">
        <ele>472.2</ele>
        <time>2021-12-28T11:57:05Z</time>
      </trkpt>
      <trkpt lat="37.5657660" lon="-4.2461980">
        <ele>472.2</ele>
        <time>2021-12-28T11:57:06Z</time>
      </trkpt>
      <trkpt lat="37.5657860" lon="-4.2462220">
        <ele>472.2</ele>
        <time>2021-12-28T11:57:07Z</time>
      </trkpt>
      <trkpt lat="37.5658050" lon="-4.2462450">
        <ele>472.4</ele>
        <time>2021-12-28T11:57:08Z</time>
      </trkpt>
      <trkpt lat="37.5658240" lon="-4.2462680">
        <ele>472.4</ele>
        <time>2021-12-28T11:57:09Z</time>
      </trkpt>
      <trkpt lat="37.5658430" lon="-4.2462920">
        <ele>472.4</ele>
        <time>2021-12-28T11:57:10Z</time>
      </trkpt>
      <trkpt lat="37.5658590" lon="-4.2463150">
        <ele>472.4</ele>
        <time>2021-12-28T11:57:11Z</time>
      </trkpt>
      <trkpt lat="37.5658750" lon="-4.2463380">
        <ele>472.4</ele>
        <time>2021-12-28T11:57:12Z</time>
      </trkpt>
      <trkpt lat="37.5658940" lon="-4.2463620">
        <ele>472.6</ele>
        <time>2021-12-28T11:57:13Z</time>
      </trkpt>
      <trkpt lat="37.5659100" lon="-4.2463860">
        <ele>472.6</ele>
        <time>2021-12-28T11:57:14Z</time>
      </trkpt>
      <trkpt lat="37.5659260" lon="-4.2464130">
        <ele>472.6</ele>
        <time>2021-12-28T11:57:15Z</time>
      </trkpt>
      <trkpt lat="37.5659460" lon="-4.2464380">
        <ele>472.6</ele>
        <time>2021-12-28T11:57:16Z</time>
      </trkpt>
      <trkpt lat="37.5659650" lon="-4.2464650">
        <ele>472.6</ele>
        <time>2021-12-28T11:57:17Z</time>
      </trkpt>
      <trkpt lat="37.5659840" lon="-4.2464900">
        <ele>472.6</ele>
        <time>2021-12-28T11:57:18Z</time>
      </trkpt>
      <trkpt lat="37.5660030" lon="-4.2465150">
        <ele>472.6</ele>
        <time>2021-12-28T11:57:19Z</time>
      </trkpt>
      <trkpt lat="37.5660220" lon="-4.2465380">
        <ele>472.6</ele>
        <time>2021-12-28T11:57:20Z</time>
      </trkpt>
      <trkpt lat="37.5660420" lon="-4.2465640">
        <ele>472.6</ele>
        <time>2021-12-28T11:57:21Z</time>
      </trkpt>
      <trkpt lat="37.5660540" lon="-4.2465880">
        <ele>472.8</ele>
        <time>2021-12-28T11:57:22Z</time>
      </trkpt>
      <trkpt lat="37.5660740" lon="-4.2466120">
        <ele>472.8</ele>
        <time>2021-12-28T11:57:23Z</time>
      </trkpt>
      <trkpt lat="37.5660930" lon="-4.2466370">
        <ele>472.8</ele>
        <time>2021-12-28T11:57:24Z</time>
      </trkpt>
      <trkpt lat="37.5661120" lon="-4.2466650">
        <ele>472.8</ele>
        <time>2021-12-28T11:57:25Z</time>
      </trkpt>
      <trkpt lat="37.5661310" lon="-4.2466930">
        <ele>472.8</ele>
        <time>2021-12-28T11:57:26Z</time>
      </trkpt>
      <trkpt lat="37.5661470" lon="-4.2467250">
        <ele>473.0</ele>
        <time>2021-12-28T11:57:27Z</time>
      </trkpt>
      <trkpt lat="37.5661660" lon="-4.2467520">
        <ele>473.0</ele>
        <time>2021-12-28T11:57:28Z</time>
      </trkpt>
      <trkpt lat="37.5661820" lon="-4.2467750">
        <ele>473.2</ele>
        <time>2021-12-28T11:57:29Z</time>
      </trkpt>
      <trkpt lat="37.5662020" lon="-4.2468030">
        <ele>473.2</ele>
        <time>2021-12-28T11:57:30Z</time>
      </trkpt>
      <trkpt lat="37.5662140" lon="-4.2468300">
        <ele>473.2</ele>
        <time>2021-12-28T11:57:31Z</time>
      </trkpt>
      <trkpt lat="37.5662340" lon="-4.2468550">
        <ele>473.2</ele>
        <time>2021-12-28T11:57:32Z</time>
      </trkpt>
      <trkpt lat="37.5662530" lon="-4.2468800">
        <ele>473.2</ele>
        <time>2021-12-28T11:57:33Z</time>
      </trkpt>
      <trkpt lat="37.5662690" lon="-4.2469080">
        <ele>473.2</ele>
        <time>2021-12-28T11:57:34Z</time>
      </trkpt>
      <trkpt lat="37.5662880" lon="-4.2469350">
        <ele>473.4</ele>
        <time>2021-12-28T11:57:35Z</time>
      </trkpt>
      <trkpt lat="37.5663040" lon="-4.2469600">
        <ele>473.4</ele>
        <time>2021-12-28T11:57:36Z</time>
      </trkpt>
      <trkpt lat="37.5663260" lon="-4.2469800">
        <ele>473.4</ele>
        <time>2021-12-28T11:57:37Z</time>
      </trkpt>
      <trkpt lat="37.5663460" lon="-4.2470020">
        <ele>473.4</ele>
        <time>2021-12-28T11:57:38Z</time>
      </trkpt>
      <trkpt lat="37.5663650" lon="-4.2470260">
        <ele>473.4</ele>
        <time>2021-12-28T11:57:39Z</time>
      </trkpt>
      <trkpt lat="37.5663840" lon="-4.2470550">
        <ele>473.4</ele>
        <time>2021-12-28T11:57:40Z</time>
      </trkpt>
      <trkpt lat="37.5664000" lon="-4.2470820">
        <ele>473.4</ele>
        <time>2021-12-28T11:57:41Z</time>
      </trkpt>
      <trkpt lat="37.5664220" lon="-4.2471100">
        <ele>473.6</ele>
        <time>2021-12-28T11:57:42Z</time>
      </trkpt>
      <trkpt lat="37.5664350" lon="-4.2471330">
        <ele>473.6</ele>
        <time>2021-12-28T11:57:43Z</time>
      </trkpt>
      <trkpt lat="37.5664540" lon="-4.2471580">
        <ele>473.6</ele>
        <time>2021-12-28T11:57:44Z</time>
      </trkpt>
      <trkpt lat="37.5664700" lon="-4.2471830">
        <ele>473.8</ele>
        <time>2021-12-28T11:57:45Z</time>
      </trkpt>
      <trkpt lat="37.5664900" lon="-4.2472100">
        <ele>473.8</ele>
        <time>2021-12-28T11:57:46Z</time>
      </trkpt>
      <trkpt lat="37.5665090" lon="-4.2472370">
        <ele>473.8</ele>
        <time>2021-12-28T11:57:47Z</time>
      </trkpt>
      <trkpt lat="37.5665280" lon="-4.2472600">
        <ele>473.8</ele>
        <time>2021-12-28T11:57:48Z</time>
      </trkpt>
      <trkpt lat="37.5665470" lon="-4.2472850">
        <ele>473.8</ele>
        <time>2021-12-28T11:57:49Z</time>
      </trkpt>
      <trkpt lat="37.5665660" lon="-4.2473080">
        <ele>473.8</ele>
        <time>2021-12-28T11:57:50Z</time>
      </trkpt>
      <trkpt lat="37.5665820" lon="-4.2473340">
        <ele>473.8</ele>
        <time>2021-12-28T11:57:51Z</time>
      </trkpt>
      <trkpt lat="37.5666020" lon="-4.2473580">
        <ele>473.8</ele>
        <time>2021-12-28T11:57:52Z</time>
      </trkpt>
      <trkpt lat="37.5666210" lon="-4.2473850">
        <ele>474.0</ele>
        <time>2021-12-28T11:57:53Z</time>
      </trkpt>
      <trkpt lat="37.5666340" lon="-4.2474150">
        <ele>474.0</ele>
        <time>2021-12-28T11:57:54Z</time>
      </trkpt>
      <trkpt lat="37.5666530" lon="-4.2474420">
        <ele>474.0</ele>
        <time>2021-12-28T11:57:55Z</time>
      </trkpt>
      <trkpt lat="37.5666780" lon="-4.2474680">
        <ele>474.2</ele>
        <time>2021-12-28T11:57:56Z</time>
      </trkpt>
      <trkpt lat="37.5666980" lon="-4.2474920">
        <ele>474.2</ele>
        <time>2021-12-28T11:57:57Z</time>
      </trkpt>
      <trkpt lat="37.5667100" lon="-4.2475170">
        <ele>474.4</ele>
        <time>2021-12-28T11:57:58Z</time>
      </trkpt>
      <trkpt lat="37.5667300" lon="-4.2475430">
        <ele>474.4</ele>
        <time>2021-12-28T11:57:59Z</time>
      </trkpt>
      <trkpt lat="37.5667490" lon="-4.2475700">
        <ele>474.6</ele>
        <time>2021-12-28T11:58:00Z</time>
      </trkpt>
      <trkpt lat="37.5667650" lon="-4.2475980">
        <ele>474.6</ele>
        <time>2021-12-28T11:58:01Z</time>
      </trkpt>
      <trkpt lat="37.5667810" lon="-4.2476220">
        <ele>474.6</ele>
        <time>2021-12-28T11:58:02Z</time>
      </trkpt>
      <trkpt lat="37.5667970" lon="-4.2476480">
        <ele>474.8</ele>
        <time>2021-12-28T11:58:03Z</time>
      </trkpt>
      <trkpt lat="37.5668160" lon="-4.2476700">
        <ele>474.8</ele>
        <time>2021-12-28T11:58:04Z</time>
      </trkpt>
      <trkpt lat="37.5668320" lon="-4.2476940">
        <ele>474.8</ele>
        <time>2021-12-28T11:58:05Z</time>
      </trkpt>
      <trkpt lat="37.5668510" lon="-4.2477180">
        <ele>474.8</ele>
        <time>2021-12-28T11:58:06Z</time>
      </trkpt>
      <trkpt lat="37.5668700" lon="-4.2477460">
        <ele>474.8</ele>
        <time>2021-12-28T11:58:07Z</time>
      </trkpt>
      <trkpt lat="37.5668860" lon="-4.2477720">
        <ele>474.8</ele>
        <time>2021-12-28T11:58:08Z</time>
      </trkpt>
      <trkpt lat="37.5669060" lon="-4.2477960">
        <ele>474.8</ele>
        <time>2021-12-28T11:58:09Z</time>
      </trkpt>
      <trkpt lat="37.5669280" lon="-4.2478200">
        <ele>475.0</ele>
        <time>2021-12-28T11:58:10Z</time>
      </trkpt>
      <trkpt lat="37.5669470" lon="-4.2478450">
        <ele>475.0</ele>
        <time>2021-12-28T11:58:11Z</time>
      </trkpt>
      <trkpt lat="37.5669630" lon="-4.2478700">
        <ele>475.0</ele>
        <time>2021-12-28T11:58:12Z</time>
      </trkpt>
      <trkpt lat="37.5669820" lon="-4.2478970">
        <ele>475.2</ele>
        <time>2021-12-28T11:58:13Z</time>
      </trkpt>
      <trkpt lat="37.5670020" lon="-4.2479220">
        <ele>475.2</ele>
        <time>2021-12-28T11:58:14Z</time>
      </trkpt>
      <trkpt lat="37.5670180" lon="-4.2479480">
        <ele>475.4</ele>
        <time>2021-12-28T11:58:15Z</time>
      </trkpt>
      <trkpt lat="37.5670300" lon="-4.2479740">
        <ele>475.4</ele>
        <time>2021-12-28T11:58:16Z</time>
      </trkpt>
      <trkpt lat="37.5670460" lon="-4.2479980">
        <ele>475.6</ele>
        <time>2021-12-28T11:58:17Z</time>
      </trkpt>
      <trkpt lat="37.5670660" lon="-4.2480250">
        <ele>475.6</ele>
        <time>2021-12-28T11:58:18Z</time>
      </trkpt>
      <trkpt lat="37.5670850" lon="-4.2480470">
        <ele>475.8</ele>
        <time>2021-12-28T11:58:19Z</time>
      </trkpt>
      <trkpt lat="37.5671040" lon="-4.2480700">
        <ele>475.8</ele>
        <time>2021-12-28T11:58:20Z</time>
      </trkpt>
      <trkpt lat="37.5671230" lon="-4.2480920">
        <ele>475.8</ele>
        <time>2021-12-28T11:58:21Z</time>
      </trkpt>
      <trkpt lat="37.5671420" lon="-4.2481180">
        <ele>475.8</ele>
        <time>2021-12-28T11:58:22Z</time>
      </trkpt>
      <trkpt lat="37.5671620" lon="-4.2481450">
        <ele>475.8</ele>
        <time>2021-12-28T11:58:23Z</time>
      </trkpt>
      <trkpt lat="37.5671810" lon="-4.2481680">
        <ele>476.0</ele>
        <time>2021-12-28T11:58:24Z</time>
      </trkpt>
      <trkpt lat="37.5672030" lon="-4.2481900">
        <ele>476.0</ele>
        <time>2021-12-28T11:58:25Z</time>
      </trkpt>
      <trkpt lat="37.5672190" lon="-4.2482150">
        <ele>476.2</ele>
        <time>2021-12-28T11:58:26Z</time>
      </trkpt>
      <trkpt lat="37.5672380" lon="-4.2482420">
        <ele>476.2</ele>
        <time>2021-12-28T11:58:27Z</time>
      </trkpt>
      <trkpt lat="37.5672580" lon="-4.2482720">
        <ele>476.2</ele>
        <time>2021-12-28T11:58:28Z</time>
      </trkpt>
      <trkpt lat="37.5672770" lon="-4.2483040">
        <ele>476.2</ele>
        <time>2021-12-28T11:58:29Z</time>
      </trkpt>
      <trkpt lat="37.5672960" lon="-4.2483380">
        <ele>476.4</ele>
        <time>2021-12-28T11:58:30Z</time>
      </trkpt>
      <trkpt lat="37.5673220" lon="-4.2483720">
        <ele>476.4</ele>
        <time>2021-12-28T11:58:31Z</time>
      </trkpt>
      <trkpt lat="37.5673410" lon="-4.2484020">
        <ele>476.6</ele>
        <time>2021-12-28T11:58:32Z</time>
      </trkpt>
      <trkpt lat="37.5673660" lon="-4.2484330">
        <ele>476.6</ele>
        <time>2021-12-28T11:58:33Z</time>
      </trkpt>
      <trkpt lat="37.5673860" lon="-4.2484650">
        <ele>476.8</ele>
        <time>2021-12-28T11:58:34Z</time>
      </trkpt>
      <trkpt lat="37.5674080" lon="-4.2484950">
        <ele>476.8</ele>
        <time>2021-12-28T11:58:35Z</time>
      </trkpt>
      <trkpt lat="37.5674270" lon="-4.2485220">
        <ele>476.8</ele>
        <time>2021-12-28T11:58:36Z</time>
      </trkpt>
      <trkpt lat="37.5674460" lon="-4.2485430">
        <ele>477.0</ele>
        <time>2021-12-28T11:58:37Z</time>
      </trkpt>
      <trkpt lat="37.5674660" lon="-4.2485600">
        <ele>477.0</ele>
        <time>2021-12-28T11:58:38Z</time>
      </trkpt>
      <trkpt lat="37.5674910" lon="-4.2485720">
        <ele>477.0</ele>
        <time>2021-12-28T11:58:39Z</time>
      </trkpt>
      <trkpt lat="37.5674910" lon="-4.2485720">
        <ele>477.0</ele>
        <time>2021-12-28T11:58:40Z</time>
      </trkpt>
      <trkpt lat="37.5675260" lon="-4.2485800">
        <ele>477.0</ele>
        <time>2021-12-28T11:58:41Z</time>
      </trkpt>
      <trkpt lat="37.5675460" lon="-4.2485770">
        <ele>477.0</ele>
        <time>2021-12-28T11:58:42Z</time>
      </trkpt>
      <trkpt lat="37.5675460" lon="-4.2485770">
        <ele>477.0</ele>
        <time>2021-12-28T11:58:43Z</time>
      </trkpt>
      <trkpt lat="37.5675710" lon="-4.2485580">
        <ele>477.0</ele>
        <time>2021-12-28T11:58:44Z</time>
      </trkpt>
      <trkpt lat="37.5675710" lon="-4.2485580">
        <ele>477.0</ele>
        <time>2021-12-28T11:58:45Z</time>
      </trkpt>
      <trkpt lat="37.5675650" lon="-4.2485350">
        <ele>477.0</ele>
        <time>2021-12-28T11:58:46Z</time>
      </trkpt>
      <trkpt lat="37.5675650" lon="-4.2485350">
        <ele>477.0</ele>
        <time>2021-12-28T11:58:47Z</time>
      </trkpt>
      <trkpt lat="37.5675650" lon="-4.2485350">
        <ele>477.0</ele>
        <time>2021-12-28T11:58:48Z</time>
      </trkpt>
      <trkpt lat="37.5675650" lon="-4.2485350">
        <ele>477.0</ele>
        <time>2021-12-28T11:58:49Z</time>
      </trkpt>
      <trkpt lat="37.5675650" lon="-4.2485350">
        <ele>477.0</ele>
        <time>2021-12-28T11:58:50Z</time>
      </trkpt>
      <trkpt lat="37.5675460" lon="-4.2486520">
        <ele>478.0</ele>
        <time>2021-12-28T11:59:11Z</time>
      </trkpt>
      <trkpt lat="37.5675580" lon="-4.2486820">
        <ele>478.2</ele>
        <time>2021-12-28T11:59:12Z</time>
      </trkpt>
      <trkpt lat="37.5675780" lon="-4.2487120">
        <ele>478.2</ele>
        <time>2021-12-28T11:59:13Z</time>
      </trkpt>
      <trkpt lat="37.5675970" lon="-4.2487400">
        <ele>478.2</ele>
        <time>2021-12-28T11:59:14Z</time>
      </trkpt>
      <trkpt lat="37.5676130" lon="-4.2487680">
        <ele>478.2</ele>
        <time>2021-12-28T11:59:15Z</time>
      </trkpt>
      <trkpt lat="37.5676320" lon="-4.2487950">
        <ele>478.2</ele>
        <time>2021-12-28T11:59:16Z</time>
      </trkpt>
      <trkpt lat="37.5676510" lon="-4.2488220">
        <ele>478.2</ele>
        <time>2021-12-28T11:59:17Z</time>
      </trkpt>
      <trkpt lat="37.5676700" lon="-4.2488460">
        <ele>478.2</ele>
        <time>2021-12-28T11:59:18Z</time>
      </trkpt>
      <trkpt lat="37.5676860" lon="-4.2488730">
        <ele>478.2</ele>
        <time>2021-12-28T11:59:19Z</time>
      </trkpt>
      <trkpt lat="37.5677060" lon="-4.2488980">
        <ele>478.2</ele>
        <time>2021-12-28T11:59:20Z</time>
      </trkpt>
      <trkpt lat="37.5677250" lon="-4.2489230">
        <ele>478.2</ele>
        <time>2021-12-28T11:59:21Z</time>
      </trkpt>
      <trkpt lat="37.5677410" lon="-4.2489500">
        <ele>478.2</ele>
        <time>2021-12-28T11:59:22Z</time>
      </trkpt>
      <trkpt lat="37.5677600" lon="-4.2489770">
        <ele>478.2</ele>
        <time>2021-12-28T11:59:23Z</time>
      </trkpt>
      <trkpt lat="37.5677790" lon="-4.2490040">
        <ele>478.0</ele>
        <time>2021-12-28T11:59:24Z</time>
      </trkpt>
      <trkpt lat="37.5677980" lon="-4.2490320">
        <ele>478.0</ele>
        <time>2021-12-28T11:59:25Z</time>
      </trkpt>
      <trkpt lat="37.5678140" lon="-4.2490600">
        <ele>478.0</ele>
        <time>2021-12-28T11:59:26Z</time>
      </trkpt>
      <trkpt lat="37.5678340" lon="-4.2490850">
        <ele>478.0</ele>
        <time>2021-12-28T11:59:27Z</time>
      </trkpt>
      <trkpt lat="37.5678530" lon="-4.2491100">
        <ele>478.2</ele>
        <time>2021-12-28T11:59:28Z</time>
      </trkpt>
      <trkpt lat="37.5678720" lon="-4.2491330">
        <ele>478.2</ele>
        <time>2021-12-28T11:59:29Z</time>
      </trkpt>
      <trkpt lat="37.5678910" lon="-4.2491560">
        <ele>478.2</ele>
        <time>2021-12-28T11:59:30Z</time>
      </trkpt>
      <trkpt lat="37.5679040" lon="-4.2491780">
        <ele>478.2</ele>
        <time>2021-12-28T11:59:31Z</time>
      </trkpt>
      <trkpt lat="37.5679200" lon="-4.2492000">
        <ele>478.2</ele>
        <time>2021-12-28T11:59:32Z</time>
      </trkpt>
      <trkpt lat="37.5679390" lon="-4.2492230">
        <ele>478.2</ele>
        <time>2021-12-28T11:59:33Z</time>
      </trkpt>
      <trkpt lat="37.5679550" lon="-4.2492480">
        <ele>478.2</ele>
        <time>2021-12-28T11:59:34Z</time>
      </trkpt>
      <trkpt lat="37.5679740" lon="-4.2492750">
        <ele>478.2</ele>
        <time>2021-12-28T11:59:35Z</time>
      </trkpt>
      <trkpt lat="37.5679940" lon="-4.2492980">
        <ele>478.2</ele>
        <time>2021-12-28T11:59:36Z</time>
      </trkpt>
      <trkpt lat="37.5680100" lon="-4.2493220">
        <ele>478.2</ele>
        <time>2021-12-28T11:59:37Z</time>
      </trkpt>
      <trkpt lat="37.5680220" lon="-4.2493420">
        <ele>478.2</ele>
        <time>2021-12-28T11:59:38Z</time>
      </trkpt>
      <trkpt lat="37.5680420" lon="-4.2493620">
        <ele>478.2</ele>
        <time>2021-12-28T11:59:39Z</time>
      </trkpt>
      <trkpt lat="37.5680580" lon="-4.2493820">
        <ele>478.2</ele>
        <time>2021-12-28T11:59:40Z</time>
      </trkpt>
      <trkpt lat="37.5680740" lon="-4.2494040">
        <ele>478.2</ele>
        <time>2021-12-28T11:59:41Z</time>
      </trkpt>
      <trkpt lat="37.5680900" lon="-4.2494240">
        <ele>478.4</ele>
        <time>2021-12-28T11:59:42Z</time>
      </trkpt>
      <trkpt lat="37.5681020" lon="-4.2494450">
        <ele>478.2</ele>
        <time>2021-12-28T11:59:43Z</time>
      </trkpt>
      <trkpt lat="37.5681180" lon="-4.2494680">
        <ele>478.2</ele>
        <time>2021-12-28T11:59:44Z</time>
      </trkpt>
      <trkpt lat="37.5681340" lon="-4.2494920">
        <ele>478.2</ele>
        <time>2021-12-28T11:59:45Z</time>
      </trkpt>
      <trkpt lat="37.5681500" lon="-4.2495130">
        <ele>478.4</ele>
        <time>2021-12-28T11:59:46Z</time>
      </trkpt>
      <trkpt lat="37.5681660" lon="-4.2495350">
        <ele>478.4</ele>
        <time>2021-12-28T11:59:47Z</time>
      </trkpt>
      <trkpt lat="37.5681790" lon="-4.2495560">
        <ele>478.4</ele>
        <time>2021-12-28T11:59:48Z</time>
      </trkpt>
      <trkpt lat="37.5681980" lon="-4.2495800">
        <ele>478.6</ele>
        <time>2021-12-28T11:59:49Z</time>
      </trkpt>
      <trkpt lat="37.5682140" lon="-4.2496030">
        <ele>478.6</ele>
        <time>2021-12-28T11:59:50Z</time>
      </trkpt>
      <trkpt lat="37.5682300" lon="-4.2496280">
        <ele>478.6</ele>
        <time>2021-12-28T11:59:51Z</time>
      </trkpt>
      <trkpt lat="37.5682460" lon="-4.2496520">
        <ele>478.6</ele>
        <time>2021-12-28T11:59:52Z</time>
      </trkpt>
      <trkpt lat="37.5682590" lon="-4.2496730">
        <ele>478.6</ele>
        <time>2021-12-28T11:59:53Z</time>
      </trkpt>
      <trkpt lat="37.5682780" lon="-4.2496970">
        <ele>478.6</ele>
        <time>2021-12-28T11:59:54Z</time>
      </trkpt>
      <trkpt lat="37.5682940" lon="-4.2497220">
        <ele>478.6</ele>
        <time>2021-12-28T11:59:55Z</time>
      </trkpt>
      <trkpt lat="37.5683100" lon="-4.2497450">
        <ele>478.6</ele>
        <time>2021-12-28T11:59:56Z</time>
      </trkpt>
      <trkpt lat="37.5683260" lon="-4.2497680">
        <ele>478.6</ele>
        <time>2021-12-28T11:59:57Z</time>
      </trkpt>
      <trkpt lat="37.5683390" lon="-4.2497950">
        <ele>478.6</ele>
        <time>2021-12-28T11:59:58Z</time>
      </trkpt>
      <trkpt lat="37.5683580" lon="-4.2498200">
        <ele>478.6</ele>
        <time>2021-12-28T11:59:59Z</time>
      </trkpt>
      <trkpt lat="37.5683790" lon="-4.2498560">
        <ele>478.6</ele>
        <time>2021-12-28T12:00:00Z</time>
      </trkpt>
      <trkpt lat="37.5683870" lon="-4.2498680">
        <ele>478.6</ele>
        <time>2021-12-28T12:00:01Z</time>
      </trkpt>
      <trkpt lat="37.5683970" lon="-4.2498930">
        <ele>478.6</ele>
        <time>2021-12-28T12:00:02Z</time>
      </trkpt>
      <trkpt lat="37.5684130" lon="-4.2499200">
        <ele>478.6</ele>
        <time>2021-12-28T12:00:03Z</time>
      </trkpt>
      <trkpt lat="37.5684290" lon="-4.2499430">
        <ele>478.6</ele>
        <time>2021-12-28T12:00:04Z</time>
      </trkpt>
      <trkpt lat="37.5684450" lon="-4.2499680">
        <ele>478.8</ele>
        <time>2021-12-28T12:00:05Z</time>
      </trkpt>
      <trkpt lat="37.5684580" lon="-4.2499920">
        <ele>478.8</ele>
        <time>2021-12-28T12:00:06Z</time>
      </trkpt>
      <trkpt lat="37.5684740" lon="-4.2500130">
        <ele>479.0</ele>
        <time>2021-12-28T12:00:07Z</time>
      </trkpt>
      <trkpt lat="37.5684900" lon="-4.2500380">
        <ele>479.0</ele>
        <time>2021-12-28T12:00:08Z</time>
      </trkpt>
      <trkpt lat="37.5685060" lon="-4.2500620">
        <ele>479.0</ele>
        <time>2021-12-28T12:00:09Z</time>
      </trkpt>
      <trkpt lat="37.5685150" lon="-4.2500870">
        <ele>479.0</ele>
        <time>2021-12-28T12:00:10Z</time>
      </trkpt>
      <trkpt lat="37.5685310" lon="-4.2501120">
        <ele>479.0</ele>
        <time>2021-12-28T12:00:11Z</time>
      </trkpt>
      <trkpt lat="37.5685470" lon="-4.2501380">
        <ele>479.2</ele>
        <time>2021-12-28T12:00:12Z</time>
      </trkpt>
      <trkpt lat="37.5685570" lon="-4.2501650">
        <ele>479.2</ele>
        <time>2021-12-28T12:00:13Z</time>
      </trkpt>
      <trkpt lat="37.5685730" lon="-4.2501900">
        <ele>479.2</ele>
        <time>2021-12-28T12:00:14Z</time>
      </trkpt>
      <trkpt lat="37.5685860" lon="-4.2502160">
        <ele>479.4</ele>
        <time>2021-12-28T12:00:15Z</time>
      </trkpt>
      <trkpt lat="37.5685980" lon="-4.2502420">
        <ele>479.4</ele>
        <time>2021-12-28T12:00:16Z</time>
      </trkpt>
      <trkpt lat="37.5686110" lon="-4.2502650">
        <ele>479.6</ele>
        <time>2021-12-28T12:00:17Z</time>
      </trkpt>
      <trkpt lat="37.5686240" lon="-4.2502900">
        <ele>479.6</ele>
        <time>2021-12-28T12:00:18Z</time>
      </trkpt>
      <trkpt lat="37.5686340" lon="-4.2503180">
        <ele>479.6</ele>
        <time>2021-12-28T12:00:19Z</time>
      </trkpt>
      <trkpt lat="37.5686460" lon="-4.2503470">
        <ele>479.6</ele>
        <time>2021-12-28T12:00:20Z</time>
      </trkpt>
      <trkpt lat="37.5686590" lon="-4.2503730">
        <ele>479.8</ele>
        <time>2021-12-28T12:00:21Z</time>
      </trkpt>
      <trkpt lat="37.5686720" lon="-4.2503980">
        <ele>479.8</ele>
        <time>2021-12-28T12:00:22Z</time>
      </trkpt>
      <trkpt lat="37.5686780" lon="-4.2504240">
        <ele>479.8</ele>
        <time>2021-12-28T12:00:23Z</time>
      </trkpt>
      <trkpt lat="37.5686910" lon="-4.2504450">
        <ele>479.8</ele>
        <time>2021-12-28T12:00:24Z</time>
      </trkpt>
      <trkpt lat="37.5687040" lon="-4.2504720">
        <ele>479.8</ele>
        <time>2021-12-28T12:00:25Z</time>
      </trkpt>
      <trkpt lat="37.5687140" lon="-4.2505000">
        <ele>479.8</ele>
        <time>2021-12-28T12:00:26Z</time>
      </trkpt>
      <trkpt lat="37.5687230" lon="-4.2505300">
        <ele>479.8</ele>
        <time>2021-12-28T12:00:27Z</time>
      </trkpt>
      <trkpt lat="37.5687330" lon="-4.2505600">
        <ele>479.8</ele>
        <time>2021-12-28T12:00:28Z</time>
      </trkpt>
      <trkpt lat="37.5687460" lon="-4.2505880">
        <ele>480.0</ele>
        <time>2021-12-28T12:00:29Z</time>
      </trkpt>
      <trkpt lat="37.5687550" lon="-4.2506150">
        <ele>480.0</ele>
        <time>2021-12-28T12:00:30Z</time>
      </trkpt>
      <trkpt lat="37.5687680" lon="-4.2506450">
        <ele>480.0</ele>
        <time>2021-12-28T12:00:31Z</time>
      </trkpt>
      <trkpt lat="37.5687740" lon="-4.2506730">
        <ele>480.2</ele>
        <time>2021-12-28T12:00:32Z</time>
      </trkpt>
      <trkpt lat="37.5687870" lon="-4.2507030">
        <ele>480.2</ele>
        <time>2021-12-28T12:00:33Z</time>
      </trkpt>
      <trkpt lat="37.5687970" lon="-4.2507320">
        <ele>480.4</ele>
        <time>2021-12-28T12:00:34Z</time>
      </trkpt>
      <trkpt lat="37.5688060" lon="-4.2507600">
        <ele>480.4</ele>
        <time>2021-12-28T12:00:35Z</time>
      </trkpt>
      <trkpt lat="37.5688160" lon="-4.2507900">
        <ele>480.6</ele>
        <time>2021-12-28T12:00:36Z</time>
      </trkpt>
      <trkpt lat="37.5688260" lon="-4.2508200">
        <ele>480.6</ele>
        <time>2021-12-28T12:00:37Z</time>
      </trkpt>
      <trkpt lat="37.5688350" lon="-4.2508480">
        <ele>480.8</ele>
        <time>2021-12-28T12:00:38Z</time>
      </trkpt>
      <trkpt lat="37.5688450" lon="-4.2508800">
        <ele>480.8</ele>
        <time>2021-12-28T12:00:39Z</time>
      </trkpt>
      <trkpt lat="37.5688510" lon="-4.2509100">
        <ele>480.8</ele>
        <time>2021-12-28T12:00:40Z</time>
      </trkpt>
      <trkpt lat="37.5688670" lon="-4.2509560">
        <ele>480.8</ele>
        <time>2021-12-28T12:00:41Z</time>
      </trkpt>
      <trkpt lat="37.5688700" lon="-4.2509700">
        <ele>481.0</ele>
        <time>2021-12-28T12:00:42Z</time>
      </trkpt>
      <trkpt lat="37.5688770" lon="-4.2509980">
        <ele>481.0</ele>
        <time>2021-12-28T12:00:43Z</time>
      </trkpt>
      <trkpt lat="37.5688900" lon="-4.2510280">
        <ele>481.0</ele>
        <time>2021-12-28T12:00:44Z</time>
      </trkpt>
      <trkpt lat="37.5688930" lon="-4.2510580">
        <ele>481.0</ele>
        <time>2021-12-28T12:00:45Z</time>
      </trkpt>
      <trkpt lat="37.5689020" lon="-4.2510880">
        <ele>481.2</ele>
        <time>2021-12-28T12:00:46Z</time>
      </trkpt>
      <trkpt lat="37.5689120" lon="-4.2511170">
        <ele>481.2</ele>
        <time>2021-12-28T12:00:47Z</time>
      </trkpt>
      <trkpt lat="37.5689220" lon="-4.2511480">
        <ele>481.2</ele>
        <time>2021-12-28T12:00:48Z</time>
      </trkpt>
      <trkpt lat="37.5689310" lon="-4.2511780">
        <ele>481.4</ele>
        <time>2021-12-28T12:00:49Z</time>
      </trkpt>
      <trkpt lat="37.5689340" lon="-4.2512080">
        <ele>481.4</ele>
        <time>2021-12-28T12:00:50Z</time>
      </trkpt>
      <trkpt lat="37.5689440" lon="-4.2512370">
        <ele>481.4</ele>
        <time>2021-12-28T12:00:51Z</time>
      </trkpt>
      <trkpt lat="37.5689470" lon="-4.2512660">
        <ele>481.4</ele>
        <time>2021-12-28T12:00:52Z</time>
      </trkpt>
      <trkpt lat="37.5689540" lon="-4.2512960">
        <ele>481.4</ele>
        <time>2021-12-28T12:00:53Z</time>
      </trkpt>
      <trkpt lat="37.5689570" lon="-4.2513280">
        <ele>481.4</ele>
        <time>2021-12-28T12:00:54Z</time>
      </trkpt>
      <trkpt lat="37.5689630" lon="-4.2513620">
        <ele>481.6</ele>
        <time>2021-12-28T12:00:55Z</time>
      </trkpt>
      <trkpt lat="37.5689700" lon="-4.2513930">
        <ele>481.6</ele>
        <time>2021-12-28T12:00:56Z</time>
      </trkpt>
      <trkpt lat="37.5689730" lon="-4.2514250">
        <ele>481.6</ele>
        <time>2021-12-28T12:00:57Z</time>
      </trkpt>
      <trkpt lat="37.5689860" lon="-4.2514530">
        <ele>481.8</ele>
        <time>2021-12-28T12:00:58Z</time>
      </trkpt>
      <trkpt lat="37.5689890" lon="-4.2514840">
        <ele>481.8</ele>
        <time>2021-12-28T12:00:59Z</time>
      </trkpt>
      <trkpt lat="37.5689950" lon="-4.2515120">
        <ele>482.0</ele>
        <time>2021-12-28T12:01:00Z</time>
      </trkpt>
      <trkpt lat="37.5690020" lon="-4.2515400">
        <ele>482.0</ele>
        <time>2021-12-28T12:01:01Z</time>
      </trkpt>
      <trkpt lat="37.5690050" lon="-4.2515680">
        <ele>482.2</ele>
        <time>2021-12-28T12:01:02Z</time>
      </trkpt>
      <trkpt lat="37.5690080" lon="-4.2516000">
        <ele>482.2</ele>
        <time>2021-12-28T12:01:03Z</time>
      </trkpt>
      <trkpt lat="37.5690140" lon="-4.2516320">
        <ele>482.2</ele>
        <time>2021-12-28T12:01:04Z</time>
      </trkpt>
      <trkpt lat="37.5690210" lon="-4.2516620">
        <ele>482.4</ele>
        <time>2021-12-28T12:01:05Z</time>
      </trkpt>
      <trkpt lat="37.5690240" lon="-4.2516900">
        <ele>482.4</ele>
        <time>2021-12-28T12:01:06Z</time>
      </trkpt>
      <trkpt lat="37.5690300" lon="-4.2517200">
        <ele>482.6</ele>
        <time>2021-12-28T12:01:07Z</time>
      </trkpt>
      <trkpt lat="37.5690340" lon="-4.2517520">
        <ele>482.6</ele>
        <time>2021-12-28T12:01:08Z</time>
      </trkpt>
      <trkpt lat="37.5690340" lon="-4.2517850">
        <ele>482.6</ele>
        <time>2021-12-28T12:01:09Z</time>
      </trkpt>
      <trkpt lat="37.5690430" lon="-4.2518150">
        <ele>482.8</ele>
        <time>2021-12-28T12:01:10Z</time>
      </trkpt>
      <trkpt lat="37.5690500" lon="-4.2518440">
        <ele>482.8</ele>
        <time>2021-12-28T12:01:11Z</time>
      </trkpt>
      <trkpt lat="37.5690530" lon="-4.2518720">
        <ele>483.0</ele>
        <time>2021-12-28T12:01:12Z</time>
      </trkpt>
      <trkpt lat="37.5690560" lon="-4.2519000">
        <ele>483.0</ele>
        <time>2021-12-28T12:01:13Z</time>
      </trkpt>
      <trkpt lat="37.5690660" lon="-4.2519300">
        <ele>483.0</ele>
        <time>2021-12-28T12:01:14Z</time>
      </trkpt>
      <trkpt lat="37.5690720" lon="-4.2519580">
        <ele>483.0</ele>
        <time>2021-12-28T12:01:15Z</time>
      </trkpt>
      <trkpt lat="37.5690820" lon="-4.2519930">
        <ele>483.0</ele>
        <time>2021-12-28T12:01:16Z</time>
      </trkpt>
      <trkpt lat="37.5690880" lon="-4.2520220">
        <ele>483.0</ele>
        <time>2021-12-28T12:01:17Z</time>
      </trkpt>
      <trkpt lat="37.5690940" lon="-4.2520520">
        <ele>483.0</ele>
        <time>2021-12-28T12:01:18Z</time>
      </trkpt>
      <trkpt lat="37.5691010" lon="-4.2520830">
        <ele>483.0</ele>
        <time>2021-12-28T12:01:19Z</time>
      </trkpt>
      <trkpt lat="37.5691040" lon="-4.2521130">
        <ele>483.0</ele>
        <time>2021-12-28T12:01:20Z</time>
      </trkpt>
      <trkpt lat="37.5691100" lon="-4.2521430">
        <ele>483.2</ele>
        <time>2021-12-28T12:01:21Z</time>
      </trkpt>
      <trkpt lat="37.5691200" lon="-4.2521750">
        <ele>483.2</ele>
        <time>2021-12-28T12:01:22Z</time>
      </trkpt>
      <trkpt lat="37.5691230" lon="-4.2522040">
        <ele>483.2</ele>
        <time>2021-12-28T12:01:23Z</time>
      </trkpt>
      <trkpt lat="37.5691260" lon="-4.2522280">
        <ele>483.2</ele>
        <time>2021-12-28T12:01:24Z</time>
      </trkpt>
      <trkpt lat="37.5691300" lon="-4.2522570">
        <ele>483.2</ele>
        <time>2021-12-28T12:01:25Z</time>
      </trkpt>
      <trkpt lat="37.5691330" lon="-4.2522870">
        <ele>483.2</ele>
        <time>2021-12-28T12:01:26Z</time>
      </trkpt>
      <trkpt lat="37.5691420" lon="-4.2523180">
        <ele>483.4</ele>
        <time>2021-12-28T12:01:27Z</time>
      </trkpt>
      <trkpt lat="37.5691460" lon="-4.2523450">
        <ele>483.4</ele>
        <time>2021-12-28T12:01:28Z</time>
      </trkpt>
      <trkpt lat="37.5691490" lon="-4.2523720">
        <ele>483.4</ele>
        <time>2021-12-28T12:01:29Z</time>
      </trkpt>
      <trkpt lat="37.5691520" lon="-4.2523980">
        <ele>483.4</ele>
        <time>2021-12-28T12:01:30Z</time>
      </trkpt>
      <trkpt lat="37.5691550" lon="-4.2524270">
        <ele>483.6</ele>
        <time>2021-12-28T12:01:31Z</time>
      </trkpt>
      <trkpt lat="37.5691650" lon="-4.2524550">
        <ele>483.6</ele>
        <time>2021-12-28T12:01:32Z</time>
      </trkpt>
      <trkpt lat="37.5691680" lon="-4.2524850">
        <ele>483.6</ele>
        <time>2021-12-28T12:01:33Z</time>
      </trkpt>
      <trkpt lat="37.5691740" lon="-4.2525140">
        <ele>483.8</ele>
        <time>2021-12-28T12:01:34Z</time>
      </trkpt>
      <trkpt lat="37.5691810" lon="-4.2525420">
        <ele>483.8</ele>
        <time>2021-12-28T12:01:35Z</time>
      </trkpt>
      <trkpt lat="37.5691840" lon="-4.2525670">
        <ele>483.8</ele>
        <time>2021-12-28T12:01:36Z</time>
      </trkpt>
      <trkpt lat="37.5691940" lon="-4.2525950">
        <ele>483.8</ele>
        <time>2021-12-28T12:01:37Z</time>
      </trkpt>
      <trkpt lat="37.5692000" lon="-4.2526240">
        <ele>483.8</ele>
        <time>2021-12-28T12:01:38Z</time>
      </trkpt>
      <trkpt lat="37.5692060" lon="-4.2526500">
        <ele>483.8</ele>
        <time>2021-12-28T12:01:39Z</time>
      </trkpt>
      <trkpt lat="37.5692100" lon="-4.2526780">
        <ele>483.8</ele>
        <time>2021-12-28T12:01:40Z</time>
      </trkpt>
      <trkpt lat="37.5692130" lon="-4.2527030">
        <ele>483.8</ele>
        <time>2021-12-28T12:01:41Z</time>
      </trkpt>
      <trkpt lat="37.5692220" lon="-4.2527280">
        <ele>483.8</ele>
        <time>2021-12-28T12:01:42Z</time>
      </trkpt>
      <trkpt lat="37.5692320" lon="-4.2527580">
        <ele>483.8</ele>
        <time>2021-12-28T12:01:43Z</time>
      </trkpt>
      <trkpt lat="37.5692420" lon="-4.2527870">
        <ele>483.8</ele>
        <time>2021-12-28T12:01:44Z</time>
      </trkpt>
      <trkpt lat="37.5692450" lon="-4.2528150">
        <ele>483.8</ele>
        <time>2021-12-28T12:01:45Z</time>
      </trkpt>
      <trkpt lat="37.5692510" lon="-4.2528470">
        <ele>483.8</ele>
        <time>2021-12-28T12:01:46Z</time>
      </trkpt>
      <trkpt lat="37.5692610" lon="-4.2528750">
        <ele>483.8</ele>
        <time>2021-12-28T12:01:47Z</time>
      </trkpt>
      <trkpt lat="37.5692640" lon="-4.2529040">
        <ele>483.8</ele>
        <time>2021-12-28T12:01:48Z</time>
      </trkpt>
      <trkpt lat="37.5692700" lon="-4.2529320">
        <ele>483.8</ele>
        <time>2021-12-28T12:01:49Z</time>
      </trkpt>
      <trkpt lat="37.5692800" lon="-4.2529640">
        <ele>483.8</ele>
        <time>2021-12-28T12:01:50Z</time>
      </trkpt>
      <trkpt lat="37.5692900" lon="-4.2529940">
        <ele>483.8</ele>
        <time>2021-12-28T12:01:51Z</time>
      </trkpt>
      <trkpt lat="37.5693020" lon="-4.2530200">
        <ele>483.8</ele>
        <time>2021-12-28T12:01:52Z</time>
      </trkpt>
      <trkpt lat="37.5693090" lon="-4.2530480">
        <ele>484.0</ele>
        <time>2021-12-28T12:01:53Z</time>
      </trkpt>
      <trkpt lat="37.5693220" lon="-4.2530750">
        <ele>484.0</ele>
        <time>2021-12-28T12:01:54Z</time>
      </trkpt>
      <trkpt lat="37.5693280" lon="-4.2531000">
        <ele>484.0</ele>
        <time>2021-12-28T12:01:55Z</time>
      </trkpt>
      <trkpt lat="37.5693410" lon="-4.2531280">
        <ele>484.0</ele>
        <time>2021-12-28T12:01:56Z</time>
      </trkpt>
      <trkpt lat="37.5693470" lon="-4.2531570">
        <ele>484.0</ele>
        <time>2021-12-28T12:01:57Z</time>
      </trkpt>
      <trkpt lat="37.5693540" lon="-4.2531850">
        <ele>484.0</ele>
        <time>2021-12-28T12:01:58Z</time>
      </trkpt>
      <trkpt lat="37.5693660" lon="-4.2532170">
        <ele>484.0</ele>
        <time>2021-12-28T12:01:59Z</time>
      </trkpt>
      <trkpt lat="37.5693700" lon="-4.2532450">
        <ele>484.0</ele>
        <time>2021-12-28T12:02:00Z</time>
      </trkpt>
      <trkpt lat="37.5693820" lon="-4.2532740">
        <ele>484.2</ele>
        <time>2021-12-28T12:02:01Z</time>
      </trkpt>
      <trkpt lat="37.5693920" lon="-4.2533020">
        <ele>484.2</ele>
        <time>2021-12-28T12:02:02Z</time>
      </trkpt>
      <trkpt lat="37.5694050" lon="-4.2533280">
        <ele>484.2</ele>
        <time>2021-12-28T12:02:03Z</time>
      </trkpt>
      <trkpt lat="37.5694110" lon="-4.2533560">
        <ele>484.2</ele>
        <time>2021-12-28T12:02:04Z</time>
      </trkpt>
      <trkpt lat="37.5694240" lon="-4.2533850">
        <ele>484.4</ele>
        <time>2021-12-28T12:02:05Z</time>
      </trkpt>
      <trkpt lat="37.5694340" lon="-4.2534120">
        <ele>484.4</ele>
        <time>2021-12-28T12:02:06Z</time>
      </trkpt>
      <trkpt lat="37.5694460" lon="-4.2534400">
        <ele>484.6</ele>
        <time>2021-12-28T12:02:07Z</time>
      </trkpt>
      <trkpt lat="37.5694620" lon="-4.2534700">
        <ele>484.6</ele>
        <time>2021-12-28T12:02:08Z</time>
      </trkpt>
      <trkpt lat="37.5694720" lon="-4.2535020">
        <ele>484.6</ele>
        <time>2021-12-28T12:02:09Z</time>
      </trkpt>
      <trkpt lat="37.5694850" lon="-4.2535300">
        <ele>484.8</ele>
        <time>2021-12-28T12:02:10Z</time>
      </trkpt>
      <trkpt lat="37.5694980" lon="-4.2535580">
        <ele>484.8</ele>
        <time>2021-12-28T12:02:11Z</time>
      </trkpt>
      <trkpt lat="37.5695100" lon="-4.2535870">
        <ele>485.0</ele>
        <time>2021-12-28T12:02:12Z</time>
      </trkpt>
      <trkpt lat="37.5695260" lon="-4.2536140">
        <ele>485.0</ele>
        <time>2021-12-28T12:02:13Z</time>
      </trkpt>
      <trkpt lat="37.5695390" lon="-4.2536420">
        <ele>485.0</ele>
        <time>2021-12-28T12:02:14Z</time>
      </trkpt>
      <trkpt lat="37.5695490" lon="-4.2536700">
        <ele>485.0</ele>
        <time>2021-12-28T12:02:15Z</time>
      </trkpt>
      <trkpt lat="37.5695650" lon="-4.2536950">
        <ele>485.0</ele>
        <time>2021-12-28T12:02:16Z</time>
      </trkpt>
      <trkpt lat="37.5695810" lon="-4.2537200">
        <ele>485.0</ele>
        <time>2021-12-28T12:02:17Z</time>
      </trkpt>
      <trkpt lat="37.5695900" lon="-4.2537450">
        <ele>485.0</ele>
        <time>2021-12-28T12:02:18Z</time>
      </trkpt>
      <trkpt lat="37.5696060" lon="-4.2537700">
        <ele>485.0</ele>
        <time>2021-12-28T12:02:19Z</time>
      </trkpt>
      <trkpt lat="37.5696190" lon="-4.2537980">
        <ele>485.0</ele>
        <time>2021-12-28T12:02:20Z</time>
      </trkpt>
      <trkpt lat="37.5696320" lon="-4.2538230">
        <ele>485.0</ele>
        <time>2021-12-28T12:02:21Z</time>
      </trkpt>
      <trkpt lat="37.5696480" lon="-4.2538470">
        <ele>485.2</ele>
        <time>2021-12-28T12:02:22Z</time>
      </trkpt>
      <trkpt lat="37.5696610" lon="-4.2538680">
        <ele>485.2</ele>
        <time>2021-12-28T12:02:23Z</time>
      </trkpt>
      <trkpt lat="37.5696770" lon="-4.2538950">
        <ele>485.2</ele>
        <time>2021-12-28T12:02:24Z</time>
      </trkpt>
      <trkpt lat="37.5696860" lon="-4.2539240">
        <ele>485.2</ele>
        <time>2021-12-28T12:02:25Z</time>
      </trkpt>
      <trkpt lat="37.5697020" lon="-4.2539500">
        <ele>485.2</ele>
        <time>2021-12-28T12:02:26Z</time>
      </trkpt>
      <trkpt lat="37.5697180" lon="-4.2539780">
        <ele>485.2</ele>
        <time>2021-12-28T12:02:27Z</time>
      </trkpt>
      <trkpt lat="37.5697380" lon="-4.2540050">
        <ele>485.2</ele>
        <time>2021-12-28T12:02:28Z</time>
      </trkpt>
      <trkpt lat="37.5697500" lon="-4.2540320">
        <ele>485.4</ele>
        <time>2021-12-28T12:02:29Z</time>
      </trkpt>
      <trkpt lat="37.5697660" lon="-4.2540580">
        <ele>485.4</ele>
        <time>2021-12-28T12:02:30Z</time>
      </trkpt>
      <trkpt lat="37.5697820" lon="-4.2540830">
        <ele>485.6</ele>
        <time>2021-12-28T12:02:31Z</time>
      </trkpt>
      <trkpt lat="37.5698020" lon="-4.2541100">
        <ele>485.6</ele>
        <time>2021-12-28T12:02:32Z</time>
      </trkpt>
      <trkpt lat="37.5698180" lon="-4.2541360">
        <ele>485.6</ele>
        <time>2021-12-28T12:02:33Z</time>
      </trkpt>
      <trkpt lat="37.5698300" lon="-4.2541600">
        <ele>485.8</ele>
        <time>2021-12-28T12:02:34Z</time>
      </trkpt>
      <trkpt lat="37.5698460" lon="-4.2541820">
        <ele>485.8</ele>
        <time>2021-12-28T12:02:35Z</time>
      </trkpt>
      <trkpt lat="37.5698660" lon="-4.2542030">
        <ele>485.8</ele>
        <time>2021-12-28T12:02:36Z</time>
      </trkpt>
      <trkpt lat="37.5698850" lon="-4.2542270">
        <ele>485.8</ele>
        <time>2021-12-28T12:02:37Z</time>
      </trkpt>
      <trkpt lat="37.5699010" lon="-4.2542480">
        <ele>485.8</ele>
        <time>2021-12-28T12:02:38Z</time>
      </trkpt>
      <trkpt lat="37.5699200" lon="-4.2542740">
        <ele>486.0</ele>
        <time>2021-12-28T12:02:39Z</time>
      </trkpt>
      <trkpt lat="37.5699360" lon="-4.2542970">
        <ele>486.0</ele>
        <time>2021-12-28T12:02:40Z</time>
      </trkpt>
      <trkpt lat="37.5699490" lon="-4.2543200">
        <ele>486.0</ele>
        <time>2021-12-28T12:02:41Z</time>
      </trkpt>
      <trkpt lat="37.5699680" lon="-4.2543470">
        <ele>486.0</ele>
        <time>2021-12-28T12:02:42Z</time>
      </trkpt>
      <trkpt lat="37.5699840" lon="-4.2543720">
        <ele>486.2</ele>
        <time>2021-12-28T12:02:43Z</time>
      </trkpt>
      <trkpt lat="37.5700030" lon="-4.2543920">
        <ele>486.2</ele>
        <time>2021-12-28T12:02:44Z</time>
      </trkpt>
      <trkpt lat="37.5700190" lon="-4.2544130">
        <ele>486.2</ele>
        <time>2021-12-28T12:02:45Z</time>
      </trkpt>
      <trkpt lat="37.5700380" lon="-4.2544330">
        <ele>486.0</ele>
        <time>2021-12-28T12:02:46Z</time>
      </trkpt>
      <trkpt lat="37.5700580" lon="-4.2544560">
        <ele>486.0</ele>
        <time>2021-12-28T12:02:47Z</time>
      </trkpt>
      <trkpt lat="37.5700770" lon="-4.2544760">
        <ele>486.0</ele>
        <time>2021-12-28T12:02:48Z</time>
      </trkpt>
      <trkpt lat="37.5700960" lon="-4.2544980">
        <ele>486.0</ele>
        <time>2021-12-28T12:02:49Z</time>
      </trkpt>
      <trkpt lat="37.5701090" lon="-4.2545200">
        <ele>486.0</ele>
        <time>2021-12-28T12:02:50Z</time>
      </trkpt>
      <trkpt lat="37.5701280" lon="-4.2545470">
        <ele>486.0</ele>
        <time>2021-12-28T12:02:51Z</time>
      </trkpt>
      <trkpt lat="37.5701470" lon="-4.2545720">
        <ele>486.0</ele>
        <time>2021-12-28T12:02:52Z</time>
      </trkpt>
      <trkpt lat="37.5701630" lon="-4.2545950">
        <ele>486.0</ele>
        <time>2021-12-28T12:02:53Z</time>
      </trkpt>
      <trkpt lat="37.5701820" lon="-4.2546170">
        <ele>486.0</ele>
        <time>2021-12-28T12:02:54Z</time>
      </trkpt>
      <trkpt lat="37.5701980" lon="-4.2546400">
        <ele>486.2</ele>
        <time>2021-12-28T12:02:55Z</time>
      </trkpt>
      <trkpt lat="37.5702180" lon="-4.2546640">
        <ele>486.2</ele>
        <time>2021-12-28T12:02:56Z</time>
      </trkpt>
      <trkpt lat="37.5702370" lon="-4.2546880">
        <ele>486.2</ele>
        <time>2021-12-28T12:02:57Z</time>
      </trkpt>
      <trkpt lat="37.5702560" lon="-4.2547120">
        <ele>486.2</ele>
        <time>2021-12-28T12:02:58Z</time>
      </trkpt>
      <trkpt lat="37.5702750" lon="-4.2547320">
        <ele>486.2</ele>
        <time>2021-12-28T12:02:59Z</time>
      </trkpt>
      <trkpt lat="37.5702940" lon="-4.2547520">
        <ele>486.2</ele>
        <time>2021-12-28T12:03:00Z</time>
      </trkpt>
      <trkpt lat="37.5703170" lon="-4.2547750">
        <ele>486.2</ele>
        <time>2021-12-28T12:03:01Z</time>
      </trkpt>
      <trkpt lat="37.5703360" lon="-4.2547960">
        <ele>486.2</ele>
        <time>2021-12-28T12:03:02Z</time>
      </trkpt>
      <trkpt lat="37.5703550" lon="-4.2548160">
        <ele>486.2</ele>
        <time>2021-12-28T12:03:03Z</time>
      </trkpt>
      <trkpt lat="37.5703740" lon="-4.2548380">
        <ele>486.2</ele>
        <time>2021-12-28T12:03:04Z</time>
      </trkpt>
      <trkpt lat="37.5703970" lon="-4.2548580">
        <ele>486.2</ele>
        <time>2021-12-28T12:03:05Z</time>
      </trkpt>
      <trkpt lat="37.5704130" lon="-4.2548770">
        <ele>486.2</ele>
        <time>2021-12-28T12:03:06Z</time>
      </trkpt>
      <trkpt lat="37.5704320" lon="-4.2548980">
        <ele>486.2</ele>
        <time>2021-12-28T12:03:07Z</time>
      </trkpt>
      <trkpt lat="37.5704450" lon="-4.2549200">
        <ele>486.2</ele>
        <time>2021-12-28T12:03:08Z</time>
      </trkpt>
      <trkpt lat="37.5704640" lon="-4.2549420">
        <ele>486.2</ele>
        <time>2021-12-28T12:03:09Z</time>
      </trkpt>
      <trkpt lat="37.5704830" lon="-4.2549600">
        <ele>486.2</ele>
        <time>2021-12-28T12:03:10Z</time>
      </trkpt>
      <trkpt lat="37.5705020" lon="-4.2549800">
        <ele>486.2</ele>
        <time>2021-12-28T12:03:11Z</time>
      </trkpt>
      <trkpt lat="37.5705220" lon="-4.2550000">
        <ele>486.4</ele>
        <time>2021-12-28T12:03:12Z</time>
      </trkpt>
      <trkpt lat="37.5705410" lon="-4.2550180">
        <ele>486.4</ele>
        <time>2021-12-28T12:03:13Z</time>
      </trkpt>
      <trkpt lat="37.5705600" lon="-4.2550370">
        <ele>486.4</ele>
        <time>2021-12-28T12:03:14Z</time>
      </trkpt>
      <trkpt lat="37.5705790" lon="-4.2550550">
        <ele>486.6</ele>
        <time>2021-12-28T12:03:15Z</time>
      </trkpt>
      <trkpt lat="37.5705950" lon="-4.2550770">
        <ele>486.6</ele>
        <time>2021-12-28T12:03:16Z</time>
      </trkpt>
      <trkpt lat="37.5706110" lon="-4.2550940">
        <ele>486.6</ele>
        <time>2021-12-28T12:03:17Z</time>
      </trkpt>
      <trkpt lat="37.5706240" lon="-4.2551100">
        <ele>486.6</ele>
        <time>2021-12-28T12:03:18Z</time>
      </trkpt>
      <trkpt lat="37.5706400" lon="-4.2551280">
        <ele>486.6</ele>
        <time>2021-12-28T12:03:19Z</time>
      </trkpt>
      <trkpt lat="37.5706560" lon="-4.2551430">
        <ele>486.6</ele>
        <time>2021-12-28T12:03:20Z</time>
      </trkpt>
      <trkpt lat="37.5706720" lon="-4.2551600">
        <ele>486.6</ele>
        <time>2021-12-28T12:03:21Z</time>
      </trkpt>
      <trkpt lat="37.5706910" lon="-4.2551820">
        <ele>486.4</ele>
        <time>2021-12-28T12:03:22Z</time>
      </trkpt>
      <trkpt lat="37.5707040" lon="-4.2552050">
        <ele>486.4</ele>
        <time>2021-12-28T12:03:23Z</time>
      </trkpt>
      <trkpt lat="37.5707200" lon="-4.2552270">
        <ele>486.6</ele>
        <time>2021-12-28T12:03:24Z</time>
      </trkpt>
      <trkpt lat="37.5707390" lon="-4.2552470">
        <ele>486.6</ele>
        <time>2021-12-28T12:03:25Z</time>
      </trkpt>
      <trkpt lat="37.5707580" lon="-4.2552620">
        <ele>486.6</ele>
        <time>2021-12-28T12:03:26Z</time>
      </trkpt>
      <trkpt lat="37.5707780" lon="-4.2552770">
        <ele>486.8</ele>
        <time>2021-12-28T12:03:27Z</time>
      </trkpt>
      <trkpt lat="37.5707940" lon="-4.2552930">
        <ele>486.8</ele>
        <time>2021-12-28T12:03:28Z</time>
      </trkpt>
      <trkpt lat="37.5708130" lon="-4.2553130">
        <ele>486.8</ele>
        <time>2021-12-28T12:03:29Z</time>
      </trkpt>
      <trkpt lat="37.5708290" lon="-4.2553320">
        <ele>486.8</ele>
        <time>2021-12-28T12:03:30Z</time>
      </trkpt>
      <trkpt lat="37.5708480" lon="-4.2553520">
        <ele>486.8</ele>
        <time>2021-12-28T12:03:31Z</time>
      </trkpt>
      <trkpt lat="37.5708670" lon="-4.2553680">
        <ele>486.8</ele>
        <time>2021-12-28T12:03:32Z</time>
      </trkpt>
      <trkpt lat="37.5708800" lon="-4.2553850">
        <ele>486.8</ele>
        <time>2021-12-28T12:03:33Z</time>
      </trkpt>
      <trkpt lat="37.5708800" lon="-4.2553850">
        <ele>486.8</ele>
        <time>2021-12-28T12:03:34Z</time>
      </trkpt>
      <trkpt lat="37.5709140" lon="-4.2554360">
        <ele>486.8</ele>
        <time>2021-12-28T12:03:35Z</time>
      </trkpt>
      <trkpt lat="37.5709180" lon="-4.2554480">
        <ele>486.8</ele>
        <time>2021-12-28T12:03:36Z</time>
      </trkpt>
      <trkpt lat="37.5709380" lon="-4.2554730">
        <ele>486.8</ele>
        <time>2021-12-28T12:03:37Z</time>
      </trkpt>
      <trkpt lat="37.5709540" lon="-4.2554930">
        <ele>486.8</ele>
        <time>2021-12-28T12:03:38Z</time>
      </trkpt>
      <trkpt lat="37.5709730" lon="-4.2555120">
        <ele>486.8</ele>
        <time>2021-12-28T12:03:39Z</time>
      </trkpt>
      <trkpt lat="37.5709920" lon="-4.2555260">
        <ele>486.8</ele>
        <time>2021-12-28T12:03:40Z</time>
      </trkpt>
      <trkpt lat="37.5709920" lon="-4.2555260">
        <ele>487.0</ele>
        <time>2021-12-28T12:03:41Z</time>
      </trkpt>
      <trkpt lat="37.5710110" lon="-4.2555480">
        <ele>487.0</ele>
        <time>2021-12-28T12:03:42Z</time>
      </trkpt>
      <trkpt lat="37.5710110" lon="-4.2555480">
        <ele>487.2</ele>
        <time>2021-12-28T12:03:43Z</time>
      </trkpt>
      <trkpt lat="37.5710110" lon="-4.2555480">
        <ele>487.2</ele>
        <time>2021-12-28T12:03:44Z</time>
      </trkpt>
      <trkpt lat="37.5710110" lon="-4.2555480">
        <ele>487.4</ele>
        <time>2021-12-28T12:03:45Z</time>
      </trkpt>
      <trkpt lat="37.5710110" lon="-4.2555480">
        <ele>487.4</ele>
        <time>2021-12-28T12:03:46Z</time>
      </trkpt>
      <trkpt lat="37.5710980" lon="-4.2556520">
        <ele>489.2</ele>
        <time>2021-12-28T12:04:33Z</time>
      </trkpt>
      <trkpt lat="37.5711170" lon="-4.2556770">
        <ele>489.2</ele>
        <time>2021-12-28T12:04:34Z</time>
      </trkpt>
      <trkpt lat="37.5711360" lon="-4.2557000">
        <ele>489.2</ele>
        <time>2021-12-28T12:04:35Z</time>
      </trkpt>
      <trkpt lat="37.5711520" lon="-4.2557220">
        <ele>489.2</ele>
        <time>2021-12-28T12:04:36Z</time>
      </trkpt>
      <trkpt lat="37.5711620" lon="-4.2557420">
        <ele>489.2</ele>
        <time>2021-12-28T12:04:37Z</time>
      </trkpt>
      <trkpt lat="37.5711780" lon="-4.2557650">
        <ele>489.2</ele>
        <time>2021-12-28T12:04:38Z</time>
      </trkpt>
      <trkpt lat="37.5711900" lon="-4.2557870">
        <ele>489.4</ele>
        <time>2021-12-28T12:04:39Z</time>
      </trkpt>
      <trkpt lat="37.5712100" lon="-4.2558080">
        <ele>489.4</ele>
        <time>2021-12-28T12:04:40Z</time>
      </trkpt>
      <trkpt lat="37.5712190" lon="-4.2558300">
        <ele>489.4</ele>
        <time>2021-12-28T12:04:41Z</time>
      </trkpt>
      <trkpt lat="37.5712350" lon="-4.2558460">
        <ele>489.4</ele>
        <time>2021-12-28T12:04:42Z</time>
      </trkpt>
      <trkpt lat="37.5712480" lon="-4.2558650">
        <ele>489.4</ele>
        <time>2021-12-28T12:04:43Z</time>
      </trkpt>
      <trkpt lat="37.5712610" lon="-4.2558850">
        <ele>489.4</ele>
        <time>2021-12-28T12:04:44Z</time>
      </trkpt>
      <trkpt lat="37.5712740" lon="-4.2559060">
        <ele>489.6</ele>
        <time>2021-12-28T12:04:45Z</time>
      </trkpt>
      <trkpt lat="37.5712900" lon="-4.2559280">
        <ele>489.6</ele>
        <time>2021-12-28T12:04:46Z</time>
      </trkpt>
      <trkpt lat="37.5713060" lon="-4.2559520">
        <ele>489.8</ele>
        <time>2021-12-28T12:04:47Z</time>
      </trkpt>
      <trkpt lat="37.5713150" lon="-4.2559730">
        <ele>489.8</ele>
        <time>2021-12-28T12:04:48Z</time>
      </trkpt>
      <trkpt lat="37.5713310" lon="-4.2559980">
        <ele>490.0</ele>
        <time>2021-12-28T12:04:49Z</time>
      </trkpt>
      <trkpt lat="37.5713380" lon="-4.2560220">
        <ele>490.0</ele>
        <time>2021-12-28T12:04:50Z</time>
      </trkpt>
      <trkpt lat="37.5713540" lon="-4.2560420">
        <ele>490.0</ele>
        <time>2021-12-28T12:04:51Z</time>
      </trkpt>
      <trkpt lat="37.5713540" lon="-4.2560420">
        <ele>490.0</ele>
        <time>2021-12-28T12:04:52Z</time>
      </trkpt>
      <trkpt lat="37.5713760" lon="-4.2560850">
        <ele>490.2</ele>
        <time>2021-12-28T12:04:53Z</time>
      </trkpt>
      <trkpt lat="37.5713890" lon="-4.2561070">
        <ele>490.2</ele>
        <time>2021-12-28T12:04:54Z</time>
      </trkpt>
      <trkpt lat="37.5713980" lon="-4.2561270">
        <ele>490.4</ele>
        <time>2021-12-28T12:04:55Z</time>
      </trkpt>
      <trkpt lat="37.5714110" lon="-4.2561450">
        <ele>490.4</ele>
        <time>2021-12-28T12:04:56Z</time>
      </trkpt>
      <trkpt lat="37.5714240" lon="-4.2561650">
        <ele>490.4</ele>
        <time>2021-12-28T12:04:57Z</time>
      </trkpt>
      <trkpt lat="37.5714340" lon="-4.2561850">
        <ele>490.4</ele>
        <time>2021-12-28T12:04:58Z</time>
      </trkpt>
      <trkpt lat="37.5714460" lon="-4.2562080">
        <ele>490.4</ele>
        <time>2021-12-28T12:04:59Z</time>
      </trkpt>
      <trkpt lat="37.5714590" lon="-4.2562280">
        <ele>490.4</ele>
        <time>2021-12-28T12:05:00Z</time>
      </trkpt>
      <trkpt lat="37.5714720" lon="-4.2562500">
        <ele>490.2</ele>
        <time>2021-12-28T12:05:01Z</time>
      </trkpt>
      <trkpt lat="37.5714720" lon="-4.2562500">
        <ele>490.2</ele>
        <time>2021-12-28T12:05:02Z</time>
      </trkpt>
      <trkpt lat="37.5714910" lon="-4.2562920">
        <ele>490.2</ele>
        <time>2021-12-28T12:05:03Z</time>
      </trkpt>
      <trkpt lat="37.5714980" lon="-4.2563150">
        <ele>490.2</ele>
        <time>2021-12-28T12:05:04Z</time>
      </trkpt>
      <trkpt lat="37.5715100" lon="-4.2563370">
        <ele>490.2</ele>
        <time>2021-12-28T12:05:05Z</time>
      </trkpt>
      <trkpt lat="37.5715230" lon="-4.2563600">
        <ele>490.2</ele>
        <time>2021-12-28T12:05:06Z</time>
      </trkpt>
      <trkpt lat="37.5715230" lon="-4.2563600">
        <ele>490.2</ele>
        <time>2021-12-28T12:05:07Z</time>
      </trkpt>
      <trkpt lat="37.5715490" lon="-4.2564170">
        <ele>490.2</ele>
        <time>2021-12-28T12:05:08Z</time>
      </trkpt>
      <trkpt lat="37.5715550" lon="-4.2564300">
        <ele>490.2</ele>
        <time>2021-12-28T12:05:09Z</time>
      </trkpt>
      <trkpt lat="37.5715680" lon="-4.2564550">
        <ele>490.2</ele>
        <time>2021-12-28T12:05:10Z</time>
      </trkpt>
      <trkpt lat="37.5715780" lon="-4.2564780">
        <ele>490.2</ele>
        <time>2021-12-28T12:05:11Z</time>
      </trkpt>
      <trkpt lat="37.5715900" lon="-4.2565030">
        <ele>490.2</ele>
        <time>2021-12-28T12:05:12Z</time>
      </trkpt>
      <trkpt lat="37.5716030" lon="-4.2565330">
        <ele>490.2</ele>
        <time>2021-12-28T12:05:13Z</time>
      </trkpt>
      <trkpt lat="37.5716130" lon="-4.2565600">
        <ele>490.2</ele>
        <time>2021-12-28T12:05:14Z</time>
      </trkpt>
      <trkpt lat="37.5716220" lon="-4.2565850">
        <ele>490.2</ele>
        <time>2021-12-28T12:05:15Z</time>
      </trkpt>
      <trkpt lat="37.5716320" lon="-4.2566130">
        <ele>490.2</ele>
        <time>2021-12-28T12:05:16Z</time>
      </trkpt>
      <trkpt lat="37.5716450" lon="-4.2566400">
        <ele>490.2</ele>
        <time>2021-12-28T12:05:17Z</time>
      </trkpt>
      <trkpt lat="37.5716540" lon="-4.2566670">
        <ele>490.2</ele>
        <time>2021-12-28T12:05:18Z</time>
      </trkpt>
      <trkpt lat="37.5716670" lon="-4.2566950">
        <ele>490.0</ele>
        <time>2021-12-28T12:05:19Z</time>
      </trkpt>
      <trkpt lat="37.5716770" lon="-4.2567240">
        <ele>490.0</ele>
        <time>2021-12-28T12:05:20Z</time>
      </trkpt>
      <trkpt lat="37.5716860" lon="-4.2567500">
        <ele>490.0</ele>
        <time>2021-12-28T12:05:21Z</time>
      </trkpt>
      <trkpt lat="37.5716930" lon="-4.2567740">
        <ele>490.2</ele>
        <time>2021-12-28T12:05:22Z</time>
      </trkpt>
      <trkpt lat="37.5717020" lon="-4.2567980">
        <ele>490.2</ele>
        <time>2021-12-28T12:05:23Z</time>
      </trkpt>
      <trkpt lat="37.5717090" lon="-4.2568240">
        <ele>490.2</ele>
        <time>2021-12-28T12:05:24Z</time>
      </trkpt>
      <trkpt lat="37.5717150" lon="-4.2568460">
        <ele>490.2</ele>
        <time>2021-12-28T12:05:25Z</time>
      </trkpt>
      <trkpt lat="37.5717250" lon="-4.2568700">
        <ele>490.2</ele>
        <time>2021-12-28T12:05:26Z</time>
      </trkpt>
      <trkpt lat="37.5717310" lon="-4.2568930">
        <ele>490.2</ele>
        <time>2021-12-28T12:05:27Z</time>
      </trkpt>
      <trkpt lat="37.5717340" lon="-4.2569200">
        <ele>490.4</ele>
        <time>2021-12-28T12:05:28Z</time>
      </trkpt>
      <trkpt lat="37.5717470" lon="-4.2569430">
        <ele>490.4</ele>
        <time>2021-12-28T12:05:29Z</time>
      </trkpt>
      <trkpt lat="37.5717540" lon="-4.2569680">
        <ele>490.4</ele>
        <time>2021-12-28T12:05:30Z</time>
      </trkpt>
      <trkpt lat="37.5717570" lon="-4.2569930">
        <ele>490.4</ele>
        <time>2021-12-28T12:05:31Z</time>
      </trkpt>
      <trkpt lat="37.5717700" lon="-4.2570170">
        <ele>490.4</ele>
        <time>2021-12-28T12:05:32Z</time>
      </trkpt>
      <trkpt lat="37.5717760" lon="-4.2570420">
        <ele>490.4</ele>
        <time>2021-12-28T12:05:33Z</time>
      </trkpt>
      <trkpt lat="37.5717860" lon="-4.2570670">
        <ele>490.4</ele>
        <time>2021-12-28T12:05:34Z</time>
      </trkpt>
      <trkpt lat="37.5717920" lon="-4.2570920">
        <ele>490.6</ele>
        <time>2021-12-28T12:05:35Z</time>
      </trkpt>
      <trkpt lat="37.5718020" lon="-4.2571180">
        <ele>490.6</ele>
        <time>2021-12-28T12:05:36Z</time>
      </trkpt>
      <trkpt lat="37.5718050" lon="-4.2571480">
        <ele>490.6</ele>
        <time>2021-12-28T12:05:37Z</time>
      </trkpt>
      <trkpt lat="37.5718110" lon="-4.2571770">
        <ele>490.4</ele>
        <time>2021-12-28T12:05:38Z</time>
      </trkpt>
      <trkpt lat="37.5718240" lon="-4.2572050">
        <ele>490.4</ele>
        <time>2021-12-28T12:05:39Z</time>
      </trkpt>
      <trkpt lat="37.5718300" lon="-4.2572350">
        <ele>490.6</ele>
        <time>2021-12-28T12:05:40Z</time>
      </trkpt>
      <trkpt lat="37.5718370" lon="-4.2572650">
        <ele>490.6</ele>
        <time>2021-12-28T12:05:41Z</time>
      </trkpt>
      <trkpt lat="37.5718460" lon="-4.2572930">
        <ele>490.8</ele>
        <time>2021-12-28T12:05:42Z</time>
      </trkpt>
      <trkpt lat="37.5718530" lon="-4.2573200">
        <ele>490.8</ele>
        <time>2021-12-28T12:05:43Z</time>
      </trkpt>
      <trkpt lat="37.5718560" lon="-4.2573470">
        <ele>490.8</ele>
        <time>2021-12-28T12:05:44Z</time>
      </trkpt>
      <trkpt lat="37.5718660" lon="-4.2573730">
        <ele>490.8</ele>
        <time>2021-12-28T12:05:45Z</time>
      </trkpt>
      <trkpt lat="37.5718720" lon="-4.2574000">
        <ele>490.8</ele>
        <time>2021-12-28T12:05:46Z</time>
      </trkpt>
      <trkpt lat="37.5718820" lon="-4.2574300">
        <ele>491.0</ele>
        <time>2021-12-28T12:05:47Z</time>
      </trkpt>
      <trkpt lat="37.5718880" lon="-4.2574600">
        <ele>491.0</ele>
        <time>2021-12-28T12:05:48Z</time>
      </trkpt>
      <trkpt lat="37.5718910" lon="-4.2574920">
        <ele>491.0</ele>
        <time>2021-12-28T12:05:49Z</time>
      </trkpt>
      <trkpt lat="37.5718940" lon="-4.2575270">
        <ele>491.2</ele>
        <time>2021-12-28T12:05:50Z</time>
      </trkpt>
      <trkpt lat="37.5719040" lon="-4.2575620">
        <ele>491.2</ele>
        <time>2021-12-28T12:05:51Z</time>
      </trkpt>
      <trkpt lat="37.5719070" lon="-4.2575950">
        <ele>491.2</ele>
        <time>2021-12-28T12:05:52Z</time>
      </trkpt>
      <trkpt lat="37.5719140" lon="-4.2576280">
        <ele>491.4</ele>
        <time>2021-12-28T12:05:53Z</time>
      </trkpt>
      <trkpt lat="37.5719230" lon="-4.2576580">
        <ele>491.4</ele>
        <time>2021-12-28T12:05:54Z</time>
      </trkpt>
      <trkpt lat="37.5719300" lon="-4.2576870">
        <ele>491.4</ele>
        <time>2021-12-28T12:05:55Z</time>
      </trkpt>
      <trkpt lat="37.5719330" lon="-4.2577150">
        <ele>491.6</ele>
        <time>2021-12-28T12:05:56Z</time>
      </trkpt>
      <trkpt lat="37.5719360" lon="-4.2577380">
        <ele>491.8</ele>
        <time>2021-12-28T12:05:57Z</time>
      </trkpt>
      <trkpt lat="37.5719360" lon="-4.2577380">
        <ele>491.8</ele>
        <time>2021-12-28T12:05:58Z</time>
      </trkpt>
      <trkpt lat="37.5719330" lon="-4.2577780">
        <ele>492.0</ele>
        <time>2021-12-28T12:05:59Z</time>
      </trkpt>
      <trkpt lat="37.5719330" lon="-4.2578020">
        <ele>492.0</ele>
        <time>2021-12-28T12:06:00Z</time>
      </trkpt>
      <trkpt lat="37.5719330" lon="-4.2578020">
        <ele>492.0</ele>
        <time>2021-12-28T12:06:01Z</time>
      </trkpt>
      <trkpt lat="37.5719420" lon="-4.2578440">
        <ele>492.0</ele>
        <time>2021-12-28T12:06:02Z</time>
      </trkpt>
      <trkpt lat="37.5719420" lon="-4.2578440">
        <ele>492.0</ele>
        <time>2021-12-28T12:06:03Z</time>
      </trkpt>
      <trkpt lat="37.5719460" lon="-4.2578820">
        <ele>492.0</ele>
        <time>2021-12-28T12:06:04Z</time>
      </trkpt>
      <trkpt lat="37.5719460" lon="-4.2578820">
        <ele>492.0</ele>
        <time>2021-12-28T12:06:05Z</time>
      </trkpt>
      <trkpt lat="37.5719520" lon="-4.2579220">
        <ele>492.0</ele>
        <time>2021-12-28T12:06:06Z</time>
      </trkpt>
      <trkpt lat="37.5719520" lon="-4.2579220">
        <ele>491.8</ele>
        <time>2021-12-28T12:06:07Z</time>
      </trkpt>
      <trkpt lat="37.5719620" lon="-4.2579680">
        <ele>491.8</ele>
        <time>2021-12-28T12:06:08Z</time>
      </trkpt>
      <trkpt lat="37.5719680" lon="-4.2579930">
        <ele>492.0</ele>
        <time>2021-12-28T12:06:09Z</time>
      </trkpt>
      <trkpt lat="37.5719740" lon="-4.2580200">
        <ele>492.0</ele>
        <time>2021-12-28T12:06:10Z</time>
      </trkpt>
      <trkpt lat="37.5719840" lon="-4.2580470">
        <ele>492.0</ele>
        <time>2021-12-28T12:06:11Z</time>
      </trkpt>
      <trkpt lat="37.5719870" lon="-4.2580720">
        <ele>492.0</ele>
        <time>2021-12-28T12:06:12Z</time>
      </trkpt>
      <trkpt lat="37.5719940" lon="-4.2580950">
        <ele>492.0</ele>
        <time>2021-12-28T12:06:13Z</time>
      </trkpt>
      <trkpt lat="37.5719940" lon="-4.2580950">
        <ele>492.2</ele>
        <time>2021-12-28T12:06:14Z</time>
      </trkpt>
      <trkpt lat="37.5720000" lon="-4.2581370">
        <ele>492.2</ele>
        <time>2021-12-28T12:06:15Z</time>
      </trkpt>
      <trkpt lat="37.5720000" lon="-4.2581370">
        <ele>492.2</ele>
        <time>2021-12-28T12:06:16Z</time>
      </trkpt>
      <trkpt lat="37.5720100" lon="-4.2581750">
        <ele>492.2</ele>
        <time>2021-12-28T12:06:17Z</time>
      </trkpt>
      <trkpt lat="37.5720100" lon="-4.2581750">
        <ele>492.2</ele>
        <time>2021-12-28T12:06:18Z</time>
      </trkpt>
      <trkpt lat="37.5720190" lon="-4.2582120">
        <ele>492.2</ele>
        <time>2021-12-28T12:06:19Z</time>
      </trkpt>
      <trkpt lat="37.5720190" lon="-4.2582120">
        <ele>492.2</ele>
        <time>2021-12-28T12:06:20Z</time>
      </trkpt>
      <trkpt lat="37.5720260" lon="-4.2582500">
        <ele>492.2</ele>
        <time>2021-12-28T12:06:21Z</time>
      </trkpt>
      <trkpt lat="37.5720260" lon="-4.2582500">
        <ele>492.2</ele>
        <time>2021-12-28T12:06:22Z</time>
      </trkpt>
      <trkpt lat="37.5720320" lon="-4.2582950">
        <ele>492.2</ele>
        <time>2021-12-28T12:06:23Z</time>
      </trkpt>
      <trkpt lat="37.5720350" lon="-4.2583180">
        <ele>492.2</ele>
        <time>2021-12-28T12:06:24Z</time>
      </trkpt>
      <trkpt lat="37.5720350" lon="-4.2583450">
        <ele>492.2</ele>
        <time>2021-12-28T12:06:25Z</time>
      </trkpt>
      <trkpt lat="37.5720450" lon="-4.2583720">
        <ele>492.2</ele>
        <time>2021-12-28T12:06:26Z</time>
      </trkpt>
      <trkpt lat="37.5720480" lon="-4.2584000">
        <ele>492.4</ele>
        <time>2021-12-28T12:06:27Z</time>
      </trkpt>
      <trkpt lat="37.5720540" lon="-4.2584250">
        <ele>492.4</ele>
        <time>2021-12-28T12:06:28Z</time>
      </trkpt>
      <trkpt lat="37.5720610" lon="-4.2584520">
        <ele>492.4</ele>
        <time>2021-12-28T12:06:29Z</time>
      </trkpt>
      <trkpt lat="37.5720610" lon="-4.2584520">
        <ele>492.6</ele>
        <time>2021-12-28T12:06:30Z</time>
      </trkpt>
      <trkpt lat="37.5720670" lon="-4.2584950">
        <ele>492.6</ele>
        <time>2021-12-28T12:06:31Z</time>
      </trkpt>
      <trkpt lat="37.5720670" lon="-4.2584950">
        <ele>492.6</ele>
        <time>2021-12-28T12:06:32Z</time>
      </trkpt>
      <trkpt lat="37.5720740" lon="-4.2585400">
        <ele>492.8</ele>
        <time>2021-12-28T12:06:33Z</time>
      </trkpt>
      <trkpt lat="37.5720800" lon="-4.2585670">
        <ele>492.8</ele>
        <time>2021-12-28T12:06:34Z</time>
      </trkpt>
      <trkpt lat="37.5720830" lon="-4.2585950">
        <ele>493.0</ele>
        <time>2021-12-28T12:06:35Z</time>
      </trkpt>
      <trkpt lat="37.5720900" lon="-4.2586180">
        <ele>493.0</ele>
        <time>2021-12-28T12:06:36Z</time>
      </trkpt>
      <trkpt lat="37.5720930" lon="-4.2586420">
        <ele>493.0</ele>
        <time>2021-12-28T12:06:37Z</time>
      </trkpt>
      <trkpt lat="37.5720990" lon="-4.2586630">
        <ele>492.8</ele>
        <time>2021-12-28T12:06:38Z</time>
      </trkpt>
      <trkpt lat="37.5720990" lon="-4.2586630">
        <ele>492.8</ele>
        <time>2021-12-28T12:06:39Z</time>
      </trkpt>
      <trkpt lat="37.5721090" lon="-4.2587000">
        <ele>492.8</ele>
        <time>2021-12-28T12:06:40Z</time>
      </trkpt>
      <trkpt lat="37.5721090" lon="-4.2587000">
        <ele>492.8</ele>
        <time>2021-12-28T12:06:41Z</time>
      </trkpt>
      <trkpt lat="37.5721180" lon="-4.2587350">
        <ele>493.0</ele>
        <time>2021-12-28T12:06:42Z</time>
      </trkpt>
      <trkpt lat="37.5721180" lon="-4.2587350">
        <ele>493.0</ele>
        <time>2021-12-28T12:06:43Z</time>
      </trkpt>
      <trkpt lat="37.5721250" lon="-4.2587730">
        <ele>493.0</ele>
        <time>2021-12-28T12:06:44Z</time>
      </trkpt>
      <trkpt lat="37.5721280" lon="-4.2587970">
        <ele>493.0</ele>
        <time>2021-12-28T12:06:45Z</time>
      </trkpt>
      <trkpt lat="37.5721310" lon="-4.2588220">
        <ele>493.0</ele>
        <time>2021-12-28T12:06:46Z</time>
      </trkpt>
      <trkpt lat="37.5721310" lon="-4.2588220">
        <ele>493.0</ele>
        <time>2021-12-28T12:06:47Z</time>
      </trkpt>
      <trkpt lat="37.5721340" lon="-4.2588620">
        <ele>493.0</ele>
        <time>2021-12-28T12:06:48Z</time>
      </trkpt>
      <trkpt lat="37.5721340" lon="-4.2588620">
        <ele>493.0</ele>
        <time>2021-12-28T12:06:49Z</time>
      </trkpt>
      <trkpt lat="37.5721440" lon="-4.2588980">
        <ele>493.0</ele>
        <time>2021-12-28T12:06:50Z</time>
      </trkpt>
      <trkpt lat="37.5721440" lon="-4.2588980">
        <ele>493.0</ele>
        <time>2021-12-28T12:06:51Z</time>
      </trkpt>
      <trkpt lat="37.5721470" lon="-4.2589400">
        <ele>493.0</ele>
        <time>2021-12-28T12:06:52Z</time>
      </trkpt>
      <trkpt lat="37.5721470" lon="-4.2589640">
        <ele>493.0</ele>
        <time>2021-12-28T12:06:53Z</time>
      </trkpt>
      <trkpt lat="37.5721470" lon="-4.2589860">
        <ele>493.0</ele>
        <time>2021-12-28T12:06:54Z</time>
      </trkpt>
      <trkpt lat="37.5721540" lon="-4.2590080">
        <ele>493.2</ele>
        <time>2021-12-28T12:06:55Z</time>
      </trkpt>
      <trkpt lat="37.5721540" lon="-4.2590080">
        <ele>493.2</ele>
        <time>2021-12-28T12:06:56Z</time>
      </trkpt>
      <trkpt lat="37.5721630" lon="-4.2590350">
        <ele>493.2</ele>
        <time>2021-12-28T12:06:57Z</time>
      </trkpt>
      <trkpt lat="37.5721630" lon="-4.2590350">
        <ele>493.2</ele>
        <time>2021-12-28T12:06:58Z</time>
      </trkpt>
      <trkpt lat="37.5721630" lon="-4.2590350">
        <ele>493.2</ele>
        <time>2021-12-28T12:06:59Z</time>
      </trkpt>
      <trkpt lat="37.5721700" lon="-4.2590620">
        <ele>493.2</ele>
        <time>2021-12-28T12:07:00Z</time>
      </trkpt>
      <trkpt lat="37.5721700" lon="-4.2590620">
        <ele>493.2</ele>
        <time>2021-12-28T12:07:01Z</time>
      </trkpt>
      <trkpt lat="37.5721730" lon="-4.2590880">
        <ele>493.2</ele>
        <time>2021-12-28T12:07:02Z</time>
      </trkpt>
      <trkpt lat="37.5721730" lon="-4.2590880">
        <ele>493.2</ele>
        <time>2021-12-28T12:07:03Z</time>
      </trkpt>
      <trkpt lat="37.5721820" lon="-4.2591180">
        <ele>493.2</ele>
        <time>2021-12-28T12:07:04Z</time>
      </trkpt>
      <trkpt lat="37.5721820" lon="-4.2591180">
        <ele>493.2</ele>
        <time>2021-12-28T12:07:05Z</time>
      </trkpt>
      <trkpt lat="37.5721860" lon="-4.2591500">
        <ele>493.2</ele>
        <time>2021-12-28T12:07:06Z</time>
      </trkpt>
      <trkpt lat="37.5721860" lon="-4.2591500">
        <ele>493.2</ele>
        <time>2021-12-28T12:07:07Z</time>
      </trkpt>
      <trkpt lat="37.5721920" lon="-4.2591780">
        <ele>493.2</ele>
        <time>2021-12-28T12:07:08Z</time>
      </trkpt>
      <trkpt lat="37.5721920" lon="-4.2591780">
        <ele>493.2</ele>
        <time>2021-12-28T12:07:09Z</time>
      </trkpt>
      <trkpt lat="37.5721920" lon="-4.2591780">
        <ele>493.4</ele>
        <time>2021-12-28T12:07:10Z</time>
      </trkpt>
      <trkpt lat="37.5721980" lon="-4.2592080">
        <ele>493.4</ele>
        <time>2021-12-28T12:07:11Z</time>
      </trkpt>
      <trkpt lat="37.5721980" lon="-4.2592080">
        <ele>493.6</ele>
        <time>2021-12-28T12:07:12Z</time>
      </trkpt>
      <trkpt lat="37.5722050" lon="-4.2592370">
        <ele>493.6</ele>
        <time>2021-12-28T12:07:13Z</time>
      </trkpt>
      <trkpt lat="37.5722050" lon="-4.2592370">
        <ele>493.6</ele>
        <time>2021-12-28T12:07:14Z</time>
      </trkpt>
      <trkpt lat="37.5722110" lon="-4.2592780">
        <ele>493.6</ele>
        <time>2021-12-28T12:07:15Z</time>
      </trkpt>
      <trkpt lat="37.5722210" lon="-4.2593030">
        <ele>493.6</ele>
        <time>2021-12-28T12:07:16Z</time>
      </trkpt>
      <trkpt lat="37.5722240" lon="-4.2593300">
        <ele>493.6</ele>
        <time>2021-12-28T12:07:17Z</time>
      </trkpt>
      <trkpt lat="37.5722300" lon="-4.2593560">
        <ele>493.6</ele>
        <time>2021-12-28T12:07:18Z</time>
      </trkpt>
      <trkpt lat="37.5722340" lon="-4.2593820">
        <ele>493.4</ele>
        <time>2021-12-28T12:07:19Z</time>
      </trkpt>
      <trkpt lat="37.5722340" lon="-4.2593820">
        <ele>493.4</ele>
        <time>2021-12-28T12:07:20Z</time>
      </trkpt>
      <trkpt lat="37.5722430" lon="-4.2594200">
        <ele>493.4</ele>
        <time>2021-12-28T12:07:21Z</time>
      </trkpt>
      <trkpt lat="37.5722430" lon="-4.2594200">
        <ele>493.4</ele>
        <time>2021-12-28T12:07:22Z</time>
      </trkpt>
      <trkpt lat="37.5722460" lon="-4.2594670">
        <ele>493.4</ele>
        <time>2021-12-28T12:07:23Z</time>
      </trkpt>
      <trkpt lat="37.5722500" lon="-4.2594900">
        <ele>493.4</ele>
        <time>2021-12-28T12:07:24Z</time>
      </trkpt>
      <trkpt lat="37.5722530" lon="-4.2595150">
        <ele>493.4</ele>
        <time>2021-12-28T12:07:25Z</time>
      </trkpt>
      <trkpt lat="37.5722590" lon="-4.2595400">
        <ele>493.4</ele>
        <time>2021-12-28T12:07:26Z</time>
      </trkpt>
      <trkpt lat="37.5722590" lon="-4.2595400">
        <ele>493.4</ele>
        <time>2021-12-28T12:07:27Z</time>
      </trkpt>
      <trkpt lat="37.5722660" lon="-4.2595820">
        <ele>493.4</ele>
        <time>2021-12-28T12:07:28Z</time>
      </trkpt>
      <trkpt lat="37.5722660" lon="-4.2595820">
        <ele>493.4</ele>
        <time>2021-12-28T12:07:29Z</time>
      </trkpt>
      <trkpt lat="37.5722690" lon="-4.2596220">
        <ele>493.6</ele>
        <time>2021-12-28T12:07:30Z</time>
      </trkpt>
      <trkpt lat="37.5722690" lon="-4.2596220">
        <ele>493.6</ele>
        <time>2021-12-28T12:07:31Z</time>
      </trkpt>
      <trkpt lat="37.5722720" lon="-4.2596620">
        <ele>493.6</ele>
        <time>2021-12-28T12:07:32Z</time>
      </trkpt>
      <trkpt lat="37.5722720" lon="-4.2596620">
        <ele>493.6</ele>
        <time>2021-12-28T12:07:33Z</time>
      </trkpt>
      <trkpt lat="37.5722820" lon="-4.2597000">
        <ele>493.6</ele>
        <time>2021-12-28T12:07:34Z</time>
      </trkpt>
      <trkpt lat="37.5722880" lon="-4.2597230">
        <ele>493.8</ele>
        <time>2021-12-28T12:07:35Z</time>
      </trkpt>
      <trkpt lat="37.5722910" lon="-4.2597480">
        <ele>493.8</ele>
        <time>2021-12-28T12:07:36Z</time>
      </trkpt>
      <trkpt lat="37.5722980" lon="-4.2597750">
        <ele>494.0</ele>
        <time>2021-12-28T12:07:37Z</time>
      </trkpt>
      <trkpt lat="37.5723010" lon="-4.2598000">
        <ele>494.0</ele>
        <time>2021-12-28T12:07:38Z</time>
      </trkpt>
      <trkpt lat="37.5723040" lon="-4.2598230">
        <ele>494.0</ele>
        <time>2021-12-28T12:07:39Z</time>
      </trkpt>
      <trkpt lat="37.5723010" lon="-4.2598470">
        <ele>494.2</ele>
        <time>2021-12-28T12:07:40Z</time>
      </trkpt>
      <trkpt lat="37.5723010" lon="-4.2598750">
        <ele>494.2</ele>
        <time>2021-12-28T12:07:41Z</time>
      </trkpt>
      <trkpt lat="37.5723010" lon="-4.2598750">
        <ele>494.2</ele>
        <time>2021-12-28T12:07:42Z</time>
      </trkpt>
      <trkpt lat="37.5723100" lon="-4.2599370">
        <ele>494.2</ele>
        <time>2021-12-28T12:07:43Z</time>
      </trkpt>
      <trkpt lat="37.5723100" lon="-4.2599500">
        <ele>494.4</ele>
        <time>2021-12-28T12:07:44Z</time>
      </trkpt>
      <trkpt lat="37.5723170" lon="-4.2599750">
        <ele>494.4</ele>
        <time>2021-12-28T12:07:45Z</time>
      </trkpt>
      <trkpt lat="37.5723200" lon="-4.2600000">
        <ele>494.4</ele>
        <time>2021-12-28T12:07:46Z</time>
      </trkpt>
      <trkpt lat="37.5723230" lon="-4.2600230">
        <ele>494.6</ele>
        <time>2021-12-28T12:07:47Z</time>
      </trkpt>
      <trkpt lat="37.5723260" lon="-4.2600460">
        <ele>494.6</ele>
        <time>2021-12-28T12:07:48Z</time>
      </trkpt>
      <trkpt lat="37.5723300" lon="-4.2600720">
        <ele>494.6</ele>
        <time>2021-12-28T12:07:49Z</time>
      </trkpt>
      <trkpt lat="37.5723330" lon="-4.2600980">
        <ele>494.4</ele>
        <time>2021-12-28T12:07:50Z</time>
      </trkpt>
      <trkpt lat="37.5723330" lon="-4.2601250">
        <ele>494.4</ele>
        <time>2021-12-28T12:07:51Z</time>
      </trkpt>
      <trkpt lat="37.5723420" lon="-4.2601480">
        <ele>494.4</ele>
        <time>2021-12-28T12:07:52Z</time>
      </trkpt>
      <trkpt lat="37.5723420" lon="-4.2601750">
        <ele>494.4</ele>
        <time>2021-12-28T12:07:53Z</time>
      </trkpt>
      <trkpt lat="37.5723490" lon="-4.2602000">
        <ele>494.6</ele>
        <time>2021-12-28T12:07:54Z</time>
      </trkpt>
      <trkpt lat="37.5723520" lon="-4.2602270">
        <ele>494.6</ele>
        <time>2021-12-28T12:07:55Z</time>
      </trkpt>
      <trkpt lat="37.5723620" lon="-4.2602550">
        <ele>494.6</ele>
        <time>2021-12-28T12:07:56Z</time>
      </trkpt>
      <trkpt lat="37.5723650" lon="-4.2602820">
        <ele>494.6</ele>
        <time>2021-12-28T12:07:57Z</time>
      </trkpt>
      <trkpt lat="37.5723680" lon="-4.2603080">
        <ele>494.6</ele>
        <time>2021-12-28T12:07:58Z</time>
      </trkpt>
      <trkpt lat="37.5723710" lon="-4.2603400">
        <ele>494.6</ele>
        <time>2021-12-28T12:07:59Z</time>
      </trkpt>
      <trkpt lat="37.5723780" lon="-4.2603700">
        <ele>494.6</ele>
        <time>2021-12-28T12:08:00Z</time>
      </trkpt>
      <trkpt lat="37.5723810" lon="-4.2603980">
        <ele>494.6</ele>
        <time>2021-12-28T12:08:01Z</time>
      </trkpt>
      <trkpt lat="37.5723810" lon="-4.2604250">
        <ele>494.6</ele>
        <time>2021-12-28T12:08:02Z</time>
      </trkpt>
      <trkpt lat="37.5723840" lon="-4.2604500">
        <ele>494.6</ele>
        <time>2021-12-28T12:08:03Z</time>
      </trkpt>
      <trkpt lat="37.5723900" lon="-4.2604730">
        <ele>494.8</ele>
        <time>2021-12-28T12:08:04Z</time>
      </trkpt>
      <trkpt lat="37.5723970" lon="-4.2604970">
        <ele>494.8</ele>
        <time>2021-12-28T12:08:05Z</time>
      </trkpt>
      <trkpt lat="37.5724000" lon="-4.2605230">
        <ele>494.8</ele>
        <time>2021-12-28T12:08:06Z</time>
      </trkpt>
      <trkpt lat="37.5724060" lon="-4.2605500">
        <ele>494.8</ele>
        <time>2021-12-28T12:08:07Z</time>
      </trkpt>
      <trkpt lat="37.5724100" lon="-4.2605770">
        <ele>495.0</ele>
        <time>2021-12-28T12:08:08Z</time>
      </trkpt>
      <trkpt lat="37.5724190" lon="-4.2606040">
        <ele>495.0</ele>
        <time>2021-12-28T12:08:09Z</time>
      </trkpt>
      <trkpt lat="37.5724220" lon="-4.2606320">
        <ele>495.0</ele>
        <time>2021-12-28T12:08:10Z</time>
      </trkpt>
      <trkpt lat="37.5724260" lon="-4.2606600">
        <ele>495.0</ele>
        <time>2021-12-28T12:08:11Z</time>
      </trkpt>
      <trkpt lat="37.5724290" lon="-4.2606870">
        <ele>495.0</ele>
        <time>2021-12-28T12:08:12Z</time>
      </trkpt>
      <trkpt lat="37.5724320" lon="-4.2607120">
        <ele>495.0</ele>
        <time>2021-12-28T12:08:13Z</time>
      </trkpt>
      <trkpt lat="37.5724420" lon="-4.2607350">
        <ele>495.2</ele>
        <time>2021-12-28T12:08:14Z</time>
      </trkpt>
      <trkpt lat="37.5724450" lon="-4.2607580">
        <ele>495.2</ele>
        <time>2021-12-28T12:08:15Z</time>
      </trkpt>
      <trkpt lat="37.5724480" lon="-4.2607850">
        <ele>495.2</ele>
        <time>2021-12-28T12:08:16Z</time>
      </trkpt>
      <trkpt lat="37.5724580" lon="-4.2608120">
        <ele>495.2</ele>
        <time>2021-12-28T12:08:17Z</time>
      </trkpt>
      <trkpt lat="37.5724610" lon="-4.2608420">
        <ele>495.2</ele>
        <time>2021-12-28T12:08:18Z</time>
      </trkpt>
      <trkpt lat="37.5724640" lon="-4.2608680">
        <ele>495.2</ele>
        <time>2021-12-28T12:08:19Z</time>
      </trkpt>
      <trkpt lat="37.5724670" lon="-4.2608950">
        <ele>495.2</ele>
        <time>2021-12-28T12:08:20Z</time>
      </trkpt>
      <trkpt lat="37.5724700" lon="-4.2609220">
        <ele>495.2</ele>
        <time>2021-12-28T12:08:21Z</time>
      </trkpt>
      <trkpt lat="37.5724800" lon="-4.2609450">
        <ele>495.2</ele>
        <time>2021-12-28T12:08:22Z</time>
      </trkpt>
      <trkpt lat="37.5724860" lon="-4.2609680">
        <ele>495.2</ele>
        <time>2021-12-28T12:08:23Z</time>
      </trkpt>
      <trkpt lat="37.5724860" lon="-4.2609920">
        <ele>495.0</ele>
        <time>2021-12-28T12:08:24Z</time>
      </trkpt>
      <trkpt lat="37.5724960" lon="-4.2610180">
        <ele>495.0</ele>
        <time>2021-12-28T12:08:25Z</time>
      </trkpt>
      <trkpt lat="37.5724990" lon="-4.2610440">
        <ele>495.0</ele>
        <time>2021-12-28T12:08:26Z</time>
      </trkpt>
      <trkpt lat="37.5725060" lon="-4.2610660">
        <ele>495.0</ele>
        <time>2021-12-28T12:08:27Z</time>
      </trkpt>
      <trkpt lat="37.5725060" lon="-4.2610660">
        <ele>495.0</ele>
        <time>2021-12-28T12:08:28Z</time>
      </trkpt>
      <trkpt lat="37.5725090" lon="-4.2611080">
        <ele>495.0</ele>
        <time>2021-12-28T12:08:29Z</time>
      </trkpt>
      <trkpt lat="37.5725090" lon="-4.2611320">
        <ele>495.0</ele>
        <time>2021-12-28T12:08:30Z</time>
      </trkpt>
      <trkpt lat="37.5725090" lon="-4.2611320">
        <ele>495.0</ele>
        <time>2021-12-28T12:08:31Z</time>
      </trkpt>
      <trkpt lat="37.5725180" lon="-4.2611730">
        <ele>495.0</ele>
        <time>2021-12-28T12:08:32Z</time>
      </trkpt>
      <trkpt lat="37.5725180" lon="-4.2611730">
        <ele>495.0</ele>
        <time>2021-12-28T12:08:33Z</time>
      </trkpt>
      <trkpt lat="37.5725310" lon="-4.2612150">
        <ele>495.0</ele>
        <time>2021-12-28T12:08:34Z</time>
      </trkpt>
      <trkpt lat="37.5725380" lon="-4.2612370">
        <ele>495.0</ele>
        <time>2021-12-28T12:08:35Z</time>
      </trkpt>
      <trkpt lat="37.5725380" lon="-4.2612370">
        <ele>495.0</ele>
        <time>2021-12-28T12:08:36Z</time>
      </trkpt>
      <trkpt lat="37.5725440" lon="-4.2612730">
        <ele>495.2</ele>
        <time>2021-12-28T12:08:37Z</time>
      </trkpt>
      <trkpt lat="37.5725440" lon="-4.2612730">
        <ele>495.2</ele>
        <time>2021-12-28T12:08:38Z</time>
      </trkpt>
      <trkpt lat="37.5725630" lon="-4.2612880">
        <ele>495.2</ele>
        <time>2021-12-28T12:08:39Z</time>
      </trkpt>
      <trkpt lat="37.5725630" lon="-4.2612880">
        <ele>495.4</ele>
        <time>2021-12-28T12:08:40Z</time>
      </trkpt>
      <trkpt lat="37.5725820" lon="-4.2612770">
        <ele>495.4</ele>
        <time>2021-12-28T12:08:41Z</time>
      </trkpt>
      <trkpt lat="37.5725820" lon="-4.2612770">
        <ele>495.4</ele>
        <time>2021-12-28T12:08:42Z</time>
      </trkpt>
      <trkpt lat="37.5725980" lon="-4.2612600">
        <ele>495.4</ele>
        <time>2021-12-28T12:08:43Z</time>
      </trkpt>
      <trkpt lat="37.5725980" lon="-4.2612600">
        <ele>495.4</ele>
        <time>2021-12-28T12:08:44Z</time>
      </trkpt>
      <trkpt lat="37.5726180" lon="-4.2612380">
        <ele>495.4</ele>
        <time>2021-12-28T12:08:45Z</time>
      </trkpt>
      <trkpt lat="37.5726180" lon="-4.2612380">
        <ele>495.4</ele>
        <time>2021-12-28T12:08:46Z</time>
      </trkpt>
      <trkpt lat="37.5726430" lon="-4.2612220">
        <ele>495.4</ele>
        <time>2021-12-28T12:08:47Z</time>
      </trkpt>
      <trkpt lat="37.5726590" lon="-4.2612080">
        <ele>495.4</ele>
        <time>2021-12-28T12:08:48Z</time>
      </trkpt>
      <trkpt lat="37.5726590" lon="-4.2612080">
        <ele>495.4</ele>
        <time>2021-12-28T12:08:49Z</time>
      </trkpt>
      <trkpt lat="37.5727100" lon="-4.2611820">
        <ele>495.6</ele>
        <time>2021-12-28T12:08:50Z</time>
      </trkpt>
      <trkpt lat="37.5727230" lon="-4.2611750">
        <ele>495.6</ele>
        <time>2021-12-28T12:08:51Z</time>
      </trkpt>
      <trkpt lat="37.5727460" lon="-4.2611580">
        <ele>495.6</ele>
        <time>2021-12-28T12:08:52Z</time>
      </trkpt>
      <trkpt lat="37.5727620" lon="-4.2611430">
        <ele>495.6</ele>
        <time>2021-12-28T12:08:53Z</time>
      </trkpt>
      <trkpt lat="37.5727810" lon="-4.2611280">
        <ele>495.6</ele>
        <time>2021-12-28T12:08:54Z</time>
      </trkpt>
      <trkpt lat="37.5727810" lon="-4.2611280">
        <ele>495.4</ele>
        <time>2021-12-28T12:08:55Z</time>
      </trkpt>
      <trkpt lat="37.5728000" lon="-4.2611020">
        <ele>495.4</ele>
        <time>2021-12-28T12:08:56Z</time>
      </trkpt>
      <trkpt lat="37.5728000" lon="-4.2611020">
        <ele>495.2</ele>
        <time>2021-12-28T12:08:57Z</time>
      </trkpt>
      <trkpt lat="37.5728000" lon="-4.2611020">
        <ele>495.0</ele>
        <time>2021-12-28T12:08:58Z</time>
      </trkpt>
      <trkpt lat="37.5728000" lon="-4.2611020">
        <ele>495.0</ele>
        <time>2021-12-28T12:08:59Z</time>
      </trkpt>
      <trkpt lat="37.5728060" lon="-4.2610760">
        <ele>495.0</ele>
        <time>2021-12-28T12:09:00Z</time>
      </trkpt>
      <trkpt lat="37.5728060" lon="-4.2610760">
        <ele>495.0</ele>
        <time>2021-12-28T12:09:01Z</time>
      </trkpt>
      <trkpt lat="37.5727870" lon="-4.2610300">
        <ele>496.4</ele>
        <time>2021-12-28T12:09:34Z</time>
      </trkpt>
      <trkpt lat="37.5727870" lon="-4.2610300">
        <ele>496.4</ele>
        <time>2021-12-28T12:09:35Z</time>
      </trkpt>
      <trkpt lat="37.5727870" lon="-4.2610300">
        <ele>496.2</ele>
        <time>2021-12-28T12:09:36Z</time>
      </trkpt>
      <trkpt lat="37.5728770" lon="-4.2611420">
        <ele>496.6</ele>
        <time>2021-12-28T12:13:14Z</time>
      </trkpt>
      <trkpt lat="37.5728770" lon="-4.2611420">
        <ele>496.6</ele>
        <time>2021-12-28T12:13:15Z</time>
      </trkpt>
      <trkpt lat="37.5728770" lon="-4.2611420">
        <ele>496.6</ele>
        <time>2021-12-28T12:13:16Z</time>
      </trkpt>
      <trkpt lat="37.5728770" lon="-4.2611420">
        <ele>496.8</ele>
        <time>2021-12-28T12:13:17Z</time>
      </trkpt>
      <trkpt lat="37.5728770" lon="-4.2611420">
        <ele>496.8</ele>
        <time>2021-12-28T12:13:18Z</time>
      </trkpt>
      <trkpt lat="37.5728770" lon="-4.2611420">
        <ele>496.4</ele>
        <time>2021-12-28T12:21:32Z</time>
      </trkpt>
      <trkpt lat="37.5726500" lon="-4.2612830">
        <ele>496.4</ele>
        <time>2021-12-28T12:21:33Z</time>
      </trkpt>
      <trkpt lat="37.5726500" lon="-4.2612830">
        <ele>496.4</ele>
        <time>2021-12-28T12:21:34Z</time>
      </trkpt>
      <trkpt lat="37.5726500" lon="-4.2612830">
        <ele>496.4</ele>
        <time>2021-12-28T12:21:35Z</time>
      </trkpt>
      <trkpt lat="37.5726460" lon="-4.2614080">
        <ele>496.8</ele>
        <time>2021-12-28T12:21:41Z</time>
      </trkpt>
      <trkpt lat="37.5726460" lon="-4.2614080">
        <ele>496.8</ele>
        <time>2021-12-28T12:21:42Z</time>
      </trkpt>
      <trkpt lat="37.5726500" lon="-4.2614430">
        <ele>496.8</ele>
        <time>2021-12-28T12:21:43Z</time>
      </trkpt>
      <trkpt lat="37.5726500" lon="-4.2614430">
        <ele>496.8</ele>
        <time>2021-12-28T12:21:44Z</time>
      </trkpt>
      <trkpt lat="37.5726660" lon="-4.2614680">
        <ele>496.8</ele>
        <time>2021-12-28T12:21:45Z</time>
      </trkpt>
      <trkpt lat="37.5726660" lon="-4.2614680">
        <ele>496.8</ele>
        <time>2021-12-28T12:21:46Z</time>
      </trkpt>
      <trkpt lat="37.5726640" lon="-4.2614760">
        <ele>496.8</ele>
        <time>2021-12-28T12:21:47Z</time>
      </trkpt>
      <trkpt lat="37.5726630" lon="-4.2614850">
        <ele>496.8</ele>
        <time>2021-12-28T12:21:48Z</time>
      </trkpt>
      <trkpt lat="37.5726620" lon="-4.2614930">
        <ele>497.0</ele>
        <time>2021-12-28T12:21:49Z</time>
      </trkpt>
      <trkpt lat="37.5726610" lon="-4.2615010">
        <ele>497.0</ele>
        <time>2021-12-28T12:21:50Z</time>
      </trkpt>
      <trkpt lat="37.5726600" lon="-4.2615090">
        <ele>497.0</ele>
        <time>2021-12-28T12:21:51Z</time>
      </trkpt>
      <trkpt lat="37.5726580" lon="-4.2615170">
        <ele>497.2</ele>
        <time>2021-12-28T12:21:52Z</time>
      </trkpt>
      <trkpt lat="37.5726570" lon="-4.2615250">
        <ele>499.4</ele>
        <time>2021-12-28T12:22:07Z</time>
      </trkpt>
      <trkpt lat="37.5726560" lon="-4.2615330">
        <ele>499.4</ele>
        <time>2021-12-28T12:22:08Z</time>
      </trkpt>
      <trkpt lat="37.5726550" lon="-4.2615410">
        <ele>499.6</ele>
        <time>2021-12-28T12:22:09Z</time>
      </trkpt>
      <trkpt lat="37.5726540" lon="-4.2615490">
        <ele>500.2</ele>
        <time>2021-12-28T12:22:16Z</time>
      </trkpt>
      <trkpt lat="37.5726520" lon="-4.2615580">
        <ele>500.4</ele>
        <time>2021-12-28T12:22:17Z</time>
      </trkpt>
      <trkpt lat="37.5726510" lon="-4.2615660">
        <ele>500.4</ele>
        <time>2021-12-28T12:22:18Z</time>
      </trkpt>
      <trkpt lat="37.5726500" lon="-4.2615740">
        <ele>500.6</ele>
        <time>2021-12-28T12:22:19Z</time>
      </trkpt>
      <trkpt lat="37.5726490" lon="-4.2615820">
        <ele>502.4</ele>
        <time>2021-12-28T12:22:43Z</time>
      </trkpt>
      <trkpt lat="37.5726480" lon="-4.2615900">
        <ele>502.4</ele>
        <time>2021-12-28T12:22:44Z</time>
      </trkpt>
      <trkpt lat="37.5726460" lon="-4.2615980">
        <ele>502.4</ele>
        <time>2021-12-28T12:22:45Z</time>
      </trkpt>
      <trkpt lat="37.5726460" lon="-4.2615980">
        <ele>502.4</ele>
        <time>2021-12-28T12:22:46Z</time>
      </trkpt>
      <trkpt lat="37.5726460" lon="-4.2615980">
        <ele>503.2</ele>
        <time>2021-12-28T12:23:09Z</time>
      </trkpt>
      <trkpt lat="37.5726110" lon="-4.2616780">
        <ele>503.2</ele>
        <time>2021-12-28T12:23:10Z</time>
      </trkpt>
      <trkpt lat="37.5726110" lon="-4.2616780">
        <ele>503.2</ele>
        <time>2021-12-28T12:23:11Z</time>
      </trkpt>
      <trkpt lat="37.5726110" lon="-4.2616780">
        <ele>503.2</ele>
        <time>2021-12-28T12:23:12Z</time>
      </trkpt>
      <trkpt lat="37.5726110" lon="-4.2616780">
        <ele>503.4</ele>
        <time>2021-12-28T12:23:13Z</time>
      </trkpt>
      <trkpt lat="37.5726300" lon="-4.2616780">
        <ele>503.4</ele>
        <time>2021-12-28T12:23:14Z</time>
      </trkpt>
      <trkpt lat="37.5726300" lon="-4.2616780">
        <ele>503.2</ele>
        <time>2021-12-28T12:23:15Z</time>
      </trkpt>
      <trkpt lat="37.5726300" lon="-4.2616780">
        <ele>503.2</ele>
        <time>2021-12-28T12:23:16Z</time>
      </trkpt>
      <trkpt lat="37.5726300" lon="-4.2616780">
        <ele>503.2</ele>
        <time>2021-12-28T12:23:17Z</time>
      </trkpt>
      <trkpt lat="37.5726500" lon="-4.2616550">
        <ele>503.2</ele>
        <time>2021-12-28T12:23:18Z</time>
      </trkpt>
      <trkpt lat="37.5726500" lon="-4.2616550">
        <ele>503.2</ele>
        <time>2021-12-28T12:23:19Z</time>
      </trkpt>
      <trkpt lat="37.5726750" lon="-4.2616020">
        <ele>503.2</ele>
        <time>2021-12-28T12:23:20Z</time>
      </trkpt>
      <trkpt lat="37.5726820" lon="-4.2615930">
        <ele>503.2</ele>
        <time>2021-12-28T12:23:21Z</time>
      </trkpt>
      <trkpt lat="37.5726850" lon="-4.2615680">
        <ele>503.0</ele>
        <time>2021-12-28T12:23:22Z</time>
      </trkpt>
      <trkpt lat="37.5726850" lon="-4.2615680">
        <ele>503.0</ele>
        <time>2021-12-28T12:23:23Z</time>
      </trkpt>
      <trkpt lat="37.5726620" lon="-4.2615670">
        <ele>503.0</ele>
        <time>2021-12-28T12:23:24Z</time>
      </trkpt>
      <trkpt lat="37.5726460" lon="-4.2615830">
        <ele>503.0</ele>
        <time>2021-12-28T12:23:25Z</time>
      </trkpt>
      <trkpt lat="37.5726400" lon="-4.2616070">
        <ele>503.0</ele>
        <time>2021-12-28T12:23:26Z</time>
      </trkpt>
      <trkpt lat="37.5726400" lon="-4.2616070">
        <ele>503.0</ele>
        <time>2021-12-28T12:23:27Z</time>
      </trkpt>
      <trkpt lat="37.5726400" lon="-4.2616070">
        <ele>503.0</ele>
        <time>2021-12-28T12:23:28Z</time>
      </trkpt>
      <trkpt lat="37.5726400" lon="-4.2616070">
        <ele>503.0</ele>
        <time>2021-12-28T12:23:29Z</time>
      </trkpt>
      <trkpt lat="37.5726400" lon="-4.2616070">
        <ele>503.0</ele>
        <time>2021-12-28T12:23:30Z</time>
      </trkpt>
      <trkpt lat="37.5726400" lon="-4.2616070">
        <ele>502.8</ele>
        <time>2021-12-28T12:23:31Z</time>
      </trkpt>
      <trkpt lat="37.5726400" lon="-4.2616070">
        <ele>501.0</ele>
        <time>2021-12-28T12:24:47Z</time>
      </trkpt>
      <trkpt lat="37.5726370" lon="-4.2616220">
        <ele>501.0</ele>
        <time>2021-12-28T12:24:48Z</time>
      </trkpt>
      <trkpt lat="37.5726370" lon="-4.2616220">
        <ele>501.0</ele>
        <time>2021-12-28T12:24:49Z</time>
      </trkpt>
      <trkpt lat="37.5726370" lon="-4.2616220">
        <ele>501.0</ele>
        <time>2021-12-28T12:24:50Z</time>
      </trkpt>
      <trkpt lat="37.5726370" lon="-4.2616220">
        <ele>501.0</ele>
        <time>2021-12-28T12:24:51Z</time>
      </trkpt>
      <trkpt lat="37.5726180" lon="-4.2616370">
        <ele>501.0</ele>
        <time>2021-12-28T12:24:52Z</time>
      </trkpt>
      <trkpt lat="37.5726180" lon="-4.2616370">
        <ele>501.2</ele>
        <time>2021-12-28T12:24:53Z</time>
      </trkpt>
      <trkpt lat="37.5726180" lon="-4.2616370">
        <ele>501.2</ele>
        <time>2021-12-28T12:24:54Z</time>
      </trkpt>
      <trkpt lat="37.5726180" lon="-4.2616370">
        <ele>501.4</ele>
        <time>2021-12-28T12:24:55Z</time>
      </trkpt>
      <trkpt lat="37.5726180" lon="-4.2616370">
        <ele>501.4</ele>
        <time>2021-12-28T12:24:56Z</time>
      </trkpt>
      <trkpt lat="37.5726180" lon="-4.2616370">
        <ele>501.6</ele>
        <time>2021-12-28T12:24:57Z</time>
      </trkpt>
      <trkpt lat="37.5726880" lon="-4.2617370">
        <ele>502.4</ele>
        <time>2021-12-28T12:25:58Z</time>
      </trkpt>
      <trkpt lat="37.5726880" lon="-4.2617370">
        <ele>502.4</ele>
        <time>2021-12-28T12:25:59Z</time>
      </trkpt>
      <trkpt lat="37.5727010" lon="-4.2617730">
        <ele>502.2</ele>
        <time>2021-12-28T12:26:00Z</time>
      </trkpt>
      <trkpt lat="37.5727010" lon="-4.2617730">
        <ele>502.2</ele>
        <time>2021-12-28T12:26:01Z</time>
      </trkpt>
      <trkpt lat="37.5727070" lon="-4.2618130">
        <ele>502.2</ele>
        <time>2021-12-28T12:26:02Z</time>
      </trkpt>
      <trkpt lat="37.5727070" lon="-4.2618130">
        <ele>502.2</ele>
        <time>2021-12-28T12:26:03Z</time>
      </trkpt>
      <trkpt lat="37.5727100" lon="-4.2618500">
        <ele>502.2</ele>
        <time>2021-12-28T12:26:04Z</time>
      </trkpt>
      <trkpt lat="37.5727100" lon="-4.2618500">
        <ele>502.0</ele>
        <time>2021-12-28T12:26:05Z</time>
      </trkpt>
      <trkpt lat="37.5727200" lon="-4.2618850">
        <ele>502.0</ele>
        <time>2021-12-28T12:26:06Z</time>
      </trkpt>
      <trkpt lat="37.5727200" lon="-4.2618850">
        <ele>502.0</ele>
        <time>2021-12-28T12:26:07Z</time>
      </trkpt>
      <trkpt lat="37.5727260" lon="-4.2619250">
        <ele>502.0</ele>
        <time>2021-12-28T12:26:08Z</time>
      </trkpt>
      <trkpt lat="37.5727260" lon="-4.2619250">
        <ele>501.8</ele>
        <time>2021-12-28T12:26:09Z</time>
      </trkpt>
      <trkpt lat="37.5727360" lon="-4.2619600">
        <ele>501.8</ele>
        <time>2021-12-28T12:26:10Z</time>
      </trkpt>
      <trkpt lat="37.5727360" lon="-4.2619600">
        <ele>501.8</ele>
        <time>2021-12-28T12:26:11Z</time>
      </trkpt>
      <trkpt lat="37.5727390" lon="-4.2620000">
        <ele>501.8</ele>
        <time>2021-12-28T12:26:12Z</time>
      </trkpt>
      <trkpt lat="37.5727390" lon="-4.2620000">
        <ele>501.8</ele>
        <time>2021-12-28T12:26:13Z</time>
      </trkpt>
      <trkpt lat="37.5727460" lon="-4.2620370">
        <ele>501.6</ele>
        <time>2021-12-28T12:26:14Z</time>
      </trkpt>
      <trkpt lat="37.5727460" lon="-4.2620370">
        <ele>501.6</ele>
        <time>2021-12-28T12:26:15Z</time>
      </trkpt>
      <trkpt lat="37.5727550" lon="-4.2620750">
        <ele>501.6</ele>
        <time>2021-12-28T12:26:16Z</time>
      </trkpt>
      <trkpt lat="37.5727550" lon="-4.2620750">
        <ele>501.6</ele>
        <time>2021-12-28T12:26:17Z</time>
      </trkpt>
      <trkpt lat="37.5727620" lon="-4.2621030">
        <ele>501.4</ele>
        <time>2021-12-28T12:26:18Z</time>
      </trkpt>
      <trkpt lat="37.5727620" lon="-4.2621030">
        <ele>501.4</ele>
        <time>2021-12-28T12:26:19Z</time>
      </trkpt>
      <trkpt lat="37.5727620" lon="-4.2621300">
        <ele>501.4</ele>
        <time>2021-12-28T12:26:20Z</time>
      </trkpt>
      <trkpt lat="37.5727620" lon="-4.2621300">
        <ele>501.4</ele>
        <time>2021-12-28T12:26:21Z</time>
      </trkpt>
      <trkpt lat="37.5727650" lon="-4.2621550">
        <ele>501.4</ele>
        <time>2021-12-28T12:26:22Z</time>
      </trkpt>
      <trkpt lat="37.5727650" lon="-4.2621550">
        <ele>501.2</ele>
        <time>2021-12-28T12:26:23Z</time>
      </trkpt>
      <trkpt lat="37.5727650" lon="-4.2621550">
        <ele>497.2</ele>
        <time>2021-12-28T12:36:40Z</time>
      </trkpt>
      <trkpt lat="37.5728060" lon="-4.2622620">
        <ele>497.2</ele>
        <time>2021-12-28T12:36:41Z</time>
      </trkpt>
      <trkpt lat="37.5728060" lon="-4.2622620">
        <ele>497.4</ele>
        <time>2021-12-28T12:36:42Z</time>
      </trkpt>
      <trkpt lat="37.5728100" lon="-4.2622900">
        <ele>497.4</ele>
        <time>2021-12-28T12:36:43Z</time>
      </trkpt>
      <trkpt lat="37.5728100" lon="-4.2622900">
        <ele>497.6</ele>
        <time>2021-12-28T12:36:44Z</time>
      </trkpt>
      <trkpt lat="37.5728100" lon="-4.2622900">
        <ele>497.6</ele>
        <time>2021-12-28T12:36:45Z</time>
      </trkpt>
      <trkpt lat="37.5728220" lon="-4.2623150">
        <ele>497.8</ele>
        <time>2021-12-28T12:36:46Z</time>
      </trkpt>
      <trkpt lat="37.5728220" lon="-4.2623150">
        <ele>497.8</ele>
        <time>2021-12-28T12:36:47Z</time>
      </trkpt>
      <trkpt lat="37.5728220" lon="-4.2623150">
        <ele>498.0</ele>
        <time>2021-12-28T12:36:48Z</time>
      </trkpt>
      <trkpt lat="37.5728220" lon="-4.2623150">
        <ele>498.0</ele>
        <time>2021-12-28T12:36:49Z</time>
      </trkpt>
      <trkpt lat="37.5728220" lon="-4.2623150">
        <ele>494.0</ele>
        <time>2021-12-28T12:39:21Z</time>
      </trkpt>
      <trkpt lat="37.5728100" lon="-4.2620820">
        <ele>494.0</ele>
        <time>2021-12-28T12:39:22Z</time>
      </trkpt>
      <trkpt lat="37.5728100" lon="-4.2620820">
        <ele>494.2</ele>
        <time>2021-12-28T12:39:23Z</time>
      </trkpt>
      <trkpt lat="37.5728100" lon="-4.2620820">
        <ele>494.2</ele>
        <time>2021-12-28T12:39:24Z</time>
      </trkpt>
      <trkpt lat="37.5728100" lon="-4.2620820">
        <ele>494.2</ele>
        <time>2021-12-28T12:39:25Z</time>
      </trkpt>
      <trkpt lat="37.5728100" lon="-4.2620820">
        <ele>495.2</ele>
        <time>2021-12-28T12:42:16Z</time>
      </trkpt>
      <trkpt lat="37.5728060" lon="-4.2621450">
        <ele>495.2</ele>
        <time>2021-12-28T12:42:17Z</time>
      </trkpt>
      <trkpt lat="37.5728060" lon="-4.2621450">
        <ele>495.4</ele>
        <time>2021-12-28T12:42:18Z</time>
      </trkpt>
      <trkpt lat="37.5728100" lon="-4.2621900">
        <ele>495.6</ele>
        <time>2021-12-28T12:42:19Z</time>
      </trkpt>
      <trkpt lat="37.5728100" lon="-4.2622160">
        <ele>495.6</ele>
        <time>2021-12-28T12:42:20Z</time>
      </trkpt>
      <trkpt lat="37.5728100" lon="-4.2622400">
        <ele>495.8</ele>
        <time>2021-12-28T12:42:21Z</time>
      </trkpt>
      <trkpt lat="37.5728100" lon="-4.2622400">
        <ele>496.0</ele>
        <time>2021-12-28T12:42:22Z</time>
      </trkpt>
      <trkpt lat="37.5728190" lon="-4.2622670">
        <ele>496.2</ele>
        <time>2021-12-28T12:42:23Z</time>
      </trkpt>
      <trkpt lat="37.5728190" lon="-4.2622670">
        <ele>496.4</ele>
        <time>2021-12-28T12:42:24Z</time>
      </trkpt>
      <trkpt lat="37.5728190" lon="-4.2622670">
        <ele>496.4</ele>
        <time>2021-12-28T12:42:25Z</time>
      </trkpt>
      <trkpt lat="37.5728350" lon="-4.2622920">
        <ele>496.6</ele>
        <time>2021-12-28T12:42:26Z</time>
      </trkpt>
      <trkpt lat="37.5728350" lon="-4.2622920">
        <ele>496.6</ele>
        <time>2021-12-28T12:42:27Z</time>
      </trkpt>
      <trkpt lat="37.5728350" lon="-4.2622920">
        <ele>496.8</ele>
        <time>2021-12-28T12:42:28Z</time>
      </trkpt>
      <trkpt lat="37.5728350" lon="-4.2622920">
        <ele>496.8</ele>
        <time>2021-12-28T12:42:29Z</time>
      </trkpt>
      <trkpt lat="37.5728350" lon="-4.2622920">
        <ele>496.8</ele>
        <time>2021-12-28T12:42:30Z</time>
      </trkpt>
      <trkpt lat="37.5728350" lon="-4.2622920">
        <ele>497.0</ele>
        <time>2021-12-28T12:42:31Z</time>
      </trkpt>
      <trkpt lat="37.5728350" lon="-4.2622920">
        <ele>496.6</ele>
        <time>2021-12-28T12:42:54Z</time>
      </trkpt>
      <trkpt lat="37.5728350" lon="-4.2622920">
        <ele>496.6</ele>
        <time>2021-12-28T12:42:55Z</time>
      </trkpt>
      <trkpt lat="37.5728350" lon="-4.2622920">
        <ele>496.6</ele>
        <time>2021-12-28T12:42:56Z</time>
      </trkpt>
      <trkpt lat="37.5728000" lon="-4.2621920">
        <ele>502.4</ele>
        <time>2021-12-28T13:16:51Z</time>
      </trkpt>
      <trkpt lat="37.5727940" lon="-4.2621560">
        <ele>502.4</ele>
        <time>2021-12-28T13:16:52Z</time>
      </trkpt>
      <trkpt lat="37.5727840" lon="-4.2621280">
        <ele>502.4</ele>
        <time>2021-12-28T13:16:53Z</time>
      </trkpt>
      <trkpt lat="37.5727780" lon="-4.2621070">
        <ele>502.2</ele>
        <time>2021-12-28T13:16:54Z</time>
      </trkpt>
      <trkpt lat="37.5727780" lon="-4.2621070">
        <ele>502.2</ele>
        <time>2021-12-28T13:16:55Z</time>
      </trkpt>
      <trkpt lat="37.5727780" lon="-4.2621070">
        <ele>502.2</ele>
        <time>2021-12-28T13:16:56Z</time>
      </trkpt>
      <trkpt lat="37.5727780" lon="-4.2621070">
        <ele>502.0</ele>
        <time>2021-12-28T13:16:57Z</time>
      </trkpt>
      <trkpt lat="37.5727780" lon="-4.2621070">
        <ele>502.0</ele>
        <time>2021-12-28T13:16:58Z</time>
      </trkpt>
      <trkpt lat="37.5727780" lon="-4.2621070">
        <ele>501.8</ele>
        <time>2021-12-28T13:16:59Z</time>
      </trkpt>
      <trkpt lat="37.5727780" lon="-4.2622160">
        <ele>499.6</ele>
        <time>2021-12-28T13:19:40Z</time>
      </trkpt>
      <trkpt lat="37.5727620" lon="-4.2622520">
        <ele>499.6</ele>
        <time>2021-12-28T13:19:41Z</time>
      </trkpt>
      <trkpt lat="37.5727490" lon="-4.2622920">
        <ele>499.4</ele>
        <time>2021-12-28T13:19:42Z</time>
      </trkpt>
      <trkpt lat="37.5727460" lon="-4.2623330">
        <ele>499.4</ele>
        <time>2021-12-28T13:19:43Z</time>
      </trkpt>
      <trkpt lat="37.5727420" lon="-4.2623680">
        <ele>499.4</ele>
        <time>2021-12-28T13:19:44Z</time>
      </trkpt>
      <trkpt lat="37.5727420" lon="-4.2623950">
        <ele>499.4</ele>
        <time>2021-12-28T13:19:45Z</time>
      </trkpt>
      <trkpt lat="37.5727420" lon="-4.2623950">
        <ele>499.4</ele>
        <time>2021-12-28T13:19:46Z</time>
      </trkpt>
      <trkpt lat="37.5727550" lon="-4.2624150">
        <ele>499.4</ele>
        <time>2021-12-28T13:19:47Z</time>
      </trkpt>
      <trkpt lat="37.5727550" lon="-4.2624150">
        <ele>499.4</ele>
        <time>2021-12-28T13:19:48Z</time>
      </trkpt>
      <trkpt lat="37.5727550" lon="-4.2624150">
        <ele>499.4</ele>
        <time>2021-12-28T13:19:49Z</time>
      </trkpt>
      <trkpt lat="37.5727550" lon="-4.2624150">
        <ele>499.6</ele>
        <time>2021-12-28T13:19:50Z</time>
      </trkpt>
      <trkpt lat="37.5727550" lon="-4.2624150">
        <ele>499.6</ele>
        <time>2021-12-28T13:19:51Z</time>
      </trkpt>
      <trkpt lat="37.5727650" lon="-4.2624980">
        <ele>498.8</ele>
        <time>2021-12-28T13:21:53Z</time>
      </trkpt>
      <trkpt lat="37.5727780" lon="-4.2625230">
        <ele>498.8</ele>
        <time>2021-12-28T13:21:54Z</time>
      </trkpt>
      <trkpt lat="37.5727810" lon="-4.2625520">
        <ele>498.8</ele>
        <time>2021-12-28T13:21:55Z</time>
      </trkpt>
      <trkpt lat="37.5727870" lon="-4.2625820">
        <ele>498.8</ele>
        <time>2021-12-28T13:21:56Z</time>
      </trkpt>
      <trkpt lat="37.5727870" lon="-4.2626130">
        <ele>498.8</ele>
        <time>2021-12-28T13:21:57Z</time>
      </trkpt>
      <trkpt lat="37.5727940" lon="-4.2626450">
        <ele>498.8</ele>
        <time>2021-12-28T13:21:58Z</time>
      </trkpt>
      <trkpt lat="37.5728000" lon="-4.2626750">
        <ele>498.8</ele>
        <time>2021-12-28T13:21:59Z</time>
      </trkpt>
      <trkpt lat="37.5728030" lon="-4.2627050">
        <ele>498.8</ele>
        <time>2021-12-28T13:22:00Z</time>
      </trkpt>
      <trkpt lat="37.5728060" lon="-4.2627350">
        <ele>498.8</ele>
        <time>2021-12-28T13:22:01Z</time>
      </trkpt>
      <trkpt lat="37.5728100" lon="-4.2627640">
        <ele>498.8</ele>
        <time>2021-12-28T13:22:02Z</time>
      </trkpt>
      <trkpt lat="37.5728160" lon="-4.2627940">
        <ele>498.6</ele>
        <time>2021-12-28T13:22:03Z</time>
      </trkpt>
      <trkpt lat="37.5728190" lon="-4.2628200">
        <ele>498.6</ele>
        <time>2021-12-28T13:22:04Z</time>
      </trkpt>
      <trkpt lat="37.5728190" lon="-4.2628200">
        <ele>498.6</ele>
        <time>2021-12-28T13:22:05Z</time>
      </trkpt>
      <trkpt lat="37.5728260" lon="-4.2628620">
        <ele>498.4</ele>
        <time>2021-12-28T13:22:06Z</time>
      </trkpt>
      <trkpt lat="37.5728260" lon="-4.2628620">
        <ele>498.4</ele>
        <time>2021-12-28T13:22:07Z</time>
      </trkpt>
      <trkpt lat="37.5728350" lon="-4.2628830">
        <ele>498.4</ele>
        <time>2021-12-28T13:22:08Z</time>
      </trkpt>
      <trkpt lat="37.5728350" lon="-4.2628830">
        <ele>498.4</ele>
        <time>2021-12-28T13:22:09Z</time>
      </trkpt>
      <trkpt lat="37.5728350" lon="-4.2628830">
        <ele>498.4</ele>
        <time>2021-12-28T13:22:10Z</time>
      </trkpt>
      <trkpt lat="37.5728350" lon="-4.2628830">
        <ele>498.4</ele>
        <time>2021-12-28T13:22:11Z</time>
      </trkpt>
      <trkpt lat="37.5728830" lon="-4.2630600">
        <ele>498.4</ele>
        <time>2021-12-28T13:25:24Z</time>
      </trkpt>
      <trkpt lat="37.5728860" lon="-4.2630940">
        <ele>498.4</ele>
        <time>2021-12-28T13:25:25Z</time>
      </trkpt>
      <trkpt lat="37.5728960" lon="-4.2631250">
        <ele>498.4</ele>
        <time>2021-12-28T13:25:26Z</time>
      </trkpt>
      <trkpt lat="37.5728960" lon="-4.2631580">
        <ele>498.2</ele>
        <time>2021-12-28T13:25:27Z</time>
      </trkpt>
      <trkpt lat="37.5728990" lon="-4.2631930">
        <ele>498.2</ele>
        <time>2021-12-28T13:25:28Z</time>
      </trkpt>
      <trkpt lat="37.5729020" lon="-4.2632280">
        <ele>498.0</ele>
        <time>2021-12-28T13:25:29Z</time>
      </trkpt>
      <trkpt lat="37.5729060" lon="-4.2632630">
        <ele>497.8</ele>
        <time>2021-12-28T13:25:30Z</time>
      </trkpt>
      <trkpt lat="37.5729090" lon="-4.2632970">
        <ele>497.8</ele>
        <time>2021-12-28T13:25:31Z</time>
      </trkpt>
      <trkpt lat="37.5729150" lon="-4.2633300">
        <ele>497.6</ele>
        <time>2021-12-28T13:25:32Z</time>
      </trkpt>
      <trkpt lat="37.5729180" lon="-4.2633620">
        <ele>497.6</ele>
        <time>2021-12-28T13:25:33Z</time>
      </trkpt>
      <trkpt lat="37.5729220" lon="-4.2633900">
        <ele>497.6</ele>
        <time>2021-12-28T13:25:34Z</time>
      </trkpt>
      <trkpt lat="37.5729280" lon="-4.2634220">
        <ele>497.4</ele>
        <time>2021-12-28T13:25:35Z</time>
      </trkpt>
      <trkpt lat="37.5729340" lon="-4.2634570">
        <ele>497.6</ele>
        <time>2021-12-28T13:25:36Z</time>
      </trkpt>
      <trkpt lat="37.5729410" lon="-4.2634950">
        <ele>497.4</ele>
        <time>2021-12-28T13:25:37Z</time>
      </trkpt>
      <trkpt lat="37.5729470" lon="-4.2635350">
        <ele>497.4</ele>
        <time>2021-12-28T13:25:38Z</time>
      </trkpt>
      <trkpt lat="37.5729540" lon="-4.2635730">
        <ele>497.4</ele>
        <time>2021-12-28T13:25:39Z</time>
      </trkpt>
      <trkpt lat="37.5729600" lon="-4.2636060">
        <ele>497.2</ele>
        <time>2021-12-28T13:25:40Z</time>
      </trkpt>
      <trkpt lat="37.5729660" lon="-4.2636380">
        <ele>497.2</ele>
        <time>2021-12-28T13:25:41Z</time>
      </trkpt>
      <trkpt lat="37.5729760" lon="-4.2636730">
        <ele>497.0</ele>
        <time>2021-12-28T13:25:42Z</time>
      </trkpt>
      <trkpt lat="37.5729860" lon="-4.2637070">
        <ele>497.0</ele>
        <time>2021-12-28T13:25:43Z</time>
      </trkpt>
      <trkpt lat="37.5729950" lon="-4.2637400">
        <ele>496.8</ele>
        <time>2021-12-28T13:25:44Z</time>
      </trkpt>
      <trkpt lat="37.5730020" lon="-4.2637750">
        <ele>496.6</ele>
        <time>2021-12-28T13:25:45Z</time>
      </trkpt>
      <trkpt lat="37.5730140" lon="-4.2638080">
        <ele>496.4</ele>
        <time>2021-12-28T13:25:46Z</time>
      </trkpt>
      <trkpt lat="37.5730180" lon="-4.2638400">
        <ele>496.4</ele>
        <time>2021-12-28T13:25:47Z</time>
      </trkpt>
      <trkpt lat="37.5730240" lon="-4.2638750">
        <ele>496.2</ele>
        <time>2021-12-28T13:25:48Z</time>
      </trkpt>
      <trkpt lat="37.5730340" lon="-4.2639060">
        <ele>496.2</ele>
        <time>2021-12-28T13:25:49Z</time>
      </trkpt>
      <trkpt lat="37.5730400" lon="-4.2639360">
        <ele>496.0</ele>
        <time>2021-12-28T13:25:50Z</time>
      </trkpt>
      <trkpt lat="37.5730460" lon="-4.2639660">
        <ele>496.0</ele>
        <time>2021-12-28T13:25:51Z</time>
      </trkpt>
      <trkpt lat="37.5730560" lon="-4.2639980">
        <ele>496.0</ele>
        <time>2021-12-28T13:25:52Z</time>
      </trkpt>
      <trkpt lat="37.5730590" lon="-4.2640330">
        <ele>496.0</ele>
        <time>2021-12-28T13:25:53Z</time>
      </trkpt>
      <trkpt lat="37.5730620" lon="-4.2640630">
        <ele>496.0</ele>
        <time>2021-12-28T13:25:54Z</time>
      </trkpt>
      <trkpt lat="37.5730720" lon="-4.2640950">
        <ele>496.0</ele>
        <time>2021-12-28T13:25:55Z</time>
      </trkpt>
      <trkpt lat="37.5730780" lon="-4.2641250">
        <ele>496.0</ele>
        <time>2021-12-28T13:25:56Z</time>
      </trkpt>
      <trkpt lat="37.5730850" lon="-4.2641570">
        <ele>495.8</ele>
        <time>2021-12-28T13:25:57Z</time>
      </trkpt>
      <trkpt lat="37.5730940" lon="-4.2641900">
        <ele>495.8</ele>
        <time>2021-12-28T13:25:58Z</time>
      </trkpt>
      <trkpt lat="37.5731010" lon="-4.2642220">
        <ele>495.8</ele>
        <time>2021-12-28T13:25:59Z</time>
      </trkpt>
      <trkpt lat="37.5731010" lon="-4.2642450">
        <ele>495.8</ele>
        <time>2021-12-28T13:26:00Z</time>
      </trkpt>
      <trkpt lat="37.5731010" lon="-4.2642450">
        <ele>495.6</ele>
        <time>2021-12-28T13:26:01Z</time>
      </trkpt>
      <trkpt lat="37.5731040" lon="-4.2642800">
        <ele>495.6</ele>
        <time>2021-12-28T13:26:02Z</time>
      </trkpt>
      <trkpt lat="37.5731040" lon="-4.2642800">
        <ele>495.6</ele>
        <time>2021-12-28T13:26:03Z</time>
      </trkpt>
      <trkpt lat="37.5731040" lon="-4.2642800">
        <ele>495.6</ele>
        <time>2021-12-28T13:26:04Z</time>
      </trkpt>
      <trkpt lat="37.5731170" lon="-4.2643000">
        <ele>495.6</ele>
        <time>2021-12-28T13:26:05Z</time>
      </trkpt>
      <trkpt lat="37.5731170" lon="-4.2643000">
        <ele>495.6</ele>
        <time>2021-12-28T13:26:06Z</time>
      </trkpt>
      <trkpt lat="37.5731260" lon="-4.2643320">
        <ele>495.4</ele>
        <time>2021-12-28T13:26:07Z</time>
      </trkpt>
      <trkpt lat="37.5731360" lon="-4.2643550">
        <ele>495.4</ele>
        <time>2021-12-28T13:26:08Z</time>
      </trkpt>
      <trkpt lat="37.5731420" lon="-4.2643820">
        <ele>495.4</ele>
        <time>2021-12-28T13:26:09Z</time>
      </trkpt>
      <trkpt lat="37.5731520" lon="-4.2644120">
        <ele>495.4</ele>
        <time>2021-12-28T13:26:10Z</time>
      </trkpt>
      <trkpt lat="37.5731580" lon="-4.2644380">
        <ele>495.2</ele>
        <time>2021-12-28T13:26:11Z</time>
      </trkpt>
      <trkpt lat="37.5731710" lon="-4.2644640">
        <ele>495.2</ele>
        <time>2021-12-28T13:26:12Z</time>
      </trkpt>
      <trkpt lat="37.5731810" lon="-4.2644880">
        <ele>495.2</ele>
        <time>2021-12-28T13:26:13Z</time>
      </trkpt>
      <trkpt lat="37.5731940" lon="-4.2645080">
        <ele>495.2</ele>
        <time>2021-12-28T13:26:14Z</time>
      </trkpt>
      <trkpt lat="37.5732000" lon="-4.2645340">
        <ele>495.2</ele>
        <time>2021-12-28T13:26:15Z</time>
      </trkpt>
      <trkpt lat="37.5732000" lon="-4.2645340">
        <ele>495.2</ele>
        <time>2021-12-28T13:26:16Z</time>
      </trkpt>
      <trkpt lat="37.5732030" lon="-4.2645720">
        <ele>495.0</ele>
        <time>2021-12-28T13:26:17Z</time>
      </trkpt>
      <trkpt lat="37.5732030" lon="-4.2645720">
        <ele>495.0</ele>
        <time>2021-12-28T13:26:18Z</time>
      </trkpt>
      <trkpt lat="37.5731970" lon="-4.2646120">
        <ele>495.0</ele>
        <time>2021-12-28T13:26:19Z</time>
      </trkpt>
      <trkpt lat="37.5731970" lon="-4.2646120">
        <ele>495.0</ele>
        <time>2021-12-28T13:26:20Z</time>
      </trkpt>
      <trkpt lat="37.5731970" lon="-4.2646520">
        <ele>494.8</ele>
        <time>2021-12-28T13:26:21Z</time>
      </trkpt>
      <trkpt lat="37.5731970" lon="-4.2646520">
        <ele>494.8</ele>
        <time>2021-12-28T13:26:22Z</time>
      </trkpt>
      <trkpt lat="37.5731970" lon="-4.2646960">
        <ele>494.8</ele>
        <time>2021-12-28T13:26:23Z</time>
      </trkpt>
      <trkpt lat="37.5731970" lon="-4.2647250">
        <ele>494.8</ele>
        <time>2021-12-28T13:26:24Z</time>
      </trkpt>
      <trkpt lat="37.5731970" lon="-4.2647530">
        <ele>494.8</ele>
        <time>2021-12-28T13:26:25Z</time>
      </trkpt>
      <trkpt lat="37.5731970" lon="-4.2647820">
        <ele>494.8</ele>
        <time>2021-12-28T13:26:26Z</time>
      </trkpt>
      <trkpt lat="37.5732030" lon="-4.2648080">
        <ele>494.8</ele>
        <time>2021-12-28T13:26:27Z</time>
      </trkpt>
      <trkpt lat="37.5732060" lon="-4.2648380">
        <ele>494.8</ele>
        <time>2021-12-28T13:26:28Z</time>
      </trkpt>
      <trkpt lat="37.5732130" lon="-4.2648680">
        <ele>494.8</ele>
        <time>2021-12-28T13:26:29Z</time>
      </trkpt>
      <trkpt lat="37.5732190" lon="-4.2648980">
        <ele>494.6</ele>
        <time>2021-12-28T13:26:30Z</time>
      </trkpt>
      <trkpt lat="37.5732260" lon="-4.2649320">
        <ele>494.6</ele>
        <time>2021-12-28T13:26:31Z</time>
      </trkpt>
      <trkpt lat="37.5732350" lon="-4.2649630">
        <ele>494.6</ele>
        <time>2021-12-28T13:26:32Z</time>
      </trkpt>
      <trkpt lat="37.5732380" lon="-4.2649930">
        <ele>494.8</ele>
        <time>2021-12-28T13:26:33Z</time>
      </trkpt>
      <trkpt lat="37.5732450" lon="-4.2650230">
        <ele>494.8</ele>
        <time>2021-12-28T13:26:34Z</time>
      </trkpt>
      <trkpt lat="37.5732540" lon="-4.2650530">
        <ele>494.8</ele>
        <time>2021-12-28T13:26:35Z</time>
      </trkpt>
      <trkpt lat="37.5732610" lon="-4.2650850">
        <ele>494.8</ele>
        <time>2021-12-28T13:26:36Z</time>
      </trkpt>
      <trkpt lat="37.5732700" lon="-4.2651170">
        <ele>494.8</ele>
        <time>2021-12-28T13:26:37Z</time>
      </trkpt>
      <trkpt lat="37.5732770" lon="-4.2651500">
        <ele>494.6</ele>
        <time>2021-12-28T13:26:38Z</time>
      </trkpt>
      <trkpt lat="37.5732830" lon="-4.2651840">
        <ele>494.8</ele>
        <time>2021-12-28T13:26:39Z</time>
      </trkpt>
      <trkpt lat="37.5732930" lon="-4.2652170">
        <ele>494.8</ele>
        <time>2021-12-28T13:26:40Z</time>
      </trkpt>
      <trkpt lat="37.5732930" lon="-4.2652520">
        <ele>494.8</ele>
        <time>2021-12-28T13:26:41Z</time>
      </trkpt>
      <trkpt lat="37.5732990" lon="-4.2652850">
        <ele>494.8</ele>
        <time>2021-12-28T13:26:42Z</time>
      </trkpt>
      <trkpt lat="37.5733020" lon="-4.2653180">
        <ele>494.6</ele>
        <time>2021-12-28T13:26:43Z</time>
      </trkpt>
      <trkpt lat="37.5733060" lon="-4.2653550">
        <ele>494.6</ele>
        <time>2021-12-28T13:26:44Z</time>
      </trkpt>
      <trkpt lat="37.5733150" lon="-4.2653900">
        <ele>494.4</ele>
        <time>2021-12-28T13:26:45Z</time>
      </trkpt>
      <trkpt lat="37.5733180" lon="-4.2654270">
        <ele>494.4</ele>
        <time>2021-12-28T13:26:46Z</time>
      </trkpt>
      <trkpt lat="37.5733220" lon="-4.2654630">
        <ele>494.4</ele>
        <time>2021-12-28T13:26:47Z</time>
      </trkpt>
      <trkpt lat="37.5733310" lon="-4.2654980">
        <ele>494.6</ele>
        <time>2021-12-28T13:26:48Z</time>
      </trkpt>
      <trkpt lat="37.5733380" lon="-4.2655340">
        <ele>494.6</ele>
        <time>2021-12-28T13:26:49Z</time>
      </trkpt>
      <trkpt lat="37.5733440" lon="-4.2655670">
        <ele>494.6</ele>
        <time>2021-12-28T13:26:50Z</time>
      </trkpt>
      <trkpt lat="37.5733500" lon="-4.2656020">
        <ele>494.6</ele>
        <time>2021-12-28T13:26:51Z</time>
      </trkpt>
      <trkpt lat="37.5733570" lon="-4.2656360">
        <ele>494.6</ele>
        <time>2021-12-28T13:26:52Z</time>
      </trkpt>
      <trkpt lat="37.5733600" lon="-4.2656700">
        <ele>494.6</ele>
        <time>2021-12-28T13:26:53Z</time>
      </trkpt>
      <trkpt lat="37.5733700" lon="-4.2657060">
        <ele>494.6</ele>
        <time>2021-12-28T13:26:54Z</time>
      </trkpt>
      <trkpt lat="37.5733730" lon="-4.2657400">
        <ele>494.6</ele>
        <time>2021-12-28T13:26:55Z</time>
      </trkpt>
      <trkpt lat="37.5733790" lon="-4.2657730">
        <ele>494.4</ele>
        <time>2021-12-28T13:26:56Z</time>
      </trkpt>
      <trkpt lat="37.5733860" lon="-4.2658070">
        <ele>494.4</ele>
        <time>2021-12-28T13:26:57Z</time>
      </trkpt>
      <trkpt lat="37.5733950" lon="-4.2658370">
        <ele>494.4</ele>
        <time>2021-12-28T13:26:58Z</time>
      </trkpt>
      <trkpt lat="37.5733980" lon="-4.2658670">
        <ele>494.4</ele>
        <time>2021-12-28T13:26:59Z</time>
      </trkpt>
      <trkpt lat="37.5734050" lon="-4.2658970">
        <ele>494.4</ele>
        <time>2021-12-28T13:27:00Z</time>
      </trkpt>
      <trkpt lat="37.5734110" lon="-4.2659270">
        <ele>494.4</ele>
        <time>2021-12-28T13:27:01Z</time>
      </trkpt>
      <trkpt lat="37.5734180" lon="-4.2659620">
        <ele>494.4</ele>
        <time>2021-12-28T13:27:02Z</time>
      </trkpt>
      <trkpt lat="37.5734210" lon="-4.2659960">
        <ele>494.4</ele>
        <time>2021-12-28T13:27:03Z</time>
      </trkpt>
      <trkpt lat="37.5734210" lon="-4.2660330">
        <ele>494.4</ele>
        <time>2021-12-28T13:27:04Z</time>
      </trkpt>
      <trkpt lat="37.5734300" lon="-4.2660720">
        <ele>494.4</ele>
        <time>2021-12-28T13:27:05Z</time>
      </trkpt>
      <trkpt lat="37.5734370" lon="-4.2661080">
        <ele>494.4</ele>
        <time>2021-12-28T13:27:06Z</time>
      </trkpt>
      <trkpt lat="37.5734400" lon="-4.2661470">
        <ele>494.4</ele>
        <time>2021-12-28T13:27:07Z</time>
      </trkpt>
      <trkpt lat="37.5734430" lon="-4.2661870">
        <ele>494.4</ele>
        <time>2021-12-28T13:27:08Z</time>
      </trkpt>
      <trkpt lat="37.5734530" lon="-4.2662240">
        <ele>494.4</ele>
        <time>2021-12-28T13:27:09Z</time>
      </trkpt>
      <trkpt lat="37.5734560" lon="-4.2662620">
        <ele>494.4</ele>
        <time>2021-12-28T13:27:10Z</time>
      </trkpt>
      <trkpt lat="37.5734620" lon="-4.2663020">
        <ele>494.2</ele>
        <time>2021-12-28T13:27:11Z</time>
      </trkpt>
      <trkpt lat="37.5734620" lon="-4.2663430">
        <ele>494.2</ele>
        <time>2021-12-28T13:27:12Z</time>
      </trkpt>
      <trkpt lat="37.5734690" lon="-4.2663830">
        <ele>494.2</ele>
        <time>2021-12-28T13:27:13Z</time>
      </trkpt>
      <trkpt lat="37.5734690" lon="-4.2664200">
        <ele>494.2</ele>
        <time>2021-12-28T13:27:14Z</time>
      </trkpt>
      <trkpt lat="37.5734750" lon="-4.2664550">
        <ele>494.2</ele>
        <time>2021-12-28T13:27:15Z</time>
      </trkpt>
      <trkpt lat="37.5734750" lon="-4.2664900">
        <ele>494.2</ele>
        <time>2021-12-28T13:27:16Z</time>
      </trkpt>
      <trkpt lat="37.5734780" lon="-4.2665270">
        <ele>494.2</ele>
        <time>2021-12-28T13:27:17Z</time>
      </trkpt>
      <trkpt lat="37.5734780" lon="-4.2665640">
        <ele>494.2</ele>
        <time>2021-12-28T13:27:18Z</time>
      </trkpt>
      <trkpt lat="37.5734850" lon="-4.2665970">
        <ele>494.2</ele>
        <time>2021-12-28T13:27:19Z</time>
      </trkpt>
      <trkpt lat="37.5734850" lon="-4.2666320">
        <ele>494.2</ele>
        <time>2021-12-28T13:27:20Z</time>
      </trkpt>
      <trkpt lat="37.5734910" lon="-4.2666680">
        <ele>494.2</ele>
        <time>2021-12-28T13:27:21Z</time>
      </trkpt>
      <trkpt lat="37.5734910" lon="-4.2667030">
        <ele>494.2</ele>
        <time>2021-12-28T13:27:22Z</time>
      </trkpt>
      <trkpt lat="37.5734940" lon="-4.2667380">
        <ele>494.2</ele>
        <time>2021-12-28T13:27:23Z</time>
      </trkpt>
      <trkpt lat="37.5734940" lon="-4.2667730">
        <ele>494.2</ele>
        <time>2021-12-28T13:27:24Z</time>
      </trkpt>
      <trkpt lat="37.5734940" lon="-4.2668050">
        <ele>494.0</ele>
        <time>2021-12-28T13:27:25Z</time>
      </trkpt>
      <trkpt lat="37.5734940" lon="-4.2668330">
        <ele>494.0</ele>
        <time>2021-12-28T13:27:26Z</time>
      </trkpt>
      <trkpt lat="37.5734940" lon="-4.2668600">
        <ele>493.8</ele>
        <time>2021-12-28T13:27:27Z</time>
      </trkpt>
      <trkpt lat="37.5734980" lon="-4.2668870">
        <ele>493.8</ele>
        <time>2021-12-28T13:27:28Z</time>
      </trkpt>
      <trkpt lat="37.5734980" lon="-4.2669120">
        <ele>493.8</ele>
        <time>2021-12-28T13:27:29Z</time>
      </trkpt>
      <trkpt lat="37.5734980" lon="-4.2669370">
        <ele>493.8</ele>
        <time>2021-12-28T13:27:30Z</time>
      </trkpt>
      <trkpt lat="37.5734940" lon="-4.2669620">
        <ele>493.8</ele>
        <time>2021-12-28T13:27:31Z</time>
      </trkpt>
      <trkpt lat="37.5734940" lon="-4.2669620">
        <ele>493.6</ele>
        <time>2021-12-28T13:27:32Z</time>
      </trkpt>
      <trkpt lat="37.5734930" lon="-4.2670240">
        <ele>493.6</ele>
        <time>2021-12-28T13:27:33Z</time>
      </trkpt>
      <trkpt lat="37.5734910" lon="-4.2670380">
        <ele>493.8</ele>
        <time>2021-12-28T13:27:34Z</time>
      </trkpt>
      <trkpt lat="37.5734910" lon="-4.2670700">
        <ele>493.8</ele>
        <time>2021-12-28T13:27:35Z</time>
      </trkpt>
      <trkpt lat="37.5734910" lon="-4.2671030">
        <ele>493.8</ele>
        <time>2021-12-28T13:27:36Z</time>
      </trkpt>
      <trkpt lat="37.5734850" lon="-4.2671360">
        <ele>493.8</ele>
        <time>2021-12-28T13:27:37Z</time>
      </trkpt>
      <trkpt lat="37.5734910" lon="-4.2671720">
        <ele>493.8</ele>
        <time>2021-12-28T13:27:38Z</time>
      </trkpt>
      <trkpt lat="37.5734910" lon="-4.2672070">
        <ele>493.8</ele>
        <time>2021-12-28T13:27:39Z</time>
      </trkpt>
      <trkpt lat="37.5734910" lon="-4.2672430">
        <ele>493.8</ele>
        <time>2021-12-28T13:27:40Z</time>
      </trkpt>
      <trkpt lat="37.5734910" lon="-4.2672800">
        <ele>493.8</ele>
        <time>2021-12-28T13:27:41Z</time>
      </trkpt>
      <trkpt lat="37.5734910" lon="-4.2673150">
        <ele>493.8</ele>
        <time>2021-12-28T13:27:42Z</time>
      </trkpt>
      <trkpt lat="37.5734940" lon="-4.2673480">
        <ele>493.8</ele>
        <time>2021-12-28T13:27:43Z</time>
      </trkpt>
      <trkpt lat="37.5734980" lon="-4.2673820">
        <ele>493.8</ele>
        <time>2021-12-28T13:27:44Z</time>
      </trkpt>
      <trkpt lat="37.5735010" lon="-4.2674130">
        <ele>493.8</ele>
        <time>2021-12-28T13:27:45Z</time>
      </trkpt>
      <trkpt lat="37.5735010" lon="-4.2674450">
        <ele>493.8</ele>
        <time>2021-12-28T13:27:46Z</time>
      </trkpt>
      <trkpt lat="37.5735010" lon="-4.2674760">
        <ele>493.8</ele>
        <time>2021-12-28T13:27:47Z</time>
      </trkpt>
      <trkpt lat="37.5734980" lon="-4.2675050">
        <ele>493.8</ele>
        <time>2021-12-28T13:27:48Z</time>
      </trkpt>
      <trkpt lat="37.5734980" lon="-4.2675330">
        <ele>493.8</ele>
        <time>2021-12-28T13:27:49Z</time>
      </trkpt>
      <trkpt lat="37.5734980" lon="-4.2675620">
        <ele>493.8</ele>
        <time>2021-12-28T13:27:50Z</time>
      </trkpt>
      <trkpt lat="37.5734980" lon="-4.2675900">
        <ele>494.0</ele>
        <time>2021-12-28T13:27:51Z</time>
      </trkpt>
      <trkpt lat="37.5734980" lon="-4.2676200">
        <ele>494.0</ele>
        <time>2021-12-28T13:27:52Z</time>
      </trkpt>
      <trkpt lat="37.5734940" lon="-4.2676500">
        <ele>494.0</ele>
        <time>2021-12-28T13:27:53Z</time>
      </trkpt>
      <trkpt lat="37.5734940" lon="-4.2676840">
        <ele>494.0</ele>
        <time>2021-12-28T13:27:54Z</time>
      </trkpt>
      <trkpt lat="37.5734940" lon="-4.2677150">
        <ele>494.2</ele>
        <time>2021-12-28T13:27:55Z</time>
      </trkpt>
      <trkpt lat="37.5734940" lon="-4.2677500">
        <ele>494.2</ele>
        <time>2021-12-28T13:27:56Z</time>
      </trkpt>
      <trkpt lat="37.5734910" lon="-4.2677850">
        <ele>494.2</ele>
        <time>2021-12-28T13:27:57Z</time>
      </trkpt>
      <trkpt lat="37.5734850" lon="-4.2678200">
        <ele>494.2</ele>
        <time>2021-12-28T13:27:58Z</time>
      </trkpt>
      <trkpt lat="37.5734820" lon="-4.2678580">
        <ele>494.2</ele>
        <time>2021-12-28T13:27:59Z</time>
      </trkpt>
      <trkpt lat="37.5734780" lon="-4.2678980">
        <ele>494.2</ele>
        <time>2021-12-28T13:28:00Z</time>
      </trkpt>
      <trkpt lat="37.5734780" lon="-4.2679380">
        <ele>494.2</ele>
        <time>2021-12-28T13:28:01Z</time>
      </trkpt>
      <trkpt lat="37.5734780" lon="-4.2679780">
        <ele>494.2</ele>
        <time>2021-12-28T13:28:02Z</time>
      </trkpt>
      <trkpt lat="37.5734750" lon="-4.2680180">
        <ele>494.2</ele>
        <time>2021-12-28T13:28:03Z</time>
      </trkpt>
      <trkpt lat="37.5734750" lon="-4.2680600">
        <ele>494.2</ele>
        <time>2021-12-28T13:28:04Z</time>
      </trkpt>
      <trkpt lat="37.5734690" lon="-4.2681030">
        <ele>494.2</ele>
        <time>2021-12-28T13:28:05Z</time>
      </trkpt>
      <trkpt lat="37.5734620" lon="-4.2681450">
        <ele>494.4</ele>
        <time>2021-12-28T13:28:06Z</time>
      </trkpt>
      <trkpt lat="37.5734590" lon="-4.2681880">
        <ele>494.4</ele>
        <time>2021-12-28T13:28:07Z</time>
      </trkpt>
      <trkpt lat="37.5734530" lon="-4.2682300">
        <ele>494.4</ele>
        <time>2021-12-28T13:28:08Z</time>
      </trkpt>
      <trkpt lat="37.5734500" lon="-4.2682700">
        <ele>494.4</ele>
        <time>2021-12-28T13:28:09Z</time>
      </trkpt>
      <trkpt lat="37.5734430" lon="-4.2683100">
        <ele>494.2</ele>
        <time>2021-12-28T13:28:10Z</time>
      </trkpt>
      <trkpt lat="37.5734400" lon="-4.2683500">
        <ele>494.2</ele>
        <time>2021-12-28T13:28:11Z</time>
      </trkpt>
      <trkpt lat="37.5734340" lon="-4.2683920">
        <ele>494.2</ele>
        <time>2021-12-28T13:28:12Z</time>
      </trkpt>
      <trkpt lat="37.5734300" lon="-4.2684340">
        <ele>494.2</ele>
        <time>2021-12-28T13:28:13Z</time>
      </trkpt>
      <trkpt lat="37.5734240" lon="-4.2684750">
        <ele>494.2</ele>
        <time>2021-12-28T13:28:14Z</time>
      </trkpt>
      <trkpt lat="37.5734210" lon="-4.2685130">
        <ele>494.0</ele>
        <time>2021-12-28T13:28:15Z</time>
      </trkpt>
      <trkpt lat="37.5734140" lon="-4.2685480">
        <ele>494.0</ele>
        <time>2021-12-28T13:28:16Z</time>
      </trkpt>
      <trkpt lat="37.5734050" lon="-4.2685830">
        <ele>494.0</ele>
        <time>2021-12-28T13:28:17Z</time>
      </trkpt>
      <trkpt lat="37.5734020" lon="-4.2686180">
        <ele>494.0</ele>
        <time>2021-12-28T13:28:18Z</time>
      </trkpt>
      <trkpt lat="37.5733950" lon="-4.2686530">
        <ele>494.0</ele>
        <time>2021-12-28T13:28:19Z</time>
      </trkpt>
      <trkpt lat="37.5733860" lon="-4.2686870">
        <ele>494.0</ele>
        <time>2021-12-28T13:28:20Z</time>
      </trkpt>
      <trkpt lat="37.5733820" lon="-4.2687200">
        <ele>494.0</ele>
        <time>2021-12-28T13:28:21Z</time>
      </trkpt>
      <trkpt lat="37.5733820" lon="-4.2687520">
        <ele>494.0</ele>
        <time>2021-12-28T13:28:22Z</time>
      </trkpt>
      <trkpt lat="37.5733820" lon="-4.2687820">
        <ele>494.0</ele>
        <time>2021-12-28T13:28:23Z</time>
      </trkpt>
      <trkpt lat="37.5733760" lon="-4.2688130">
        <ele>493.8</ele>
        <time>2021-12-28T13:28:24Z</time>
      </trkpt>
      <trkpt lat="37.5733630" lon="-4.2688480">
        <ele>493.8</ele>
        <time>2021-12-28T13:28:25Z</time>
      </trkpt>
      <trkpt lat="37.5733540" lon="-4.2688830">
        <ele>493.8</ele>
        <time>2021-12-28T13:28:26Z</time>
      </trkpt>
      <trkpt lat="37.5733440" lon="-4.2689200">
        <ele>493.8</ele>
        <time>2021-12-28T13:28:27Z</time>
      </trkpt>
      <trkpt lat="37.5733340" lon="-4.2689580">
        <ele>494.0</ele>
        <time>2021-12-28T13:28:28Z</time>
      </trkpt>
      <trkpt lat="37.5733250" lon="-4.2689950">
        <ele>494.0</ele>
        <time>2021-12-28T13:28:29Z</time>
      </trkpt>
      <trkpt lat="37.5733180" lon="-4.2690270">
        <ele>494.0</ele>
        <time>2021-12-28T13:28:30Z</time>
      </trkpt>
      <trkpt lat="37.5733120" lon="-4.2690600">
        <ele>494.0</ele>
        <time>2021-12-28T13:28:31Z</time>
      </trkpt>
      <trkpt lat="37.5733020" lon="-4.2690920">
        <ele>494.0</ele>
        <time>2021-12-28T13:28:32Z</time>
      </trkpt>
      <trkpt lat="37.5732990" lon="-4.2691240">
        <ele>494.0</ele>
        <time>2021-12-28T13:28:33Z</time>
      </trkpt>
      <trkpt lat="37.5732930" lon="-4.2691560">
        <ele>493.8</ele>
        <time>2021-12-28T13:28:34Z</time>
      </trkpt>
      <trkpt lat="37.5732860" lon="-4.2691920">
        <ele>493.8</ele>
        <time>2021-12-28T13:28:35Z</time>
      </trkpt>
      <trkpt lat="37.5732770" lon="-4.2692280">
        <ele>493.8</ele>
        <time>2021-12-28T13:28:36Z</time>
      </trkpt>
      <trkpt lat="37.5732700" lon="-4.2692630">
        <ele>493.8</ele>
        <time>2021-12-28T13:28:37Z</time>
      </trkpt>
      <trkpt lat="37.5732610" lon="-4.2692980">
        <ele>493.8</ele>
        <time>2021-12-28T13:28:38Z</time>
      </trkpt>
      <trkpt lat="37.5732540" lon="-4.2693330">
        <ele>493.8</ele>
        <time>2021-12-28T13:28:39Z</time>
      </trkpt>
      <trkpt lat="37.5732450" lon="-4.2693700">
        <ele>493.6</ele>
        <time>2021-12-28T13:28:40Z</time>
      </trkpt>
      <trkpt lat="37.5732350" lon="-4.2694070">
        <ele>493.6</ele>
        <time>2021-12-28T13:28:41Z</time>
      </trkpt>
      <trkpt lat="37.5732260" lon="-4.2694400">
        <ele>493.6</ele>
        <time>2021-12-28T13:28:42Z</time>
      </trkpt>
      <trkpt lat="37.5732160" lon="-4.2694750">
        <ele>493.6</ele>
        <time>2021-12-28T13:28:43Z</time>
      </trkpt>
      <trkpt lat="37.5732060" lon="-4.2695120">
        <ele>493.6</ele>
        <time>2021-12-28T13:28:44Z</time>
      </trkpt>
      <trkpt lat="37.5731970" lon="-4.2695460">
        <ele>493.6</ele>
        <time>2021-12-28T13:28:45Z</time>
      </trkpt>
      <trkpt lat="37.5731840" lon="-4.2695850">
        <ele>493.6</ele>
        <time>2021-12-28T13:28:46Z</time>
      </trkpt>
      <trkpt lat="37.5731740" lon="-4.2696220">
        <ele>493.6</ele>
        <time>2021-12-28T13:28:47Z</time>
      </trkpt>
      <trkpt lat="37.5731580" lon="-4.2696550">
        <ele>493.6</ele>
        <time>2021-12-28T13:28:48Z</time>
      </trkpt>
      <trkpt lat="37.5731550" lon="-4.2696800">
        <ele>493.6</ele>
        <time>2021-12-28T13:28:49Z</time>
      </trkpt>
      <trkpt lat="37.5731550" lon="-4.2696800">
        <ele>493.8</ele>
        <time>2021-12-28T13:28:50Z</time>
      </trkpt>
      <trkpt lat="37.5731460" lon="-4.2697020">
        <ele>493.8</ele>
        <time>2021-12-28T13:28:51Z</time>
      </trkpt>
      <trkpt lat="37.5731460" lon="-4.2697020">
        <ele>493.8</ele>
        <time>2021-12-28T13:28:52Z</time>
      </trkpt>
      <trkpt lat="37.5731460" lon="-4.2697020">
        <ele>493.8</ele>
        <time>2021-12-28T13:28:53Z</time>
      </trkpt>
      <trkpt lat="37.5731460" lon="-4.2697020">
        <ele>494.0</ele>
        <time>2021-12-28T13:28:54Z</time>
      </trkpt>
      <trkpt lat="37.5731200" lon="-4.2698220">
        <ele>494.4</ele>
        <time>2021-12-28T13:29:20Z</time>
      </trkpt>
      <trkpt lat="37.5731140" lon="-4.2698520">
        <ele>494.2</ele>
        <time>2021-12-28T13:29:21Z</time>
      </trkpt>
      <trkpt lat="37.5731040" lon="-4.2698860">
        <ele>494.2</ele>
        <time>2021-12-28T13:29:22Z</time>
      </trkpt>
      <trkpt lat="37.5730940" lon="-4.2699230">
        <ele>494.2</ele>
        <time>2021-12-28T13:29:23Z</time>
      </trkpt>
      <trkpt lat="37.5730780" lon="-4.2699600">
        <ele>494.2</ele>
        <time>2021-12-28T13:29:24Z</time>
      </trkpt>
      <trkpt lat="37.5730620" lon="-4.2699980">
        <ele>494.0</ele>
        <time>2021-12-28T13:29:25Z</time>
      </trkpt>
      <trkpt lat="37.5730530" lon="-4.2700350">
        <ele>494.0</ele>
        <time>2021-12-28T13:29:26Z</time>
      </trkpt>
      <trkpt lat="37.5730400" lon="-4.2700750">
        <ele>494.0</ele>
        <time>2021-12-28T13:29:27Z</time>
      </trkpt>
      <trkpt lat="37.5730270" lon="-4.2701170">
        <ele>494.0</ele>
        <time>2021-12-28T13:29:28Z</time>
      </trkpt>
      <trkpt lat="37.5730140" lon="-4.2701570">
        <ele>494.0</ele>
        <time>2021-12-28T13:29:29Z</time>
      </trkpt>
      <trkpt lat="37.5730020" lon="-4.2701980">
        <ele>494.0</ele>
        <time>2021-12-28T13:29:30Z</time>
      </trkpt>
      <trkpt lat="37.5729920" lon="-4.2702400">
        <ele>494.0</ele>
        <time>2021-12-28T13:29:31Z</time>
      </trkpt>
      <trkpt lat="37.5729790" lon="-4.2702850">
        <ele>494.2</ele>
        <time>2021-12-28T13:29:32Z</time>
      </trkpt>
      <trkpt lat="37.5729630" lon="-4.2703280">
        <ele>494.2</ele>
        <time>2021-12-28T13:29:33Z</time>
      </trkpt>
      <trkpt lat="37.5729540" lon="-4.2703720">
        <ele>494.2</ele>
        <time>2021-12-28T13:29:34Z</time>
      </trkpt>
      <trkpt lat="37.5729410" lon="-4.2704200">
        <ele>494.2</ele>
        <time>2021-12-28T13:29:35Z</time>
      </trkpt>
      <trkpt lat="37.5729250" lon="-4.2704670">
        <ele>494.2</ele>
        <time>2021-12-28T13:29:36Z</time>
      </trkpt>
      <trkpt lat="37.5729090" lon="-4.2705140">
        <ele>494.2</ele>
        <time>2021-12-28T13:29:37Z</time>
      </trkpt>
      <trkpt lat="37.5728960" lon="-4.2705600">
        <ele>494.4</ele>
        <time>2021-12-28T13:29:38Z</time>
      </trkpt>
      <trkpt lat="37.5728830" lon="-4.2706060">
        <ele>494.4</ele>
        <time>2021-12-28T13:29:39Z</time>
      </trkpt>
      <trkpt lat="37.5728740" lon="-4.2706520">
        <ele>494.4</ele>
        <time>2021-12-28T13:29:40Z</time>
      </trkpt>
      <trkpt lat="37.5728580" lon="-4.2706930">
        <ele>494.4</ele>
        <time>2021-12-28T13:29:41Z</time>
      </trkpt>
      <trkpt lat="37.5728450" lon="-4.2707330">
        <ele>494.4</ele>
        <time>2021-12-28T13:29:42Z</time>
      </trkpt>
      <trkpt lat="37.5728290" lon="-4.2707750">
        <ele>494.6</ele>
        <time>2021-12-28T13:29:43Z</time>
      </trkpt>
      <trkpt lat="37.5728190" lon="-4.2708200">
        <ele>494.6</ele>
        <time>2021-12-28T13:29:44Z</time>
      </trkpt>
      <trkpt lat="37.5728030" lon="-4.2708670">
        <ele>494.6</ele>
        <time>2021-12-28T13:29:45Z</time>
      </trkpt>
      <trkpt lat="37.5727840" lon="-4.2709120">
        <ele>494.6</ele>
        <time>2021-12-28T13:29:46Z</time>
      </trkpt>
      <trkpt lat="37.5727680" lon="-4.2709580">
        <ele>494.6</ele>
        <time>2021-12-28T13:29:47Z</time>
      </trkpt>
      <trkpt lat="37.5727580" lon="-4.2710050">
        <ele>494.6</ele>
        <time>2021-12-28T13:29:48Z</time>
      </trkpt>
      <trkpt lat="37.5727420" lon="-4.2710520">
        <ele>494.6</ele>
        <time>2021-12-28T13:29:49Z</time>
      </trkpt>
      <trkpt lat="37.5727300" lon="-4.2711000">
        <ele>494.6</ele>
        <time>2021-12-28T13:29:50Z</time>
      </trkpt>
      <trkpt lat="37.5727200" lon="-4.2711470">
        <ele>494.6</ele>
        <time>2021-12-28T13:29:51Z</time>
      </trkpt>
      <trkpt lat="37.5727040" lon="-4.2711940">
        <ele>494.6</ele>
        <time>2021-12-28T13:29:52Z</time>
      </trkpt>
      <trkpt lat="37.5726940" lon="-4.2712360">
        <ele>494.6</ele>
        <time>2021-12-28T13:29:53Z</time>
      </trkpt>
      <trkpt lat="37.5726820" lon="-4.2712780">
        <ele>494.4</ele>
        <time>2021-12-28T13:29:54Z</time>
      </trkpt>
      <trkpt lat="37.5726690" lon="-4.2713160">
        <ele>494.4</ele>
        <time>2021-12-28T13:29:55Z</time>
      </trkpt>
      <trkpt lat="37.5726590" lon="-4.2713500">
        <ele>494.4</ele>
        <time>2021-12-28T13:29:56Z</time>
      </trkpt>
      <trkpt lat="37.5726430" lon="-4.2713820">
        <ele>494.4</ele>
        <time>2021-12-28T13:29:57Z</time>
      </trkpt>
      <trkpt lat="37.5726300" lon="-4.2714170">
        <ele>494.2</ele>
        <time>2021-12-28T13:29:58Z</time>
      </trkpt>
      <trkpt lat="37.5726210" lon="-4.2714520">
        <ele>494.2</ele>
        <time>2021-12-28T13:29:59Z</time>
      </trkpt>
      <trkpt lat="37.5726030" lon="-4.2715010">
        <ele>494.2</ele>
        <time>2021-12-28T13:30:00Z</time>
      </trkpt>
      <trkpt lat="37.5725980" lon="-4.2715170">
        <ele>494.2</ele>
        <time>2021-12-28T13:30:01Z</time>
      </trkpt>
      <trkpt lat="37.5725890" lon="-4.2715480">
        <ele>494.2</ele>
        <time>2021-12-28T13:30:02Z</time>
      </trkpt>
      <trkpt lat="37.5725860" lon="-4.2715740">
        <ele>494.2</ele>
        <time>2021-12-28T13:30:03Z</time>
      </trkpt>
      <trkpt lat="37.5725860" lon="-4.2715740">
        <ele>494.2</ele>
        <time>2021-12-28T13:30:04Z</time>
      </trkpt>
      <trkpt lat="37.5725860" lon="-4.2716000">
        <ele>494.2</ele>
        <time>2021-12-28T13:30:05Z</time>
      </trkpt>
      <trkpt lat="37.5725860" lon="-4.2716000">
        <ele>494.2</ele>
        <time>2021-12-28T13:30:06Z</time>
      </trkpt>
      <trkpt lat="37.5725860" lon="-4.2716000">
        <ele>494.0</ele>
        <time>2021-12-28T13:30:07Z</time>
      </trkpt>
      <trkpt lat="37.5725860" lon="-4.2716000">
        <ele>494.0</ele>
        <time>2021-12-28T13:30:08Z</time>
      </trkpt>
      <trkpt lat="37.5725860" lon="-4.2716000">
        <ele>493.8</ele>
        <time>2021-12-28T13:30:09Z</time>
      </trkpt>
      <trkpt lat="37.5725060" lon="-4.2718150">
        <ele>494.6</ele>
        <time>2021-12-28T13:30:28Z</time>
      </trkpt>
      <trkpt lat="37.5724960" lon="-4.2718470">
        <ele>494.6</ele>
        <time>2021-12-28T13:30:29Z</time>
      </trkpt>
      <trkpt lat="37.5724830" lon="-4.2718820">
        <ele>494.6</ele>
        <time>2021-12-28T13:30:30Z</time>
      </trkpt>
      <trkpt lat="37.5724640" lon="-4.2719180">
        <ele>494.6</ele>
        <time>2021-12-28T13:30:31Z</time>
      </trkpt>
      <trkpt lat="37.5724510" lon="-4.2719560">
        <ele>494.6</ele>
        <time>2021-12-28T13:30:32Z</time>
      </trkpt>
      <trkpt lat="37.5724450" lon="-4.2719920">
        <ele>494.6</ele>
        <time>2021-12-28T13:30:33Z</time>
      </trkpt>
      <trkpt lat="37.5724380" lon="-4.2720150">
        <ele>494.6</ele>
        <time>2021-12-28T13:30:34Z</time>
      </trkpt>
      <trkpt lat="37.5724380" lon="-4.2720150">
        <ele>494.4</ele>
        <time>2021-12-28T13:30:35Z</time>
      </trkpt>
      <trkpt lat="37.5724320" lon="-4.2720480">
        <ele>494.4</ele>
        <time>2021-12-28T13:30:36Z</time>
      </trkpt>
      <trkpt lat="37.5724320" lon="-4.2720480">
        <ele>494.4</ele>
        <time>2021-12-28T13:30:37Z</time>
      </trkpt>
      <trkpt lat="37.5724320" lon="-4.2720480">
        <ele>494.4</ele>
        <time>2021-12-28T13:30:38Z</time>
      </trkpt>
      <trkpt lat="37.5724320" lon="-4.2720480">
        <ele>494.4</ele>
        <time>2021-12-28T13:30:39Z</time>
      </trkpt>
      <trkpt lat="37.5724320" lon="-4.2720480">
        <ele>494.4</ele>
        <time>2021-12-28T13:30:40Z</time>
      </trkpt>
      <trkpt lat="37.5723900" lon="-4.2721840">
        <ele>492.4</ele>
        <time>2021-12-28T13:31:32Z</time>
      </trkpt>
      <trkpt lat="37.5723810" lon="-4.2722170">
        <ele>492.4</ele>
        <time>2021-12-28T13:31:33Z</time>
      </trkpt>
      <trkpt lat="37.5723710" lon="-4.2722480">
        <ele>492.4</ele>
        <time>2021-12-28T13:31:34Z</time>
      </trkpt>
      <trkpt lat="37.5723650" lon="-4.2722800">
        <ele>492.4</ele>
        <time>2021-12-28T13:31:35Z</time>
      </trkpt>
      <trkpt lat="37.5723580" lon="-4.2723100">
        <ele>492.4</ele>
        <time>2021-12-28T13:31:36Z</time>
      </trkpt>
      <trkpt lat="37.5723460" lon="-4.2723430">
        <ele>492.4</ele>
        <time>2021-12-28T13:31:37Z</time>
      </trkpt>
      <trkpt lat="37.5723330" lon="-4.2723730">
        <ele>492.4</ele>
        <time>2021-12-28T13:31:38Z</time>
      </trkpt>
      <trkpt lat="37.5723260" lon="-4.2724050">
        <ele>492.4</ele>
        <time>2021-12-28T13:31:39Z</time>
      </trkpt>
      <trkpt lat="37.5723170" lon="-4.2724370">
        <ele>492.6</ele>
        <time>2021-12-28T13:31:40Z</time>
      </trkpt>
      <trkpt lat="37.5723070" lon="-4.2724680">
        <ele>492.6</ele>
        <time>2021-12-28T13:31:41Z</time>
      </trkpt>
      <trkpt lat="37.5723010" lon="-4.2725000">
        <ele>492.6</ele>
        <time>2021-12-28T13:31:42Z</time>
      </trkpt>
      <trkpt lat="37.5722880" lon="-4.2725300">
        <ele>492.6</ele>
        <time>2021-12-28T13:31:43Z</time>
      </trkpt>
      <trkpt lat="37.5722780" lon="-4.2725570">
        <ele>492.8</ele>
        <time>2021-12-28T13:31:44Z</time>
      </trkpt>
      <trkpt lat="37.5722690" lon="-4.2725840">
        <ele>492.8</ele>
        <time>2021-12-28T13:31:45Z</time>
      </trkpt>
      <trkpt lat="37.5722620" lon="-4.2726120">
        <ele>492.8</ele>
        <time>2021-12-28T13:31:46Z</time>
      </trkpt>
      <trkpt lat="37.5722530" lon="-4.2726380">
        <ele>492.8</ele>
        <time>2021-12-28T13:31:47Z</time>
      </trkpt>
      <trkpt lat="37.5722460" lon="-4.2726650">
        <ele>493.0</ele>
        <time>2021-12-28T13:31:48Z</time>
      </trkpt>
      <trkpt lat="37.5722340" lon="-4.2726920">
        <ele>493.0</ele>
        <time>2021-12-28T13:31:49Z</time>
      </trkpt>
      <trkpt lat="37.5722270" lon="-4.2727220">
        <ele>493.0</ele>
        <time>2021-12-28T13:31:50Z</time>
      </trkpt>
      <trkpt lat="37.5722210" lon="-4.2727520">
        <ele>493.2</ele>
        <time>2021-12-28T13:31:51Z</time>
      </trkpt>
      <trkpt lat="37.5722180" lon="-4.2727830">
        <ele>493.2</ele>
        <time>2021-12-28T13:31:52Z</time>
      </trkpt>
      <trkpt lat="37.5722080" lon="-4.2728130">
        <ele>493.2</ele>
        <time>2021-12-28T13:31:53Z</time>
      </trkpt>
      <trkpt lat="37.5721980" lon="-4.2728470">
        <ele>493.2</ele>
        <time>2021-12-28T13:31:54Z</time>
      </trkpt>
      <trkpt lat="37.5721890" lon="-4.2728780">
        <ele>493.2</ele>
        <time>2021-12-28T13:31:55Z</time>
      </trkpt>
      <trkpt lat="37.5721820" lon="-4.2729100">
        <ele>493.2</ele>
        <time>2021-12-28T13:31:56Z</time>
      </trkpt>
      <trkpt lat="37.5721660" lon="-4.2729440">
        <ele>493.2</ele>
        <time>2021-12-28T13:31:57Z</time>
      </trkpt>
      <trkpt lat="37.5721540" lon="-4.2729780">
        <ele>493.2</ele>
        <time>2021-12-28T13:31:58Z</time>
      </trkpt>
      <trkpt lat="37.5721440" lon="-4.2730130">
        <ele>493.2</ele>
        <time>2021-12-28T13:31:59Z</time>
      </trkpt>
      <trkpt lat="37.5721280" lon="-4.2730480">
        <ele>493.2</ele>
        <time>2021-12-28T13:32:00Z</time>
      </trkpt>
      <trkpt lat="37.5721180" lon="-4.2730830">
        <ele>493.0</ele>
        <time>2021-12-28T13:32:01Z</time>
      </trkpt>
      <trkpt lat="37.5721090" lon="-4.2731160">
        <ele>493.2</ele>
        <time>2021-12-28T13:32:02Z</time>
      </trkpt>
      <trkpt lat="37.5720990" lon="-4.2731500">
        <ele>493.2</ele>
        <time>2021-12-28T13:32:03Z</time>
      </trkpt>
      <trkpt lat="37.5720900" lon="-4.2731830">
        <ele>493.2</ele>
        <time>2021-12-28T13:32:04Z</time>
      </trkpt>
      <trkpt lat="37.5720830" lon="-4.2732170">
        <ele>493.2</ele>
        <time>2021-12-28T13:32:05Z</time>
      </trkpt>
      <trkpt lat="37.5720740" lon="-4.2732500">
        <ele>493.2</ele>
        <time>2021-12-28T13:32:06Z</time>
      </trkpt>
      <trkpt lat="37.5720640" lon="-4.2732840">
        <ele>493.2</ele>
        <time>2021-12-28T13:32:07Z</time>
      </trkpt>
      <trkpt lat="37.5720510" lon="-4.2733150">
        <ele>493.4</ele>
        <time>2021-12-28T13:32:08Z</time>
      </trkpt>
      <trkpt lat="37.5720450" lon="-4.2733470">
        <ele>493.4</ele>
        <time>2021-12-28T13:32:09Z</time>
      </trkpt>
      <trkpt lat="37.5720320" lon="-4.2733800">
        <ele>493.4</ele>
        <time>2021-12-28T13:32:10Z</time>
      </trkpt>
      <trkpt lat="37.5720220" lon="-4.2734100">
        <ele>493.6</ele>
        <time>2021-12-28T13:32:11Z</time>
      </trkpt>
      <trkpt lat="37.5720100" lon="-4.2734430">
        <ele>493.8</ele>
        <time>2021-12-28T13:32:12Z</time>
      </trkpt>
      <trkpt lat="37.5720000" lon="-4.2734780">
        <ele>493.8</ele>
        <time>2021-12-28T13:32:13Z</time>
      </trkpt>
      <trkpt lat="37.5719840" lon="-4.2735170">
        <ele>493.8</ele>
        <time>2021-12-28T13:32:14Z</time>
      </trkpt>
      <trkpt lat="37.5719710" lon="-4.2735550">
        <ele>494.0</ele>
        <time>2021-12-28T13:32:15Z</time>
      </trkpt>
      <trkpt lat="37.5719550" lon="-4.2735970">
        <ele>494.0</ele>
        <time>2021-12-28T13:32:16Z</time>
      </trkpt>
      <trkpt lat="37.5719460" lon="-4.2736380">
        <ele>494.0</ele>
        <time>2021-12-28T13:32:17Z</time>
      </trkpt>
      <trkpt lat="37.5719330" lon="-4.2736780">
        <ele>494.0</ele>
        <time>2021-12-28T13:32:18Z</time>
      </trkpt>
      <trkpt lat="37.5719230" lon="-4.2737160">
        <ele>494.2</ele>
        <time>2021-12-28T13:32:19Z</time>
      </trkpt>
      <trkpt lat="37.5719140" lon="-4.2737480">
        <ele>494.2</ele>
        <time>2021-12-28T13:32:20Z</time>
      </trkpt>
      <trkpt lat="37.5719040" lon="-4.2737820">
        <ele>494.4</ele>
        <time>2021-12-28T13:32:21Z</time>
      </trkpt>
      <trkpt lat="37.5718910" lon="-4.2738130">
        <ele>494.4</ele>
        <time>2021-12-28T13:32:22Z</time>
      </trkpt>
      <trkpt lat="37.5718820" lon="-4.2738430">
        <ele>494.6</ele>
        <time>2021-12-28T13:32:23Z</time>
      </trkpt>
      <trkpt lat="37.5718720" lon="-4.2738720">
        <ele>494.6</ele>
        <time>2021-12-28T13:32:24Z</time>
      </trkpt>
      <trkpt lat="37.5718620" lon="-4.2739050">
        <ele>494.6</ele>
        <time>2021-12-28T13:32:25Z</time>
      </trkpt>
      <trkpt lat="37.5718530" lon="-4.2739400">
        <ele>494.6</ele>
        <time>2021-12-28T13:32:26Z</time>
      </trkpt>
      <trkpt lat="37.5718460" lon="-4.2739720">
        <ele>494.6</ele>
        <time>2021-12-28T13:32:27Z</time>
      </trkpt>
      <trkpt lat="37.5718340" lon="-4.2740050">
        <ele>494.6</ele>
        <time>2021-12-28T13:32:28Z</time>
      </trkpt>
      <trkpt lat="37.5718270" lon="-4.2740350">
        <ele>494.6</ele>
        <time>2021-12-28T13:32:29Z</time>
      </trkpt>
      <trkpt lat="37.5718140" lon="-4.2740660">
        <ele>494.8</ele>
        <time>2021-12-28T13:32:30Z</time>
      </trkpt>
      <trkpt lat="37.5718050" lon="-4.2741030">
        <ele>494.8</ele>
        <time>2021-12-28T13:32:31Z</time>
      </trkpt>
      <trkpt lat="37.5717920" lon="-4.2741430">
        <ele>494.8</ele>
        <time>2021-12-28T13:32:32Z</time>
      </trkpt>
      <trkpt lat="37.5717820" lon="-4.2741800">
        <ele>495.0</ele>
        <time>2021-12-28T13:32:33Z</time>
      </trkpt>
      <trkpt lat="37.5717660" lon="-4.2742200">
        <ele>495.0</ele>
        <time>2021-12-28T13:32:34Z</time>
      </trkpt>
      <trkpt lat="37.5717540" lon="-4.2742580">
        <ele>495.0</ele>
        <time>2021-12-28T13:32:35Z</time>
      </trkpt>
      <trkpt lat="37.5717440" lon="-4.2742980">
        <ele>495.2</ele>
        <time>2021-12-28T13:32:36Z</time>
      </trkpt>
      <trkpt lat="37.5717310" lon="-4.2743400">
        <ele>495.2</ele>
        <time>2021-12-28T13:32:37Z</time>
      </trkpt>
      <trkpt lat="37.5717220" lon="-4.2743820">
        <ele>495.2</ele>
        <time>2021-12-28T13:32:38Z</time>
      </trkpt>
      <trkpt lat="37.5717090" lon="-4.2744260">
        <ele>495.2</ele>
        <time>2021-12-28T13:32:39Z</time>
      </trkpt>
      <trkpt lat="37.5716960" lon="-4.2744680">
        <ele>495.4</ele>
        <time>2021-12-28T13:32:40Z</time>
      </trkpt>
      <trkpt lat="37.5716860" lon="-4.2745100">
        <ele>495.4</ele>
        <time>2021-12-28T13:32:41Z</time>
      </trkpt>
      <trkpt lat="37.5716700" lon="-4.2745550">
        <ele>495.6</ele>
        <time>2021-12-28T13:32:42Z</time>
      </trkpt>
      <trkpt lat="37.5716580" lon="-4.2746020">
        <ele>495.8</ele>
        <time>2021-12-28T13:32:43Z</time>
      </trkpt>
      <trkpt lat="37.5716420" lon="-4.2746500">
        <ele>495.8</ele>
        <time>2021-12-28T13:32:44Z</time>
      </trkpt>
      <trkpt lat="37.5716260" lon="-4.2747000">
        <ele>496.0</ele>
        <time>2021-12-28T13:32:45Z</time>
      </trkpt>
      <trkpt lat="37.5716060" lon="-4.2747500">
        <ele>496.0</ele>
        <time>2021-12-28T13:32:46Z</time>
      </trkpt>
      <trkpt lat="37.5715900" lon="-4.2748020">
        <ele>496.0</ele>
        <time>2021-12-28T13:32:47Z</time>
      </trkpt>
      <trkpt lat="37.5715740" lon="-4.2748550">
        <ele>496.0</ele>
        <time>2021-12-28T13:32:48Z</time>
      </trkpt>
      <trkpt lat="37.5715580" lon="-4.2749070">
        <ele>496.0</ele>
        <time>2021-12-28T13:32:49Z</time>
      </trkpt>
      <trkpt lat="37.5715460" lon="-4.2749600">
        <ele>496.0</ele>
        <time>2021-12-28T13:32:50Z</time>
      </trkpt>
      <trkpt lat="37.5715300" lon="-4.2750150">
        <ele>496.0</ele>
        <time>2021-12-28T13:32:51Z</time>
      </trkpt>
      <trkpt lat="37.5715100" lon="-4.2750680">
        <ele>496.0</ele>
        <time>2021-12-28T13:32:52Z</time>
      </trkpt>
      <trkpt lat="37.5714940" lon="-4.2751230">
        <ele>496.0</ele>
        <time>2021-12-28T13:32:53Z</time>
      </trkpt>
      <trkpt lat="37.5714780" lon="-4.2751760">
        <ele>496.0</ele>
        <time>2021-12-28T13:32:54Z</time>
      </trkpt>
      <trkpt lat="37.5714660" lon="-4.2752280">
        <ele>496.0</ele>
        <time>2021-12-28T13:32:55Z</time>
      </trkpt>
      <trkpt lat="37.5714500" lon="-4.2752770">
        <ele>496.0</ele>
        <time>2021-12-28T13:32:56Z</time>
      </trkpt>
      <trkpt lat="37.5714340" lon="-4.2753250">
        <ele>496.0</ele>
        <time>2021-12-28T13:32:57Z</time>
      </trkpt>
      <trkpt lat="37.5714180" lon="-4.2753720">
        <ele>496.0</ele>
        <time>2021-12-28T13:32:58Z</time>
      </trkpt>
      <trkpt lat="37.5714080" lon="-4.2754180">
        <ele>495.8</ele>
        <time>2021-12-28T13:32:59Z</time>
      </trkpt>
      <trkpt lat="37.5713890" lon="-4.2754650">
        <ele>495.8</ele>
        <time>2021-12-28T13:33:00Z</time>
      </trkpt>
      <trkpt lat="37.5713760" lon="-4.2755130">
        <ele>495.6</ele>
        <time>2021-12-28T13:33:01Z</time>
      </trkpt>
      <trkpt lat="37.5713600" lon="-4.2755600">
        <ele>495.6</ele>
        <time>2021-12-28T13:33:02Z</time>
      </trkpt>
      <trkpt lat="37.5713470" lon="-4.2756080">
        <ele>495.6</ele>
        <time>2021-12-28T13:33:03Z</time>
      </trkpt>
      <trkpt lat="37.5713310" lon="-4.2756570">
        <ele>495.6</ele>
        <time>2021-12-28T13:33:04Z</time>
      </trkpt>
      <trkpt lat="37.5713180" lon="-4.2757020">
        <ele>495.6</ele>
        <time>2021-12-28T13:33:05Z</time>
      </trkpt>
      <trkpt lat="37.5713060" lon="-4.2757440">
        <ele>495.6</ele>
        <time>2021-12-28T13:33:06Z</time>
      </trkpt>
      <trkpt lat="37.5712930" lon="-4.2757850">
        <ele>495.6</ele>
        <time>2021-12-28T13:33:07Z</time>
      </trkpt>
      <trkpt lat="37.5712800" lon="-4.2758230">
        <ele>495.8</ele>
        <time>2021-12-28T13:33:08Z</time>
      </trkpt>
      <trkpt lat="37.5712740" lon="-4.2758630">
        <ele>495.8</ele>
        <time>2021-12-28T13:33:09Z</time>
      </trkpt>
      <trkpt lat="37.5712610" lon="-4.2759020">
        <ele>495.8</ele>
        <time>2021-12-28T13:33:10Z</time>
      </trkpt>
      <trkpt lat="37.5712510" lon="-4.2759450">
        <ele>496.0</ele>
        <time>2021-12-28T13:33:11Z</time>
      </trkpt>
      <trkpt lat="37.5712450" lon="-4.2759880">
        <ele>496.0</ele>
        <time>2021-12-28T13:33:12Z</time>
      </trkpt>
      <trkpt lat="37.5712290" lon="-4.2760300">
        <ele>496.0</ele>
        <time>2021-12-28T13:33:13Z</time>
      </trkpt>
      <trkpt lat="37.5712160" lon="-4.2760740">
        <ele>496.0</ele>
        <time>2021-12-28T13:33:14Z</time>
      </trkpt>
      <trkpt lat="37.5712060" lon="-4.2761180">
        <ele>496.2</ele>
        <time>2021-12-28T13:33:15Z</time>
      </trkpt>
      <trkpt lat="37.5711900" lon="-4.2761630">
        <ele>496.2</ele>
        <time>2021-12-28T13:33:16Z</time>
      </trkpt>
      <trkpt lat="37.5711780" lon="-4.2762080">
        <ele>496.2</ele>
        <time>2021-12-28T13:33:17Z</time>
      </trkpt>
      <trkpt lat="37.5711680" lon="-4.2762520">
        <ele>496.2</ele>
        <time>2021-12-28T13:33:18Z</time>
      </trkpt>
      <trkpt lat="37.5711550" lon="-4.2762970">
        <ele>496.2</ele>
        <time>2021-12-28T13:33:19Z</time>
      </trkpt>
      <trkpt lat="37.5711460" lon="-4.2763400">
        <ele>496.2</ele>
        <time>2021-12-28T13:33:20Z</time>
      </trkpt>
      <trkpt lat="37.5711330" lon="-4.2763830">
        <ele>496.2</ele>
        <time>2021-12-28T13:33:21Z</time>
      </trkpt>
      <trkpt lat="37.5711260" lon="-4.2764250">
        <ele>496.2</ele>
        <time>2021-12-28T13:33:22Z</time>
      </trkpt>
      <trkpt lat="37.5711140" lon="-4.2764680">
        <ele>496.2</ele>
        <time>2021-12-28T13:33:23Z</time>
      </trkpt>
      <trkpt lat="37.5710980" lon="-4.2765100">
        <ele>496.2</ele>
        <time>2021-12-28T13:33:24Z</time>
      </trkpt>
      <trkpt lat="37.5710880" lon="-4.2765530">
        <ele>496.2</ele>
        <time>2021-12-28T13:33:25Z</time>
      </trkpt>
      <trkpt lat="37.5710780" lon="-4.2765950">
        <ele>496.2</ele>
        <time>2021-12-28T13:33:26Z</time>
      </trkpt>
      <trkpt lat="37.5710690" lon="-4.2766370">
        <ele>496.2</ele>
        <time>2021-12-28T13:33:27Z</time>
      </trkpt>
      <trkpt lat="37.5710590" lon="-4.2766780">
        <ele>496.2</ele>
        <time>2021-12-28T13:33:28Z</time>
      </trkpt>
      <trkpt lat="37.5710500" lon="-4.2767220">
        <ele>496.0</ele>
        <time>2021-12-28T13:33:29Z</time>
      </trkpt>
      <trkpt lat="37.5710370" lon="-4.2767620">
        <ele>496.0</ele>
        <time>2021-12-28T13:33:30Z</time>
      </trkpt>
      <trkpt lat="37.5710300" lon="-4.2768050">
        <ele>495.8</ele>
        <time>2021-12-28T13:33:31Z</time>
      </trkpt>
      <trkpt lat="37.5710180" lon="-4.2768480">
        <ele>495.8</ele>
        <time>2021-12-28T13:33:32Z</time>
      </trkpt>
      <trkpt lat="37.5710080" lon="-4.2768900">
        <ele>495.8</ele>
        <time>2021-12-28T13:33:33Z</time>
      </trkpt>
      <trkpt lat="37.5709980" lon="-4.2769320">
        <ele>496.0</ele>
        <time>2021-12-28T13:33:34Z</time>
      </trkpt>
      <trkpt lat="37.5709920" lon="-4.2769720">
        <ele>496.0</ele>
        <time>2021-12-28T13:33:35Z</time>
      </trkpt>
      <trkpt lat="37.5709790" lon="-4.2770130">
        <ele>496.2</ele>
        <time>2021-12-28T13:33:36Z</time>
      </trkpt>
      <trkpt lat="37.5709730" lon="-4.2770550">
        <ele>496.2</ele>
        <time>2021-12-28T13:33:37Z</time>
      </trkpt>
      <trkpt lat="37.5709660" lon="-4.2770970">
        <ele>496.4</ele>
        <time>2021-12-28T13:33:38Z</time>
      </trkpt>
      <trkpt lat="37.5709540" lon="-4.2771380">
        <ele>496.4</ele>
        <time>2021-12-28T13:33:39Z</time>
      </trkpt>
      <trkpt lat="37.5709470" lon="-4.2771800">
        <ele>496.4</ele>
        <time>2021-12-28T13:33:40Z</time>
      </trkpt>
      <trkpt lat="37.5709380" lon="-4.2772220">
        <ele>496.2</ele>
        <time>2021-12-28T13:33:41Z</time>
      </trkpt>
      <trkpt lat="37.5709310" lon="-4.2772600">
        <ele>496.2</ele>
        <time>2021-12-28T13:33:42Z</time>
      </trkpt>
      <trkpt lat="37.5709280" lon="-4.2772950">
        <ele>496.2</ele>
        <time>2021-12-28T13:33:43Z</time>
      </trkpt>
      <trkpt lat="37.5709150" lon="-4.2773260">
        <ele>496.2</ele>
        <time>2021-12-28T13:33:44Z</time>
      </trkpt>
      <trkpt lat="37.5709120" lon="-4.2773580">
        <ele>496.2</ele>
        <time>2021-12-28T13:33:45Z</time>
      </trkpt>
      <trkpt lat="37.5709020" lon="-4.2773930">
        <ele>496.4</ele>
        <time>2021-12-28T13:33:46Z</time>
      </trkpt>
      <trkpt lat="37.5708990" lon="-4.2774280">
        <ele>496.4</ele>
        <time>2021-12-28T13:33:47Z</time>
      </trkpt>
      <trkpt lat="37.5708960" lon="-4.2774620">
        <ele>496.4</ele>
        <time>2021-12-28T13:33:48Z</time>
      </trkpt>
      <trkpt lat="37.5708900" lon="-4.2774970">
        <ele>496.4</ele>
        <time>2021-12-28T13:33:49Z</time>
      </trkpt>
      <trkpt lat="37.5708900" lon="-4.2775320">
        <ele>496.4</ele>
        <time>2021-12-28T13:33:50Z</time>
      </trkpt>
      <trkpt lat="37.5708800" lon="-4.2775670">
        <ele>496.4</ele>
        <time>2021-12-28T13:33:51Z</time>
      </trkpt>
      <trkpt lat="37.5708740" lon="-4.2776020">
        <ele>496.2</ele>
        <time>2021-12-28T13:33:52Z</time>
      </trkpt>
      <trkpt lat="37.5708700" lon="-4.2776360">
        <ele>496.2</ele>
        <time>2021-12-28T13:33:53Z</time>
      </trkpt>
      <trkpt lat="37.5708610" lon="-4.2776700">
        <ele>496.0</ele>
        <time>2021-12-28T13:33:54Z</time>
      </trkpt>
      <trkpt lat="37.5708580" lon="-4.2777050">
        <ele>496.0</ele>
        <time>2021-12-28T13:33:55Z</time>
      </trkpt>
      <trkpt lat="37.5708510" lon="-4.2777420">
        <ele>496.0</ele>
        <time>2021-12-28T13:33:56Z</time>
      </trkpt>
      <trkpt lat="37.5708420" lon="-4.2777800">
        <ele>495.8</ele>
        <time>2021-12-28T13:33:57Z</time>
      </trkpt>
      <trkpt lat="37.5708350" lon="-4.2778180">
        <ele>495.8</ele>
        <time>2021-12-28T13:33:58Z</time>
      </trkpt>
      <trkpt lat="37.5708320" lon="-4.2778570">
        <ele>495.8</ele>
        <time>2021-12-28T13:33:59Z</time>
      </trkpt>
      <trkpt lat="37.5708220" lon="-4.2778950">
        <ele>495.8</ele>
        <time>2021-12-28T13:34:00Z</time>
      </trkpt>
      <trkpt lat="37.5708190" lon="-4.2779330">
        <ele>495.8</ele>
        <time>2021-12-28T13:34:01Z</time>
      </trkpt>
      <trkpt lat="37.5708130" lon="-4.2779720">
        <ele>495.8</ele>
        <time>2021-12-28T13:34:02Z</time>
      </trkpt>
      <trkpt lat="37.5708100" lon="-4.2780120">
        <ele>495.8</ele>
        <time>2021-12-28T13:34:03Z</time>
      </trkpt>
      <trkpt lat="37.5708030" lon="-4.2780520">
        <ele>495.8</ele>
        <time>2021-12-28T13:34:04Z</time>
      </trkpt>
      <trkpt lat="37.5707970" lon="-4.2780900">
        <ele>495.8</ele>
        <time>2021-12-28T13:34:05Z</time>
      </trkpt>
      <trkpt lat="37.5707940" lon="-4.2781280">
        <ele>495.8</ele>
        <time>2021-12-28T13:34:06Z</time>
      </trkpt>
      <trkpt lat="37.5707900" lon="-4.2781700">
        <ele>495.6</ele>
        <time>2021-12-28T13:34:07Z</time>
      </trkpt>
      <trkpt lat="37.5707840" lon="-4.2782120">
        <ele>495.6</ele>
        <time>2021-12-28T13:34:08Z</time>
      </trkpt>
      <trkpt lat="37.5707810" lon="-4.2782500">
        <ele>495.6</ele>
        <time>2021-12-28T13:34:09Z</time>
      </trkpt>
      <trkpt lat="37.5707780" lon="-4.2782860">
        <ele>495.6</ele>
        <time>2021-12-28T13:34:10Z</time>
      </trkpt>
      <trkpt lat="37.5707710" lon="-4.2783250">
        <ele>495.6</ele>
        <time>2021-12-28T13:34:11Z</time>
      </trkpt>
      <trkpt lat="37.5707710" lon="-4.2783620">
        <ele>495.6</ele>
        <time>2021-12-28T13:34:12Z</time>
      </trkpt>
      <trkpt lat="37.5707710" lon="-4.2784020">
        <ele>495.6</ele>
        <time>2021-12-28T13:34:13Z</time>
      </trkpt>
      <trkpt lat="37.5707710" lon="-4.2784450">
        <ele>495.6</ele>
        <time>2021-12-28T13:34:14Z</time>
      </trkpt>
      <trkpt lat="37.5707710" lon="-4.2784880">
        <ele>495.8</ele>
        <time>2021-12-28T13:34:15Z</time>
      </trkpt>
      <trkpt lat="37.5707680" lon="-4.2785340">
        <ele>495.8</ele>
        <time>2021-12-28T13:34:16Z</time>
      </trkpt>
      <trkpt lat="37.5707680" lon="-4.2785770">
        <ele>495.8</ele>
        <time>2021-12-28T13:34:17Z</time>
      </trkpt>
      <trkpt lat="37.5707620" lon="-4.2786200">
        <ele>495.8</ele>
        <time>2021-12-28T13:34:18Z</time>
      </trkpt>
      <trkpt lat="37.5707580" lon="-4.2786620">
        <ele>495.8</ele>
        <time>2021-12-28T13:34:19Z</time>
      </trkpt>
      <trkpt lat="37.5707550" lon="-4.2787020">
        <ele>496.0</ele>
        <time>2021-12-28T13:34:20Z</time>
      </trkpt>
      <trkpt lat="37.5707520" lon="-4.2787430">
        <ele>496.0</ele>
        <time>2021-12-28T13:34:21Z</time>
      </trkpt>
      <trkpt lat="37.5707490" lon="-4.2787850">
        <ele>496.0</ele>
        <time>2021-12-28T13:34:22Z</time>
      </trkpt>
      <trkpt lat="37.5707490" lon="-4.2788270">
        <ele>496.2</ele>
        <time>2021-12-28T13:34:23Z</time>
      </trkpt>
      <trkpt lat="37.5707490" lon="-4.2788680">
        <ele>496.2</ele>
        <time>2021-12-28T13:34:24Z</time>
      </trkpt>
      <trkpt lat="37.5707490" lon="-4.2789080">
        <ele>496.4</ele>
        <time>2021-12-28T13:34:25Z</time>
      </trkpt>
      <trkpt lat="37.5707420" lon="-4.2789500">
        <ele>496.4</ele>
        <time>2021-12-28T13:34:26Z</time>
      </trkpt>
      <trkpt lat="37.5707390" lon="-4.2789880">
        <ele>496.4</ele>
        <time>2021-12-28T13:34:27Z</time>
      </trkpt>
      <trkpt lat="37.5707390" lon="-4.2790260">
        <ele>496.4</ele>
        <time>2021-12-28T13:34:28Z</time>
      </trkpt>
      <trkpt lat="37.5707360" lon="-4.2790630">
        <ele>496.6</ele>
        <time>2021-12-28T13:34:29Z</time>
      </trkpt>
      <trkpt lat="37.5707300" lon="-4.2790950">
        <ele>496.6</ele>
        <time>2021-12-28T13:34:30Z</time>
      </trkpt>
      <trkpt lat="37.5707230" lon="-4.2791280">
        <ele>496.8</ele>
        <time>2021-12-28T13:34:31Z</time>
      </trkpt>
      <trkpt lat="37.5707200" lon="-4.2791620">
        <ele>496.8</ele>
        <time>2021-12-28T13:34:32Z</time>
      </trkpt>
      <trkpt lat="37.5707170" lon="-4.2791970">
        <ele>496.8</ele>
        <time>2021-12-28T13:34:33Z</time>
      </trkpt>
      <trkpt lat="37.5707170" lon="-4.2792320">
        <ele>496.8</ele>
        <time>2021-12-28T13:34:34Z</time>
      </trkpt>
      <trkpt lat="37.5707170" lon="-4.2792640">
        <ele>496.8</ele>
        <time>2021-12-28T13:34:35Z</time>
      </trkpt>
      <trkpt lat="37.5707140" lon="-4.2792940">
        <ele>497.0</ele>
        <time>2021-12-28T13:34:36Z</time>
      </trkpt>
      <trkpt lat="37.5707100" lon="-4.2793200">
        <ele>497.0</ele>
        <time>2021-12-28T13:34:37Z</time>
      </trkpt>
      <trkpt lat="37.5707100" lon="-4.2793480">
        <ele>497.0</ele>
        <time>2021-12-28T13:34:38Z</time>
      </trkpt>
      <trkpt lat="37.5707040" lon="-4.2793750">
        <ele>497.0</ele>
        <time>2021-12-28T13:34:39Z</time>
      </trkpt>
      <trkpt lat="37.5707040" lon="-4.2794030">
        <ele>497.0</ele>
        <time>2021-12-28T13:34:40Z</time>
      </trkpt>
      <trkpt lat="37.5707040" lon="-4.2794300">
        <ele>497.0</ele>
        <time>2021-12-28T13:34:41Z</time>
      </trkpt>
      <trkpt lat="37.5707040" lon="-4.2794580">
        <ele>497.0</ele>
        <time>2021-12-28T13:34:42Z</time>
      </trkpt>
      <trkpt lat="37.5707100" lon="-4.2794880">
        <ele>497.0</ele>
        <time>2021-12-28T13:34:43Z</time>
      </trkpt>
      <trkpt lat="37.5707100" lon="-4.2795170">
        <ele>497.0</ele>
        <time>2021-12-28T13:34:44Z</time>
      </trkpt>
      <trkpt lat="37.5707100" lon="-4.2795450">
        <ele>497.2</ele>
        <time>2021-12-28T13:34:45Z</time>
      </trkpt>
      <trkpt lat="37.5707100" lon="-4.2795750">
        <ele>497.2</ele>
        <time>2021-12-28T13:34:46Z</time>
      </trkpt>
      <trkpt lat="37.5707100" lon="-4.2796050">
        <ele>497.2</ele>
        <time>2021-12-28T13:34:47Z</time>
      </trkpt>
      <trkpt lat="37.5707100" lon="-4.2796350">
        <ele>497.4</ele>
        <time>2021-12-28T13:34:48Z</time>
      </trkpt>
      <trkpt lat="37.5707100" lon="-4.2796650">
        <ele>497.4</ele>
        <time>2021-12-28T13:34:49Z</time>
      </trkpt>
      <trkpt lat="37.5707040" lon="-4.2796950">
        <ele>497.4</ele>
        <time>2021-12-28T13:34:50Z</time>
      </trkpt>
      <trkpt lat="37.5707010" lon="-4.2797250">
        <ele>497.6</ele>
        <time>2021-12-28T13:34:51Z</time>
      </trkpt>
      <trkpt lat="37.5707010" lon="-4.2797560">
        <ele>497.6</ele>
        <time>2021-12-28T13:34:52Z</time>
      </trkpt>
      <trkpt lat="37.5707010" lon="-4.2797850">
        <ele>497.8</ele>
        <time>2021-12-28T13:34:53Z</time>
      </trkpt>
      <trkpt lat="37.5707010" lon="-4.2798130">
        <ele>497.8</ele>
        <time>2021-12-28T13:34:54Z</time>
      </trkpt>
      <trkpt lat="37.5707040" lon="-4.2798430">
        <ele>497.8</ele>
        <time>2021-12-28T13:34:55Z</time>
      </trkpt>
      <trkpt lat="37.5707010" lon="-4.2798720">
        <ele>497.8</ele>
        <time>2021-12-28T13:34:56Z</time>
      </trkpt>
      <trkpt lat="37.5707010" lon="-4.2799020">
        <ele>498.0</ele>
        <time>2021-12-28T13:34:57Z</time>
      </trkpt>
      <trkpt lat="37.5707010" lon="-4.2799280">
        <ele>498.0</ele>
        <time>2021-12-28T13:34:58Z</time>
      </trkpt>
      <trkpt lat="37.5707010" lon="-4.2799540">
        <ele>498.0</ele>
        <time>2021-12-28T13:34:59Z</time>
      </trkpt>
      <trkpt lat="37.5707010" lon="-4.2799800">
        <ele>498.2</ele>
        <time>2021-12-28T13:35:00Z</time>
      </trkpt>
      <trkpt lat="37.5707010" lon="-4.2800080">
        <ele>498.2</ele>
        <time>2021-12-28T13:35:01Z</time>
      </trkpt>
      <trkpt lat="37.5707010" lon="-4.2800330">
        <ele>498.2</ele>
        <time>2021-12-28T13:35:02Z</time>
      </trkpt>
      <trkpt lat="37.5707040" lon="-4.2800600">
        <ele>498.4</ele>
        <time>2021-12-28T13:35:03Z</time>
      </trkpt>
      <trkpt lat="37.5707100" lon="-4.2800880">
        <ele>498.4</ele>
        <time>2021-12-28T13:35:04Z</time>
      </trkpt>
      <trkpt lat="37.5707140" lon="-4.2801180">
        <ele>498.4</ele>
        <time>2021-12-28T13:35:05Z</time>
      </trkpt>
      <trkpt lat="37.5707140" lon="-4.2801480">
        <ele>498.4</ele>
        <time>2021-12-28T13:35:06Z</time>
      </trkpt>
      <trkpt lat="37.5707140" lon="-4.2801770">
        <ele>498.4</ele>
        <time>2021-12-28T13:35:07Z</time>
      </trkpt>
      <trkpt lat="37.5707140" lon="-4.2802030">
        <ele>498.4</ele>
        <time>2021-12-28T13:35:08Z</time>
      </trkpt>
      <trkpt lat="37.5707140" lon="-4.2802300">
        <ele>498.4</ele>
        <time>2021-12-28T13:35:09Z</time>
      </trkpt>
      <trkpt lat="37.5707100" lon="-4.2802540">
        <ele>498.4</ele>
        <time>2021-12-28T13:35:10Z</time>
      </trkpt>
      <trkpt lat="37.5707100" lon="-4.2802770">
        <ele>498.6</ele>
        <time>2021-12-28T13:35:11Z</time>
      </trkpt>
      <trkpt lat="37.5707040" lon="-4.2802980">
        <ele>498.8</ele>
        <time>2021-12-28T13:35:12Z</time>
      </trkpt>
      <trkpt lat="37.5707040" lon="-4.2802980">
        <ele>499.0</ele>
        <time>2021-12-28T13:35:13Z</time>
      </trkpt>
      <trkpt lat="37.5707040" lon="-4.2803630">
        <ele>499.2</ele>
        <time>2021-12-28T13:35:14Z</time>
      </trkpt>
      <trkpt lat="37.5707040" lon="-4.2803780">
        <ele>499.2</ele>
        <time>2021-12-28T13:35:15Z</time>
      </trkpt>
      <trkpt lat="37.5707040" lon="-4.2804120">
        <ele>499.4</ele>
        <time>2021-12-28T13:35:16Z</time>
      </trkpt>
      <trkpt lat="37.5707040" lon="-4.2804500">
        <ele>499.6</ele>
        <time>2021-12-28T13:35:17Z</time>
      </trkpt>
      <trkpt lat="37.5707040" lon="-4.2804920">
        <ele>499.8</ele>
        <time>2021-12-28T13:35:18Z</time>
      </trkpt>
      <trkpt lat="37.5707100" lon="-4.2805350">
        <ele>500.0</ele>
        <time>2021-12-28T13:35:19Z</time>
      </trkpt>
      <trkpt lat="37.5707140" lon="-4.2805780">
        <ele>500.2</ele>
        <time>2021-12-28T13:35:20Z</time>
      </trkpt>
      <trkpt lat="37.5707170" lon="-4.2806180">
        <ele>500.4</ele>
        <time>2021-12-28T13:35:21Z</time>
      </trkpt>
      <trkpt lat="37.5707170" lon="-4.2806570">
        <ele>500.6</ele>
        <time>2021-12-28T13:35:22Z</time>
      </trkpt>
      <trkpt lat="37.5707170" lon="-4.2806920">
        <ele>500.6</ele>
        <time>2021-12-28T13:35:23Z</time>
      </trkpt>
      <trkpt lat="37.5707170" lon="-4.2807250">
        <ele>500.8</ele>
        <time>2021-12-28T13:35:24Z</time>
      </trkpt>
      <trkpt lat="37.5707170" lon="-4.2807620">
        <ele>500.8</ele>
        <time>2021-12-28T13:35:25Z</time>
      </trkpt>
      <trkpt lat="37.5707170" lon="-4.2807950">
        <ele>501.0</ele>
        <time>2021-12-28T13:35:26Z</time>
      </trkpt>
      <trkpt lat="37.5707170" lon="-4.2808330">
        <ele>501.0</ele>
        <time>2021-12-28T13:35:27Z</time>
      </trkpt>
      <trkpt lat="37.5707170" lon="-4.2808670">
        <ele>501.2</ele>
        <time>2021-12-28T13:35:28Z</time>
      </trkpt>
      <trkpt lat="37.5707200" lon="-4.2809000">
        <ele>501.2</ele>
        <time>2021-12-28T13:35:29Z</time>
      </trkpt>
      <trkpt lat="37.5707200" lon="-4.2809350">
        <ele>501.4</ele>
        <time>2021-12-28T13:35:30Z</time>
      </trkpt>
      <trkpt lat="37.5707200" lon="-4.2809700">
        <ele>501.4</ele>
        <time>2021-12-28T13:35:31Z</time>
      </trkpt>
      <trkpt lat="37.5707200" lon="-4.2810050">
        <ele>501.4</ele>
        <time>2021-12-28T13:35:32Z</time>
      </trkpt>
      <trkpt lat="37.5707300" lon="-4.2810420">
        <ele>501.6</ele>
        <time>2021-12-28T13:35:33Z</time>
      </trkpt>
      <trkpt lat="37.5707300" lon="-4.2810780">
        <ele>501.6</ele>
        <time>2021-12-28T13:35:34Z</time>
      </trkpt>
      <trkpt lat="37.5707300" lon="-4.2811200">
        <ele>501.6</ele>
        <time>2021-12-28T13:35:35Z</time>
      </trkpt>
      <trkpt lat="37.5707230" lon="-4.2811560">
        <ele>501.8</ele>
        <time>2021-12-28T13:35:36Z</time>
      </trkpt>
      <trkpt lat="37.5707230" lon="-4.2811950">
        <ele>501.8</ele>
        <time>2021-12-28T13:35:37Z</time>
      </trkpt>
      <trkpt lat="37.5707230" lon="-4.2812300">
        <ele>501.8</ele>
        <time>2021-12-28T13:35:38Z</time>
      </trkpt>
      <trkpt lat="37.5707300" lon="-4.2812670">
        <ele>501.8</ele>
        <time>2021-12-28T13:35:39Z</time>
      </trkpt>
      <trkpt lat="37.5707300" lon="-4.2813040">
        <ele>502.0</ele>
        <time>2021-12-28T13:35:40Z</time>
      </trkpt>
      <trkpt lat="37.5707300" lon="-4.2813380">
        <ele>502.0</ele>
        <time>2021-12-28T13:35:41Z</time>
      </trkpt>
      <trkpt lat="37.5707300" lon="-4.2813780">
        <ele>501.8</ele>
        <time>2021-12-28T13:35:42Z</time>
      </trkpt>
      <trkpt lat="37.5707300" lon="-4.2814150">
        <ele>501.8</ele>
        <time>2021-12-28T13:35:43Z</time>
      </trkpt>
      <trkpt lat="37.5707330" lon="-4.2814520">
        <ele>501.8</ele>
        <time>2021-12-28T13:35:44Z</time>
      </trkpt>
      <trkpt lat="37.5707330" lon="-4.2814880">
        <ele>501.8</ele>
        <time>2021-12-28T13:35:45Z</time>
      </trkpt>
      <trkpt lat="37.5707300" lon="-4.2815250">
        <ele>501.8</ele>
        <time>2021-12-28T13:35:46Z</time>
      </trkpt>
      <trkpt lat="37.5707300" lon="-4.2815620">
        <ele>501.8</ele>
        <time>2021-12-28T13:35:47Z</time>
      </trkpt>
      <trkpt lat="37.5707300" lon="-4.2815930">
        <ele>501.8</ele>
        <time>2021-12-28T13:35:48Z</time>
      </trkpt>
      <trkpt lat="37.5707300" lon="-4.2816250">
        <ele>501.8</ele>
        <time>2021-12-28T13:35:49Z</time>
      </trkpt>
      <trkpt lat="37.5707300" lon="-4.2816580">
        <ele>501.8</ele>
        <time>2021-12-28T13:35:50Z</time>
      </trkpt>
      <trkpt lat="37.5707300" lon="-4.2816920">
        <ele>501.8</ele>
        <time>2021-12-28T13:35:51Z</time>
      </trkpt>
      <trkpt lat="37.5707230" lon="-4.2817250">
        <ele>501.8</ele>
        <time>2021-12-28T13:35:52Z</time>
      </trkpt>
      <trkpt lat="37.5707230" lon="-4.2817600">
        <ele>502.0</ele>
        <time>2021-12-28T13:35:53Z</time>
      </trkpt>
      <trkpt lat="37.5707300" lon="-4.2817950">
        <ele>502.0</ele>
        <time>2021-12-28T13:35:54Z</time>
      </trkpt>
      <trkpt lat="37.5707300" lon="-4.2818260">
        <ele>502.0</ele>
        <time>2021-12-28T13:35:55Z</time>
      </trkpt>
      <trkpt lat="37.5707330" lon="-4.2818580">
        <ele>502.0</ele>
        <time>2021-12-28T13:35:56Z</time>
      </trkpt>
      <trkpt lat="37.5707330" lon="-4.2818900">
        <ele>502.0</ele>
        <time>2021-12-28T13:35:57Z</time>
      </trkpt>
      <trkpt lat="37.5707330" lon="-4.2819250">
        <ele>502.0</ele>
        <time>2021-12-28T13:35:58Z</time>
      </trkpt>
      <trkpt lat="37.5707300" lon="-4.2819600">
        <ele>502.0</ele>
        <time>2021-12-28T13:35:59Z</time>
      </trkpt>
      <trkpt lat="37.5707300" lon="-4.2819950">
        <ele>502.2</ele>
        <time>2021-12-28T13:36:00Z</time>
      </trkpt>
      <trkpt lat="37.5707300" lon="-4.2820320">
        <ele>502.2</ele>
        <time>2021-12-28T13:36:01Z</time>
      </trkpt>
      <trkpt lat="37.5707300" lon="-4.2820670">
        <ele>502.2</ele>
        <time>2021-12-28T13:36:02Z</time>
      </trkpt>
      <trkpt lat="37.5707300" lon="-4.2821020">
        <ele>502.2</ele>
        <time>2021-12-28T13:36:03Z</time>
      </trkpt>
      <trkpt lat="37.5707300" lon="-4.2821380">
        <ele>502.2</ele>
        <time>2021-12-28T13:36:04Z</time>
      </trkpt>
      <trkpt lat="37.5707300" lon="-4.2821760">
        <ele>502.2</ele>
        <time>2021-12-28T13:36:05Z</time>
      </trkpt>
      <trkpt lat="37.5707300" lon="-4.2822120">
        <ele>502.2</ele>
        <time>2021-12-28T13:36:06Z</time>
      </trkpt>
      <trkpt lat="37.5707230" lon="-4.2822460">
        <ele>502.2</ele>
        <time>2021-12-28T13:36:07Z</time>
      </trkpt>
      <trkpt lat="37.5707300" lon="-4.2822780">
        <ele>502.2</ele>
        <time>2021-12-28T13:36:08Z</time>
      </trkpt>
      <trkpt lat="37.5707300" lon="-4.2823100">
        <ele>502.2</ele>
        <time>2021-12-28T13:36:09Z</time>
      </trkpt>
      <trkpt lat="37.5707300" lon="-4.2823420">
        <ele>502.4</ele>
        <time>2021-12-28T13:36:10Z</time>
      </trkpt>
      <trkpt lat="37.5707300" lon="-4.2823770">
        <ele>502.4</ele>
        <time>2021-12-28T13:36:11Z</time>
      </trkpt>
      <trkpt lat="37.5707300" lon="-4.2824080">
        <ele>502.4</ele>
        <time>2021-12-28T13:36:12Z</time>
      </trkpt>
      <trkpt lat="37.5707300" lon="-4.2824420">
        <ele>502.4</ele>
        <time>2021-12-28T13:36:13Z</time>
      </trkpt>
      <trkpt lat="37.5707300" lon="-4.2824750">
        <ele>502.4</ele>
        <time>2021-12-28T13:36:14Z</time>
      </trkpt>
      <trkpt lat="37.5707300" lon="-4.2825080">
        <ele>502.4</ele>
        <time>2021-12-28T13:36:15Z</time>
      </trkpt>
      <trkpt lat="37.5707300" lon="-4.2825420">
        <ele>502.4</ele>
        <time>2021-12-28T13:36:16Z</time>
      </trkpt>
      <trkpt lat="37.5707300" lon="-4.2825760">
        <ele>502.4</ele>
        <time>2021-12-28T13:36:17Z</time>
      </trkpt>
      <trkpt lat="37.5707300" lon="-4.2826100">
        <ele>502.4</ele>
        <time>2021-12-28T13:36:18Z</time>
      </trkpt>
      <trkpt lat="37.5707300" lon="-4.2826470">
        <ele>502.4</ele>
        <time>2021-12-28T13:36:19Z</time>
      </trkpt>
      <trkpt lat="37.5707300" lon="-4.2826820">
        <ele>502.6</ele>
        <time>2021-12-28T13:36:20Z</time>
      </trkpt>
      <trkpt lat="37.5707300" lon="-4.2827150">
        <ele>502.6</ele>
        <time>2021-12-28T13:36:21Z</time>
      </trkpt>
      <trkpt lat="37.5707330" lon="-4.2827500">
        <ele>502.6</ele>
        <time>2021-12-28T13:36:22Z</time>
      </trkpt>
      <trkpt lat="37.5707330" lon="-4.2827870">
        <ele>502.6</ele>
        <time>2021-12-28T13:36:23Z</time>
      </trkpt>
      <trkpt lat="37.5707360" lon="-4.2828240">
        <ele>502.6</ele>
        <time>2021-12-28T13:36:24Z</time>
      </trkpt>
      <trkpt lat="37.5707360" lon="-4.2828600">
        <ele>502.8</ele>
        <time>2021-12-28T13:36:25Z</time>
      </trkpt>
      <trkpt lat="37.5707360" lon="-4.2828960">
        <ele>502.8</ele>
        <time>2021-12-28T13:36:26Z</time>
      </trkpt>
      <trkpt lat="37.5707360" lon="-4.2829320">
        <ele>502.8</ele>
        <time>2021-12-28T13:36:27Z</time>
      </trkpt>
      <trkpt lat="37.5707390" lon="-4.2829680">
        <ele>502.8</ele>
        <time>2021-12-28T13:36:28Z</time>
      </trkpt>
      <trkpt lat="37.5707420" lon="-4.2830030">
        <ele>503.0</ele>
        <time>2021-12-28T13:36:29Z</time>
      </trkpt>
      <trkpt lat="37.5707420" lon="-4.2830380">
        <ele>503.0</ele>
        <time>2021-12-28T13:36:30Z</time>
      </trkpt>
      <trkpt lat="37.5707420" lon="-4.2830700">
        <ele>503.2</ele>
        <time>2021-12-28T13:36:31Z</time>
      </trkpt>
      <trkpt lat="37.5707390" lon="-4.2831020">
        <ele>503.2</ele>
        <time>2021-12-28T13:36:32Z</time>
      </trkpt>
      <trkpt lat="37.5707360" lon="-4.2831340">
        <ele>503.2</ele>
        <time>2021-12-28T13:36:33Z</time>
      </trkpt>
      <trkpt lat="37.5707390" lon="-4.2831650">
        <ele>503.2</ele>
        <time>2021-12-28T13:36:34Z</time>
      </trkpt>
      <trkpt lat="37.5707390" lon="-4.2831950">
        <ele>503.2</ele>
        <time>2021-12-28T13:36:35Z</time>
      </trkpt>
      <trkpt lat="37.5707390" lon="-4.2832260">
        <ele>503.2</ele>
        <time>2021-12-28T13:36:36Z</time>
      </trkpt>
      <trkpt lat="37.5707490" lon="-4.2832560">
        <ele>503.2</ele>
        <time>2021-12-28T13:36:37Z</time>
      </trkpt>
      <trkpt lat="37.5707490" lon="-4.2832900">
        <ele>503.2</ele>
        <time>2021-12-28T13:36:38Z</time>
      </trkpt>
      <trkpt lat="37.5707420" lon="-4.2833250">
        <ele>503.0</ele>
        <time>2021-12-28T13:36:39Z</time>
      </trkpt>
      <trkpt lat="37.5707390" lon="-4.2833570">
        <ele>503.0</ele>
        <time>2021-12-28T13:36:40Z</time>
      </trkpt>
      <trkpt lat="37.5707390" lon="-4.2833900">
        <ele>503.0</ele>
        <time>2021-12-28T13:36:41Z</time>
      </trkpt>
      <trkpt lat="37.5707390" lon="-4.2834240">
        <ele>503.2</ele>
        <time>2021-12-28T13:36:42Z</time>
      </trkpt>
      <trkpt lat="37.5707390" lon="-4.2834570">
        <ele>503.2</ele>
        <time>2021-12-28T13:36:43Z</time>
      </trkpt>
      <trkpt lat="37.5707390" lon="-4.2834920">
        <ele>503.2</ele>
        <time>2021-12-28T13:36:44Z</time>
      </trkpt>
      <trkpt lat="37.5707360" lon="-4.2835240">
        <ele>503.2</ele>
        <time>2021-12-28T13:36:45Z</time>
      </trkpt>
      <trkpt lat="37.5707330" lon="-4.2835580">
        <ele>503.2</ele>
        <time>2021-12-28T13:36:46Z</time>
      </trkpt>
      <trkpt lat="37.5707330" lon="-4.2835900">
        <ele>503.2</ele>
        <time>2021-12-28T13:36:47Z</time>
      </trkpt>
      <trkpt lat="37.5707360" lon="-4.2836220">
        <ele>503.2</ele>
        <time>2021-12-28T13:36:48Z</time>
      </trkpt>
      <trkpt lat="37.5707390" lon="-4.2836530">
        <ele>503.2</ele>
        <time>2021-12-28T13:36:49Z</time>
      </trkpt>
      <trkpt lat="37.5707390" lon="-4.2836850">
        <ele>503.2</ele>
        <time>2021-12-28T13:36:50Z</time>
      </trkpt>
      <trkpt lat="37.5707390" lon="-4.2837170">
        <ele>503.2</ele>
        <time>2021-12-28T13:36:51Z</time>
      </trkpt>
      <trkpt lat="37.5707420" lon="-4.2837470">
        <ele>503.2</ele>
        <time>2021-12-28T13:36:52Z</time>
      </trkpt>
      <trkpt lat="37.5707490" lon="-4.2837800">
        <ele>503.4</ele>
        <time>2021-12-28T13:36:53Z</time>
      </trkpt>
      <trkpt lat="37.5707420" lon="-4.2838150">
        <ele>503.4</ele>
        <time>2021-12-28T13:36:54Z</time>
      </trkpt>
      <trkpt lat="37.5707390" lon="-4.2838500">
        <ele>503.4</ele>
        <time>2021-12-28T13:36:55Z</time>
      </trkpt>
      <trkpt lat="37.5707390" lon="-4.2838830">
        <ele>503.6</ele>
        <time>2021-12-28T13:36:56Z</time>
      </trkpt>
      <trkpt lat="37.5707390" lon="-4.2839160">
        <ele>503.6</ele>
        <time>2021-12-28T13:36:57Z</time>
      </trkpt>
      <trkpt lat="37.5707390" lon="-4.2839500">
        <ele>503.6</ele>
        <time>2021-12-28T13:36:58Z</time>
      </trkpt>
      <trkpt lat="37.5707420" lon="-4.2839850">
        <ele>503.6</ele>
        <time>2021-12-28T13:36:59Z</time>
      </trkpt>
      <trkpt lat="37.5707390" lon="-4.2840200">
        <ele>503.6</ele>
        <time>2021-12-28T13:37:00Z</time>
      </trkpt>
      <trkpt lat="37.5707390" lon="-4.2840530">
        <ele>503.6</ele>
        <time>2021-12-28T13:37:01Z</time>
      </trkpt>
      <trkpt lat="37.5707360" lon="-4.2840870">
        <ele>503.6</ele>
        <time>2021-12-28T13:37:02Z</time>
      </trkpt>
      <trkpt lat="37.5707360" lon="-4.2841250">
        <ele>503.6</ele>
        <time>2021-12-28T13:37:03Z</time>
      </trkpt>
      <trkpt lat="37.5707360" lon="-4.2841600">
        <ele>503.6</ele>
        <time>2021-12-28T13:37:04Z</time>
      </trkpt>
      <trkpt lat="37.5707360" lon="-4.2841920">
        <ele>503.6</ele>
        <time>2021-12-28T13:37:05Z</time>
      </trkpt>
      <trkpt lat="37.5707360" lon="-4.2842240">
        <ele>503.8</ele>
        <time>2021-12-28T13:37:06Z</time>
      </trkpt>
      <trkpt lat="37.5707360" lon="-4.2842560">
        <ele>503.8</ele>
        <time>2021-12-28T13:37:07Z</time>
      </trkpt>
      <trkpt lat="37.5707360" lon="-4.2842900">
        <ele>504.0</ele>
        <time>2021-12-28T13:37:08Z</time>
      </trkpt>
      <trkpt lat="37.5707360" lon="-4.2843220">
        <ele>504.0</ele>
        <time>2021-12-28T13:37:09Z</time>
      </trkpt>
      <trkpt lat="37.5707360" lon="-4.2843550">
        <ele>504.0</ele>
        <time>2021-12-28T13:37:10Z</time>
      </trkpt>
      <trkpt lat="37.5707360" lon="-4.2843900">
        <ele>504.0</ele>
        <time>2021-12-28T13:37:11Z</time>
      </trkpt>
      <trkpt lat="37.5707360" lon="-4.2844230">
        <ele>504.0</ele>
        <time>2021-12-28T13:37:12Z</time>
      </trkpt>
      <trkpt lat="37.5707360" lon="-4.2844570">
        <ele>504.0</ele>
        <time>2021-12-28T13:37:13Z</time>
      </trkpt>
      <trkpt lat="37.5707330" lon="-4.2844920">
        <ele>504.0</ele>
        <time>2021-12-28T13:37:14Z</time>
      </trkpt>
      <trkpt lat="37.5707360" lon="-4.2845250">
        <ele>504.0</ele>
        <time>2021-12-28T13:37:15Z</time>
      </trkpt>
      <trkpt lat="37.5707390" lon="-4.2845570">
        <ele>504.0</ele>
        <time>2021-12-28T13:37:16Z</time>
      </trkpt>
      <trkpt lat="37.5707390" lon="-4.2845920">
        <ele>504.0</ele>
        <time>2021-12-28T13:37:17Z</time>
      </trkpt>
      <trkpt lat="37.5707390" lon="-4.2846250">
        <ele>504.0</ele>
        <time>2021-12-28T13:37:18Z</time>
      </trkpt>
      <trkpt lat="37.5707390" lon="-4.2846580">
        <ele>504.2</ele>
        <time>2021-12-28T13:37:19Z</time>
      </trkpt>
      <trkpt lat="37.5707390" lon="-4.2846920">
        <ele>504.2</ele>
        <time>2021-12-28T13:37:20Z</time>
      </trkpt>
      <trkpt lat="37.5707360" lon="-4.2847270">
        <ele>504.4</ele>
        <time>2021-12-28T13:37:21Z</time>
      </trkpt>
      <trkpt lat="37.5707360" lon="-4.2847620">
        <ele>504.4</ele>
        <time>2021-12-28T13:37:22Z</time>
      </trkpt>
      <trkpt lat="37.5707360" lon="-4.2847950">
        <ele>504.4</ele>
        <time>2021-12-28T13:37:23Z</time>
      </trkpt>
      <trkpt lat="37.5707360" lon="-4.2848270">
        <ele>504.6</ele>
        <time>2021-12-28T13:37:24Z</time>
      </trkpt>
      <trkpt lat="37.5707360" lon="-4.2848600">
        <ele>504.6</ele>
        <time>2021-12-28T13:37:25Z</time>
      </trkpt>
      <trkpt lat="37.5707330" lon="-4.2848940">
        <ele>504.6</ele>
        <time>2021-12-28T13:37:26Z</time>
      </trkpt>
      <trkpt lat="37.5707330" lon="-4.2849300">
        <ele>504.8</ele>
        <time>2021-12-28T13:37:27Z</time>
      </trkpt>
      <trkpt lat="37.5707330" lon="-4.2849650">
        <ele>504.8</ele>
        <time>2021-12-28T13:37:28Z</time>
      </trkpt>
      <trkpt lat="37.5707300" lon="-4.2849980">
        <ele>504.8</ele>
        <time>2021-12-28T13:37:29Z</time>
      </trkpt>
      <trkpt lat="37.5707300" lon="-4.2850330">
        <ele>504.8</ele>
        <time>2021-12-28T13:37:30Z</time>
      </trkpt>
      <trkpt lat="37.5707300" lon="-4.2850650">
        <ele>504.8</ele>
        <time>2021-12-28T13:37:31Z</time>
      </trkpt>
      <trkpt lat="37.5707300" lon="-4.2850970">
        <ele>504.8</ele>
        <time>2021-12-28T13:37:32Z</time>
      </trkpt>
      <trkpt lat="37.5707300" lon="-4.2851250">
        <ele>504.8</ele>
        <time>2021-12-28T13:37:33Z</time>
      </trkpt>
      <trkpt lat="37.5707300" lon="-4.2851480">
        <ele>504.8</ele>
        <time>2021-12-28T13:37:34Z</time>
      </trkpt>
      <trkpt lat="37.5707300" lon="-4.2851480">
        <ele>504.8</ele>
        <time>2021-12-28T13:37:35Z</time>
      </trkpt>
      <trkpt lat="37.5707230" lon="-4.2851900">
        <ele>505.0</ele>
        <time>2021-12-28T13:37:36Z</time>
      </trkpt>
      <trkpt lat="37.5707230" lon="-4.2851900">
        <ele>505.0</ele>
        <time>2021-12-28T13:37:37Z</time>
      </trkpt>
      <trkpt lat="37.5707170" lon="-4.2852370">
        <ele>505.0</ele>
        <time>2021-12-28T13:37:38Z</time>
      </trkpt>
      <trkpt lat="37.5707200" lon="-4.2852600">
        <ele>505.0</ele>
        <time>2021-12-28T13:37:39Z</time>
      </trkpt>
      <trkpt lat="37.5707200" lon="-4.2852600">
        <ele>505.0</ele>
        <time>2021-12-28T13:37:40Z</time>
      </trkpt>
      <trkpt lat="37.5707170" lon="-4.2853030">
        <ele>505.0</ele>
        <time>2021-12-28T13:37:41Z</time>
      </trkpt>
      <trkpt lat="37.5707170" lon="-4.2853320">
        <ele>505.0</ele>
        <time>2021-12-28T13:37:42Z</time>
      </trkpt>
      <trkpt lat="37.5707170" lon="-4.2853620">
        <ele>505.0</ele>
        <time>2021-12-28T13:37:43Z</time>
      </trkpt>
      <trkpt lat="37.5707170" lon="-4.2853920">
        <ele>505.0</ele>
        <time>2021-12-28T13:37:44Z</time>
      </trkpt>
      <trkpt lat="37.5707170" lon="-4.2854200">
        <ele>505.2</ele>
        <time>2021-12-28T13:37:45Z</time>
      </trkpt>
      <trkpt lat="37.5707140" lon="-4.2854470">
        <ele>505.2</ele>
        <time>2021-12-28T13:37:46Z</time>
      </trkpt>
      <trkpt lat="37.5707140" lon="-4.2854720">
        <ele>505.2</ele>
        <time>2021-12-28T13:37:47Z</time>
      </trkpt>
      <trkpt lat="37.5707100" lon="-4.2855000">
        <ele>505.2</ele>
        <time>2021-12-28T13:37:48Z</time>
      </trkpt>
      <trkpt lat="37.5707040" lon="-4.2855280">
        <ele>505.2</ele>
        <time>2021-12-28T13:37:49Z</time>
      </trkpt>
      <trkpt lat="37.5707010" lon="-4.2855600">
        <ele>505.4</ele>
        <time>2021-12-28T13:37:50Z</time>
      </trkpt>
      <trkpt lat="37.5706980" lon="-4.2855900">
        <ele>505.4</ele>
        <time>2021-12-28T13:37:51Z</time>
      </trkpt>
      <trkpt lat="37.5706940" lon="-4.2856170">
        <ele>505.4</ele>
        <time>2021-12-28T13:37:52Z</time>
      </trkpt>
      <trkpt lat="37.5706910" lon="-4.2856450">
        <ele>505.4</ele>
        <time>2021-12-28T13:37:53Z</time>
      </trkpt>
      <trkpt lat="37.5706910" lon="-4.2856720">
        <ele>505.6</ele>
        <time>2021-12-28T13:37:54Z</time>
      </trkpt>
      <trkpt lat="37.5706850" lon="-4.2857030">
        <ele>505.6</ele>
        <time>2021-12-28T13:37:55Z</time>
      </trkpt>
      <trkpt lat="37.5706820" lon="-4.2857330">
        <ele>505.6</ele>
        <time>2021-12-28T13:37:56Z</time>
      </trkpt>
      <trkpt lat="37.5706780" lon="-4.2857680">
        <ele>505.6</ele>
        <time>2021-12-28T13:37:57Z</time>
      </trkpt>
      <trkpt lat="37.5706750" lon="-4.2858000">
        <ele>505.8</ele>
        <time>2021-12-28T13:37:58Z</time>
      </trkpt>
      <trkpt lat="37.5706750" lon="-4.2858320">
        <ele>506.0</ele>
        <time>2021-12-28T13:37:59Z</time>
      </trkpt>
      <trkpt lat="37.5706750" lon="-4.2858580">
        <ele>506.0</ele>
        <time>2021-12-28T13:38:00Z</time>
      </trkpt>
      <trkpt lat="37.5706720" lon="-4.2858870">
        <ele>506.2</ele>
        <time>2021-12-28T13:38:01Z</time>
      </trkpt>
      <trkpt lat="37.5706720" lon="-4.2859170">
        <ele>506.2</ele>
        <time>2021-12-28T13:38:02Z</time>
      </trkpt>
      <trkpt lat="37.5706690" lon="-4.2859470">
        <ele>506.4</ele>
        <time>2021-12-28T13:38:03Z</time>
      </trkpt>
      <trkpt lat="37.5706620" lon="-4.2859750">
        <ele>506.4</ele>
        <time>2021-12-28T13:38:04Z</time>
      </trkpt>
      <trkpt lat="37.5706620" lon="-4.2860050">
        <ele>506.6</ele>
        <time>2021-12-28T13:38:05Z</time>
      </trkpt>
      <trkpt lat="37.5706590" lon="-4.2860330">
        <ele>506.6</ele>
        <time>2021-12-28T13:38:06Z</time>
      </trkpt>
      <trkpt lat="37.5706560" lon="-4.2860630">
        <ele>506.8</ele>
        <time>2021-12-28T13:38:07Z</time>
      </trkpt>
      <trkpt lat="37.5706560" lon="-4.2860930">
        <ele>506.8</ele>
        <time>2021-12-28T13:38:08Z</time>
      </trkpt>
      <trkpt lat="37.5706530" lon="-4.2861230">
        <ele>506.8</ele>
        <time>2021-12-28T13:38:09Z</time>
      </trkpt>
      <trkpt lat="37.5706500" lon="-4.2861550">
        <ele>507.0</ele>
        <time>2021-12-28T13:38:10Z</time>
      </trkpt>
      <trkpt lat="37.5706500" lon="-4.2861850">
        <ele>507.0</ele>
        <time>2021-12-28T13:38:11Z</time>
      </trkpt>
      <trkpt lat="37.5706400" lon="-4.2862150">
        <ele>507.0</ele>
        <time>2021-12-28T13:38:12Z</time>
      </trkpt>
      <trkpt lat="37.5706370" lon="-4.2862450">
        <ele>507.0</ele>
        <time>2021-12-28T13:38:13Z</time>
      </trkpt>
      <trkpt lat="37.5706370" lon="-4.2862770">
        <ele>507.2</ele>
        <time>2021-12-28T13:38:14Z</time>
      </trkpt>
      <trkpt lat="37.5706340" lon="-4.2863070">
        <ele>507.2</ele>
        <time>2021-12-28T13:38:15Z</time>
      </trkpt>
      <trkpt lat="37.5706300" lon="-4.2863400">
        <ele>507.2</ele>
        <time>2021-12-28T13:38:16Z</time>
      </trkpt>
      <trkpt lat="37.5706240" lon="-4.2863680">
        <ele>507.4</ele>
        <time>2021-12-28T13:38:17Z</time>
      </trkpt>
      <trkpt lat="37.5706210" lon="-4.2863960">
        <ele>507.4</ele>
        <time>2021-12-28T13:38:18Z</time>
      </trkpt>
      <trkpt lat="37.5706180" lon="-4.2864260">
        <ele>507.6</ele>
        <time>2021-12-28T13:38:19Z</time>
      </trkpt>
      <trkpt lat="37.5706140" lon="-4.2864560">
        <ele>507.6</ele>
        <time>2021-12-28T13:38:20Z</time>
      </trkpt>
      <trkpt lat="37.5706050" lon="-4.2864870">
        <ele>507.6</ele>
        <time>2021-12-28T13:38:21Z</time>
      </trkpt>
      <trkpt lat="37.5705980" lon="-4.2865150">
        <ele>507.6</ele>
        <time>2021-12-28T13:38:22Z</time>
      </trkpt>
      <trkpt lat="37.5705950" lon="-4.2865430">
        <ele>507.6</ele>
        <time>2021-12-28T13:38:23Z</time>
      </trkpt>
      <trkpt lat="37.5705920" lon="-4.2865750">
        <ele>507.6</ele>
        <time>2021-12-28T13:38:24Z</time>
      </trkpt>
      <trkpt lat="37.5705860" lon="-4.2866050">
        <ele>507.6</ele>
        <time>2021-12-28T13:38:25Z</time>
      </trkpt>
      <trkpt lat="37.5705820" lon="-4.2866370">
        <ele>507.6</ele>
        <time>2021-12-28T13:38:26Z</time>
      </trkpt>
      <trkpt lat="37.5705760" lon="-4.2866700">
        <ele>507.6</ele>
        <time>2021-12-28T13:38:27Z</time>
      </trkpt>
      <trkpt lat="37.5705730" lon="-4.2867020">
        <ele>507.6</ele>
        <time>2021-12-28T13:38:28Z</time>
      </trkpt>
      <trkpt lat="37.5705700" lon="-4.2867350">
        <ele>507.6</ele>
        <time>2021-12-28T13:38:29Z</time>
      </trkpt>
      <trkpt lat="37.5705600" lon="-4.2867700">
        <ele>507.6</ele>
        <time>2021-12-28T13:38:30Z</time>
      </trkpt>
      <trkpt lat="37.5705570" lon="-4.2868030">
        <ele>507.6</ele>
        <time>2021-12-28T13:38:31Z</time>
      </trkpt>
      <trkpt lat="37.5705570" lon="-4.2868370">
        <ele>507.6</ele>
        <time>2021-12-28T13:38:32Z</time>
      </trkpt>
      <trkpt lat="37.5705500" lon="-4.2868680">
        <ele>507.8</ele>
        <time>2021-12-28T13:38:33Z</time>
      </trkpt>
      <trkpt lat="37.5705440" lon="-4.2869000">
        <ele>507.8</ele>
        <time>2021-12-28T13:38:34Z</time>
      </trkpt>
      <trkpt lat="37.5705380" lon="-4.2869320">
        <ele>507.8</ele>
        <time>2021-12-28T13:38:35Z</time>
      </trkpt>
      <trkpt lat="37.5705310" lon="-4.2869650">
        <ele>507.8</ele>
        <time>2021-12-28T13:38:36Z</time>
      </trkpt>
      <trkpt lat="37.5705250" lon="-4.2870000">
        <ele>507.6</ele>
        <time>2021-12-28T13:38:37Z</time>
      </trkpt>
      <trkpt lat="37.5705180" lon="-4.2870350">
        <ele>507.6</ele>
        <time>2021-12-28T13:38:38Z</time>
      </trkpt>
      <trkpt lat="37.5705120" lon="-4.2870660">
        <ele>507.6</ele>
        <time>2021-12-28T13:38:39Z</time>
      </trkpt>
      <trkpt lat="37.5705020" lon="-4.2870980">
        <ele>507.6</ele>
        <time>2021-12-28T13:38:40Z</time>
      </trkpt>
      <trkpt lat="37.5704960" lon="-4.2871300">
        <ele>507.6</ele>
        <time>2021-12-28T13:38:41Z</time>
      </trkpt>
      <trkpt lat="37.5704930" lon="-4.2871620">
        <ele>507.6</ele>
        <time>2021-12-28T13:38:42Z</time>
      </trkpt>
      <trkpt lat="37.5704860" lon="-4.2871920">
        <ele>507.6</ele>
        <time>2021-12-28T13:38:43Z</time>
      </trkpt>
      <trkpt lat="37.5704800" lon="-4.2872220">
        <ele>507.6</ele>
        <time>2021-12-28T13:38:44Z</time>
      </trkpt>
      <trkpt lat="37.5704770" lon="-4.2872500">
        <ele>507.6</ele>
        <time>2021-12-28T13:38:45Z</time>
      </trkpt>
      <trkpt lat="37.5704740" lon="-4.2872840">
        <ele>507.6</ele>
        <time>2021-12-28T13:38:46Z</time>
      </trkpt>
      <trkpt lat="37.5704700" lon="-4.2873150">
        <ele>507.6</ele>
        <time>2021-12-28T13:38:47Z</time>
      </trkpt>
      <trkpt lat="37.5704640" lon="-4.2873470">
        <ele>507.6</ele>
        <time>2021-12-28T13:38:48Z</time>
      </trkpt>
      <trkpt lat="37.5704580" lon="-4.2873780">
        <ele>507.8</ele>
        <time>2021-12-28T13:38:49Z</time>
      </trkpt>
      <trkpt lat="37.5704510" lon="-4.2874120">
        <ele>507.8</ele>
        <time>2021-12-28T13:38:50Z</time>
      </trkpt>
      <trkpt lat="37.5704450" lon="-4.2874460">
        <ele>508.0</ele>
        <time>2021-12-28T13:38:51Z</time>
      </trkpt>
      <trkpt lat="37.5704380" lon="-4.2874800">
        <ele>508.0</ele>
        <time>2021-12-28T13:38:52Z</time>
      </trkpt>
      <trkpt lat="37.5704350" lon="-4.2875150">
        <ele>508.0</ele>
        <time>2021-12-28T13:38:53Z</time>
      </trkpt>
      <trkpt lat="37.5704220" lon="-4.2875470">
        <ele>508.2</ele>
        <time>2021-12-28T13:38:54Z</time>
      </trkpt>
      <trkpt lat="37.5704190" lon="-4.2875780">
        <ele>508.2</ele>
        <time>2021-12-28T13:38:55Z</time>
      </trkpt>
      <trkpt lat="37.5704130" lon="-4.2876100">
        <ele>508.2</ele>
        <time>2021-12-28T13:38:56Z</time>
      </trkpt>
      <trkpt lat="37.5704030" lon="-4.2876440">
        <ele>508.2</ele>
        <time>2021-12-28T13:38:57Z</time>
      </trkpt>
      <trkpt lat="37.5704000" lon="-4.2876770">
        <ele>508.4</ele>
        <time>2021-12-28T13:38:58Z</time>
      </trkpt>
      <trkpt lat="37.5703940" lon="-4.2877100">
        <ele>508.4</ele>
        <time>2021-12-28T13:38:59Z</time>
      </trkpt>
      <trkpt lat="37.5703870" lon="-4.2877440">
        <ele>508.4</ele>
        <time>2021-12-28T13:39:00Z</time>
      </trkpt>
      <trkpt lat="37.5703810" lon="-4.2877760">
        <ele>508.6</ele>
        <time>2021-12-28T13:39:01Z</time>
      </trkpt>
      <trkpt lat="37.5703740" lon="-4.2878100">
        <ele>508.6</ele>
        <time>2021-12-28T13:39:02Z</time>
      </trkpt>
      <trkpt lat="37.5703620" lon="-4.2878420">
        <ele>508.6</ele>
        <time>2021-12-28T13:39:03Z</time>
      </trkpt>
      <trkpt lat="37.5703580" lon="-4.2878750">
        <ele>508.6</ele>
        <time>2021-12-28T13:39:04Z</time>
      </trkpt>
      <trkpt lat="37.5703520" lon="-4.2879070">
        <ele>508.8</ele>
        <time>2021-12-28T13:39:05Z</time>
      </trkpt>
      <trkpt lat="37.5703420" lon="-4.2879380">
        <ele>508.8</ele>
        <time>2021-12-28T13:39:06Z</time>
      </trkpt>
      <trkpt lat="37.5703360" lon="-4.2879700">
        <ele>508.8</ele>
        <time>2021-12-28T13:39:07Z</time>
      </trkpt>
      <trkpt lat="37.5703330" lon="-4.2880040">
        <ele>508.8</ele>
        <time>2021-12-28T13:39:08Z</time>
      </trkpt>
      <trkpt lat="37.5703230" lon="-4.2880380">
        <ele>509.0</ele>
        <time>2021-12-28T13:39:09Z</time>
      </trkpt>
      <trkpt lat="37.5703170" lon="-4.2880720">
        <ele>509.0</ele>
        <time>2021-12-28T13:39:10Z</time>
      </trkpt>
      <trkpt lat="37.5703070" lon="-4.2881020">
        <ele>509.0</ele>
        <time>2021-12-28T13:39:11Z</time>
      </trkpt>
      <trkpt lat="37.5703010" lon="-4.2881320">
        <ele>509.0</ele>
        <time>2021-12-28T13:39:12Z</time>
      </trkpt>
      <trkpt lat="37.5702940" lon="-4.2881580">
        <ele>509.0</ele>
        <time>2021-12-28T13:39:13Z</time>
      </trkpt>
      <trkpt lat="37.5702910" lon="-4.2881860">
        <ele>509.0</ele>
        <time>2021-12-28T13:39:14Z</time>
      </trkpt>
      <trkpt lat="37.5702820" lon="-4.2882150">
        <ele>509.0</ele>
        <time>2021-12-28T13:39:15Z</time>
      </trkpt>
      <trkpt lat="37.5702780" lon="-4.2882400">
        <ele>509.0</ele>
        <time>2021-12-28T13:39:16Z</time>
      </trkpt>
      <trkpt lat="37.5702750" lon="-4.2882630">
        <ele>509.0</ele>
        <time>2021-12-28T13:39:17Z</time>
      </trkpt>
      <trkpt lat="37.5702660" lon="-4.2882870">
        <ele>508.8</ele>
        <time>2021-12-28T13:39:18Z</time>
      </trkpt>
      <trkpt lat="37.5702660" lon="-4.2882870">
        <ele>508.8</ele>
        <time>2021-12-28T13:39:19Z</time>
      </trkpt>
      <trkpt lat="37.5702590" lon="-4.2883280">
        <ele>508.8</ele>
        <time>2021-12-28T13:39:20Z</time>
      </trkpt>
      <trkpt lat="37.5702590" lon="-4.2883280">
        <ele>508.8</ele>
        <time>2021-12-28T13:39:21Z</time>
      </trkpt>
      <trkpt lat="37.5702560" lon="-4.2883620">
        <ele>509.0</ele>
        <time>2021-12-28T13:39:22Z</time>
      </trkpt>
      <trkpt lat="37.5702560" lon="-4.2883620">
        <ele>509.0</ele>
        <time>2021-12-28T13:39:23Z</time>
      </trkpt>
      <trkpt lat="37.5702560" lon="-4.2883620">
        <ele>509.0</ele>
        <time>2021-12-28T13:39:24Z</time>
      </trkpt>
      <trkpt lat="37.5702560" lon="-4.2883620">
        <ele>509.0</ele>
        <time>2021-12-28T13:39:25Z</time>
      </trkpt>
      <trkpt lat="37.5702590" lon="-4.2883850">
        <ele>509.0</ele>
        <time>2021-12-28T13:39:26Z</time>
      </trkpt>
      <trkpt lat="37.5702590" lon="-4.2883850">
        <ele>509.0</ele>
        <time>2021-12-28T13:39:27Z</time>
      </trkpt>
      <trkpt lat="37.5702590" lon="-4.2883850">
        <ele>509.0</ele>
        <time>2021-12-28T13:39:28Z</time>
      </trkpt>
      <trkpt lat="37.5702180" lon="-4.2885020">
        <ele>512.0</ele>
        <time>2021-12-28T13:41:18Z</time>
      </trkpt>
      <trkpt lat="37.5702080" lon="-4.2885350">
        <ele>512.0</ele>
        <time>2021-12-28T13:41:19Z</time>
      </trkpt>
      <trkpt lat="37.5702020" lon="-4.2885680">
        <ele>512.0</ele>
        <time>2021-12-28T13:41:20Z</time>
      </trkpt>
      <trkpt lat="37.5701920" lon="-4.2886000">
        <ele>511.8</ele>
        <time>2021-12-28T13:41:21Z</time>
      </trkpt>
      <trkpt lat="37.5701790" lon="-4.2886330">
        <ele>511.8</ele>
        <time>2021-12-28T13:41:22Z</time>
      </trkpt>
      <trkpt lat="37.5701660" lon="-4.2886680">
        <ele>511.8</ele>
        <time>2021-12-28T13:41:23Z</time>
      </trkpt>
      <trkpt lat="37.5701570" lon="-4.2887040">
        <ele>511.6</ele>
        <time>2021-12-28T13:41:24Z</time>
      </trkpt>
      <trkpt lat="37.5701470" lon="-4.2887380">
        <ele>511.6</ele>
        <time>2021-12-28T13:41:25Z</time>
      </trkpt>
      <trkpt lat="37.5701380" lon="-4.2887740">
        <ele>511.6</ele>
        <time>2021-12-28T13:41:26Z</time>
      </trkpt>
      <trkpt lat="37.5701250" lon="-4.2888080">
        <ele>511.6</ele>
        <time>2021-12-28T13:41:27Z</time>
      </trkpt>
      <trkpt lat="37.5701180" lon="-4.2888450">
        <ele>511.6</ele>
        <time>2021-12-28T13:41:28Z</time>
      </trkpt>
      <trkpt lat="37.5701060" lon="-4.2888820">
        <ele>511.4</ele>
        <time>2021-12-28T13:41:29Z</time>
      </trkpt>
      <trkpt lat="37.5700960" lon="-4.2889150">
        <ele>511.4</ele>
        <time>2021-12-28T13:41:30Z</time>
      </trkpt>
      <trkpt lat="37.5700800" lon="-4.2889520">
        <ele>511.6</ele>
        <time>2021-12-28T13:41:31Z</time>
      </trkpt>
      <trkpt lat="37.5700670" lon="-4.2889930">
        <ele>511.6</ele>
        <time>2021-12-28T13:41:32Z</time>
      </trkpt>
      <trkpt lat="37.5700540" lon="-4.2890350">
        <ele>511.6</ele>
        <time>2021-12-28T13:41:33Z</time>
      </trkpt>
      <trkpt lat="37.5700420" lon="-4.2890750">
        <ele>511.6</ele>
        <time>2021-12-28T13:41:34Z</time>
      </trkpt>
      <trkpt lat="37.5700260" lon="-4.2891170">
        <ele>511.6</ele>
        <time>2021-12-28T13:41:35Z</time>
      </trkpt>
      <trkpt lat="37.5700060" lon="-4.2891620">
        <ele>511.6</ele>
        <time>2021-12-28T13:41:36Z</time>
      </trkpt>
      <trkpt lat="37.5699940" lon="-4.2892080">
        <ele>511.6</ele>
        <time>2021-12-28T13:41:37Z</time>
      </trkpt>
      <trkpt lat="37.5699810" lon="-4.2892550">
        <ele>511.6</ele>
        <time>2021-12-28T13:41:38Z</time>
      </trkpt>
      <trkpt lat="37.5699680" lon="-4.2893020">
        <ele>511.4</ele>
        <time>2021-12-28T13:41:39Z</time>
      </trkpt>
      <trkpt lat="37.5699550" lon="-4.2893480">
        <ele>511.4</ele>
        <time>2021-12-28T13:41:40Z</time>
      </trkpt>
      <trkpt lat="37.5699390" lon="-4.2893950">
        <ele>511.4</ele>
        <time>2021-12-28T13:41:41Z</time>
      </trkpt>
      <trkpt lat="37.5699230" lon="-4.2894440">
        <ele>511.4</ele>
        <time>2021-12-28T13:41:42Z</time>
      </trkpt>
      <trkpt lat="37.5699070" lon="-4.2894880">
        <ele>511.4</ele>
        <time>2021-12-28T13:41:43Z</time>
      </trkpt>
      <trkpt lat="37.5698940" lon="-4.2895330">
        <ele>511.4</ele>
        <time>2021-12-28T13:41:44Z</time>
      </trkpt>
      <trkpt lat="37.5698780" lon="-4.2895750">
        <ele>511.6</ele>
        <time>2021-12-28T13:41:45Z</time>
      </trkpt>
      <trkpt lat="37.5698660" lon="-4.2896160">
        <ele>511.6</ele>
        <time>2021-12-28T13:41:46Z</time>
      </trkpt>
      <trkpt lat="37.5698460" lon="-4.2896580">
        <ele>511.8</ele>
        <time>2021-12-28T13:41:47Z</time>
      </trkpt>
      <trkpt lat="37.5698300" lon="-4.2896980">
        <ele>511.8</ele>
        <time>2021-12-28T13:41:48Z</time>
      </trkpt>
      <trkpt lat="37.5698210" lon="-4.2897420">
        <ele>512.0</ele>
        <time>2021-12-28T13:41:49Z</time>
      </trkpt>
      <trkpt lat="37.5698050" lon="-4.2897840">
        <ele>512.0</ele>
        <time>2021-12-28T13:41:50Z</time>
      </trkpt>
      <trkpt lat="37.5697890" lon="-4.2898240">
        <ele>512.2</ele>
        <time>2021-12-28T13:41:51Z</time>
      </trkpt>
      <trkpt lat="37.5697760" lon="-4.2898660">
        <ele>512.2</ele>
        <time>2021-12-28T13:41:52Z</time>
      </trkpt>
      <trkpt lat="37.5697600" lon="-4.2899080">
        <ele>512.2</ele>
        <time>2021-12-28T13:41:53Z</time>
      </trkpt>
      <trkpt lat="37.5697440" lon="-4.2899500">
        <ele>512.2</ele>
        <time>2021-12-28T13:41:54Z</time>
      </trkpt>
      <trkpt lat="37.5697280" lon="-4.2899930">
        <ele>512.4</ele>
        <time>2021-12-28T13:41:55Z</time>
      </trkpt>
      <trkpt lat="37.5697180" lon="-4.2900370">
        <ele>512.4</ele>
        <time>2021-12-28T13:41:56Z</time>
      </trkpt>
      <trkpt lat="37.5697020" lon="-4.2900780">
        <ele>512.6</ele>
        <time>2021-12-28T13:41:57Z</time>
      </trkpt>
      <trkpt lat="37.5696860" lon="-4.2901200">
        <ele>512.6</ele>
        <time>2021-12-28T13:41:58Z</time>
      </trkpt>
      <trkpt lat="37.5696700" lon="-4.2901640">
        <ele>512.6</ele>
        <time>2021-12-28T13:41:59Z</time>
      </trkpt>
      <trkpt lat="37.5696580" lon="-4.2902030">
        <ele>512.6</ele>
        <time>2021-12-28T13:42:00Z</time>
      </trkpt>
      <trkpt lat="37.5696420" lon="-4.2902430">
        <ele>512.8</ele>
        <time>2021-12-28T13:42:01Z</time>
      </trkpt>
      <trkpt lat="37.5696260" lon="-4.2902860">
        <ele>512.8</ele>
        <time>2021-12-28T13:42:02Z</time>
      </trkpt>
      <trkpt lat="37.5696100" lon="-4.2903250">
        <ele>512.8</ele>
        <time>2021-12-28T13:42:03Z</time>
      </trkpt>
      <trkpt lat="37.5695970" lon="-4.2903670">
        <ele>512.8</ele>
        <time>2021-12-28T13:42:04Z</time>
      </trkpt>
      <trkpt lat="37.5695810" lon="-4.2904080">
        <ele>512.8</ele>
        <time>2021-12-28T13:42:05Z</time>
      </trkpt>
      <trkpt lat="37.5695650" lon="-4.2904480">
        <ele>512.8</ele>
        <time>2021-12-28T13:42:06Z</time>
      </trkpt>
      <trkpt lat="37.5695460" lon="-4.2904900">
        <ele>512.8</ele>
        <time>2021-12-28T13:42:07Z</time>
      </trkpt>
      <trkpt lat="37.5695260" lon="-4.2905300">
        <ele>512.8</ele>
        <time>2021-12-28T13:42:08Z</time>
      </trkpt>
      <trkpt lat="37.5695100" lon="-4.2905720">
        <ele>512.8</ele>
        <time>2021-12-28T13:42:09Z</time>
      </trkpt>
      <trkpt lat="37.5694910" lon="-4.2906130">
        <ele>512.8</ele>
        <time>2021-12-28T13:42:10Z</time>
      </trkpt>
      <trkpt lat="37.5694720" lon="-4.2906550">
        <ele>512.8</ele>
        <time>2021-12-28T13:42:11Z</time>
      </trkpt>
      <trkpt lat="37.5694590" lon="-4.2906930">
        <ele>512.8</ele>
        <time>2021-12-28T13:42:12Z</time>
      </trkpt>
      <trkpt lat="37.5694400" lon="-4.2907330">
        <ele>513.0</ele>
        <time>2021-12-28T13:42:13Z</time>
      </trkpt>
      <trkpt lat="37.5694210" lon="-4.2907700">
        <ele>513.0</ele>
        <time>2021-12-28T13:42:14Z</time>
      </trkpt>
      <trkpt lat="37.5694020" lon="-4.2908050">
        <ele>513.2</ele>
        <time>2021-12-28T13:42:15Z</time>
      </trkpt>
      <trkpt lat="37.5693860" lon="-4.2908420">
        <ele>513.4</ele>
        <time>2021-12-28T13:42:16Z</time>
      </trkpt>
      <trkpt lat="37.5693730" lon="-4.2908780">
        <ele>513.4</ele>
        <time>2021-12-28T13:42:17Z</time>
      </trkpt>
      <trkpt lat="37.5693600" lon="-4.2909160">
        <ele>513.6</ele>
        <time>2021-12-28T13:42:18Z</time>
      </trkpt>
      <trkpt lat="37.5693470" lon="-4.2909550">
        <ele>513.6</ele>
        <time>2021-12-28T13:42:19Z</time>
      </trkpt>
      <trkpt lat="37.5693280" lon="-4.2909930">
        <ele>513.8</ele>
        <time>2021-12-28T13:42:20Z</time>
      </trkpt>
      <trkpt lat="37.5693120" lon="-4.2910320">
        <ele>513.8</ele>
        <time>2021-12-28T13:42:21Z</time>
      </trkpt>
      <trkpt lat="37.5692990" lon="-4.2910700">
        <ele>513.8</ele>
        <time>2021-12-28T13:42:22Z</time>
      </trkpt>
      <trkpt lat="37.5692800" lon="-4.2911120">
        <ele>513.8</ele>
        <time>2021-12-28T13:42:23Z</time>
      </trkpt>
      <trkpt lat="37.5692610" lon="-4.2911500">
        <ele>514.0</ele>
        <time>2021-12-28T13:42:24Z</time>
      </trkpt>
      <trkpt lat="37.5692450" lon="-4.2911920">
        <ele>514.0</ele>
        <time>2021-12-28T13:42:25Z</time>
      </trkpt>
      <trkpt lat="37.5692260" lon="-4.2912340">
        <ele>514.2</ele>
        <time>2021-12-28T13:42:26Z</time>
      </trkpt>
      <trkpt lat="37.5692100" lon="-4.2912750">
        <ele>514.2</ele>
        <time>2021-12-28T13:42:27Z</time>
      </trkpt>
      <trkpt lat="37.5691940" lon="-4.2913150">
        <ele>514.2</ele>
        <time>2021-12-28T13:42:28Z</time>
      </trkpt>
      <trkpt lat="37.5691810" lon="-4.2913560">
        <ele>514.4</ele>
        <time>2021-12-28T13:42:29Z</time>
      </trkpt>
      <trkpt lat="37.5691620" lon="-4.2913950">
        <ele>514.4</ele>
        <time>2021-12-28T13:42:30Z</time>
      </trkpt>
      <trkpt lat="37.5691460" lon="-4.2914320">
        <ele>514.4</ele>
        <time>2021-12-28T13:42:31Z</time>
      </trkpt>
      <trkpt lat="37.5691300" lon="-4.2914680">
        <ele>514.4</ele>
        <time>2021-12-28T13:42:32Z</time>
      </trkpt>
      <trkpt lat="37.5691200" lon="-4.2915020">
        <ele>514.4</ele>
        <time>2021-12-28T13:42:33Z</time>
      </trkpt>
      <trkpt lat="37.5691070" lon="-4.2915300">
        <ele>514.4</ele>
        <time>2021-12-28T13:42:34Z</time>
      </trkpt>
      <trkpt lat="37.5690940" lon="-4.2915550">
        <ele>514.4</ele>
        <time>2021-12-28T13:42:35Z</time>
      </trkpt>
      <trkpt lat="37.5690850" lon="-4.2915800">
        <ele>514.6</ele>
        <time>2021-12-28T13:42:36Z</time>
      </trkpt>
      <trkpt lat="37.5690690" lon="-4.2916050">
        <ele>514.6</ele>
        <time>2021-12-28T13:42:37Z</time>
      </trkpt>
      <trkpt lat="37.5690620" lon="-4.2916320">
        <ele>514.6</ele>
        <time>2021-12-28T13:42:38Z</time>
      </trkpt>
      <trkpt lat="37.5690500" lon="-4.2916580">
        <ele>514.8</ele>
        <time>2021-12-28T13:42:39Z</time>
      </trkpt>
      <trkpt lat="37.5690370" lon="-4.2916820">
        <ele>514.8</ele>
        <time>2021-12-28T13:42:40Z</time>
      </trkpt>
      <trkpt lat="37.5690270" lon="-4.2917020">
        <ele>514.8</ele>
        <time>2021-12-28T13:42:41Z</time>
      </trkpt>
      <trkpt lat="37.5690270" lon="-4.2917020">
        <ele>515.0</ele>
        <time>2021-12-28T13:42:42Z</time>
      </trkpt>
      <trkpt lat="37.5690110" lon="-4.2917420">
        <ele>515.0</ele>
        <time>2021-12-28T13:42:43Z</time>
      </trkpt>
      <trkpt lat="37.5690020" lon="-4.2917630">
        <ele>515.0</ele>
        <time>2021-12-28T13:42:44Z</time>
      </trkpt>
      <trkpt lat="37.5689920" lon="-4.2917870">
        <ele>514.8</ele>
        <time>2021-12-28T13:42:45Z</time>
      </trkpt>
      <trkpt lat="37.5689820" lon="-4.2918100">
        <ele>514.8</ele>
        <time>2021-12-28T13:42:46Z</time>
      </trkpt>
      <trkpt lat="37.5689730" lon="-4.2918320">
        <ele>515.0</ele>
        <time>2021-12-28T13:42:47Z</time>
      </trkpt>
      <trkpt lat="37.5689630" lon="-4.2918570">
        <ele>515.0</ele>
        <time>2021-12-28T13:42:48Z</time>
      </trkpt>
      <trkpt lat="37.5689500" lon="-4.2918780">
        <ele>515.0</ele>
        <time>2021-12-28T13:42:49Z</time>
      </trkpt>
      <trkpt lat="37.5689500" lon="-4.2918780">
        <ele>515.0</ele>
        <time>2021-12-28T13:42:50Z</time>
      </trkpt>
      <trkpt lat="37.5689310" lon="-4.2919200">
        <ele>515.0</ele>
        <time>2021-12-28T13:42:51Z</time>
      </trkpt>
      <trkpt lat="37.5689220" lon="-4.2919440">
        <ele>515.0</ele>
        <time>2021-12-28T13:42:52Z</time>
      </trkpt>
      <trkpt lat="37.5689090" lon="-4.2919680">
        <ele>515.0</ele>
        <time>2021-12-28T13:42:53Z</time>
      </trkpt>
      <trkpt lat="37.5689020" lon="-4.2919920">
        <ele>515.0</ele>
        <time>2021-12-28T13:42:54Z</time>
      </trkpt>
      <trkpt lat="37.5688930" lon="-4.2920160">
        <ele>515.0</ele>
        <time>2021-12-28T13:42:55Z</time>
      </trkpt>
      <trkpt lat="37.5688830" lon="-4.2920420">
        <ele>515.0</ele>
        <time>2021-12-28T13:42:56Z</time>
      </trkpt>
      <trkpt lat="37.5688700" lon="-4.2920650">
        <ele>515.0</ele>
        <time>2021-12-28T13:42:57Z</time>
      </trkpt>
      <trkpt lat="37.5688580" lon="-4.2920880">
        <ele>515.2</ele>
        <time>2021-12-28T13:42:58Z</time>
      </trkpt>
      <trkpt lat="37.5688510" lon="-4.2921120">
        <ele>515.0</ele>
        <time>2021-12-28T13:42:59Z</time>
      </trkpt>
      <trkpt lat="37.5688420" lon="-4.2921350">
        <ele>515.0</ele>
        <time>2021-12-28T13:43:00Z</time>
      </trkpt>
      <trkpt lat="37.5688290" lon="-4.2921600">
        <ele>515.0</ele>
        <time>2021-12-28T13:43:01Z</time>
      </trkpt>
      <trkpt lat="37.5688130" lon="-4.2921830">
        <ele>515.0</ele>
        <time>2021-12-28T13:43:02Z</time>
      </trkpt>
      <trkpt lat="37.5688030" lon="-4.2922070">
        <ele>515.2</ele>
        <time>2021-12-28T13:43:03Z</time>
      </trkpt>
      <trkpt lat="37.5687900" lon="-4.2922320">
        <ele>515.2</ele>
        <time>2021-12-28T13:43:04Z</time>
      </trkpt>
      <trkpt lat="37.5687780" lon="-4.2922570">
        <ele>515.2</ele>
        <time>2021-12-28T13:43:05Z</time>
      </trkpt>
      <trkpt lat="37.5687650" lon="-4.2922800">
        <ele>515.2</ele>
        <time>2021-12-28T13:43:06Z</time>
      </trkpt>
      <trkpt lat="37.5687520" lon="-4.2923050">
        <ele>515.2</ele>
        <time>2021-12-28T13:43:07Z</time>
      </trkpt>
      <trkpt lat="37.5687360" lon="-4.2923280">
        <ele>515.2</ele>
        <time>2021-12-28T13:43:08Z</time>
      </trkpt>
      <trkpt lat="37.5687260" lon="-4.2923520">
        <ele>515.2</ele>
        <time>2021-12-28T13:43:09Z</time>
      </trkpt>
      <trkpt lat="37.5687100" lon="-4.2923730">
        <ele>515.2</ele>
        <time>2021-12-28T13:43:10Z</time>
      </trkpt>
      <trkpt lat="37.5686980" lon="-4.2923960">
        <ele>515.4</ele>
        <time>2021-12-28T13:43:11Z</time>
      </trkpt>
      <trkpt lat="37.5686850" lon="-4.2924220">
        <ele>515.4</ele>
        <time>2021-12-28T13:43:12Z</time>
      </trkpt>
      <trkpt lat="37.5686720" lon="-4.2924470">
        <ele>515.4</ele>
        <time>2021-12-28T13:43:13Z</time>
      </trkpt>
      <trkpt lat="37.5686590" lon="-4.2924720">
        <ele>515.6</ele>
        <time>2021-12-28T13:43:14Z</time>
      </trkpt>
      <trkpt lat="37.5686500" lon="-4.2924970">
        <ele>515.6</ele>
        <time>2021-12-28T13:43:15Z</time>
      </trkpt>
      <trkpt lat="37.5686370" lon="-4.2925180">
        <ele>515.8</ele>
        <time>2021-12-28T13:43:16Z</time>
      </trkpt>
      <trkpt lat="37.5686270" lon="-4.2925420">
        <ele>515.8</ele>
        <time>2021-12-28T13:43:17Z</time>
      </trkpt>
      <trkpt lat="37.5686140" lon="-4.2925670">
        <ele>516.0</ele>
        <time>2021-12-28T13:43:18Z</time>
      </trkpt>
      <trkpt lat="37.5686050" lon="-4.2925880">
        <ele>516.0</ele>
        <time>2021-12-28T13:43:19Z</time>
      </trkpt>
      <trkpt lat="37.5685890" lon="-4.2926120">
        <ele>516.0</ele>
        <time>2021-12-28T13:43:20Z</time>
      </trkpt>
      <trkpt lat="37.5685730" lon="-4.2926320">
        <ele>516.0</ele>
        <time>2021-12-28T13:43:21Z</time>
      </trkpt>
      <trkpt lat="37.5685600" lon="-4.2926550">
        <ele>516.0</ele>
        <time>2021-12-28T13:43:22Z</time>
      </trkpt>
      <trkpt lat="37.5685470" lon="-4.2926780">
        <ele>516.0</ele>
        <time>2021-12-28T13:43:23Z</time>
      </trkpt>
      <trkpt lat="37.5685340" lon="-4.2927020">
        <ele>516.0</ele>
        <time>2021-12-28T13:43:24Z</time>
      </trkpt>
      <trkpt lat="37.5685250" lon="-4.2927250">
        <ele>516.0</ele>
        <time>2021-12-28T13:43:25Z</time>
      </trkpt>
      <trkpt lat="37.5685090" lon="-4.2927500">
        <ele>516.0</ele>
        <time>2021-12-28T13:43:26Z</time>
      </trkpt>
      <trkpt lat="37.5684960" lon="-4.2927730">
        <ele>516.0</ele>
        <time>2021-12-28T13:43:27Z</time>
      </trkpt>
      <trkpt lat="37.5684800" lon="-4.2927970">
        <ele>516.0</ele>
        <time>2021-12-28T13:43:28Z</time>
      </trkpt>
      <trkpt lat="37.5684700" lon="-4.2928200">
        <ele>516.0</ele>
        <time>2021-12-28T13:43:29Z</time>
      </trkpt>
      <trkpt lat="37.5684580" lon="-4.2928420">
        <ele>516.2</ele>
        <time>2021-12-28T13:43:30Z</time>
      </trkpt>
      <trkpt lat="37.5684450" lon="-4.2928630">
        <ele>516.2</ele>
        <time>2021-12-28T13:43:31Z</time>
      </trkpt>
      <trkpt lat="37.5684320" lon="-4.2928900">
        <ele>516.2</ele>
        <time>2021-12-28T13:43:32Z</time>
      </trkpt>
      <trkpt lat="37.5684260" lon="-4.2929150">
        <ele>516.2</ele>
        <time>2021-12-28T13:43:33Z</time>
      </trkpt>
      <trkpt lat="37.5684100" lon="-4.2929370">
        <ele>516.2</ele>
        <time>2021-12-28T13:43:34Z</time>
      </trkpt>
      <trkpt lat="37.5683970" lon="-4.2929570">
        <ele>516.2</ele>
        <time>2021-12-28T13:43:35Z</time>
      </trkpt>
      <trkpt lat="37.5683810" lon="-4.2929800">
        <ele>516.4</ele>
        <time>2021-12-28T13:43:36Z</time>
      </trkpt>
      <trkpt lat="37.5683710" lon="-4.2930030">
        <ele>516.4</ele>
        <time>2021-12-28T13:43:37Z</time>
      </trkpt>
      <trkpt lat="37.5683550" lon="-4.2930280">
        <ele>516.6</ele>
        <time>2021-12-28T13:43:38Z</time>
      </trkpt>
      <trkpt lat="37.5683460" lon="-4.2930520">
        <ele>516.6</ele>
        <time>2021-12-28T13:43:39Z</time>
      </trkpt>
      <trkpt lat="37.5683300" lon="-4.2930760">
        <ele>516.8</ele>
        <time>2021-12-28T13:43:40Z</time>
      </trkpt>
      <trkpt lat="37.5683140" lon="-4.2931020">
        <ele>517.0</ele>
        <time>2021-12-28T13:43:41Z</time>
      </trkpt>
      <trkpt lat="37.5683010" lon="-4.2931250">
        <ele>517.0</ele>
        <time>2021-12-28T13:43:42Z</time>
      </trkpt>
      <trkpt lat="37.5682910" lon="-4.2931500">
        <ele>517.0</ele>
        <time>2021-12-28T13:43:43Z</time>
      </trkpt>
      <trkpt lat="37.5682780" lon="-4.2931750">
        <ele>517.2</ele>
        <time>2021-12-28T13:43:44Z</time>
      </trkpt>
      <trkpt lat="37.5682660" lon="-4.2931980">
        <ele>517.2</ele>
        <time>2021-12-28T13:43:45Z</time>
      </trkpt>
      <trkpt lat="37.5682500" lon="-4.2932200">
        <ele>517.2</ele>
        <time>2021-12-28T13:43:46Z</time>
      </trkpt>
      <trkpt lat="37.5682340" lon="-4.2932440">
        <ele>517.2</ele>
        <time>2021-12-28T13:43:47Z</time>
      </trkpt>
      <trkpt lat="37.5682210" lon="-4.2932650">
        <ele>517.2</ele>
        <time>2021-12-28T13:43:48Z</time>
      </trkpt>
      <trkpt lat="37.5682110" lon="-4.2932880">
        <ele>517.2</ele>
        <time>2021-12-28T13:43:49Z</time>
      </trkpt>
      <trkpt lat="37.5681950" lon="-4.2933140">
        <ele>517.2</ele>
        <time>2021-12-28T13:43:50Z</time>
      </trkpt>
      <trkpt lat="37.5681790" lon="-4.2933370">
        <ele>517.4</ele>
        <time>2021-12-28T13:43:51Z</time>
      </trkpt>
      <trkpt lat="37.5681700" lon="-4.2933580">
        <ele>517.4</ele>
        <time>2021-12-28T13:43:52Z</time>
      </trkpt>
      <trkpt lat="37.5681540" lon="-4.2933800">
        <ele>517.4</ele>
        <time>2021-12-28T13:43:53Z</time>
      </trkpt>
      <trkpt lat="37.5681380" lon="-4.2934020">
        <ele>517.4</ele>
        <time>2021-12-28T13:43:54Z</time>
      </trkpt>
      <trkpt lat="37.5681220" lon="-4.2934230">
        <ele>517.4</ele>
        <time>2021-12-28T13:43:55Z</time>
      </trkpt>
      <trkpt lat="37.5681090" lon="-4.2934450">
        <ele>517.6</ele>
        <time>2021-12-28T13:43:56Z</time>
      </trkpt>
      <trkpt lat="37.5680960" lon="-4.2934660">
        <ele>517.6</ele>
        <time>2021-12-28T13:43:57Z</time>
      </trkpt>
      <trkpt lat="37.5680830" lon="-4.2934900">
        <ele>517.8</ele>
        <time>2021-12-28T13:43:58Z</time>
      </trkpt>
      <trkpt lat="37.5680740" lon="-4.2935130">
        <ele>517.8</ele>
        <time>2021-12-28T13:43:59Z</time>
      </trkpt>
      <trkpt lat="37.5680610" lon="-4.2935330">
        <ele>517.8</ele>
        <time>2021-12-28T13:44:00Z</time>
      </trkpt>
      <trkpt lat="37.5680480" lon="-4.2935550">
        <ele>517.8</ele>
        <time>2021-12-28T13:44:01Z</time>
      </trkpt>
      <trkpt lat="37.5680350" lon="-4.2935730">
        <ele>517.8</ele>
        <time>2021-12-28T13:44:02Z</time>
      </trkpt>
      <trkpt lat="37.5680220" lon="-4.2935940">
        <ele>517.8</ele>
        <time>2021-12-28T13:44:03Z</time>
      </trkpt>
      <trkpt lat="37.5680130" lon="-4.2936180">
        <ele>517.8</ele>
        <time>2021-12-28T13:44:04Z</time>
      </trkpt>
      <trkpt lat="37.5679970" lon="-4.2936420">
        <ele>517.8</ele>
        <time>2021-12-28T13:44:05Z</time>
      </trkpt>
      <trkpt lat="37.5679840" lon="-4.2936650">
        <ele>517.8</ele>
        <time>2021-12-28T13:44:06Z</time>
      </trkpt>
      <trkpt lat="37.5679710" lon="-4.2936850">
        <ele>517.8</ele>
        <time>2021-12-28T13:44:07Z</time>
      </trkpt>
      <trkpt lat="37.5679550" lon="-4.2937050">
        <ele>517.8</ele>
        <time>2021-12-28T13:44:08Z</time>
      </trkpt>
      <trkpt lat="37.5679420" lon="-4.2937250">
        <ele>517.8</ele>
        <time>2021-12-28T13:44:09Z</time>
      </trkpt>
      <trkpt lat="37.5679300" lon="-4.2937450">
        <ele>517.8</ele>
        <time>2021-12-28T13:44:10Z</time>
      </trkpt>
      <trkpt lat="37.5679170" lon="-4.2937660">
        <ele>517.8</ele>
        <time>2021-12-28T13:44:11Z</time>
      </trkpt>
      <trkpt lat="37.5679010" lon="-4.2937860">
        <ele>517.8</ele>
        <time>2021-12-28T13:44:12Z</time>
      </trkpt>
      <trkpt lat="37.5678910" lon="-4.2938060">
        <ele>517.6</ele>
        <time>2021-12-28T13:44:13Z</time>
      </trkpt>
      <trkpt lat="37.5678780" lon="-4.2938300">
        <ele>517.6</ele>
        <time>2021-12-28T13:44:14Z</time>
      </trkpt>
      <trkpt lat="37.5678690" lon="-4.2938550">
        <ele>517.6</ele>
        <time>2021-12-28T13:44:15Z</time>
      </trkpt>
      <trkpt lat="37.5678560" lon="-4.2938770">
        <ele>517.6</ele>
        <time>2021-12-28T13:44:16Z</time>
      </trkpt>
      <trkpt lat="37.5678400" lon="-4.2938970">
        <ele>517.6</ele>
        <time>2021-12-28T13:44:17Z</time>
      </trkpt>
      <trkpt lat="37.5678240" lon="-4.2939170">
        <ele>517.6</ele>
        <time>2021-12-28T13:44:18Z</time>
      </trkpt>
      <trkpt lat="37.5678110" lon="-4.2939370">
        <ele>517.6</ele>
        <time>2021-12-28T13:44:19Z</time>
      </trkpt>
      <trkpt lat="37.5677980" lon="-4.2939570">
        <ele>517.6</ele>
        <time>2021-12-28T13:44:20Z</time>
      </trkpt>
      <trkpt lat="37.5677820" lon="-4.2939770">
        <ele>517.6</ele>
        <time>2021-12-28T13:44:21Z</time>
      </trkpt>
      <trkpt lat="37.5677730" lon="-4.2939980">
        <ele>517.6</ele>
        <time>2021-12-28T13:44:22Z</time>
      </trkpt>
      <trkpt lat="37.5677570" lon="-4.2940180">
        <ele>517.6</ele>
        <time>2021-12-28T13:44:23Z</time>
      </trkpt>
      <trkpt lat="37.5677440" lon="-4.2940400">
        <ele>517.6</ele>
        <time>2021-12-28T13:44:24Z</time>
      </trkpt>
      <trkpt lat="37.5677340" lon="-4.2940620">
        <ele>517.6</ele>
        <time>2021-12-28T13:44:25Z</time>
      </trkpt>
      <trkpt lat="37.5677180" lon="-4.2940830">
        <ele>517.6</ele>
        <time>2021-12-28T13:44:26Z</time>
      </trkpt>
      <trkpt lat="37.5677020" lon="-4.2941030">
        <ele>517.8</ele>
        <time>2021-12-28T13:44:27Z</time>
      </trkpt>
      <trkpt lat="37.5676930" lon="-4.2941230">
        <ele>517.8</ele>
        <time>2021-12-28T13:44:28Z</time>
      </trkpt>
      <trkpt lat="37.5676930" lon="-4.2941230">
        <ele>518.0</ele>
        <time>2021-12-28T13:44:29Z</time>
      </trkpt>
      <trkpt lat="37.5676740" lon="-4.2941560">
        <ele>518.0</ele>
        <time>2021-12-28T13:44:30Z</time>
      </trkpt>
      <trkpt lat="37.5676580" lon="-4.2941750">
        <ele>518.2</ele>
        <time>2021-12-28T13:44:31Z</time>
      </trkpt>
      <trkpt lat="37.5676420" lon="-4.2941950">
        <ele>518.2</ele>
        <time>2021-12-28T13:44:32Z</time>
      </trkpt>
      <trkpt lat="37.5676260" lon="-4.2942150">
        <ele>518.4</ele>
        <time>2021-12-28T13:44:33Z</time>
      </trkpt>
      <trkpt lat="37.5676130" lon="-4.2942350">
        <ele>518.4</ele>
        <time>2021-12-28T13:44:34Z</time>
      </trkpt>
      <trkpt lat="37.5675970" lon="-4.2942570">
        <ele>518.6</ele>
        <time>2021-12-28T13:44:35Z</time>
      </trkpt>
      <trkpt lat="37.5675780" lon="-4.2942770">
        <ele>518.6</ele>
        <time>2021-12-28T13:44:36Z</time>
      </trkpt>
      <trkpt lat="37.5675620" lon="-4.2943000">
        <ele>518.6</ele>
        <time>2021-12-28T13:44:37Z</time>
      </trkpt>
      <trkpt lat="37.5675520" lon="-4.2943240">
        <ele>518.8</ele>
        <time>2021-12-28T13:44:38Z</time>
      </trkpt>
      <trkpt lat="37.5675360" lon="-4.2943450">
        <ele>518.8</ele>
        <time>2021-12-28T13:44:39Z</time>
      </trkpt>
      <trkpt lat="37.5675200" lon="-4.2943680">
        <ele>518.8</ele>
        <time>2021-12-28T13:44:40Z</time>
      </trkpt>
      <trkpt lat="37.5675040" lon="-4.2943900">
        <ele>518.8</ele>
        <time>2021-12-28T13:44:41Z</time>
      </trkpt>
      <trkpt lat="37.5674940" lon="-4.2944140">
        <ele>518.8</ele>
        <time>2021-12-28T13:44:42Z</time>
      </trkpt>
      <trkpt lat="37.5674780" lon="-4.2944380">
        <ele>518.8</ele>
        <time>2021-12-28T13:44:43Z</time>
      </trkpt>
      <trkpt lat="37.5674620" lon="-4.2944580">
        <ele>518.8</ele>
        <time>2021-12-28T13:44:44Z</time>
      </trkpt>
      <trkpt lat="37.5674460" lon="-4.2944780">
        <ele>518.8</ele>
        <time>2021-12-28T13:44:45Z</time>
      </trkpt>
      <trkpt lat="37.5674370" lon="-4.2944980">
        <ele>518.8</ele>
        <time>2021-12-28T13:44:46Z</time>
      </trkpt>
      <trkpt lat="37.5674210" lon="-4.2945180">
        <ele>519.0</ele>
        <time>2021-12-28T13:44:47Z</time>
      </trkpt>
      <trkpt lat="37.5674050" lon="-4.2945380">
        <ele>519.0</ele>
        <time>2021-12-28T13:44:48Z</time>
      </trkpt>
      <trkpt lat="37.5673950" lon="-4.2945620">
        <ele>519.0</ele>
        <time>2021-12-28T13:44:49Z</time>
      </trkpt>
      <trkpt lat="37.5673790" lon="-4.2945820">
        <ele>519.0</ele>
        <time>2021-12-28T13:44:50Z</time>
      </trkpt>
      <trkpt lat="37.5673630" lon="-4.2946000">
        <ele>519.2</ele>
        <time>2021-12-28T13:44:51Z</time>
      </trkpt>
      <trkpt lat="37.5673470" lon="-4.2946200">
        <ele>519.2</ele>
        <time>2021-12-28T13:44:52Z</time>
      </trkpt>
      <trkpt lat="37.5673340" lon="-4.2946420">
        <ele>519.4</ele>
        <time>2021-12-28T13:44:53Z</time>
      </trkpt>
      <trkpt lat="37.5673180" lon="-4.2946600">
        <ele>519.4</ele>
        <time>2021-12-28T13:44:54Z</time>
      </trkpt>
      <trkpt lat="37.5672990" lon="-4.2946800">
        <ele>519.4</ele>
        <time>2021-12-28T13:44:55Z</time>
      </trkpt>
      <trkpt lat="37.5672830" lon="-4.2947000">
        <ele>519.4</ele>
        <time>2021-12-28T13:44:56Z</time>
      </trkpt>
      <trkpt lat="37.5672670" lon="-4.2947200">
        <ele>519.4</ele>
        <time>2021-12-28T13:44:57Z</time>
      </trkpt>
      <trkpt lat="37.5672580" lon="-4.2947400">
        <ele>519.4</ele>
        <time>2021-12-28T13:44:58Z</time>
      </trkpt>
      <trkpt lat="37.5672420" lon="-4.2947620">
        <ele>519.4</ele>
        <time>2021-12-28T13:44:59Z</time>
      </trkpt>
      <trkpt lat="37.5672260" lon="-4.2947850">
        <ele>519.6</ele>
        <time>2021-12-28T13:45:00Z</time>
      </trkpt>
      <trkpt lat="37.5672100" lon="-4.2948060">
        <ele>519.6</ele>
        <time>2021-12-28T13:45:01Z</time>
      </trkpt>
      <trkpt lat="37.5672000" lon="-4.2948260">
        <ele>519.6</ele>
        <time>2021-12-28T13:45:02Z</time>
      </trkpt>
      <trkpt lat="37.5671840" lon="-4.2948480">
        <ele>519.6</ele>
        <time>2021-12-28T13:45:03Z</time>
      </trkpt>
      <trkpt lat="37.5671680" lon="-4.2948700">
        <ele>519.8</ele>
        <time>2021-12-28T13:45:04Z</time>
      </trkpt>
      <trkpt lat="37.5671580" lon="-4.2948900">
        <ele>519.8</ele>
        <time>2021-12-28T13:45:05Z</time>
      </trkpt>
      <trkpt lat="37.5671420" lon="-4.2949070">
        <ele>519.8</ele>
        <time>2021-12-28T13:45:06Z</time>
      </trkpt>
      <trkpt lat="37.5671300" lon="-4.2949250">
        <ele>520.0</ele>
        <time>2021-12-28T13:45:07Z</time>
      </trkpt>
      <trkpt lat="37.5671200" lon="-4.2949470">
        <ele>520.0</ele>
        <time>2021-12-28T13:45:08Z</time>
      </trkpt>
      <trkpt lat="37.5671040" lon="-4.2949650">
        <ele>520.0</ele>
        <time>2021-12-28T13:45:09Z</time>
      </trkpt>
      <trkpt lat="37.5670850" lon="-4.2949830">
        <ele>520.0</ele>
        <time>2021-12-28T13:45:10Z</time>
      </trkpt>
      <trkpt lat="37.5670690" lon="-4.2950040">
        <ele>520.0</ele>
        <time>2021-12-28T13:45:11Z</time>
      </trkpt>
      <trkpt lat="37.5670560" lon="-4.2950240">
        <ele>520.0</ele>
        <time>2021-12-28T13:45:12Z</time>
      </trkpt>
      <trkpt lat="37.5670400" lon="-4.2950450">
        <ele>520.0</ele>
        <time>2021-12-28T13:45:13Z</time>
      </trkpt>
      <trkpt lat="37.5670240" lon="-4.2950650">
        <ele>520.0</ele>
        <time>2021-12-28T13:45:14Z</time>
      </trkpt>
      <trkpt lat="37.5670050" lon="-4.2950870">
        <ele>520.0</ele>
        <time>2021-12-28T13:45:15Z</time>
      </trkpt>
      <trkpt lat="37.5669890" lon="-4.2951070">
        <ele>520.0</ele>
        <time>2021-12-28T13:45:16Z</time>
      </trkpt>
      <trkpt lat="37.5669790" lon="-4.2951280">
        <ele>520.0</ele>
        <time>2021-12-28T13:45:17Z</time>
      </trkpt>
      <trkpt lat="37.5669630" lon="-4.2951500">
        <ele>520.2</ele>
        <time>2021-12-28T13:45:18Z</time>
      </trkpt>
      <trkpt lat="37.5669470" lon="-4.2951720">
        <ele>520.2</ele>
        <time>2021-12-28T13:45:19Z</time>
      </trkpt>
      <trkpt lat="37.5669310" lon="-4.2951880">
        <ele>520.2</ele>
        <time>2021-12-28T13:45:20Z</time>
      </trkpt>
      <trkpt lat="37.5669150" lon="-4.2952060">
        <ele>520.2</ele>
        <time>2021-12-28T13:45:21Z</time>
      </trkpt>
      <trkpt lat="37.5668990" lon="-4.2952280">
        <ele>520.2</ele>
        <time>2021-12-28T13:45:22Z</time>
      </trkpt>
      <trkpt lat="37.5668800" lon="-4.2952480">
        <ele>520.2</ele>
        <time>2021-12-28T13:45:23Z</time>
      </trkpt>
      <trkpt lat="37.5668610" lon="-4.2952700">
        <ele>520.2</ele>
        <time>2021-12-28T13:45:24Z</time>
      </trkpt>
      <trkpt lat="37.5668450" lon="-4.2952930">
        <ele>520.0</ele>
        <time>2021-12-28T13:45:25Z</time>
      </trkpt>
      <trkpt lat="37.5668320" lon="-4.2953170">
        <ele>520.0</ele>
        <time>2021-12-28T13:45:26Z</time>
      </trkpt>
      <trkpt lat="37.5668160" lon="-4.2953400">
        <ele>520.0</ele>
        <time>2021-12-28T13:45:27Z</time>
      </trkpt>
      <trkpt lat="37.5668000" lon="-4.2953580">
        <ele>520.0</ele>
        <time>2021-12-28T13:45:28Z</time>
      </trkpt>
      <trkpt lat="37.5667840" lon="-4.2953800">
        <ele>520.0</ele>
        <time>2021-12-28T13:45:29Z</time>
      </trkpt>
      <trkpt lat="37.5667680" lon="-4.2953980">
        <ele>520.0</ele>
        <time>2021-12-28T13:45:30Z</time>
      </trkpt>
      <trkpt lat="37.5667520" lon="-4.2954150">
        <ele>520.0</ele>
        <time>2021-12-28T13:45:31Z</time>
      </trkpt>
      <trkpt lat="37.5667520" lon="-4.2954150">
        <ele>520.0</ele>
        <time>2021-12-28T13:45:32Z</time>
      </trkpt>
      <trkpt lat="37.5667260" lon="-4.2954420">
        <ele>520.2</ele>
        <time>2021-12-28T13:45:33Z</time>
      </trkpt>
      <trkpt lat="37.5667100" lon="-4.2954620">
        <ele>520.2</ele>
        <time>2021-12-28T13:45:34Z</time>
      </trkpt>
      <trkpt lat="37.5667100" lon="-4.2954620">
        <ele>520.4</ele>
        <time>2021-12-28T13:45:35Z</time>
      </trkpt>
      <trkpt lat="37.5666740" lon="-4.2955080">
        <ele>520.6</ele>
        <time>2021-12-28T13:45:36Z</time>
      </trkpt>
      <trkpt lat="37.5666660" lon="-4.2955180">
        <ele>520.6</ele>
        <time>2021-12-28T13:45:37Z</time>
      </trkpt>
      <trkpt lat="37.5666460" lon="-4.2955380">
        <ele>520.6</ele>
        <time>2021-12-28T13:45:38Z</time>
      </trkpt>
      <trkpt lat="37.5666400" lon="-4.2955600">
        <ele>520.6</ele>
        <time>2021-12-28T13:45:39Z</time>
      </trkpt>
      <trkpt lat="37.5666210" lon="-4.2955820">
        <ele>520.6</ele>
        <time>2021-12-28T13:45:40Z</time>
      </trkpt>
      <trkpt lat="37.5666080" lon="-4.2956050">
        <ele>520.6</ele>
        <time>2021-12-28T13:45:41Z</time>
      </trkpt>
      <trkpt lat="37.5665860" lon="-4.2956250">
        <ele>520.6</ele>
        <time>2021-12-28T13:45:42Z</time>
      </trkpt>
      <trkpt lat="37.5665700" lon="-4.2956470">
        <ele>520.6</ele>
        <time>2021-12-28T13:45:43Z</time>
      </trkpt>
      <trkpt lat="37.5665540" lon="-4.2956670">
        <ele>520.6</ele>
        <time>2021-12-28T13:45:44Z</time>
      </trkpt>
      <trkpt lat="37.5665310" lon="-4.2956870">
        <ele>520.8</ele>
        <time>2021-12-28T13:45:45Z</time>
      </trkpt>
      <trkpt lat="37.5665180" lon="-4.2957070">
        <ele>520.8</ele>
        <time>2021-12-28T13:45:46Z</time>
      </trkpt>
      <trkpt lat="37.5664990" lon="-4.2957280">
        <ele>521.0</ele>
        <time>2021-12-28T13:45:47Z</time>
      </trkpt>
      <trkpt lat="37.5664830" lon="-4.2957480">
        <ele>521.0</ele>
        <time>2021-12-28T13:45:48Z</time>
      </trkpt>
      <trkpt lat="37.5664640" lon="-4.2957700">
        <ele>521.0</ele>
        <time>2021-12-28T13:45:49Z</time>
      </trkpt>
      <trkpt lat="37.5664480" lon="-4.2957900">
        <ele>520.8</ele>
        <time>2021-12-28T13:45:50Z</time>
      </trkpt>
      <trkpt lat="37.5664290" lon="-4.2958100">
        <ele>520.8</ele>
        <time>2021-12-28T13:45:51Z</time>
      </trkpt>
      <trkpt lat="37.5664130" lon="-4.2958300">
        <ele>520.8</ele>
        <time>2021-12-28T13:45:52Z</time>
      </trkpt>
      <trkpt lat="37.5663940" lon="-4.2958520">
        <ele>520.8</ele>
        <time>2021-12-28T13:45:53Z</time>
      </trkpt>
      <trkpt lat="37.5663810" lon="-4.2958720">
        <ele>520.8</ele>
        <time>2021-12-28T13:45:54Z</time>
      </trkpt>
      <trkpt lat="37.5663620" lon="-4.2958900">
        <ele>520.8</ele>
        <time>2021-12-28T13:45:55Z</time>
      </trkpt>
      <trkpt lat="37.5663460" lon="-4.2959100">
        <ele>521.0</ele>
        <time>2021-12-28T13:45:56Z</time>
      </trkpt>
      <trkpt lat="37.5663260" lon="-4.2959320">
        <ele>521.0</ele>
        <time>2021-12-28T13:45:57Z</time>
      </trkpt>
      <trkpt lat="37.5663070" lon="-4.2959520">
        <ele>521.0</ele>
        <time>2021-12-28T13:45:58Z</time>
      </trkpt>
      <trkpt lat="37.5662910" lon="-4.2959680">
        <ele>521.0</ele>
        <time>2021-12-28T13:45:59Z</time>
      </trkpt>
      <trkpt lat="37.5662720" lon="-4.2959870">
        <ele>521.0</ele>
        <time>2021-12-28T13:46:00Z</time>
      </trkpt>
      <trkpt lat="37.5662530" lon="-4.2960070">
        <ele>521.0</ele>
        <time>2021-12-28T13:46:01Z</time>
      </trkpt>
      <trkpt lat="37.5662340" lon="-4.2960280">
        <ele>521.0</ele>
        <time>2021-12-28T13:46:02Z</time>
      </trkpt>
      <trkpt lat="37.5662140" lon="-4.2960500">
        <ele>521.2</ele>
        <time>2021-12-28T13:46:03Z</time>
      </trkpt>
      <trkpt lat="37.5662020" lon="-4.2960720">
        <ele>521.2</ele>
        <time>2021-12-28T13:46:04Z</time>
      </trkpt>
      <trkpt lat="37.5661760" lon="-4.2960920">
        <ele>521.4</ele>
        <time>2021-12-28T13:46:05Z</time>
      </trkpt>
      <trkpt lat="37.5661570" lon="-4.2961140">
        <ele>521.6</ele>
        <time>2021-12-28T13:46:06Z</time>
      </trkpt>
      <trkpt lat="37.5661410" lon="-4.2961350">
        <ele>521.6</ele>
        <time>2021-12-28T13:46:07Z</time>
      </trkpt>
      <trkpt lat="37.5661220" lon="-4.2961550">
        <ele>521.6</ele>
        <time>2021-12-28T13:46:08Z</time>
      </trkpt>
      <trkpt lat="37.5661020" lon="-4.2961730">
        <ele>521.6</ele>
        <time>2021-12-28T13:46:09Z</time>
      </trkpt>
      <trkpt lat="37.5660770" lon="-4.2961950">
        <ele>521.4</ele>
        <time>2021-12-28T13:46:10Z</time>
      </trkpt>
      <trkpt lat="37.5660580" lon="-4.2962160">
        <ele>521.4</ele>
        <time>2021-12-28T13:46:11Z</time>
      </trkpt>
      <trkpt lat="37.5660420" lon="-4.2962380">
        <ele>521.4</ele>
        <time>2021-12-28T13:46:12Z</time>
      </trkpt>
      <trkpt lat="37.5660160" lon="-4.2962600">
        <ele>521.4</ele>
        <time>2021-12-28T13:46:13Z</time>
      </trkpt>
      <trkpt lat="37.5659970" lon="-4.2962820">
        <ele>521.4</ele>
        <time>2021-12-28T13:46:14Z</time>
      </trkpt>
      <trkpt lat="37.5659740" lon="-4.2963030">
        <ele>521.2</ele>
        <time>2021-12-28T13:46:15Z</time>
      </trkpt>
      <trkpt lat="37.5659550" lon="-4.2963250">
        <ele>521.2</ele>
        <time>2021-12-28T13:46:16Z</time>
      </trkpt>
      <trkpt lat="37.5659330" lon="-4.2963470">
        <ele>521.2</ele>
        <time>2021-12-28T13:46:17Z</time>
      </trkpt>
      <trkpt lat="37.5659100" lon="-4.2963670">
        <ele>521.2</ele>
        <time>2021-12-28T13:46:18Z</time>
      </trkpt>
      <trkpt lat="37.5658880" lon="-4.2963880">
        <ele>521.2</ele>
        <time>2021-12-28T13:46:19Z</time>
      </trkpt>
      <trkpt lat="37.5658690" lon="-4.2964120">
        <ele>521.2</ele>
        <time>2021-12-28T13:46:20Z</time>
      </trkpt>
      <trkpt lat="37.5658430" lon="-4.2964320">
        <ele>521.2</ele>
        <time>2021-12-28T13:46:21Z</time>
      </trkpt>
      <trkpt lat="37.5658180" lon="-4.2964550">
        <ele>521.2</ele>
        <time>2021-12-28T13:46:22Z</time>
      </trkpt>
      <trkpt lat="37.5657980" lon="-4.2964780">
        <ele>521.2</ele>
        <time>2021-12-28T13:46:23Z</time>
      </trkpt>
      <trkpt lat="37.5657760" lon="-4.2965020">
        <ele>521.2</ele>
        <time>2021-12-28T13:46:24Z</time>
      </trkpt>
      <trkpt lat="37.5657500" lon="-4.2965230">
        <ele>521.2</ele>
        <time>2021-12-28T13:46:25Z</time>
      </trkpt>
      <trkpt lat="37.5657280" lon="-4.2965460">
        <ele>521.4</ele>
        <time>2021-12-28T13:46:26Z</time>
      </trkpt>
      <trkpt lat="37.5657090" lon="-4.2965650">
        <ele>521.4</ele>
        <time>2021-12-28T13:46:27Z</time>
      </trkpt>
      <trkpt lat="37.5656860" lon="-4.2965830">
        <ele>521.6</ele>
        <time>2021-12-28T13:46:28Z</time>
      </trkpt>
      <trkpt lat="37.5656700" lon="-4.2966030">
        <ele>521.6</ele>
        <time>2021-12-28T13:46:29Z</time>
      </trkpt>
      <trkpt lat="37.5656510" lon="-4.2966250">
        <ele>521.8</ele>
        <time>2021-12-28T13:46:30Z</time>
      </trkpt>
      <trkpt lat="37.5656320" lon="-4.2966450">
        <ele>521.8</ele>
        <time>2021-12-28T13:46:31Z</time>
      </trkpt>
      <trkpt lat="37.5656100" lon="-4.2966650">
        <ele>522.0</ele>
        <time>2021-12-28T13:46:32Z</time>
      </trkpt>
      <trkpt lat="37.5655900" lon="-4.2966880">
        <ele>522.2</ele>
        <time>2021-12-28T13:46:33Z</time>
      </trkpt>
      <trkpt lat="37.5655710" lon="-4.2967120">
        <ele>522.2</ele>
        <time>2021-12-28T13:46:34Z</time>
      </trkpt>
      <trkpt lat="37.5655520" lon="-4.2967330">
        <ele>522.2</ele>
        <time>2021-12-28T13:46:35Z</time>
      </trkpt>
      <trkpt lat="37.5655360" lon="-4.2967540">
        <ele>522.4</ele>
        <time>2021-12-28T13:46:36Z</time>
      </trkpt>
      <trkpt lat="37.5655200" lon="-4.2967720">
        <ele>522.4</ele>
        <time>2021-12-28T13:46:37Z</time>
      </trkpt>
      <trkpt lat="37.5655010" lon="-4.2967920">
        <ele>522.6</ele>
        <time>2021-12-28T13:46:38Z</time>
      </trkpt>
      <trkpt lat="37.5654820" lon="-4.2968100">
        <ele>522.6</ele>
        <time>2021-12-28T13:46:39Z</time>
      </trkpt>
      <trkpt lat="37.5654660" lon="-4.2968280">
        <ele>522.8</ele>
        <time>2021-12-28T13:46:40Z</time>
      </trkpt>
      <trkpt lat="37.5654460" lon="-4.2968470">
        <ele>523.0</ele>
        <time>2021-12-28T13:46:41Z</time>
      </trkpt>
      <trkpt lat="37.5654270" lon="-4.2968640">
        <ele>523.0</ele>
        <time>2021-12-28T13:46:42Z</time>
      </trkpt>
      <trkpt lat="37.5654080" lon="-4.2968820">
        <ele>523.2</ele>
        <time>2021-12-28T13:46:43Z</time>
      </trkpt>
      <trkpt lat="37.5653920" lon="-4.2969020">
        <ele>523.2</ele>
        <time>2021-12-28T13:46:44Z</time>
      </trkpt>
      <trkpt lat="37.5653700" lon="-4.2969180">
        <ele>523.2</ele>
        <time>2021-12-28T13:46:45Z</time>
      </trkpt>
      <trkpt lat="37.5653540" lon="-4.2969350">
        <ele>523.4</ele>
        <time>2021-12-28T13:46:46Z</time>
      </trkpt>
      <trkpt lat="37.5653340" lon="-4.2969530">
        <ele>523.6</ele>
        <time>2021-12-28T13:46:47Z</time>
      </trkpt>
      <trkpt lat="37.5653150" lon="-4.2969730">
        <ele>523.8</ele>
        <time>2021-12-28T13:46:48Z</time>
      </trkpt>
      <trkpt lat="37.5652930" lon="-4.2969930">
        <ele>523.8</ele>
        <time>2021-12-28T13:46:49Z</time>
      </trkpt>
      <trkpt lat="37.5652740" lon="-4.2970120">
        <ele>523.8</ele>
        <time>2021-12-28T13:46:50Z</time>
      </trkpt>
      <trkpt lat="37.5652540" lon="-4.2970300">
        <ele>524.0</ele>
        <time>2021-12-28T13:46:51Z</time>
      </trkpt>
      <trkpt lat="37.5652350" lon="-4.2970470">
        <ele>524.0</ele>
        <time>2021-12-28T13:46:52Z</time>
      </trkpt>
      <trkpt lat="37.5652190" lon="-4.2970630">
        <ele>524.0</ele>
        <time>2021-12-28T13:46:53Z</time>
      </trkpt>
      <trkpt lat="37.5652030" lon="-4.2970820">
        <ele>524.0</ele>
        <time>2021-12-28T13:46:54Z</time>
      </trkpt>
      <trkpt lat="37.5651900" lon="-4.2971000">
        <ele>524.0</ele>
        <time>2021-12-28T13:46:55Z</time>
      </trkpt>
      <trkpt lat="37.5651710" lon="-4.2971170">
        <ele>524.0</ele>
        <time>2021-12-28T13:46:56Z</time>
      </trkpt>
      <trkpt lat="37.5651550" lon="-4.2971340">
        <ele>524.0</ele>
        <time>2021-12-28T13:46:57Z</time>
      </trkpt>
      <trkpt lat="37.5651360" lon="-4.2971500">
        <ele>524.0</ele>
        <time>2021-12-28T13:46:58Z</time>
      </trkpt>
      <trkpt lat="37.5651200" lon="-4.2971670">
        <ele>524.0</ele>
        <time>2021-12-28T13:46:59Z</time>
      </trkpt>
      <trkpt lat="37.5651040" lon="-4.2971870">
        <ele>524.0</ele>
        <time>2021-12-28T13:47:00Z</time>
      </trkpt>
      <trkpt lat="37.5650850" lon="-4.2972050">
        <ele>524.2</ele>
        <time>2021-12-28T13:47:01Z</time>
      </trkpt>
      <trkpt lat="37.5650720" lon="-4.2972230">
        <ele>524.2</ele>
        <time>2021-12-28T13:47:02Z</time>
      </trkpt>
      <trkpt lat="37.5650530" lon="-4.2972400">
        <ele>524.2</ele>
        <time>2021-12-28T13:47:03Z</time>
      </trkpt>
      <trkpt lat="37.5650370" lon="-4.2972560">
        <ele>524.4</ele>
        <time>2021-12-28T13:47:04Z</time>
      </trkpt>
      <trkpt lat="37.5650180" lon="-4.2972730">
        <ele>524.4</ele>
        <time>2021-12-28T13:47:05Z</time>
      </trkpt>
      <trkpt lat="37.5650020" lon="-4.2972880">
        <ele>524.4</ele>
        <time>2021-12-28T13:47:06Z</time>
      </trkpt>
      <trkpt lat="37.5649820" lon="-4.2973050">
        <ele>524.4</ele>
        <time>2021-12-28T13:47:07Z</time>
      </trkpt>
      <trkpt lat="37.5649820" lon="-4.2973050">
        <ele>524.6</ele>
        <time>2021-12-28T13:47:08Z</time>
      </trkpt>
      <trkpt lat="37.5649600" lon="-4.2973320">
        <ele>524.6</ele>
        <time>2021-12-28T13:47:09Z</time>
      </trkpt>
      <trkpt lat="37.5649600" lon="-4.2973320">
        <ele>524.6</ele>
        <time>2021-12-28T13:47:10Z</time>
      </trkpt>
      <trkpt lat="37.5649410" lon="-4.2973550">
        <ele>524.6</ele>
        <time>2021-12-28T13:47:11Z</time>
      </trkpt>
      <trkpt lat="37.5649410" lon="-4.2973550">
        <ele>524.6</ele>
        <time>2021-12-28T13:47:12Z</time>
      </trkpt>
      <trkpt lat="37.5649150" lon="-4.2973780">
        <ele>524.8</ele>
        <time>2021-12-28T13:47:13Z</time>
      </trkpt>
      <trkpt lat="37.5648990" lon="-4.2973930">
        <ele>524.8</ele>
        <time>2021-12-28T13:47:14Z</time>
      </trkpt>
      <trkpt lat="37.5648830" lon="-4.2974120">
        <ele>524.8</ele>
        <time>2021-12-28T13:47:15Z</time>
      </trkpt>
      <trkpt lat="37.5648640" lon="-4.2974270">
        <ele>524.6</ele>
        <time>2021-12-28T13:47:16Z</time>
      </trkpt>
      <trkpt lat="37.5648640" lon="-4.2974270">
        <ele>524.6</ele>
        <time>2021-12-28T13:47:17Z</time>
      </trkpt>
      <trkpt lat="37.5648320" lon="-4.2974570">
        <ele>524.6</ele>
        <time>2021-12-28T13:47:18Z</time>
      </trkpt>
      <trkpt lat="37.5648130" lon="-4.2974720">
        <ele>524.6</ele>
        <time>2021-12-28T13:47:19Z</time>
      </trkpt>
      <trkpt lat="37.5647970" lon="-4.2974850">
        <ele>524.6</ele>
        <time>2021-12-28T13:47:20Z</time>
      </trkpt>
      <trkpt lat="37.5647970" lon="-4.2974850">
        <ele>524.6</ele>
        <time>2021-12-28T13:47:21Z</time>
      </trkpt>
      <trkpt lat="37.5647710" lon="-4.2975170">
        <ele>524.6</ele>
        <time>2021-12-28T13:47:22Z</time>
      </trkpt>
      <trkpt lat="37.5647550" lon="-4.2975340">
        <ele>524.6</ele>
        <time>2021-12-28T13:47:23Z</time>
      </trkpt>
      <trkpt lat="37.5647420" lon="-4.2975520">
        <ele>524.6</ele>
        <time>2021-12-28T13:47:24Z</time>
      </trkpt>
      <trkpt lat="37.5647260" lon="-4.2975680">
        <ele>524.4</ele>
        <time>2021-12-28T13:47:25Z</time>
      </trkpt>
      <trkpt lat="37.5647140" lon="-4.2975860">
        <ele>524.4</ele>
        <time>2021-12-28T13:47:26Z</time>
      </trkpt>
      <trkpt lat="37.5646940" lon="-4.2976000">
        <ele>524.4</ele>
        <time>2021-12-28T13:47:27Z</time>
      </trkpt>
      <trkpt lat="37.5646780" lon="-4.2976150">
        <ele>524.4</ele>
        <time>2021-12-28T13:47:28Z</time>
      </trkpt>
      <trkpt lat="37.5646590" lon="-4.2976300">
        <ele>524.4</ele>
        <time>2021-12-28T13:47:29Z</time>
      </trkpt>
      <trkpt lat="37.5646430" lon="-4.2976480">
        <ele>524.4</ele>
        <time>2021-12-28T13:47:30Z</time>
      </trkpt>
      <trkpt lat="37.5646270" lon="-4.2976660">
        <ele>524.6</ele>
        <time>2021-12-28T13:47:31Z</time>
      </trkpt>
      <trkpt lat="37.5646140" lon="-4.2976860">
        <ele>524.6</ele>
        <time>2021-12-28T13:47:32Z</time>
      </trkpt>
      <trkpt lat="37.5645980" lon="-4.2977070">
        <ele>524.6</ele>
        <time>2021-12-28T13:47:33Z</time>
      </trkpt>
      <trkpt lat="37.5645790" lon="-4.2977220">
        <ele>524.8</ele>
        <time>2021-12-28T13:47:34Z</time>
      </trkpt>
      <trkpt lat="37.5645600" lon="-4.2977350">
        <ele>524.8</ele>
        <time>2021-12-28T13:47:35Z</time>
      </trkpt>
      <trkpt lat="37.5645440" lon="-4.2977480">
        <ele>524.8</ele>
        <time>2021-12-28T13:47:36Z</time>
      </trkpt>
      <trkpt lat="37.5645280" lon="-4.2977650">
        <ele>525.0</ele>
        <time>2021-12-28T13:47:37Z</time>
      </trkpt>
      <trkpt lat="37.5645280" lon="-4.2977650">
        <ele>525.0</ele>
        <time>2021-12-28T13:47:38Z</time>
      </trkpt>
      <trkpt lat="37.5645020" lon="-4.2977970">
        <ele>525.0</ele>
        <time>2021-12-28T13:47:39Z</time>
      </trkpt>
      <trkpt lat="37.5644860" lon="-4.2978150">
        <ele>525.0</ele>
        <time>2021-12-28T13:47:40Z</time>
      </trkpt>
      <trkpt lat="37.5644740" lon="-4.2978340">
        <ele>525.0</ele>
        <time>2021-12-28T13:47:41Z</time>
      </trkpt>
      <trkpt lat="37.5644580" lon="-4.2978500">
        <ele>525.0</ele>
        <time>2021-12-28T13:47:42Z</time>
      </trkpt>
      <trkpt lat="37.5644420" lon="-4.2978650">
        <ele>525.0</ele>
        <time>2021-12-28T13:47:43Z</time>
      </trkpt>
      <trkpt lat="37.5644290" lon="-4.2978820">
        <ele>525.0</ele>
        <time>2021-12-28T13:47:44Z</time>
      </trkpt>
      <trkpt lat="37.5644160" lon="-4.2978980">
        <ele>525.0</ele>
        <time>2021-12-28T13:47:45Z</time>
      </trkpt>
      <trkpt lat="37.5644000" lon="-4.2979150">
        <ele>525.2</ele>
        <time>2021-12-28T13:47:46Z</time>
      </trkpt>
      <trkpt lat="37.5643840" lon="-4.2979300">
        <ele>525.2</ele>
        <time>2021-12-28T13:47:47Z</time>
      </trkpt>
      <trkpt lat="37.5643650" lon="-4.2979460">
        <ele>525.2</ele>
        <time>2021-12-28T13:47:48Z</time>
      </trkpt>
      <trkpt lat="37.5643490" lon="-4.2979630">
        <ele>525.2</ele>
        <time>2021-12-28T13:47:49Z</time>
      </trkpt>
      <trkpt lat="37.5643300" lon="-4.2979800">
        <ele>525.0</ele>
        <time>2021-12-28T13:47:50Z</time>
      </trkpt>
      <trkpt lat="37.5643170" lon="-4.2979980">
        <ele>525.0</ele>
        <time>2021-12-28T13:47:51Z</time>
      </trkpt>
      <trkpt lat="37.5643010" lon="-4.2980160">
        <ele>525.0</ele>
        <time>2021-12-28T13:47:52Z</time>
      </trkpt>
      <trkpt lat="37.5642820" lon="-4.2980300">
        <ele>525.0</ele>
        <time>2021-12-28T13:47:53Z</time>
      </trkpt>
      <trkpt lat="37.5642660" lon="-4.2980460">
        <ele>525.0</ele>
        <time>2021-12-28T13:47:54Z</time>
      </trkpt>
      <trkpt lat="37.5642500" lon="-4.2980630">
        <ele>525.0</ele>
        <time>2021-12-28T13:47:55Z</time>
      </trkpt>
      <trkpt lat="37.5642300" lon="-4.2980820">
        <ele>525.0</ele>
        <time>2021-12-28T13:47:56Z</time>
      </trkpt>
      <trkpt lat="37.5642180" lon="-4.2981020">
        <ele>525.2</ele>
        <time>2021-12-28T13:47:57Z</time>
      </trkpt>
      <trkpt lat="37.5641980" lon="-4.2981200">
        <ele>525.2</ele>
        <time>2021-12-28T13:47:58Z</time>
      </trkpt>
      <trkpt lat="37.5641790" lon="-4.2981370">
        <ele>525.2</ele>
        <time>2021-12-28T13:47:59Z</time>
      </trkpt>
      <trkpt lat="37.5641630" lon="-4.2981570">
        <ele>525.4</ele>
        <time>2021-12-28T13:48:00Z</time>
      </trkpt>
      <trkpt lat="37.5641440" lon="-4.2981750">
        <ele>525.4</ele>
        <time>2021-12-28T13:48:01Z</time>
      </trkpt>
      <trkpt lat="37.5641250" lon="-4.2981900">
        <ele>525.4</ele>
        <time>2021-12-28T13:48:02Z</time>
      </trkpt>
      <trkpt lat="37.5641250" lon="-4.2981900">
        <ele>525.4</ele>
        <time>2021-12-28T13:48:03Z</time>
      </trkpt>
      <trkpt lat="37.5640880" lon="-4.2982310">
        <ele>525.4</ele>
        <time>2021-12-28T13:48:04Z</time>
      </trkpt>
      <trkpt lat="37.5640800" lon="-4.2982400">
        <ele>525.4</ele>
        <time>2021-12-28T13:48:05Z</time>
      </trkpt>
      <trkpt lat="37.5640640" lon="-4.2982550">
        <ele>525.6</ele>
        <time>2021-12-28T13:48:06Z</time>
      </trkpt>
      <trkpt lat="37.5640480" lon="-4.2982720">
        <ele>525.6</ele>
        <time>2021-12-28T13:48:07Z</time>
      </trkpt>
      <trkpt lat="37.5640290" lon="-4.2982860">
        <ele>525.6</ele>
        <time>2021-12-28T13:48:08Z</time>
      </trkpt>
      <trkpt lat="37.5640290" lon="-4.2982860">
        <ele>525.6</ele>
        <time>2021-12-28T13:48:09Z</time>
      </trkpt>
      <trkpt lat="37.5640000" lon="-4.2983150">
        <ele>525.6</ele>
        <time>2021-12-28T13:48:10Z</time>
      </trkpt>
      <trkpt lat="37.5639840" lon="-4.2983320">
        <ele>525.6</ele>
        <time>2021-12-28T13:48:11Z</time>
      </trkpt>
      <trkpt lat="37.5639840" lon="-4.2983320">
        <ele>525.4</ele>
        <time>2021-12-28T13:48:12Z</time>
      </trkpt>
      <trkpt lat="37.5639580" lon="-4.2983600">
        <ele>525.6</ele>
        <time>2021-12-28T13:48:13Z</time>
      </trkpt>
      <trkpt lat="37.5639460" lon="-4.2983760">
        <ele>525.6</ele>
        <time>2021-12-28T13:48:14Z</time>
      </trkpt>
      <trkpt lat="37.5639300" lon="-4.2983900">
        <ele>525.6</ele>
        <time>2021-12-28T13:48:15Z</time>
      </trkpt>
      <trkpt lat="37.5639300" lon="-4.2983900">
        <ele>525.6</ele>
        <time>2021-12-28T13:48:16Z</time>
      </trkpt>
      <trkpt lat="37.5639040" lon="-4.2984170">
        <ele>525.6</ele>
        <time>2021-12-28T13:48:17Z</time>
      </trkpt>
      <trkpt lat="37.5639040" lon="-4.2984170">
        <ele>525.6</ele>
        <time>2021-12-28T13:48:18Z</time>
      </trkpt>
      <trkpt lat="37.5638850" lon="-4.2984420">
        <ele>525.6</ele>
        <time>2021-12-28T13:48:19Z</time>
      </trkpt>
      <trkpt lat="37.5638720" lon="-4.2984580">
        <ele>525.6</ele>
        <time>2021-12-28T13:48:20Z</time>
      </trkpt>
      <trkpt lat="37.5638720" lon="-4.2984580">
        <ele>525.6</ele>
        <time>2021-12-28T13:48:21Z</time>
      </trkpt>
      <trkpt lat="37.5638530" lon="-4.2984900">
        <ele>525.6</ele>
        <time>2021-12-28T13:48:22Z</time>
      </trkpt>
      <trkpt lat="37.5638530" lon="-4.2984900">
        <ele>525.4</ele>
        <time>2021-12-28T13:48:23Z</time>
      </trkpt>
      <trkpt lat="37.5638270" lon="-4.2985220">
        <ele>525.4</ele>
        <time>2021-12-28T13:48:24Z</time>
      </trkpt>
      <trkpt lat="37.5638110" lon="-4.2985370">
        <ele>525.4</ele>
        <time>2021-12-28T13:48:25Z</time>
      </trkpt>
      <trkpt lat="37.5637980" lon="-4.2985540">
        <ele>525.6</ele>
        <time>2021-12-28T13:48:26Z</time>
      </trkpt>
      <trkpt lat="37.5637860" lon="-4.2985720">
        <ele>525.6</ele>
        <time>2021-12-28T13:48:27Z</time>
      </trkpt>
      <trkpt lat="37.5637730" lon="-4.2985900">
        <ele>525.8</ele>
        <time>2021-12-28T13:48:28Z</time>
      </trkpt>
      <trkpt lat="37.5637730" lon="-4.2985900">
        <ele>526.0</ele>
        <time>2021-12-28T13:48:29Z</time>
      </trkpt>
      <trkpt lat="37.5637390" lon="-4.2986330">
        <ele>526.0</ele>
        <time>2021-12-28T13:48:30Z</time>
      </trkpt>
      <trkpt lat="37.5637310" lon="-4.2986420">
        <ele>526.0</ele>
        <time>2021-12-28T13:48:31Z</time>
      </trkpt>
      <trkpt lat="37.5637310" lon="-4.2986420">
        <ele>526.0</ele>
        <time>2021-12-28T13:48:32Z</time>
      </trkpt>
      <trkpt lat="37.5637120" lon="-4.2986700">
        <ele>526.0</ele>
        <time>2021-12-28T13:48:33Z</time>
      </trkpt>
      <trkpt lat="37.5637120" lon="-4.2986700">
        <ele>526.0</ele>
        <time>2021-12-28T13:48:34Z</time>
      </trkpt>
      <trkpt lat="37.5636930" lon="-4.2986950">
        <ele>526.0</ele>
        <time>2021-12-28T13:48:35Z</time>
      </trkpt>
      <trkpt lat="37.5636930" lon="-4.2986950">
        <ele>526.0</ele>
        <time>2021-12-28T13:48:36Z</time>
      </trkpt>
      <trkpt lat="37.5636800" lon="-4.2987200">
        <ele>526.2</ele>
        <time>2021-12-28T13:48:37Z</time>
      </trkpt>
      <trkpt lat="37.5636800" lon="-4.2987200">
        <ele>526.4</ele>
        <time>2021-12-28T13:48:38Z</time>
      </trkpt>
      <trkpt lat="37.5636610" lon="-4.2987500">
        <ele>526.4</ele>
        <time>2021-12-28T13:48:39Z</time>
      </trkpt>
      <trkpt lat="37.5636480" lon="-4.2987670">
        <ele>526.6</ele>
        <time>2021-12-28T13:48:40Z</time>
      </trkpt>
      <trkpt lat="37.5636480" lon="-4.2987670">
        <ele>526.6</ele>
        <time>2021-12-28T13:48:41Z</time>
      </trkpt>
      <trkpt lat="37.5636290" lon="-4.2987970">
        <ele>526.8</ele>
        <time>2021-12-28T13:48:42Z</time>
      </trkpt>
      <trkpt lat="37.5636290" lon="-4.2987970">
        <ele>526.8</ele>
        <time>2021-12-28T13:48:43Z</time>
      </trkpt>
      <trkpt lat="37.5636060" lon="-4.2988320">
        <ele>526.8</ele>
        <time>2021-12-28T13:48:44Z</time>
      </trkpt>
      <trkpt lat="37.5635900" lon="-4.2988520">
        <ele>526.8</ele>
        <time>2021-12-28T13:48:45Z</time>
      </trkpt>
      <trkpt lat="37.5635900" lon="-4.2988520">
        <ele>526.8</ele>
        <time>2021-12-28T13:48:46Z</time>
      </trkpt>
      <trkpt lat="37.5635680" lon="-4.2988900">
        <ele>526.8</ele>
        <time>2021-12-28T13:48:47Z</time>
      </trkpt>
      <trkpt lat="37.5635550" lon="-4.2989070">
        <ele>526.6</ele>
        <time>2021-12-28T13:48:48Z</time>
      </trkpt>
      <trkpt lat="37.5635550" lon="-4.2989070">
        <ele>526.8</ele>
        <time>2021-12-28T13:48:49Z</time>
      </trkpt>
      <trkpt lat="37.5635360" lon="-4.2989400">
        <ele>526.8</ele>
        <time>2021-12-28T13:48:50Z</time>
      </trkpt>
      <trkpt lat="37.5635360" lon="-4.2989400">
        <ele>526.8</ele>
        <time>2021-12-28T13:48:51Z</time>
      </trkpt>
      <trkpt lat="37.5635140" lon="-4.2989750">
        <ele>527.0</ele>
        <time>2021-12-28T13:48:52Z</time>
      </trkpt>
      <trkpt lat="37.5635040" lon="-4.2989950">
        <ele>527.0</ele>
        <time>2021-12-28T13:48:53Z</time>
      </trkpt>
      <trkpt lat="37.5634910" lon="-4.2990160">
        <ele>527.0</ele>
        <time>2021-12-28T13:48:54Z</time>
      </trkpt>
      <trkpt lat="37.5634820" lon="-4.2990380">
        <ele>527.0</ele>
        <time>2021-12-28T13:48:55Z</time>
      </trkpt>
      <trkpt lat="37.5634690" lon="-4.2990620">
        <ele>527.0</ele>
        <time>2021-12-28T13:48:56Z</time>
      </trkpt>
      <trkpt lat="37.5634560" lon="-4.2990830">
        <ele>527.0</ele>
        <time>2021-12-28T13:48:57Z</time>
      </trkpt>
      <trkpt lat="37.5634430" lon="-4.2991030">
        <ele>527.0</ele>
        <time>2021-12-28T13:48:58Z</time>
      </trkpt>
      <trkpt lat="37.5634300" lon="-4.2991220">
        <ele>527.2</ele>
        <time>2021-12-28T13:48:59Z</time>
      </trkpt>
      <trkpt lat="37.5634140" lon="-4.2991400">
        <ele>527.2</ele>
        <time>2021-12-28T13:49:00Z</time>
      </trkpt>
      <trkpt lat="37.5634020" lon="-4.2991620">
        <ele>527.4</ele>
        <time>2021-12-28T13:49:01Z</time>
      </trkpt>
      <trkpt lat="37.5633820" lon="-4.2991830">
        <ele>527.4</ele>
        <time>2021-12-28T13:49:02Z</time>
      </trkpt>
      <trkpt lat="37.5633700" lon="-4.2992070">
        <ele>527.6</ele>
        <time>2021-12-28T13:49:03Z</time>
      </trkpt>
      <trkpt lat="37.5633540" lon="-4.2992320">
        <ele>527.6</ele>
        <time>2021-12-28T13:49:04Z</time>
      </trkpt>
      <trkpt lat="37.5633470" lon="-4.2992570">
        <ele>527.6</ele>
        <time>2021-12-28T13:49:05Z</time>
      </trkpt>
      <trkpt lat="37.5633310" lon="-4.2992820">
        <ele>527.6</ele>
        <time>2021-12-28T13:49:06Z</time>
      </trkpt>
      <trkpt lat="37.5633220" lon="-4.2993080">
        <ele>527.6</ele>
        <time>2021-12-28T13:49:07Z</time>
      </trkpt>
      <trkpt lat="37.5633060" lon="-4.2993350">
        <ele>527.8</ele>
        <time>2021-12-28T13:49:08Z</time>
      </trkpt>
      <trkpt lat="37.5632930" lon="-4.2993650">
        <ele>527.8</ele>
        <time>2021-12-28T13:49:09Z</time>
      </trkpt>
      <trkpt lat="37.5632830" lon="-4.2993950">
        <ele>528.0</ele>
        <time>2021-12-28T13:49:10Z</time>
      </trkpt>
      <trkpt lat="37.5632670" lon="-4.2994220">
        <ele>528.0</ele>
        <time>2021-12-28T13:49:11Z</time>
      </trkpt>
      <trkpt lat="37.5632540" lon="-4.2994480">
        <ele>528.0</ele>
        <time>2021-12-28T13:49:12Z</time>
      </trkpt>
      <trkpt lat="37.5632450" lon="-4.2994770">
        <ele>528.0</ele>
        <time>2021-12-28T13:49:13Z</time>
      </trkpt>
      <trkpt lat="37.5632320" lon="-4.2995030">
        <ele>528.0</ele>
        <time>2021-12-28T13:49:14Z</time>
      </trkpt>
      <trkpt lat="37.5632220" lon="-4.2995270">
        <ele>528.0</ele>
        <time>2021-12-28T13:49:15Z</time>
      </trkpt>
      <trkpt lat="37.5632100" lon="-4.2995480">
        <ele>528.0</ele>
        <time>2021-12-28T13:49:16Z</time>
      </trkpt>
      <trkpt lat="37.5631970" lon="-4.2995700">
        <ele>528.0</ele>
        <time>2021-12-28T13:49:17Z</time>
      </trkpt>
      <trkpt lat="37.5631870" lon="-4.2995900">
        <ele>528.2</ele>
        <time>2021-12-28T13:49:18Z</time>
      </trkpt>
      <trkpt lat="37.5631780" lon="-4.2996100">
        <ele>528.2</ele>
        <time>2021-12-28T13:49:19Z</time>
      </trkpt>
      <trkpt lat="37.5631710" lon="-4.2996320">
        <ele>528.4</ele>
        <time>2021-12-28T13:49:20Z</time>
      </trkpt>
      <trkpt lat="37.5631580" lon="-4.2996540">
        <ele>528.6</ele>
        <time>2021-12-28T13:49:21Z</time>
      </trkpt>
      <trkpt lat="37.5631490" lon="-4.2996780">
        <ele>528.6</ele>
        <time>2021-12-28T13:49:22Z</time>
      </trkpt>
      <trkpt lat="37.5631360" lon="-4.2997050">
        <ele>528.6</ele>
        <time>2021-12-28T13:49:23Z</time>
      </trkpt>
      <trkpt lat="37.5631260" lon="-4.2997350">
        <ele>528.6</ele>
        <time>2021-12-28T13:49:24Z</time>
      </trkpt>
      <trkpt lat="37.5631170" lon="-4.2997630">
        <ele>528.6</ele>
        <time>2021-12-28T13:49:25Z</time>
      </trkpt>
      <trkpt lat="37.5631070" lon="-4.2997830">
        <ele>528.6</ele>
        <time>2021-12-28T13:49:26Z</time>
      </trkpt>
      <trkpt lat="37.5630980" lon="-4.2998050">
        <ele>528.6</ele>
        <time>2021-12-28T13:49:27Z</time>
      </trkpt>
      <trkpt lat="37.5630880" lon="-4.2998300">
        <ele>528.6</ele>
        <time>2021-12-28T13:49:28Z</time>
      </trkpt>
      <trkpt lat="37.5630780" lon="-4.2998580">
        <ele>528.6</ele>
        <time>2021-12-28T13:49:29Z</time>
      </trkpt>
      <trkpt lat="37.5630750" lon="-4.2998880">
        <ele>528.6</ele>
        <time>2021-12-28T13:49:30Z</time>
      </trkpt>
      <trkpt lat="37.5630690" lon="-4.2999140">
        <ele>528.8</ele>
        <time>2021-12-28T13:49:31Z</time>
      </trkpt>
      <trkpt lat="37.5630660" lon="-4.2999380">
        <ele>528.8</ele>
        <time>2021-12-28T13:49:32Z</time>
      </trkpt>
      <trkpt lat="37.5630530" lon="-4.2999620">
        <ele>528.8</ele>
        <time>2021-12-28T13:49:33Z</time>
      </trkpt>
      <trkpt lat="37.5630530" lon="-4.2999620">
        <ele>528.8</ele>
        <time>2021-12-28T13:49:34Z</time>
      </trkpt>
      <trkpt lat="37.5630430" lon="-4.2999970">
        <ele>528.8</ele>
        <time>2021-12-28T13:49:35Z</time>
      </trkpt>
      <trkpt lat="37.5630430" lon="-4.2999970">
        <ele>528.8</ele>
        <time>2021-12-28T13:49:36Z</time>
      </trkpt>
      <trkpt lat="37.5630300" lon="-4.3000380">
        <ele>528.8</ele>
        <time>2021-12-28T13:49:37Z</time>
      </trkpt>
      <trkpt lat="37.5630300" lon="-4.3000380">
        <ele>528.8</ele>
        <time>2021-12-28T13:49:38Z</time>
      </trkpt>
      <trkpt lat="37.5630180" lon="-4.3000780">
        <ele>528.8</ele>
        <time>2021-12-28T13:49:39Z</time>
      </trkpt>
      <trkpt lat="37.5630180" lon="-4.3000780">
        <ele>528.8</ele>
        <time>2021-12-28T13:49:40Z</time>
      </trkpt>
      <trkpt lat="37.5630050" lon="-4.3001160">
        <ele>528.8</ele>
        <time>2021-12-28T13:49:41Z</time>
      </trkpt>
      <trkpt lat="37.5630050" lon="-4.3001160">
        <ele>528.8</ele>
        <time>2021-12-28T13:49:42Z</time>
      </trkpt>
      <trkpt lat="37.5629890" lon="-4.3001530">
        <ele>528.6</ele>
        <time>2021-12-28T13:49:43Z</time>
      </trkpt>
      <trkpt lat="37.5629890" lon="-4.3001530">
        <ele>528.6</ele>
        <time>2021-12-28T13:49:44Z</time>
      </trkpt>
      <trkpt lat="37.5629790" lon="-4.3001970">
        <ele>528.6</ele>
        <time>2021-12-28T13:49:45Z</time>
      </trkpt>
      <trkpt lat="37.5629760" lon="-4.3002200">
        <ele>528.6</ele>
        <time>2021-12-28T13:49:46Z</time>
      </trkpt>
      <trkpt lat="37.5629730" lon="-4.3002470">
        <ele>528.6</ele>
        <time>2021-12-28T13:49:47Z</time>
      </trkpt>
      <trkpt lat="37.5629660" lon="-4.3002720">
        <ele>528.8</ele>
        <time>2021-12-28T13:49:48Z</time>
      </trkpt>
      <trkpt lat="37.5629540" lon="-4.3002970">
        <ele>528.8</ele>
        <time>2021-12-28T13:49:49Z</time>
      </trkpt>
      <trkpt lat="37.5629500" lon="-4.3003200">
        <ele>529.0</ele>
        <time>2021-12-28T13:49:50Z</time>
      </trkpt>
      <trkpt lat="37.5629440" lon="-4.3003450">
        <ele>529.0</ele>
        <time>2021-12-28T13:49:51Z</time>
      </trkpt>
      <trkpt lat="37.5629340" lon="-4.3003720">
        <ele>529.2</ele>
        <time>2021-12-28T13:49:52Z</time>
      </trkpt>
      <trkpt lat="37.5629280" lon="-4.3003970">
        <ele>529.2</ele>
        <time>2021-12-28T13:49:53Z</time>
      </trkpt>
      <trkpt lat="37.5629180" lon="-4.3004220">
        <ele>529.2</ele>
        <time>2021-12-28T13:49:54Z</time>
      </trkpt>
      <trkpt lat="37.5629120" lon="-4.3004460">
        <ele>529.2</ele>
        <time>2021-12-28T13:49:55Z</time>
      </trkpt>
      <trkpt lat="37.5629090" lon="-4.3004720">
        <ele>529.2</ele>
        <time>2021-12-28T13:49:56Z</time>
      </trkpt>
      <trkpt lat="37.5628990" lon="-4.3004960">
        <ele>529.2</ele>
        <time>2021-12-28T13:49:57Z</time>
      </trkpt>
      <trkpt lat="37.5628990" lon="-4.3005220">
        <ele>529.4</ele>
        <time>2021-12-28T13:49:58Z</time>
      </trkpt>
      <trkpt lat="37.5628960" lon="-4.3005470">
        <ele>529.4</ele>
        <time>2021-12-28T13:49:59Z</time>
      </trkpt>
      <trkpt lat="37.5628930" lon="-4.3005700">
        <ele>529.4</ele>
        <time>2021-12-28T13:50:00Z</time>
      </trkpt>
      <trkpt lat="37.5628900" lon="-4.3005950">
        <ele>529.6</ele>
        <time>2021-12-28T13:50:01Z</time>
      </trkpt>
      <trkpt lat="37.5628800" lon="-4.3006200">
        <ele>529.6</ele>
        <time>2021-12-28T13:50:02Z</time>
      </trkpt>
      <trkpt lat="37.5628740" lon="-4.3006450">
        <ele>529.8</ele>
        <time>2021-12-28T13:50:03Z</time>
      </trkpt>
      <trkpt lat="37.5628700" lon="-4.3006700">
        <ele>529.8</ele>
        <time>2021-12-28T13:50:04Z</time>
      </trkpt>
      <trkpt lat="37.5628610" lon="-4.3006950">
        <ele>529.8</ele>
        <time>2021-12-28T13:50:05Z</time>
      </trkpt>
      <trkpt lat="37.5628580" lon="-4.3007200">
        <ele>529.8</ele>
        <time>2021-12-28T13:50:06Z</time>
      </trkpt>
      <trkpt lat="37.5628510" lon="-4.3007450">
        <ele>529.8</ele>
        <time>2021-12-28T13:50:07Z</time>
      </trkpt>
      <trkpt lat="37.5628480" lon="-4.3007700">
        <ele>529.8</ele>
        <time>2021-12-28T13:50:08Z</time>
      </trkpt>
      <trkpt lat="37.5628450" lon="-4.3007960">
        <ele>529.8</ele>
        <time>2021-12-28T13:50:09Z</time>
      </trkpt>
      <trkpt lat="37.5628380" lon="-4.3008230">
        <ele>529.8</ele>
        <time>2021-12-28T13:50:10Z</time>
      </trkpt>
      <trkpt lat="37.5628350" lon="-4.3008500">
        <ele>530.0</ele>
        <time>2021-12-28T13:50:11Z</time>
      </trkpt>
      <trkpt lat="37.5628320" lon="-4.3008780">
        <ele>530.0</ele>
        <time>2021-12-28T13:50:12Z</time>
      </trkpt>
      <trkpt lat="37.5628290" lon="-4.3009070">
        <ele>530.2</ele>
        <time>2021-12-28T13:50:13Z</time>
      </trkpt>
      <trkpt lat="37.5628260" lon="-4.3009330">
        <ele>530.2</ele>
        <time>2021-12-28T13:50:14Z</time>
      </trkpt>
      <trkpt lat="37.5628260" lon="-4.3009600">
        <ele>530.2</ele>
        <time>2021-12-28T13:50:15Z</time>
      </trkpt>
      <trkpt lat="37.5628190" lon="-4.3009870">
        <ele>530.2</ele>
        <time>2021-12-28T13:50:16Z</time>
      </trkpt>
      <trkpt lat="37.5628160" lon="-4.3010140">
        <ele>530.4</ele>
        <time>2021-12-28T13:50:17Z</time>
      </trkpt>
      <trkpt lat="37.5628100" lon="-4.3010420">
        <ele>530.4</ele>
        <time>2021-12-28T13:50:18Z</time>
      </trkpt>
      <trkpt lat="37.5628060" lon="-4.3010700">
        <ele>530.4</ele>
        <time>2021-12-28T13:50:19Z</time>
      </trkpt>
      <trkpt lat="37.5628060" lon="-4.3010970">
        <ele>530.4</ele>
        <time>2021-12-28T13:50:20Z</time>
      </trkpt>
      <trkpt lat="37.5628060" lon="-4.3011250">
        <ele>530.4</ele>
        <time>2021-12-28T13:50:21Z</time>
      </trkpt>
      <trkpt lat="37.5628060" lon="-4.3011520">
        <ele>530.4</ele>
        <time>2021-12-28T13:50:22Z</time>
      </trkpt>
      <trkpt lat="37.5628000" lon="-4.3011800">
        <ele>530.6</ele>
        <time>2021-12-28T13:50:23Z</time>
      </trkpt>
      <trkpt lat="37.5628000" lon="-4.3012050">
        <ele>530.6</ele>
        <time>2021-12-28T13:50:24Z</time>
      </trkpt>
      <trkpt lat="37.5627970" lon="-4.3012300">
        <ele>530.6</ele>
        <time>2021-12-28T13:50:25Z</time>
      </trkpt>
      <trkpt lat="37.5627940" lon="-4.3012550">
        <ele>530.8</ele>
        <time>2021-12-28T13:50:26Z</time>
      </trkpt>
      <trkpt lat="37.5627900" lon="-4.3012780">
        <ele>530.8</ele>
        <time>2021-12-28T13:50:27Z</time>
      </trkpt>
      <trkpt lat="37.5627900" lon="-4.3012780">
        <ele>530.8</ele>
        <time>2021-12-28T13:50:28Z</time>
      </trkpt>
      <trkpt lat="37.5627870" lon="-4.3013250">
        <ele>531.0</ele>
        <time>2021-12-28T13:50:29Z</time>
      </trkpt>
      <trkpt lat="37.5627870" lon="-4.3013500">
        <ele>531.0</ele>
        <time>2021-12-28T13:50:30Z</time>
      </trkpt>
      <trkpt lat="37.5627810" lon="-4.3013740">
        <ele>531.0</ele>
        <time>2021-12-28T13:50:31Z</time>
      </trkpt>
      <trkpt lat="37.5627810" lon="-4.3014000">
        <ele>531.2</ele>
        <time>2021-12-28T13:50:32Z</time>
      </trkpt>
      <trkpt lat="37.5627780" lon="-4.3014270">
        <ele>531.2</ele>
        <time>2021-12-28T13:50:33Z</time>
      </trkpt>
      <trkpt lat="37.5627740" lon="-4.3014530">
        <ele>531.2</ele>
        <time>2021-12-28T13:50:34Z</time>
      </trkpt>
      <trkpt lat="37.5627780" lon="-4.3014780">
        <ele>531.2</ele>
        <time>2021-12-28T13:50:35Z</time>
      </trkpt>
      <trkpt lat="37.5627780" lon="-4.3015050">
        <ele>531.4</ele>
        <time>2021-12-28T13:50:36Z</time>
      </trkpt>
      <trkpt lat="37.5627780" lon="-4.3015300">
        <ele>531.4</ele>
        <time>2021-12-28T13:50:37Z</time>
      </trkpt>
      <trkpt lat="37.5627780" lon="-4.3015580">
        <ele>531.4</ele>
        <time>2021-12-28T13:50:38Z</time>
      </trkpt>
      <trkpt lat="37.5627780" lon="-4.3015870">
        <ele>531.4</ele>
        <time>2021-12-28T13:50:39Z</time>
      </trkpt>
      <trkpt lat="37.5627780" lon="-4.3016130">
        <ele>531.4</ele>
        <time>2021-12-28T13:50:40Z</time>
      </trkpt>
      <trkpt lat="37.5627780" lon="-4.3016430">
        <ele>531.4</ele>
        <time>2021-12-28T13:50:41Z</time>
      </trkpt>
      <trkpt lat="37.5627780" lon="-4.3016700">
        <ele>531.4</ele>
        <time>2021-12-28T13:50:42Z</time>
      </trkpt>
      <trkpt lat="37.5627780" lon="-4.3016970">
        <ele>531.6</ele>
        <time>2021-12-28T13:50:43Z</time>
      </trkpt>
      <trkpt lat="37.5627740" lon="-4.3017250">
        <ele>531.6</ele>
        <time>2021-12-28T13:50:44Z</time>
      </trkpt>
      <trkpt lat="37.5627780" lon="-4.3017520">
        <ele>531.6</ele>
        <time>2021-12-28T13:50:45Z</time>
      </trkpt>
      <trkpt lat="37.5627780" lon="-4.3017780">
        <ele>531.8</ele>
        <time>2021-12-28T13:50:46Z</time>
      </trkpt>
      <trkpt lat="37.5627780" lon="-4.3018080">
        <ele>531.8</ele>
        <time>2021-12-28T13:50:47Z</time>
      </trkpt>
      <trkpt lat="37.5627780" lon="-4.3018350">
        <ele>531.8</ele>
        <time>2021-12-28T13:50:48Z</time>
      </trkpt>
      <trkpt lat="37.5627780" lon="-4.3018630">
        <ele>531.8</ele>
        <time>2021-12-28T13:50:49Z</time>
      </trkpt>
      <trkpt lat="37.5627780" lon="-4.3018930">
        <ele>531.6</ele>
        <time>2021-12-28T13:50:50Z</time>
      </trkpt>
      <trkpt lat="37.5627780" lon="-4.3019230">
        <ele>531.6</ele>
        <time>2021-12-28T13:50:51Z</time>
      </trkpt>
      <trkpt lat="37.5627810" lon="-4.3019530">
        <ele>531.6</ele>
        <time>2021-12-28T13:50:52Z</time>
      </trkpt>
      <trkpt lat="37.5627810" lon="-4.3019800">
        <ele>531.6</ele>
        <time>2021-12-28T13:50:53Z</time>
      </trkpt>
      <trkpt lat="37.5627810" lon="-4.3020070">
        <ele>531.6</ele>
        <time>2021-12-28T13:50:54Z</time>
      </trkpt>
      <trkpt lat="37.5627870" lon="-4.3020340">
        <ele>531.6</ele>
        <time>2021-12-28T13:50:55Z</time>
      </trkpt>
      <trkpt lat="37.5627870" lon="-4.3020600">
        <ele>531.6</ele>
        <time>2021-12-28T13:50:56Z</time>
      </trkpt>
      <trkpt lat="37.5627870" lon="-4.3020880">
        <ele>531.6</ele>
        <time>2021-12-28T13:50:57Z</time>
      </trkpt>
      <trkpt lat="37.5627870" lon="-4.3021200">
        <ele>531.6</ele>
        <time>2021-12-28T13:50:58Z</time>
      </trkpt>
      <trkpt lat="37.5627810" lon="-4.3021500">
        <ele>531.6</ele>
        <time>2021-12-28T13:50:59Z</time>
      </trkpt>
      <trkpt lat="37.5627870" lon="-4.3021800">
        <ele>531.6</ele>
        <time>2021-12-28T13:51:00Z</time>
      </trkpt>
      <trkpt lat="37.5627900" lon="-4.3022080">
        <ele>531.6</ele>
        <time>2021-12-28T13:51:01Z</time>
      </trkpt>
      <trkpt lat="37.5627900" lon="-4.3022380">
        <ele>531.6</ele>
        <time>2021-12-28T13:51:02Z</time>
      </trkpt>
      <trkpt lat="37.5627940" lon="-4.3022680">
        <ele>531.8</ele>
        <time>2021-12-28T13:51:03Z</time>
      </trkpt>
      <trkpt lat="37.5627940" lon="-4.3022950">
        <ele>531.8</ele>
        <time>2021-12-28T13:51:04Z</time>
      </trkpt>
      <trkpt lat="37.5628000" lon="-4.3023200">
        <ele>532.0</ele>
        <time>2021-12-28T13:51:05Z</time>
      </trkpt>
      <trkpt lat="37.5628060" lon="-4.3023480">
        <ele>531.8</ele>
        <time>2021-12-28T13:51:06Z</time>
      </trkpt>
      <trkpt lat="37.5628060" lon="-4.3023780">
        <ele>531.8</ele>
        <time>2021-12-28T13:51:07Z</time>
      </trkpt>
      <trkpt lat="37.5628100" lon="-4.3024100">
        <ele>531.8</ele>
        <time>2021-12-28T13:51:08Z</time>
      </trkpt>
      <trkpt lat="37.5628130" lon="-4.3024420">
        <ele>532.0</ele>
        <time>2021-12-28T13:51:09Z</time>
      </trkpt>
      <trkpt lat="37.5628160" lon="-4.3024740">
        <ele>532.0</ele>
        <time>2021-12-28T13:51:10Z</time>
      </trkpt>
      <trkpt lat="37.5628190" lon="-4.3025040">
        <ele>532.2</ele>
        <time>2021-12-28T13:51:11Z</time>
      </trkpt>
      <trkpt lat="37.5628290" lon="-4.3025330">
        <ele>532.2</ele>
        <time>2021-12-28T13:51:12Z</time>
      </trkpt>
      <trkpt lat="37.5628290" lon="-4.3025630">
        <ele>532.2</ele>
        <time>2021-12-28T13:51:13Z</time>
      </trkpt>
      <trkpt lat="37.5628350" lon="-4.3025930">
        <ele>532.2</ele>
        <time>2021-12-28T13:51:14Z</time>
      </trkpt>
      <trkpt lat="37.5628380" lon="-4.3026270">
        <ele>532.2</ele>
        <time>2021-12-28T13:51:15Z</time>
      </trkpt>
      <trkpt lat="37.5628450" lon="-4.3026600">
        <ele>532.4</ele>
        <time>2021-12-28T13:51:16Z</time>
      </trkpt>
      <trkpt lat="37.5628450" lon="-4.3026930">
        <ele>532.4</ele>
        <time>2021-12-28T13:51:17Z</time>
      </trkpt>
      <trkpt lat="37.5628510" lon="-4.3027240">
        <ele>532.4</ele>
        <time>2021-12-28T13:51:18Z</time>
      </trkpt>
      <trkpt lat="37.5628540" lon="-4.3027520">
        <ele>532.4</ele>
        <time>2021-12-28T13:51:19Z</time>
      </trkpt>
      <trkpt lat="37.5628580" lon="-4.3027840">
        <ele>532.4</ele>
        <time>2021-12-28T13:51:20Z</time>
      </trkpt>
      <trkpt lat="37.5628610" lon="-4.3028140">
        <ele>532.4</ele>
        <time>2021-12-28T13:51:21Z</time>
      </trkpt>
      <trkpt lat="37.5628700" lon="-4.3028450">
        <ele>532.4</ele>
        <time>2021-12-28T13:51:22Z</time>
      </trkpt>
      <trkpt lat="37.5628740" lon="-4.3028780">
        <ele>532.4</ele>
        <time>2021-12-28T13:51:23Z</time>
      </trkpt>
      <trkpt lat="37.5628770" lon="-4.3029120">
        <ele>532.4</ele>
        <time>2021-12-28T13:51:24Z</time>
      </trkpt>
      <trkpt lat="37.5628800" lon="-4.3029430">
        <ele>532.2</ele>
        <time>2021-12-28T13:51:25Z</time>
      </trkpt>
      <trkpt lat="37.5628860" lon="-4.3029750">
        <ele>532.4</ele>
        <time>2021-12-28T13:51:26Z</time>
      </trkpt>
      <trkpt lat="37.5628930" lon="-4.3030080">
        <ele>532.2</ele>
        <time>2021-12-28T13:51:27Z</time>
      </trkpt>
      <trkpt lat="37.5628960" lon="-4.3030380">
        <ele>532.2</ele>
        <time>2021-12-28T13:51:28Z</time>
      </trkpt>
      <trkpt lat="37.5628990" lon="-4.3030700">
        <ele>532.2</ele>
        <time>2021-12-28T13:51:29Z</time>
      </trkpt>
      <trkpt lat="37.5629090" lon="-4.3031040">
        <ele>532.4</ele>
        <time>2021-12-28T13:51:30Z</time>
      </trkpt>
      <trkpt lat="37.5629090" lon="-4.3031370">
        <ele>532.4</ele>
        <time>2021-12-28T13:51:31Z</time>
      </trkpt>
      <trkpt lat="37.5629120" lon="-4.3031700">
        <ele>532.4</ele>
        <time>2021-12-28T13:51:32Z</time>
      </trkpt>
      <trkpt lat="37.5629150" lon="-4.3032020">
        <ele>532.4</ele>
        <time>2021-12-28T13:51:33Z</time>
      </trkpt>
      <trkpt lat="37.5629180" lon="-4.3032320">
        <ele>532.4</ele>
        <time>2021-12-28T13:51:34Z</time>
      </trkpt>
      <trkpt lat="37.5629250" lon="-4.3032620">
        <ele>532.6</ele>
        <time>2021-12-28T13:51:35Z</time>
      </trkpt>
      <trkpt lat="37.5629280" lon="-4.3032920">
        <ele>532.6</ele>
        <time>2021-12-28T13:51:36Z</time>
      </trkpt>
      <trkpt lat="37.5629340" lon="-4.3033230">
        <ele>532.8</ele>
        <time>2021-12-28T13:51:37Z</time>
      </trkpt>
      <trkpt lat="37.5629380" lon="-4.3033580">
        <ele>532.8</ele>
        <time>2021-12-28T13:51:38Z</time>
      </trkpt>
      <trkpt lat="37.5629380" lon="-4.3033950">
        <ele>533.0</ele>
        <time>2021-12-28T13:51:39Z</time>
      </trkpt>
      <trkpt lat="37.5629440" lon="-4.3034300">
        <ele>533.0</ele>
        <time>2021-12-28T13:51:40Z</time>
      </trkpt>
      <trkpt lat="37.5629470" lon="-4.3034650">
        <ele>533.2</ele>
        <time>2021-12-28T13:51:41Z</time>
      </trkpt>
      <trkpt lat="37.5629500" lon="-4.3034980">
        <ele>533.2</ele>
        <time>2021-12-28T13:51:42Z</time>
      </trkpt>
      <trkpt lat="37.5629570" lon="-4.3035300">
        <ele>533.2</ele>
        <time>2021-12-28T13:51:43Z</time>
      </trkpt>
      <trkpt lat="37.5629600" lon="-4.3035600">
        <ele>533.4</ele>
        <time>2021-12-28T13:51:44Z</time>
      </trkpt>
      <trkpt lat="37.5629660" lon="-4.3035920">
        <ele>533.6</ele>
        <time>2021-12-28T13:51:45Z</time>
      </trkpt>
      <trkpt lat="37.5629700" lon="-4.3036220">
        <ele>533.6</ele>
        <time>2021-12-28T13:51:46Z</time>
      </trkpt>
      <trkpt lat="37.5629760" lon="-4.3036530">
        <ele>533.6</ele>
        <time>2021-12-28T13:51:47Z</time>
      </trkpt>
      <trkpt lat="37.5629790" lon="-4.3036850">
        <ele>533.6</ele>
        <time>2021-12-28T13:51:48Z</time>
      </trkpt>
      <trkpt lat="37.5629860" lon="-4.3037130">
        <ele>533.8</ele>
        <time>2021-12-28T13:51:49Z</time>
      </trkpt>
      <trkpt lat="37.5629890" lon="-4.3037400">
        <ele>533.8</ele>
        <time>2021-12-28T13:51:50Z</time>
      </trkpt>
      <trkpt lat="37.5629890" lon="-4.3037680">
        <ele>533.8</ele>
        <time>2021-12-28T13:51:51Z</time>
      </trkpt>
      <trkpt lat="37.5629950" lon="-4.3038000">
        <ele>533.8</ele>
        <time>2021-12-28T13:51:52Z</time>
      </trkpt>
      <trkpt lat="37.5629980" lon="-4.3038300">
        <ele>533.8</ele>
        <time>2021-12-28T13:51:53Z</time>
      </trkpt>
      <trkpt lat="37.5629980" lon="-4.3038600">
        <ele>534.0</ele>
        <time>2021-12-28T13:51:54Z</time>
      </trkpt>
      <trkpt lat="37.5629980" lon="-4.3038880">
        <ele>534.2</ele>
        <time>2021-12-28T13:51:55Z</time>
      </trkpt>
      <trkpt lat="37.5629980" lon="-4.3039180">
        <ele>534.2</ele>
        <time>2021-12-28T13:51:56Z</time>
      </trkpt>
      <trkpt lat="37.5630050" lon="-4.3039480">
        <ele>534.2</ele>
        <time>2021-12-28T13:51:57Z</time>
      </trkpt>
      <trkpt lat="37.5630050" lon="-4.3039800">
        <ele>534.2</ele>
        <time>2021-12-28T13:51:58Z</time>
      </trkpt>
      <trkpt lat="37.5630080" lon="-4.3040120">
        <ele>534.2</ele>
        <time>2021-12-28T13:51:59Z</time>
      </trkpt>
      <trkpt lat="37.5630110" lon="-4.3040430">
        <ele>534.2</ele>
        <time>2021-12-28T13:52:00Z</time>
      </trkpt>
      <trkpt lat="37.5630140" lon="-4.3040720">
        <ele>534.2</ele>
        <time>2021-12-28T13:52:01Z</time>
      </trkpt>
      <trkpt lat="37.5630140" lon="-4.3040980">
        <ele>534.4</ele>
        <time>2021-12-28T13:52:02Z</time>
      </trkpt>
      <trkpt lat="37.5630140" lon="-4.3041250">
        <ele>534.4</ele>
        <time>2021-12-28T13:52:03Z</time>
      </trkpt>
      <trkpt lat="37.5630140" lon="-4.3041250">
        <ele>534.4</ele>
        <time>2021-12-28T13:52:04Z</time>
      </trkpt>
      <trkpt lat="37.5630240" lon="-4.3041680">
        <ele>534.2</ele>
        <time>2021-12-28T13:52:05Z</time>
      </trkpt>
      <trkpt lat="37.5630270" lon="-4.3041940">
        <ele>534.2</ele>
        <time>2021-12-28T13:52:06Z</time>
      </trkpt>
      <trkpt lat="37.5630270" lon="-4.3042180">
        <ele>534.4</ele>
        <time>2021-12-28T13:52:07Z</time>
      </trkpt>
      <trkpt lat="37.5630300" lon="-4.3042450">
        <ele>534.4</ele>
        <time>2021-12-28T13:52:08Z</time>
      </trkpt>
      <trkpt lat="37.5630300" lon="-4.3042720">
        <ele>534.4</ele>
        <time>2021-12-28T13:52:09Z</time>
      </trkpt>
      <trkpt lat="37.5630340" lon="-4.3042980">
        <ele>534.4</ele>
        <time>2021-12-28T13:52:10Z</time>
      </trkpt>
      <trkpt lat="37.5630340" lon="-4.3043230">
        <ele>534.4</ele>
        <time>2021-12-28T13:52:11Z</time>
      </trkpt>
      <trkpt lat="37.5630370" lon="-4.3043460">
        <ele>534.4</ele>
        <time>2021-12-28T13:52:12Z</time>
      </trkpt>
      <trkpt lat="37.5630430" lon="-4.3043700">
        <ele>534.4</ele>
        <time>2021-12-28T13:52:13Z</time>
      </trkpt>
      <trkpt lat="37.5630370" lon="-4.3043930">
        <ele>534.6</ele>
        <time>2021-12-28T13:52:14Z</time>
      </trkpt>
      <trkpt lat="37.5630370" lon="-4.3044180">
        <ele>534.6</ele>
        <time>2021-12-28T13:52:15Z</time>
      </trkpt>
      <trkpt lat="37.5630430" lon="-4.3044430">
        <ele>534.6</ele>
        <time>2021-12-28T13:52:16Z</time>
      </trkpt>
      <trkpt lat="37.5630430" lon="-4.3044680">
        <ele>534.8</ele>
        <time>2021-12-28T13:52:17Z</time>
      </trkpt>
      <trkpt lat="37.5630430" lon="-4.3044680">
        <ele>534.8</ele>
        <time>2021-12-28T13:52:18Z</time>
      </trkpt>
      <trkpt lat="37.5630460" lon="-4.3045140">
        <ele>534.8</ele>
        <time>2021-12-28T13:52:19Z</time>
      </trkpt>
      <trkpt lat="37.5630500" lon="-4.3045380">
        <ele>534.8</ele>
        <time>2021-12-28T13:52:20Z</time>
      </trkpt>
      <trkpt lat="37.5630500" lon="-4.3045670">
        <ele>534.8</ele>
        <time>2021-12-28T13:52:21Z</time>
      </trkpt>
      <trkpt lat="37.5630460" lon="-4.3045970">
        <ele>534.8</ele>
        <time>2021-12-28T13:52:22Z</time>
      </trkpt>
      <trkpt lat="37.5630460" lon="-4.3046250">
        <ele>535.0</ele>
        <time>2021-12-28T13:52:23Z</time>
      </trkpt>
      <trkpt lat="37.5630460" lon="-4.3046520">
        <ele>535.0</ele>
        <time>2021-12-28T13:52:24Z</time>
      </trkpt>
      <trkpt lat="37.5630430" lon="-4.3046760">
        <ele>535.0</ele>
        <time>2021-12-28T13:52:25Z</time>
      </trkpt>
      <trkpt lat="37.5630430" lon="-4.3047030">
        <ele>535.0</ele>
        <time>2021-12-28T13:52:26Z</time>
      </trkpt>
      <trkpt lat="37.5630430" lon="-4.3047330">
        <ele>535.0</ele>
        <time>2021-12-28T13:52:27Z</time>
      </trkpt>
      <trkpt lat="37.5630460" lon="-4.3047630">
        <ele>535.0</ele>
        <time>2021-12-28T13:52:28Z</time>
      </trkpt>
      <trkpt lat="37.5630460" lon="-4.3047900">
        <ele>535.0</ele>
        <time>2021-12-28T13:52:29Z</time>
      </trkpt>
      <trkpt lat="37.5630460" lon="-4.3048170">
        <ele>535.2</ele>
        <time>2021-12-28T13:52:30Z</time>
      </trkpt>
      <trkpt lat="37.5630460" lon="-4.3048470">
        <ele>535.2</ele>
        <time>2021-12-28T13:52:31Z</time>
      </trkpt>
      <trkpt lat="37.5630460" lon="-4.3048800">
        <ele>535.2</ele>
        <time>2021-12-28T13:52:32Z</time>
      </trkpt>
      <trkpt lat="37.5630430" lon="-4.3049100">
        <ele>535.2</ele>
        <time>2021-12-28T13:52:33Z</time>
      </trkpt>
      <trkpt lat="37.5630430" lon="-4.3049400">
        <ele>535.2</ele>
        <time>2021-12-28T13:52:34Z</time>
      </trkpt>
      <trkpt lat="37.5630370" lon="-4.3049680">
        <ele>535.2</ele>
        <time>2021-12-28T13:52:35Z</time>
      </trkpt>
      <trkpt lat="37.5630340" lon="-4.3049980">
        <ele>535.2</ele>
        <time>2021-12-28T13:52:36Z</time>
      </trkpt>
      <trkpt lat="37.5630300" lon="-4.3050280">
        <ele>535.2</ele>
        <time>2021-12-28T13:52:37Z</time>
      </trkpt>
      <trkpt lat="37.5630270" lon="-4.3050600">
        <ele>535.2</ele>
        <time>2021-12-28T13:52:38Z</time>
      </trkpt>
      <trkpt lat="37.5630270" lon="-4.3050930">
        <ele>535.2</ele>
        <time>2021-12-28T13:52:39Z</time>
      </trkpt>
      <trkpt lat="37.5630270" lon="-4.3051250">
        <ele>535.2</ele>
        <time>2021-12-28T13:52:40Z</time>
      </trkpt>
      <trkpt lat="37.5630270" lon="-4.3051520">
        <ele>535.2</ele>
        <time>2021-12-28T13:52:41Z</time>
      </trkpt>
      <trkpt lat="37.5630240" lon="-4.3051800">
        <ele>535.2</ele>
        <time>2021-12-28T13:52:42Z</time>
      </trkpt>
      <trkpt lat="37.5630240" lon="-4.3052080">
        <ele>535.2</ele>
        <time>2021-12-28T13:52:43Z</time>
      </trkpt>
      <trkpt lat="37.5630180" lon="-4.3052370">
        <ele>535.4</ele>
        <time>2021-12-28T13:52:44Z</time>
      </trkpt>
      <trkpt lat="37.5630180" lon="-4.3052680">
        <ele>535.4</ele>
        <time>2021-12-28T13:52:45Z</time>
      </trkpt>
      <trkpt lat="37.5630140" lon="-4.3052980">
        <ele>535.4</ele>
        <time>2021-12-28T13:52:46Z</time>
      </trkpt>
      <trkpt lat="37.5630140" lon="-4.3053280">
        <ele>535.4</ele>
        <time>2021-12-28T13:52:47Z</time>
      </trkpt>
      <trkpt lat="37.5630110" lon="-4.3053580">
        <ele>535.6</ele>
        <time>2021-12-28T13:52:48Z</time>
      </trkpt>
      <trkpt lat="37.5630110" lon="-4.3053880">
        <ele>535.6</ele>
        <time>2021-12-28T13:52:49Z</time>
      </trkpt>
      <trkpt lat="37.5630080" lon="-4.3054180">
        <ele>535.6</ele>
        <time>2021-12-28T13:52:50Z</time>
      </trkpt>
      <trkpt lat="37.5630080" lon="-4.3054480">
        <ele>535.6</ele>
        <time>2021-12-28T13:52:51Z</time>
      </trkpt>
      <trkpt lat="37.5630050" lon="-4.3054780">
        <ele>535.6</ele>
        <time>2021-12-28T13:52:52Z</time>
      </trkpt>
      <trkpt lat="37.5630050" lon="-4.3055080">
        <ele>535.6</ele>
        <time>2021-12-28T13:52:53Z</time>
      </trkpt>
      <trkpt lat="37.5629980" lon="-4.3055400">
        <ele>535.6</ele>
        <time>2021-12-28T13:52:54Z</time>
      </trkpt>
      <trkpt lat="37.5629980" lon="-4.3055700">
        <ele>535.6</ele>
        <time>2021-12-28T13:52:55Z</time>
      </trkpt>
      <trkpt lat="37.5629950" lon="-4.3056020">
        <ele>535.8</ele>
        <time>2021-12-28T13:52:56Z</time>
      </trkpt>
      <trkpt lat="37.5629950" lon="-4.3056340">
        <ele>535.8</ele>
        <time>2021-12-28T13:52:57Z</time>
      </trkpt>
      <trkpt lat="37.5629890" lon="-4.3056650">
        <ele>535.8</ele>
        <time>2021-12-28T13:52:58Z</time>
      </trkpt>
      <trkpt lat="37.5629860" lon="-4.3056960">
        <ele>536.0</ele>
        <time>2021-12-28T13:52:59Z</time>
      </trkpt>
      <trkpt lat="37.5629760" lon="-4.3057260">
        <ele>536.0</ele>
        <time>2021-12-28T13:53:00Z</time>
      </trkpt>
      <trkpt lat="37.5629700" lon="-4.3057560">
        <ele>536.0</ele>
        <time>2021-12-28T13:53:01Z</time>
      </trkpt>
      <trkpt lat="37.5629660" lon="-4.3057850">
        <ele>536.0</ele>
        <time>2021-12-28T13:53:02Z</time>
      </trkpt>
      <trkpt lat="37.5629600" lon="-4.3058130">
        <ele>535.8</ele>
        <time>2021-12-28T13:53:03Z</time>
      </trkpt>
      <trkpt lat="37.5629570" lon="-4.3058430">
        <ele>535.8</ele>
        <time>2021-12-28T13:53:04Z</time>
      </trkpt>
      <trkpt lat="37.5629500" lon="-4.3058730">
        <ele>535.8</ele>
        <time>2021-12-28T13:53:05Z</time>
      </trkpt>
      <trkpt lat="37.5629470" lon="-4.3059040">
        <ele>535.6</ele>
        <time>2021-12-28T13:53:06Z</time>
      </trkpt>
      <trkpt lat="37.5629380" lon="-4.3059340">
        <ele>535.6</ele>
        <time>2021-12-28T13:53:07Z</time>
      </trkpt>
      <trkpt lat="37.5629340" lon="-4.3059640">
        <ele>535.8</ele>
        <time>2021-12-28T13:53:08Z</time>
      </trkpt>
      <trkpt lat="37.5629340" lon="-4.3059920">
        <ele>535.8</ele>
        <time>2021-12-28T13:53:09Z</time>
      </trkpt>
      <trkpt lat="37.5629310" lon="-4.3060200">
        <ele>535.8</ele>
        <time>2021-12-28T13:53:10Z</time>
      </trkpt>
      <trkpt lat="37.5629250" lon="-4.3060500">
        <ele>536.0</ele>
        <time>2021-12-28T13:53:11Z</time>
      </trkpt>
      <trkpt lat="37.5629150" lon="-4.3060820">
        <ele>536.0</ele>
        <time>2021-12-28T13:53:12Z</time>
      </trkpt>
      <trkpt lat="37.5629090" lon="-4.3061120">
        <ele>536.0</ele>
        <time>2021-12-28T13:53:13Z</time>
      </trkpt>
      <trkpt lat="37.5629060" lon="-4.3061420">
        <ele>536.0</ele>
        <time>2021-12-28T13:53:14Z</time>
      </trkpt>
      <trkpt lat="37.5628960" lon="-4.3061700">
        <ele>536.0</ele>
        <time>2021-12-28T13:53:15Z</time>
      </trkpt>
      <trkpt lat="37.5628960" lon="-4.3062000">
        <ele>536.0</ele>
        <time>2021-12-28T13:53:16Z</time>
      </trkpt>
      <trkpt lat="37.5628900" lon="-4.3062320">
        <ele>536.0</ele>
        <time>2021-12-28T13:53:17Z</time>
      </trkpt>
      <trkpt lat="37.5628800" lon="-4.3062600">
        <ele>536.0</ele>
        <time>2021-12-28T13:53:18Z</time>
      </trkpt>
      <trkpt lat="37.5628770" lon="-4.3062900">
        <ele>536.2</ele>
        <time>2021-12-28T13:53:19Z</time>
      </trkpt>
      <trkpt lat="37.5628700" lon="-4.3063180">
        <ele>536.4</ele>
        <time>2021-12-28T13:53:20Z</time>
      </trkpt>
      <trkpt lat="37.5628670" lon="-4.3063480">
        <ele>536.4</ele>
        <time>2021-12-28T13:53:21Z</time>
      </trkpt>
      <trkpt lat="37.5628540" lon="-4.3063800">
        <ele>536.6</ele>
        <time>2021-12-28T13:53:22Z</time>
      </trkpt>
      <trkpt lat="37.5628450" lon="-4.3064080">
        <ele>536.6</ele>
        <time>2021-12-28T13:53:23Z</time>
      </trkpt>
      <trkpt lat="37.5628350" lon="-4.3064380">
        <ele>536.6</ele>
        <time>2021-12-28T13:53:24Z</time>
      </trkpt>
      <trkpt lat="37.5628290" lon="-4.3064680">
        <ele>536.8</ele>
        <time>2021-12-28T13:53:25Z</time>
      </trkpt>
      <trkpt lat="37.5628190" lon="-4.3064980">
        <ele>536.8</ele>
        <time>2021-12-28T13:53:26Z</time>
      </trkpt>
      <trkpt lat="37.5628100" lon="-4.3065280">
        <ele>536.8</ele>
        <time>2021-12-28T13:53:27Z</time>
      </trkpt>
      <trkpt lat="37.5628000" lon="-4.3065580">
        <ele>536.8</ele>
        <time>2021-12-28T13:53:28Z</time>
      </trkpt>
      <trkpt lat="37.5627970" lon="-4.3065870">
        <ele>536.8</ele>
        <time>2021-12-28T13:53:29Z</time>
      </trkpt>
      <trkpt lat="37.5627900" lon="-4.3066120">
        <ele>536.8</ele>
        <time>2021-12-28T13:53:30Z</time>
      </trkpt>
      <trkpt lat="37.5627810" lon="-4.3066380">
        <ele>537.0</ele>
        <time>2021-12-28T13:53:31Z</time>
      </trkpt>
      <trkpt lat="37.5627780" lon="-4.3066640">
        <ele>537.0</ele>
        <time>2021-12-28T13:53:32Z</time>
      </trkpt>
      <trkpt lat="37.5627650" lon="-4.3066880">
        <ele>537.0</ele>
        <time>2021-12-28T13:53:33Z</time>
      </trkpt>
      <trkpt lat="37.5627490" lon="-4.3067150">
        <ele>537.2</ele>
        <time>2021-12-28T13:53:34Z</time>
      </trkpt>
      <trkpt lat="37.5627360" lon="-4.3067460">
        <ele>537.2</ele>
        <time>2021-12-28T13:53:35Z</time>
      </trkpt>
      <trkpt lat="37.5627300" lon="-4.3067750">
        <ele>537.2</ele>
        <time>2021-12-28T13:53:36Z</time>
      </trkpt>
      <trkpt lat="37.5627200" lon="-4.3068050">
        <ele>537.2</ele>
        <time>2021-12-28T13:53:37Z</time>
      </trkpt>
      <trkpt lat="37.5627100" lon="-4.3068350">
        <ele>537.2</ele>
        <time>2021-12-28T13:53:38Z</time>
      </trkpt>
      <trkpt lat="37.5627070" lon="-4.3068650">
        <ele>537.4</ele>
        <time>2021-12-28T13:53:39Z</time>
      </trkpt>
      <trkpt lat="37.5626940" lon="-4.3068970">
        <ele>537.6</ele>
        <time>2021-12-28T13:53:40Z</time>
      </trkpt>
      <trkpt lat="37.5626820" lon="-4.3069270">
        <ele>537.6</ele>
        <time>2021-12-28T13:53:41Z</time>
      </trkpt>
      <trkpt lat="37.5626720" lon="-4.3069570">
        <ele>537.8</ele>
        <time>2021-12-28T13:53:42Z</time>
      </trkpt>
      <trkpt lat="37.5626590" lon="-4.3069870">
        <ele>537.8</ele>
        <time>2021-12-28T13:53:43Z</time>
      </trkpt>
      <trkpt lat="37.5626500" lon="-4.3070170">
        <ele>538.0</ele>
        <time>2021-12-28T13:53:44Z</time>
      </trkpt>
      <trkpt lat="37.5626370" lon="-4.3070470">
        <ele>538.0</ele>
        <time>2021-12-28T13:53:45Z</time>
      </trkpt>
      <trkpt lat="37.5626270" lon="-4.3070780">
        <ele>538.2</ele>
        <time>2021-12-28T13:53:46Z</time>
      </trkpt>
      <trkpt lat="37.5626180" lon="-4.3071060">
        <ele>538.2</ele>
        <time>2021-12-28T13:53:47Z</time>
      </trkpt>
      <trkpt lat="37.5626080" lon="-4.3071350">
        <ele>538.4</ele>
        <time>2021-12-28T13:53:48Z</time>
      </trkpt>
      <trkpt lat="37.5625950" lon="-4.3071620">
        <ele>538.4</ele>
        <time>2021-12-28T13:53:49Z</time>
      </trkpt>
      <trkpt lat="37.5625820" lon="-4.3071900">
        <ele>538.4</ele>
        <time>2021-12-28T13:53:50Z</time>
      </trkpt>
      <trkpt lat="37.5625730" lon="-4.3072200">
        <ele>538.4</ele>
        <time>2021-12-28T13:53:51Z</time>
      </trkpt>
      <trkpt lat="37.5625660" lon="-4.3072500">
        <ele>538.6</ele>
        <time>2021-12-28T13:53:52Z</time>
      </trkpt>
      <trkpt lat="37.5625570" lon="-4.3072800">
        <ele>538.6</ele>
        <time>2021-12-28T13:53:53Z</time>
      </trkpt>
      <trkpt lat="37.5625470" lon="-4.3073080">
        <ele>538.6</ele>
        <time>2021-12-28T13:53:54Z</time>
      </trkpt>
      <trkpt lat="37.5625340" lon="-4.3073370">
        <ele>538.6</ele>
        <time>2021-12-28T13:53:55Z</time>
      </trkpt>
      <trkpt lat="37.5625220" lon="-4.3073650">
        <ele>538.6</ele>
        <time>2021-12-28T13:53:56Z</time>
      </trkpt>
      <trkpt lat="37.5625120" lon="-4.3073920">
        <ele>538.8</ele>
        <time>2021-12-28T13:53:57Z</time>
      </trkpt>
      <trkpt lat="37.5624990" lon="-4.3074200">
        <ele>538.8</ele>
        <time>2021-12-28T13:53:58Z</time>
      </trkpt>
      <trkpt lat="37.5624830" lon="-4.3074480">
        <ele>538.8</ele>
        <time>2021-12-28T13:53:59Z</time>
      </trkpt>
      <trkpt lat="37.5624740" lon="-4.3074800">
        <ele>538.8</ele>
        <time>2021-12-28T13:54:00Z</time>
      </trkpt>
      <trkpt lat="37.5624610" lon="-4.3075100">
        <ele>538.8</ele>
        <time>2021-12-28T13:54:01Z</time>
      </trkpt>
      <trkpt lat="37.5624480" lon="-4.3075400">
        <ele>539.0</ele>
        <time>2021-12-28T13:54:02Z</time>
      </trkpt>
      <trkpt lat="37.5624320" lon="-4.3075700">
        <ele>539.0</ele>
        <time>2021-12-28T13:54:03Z</time>
      </trkpt>
      <trkpt lat="37.5624190" lon="-4.3076030">
        <ele>539.2</ele>
        <time>2021-12-28T13:54:04Z</time>
      </trkpt>
      <trkpt lat="37.5624030" lon="-4.3076350">
        <ele>539.2</ele>
        <time>2021-12-28T13:54:05Z</time>
      </trkpt>
      <trkpt lat="37.5623900" lon="-4.3076650">
        <ele>539.2</ele>
        <time>2021-12-28T13:54:06Z</time>
      </trkpt>
      <trkpt lat="37.5623740" lon="-4.3076940">
        <ele>539.2</ele>
        <time>2021-12-28T13:54:07Z</time>
      </trkpt>
      <trkpt lat="37.5623620" lon="-4.3077240">
        <ele>539.2</ele>
        <time>2021-12-28T13:54:08Z</time>
      </trkpt>
      <trkpt lat="37.5623490" lon="-4.3077520">
        <ele>539.2</ele>
        <time>2021-12-28T13:54:09Z</time>
      </trkpt>
      <trkpt lat="37.5623330" lon="-4.3077830">
        <ele>539.4</ele>
        <time>2021-12-28T13:54:10Z</time>
      </trkpt>
      <trkpt lat="37.5623170" lon="-4.3078130">
        <ele>539.4</ele>
        <time>2021-12-28T13:54:11Z</time>
      </trkpt>
      <trkpt lat="37.5622980" lon="-4.3078430">
        <ele>539.4</ele>
        <time>2021-12-28T13:54:12Z</time>
      </trkpt>
      <trkpt lat="37.5622750" lon="-4.3078720">
        <ele>539.4</ele>
        <time>2021-12-28T13:54:13Z</time>
      </trkpt>
      <trkpt lat="37.5622590" lon="-4.3079030">
        <ele>539.4</ele>
        <time>2021-12-28T13:54:14Z</time>
      </trkpt>
      <trkpt lat="37.5622400" lon="-4.3079330">
        <ele>539.4</ele>
        <time>2021-12-28T13:54:15Z</time>
      </trkpt>
      <trkpt lat="37.5622240" lon="-4.3079630">
        <ele>539.4</ele>
        <time>2021-12-28T13:54:16Z</time>
      </trkpt>
      <trkpt lat="37.5622110" lon="-4.3079950">
        <ele>539.4</ele>
        <time>2021-12-28T13:54:17Z</time>
      </trkpt>
      <trkpt lat="37.5621920" lon="-4.3080300">
        <ele>539.4</ele>
        <time>2021-12-28T13:54:18Z</time>
      </trkpt>
      <trkpt lat="37.5621730" lon="-4.3080580">
        <ele>539.4</ele>
        <time>2021-12-28T13:54:19Z</time>
      </trkpt>
      <trkpt lat="37.5621570" lon="-4.3080870">
        <ele>539.4</ele>
        <time>2021-12-28T13:54:20Z</time>
      </trkpt>
      <trkpt lat="37.5621380" lon="-4.3081150">
        <ele>539.6</ele>
        <time>2021-12-28T13:54:21Z</time>
      </trkpt>
      <trkpt lat="37.5621220" lon="-4.3081450">
        <ele>539.6</ele>
        <time>2021-12-28T13:54:22Z</time>
      </trkpt>
      <trkpt lat="37.5621020" lon="-4.3081750">
        <ele>539.6</ele>
        <time>2021-12-28T13:54:23Z</time>
      </trkpt>
      <trkpt lat="37.5620930" lon="-4.3082030">
        <ele>539.8</ele>
        <time>2021-12-28T13:54:24Z</time>
      </trkpt>
      <trkpt lat="37.5620740" lon="-4.3082300">
        <ele>539.8</ele>
        <time>2021-12-28T13:54:25Z</time>
      </trkpt>
      <trkpt lat="37.5620540" lon="-4.3082620">
        <ele>540.0</ele>
        <time>2021-12-28T13:54:26Z</time>
      </trkpt>
      <trkpt lat="37.5620350" lon="-4.3082930">
        <ele>540.0</ele>
        <time>2021-12-28T13:54:27Z</time>
      </trkpt>
      <trkpt lat="37.5620160" lon="-4.3083250">
        <ele>540.2</ele>
        <time>2021-12-28T13:54:28Z</time>
      </trkpt>
      <trkpt lat="37.5619970" lon="-4.3083580">
        <ele>540.2</ele>
        <time>2021-12-28T13:54:29Z</time>
      </trkpt>
      <trkpt lat="37.5619780" lon="-4.3083920">
        <ele>540.2</ele>
        <time>2021-12-28T13:54:30Z</time>
      </trkpt>
      <trkpt lat="37.5619580" lon="-4.3084240">
        <ele>540.2</ele>
        <time>2021-12-28T13:54:31Z</time>
      </trkpt>
      <trkpt lat="37.5619420" lon="-4.3084520">
        <ele>540.2</ele>
        <time>2021-12-28T13:54:32Z</time>
      </trkpt>
      <trkpt lat="37.5619230" lon="-4.3084820">
        <ele>540.2</ele>
        <time>2021-12-28T13:54:33Z</time>
      </trkpt>
      <trkpt lat="37.5619010" lon="-4.3085130">
        <ele>540.2</ele>
        <time>2021-12-28T13:54:34Z</time>
      </trkpt>
      <trkpt lat="37.5618780" lon="-4.3085450">
        <ele>540.2</ele>
        <time>2021-12-28T13:54:35Z</time>
      </trkpt>
      <trkpt lat="37.5618590" lon="-4.3085750">
        <ele>540.2</ele>
        <time>2021-12-28T13:54:36Z</time>
      </trkpt>
      <trkpt lat="37.5618430" lon="-4.3086050">
        <ele>540.2</ele>
        <time>2021-12-28T13:54:37Z</time>
      </trkpt>
      <trkpt lat="37.5618240" lon="-4.3086370">
        <ele>540.2</ele>
        <time>2021-12-28T13:54:38Z</time>
      </trkpt>
      <trkpt lat="37.5618020" lon="-4.3086650">
        <ele>540.2</ele>
        <time>2021-12-28T13:54:39Z</time>
      </trkpt>
      <trkpt lat="37.5617820" lon="-4.3086940">
        <ele>540.2</ele>
        <time>2021-12-28T13:54:40Z</time>
      </trkpt>
      <trkpt lat="37.5617630" lon="-4.3087220">
        <ele>540.0</ele>
        <time>2021-12-28T13:54:41Z</time>
      </trkpt>
      <trkpt lat="37.5617470" lon="-4.3087480">
        <ele>540.0</ele>
        <time>2021-12-28T13:54:42Z</time>
      </trkpt>
      <trkpt lat="37.5617280" lon="-4.3087750">
        <ele>540.0</ele>
        <time>2021-12-28T13:54:43Z</time>
      </trkpt>
      <trkpt lat="37.5617150" lon="-4.3088000">
        <ele>539.8</ele>
        <time>2021-12-28T13:54:44Z</time>
      </trkpt>
      <trkpt lat="37.5616960" lon="-4.3088260">
        <ele>539.8</ele>
        <time>2021-12-28T13:54:45Z</time>
      </trkpt>
      <trkpt lat="37.5616770" lon="-4.3088560">
        <ele>540.0</ele>
        <time>2021-12-28T13:54:46Z</time>
      </trkpt>
      <trkpt lat="37.5616580" lon="-4.3088850">
        <ele>540.0</ele>
        <time>2021-12-28T13:54:47Z</time>
      </trkpt>
      <trkpt lat="37.5616420" lon="-4.3089100">
        <ele>540.0</ele>
        <time>2021-12-28T13:54:48Z</time>
      </trkpt>
      <trkpt lat="37.5616220" lon="-4.3089350">
        <ele>540.2</ele>
        <time>2021-12-28T13:54:49Z</time>
      </trkpt>
      <trkpt lat="37.5616060" lon="-4.3089570">
        <ele>540.2</ele>
        <time>2021-12-28T13:54:50Z</time>
      </trkpt>
      <trkpt lat="37.5615870" lon="-4.3089800">
        <ele>540.4</ele>
        <time>2021-12-28T13:54:51Z</time>
      </trkpt>
      <trkpt lat="37.5615680" lon="-4.3090020">
        <ele>540.4</ele>
        <time>2021-12-28T13:54:52Z</time>
      </trkpt>
      <trkpt lat="37.5615490" lon="-4.3090230">
        <ele>540.4</ele>
        <time>2021-12-28T13:54:53Z</time>
      </trkpt>
      <trkpt lat="37.5615360" lon="-4.3090450">
        <ele>540.6</ele>
        <time>2021-12-28T13:54:54Z</time>
      </trkpt>
      <trkpt lat="37.5615200" lon="-4.3090680">
        <ele>540.6</ele>
        <time>2021-12-28T13:54:55Z</time>
      </trkpt>
      <trkpt lat="37.5615010" lon="-4.3090900">
        <ele>540.8</ele>
        <time>2021-12-28T13:54:56Z</time>
      </trkpt>
      <trkpt lat="37.5614820" lon="-4.3091100">
        <ele>540.8</ele>
        <time>2021-12-28T13:54:57Z</time>
      </trkpt>
      <trkpt lat="37.5614590" lon="-4.3091300">
        <ele>540.8</ele>
        <time>2021-12-28T13:54:58Z</time>
      </trkpt>
      <trkpt lat="37.5614430" lon="-4.3091500">
        <ele>540.8</ele>
        <time>2021-12-28T13:54:59Z</time>
      </trkpt>
      <trkpt lat="37.5614210" lon="-4.3091700">
        <ele>540.8</ele>
        <time>2021-12-28T13:55:00Z</time>
      </trkpt>
      <trkpt lat="37.5614020" lon="-4.3091920">
        <ele>540.8</ele>
        <time>2021-12-28T13:55:01Z</time>
      </trkpt>
      <trkpt lat="37.5613790" lon="-4.3092130">
        <ele>540.8</ele>
        <time>2021-12-28T13:55:02Z</time>
      </trkpt>
      <trkpt lat="37.5613600" lon="-4.3092350">
        <ele>540.8</ele>
        <time>2021-12-28T13:55:03Z</time>
      </trkpt>
      <trkpt lat="37.5613380" lon="-4.3092550">
        <ele>540.6</ele>
        <time>2021-12-28T13:55:04Z</time>
      </trkpt>
      <trkpt lat="37.5613250" lon="-4.3092730">
        <ele>540.6</ele>
        <time>2021-12-28T13:55:05Z</time>
      </trkpt>
      <trkpt lat="37.5613060" lon="-4.3092920">
        <ele>540.6</ele>
        <time>2021-12-28T13:55:06Z</time>
      </trkpt>
      <trkpt lat="37.5612860" lon="-4.3093120">
        <ele>540.6</ele>
        <time>2021-12-28T13:55:07Z</time>
      </trkpt>
      <trkpt lat="37.5612640" lon="-4.3093320">
        <ele>540.8</ele>
        <time>2021-12-28T13:55:08Z</time>
      </trkpt>
      <trkpt lat="37.5612380" lon="-4.3093520">
        <ele>540.6</ele>
        <time>2021-12-28T13:55:09Z</time>
      </trkpt>
      <trkpt lat="37.5612160" lon="-4.3093670">
        <ele>540.8</ele>
        <time>2021-12-28T13:55:10Z</time>
      </trkpt>
      <trkpt lat="37.5611900" lon="-4.3093850">
        <ele>540.8</ele>
        <time>2021-12-28T13:55:11Z</time>
      </trkpt>
      <trkpt lat="37.5611710" lon="-4.3094050">
        <ele>540.8</ele>
        <time>2021-12-28T13:55:12Z</time>
      </trkpt>
      <trkpt lat="37.5611520" lon="-4.3094250">
        <ele>541.0</ele>
        <time>2021-12-28T13:55:13Z</time>
      </trkpt>
      <trkpt lat="37.5611330" lon="-4.3094450">
        <ele>541.0</ele>
        <time>2021-12-28T13:55:14Z</time>
      </trkpt>
      <trkpt lat="37.5611100" lon="-4.3094650">
        <ele>541.0</ele>
        <time>2021-12-28T13:55:15Z</time>
      </trkpt>
      <trkpt lat="37.5610910" lon="-4.3094840">
        <ele>541.0</ele>
        <time>2021-12-28T13:55:16Z</time>
      </trkpt>
      <trkpt lat="37.5610690" lon="-4.3095040">
        <ele>541.0</ele>
        <time>2021-12-28T13:55:17Z</time>
      </trkpt>
      <trkpt lat="37.5610500" lon="-4.3095220">
        <ele>541.0</ele>
        <time>2021-12-28T13:55:18Z</time>
      </trkpt>
      <trkpt lat="37.5610300" lon="-4.3095380">
        <ele>541.0</ele>
        <time>2021-12-28T13:55:19Z</time>
      </trkpt>
      <trkpt lat="37.5610080" lon="-4.3095530">
        <ele>541.2</ele>
        <time>2021-12-28T13:55:20Z</time>
      </trkpt>
      <trkpt lat="37.5609890" lon="-4.3095700">
        <ele>541.2</ele>
        <time>2021-12-28T13:55:21Z</time>
      </trkpt>
      <trkpt lat="37.5609700" lon="-4.3095830">
        <ele>541.4</ele>
        <time>2021-12-28T13:55:22Z</time>
      </trkpt>
      <trkpt lat="37.5609500" lon="-4.3096000">
        <ele>541.4</ele>
        <time>2021-12-28T13:55:23Z</time>
      </trkpt>
      <trkpt lat="37.5609310" lon="-4.3096150">
        <ele>541.6</ele>
        <time>2021-12-28T13:55:24Z</time>
      </trkpt>
      <trkpt lat="37.5609120" lon="-4.3096330">
        <ele>541.8</ele>
        <time>2021-12-28T13:55:25Z</time>
      </trkpt>
      <trkpt lat="37.5608900" lon="-4.3096470">
        <ele>541.8</ele>
        <time>2021-12-28T13:55:26Z</time>
      </trkpt>
      <trkpt lat="37.5608700" lon="-4.3096620">
        <ele>542.0</ele>
        <time>2021-12-28T13:55:27Z</time>
      </trkpt>
      <trkpt lat="37.5608480" lon="-4.3096780">
        <ele>542.0</ele>
        <time>2021-12-28T13:55:28Z</time>
      </trkpt>
      <trkpt lat="37.5608290" lon="-4.3096950">
        <ele>542.0</ele>
        <time>2021-12-28T13:55:29Z</time>
      </trkpt>
      <trkpt lat="37.5608060" lon="-4.3097100">
        <ele>542.0</ele>
        <time>2021-12-28T13:55:30Z</time>
      </trkpt>
      <trkpt lat="37.5607840" lon="-4.3097250">
        <ele>542.0</ele>
        <time>2021-12-28T13:55:31Z</time>
      </trkpt>
      <trkpt lat="37.5607620" lon="-4.3097400">
        <ele>542.2</ele>
        <time>2021-12-28T13:55:32Z</time>
      </trkpt>
      <trkpt lat="37.5607390" lon="-4.3097540">
        <ele>542.2</ele>
        <time>2021-12-28T13:55:33Z</time>
      </trkpt>
      <trkpt lat="37.5607200" lon="-4.3097680">
        <ele>542.2</ele>
        <time>2021-12-28T13:55:34Z</time>
      </trkpt>
      <trkpt lat="37.5606940" lon="-4.3097820">
        <ele>542.2</ele>
        <time>2021-12-28T13:55:35Z</time>
      </trkpt>
      <trkpt lat="37.5606720" lon="-4.3097970">
        <ele>542.2</ele>
        <time>2021-12-28T13:55:36Z</time>
      </trkpt>
      <trkpt lat="37.5606530" lon="-4.3098100">
        <ele>542.2</ele>
        <time>2021-12-28T13:55:37Z</time>
      </trkpt>
      <trkpt lat="37.5606340" lon="-4.3098250">
        <ele>542.2</ele>
        <time>2021-12-28T13:55:38Z</time>
      </trkpt>
      <trkpt lat="37.5606110" lon="-4.3098380">
        <ele>542.2</ele>
        <time>2021-12-28T13:55:39Z</time>
      </trkpt>
      <trkpt lat="37.5605890" lon="-4.3098540">
        <ele>542.2</ele>
        <time>2021-12-28T13:55:40Z</time>
      </trkpt>
      <trkpt lat="37.5605700" lon="-4.3098680">
        <ele>542.2</ele>
        <time>2021-12-28T13:55:41Z</time>
      </trkpt>
      <trkpt lat="37.5605470" lon="-4.3098850">
        <ele>542.0</ele>
        <time>2021-12-28T13:55:42Z</time>
      </trkpt>
      <trkpt lat="37.5605250" lon="-4.3098960">
        <ele>542.0</ele>
        <time>2021-12-28T13:55:43Z</time>
      </trkpt>
      <trkpt lat="37.5604960" lon="-4.3099080">
        <ele>542.0</ele>
        <time>2021-12-28T13:55:44Z</time>
      </trkpt>
      <trkpt lat="37.5604740" lon="-4.3099220">
        <ele>542.0</ele>
        <time>2021-12-28T13:55:45Z</time>
      </trkpt>
      <trkpt lat="37.5604510" lon="-4.3099350">
        <ele>541.8</ele>
        <time>2021-12-28T13:55:46Z</time>
      </trkpt>
      <trkpt lat="37.5604290" lon="-4.3099480">
        <ele>541.8</ele>
        <time>2021-12-28T13:55:47Z</time>
      </trkpt>
      <trkpt lat="37.5604060" lon="-4.3099600">
        <ele>541.8</ele>
        <time>2021-12-28T13:55:48Z</time>
      </trkpt>
      <trkpt lat="37.5603840" lon="-4.3099720">
        <ele>541.8</ele>
        <time>2021-12-28T13:55:49Z</time>
      </trkpt>
      <trkpt lat="37.5603580" lon="-4.3099820">
        <ele>541.6</ele>
        <time>2021-12-28T13:55:50Z</time>
      </trkpt>
      <trkpt lat="37.5603360" lon="-4.3099930">
        <ele>541.6</ele>
        <time>2021-12-28T13:55:51Z</time>
      </trkpt>
      <trkpt lat="37.5603140" lon="-4.3100030">
        <ele>541.4</ele>
        <time>2021-12-28T13:55:52Z</time>
      </trkpt>
      <trkpt lat="37.5602940" lon="-4.3100130">
        <ele>541.4</ele>
        <time>2021-12-28T13:55:53Z</time>
      </trkpt>
      <trkpt lat="37.5602720" lon="-4.3100230">
        <ele>541.4</ele>
        <time>2021-12-28T13:55:54Z</time>
      </trkpt>
      <trkpt lat="37.5602530" lon="-4.3100330">
        <ele>541.2</ele>
        <time>2021-12-28T13:55:55Z</time>
      </trkpt>
      <trkpt lat="37.5602340" lon="-4.3100420">
        <ele>541.2</ele>
        <time>2021-12-28T13:55:56Z</time>
      </trkpt>
      <trkpt lat="37.5602140" lon="-4.3100480">
        <ele>541.2</ele>
        <time>2021-12-28T13:55:57Z</time>
      </trkpt>
      <trkpt lat="37.5601920" lon="-4.3100550">
        <ele>541.2</ele>
        <time>2021-12-28T13:55:58Z</time>
      </trkpt>
      <trkpt lat="37.5601730" lon="-4.3100620">
        <ele>541.2</ele>
        <time>2021-12-28T13:55:59Z</time>
      </trkpt>
      <trkpt lat="37.5601540" lon="-4.3100720">
        <ele>541.2</ele>
        <time>2021-12-28T13:56:00Z</time>
      </trkpt>
      <trkpt lat="37.5601340" lon="-4.3100820">
        <ele>541.0</ele>
        <time>2021-12-28T13:56:01Z</time>
      </trkpt>
      <trkpt lat="37.5601120" lon="-4.3100900">
        <ele>541.0</ele>
        <time>2021-12-28T13:56:02Z</time>
      </trkpt>
      <trkpt lat="37.5600930" lon="-4.3100970">
        <ele>541.0</ele>
        <time>2021-12-28T13:56:03Z</time>
      </trkpt>
      <trkpt lat="37.5600700" lon="-4.3101050">
        <ele>541.0</ele>
        <time>2021-12-28T13:56:04Z</time>
      </trkpt>
      <trkpt lat="37.5600510" lon="-4.3101140">
        <ele>541.0</ele>
        <time>2021-12-28T13:56:05Z</time>
      </trkpt>
      <trkpt lat="37.5600290" lon="-4.3101240">
        <ele>541.0</ele>
        <time>2021-12-28T13:56:06Z</time>
      </trkpt>
      <trkpt lat="37.5600100" lon="-4.3101320">
        <ele>541.0</ele>
        <time>2021-12-28T13:56:07Z</time>
      </trkpt>
      <trkpt lat="37.5599870" lon="-4.3101400">
        <ele>541.0</ele>
        <time>2021-12-28T13:56:08Z</time>
      </trkpt>
      <trkpt lat="37.5599650" lon="-4.3101450">
        <ele>540.8</ele>
        <time>2021-12-28T13:56:09Z</time>
      </trkpt>
      <trkpt lat="37.5599460" lon="-4.3101500">
        <ele>540.8</ele>
        <time>2021-12-28T13:56:10Z</time>
      </trkpt>
      <trkpt lat="37.5599260" lon="-4.3101550">
        <ele>540.8</ele>
        <time>2021-12-28T13:56:11Z</time>
      </trkpt>
      <trkpt lat="37.5599010" lon="-4.3101650">
        <ele>541.0</ele>
        <time>2021-12-28T13:56:12Z</time>
      </trkpt>
      <trkpt lat="37.5598780" lon="-4.3101720">
        <ele>541.0</ele>
        <time>2021-12-28T13:56:13Z</time>
      </trkpt>
      <trkpt lat="37.5598590" lon="-4.3101770">
        <ele>541.2</ele>
        <time>2021-12-28T13:56:14Z</time>
      </trkpt>
      <trkpt lat="37.5598400" lon="-4.3101800">
        <ele>541.2</ele>
        <time>2021-12-28T13:56:15Z</time>
      </trkpt>
      <trkpt lat="37.5598400" lon="-4.3101800">
        <ele>541.4</ele>
        <time>2021-12-28T13:56:16Z</time>
      </trkpt>
      <trkpt lat="37.5598080" lon="-4.3101870">
        <ele>541.4</ele>
        <time>2021-12-28T13:56:17Z</time>
      </trkpt>
      <trkpt lat="37.5598080" lon="-4.3101870">
        <ele>541.6</ele>
        <time>2021-12-28T13:56:18Z</time>
      </trkpt>
      <trkpt lat="37.5597760" lon="-4.3101950">
        <ele>541.6</ele>
        <time>2021-12-28T13:56:19Z</time>
      </trkpt>
      <trkpt lat="37.5597570" lon="-4.3101970">
        <ele>541.6</ele>
        <time>2021-12-28T13:56:20Z</time>
      </trkpt>
      <trkpt lat="37.5597570" lon="-4.3101970">
        <ele>541.6</ele>
        <time>2021-12-28T13:56:21Z</time>
      </trkpt>
      <trkpt lat="37.5597310" lon="-4.3101980">
        <ele>541.4</ele>
        <time>2021-12-28T13:56:22Z</time>
      </trkpt>
      <trkpt lat="37.5597310" lon="-4.3101980">
        <ele>541.4</ele>
        <time>2021-12-28T13:56:23Z</time>
      </trkpt>
      <trkpt lat="37.5597310" lon="-4.3101980">
        <ele>541.4</ele>
        <time>2021-12-28T13:56:24Z</time>
      </trkpt>
      <trkpt lat="37.5597310" lon="-4.3101980">
        <ele>541.6</ele>
        <time>2021-12-28T13:56:25Z</time>
      </trkpt>
      <trkpt lat="37.5597310" lon="-4.3101980">
        <ele>541.6</ele>
        <time>2021-12-28T13:56:26Z</time>
      </trkpt>
      <trkpt lat="37.5597310" lon="-4.3101980">
        <ele>541.6</ele>
        <time>2021-12-28T13:56:27Z</time>
      </trkpt>
      <trkpt lat="37.5597310" lon="-4.3101980">
        <ele>541.6</ele>
        <time>2021-12-28T13:56:28Z</time>
      </trkpt>
      <trkpt lat="37.5596990" lon="-4.3102150">
        <ele>544.4</ele>
        <time>2021-12-28T14:07:15Z</time>
      </trkpt>
      <trkpt lat="37.5596740" lon="-4.3102220">
        <ele>544.4</ele>
        <time>2021-12-28T14:07:16Z</time>
      </trkpt>
      <trkpt lat="37.5596480" lon="-4.3102280">
        <ele>544.4</ele>
        <time>2021-12-28T14:07:17Z</time>
      </trkpt>
      <trkpt lat="37.5596190" lon="-4.3102350">
        <ele>544.6</ele>
        <time>2021-12-28T14:07:18Z</time>
      </trkpt>
      <trkpt lat="37.5595940" lon="-4.3102420">
        <ele>544.6</ele>
        <time>2021-12-28T14:07:19Z</time>
      </trkpt>
      <trkpt lat="37.5595680" lon="-4.3102480">
        <ele>544.6</ele>
        <time>2021-12-28T14:07:20Z</time>
      </trkpt>
      <trkpt lat="37.5595490" lon="-4.3102550">
        <ele>544.6</ele>
        <time>2021-12-28T14:07:21Z</time>
      </trkpt>
      <trkpt lat="37.5595230" lon="-4.3102600">
        <ele>544.6</ele>
        <time>2021-12-28T14:07:22Z</time>
      </trkpt>
      <trkpt lat="37.5595010" lon="-4.3102660">
        <ele>544.6</ele>
        <time>2021-12-28T14:07:23Z</time>
      </trkpt>
      <trkpt lat="37.5594820" lon="-4.3102720">
        <ele>544.8</ele>
        <time>2021-12-28T14:07:24Z</time>
      </trkpt>
      <trkpt lat="37.5594560" lon="-4.3102760">
        <ele>544.8</ele>
        <time>2021-12-28T14:07:25Z</time>
      </trkpt>
      <trkpt lat="37.5594370" lon="-4.3102820">
        <ele>544.8</ele>
        <time>2021-12-28T14:07:26Z</time>
      </trkpt>
      <trkpt lat="37.5594140" lon="-4.3102860">
        <ele>544.8</ele>
        <time>2021-12-28T14:07:27Z</time>
      </trkpt>
      <trkpt lat="37.5593950" lon="-4.3102880">
        <ele>544.8</ele>
        <time>2021-12-28T14:07:28Z</time>
      </trkpt>
      <trkpt lat="37.5593700" lon="-4.3102920">
        <ele>544.8</ele>
        <time>2021-12-28T14:07:29Z</time>
      </trkpt>
      <trkpt lat="37.5593500" lon="-4.3102950">
        <ele>544.8</ele>
        <time>2021-12-28T14:07:30Z</time>
      </trkpt>
      <trkpt lat="37.5593250" lon="-4.3102980">
        <ele>544.8</ele>
        <time>2021-12-28T14:07:31Z</time>
      </trkpt>
      <trkpt lat="37.5593060" lon="-4.3103000">
        <ele>544.8</ele>
        <time>2021-12-28T14:07:32Z</time>
      </trkpt>
      <trkpt lat="37.5593060" lon="-4.3103000">
        <ele>544.8</ele>
        <time>2021-12-28T14:07:33Z</time>
      </trkpt>
      <trkpt lat="37.5592530" lon="-4.3103120">
        <ele>544.6</ele>
        <time>2021-12-28T14:07:34Z</time>
      </trkpt>
      <trkpt lat="37.5592420" lon="-4.3103150">
        <ele>544.6</ele>
        <time>2021-12-28T14:07:35Z</time>
      </trkpt>
      <trkpt lat="37.5592190" lon="-4.3103180">
        <ele>544.4</ele>
        <time>2021-12-28T14:07:36Z</time>
      </trkpt>
      <trkpt lat="37.5591970" lon="-4.3103250">
        <ele>544.4</ele>
        <time>2021-12-28T14:07:37Z</time>
      </trkpt>
      <trkpt lat="37.5591740" lon="-4.3103280">
        <ele>544.4</ele>
        <time>2021-12-28T14:07:38Z</time>
      </trkpt>
      <trkpt lat="37.5591460" lon="-4.3103320">
        <ele>544.4</ele>
        <time>2021-12-28T14:07:39Z</time>
      </trkpt>
      <trkpt lat="37.5591200" lon="-4.3103360">
        <ele>544.4</ele>
        <time>2021-12-28T14:07:40Z</time>
      </trkpt>
      <trkpt lat="37.5590980" lon="-4.3103400">
        <ele>544.4</ele>
        <time>2021-12-28T14:07:41Z</time>
      </trkpt>
      <trkpt lat="37.5590750" lon="-4.3103450">
        <ele>544.4</ele>
        <time>2021-12-28T14:07:42Z</time>
      </trkpt>
      <trkpt lat="37.5590530" lon="-4.3103470">
        <ele>544.4</ele>
        <time>2021-12-28T14:07:43Z</time>
      </trkpt>
      <trkpt lat="37.5590340" lon="-4.3103520">
        <ele>544.2</ele>
        <time>2021-12-28T14:07:44Z</time>
      </trkpt>
      <trkpt lat="37.5590080" lon="-4.3103570">
        <ele>544.2</ele>
        <time>2021-12-28T14:07:45Z</time>
      </trkpt>
      <trkpt lat="37.5589860" lon="-4.3103620">
        <ele>544.2</ele>
        <time>2021-12-28T14:07:46Z</time>
      </trkpt>
      <trkpt lat="37.5589600" lon="-4.3103700">
        <ele>544.0</ele>
        <time>2021-12-28T14:07:47Z</time>
      </trkpt>
      <trkpt lat="37.5589340" lon="-4.3103730">
        <ele>544.0</ele>
        <time>2021-12-28T14:07:48Z</time>
      </trkpt>
      <trkpt lat="37.5589020" lon="-4.3103820">
        <ele>544.0</ele>
        <time>2021-12-28T14:07:49Z</time>
      </trkpt>
      <trkpt lat="37.5588770" lon="-4.3103900">
        <ele>544.0</ele>
        <time>2021-12-28T14:07:50Z</time>
      </trkpt>
      <trkpt lat="37.5588480" lon="-4.3103950">
        <ele>544.0</ele>
        <time>2021-12-28T14:07:51Z</time>
      </trkpt>
      <trkpt lat="37.5588220" lon="-4.3103980">
        <ele>544.0</ele>
        <time>2021-12-28T14:07:52Z</time>
      </trkpt>
      <trkpt lat="37.5587890" lon="-4.3104060">
        <ele>544.0</ele>
        <time>2021-12-28T14:07:53Z</time>
      </trkpt>
      <trkpt lat="37.5587780" lon="-4.3104080">
        <ele>543.8</ele>
        <time>2021-12-28T14:07:54Z</time>
      </trkpt>
      <trkpt lat="37.5587490" lon="-4.3104130">
        <ele>543.8</ele>
        <time>2021-12-28T14:07:55Z</time>
      </trkpt>
      <trkpt lat="37.5587300" lon="-4.3104180">
        <ele>543.8</ele>
        <time>2021-12-28T14:07:56Z</time>
      </trkpt>
      <trkpt lat="37.5587070" lon="-4.3104230">
        <ele>543.8</ele>
        <time>2021-12-28T14:07:57Z</time>
      </trkpt>
      <trkpt lat="37.5586850" lon="-4.3104270">
        <ele>543.8</ele>
        <time>2021-12-28T14:07:58Z</time>
      </trkpt>
      <trkpt lat="37.5586660" lon="-4.3104300">
        <ele>543.8</ele>
        <time>2021-12-28T14:07:59Z</time>
      </trkpt>
      <trkpt lat="37.5586660" lon="-4.3104300">
        <ele>543.8</ele>
        <time>2021-12-28T14:08:00Z</time>
      </trkpt>
      <trkpt lat="37.5586370" lon="-4.3104380">
        <ele>543.8</ele>
        <time>2021-12-28T14:08:01Z</time>
      </trkpt>
      <trkpt lat="37.5586370" lon="-4.3104380">
        <ele>543.8</ele>
        <time>2021-12-28T14:08:02Z</time>
      </trkpt>
      <trkpt lat="37.5586050" lon="-4.3104400">
        <ele>543.8</ele>
        <time>2021-12-28T14:08:03Z</time>
      </trkpt>
      <trkpt lat="37.5586050" lon="-4.3104400">
        <ele>543.8</ele>
        <time>2021-12-28T14:08:04Z</time>
      </trkpt>
      <trkpt lat="37.5585790" lon="-4.3104540">
        <ele>543.6</ele>
        <time>2021-12-28T14:08:05Z</time>
      </trkpt>
      <trkpt lat="37.5585600" lon="-4.3104580">
        <ele>543.6</ele>
        <time>2021-12-28T14:08:06Z</time>
      </trkpt>
      <trkpt lat="37.5585410" lon="-4.3104620">
        <ele>543.6</ele>
        <time>2021-12-28T14:08:07Z</time>
      </trkpt>
      <trkpt lat="37.5585410" lon="-4.3104620">
        <ele>543.6</ele>
        <time>2021-12-28T14:08:08Z</time>
      </trkpt>
      <trkpt lat="37.5585090" lon="-4.3104740">
        <ele>543.4</ele>
        <time>2021-12-28T14:08:09Z</time>
      </trkpt>
      <trkpt lat="37.5585090" lon="-4.3104740">
        <ele>543.4</ele>
        <time>2021-12-28T14:08:10Z</time>
      </trkpt>
      <trkpt lat="37.5585090" lon="-4.3104740">
        <ele>543.4</ele>
        <time>2021-12-28T14:08:11Z</time>
      </trkpt>
      <trkpt lat="37.5584900" lon="-4.3104800">
        <ele>543.4</ele>
        <time>2021-12-28T14:08:12Z</time>
      </trkpt>
      <trkpt lat="37.5584900" lon="-4.3104800">
        <ele>543.6</ele>
        <time>2021-12-28T14:08:13Z</time>
      </trkpt>
      <trkpt lat="37.5584900" lon="-4.3104800">
        <ele>543.6</ele>
        <time>2021-12-28T14:08:14Z</time>
      </trkpt>
      <trkpt lat="37.5584900" lon="-4.3104800">
        <ele>543.6</ele>
        <time>2021-12-28T14:08:15Z</time>
      </trkpt>
      <trkpt lat="37.5583810" lon="-4.3105270">
        <ele>544.2</ele>
        <time>2021-12-28T14:08:51Z</time>
      </trkpt>
      <trkpt lat="37.5583490" lon="-4.3105380">
        <ele>544.2</ele>
        <time>2021-12-28T14:08:52Z</time>
      </trkpt>
      <trkpt lat="37.5583170" lon="-4.3105500">
        <ele>544.2</ele>
        <time>2021-12-28T14:08:53Z</time>
      </trkpt>
      <trkpt lat="37.5582850" lon="-4.3105650">
        <ele>544.2</ele>
        <time>2021-12-28T14:08:54Z</time>
      </trkpt>
      <trkpt lat="37.5582460" lon="-4.3105780">
        <ele>544.2</ele>
        <time>2021-12-28T14:08:55Z</time>
      </trkpt>
      <trkpt lat="37.5582110" lon="-4.3105950">
        <ele>544.2</ele>
        <time>2021-12-28T14:08:56Z</time>
      </trkpt>
      <trkpt lat="37.5581820" lon="-4.3106100">
        <ele>544.0</ele>
        <time>2021-12-28T14:08:57Z</time>
      </trkpt>
      <trkpt lat="37.5581540" lon="-4.3106230">
        <ele>544.0</ele>
        <time>2021-12-28T14:08:58Z</time>
      </trkpt>
      <trkpt lat="37.5581280" lon="-4.3106360">
        <ele>544.0</ele>
        <time>2021-12-28T14:08:59Z</time>
      </trkpt>
      <trkpt lat="37.5581020" lon="-4.3106480">
        <ele>544.0</ele>
        <time>2021-12-28T14:09:00Z</time>
      </trkpt>
      <trkpt lat="37.5580740" lon="-4.3106600">
        <ele>544.0</ele>
        <time>2021-12-28T14:09:01Z</time>
      </trkpt>
      <trkpt lat="37.5580450" lon="-4.3106730">
        <ele>544.0</ele>
        <time>2021-12-28T14:09:02Z</time>
      </trkpt>
      <trkpt lat="37.5580190" lon="-4.3106850">
        <ele>544.0</ele>
        <time>2021-12-28T14:09:03Z</time>
      </trkpt>
      <trkpt lat="37.5579900" lon="-4.3106970">
        <ele>544.0</ele>
        <time>2021-12-28T14:09:04Z</time>
      </trkpt>
      <trkpt lat="37.5579650" lon="-4.3107080">
        <ele>544.0</ele>
        <time>2021-12-28T14:09:05Z</time>
      </trkpt>
      <trkpt lat="37.5579420" lon="-4.3107200">
        <ele>544.0</ele>
        <time>2021-12-28T14:09:06Z</time>
      </trkpt>
      <trkpt lat="37.5579140" lon="-4.3107330">
        <ele>544.0</ele>
        <time>2021-12-28T14:09:07Z</time>
      </trkpt>
      <trkpt lat="37.5578850" lon="-4.3107450">
        <ele>544.0</ele>
        <time>2021-12-28T14:09:08Z</time>
      </trkpt>
      <trkpt lat="37.5578560" lon="-4.3107570">
        <ele>544.0</ele>
        <time>2021-12-28T14:09:09Z</time>
      </trkpt>
      <trkpt lat="37.5578300" lon="-4.3107720">
        <ele>544.0</ele>
        <time>2021-12-28T14:09:10Z</time>
      </trkpt>
      <trkpt lat="37.5578020" lon="-4.3107850">
        <ele>544.0</ele>
        <time>2021-12-28T14:09:11Z</time>
      </trkpt>
      <trkpt lat="37.5577730" lon="-4.3108000">
        <ele>544.0</ele>
        <time>2021-12-28T14:09:12Z</time>
      </trkpt>
      <trkpt lat="37.5577470" lon="-4.3108150">
        <ele>544.0</ele>
        <time>2021-12-28T14:09:13Z</time>
      </trkpt>
      <trkpt lat="37.5577220" lon="-4.3108300">
        <ele>544.2</ele>
        <time>2021-12-28T14:09:14Z</time>
      </trkpt>
      <trkpt lat="37.5576960" lon="-4.3108480">
        <ele>544.2</ele>
        <time>2021-12-28T14:09:15Z</time>
      </trkpt>
      <trkpt lat="37.5576740" lon="-4.3108670">
        <ele>544.2</ele>
        <time>2021-12-28T14:09:16Z</time>
      </trkpt>
      <trkpt lat="37.5576510" lon="-4.3108840">
        <ele>544.0</ele>
        <time>2021-12-28T14:09:17Z</time>
      </trkpt>
      <trkpt lat="37.5576260" lon="-4.3108970">
        <ele>544.0</ele>
        <time>2021-12-28T14:09:18Z</time>
      </trkpt>
      <trkpt lat="37.5576030" lon="-4.3109070">
        <ele>544.0</ele>
        <time>2021-12-28T14:09:19Z</time>
      </trkpt>
      <trkpt lat="37.5575740" lon="-4.3109180">
        <ele>544.0</ele>
        <time>2021-12-28T14:09:20Z</time>
      </trkpt>
      <trkpt lat="37.5575520" lon="-4.3109320">
        <ele>544.0</ele>
        <time>2021-12-28T14:09:21Z</time>
      </trkpt>
      <trkpt lat="37.5575230" lon="-4.3109480">
        <ele>544.0</ele>
        <time>2021-12-28T14:09:22Z</time>
      </trkpt>
      <trkpt lat="37.5574940" lon="-4.3109700">
        <ele>544.0</ele>
        <time>2021-12-28T14:09:23Z</time>
      </trkpt>
      <trkpt lat="37.5574720" lon="-4.3109900">
        <ele>544.2</ele>
        <time>2021-12-28T14:09:24Z</time>
      </trkpt>
      <trkpt lat="37.5574430" lon="-4.3110100">
        <ele>544.2</ele>
        <time>2021-12-28T14:09:25Z</time>
      </trkpt>
      <trkpt lat="37.5574140" lon="-4.3110300">
        <ele>544.2</ele>
        <time>2021-12-28T14:09:26Z</time>
      </trkpt>
      <trkpt lat="37.5573920" lon="-4.3110500">
        <ele>544.2</ele>
        <time>2021-12-28T14:09:27Z</time>
      </trkpt>
      <trkpt lat="37.5573660" lon="-4.3110680">
        <ele>544.4</ele>
        <time>2021-12-28T14:09:28Z</time>
      </trkpt>
      <trkpt lat="37.5573380" lon="-4.3110880">
        <ele>544.4</ele>
        <time>2021-12-28T14:09:29Z</time>
      </trkpt>
      <trkpt lat="37.5573120" lon="-4.3111080">
        <ele>544.4</ele>
        <time>2021-12-28T14:09:30Z</time>
      </trkpt>
      <trkpt lat="37.5572860" lon="-4.3111300">
        <ele>544.4</ele>
        <time>2021-12-28T14:09:31Z</time>
      </trkpt>
      <trkpt lat="37.5572580" lon="-4.3111540">
        <ele>544.4</ele>
        <time>2021-12-28T14:09:32Z</time>
      </trkpt>
      <trkpt lat="37.5572350" lon="-4.3111750">
        <ele>544.4</ele>
        <time>2021-12-28T14:09:33Z</time>
      </trkpt>
      <trkpt lat="37.5572130" lon="-4.3111950">
        <ele>544.6</ele>
        <time>2021-12-28T14:09:34Z</time>
      </trkpt>
      <trkpt lat="37.5571900" lon="-4.3112170">
        <ele>544.6</ele>
        <time>2021-12-28T14:09:35Z</time>
      </trkpt>
      <trkpt lat="37.5571650" lon="-4.3112420">
        <ele>544.6</ele>
        <time>2021-12-28T14:09:36Z</time>
      </trkpt>
      <trkpt lat="37.5571460" lon="-4.3112650">
        <ele>544.6</ele>
        <time>2021-12-28T14:09:37Z</time>
      </trkpt>
      <trkpt lat="37.5571170" lon="-4.3112860">
        <ele>544.8</ele>
        <time>2021-12-28T14:09:38Z</time>
      </trkpt>
      <trkpt lat="37.5570940" lon="-4.3113080">
        <ele>544.8</ele>
        <time>2021-12-28T14:09:39Z</time>
      </trkpt>
      <trkpt lat="37.5570720" lon="-4.3113320">
        <ele>544.8</ele>
        <time>2021-12-28T14:09:40Z</time>
      </trkpt>
      <trkpt lat="37.5570460" lon="-4.3113530">
        <ele>544.8</ele>
        <time>2021-12-28T14:09:41Z</time>
      </trkpt>
      <trkpt lat="37.5570210" lon="-4.3113730">
        <ele>545.0</ele>
        <time>2021-12-28T14:09:42Z</time>
      </trkpt>
      <trkpt lat="37.5569980" lon="-4.3113950">
        <ele>545.0</ele>
        <time>2021-12-28T14:09:43Z</time>
      </trkpt>
      <trkpt lat="37.5569760" lon="-4.3114180">
        <ele>545.0</ele>
        <time>2021-12-28T14:09:44Z</time>
      </trkpt>
      <trkpt lat="37.5569540" lon="-4.3114430">
        <ele>545.0</ele>
        <time>2021-12-28T14:09:45Z</time>
      </trkpt>
      <trkpt lat="37.5569340" lon="-4.3114700">
        <ele>545.0</ele>
        <time>2021-12-28T14:09:46Z</time>
      </trkpt>
      <trkpt lat="37.5569150" lon="-4.3114950">
        <ele>545.2</ele>
        <time>2021-12-28T14:09:47Z</time>
      </trkpt>
      <trkpt lat="37.5568960" lon="-4.3115180">
        <ele>545.2</ele>
        <time>2021-12-28T14:09:48Z</time>
      </trkpt>
      <trkpt lat="37.5568770" lon="-4.3115400">
        <ele>545.4</ele>
        <time>2021-12-28T14:09:49Z</time>
      </trkpt>
      <trkpt lat="37.5568580" lon="-4.3115640">
        <ele>545.6</ele>
        <time>2021-12-28T14:09:50Z</time>
      </trkpt>
      <trkpt lat="37.5568350" lon="-4.3115870">
        <ele>545.8</ele>
        <time>2021-12-28T14:09:51Z</time>
      </trkpt>
      <trkpt lat="37.5568160" lon="-4.3116120">
        <ele>545.8</ele>
        <time>2021-12-28T14:09:52Z</time>
      </trkpt>
      <trkpt lat="37.5567940" lon="-4.3116380">
        <ele>546.0</ele>
        <time>2021-12-28T14:09:53Z</time>
      </trkpt>
      <trkpt lat="37.5567740" lon="-4.3116660">
        <ele>546.0</ele>
        <time>2021-12-28T14:09:54Z</time>
      </trkpt>
      <trkpt lat="37.5567550" lon="-4.3116930">
        <ele>546.2</ele>
        <time>2021-12-28T14:09:55Z</time>
      </trkpt>
      <trkpt lat="37.5567360" lon="-4.3117200">
        <ele>546.2</ele>
        <time>2021-12-28T14:09:56Z</time>
      </trkpt>
      <trkpt lat="37.5567170" lon="-4.3117480">
        <ele>546.2</ele>
        <time>2021-12-28T14:09:57Z</time>
      </trkpt>
      <trkpt lat="37.5567010" lon="-4.3117750">
        <ele>546.2</ele>
        <time>2021-12-28T14:09:58Z</time>
      </trkpt>
      <trkpt lat="37.5566820" lon="-4.3118050">
        <ele>546.2</ele>
        <time>2021-12-28T14:09:59Z</time>
      </trkpt>
      <trkpt lat="37.5566510" lon="-4.3118450">
        <ele>546.2</ele>
        <time>2021-12-28T14:10:00Z</time>
      </trkpt>
      <trkpt lat="37.5566400" lon="-4.3118580">
        <ele>546.4</ele>
        <time>2021-12-28T14:10:01Z</time>
      </trkpt>
      <trkpt lat="37.5566210" lon="-4.3118850">
        <ele>546.6</ele>
        <time>2021-12-28T14:10:02Z</time>
      </trkpt>
      <trkpt lat="37.5566020" lon="-4.3119140">
        <ele>546.6</ele>
        <time>2021-12-28T14:10:03Z</time>
      </trkpt>
      <trkpt lat="37.5565820" lon="-4.3119380">
        <ele>546.6</ele>
        <time>2021-12-28T14:10:04Z</time>
      </trkpt>
      <trkpt lat="37.5565700" lon="-4.3119620">
        <ele>546.6</ele>
        <time>2021-12-28T14:10:05Z</time>
      </trkpt>
      <trkpt lat="37.5565570" lon="-4.3119830">
        <ele>546.6</ele>
        <time>2021-12-28T14:10:06Z</time>
      </trkpt>
      <trkpt lat="37.5565410" lon="-4.3120060">
        <ele>546.6</ele>
        <time>2021-12-28T14:10:07Z</time>
      </trkpt>
      <trkpt lat="37.5565250" lon="-4.3120300">
        <ele>546.6</ele>
        <time>2021-12-28T14:10:08Z</time>
      </trkpt>
      <trkpt lat="37.5565120" lon="-4.3120530">
        <ele>546.6</ele>
        <time>2021-12-28T14:10:09Z</time>
      </trkpt>
      <trkpt lat="37.5564960" lon="-4.3120800">
        <ele>546.6</ele>
        <time>2021-12-28T14:10:10Z</time>
      </trkpt>
      <trkpt lat="37.5564770" lon="-4.3121070">
        <ele>546.6</ele>
        <time>2021-12-28T14:10:11Z</time>
      </trkpt>
      <trkpt lat="37.5564610" lon="-4.3121350">
        <ele>546.6</ele>
        <time>2021-12-28T14:10:12Z</time>
      </trkpt>
      <trkpt lat="37.5564420" lon="-4.3121620">
        <ele>546.8</ele>
        <time>2021-12-28T14:10:13Z</time>
      </trkpt>
      <trkpt lat="37.5564220" lon="-4.3121880">
        <ele>546.8</ele>
        <time>2021-12-28T14:10:14Z</time>
      </trkpt>
      <trkpt lat="37.5564060" lon="-4.3122170">
        <ele>546.8</ele>
        <time>2021-12-28T14:10:15Z</time>
      </trkpt>
      <trkpt lat="37.5563900" lon="-4.3122440">
        <ele>547.0</ele>
        <time>2021-12-28T14:10:16Z</time>
      </trkpt>
      <trkpt lat="37.5563780" lon="-4.3122700">
        <ele>547.0</ele>
        <time>2021-12-28T14:10:17Z</time>
      </trkpt>
      <trkpt lat="37.5563580" lon="-4.3122980">
        <ele>547.2</ele>
        <time>2021-12-28T14:10:18Z</time>
      </trkpt>
      <trkpt lat="37.5563460" lon="-4.3123250">
        <ele>547.2</ele>
        <time>2021-12-28T14:10:19Z</time>
      </trkpt>
      <trkpt lat="37.5563250" lon="-4.3123650">
        <ele>547.2</ele>
        <time>2021-12-28T14:10:20Z</time>
      </trkpt>
      <trkpt lat="37.5563170" lon="-4.3123780">
        <ele>547.2</ele>
        <time>2021-12-28T14:10:21Z</time>
      </trkpt>
      <trkpt lat="37.5563010" lon="-4.3124060">
        <ele>547.2</ele>
        <time>2021-12-28T14:10:22Z</time>
      </trkpt>
      <trkpt lat="37.5562850" lon="-4.3124360">
        <ele>547.2</ele>
        <time>2021-12-28T14:10:23Z</time>
      </trkpt>
      <trkpt lat="37.5562750" lon="-4.3124670">
        <ele>547.2</ele>
        <time>2021-12-28T14:10:24Z</time>
      </trkpt>
      <trkpt lat="37.5562590" lon="-4.3124970">
        <ele>547.4</ele>
        <time>2021-12-28T14:10:25Z</time>
      </trkpt>
      <trkpt lat="37.5562460" lon="-4.3125280">
        <ele>547.4</ele>
        <time>2021-12-28T14:10:26Z</time>
      </trkpt>
      <trkpt lat="37.5562370" lon="-4.3125600">
        <ele>547.4</ele>
        <time>2021-12-28T14:10:27Z</time>
      </trkpt>
      <trkpt lat="37.5562210" lon="-4.3125880">
        <ele>547.6</ele>
        <time>2021-12-28T14:10:28Z</time>
      </trkpt>
      <trkpt lat="37.5562050" lon="-4.3126180">
        <ele>547.6</ele>
        <time>2021-12-28T14:10:29Z</time>
      </trkpt>
      <trkpt lat="37.5561920" lon="-4.3126450">
        <ele>547.6</ele>
        <time>2021-12-28T14:10:30Z</time>
      </trkpt>
      <trkpt lat="37.5561760" lon="-4.3126740">
        <ele>547.6</ele>
        <time>2021-12-28T14:10:31Z</time>
      </trkpt>
      <trkpt lat="37.5561630" lon="-4.3127020">
        <ele>547.6</ele>
        <time>2021-12-28T14:10:32Z</time>
      </trkpt>
      <trkpt lat="37.5561540" lon="-4.3127280">
        <ele>547.6</ele>
        <time>2021-12-28T14:10:33Z</time>
      </trkpt>
      <trkpt lat="37.5561410" lon="-4.3127550">
        <ele>547.6</ele>
        <time>2021-12-28T14:10:34Z</time>
      </trkpt>
      <trkpt lat="37.5561280" lon="-4.3127830">
        <ele>547.6</ele>
        <time>2021-12-28T14:10:35Z</time>
      </trkpt>
      <trkpt lat="37.5561180" lon="-4.3128100">
        <ele>547.6</ele>
        <time>2021-12-28T14:10:36Z</time>
      </trkpt>
      <trkpt lat="37.5561060" lon="-4.3128380">
        <ele>547.6</ele>
        <time>2021-12-28T14:10:37Z</time>
      </trkpt>
      <trkpt lat="37.5560960" lon="-4.3128650">
        <ele>547.6</ele>
        <time>2021-12-28T14:10:38Z</time>
      </trkpt>
      <trkpt lat="37.5560800" lon="-4.3128930">
        <ele>547.8</ele>
        <time>2021-12-28T14:10:39Z</time>
      </trkpt>
      <trkpt lat="37.5560640" lon="-4.3129220">
        <ele>548.0</ele>
        <time>2021-12-28T14:10:40Z</time>
      </trkpt>
      <trkpt lat="37.5560540" lon="-4.3129480">
        <ele>548.0</ele>
        <time>2021-12-28T14:10:41Z</time>
      </trkpt>
      <trkpt lat="37.5560380" lon="-4.3129750">
        <ele>548.2</ele>
        <time>2021-12-28T14:10:42Z</time>
      </trkpt>
      <trkpt lat="37.5560260" lon="-4.3130020">
        <ele>548.2</ele>
        <time>2021-12-28T14:10:43Z</time>
      </trkpt>
      <trkpt lat="37.5560160" lon="-4.3130300">
        <ele>548.4</ele>
        <time>2021-12-28T14:10:44Z</time>
      </trkpt>
      <trkpt lat="37.5560000" lon="-4.3130580">
        <ele>548.4</ele>
        <time>2021-12-28T14:10:45Z</time>
      </trkpt>
      <trkpt lat="37.5559870" lon="-4.3130850">
        <ele>548.4</ele>
        <time>2021-12-28T14:10:46Z</time>
      </trkpt>
      <trkpt lat="37.5559780" lon="-4.3131150">
        <ele>548.6</ele>
        <time>2021-12-28T14:10:47Z</time>
      </trkpt>
      <trkpt lat="37.5559650" lon="-4.3131450">
        <ele>548.6</ele>
        <time>2021-12-28T14:10:48Z</time>
      </trkpt>
      <trkpt lat="37.5559550" lon="-4.3131730">
        <ele>548.8</ele>
        <time>2021-12-28T14:10:49Z</time>
      </trkpt>
      <trkpt lat="37.5559390" lon="-4.3132020">
        <ele>548.8</ele>
        <time>2021-12-28T14:10:50Z</time>
      </trkpt>
      <trkpt lat="37.5559260" lon="-4.3132280">
        <ele>549.0</ele>
        <time>2021-12-28T14:10:51Z</time>
      </trkpt>
      <trkpt lat="37.5559170" lon="-4.3132550">
        <ele>549.0</ele>
        <time>2021-12-28T14:10:52Z</time>
      </trkpt>
      <trkpt lat="37.5559040" lon="-4.3132840">
        <ele>549.2</ele>
        <time>2021-12-28T14:10:53Z</time>
      </trkpt>
      <trkpt lat="37.5558880" lon="-4.3133100">
        <ele>549.2</ele>
        <time>2021-12-28T14:10:54Z</time>
      </trkpt>
      <trkpt lat="37.5558780" lon="-4.3133380">
        <ele>549.2</ele>
        <time>2021-12-28T14:10:55Z</time>
      </trkpt>
      <trkpt lat="37.5558620" lon="-4.3133650">
        <ele>549.2</ele>
        <time>2021-12-28T14:10:56Z</time>
      </trkpt>
      <trkpt lat="37.5558500" lon="-4.3133950">
        <ele>549.2</ele>
        <time>2021-12-28T14:10:57Z</time>
      </trkpt>
      <trkpt lat="37.5558400" lon="-4.3134260">
        <ele>549.2</ele>
        <time>2021-12-28T14:10:58Z</time>
      </trkpt>
      <trkpt lat="37.5558240" lon="-4.3134560">
        <ele>549.4</ele>
        <time>2021-12-28T14:10:59Z</time>
      </trkpt>
      <trkpt lat="37.5558140" lon="-4.3134880">
        <ele>549.4</ele>
        <time>2021-12-28T14:11:00Z</time>
      </trkpt>
      <trkpt lat="37.5558020" lon="-4.3135170">
        <ele>549.6</ele>
        <time>2021-12-28T14:11:01Z</time>
      </trkpt>
      <trkpt lat="37.5557890" lon="-4.3135420">
        <ele>549.6</ele>
        <time>2021-12-28T14:11:02Z</time>
      </trkpt>
      <trkpt lat="37.5557760" lon="-4.3135720">
        <ele>549.6</ele>
        <time>2021-12-28T14:11:03Z</time>
      </trkpt>
      <trkpt lat="37.5557600" lon="-4.3136020">
        <ele>549.6</ele>
        <time>2021-12-28T14:11:04Z</time>
      </trkpt>
      <trkpt lat="37.5557440" lon="-4.3136300">
        <ele>549.8</ele>
        <time>2021-12-28T14:11:05Z</time>
      </trkpt>
      <trkpt lat="37.5557380" lon="-4.3136570">
        <ele>549.8</ele>
        <time>2021-12-28T14:11:06Z</time>
      </trkpt>
      <trkpt lat="37.5557250" lon="-4.3136850">
        <ele>549.8</ele>
        <time>2021-12-28T14:11:07Z</time>
      </trkpt>
      <trkpt lat="37.5557150" lon="-4.3137120">
        <ele>549.8</ele>
        <time>2021-12-28T14:11:08Z</time>
      </trkpt>
      <trkpt lat="37.5557020" lon="-4.3137400">
        <ele>549.8</ele>
        <time>2021-12-28T14:11:09Z</time>
      </trkpt>
      <trkpt lat="37.5556860" lon="-4.3137700">
        <ele>549.8</ele>
        <time>2021-12-28T14:11:10Z</time>
      </trkpt>
      <trkpt lat="37.5556770" lon="-4.3137980">
        <ele>549.8</ele>
        <time>2021-12-28T14:11:11Z</time>
      </trkpt>
      <trkpt lat="37.5556640" lon="-4.3138260">
        <ele>549.8</ele>
        <time>2021-12-28T14:11:12Z</time>
      </trkpt>
      <trkpt lat="37.5556480" lon="-4.3138580">
        <ele>549.8</ele>
        <time>2021-12-28T14:11:13Z</time>
      </trkpt>
      <trkpt lat="37.5556380" lon="-4.3138870">
        <ele>549.8</ele>
        <time>2021-12-28T14:11:14Z</time>
      </trkpt>
      <trkpt lat="37.5556290" lon="-4.3139150">
        <ele>550.0</ele>
        <time>2021-12-28T14:11:15Z</time>
      </trkpt>
      <trkpt lat="37.5556160" lon="-4.3139420">
        <ele>549.8</ele>
        <time>2021-12-28T14:11:16Z</time>
      </trkpt>
      <trkpt lat="37.5556030" lon="-4.3139720">
        <ele>549.8</ele>
        <time>2021-12-28T14:11:17Z</time>
      </trkpt>
      <trkpt lat="37.5555900" lon="-4.3140020">
        <ele>549.8</ele>
        <time>2021-12-28T14:11:18Z</time>
      </trkpt>
      <trkpt lat="37.5555810" lon="-4.3140320">
        <ele>550.0</ele>
        <time>2021-12-28T14:11:19Z</time>
      </trkpt>
      <trkpt lat="37.5555650" lon="-4.3140600">
        <ele>550.0</ele>
        <time>2021-12-28T14:11:20Z</time>
      </trkpt>
      <trkpt lat="37.5555520" lon="-4.3140870">
        <ele>550.0</ele>
        <time>2021-12-28T14:11:21Z</time>
      </trkpt>
      <trkpt lat="37.5555390" lon="-4.3141150">
        <ele>550.0</ele>
        <time>2021-12-28T14:11:22Z</time>
      </trkpt>
      <trkpt lat="37.5555260" lon="-4.3141450">
        <ele>550.0</ele>
        <time>2021-12-28T14:11:23Z</time>
      </trkpt>
      <trkpt lat="37.5555170" lon="-4.3141750">
        <ele>550.2</ele>
        <time>2021-12-28T14:11:24Z</time>
      </trkpt>
      <trkpt lat="37.5555010" lon="-4.3142030">
        <ele>550.2</ele>
        <time>2021-12-28T14:11:25Z</time>
      </trkpt>
      <trkpt lat="37.5554880" lon="-4.3142330">
        <ele>550.2</ele>
        <time>2021-12-28T14:11:26Z</time>
      </trkpt>
      <trkpt lat="37.5554720" lon="-4.3142620">
        <ele>550.2</ele>
        <time>2021-12-28T14:11:27Z</time>
      </trkpt>
      <trkpt lat="37.5554620" lon="-4.3142900">
        <ele>550.4</ele>
        <time>2021-12-28T14:11:28Z</time>
      </trkpt>
      <trkpt lat="37.5554500" lon="-4.3143180">
        <ele>550.4</ele>
        <time>2021-12-28T14:11:29Z</time>
      </trkpt>
      <trkpt lat="37.5554340" lon="-4.3143450">
        <ele>550.4</ele>
        <time>2021-12-28T14:11:30Z</time>
      </trkpt>
      <trkpt lat="37.5554240" lon="-4.3143720">
        <ele>550.4</ele>
        <time>2021-12-28T14:11:31Z</time>
      </trkpt>
      <trkpt lat="37.5554110" lon="-4.3144000">
        <ele>550.4</ele>
        <time>2021-12-28T14:11:32Z</time>
      </trkpt>
      <trkpt lat="37.5554020" lon="-4.3144250">
        <ele>550.6</ele>
        <time>2021-12-28T14:11:33Z</time>
      </trkpt>
      <trkpt lat="37.5553890" lon="-4.3144520">
        <ele>550.6</ele>
        <time>2021-12-28T14:11:34Z</time>
      </trkpt>
      <trkpt lat="37.5553790" lon="-4.3144780">
        <ele>550.6</ele>
        <time>2021-12-28T14:11:35Z</time>
      </trkpt>
      <trkpt lat="37.5553660" lon="-4.3145030">
        <ele>550.8</ele>
        <time>2021-12-28T14:11:36Z</time>
      </trkpt>
      <trkpt lat="37.5553540" lon="-4.3145300">
        <ele>550.8</ele>
        <time>2021-12-28T14:11:37Z</time>
      </trkpt>
      <trkpt lat="37.5553470" lon="-4.3145560">
        <ele>550.8</ele>
        <time>2021-12-28T14:11:38Z</time>
      </trkpt>
      <trkpt lat="37.5553310" lon="-4.3145820">
        <ele>550.8</ele>
        <time>2021-12-28T14:11:39Z</time>
      </trkpt>
      <trkpt lat="37.5553220" lon="-4.3146080">
        <ele>550.8</ele>
        <time>2021-12-28T14:11:40Z</time>
      </trkpt>
      <trkpt lat="37.5553090" lon="-4.3146350">
        <ele>550.8</ele>
        <time>2021-12-28T14:11:41Z</time>
      </trkpt>
      <trkpt lat="37.5552930" lon="-4.3146620">
        <ele>550.8</ele>
        <time>2021-12-28T14:11:42Z</time>
      </trkpt>
      <trkpt lat="37.5552830" lon="-4.3146880">
        <ele>550.8</ele>
        <time>2021-12-28T14:11:43Z</time>
      </trkpt>
      <trkpt lat="37.5552670" lon="-4.3147140">
        <ele>550.8</ele>
        <time>2021-12-28T14:11:44Z</time>
      </trkpt>
      <trkpt lat="37.5552510" lon="-4.3147400">
        <ele>550.8</ele>
        <time>2021-12-28T14:11:45Z</time>
      </trkpt>
      <trkpt lat="37.5552420" lon="-4.3147670">
        <ele>550.8</ele>
        <time>2021-12-28T14:11:46Z</time>
      </trkpt>
      <trkpt lat="37.5552260" lon="-4.3147930">
        <ele>551.0</ele>
        <time>2021-12-28T14:11:47Z</time>
      </trkpt>
      <trkpt lat="37.5552100" lon="-4.3148180">
        <ele>551.0</ele>
        <time>2021-12-28T14:11:48Z</time>
      </trkpt>
      <trkpt lat="37.5552000" lon="-4.3148430">
        <ele>551.0</ele>
        <time>2021-12-28T14:11:49Z</time>
      </trkpt>
      <trkpt lat="37.5551840" lon="-4.3148650">
        <ele>551.2</ele>
        <time>2021-12-28T14:11:50Z</time>
      </trkpt>
      <trkpt lat="37.5551680" lon="-4.3148900">
        <ele>551.2</ele>
        <time>2021-12-28T14:11:51Z</time>
      </trkpt>
      <trkpt lat="37.5551550" lon="-4.3149130">
        <ele>551.2</ele>
        <time>2021-12-28T14:11:52Z</time>
      </trkpt>
      <trkpt lat="37.5551420" lon="-4.3149380">
        <ele>551.2</ele>
        <time>2021-12-28T14:11:53Z</time>
      </trkpt>
      <trkpt lat="37.5551260" lon="-4.3149620">
        <ele>551.2</ele>
        <time>2021-12-28T14:11:54Z</time>
      </trkpt>
      <trkpt lat="37.5551100" lon="-4.3149850">
        <ele>551.2</ele>
        <time>2021-12-28T14:11:55Z</time>
      </trkpt>
      <trkpt lat="37.5550940" lon="-4.3150080">
        <ele>551.2</ele>
        <time>2021-12-28T14:11:56Z</time>
      </trkpt>
      <trkpt lat="37.5550820" lon="-4.3150340">
        <ele>551.2</ele>
        <time>2021-12-28T14:11:57Z</time>
      </trkpt>
      <trkpt lat="37.5550690" lon="-4.3150570">
        <ele>551.2</ele>
        <time>2021-12-28T14:11:58Z</time>
      </trkpt>
      <trkpt lat="37.5550500" lon="-4.3150780">
        <ele>551.2</ele>
        <time>2021-12-28T14:11:59Z</time>
      </trkpt>
      <trkpt lat="37.5550400" lon="-4.3151020">
        <ele>551.2</ele>
        <time>2021-12-28T14:12:00Z</time>
      </trkpt>
      <trkpt lat="37.5550240" lon="-4.3151260">
        <ele>551.2</ele>
        <time>2021-12-28T14:12:01Z</time>
      </trkpt>
      <trkpt lat="37.5550050" lon="-4.3151520">
        <ele>551.2</ele>
        <time>2021-12-28T14:12:02Z</time>
      </trkpt>
      <trkpt lat="37.5549920" lon="-4.3151760">
        <ele>551.2</ele>
        <time>2021-12-28T14:12:03Z</time>
      </trkpt>
      <trkpt lat="37.5549730" lon="-4.3152000">
        <ele>551.2</ele>
        <time>2021-12-28T14:12:04Z</time>
      </trkpt>
      <trkpt lat="37.5549570" lon="-4.3152220">
        <ele>551.4</ele>
        <time>2021-12-28T14:12:05Z</time>
      </trkpt>
      <trkpt lat="37.5549440" lon="-4.3152460">
        <ele>551.4</ele>
        <time>2021-12-28T14:12:06Z</time>
      </trkpt>
      <trkpt lat="37.5549280" lon="-4.3152730">
        <ele>551.4</ele>
        <time>2021-12-28T14:12:07Z</time>
      </trkpt>
      <trkpt lat="37.5549090" lon="-4.3152980">
        <ele>551.6</ele>
        <time>2021-12-28T14:12:08Z</time>
      </trkpt>
      <trkpt lat="37.5548930" lon="-4.3153230">
        <ele>551.6</ele>
        <time>2021-12-28T14:12:09Z</time>
      </trkpt>
      <trkpt lat="37.5548740" lon="-4.3153470">
        <ele>551.6</ele>
        <time>2021-12-28T14:12:10Z</time>
      </trkpt>
      <trkpt lat="37.5548580" lon="-4.3153720">
        <ele>551.6</ele>
        <time>2021-12-28T14:12:11Z</time>
      </trkpt>
      <trkpt lat="37.5548450" lon="-4.3153950">
        <ele>551.6</ele>
        <time>2021-12-28T14:12:12Z</time>
      </trkpt>
      <trkpt lat="37.5548290" lon="-4.3154200">
        <ele>551.8</ele>
        <time>2021-12-28T14:12:13Z</time>
      </trkpt>
      <trkpt lat="37.5548100" lon="-4.3154450">
        <ele>551.8</ele>
        <time>2021-12-28T14:12:14Z</time>
      </trkpt>
      <trkpt lat="37.5547940" lon="-4.3154670">
        <ele>551.8</ele>
        <time>2021-12-28T14:12:15Z</time>
      </trkpt>
      <trkpt lat="37.5547740" lon="-4.3154880">
        <ele>552.0</ele>
        <time>2021-12-28T14:12:16Z</time>
      </trkpt>
      <trkpt lat="37.5547550" lon="-4.3155130">
        <ele>552.0</ele>
        <time>2021-12-28T14:12:17Z</time>
      </trkpt>
      <trkpt lat="37.5547420" lon="-4.3155360">
        <ele>552.0</ele>
        <time>2021-12-28T14:12:18Z</time>
      </trkpt>
      <trkpt lat="37.5547230" lon="-4.3155550">
        <ele>552.0</ele>
        <time>2021-12-28T14:12:19Z</time>
      </trkpt>
      <trkpt lat="37.5547070" lon="-4.3155760">
        <ele>552.0</ele>
        <time>2021-12-28T14:12:20Z</time>
      </trkpt>
      <trkpt lat="37.5546880" lon="-4.3155980">
        <ele>552.0</ele>
        <time>2021-12-28T14:12:21Z</time>
      </trkpt>
      <trkpt lat="37.5546690" lon="-4.3156220">
        <ele>552.0</ele>
        <time>2021-12-28T14:12:22Z</time>
      </trkpt>
      <trkpt lat="37.5546500" lon="-4.3156430">
        <ele>552.0</ele>
        <time>2021-12-28T14:12:23Z</time>
      </trkpt>
      <trkpt lat="37.5546300" lon="-4.3156670">
        <ele>552.0</ele>
        <time>2021-12-28T14:12:24Z</time>
      </trkpt>
      <trkpt lat="37.5546140" lon="-4.3156870">
        <ele>552.0</ele>
        <time>2021-12-28T14:12:25Z</time>
      </trkpt>
      <trkpt lat="37.5545920" lon="-4.3157100">
        <ele>552.0</ele>
        <time>2021-12-28T14:12:26Z</time>
      </trkpt>
      <trkpt lat="37.5545730" lon="-4.3157300">
        <ele>552.0</ele>
        <time>2021-12-28T14:12:27Z</time>
      </trkpt>
      <trkpt lat="37.5545540" lon="-4.3157540">
        <ele>552.0</ele>
        <time>2021-12-28T14:12:28Z</time>
      </trkpt>
      <trkpt lat="37.5545340" lon="-4.3157770">
        <ele>552.0</ele>
        <time>2021-12-28T14:12:29Z</time>
      </trkpt>
      <trkpt lat="37.5545150" lon="-4.3157980">
        <ele>552.0</ele>
        <time>2021-12-28T14:12:30Z</time>
      </trkpt>
      <trkpt lat="37.5544960" lon="-4.3158200">
        <ele>552.2</ele>
        <time>2021-12-28T14:12:31Z</time>
      </trkpt>
      <trkpt lat="37.5544770" lon="-4.3158400">
        <ele>552.2</ele>
        <time>2021-12-28T14:12:32Z</time>
      </trkpt>
      <trkpt lat="37.5544580" lon="-4.3158580">
        <ele>552.2</ele>
        <time>2021-12-28T14:12:33Z</time>
      </trkpt>
      <trkpt lat="37.5544450" lon="-4.3158780">
        <ele>552.2</ele>
        <time>2021-12-28T14:12:34Z</time>
      </trkpt>
      <trkpt lat="37.5544260" lon="-4.3158960">
        <ele>552.2</ele>
        <time>2021-12-28T14:12:35Z</time>
      </trkpt>
      <trkpt lat="37.5544060" lon="-4.3159130">
        <ele>552.4</ele>
        <time>2021-12-28T14:12:36Z</time>
      </trkpt>
      <trkpt lat="37.5543900" lon="-4.3159300">
        <ele>552.4</ele>
        <time>2021-12-28T14:12:37Z</time>
      </trkpt>
      <trkpt lat="37.5543780" lon="-4.3159460">
        <ele>552.4</ele>
        <time>2021-12-28T14:12:38Z</time>
      </trkpt>
      <trkpt lat="37.5543650" lon="-4.3159630">
        <ele>552.4</ele>
        <time>2021-12-28T14:12:39Z</time>
      </trkpt>
      <trkpt lat="37.5543460" lon="-4.3159770">
        <ele>552.4</ele>
        <time>2021-12-28T14:12:40Z</time>
      </trkpt>
      <trkpt lat="37.5543260" lon="-4.3159920">
        <ele>552.4</ele>
        <time>2021-12-28T14:12:41Z</time>
      </trkpt>
      <trkpt lat="37.5543070" lon="-4.3160120">
        <ele>552.6</ele>
        <time>2021-12-28T14:12:42Z</time>
      </trkpt>
      <trkpt lat="37.5542880" lon="-4.3160320">
        <ele>552.6</ele>
        <time>2021-12-28T14:12:43Z</time>
      </trkpt>
      <trkpt lat="37.5542690" lon="-4.3160480">
        <ele>552.6</ele>
        <time>2021-12-28T14:12:44Z</time>
      </trkpt>
      <trkpt lat="37.5542500" lon="-4.3160670">
        <ele>552.8</ele>
        <time>2021-12-28T14:12:45Z</time>
      </trkpt>
      <trkpt lat="37.5542300" lon="-4.3160840">
        <ele>552.8</ele>
        <time>2021-12-28T14:12:46Z</time>
      </trkpt>
      <trkpt lat="37.5542110" lon="-4.3161020">
        <ele>552.8</ele>
        <time>2021-12-28T14:12:47Z</time>
      </trkpt>
      <trkpt lat="37.5541980" lon="-4.3161200">
        <ele>553.0</ele>
        <time>2021-12-28T14:12:48Z</time>
      </trkpt>
      <trkpt lat="37.5541980" lon="-4.3161200">
        <ele>553.0</ele>
        <time>2021-12-28T14:12:49Z</time>
      </trkpt>
      <trkpt lat="37.5541760" lon="-4.3161570">
        <ele>553.0</ele>
        <time>2021-12-28T14:12:50Z</time>
      </trkpt>
      <trkpt lat="37.5541760" lon="-4.3161570">
        <ele>553.2</ele>
        <time>2021-12-28T14:12:51Z</time>
      </trkpt>
      <trkpt lat="37.5541540" lon="-4.3161880">
        <ele>553.2</ele>
        <time>2021-12-28T14:12:52Z</time>
      </trkpt>
      <trkpt lat="37.5541380" lon="-4.3162030">
        <ele>553.4</ele>
        <time>2021-12-28T14:12:53Z</time>
      </trkpt>
      <trkpt lat="37.5541220" lon="-4.3162180">
        <ele>553.4</ele>
        <time>2021-12-28T14:12:54Z</time>
      </trkpt>
      <trkpt lat="37.5541020" lon="-4.3162320">
        <ele>553.4</ele>
        <time>2021-12-28T14:12:55Z</time>
      </trkpt>
      <trkpt lat="37.5540830" lon="-4.3162430">
        <ele>553.6</ele>
        <time>2021-12-28T14:12:56Z</time>
      </trkpt>
      <trkpt lat="37.5540830" lon="-4.3162430">
        <ele>553.6</ele>
        <time>2021-12-28T14:12:57Z</time>
      </trkpt>
      <trkpt lat="37.5540510" lon="-4.3162720">
        <ele>553.6</ele>
        <time>2021-12-28T14:12:58Z</time>
      </trkpt>
      <trkpt lat="37.5540320" lon="-4.3162860">
        <ele>553.6</ele>
        <time>2021-12-28T14:12:59Z</time>
      </trkpt>
      <trkpt lat="37.5540130" lon="-4.3163000">
        <ele>553.6</ele>
        <time>2021-12-28T14:13:00Z</time>
      </trkpt>
      <trkpt lat="37.5539940" lon="-4.3163130">
        <ele>553.8</ele>
        <time>2021-12-28T14:13:01Z</time>
      </trkpt>
      <trkpt lat="37.5539740" lon="-4.3163280">
        <ele>553.8</ele>
        <time>2021-12-28T14:13:02Z</time>
      </trkpt>
      <trkpt lat="37.5539550" lon="-4.3163470">
        <ele>553.8</ele>
        <time>2021-12-28T14:13:03Z</time>
      </trkpt>
      <trkpt lat="37.5539360" lon="-4.3163650">
        <ele>553.8</ele>
        <time>2021-12-28T14:13:04Z</time>
      </trkpt>
      <trkpt lat="37.5539100" lon="-4.3163820">
        <ele>554.0</ele>
        <time>2021-12-28T14:13:05Z</time>
      </trkpt>
      <trkpt lat="37.5538820" lon="-4.3163980">
        <ele>554.0</ele>
        <time>2021-12-28T14:13:06Z</time>
      </trkpt>
      <trkpt lat="37.5538530" lon="-4.3164170">
        <ele>554.2</ele>
        <time>2021-12-28T14:13:07Z</time>
      </trkpt>
      <trkpt lat="37.5538210" lon="-4.3164370">
        <ele>554.2</ele>
        <time>2021-12-28T14:13:08Z</time>
      </trkpt>
      <trkpt lat="37.5537890" lon="-4.3164600">
        <ele>554.2</ele>
        <time>2021-12-28T14:13:09Z</time>
      </trkpt>
      <trkpt lat="37.5537570" lon="-4.3164820">
        <ele>554.2</ele>
        <time>2021-12-28T14:13:10Z</time>
      </trkpt>
      <trkpt lat="37.5537250" lon="-4.3165040">
        <ele>554.2</ele>
        <time>2021-12-28T14:13:11Z</time>
      </trkpt>
      <trkpt lat="37.5536990" lon="-4.3165220">
        <ele>554.2</ele>
        <time>2021-12-28T14:13:12Z</time>
      </trkpt>
      <trkpt lat="37.5536740" lon="-4.3165380">
        <ele>554.2</ele>
        <time>2021-12-28T14:13:13Z</time>
      </trkpt>
      <trkpt lat="37.5536510" lon="-4.3165530">
        <ele>554.2</ele>
        <time>2021-12-28T14:13:14Z</time>
      </trkpt>
      <trkpt lat="37.5536260" lon="-4.3165700">
        <ele>554.2</ele>
        <time>2021-12-28T14:13:15Z</time>
      </trkpt>
      <trkpt lat="37.5536260" lon="-4.3165700">
        <ele>554.2</ele>
        <time>2021-12-28T14:13:16Z</time>
      </trkpt>
      <trkpt lat="37.5535970" lon="-4.3165950">
        <ele>554.2</ele>
        <time>2021-12-28T14:13:17Z</time>
      </trkpt>
      <trkpt lat="37.5535780" lon="-4.3166030">
        <ele>554.2</ele>
        <time>2021-12-28T14:13:18Z</time>
      </trkpt>
      <trkpt lat="37.5535580" lon="-4.3166130">
        <ele>554.2</ele>
        <time>2021-12-28T14:13:19Z</time>
      </trkpt>
      <trkpt lat="37.5535390" lon="-4.3166250">
        <ele>554.2</ele>
        <time>2021-12-28T14:13:20Z</time>
      </trkpt>
      <trkpt lat="37.5535200" lon="-4.3166400">
        <ele>554.2</ele>
        <time>2021-12-28T14:13:21Z</time>
      </trkpt>
      <trkpt lat="37.5534980" lon="-4.3166500">
        <ele>554.2</ele>
        <time>2021-12-28T14:13:22Z</time>
      </trkpt>
      <trkpt lat="37.5534780" lon="-4.3166620">
        <ele>554.2</ele>
        <time>2021-12-28T14:13:23Z</time>
      </trkpt>
      <trkpt lat="37.5534530" lon="-4.3166730">
        <ele>554.2</ele>
        <time>2021-12-28T14:13:24Z</time>
      </trkpt>
      <trkpt lat="37.5534270" lon="-4.3166850">
        <ele>554.2</ele>
        <time>2021-12-28T14:13:25Z</time>
      </trkpt>
      <trkpt lat="37.5534050" lon="-4.3167000">
        <ele>554.2</ele>
        <time>2021-12-28T14:13:26Z</time>
      </trkpt>
      <trkpt lat="37.5533860" lon="-4.3167130">
        <ele>554.2</ele>
        <time>2021-12-28T14:13:27Z</time>
      </trkpt>
      <trkpt lat="37.5533630" lon="-4.3167270">
        <ele>554.4</ele>
        <time>2021-12-28T14:13:28Z</time>
      </trkpt>
      <trkpt lat="37.5533440" lon="-4.3167400">
        <ele>554.4</ele>
        <time>2021-12-28T14:13:29Z</time>
      </trkpt>
      <trkpt lat="37.5533220" lon="-4.3167530">
        <ele>554.4</ele>
        <time>2021-12-28T14:13:30Z</time>
      </trkpt>
      <trkpt lat="37.5532960" lon="-4.3167650">
        <ele>554.4</ele>
        <time>2021-12-28T14:13:31Z</time>
      </trkpt>
      <trkpt lat="37.5532740" lon="-4.3167770">
        <ele>554.4</ele>
        <time>2021-12-28T14:13:32Z</time>
      </trkpt>
      <trkpt lat="37.5532480" lon="-4.3167920">
        <ele>554.6</ele>
        <time>2021-12-28T14:13:33Z</time>
      </trkpt>
      <trkpt lat="37.5532220" lon="-4.3168040">
        <ele>554.6</ele>
        <time>2021-12-28T14:13:34Z</time>
      </trkpt>
      <trkpt lat="37.5532000" lon="-4.3168170">
        <ele>554.6</ele>
        <time>2021-12-28T14:13:35Z</time>
      </trkpt>
      <trkpt lat="37.5531780" lon="-4.3168300">
        <ele>554.6</ele>
        <time>2021-12-28T14:13:36Z</time>
      </trkpt>
      <trkpt lat="37.5531490" lon="-4.3168400">
        <ele>554.6</ele>
        <time>2021-12-28T14:13:37Z</time>
      </trkpt>
      <trkpt lat="37.5531260" lon="-4.3168520">
        <ele>554.8</ele>
        <time>2021-12-28T14:13:38Z</time>
      </trkpt>
      <trkpt lat="37.5531040" lon="-4.3168640">
        <ele>554.8</ele>
        <time>2021-12-28T14:13:39Z</time>
      </trkpt>
      <trkpt lat="37.5530820" lon="-4.3168770">
        <ele>555.0</ele>
        <time>2021-12-28T14:13:40Z</time>
      </trkpt>
      <trkpt lat="37.5530620" lon="-4.3168880">
        <ele>555.0</ele>
        <time>2021-12-28T14:13:41Z</time>
      </trkpt>
      <trkpt lat="37.5530400" lon="-4.3169000">
        <ele>555.0</ele>
        <time>2021-12-28T14:13:42Z</time>
      </trkpt>
      <trkpt lat="37.5530140" lon="-4.3169100">
        <ele>555.0</ele>
        <time>2021-12-28T14:13:43Z</time>
      </trkpt>
      <trkpt lat="37.5529890" lon="-4.3169230">
        <ele>555.2</ele>
        <time>2021-12-28T14:13:44Z</time>
      </trkpt>
      <trkpt lat="37.5529630" lon="-4.3169330">
        <ele>555.2</ele>
        <time>2021-12-28T14:13:45Z</time>
      </trkpt>
      <trkpt lat="37.5529380" lon="-4.3169430">
        <ele>555.2</ele>
        <time>2021-12-28T14:13:46Z</time>
      </trkpt>
      <trkpt lat="37.5529180" lon="-4.3169530">
        <ele>555.4</ele>
        <time>2021-12-28T14:13:47Z</time>
      </trkpt>
      <trkpt lat="37.5528960" lon="-4.3169620">
        <ele>555.4</ele>
        <time>2021-12-28T14:13:48Z</time>
      </trkpt>
      <trkpt lat="37.5528700" lon="-4.3169700">
        <ele>555.4</ele>
        <time>2021-12-28T14:13:49Z</time>
      </trkpt>
      <trkpt lat="37.5528480" lon="-4.3169760">
        <ele>555.6</ele>
        <time>2021-12-28T14:13:50Z</time>
      </trkpt>
      <trkpt lat="37.5528260" lon="-4.3169830">
        <ele>555.6</ele>
        <time>2021-12-28T14:13:51Z</time>
      </trkpt>
      <trkpt lat="37.5528030" lon="-4.3169920">
        <ele>555.6</ele>
        <time>2021-12-28T14:13:52Z</time>
      </trkpt>
      <trkpt lat="37.5527810" lon="-4.3170020">
        <ele>555.6</ele>
        <time>2021-12-28T14:13:53Z</time>
      </trkpt>
      <trkpt lat="37.5527520" lon="-4.3170100">
        <ele>555.6</ele>
        <time>2021-12-28T14:13:54Z</time>
      </trkpt>
      <trkpt lat="37.5527260" lon="-4.3170150">
        <ele>555.6</ele>
        <time>2021-12-28T14:13:55Z</time>
      </trkpt>
      <trkpt lat="37.5527070" lon="-4.3170220">
        <ele>555.6</ele>
        <time>2021-12-28T14:13:56Z</time>
      </trkpt>
      <trkpt lat="37.5526820" lon="-4.3170300">
        <ele>555.6</ele>
        <time>2021-12-28T14:13:57Z</time>
      </trkpt>
      <trkpt lat="37.5526530" lon="-4.3170380">
        <ele>555.8</ele>
        <time>2021-12-28T14:13:58Z</time>
      </trkpt>
      <trkpt lat="37.5526270" lon="-4.3170450">
        <ele>555.8</ele>
        <time>2021-12-28T14:13:59Z</time>
      </trkpt>
      <trkpt lat="37.5526050" lon="-4.3170520">
        <ele>555.8</ele>
        <time>2021-12-28T14:14:00Z</time>
      </trkpt>
      <trkpt lat="37.5525790" lon="-4.3170600">
        <ele>555.8</ele>
        <time>2021-12-28T14:14:01Z</time>
      </trkpt>
      <trkpt lat="37.5525500" lon="-4.3170670">
        <ele>555.6</ele>
        <time>2021-12-28T14:14:02Z</time>
      </trkpt>
      <trkpt lat="37.5525250" lon="-4.3170770">
        <ele>555.8</ele>
        <time>2021-12-28T14:14:03Z</time>
      </trkpt>
      <trkpt lat="37.5525020" lon="-4.3170830">
        <ele>555.8</ele>
        <time>2021-12-28T14:14:04Z</time>
      </trkpt>
      <trkpt lat="37.5524740" lon="-4.3170900">
        <ele>555.8</ele>
        <time>2021-12-28T14:14:05Z</time>
      </trkpt>
      <trkpt lat="37.5524480" lon="-4.3170950">
        <ele>555.8</ele>
        <time>2021-12-28T14:14:06Z</time>
      </trkpt>
      <trkpt lat="37.5524260" lon="-4.3170980">
        <ele>555.8</ele>
        <time>2021-12-28T14:14:07Z</time>
      </trkpt>
      <trkpt lat="37.5524030" lon="-4.3171050">
        <ele>556.0</ele>
        <time>2021-12-28T14:14:08Z</time>
      </trkpt>
      <trkpt lat="37.5523810" lon="-4.3171100">
        <ele>556.0</ele>
        <time>2021-12-28T14:14:09Z</time>
      </trkpt>
      <trkpt lat="37.5523550" lon="-4.3171170">
        <ele>556.2</ele>
        <time>2021-12-28T14:14:10Z</time>
      </trkpt>
      <trkpt lat="37.5523550" lon="-4.3171170">
        <ele>556.2</ele>
        <time>2021-12-28T14:14:11Z</time>
      </trkpt>
      <trkpt lat="37.5523200" lon="-4.3171250">
        <ele>556.4</ele>
        <time>2021-12-28T14:14:12Z</time>
      </trkpt>
      <trkpt lat="37.5523010" lon="-4.3171300">
        <ele>556.4</ele>
        <time>2021-12-28T14:14:13Z</time>
      </trkpt>
      <trkpt lat="37.5523010" lon="-4.3171300">
        <ele>556.4</ele>
        <time>2021-12-28T14:14:14Z</time>
      </trkpt>
      <trkpt lat="37.5523010" lon="-4.3171300">
        <ele>556.4</ele>
        <time>2021-12-28T14:14:15Z</time>
      </trkpt>
      <trkpt lat="37.5523010" lon="-4.3171300">
        <ele>556.4</ele>
        <time>2021-12-28T14:14:16Z</time>
      </trkpt>
      <trkpt lat="37.5523010" lon="-4.3171300">
        <ele>556.2</ele>
        <time>2021-12-28T14:14:17Z</time>
      </trkpt>
      <trkpt lat="37.5523010" lon="-4.3171300">
        <ele>556.2</ele>
        <time>2021-12-28T14:14:18Z</time>
      </trkpt>
      <trkpt lat="37.5521250" lon="-4.3171950">
        <ele>558.8</ele>
        <time>2021-12-28T14:16:31Z</time>
      </trkpt>
      <trkpt lat="37.5521020" lon="-4.3171970">
        <ele>558.8</ele>
        <time>2021-12-28T14:16:32Z</time>
      </trkpt>
      <trkpt lat="37.5520830" lon="-4.3172000">
        <ele>558.8</ele>
        <time>2021-12-28T14:16:33Z</time>
      </trkpt>
      <trkpt lat="37.5520580" lon="-4.3172050">
        <ele>558.8</ele>
        <time>2021-12-28T14:16:34Z</time>
      </trkpt>
      <trkpt lat="37.5520580" lon="-4.3172050">
        <ele>558.8</ele>
        <time>2021-12-28T14:16:35Z</time>
      </trkpt>
      <trkpt lat="37.5520220" lon="-4.3172140">
        <ele>558.8</ele>
        <time>2021-12-28T14:16:36Z</time>
      </trkpt>
      <trkpt lat="37.5519970" lon="-4.3172150">
        <ele>558.8</ele>
        <time>2021-12-28T14:16:37Z</time>
      </trkpt>
      <trkpt lat="37.5519780" lon="-4.3172150">
        <ele>558.8</ele>
        <time>2021-12-28T14:16:38Z</time>
      </trkpt>
      <trkpt lat="37.5519580" lon="-4.3172170">
        <ele>558.8</ele>
        <time>2021-12-28T14:16:39Z</time>
      </trkpt>
      <trkpt lat="37.5519360" lon="-4.3172200">
        <ele>558.8</ele>
        <time>2021-12-28T14:16:40Z</time>
      </trkpt>
      <trkpt lat="37.5519140" lon="-4.3172240">
        <ele>558.8</ele>
        <time>2021-12-28T14:16:41Z</time>
      </trkpt>
      <trkpt lat="37.5518910" lon="-4.3172270">
        <ele>558.8</ele>
        <time>2021-12-28T14:16:42Z</time>
      </trkpt>
      <trkpt lat="37.5518690" lon="-4.3172280">
        <ele>558.8</ele>
        <time>2021-12-28T14:16:43Z</time>
      </trkpt>
      <trkpt lat="37.5518460" lon="-4.3172320">
        <ele>558.8</ele>
        <time>2021-12-28T14:16:44Z</time>
      </trkpt>
      <trkpt lat="37.5518270" lon="-4.3172330">
        <ele>558.8</ele>
        <time>2021-12-28T14:16:45Z</time>
      </trkpt>
      <trkpt lat="37.5518050" lon="-4.3172330">
        <ele>558.6</ele>
        <time>2021-12-28T14:16:46Z</time>
      </trkpt>
      <trkpt lat="37.5517790" lon="-4.3172370">
        <ele>558.6</ele>
        <time>2021-12-28T14:16:47Z</time>
      </trkpt>
      <trkpt lat="37.5517790" lon="-4.3172370">
        <ele>558.6</ele>
        <time>2021-12-28T14:16:48Z</time>
      </trkpt>
      <trkpt lat="37.5517280" lon="-4.3172370">
        <ele>558.6</ele>
        <time>2021-12-28T14:16:49Z</time>
      </trkpt>
      <trkpt lat="37.5517180" lon="-4.3172370">
        <ele>558.6</ele>
        <time>2021-12-28T14:16:50Z</time>
      </trkpt>
      <trkpt lat="37.5516960" lon="-4.3172380">
        <ele>558.6</ele>
        <time>2021-12-28T14:16:51Z</time>
      </trkpt>
      <trkpt lat="37.5516740" lon="-4.3172400">
        <ele>558.4</ele>
        <time>2021-12-28T14:16:52Z</time>
      </trkpt>
      <trkpt lat="37.5516510" lon="-4.3172440">
        <ele>558.4</ele>
        <time>2021-12-28T14:16:53Z</time>
      </trkpt>
      <trkpt lat="37.5516290" lon="-4.3172450">
        <ele>558.4</ele>
        <time>2021-12-28T14:16:54Z</time>
      </trkpt>
      <trkpt lat="37.5516060" lon="-4.3172450">
        <ele>558.4</ele>
        <time>2021-12-28T14:16:55Z</time>
      </trkpt>
      <trkpt lat="37.5515810" lon="-4.3172450">
        <ele>558.4</ele>
        <time>2021-12-28T14:16:56Z</time>
      </trkpt>
      <trkpt lat="37.5515580" lon="-4.3172440">
        <ele>558.4</ele>
        <time>2021-12-28T14:16:57Z</time>
      </trkpt>
      <trkpt lat="37.5515360" lon="-4.3172420">
        <ele>558.4</ele>
        <time>2021-12-28T14:16:58Z</time>
      </trkpt>
      <trkpt lat="37.5515170" lon="-4.3172420">
        <ele>558.4</ele>
        <time>2021-12-28T14:16:59Z</time>
      </trkpt>
      <trkpt lat="37.5514980" lon="-4.3172440">
        <ele>558.4</ele>
        <time>2021-12-28T14:17:00Z</time>
      </trkpt>
      <trkpt lat="37.5514750" lon="-4.3172440">
        <ele>558.4</ele>
        <time>2021-12-28T14:17:01Z</time>
      </trkpt>
      <trkpt lat="37.5514530" lon="-4.3172450">
        <ele>558.6</ele>
        <time>2021-12-28T14:17:02Z</time>
      </trkpt>
      <trkpt lat="37.5514300" lon="-4.3172440">
        <ele>558.6</ele>
        <time>2021-12-28T14:17:03Z</time>
      </trkpt>
      <trkpt lat="37.5514080" lon="-4.3172420">
        <ele>558.6</ele>
        <time>2021-12-28T14:17:04Z</time>
      </trkpt>
      <trkpt lat="37.5513790" lon="-4.3172400">
        <ele>558.6</ele>
        <time>2021-12-28T14:17:05Z</time>
      </trkpt>
      <trkpt lat="37.5513570" lon="-4.3172400">
        <ele>558.6</ele>
        <time>2021-12-28T14:17:06Z</time>
      </trkpt>
      <trkpt lat="37.5513340" lon="-4.3172400">
        <ele>558.6</ele>
        <time>2021-12-28T14:17:07Z</time>
      </trkpt>
      <trkpt lat="37.5513150" lon="-4.3172380">
        <ele>558.6</ele>
        <time>2021-12-28T14:17:08Z</time>
      </trkpt>
      <trkpt lat="37.5513150" lon="-4.3172380">
        <ele>558.8</ele>
        <time>2021-12-28T14:17:09Z</time>
      </trkpt>
      <trkpt lat="37.5512830" lon="-4.3172370">
        <ele>558.8</ele>
        <time>2021-12-28T14:17:10Z</time>
      </trkpt>
      <trkpt lat="37.5512830" lon="-4.3172370">
        <ele>558.8</ele>
        <time>2021-12-28T14:17:11Z</time>
      </trkpt>
      <trkpt lat="37.5512830" lon="-4.3172370">
        <ele>559.0</ele>
        <time>2021-12-28T14:17:12Z</time>
      </trkpt>
      <trkpt lat="37.5512830" lon="-4.3172370">
        <ele>559.2</ele>
        <time>2021-12-28T14:17:13Z</time>
      </trkpt>
      <trkpt lat="37.5512830" lon="-4.3172370">
        <ele>559.2</ele>
        <time>2021-12-28T14:17:14Z</time>
      </trkpt>
      <trkpt lat="37.5512540" lon="-4.3172400">
        <ele>560.2</ele>
        <time>2021-12-28T14:19:57Z</time>
      </trkpt>
      <trkpt lat="37.5512350" lon="-4.3172380">
        <ele>560.2</ele>
        <time>2021-12-28T14:19:58Z</time>
      </trkpt>
      <trkpt lat="37.5512100" lon="-4.3172330">
        <ele>560.0</ele>
        <time>2021-12-28T14:19:59Z</time>
      </trkpt>
      <trkpt lat="37.5511660" lon="-4.3172260">
        <ele>560.0</ele>
        <time>2021-12-28T14:20:00Z</time>
      </trkpt>
      <trkpt lat="37.5511520" lon="-4.3172240">
        <ele>560.0</ele>
        <time>2021-12-28T14:20:01Z</time>
      </trkpt>
      <trkpt lat="37.5511170" lon="-4.3172200">
        <ele>560.0</ele>
        <time>2021-12-28T14:20:02Z</time>
      </trkpt>
      <trkpt lat="37.5510880" lon="-4.3172170">
        <ele>560.0</ele>
        <time>2021-12-28T14:20:03Z</time>
      </trkpt>
      <trkpt lat="37.5510560" lon="-4.3172140">
        <ele>560.0</ele>
        <time>2021-12-28T14:20:04Z</time>
      </trkpt>
      <trkpt lat="37.5510240" lon="-4.3172100">
        <ele>560.0</ele>
        <time>2021-12-28T14:20:05Z</time>
      </trkpt>
      <trkpt lat="37.5509980" lon="-4.3172080">
        <ele>560.0</ele>
        <time>2021-12-28T14:20:06Z</time>
      </trkpt>
      <trkpt lat="37.5509730" lon="-4.3172050">
        <ele>560.0</ele>
        <time>2021-12-28T14:20:07Z</time>
      </trkpt>
      <trkpt lat="37.5509440" lon="-4.3172020">
        <ele>560.0</ele>
        <time>2021-12-28T14:20:08Z</time>
      </trkpt>
      <trkpt lat="37.5509220" lon="-4.3171970">
        <ele>560.0</ele>
        <time>2021-12-28T14:20:09Z</time>
      </trkpt>
      <trkpt lat="37.5508990" lon="-4.3171940">
        <ele>560.0</ele>
        <time>2021-12-28T14:20:10Z</time>
      </trkpt>
      <trkpt lat="37.5508770" lon="-4.3171940">
        <ele>560.0</ele>
        <time>2021-12-28T14:20:11Z</time>
      </trkpt>
      <trkpt lat="37.5508510" lon="-4.3171920">
        <ele>560.0</ele>
        <time>2021-12-28T14:20:12Z</time>
      </trkpt>
      <trkpt lat="37.5508220" lon="-4.3171900">
        <ele>560.0</ele>
        <time>2021-12-28T14:20:13Z</time>
      </trkpt>
      <trkpt lat="37.5508000" lon="-4.3171870">
        <ele>560.0</ele>
        <time>2021-12-28T14:20:14Z</time>
      </trkpt>
      <trkpt lat="37.5507740" lon="-4.3171820">
        <ele>560.2</ele>
        <time>2021-12-28T14:20:15Z</time>
      </trkpt>
      <trkpt lat="37.5507460" lon="-4.3171800">
        <ele>560.2</ele>
        <time>2021-12-28T14:20:16Z</time>
      </trkpt>
      <trkpt lat="37.5507200" lon="-4.3171770">
        <ele>560.2</ele>
        <time>2021-12-28T14:20:17Z</time>
      </trkpt>
      <trkpt lat="37.5506940" lon="-4.3171740">
        <ele>560.4</ele>
        <time>2021-12-28T14:20:18Z</time>
      </trkpt>
      <trkpt lat="37.5506660" lon="-4.3171700">
        <ele>560.4</ele>
        <time>2021-12-28T14:20:19Z</time>
      </trkpt>
      <trkpt lat="37.5506400" lon="-4.3171680">
        <ele>560.4</ele>
        <time>2021-12-28T14:20:20Z</time>
      </trkpt>
      <trkpt lat="37.5506140" lon="-4.3171670">
        <ele>560.4</ele>
        <time>2021-12-28T14:20:21Z</time>
      </trkpt>
      <trkpt lat="37.5505860" lon="-4.3171650">
        <ele>560.4</ele>
        <time>2021-12-28T14:20:22Z</time>
      </trkpt>
      <trkpt lat="37.5505600" lon="-4.3171640">
        <ele>560.6</ele>
        <time>2021-12-28T14:20:23Z</time>
      </trkpt>
      <trkpt lat="37.5505340" lon="-4.3171580">
        <ele>560.6</ele>
        <time>2021-12-28T14:20:24Z</time>
      </trkpt>
      <trkpt lat="37.5505020" lon="-4.3171550">
        <ele>560.6</ele>
        <time>2021-12-28T14:20:25Z</time>
      </trkpt>
      <trkpt lat="37.5504770" lon="-4.3171520">
        <ele>560.6</ele>
        <time>2021-12-28T14:20:26Z</time>
      </trkpt>
      <trkpt lat="37.5504480" lon="-4.3171470">
        <ele>560.6</ele>
        <time>2021-12-28T14:20:27Z</time>
      </trkpt>
      <trkpt lat="37.5504220" lon="-4.3171420">
        <ele>560.8</ele>
        <time>2021-12-28T14:20:28Z</time>
      </trkpt>
      <trkpt lat="37.5504000" lon="-4.3171350">
        <ele>560.8</ele>
        <time>2021-12-28T14:20:29Z</time>
      </trkpt>
      <trkpt lat="37.5503740" lon="-4.3171300">
        <ele>561.0</ele>
        <time>2021-12-28T14:20:30Z</time>
      </trkpt>
      <trkpt lat="37.5503490" lon="-4.3171250">
        <ele>561.0</ele>
        <time>2021-12-28T14:20:31Z</time>
      </trkpt>
      <trkpt lat="37.5503230" lon="-4.3171220">
        <ele>561.2</ele>
        <time>2021-12-28T14:20:32Z</time>
      </trkpt>
      <trkpt lat="37.5502980" lon="-4.3171200">
        <ele>561.2</ele>
        <time>2021-12-28T14:20:33Z</time>
      </trkpt>
      <trkpt lat="37.5502690" lon="-4.3171180">
        <ele>561.2</ele>
        <time>2021-12-28T14:20:34Z</time>
      </trkpt>
      <trkpt lat="37.5502430" lon="-4.3171150">
        <ele>561.4</ele>
        <time>2021-12-28T14:20:35Z</time>
      </trkpt>
      <trkpt lat="37.5502180" lon="-4.3171150">
        <ele>561.4</ele>
        <time>2021-12-28T14:20:36Z</time>
      </trkpt>
      <trkpt lat="37.5501890" lon="-4.3171150">
        <ele>561.4</ele>
        <time>2021-12-28T14:20:37Z</time>
      </trkpt>
      <trkpt lat="37.5501630" lon="-4.3171130">
        <ele>561.6</ele>
        <time>2021-12-28T14:20:38Z</time>
      </trkpt>
      <trkpt lat="37.5501380" lon="-4.3171100">
        <ele>561.6</ele>
        <time>2021-12-28T14:20:39Z</time>
      </trkpt>
      <trkpt lat="37.5501090" lon="-4.3171030">
        <ele>561.6</ele>
        <time>2021-12-28T14:20:40Z</time>
      </trkpt>
      <trkpt lat="37.5500830" lon="-4.3171000">
        <ele>561.8</ele>
        <time>2021-12-28T14:20:41Z</time>
      </trkpt>
      <trkpt lat="37.5500510" lon="-4.3170970">
        <ele>561.8</ele>
        <time>2021-12-28T14:20:42Z</time>
      </trkpt>
      <trkpt lat="37.5500260" lon="-4.3170930">
        <ele>561.8</ele>
        <time>2021-12-28T14:20:43Z</time>
      </trkpt>
      <trkpt lat="37.5499970" lon="-4.3170900">
        <ele>561.8</ele>
        <time>2021-12-28T14:20:44Z</time>
      </trkpt>
      <trkpt lat="37.5499650" lon="-4.3170870">
        <ele>562.0</ele>
        <time>2021-12-28T14:20:45Z</time>
      </trkpt>
      <trkpt lat="37.5499300" lon="-4.3170820">
        <ele>562.0</ele>
        <time>2021-12-28T14:20:46Z</time>
      </trkpt>
      <trkpt lat="37.5499010" lon="-4.3170780">
        <ele>562.0</ele>
        <time>2021-12-28T14:20:47Z</time>
      </trkpt>
      <trkpt lat="37.5498690" lon="-4.3170730">
        <ele>562.0</ele>
        <time>2021-12-28T14:20:48Z</time>
      </trkpt>
      <trkpt lat="37.5498370" lon="-4.3170680">
        <ele>562.0</ele>
        <time>2021-12-28T14:20:49Z</time>
      </trkpt>
      <trkpt lat="37.5498020" lon="-4.3170630">
        <ele>562.2</ele>
        <time>2021-12-28T14:20:50Z</time>
      </trkpt>
      <trkpt lat="37.5497660" lon="-4.3170630">
        <ele>562.2</ele>
        <time>2021-12-28T14:20:51Z</time>
      </trkpt>
      <trkpt lat="37.5497410" lon="-4.3170600">
        <ele>562.2</ele>
        <time>2021-12-28T14:20:52Z</time>
      </trkpt>
      <trkpt lat="37.5497120" lon="-4.3170550">
        <ele>562.2</ele>
        <time>2021-12-28T14:20:53Z</time>
      </trkpt>
      <trkpt lat="37.5496900" lon="-4.3170500">
        <ele>562.2</ele>
        <time>2021-12-28T14:20:54Z</time>
      </trkpt>
      <trkpt lat="37.5496670" lon="-4.3170450">
        <ele>562.2</ele>
        <time>2021-12-28T14:20:55Z</time>
      </trkpt>
      <trkpt lat="37.5496450" lon="-4.3170420">
        <ele>562.2</ele>
        <time>2021-12-28T14:20:56Z</time>
      </trkpt>
      <trkpt lat="37.5496220" lon="-4.3170380">
        <ele>562.2</ele>
        <time>2021-12-28T14:20:57Z</time>
      </trkpt>
      <trkpt lat="37.5496000" lon="-4.3170370">
        <ele>562.2</ele>
        <time>2021-12-28T14:20:58Z</time>
      </trkpt>
      <trkpt lat="37.5495740" lon="-4.3170380">
        <ele>562.4</ele>
        <time>2021-12-28T14:20:59Z</time>
      </trkpt>
      <trkpt lat="37.5495490" lon="-4.3170400">
        <ele>562.4</ele>
        <time>2021-12-28T14:21:00Z</time>
      </trkpt>
      <trkpt lat="37.5495300" lon="-4.3170400">
        <ele>562.4</ele>
        <time>2021-12-28T14:21:01Z</time>
      </trkpt>
      <trkpt lat="37.5495100" lon="-4.3170380">
        <ele>562.4</ele>
        <time>2021-12-28T14:21:02Z</time>
      </trkpt>
      <trkpt lat="37.5494910" lon="-4.3170370">
        <ele>562.4</ele>
        <time>2021-12-28T14:21:03Z</time>
      </trkpt>
      <trkpt lat="37.5494660" lon="-4.3170350">
        <ele>562.4</ele>
        <time>2021-12-28T14:21:04Z</time>
      </trkpt>
      <trkpt lat="37.5494430" lon="-4.3170330">
        <ele>562.4</ele>
        <time>2021-12-28T14:21:05Z</time>
      </trkpt>
      <trkpt lat="37.5494210" lon="-4.3170300">
        <ele>562.4</ele>
        <time>2021-12-28T14:21:06Z</time>
      </trkpt>
      <trkpt lat="37.5493920" lon="-4.3170280">
        <ele>562.4</ele>
        <time>2021-12-28T14:21:07Z</time>
      </trkpt>
      <trkpt lat="37.5493660" lon="-4.3170270">
        <ele>562.2</ele>
        <time>2021-12-28T14:21:08Z</time>
      </trkpt>
      <trkpt lat="37.5493410" lon="-4.3170270">
        <ele>562.2</ele>
        <time>2021-12-28T14:21:09Z</time>
      </trkpt>
      <trkpt lat="37.5493120" lon="-4.3170250">
        <ele>562.2</ele>
        <time>2021-12-28T14:21:10Z</time>
      </trkpt>
      <trkpt lat="37.5492830" lon="-4.3170250">
        <ele>562.2</ele>
        <time>2021-12-28T14:21:11Z</time>
      </trkpt>
      <trkpt lat="37.5492510" lon="-4.3170230">
        <ele>562.2</ele>
        <time>2021-12-28T14:21:12Z</time>
      </trkpt>
      <trkpt lat="37.5492290" lon="-4.3170220">
        <ele>562.2</ele>
        <time>2021-12-28T14:21:13Z</time>
      </trkpt>
      <trkpt lat="37.5492030" lon="-4.3170220">
        <ele>562.0</ele>
        <time>2021-12-28T14:21:14Z</time>
      </trkpt>
      <trkpt lat="37.5491710" lon="-4.3170200">
        <ele>562.2</ele>
        <time>2021-12-28T14:21:15Z</time>
      </trkpt>
      <trkpt lat="37.5491490" lon="-4.3170180">
        <ele>562.2</ele>
        <time>2021-12-28T14:21:16Z</time>
      </trkpt>
      <trkpt lat="37.5491230" lon="-4.3170150">
        <ele>562.2</ele>
        <time>2021-12-28T14:21:17Z</time>
      </trkpt>
      <trkpt lat="37.5490940" lon="-4.3170130">
        <ele>562.2</ele>
        <time>2021-12-28T14:21:18Z</time>
      </trkpt>
      <trkpt lat="37.5490660" lon="-4.3170100">
        <ele>562.2</ele>
        <time>2021-12-28T14:21:19Z</time>
      </trkpt>
      <trkpt lat="37.5490430" lon="-4.3170100">
        <ele>562.4</ele>
        <time>2021-12-28T14:21:20Z</time>
      </trkpt>
      <trkpt lat="37.5490140" lon="-4.3170080">
        <ele>562.4</ele>
        <time>2021-12-28T14:21:21Z</time>
      </trkpt>
      <trkpt lat="37.5489920" lon="-4.3170050">
        <ele>562.4</ele>
        <time>2021-12-28T14:21:22Z</time>
      </trkpt>
      <trkpt lat="37.5489660" lon="-4.3170000">
        <ele>562.4</ele>
        <time>2021-12-28T14:21:23Z</time>
      </trkpt>
      <trkpt lat="37.5489440" lon="-4.3170000">
        <ele>562.4</ele>
        <time>2021-12-28T14:21:24Z</time>
      </trkpt>
      <trkpt lat="37.5489150" lon="-4.3169960">
        <ele>562.4</ele>
        <time>2021-12-28T14:21:25Z</time>
      </trkpt>
      <trkpt lat="37.5488960" lon="-4.3169960">
        <ele>562.4</ele>
        <time>2021-12-28T14:21:26Z</time>
      </trkpt>
      <trkpt lat="37.5488770" lon="-4.3169980">
        <ele>562.4</ele>
        <time>2021-12-28T14:21:27Z</time>
      </trkpt>
      <trkpt lat="37.5488580" lon="-4.3170020">
        <ele>562.4</ele>
        <time>2021-12-28T14:21:28Z</time>
      </trkpt>
      <trkpt lat="37.5488580" lon="-4.3170020">
        <ele>562.4</ele>
        <time>2021-12-28T14:21:29Z</time>
      </trkpt>
      <trkpt lat="37.5488580" lon="-4.3170020">
        <ele>562.4</ele>
        <time>2021-12-28T14:21:30Z</time>
      </trkpt>
      <trkpt lat="37.5488380" lon="-4.3170000">
        <ele>562.4</ele>
        <time>2021-12-28T14:21:31Z</time>
      </trkpt>
      <trkpt lat="37.5488380" lon="-4.3170000">
        <ele>562.4</ele>
        <time>2021-12-28T14:21:32Z</time>
      </trkpt>
      <trkpt lat="37.5488380" lon="-4.3170000">
        <ele>562.2</ele>
        <time>2021-12-28T14:21:33Z</time>
      </trkpt>
      <trkpt lat="37.5488380" lon="-4.3170000">
        <ele>562.2</ele>
        <time>2021-12-28T14:21:34Z</time>
      </trkpt>
      <trkpt lat="37.5487810" lon="-4.3169800">
        <ele>563.6</ele>
        <time>2021-12-28T14:25:37Z</time>
      </trkpt>
      <trkpt lat="37.5487490" lon="-4.3169760">
        <ele>563.6</ele>
        <time>2021-12-28T14:25:38Z</time>
      </trkpt>
      <trkpt lat="37.5487140" lon="-4.3169700">
        <ele>563.6</ele>
        <time>2021-12-28T14:25:39Z</time>
      </trkpt>
      <trkpt lat="37.5486820" lon="-4.3169660">
        <ele>563.6</ele>
        <time>2021-12-28T14:25:40Z</time>
      </trkpt>
      <trkpt lat="37.5486560" lon="-4.3169620">
        <ele>563.6</ele>
        <time>2021-12-28T14:25:41Z</time>
      </trkpt>
      <trkpt lat="37.5486270" lon="-4.3169530">
        <ele>563.6</ele>
        <time>2021-12-28T14:25:42Z</time>
      </trkpt>
      <trkpt lat="37.5485980" lon="-4.3169480">
        <ele>563.6</ele>
        <time>2021-12-28T14:25:43Z</time>
      </trkpt>
      <trkpt lat="37.5485760" lon="-4.3169430">
        <ele>563.6</ele>
        <time>2021-12-28T14:25:44Z</time>
      </trkpt>
      <trkpt lat="37.5485470" lon="-4.3169400">
        <ele>563.6</ele>
        <time>2021-12-28T14:25:45Z</time>
      </trkpt>
      <trkpt lat="37.5485150" lon="-4.3169350">
        <ele>563.6</ele>
        <time>2021-12-28T14:25:46Z</time>
      </trkpt>
      <trkpt lat="37.5484930" lon="-4.3169320">
        <ele>563.8</ele>
        <time>2021-12-28T14:25:47Z</time>
      </trkpt>
      <trkpt lat="37.5484610" lon="-4.3169280">
        <ele>563.8</ele>
        <time>2021-12-28T14:25:48Z</time>
      </trkpt>
      <trkpt lat="37.5484350" lon="-4.3169250">
        <ele>563.8</ele>
        <time>2021-12-28T14:25:49Z</time>
      </trkpt>
      <trkpt lat="37.5484100" lon="-4.3169220">
        <ele>563.8</ele>
        <time>2021-12-28T14:25:50Z</time>
      </trkpt>
      <trkpt lat="37.5483780" lon="-4.3169180">
        <ele>563.8</ele>
        <time>2021-12-28T14:25:51Z</time>
      </trkpt>
      <trkpt lat="37.5483490" lon="-4.3169150">
        <ele>564.0</ele>
        <time>2021-12-28T14:25:52Z</time>
      </trkpt>
      <trkpt lat="37.5483170" lon="-4.3169120">
        <ele>564.0</ele>
        <time>2021-12-28T14:25:53Z</time>
      </trkpt>
      <trkpt lat="37.5482880" lon="-4.3169080">
        <ele>564.0</ele>
        <time>2021-12-28T14:25:54Z</time>
      </trkpt>
      <trkpt lat="37.5482560" lon="-4.3169060">
        <ele>564.2</ele>
        <time>2021-12-28T14:25:55Z</time>
      </trkpt>
      <trkpt lat="37.5482240" lon="-4.3169030">
        <ele>564.2</ele>
        <time>2021-12-28T14:25:56Z</time>
      </trkpt>
      <trkpt lat="37.5481950" lon="-4.3169000">
        <ele>564.2</ele>
        <time>2021-12-28T14:25:57Z</time>
      </trkpt>
      <trkpt lat="37.5481700" lon="-4.3168960">
        <ele>564.2</ele>
        <time>2021-12-28T14:25:58Z</time>
      </trkpt>
      <trkpt lat="37.5481380" lon="-4.3168950">
        <ele>564.2</ele>
        <time>2021-12-28T14:25:59Z</time>
      </trkpt>
      <trkpt lat="37.5481060" lon="-4.3168940">
        <ele>564.4</ele>
        <time>2021-12-28T14:26:00Z</time>
      </trkpt>
      <trkpt lat="37.5480770" lon="-4.3168920">
        <ele>564.4</ele>
        <time>2021-12-28T14:26:01Z</time>
      </trkpt>
      <trkpt lat="37.5480510" lon="-4.3168880">
        <ele>564.4</ele>
        <time>2021-12-28T14:26:02Z</time>
      </trkpt>
      <trkpt lat="37.5480160" lon="-4.3168830">
        <ele>564.4</ele>
        <time>2021-12-28T14:26:03Z</time>
      </trkpt>
      <trkpt lat="37.5479840" lon="-4.3168820">
        <ele>564.6</ele>
        <time>2021-12-28T14:26:04Z</time>
      </trkpt>
      <trkpt lat="37.5479550" lon="-4.3168780">
        <ele>564.6</ele>
        <time>2021-12-28T14:26:05Z</time>
      </trkpt>
      <trkpt lat="37.5479230" lon="-4.3168750">
        <ele>564.8</ele>
        <time>2021-12-28T14:26:06Z</time>
      </trkpt>
      <trkpt lat="37.5478980" lon="-4.3168740">
        <ele>564.8</ele>
        <time>2021-12-28T14:26:07Z</time>
      </trkpt>
      <trkpt lat="37.5478720" lon="-4.3168720">
        <ele>565.0</ele>
        <time>2021-12-28T14:26:08Z</time>
      </trkpt>
      <trkpt lat="37.5478430" lon="-4.3168680">
        <ele>565.0</ele>
        <time>2021-12-28T14:26:09Z</time>
      </trkpt>
      <trkpt lat="37.5478140" lon="-4.3168650">
        <ele>565.0</ele>
        <time>2021-12-28T14:26:10Z</time>
      </trkpt>
      <trkpt lat="37.5477860" lon="-4.3168620">
        <ele>565.2</ele>
        <time>2021-12-28T14:26:11Z</time>
      </trkpt>
      <trkpt lat="37.5477570" lon="-4.3168600">
        <ele>565.2</ele>
        <time>2021-12-28T14:26:12Z</time>
      </trkpt>
      <trkpt lat="37.5477250" lon="-4.3168570">
        <ele>565.2</ele>
        <time>2021-12-28T14:26:13Z</time>
      </trkpt>
      <trkpt lat="37.5476990" lon="-4.3168540">
        <ele>565.4</ele>
        <time>2021-12-28T14:26:14Z</time>
      </trkpt>
      <trkpt lat="37.5476740" lon="-4.3168500">
        <ele>565.6</ele>
        <time>2021-12-28T14:26:15Z</time>
      </trkpt>
      <trkpt lat="37.5476450" lon="-4.3168450">
        <ele>565.6</ele>
        <time>2021-12-28T14:26:16Z</time>
      </trkpt>
      <trkpt lat="37.5476190" lon="-4.3168440">
        <ele>565.8</ele>
        <time>2021-12-28T14:26:17Z</time>
      </trkpt>
      <trkpt lat="37.5475870" lon="-4.3168440">
        <ele>566.0</ele>
        <time>2021-12-28T14:26:18Z</time>
      </trkpt>
      <trkpt lat="37.5475620" lon="-4.3168400">
        <ele>566.2</ele>
        <time>2021-12-28T14:26:19Z</time>
      </trkpt>
      <trkpt lat="37.5475300" lon="-4.3168370">
        <ele>566.2</ele>
        <time>2021-12-28T14:26:20Z</time>
      </trkpt>
      <trkpt lat="37.5475010" lon="-4.3168340">
        <ele>566.4</ele>
        <time>2021-12-28T14:26:21Z</time>
      </trkpt>
      <trkpt lat="37.5474750" lon="-4.3168220">
        <ele>566.4</ele>
        <time>2021-12-28T14:26:22Z</time>
      </trkpt>
      <trkpt lat="37.5474430" lon="-4.3168180">
        <ele>566.4</ele>
        <time>2021-12-28T14:26:23Z</time>
      </trkpt>
      <trkpt lat="37.5474140" lon="-4.3168200">
        <ele>566.4</ele>
        <time>2021-12-28T14:26:24Z</time>
      </trkpt>
      <trkpt lat="37.5473860" lon="-4.3168200">
        <ele>566.6</ele>
        <time>2021-12-28T14:26:25Z</time>
      </trkpt>
      <trkpt lat="37.5473630" lon="-4.3168150">
        <ele>566.6</ele>
        <time>2021-12-28T14:26:26Z</time>
      </trkpt>
      <trkpt lat="37.5473380" lon="-4.3168080">
        <ele>566.6</ele>
        <time>2021-12-28T14:26:27Z</time>
      </trkpt>
      <trkpt lat="37.5473060" lon="-4.3168050">
        <ele>566.8</ele>
        <time>2021-12-28T14:26:28Z</time>
      </trkpt>
      <trkpt lat="37.5472800" lon="-4.3168020">
        <ele>566.8</ele>
        <time>2021-12-28T14:26:29Z</time>
      </trkpt>
      <trkpt lat="37.5472510" lon="-4.3168000">
        <ele>566.8</ele>
        <time>2021-12-28T14:26:30Z</time>
      </trkpt>
      <trkpt lat="37.5472260" lon="-4.3167950">
        <ele>566.8</ele>
        <time>2021-12-28T14:26:31Z</time>
      </trkpt>
      <trkpt lat="37.5471970" lon="-4.3167900">
        <ele>566.8</ele>
        <time>2021-12-28T14:26:32Z</time>
      </trkpt>
      <trkpt lat="37.5471650" lon="-4.3167850">
        <ele>566.8</ele>
        <time>2021-12-28T14:26:33Z</time>
      </trkpt>
      <trkpt lat="37.5471390" lon="-4.3167840">
        <ele>566.8</ele>
        <time>2021-12-28T14:26:34Z</time>
      </trkpt>
      <trkpt lat="37.5471100" lon="-4.3167840">
        <ele>567.0</ele>
        <time>2021-12-28T14:26:35Z</time>
      </trkpt>
      <trkpt lat="37.5470820" lon="-4.3167840">
        <ele>567.0</ele>
        <time>2021-12-28T14:26:36Z</time>
      </trkpt>
      <trkpt lat="37.5470590" lon="-4.3167840">
        <ele>567.0</ele>
        <time>2021-12-28T14:26:37Z</time>
      </trkpt>
      <trkpt lat="37.5470370" lon="-4.3167840">
        <ele>567.0</ele>
        <time>2021-12-28T14:26:38Z</time>
      </trkpt>
      <trkpt lat="37.5470050" lon="-4.3167840">
        <ele>567.0</ele>
        <time>2021-12-28T14:26:39Z</time>
      </trkpt>
      <trkpt lat="37.5469730" lon="-4.3167840">
        <ele>567.0</ele>
        <time>2021-12-28T14:26:40Z</time>
      </trkpt>
      <trkpt lat="37.5469500" lon="-4.3167800">
        <ele>567.0</ele>
        <time>2021-12-28T14:26:41Z</time>
      </trkpt>
      <trkpt lat="37.5469280" lon="-4.3167750">
        <ele>567.0</ele>
        <time>2021-12-28T14:26:42Z</time>
      </trkpt>
      <trkpt lat="37.5468990" lon="-4.3167750">
        <ele>567.0</ele>
        <time>2021-12-28T14:26:43Z</time>
      </trkpt>
      <trkpt lat="37.5468670" lon="-4.3167740">
        <ele>567.0</ele>
        <time>2021-12-28T14:26:44Z</time>
      </trkpt>
      <trkpt lat="37.5468380" lon="-4.3167740">
        <ele>567.0</ele>
        <time>2021-12-28T14:26:45Z</time>
      </trkpt>
      <trkpt lat="37.5468100" lon="-4.3167720">
        <ele>567.0</ele>
        <time>2021-12-28T14:26:46Z</time>
      </trkpt>
      <trkpt lat="37.5467810" lon="-4.3167670">
        <ele>567.0</ele>
        <time>2021-12-28T14:26:47Z</time>
      </trkpt>
      <trkpt lat="37.5467460" lon="-4.3167640">
        <ele>567.0</ele>
        <time>2021-12-28T14:26:48Z</time>
      </trkpt>
      <trkpt lat="37.5467140" lon="-4.3167600">
        <ele>567.0</ele>
        <time>2021-12-28T14:26:49Z</time>
      </trkpt>
      <trkpt lat="37.5466850" lon="-4.3167580">
        <ele>567.2</ele>
        <time>2021-12-28T14:26:50Z</time>
      </trkpt>
      <trkpt lat="37.5466530" lon="-4.3167550">
        <ele>567.2</ele>
        <time>2021-12-28T14:26:51Z</time>
      </trkpt>
      <trkpt lat="37.5466240" lon="-4.3167530">
        <ele>567.2</ele>
        <time>2021-12-28T14:26:52Z</time>
      </trkpt>
      <trkpt lat="37.5465920" lon="-4.3167550">
        <ele>567.2</ele>
        <time>2021-12-28T14:26:53Z</time>
      </trkpt>
      <trkpt lat="37.5465660" lon="-4.3167550">
        <ele>567.2</ele>
        <time>2021-12-28T14:26:54Z</time>
      </trkpt>
      <trkpt lat="37.5465440" lon="-4.3167550">
        <ele>567.2</ele>
        <time>2021-12-28T14:26:55Z</time>
      </trkpt>
      <trkpt lat="37.5465150" lon="-4.3167550">
        <ele>567.2</ele>
        <time>2021-12-28T14:26:56Z</time>
      </trkpt>
      <trkpt lat="37.5464860" lon="-4.3167570">
        <ele>567.2</ele>
        <time>2021-12-28T14:26:57Z</time>
      </trkpt>
      <trkpt lat="37.5464540" lon="-4.3167600">
        <ele>567.4</ele>
        <time>2021-12-28T14:26:58Z</time>
      </trkpt>
      <trkpt lat="37.5464260" lon="-4.3167620">
        <ele>567.4</ele>
        <time>2021-12-28T14:26:59Z</time>
      </trkpt>
      <trkpt lat="37.5463900" lon="-4.3167620">
        <ele>567.4</ele>
        <time>2021-12-28T14:27:00Z</time>
      </trkpt>
      <trkpt lat="37.5463650" lon="-4.3167680">
        <ele>567.6</ele>
        <time>2021-12-28T14:27:01Z</time>
      </trkpt>
      <trkpt lat="37.5463300" lon="-4.3167720">
        <ele>567.6</ele>
        <time>2021-12-28T14:27:02Z</time>
      </trkpt>
      <trkpt lat="37.5462980" lon="-4.3167720">
        <ele>567.6</ele>
        <time>2021-12-28T14:27:03Z</time>
      </trkpt>
      <trkpt lat="37.5462690" lon="-4.3167770">
        <ele>567.6</ele>
        <time>2021-12-28T14:27:04Z</time>
      </trkpt>
      <trkpt lat="37.5462430" lon="-4.3167780">
        <ele>567.8</ele>
        <time>2021-12-28T14:27:05Z</time>
      </trkpt>
      <trkpt lat="37.5462140" lon="-4.3167820">
        <ele>567.8</ele>
        <time>2021-12-28T14:27:06Z</time>
      </trkpt>
      <trkpt lat="37.5461890" lon="-4.3167850">
        <ele>567.8</ele>
        <time>2021-12-28T14:27:07Z</time>
      </trkpt>
      <trkpt lat="37.5461570" lon="-4.3167900">
        <ele>567.8</ele>
        <time>2021-12-28T14:27:08Z</time>
      </trkpt>
      <trkpt lat="37.5461250" lon="-4.3167970">
        <ele>568.0</ele>
        <time>2021-12-28T14:27:09Z</time>
      </trkpt>
      <trkpt lat="37.5460960" lon="-4.3168050">
        <ele>568.0</ele>
        <time>2021-12-28T14:27:10Z</time>
      </trkpt>
      <trkpt lat="37.5460640" lon="-4.3168120">
        <ele>568.0</ele>
        <time>2021-12-28T14:27:11Z</time>
      </trkpt>
      <trkpt lat="37.5460350" lon="-4.3168200">
        <ele>568.0</ele>
        <time>2021-12-28T14:27:12Z</time>
      </trkpt>
      <trkpt lat="37.5460060" lon="-4.3168320">
        <ele>568.0</ele>
        <time>2021-12-28T14:27:13Z</time>
      </trkpt>
      <trkpt lat="37.5459780" lon="-4.3168400">
        <ele>568.0</ele>
        <time>2021-12-28T14:27:14Z</time>
      </trkpt>
      <trkpt lat="37.5459520" lon="-4.3168480">
        <ele>568.0</ele>
        <time>2021-12-28T14:27:15Z</time>
      </trkpt>
      <trkpt lat="37.5459200" lon="-4.3168570">
        <ele>568.0</ele>
        <time>2021-12-28T14:27:16Z</time>
      </trkpt>
      <trkpt lat="37.5458910" lon="-4.3168670">
        <ele>568.0</ele>
        <time>2021-12-28T14:27:17Z</time>
      </trkpt>
      <trkpt lat="37.5458660" lon="-4.3168770">
        <ele>568.0</ele>
        <time>2021-12-28T14:27:18Z</time>
      </trkpt>
      <trkpt lat="37.5458340" lon="-4.3168830">
        <ele>568.2</ele>
        <time>2021-12-28T14:27:19Z</time>
      </trkpt>
      <trkpt lat="37.5458080" lon="-4.3168940">
        <ele>568.2</ele>
        <time>2021-12-28T14:27:20Z</time>
      </trkpt>
      <trkpt lat="37.5457760" lon="-4.3169020">
        <ele>568.2</ele>
        <time>2021-12-28T14:27:21Z</time>
      </trkpt>
      <trkpt lat="37.5457500" lon="-4.3169100">
        <ele>568.4</ele>
        <time>2021-12-28T14:27:22Z</time>
      </trkpt>
      <trkpt lat="37.5457180" lon="-4.3169230">
        <ele>568.4</ele>
        <time>2021-12-28T14:27:23Z</time>
      </trkpt>
      <trkpt lat="37.5456900" lon="-4.3169330">
        <ele>568.4</ele>
        <time>2021-12-28T14:27:24Z</time>
      </trkpt>
      <trkpt lat="37.5456610" lon="-4.3169450">
        <ele>568.6</ele>
        <time>2021-12-28T14:27:25Z</time>
      </trkpt>
      <trkpt lat="37.5456350" lon="-4.3169560">
        <ele>568.6</ele>
        <time>2021-12-28T14:27:26Z</time>
      </trkpt>
      <trkpt lat="37.5456100" lon="-4.3169660">
        <ele>568.6</ele>
        <time>2021-12-28T14:27:27Z</time>
      </trkpt>
      <trkpt lat="37.5455810" lon="-4.3169800">
        <ele>568.6</ele>
        <time>2021-12-28T14:27:28Z</time>
      </trkpt>
      <trkpt lat="37.5455520" lon="-4.3169950">
        <ele>568.6</ele>
        <time>2021-12-28T14:27:29Z</time>
      </trkpt>
      <trkpt lat="37.5455200" lon="-4.3170100">
        <ele>568.8</ele>
        <time>2021-12-28T14:27:30Z</time>
      </trkpt>
      <trkpt lat="37.5454980" lon="-4.3170270">
        <ele>568.8</ele>
        <time>2021-12-28T14:27:31Z</time>
      </trkpt>
      <trkpt lat="37.5454690" lon="-4.3170420">
        <ele>569.0</ele>
        <time>2021-12-28T14:27:32Z</time>
      </trkpt>
      <trkpt lat="37.5454400" lon="-4.3170570">
        <ele>569.0</ele>
        <time>2021-12-28T14:27:33Z</time>
      </trkpt>
      <trkpt lat="37.5454180" lon="-4.3170720">
        <ele>569.2</ele>
        <time>2021-12-28T14:27:34Z</time>
      </trkpt>
      <trkpt lat="37.5453950" lon="-4.3170880">
        <ele>569.2</ele>
        <time>2021-12-28T14:27:35Z</time>
      </trkpt>
      <trkpt lat="37.5453700" lon="-4.3171030">
        <ele>569.4</ele>
        <time>2021-12-28T14:27:36Z</time>
      </trkpt>
      <trkpt lat="37.5453410" lon="-4.3171200">
        <ele>569.4</ele>
        <time>2021-12-28T14:27:37Z</time>
      </trkpt>
      <trkpt lat="37.5453180" lon="-4.3171370">
        <ele>569.4</ele>
        <time>2021-12-28T14:27:38Z</time>
      </trkpt>
      <trkpt lat="37.5452960" lon="-4.3171520">
        <ele>569.6</ele>
        <time>2021-12-28T14:27:39Z</time>
      </trkpt>
      <trkpt lat="37.5452740" lon="-4.3171670">
        <ele>569.4</ele>
        <time>2021-12-28T14:27:40Z</time>
      </trkpt>
      <trkpt lat="37.5452450" lon="-4.3171850">
        <ele>569.4</ele>
        <time>2021-12-28T14:27:41Z</time>
      </trkpt>
      <trkpt lat="37.5452160" lon="-4.3172050">
        <ele>569.6</ele>
        <time>2021-12-28T14:27:42Z</time>
      </trkpt>
      <trkpt lat="37.5451900" lon="-4.3172240">
        <ele>569.6</ele>
        <time>2021-12-28T14:27:43Z</time>
      </trkpt>
      <trkpt lat="37.5451620" lon="-4.3172440">
        <ele>569.6</ele>
        <time>2021-12-28T14:27:44Z</time>
      </trkpt>
      <trkpt lat="37.5451360" lon="-4.3172620">
        <ele>569.8</ele>
        <time>2021-12-28T14:27:45Z</time>
      </trkpt>
      <trkpt lat="37.5451140" lon="-4.3172820">
        <ele>569.8</ele>
        <time>2021-12-28T14:27:46Z</time>
      </trkpt>
      <trkpt lat="37.5450910" lon="-4.3173000">
        <ele>570.0</ele>
        <time>2021-12-28T14:27:47Z</time>
      </trkpt>
      <trkpt lat="37.5450620" lon="-4.3173200">
        <ele>570.0</ele>
        <time>2021-12-28T14:27:48Z</time>
      </trkpt>
      <trkpt lat="37.5450400" lon="-4.3173430">
        <ele>570.0</ele>
        <time>2021-12-28T14:27:49Z</time>
      </trkpt>
      <trkpt lat="37.5450140" lon="-4.3173650">
        <ele>570.2</ele>
        <time>2021-12-28T14:27:50Z</time>
      </trkpt>
      <trkpt lat="37.5449950" lon="-4.3173870">
        <ele>570.2</ele>
        <time>2021-12-28T14:27:51Z</time>
      </trkpt>
      <trkpt lat="37.5449660" lon="-4.3174080">
        <ele>570.2</ele>
        <time>2021-12-28T14:27:52Z</time>
      </trkpt>
      <trkpt lat="37.5449440" lon="-4.3174280">
        <ele>570.2</ele>
        <time>2021-12-28T14:27:53Z</time>
      </trkpt>
      <trkpt lat="37.5449220" lon="-4.3174500">
        <ele>570.2</ele>
        <time>2021-12-28T14:27:54Z</time>
      </trkpt>
      <trkpt lat="37.5448960" lon="-4.3174740">
        <ele>570.2</ele>
        <time>2021-12-28T14:27:55Z</time>
      </trkpt>
      <trkpt lat="37.5448670" lon="-4.3174970">
        <ele>570.2</ele>
        <time>2021-12-28T14:27:56Z</time>
      </trkpt>
      <trkpt lat="37.5448450" lon="-4.3175180">
        <ele>570.2</ele>
        <time>2021-12-28T14:27:57Z</time>
      </trkpt>
      <trkpt lat="37.5448220" lon="-4.3175450">
        <ele>570.4</ele>
        <time>2021-12-28T14:27:58Z</time>
      </trkpt>
      <trkpt lat="37.5448000" lon="-4.3175700">
        <ele>570.4</ele>
        <time>2021-12-28T14:27:59Z</time>
      </trkpt>
      <trkpt lat="37.5447780" lon="-4.3175980">
        <ele>570.4</ele>
        <time>2021-12-28T14:28:00Z</time>
      </trkpt>
      <trkpt lat="37.5447490" lon="-4.3176250">
        <ele>570.6</ele>
        <time>2021-12-28T14:28:01Z</time>
      </trkpt>
      <trkpt lat="37.5447300" lon="-4.3176520">
        <ele>570.6</ele>
        <time>2021-12-28T14:28:02Z</time>
      </trkpt>
      <trkpt lat="37.5447070" lon="-4.3176820">
        <ele>570.6</ele>
        <time>2021-12-28T14:28:03Z</time>
      </trkpt>
      <trkpt lat="37.5446940" lon="-4.3177120">
        <ele>570.8</ele>
        <time>2021-12-28T14:28:04Z</time>
      </trkpt>
      <trkpt lat="37.5446690" lon="-4.3177420">
        <ele>570.8</ele>
        <time>2021-12-28T14:28:05Z</time>
      </trkpt>
      <trkpt lat="37.5446500" lon="-4.3177680">
        <ele>570.8</ele>
        <time>2021-12-28T14:28:06Z</time>
      </trkpt>
      <trkpt lat="37.5446300" lon="-4.3177970">
        <ele>570.8</ele>
        <time>2021-12-28T14:28:07Z</time>
      </trkpt>
      <trkpt lat="37.5446140" lon="-4.3178240">
        <ele>570.8</ele>
        <time>2021-12-28T14:28:08Z</time>
      </trkpt>
      <trkpt lat="37.5445890" lon="-4.3178520">
        <ele>571.0</ele>
        <time>2021-12-28T14:28:09Z</time>
      </trkpt>
      <trkpt lat="37.5445660" lon="-4.3178770">
        <ele>571.0</ele>
        <time>2021-12-28T14:28:10Z</time>
      </trkpt>
      <trkpt lat="37.5445470" lon="-4.3179070">
        <ele>571.0</ele>
        <time>2021-12-28T14:28:11Z</time>
      </trkpt>
      <trkpt lat="37.5445250" lon="-4.3179370">
        <ele>571.0</ele>
        <time>2021-12-28T14:28:12Z</time>
      </trkpt>
      <trkpt lat="37.5445020" lon="-4.3179680">
        <ele>571.0</ele>
        <time>2021-12-28T14:28:13Z</time>
      </trkpt>
      <trkpt lat="37.5444830" lon="-4.3179980">
        <ele>571.0</ele>
        <time>2021-12-28T14:28:14Z</time>
      </trkpt>
      <trkpt lat="37.5444610" lon="-4.3180320">
        <ele>571.0</ele>
        <time>2021-12-28T14:28:15Z</time>
      </trkpt>
      <trkpt lat="37.5444380" lon="-4.3180700">
        <ele>571.0</ele>
        <time>2021-12-28T14:28:16Z</time>
      </trkpt>
      <trkpt lat="37.5444160" lon="-4.3181050">
        <ele>571.0</ele>
        <time>2021-12-28T14:28:17Z</time>
      </trkpt>
      <trkpt lat="37.5443900" lon="-4.3181380">
        <ele>571.0</ele>
        <time>2021-12-28T14:28:18Z</time>
      </trkpt>
      <trkpt lat="37.5443680" lon="-4.3181700">
        <ele>571.0</ele>
        <time>2021-12-28T14:28:19Z</time>
      </trkpt>
      <trkpt lat="37.5443520" lon="-4.3182020">
        <ele>571.0</ele>
        <time>2021-12-28T14:28:20Z</time>
      </trkpt>
      <trkpt lat="37.5443360" lon="-4.3182340">
        <ele>571.0</ele>
        <time>2021-12-28T14:28:21Z</time>
      </trkpt>
      <trkpt lat="37.5443170" lon="-4.3182670">
        <ele>571.0</ele>
        <time>2021-12-28T14:28:22Z</time>
      </trkpt>
      <trkpt lat="37.5443010" lon="-4.3182960">
        <ele>571.0</ele>
        <time>2021-12-28T14:28:23Z</time>
      </trkpt>
      <trkpt lat="37.5442820" lon="-4.3183280">
        <ele>571.0</ele>
        <time>2021-12-28T14:28:24Z</time>
      </trkpt>
      <trkpt lat="37.5442620" lon="-4.3183650">
        <ele>571.0</ele>
        <time>2021-12-28T14:28:25Z</time>
      </trkpt>
      <trkpt lat="37.5442430" lon="-4.3184000">
        <ele>571.0</ele>
        <time>2021-12-28T14:28:26Z</time>
      </trkpt>
      <trkpt lat="37.5442270" lon="-4.3184350">
        <ele>571.0</ele>
        <time>2021-12-28T14:28:27Z</time>
      </trkpt>
      <trkpt lat="37.5442050" lon="-4.3184670">
        <ele>571.0</ele>
        <time>2021-12-28T14:28:28Z</time>
      </trkpt>
      <trkpt lat="37.5441820" lon="-4.3185030">
        <ele>570.8</ele>
        <time>2021-12-28T14:28:29Z</time>
      </trkpt>
      <trkpt lat="37.5441660" lon="-4.3185340">
        <ele>570.8</ele>
        <time>2021-12-28T14:28:30Z</time>
      </trkpt>
      <trkpt lat="37.5441540" lon="-4.3185570">
        <ele>570.6</ele>
        <time>2021-12-28T14:28:31Z</time>
      </trkpt>
      <trkpt lat="37.5441440" lon="-4.3185800">
        <ele>570.6</ele>
        <time>2021-12-28T14:28:32Z</time>
      </trkpt>
      <trkpt lat="37.5441310" lon="-4.3186070">
        <ele>570.4</ele>
        <time>2021-12-28T14:28:33Z</time>
      </trkpt>
      <trkpt lat="37.5441220" lon="-4.3186370">
        <ele>570.2</ele>
        <time>2021-12-28T14:28:34Z</time>
      </trkpt>
      <trkpt lat="37.5441090" lon="-4.3186680">
        <ele>570.2</ele>
        <time>2021-12-28T14:28:35Z</time>
      </trkpt>
      <trkpt lat="37.5440990" lon="-4.3187050">
        <ele>570.0</ele>
        <time>2021-12-28T14:28:36Z</time>
      </trkpt>
      <trkpt lat="37.5440860" lon="-4.3187400">
        <ele>570.0</ele>
        <time>2021-12-28T14:28:37Z</time>
      </trkpt>
      <trkpt lat="37.5440800" lon="-4.3187730">
        <ele>570.0</ele>
        <time>2021-12-28T14:28:38Z</time>
      </trkpt>
      <trkpt lat="37.5440670" lon="-4.3188050">
        <ele>570.0</ele>
        <time>2021-12-28T14:28:39Z</time>
      </trkpt>
      <trkpt lat="37.5440540" lon="-4.3188380">
        <ele>570.2</ele>
        <time>2021-12-28T14:28:40Z</time>
      </trkpt>
      <trkpt lat="37.5440480" lon="-4.3188680">
        <ele>570.2</ele>
        <time>2021-12-28T14:28:41Z</time>
      </trkpt>
      <trkpt lat="37.5440420" lon="-4.3188940">
        <ele>570.4</ele>
        <time>2021-12-28T14:28:42Z</time>
      </trkpt>
      <trkpt lat="37.5440380" lon="-4.3189200">
        <ele>570.4</ele>
        <time>2021-12-28T14:28:43Z</time>
      </trkpt>
      <trkpt lat="37.5440260" lon="-4.3189480">
        <ele>570.4</ele>
        <time>2021-12-28T14:28:44Z</time>
      </trkpt>
      <trkpt lat="37.5440190" lon="-4.3189820">
        <ele>570.4</ele>
        <time>2021-12-28T14:28:45Z</time>
      </trkpt>
      <trkpt lat="37.5440060" lon="-4.3190160">
        <ele>570.2</ele>
        <time>2021-12-28T14:28:46Z</time>
      </trkpt>
      <trkpt lat="37.5439940" lon="-4.3190520">
        <ele>570.2</ele>
        <time>2021-12-28T14:28:47Z</time>
      </trkpt>
      <trkpt lat="37.5439870" lon="-4.3190850">
        <ele>570.2</ele>
        <time>2021-12-28T14:28:48Z</time>
      </trkpt>
      <trkpt lat="37.5439810" lon="-4.3191160">
        <ele>570.2</ele>
        <time>2021-12-28T14:28:49Z</time>
      </trkpt>
      <trkpt lat="37.5439680" lon="-4.3191480">
        <ele>570.2</ele>
        <time>2021-12-28T14:28:50Z</time>
      </trkpt>
      <trkpt lat="37.5439650" lon="-4.3191830">
        <ele>570.0</ele>
        <time>2021-12-28T14:28:51Z</time>
      </trkpt>
      <trkpt lat="37.5439520" lon="-4.3192200">
        <ele>570.0</ele>
        <time>2021-12-28T14:28:52Z</time>
      </trkpt>
      <trkpt lat="37.5439460" lon="-4.3192570">
        <ele>569.8</ele>
        <time>2021-12-28T14:28:53Z</time>
      </trkpt>
      <trkpt lat="37.5439390" lon="-4.3192950">
        <ele>569.8</ele>
        <time>2021-12-28T14:28:54Z</time>
      </trkpt>
      <trkpt lat="37.5439300" lon="-4.3193350">
        <ele>569.8</ele>
        <time>2021-12-28T14:28:55Z</time>
      </trkpt>
      <trkpt lat="37.5439230" lon="-4.3193720">
        <ele>569.8</ele>
        <time>2021-12-28T14:28:56Z</time>
      </trkpt>
      <trkpt lat="37.5439200" lon="-4.3194100">
        <ele>569.6</ele>
        <time>2021-12-28T14:28:57Z</time>
      </trkpt>
      <trkpt lat="37.5439140" lon="-4.3194480">
        <ele>569.6</ele>
        <time>2021-12-28T14:28:58Z</time>
      </trkpt>
      <trkpt lat="37.5439140" lon="-4.3194850">
        <ele>569.6</ele>
        <time>2021-12-28T14:28:59Z</time>
      </trkpt>
      <trkpt lat="37.5439070" lon="-4.3195230">
        <ele>569.6</ele>
        <time>2021-12-28T14:29:00Z</time>
      </trkpt>
      <trkpt lat="37.5439040" lon="-4.3195650">
        <ele>569.6</ele>
        <time>2021-12-28T14:29:01Z</time>
      </trkpt>
      <trkpt lat="37.5438940" lon="-4.3196080">
        <ele>569.6</ele>
        <time>2021-12-28T14:29:02Z</time>
      </trkpt>
      <trkpt lat="37.5438910" lon="-4.3196500">
        <ele>569.6</ele>
        <time>2021-12-28T14:29:03Z</time>
      </trkpt>
      <trkpt lat="37.5438880" lon="-4.3196820">
        <ele>569.8</ele>
        <time>2021-12-28T14:29:04Z</time>
      </trkpt>
      <trkpt lat="37.5438850" lon="-4.3197100">
        <ele>569.8</ele>
        <time>2021-12-28T14:29:05Z</time>
      </trkpt>
      <trkpt lat="37.5438750" lon="-4.3197350">
        <ele>569.8</ele>
        <time>2021-12-28T14:29:06Z</time>
      </trkpt>
      <trkpt lat="37.5438750" lon="-4.3197580">
        <ele>569.8</ele>
        <time>2021-12-28T14:29:07Z</time>
      </trkpt>
      <trkpt lat="37.5438690" lon="-4.3197830">
        <ele>569.8</ele>
        <time>2021-12-28T14:29:08Z</time>
      </trkpt>
      <trkpt lat="37.5438660" lon="-4.3198060">
        <ele>569.8</ele>
        <time>2021-12-28T14:29:09Z</time>
      </trkpt>
      <trkpt lat="37.5438660" lon="-4.3198330">
        <ele>569.8</ele>
        <time>2021-12-28T14:29:10Z</time>
      </trkpt>
      <trkpt lat="37.5438690" lon="-4.3198630">
        <ele>569.8</ele>
        <time>2021-12-28T14:29:11Z</time>
      </trkpt>
      <trkpt lat="37.5438720" lon="-4.3198980">
        <ele>569.8</ele>
        <time>2021-12-28T14:29:12Z</time>
      </trkpt>
      <trkpt lat="37.5438690" lon="-4.3199420">
        <ele>570.0</ele>
        <time>2021-12-28T14:29:13Z</time>
      </trkpt>
      <trkpt lat="37.5438690" lon="-4.3199850">
        <ele>570.2</ele>
        <time>2021-12-28T14:29:14Z</time>
      </trkpt>
      <trkpt lat="37.5438690" lon="-4.3200300">
        <ele>570.4</ele>
        <time>2021-12-28T14:29:15Z</time>
      </trkpt>
      <trkpt lat="37.5438690" lon="-4.3200750">
        <ele>570.6</ele>
        <time>2021-12-28T14:29:16Z</time>
      </trkpt>
      <trkpt lat="37.5438690" lon="-4.3201180">
        <ele>570.8</ele>
        <time>2021-12-28T14:29:17Z</time>
      </trkpt>
      <trkpt lat="37.5438690" lon="-4.3201560">
        <ele>571.0</ele>
        <time>2021-12-28T14:29:18Z</time>
      </trkpt>
      <trkpt lat="37.5438690" lon="-4.3201920">
        <ele>571.0</ele>
        <time>2021-12-28T14:29:19Z</time>
      </trkpt>
      <trkpt lat="37.5438690" lon="-4.3202230">
        <ele>571.2</ele>
        <time>2021-12-28T14:29:20Z</time>
      </trkpt>
      <trkpt lat="37.5438660" lon="-4.3202480">
        <ele>571.4</ele>
        <time>2021-12-28T14:29:21Z</time>
      </trkpt>
      <trkpt lat="37.5438660" lon="-4.3202720">
        <ele>571.4</ele>
        <time>2021-12-28T14:29:22Z</time>
      </trkpt>
      <trkpt lat="37.5438660" lon="-4.3202720">
        <ele>571.4</ele>
        <time>2021-12-28T14:29:23Z</time>
      </trkpt>
      <trkpt lat="37.5438690" lon="-4.3203150">
        <ele>571.4</ele>
        <time>2021-12-28T14:29:24Z</time>
      </trkpt>
      <trkpt lat="37.5438690" lon="-4.3203150">
        <ele>571.4</ele>
        <time>2021-12-28T14:29:25Z</time>
      </trkpt>
      <trkpt lat="37.5438690" lon="-4.3203540">
        <ele>571.4</ele>
        <time>2021-12-28T14:29:26Z</time>
      </trkpt>
      <trkpt lat="37.5438690" lon="-4.3203540">
        <ele>571.6</ele>
        <time>2021-12-28T14:29:27Z</time>
      </trkpt>
      <trkpt lat="37.5438690" lon="-4.3203540">
        <ele>571.6</ele>
        <time>2021-12-28T14:29:28Z</time>
      </trkpt>
      <trkpt lat="37.5438690" lon="-4.3203540">
        <ele>571.6</ele>
        <time>2021-12-28T14:29:29Z</time>
      </trkpt>
      <trkpt lat="37.5438690" lon="-4.3203540">
        <ele>571.6</ele>
        <time>2021-12-28T14:29:30Z</time>
      </trkpt>
      <trkpt lat="37.5438690" lon="-4.3203540">
        <ele>571.6</ele>
        <time>2021-12-28T14:29:31Z</time>
      </trkpt>
      <trkpt lat="37.5438690" lon="-4.3203540">
        <ele>571.8</ele>
        <time>2021-12-28T14:29:54Z</time>
      </trkpt>
      <trkpt lat="37.5439200" lon="-4.3203840">
        <ele>571.8</ele>
        <time>2021-12-28T14:29:55Z</time>
      </trkpt>
      <trkpt lat="37.5439200" lon="-4.3203840">
        <ele>571.6</ele>
        <time>2021-12-28T14:29:56Z</time>
      </trkpt>
      <trkpt lat="37.5439200" lon="-4.3203840">
        <ele>572.2</ele>
        <time>2021-12-28T14:30:03Z</time>
      </trkpt>
      <trkpt lat="37.5439200" lon="-4.3203840">
        <ele>572.2</ele>
        <time>2021-12-28T14:30:04Z</time>
      </trkpt>
      <trkpt lat="37.5439200" lon="-4.3203840">
        <ele>572.4</ele>
        <time>2021-12-28T14:30:05Z</time>
      </trkpt>
      <trkpt lat="37.5439200" lon="-4.3203840">
        <ele>573.4</ele>
        <time>2021-12-28T14:30:20Z</time>
      </trkpt>
      <trkpt lat="37.5439260" lon="-4.3203800">
        <ele>573.4</ele>
        <time>2021-12-28T14:30:21Z</time>
      </trkpt>
      <trkpt lat="37.5439260" lon="-4.3203800">
        <ele>573.4</ele>
        <time>2021-12-28T14:30:22Z</time>
      </trkpt>
      <trkpt lat="37.5439240" lon="-4.3204470">
        <ele>573.4</ele>
        <time>2021-12-28T14:30:23Z</time>
      </trkpt>
      <trkpt lat="37.5439210" lon="-4.3205130">
        <ele>573.4</ele>
        <time>2021-12-28T14:30:24Z</time>
      </trkpt>
      <trkpt lat="37.5439180" lon="-4.3205790">
        <ele>573.4</ele>
        <time>2021-12-28T14:30:25Z</time>
      </trkpt>
      <trkpt lat="37.5439160" lon="-4.3206460">
        <ele>571.0</ele>
        <time>2021-12-28T14:34:51Z</time>
      </trkpt>
      <trkpt lat="37.5439130" lon="-4.3207120">
        <ele>571.0</ele>
        <time>2021-12-28T14:34:52Z</time>
      </trkpt>
      <trkpt lat="37.5439100" lon="-4.3207780">
        <ele>571.0</ele>
        <time>2021-12-28T14:34:53Z</time>
      </trkpt>
      <trkpt lat="37.5439140" lon="-4.3208400">
        <ele>571.0</ele>
        <time>2021-12-28T14:34:54Z</time>
      </trkpt>
      <trkpt lat="37.5439230" lon="-4.3209020">
        <ele>571.0</ele>
        <time>2021-12-28T14:34:55Z</time>
      </trkpt>
      <trkpt lat="37.5439300" lon="-4.3209650">
        <ele>571.0</ele>
        <time>2021-12-28T14:34:56Z</time>
      </trkpt>
      <trkpt lat="37.5439330" lon="-4.3210270">
        <ele>571.0</ele>
        <time>2021-12-28T14:34:57Z</time>
      </trkpt>
      <trkpt lat="37.5439390" lon="-4.3210880">
        <ele>571.2</ele>
        <time>2021-12-28T14:34:58Z</time>
      </trkpt>
      <trkpt lat="37.5439390" lon="-4.3211520">
        <ele>571.2</ele>
        <time>2021-12-28T14:34:59Z</time>
      </trkpt>
      <trkpt lat="37.5439420" lon="-4.3212160">
        <ele>571.2</ele>
        <time>2021-12-28T14:35:00Z</time>
      </trkpt>
      <trkpt lat="37.5439460" lon="-4.3212800">
        <ele>571.4</ele>
        <time>2021-12-28T14:35:01Z</time>
      </trkpt>
      <trkpt lat="37.5439490" lon="-4.3213400">
        <ele>571.4</ele>
        <time>2021-12-28T14:35:02Z</time>
      </trkpt>
      <trkpt lat="37.5439520" lon="-4.3214040">
        <ele>571.4</ele>
        <time>2021-12-28T14:35:03Z</time>
      </trkpt>
      <trkpt lat="37.5439550" lon="-4.3214660">
        <ele>571.2</ele>
        <time>2021-12-28T14:35:04Z</time>
      </trkpt>
      <trkpt lat="37.5439550" lon="-4.3215330">
        <ele>571.2</ele>
        <time>2021-12-28T14:35:05Z</time>
      </trkpt>
      <trkpt lat="37.5439650" lon="-4.3216000">
        <ele>571.2</ele>
        <time>2021-12-28T14:35:06Z</time>
      </trkpt>
      <trkpt lat="37.5439680" lon="-4.3216670">
        <ele>571.2</ele>
        <time>2021-12-28T14:35:07Z</time>
      </trkpt>
      <trkpt lat="37.5439740" lon="-4.3217350">
        <ele>571.0</ele>
        <time>2021-12-28T14:35:08Z</time>
      </trkpt>
      <trkpt lat="37.5439810" lon="-4.3218050">
        <ele>571.0</ele>
        <time>2021-12-28T14:35:09Z</time>
      </trkpt>
      <trkpt lat="37.5439840" lon="-4.3218730">
        <ele>571.0</ele>
        <time>2021-12-28T14:35:10Z</time>
      </trkpt>
      <trkpt lat="37.5439870" lon="-4.3219420">
        <ele>571.0</ele>
        <time>2021-12-28T14:35:11Z</time>
      </trkpt>
      <trkpt lat="37.5439940" lon="-4.3220120">
        <ele>571.0</ele>
        <time>2021-12-28T14:35:12Z</time>
      </trkpt>
      <trkpt lat="37.5440000" lon="-4.3220820">
        <ele>571.0</ele>
        <time>2021-12-28T14:35:13Z</time>
      </trkpt>
      <trkpt lat="37.5440030" lon="-4.3221520">
        <ele>571.0</ele>
        <time>2021-12-28T14:35:14Z</time>
      </trkpt>
      <trkpt lat="37.5440100" lon="-4.3222230">
        <ele>571.0</ele>
        <time>2021-12-28T14:35:15Z</time>
      </trkpt>
      <trkpt lat="37.5440100" lon="-4.3222930">
        <ele>571.0</ele>
        <time>2021-12-28T14:35:16Z</time>
      </trkpt>
      <trkpt lat="37.5440190" lon="-4.3223630">
        <ele>571.0</ele>
        <time>2021-12-28T14:35:17Z</time>
      </trkpt>
      <trkpt lat="37.5440260" lon="-4.3224350">
        <ele>571.0</ele>
        <time>2021-12-28T14:35:18Z</time>
      </trkpt>
      <trkpt lat="37.5440380" lon="-4.3225050">
        <ele>571.0</ele>
        <time>2021-12-28T14:35:19Z</time>
      </trkpt>
      <trkpt lat="37.5440420" lon="-4.3225780">
        <ele>571.2</ele>
        <time>2021-12-28T14:35:20Z</time>
      </trkpt>
      <trkpt lat="37.5440420" lon="-4.3226530">
        <ele>571.2</ele>
        <time>2021-12-28T14:35:21Z</time>
      </trkpt>
      <trkpt lat="37.5440450" lon="-4.3227250">
        <ele>571.4</ele>
        <time>2021-12-28T14:35:22Z</time>
      </trkpt>
      <trkpt lat="37.5440480" lon="-4.3227970">
        <ele>571.4</ele>
        <time>2021-12-28T14:35:23Z</time>
      </trkpt>
      <trkpt lat="37.5440510" lon="-4.3228700">
        <ele>571.4</ele>
        <time>2021-12-28T14:35:24Z</time>
      </trkpt>
      <trkpt lat="37.5440540" lon="-4.3229430">
        <ele>571.4</ele>
        <time>2021-12-28T14:35:25Z</time>
      </trkpt>
      <trkpt lat="37.5440640" lon="-4.3230180">
        <ele>571.4</ele>
        <time>2021-12-28T14:35:26Z</time>
      </trkpt>
      <trkpt lat="37.5440700" lon="-4.3230900">
        <ele>571.6</ele>
        <time>2021-12-28T14:35:27Z</time>
      </trkpt>
      <trkpt lat="37.5440800" lon="-4.3231600">
        <ele>571.6</ele>
        <time>2021-12-28T14:35:28Z</time>
      </trkpt>
      <trkpt lat="37.5440830" lon="-4.3232300">
        <ele>571.6</ele>
        <time>2021-12-28T14:35:29Z</time>
      </trkpt>
      <trkpt lat="37.5440830" lon="-4.3233020">
        <ele>571.6</ele>
        <time>2021-12-28T14:35:30Z</time>
      </trkpt>
      <trkpt lat="37.5440830" lon="-4.3233700">
        <ele>571.6</ele>
        <time>2021-12-28T14:35:31Z</time>
      </trkpt>
      <trkpt lat="37.5440830" lon="-4.3234400">
        <ele>571.8</ele>
        <time>2021-12-28T14:35:32Z</time>
      </trkpt>
      <trkpt lat="37.5440800" lon="-4.3235100">
        <ele>571.8</ele>
        <time>2021-12-28T14:35:33Z</time>
      </trkpt>
      <trkpt lat="37.5440740" lon="-4.3235780">
        <ele>572.0</ele>
        <time>2021-12-28T14:35:34Z</time>
      </trkpt>
      <trkpt lat="37.5440740" lon="-4.3236460">
        <ele>572.0</ele>
        <time>2021-12-28T14:35:35Z</time>
      </trkpt>
      <trkpt lat="37.5440740" lon="-4.3237150">
        <ele>572.2</ele>
        <time>2021-12-28T14:35:36Z</time>
      </trkpt>
      <trkpt lat="37.5440700" lon="-4.3237800">
        <ele>572.2</ele>
        <time>2021-12-28T14:35:37Z</time>
      </trkpt>
      <trkpt lat="37.5440670" lon="-4.3238450">
        <ele>572.2</ele>
        <time>2021-12-28T14:35:38Z</time>
      </trkpt>
      <trkpt lat="37.5440670" lon="-4.3239100">
        <ele>572.2</ele>
        <time>2021-12-28T14:35:39Z</time>
      </trkpt>
      <trkpt lat="37.5440640" lon="-4.3239780">
        <ele>572.2</ele>
        <time>2021-12-28T14:35:40Z</time>
      </trkpt>
      <trkpt lat="37.5440610" lon="-4.3240480">
        <ele>572.2</ele>
        <time>2021-12-28T14:35:41Z</time>
      </trkpt>
      <trkpt lat="37.5440510" lon="-4.3241150">
        <ele>572.2</ele>
        <time>2021-12-28T14:35:42Z</time>
      </trkpt>
      <trkpt lat="37.5440420" lon="-4.3241850">
        <ele>572.2</ele>
        <time>2021-12-28T14:35:43Z</time>
      </trkpt>
      <trkpt lat="37.5440320" lon="-4.3242570">
        <ele>572.2</ele>
        <time>2021-12-28T14:35:44Z</time>
      </trkpt>
      <trkpt lat="37.5440220" lon="-4.3243280">
        <ele>572.4</ele>
        <time>2021-12-28T14:35:45Z</time>
      </trkpt>
      <trkpt lat="37.5440130" lon="-4.3243980">
        <ele>572.4</ele>
        <time>2021-12-28T14:35:46Z</time>
      </trkpt>
      <trkpt lat="37.5440030" lon="-4.3244700">
        <ele>572.4</ele>
        <time>2021-12-28T14:35:47Z</time>
      </trkpt>
      <trkpt lat="37.5439900" lon="-4.3245380">
        <ele>572.6</ele>
        <time>2021-12-28T14:35:48Z</time>
      </trkpt>
      <trkpt lat="37.5439810" lon="-4.3246070">
        <ele>572.6</ele>
        <time>2021-12-28T14:35:49Z</time>
      </trkpt>
      <trkpt lat="37.5439680" lon="-4.3246700">
        <ele>572.6</ele>
        <time>2021-12-28T14:35:50Z</time>
      </trkpt>
      <trkpt lat="37.5439520" lon="-4.3247300">
        <ele>572.6</ele>
        <time>2021-12-28T14:35:51Z</time>
      </trkpt>
      <trkpt lat="37.5439390" lon="-4.3247900">
        <ele>572.6</ele>
        <time>2021-12-28T14:35:52Z</time>
      </trkpt>
      <trkpt lat="37.5439230" lon="-4.3248520">
        <ele>572.6</ele>
        <time>2021-12-28T14:35:53Z</time>
      </trkpt>
      <trkpt lat="37.5439070" lon="-4.3249140">
        <ele>572.6</ele>
        <time>2021-12-28T14:35:54Z</time>
      </trkpt>
      <trkpt lat="37.5438910" lon="-4.3249750">
        <ele>572.8</ele>
        <time>2021-12-28T14:35:55Z</time>
      </trkpt>
      <trkpt lat="37.5438750" lon="-4.3250380">
        <ele>572.8</ele>
        <time>2021-12-28T14:35:56Z</time>
      </trkpt>
      <trkpt lat="37.5438560" lon="-4.3250980">
        <ele>572.8</ele>
        <time>2021-12-28T14:35:57Z</time>
      </trkpt>
      <trkpt lat="37.5438400" lon="-4.3251580">
        <ele>573.0</ele>
        <time>2021-12-28T14:35:58Z</time>
      </trkpt>
      <trkpt lat="37.5438210" lon="-4.3252180">
        <ele>573.0</ele>
        <time>2021-12-28T14:35:59Z</time>
      </trkpt>
      <trkpt lat="37.5438020" lon="-4.3252770">
        <ele>573.0</ele>
        <time>2021-12-28T14:36:00Z</time>
      </trkpt>
      <trkpt lat="37.5437760" lon="-4.3253330">
        <ele>573.0</ele>
        <time>2021-12-28T14:36:01Z</time>
      </trkpt>
      <trkpt lat="37.5437570" lon="-4.3253930">
        <ele>573.0</ele>
        <time>2021-12-28T14:36:02Z</time>
      </trkpt>
      <trkpt lat="37.5437410" lon="-4.3254470">
        <ele>573.2</ele>
        <time>2021-12-28T14:36:03Z</time>
      </trkpt>
      <trkpt lat="37.5437150" lon="-4.3255030">
        <ele>573.2</ele>
        <time>2021-12-28T14:36:04Z</time>
      </trkpt>
      <trkpt lat="37.5436960" lon="-4.3255620">
        <ele>573.2</ele>
        <time>2021-12-28T14:36:05Z</time>
      </trkpt>
      <trkpt lat="37.5436770" lon="-4.3256200">
        <ele>573.2</ele>
        <time>2021-12-28T14:36:06Z</time>
      </trkpt>
      <trkpt lat="37.5436610" lon="-4.3256780">
        <ele>573.2</ele>
        <time>2021-12-28T14:36:07Z</time>
      </trkpt>
      <trkpt lat="37.5436420" lon="-4.3257350">
        <ele>573.2</ele>
        <time>2021-12-28T14:36:08Z</time>
      </trkpt>
      <trkpt lat="37.5436220" lon="-4.3257900">
        <ele>573.2</ele>
        <time>2021-12-28T14:36:09Z</time>
      </trkpt>
      <trkpt lat="37.5436030" lon="-4.3258430">
        <ele>573.2</ele>
        <time>2021-12-28T14:36:10Z</time>
      </trkpt>
      <trkpt lat="37.5435840" lon="-4.3258980">
        <ele>573.2</ele>
        <time>2021-12-28T14:36:11Z</time>
      </trkpt>
      <trkpt lat="37.5435680" lon="-4.3259550">
        <ele>573.2</ele>
        <time>2021-12-28T14:36:12Z</time>
      </trkpt>
      <trkpt lat="37.5435520" lon="-4.3260100">
        <ele>573.4</ele>
        <time>2021-12-28T14:36:13Z</time>
      </trkpt>
      <trkpt lat="37.5435330" lon="-4.3260630">
        <ele>573.4</ele>
        <time>2021-12-28T14:36:14Z</time>
      </trkpt>
      <trkpt lat="37.5435100" lon="-4.3261150">
        <ele>573.4</ele>
        <time>2021-12-28T14:36:15Z</time>
      </trkpt>
      <trkpt lat="37.5434910" lon="-4.3261670">
        <ele>573.6</ele>
        <time>2021-12-28T14:36:16Z</time>
      </trkpt>
      <trkpt lat="37.5434720" lon="-4.3262180">
        <ele>573.6</ele>
        <time>2021-12-28T14:36:17Z</time>
      </trkpt>
      <trkpt lat="37.5434560" lon="-4.3262720">
        <ele>573.6</ele>
        <time>2021-12-28T14:36:18Z</time>
      </trkpt>
      <trkpt lat="37.5434430" lon="-4.3263220">
        <ele>573.6</ele>
        <time>2021-12-28T14:36:19Z</time>
      </trkpt>
      <trkpt lat="37.5434240" lon="-4.3263730">
        <ele>573.8</ele>
        <time>2021-12-28T14:36:20Z</time>
      </trkpt>
      <trkpt lat="37.5434050" lon="-4.3264250">
        <ele>573.8</ele>
        <time>2021-12-28T14:36:21Z</time>
      </trkpt>
      <trkpt lat="37.5433890" lon="-4.3264730">
        <ele>573.8</ele>
        <time>2021-12-28T14:36:22Z</time>
      </trkpt>
      <trkpt lat="37.5433730" lon="-4.3265220">
        <ele>573.8</ele>
        <time>2021-12-28T14:36:23Z</time>
      </trkpt>
      <trkpt lat="37.5433540" lon="-4.3265730">
        <ele>573.8</ele>
        <time>2021-12-28T14:36:24Z</time>
      </trkpt>
      <trkpt lat="37.5433340" lon="-4.3266250">
        <ele>573.8</ele>
        <time>2021-12-28T14:36:25Z</time>
      </trkpt>
      <trkpt lat="37.5433180" lon="-4.3266780">
        <ele>574.0</ele>
        <time>2021-12-28T14:36:26Z</time>
      </trkpt>
      <trkpt lat="37.5432990" lon="-4.3267280">
        <ele>574.0</ele>
        <time>2021-12-28T14:36:27Z</time>
      </trkpt>
      <trkpt lat="37.5432860" lon="-4.3267800">
        <ele>574.0</ele>
        <time>2021-12-28T14:36:28Z</time>
      </trkpt>
      <trkpt lat="37.5432740" lon="-4.3268330">
        <ele>574.0</ele>
        <time>2021-12-28T14:36:29Z</time>
      </trkpt>
      <trkpt lat="37.5432580" lon="-4.3268870">
        <ele>574.2</ele>
        <time>2021-12-28T14:36:30Z</time>
      </trkpt>
      <trkpt lat="37.5432450" lon="-4.3269380">
        <ele>574.2</ele>
        <time>2021-12-28T14:36:31Z</time>
      </trkpt>
      <trkpt lat="37.5432290" lon="-4.3269900">
        <ele>574.4</ele>
        <time>2021-12-28T14:36:32Z</time>
      </trkpt>
      <trkpt lat="37.5432160" lon="-4.3270440">
        <ele>574.4</ele>
        <time>2021-12-28T14:36:33Z</time>
      </trkpt>
      <trkpt lat="37.5432060" lon="-4.3270960">
        <ele>574.6</ele>
        <time>2021-12-28T14:36:34Z</time>
      </trkpt>
      <trkpt lat="37.5431900" lon="-4.3271520">
        <ele>574.6</ele>
        <time>2021-12-28T14:36:35Z</time>
      </trkpt>
      <trkpt lat="37.5431780" lon="-4.3272070">
        <ele>574.6</ele>
        <time>2021-12-28T14:36:36Z</time>
      </trkpt>
      <trkpt lat="37.5431680" lon="-4.3272620">
        <ele>574.8</ele>
        <time>2021-12-28T14:36:37Z</time>
      </trkpt>
      <trkpt lat="37.5431580" lon="-4.3273150">
        <ele>574.8</ele>
        <time>2021-12-28T14:36:38Z</time>
      </trkpt>
      <trkpt lat="37.5431520" lon="-4.3273700">
        <ele>574.8</ele>
        <time>2021-12-28T14:36:39Z</time>
      </trkpt>
      <trkpt lat="37.5431390" lon="-4.3274230">
        <ele>574.8</ele>
        <time>2021-12-28T14:36:40Z</time>
      </trkpt>
      <trkpt lat="37.5431330" lon="-4.3274820">
        <ele>575.0</ele>
        <time>2021-12-28T14:36:41Z</time>
      </trkpt>
      <trkpt lat="37.5431260" lon="-4.3275380">
        <ele>575.0</ele>
        <time>2021-12-28T14:36:42Z</time>
      </trkpt>
      <trkpt lat="37.5431200" lon="-4.3275980">
        <ele>575.0</ele>
        <time>2021-12-28T14:36:43Z</time>
      </trkpt>
      <trkpt lat="37.5431140" lon="-4.3276580">
        <ele>575.0</ele>
        <time>2021-12-28T14:36:44Z</time>
      </trkpt>
      <trkpt lat="37.5431070" lon="-4.3277180">
        <ele>575.2</ele>
        <time>2021-12-28T14:36:45Z</time>
      </trkpt>
      <trkpt lat="37.5430980" lon="-4.3277770">
        <ele>575.4</ele>
        <time>2021-12-28T14:36:46Z</time>
      </trkpt>
      <trkpt lat="37.5430940" lon="-4.3278330">
        <ele>575.4</ele>
        <time>2021-12-28T14:36:47Z</time>
      </trkpt>
      <trkpt lat="37.5430880" lon="-4.3278880">
        <ele>575.4</ele>
        <time>2021-12-28T14:36:48Z</time>
      </trkpt>
      <trkpt lat="37.5430780" lon="-4.3279430">
        <ele>575.6</ele>
        <time>2021-12-28T14:36:49Z</time>
      </trkpt>
      <trkpt lat="37.5430720" lon="-4.3279950">
        <ele>575.6</ele>
        <time>2021-12-28T14:36:50Z</time>
      </trkpt>
      <trkpt lat="37.5430690" lon="-4.3280480">
        <ele>575.4</ele>
        <time>2021-12-28T14:36:51Z</time>
      </trkpt>
      <trkpt lat="37.5430660" lon="-4.3281020">
        <ele>575.4</ele>
        <time>2021-12-28T14:36:52Z</time>
      </trkpt>
      <trkpt lat="37.5430590" lon="-4.3281560">
        <ele>575.6</ele>
        <time>2021-12-28T14:36:53Z</time>
      </trkpt>
      <trkpt lat="37.5430560" lon="-4.3282100">
        <ele>575.6</ele>
        <time>2021-12-28T14:36:54Z</time>
      </trkpt>
      <trkpt lat="37.5430500" lon="-4.3282650">
        <ele>575.6</ele>
        <time>2021-12-28T14:36:55Z</time>
      </trkpt>
      <trkpt lat="37.5430400" lon="-4.3283200">
        <ele>575.6</ele>
        <time>2021-12-28T14:36:56Z</time>
      </trkpt>
      <trkpt lat="37.5430300" lon="-4.3283750">
        <ele>575.8</ele>
        <time>2021-12-28T14:36:57Z</time>
      </trkpt>
      <trkpt lat="37.5430270" lon="-4.3284300">
        <ele>575.8</ele>
        <time>2021-12-28T14:36:58Z</time>
      </trkpt>
      <trkpt lat="37.5430180" lon="-4.3284850">
        <ele>575.8</ele>
        <time>2021-12-28T14:36:59Z</time>
      </trkpt>
      <trkpt lat="37.5430110" lon="-4.3285380">
        <ele>576.0</ele>
        <time>2021-12-28T14:37:00Z</time>
      </trkpt>
      <trkpt lat="37.5430080" lon="-4.3285950">
        <ele>576.2</ele>
        <time>2021-12-28T14:37:01Z</time>
      </trkpt>
      <trkpt lat="37.5430020" lon="-4.3286500">
        <ele>576.4</ele>
        <time>2021-12-28T14:37:02Z</time>
      </trkpt>
      <trkpt lat="37.5429950" lon="-4.3287070">
        <ele>576.4</ele>
        <time>2021-12-28T14:37:03Z</time>
      </trkpt>
      <trkpt lat="37.5429890" lon="-4.3287620">
        <ele>576.6</ele>
        <time>2021-12-28T14:37:04Z</time>
      </trkpt>
      <trkpt lat="37.5429860" lon="-4.3288160">
        <ele>576.6</ele>
        <time>2021-12-28T14:37:05Z</time>
      </trkpt>
      <trkpt lat="37.5429790" lon="-4.3288720">
        <ele>576.8</ele>
        <time>2021-12-28T14:37:06Z</time>
      </trkpt>
      <trkpt lat="37.5429730" lon="-4.3289280">
        <ele>576.8</ele>
        <time>2021-12-28T14:37:07Z</time>
      </trkpt>
      <trkpt lat="37.5429660" lon="-4.3289830">
        <ele>576.8</ele>
        <time>2021-12-28T14:37:08Z</time>
      </trkpt>
      <trkpt lat="37.5429540" lon="-4.3290370">
        <ele>576.8</ele>
        <time>2021-12-28T14:37:09Z</time>
      </trkpt>
      <trkpt lat="37.5429470" lon="-4.3290880">
        <ele>576.8</ele>
        <time>2021-12-28T14:37:10Z</time>
      </trkpt>
      <trkpt lat="37.5429340" lon="-4.3291400">
        <ele>576.8</ele>
        <time>2021-12-28T14:37:11Z</time>
      </trkpt>
      <trkpt lat="37.5429280" lon="-4.3291920">
        <ele>577.0</ele>
        <time>2021-12-28T14:37:12Z</time>
      </trkpt>
      <trkpt lat="37.5429220" lon="-4.3292430">
        <ele>577.0</ele>
        <time>2021-12-28T14:37:13Z</time>
      </trkpt>
      <trkpt lat="37.5429120" lon="-4.3292950">
        <ele>577.0</ele>
        <time>2021-12-28T14:37:14Z</time>
      </trkpt>
      <trkpt lat="37.5429090" lon="-4.3293480">
        <ele>577.0</ele>
        <time>2021-12-28T14:37:15Z</time>
      </trkpt>
      <trkpt lat="37.5429020" lon="-4.3294020">
        <ele>577.0</ele>
        <time>2021-12-28T14:37:16Z</time>
      </trkpt>
      <trkpt lat="37.5428990" lon="-4.3294540">
        <ele>577.2</ele>
        <time>2021-12-28T14:37:17Z</time>
      </trkpt>
      <trkpt lat="37.5428930" lon="-4.3295050">
        <ele>577.2</ele>
        <time>2021-12-28T14:37:18Z</time>
      </trkpt>
      <trkpt lat="37.5428800" lon="-4.3295560">
        <ele>577.4</ele>
        <time>2021-12-28T14:37:19Z</time>
      </trkpt>
      <trkpt lat="37.5428700" lon="-4.3296050">
        <ele>577.4</ele>
        <time>2021-12-28T14:37:20Z</time>
      </trkpt>
      <trkpt lat="37.5428580" lon="-4.3296550">
        <ele>577.6</ele>
        <time>2021-12-28T14:37:21Z</time>
      </trkpt>
      <trkpt lat="37.5428480" lon="-4.3297070">
        <ele>577.6</ele>
        <time>2021-12-28T14:37:22Z</time>
      </trkpt>
      <trkpt lat="37.5428350" lon="-4.3297580">
        <ele>577.8</ele>
        <time>2021-12-28T14:37:23Z</time>
      </trkpt>
      <trkpt lat="37.5428290" lon="-4.3298080">
        <ele>577.8</ele>
        <time>2021-12-28T14:37:24Z</time>
      </trkpt>
      <trkpt lat="37.5428160" lon="-4.3298600">
        <ele>578.0</ele>
        <time>2021-12-28T14:37:25Z</time>
      </trkpt>
      <trkpt lat="37.5428000" lon="-4.3299100">
        <ele>578.0</ele>
        <time>2021-12-28T14:37:26Z</time>
      </trkpt>
      <trkpt lat="37.5427900" lon="-4.3299600">
        <ele>578.2</ele>
        <time>2021-12-28T14:37:27Z</time>
      </trkpt>
      <trkpt lat="37.5427740" lon="-4.3300100">
        <ele>578.2</ele>
        <time>2021-12-28T14:37:28Z</time>
      </trkpt>
      <trkpt lat="37.5427550" lon="-4.3300580">
        <ele>578.2</ele>
        <time>2021-12-28T14:37:29Z</time>
      </trkpt>
      <trkpt lat="37.5427390" lon="-4.3301070">
        <ele>578.2</ele>
        <time>2021-12-28T14:37:30Z</time>
      </trkpt>
      <trkpt lat="37.5427230" lon="-4.3301540">
        <ele>578.4</ele>
        <time>2021-12-28T14:37:31Z</time>
      </trkpt>
      <trkpt lat="37.5427140" lon="-4.3302000">
        <ele>578.4</ele>
        <time>2021-12-28T14:37:32Z</time>
      </trkpt>
      <trkpt lat="37.5426980" lon="-4.3302480">
        <ele>578.4</ele>
        <time>2021-12-28T14:37:33Z</time>
      </trkpt>
      <trkpt lat="37.5426820" lon="-4.3302950">
        <ele>578.4</ele>
        <time>2021-12-28T14:37:34Z</time>
      </trkpt>
      <trkpt lat="37.5426690" lon="-4.3303380">
        <ele>578.6</ele>
        <time>2021-12-28T14:37:35Z</time>
      </trkpt>
      <trkpt lat="37.5426500" lon="-4.3303830">
        <ele>578.6</ele>
        <time>2021-12-28T14:37:36Z</time>
      </trkpt>
      <trkpt lat="37.5426340" lon="-4.3304300">
        <ele>578.8</ele>
        <time>2021-12-28T14:37:37Z</time>
      </trkpt>
      <trkpt lat="37.5426140" lon="-4.3304770">
        <ele>578.8</ele>
        <time>2021-12-28T14:37:38Z</time>
      </trkpt>
      <trkpt lat="37.5425950" lon="-4.3305250">
        <ele>578.8</ele>
        <time>2021-12-28T14:37:39Z</time>
      </trkpt>
      <trkpt lat="37.5425760" lon="-4.3305730">
        <ele>579.0</ele>
        <time>2021-12-28T14:37:40Z</time>
      </trkpt>
      <trkpt lat="37.5425570" lon="-4.3306230">
        <ele>579.2</ele>
        <time>2021-12-28T14:37:41Z</time>
      </trkpt>
      <trkpt lat="37.5425380" lon="-4.3306730">
        <ele>579.2</ele>
        <time>2021-12-28T14:37:42Z</time>
      </trkpt>
      <trkpt lat="37.5425180" lon="-4.3307230">
        <ele>579.4</ele>
        <time>2021-12-28T14:37:43Z</time>
      </trkpt>
      <trkpt lat="37.5424990" lon="-4.3307730">
        <ele>579.6</ele>
        <time>2021-12-28T14:37:44Z</time>
      </trkpt>
      <trkpt lat="37.5424770" lon="-4.3308240">
        <ele>579.6</ele>
        <time>2021-12-28T14:37:45Z</time>
      </trkpt>
      <trkpt lat="37.5424540" lon="-4.3308720">
        <ele>579.8</ele>
        <time>2021-12-28T14:37:46Z</time>
      </trkpt>
      <trkpt lat="37.5424350" lon="-4.3309200">
        <ele>579.8</ele>
        <time>2021-12-28T14:37:47Z</time>
      </trkpt>
      <trkpt lat="37.5424130" lon="-4.3309660">
        <ele>580.0</ele>
        <time>2021-12-28T14:37:48Z</time>
      </trkpt>
      <trkpt lat="37.5423940" lon="-4.3310150">
        <ele>580.0</ele>
        <time>2021-12-28T14:37:49Z</time>
      </trkpt>
      <trkpt lat="37.5423710" lon="-4.3310630">
        <ele>580.2</ele>
        <time>2021-12-28T14:37:50Z</time>
      </trkpt>
      <trkpt lat="37.5423520" lon="-4.3311100">
        <ele>580.2</ele>
        <time>2021-12-28T14:37:51Z</time>
      </trkpt>
      <trkpt lat="37.5423260" lon="-4.3311580">
        <ele>580.4</ele>
        <time>2021-12-28T14:37:52Z</time>
      </trkpt>
      <trkpt lat="37.5423100" lon="-4.3312080">
        <ele>580.4</ele>
        <time>2021-12-28T14:37:53Z</time>
      </trkpt>
      <trkpt lat="37.5422910" lon="-4.3312550">
        <ele>580.6</ele>
        <time>2021-12-28T14:37:54Z</time>
      </trkpt>
      <trkpt lat="37.5422750" lon="-4.3313030">
        <ele>580.8</ele>
        <time>2021-12-28T14:37:55Z</time>
      </trkpt>
      <trkpt lat="37.5422560" lon="-4.3313480">
        <ele>580.8</ele>
        <time>2021-12-28T14:37:56Z</time>
      </trkpt>
      <trkpt lat="37.5422400" lon="-4.3313950">
        <ele>581.0</ele>
        <time>2021-12-28T14:37:57Z</time>
      </trkpt>
      <trkpt lat="37.5422240" lon="-4.3314430">
        <ele>581.0</ele>
        <time>2021-12-28T14:37:58Z</time>
      </trkpt>
      <trkpt lat="37.5422050" lon="-4.3314870">
        <ele>581.2</ele>
        <time>2021-12-28T14:37:59Z</time>
      </trkpt>
      <trkpt lat="37.5421860" lon="-4.3315300">
        <ele>581.4</ele>
        <time>2021-12-28T14:38:00Z</time>
      </trkpt>
      <trkpt lat="37.5421660" lon="-4.3315750">
        <ele>581.6</ele>
        <time>2021-12-28T14:38:01Z</time>
      </trkpt>
      <trkpt lat="37.5421540" lon="-4.3316180">
        <ele>581.8</ele>
        <time>2021-12-28T14:38:02Z</time>
      </trkpt>
      <trkpt lat="37.5421340" lon="-4.3316630">
        <ele>582.0</ele>
        <time>2021-12-28T14:38:03Z</time>
      </trkpt>
      <trkpt lat="37.5421120" lon="-4.3317060">
        <ele>582.0</ele>
        <time>2021-12-28T14:38:04Z</time>
      </trkpt>
      <trkpt lat="37.5420930" lon="-4.3317480">
        <ele>582.2</ele>
        <time>2021-12-28T14:38:05Z</time>
      </trkpt>
      <trkpt lat="37.5420740" lon="-4.3317900">
        <ele>582.2</ele>
        <time>2021-12-28T14:38:06Z</time>
      </trkpt>
      <trkpt lat="37.5420540" lon="-4.3318350">
        <ele>582.4</ele>
        <time>2021-12-28T14:38:07Z</time>
      </trkpt>
      <trkpt lat="37.5420350" lon="-4.3318800">
        <ele>582.4</ele>
        <time>2021-12-28T14:38:08Z</time>
      </trkpt>
      <trkpt lat="37.5420160" lon="-4.3319270">
        <ele>582.4</ele>
        <time>2021-12-28T14:38:09Z</time>
      </trkpt>
      <trkpt lat="37.5420000" lon="-4.3319770">
        <ele>582.6</ele>
        <time>2021-12-28T14:38:10Z</time>
      </trkpt>
      <trkpt lat="37.5419840" lon="-4.3320230">
        <ele>582.6</ele>
        <time>2021-12-28T14:38:11Z</time>
      </trkpt>
      <trkpt lat="37.5419680" lon="-4.3320720">
        <ele>582.6</ele>
        <time>2021-12-28T14:38:12Z</time>
      </trkpt>
      <trkpt lat="37.5419550" lon="-4.3321220">
        <ele>582.6</ele>
        <time>2021-12-28T14:38:13Z</time>
      </trkpt>
      <trkpt lat="37.5419390" lon="-4.3321700">
        <ele>582.8</ele>
        <time>2021-12-28T14:38:14Z</time>
      </trkpt>
      <trkpt lat="37.5419230" lon="-4.3322250">
        <ele>582.8</ele>
        <time>2021-12-28T14:38:15Z</time>
      </trkpt>
      <trkpt lat="37.5419070" lon="-4.3322750">
        <ele>582.8</ele>
        <time>2021-12-28T14:38:16Z</time>
      </trkpt>
      <trkpt lat="37.5418940" lon="-4.3323270">
        <ele>582.8</ele>
        <time>2021-12-28T14:38:17Z</time>
      </trkpt>
      <trkpt lat="37.5418780" lon="-4.3323760">
        <ele>583.0</ele>
        <time>2021-12-28T14:38:18Z</time>
      </trkpt>
      <trkpt lat="37.5418620" lon="-4.3324250">
        <ele>583.0</ele>
        <time>2021-12-28T14:38:19Z</time>
      </trkpt>
      <trkpt lat="37.5418460" lon="-4.3324750">
        <ele>583.2</ele>
        <time>2021-12-28T14:38:20Z</time>
      </trkpt>
      <trkpt lat="37.5418300" lon="-4.3325230">
        <ele>583.2</ele>
        <time>2021-12-28T14:38:21Z</time>
      </trkpt>
      <trkpt lat="37.5418180" lon="-4.3325680">
        <ele>583.2</ele>
        <time>2021-12-28T14:38:22Z</time>
      </trkpt>
      <trkpt lat="37.5418020" lon="-4.3326150">
        <ele>583.2</ele>
        <time>2021-12-28T14:38:23Z</time>
      </trkpt>
      <trkpt lat="37.5417890" lon="-4.3326620">
        <ele>583.2</ele>
        <time>2021-12-28T14:38:24Z</time>
      </trkpt>
      <trkpt lat="37.5417790" lon="-4.3327100">
        <ele>583.2</ele>
        <time>2021-12-28T14:38:25Z</time>
      </trkpt>
      <trkpt lat="37.5417660" lon="-4.3327600">
        <ele>583.2</ele>
        <time>2021-12-28T14:38:26Z</time>
      </trkpt>
      <trkpt lat="37.5417570" lon="-4.3328080">
        <ele>583.2</ele>
        <time>2021-12-28T14:38:27Z</time>
      </trkpt>
      <trkpt lat="37.5417470" lon="-4.3328600">
        <ele>583.2</ele>
        <time>2021-12-28T14:38:28Z</time>
      </trkpt>
      <trkpt lat="37.5417380" lon="-4.3329100">
        <ele>583.2</ele>
        <time>2021-12-28T14:38:29Z</time>
      </trkpt>
      <trkpt lat="37.5417250" lon="-4.3329620">
        <ele>583.4</ele>
        <time>2021-12-28T14:38:30Z</time>
      </trkpt>
      <trkpt lat="37.5417220" lon="-4.3330120">
        <ele>583.4</ele>
        <time>2021-12-28T14:38:31Z</time>
      </trkpt>
      <trkpt lat="37.5417150" lon="-4.3330630">
        <ele>583.4</ele>
        <time>2021-12-28T14:38:32Z</time>
      </trkpt>
      <trkpt lat="37.5417060" lon="-4.3331130">
        <ele>583.4</ele>
        <time>2021-12-28T14:38:33Z</time>
      </trkpt>
      <trkpt lat="37.5416990" lon="-4.3331650">
        <ele>583.4</ele>
        <time>2021-12-28T14:38:34Z</time>
      </trkpt>
      <trkpt lat="37.5416900" lon="-4.3332200">
        <ele>583.4</ele>
        <time>2021-12-28T14:38:35Z</time>
      </trkpt>
      <trkpt lat="37.5416830" lon="-4.3332720">
        <ele>583.4</ele>
        <time>2021-12-28T14:38:36Z</time>
      </trkpt>
      <trkpt lat="37.5416800" lon="-4.3333240">
        <ele>583.4</ele>
        <time>2021-12-28T14:38:37Z</time>
      </trkpt>
      <trkpt lat="37.5416770" lon="-4.3333750">
        <ele>583.4</ele>
        <time>2021-12-28T14:38:38Z</time>
      </trkpt>
      <trkpt lat="37.5416670" lon="-4.3334260">
        <ele>583.4</ele>
        <time>2021-12-28T14:38:39Z</time>
      </trkpt>
      <trkpt lat="37.5416610" lon="-4.3334780">
        <ele>583.4</ele>
        <time>2021-12-28T14:38:40Z</time>
      </trkpt>
      <trkpt lat="37.5416580" lon="-4.3335300">
        <ele>583.4</ele>
        <time>2021-12-28T14:38:41Z</time>
      </trkpt>
      <trkpt lat="37.5416480" lon="-4.3335820">
        <ele>583.6</ele>
        <time>2021-12-28T14:38:42Z</time>
      </trkpt>
      <trkpt lat="37.5416420" lon="-4.3336320">
        <ele>583.6</ele>
        <time>2021-12-28T14:38:43Z</time>
      </trkpt>
      <trkpt lat="37.5416420" lon="-4.3336840">
        <ele>583.8</ele>
        <time>2021-12-28T14:38:44Z</time>
      </trkpt>
      <trkpt lat="37.5416380" lon="-4.3337340">
        <ele>583.8</ele>
        <time>2021-12-28T14:38:45Z</time>
      </trkpt>
      <trkpt lat="37.5416420" lon="-4.3337850">
        <ele>584.0</ele>
        <time>2021-12-28T14:38:46Z</time>
      </trkpt>
      <trkpt lat="37.5416420" lon="-4.3338360">
        <ele>584.0</ele>
        <time>2021-12-28T14:38:47Z</time>
      </trkpt>
      <trkpt lat="37.5416450" lon="-4.3338880">
        <ele>584.0</ele>
        <time>2021-12-28T14:38:48Z</time>
      </trkpt>
      <trkpt lat="37.5416450" lon="-4.3339420">
        <ele>584.0</ele>
        <time>2021-12-28T14:38:49Z</time>
      </trkpt>
      <trkpt lat="37.5416480" lon="-4.3339900">
        <ele>584.2</ele>
        <time>2021-12-28T14:38:50Z</time>
      </trkpt>
      <trkpt lat="37.5416510" lon="-4.3340370">
        <ele>584.4</ele>
        <time>2021-12-28T14:38:51Z</time>
      </trkpt>
      <trkpt lat="37.5416580" lon="-4.3340820">
        <ele>584.4</ele>
        <time>2021-12-28T14:38:52Z</time>
      </trkpt>
      <trkpt lat="37.5416580" lon="-4.3341250">
        <ele>584.6</ele>
        <time>2021-12-28T14:38:53Z</time>
      </trkpt>
      <trkpt lat="37.5416580" lon="-4.3341700">
        <ele>584.6</ele>
        <time>2021-12-28T14:38:54Z</time>
      </trkpt>
      <trkpt lat="37.5416580" lon="-4.3342130">
        <ele>584.6</ele>
        <time>2021-12-28T14:38:55Z</time>
      </trkpt>
      <trkpt lat="37.5416610" lon="-4.3342600">
        <ele>584.8</ele>
        <time>2021-12-28T14:38:56Z</time>
      </trkpt>
      <trkpt lat="37.5416640" lon="-4.3343100">
        <ele>584.8</ele>
        <time>2021-12-28T14:38:57Z</time>
      </trkpt>
      <trkpt lat="37.5416670" lon="-4.3343600">
        <ele>585.0</ele>
        <time>2021-12-28T14:38:58Z</time>
      </trkpt>
      <trkpt lat="37.5416700" lon="-4.3344150">
        <ele>585.0</ele>
        <time>2021-12-28T14:38:59Z</time>
      </trkpt>
      <trkpt lat="37.5416700" lon="-4.3344660">
        <ele>585.2</ele>
        <time>2021-12-28T14:39:00Z</time>
      </trkpt>
      <trkpt lat="37.5416770" lon="-4.3345180">
        <ele>585.2</ele>
        <time>2021-12-28T14:39:01Z</time>
      </trkpt>
      <trkpt lat="37.5416800" lon="-4.3345700">
        <ele>585.4</ele>
        <time>2021-12-28T14:39:02Z</time>
      </trkpt>
      <trkpt lat="37.5416860" lon="-4.3346230">
        <ele>585.6</ele>
        <time>2021-12-28T14:39:03Z</time>
      </trkpt>
      <trkpt lat="37.5416960" lon="-4.3346750">
        <ele>585.6</ele>
        <time>2021-12-28T14:39:04Z</time>
      </trkpt>
      <trkpt lat="37.5417020" lon="-4.3347280">
        <ele>585.8</ele>
        <time>2021-12-28T14:39:05Z</time>
      </trkpt>
      <trkpt lat="37.5417060" lon="-4.3347820">
        <ele>585.8</ele>
        <time>2021-12-28T14:39:06Z</time>
      </trkpt>
      <trkpt lat="37.5417090" lon="-4.3348360">
        <ele>586.0</ele>
        <time>2021-12-28T14:39:07Z</time>
      </trkpt>
      <trkpt lat="37.5417250" lon="-4.3348900">
        <ele>586.0</ele>
        <time>2021-12-28T14:39:08Z</time>
      </trkpt>
      <trkpt lat="37.5417310" lon="-4.3349450">
        <ele>586.2</ele>
        <time>2021-12-28T14:39:09Z</time>
      </trkpt>
      <trkpt lat="37.5417440" lon="-4.3349970">
        <ele>586.2</ele>
        <time>2021-12-28T14:39:10Z</time>
      </trkpt>
      <trkpt lat="37.5417570" lon="-4.3350500">
        <ele>586.4</ele>
        <time>2021-12-28T14:39:11Z</time>
      </trkpt>
      <trkpt lat="37.5417700" lon="-4.3351050">
        <ele>586.4</ele>
        <time>2021-12-28T14:39:12Z</time>
      </trkpt>
      <trkpt lat="37.5417820" lon="-4.3351620">
        <ele>586.4</ele>
        <time>2021-12-28T14:39:13Z</time>
      </trkpt>
      <trkpt lat="37.5417950" lon="-4.3352180">
        <ele>586.6</ele>
        <time>2021-12-28T14:39:14Z</time>
      </trkpt>
      <trkpt lat="37.5418050" lon="-4.3352750">
        <ele>586.6</ele>
        <time>2021-12-28T14:39:15Z</time>
      </trkpt>
      <trkpt lat="37.5418210" lon="-4.3353320">
        <ele>586.8</ele>
        <time>2021-12-28T14:39:16Z</time>
      </trkpt>
      <trkpt lat="37.5418370" lon="-4.3353850">
        <ele>586.8</ele>
        <time>2021-12-28T14:39:17Z</time>
      </trkpt>
      <trkpt lat="37.5418500" lon="-4.3354400">
        <ele>586.8</ele>
        <time>2021-12-28T14:39:18Z</time>
      </trkpt>
      <trkpt lat="37.5418690" lon="-4.3354920">
        <ele>586.8</ele>
        <time>2021-12-28T14:39:19Z</time>
      </trkpt>
      <trkpt lat="37.5418820" lon="-4.3355460">
        <ele>586.8</ele>
        <time>2021-12-28T14:39:20Z</time>
      </trkpt>
      <trkpt lat="37.5418980" lon="-4.3356030">
        <ele>586.8</ele>
        <time>2021-12-28T14:39:21Z</time>
      </trkpt>
      <trkpt lat="37.5419070" lon="-4.3356570">
        <ele>586.8</ele>
        <time>2021-12-28T14:39:22Z</time>
      </trkpt>
      <trkpt lat="37.5419230" lon="-4.3357120">
        <ele>586.8</ele>
        <time>2021-12-28T14:39:23Z</time>
      </trkpt>
      <trkpt lat="37.5419360" lon="-4.3357640">
        <ele>587.0</ele>
        <time>2021-12-28T14:39:24Z</time>
      </trkpt>
      <trkpt lat="37.5419460" lon="-4.3358170">
        <ele>587.0</ele>
        <time>2021-12-28T14:39:25Z</time>
      </trkpt>
      <trkpt lat="37.5419620" lon="-4.3358650">
        <ele>587.0</ele>
        <time>2021-12-28T14:39:26Z</time>
      </trkpt>
      <trkpt lat="37.5419780" lon="-4.3359150">
        <ele>587.2</ele>
        <time>2021-12-28T14:39:27Z</time>
      </trkpt>
      <trkpt lat="37.5419940" lon="-4.3359650">
        <ele>587.4</ele>
        <time>2021-12-28T14:39:28Z</time>
      </trkpt>
      <trkpt lat="37.5420030" lon="-4.3360170">
        <ele>587.4</ele>
        <time>2021-12-28T14:39:29Z</time>
      </trkpt>
      <trkpt lat="37.5420160" lon="-4.3360670">
        <ele>587.6</ele>
        <time>2021-12-28T14:39:30Z</time>
      </trkpt>
      <trkpt lat="37.5420260" lon="-4.3361170">
        <ele>587.8</ele>
        <time>2021-12-28T14:39:31Z</time>
      </trkpt>
      <trkpt lat="37.5420380" lon="-4.3361670">
        <ele>587.8</ele>
        <time>2021-12-28T14:39:32Z</time>
      </trkpt>
      <trkpt lat="37.5420450" lon="-4.3362200">
        <ele>588.0</ele>
        <time>2021-12-28T14:39:33Z</time>
      </trkpt>
      <trkpt lat="37.5420450" lon="-4.3362730">
        <ele>588.0</ele>
        <time>2021-12-28T14:39:34Z</time>
      </trkpt>
      <trkpt lat="37.5420420" lon="-4.3363320">
        <ele>588.2</ele>
        <time>2021-12-28T14:39:35Z</time>
      </trkpt>
      <trkpt lat="37.5420450" lon="-4.3363870">
        <ele>588.2</ele>
        <time>2021-12-28T14:39:36Z</time>
      </trkpt>
      <trkpt lat="37.5420480" lon="-4.3364400">
        <ele>588.4</ele>
        <time>2021-12-28T14:39:37Z</time>
      </trkpt>
      <trkpt lat="37.5420580" lon="-4.3364940">
        <ele>588.4</ele>
        <time>2021-12-28T14:39:38Z</time>
      </trkpt>
      <trkpt lat="37.5420670" lon="-4.3365470">
        <ele>588.6</ele>
        <time>2021-12-28T14:39:39Z</time>
      </trkpt>
      <trkpt lat="37.5420770" lon="-4.3366000">
        <ele>588.6</ele>
        <time>2021-12-28T14:39:40Z</time>
      </trkpt>
      <trkpt lat="37.5420930" lon="-4.3366560">
        <ele>588.6</ele>
        <time>2021-12-28T14:39:41Z</time>
      </trkpt>
      <trkpt lat="37.5421020" lon="-4.3367100">
        <ele>588.8</ele>
        <time>2021-12-28T14:39:42Z</time>
      </trkpt>
      <trkpt lat="37.5421180" lon="-4.3367620">
        <ele>588.8</ele>
        <time>2021-12-28T14:39:43Z</time>
      </trkpt>
      <trkpt lat="37.5421340" lon="-4.3368100">
        <ele>588.8</ele>
        <time>2021-12-28T14:39:44Z</time>
      </trkpt>
      <trkpt lat="37.5421440" lon="-4.3368570">
        <ele>589.0</ele>
        <time>2021-12-28T14:39:45Z</time>
      </trkpt>
      <trkpt lat="37.5421630" lon="-4.3369020">
        <ele>589.0</ele>
        <time>2021-12-28T14:39:46Z</time>
      </trkpt>
      <trkpt lat="37.5421790" lon="-4.3369460">
        <ele>589.0</ele>
        <time>2021-12-28T14:39:47Z</time>
      </trkpt>
      <trkpt lat="37.5421980" lon="-4.3369920">
        <ele>589.0</ele>
        <time>2021-12-28T14:39:48Z</time>
      </trkpt>
      <trkpt lat="37.5422180" lon="-4.3370330">
        <ele>589.0</ele>
        <time>2021-12-28T14:39:49Z</time>
      </trkpt>
      <trkpt lat="37.5422270" lon="-4.3370800">
        <ele>589.2</ele>
        <time>2021-12-28T14:39:50Z</time>
      </trkpt>
      <trkpt lat="37.5422370" lon="-4.3371250">
        <ele>589.2</ele>
        <time>2021-12-28T14:39:51Z</time>
      </trkpt>
      <trkpt lat="37.5422400" lon="-4.3371720">
        <ele>589.2</ele>
        <time>2021-12-28T14:39:52Z</time>
      </trkpt>
      <trkpt lat="37.5422460" lon="-4.3372180">
        <ele>589.2</ele>
        <time>2021-12-28T14:39:53Z</time>
      </trkpt>
      <trkpt lat="37.5422530" lon="-4.3372660">
        <ele>589.4</ele>
        <time>2021-12-28T14:39:54Z</time>
      </trkpt>
      <trkpt lat="37.5422560" lon="-4.3373150">
        <ele>589.4</ele>
        <time>2021-12-28T14:39:55Z</time>
      </trkpt>
      <trkpt lat="37.5422560" lon="-4.3373630">
        <ele>589.4</ele>
        <time>2021-12-28T14:39:56Z</time>
      </trkpt>
      <trkpt lat="37.5422590" lon="-4.3374120">
        <ele>589.6</ele>
        <time>2021-12-28T14:39:57Z</time>
      </trkpt>
      <trkpt lat="37.5422620" lon="-4.3374600">
        <ele>589.6</ele>
        <time>2021-12-28T14:39:58Z</time>
      </trkpt>
      <trkpt lat="37.5422660" lon="-4.3375080">
        <ele>589.6</ele>
        <time>2021-12-28T14:39:59Z</time>
      </trkpt>
      <trkpt lat="37.5422660" lon="-4.3375780">
        <ele>589.6</ele>
        <time>2021-12-28T14:40:00Z</time>
      </trkpt>
      <trkpt lat="37.5422660" lon="-4.3376020">
        <ele>589.8</ele>
        <time>2021-12-28T14:40:01Z</time>
      </trkpt>
      <trkpt lat="37.5422660" lon="-4.3376460">
        <ele>590.0</ele>
        <time>2021-12-28T14:40:02Z</time>
      </trkpt>
      <trkpt lat="37.5422720" lon="-4.3376930">
        <ele>590.0</ele>
        <time>2021-12-28T14:40:03Z</time>
      </trkpt>
      <trkpt lat="37.5422750" lon="-4.3377400">
        <ele>590.2</ele>
        <time>2021-12-28T14:40:04Z</time>
      </trkpt>
      <trkpt lat="37.5422750" lon="-4.3377880">
        <ele>590.2</ele>
        <time>2021-12-28T14:40:05Z</time>
      </trkpt>
      <trkpt lat="37.5422750" lon="-4.3378370">
        <ele>590.2</ele>
        <time>2021-12-28T14:40:06Z</time>
      </trkpt>
      <trkpt lat="37.5422780" lon="-4.3378840">
        <ele>590.4</ele>
        <time>2021-12-28T14:40:07Z</time>
      </trkpt>
      <trkpt lat="37.5422780" lon="-4.3379320">
        <ele>590.4</ele>
        <time>2021-12-28T14:40:08Z</time>
      </trkpt>
      <trkpt lat="37.5422780" lon="-4.3379800">
        <ele>590.6</ele>
        <time>2021-12-28T14:40:09Z</time>
      </trkpt>
      <trkpt lat="37.5422780" lon="-4.3380260">
        <ele>590.6</ele>
        <time>2021-12-28T14:40:10Z</time>
      </trkpt>
      <trkpt lat="37.5422780" lon="-4.3380720">
        <ele>590.8</ele>
        <time>2021-12-28T14:40:11Z</time>
      </trkpt>
      <trkpt lat="37.5422750" lon="-4.3381180">
        <ele>591.0</ele>
        <time>2021-12-28T14:40:12Z</time>
      </trkpt>
      <trkpt lat="37.5422720" lon="-4.3381670">
        <ele>591.0</ele>
        <time>2021-12-28T14:40:13Z</time>
      </trkpt>
      <trkpt lat="37.5422660" lon="-4.3382150">
        <ele>591.0</ele>
        <time>2021-12-28T14:40:14Z</time>
      </trkpt>
      <trkpt lat="37.5422620" lon="-4.3382640">
        <ele>591.2</ele>
        <time>2021-12-28T14:40:15Z</time>
      </trkpt>
      <trkpt lat="37.5422560" lon="-4.3383120">
        <ele>591.2</ele>
        <time>2021-12-28T14:40:16Z</time>
      </trkpt>
      <trkpt lat="37.5422530" lon="-4.3383580">
        <ele>591.2</ele>
        <time>2021-12-28T14:40:17Z</time>
      </trkpt>
      <trkpt lat="37.5422400" lon="-4.3384060">
        <ele>591.4</ele>
        <time>2021-12-28T14:40:18Z</time>
      </trkpt>
      <trkpt lat="37.5422340" lon="-4.3384550">
        <ele>591.4</ele>
        <time>2021-12-28T14:40:19Z</time>
      </trkpt>
      <trkpt lat="37.5422210" lon="-4.3385050">
        <ele>591.4</ele>
        <time>2021-12-28T14:40:20Z</time>
      </trkpt>
      <trkpt lat="37.5422140" lon="-4.3385480">
        <ele>591.6</ele>
        <time>2021-12-28T14:40:21Z</time>
      </trkpt>
      <trkpt lat="37.5422020" lon="-4.3385920">
        <ele>591.6</ele>
        <time>2021-12-28T14:40:22Z</time>
      </trkpt>
      <trkpt lat="37.5421950" lon="-4.3386350">
        <ele>591.6</ele>
        <time>2021-12-28T14:40:23Z</time>
      </trkpt>
      <trkpt lat="37.5421860" lon="-4.3386750">
        <ele>591.8</ele>
        <time>2021-12-28T14:40:24Z</time>
      </trkpt>
      <trkpt lat="37.5421760" lon="-4.3387160">
        <ele>591.8</ele>
        <time>2021-12-28T14:40:25Z</time>
      </trkpt>
      <trkpt lat="37.5421660" lon="-4.3387560">
        <ele>591.8</ele>
        <time>2021-12-28T14:40:26Z</time>
      </trkpt>
      <trkpt lat="37.5421540" lon="-4.3387950">
        <ele>591.6</ele>
        <time>2021-12-28T14:40:27Z</time>
      </trkpt>
      <trkpt lat="37.5421410" lon="-4.3388330">
        <ele>591.6</ele>
        <time>2021-12-28T14:40:28Z</time>
      </trkpt>
      <trkpt lat="37.5421340" lon="-4.3388720">
        <ele>591.6</ele>
        <time>2021-12-28T14:40:29Z</time>
      </trkpt>
      <trkpt lat="37.5421220" lon="-4.3389100">
        <ele>591.6</ele>
        <time>2021-12-28T14:40:30Z</time>
      </trkpt>
      <trkpt lat="37.5421150" lon="-4.3389480">
        <ele>591.6</ele>
        <time>2021-12-28T14:40:31Z</time>
      </trkpt>
      <trkpt lat="37.5421020" lon="-4.3389880">
        <ele>591.6</ele>
        <time>2021-12-28T14:40:32Z</time>
      </trkpt>
      <trkpt lat="37.5420930" lon="-4.3390260">
        <ele>591.6</ele>
        <time>2021-12-28T14:40:33Z</time>
      </trkpt>
      <trkpt lat="37.5420800" lon="-4.3390660">
        <ele>591.6</ele>
        <time>2021-12-28T14:40:34Z</time>
      </trkpt>
      <trkpt lat="37.5420740" lon="-4.3391080">
        <ele>591.6</ele>
        <time>2021-12-28T14:40:35Z</time>
      </trkpt>
      <trkpt lat="37.5420610" lon="-4.3391470">
        <ele>591.8</ele>
        <time>2021-12-28T14:40:36Z</time>
      </trkpt>
      <trkpt lat="37.5420540" lon="-4.3391830">
        <ele>591.8</ele>
        <time>2021-12-28T14:40:37Z</time>
      </trkpt>
      <trkpt lat="37.5420420" lon="-4.3392200">
        <ele>591.8</ele>
        <time>2021-12-28T14:40:38Z</time>
      </trkpt>
      <trkpt lat="37.5420350" lon="-4.3392550">
        <ele>592.0</ele>
        <time>2021-12-28T14:40:39Z</time>
      </trkpt>
      <trkpt lat="37.5420260" lon="-4.3392920">
        <ele>592.0</ele>
        <time>2021-12-28T14:40:40Z</time>
      </trkpt>
      <trkpt lat="37.5420190" lon="-4.3393270">
        <ele>592.0</ele>
        <time>2021-12-28T14:40:41Z</time>
      </trkpt>
      <trkpt lat="37.5420060" lon="-4.3393620">
        <ele>592.2</ele>
        <time>2021-12-28T14:40:42Z</time>
      </trkpt>
      <trkpt lat="37.5420000" lon="-4.3393980">
        <ele>592.2</ele>
        <time>2021-12-28T14:40:43Z</time>
      </trkpt>
      <trkpt lat="37.5419870" lon="-4.3394330">
        <ele>592.4</ele>
        <time>2021-12-28T14:40:44Z</time>
      </trkpt>
      <trkpt lat="37.5419810" lon="-4.3394630">
        <ele>592.4</ele>
        <time>2021-12-28T14:40:45Z</time>
      </trkpt>
      <trkpt lat="37.5419740" lon="-4.3394930">
        <ele>592.4</ele>
        <time>2021-12-28T14:40:46Z</time>
      </trkpt>
      <trkpt lat="37.5419650" lon="-4.3395270">
        <ele>592.4</ele>
        <time>2021-12-28T14:40:47Z</time>
      </trkpt>
      <trkpt lat="37.5419550" lon="-4.3395570">
        <ele>592.4</ele>
        <time>2021-12-28T14:40:48Z</time>
      </trkpt>
      <trkpt lat="37.5419460" lon="-4.3395870">
        <ele>592.4</ele>
        <time>2021-12-28T14:40:49Z</time>
      </trkpt>
      <trkpt lat="37.5419390" lon="-4.3396200">
        <ele>592.6</ele>
        <time>2021-12-28T14:40:50Z</time>
      </trkpt>
      <trkpt lat="37.5419360" lon="-4.3396540">
        <ele>592.6</ele>
        <time>2021-12-28T14:40:51Z</time>
      </trkpt>
      <trkpt lat="37.5419230" lon="-4.3396840">
        <ele>592.6</ele>
        <time>2021-12-28T14:40:52Z</time>
      </trkpt>
      <trkpt lat="37.5419200" lon="-4.3397130">
        <ele>592.8</ele>
        <time>2021-12-28T14:40:53Z</time>
      </trkpt>
      <trkpt lat="37.5419140" lon="-4.3397450">
        <ele>593.0</ele>
        <time>2021-12-28T14:40:54Z</time>
      </trkpt>
      <trkpt lat="37.5419040" lon="-4.3397730">
        <ele>593.0</ele>
        <time>2021-12-28T14:40:55Z</time>
      </trkpt>
      <trkpt lat="37.5418980" lon="-4.3398050">
        <ele>593.2</ele>
        <time>2021-12-28T14:40:56Z</time>
      </trkpt>
      <trkpt lat="37.5418880" lon="-4.3398360">
        <ele>593.2</ele>
        <time>2021-12-28T14:40:57Z</time>
      </trkpt>
      <trkpt lat="37.5418820" lon="-4.3398700">
        <ele>593.2</ele>
        <time>2021-12-28T14:40:58Z</time>
      </trkpt>
      <trkpt lat="37.5418750" lon="-4.3399050">
        <ele>593.4</ele>
        <time>2021-12-28T14:40:59Z</time>
      </trkpt>
      <trkpt lat="37.5418660" lon="-4.3399370">
        <ele>593.4</ele>
        <time>2021-12-28T14:41:00Z</time>
      </trkpt>
      <trkpt lat="37.5418560" lon="-4.3399620">
        <ele>593.6</ele>
        <time>2021-12-28T14:41:01Z</time>
      </trkpt>
      <trkpt lat="37.5418500" lon="-4.3399840">
        <ele>593.8</ele>
        <time>2021-12-28T14:41:02Z</time>
      </trkpt>
      <trkpt lat="37.5418500" lon="-4.3399840">
        <ele>594.0</ele>
        <time>2021-12-28T14:41:03Z</time>
      </trkpt>
      <trkpt lat="37.5418460" lon="-4.3400120">
        <ele>594.0</ele>
        <time>2021-12-28T14:41:04Z</time>
      </trkpt>
      <trkpt lat="37.5418460" lon="-4.3400120">
        <ele>594.2</ele>
        <time>2021-12-28T14:41:05Z</time>
      </trkpt>
      <trkpt lat="37.5418460" lon="-4.3400120">
        <ele>594.2</ele>
        <time>2021-12-28T14:41:06Z</time>
      </trkpt>
      <trkpt lat="37.5418460" lon="-4.3400120">
        <ele>594.4</ele>
        <time>2021-12-28T14:41:07Z</time>
      </trkpt>
      <trkpt lat="37.5418460" lon="-4.3400120">
        <ele>594.4</ele>
        <time>2021-12-28T14:41:08Z</time>
      </trkpt>
      <trkpt lat="37.5418270" lon="-4.3401920">
        <ele>597.6</ele>
        <time>2021-12-28T14:42:26Z</time>
      </trkpt>
      <trkpt lat="37.5418240" lon="-4.3402230">
        <ele>597.6</ele>
        <time>2021-12-28T14:42:27Z</time>
      </trkpt>
      <trkpt lat="37.5418180" lon="-4.3402580">
        <ele>597.4</ele>
        <time>2021-12-28T14:42:28Z</time>
      </trkpt>
      <trkpt lat="37.5418050" lon="-4.3402950">
        <ele>597.4</ele>
        <time>2021-12-28T14:42:29Z</time>
      </trkpt>
      <trkpt lat="37.5417980" lon="-4.3403340">
        <ele>597.4</ele>
        <time>2021-12-28T14:42:30Z</time>
      </trkpt>
      <trkpt lat="37.5417890" lon="-4.3403770">
        <ele>597.2</ele>
        <time>2021-12-28T14:42:31Z</time>
      </trkpt>
      <trkpt lat="37.5417820" lon="-4.3404150">
        <ele>597.2</ele>
        <time>2021-12-28T14:42:32Z</time>
      </trkpt>
      <trkpt lat="37.5417760" lon="-4.3404520">
        <ele>597.0</ele>
        <time>2021-12-28T14:42:33Z</time>
      </trkpt>
      <trkpt lat="37.5417660" lon="-4.3404930">
        <ele>597.0</ele>
        <time>2021-12-28T14:42:34Z</time>
      </trkpt>
      <trkpt lat="37.5417630" lon="-4.3405350">
        <ele>596.8</ele>
        <time>2021-12-28T14:42:35Z</time>
      </trkpt>
      <trkpt lat="37.5417570" lon="-4.3405770">
        <ele>596.8</ele>
        <time>2021-12-28T14:42:36Z</time>
      </trkpt>
      <trkpt lat="37.5417500" lon="-4.3406200">
        <ele>596.6</ele>
        <time>2021-12-28T14:42:37Z</time>
      </trkpt>
      <trkpt lat="37.5417470" lon="-4.3406640">
        <ele>596.6</ele>
        <time>2021-12-28T14:42:38Z</time>
      </trkpt>
      <trkpt lat="37.5417440" lon="-4.3407070">
        <ele>596.6</ele>
        <time>2021-12-28T14:42:39Z</time>
      </trkpt>
      <trkpt lat="37.5417380" lon="-4.3407480">
        <ele>596.6</ele>
        <time>2021-12-28T14:42:40Z</time>
      </trkpt>
      <trkpt lat="37.5417310" lon="-4.3407950">
        <ele>596.6</ele>
        <time>2021-12-28T14:42:41Z</time>
      </trkpt>
      <trkpt lat="37.5417280" lon="-4.3408420">
        <ele>596.6</ele>
        <time>2021-12-28T14:42:42Z</time>
      </trkpt>
      <trkpt lat="37.5417280" lon="-4.3408880">
        <ele>596.6</ele>
        <time>2021-12-28T14:42:43Z</time>
      </trkpt>
      <trkpt lat="37.5417250" lon="-4.3409350">
        <ele>596.6</ele>
        <time>2021-12-28T14:42:44Z</time>
      </trkpt>
      <trkpt lat="37.5417250" lon="-4.3409820">
        <ele>596.6</ele>
        <time>2021-12-28T14:42:45Z</time>
      </trkpt>
      <trkpt lat="37.5417250" lon="-4.3410280">
        <ele>596.6</ele>
        <time>2021-12-28T14:42:46Z</time>
      </trkpt>
      <trkpt lat="37.5417250" lon="-4.3410740">
        <ele>596.6</ele>
        <time>2021-12-28T14:42:47Z</time>
      </trkpt>
      <trkpt lat="37.5417250" lon="-4.3411180">
        <ele>596.6</ele>
        <time>2021-12-28T14:42:48Z</time>
      </trkpt>
      <trkpt lat="37.5417250" lon="-4.3411620">
        <ele>596.6</ele>
        <time>2021-12-28T14:42:49Z</time>
      </trkpt>
      <trkpt lat="37.5417250" lon="-4.3412080">
        <ele>596.6</ele>
        <time>2021-12-28T14:42:50Z</time>
      </trkpt>
      <trkpt lat="37.5417280" lon="-4.3412530">
        <ele>596.6</ele>
        <time>2021-12-28T14:42:51Z</time>
      </trkpt>
      <trkpt lat="37.5417280" lon="-4.3413000">
        <ele>596.6</ele>
        <time>2021-12-28T14:42:52Z</time>
      </trkpt>
      <trkpt lat="37.5417280" lon="-4.3413440">
        <ele>596.6</ele>
        <time>2021-12-28T14:42:53Z</time>
      </trkpt>
      <trkpt lat="37.5417280" lon="-4.3413870">
        <ele>596.6</ele>
        <time>2021-12-28T14:42:54Z</time>
      </trkpt>
      <trkpt lat="37.5417310" lon="-4.3414320">
        <ele>596.6</ele>
        <time>2021-12-28T14:42:55Z</time>
      </trkpt>
      <trkpt lat="37.5417380" lon="-4.3414740">
        <ele>596.6</ele>
        <time>2021-12-28T14:42:56Z</time>
      </trkpt>
      <trkpt lat="37.5417380" lon="-4.3415160">
        <ele>596.6</ele>
        <time>2021-12-28T14:42:57Z</time>
      </trkpt>
      <trkpt lat="37.5417440" lon="-4.3415620">
        <ele>596.4</ele>
        <time>2021-12-28T14:42:58Z</time>
      </trkpt>
      <trkpt lat="37.5417470" lon="-4.3416070">
        <ele>596.4</ele>
        <time>2021-12-28T14:42:59Z</time>
      </trkpt>
      <trkpt lat="37.5417500" lon="-4.3416480">
        <ele>596.6</ele>
        <time>2021-12-28T14:43:00Z</time>
      </trkpt>
      <trkpt lat="37.5417570" lon="-4.3416900">
        <ele>596.4</ele>
        <time>2021-12-28T14:43:01Z</time>
      </trkpt>
      <trkpt lat="37.5417600" lon="-4.3417320">
        <ele>596.4</ele>
        <time>2021-12-28T14:43:02Z</time>
      </trkpt>
      <trkpt lat="37.5417630" lon="-4.3417740">
        <ele>596.4</ele>
        <time>2021-12-28T14:43:03Z</time>
      </trkpt>
      <trkpt lat="37.5417660" lon="-4.3418150">
        <ele>596.4</ele>
        <time>2021-12-28T14:43:04Z</time>
      </trkpt>
      <trkpt lat="37.5417760" lon="-4.3418560">
        <ele>596.4</ele>
        <time>2021-12-28T14:43:05Z</time>
      </trkpt>
      <trkpt lat="37.5417790" lon="-4.3418960">
        <ele>596.4</ele>
        <time>2021-12-28T14:43:06Z</time>
      </trkpt>
      <trkpt lat="37.5417820" lon="-4.3419360">
        <ele>596.4</ele>
        <time>2021-12-28T14:43:07Z</time>
      </trkpt>
      <trkpt lat="37.5417890" lon="-4.3419800">
        <ele>596.2</ele>
        <time>2021-12-28T14:43:08Z</time>
      </trkpt>
      <trkpt lat="37.5417980" lon="-4.3420220">
        <ele>596.2</ele>
        <time>2021-12-28T14:43:09Z</time>
      </trkpt>
      <trkpt lat="37.5418050" lon="-4.3420650">
        <ele>596.2</ele>
        <time>2021-12-28T14:43:10Z</time>
      </trkpt>
      <trkpt lat="37.5418140" lon="-4.3421070">
        <ele>596.4</ele>
        <time>2021-12-28T14:43:11Z</time>
      </trkpt>
      <trkpt lat="37.5418210" lon="-4.3421470">
        <ele>596.4</ele>
        <time>2021-12-28T14:43:12Z</time>
      </trkpt>
      <trkpt lat="37.5418270" lon="-4.3421880">
        <ele>596.4</ele>
        <time>2021-12-28T14:43:13Z</time>
      </trkpt>
      <trkpt lat="37.5418400" lon="-4.3422300">
        <ele>596.4</ele>
        <time>2021-12-28T14:43:14Z</time>
      </trkpt>
      <trkpt lat="37.5418460" lon="-4.3422680">
        <ele>596.4</ele>
        <time>2021-12-28T14:43:15Z</time>
      </trkpt>
      <trkpt lat="37.5418560" lon="-4.3423080">
        <ele>596.4</ele>
        <time>2021-12-28T14:43:16Z</time>
      </trkpt>
      <trkpt lat="37.5418660" lon="-4.3423450">
        <ele>596.4</ele>
        <time>2021-12-28T14:43:17Z</time>
      </trkpt>
      <trkpt lat="37.5418780" lon="-4.3423830">
        <ele>596.6</ele>
        <time>2021-12-28T14:43:18Z</time>
      </trkpt>
      <trkpt lat="37.5418820" lon="-4.3424220">
        <ele>596.6</ele>
        <time>2021-12-28T14:43:19Z</time>
      </trkpt>
      <trkpt lat="37.5418940" lon="-4.3424620">
        <ele>596.6</ele>
        <time>2021-12-28T14:43:20Z</time>
      </trkpt>
      <trkpt lat="37.5419010" lon="-4.3425000">
        <ele>596.6</ele>
        <time>2021-12-28T14:43:21Z</time>
      </trkpt>
      <trkpt lat="37.5419070" lon="-4.3425380">
        <ele>596.6</ele>
        <time>2021-12-28T14:43:22Z</time>
      </trkpt>
      <trkpt lat="37.5419200" lon="-4.3425730">
        <ele>596.6</ele>
        <time>2021-12-28T14:43:23Z</time>
      </trkpt>
      <trkpt lat="37.5419300" lon="-4.3426100">
        <ele>596.6</ele>
        <time>2021-12-28T14:43:24Z</time>
      </trkpt>
      <trkpt lat="37.5419420" lon="-4.3426430">
        <ele>596.6</ele>
        <time>2021-12-28T14:43:25Z</time>
      </trkpt>
      <trkpt lat="37.5419550" lon="-4.3426780">
        <ele>596.6</ele>
        <time>2021-12-28T14:43:26Z</time>
      </trkpt>
      <trkpt lat="37.5419650" lon="-4.3427150">
        <ele>596.8</ele>
        <time>2021-12-28T14:43:27Z</time>
      </trkpt>
      <trkpt lat="37.5419780" lon="-4.3427500">
        <ele>596.8</ele>
        <time>2021-12-28T14:43:28Z</time>
      </trkpt>
      <trkpt lat="37.5419870" lon="-4.3427870">
        <ele>596.8</ele>
        <time>2021-12-28T14:43:29Z</time>
      </trkpt>
      <trkpt lat="37.5420030" lon="-4.3428220">
        <ele>597.0</ele>
        <time>2021-12-28T14:43:30Z</time>
      </trkpt>
      <trkpt lat="37.5420190" lon="-4.3428570">
        <ele>597.0</ele>
        <time>2021-12-28T14:43:31Z</time>
      </trkpt>
      <trkpt lat="37.5420290" lon="-4.3428920">
        <ele>597.0</ele>
        <time>2021-12-28T14:43:32Z</time>
      </trkpt>
      <trkpt lat="37.5420450" lon="-4.3429260">
        <ele>597.0</ele>
        <time>2021-12-28T14:43:33Z</time>
      </trkpt>
      <trkpt lat="37.5420610" lon="-4.3429580">
        <ele>597.0</ele>
        <time>2021-12-28T14:43:34Z</time>
      </trkpt>
      <trkpt lat="37.5420770" lon="-4.3429930">
        <ele>597.0</ele>
        <time>2021-12-28T14:43:35Z</time>
      </trkpt>
      <trkpt lat="37.5420930" lon="-4.3430280">
        <ele>597.0</ele>
        <time>2021-12-28T14:43:36Z</time>
      </trkpt>
      <trkpt lat="37.5421060" lon="-4.3430650">
        <ele>596.8</ele>
        <time>2021-12-28T14:43:37Z</time>
      </trkpt>
      <trkpt lat="37.5421220" lon="-4.3431020">
        <ele>597.0</ele>
        <time>2021-12-28T14:43:38Z</time>
      </trkpt>
      <trkpt lat="37.5421380" lon="-4.3431370">
        <ele>597.0</ele>
        <time>2021-12-28T14:43:39Z</time>
      </trkpt>
      <trkpt lat="37.5421540" lon="-4.3431700">
        <ele>597.0</ele>
        <time>2021-12-28T14:43:40Z</time>
      </trkpt>
      <trkpt lat="37.5421730" lon="-4.3432050">
        <ele>597.0</ele>
        <time>2021-12-28T14:43:41Z</time>
      </trkpt>
      <trkpt lat="37.5421860" lon="-4.3432400">
        <ele>597.0</ele>
        <time>2021-12-28T14:43:42Z</time>
      </trkpt>
      <trkpt lat="37.5422020" lon="-4.3432760">
        <ele>597.0</ele>
        <time>2021-12-28T14:43:43Z</time>
      </trkpt>
      <trkpt lat="37.5422180" lon="-4.3433120">
        <ele>597.0</ele>
        <time>2021-12-28T14:43:44Z</time>
      </trkpt>
      <trkpt lat="37.5422340" lon="-4.3433450">
        <ele>597.0</ele>
        <time>2021-12-28T14:43:45Z</time>
      </trkpt>
      <trkpt lat="37.5422530" lon="-4.3433770">
        <ele>597.0</ele>
        <time>2021-12-28T14:43:46Z</time>
      </trkpt>
      <trkpt lat="37.5422660" lon="-4.3434100">
        <ele>597.0</ele>
        <time>2021-12-28T14:43:47Z</time>
      </trkpt>
      <trkpt lat="37.5422820" lon="-4.3434430">
        <ele>597.2</ele>
        <time>2021-12-28T14:43:48Z</time>
      </trkpt>
      <trkpt lat="37.5423010" lon="-4.3434750">
        <ele>597.2</ele>
        <time>2021-12-28T14:43:49Z</time>
      </trkpt>
      <trkpt lat="37.5423200" lon="-4.3435080">
        <ele>597.4</ele>
        <time>2021-12-28T14:43:50Z</time>
      </trkpt>
      <trkpt lat="37.5423390" lon="-4.3435380">
        <ele>597.4</ele>
        <time>2021-12-28T14:43:51Z</time>
      </trkpt>
      <trkpt lat="37.5423580" lon="-4.3435720">
        <ele>597.4</ele>
        <time>2021-12-28T14:43:52Z</time>
      </trkpt>
      <trkpt lat="37.5423780" lon="-4.3436000">
        <ele>597.6</ele>
        <time>2021-12-28T14:43:53Z</time>
      </trkpt>
      <trkpt lat="37.5423970" lon="-4.3436300">
        <ele>597.6</ele>
        <time>2021-12-28T14:43:54Z</time>
      </trkpt>
      <trkpt lat="37.5424190" lon="-4.3436630">
        <ele>597.6</ele>
        <time>2021-12-28T14:43:55Z</time>
      </trkpt>
      <trkpt lat="37.5424380" lon="-4.3436950">
        <ele>597.6</ele>
        <time>2021-12-28T14:43:56Z</time>
      </trkpt>
      <trkpt lat="37.5424610" lon="-4.3437250">
        <ele>597.6</ele>
        <time>2021-12-28T14:43:57Z</time>
      </trkpt>
      <trkpt lat="37.5424830" lon="-4.3437550">
        <ele>597.6</ele>
        <time>2021-12-28T14:43:58Z</time>
      </trkpt>
      <trkpt lat="37.5425020" lon="-4.3437850">
        <ele>597.6</ele>
        <time>2021-12-28T14:43:59Z</time>
      </trkpt>
      <trkpt lat="37.5425250" lon="-4.3438170">
        <ele>597.6</ele>
        <time>2021-12-28T14:44:00Z</time>
      </trkpt>
      <trkpt lat="37.5425500" lon="-4.3438470">
        <ele>597.6</ele>
        <time>2021-12-28T14:44:01Z</time>
      </trkpt>
      <trkpt lat="37.5425730" lon="-4.3438770">
        <ele>597.6</ele>
        <time>2021-12-28T14:44:02Z</time>
      </trkpt>
      <trkpt lat="37.5425950" lon="-4.3439050">
        <ele>597.6</ele>
        <time>2021-12-28T14:44:03Z</time>
      </trkpt>
      <trkpt lat="37.5426210" lon="-4.3439350">
        <ele>597.8</ele>
        <time>2021-12-28T14:44:04Z</time>
      </trkpt>
      <trkpt lat="37.5426500" lon="-4.3439650">
        <ele>597.8</ele>
        <time>2021-12-28T14:44:05Z</time>
      </trkpt>
      <trkpt lat="37.5426720" lon="-4.3439930">
        <ele>597.8</ele>
        <time>2021-12-28T14:44:06Z</time>
      </trkpt>
      <trkpt lat="37.5426980" lon="-4.3440220">
        <ele>598.0</ele>
        <time>2021-12-28T14:44:07Z</time>
      </trkpt>
      <trkpt lat="37.5427230" lon="-4.3440520">
        <ele>598.0</ele>
        <time>2021-12-28T14:44:08Z</time>
      </trkpt>
      <trkpt lat="37.5427490" lon="-4.3440800">
        <ele>598.0</ele>
        <time>2021-12-28T14:44:09Z</time>
      </trkpt>
      <trkpt lat="37.5427710" lon="-4.3441080">
        <ele>598.0</ele>
        <time>2021-12-28T14:44:10Z</time>
      </trkpt>
      <trkpt lat="37.5427970" lon="-4.3441370">
        <ele>598.0</ele>
        <time>2021-12-28T14:44:11Z</time>
      </trkpt>
      <trkpt lat="37.5428220" lon="-4.3441670">
        <ele>598.2</ele>
        <time>2021-12-28T14:44:12Z</time>
      </trkpt>
      <trkpt lat="37.5428510" lon="-4.3441970">
        <ele>598.2</ele>
        <time>2021-12-28T14:44:13Z</time>
      </trkpt>
      <trkpt lat="37.5428770" lon="-4.3442240">
        <ele>598.4</ele>
        <time>2021-12-28T14:44:14Z</time>
      </trkpt>
      <trkpt lat="37.5429020" lon="-4.3442480">
        <ele>598.4</ele>
        <time>2021-12-28T14:44:15Z</time>
      </trkpt>
      <trkpt lat="37.5429340" lon="-4.3442740">
        <ele>598.4</ele>
        <time>2021-12-28T14:44:16Z</time>
      </trkpt>
      <trkpt lat="37.5429660" lon="-4.3443000">
        <ele>598.4</ele>
        <time>2021-12-28T14:44:17Z</time>
      </trkpt>
      <trkpt lat="37.5429890" lon="-4.3443220">
        <ele>598.4</ele>
        <time>2021-12-28T14:44:18Z</time>
      </trkpt>
      <trkpt lat="37.5430140" lon="-4.3443430">
        <ele>598.4</ele>
        <time>2021-12-28T14:44:19Z</time>
      </trkpt>
      <trkpt lat="37.5430400" lon="-4.3443650">
        <ele>598.4</ele>
        <time>2021-12-28T14:44:20Z</time>
      </trkpt>
      <trkpt lat="37.5430690" lon="-4.3443860">
        <ele>598.4</ele>
        <time>2021-12-28T14:44:21Z</time>
      </trkpt>
      <trkpt lat="37.5430940" lon="-4.3444100">
        <ele>598.4</ele>
        <time>2021-12-28T14:44:22Z</time>
      </trkpt>
      <trkpt lat="37.5431200" lon="-4.3444320">
        <ele>598.4</ele>
        <time>2021-12-28T14:44:23Z</time>
      </trkpt>
      <trkpt lat="37.5431520" lon="-4.3444550">
        <ele>598.6</ele>
        <time>2021-12-28T14:44:24Z</time>
      </trkpt>
      <trkpt lat="37.5431810" lon="-4.3444770">
        <ele>598.6</ele>
        <time>2021-12-28T14:44:25Z</time>
      </trkpt>
      <trkpt lat="37.5432100" lon="-4.3445000">
        <ele>598.6</ele>
        <time>2021-12-28T14:44:26Z</time>
      </trkpt>
      <trkpt lat="37.5432380" lon="-4.3445240">
        <ele>598.6</ele>
        <time>2021-12-28T14:44:27Z</time>
      </trkpt>
      <trkpt lat="37.5432700" lon="-4.3445450">
        <ele>598.8</ele>
        <time>2021-12-28T14:44:28Z</time>
      </trkpt>
      <trkpt lat="37.5432960" lon="-4.3445670">
        <ele>598.8</ele>
        <time>2021-12-28T14:44:29Z</time>
      </trkpt>
      <trkpt lat="37.5433280" lon="-4.3445880">
        <ele>599.0</ele>
        <time>2021-12-28T14:44:30Z</time>
      </trkpt>
      <trkpt lat="37.5433570" lon="-4.3446100">
        <ele>599.2</ele>
        <time>2021-12-28T14:44:31Z</time>
      </trkpt>
      <trkpt lat="37.5433860" lon="-4.3446300">
        <ele>599.2</ele>
        <time>2021-12-28T14:44:32Z</time>
      </trkpt>
      <trkpt lat="37.5434140" lon="-4.3446500">
        <ele>599.4</ele>
        <time>2021-12-28T14:44:33Z</time>
      </trkpt>
      <trkpt lat="37.5434430" lon="-4.3446660">
        <ele>599.4</ele>
        <time>2021-12-28T14:44:34Z</time>
      </trkpt>
      <trkpt lat="37.5434690" lon="-4.3446850">
        <ele>599.2</ele>
        <time>2021-12-28T14:44:35Z</time>
      </trkpt>
      <trkpt lat="37.5434940" lon="-4.3447020">
        <ele>599.2</ele>
        <time>2021-12-28T14:44:36Z</time>
      </trkpt>
      <trkpt lat="37.5435260" lon="-4.3447180">
        <ele>599.2</ele>
        <time>2021-12-28T14:44:37Z</time>
      </trkpt>
      <trkpt lat="37.5435520" lon="-4.3447350">
        <ele>599.4</ele>
        <time>2021-12-28T14:44:38Z</time>
      </trkpt>
      <trkpt lat="37.5435740" lon="-4.3447520">
        <ele>599.4</ele>
        <time>2021-12-28T14:44:39Z</time>
      </trkpt>
      <trkpt lat="37.5435970" lon="-4.3447670">
        <ele>599.4</ele>
        <time>2021-12-28T14:44:40Z</time>
      </trkpt>
      <trkpt lat="37.5436260" lon="-4.3447820">
        <ele>599.4</ele>
        <time>2021-12-28T14:44:41Z</time>
      </trkpt>
      <trkpt lat="37.5436510" lon="-4.3447980">
        <ele>599.4</ele>
        <time>2021-12-28T14:44:42Z</time>
      </trkpt>
      <trkpt lat="37.5436770" lon="-4.3448130">
        <ele>599.4</ele>
        <time>2021-12-28T14:44:43Z</time>
      </trkpt>
      <trkpt lat="37.5437060" lon="-4.3448280">
        <ele>599.6</ele>
        <time>2021-12-28T14:44:44Z</time>
      </trkpt>
      <trkpt lat="37.5437280" lon="-4.3448470">
        <ele>599.6</ele>
        <time>2021-12-28T14:44:45Z</time>
      </trkpt>
      <trkpt lat="37.5437500" lon="-4.3448650">
        <ele>599.6</ele>
        <time>2021-12-28T14:44:46Z</time>
      </trkpt>
      <trkpt lat="37.5437760" lon="-4.3448840">
        <ele>599.8</ele>
        <time>2021-12-28T14:44:47Z</time>
      </trkpt>
      <trkpt lat="37.5438050" lon="-4.3449000">
        <ele>599.8</ele>
        <time>2021-12-28T14:44:48Z</time>
      </trkpt>
      <trkpt lat="37.5438270" lon="-4.3449150">
        <ele>600.0</ele>
        <time>2021-12-28T14:44:49Z</time>
      </trkpt>
      <trkpt lat="37.5438500" lon="-4.3449280">
        <ele>600.0</ele>
        <time>2021-12-28T14:44:50Z</time>
      </trkpt>
      <trkpt lat="37.5438720" lon="-4.3449420">
        <ele>600.0</ele>
        <time>2021-12-28T14:44:51Z</time>
      </trkpt>
      <trkpt lat="37.5439010" lon="-4.3449570">
        <ele>600.2</ele>
        <time>2021-12-28T14:44:52Z</time>
      </trkpt>
      <trkpt lat="37.5439260" lon="-4.3449720">
        <ele>600.2</ele>
        <time>2021-12-28T14:44:53Z</time>
      </trkpt>
      <trkpt lat="37.5439520" lon="-4.3449850">
        <ele>600.2</ele>
        <time>2021-12-28T14:44:54Z</time>
      </trkpt>
      <trkpt lat="37.5439810" lon="-4.3450020">
        <ele>600.4</ele>
        <time>2021-12-28T14:44:55Z</time>
      </trkpt>
      <trkpt lat="37.5440060" lon="-4.3450200">
        <ele>600.4</ele>
        <time>2021-12-28T14:44:56Z</time>
      </trkpt>
      <trkpt lat="37.5440260" lon="-4.3450360">
        <ele>600.6</ele>
        <time>2021-12-28T14:44:57Z</time>
      </trkpt>
      <trkpt lat="37.5440510" lon="-4.3450530">
        <ele>600.6</ele>
        <time>2021-12-28T14:44:58Z</time>
      </trkpt>
      <trkpt lat="37.5440740" lon="-4.3450680">
        <ele>600.6</ele>
        <time>2021-12-28T14:44:59Z</time>
      </trkpt>
      <trkpt lat="37.5441020" lon="-4.3450830">
        <ele>600.8</ele>
        <time>2021-12-28T14:45:00Z</time>
      </trkpt>
      <trkpt lat="37.5441250" lon="-4.3451000">
        <ele>600.8</ele>
        <time>2021-12-28T14:45:01Z</time>
      </trkpt>
      <trkpt lat="37.5441500" lon="-4.3451170">
        <ele>600.8</ele>
        <time>2021-12-28T14:45:02Z</time>
      </trkpt>
      <trkpt lat="37.5441730" lon="-4.3451350">
        <ele>601.0</ele>
        <time>2021-12-28T14:45:03Z</time>
      </trkpt>
      <trkpt lat="37.5442020" lon="-4.3451530">
        <ele>601.0</ele>
        <time>2021-12-28T14:45:04Z</time>
      </trkpt>
      <trkpt lat="37.5442270" lon="-4.3451720">
        <ele>601.0</ele>
        <time>2021-12-28T14:45:05Z</time>
      </trkpt>
      <trkpt lat="37.5442590" lon="-4.3451900">
        <ele>601.0</ele>
        <time>2021-12-28T14:45:06Z</time>
      </trkpt>
      <trkpt lat="37.5442850" lon="-4.3452100">
        <ele>601.0</ele>
        <time>2021-12-28T14:45:07Z</time>
      </trkpt>
      <trkpt lat="37.5443100" lon="-4.3452270">
        <ele>601.0</ele>
        <time>2021-12-28T14:45:08Z</time>
      </trkpt>
      <trkpt lat="37.5443390" lon="-4.3452420">
        <ele>601.2</ele>
        <time>2021-12-28T14:45:09Z</time>
      </trkpt>
      <trkpt lat="37.5443680" lon="-4.3452550">
        <ele>601.2</ele>
        <time>2021-12-28T14:45:10Z</time>
      </trkpt>
      <trkpt lat="37.5444000" lon="-4.3452700">
        <ele>601.4</ele>
        <time>2021-12-28T14:45:11Z</time>
      </trkpt>
      <trkpt lat="37.5444260" lon="-4.3452880">
        <ele>601.4</ele>
        <time>2021-12-28T14:45:12Z</time>
      </trkpt>
      <trkpt lat="37.5444510" lon="-4.3453070">
        <ele>601.4</ele>
        <time>2021-12-28T14:45:13Z</time>
      </trkpt>
      <trkpt lat="37.5444800" lon="-4.3453250">
        <ele>601.6</ele>
        <time>2021-12-28T14:45:14Z</time>
      </trkpt>
      <trkpt lat="37.5445060" lon="-4.3453430">
        <ele>601.6</ele>
        <time>2021-12-28T14:45:15Z</time>
      </trkpt>
      <trkpt lat="37.5445310" lon="-4.3453600">
        <ele>601.6</ele>
        <time>2021-12-28T14:45:16Z</time>
      </trkpt>
      <trkpt lat="37.5445600" lon="-4.3453760">
        <ele>601.6</ele>
        <time>2021-12-28T14:45:17Z</time>
      </trkpt>
      <trkpt lat="37.5445860" lon="-4.3453950">
        <ele>601.6</ele>
        <time>2021-12-28T14:45:18Z</time>
      </trkpt>
      <trkpt lat="37.5446140" lon="-4.3454100">
        <ele>601.6</ele>
        <time>2021-12-28T14:45:19Z</time>
      </trkpt>
      <trkpt lat="37.5446400" lon="-4.3454260">
        <ele>601.6</ele>
        <time>2021-12-28T14:45:20Z</time>
      </trkpt>
      <trkpt lat="37.5446660" lon="-4.3454430">
        <ele>601.8</ele>
        <time>2021-12-28T14:45:21Z</time>
      </trkpt>
      <trkpt lat="37.5446880" lon="-4.3454600">
        <ele>601.8</ele>
        <time>2021-12-28T14:45:22Z</time>
      </trkpt>
      <trkpt lat="37.5447170" lon="-4.3454780">
        <ele>601.8</ele>
        <time>2021-12-28T14:45:23Z</time>
      </trkpt>
      <trkpt lat="37.5447420" lon="-4.3454930">
        <ele>601.8</ele>
        <time>2021-12-28T14:45:24Z</time>
      </trkpt>
      <trkpt lat="37.5447680" lon="-4.3455120">
        <ele>601.8</ele>
        <time>2021-12-28T14:45:25Z</time>
      </trkpt>
      <trkpt lat="37.5448000" lon="-4.3455300">
        <ele>601.8</ele>
        <time>2021-12-28T14:45:26Z</time>
      </trkpt>
      <trkpt lat="37.5448260" lon="-4.3455500">
        <ele>602.0</ele>
        <time>2021-12-28T14:45:27Z</time>
      </trkpt>
      <trkpt lat="37.5448540" lon="-4.3455720">
        <ele>602.0</ele>
        <time>2021-12-28T14:45:28Z</time>
      </trkpt>
      <trkpt lat="37.5448800" lon="-4.3455900">
        <ele>602.2</ele>
        <time>2021-12-28T14:45:29Z</time>
      </trkpt>
      <trkpt lat="37.5449060" lon="-4.3456100">
        <ele>602.2</ele>
        <time>2021-12-28T14:45:30Z</time>
      </trkpt>
      <trkpt lat="37.5449340" lon="-4.3456280">
        <ele>602.4</ele>
        <time>2021-12-28T14:45:31Z</time>
      </trkpt>
      <trkpt lat="37.5449600" lon="-4.3456480">
        <ele>602.4</ele>
        <time>2021-12-28T14:45:32Z</time>
      </trkpt>
      <trkpt lat="37.5449860" lon="-4.3456700">
        <ele>602.4</ele>
        <time>2021-12-28T14:45:33Z</time>
      </trkpt>
      <trkpt lat="37.5450140" lon="-4.3456900">
        <ele>602.6</ele>
        <time>2021-12-28T14:45:34Z</time>
      </trkpt>
      <trkpt lat="37.5450400" lon="-4.3457100">
        <ele>602.6</ele>
        <time>2021-12-28T14:45:35Z</time>
      </trkpt>
      <trkpt lat="37.5450660" lon="-4.3457320">
        <ele>602.6</ele>
        <time>2021-12-28T14:45:36Z</time>
      </trkpt>
      <trkpt lat="37.5450940" lon="-4.3457500">
        <ele>602.6</ele>
        <time>2021-12-28T14:45:37Z</time>
      </trkpt>
      <trkpt lat="37.5451170" lon="-4.3457720">
        <ele>602.6</ele>
        <time>2021-12-28T14:45:38Z</time>
      </trkpt>
      <trkpt lat="37.5451420" lon="-4.3457920">
        <ele>602.6</ele>
        <time>2021-12-28T14:45:39Z</time>
      </trkpt>
      <trkpt lat="37.5451710" lon="-4.3458130">
        <ele>602.8</ele>
        <time>2021-12-28T14:45:40Z</time>
      </trkpt>
      <trkpt lat="37.5451940" lon="-4.3458330">
        <ele>602.8</ele>
        <time>2021-12-28T14:45:41Z</time>
      </trkpt>
      <trkpt lat="37.5452160" lon="-4.3458530">
        <ele>603.0</ele>
        <time>2021-12-28T14:45:42Z</time>
      </trkpt>
      <trkpt lat="37.5452350" lon="-4.3458780">
        <ele>603.0</ele>
        <time>2021-12-28T14:45:43Z</time>
      </trkpt>
      <trkpt lat="37.5452580" lon="-4.3458980">
        <ele>603.2</ele>
        <time>2021-12-28T14:45:44Z</time>
      </trkpt>
      <trkpt lat="37.5452800" lon="-4.3459200">
        <ele>603.4</ele>
        <time>2021-12-28T14:45:45Z</time>
      </trkpt>
      <trkpt lat="37.5453020" lon="-4.3459450">
        <ele>603.4</ele>
        <time>2021-12-28T14:45:46Z</time>
      </trkpt>
      <trkpt lat="37.5453310" lon="-4.3459680">
        <ele>603.6</ele>
        <time>2021-12-28T14:45:47Z</time>
      </trkpt>
      <trkpt lat="37.5453500" lon="-4.3459920">
        <ele>603.8</ele>
        <time>2021-12-28T14:45:48Z</time>
      </trkpt>
      <trkpt lat="37.5453700" lon="-4.3460150">
        <ele>603.8</ele>
        <time>2021-12-28T14:45:49Z</time>
      </trkpt>
      <trkpt lat="37.5453920" lon="-4.3460370">
        <ele>604.0</ele>
        <time>2021-12-28T14:45:50Z</time>
      </trkpt>
      <trkpt lat="37.5454110" lon="-4.3460580">
        <ele>604.0</ele>
        <time>2021-12-28T14:45:51Z</time>
      </trkpt>
      <trkpt lat="37.5454300" lon="-4.3460780">
        <ele>604.0</ele>
        <time>2021-12-28T14:45:52Z</time>
      </trkpt>
      <trkpt lat="37.5454500" lon="-4.3460960">
        <ele>604.2</ele>
        <time>2021-12-28T14:45:53Z</time>
      </trkpt>
      <trkpt lat="37.5454620" lon="-4.3461160">
        <ele>604.2</ele>
        <time>2021-12-28T14:45:54Z</time>
      </trkpt>
      <trkpt lat="37.5454820" lon="-4.3461350">
        <ele>604.2</ele>
        <time>2021-12-28T14:45:55Z</time>
      </trkpt>
      <trkpt lat="37.5454980" lon="-4.3461550">
        <ele>604.2</ele>
        <time>2021-12-28T14:45:56Z</time>
      </trkpt>
      <trkpt lat="37.5455140" lon="-4.3461750">
        <ele>604.2</ele>
        <time>2021-12-28T14:45:57Z</time>
      </trkpt>
      <trkpt lat="37.5455330" lon="-4.3461930">
        <ele>604.2</ele>
        <time>2021-12-28T14:45:58Z</time>
      </trkpt>
      <trkpt lat="37.5455330" lon="-4.3461930">
        <ele>604.2</ele>
        <time>2021-12-28T14:45:59Z</time>
      </trkpt>
      <trkpt lat="37.5455580" lon="-4.3462300">
        <ele>604.2</ele>
        <time>2021-12-28T14:46:00Z</time>
      </trkpt>
      <trkpt lat="37.5455780" lon="-4.3462480">
        <ele>604.2</ele>
        <time>2021-12-28T14:46:01Z</time>
      </trkpt>
      <trkpt lat="37.5455940" lon="-4.3462680">
        <ele>604.4</ele>
        <time>2021-12-28T14:46:02Z</time>
      </trkpt>
      <trkpt lat="37.5456100" lon="-4.3462900">
        <ele>604.2</ele>
        <time>2021-12-28T14:46:03Z</time>
      </trkpt>
      <trkpt lat="37.5456290" lon="-4.3463120">
        <ele>604.2</ele>
        <time>2021-12-28T14:46:04Z</time>
      </trkpt>
      <trkpt lat="37.5456480" lon="-4.3463340">
        <ele>604.4</ele>
        <time>2021-12-28T14:46:05Z</time>
      </trkpt>
      <trkpt lat="37.5456610" lon="-4.3463550">
        <ele>604.4</ele>
        <time>2021-12-28T14:46:06Z</time>
      </trkpt>
      <trkpt lat="37.5456770" lon="-4.3463780">
        <ele>604.4</ele>
        <time>2021-12-28T14:46:07Z</time>
      </trkpt>
      <trkpt lat="37.5456960" lon="-4.3464020">
        <ele>604.4</ele>
        <time>2021-12-28T14:46:08Z</time>
      </trkpt>
      <trkpt lat="37.5457120" lon="-4.3464250">
        <ele>604.4</ele>
        <time>2021-12-28T14:46:09Z</time>
      </trkpt>
      <trkpt lat="37.5457280" lon="-4.3464500">
        <ele>604.4</ele>
        <time>2021-12-28T14:46:10Z</time>
      </trkpt>
      <trkpt lat="37.5457470" lon="-4.3464760">
        <ele>604.4</ele>
        <time>2021-12-28T14:46:11Z</time>
      </trkpt>
      <trkpt lat="37.5457600" lon="-4.3465000">
        <ele>604.4</ele>
        <time>2021-12-28T14:46:12Z</time>
      </trkpt>
      <trkpt lat="37.5457790" lon="-4.3465270">
        <ele>604.4</ele>
        <time>2021-12-28T14:46:13Z</time>
      </trkpt>
      <trkpt lat="37.5457920" lon="-4.3465500">
        <ele>604.6</ele>
        <time>2021-12-28T14:46:14Z</time>
      </trkpt>
      <trkpt lat="37.5458110" lon="-4.3465770">
        <ele>604.6</ele>
        <time>2021-12-28T14:46:15Z</time>
      </trkpt>
      <trkpt lat="37.5458270" lon="-4.3466030">
        <ele>604.6</ele>
        <time>2021-12-28T14:46:16Z</time>
      </trkpt>
      <trkpt lat="37.5458400" lon="-4.3466300">
        <ele>604.6</ele>
        <time>2021-12-28T14:46:17Z</time>
      </trkpt>
      <trkpt lat="37.5458560" lon="-4.3466570">
        <ele>604.6</ele>
        <time>2021-12-28T14:46:18Z</time>
      </trkpt>
      <trkpt lat="37.5458720" lon="-4.3466850">
        <ele>604.6</ele>
        <time>2021-12-28T14:46:19Z</time>
      </trkpt>
      <trkpt lat="37.5458820" lon="-4.3467140">
        <ele>604.8</ele>
        <time>2021-12-28T14:46:20Z</time>
      </trkpt>
      <trkpt lat="37.5458980" lon="-4.3467400">
        <ele>604.8</ele>
        <time>2021-12-28T14:46:21Z</time>
      </trkpt>
      <trkpt lat="37.5459140" lon="-4.3467660">
        <ele>604.8</ele>
        <time>2021-12-28T14:46:22Z</time>
      </trkpt>
      <trkpt lat="37.5459300" lon="-4.3467930">
        <ele>604.6</ele>
        <time>2021-12-28T14:46:23Z</time>
      </trkpt>
      <trkpt lat="37.5459460" lon="-4.3468200">
        <ele>604.8</ele>
        <time>2021-12-28T14:46:24Z</time>
      </trkpt>
      <trkpt lat="37.5459580" lon="-4.3468460">
        <ele>604.6</ele>
        <time>2021-12-28T14:46:25Z</time>
      </trkpt>
      <trkpt lat="37.5459740" lon="-4.3468750">
        <ele>604.6</ele>
        <time>2021-12-28T14:46:26Z</time>
      </trkpt>
      <trkpt lat="37.5459900" lon="-4.3469030">
        <ele>604.8</ele>
        <time>2021-12-28T14:46:27Z</time>
      </trkpt>
      <trkpt lat="37.5460060" lon="-4.3469320">
        <ele>604.8</ele>
        <time>2021-12-28T14:46:28Z</time>
      </trkpt>
      <trkpt lat="37.5460190" lon="-4.3469620">
        <ele>604.8</ele>
        <time>2021-12-28T14:46:29Z</time>
      </trkpt>
      <trkpt lat="37.5460350" lon="-4.3469920">
        <ele>605.0</ele>
        <time>2021-12-28T14:46:30Z</time>
      </trkpt>
      <trkpt lat="37.5460510" lon="-4.3470220">
        <ele>605.0</ele>
        <time>2021-12-28T14:46:31Z</time>
      </trkpt>
      <trkpt lat="37.5460640" lon="-4.3470500">
        <ele>605.2</ele>
        <time>2021-12-28T14:46:32Z</time>
      </trkpt>
      <trkpt lat="37.5460770" lon="-4.3470780">
        <ele>605.2</ele>
        <time>2021-12-28T14:46:33Z</time>
      </trkpt>
      <trkpt lat="37.5460900" lon="-4.3471100">
        <ele>605.2</ele>
        <time>2021-12-28T14:46:34Z</time>
      </trkpt>
      <trkpt lat="37.5461060" lon="-4.3471380">
        <ele>605.2</ele>
        <time>2021-12-28T14:46:35Z</time>
      </trkpt>
      <trkpt lat="37.5461180" lon="-4.3471680">
        <ele>605.2</ele>
        <time>2021-12-28T14:46:36Z</time>
      </trkpt>
      <trkpt lat="37.5461340" lon="-4.3471980">
        <ele>605.0</ele>
        <time>2021-12-28T14:46:37Z</time>
      </trkpt>
      <trkpt lat="37.5461470" lon="-4.3472300">
        <ele>605.2</ele>
        <time>2021-12-28T14:46:38Z</time>
      </trkpt>
      <trkpt lat="37.5461570" lon="-4.3472600">
        <ele>605.0</ele>
        <time>2021-12-28T14:46:39Z</time>
      </trkpt>
      <trkpt lat="37.5461730" lon="-4.3472920">
        <ele>605.0</ele>
        <time>2021-12-28T14:46:40Z</time>
      </trkpt>
      <trkpt lat="37.5461860" lon="-4.3473240">
        <ele>605.0</ele>
        <time>2021-12-28T14:46:41Z</time>
      </trkpt>
      <trkpt lat="37.5461950" lon="-4.3473550">
        <ele>605.0</ele>
        <time>2021-12-28T14:46:42Z</time>
      </trkpt>
      <trkpt lat="37.5462080" lon="-4.3473880">
        <ele>605.0</ele>
        <time>2021-12-28T14:46:43Z</time>
      </trkpt>
      <trkpt lat="37.5462180" lon="-4.3474220">
        <ele>605.2</ele>
        <time>2021-12-28T14:46:44Z</time>
      </trkpt>
      <trkpt lat="37.5462300" lon="-4.3474560">
        <ele>605.2</ele>
        <time>2021-12-28T14:46:45Z</time>
      </trkpt>
      <trkpt lat="37.5462370" lon="-4.3474900">
        <ele>605.4</ele>
        <time>2021-12-28T14:46:46Z</time>
      </trkpt>
      <trkpt lat="37.5462500" lon="-4.3475250">
        <ele>605.6</ele>
        <time>2021-12-28T14:46:47Z</time>
      </trkpt>
      <trkpt lat="37.5462620" lon="-4.3475580">
        <ele>605.6</ele>
        <time>2021-12-28T14:46:48Z</time>
      </trkpt>
      <trkpt lat="37.5462720" lon="-4.3475930">
        <ele>605.6</ele>
        <time>2021-12-28T14:46:49Z</time>
      </trkpt>
      <trkpt lat="37.5462850" lon="-4.3476270">
        <ele>605.6</ele>
        <time>2021-12-28T14:46:50Z</time>
      </trkpt>
      <trkpt lat="37.5462910" lon="-4.3476640">
        <ele>605.6</ele>
        <time>2021-12-28T14:46:51Z</time>
      </trkpt>
      <trkpt lat="37.5463040" lon="-4.3476980">
        <ele>605.8</ele>
        <time>2021-12-28T14:46:52Z</time>
      </trkpt>
      <trkpt lat="37.5463140" lon="-4.3477340">
        <ele>605.8</ele>
        <time>2021-12-28T14:46:53Z</time>
      </trkpt>
      <trkpt lat="37.5463230" lon="-4.3477700">
        <ele>605.8</ele>
        <time>2021-12-28T14:46:54Z</time>
      </trkpt>
      <trkpt lat="37.5463330" lon="-4.3478050">
        <ele>605.8</ele>
        <time>2021-12-28T14:46:55Z</time>
      </trkpt>
      <trkpt lat="37.5463420" lon="-4.3478400">
        <ele>606.0</ele>
        <time>2021-12-28T14:46:56Z</time>
      </trkpt>
      <trkpt lat="37.5463490" lon="-4.3478760">
        <ele>606.0</ele>
        <time>2021-12-28T14:46:57Z</time>
      </trkpt>
      <trkpt lat="37.5463620" lon="-4.3479130">
        <ele>606.2</ele>
        <time>2021-12-28T14:46:58Z</time>
      </trkpt>
      <trkpt lat="37.5463680" lon="-4.3479520">
        <ele>606.2</ele>
        <time>2021-12-28T14:46:59Z</time>
      </trkpt>
      <trkpt lat="37.5463740" lon="-4.3479900">
        <ele>606.4</ele>
        <time>2021-12-28T14:47:00Z</time>
      </trkpt>
      <trkpt lat="37.5463840" lon="-4.3480280">
        <ele>606.4</ele>
        <time>2021-12-28T14:47:01Z</time>
      </trkpt>
      <trkpt lat="37.5463900" lon="-4.3480650">
        <ele>606.6</ele>
        <time>2021-12-28T14:47:02Z</time>
      </trkpt>
      <trkpt lat="37.5463940" lon="-4.3481050">
        <ele>606.8</ele>
        <time>2021-12-28T14:47:03Z</time>
      </trkpt>
      <trkpt lat="37.5464030" lon="-4.3481440">
        <ele>606.8</ele>
        <time>2021-12-28T14:47:04Z</time>
      </trkpt>
      <trkpt lat="37.5464060" lon="-4.3481820">
        <ele>607.0</ele>
        <time>2021-12-28T14:47:05Z</time>
      </trkpt>
      <trkpt lat="37.5464130" lon="-4.3482200">
        <ele>607.2</ele>
        <time>2021-12-28T14:47:06Z</time>
      </trkpt>
      <trkpt lat="37.5464160" lon="-4.3482580">
        <ele>607.2</ele>
        <time>2021-12-28T14:47:07Z</time>
      </trkpt>
      <trkpt lat="37.5464260" lon="-4.3482980">
        <ele>607.2</ele>
        <time>2021-12-28T14:47:08Z</time>
      </trkpt>
      <trkpt lat="37.5464350" lon="-4.3483350">
        <ele>607.2</ele>
        <time>2021-12-28T14:47:09Z</time>
      </trkpt>
      <trkpt lat="37.5464420" lon="-4.3483740">
        <ele>607.4</ele>
        <time>2021-12-28T14:47:10Z</time>
      </trkpt>
      <trkpt lat="37.5464480" lon="-4.3484100">
        <ele>607.4</ele>
        <time>2021-12-28T14:47:11Z</time>
      </trkpt>
      <trkpt lat="37.5464510" lon="-4.3484480">
        <ele>607.4</ele>
        <time>2021-12-28T14:47:12Z</time>
      </trkpt>
      <trkpt lat="37.5464580" lon="-4.3484870">
        <ele>607.4</ele>
        <time>2021-12-28T14:47:13Z</time>
      </trkpt>
      <trkpt lat="37.5464670" lon="-4.3485230">
        <ele>607.6</ele>
        <time>2021-12-28T14:47:14Z</time>
      </trkpt>
      <trkpt lat="37.5464700" lon="-4.3485600">
        <ele>607.6</ele>
        <time>2021-12-28T14:47:15Z</time>
      </trkpt>
      <trkpt lat="37.5464740" lon="-4.3485930">
        <ele>607.6</ele>
        <time>2021-12-28T14:47:16Z</time>
      </trkpt>
      <trkpt lat="37.5464770" lon="-4.3486300">
        <ele>607.6</ele>
        <time>2021-12-28T14:47:17Z</time>
      </trkpt>
      <trkpt lat="37.5464770" lon="-4.3486680">
        <ele>607.6</ele>
        <time>2021-12-28T14:47:18Z</time>
      </trkpt>
      <trkpt lat="37.5464830" lon="-4.3487080">
        <ele>607.6</ele>
        <time>2021-12-28T14:47:19Z</time>
      </trkpt>
      <trkpt lat="37.5464860" lon="-4.3487470">
        <ele>607.6</ele>
        <time>2021-12-28T14:47:20Z</time>
      </trkpt>
      <trkpt lat="37.5464900" lon="-4.3487870">
        <ele>607.6</ele>
        <time>2021-12-28T14:47:21Z</time>
      </trkpt>
      <trkpt lat="37.5464930" lon="-4.3488300">
        <ele>607.6</ele>
        <time>2021-12-28T14:47:22Z</time>
      </trkpt>
      <trkpt lat="37.5464960" lon="-4.3488700">
        <ele>607.6</ele>
        <time>2021-12-28T14:47:23Z</time>
      </trkpt>
      <trkpt lat="37.5465020" lon="-4.3489100">
        <ele>607.6</ele>
        <time>2021-12-28T14:47:24Z</time>
      </trkpt>
      <trkpt lat="37.5465020" lon="-4.3489530">
        <ele>607.6</ele>
        <time>2021-12-28T14:47:25Z</time>
      </trkpt>
      <trkpt lat="37.5465020" lon="-4.3489950">
        <ele>607.6</ele>
        <time>2021-12-28T14:47:26Z</time>
      </trkpt>
      <trkpt lat="37.5465020" lon="-4.3490350">
        <ele>607.6</ele>
        <time>2021-12-28T14:47:27Z</time>
      </trkpt>
      <trkpt lat="37.5465020" lon="-4.3490770">
        <ele>607.6</ele>
        <time>2021-12-28T14:47:28Z</time>
      </trkpt>
      <trkpt lat="37.5465020" lon="-4.3491200">
        <ele>607.6</ele>
        <time>2021-12-28T14:47:29Z</time>
      </trkpt>
      <trkpt lat="37.5465020" lon="-4.3491620">
        <ele>607.6</ele>
        <time>2021-12-28T14:47:30Z</time>
      </trkpt>
      <trkpt lat="37.5465020" lon="-4.3492030">
        <ele>607.8</ele>
        <time>2021-12-28T14:47:31Z</time>
      </trkpt>
      <trkpt lat="37.5465020" lon="-4.3492450">
        <ele>607.8</ele>
        <time>2021-12-28T14:47:32Z</time>
      </trkpt>
      <trkpt lat="37.5465020" lon="-4.3492860">
        <ele>607.8</ele>
        <time>2021-12-28T14:47:33Z</time>
      </trkpt>
      <trkpt lat="37.5464930" lon="-4.3493300">
        <ele>607.8</ele>
        <time>2021-12-28T14:47:34Z</time>
      </trkpt>
      <trkpt lat="37.5464930" lon="-4.3493720">
        <ele>607.8</ele>
        <time>2021-12-28T14:47:35Z</time>
      </trkpt>
      <trkpt lat="37.5464930" lon="-4.3494120">
        <ele>607.8</ele>
        <time>2021-12-28T14:47:36Z</time>
      </trkpt>
      <trkpt lat="37.5464900" lon="-4.3494520">
        <ele>607.8</ele>
        <time>2021-12-28T14:47:37Z</time>
      </trkpt>
      <trkpt lat="37.5464860" lon="-4.3494870">
        <ele>607.8</ele>
        <time>2021-12-28T14:47:38Z</time>
      </trkpt>
      <trkpt lat="37.5464860" lon="-4.3495240">
        <ele>607.8</ele>
        <time>2021-12-28T14:47:39Z</time>
      </trkpt>
      <trkpt lat="37.5464830" lon="-4.3495580">
        <ele>608.0</ele>
        <time>2021-12-28T14:47:40Z</time>
      </trkpt>
      <trkpt lat="37.5464830" lon="-4.3495980">
        <ele>608.0</ele>
        <time>2021-12-28T14:47:41Z</time>
      </trkpt>
      <trkpt lat="37.5464830" lon="-4.3496400">
        <ele>608.0</ele>
        <time>2021-12-28T14:47:42Z</time>
      </trkpt>
      <trkpt lat="37.5464700" lon="-4.3496870">
        <ele>608.0</ele>
        <time>2021-12-28T14:47:43Z</time>
      </trkpt>
      <trkpt lat="37.5464670" lon="-4.3497320">
        <ele>608.0</ele>
        <time>2021-12-28T14:47:44Z</time>
      </trkpt>
      <trkpt lat="37.5464580" lon="-4.3497770">
        <ele>608.2</ele>
        <time>2021-12-28T14:47:45Z</time>
      </trkpt>
      <trkpt lat="37.5464540" lon="-4.3498180">
        <ele>608.2</ele>
        <time>2021-12-28T14:47:46Z</time>
      </trkpt>
      <trkpt lat="37.5464480" lon="-4.3498580">
        <ele>608.2</ele>
        <time>2021-12-28T14:47:47Z</time>
      </trkpt>
      <trkpt lat="37.5464450" lon="-4.3498960">
        <ele>608.4</ele>
        <time>2021-12-28T14:47:48Z</time>
      </trkpt>
      <trkpt lat="37.5464420" lon="-4.3499350">
        <ele>608.4</ele>
        <time>2021-12-28T14:47:49Z</time>
      </trkpt>
      <trkpt lat="37.5464350" lon="-4.3499750">
        <ele>608.4</ele>
        <time>2021-12-28T14:47:50Z</time>
      </trkpt>
      <trkpt lat="37.5464320" lon="-4.3500130">
        <ele>608.4</ele>
        <time>2021-12-28T14:47:51Z</time>
      </trkpt>
      <trkpt lat="37.5464290" lon="-4.3500520">
        <ele>608.4</ele>
        <time>2021-12-28T14:47:52Z</time>
      </trkpt>
      <trkpt lat="37.5464260" lon="-4.3500930">
        <ele>608.4</ele>
        <time>2021-12-28T14:47:53Z</time>
      </trkpt>
      <trkpt lat="37.5464220" lon="-4.3501350">
        <ele>608.4</ele>
        <time>2021-12-28T14:47:54Z</time>
      </trkpt>
      <trkpt lat="37.5464160" lon="-4.3501820">
        <ele>608.4</ele>
        <time>2021-12-28T14:47:55Z</time>
      </trkpt>
      <trkpt lat="37.5464130" lon="-4.3502270">
        <ele>608.4</ele>
        <time>2021-12-28T14:47:56Z</time>
      </trkpt>
      <trkpt lat="37.5464100" lon="-4.3502700">
        <ele>608.4</ele>
        <time>2021-12-28T14:47:57Z</time>
      </trkpt>
      <trkpt lat="37.5464030" lon="-4.3503150">
        <ele>608.4</ele>
        <time>2021-12-28T14:47:58Z</time>
      </trkpt>
      <trkpt lat="37.5463970" lon="-4.3503620">
        <ele>608.4</ele>
        <time>2021-12-28T14:47:59Z</time>
      </trkpt>
      <trkpt lat="37.5463940" lon="-4.3504100">
        <ele>608.4</ele>
        <time>2021-12-28T14:48:00Z</time>
      </trkpt>
      <trkpt lat="37.5463900" lon="-4.3504580">
        <ele>608.4</ele>
        <time>2021-12-28T14:48:01Z</time>
      </trkpt>
      <trkpt lat="37.5463870" lon="-4.3505050">
        <ele>608.4</ele>
        <time>2021-12-28T14:48:02Z</time>
      </trkpt>
      <trkpt lat="37.5463840" lon="-4.3505470">
        <ele>608.6</ele>
        <time>2021-12-28T14:48:03Z</time>
      </trkpt>
      <trkpt lat="37.5463840" lon="-4.3505900">
        <ele>608.6</ele>
        <time>2021-12-28T14:48:04Z</time>
      </trkpt>
      <trkpt lat="37.5463870" lon="-4.3506330">
        <ele>608.6</ele>
        <time>2021-12-28T14:48:05Z</time>
      </trkpt>
      <trkpt lat="37.5463870" lon="-4.3506750">
        <ele>608.4</ele>
        <time>2021-12-28T14:48:06Z</time>
      </trkpt>
      <trkpt lat="37.5463870" lon="-4.3507160">
        <ele>608.4</ele>
        <time>2021-12-28T14:48:07Z</time>
      </trkpt>
      <trkpt lat="37.5463840" lon="-4.3507600">
        <ele>608.4</ele>
        <time>2021-12-28T14:48:08Z</time>
      </trkpt>
      <trkpt lat="37.5463840" lon="-4.3508070">
        <ele>608.4</ele>
        <time>2021-12-28T14:48:09Z</time>
      </trkpt>
      <trkpt lat="37.5463870" lon="-4.3508540">
        <ele>608.4</ele>
        <time>2021-12-28T14:48:10Z</time>
      </trkpt>
      <trkpt lat="37.5463870" lon="-4.3509000">
        <ele>608.4</ele>
        <time>2021-12-28T14:48:11Z</time>
      </trkpt>
      <trkpt lat="37.5463900" lon="-4.3509440">
        <ele>608.4</ele>
        <time>2021-12-28T14:48:12Z</time>
      </trkpt>
      <trkpt lat="37.5463900" lon="-4.3509820">
        <ele>608.6</ele>
        <time>2021-12-28T14:48:13Z</time>
      </trkpt>
      <trkpt lat="37.5463870" lon="-4.3510260">
        <ele>608.6</ele>
        <time>2021-12-28T14:48:14Z</time>
      </trkpt>
      <trkpt lat="37.5463870" lon="-4.3510680">
        <ele>608.6</ele>
        <time>2021-12-28T14:48:15Z</time>
      </trkpt>
      <trkpt lat="37.5463870" lon="-4.3511100">
        <ele>608.8</ele>
        <time>2021-12-28T14:48:16Z</time>
      </trkpt>
      <trkpt lat="37.5463780" lon="-4.3511470">
        <ele>608.8</ele>
        <time>2021-12-28T14:48:17Z</time>
      </trkpt>
      <trkpt lat="37.5463740" lon="-4.3511850">
        <ele>609.0</ele>
        <time>2021-12-28T14:48:18Z</time>
      </trkpt>
      <trkpt lat="37.5463710" lon="-4.3512170">
        <ele>609.0</ele>
        <time>2021-12-28T14:48:19Z</time>
      </trkpt>
      <trkpt lat="37.5463740" lon="-4.3512480">
        <ele>609.2</ele>
        <time>2021-12-28T14:48:20Z</time>
      </trkpt>
      <trkpt lat="37.5463840" lon="-4.3512740">
        <ele>609.2</ele>
        <time>2021-12-28T14:48:21Z</time>
      </trkpt>
      <trkpt lat="37.5463840" lon="-4.3513000">
        <ele>609.2</ele>
        <time>2021-12-28T14:48:22Z</time>
      </trkpt>
      <trkpt lat="37.5463780" lon="-4.3513230">
        <ele>609.4</ele>
        <time>2021-12-28T14:48:23Z</time>
      </trkpt>
      <trkpt lat="37.5463780" lon="-4.3513230">
        <ele>609.4</ele>
        <time>2021-12-28T14:48:24Z</time>
      </trkpt>
      <trkpt lat="37.5463780" lon="-4.3513230">
        <ele>609.4</ele>
        <time>2021-12-28T14:48:25Z</time>
      </trkpt>
      <trkpt lat="37.5463780" lon="-4.3513230">
        <ele>609.4</ele>
        <time>2021-12-28T14:48:26Z</time>
      </trkpt>
      <trkpt lat="37.5463780" lon="-4.3513230">
        <ele>609.4</ele>
        <time>2021-12-28T14:48:27Z</time>
      </trkpt>
      <trkpt lat="37.5463780" lon="-4.3513230">
        <ele>609.4</ele>
        <time>2021-12-28T14:48:28Z</time>
      </trkpt>
      <trkpt lat="37.5463780" lon="-4.3513230">
        <ele>609.4</ele>
        <time>2021-12-28T14:48:29Z</time>
      </trkpt>
      <trkpt lat="37.5464540" lon="-4.3513880">
        <ele>607.2</ele>
        <time>2021-12-28T14:48:52Z</time>
      </trkpt>
      <trkpt lat="37.5464770" lon="-4.3513950">
        <ele>607.2</ele>
        <time>2021-12-28T14:48:53Z</time>
      </trkpt>
      <trkpt lat="37.5465020" lon="-4.3513960">
        <ele>607.2</ele>
        <time>2021-12-28T14:48:54Z</time>
      </trkpt>
      <trkpt lat="37.5465020" lon="-4.3513960">
        <ele>607.2</ele>
        <time>2021-12-28T14:48:55Z</time>
      </trkpt>
      <trkpt lat="37.5465410" lon="-4.3514100">
        <ele>607.2</ele>
        <time>2021-12-28T14:48:56Z</time>
      </trkpt>
      <trkpt lat="37.5465410" lon="-4.3514100">
        <ele>607.2</ele>
        <time>2021-12-28T14:48:57Z</time>
      </trkpt>
      <trkpt lat="37.5465570" lon="-4.3514300">
        <ele>607.2</ele>
        <time>2021-12-28T14:48:58Z</time>
      </trkpt>
      <trkpt lat="37.5465570" lon="-4.3514300">
        <ele>607.2</ele>
        <time>2021-12-28T14:48:59Z</time>
      </trkpt>
      <trkpt lat="37.5465410" lon="-4.3514680">
        <ele>607.2</ele>
        <time>2021-12-28T14:49:00Z</time>
      </trkpt>
      <trkpt lat="37.5465250" lon="-4.3514870">
        <ele>607.4</ele>
        <time>2021-12-28T14:49:01Z</time>
      </trkpt>
      <trkpt lat="37.5465250" lon="-4.3514870">
        <ele>607.4</ele>
        <time>2021-12-28T14:49:02Z</time>
      </trkpt>
      <trkpt lat="37.5465120" lon="-4.3515070">
        <ele>607.6</ele>
        <time>2021-12-28T14:49:03Z</time>
      </trkpt>
      <trkpt lat="37.5465120" lon="-4.3515070">
        <ele>607.6</ele>
        <time>2021-12-28T14:49:04Z</time>
      </trkpt>
      <trkpt lat="37.5465120" lon="-4.3515070">
        <ele>607.8</ele>
        <time>2021-12-28T14:49:05Z</time>
      </trkpt>
      <trkpt lat="37.5465120" lon="-4.3515070">
        <ele>607.8</ele>
        <time>2021-12-28T14:49:06Z</time>
      </trkpt>
      <trkpt lat="37.5464770" lon="-4.3515980">
        <ele>610.0</ele>
        <time>2021-12-28T14:53:52Z</time>
      </trkpt>
      <trkpt lat="37.5464770" lon="-4.3515980">
        <ele>610.0</ele>
        <time>2021-12-28T14:53:53Z</time>
      </trkpt>
      <trkpt lat="37.5464770" lon="-4.3515980">
        <ele>610.0</ele>
        <time>2021-12-28T14:53:54Z</time>
      </trkpt>
      <trkpt lat="37.5464770" lon="-4.3515980">
        <ele>608.6</ele>
        <time>2021-12-28T14:54:49Z</time>
      </trkpt>
      <trkpt lat="37.5464770" lon="-4.3515980">
        <ele>608.4</ele>
        <time>2021-12-28T14:54:50Z</time>
      </trkpt>
      <trkpt lat="37.5464770" lon="-4.3515980">
        <ele>608.4</ele>
        <time>2021-12-28T14:54:51Z</time>
      </trkpt>
      <trkpt lat="37.5465220" lon="-4.3515480">
        <ele>608.0</ele>
        <time>2021-12-28T14:55:26Z</time>
      </trkpt>
      <trkpt lat="37.5465220" lon="-4.3515480">
        <ele>608.0</ele>
        <time>2021-12-28T14:55:27Z</time>
      </trkpt>
      <trkpt lat="37.5465120" lon="-4.3515700">
        <ele>608.2</ele>
        <time>2021-12-28T14:55:28Z</time>
      </trkpt>
      <trkpt lat="37.5465120" lon="-4.3515700">
        <ele>608.2</ele>
        <time>2021-12-28T14:55:29Z</time>
      </trkpt>
      <trkpt lat="37.5465120" lon="-4.3515700">
        <ele>608.2</ele>
        <time>2021-12-28T14:55:30Z</time>
      </trkpt>
      <trkpt lat="37.5465120" lon="-4.3515700">
        <ele>612.2</ele>
        <time>2021-12-28T14:58:40Z</time>
      </trkpt>
      <trkpt lat="37.5465120" lon="-4.3515700">
        <ele>612.0</ele>
        <time>2021-12-28T14:58:41Z</time>
      </trkpt>
      <trkpt lat="37.5465120" lon="-4.3515700">
        <ele>612.0</ele>
        <time>2021-12-28T14:58:42Z</time>
      </trkpt>
      <trkpt lat="37.5465120" lon="-4.3515700">
        <ele>611.4</ele>
        <time>2021-12-28T14:58:52Z</time>
      </trkpt>
      <trkpt lat="37.5465060" lon="-4.3518370">
        <ele>611.4</ele>
        <time>2021-12-28T14:58:53Z</time>
      </trkpt>
      <trkpt lat="37.5465060" lon="-4.3518370">
        <ele>611.4</ele>
        <time>2021-12-28T14:58:54Z</time>
      </trkpt>
      <trkpt lat="37.5465060" lon="-4.3518370">
        <ele>611.4</ele>
        <time>2021-12-28T14:58:55Z</time>
      </trkpt>
      <trkpt lat="37.5465020" lon="-4.3518600">
        <ele>611.4</ele>
        <time>2021-12-28T14:58:56Z</time>
      </trkpt>
      <trkpt lat="37.5465020" lon="-4.3518600">
        <ele>611.4</ele>
        <time>2021-12-28T14:58:57Z</time>
      </trkpt>
      <trkpt lat="37.5465020" lon="-4.3518600">
        <ele>611.4</ele>
        <time>2021-12-28T14:58:58Z</time>
      </trkpt>
      <trkpt lat="37.5465020" lon="-4.3518600">
        <ele>611.4</ele>
        <time>2021-12-28T14:58:59Z</time>
      </trkpt>
      <trkpt lat="37.5464960" lon="-4.3518070">
        <ele>613.8</ele>
        <time>2021-12-28T14:59:24Z</time>
      </trkpt>
      <trkpt lat="37.5464960" lon="-4.3518070">
        <ele>613.8</ele>
        <time>2021-12-28T14:59:25Z</time>
      </trkpt>
      <trkpt lat="37.5465020" lon="-4.3517660">
        <ele>614.0</ele>
        <time>2021-12-28T14:59:26Z</time>
      </trkpt>
      <trkpt lat="37.5465020" lon="-4.3517660">
        <ele>614.0</ele>
        <time>2021-12-28T14:59:27Z</time>
      </trkpt>
      <trkpt lat="37.5465020" lon="-4.3517200">
        <ele>614.0</ele>
        <time>2021-12-28T14:59:28Z</time>
      </trkpt>
      <trkpt lat="37.5465060" lon="-4.3516960">
        <ele>614.0</ele>
        <time>2021-12-28T14:59:29Z</time>
      </trkpt>
      <trkpt lat="37.5465060" lon="-4.3516960">
        <ele>614.0</ele>
        <time>2021-12-28T14:59:30Z</time>
      </trkpt>
      <trkpt lat="37.5465120" lon="-4.3516630">
        <ele>614.0</ele>
        <time>2021-12-28T14:59:31Z</time>
      </trkpt>
      <trkpt lat="37.5465120" lon="-4.3516630">
        <ele>613.8</ele>
        <time>2021-12-28T14:59:32Z</time>
      </trkpt>
      <trkpt lat="37.5465120" lon="-4.3516280">
        <ele>613.8</ele>
        <time>2021-12-28T14:59:33Z</time>
      </trkpt>
      <trkpt lat="37.5465120" lon="-4.3516280">
        <ele>613.8</ele>
        <time>2021-12-28T14:59:34Z</time>
      </trkpt>
      <trkpt lat="37.5465120" lon="-4.3516020">
        <ele>613.8</ele>
        <time>2021-12-28T14:59:35Z</time>
      </trkpt>
      <trkpt lat="37.5465120" lon="-4.3516020">
        <ele>613.8</ele>
        <time>2021-12-28T14:59:36Z</time>
      </trkpt>
      <trkpt lat="37.5465120" lon="-4.3516020">
        <ele>613.8</ele>
        <time>2021-12-28T14:59:37Z</time>
      </trkpt>
      <trkpt lat="37.5465120" lon="-4.3516020">
        <ele>614.0</ele>
        <time>2021-12-28T15:03:37Z</time>
      </trkpt>
      <trkpt lat="37.5465310" lon="-4.3516440">
        <ele>614.0</ele>
        <time>2021-12-28T15:03:38Z</time>
      </trkpt>
      <trkpt lat="37.5465310" lon="-4.3516440">
        <ele>614.0</ele>
        <time>2021-12-28T15:03:39Z</time>
      </trkpt>
      <trkpt lat="37.5465310" lon="-4.3516440">
        <ele>613.8</ele>
        <time>2021-12-28T15:03:40Z</time>
      </trkpt>
      <trkpt lat="37.5465470" lon="-4.3515180">
        <ele>613.4</ele>
        <time>2021-12-28T15:03:52Z</time>
      </trkpt>
      <trkpt lat="37.5465500" lon="-4.3514850">
        <ele>613.4</ele>
        <time>2021-12-28T15:03:53Z</time>
      </trkpt>
      <trkpt lat="37.5465500" lon="-4.3514520">
        <ele>613.2</ele>
        <time>2021-12-28T15:03:54Z</time>
      </trkpt>
      <trkpt lat="37.5465340" lon="-4.3514280">
        <ele>613.2</ele>
        <time>2021-12-28T15:03:55Z</time>
      </trkpt>
      <trkpt lat="37.5465340" lon="-4.3514280">
        <ele>613.2</ele>
        <time>2021-12-28T15:03:56Z</time>
      </trkpt>
      <trkpt lat="37.5465060" lon="-4.3514270">
        <ele>613.0</ele>
        <time>2021-12-28T15:03:57Z</time>
      </trkpt>
      <trkpt lat="37.5464900" lon="-4.3514450">
        <ele>613.0</ele>
        <time>2021-12-28T15:03:58Z</time>
      </trkpt>
      <trkpt lat="37.5464670" lon="-4.3514680">
        <ele>612.8</ele>
        <time>2021-12-28T15:03:59Z</time>
      </trkpt>
      <trkpt lat="37.5464480" lon="-4.3514900">
        <ele>612.8</ele>
        <time>2021-12-28T15:04:00Z</time>
      </trkpt>
      <trkpt lat="37.5464260" lon="-4.3515080">
        <ele>612.8</ele>
        <time>2021-12-28T15:04:01Z</time>
      </trkpt>
      <trkpt lat="37.5463970" lon="-4.3515230">
        <ele>612.6</ele>
        <time>2021-12-28T15:04:02Z</time>
      </trkpt>
      <trkpt lat="37.5463740" lon="-4.3515380">
        <ele>612.6</ele>
        <time>2021-12-28T15:04:03Z</time>
      </trkpt>
      <trkpt lat="37.5463550" lon="-4.3515600">
        <ele>612.4</ele>
        <time>2021-12-28T15:04:04Z</time>
      </trkpt>
      <trkpt lat="37.5463490" lon="-4.3515850">
        <ele>612.4</ele>
        <time>2021-12-28T15:04:05Z</time>
      </trkpt>
      <trkpt lat="37.5463460" lon="-4.3516120">
        <ele>612.4</ele>
        <time>2021-12-28T15:04:06Z</time>
      </trkpt>
      <trkpt lat="37.5463460" lon="-4.3516440">
        <ele>612.2</ele>
        <time>2021-12-28T15:04:07Z</time>
      </trkpt>
      <trkpt lat="37.5463490" lon="-4.3516720">
        <ele>612.2</ele>
        <time>2021-12-28T15:04:08Z</time>
      </trkpt>
      <trkpt lat="37.5463520" lon="-4.3516980">
        <ele>612.2</ele>
        <time>2021-12-28T15:04:09Z</time>
      </trkpt>
      <trkpt lat="37.5463520" lon="-4.3517230">
        <ele>612.0</ele>
        <time>2021-12-28T15:04:10Z</time>
      </trkpt>
      <trkpt lat="37.5463520" lon="-4.3517480">
        <ele>612.0</ele>
        <time>2021-12-28T15:04:11Z</time>
      </trkpt>
      <trkpt lat="37.5463520" lon="-4.3517720">
        <ele>612.0</ele>
        <time>2021-12-28T15:04:12Z</time>
      </trkpt>
      <trkpt lat="37.5463490" lon="-4.3517980">
        <ele>612.0</ele>
        <time>2021-12-28T15:04:13Z</time>
      </trkpt>
      <trkpt lat="37.5463490" lon="-4.3518220">
        <ele>611.8</ele>
        <time>2021-12-28T15:04:14Z</time>
      </trkpt>
      <trkpt lat="37.5463490" lon="-4.3518220">
        <ele>611.8</ele>
        <time>2021-12-28T15:04:15Z</time>
      </trkpt>
      <trkpt lat="37.5463460" lon="-4.3518650">
        <ele>611.8</ele>
        <time>2021-12-28T15:04:16Z</time>
      </trkpt>
      <trkpt lat="37.5463460" lon="-4.3518650">
        <ele>611.8</ele>
        <time>2021-12-28T15:04:17Z</time>
      </trkpt>
      <trkpt lat="37.5463420" lon="-4.3518900">
        <ele>611.8</ele>
        <time>2021-12-28T15:04:18Z</time>
      </trkpt>
      <trkpt lat="37.5463420" lon="-4.3518900">
        <ele>611.8</ele>
        <time>2021-12-28T15:04:19Z</time>
      </trkpt>
      <trkpt lat="37.5463420" lon="-4.3518900">
        <ele>611.8</ele>
        <time>2021-12-28T15:04:20Z</time>
      </trkpt>
      <trkpt lat="37.5463420" lon="-4.3518900">
        <ele>611.8</ele>
        <time>2021-12-28T15:04:21Z</time>
      </trkpt>
      <trkpt lat="37.5463420" lon="-4.3518900">
        <ele>611.8</ele>
        <time>2021-12-28T15:04:22Z</time>
      </trkpt>
      <trkpt lat="37.5463420" lon="-4.3518900">
        <ele>607.0</ele>
        <time>2021-12-28T15:05:35Z</time>
      </trkpt>
      <trkpt lat="37.5463420" lon="-4.3519940">
        <ele>607.0</ele>
        <time>2021-12-28T15:05:36Z</time>
      </trkpt>
      <trkpt lat="37.5463420" lon="-4.3520160">
        <ele>607.0</ele>
        <time>2021-12-28T15:05:37Z</time>
      </trkpt>
      <trkpt lat="37.5463460" lon="-4.3520430">
        <ele>607.0</ele>
        <time>2021-12-28T15:05:38Z</time>
      </trkpt>
      <trkpt lat="37.5463460" lon="-4.3520730">
        <ele>607.0</ele>
        <time>2021-12-28T15:05:39Z</time>
      </trkpt>
      <trkpt lat="37.5463420" lon="-4.3521050">
        <ele>607.0</ele>
        <time>2021-12-28T15:05:40Z</time>
      </trkpt>
      <trkpt lat="37.5463330" lon="-4.3521300">
        <ele>607.0</ele>
        <time>2021-12-28T15:05:41Z</time>
      </trkpt>
      <trkpt lat="37.5463230" lon="-4.3521570">
        <ele>607.0</ele>
        <time>2021-12-28T15:05:42Z</time>
      </trkpt>
      <trkpt lat="37.5463040" lon="-4.3521770">
        <ele>607.0</ele>
        <time>2021-12-28T15:05:43Z</time>
      </trkpt>
      <trkpt lat="37.5462780" lon="-4.3521950">
        <ele>607.2</ele>
        <time>2021-12-28T15:05:44Z</time>
      </trkpt>
      <trkpt lat="37.5462500" lon="-4.3522100">
        <ele>607.2</ele>
        <time>2021-12-28T15:05:45Z</time>
      </trkpt>
      <trkpt lat="37.5462140" lon="-4.3522200">
        <ele>607.2</ele>
        <time>2021-12-28T15:05:46Z</time>
      </trkpt>
      <trkpt lat="37.5461860" lon="-4.3522320">
        <ele>607.2</ele>
        <time>2021-12-28T15:05:47Z</time>
      </trkpt>
      <trkpt lat="37.5461630" lon="-4.3522520">
        <ele>607.2</ele>
        <time>2021-12-28T15:05:48Z</time>
      </trkpt>
      <trkpt lat="37.5461500" lon="-4.3522780">
        <ele>607.2</ele>
        <time>2021-12-28T15:05:49Z</time>
      </trkpt>
      <trkpt lat="37.5461440" lon="-4.3523080">
        <ele>607.2</ele>
        <time>2021-12-28T15:05:50Z</time>
      </trkpt>
      <trkpt lat="37.5461340" lon="-4.3523340">
        <ele>607.2</ele>
        <time>2021-12-28T15:05:51Z</time>
      </trkpt>
      <trkpt lat="37.5461340" lon="-4.3523340">
        <ele>607.2</ele>
        <time>2021-12-28T15:05:52Z</time>
      </trkpt>
      <trkpt lat="37.5461310" lon="-4.3523640">
        <ele>607.4</ele>
        <time>2021-12-28T15:05:53Z</time>
      </trkpt>
      <trkpt lat="37.5461310" lon="-4.3523640">
        <ele>607.4</ele>
        <time>2021-12-28T15:05:54Z</time>
      </trkpt>
      <trkpt lat="37.5461310" lon="-4.3523640">
        <ele>607.4</ele>
        <time>2021-12-28T15:05:55Z</time>
      </trkpt>
      <trkpt lat="37.5461310" lon="-4.3523640">
        <ele>607.4</ele>
        <time>2021-12-28T15:05:56Z</time>
      </trkpt>
      <trkpt lat="37.5461310" lon="-4.3523640">
        <ele>607.4</ele>
        <time>2021-12-28T15:05:57Z</time>
      </trkpt>
      <trkpt lat="37.5461310" lon="-4.3523640">
        <ele>607.6</ele>
        <time>2021-12-28T15:05:58Z</time>
      </trkpt>
      <trkpt lat="37.5461630" lon="-4.3522940">
        <ele>608.4</ele>
        <time>2021-12-28T15:06:20Z</time>
      </trkpt>
      <trkpt lat="37.5461630" lon="-4.3522700">
        <ele>608.4</ele>
        <time>2021-12-28T15:06:21Z</time>
      </trkpt>
      <trkpt lat="37.5461630" lon="-4.3522700">
        <ele>608.6</ele>
        <time>2021-12-28T15:06:22Z</time>
      </trkpt>
      <trkpt lat="37.5461920" lon="-4.3522420">
        <ele>608.6</ele>
        <time>2021-12-28T15:06:23Z</time>
      </trkpt>
      <trkpt lat="37.5462240" lon="-4.3522420">
        <ele>608.6</ele>
        <time>2021-12-28T15:06:24Z</time>
      </trkpt>
      <trkpt lat="37.5462530" lon="-4.3522480">
        <ele>608.6</ele>
        <time>2021-12-28T15:06:25Z</time>
      </trkpt>
      <trkpt lat="37.5462850" lon="-4.3522650">
        <ele>608.6</ele>
        <time>2021-12-28T15:06:26Z</time>
      </trkpt>
      <trkpt lat="37.5463040" lon="-4.3522920">
        <ele>608.6</ele>
        <time>2021-12-28T15:06:27Z</time>
      </trkpt>
      <trkpt lat="37.5463170" lon="-4.3523300">
        <ele>608.6</ele>
        <time>2021-12-28T15:06:28Z</time>
      </trkpt>
      <trkpt lat="37.5463300" lon="-4.3523760">
        <ele>608.6</ele>
        <time>2021-12-28T15:06:29Z</time>
      </trkpt>
      <trkpt lat="37.5463300" lon="-4.3524220">
        <ele>608.8</ele>
        <time>2021-12-28T15:06:30Z</time>
      </trkpt>
      <trkpt lat="37.5463330" lon="-4.3524660">
        <ele>608.8</ele>
        <time>2021-12-28T15:06:31Z</time>
      </trkpt>
      <trkpt lat="37.5463330" lon="-4.3525170">
        <ele>608.8</ele>
        <time>2021-12-28T15:06:32Z</time>
      </trkpt>
      <trkpt lat="37.5463330" lon="-4.3525670">
        <ele>608.8</ele>
        <time>2021-12-28T15:06:33Z</time>
      </trkpt>
      <trkpt lat="37.5463330" lon="-4.3526200">
        <ele>608.6</ele>
        <time>2021-12-28T15:06:34Z</time>
      </trkpt>
      <trkpt lat="37.5463330" lon="-4.3526780">
        <ele>608.6</ele>
        <time>2021-12-28T15:06:35Z</time>
      </trkpt>
      <trkpt lat="37.5463300" lon="-4.3527300">
        <ele>608.6</ele>
        <time>2021-12-28T15:06:36Z</time>
      </trkpt>
      <trkpt lat="37.5463260" lon="-4.3527820">
        <ele>608.6</ele>
        <time>2021-12-28T15:06:37Z</time>
      </trkpt>
      <trkpt lat="37.5463230" lon="-4.3528350">
        <ele>608.6</ele>
        <time>2021-12-28T15:06:38Z</time>
      </trkpt>
      <trkpt lat="37.5463230" lon="-4.3528880">
        <ele>608.6</ele>
        <time>2021-12-28T15:06:39Z</time>
      </trkpt>
      <trkpt lat="37.5463140" lon="-4.3529420">
        <ele>608.6</ele>
        <time>2021-12-28T15:06:40Z</time>
      </trkpt>
      <trkpt lat="37.5463100" lon="-4.3529980">
        <ele>608.6</ele>
        <time>2021-12-28T15:06:41Z</time>
      </trkpt>
      <trkpt lat="37.5463070" lon="-4.3530550">
        <ele>608.6</ele>
        <time>2021-12-28T15:06:42Z</time>
      </trkpt>
      <trkpt lat="37.5463070" lon="-4.3531130">
        <ele>608.4</ele>
        <time>2021-12-28T15:06:43Z</time>
      </trkpt>
      <trkpt lat="37.5463070" lon="-4.3531680">
        <ele>608.4</ele>
        <time>2021-12-28T15:06:44Z</time>
      </trkpt>
      <trkpt lat="37.5463070" lon="-4.3532250">
        <ele>608.4</ele>
        <time>2021-12-28T15:06:45Z</time>
      </trkpt>
      <trkpt lat="37.5463040" lon="-4.3532800">
        <ele>608.4</ele>
        <time>2021-12-28T15:06:46Z</time>
      </trkpt>
      <trkpt lat="37.5463040" lon="-4.3533370">
        <ele>608.2</ele>
        <time>2021-12-28T15:06:47Z</time>
      </trkpt>
      <trkpt lat="37.5462940" lon="-4.3533940">
        <ele>608.2</ele>
        <time>2021-12-28T15:06:48Z</time>
      </trkpt>
      <trkpt lat="37.5462940" lon="-4.3534480">
        <ele>608.2</ele>
        <time>2021-12-28T15:06:49Z</time>
      </trkpt>
      <trkpt lat="37.5462910" lon="-4.3535020">
        <ele>608.2</ele>
        <time>2021-12-28T15:06:50Z</time>
      </trkpt>
      <trkpt lat="37.5462910" lon="-4.3535550">
        <ele>608.2</ele>
        <time>2021-12-28T15:06:51Z</time>
      </trkpt>
      <trkpt lat="37.5462910" lon="-4.3536080">
        <ele>608.4</ele>
        <time>2021-12-28T15:06:52Z</time>
      </trkpt>
      <trkpt lat="37.5462880" lon="-4.3536640">
        <ele>608.4</ele>
        <time>2021-12-28T15:06:53Z</time>
      </trkpt>
      <trkpt lat="37.5462850" lon="-4.3537180">
        <ele>608.2</ele>
        <time>2021-12-28T15:06:54Z</time>
      </trkpt>
      <trkpt lat="37.5462850" lon="-4.3537720">
        <ele>608.2</ele>
        <time>2021-12-28T15:06:55Z</time>
      </trkpt>
      <trkpt lat="37.5462780" lon="-4.3538250">
        <ele>608.2</ele>
        <time>2021-12-28T15:06:56Z</time>
      </trkpt>
      <trkpt lat="37.5462780" lon="-4.3538780">
        <ele>608.2</ele>
        <time>2021-12-28T15:06:57Z</time>
      </trkpt>
      <trkpt lat="37.5462750" lon="-4.3539320">
        <ele>608.2</ele>
        <time>2021-12-28T15:06:58Z</time>
      </trkpt>
      <trkpt lat="37.5462720" lon="-4.3539870">
        <ele>608.2</ele>
        <time>2021-12-28T15:06:59Z</time>
      </trkpt>
      <trkpt lat="37.5462690" lon="-4.3540440">
        <ele>608.0</ele>
        <time>2021-12-28T15:07:00Z</time>
      </trkpt>
      <trkpt lat="37.5462690" lon="-4.3541000">
        <ele>608.0</ele>
        <time>2021-12-28T15:07:01Z</time>
      </trkpt>
      <trkpt lat="37.5462660" lon="-4.3541580">
        <ele>608.0</ele>
        <time>2021-12-28T15:07:02Z</time>
      </trkpt>
      <trkpt lat="37.5462660" lon="-4.3542160">
        <ele>608.0</ele>
        <time>2021-12-28T15:07:03Z</time>
      </trkpt>
      <trkpt lat="37.5462560" lon="-4.3542780">
        <ele>608.0</ele>
        <time>2021-12-28T15:07:04Z</time>
      </trkpt>
      <trkpt lat="37.5462530" lon="-4.3543370">
        <ele>607.8</ele>
        <time>2021-12-28T15:07:05Z</time>
      </trkpt>
      <trkpt lat="37.5462530" lon="-4.3543940">
        <ele>607.8</ele>
        <time>2021-12-28T15:07:06Z</time>
      </trkpt>
      <trkpt lat="37.5462530" lon="-4.3544530">
        <ele>607.8</ele>
        <time>2021-12-28T15:07:07Z</time>
      </trkpt>
      <trkpt lat="37.5462530" lon="-4.3545120">
        <ele>607.8</ele>
        <time>2021-12-28T15:07:08Z</time>
      </trkpt>
      <trkpt lat="37.5462530" lon="-4.3545720">
        <ele>608.0</ele>
        <time>2021-12-28T15:07:09Z</time>
      </trkpt>
      <trkpt lat="37.5462530" lon="-4.3546330">
        <ele>607.8</ele>
        <time>2021-12-28T15:07:10Z</time>
      </trkpt>
      <trkpt lat="37.5462500" lon="-4.3546980">
        <ele>607.8</ele>
        <time>2021-12-28T15:07:11Z</time>
      </trkpt>
      <trkpt lat="37.5462460" lon="-4.3547620">
        <ele>607.8</ele>
        <time>2021-12-28T15:07:12Z</time>
      </trkpt>
      <trkpt lat="37.5462430" lon="-4.3548220">
        <ele>607.8</ele>
        <time>2021-12-28T15:07:13Z</time>
      </trkpt>
      <trkpt lat="37.5462430" lon="-4.3548820">
        <ele>607.8</ele>
        <time>2021-12-28T15:07:14Z</time>
      </trkpt>
      <trkpt lat="37.5462370" lon="-4.3549380">
        <ele>607.8</ele>
        <time>2021-12-28T15:07:15Z</time>
      </trkpt>
      <trkpt lat="37.5462370" lon="-4.3549920">
        <ele>607.8</ele>
        <time>2021-12-28T15:07:16Z</time>
      </trkpt>
      <trkpt lat="37.5462370" lon="-4.3550440">
        <ele>607.8</ele>
        <time>2021-12-28T15:07:17Z</time>
      </trkpt>
      <trkpt lat="37.5462370" lon="-4.3550950">
        <ele>607.8</ele>
        <time>2021-12-28T15:07:18Z</time>
      </trkpt>
      <trkpt lat="37.5462340" lon="-4.3551480">
        <ele>607.8</ele>
        <time>2021-12-28T15:07:19Z</time>
      </trkpt>
      <trkpt lat="37.5462300" lon="-4.3552000">
        <ele>607.6</ele>
        <time>2021-12-28T15:07:20Z</time>
      </trkpt>
      <trkpt lat="37.5462270" lon="-4.3552520">
        <ele>607.6</ele>
        <time>2021-12-28T15:07:21Z</time>
      </trkpt>
      <trkpt lat="37.5462240" lon="-4.3553020">
        <ele>607.6</ele>
        <time>2021-12-28T15:07:22Z</time>
      </trkpt>
      <trkpt lat="37.5462180" lon="-4.3553520">
        <ele>607.6</ele>
        <time>2021-12-28T15:07:23Z</time>
      </trkpt>
      <trkpt lat="37.5462140" lon="-4.3554040">
        <ele>607.8</ele>
        <time>2021-12-28T15:07:24Z</time>
      </trkpt>
      <trkpt lat="37.5462110" lon="-4.3554540">
        <ele>607.8</ele>
        <time>2021-12-28T15:07:25Z</time>
      </trkpt>
      <trkpt lat="37.5462050" lon="-4.3555070">
        <ele>607.8</ele>
        <time>2021-12-28T15:07:26Z</time>
      </trkpt>
      <trkpt lat="37.5461950" lon="-4.3555580">
        <ele>607.8</ele>
        <time>2021-12-28T15:07:27Z</time>
      </trkpt>
      <trkpt lat="37.5461890" lon="-4.3556130">
        <ele>608.0</ele>
        <time>2021-12-28T15:07:28Z</time>
      </trkpt>
      <trkpt lat="37.5461860" lon="-4.3556680">
        <ele>608.0</ele>
        <time>2021-12-28T15:07:29Z</time>
      </trkpt>
      <trkpt lat="37.5461760" lon="-4.3557230">
        <ele>608.0</ele>
        <time>2021-12-28T15:07:30Z</time>
      </trkpt>
      <trkpt lat="37.5461730" lon="-4.3557770">
        <ele>608.0</ele>
        <time>2021-12-28T15:07:31Z</time>
      </trkpt>
      <trkpt lat="37.5461630" lon="-4.3558320">
        <ele>608.0</ele>
        <time>2021-12-28T15:07:32Z</time>
      </trkpt>
      <trkpt lat="37.5461540" lon="-4.3558880">
        <ele>608.0</ele>
        <time>2021-12-28T15:07:33Z</time>
      </trkpt>
      <trkpt lat="37.5461440" lon="-4.3559460">
        <ele>608.2</ele>
        <time>2021-12-28T15:07:34Z</time>
      </trkpt>
      <trkpt lat="37.5461340" lon="-4.3560070">
        <ele>608.2</ele>
        <time>2021-12-28T15:07:35Z</time>
      </trkpt>
      <trkpt lat="37.5461250" lon="-4.3560650">
        <ele>608.2</ele>
        <time>2021-12-28T15:07:36Z</time>
      </trkpt>
      <trkpt lat="37.5461120" lon="-4.3561250">
        <ele>608.2</ele>
        <time>2021-12-28T15:07:37Z</time>
      </trkpt>
      <trkpt lat="37.5460990" lon="-4.3561800">
        <ele>608.2</ele>
        <time>2021-12-28T15:07:38Z</time>
      </trkpt>
      <trkpt lat="37.5460900" lon="-4.3562330">
        <ele>608.2</ele>
        <time>2021-12-28T15:07:39Z</time>
      </trkpt>
      <trkpt lat="37.5460770" lon="-4.3562850">
        <ele>608.2</ele>
        <time>2021-12-28T15:07:40Z</time>
      </trkpt>
      <trkpt lat="37.5460640" lon="-4.3563380">
        <ele>608.2</ele>
        <time>2021-12-28T15:07:41Z</time>
      </trkpt>
      <trkpt lat="37.5460450" lon="-4.3563950">
        <ele>608.2</ele>
        <time>2021-12-28T15:07:42Z</time>
      </trkpt>
      <trkpt lat="37.5460290" lon="-4.3564500">
        <ele>608.2</ele>
        <time>2021-12-28T15:07:43Z</time>
      </trkpt>
      <trkpt lat="37.5460130" lon="-4.3565050">
        <ele>608.2</ele>
        <time>2021-12-28T15:07:44Z</time>
      </trkpt>
      <trkpt lat="37.5459900" lon="-4.3565600">
        <ele>608.2</ele>
        <time>2021-12-28T15:07:45Z</time>
      </trkpt>
      <trkpt lat="37.5459740" lon="-4.3566120">
        <ele>608.2</ele>
        <time>2021-12-28T15:07:46Z</time>
      </trkpt>
      <trkpt lat="37.5459580" lon="-4.3566600">
        <ele>608.2</ele>
        <time>2021-12-28T15:07:47Z</time>
      </trkpt>
      <trkpt lat="37.5459460" lon="-4.3567070">
        <ele>608.2</ele>
        <time>2021-12-28T15:07:48Z</time>
      </trkpt>
      <trkpt lat="37.5459300" lon="-4.3567500">
        <ele>608.2</ele>
        <time>2021-12-28T15:07:49Z</time>
      </trkpt>
      <trkpt lat="37.5459170" lon="-4.3567920">
        <ele>608.2</ele>
        <time>2021-12-28T15:07:50Z</time>
      </trkpt>
      <trkpt lat="37.5459010" lon="-4.3568320">
        <ele>608.0</ele>
        <time>2021-12-28T15:07:51Z</time>
      </trkpt>
      <trkpt lat="37.5458880" lon="-4.3568720">
        <ele>608.0</ele>
        <time>2021-12-28T15:07:52Z</time>
      </trkpt>
      <trkpt lat="37.5458720" lon="-4.3569140">
        <ele>608.0</ele>
        <time>2021-12-28T15:07:53Z</time>
      </trkpt>
      <trkpt lat="37.5458560" lon="-4.3569530">
        <ele>608.0</ele>
        <time>2021-12-28T15:07:54Z</time>
      </trkpt>
      <trkpt lat="37.5458400" lon="-4.3569930">
        <ele>608.0</ele>
        <time>2021-12-28T15:07:55Z</time>
      </trkpt>
      <trkpt lat="37.5458270" lon="-4.3570300">
        <ele>608.0</ele>
        <time>2021-12-28T15:07:56Z</time>
      </trkpt>
      <trkpt lat="37.5458110" lon="-4.3570630">
        <ele>608.0</ele>
        <time>2021-12-28T15:07:57Z</time>
      </trkpt>
      <trkpt lat="37.5457920" lon="-4.3570970">
        <ele>608.0</ele>
        <time>2021-12-28T15:07:58Z</time>
      </trkpt>
      <trkpt lat="37.5457760" lon="-4.3571330">
        <ele>608.0</ele>
        <time>2021-12-28T15:07:59Z</time>
      </trkpt>
      <trkpt lat="37.5457570" lon="-4.3571700">
        <ele>607.8</ele>
        <time>2021-12-28T15:08:00Z</time>
      </trkpt>
      <trkpt lat="37.5457380" lon="-4.3572120">
        <ele>607.8</ele>
        <time>2021-12-28T15:08:01Z</time>
      </trkpt>
      <trkpt lat="37.5457150" lon="-4.3572570">
        <ele>607.8</ele>
        <time>2021-12-28T15:08:02Z</time>
      </trkpt>
      <trkpt lat="37.5456960" lon="-4.3573020">
        <ele>607.8</ele>
        <time>2021-12-28T15:08:03Z</time>
      </trkpt>
      <trkpt lat="37.5456740" lon="-4.3573450">
        <ele>608.0</ele>
        <time>2021-12-28T15:08:04Z</time>
      </trkpt>
      <trkpt lat="37.5456510" lon="-4.3573860">
        <ele>608.0</ele>
        <time>2021-12-28T15:08:05Z</time>
      </trkpt>
      <trkpt lat="37.5456290" lon="-4.3574270">
        <ele>608.0</ele>
        <time>2021-12-28T15:08:06Z</time>
      </trkpt>
      <trkpt lat="37.5456030" lon="-4.3574650">
        <ele>608.0</ele>
        <time>2021-12-28T15:08:07Z</time>
      </trkpt>
      <trkpt lat="37.5455810" lon="-4.3575070">
        <ele>608.0</ele>
        <time>2021-12-28T15:08:08Z</time>
      </trkpt>
      <trkpt lat="37.5455580" lon="-4.3575450">
        <ele>608.0</ele>
        <time>2021-12-28T15:08:09Z</time>
      </trkpt>
      <trkpt lat="37.5455390" lon="-4.3575850">
        <ele>608.0</ele>
        <time>2021-12-28T15:08:10Z</time>
      </trkpt>
      <trkpt lat="37.5455170" lon="-4.3576230">
        <ele>608.0</ele>
        <time>2021-12-28T15:08:11Z</time>
      </trkpt>
      <trkpt lat="37.5455010" lon="-4.3576530">
        <ele>608.0</ele>
        <time>2021-12-28T15:08:12Z</time>
      </trkpt>
      <trkpt lat="37.5454750" lon="-4.3576980">
        <ele>608.0</ele>
        <time>2021-12-28T15:08:13Z</time>
      </trkpt>
      <trkpt lat="37.5454500" lon="-4.3577350">
        <ele>608.0</ele>
        <time>2021-12-28T15:08:14Z</time>
      </trkpt>
      <trkpt lat="37.5454240" lon="-4.3577720">
        <ele>608.0</ele>
        <time>2021-12-28T15:08:15Z</time>
      </trkpt>
      <trkpt lat="37.5454020" lon="-4.3578100">
        <ele>608.0</ele>
        <time>2021-12-28T15:08:16Z</time>
      </trkpt>
      <trkpt lat="37.5453790" lon="-4.3578500">
        <ele>608.2</ele>
        <time>2021-12-28T15:08:17Z</time>
      </trkpt>
      <trkpt lat="37.5453570" lon="-4.3578880">
        <ele>608.2</ele>
        <time>2021-12-28T15:08:18Z</time>
      </trkpt>
      <trkpt lat="37.5453340" lon="-4.3579300">
        <ele>608.0</ele>
        <time>2021-12-28T15:08:19Z</time>
      </trkpt>
      <trkpt lat="37.5453150" lon="-4.3579680">
        <ele>608.0</ele>
        <time>2021-12-28T15:08:20Z</time>
      </trkpt>
      <trkpt lat="37.5452930" lon="-4.3580080">
        <ele>608.0</ele>
        <time>2021-12-28T15:08:21Z</time>
      </trkpt>
      <trkpt lat="37.5452700" lon="-4.3580460">
        <ele>608.0</ele>
        <time>2021-12-28T15:08:22Z</time>
      </trkpt>
      <trkpt lat="37.5452450" lon="-4.3580850">
        <ele>608.0</ele>
        <time>2021-12-28T15:08:23Z</time>
      </trkpt>
      <trkpt lat="37.5452220" lon="-4.3581250">
        <ele>608.0</ele>
        <time>2021-12-28T15:08:24Z</time>
      </trkpt>
      <trkpt lat="37.5452000" lon="-4.3581600">
        <ele>608.0</ele>
        <time>2021-12-28T15:08:25Z</time>
      </trkpt>
      <trkpt lat="37.5451810" lon="-4.3581950">
        <ele>608.0</ele>
        <time>2021-12-28T15:08:26Z</time>
      </trkpt>
      <trkpt lat="37.5451580" lon="-4.3582280">
        <ele>608.0</ele>
        <time>2021-12-28T15:08:27Z</time>
      </trkpt>
      <trkpt lat="37.5451390" lon="-4.3582620">
        <ele>607.8</ele>
        <time>2021-12-28T15:08:28Z</time>
      </trkpt>
      <trkpt lat="37.5451170" lon="-4.3582970">
        <ele>607.8</ele>
        <time>2021-12-28T15:08:29Z</time>
      </trkpt>
      <trkpt lat="37.5450940" lon="-4.3583330">
        <ele>607.8</ele>
        <time>2021-12-28T15:08:30Z</time>
      </trkpt>
      <trkpt lat="37.5450750" lon="-4.3583730">
        <ele>607.8</ele>
        <time>2021-12-28T15:08:31Z</time>
      </trkpt>
      <trkpt lat="37.5450530" lon="-4.3584120">
        <ele>607.8</ele>
        <time>2021-12-28T15:08:32Z</time>
      </trkpt>
      <trkpt lat="37.5450270" lon="-4.3584480">
        <ele>607.8</ele>
        <time>2021-12-28T15:08:33Z</time>
      </trkpt>
      <trkpt lat="37.5450050" lon="-4.3584850">
        <ele>607.8</ele>
        <time>2021-12-28T15:08:34Z</time>
      </trkpt>
      <trkpt lat="37.5449820" lon="-4.3585220">
        <ele>607.8</ele>
        <time>2021-12-28T15:08:35Z</time>
      </trkpt>
      <trkpt lat="37.5449600" lon="-4.3585600">
        <ele>607.8</ele>
        <time>2021-12-28T15:08:36Z</time>
      </trkpt>
      <trkpt lat="37.5449380" lon="-4.3585970">
        <ele>607.8</ele>
        <time>2021-12-28T15:08:37Z</time>
      </trkpt>
      <trkpt lat="37.5449180" lon="-4.3586350">
        <ele>607.8</ele>
        <time>2021-12-28T15:08:38Z</time>
      </trkpt>
      <trkpt lat="37.5448960" lon="-4.3586720">
        <ele>607.8</ele>
        <time>2021-12-28T15:08:39Z</time>
      </trkpt>
      <trkpt lat="37.5448770" lon="-4.3587100">
        <ele>607.8</ele>
        <time>2021-12-28T15:08:40Z</time>
      </trkpt>
      <trkpt lat="37.5448580" lon="-4.3587460">
        <ele>607.8</ele>
        <time>2021-12-28T15:08:41Z</time>
      </trkpt>
      <trkpt lat="37.5448350" lon="-4.3587820">
        <ele>607.8</ele>
        <time>2021-12-28T15:08:42Z</time>
      </trkpt>
      <trkpt lat="37.5448160" lon="-4.3588150">
        <ele>607.8</ele>
        <time>2021-12-28T15:08:43Z</time>
      </trkpt>
      <trkpt lat="37.5447940" lon="-4.3588470">
        <ele>607.8</ele>
        <time>2021-12-28T15:08:44Z</time>
      </trkpt>
      <trkpt lat="37.5447680" lon="-4.3588780">
        <ele>607.8</ele>
        <time>2021-12-28T15:08:45Z</time>
      </trkpt>
      <trkpt lat="37.5447460" lon="-4.3589120">
        <ele>607.8</ele>
        <time>2021-12-28T15:08:46Z</time>
      </trkpt>
      <trkpt lat="37.5447230" lon="-4.3589480">
        <ele>607.8</ele>
        <time>2021-12-28T15:08:47Z</time>
      </trkpt>
      <trkpt lat="37.5447070" lon="-4.3589820">
        <ele>607.8</ele>
        <time>2021-12-28T15:08:48Z</time>
      </trkpt>
      <trkpt lat="37.5446880" lon="-4.3590180">
        <ele>607.8</ele>
        <time>2021-12-28T15:08:49Z</time>
      </trkpt>
      <trkpt lat="37.5446690" lon="-4.3590530">
        <ele>607.8</ele>
        <time>2021-12-28T15:08:50Z</time>
      </trkpt>
      <trkpt lat="37.5446500" lon="-4.3590900">
        <ele>607.8</ele>
        <time>2021-12-28T15:08:51Z</time>
      </trkpt>
      <trkpt lat="37.5446270" lon="-4.3591300">
        <ele>607.8</ele>
        <time>2021-12-28T15:08:52Z</time>
      </trkpt>
      <trkpt lat="37.5446080" lon="-4.3591670">
        <ele>607.8</ele>
        <time>2021-12-28T15:08:53Z</time>
      </trkpt>
      <trkpt lat="37.5445860" lon="-4.3592030">
        <ele>607.8</ele>
        <time>2021-12-28T15:08:54Z</time>
      </trkpt>
      <trkpt lat="37.5445630" lon="-4.3592400">
        <ele>607.8</ele>
        <time>2021-12-28T15:08:55Z</time>
      </trkpt>
      <trkpt lat="37.5445410" lon="-4.3592770">
        <ele>607.8</ele>
        <time>2021-12-28T15:08:56Z</time>
      </trkpt>
      <trkpt lat="37.5445220" lon="-4.3593120">
        <ele>607.8</ele>
        <time>2021-12-28T15:08:57Z</time>
      </trkpt>
      <trkpt lat="37.5444990" lon="-4.3593470">
        <ele>607.8</ele>
        <time>2021-12-28T15:08:58Z</time>
      </trkpt>
      <trkpt lat="37.5444770" lon="-4.3593820">
        <ele>607.8</ele>
        <time>2021-12-28T15:08:59Z</time>
      </trkpt>
      <trkpt lat="37.5444580" lon="-4.3594160">
        <ele>607.8</ele>
        <time>2021-12-28T15:09:00Z</time>
      </trkpt>
      <trkpt lat="37.5444380" lon="-4.3594500">
        <ele>607.8</ele>
        <time>2021-12-28T15:09:01Z</time>
      </trkpt>
      <trkpt lat="37.5444160" lon="-4.3594850">
        <ele>607.8</ele>
        <time>2021-12-28T15:09:02Z</time>
      </trkpt>
      <trkpt lat="37.5443970" lon="-4.3595180">
        <ele>607.8</ele>
        <time>2021-12-28T15:09:03Z</time>
      </trkpt>
      <trkpt lat="37.5443780" lon="-4.3595530">
        <ele>607.8</ele>
        <time>2021-12-28T15:09:04Z</time>
      </trkpt>
      <trkpt lat="37.5443580" lon="-4.3595870">
        <ele>607.8</ele>
        <time>2021-12-28T15:09:05Z</time>
      </trkpt>
      <trkpt lat="37.5443390" lon="-4.3596200">
        <ele>607.8</ele>
        <time>2021-12-28T15:09:06Z</time>
      </trkpt>
      <trkpt lat="37.5443200" lon="-4.3596570">
        <ele>607.8</ele>
        <time>2021-12-28T15:09:07Z</time>
      </trkpt>
      <trkpt lat="37.5443010" lon="-4.3596940">
        <ele>608.0</ele>
        <time>2021-12-28T15:09:08Z</time>
      </trkpt>
      <trkpt lat="37.5442820" lon="-4.3597300">
        <ele>607.8</ele>
        <time>2021-12-28T15:09:09Z</time>
      </trkpt>
      <trkpt lat="37.5442590" lon="-4.3597680">
        <ele>607.8</ele>
        <time>2021-12-28T15:09:10Z</time>
      </trkpt>
      <trkpt lat="37.5442430" lon="-4.3598100">
        <ele>607.8</ele>
        <time>2021-12-28T15:09:11Z</time>
      </trkpt>
      <trkpt lat="37.5442240" lon="-4.3598480">
        <ele>607.8</ele>
        <time>2021-12-28T15:09:12Z</time>
      </trkpt>
      <trkpt lat="37.5442050" lon="-4.3598870">
        <ele>608.0</ele>
        <time>2021-12-28T15:09:13Z</time>
      </trkpt>
      <trkpt lat="37.5441890" lon="-4.3599220">
        <ele>608.0</ele>
        <time>2021-12-28T15:09:14Z</time>
      </trkpt>
      <trkpt lat="37.5441730" lon="-4.3599570">
        <ele>608.0</ele>
        <time>2021-12-28T15:09:15Z</time>
      </trkpt>
      <trkpt lat="37.5441600" lon="-4.3599920">
        <ele>607.8</ele>
        <time>2021-12-28T15:09:16Z</time>
      </trkpt>
      <trkpt lat="37.5441440" lon="-4.3600250">
        <ele>607.8</ele>
        <time>2021-12-28T15:09:17Z</time>
      </trkpt>
      <trkpt lat="37.5441280" lon="-4.3600600">
        <ele>608.0</ele>
        <time>2021-12-28T15:09:18Z</time>
      </trkpt>
      <trkpt lat="37.5441180" lon="-4.3600930">
        <ele>607.8</ele>
        <time>2021-12-28T15:09:19Z</time>
      </trkpt>
      <trkpt lat="37.5441060" lon="-4.3601260">
        <ele>607.8</ele>
        <time>2021-12-28T15:09:20Z</time>
      </trkpt>
      <trkpt lat="37.5440900" lon="-4.3601560">
        <ele>607.8</ele>
        <time>2021-12-28T15:09:21Z</time>
      </trkpt>
      <trkpt lat="37.5440740" lon="-4.3601900">
        <ele>607.8</ele>
        <time>2021-12-28T15:09:22Z</time>
      </trkpt>
      <trkpt lat="37.5440540" lon="-4.3602280">
        <ele>607.8</ele>
        <time>2021-12-28T15:09:23Z</time>
      </trkpt>
      <trkpt lat="37.5440380" lon="-4.3602700">
        <ele>607.8</ele>
        <time>2021-12-28T15:09:24Z</time>
      </trkpt>
      <trkpt lat="37.5440220" lon="-4.3603150">
        <ele>607.8</ele>
        <time>2021-12-28T15:09:25Z</time>
      </trkpt>
      <trkpt lat="37.5440060" lon="-4.3603570">
        <ele>607.8</ele>
        <time>2021-12-28T15:09:26Z</time>
      </trkpt>
      <trkpt lat="37.5439900" lon="-4.3603980">
        <ele>607.8</ele>
        <time>2021-12-28T15:09:27Z</time>
      </trkpt>
      <trkpt lat="37.5439810" lon="-4.3604420">
        <ele>607.8</ele>
        <time>2021-12-28T15:09:28Z</time>
      </trkpt>
      <trkpt lat="37.5439680" lon="-4.3604830">
        <ele>607.8</ele>
        <time>2021-12-28T15:09:29Z</time>
      </trkpt>
      <trkpt lat="37.5439520" lon="-4.3605280">
        <ele>607.8</ele>
        <time>2021-12-28T15:09:30Z</time>
      </trkpt>
      <trkpt lat="37.5439390" lon="-4.3605750">
        <ele>607.8</ele>
        <time>2021-12-28T15:09:31Z</time>
      </trkpt>
      <trkpt lat="37.5439260" lon="-4.3606230">
        <ele>607.8</ele>
        <time>2021-12-28T15:09:32Z</time>
      </trkpt>
      <trkpt lat="37.5439140" lon="-4.3606720">
        <ele>607.8</ele>
        <time>2021-12-28T15:09:33Z</time>
      </trkpt>
      <trkpt lat="37.5439010" lon="-4.3607180">
        <ele>607.8</ele>
        <time>2021-12-28T15:09:34Z</time>
      </trkpt>
      <trkpt lat="37.5438850" lon="-4.3607620">
        <ele>607.8</ele>
        <time>2021-12-28T15:09:35Z</time>
      </trkpt>
      <trkpt lat="37.5438720" lon="-4.3608050">
        <ele>607.8</ele>
        <time>2021-12-28T15:09:36Z</time>
      </trkpt>
      <trkpt lat="37.5438620" lon="-4.3608460">
        <ele>607.8</ele>
        <time>2021-12-28T15:09:37Z</time>
      </trkpt>
      <trkpt lat="37.5438460" lon="-4.3608900">
        <ele>607.8</ele>
        <time>2021-12-28T15:09:38Z</time>
      </trkpt>
      <trkpt lat="37.5438300" lon="-4.3609330">
        <ele>607.8</ele>
        <time>2021-12-28T15:09:39Z</time>
      </trkpt>
      <trkpt lat="37.5438210" lon="-4.3609750">
        <ele>607.8</ele>
        <time>2021-12-28T15:09:40Z</time>
      </trkpt>
      <trkpt lat="37.5438080" lon="-4.3610170">
        <ele>607.8</ele>
        <time>2021-12-28T15:09:41Z</time>
      </trkpt>
      <trkpt lat="37.5437950" lon="-4.3610540">
        <ele>607.6</ele>
        <time>2021-12-28T15:09:42Z</time>
      </trkpt>
      <trkpt lat="37.5437860" lon="-4.3610880">
        <ele>607.6</ele>
        <time>2021-12-28T15:09:43Z</time>
      </trkpt>
      <trkpt lat="37.5437730" lon="-4.3611270">
        <ele>607.4</ele>
        <time>2021-12-28T15:09:44Z</time>
      </trkpt>
      <trkpt lat="37.5437630" lon="-4.3611680">
        <ele>607.4</ele>
        <time>2021-12-28T15:09:45Z</time>
      </trkpt>
      <trkpt lat="37.5437540" lon="-4.3612120">
        <ele>607.4</ele>
        <time>2021-12-28T15:09:46Z</time>
      </trkpt>
      <trkpt lat="37.5437440" lon="-4.3612530">
        <ele>607.2</ele>
        <time>2021-12-28T15:09:47Z</time>
      </trkpt>
      <trkpt lat="37.5437340" lon="-4.3612950">
        <ele>607.2</ele>
        <time>2021-12-28T15:09:48Z</time>
      </trkpt>
      <trkpt lat="37.5437280" lon="-4.3613370">
        <ele>607.2</ele>
        <time>2021-12-28T15:09:49Z</time>
      </trkpt>
      <trkpt lat="37.5437220" lon="-4.3613770">
        <ele>607.2</ele>
        <time>2021-12-28T15:09:50Z</time>
      </trkpt>
      <trkpt lat="37.5437090" lon="-4.3614200">
        <ele>607.2</ele>
        <time>2021-12-28T15:09:51Z</time>
      </trkpt>
      <trkpt lat="37.5436960" lon="-4.3614640">
        <ele>607.0</ele>
        <time>2021-12-28T15:09:52Z</time>
      </trkpt>
      <trkpt lat="37.5436900" lon="-4.3615050">
        <ele>607.0</ele>
        <time>2021-12-28T15:09:53Z</time>
      </trkpt>
      <trkpt lat="37.5436830" lon="-4.3615460">
        <ele>607.0</ele>
        <time>2021-12-28T15:09:54Z</time>
      </trkpt>
      <trkpt lat="37.5436770" lon="-4.3615860">
        <ele>607.0</ele>
        <time>2021-12-28T15:09:55Z</time>
      </trkpt>
      <trkpt lat="37.5436700" lon="-4.3616300">
        <ele>607.0</ele>
        <time>2021-12-28T15:09:56Z</time>
      </trkpt>
      <trkpt lat="37.5436640" lon="-4.3616700">
        <ele>607.0</ele>
        <time>2021-12-28T15:09:57Z</time>
      </trkpt>
      <trkpt lat="37.5436510" lon="-4.3617100">
        <ele>606.8</ele>
        <time>2021-12-28T15:09:58Z</time>
      </trkpt>
      <trkpt lat="37.5436480" lon="-4.3617540">
        <ele>606.8</ele>
        <time>2021-12-28T15:09:59Z</time>
      </trkpt>
      <trkpt lat="37.5436430" lon="-4.3618190">
        <ele>606.8</ele>
        <time>2021-12-28T15:10:00Z</time>
      </trkpt>
      <trkpt lat="37.5436420" lon="-4.3618420">
        <ele>607.0</ele>
        <time>2021-12-28T15:10:01Z</time>
      </trkpt>
      <trkpt lat="37.5436320" lon="-4.3618850">
        <ele>607.0</ele>
        <time>2021-12-28T15:10:02Z</time>
      </trkpt>
      <trkpt lat="37.5436260" lon="-4.3619280">
        <ele>607.2</ele>
        <time>2021-12-28T15:10:03Z</time>
      </trkpt>
      <trkpt lat="37.5436220" lon="-4.3619680">
        <ele>607.2</ele>
        <time>2021-12-28T15:10:04Z</time>
      </trkpt>
      <trkpt lat="37.5436160" lon="-4.3620080">
        <ele>607.4</ele>
        <time>2021-12-28T15:10:05Z</time>
      </trkpt>
      <trkpt lat="37.5436130" lon="-4.3620480">
        <ele>607.4</ele>
        <time>2021-12-28T15:10:06Z</time>
      </trkpt>
      <trkpt lat="37.5436100" lon="-4.3620880">
        <ele>607.4</ele>
        <time>2021-12-28T15:10:07Z</time>
      </trkpt>
      <trkpt lat="37.5436060" lon="-4.3621300">
        <ele>607.4</ele>
        <time>2021-12-28T15:10:08Z</time>
      </trkpt>
      <trkpt lat="37.5435970" lon="-4.3621700">
        <ele>607.6</ele>
        <time>2021-12-28T15:10:09Z</time>
      </trkpt>
      <trkpt lat="37.5435970" lon="-4.3622060">
        <ele>607.6</ele>
        <time>2021-12-28T15:10:10Z</time>
      </trkpt>
      <trkpt lat="37.5435900" lon="-4.3622460">
        <ele>607.6</ele>
        <time>2021-12-28T15:10:11Z</time>
      </trkpt>
      <trkpt lat="37.5435870" lon="-4.3622820">
        <ele>607.6</ele>
        <time>2021-12-28T15:10:12Z</time>
      </trkpt>
      <trkpt lat="37.5435870" lon="-4.3623220">
        <ele>607.6</ele>
        <time>2021-12-28T15:10:13Z</time>
      </trkpt>
      <trkpt lat="37.5435840" lon="-4.3623630">
        <ele>607.4</ele>
        <time>2021-12-28T15:10:14Z</time>
      </trkpt>
      <trkpt lat="37.5435780" lon="-4.3624050">
        <ele>607.4</ele>
        <time>2021-12-28T15:10:15Z</time>
      </trkpt>
      <trkpt lat="37.5435740" lon="-4.3624470">
        <ele>607.4</ele>
        <time>2021-12-28T15:10:16Z</time>
      </trkpt>
      <trkpt lat="37.5435740" lon="-4.3624880">
        <ele>607.4</ele>
        <time>2021-12-28T15:10:17Z</time>
      </trkpt>
      <trkpt lat="37.5435710" lon="-4.3625320">
        <ele>607.4</ele>
        <time>2021-12-28T15:10:18Z</time>
      </trkpt>
      <trkpt lat="37.5435710" lon="-4.3625780">
        <ele>607.4</ele>
        <time>2021-12-28T15:10:19Z</time>
      </trkpt>
      <trkpt lat="37.5435710" lon="-4.3626220">
        <ele>607.4</ele>
        <time>2021-12-28T15:10:20Z</time>
      </trkpt>
      <trkpt lat="37.5435710" lon="-4.3626670">
        <ele>607.4</ele>
        <time>2021-12-28T15:10:21Z</time>
      </trkpt>
      <trkpt lat="37.5435710" lon="-4.3627100">
        <ele>607.6</ele>
        <time>2021-12-28T15:10:22Z</time>
      </trkpt>
      <trkpt lat="37.5435710" lon="-4.3627550">
        <ele>607.6</ele>
        <time>2021-12-28T15:10:23Z</time>
      </trkpt>
      <trkpt lat="37.5435710" lon="-4.3627980">
        <ele>607.6</ele>
        <time>2021-12-28T15:10:24Z</time>
      </trkpt>
      <trkpt lat="37.5435710" lon="-4.3628420">
        <ele>607.4</ele>
        <time>2021-12-28T15:10:25Z</time>
      </trkpt>
      <trkpt lat="37.5435710" lon="-4.3628880">
        <ele>607.4</ele>
        <time>2021-12-28T15:10:26Z</time>
      </trkpt>
      <trkpt lat="37.5435710" lon="-4.3629330">
        <ele>607.4</ele>
        <time>2021-12-28T15:10:27Z</time>
      </trkpt>
      <trkpt lat="37.5435740" lon="-4.3629820">
        <ele>607.2</ele>
        <time>2021-12-28T15:10:28Z</time>
      </trkpt>
      <trkpt lat="37.5435710" lon="-4.3630300">
        <ele>607.2</ele>
        <time>2021-12-28T15:10:29Z</time>
      </trkpt>
      <trkpt lat="37.5435740" lon="-4.3630770">
        <ele>607.2</ele>
        <time>2021-12-28T15:10:30Z</time>
      </trkpt>
      <trkpt lat="37.5435780" lon="-4.3631270">
        <ele>607.2</ele>
        <time>2021-12-28T15:10:31Z</time>
      </trkpt>
      <trkpt lat="37.5435780" lon="-4.3631740">
        <ele>607.2</ele>
        <time>2021-12-28T15:10:32Z</time>
      </trkpt>
      <trkpt lat="37.5435840" lon="-4.3632240">
        <ele>607.2</ele>
        <time>2021-12-28T15:10:33Z</time>
      </trkpt>
      <trkpt lat="37.5435840" lon="-4.3632720">
        <ele>607.0</ele>
        <time>2021-12-28T15:10:34Z</time>
      </trkpt>
      <trkpt lat="37.5435870" lon="-4.3633200">
        <ele>607.0</ele>
        <time>2021-12-28T15:10:35Z</time>
      </trkpt>
      <trkpt lat="37.5435870" lon="-4.3633720">
        <ele>607.0</ele>
        <time>2021-12-28T15:10:36Z</time>
      </trkpt>
      <trkpt lat="37.5435870" lon="-4.3634230">
        <ele>607.0</ele>
        <time>2021-12-28T15:10:37Z</time>
      </trkpt>
      <trkpt lat="37.5435870" lon="-4.3634720">
        <ele>606.8</ele>
        <time>2021-12-28T15:10:38Z</time>
      </trkpt>
      <trkpt lat="37.5435900" lon="-4.3635200">
        <ele>606.6</ele>
        <time>2021-12-28T15:10:39Z</time>
      </trkpt>
      <trkpt lat="37.5435940" lon="-4.3635700">
        <ele>606.6</ele>
        <time>2021-12-28T15:10:40Z</time>
      </trkpt>
      <trkpt lat="37.5435970" lon="-4.3636220">
        <ele>606.6</ele>
        <time>2021-12-28T15:10:41Z</time>
      </trkpt>
      <trkpt lat="37.5435970" lon="-4.3636730">
        <ele>606.4</ele>
        <time>2021-12-28T15:10:42Z</time>
      </trkpt>
      <trkpt lat="37.5436030" lon="-4.3637270">
        <ele>606.4</ele>
        <time>2021-12-28T15:10:43Z</time>
      </trkpt>
      <trkpt lat="37.5436030" lon="-4.3637800">
        <ele>606.4</ele>
        <time>2021-12-28T15:10:44Z</time>
      </trkpt>
      <trkpt lat="37.5436060" lon="-4.3638350">
        <ele>606.4</ele>
        <time>2021-12-28T15:10:45Z</time>
      </trkpt>
      <trkpt lat="37.5436060" lon="-4.3638870">
        <ele>606.2</ele>
        <time>2021-12-28T15:10:46Z</time>
      </trkpt>
      <trkpt lat="37.5436060" lon="-4.3639350">
        <ele>606.2</ele>
        <time>2021-12-28T15:10:47Z</time>
      </trkpt>
      <trkpt lat="37.5436100" lon="-4.3639880">
        <ele>606.2</ele>
        <time>2021-12-28T15:10:48Z</time>
      </trkpt>
      <trkpt lat="37.5436130" lon="-4.3640400">
        <ele>606.2</ele>
        <time>2021-12-28T15:10:49Z</time>
      </trkpt>
      <trkpt lat="37.5436130" lon="-4.3640930">
        <ele>606.2</ele>
        <time>2021-12-28T15:10:50Z</time>
      </trkpt>
      <trkpt lat="37.5436130" lon="-4.3641450">
        <ele>606.2</ele>
        <time>2021-12-28T15:10:51Z</time>
      </trkpt>
      <trkpt lat="37.5436130" lon="-4.3641970">
        <ele>606.4</ele>
        <time>2021-12-28T15:10:52Z</time>
      </trkpt>
      <trkpt lat="37.5436160" lon="-4.3642470">
        <ele>606.4</ele>
        <time>2021-12-28T15:10:53Z</time>
      </trkpt>
      <trkpt lat="37.5436220" lon="-4.3642950">
        <ele>606.4</ele>
        <time>2021-12-28T15:10:54Z</time>
      </trkpt>
      <trkpt lat="37.5436220" lon="-4.3643430">
        <ele>606.4</ele>
        <time>2021-12-28T15:10:55Z</time>
      </trkpt>
      <trkpt lat="37.5436220" lon="-4.3643930">
        <ele>606.4</ele>
        <time>2021-12-28T15:10:56Z</time>
      </trkpt>
      <trkpt lat="37.5436260" lon="-4.3644420">
        <ele>606.4</ele>
        <time>2021-12-28T15:10:57Z</time>
      </trkpt>
      <trkpt lat="37.5436260" lon="-4.3644920">
        <ele>606.4</ele>
        <time>2021-12-28T15:10:58Z</time>
      </trkpt>
      <trkpt lat="37.5436260" lon="-4.3645440">
        <ele>606.4</ele>
        <time>2021-12-28T15:10:59Z</time>
      </trkpt>
      <trkpt lat="37.5436260" lon="-4.3645970">
        <ele>606.4</ele>
        <time>2021-12-28T15:11:00Z</time>
      </trkpt>
      <trkpt lat="37.5436290" lon="-4.3646500">
        <ele>606.4</ele>
        <time>2021-12-28T15:11:01Z</time>
      </trkpt>
      <trkpt lat="37.5436290" lon="-4.3647020">
        <ele>606.6</ele>
        <time>2021-12-28T15:11:02Z</time>
      </trkpt>
      <trkpt lat="37.5436290" lon="-4.3647520">
        <ele>606.6</ele>
        <time>2021-12-28T15:11:03Z</time>
      </trkpt>
      <trkpt lat="37.5436320" lon="-4.3647980">
        <ele>606.6</ele>
        <time>2021-12-28T15:11:04Z</time>
      </trkpt>
      <trkpt lat="37.5436320" lon="-4.3648480">
        <ele>606.6</ele>
        <time>2021-12-28T15:11:05Z</time>
      </trkpt>
      <trkpt lat="37.5436350" lon="-4.3648970">
        <ele>606.6</ele>
        <time>2021-12-28T15:11:06Z</time>
      </trkpt>
      <trkpt lat="37.5436350" lon="-4.3649470">
        <ele>606.6</ele>
        <time>2021-12-28T15:11:07Z</time>
      </trkpt>
      <trkpt lat="37.5436350" lon="-4.3650000">
        <ele>606.6</ele>
        <time>2021-12-28T15:11:08Z</time>
      </trkpt>
      <trkpt lat="37.5436350" lon="-4.3650520">
        <ele>606.6</ele>
        <time>2021-12-28T15:11:09Z</time>
      </trkpt>
      <trkpt lat="37.5436420" lon="-4.3651020">
        <ele>606.8</ele>
        <time>2021-12-28T15:11:10Z</time>
      </trkpt>
      <trkpt lat="37.5436420" lon="-4.3651500">
        <ele>606.8</ele>
        <time>2021-12-28T15:11:11Z</time>
      </trkpt>
      <trkpt lat="37.5436420" lon="-4.3652020">
        <ele>606.8</ele>
        <time>2021-12-28T15:11:12Z</time>
      </trkpt>
      <trkpt lat="37.5436420" lon="-4.3652520">
        <ele>606.8</ele>
        <time>2021-12-28T15:11:13Z</time>
      </trkpt>
      <trkpt lat="37.5436450" lon="-4.3653000">
        <ele>606.8</ele>
        <time>2021-12-28T15:11:14Z</time>
      </trkpt>
      <trkpt lat="37.5436480" lon="-4.3653520">
        <ele>606.8</ele>
        <time>2021-12-28T15:11:15Z</time>
      </trkpt>
      <trkpt lat="37.5436480" lon="-4.3654050">
        <ele>606.6</ele>
        <time>2021-12-28T15:11:16Z</time>
      </trkpt>
      <trkpt lat="37.5436510" lon="-4.3654560">
        <ele>606.6</ele>
        <time>2021-12-28T15:11:17Z</time>
      </trkpt>
      <trkpt lat="37.5436510" lon="-4.3655100">
        <ele>606.6</ele>
        <time>2021-12-28T15:11:18Z</time>
      </trkpt>
      <trkpt lat="37.5436540" lon="-4.3655630">
        <ele>606.6</ele>
        <time>2021-12-28T15:11:19Z</time>
      </trkpt>
      <trkpt lat="37.5436540" lon="-4.3656140">
        <ele>606.6</ele>
        <time>2021-12-28T15:11:20Z</time>
      </trkpt>
      <trkpt lat="37.5436540" lon="-4.3656640">
        <ele>606.6</ele>
        <time>2021-12-28T15:11:21Z</time>
      </trkpt>
      <trkpt lat="37.5436540" lon="-4.3657120">
        <ele>606.6</ele>
        <time>2021-12-28T15:11:22Z</time>
      </trkpt>
      <trkpt lat="37.5436610" lon="-4.3657620">
        <ele>606.6</ele>
        <time>2021-12-28T15:11:23Z</time>
      </trkpt>
      <trkpt lat="37.5436640" lon="-4.3658100">
        <ele>606.6</ele>
        <time>2021-12-28T15:11:24Z</time>
      </trkpt>
      <trkpt lat="37.5436640" lon="-4.3658570">
        <ele>606.6</ele>
        <time>2021-12-28T15:11:25Z</time>
      </trkpt>
      <trkpt lat="37.5436670" lon="-4.3659050">
        <ele>606.8</ele>
        <time>2021-12-28T15:11:26Z</time>
      </trkpt>
      <trkpt lat="37.5436670" lon="-4.3659540">
        <ele>606.8</ele>
        <time>2021-12-28T15:11:27Z</time>
      </trkpt>
      <trkpt lat="37.5436670" lon="-4.3660020">
        <ele>606.8</ele>
        <time>2021-12-28T15:11:28Z</time>
      </trkpt>
      <trkpt lat="37.5436670" lon="-4.3660470">
        <ele>606.8</ele>
        <time>2021-12-28T15:11:29Z</time>
      </trkpt>
      <trkpt lat="37.5436670" lon="-4.3660930">
        <ele>606.8</ele>
        <time>2021-12-28T15:11:30Z</time>
      </trkpt>
      <trkpt lat="37.5436700" lon="-4.3661400">
        <ele>606.8</ele>
        <time>2021-12-28T15:11:31Z</time>
      </trkpt>
      <trkpt lat="37.5436740" lon="-4.3661880">
        <ele>606.6</ele>
        <time>2021-12-28T15:11:32Z</time>
      </trkpt>
      <trkpt lat="37.5436770" lon="-4.3662350">
        <ele>606.6</ele>
        <time>2021-12-28T15:11:33Z</time>
      </trkpt>
      <trkpt lat="37.5436770" lon="-4.3662840">
        <ele>606.6</ele>
        <time>2021-12-28T15:11:34Z</time>
      </trkpt>
      <trkpt lat="37.5436770" lon="-4.3663300">
        <ele>606.6</ele>
        <time>2021-12-28T15:11:35Z</time>
      </trkpt>
      <trkpt lat="37.5436830" lon="-4.3663770">
        <ele>606.6</ele>
        <time>2021-12-28T15:11:36Z</time>
      </trkpt>
      <trkpt lat="37.5436860" lon="-4.3664230">
        <ele>606.6</ele>
        <time>2021-12-28T15:11:37Z</time>
      </trkpt>
      <trkpt lat="37.5436900" lon="-4.3664720">
        <ele>606.6</ele>
        <time>2021-12-28T15:11:38Z</time>
      </trkpt>
      <trkpt lat="37.5436930" lon="-4.3665220">
        <ele>606.6</ele>
        <time>2021-12-28T15:11:39Z</time>
      </trkpt>
      <trkpt lat="37.5436930" lon="-4.3665720">
        <ele>606.6</ele>
        <time>2021-12-28T15:11:40Z</time>
      </trkpt>
      <trkpt lat="37.5436930" lon="-4.3666240">
        <ele>606.6</ele>
        <time>2021-12-28T15:11:41Z</time>
      </trkpt>
      <trkpt lat="37.5436930" lon="-4.3666740">
        <ele>606.6</ele>
        <time>2021-12-28T15:11:42Z</time>
      </trkpt>
      <trkpt lat="37.5436930" lon="-4.3667200">
        <ele>606.6</ele>
        <time>2021-12-28T15:11:43Z</time>
      </trkpt>
      <trkpt lat="37.5436960" lon="-4.3667720">
        <ele>606.6</ele>
        <time>2021-12-28T15:11:44Z</time>
      </trkpt>
      <trkpt lat="37.5436960" lon="-4.3668220">
        <ele>606.6</ele>
        <time>2021-12-28T15:11:45Z</time>
      </trkpt>
      <trkpt lat="37.5436960" lon="-4.3668730">
        <ele>606.6</ele>
        <time>2021-12-28T15:11:46Z</time>
      </trkpt>
      <trkpt lat="37.5437020" lon="-4.3669230">
        <ele>606.6</ele>
        <time>2021-12-28T15:11:47Z</time>
      </trkpt>
      <trkpt lat="37.5437060" lon="-4.3669750">
        <ele>606.8</ele>
        <time>2021-12-28T15:11:48Z</time>
      </trkpt>
      <trkpt lat="37.5437060" lon="-4.3670270">
        <ele>606.8</ele>
        <time>2021-12-28T15:11:49Z</time>
      </trkpt>
      <trkpt lat="37.5437060" lon="-4.3670780">
        <ele>606.8</ele>
        <time>2021-12-28T15:11:50Z</time>
      </trkpt>
      <trkpt lat="37.5437060" lon="-4.3671280">
        <ele>606.8</ele>
        <time>2021-12-28T15:11:51Z</time>
      </trkpt>
      <trkpt lat="37.5437060" lon="-4.3671820">
        <ele>606.8</ele>
        <time>2021-12-28T15:11:52Z</time>
      </trkpt>
      <trkpt lat="37.5437090" lon="-4.3672330">
        <ele>606.8</ele>
        <time>2021-12-28T15:11:53Z</time>
      </trkpt>
      <trkpt lat="37.5437090" lon="-4.3672850">
        <ele>606.8</ele>
        <time>2021-12-28T15:11:54Z</time>
      </trkpt>
      <trkpt lat="37.5437060" lon="-4.3673400">
        <ele>606.8</ele>
        <time>2021-12-28T15:11:55Z</time>
      </trkpt>
      <trkpt lat="37.5437060" lon="-4.3673920">
        <ele>606.8</ele>
        <time>2021-12-28T15:11:56Z</time>
      </trkpt>
      <trkpt lat="37.5437060" lon="-4.3674420">
        <ele>606.8</ele>
        <time>2021-12-28T15:11:57Z</time>
      </trkpt>
      <trkpt lat="37.5437060" lon="-4.3674880">
        <ele>606.8</ele>
        <time>2021-12-28T15:11:58Z</time>
      </trkpt>
      <trkpt lat="37.5437020" lon="-4.3675330">
        <ele>606.8</ele>
        <time>2021-12-28T15:11:59Z</time>
      </trkpt>
      <trkpt lat="37.5437020" lon="-4.3675820">
        <ele>606.6</ele>
        <time>2021-12-28T15:12:00Z</time>
      </trkpt>
      <trkpt lat="37.5437020" lon="-4.3676280">
        <ele>606.6</ele>
        <time>2021-12-28T15:12:01Z</time>
      </trkpt>
      <trkpt lat="37.5437020" lon="-4.3676750">
        <ele>606.6</ele>
        <time>2021-12-28T15:12:02Z</time>
      </trkpt>
      <trkpt lat="37.5437020" lon="-4.3677250">
        <ele>606.6</ele>
        <time>2021-12-28T15:12:03Z</time>
      </trkpt>
      <trkpt lat="37.5437020" lon="-4.3677740">
        <ele>606.6</ele>
        <time>2021-12-28T15:12:04Z</time>
      </trkpt>
      <trkpt lat="37.5437020" lon="-4.3678220">
        <ele>606.6</ele>
        <time>2021-12-28T15:12:05Z</time>
      </trkpt>
      <trkpt lat="37.5437020" lon="-4.3678720">
        <ele>606.6</ele>
        <time>2021-12-28T15:12:06Z</time>
      </trkpt>
      <trkpt lat="37.5437060" lon="-4.3679200">
        <ele>606.6</ele>
        <time>2021-12-28T15:12:07Z</time>
      </trkpt>
      <trkpt lat="37.5437060" lon="-4.3679680">
        <ele>606.6</ele>
        <time>2021-12-28T15:12:08Z</time>
      </trkpt>
      <trkpt lat="37.5437060" lon="-4.3680170">
        <ele>606.6</ele>
        <time>2021-12-28T15:12:09Z</time>
      </trkpt>
      <trkpt lat="37.5437060" lon="-4.3680650">
        <ele>606.6</ele>
        <time>2021-12-28T15:12:10Z</time>
      </trkpt>
      <trkpt lat="37.5437060" lon="-4.3681140">
        <ele>606.8</ele>
        <time>2021-12-28T15:12:11Z</time>
      </trkpt>
      <trkpt lat="37.5437060" lon="-4.3681620">
        <ele>606.8</ele>
        <time>2021-12-28T15:12:12Z</time>
      </trkpt>
      <trkpt lat="37.5437060" lon="-4.3682100">
        <ele>606.8</ele>
        <time>2021-12-28T15:12:13Z</time>
      </trkpt>
      <trkpt lat="37.5437020" lon="-4.3682580">
        <ele>606.8</ele>
        <time>2021-12-28T15:12:14Z</time>
      </trkpt>
      <trkpt lat="37.5437020" lon="-4.3683080">
        <ele>606.8</ele>
        <time>2021-12-28T15:12:15Z</time>
      </trkpt>
      <trkpt lat="37.5437020" lon="-4.3683600">
        <ele>606.8</ele>
        <time>2021-12-28T15:12:16Z</time>
      </trkpt>
      <trkpt lat="37.5436960" lon="-4.3684140">
        <ele>606.8</ele>
        <time>2021-12-28T15:12:17Z</time>
      </trkpt>
      <trkpt lat="37.5436960" lon="-4.3684640">
        <ele>606.8</ele>
        <time>2021-12-28T15:12:18Z</time>
      </trkpt>
      <trkpt lat="37.5436960" lon="-4.3685150">
        <ele>606.8</ele>
        <time>2021-12-28T15:12:19Z</time>
      </trkpt>
      <trkpt lat="37.5436930" lon="-4.3685650">
        <ele>606.8</ele>
        <time>2021-12-28T15:12:20Z</time>
      </trkpt>
      <trkpt lat="37.5436930" lon="-4.3686150">
        <ele>606.8</ele>
        <time>2021-12-28T15:12:21Z</time>
      </trkpt>
      <trkpt lat="37.5436930" lon="-4.3686670">
        <ele>606.8</ele>
        <time>2021-12-28T15:12:22Z</time>
      </trkpt>
      <trkpt lat="37.5436930" lon="-4.3687170">
        <ele>606.8</ele>
        <time>2021-12-28T15:12:23Z</time>
      </trkpt>
      <trkpt lat="37.5436900" lon="-4.3687670">
        <ele>606.8</ele>
        <time>2021-12-28T15:12:24Z</time>
      </trkpt>
      <trkpt lat="37.5436860" lon="-4.3688150">
        <ele>606.6</ele>
        <time>2021-12-28T15:12:25Z</time>
      </trkpt>
      <trkpt lat="37.5436860" lon="-4.3688620">
        <ele>606.6</ele>
        <time>2021-12-28T15:12:26Z</time>
      </trkpt>
      <trkpt lat="37.5436830" lon="-4.3689080">
        <ele>606.6</ele>
        <time>2021-12-28T15:12:27Z</time>
      </trkpt>
      <trkpt lat="37.5436770" lon="-4.3689550">
        <ele>606.6</ele>
        <time>2021-12-28T15:12:28Z</time>
      </trkpt>
      <trkpt lat="37.5436770" lon="-4.3690000">
        <ele>606.6</ele>
        <time>2021-12-28T15:12:29Z</time>
      </trkpt>
      <trkpt lat="37.5436770" lon="-4.3690450">
        <ele>606.8</ele>
        <time>2021-12-28T15:12:30Z</time>
      </trkpt>
      <trkpt lat="37.5436740" lon="-4.3690940">
        <ele>606.8</ele>
        <time>2021-12-28T15:12:31Z</time>
      </trkpt>
      <trkpt lat="37.5436740" lon="-4.3691440">
        <ele>606.6</ele>
        <time>2021-12-28T15:12:32Z</time>
      </trkpt>
      <trkpt lat="37.5436700" lon="-4.3691950">
        <ele>606.6</ele>
        <time>2021-12-28T15:12:33Z</time>
      </trkpt>
      <trkpt lat="37.5436670" lon="-4.3692500">
        <ele>606.6</ele>
        <time>2021-12-28T15:12:34Z</time>
      </trkpt>
      <trkpt lat="37.5436670" lon="-4.3693050">
        <ele>606.6</ele>
        <time>2021-12-28T15:12:35Z</time>
      </trkpt>
      <trkpt lat="37.5436640" lon="-4.3693580">
        <ele>606.6</ele>
        <time>2021-12-28T15:12:36Z</time>
      </trkpt>
      <trkpt lat="37.5436610" lon="-4.3694130">
        <ele>606.6</ele>
        <time>2021-12-28T15:12:37Z</time>
      </trkpt>
      <trkpt lat="37.5436610" lon="-4.3694670">
        <ele>606.6</ele>
        <time>2021-12-28T15:12:38Z</time>
      </trkpt>
      <trkpt lat="37.5436540" lon="-4.3695180">
        <ele>606.6</ele>
        <time>2021-12-28T15:12:39Z</time>
      </trkpt>
      <trkpt lat="37.5436540" lon="-4.3695720">
        <ele>606.6</ele>
        <time>2021-12-28T15:12:40Z</time>
      </trkpt>
      <trkpt lat="37.5436540" lon="-4.3696230">
        <ele>606.6</ele>
        <time>2021-12-28T15:12:41Z</time>
      </trkpt>
      <trkpt lat="37.5436510" lon="-4.3696750">
        <ele>606.6</ele>
        <time>2021-12-28T15:12:42Z</time>
      </trkpt>
      <trkpt lat="37.5436480" lon="-4.3697270">
        <ele>606.6</ele>
        <time>2021-12-28T15:12:43Z</time>
      </trkpt>
      <trkpt lat="37.5436450" lon="-4.3697770">
        <ele>606.4</ele>
        <time>2021-12-28T15:12:44Z</time>
      </trkpt>
      <trkpt lat="37.5436450" lon="-4.3698300">
        <ele>606.4</ele>
        <time>2021-12-28T15:12:45Z</time>
      </trkpt>
      <trkpt lat="37.5436420" lon="-4.3698800">
        <ele>606.4</ele>
        <time>2021-12-28T15:12:46Z</time>
      </trkpt>
      <trkpt lat="37.5436420" lon="-4.3699300">
        <ele>606.4</ele>
        <time>2021-12-28T15:12:47Z</time>
      </trkpt>
      <trkpt lat="37.5436420" lon="-4.3699750">
        <ele>606.4</ele>
        <time>2021-12-28T15:12:48Z</time>
      </trkpt>
      <trkpt lat="37.5436350" lon="-4.3700200">
        <ele>606.4</ele>
        <time>2021-12-28T15:12:49Z</time>
      </trkpt>
      <trkpt lat="37.5436320" lon="-4.3700670">
        <ele>606.4</ele>
        <time>2021-12-28T15:12:50Z</time>
      </trkpt>
      <trkpt lat="37.5436290" lon="-4.3701100">
        <ele>606.4</ele>
        <time>2021-12-28T15:12:51Z</time>
      </trkpt>
      <trkpt lat="37.5436290" lon="-4.3701570">
        <ele>606.4</ele>
        <time>2021-12-28T15:12:52Z</time>
      </trkpt>
      <trkpt lat="37.5436260" lon="-4.3702050">
        <ele>606.4</ele>
        <time>2021-12-28T15:12:53Z</time>
      </trkpt>
      <trkpt lat="37.5436260" lon="-4.3702540">
        <ele>606.4</ele>
        <time>2021-12-28T15:12:54Z</time>
      </trkpt>
      <trkpt lat="37.5436220" lon="-4.3703020">
        <ele>606.4</ele>
        <time>2021-12-28T15:12:55Z</time>
      </trkpt>
      <trkpt lat="37.5436220" lon="-4.3703520">
        <ele>606.4</ele>
        <time>2021-12-28T15:12:56Z</time>
      </trkpt>
      <trkpt lat="37.5436160" lon="-4.3703980">
        <ele>606.4</ele>
        <time>2021-12-28T15:12:57Z</time>
      </trkpt>
      <trkpt lat="37.5436160" lon="-4.3704450">
        <ele>606.6</ele>
        <time>2021-12-28T15:12:58Z</time>
      </trkpt>
      <trkpt lat="37.5436130" lon="-4.3704920">
        <ele>606.6</ele>
        <time>2021-12-28T15:12:59Z</time>
      </trkpt>
      <trkpt lat="37.5436130" lon="-4.3705350">
        <ele>606.6</ele>
        <time>2021-12-28T15:13:00Z</time>
      </trkpt>
      <trkpt lat="37.5436100" lon="-4.3705770">
        <ele>606.6</ele>
        <time>2021-12-28T15:13:01Z</time>
      </trkpt>
      <trkpt lat="37.5436100" lon="-4.3706220">
        <ele>606.6</ele>
        <time>2021-12-28T15:13:02Z</time>
      </trkpt>
      <trkpt lat="37.5436060" lon="-4.3706680">
        <ele>606.6</ele>
        <time>2021-12-28T15:13:03Z</time>
      </trkpt>
      <trkpt lat="37.5436030" lon="-4.3707130">
        <ele>606.6</ele>
        <time>2021-12-28T15:13:04Z</time>
      </trkpt>
      <trkpt lat="37.5436030" lon="-4.3707600">
        <ele>606.6</ele>
        <time>2021-12-28T15:13:05Z</time>
      </trkpt>
      <trkpt lat="37.5435970" lon="-4.3708070">
        <ele>606.6</ele>
        <time>2021-12-28T15:13:06Z</time>
      </trkpt>
      <trkpt lat="37.5435970" lon="-4.3708500">
        <ele>606.8</ele>
        <time>2021-12-28T15:13:07Z</time>
      </trkpt>
      <trkpt lat="37.5435940" lon="-4.3708970">
        <ele>606.8</ele>
        <time>2021-12-28T15:13:08Z</time>
      </trkpt>
      <trkpt lat="37.5435900" lon="-4.3709400">
        <ele>606.8</ele>
        <time>2021-12-28T15:13:09Z</time>
      </trkpt>
      <trkpt lat="37.5435900" lon="-4.3709820">
        <ele>606.8</ele>
        <time>2021-12-28T15:13:10Z</time>
      </trkpt>
      <trkpt lat="37.5435870" lon="-4.3710200">
        <ele>606.6</ele>
        <time>2021-12-28T15:13:11Z</time>
      </trkpt>
      <trkpt lat="37.5435870" lon="-4.3710580">
        <ele>606.6</ele>
        <time>2021-12-28T15:13:12Z</time>
      </trkpt>
      <trkpt lat="37.5435870" lon="-4.3711020">
        <ele>606.6</ele>
        <time>2021-12-28T15:13:13Z</time>
      </trkpt>
      <trkpt lat="37.5435870" lon="-4.3711450">
        <ele>606.6</ele>
        <time>2021-12-28T15:13:14Z</time>
      </trkpt>
      <trkpt lat="37.5435840" lon="-4.3711940">
        <ele>606.6</ele>
        <time>2021-12-28T15:13:15Z</time>
      </trkpt>
      <trkpt lat="37.5435840" lon="-4.3712400">
        <ele>606.6</ele>
        <time>2021-12-28T15:13:16Z</time>
      </trkpt>
      <trkpt lat="37.5435780" lon="-4.3712870">
        <ele>606.6</ele>
        <time>2021-12-28T15:13:17Z</time>
      </trkpt>
      <trkpt lat="37.5435740" lon="-4.3713330">
        <ele>606.6</ele>
        <time>2021-12-28T15:13:18Z</time>
      </trkpt>
      <trkpt lat="37.5435710" lon="-4.3713800">
        <ele>606.6</ele>
        <time>2021-12-28T15:13:19Z</time>
      </trkpt>
      <trkpt lat="37.5435710" lon="-4.3714260">
        <ele>606.6</ele>
        <time>2021-12-28T15:13:20Z</time>
      </trkpt>
      <trkpt lat="37.5435680" lon="-4.3714730">
        <ele>606.6</ele>
        <time>2021-12-28T15:13:21Z</time>
      </trkpt>
      <trkpt lat="37.5435680" lon="-4.3715170">
        <ele>606.6</ele>
        <time>2021-12-28T15:13:22Z</time>
      </trkpt>
      <trkpt lat="37.5435680" lon="-4.3715620">
        <ele>606.6</ele>
        <time>2021-12-28T15:13:23Z</time>
      </trkpt>
      <trkpt lat="37.5435650" lon="-4.3716070">
        <ele>606.6</ele>
        <time>2021-12-28T15:13:24Z</time>
      </trkpt>
      <trkpt lat="37.5435620" lon="-4.3716540">
        <ele>606.8</ele>
        <time>2021-12-28T15:13:25Z</time>
      </trkpt>
      <trkpt lat="37.5435620" lon="-4.3717000">
        <ele>606.6</ele>
        <time>2021-12-28T15:13:26Z</time>
      </trkpt>
      <trkpt lat="37.5435550" lon="-4.3717450">
        <ele>606.6</ele>
        <time>2021-12-28T15:13:27Z</time>
      </trkpt>
      <trkpt lat="37.5435550" lon="-4.3717920">
        <ele>606.6</ele>
        <time>2021-12-28T15:13:28Z</time>
      </trkpt>
      <trkpt lat="37.5435550" lon="-4.3718380">
        <ele>606.6</ele>
        <time>2021-12-28T15:13:29Z</time>
      </trkpt>
      <trkpt lat="37.5435550" lon="-4.3718850">
        <ele>606.8</ele>
        <time>2021-12-28T15:13:30Z</time>
      </trkpt>
      <trkpt lat="37.5435520" lon="-4.3719300">
        <ele>606.8</ele>
        <time>2021-12-28T15:13:31Z</time>
      </trkpt>
      <trkpt lat="37.5435520" lon="-4.3719750">
        <ele>606.8</ele>
        <time>2021-12-28T15:13:32Z</time>
      </trkpt>
      <trkpt lat="37.5435490" lon="-4.3720200">
        <ele>606.8</ele>
        <time>2021-12-28T15:13:33Z</time>
      </trkpt>
      <trkpt lat="37.5435490" lon="-4.3720660">
        <ele>606.8</ele>
        <time>2021-12-28T15:13:34Z</time>
      </trkpt>
      <trkpt lat="37.5435460" lon="-4.3721120">
        <ele>607.0</ele>
        <time>2021-12-28T15:13:35Z</time>
      </trkpt>
      <trkpt lat="37.5435460" lon="-4.3721550">
        <ele>607.0</ele>
        <time>2021-12-28T15:13:36Z</time>
      </trkpt>
      <trkpt lat="37.5435420" lon="-4.3722000">
        <ele>607.0</ele>
        <time>2021-12-28T15:13:37Z</time>
      </trkpt>
      <trkpt lat="37.5435330" lon="-4.3722420">
        <ele>607.0</ele>
        <time>2021-12-28T15:13:38Z</time>
      </trkpt>
      <trkpt lat="37.5435300" lon="-4.3722820">
        <ele>607.0</ele>
        <time>2021-12-28T15:13:39Z</time>
      </trkpt>
      <trkpt lat="37.5435260" lon="-4.3723200">
        <ele>607.0</ele>
        <time>2021-12-28T15:13:40Z</time>
      </trkpt>
      <trkpt lat="37.5435230" lon="-4.3723580">
        <ele>606.8</ele>
        <time>2021-12-28T15:13:41Z</time>
      </trkpt>
      <trkpt lat="37.5435230" lon="-4.3723980">
        <ele>606.8</ele>
        <time>2021-12-28T15:13:42Z</time>
      </trkpt>
      <trkpt lat="37.5435230" lon="-4.3724400">
        <ele>606.8</ele>
        <time>2021-12-28T15:13:43Z</time>
      </trkpt>
      <trkpt lat="37.5435170" lon="-4.3724850">
        <ele>606.8</ele>
        <time>2021-12-28T15:13:44Z</time>
      </trkpt>
      <trkpt lat="37.5435170" lon="-4.3725270">
        <ele>606.8</ele>
        <time>2021-12-28T15:13:45Z</time>
      </trkpt>
      <trkpt lat="37.5435170" lon="-4.3725700">
        <ele>606.8</ele>
        <time>2021-12-28T15:13:46Z</time>
      </trkpt>
      <trkpt lat="37.5435140" lon="-4.3726100">
        <ele>606.8</ele>
        <time>2021-12-28T15:13:47Z</time>
      </trkpt>
      <trkpt lat="37.5435100" lon="-4.3726420">
        <ele>606.8</ele>
        <time>2021-12-28T15:13:48Z</time>
      </trkpt>
      <trkpt lat="37.5435040" lon="-4.3726680">
        <ele>606.8</ele>
        <time>2021-12-28T15:13:49Z</time>
      </trkpt>
      <trkpt lat="37.5434940" lon="-4.3726940">
        <ele>606.8</ele>
        <time>2021-12-28T15:13:50Z</time>
      </trkpt>
      <trkpt lat="37.5434940" lon="-4.3727200">
        <ele>606.8</ele>
        <time>2021-12-28T15:13:51Z</time>
      </trkpt>
      <trkpt lat="37.5434910" lon="-4.3727530">
        <ele>606.8</ele>
        <time>2021-12-28T15:13:52Z</time>
      </trkpt>
      <trkpt lat="37.5434910" lon="-4.3727860">
        <ele>606.8</ele>
        <time>2021-12-28T15:13:53Z</time>
      </trkpt>
      <trkpt lat="37.5434850" lon="-4.3728250">
        <ele>606.8</ele>
        <time>2021-12-28T15:13:54Z</time>
      </trkpt>
      <trkpt lat="37.5434850" lon="-4.3728670">
        <ele>606.6</ele>
        <time>2021-12-28T15:13:55Z</time>
      </trkpt>
      <trkpt lat="37.5434780" lon="-4.3729120">
        <ele>606.6</ele>
        <time>2021-12-28T15:13:56Z</time>
      </trkpt>
      <trkpt lat="37.5434720" lon="-4.3729550">
        <ele>606.6</ele>
        <time>2021-12-28T15:13:57Z</time>
      </trkpt>
      <trkpt lat="37.5434690" lon="-4.3730000">
        <ele>606.6</ele>
        <time>2021-12-28T15:13:58Z</time>
      </trkpt>
      <trkpt lat="37.5434660" lon="-4.3730470">
        <ele>606.4</ele>
        <time>2021-12-28T15:13:59Z</time>
      </trkpt>
      <trkpt lat="37.5434560" lon="-4.3730980">
        <ele>606.4</ele>
        <time>2021-12-28T15:14:00Z</time>
      </trkpt>
      <trkpt lat="37.5434500" lon="-4.3731450">
        <ele>606.4</ele>
        <time>2021-12-28T15:14:01Z</time>
      </trkpt>
      <trkpt lat="37.5434430" lon="-4.3731920">
        <ele>606.4</ele>
        <time>2021-12-28T15:14:02Z</time>
      </trkpt>
      <trkpt lat="37.5434370" lon="-4.3732380">
        <ele>606.4</ele>
        <time>2021-12-28T15:14:03Z</time>
      </trkpt>
      <trkpt lat="37.5434300" lon="-4.3732870">
        <ele>606.4</ele>
        <time>2021-12-28T15:14:04Z</time>
      </trkpt>
      <trkpt lat="37.5434270" lon="-4.3733340">
        <ele>606.4</ele>
        <time>2021-12-28T15:14:05Z</time>
      </trkpt>
      <trkpt lat="37.5434180" lon="-4.3733780">
        <ele>606.4</ele>
        <time>2021-12-28T15:14:06Z</time>
      </trkpt>
      <trkpt lat="37.5434140" lon="-4.3734240">
        <ele>606.4</ele>
        <time>2021-12-28T15:14:07Z</time>
      </trkpt>
      <trkpt lat="37.5434080" lon="-4.3734700">
        <ele>606.4</ele>
        <time>2021-12-28T15:14:08Z</time>
      </trkpt>
      <trkpt lat="37.5433950" lon="-4.3735180">
        <ele>606.4</ele>
        <time>2021-12-28T15:14:09Z</time>
      </trkpt>
      <trkpt lat="37.5433860" lon="-4.3735630">
        <ele>606.4</ele>
        <time>2021-12-28T15:14:10Z</time>
      </trkpt>
      <trkpt lat="37.5433700" lon="-4.3736080">
        <ele>606.4</ele>
        <time>2021-12-28T15:14:11Z</time>
      </trkpt>
      <trkpt lat="37.5433570" lon="-4.3736480">
        <ele>606.4</ele>
        <time>2021-12-28T15:14:12Z</time>
      </trkpt>
      <trkpt lat="37.5433470" lon="-4.3736900">
        <ele>606.4</ele>
        <time>2021-12-28T15:14:13Z</time>
      </trkpt>
      <trkpt lat="37.5433340" lon="-4.3737300">
        <ele>606.4</ele>
        <time>2021-12-28T15:14:14Z</time>
      </trkpt>
      <trkpt lat="37.5433250" lon="-4.3737720">
        <ele>606.4</ele>
        <time>2021-12-28T15:14:15Z</time>
      </trkpt>
      <trkpt lat="37.5433120" lon="-4.3738120">
        <ele>606.4</ele>
        <time>2021-12-28T15:14:16Z</time>
      </trkpt>
      <trkpt lat="37.5432990" lon="-4.3738530">
        <ele>606.6</ele>
        <time>2021-12-28T15:14:17Z</time>
      </trkpt>
      <trkpt lat="37.5432860" lon="-4.3738950">
        <ele>606.6</ele>
        <time>2021-12-28T15:14:18Z</time>
      </trkpt>
      <trkpt lat="37.5432700" lon="-4.3739350">
        <ele>606.6</ele>
        <time>2021-12-28T15:14:19Z</time>
      </trkpt>
      <trkpt lat="37.5432580" lon="-4.3739750">
        <ele>606.6</ele>
        <time>2021-12-28T15:14:20Z</time>
      </trkpt>
      <trkpt lat="37.5432450" lon="-4.3740140">
        <ele>606.4</ele>
        <time>2021-12-28T15:14:21Z</time>
      </trkpt>
      <trkpt lat="37.5432290" lon="-4.3740550">
        <ele>606.4</ele>
        <time>2021-12-28T15:14:22Z</time>
      </trkpt>
      <trkpt lat="37.5432130" lon="-4.3740950">
        <ele>606.4</ele>
        <time>2021-12-28T15:14:23Z</time>
      </trkpt>
      <trkpt lat="37.5431940" lon="-4.3741360">
        <ele>606.4</ele>
        <time>2021-12-28T15:14:24Z</time>
      </trkpt>
      <trkpt lat="37.5431780" lon="-4.3741780">
        <ele>606.4</ele>
        <time>2021-12-28T15:14:25Z</time>
      </trkpt>
      <trkpt lat="37.5431650" lon="-4.3742200">
        <ele>606.4</ele>
        <time>2021-12-28T15:14:26Z</time>
      </trkpt>
      <trkpt lat="37.5431460" lon="-4.3742620">
        <ele>606.6</ele>
        <time>2021-12-28T15:14:27Z</time>
      </trkpt>
      <trkpt lat="37.5431260" lon="-4.3743020">
        <ele>606.6</ele>
        <time>2021-12-28T15:14:28Z</time>
      </trkpt>
      <trkpt lat="37.5431010" lon="-4.3743420">
        <ele>606.6</ele>
        <time>2021-12-28T15:14:29Z</time>
      </trkpt>
      <trkpt lat="37.5430820" lon="-4.3743840">
        <ele>606.6</ele>
        <time>2021-12-28T15:14:30Z</time>
      </trkpt>
      <trkpt lat="37.5430660" lon="-4.3744270">
        <ele>606.6</ele>
        <time>2021-12-28T15:14:31Z</time>
      </trkpt>
      <trkpt lat="37.5430460" lon="-4.3744700">
        <ele>606.6</ele>
        <time>2021-12-28T15:14:32Z</time>
      </trkpt>
      <trkpt lat="37.5430270" lon="-4.3745120">
        <ele>606.6</ele>
        <time>2021-12-28T15:14:33Z</time>
      </trkpt>
      <trkpt lat="37.5430080" lon="-4.3745500">
        <ele>606.6</ele>
        <time>2021-12-28T15:14:34Z</time>
      </trkpt>
      <trkpt lat="37.5429890" lon="-4.3745860">
        <ele>606.6</ele>
        <time>2021-12-28T15:14:35Z</time>
      </trkpt>
      <trkpt lat="37.5429700" lon="-4.3746270">
        <ele>606.6</ele>
        <time>2021-12-28T15:14:36Z</time>
      </trkpt>
      <trkpt lat="37.5429540" lon="-4.3746670">
        <ele>606.8</ele>
        <time>2021-12-28T15:14:37Z</time>
      </trkpt>
      <trkpt lat="37.5429340" lon="-4.3747070">
        <ele>606.8</ele>
        <time>2021-12-28T15:14:38Z</time>
      </trkpt>
      <trkpt lat="37.5429150" lon="-4.3747470">
        <ele>606.8</ele>
        <time>2021-12-28T15:14:39Z</time>
      </trkpt>
      <trkpt lat="37.5428960" lon="-4.3747870">
        <ele>606.8</ele>
        <time>2021-12-28T15:14:40Z</time>
      </trkpt>
      <trkpt lat="37.5428770" lon="-4.3748260">
        <ele>606.8</ele>
        <time>2021-12-28T15:14:41Z</time>
      </trkpt>
      <trkpt lat="37.5428580" lon="-4.3748660">
        <ele>606.6</ele>
        <time>2021-12-28T15:14:42Z</time>
      </trkpt>
      <trkpt lat="37.5428420" lon="-4.3749060">
        <ele>606.6</ele>
        <time>2021-12-28T15:14:43Z</time>
      </trkpt>
      <trkpt lat="37.5428290" lon="-4.3749460">
        <ele>606.6</ele>
        <time>2021-12-28T15:14:44Z</time>
      </trkpt>
      <trkpt lat="37.5428100" lon="-4.3749830">
        <ele>606.6</ele>
        <time>2021-12-28T15:14:45Z</time>
      </trkpt>
      <trkpt lat="37.5427940" lon="-4.3750220">
        <ele>606.6</ele>
        <time>2021-12-28T15:14:46Z</time>
      </trkpt>
      <trkpt lat="37.5427780" lon="-4.3750620">
        <ele>606.6</ele>
        <time>2021-12-28T15:14:47Z</time>
      </trkpt>
      <trkpt lat="37.5427620" lon="-4.3751050">
        <ele>606.6</ele>
        <time>2021-12-28T15:14:48Z</time>
      </trkpt>
      <trkpt lat="37.5427420" lon="-4.3751470">
        <ele>606.6</ele>
        <time>2021-12-28T15:14:49Z</time>
      </trkpt>
      <trkpt lat="37.5427300" lon="-4.3751860">
        <ele>606.6</ele>
        <time>2021-12-28T15:14:50Z</time>
      </trkpt>
      <trkpt lat="37.5427140" lon="-4.3752250">
        <ele>606.6</ele>
        <time>2021-12-28T15:14:51Z</time>
      </trkpt>
      <trkpt lat="37.5426940" lon="-4.3752660">
        <ele>606.6</ele>
        <time>2021-12-28T15:14:52Z</time>
      </trkpt>
      <trkpt lat="37.5426780" lon="-4.3753070">
        <ele>606.6</ele>
        <time>2021-12-28T15:14:53Z</time>
      </trkpt>
      <trkpt lat="37.5426620" lon="-4.3753450">
        <ele>606.6</ele>
        <time>2021-12-28T15:14:54Z</time>
      </trkpt>
      <trkpt lat="37.5426500" lon="-4.3753830">
        <ele>606.6</ele>
        <time>2021-12-28T15:14:55Z</time>
      </trkpt>
      <trkpt lat="37.5426340" lon="-4.3754150">
        <ele>606.8</ele>
        <time>2021-12-28T15:14:56Z</time>
      </trkpt>
      <trkpt lat="37.5426210" lon="-4.3754470">
        <ele>606.8</ele>
        <time>2021-12-28T15:14:57Z</time>
      </trkpt>
      <trkpt lat="37.5426050" lon="-4.3754800">
        <ele>606.8</ele>
        <time>2021-12-28T15:14:58Z</time>
      </trkpt>
      <trkpt lat="37.5425920" lon="-4.3755170">
        <ele>606.8</ele>
        <time>2021-12-28T15:14:59Z</time>
      </trkpt>
      <trkpt lat="37.5425790" lon="-4.3755560">
        <ele>606.6</ele>
        <time>2021-12-28T15:15:00Z</time>
      </trkpt>
      <trkpt lat="37.5425700" lon="-4.3756020">
        <ele>606.6</ele>
        <time>2021-12-28T15:15:01Z</time>
      </trkpt>
      <trkpt lat="37.5425570" lon="-4.3756450">
        <ele>606.6</ele>
        <time>2021-12-28T15:15:02Z</time>
      </trkpt>
      <trkpt lat="37.5425440" lon="-4.3756880">
        <ele>606.6</ele>
        <time>2021-12-28T15:15:03Z</time>
      </trkpt>
      <trkpt lat="37.5425340" lon="-4.3757300">
        <ele>606.8</ele>
        <time>2021-12-28T15:15:04Z</time>
      </trkpt>
      <trkpt lat="37.5425220" lon="-4.3757650">
        <ele>606.8</ele>
        <time>2021-12-28T15:15:05Z</time>
      </trkpt>
      <trkpt lat="37.5425120" lon="-4.3758040">
        <ele>607.0</ele>
        <time>2021-12-28T15:15:06Z</time>
      </trkpt>
      <trkpt lat="37.5424990" lon="-4.3758400">
        <ele>607.0</ele>
        <time>2021-12-28T15:15:07Z</time>
      </trkpt>
      <trkpt lat="37.5424900" lon="-4.3758760">
        <ele>607.0</ele>
        <time>2021-12-28T15:15:08Z</time>
      </trkpt>
      <trkpt lat="37.5424770" lon="-4.3759130">
        <ele>607.2</ele>
        <time>2021-12-28T15:15:09Z</time>
      </trkpt>
      <trkpt lat="37.5424610" lon="-4.3759500">
        <ele>607.2</ele>
        <time>2021-12-28T15:15:10Z</time>
      </trkpt>
      <trkpt lat="37.5424510" lon="-4.3759860">
        <ele>607.2</ele>
        <time>2021-12-28T15:15:11Z</time>
      </trkpt>
      <trkpt lat="37.5424380" lon="-4.3760250">
        <ele>607.2</ele>
        <time>2021-12-28T15:15:12Z</time>
      </trkpt>
      <trkpt lat="37.5424260" lon="-4.3760630">
        <ele>607.2</ele>
        <time>2021-12-28T15:15:13Z</time>
      </trkpt>
      <trkpt lat="37.5424160" lon="-4.3761020">
        <ele>607.2</ele>
        <time>2021-12-28T15:15:14Z</time>
      </trkpt>
      <trkpt lat="37.5424060" lon="-4.3761380">
        <ele>607.2</ele>
        <time>2021-12-28T15:15:15Z</time>
      </trkpt>
      <trkpt lat="37.5424000" lon="-4.3761750">
        <ele>607.2</ele>
        <time>2021-12-28T15:15:16Z</time>
      </trkpt>
      <trkpt lat="37.5423940" lon="-4.3762140">
        <ele>607.2</ele>
        <time>2021-12-28T15:15:17Z</time>
      </trkpt>
      <trkpt lat="37.5423840" lon="-4.3762530">
        <ele>607.2</ele>
        <time>2021-12-28T15:15:18Z</time>
      </trkpt>
      <trkpt lat="37.5423780" lon="-4.3762930">
        <ele>607.2</ele>
        <time>2021-12-28T15:15:19Z</time>
      </trkpt>
      <trkpt lat="37.5423710" lon="-4.3763320">
        <ele>607.2</ele>
        <time>2021-12-28T15:15:20Z</time>
      </trkpt>
      <trkpt lat="37.5423580" lon="-4.3763720">
        <ele>607.2</ele>
        <time>2021-12-28T15:15:21Z</time>
      </trkpt>
      <trkpt lat="37.5423550" lon="-4.3764120">
        <ele>607.2</ele>
        <time>2021-12-28T15:15:22Z</time>
      </trkpt>
      <trkpt lat="37.5423420" lon="-4.3764500">
        <ele>607.0</ele>
        <time>2021-12-28T15:15:23Z</time>
      </trkpt>
      <trkpt lat="37.5423360" lon="-4.3764900">
        <ele>607.0</ele>
        <time>2021-12-28T15:15:24Z</time>
      </trkpt>
      <trkpt lat="37.5423260" lon="-4.3765320">
        <ele>607.0</ele>
        <time>2021-12-28T15:15:25Z</time>
      </trkpt>
      <trkpt lat="37.5423200" lon="-4.3765720">
        <ele>606.8</ele>
        <time>2021-12-28T15:15:26Z</time>
      </trkpt>
      <trkpt lat="37.5423170" lon="-4.3766120">
        <ele>606.8</ele>
        <time>2021-12-28T15:15:27Z</time>
      </trkpt>
      <trkpt lat="37.5423140" lon="-4.3766530">
        <ele>606.8</ele>
        <time>2021-12-28T15:15:28Z</time>
      </trkpt>
      <trkpt lat="37.5423040" lon="-4.3766950">
        <ele>606.8</ele>
        <time>2021-12-28T15:15:29Z</time>
      </trkpt>
      <trkpt lat="37.5423010" lon="-4.3767330">
        <ele>606.8</ele>
        <time>2021-12-28T15:15:30Z</time>
      </trkpt>
      <trkpt lat="37.5422980" lon="-4.3767730">
        <ele>606.8</ele>
        <time>2021-12-28T15:15:31Z</time>
      </trkpt>
      <trkpt lat="37.5422910" lon="-4.3768140">
        <ele>606.8</ele>
        <time>2021-12-28T15:15:32Z</time>
      </trkpt>
      <trkpt lat="37.5422910" lon="-4.3768520">
        <ele>606.6</ele>
        <time>2021-12-28T15:15:33Z</time>
      </trkpt>
      <trkpt lat="37.5422850" lon="-4.3768880">
        <ele>606.6</ele>
        <time>2021-12-28T15:15:34Z</time>
      </trkpt>
      <trkpt lat="37.5422820" lon="-4.3769260">
        <ele>606.6</ele>
        <time>2021-12-28T15:15:35Z</time>
      </trkpt>
      <trkpt lat="37.5422780" lon="-4.3769660">
        <ele>606.4</ele>
        <time>2021-12-28T15:15:36Z</time>
      </trkpt>
      <trkpt lat="37.5422750" lon="-4.3770080">
        <ele>606.4</ele>
        <time>2021-12-28T15:15:37Z</time>
      </trkpt>
      <trkpt lat="37.5422720" lon="-4.3770480">
        <ele>606.2</ele>
        <time>2021-12-28T15:15:38Z</time>
      </trkpt>
      <trkpt lat="37.5422660" lon="-4.3770880">
        <ele>606.2</ele>
        <time>2021-12-28T15:15:39Z</time>
      </trkpt>
      <trkpt lat="37.5422660" lon="-4.3771270">
        <ele>606.2</ele>
        <time>2021-12-28T15:15:40Z</time>
      </trkpt>
      <trkpt lat="37.5422620" lon="-4.3771640">
        <ele>606.2</ele>
        <time>2021-12-28T15:15:41Z</time>
      </trkpt>
      <trkpt lat="37.5422590" lon="-4.3772020">
        <ele>606.2</ele>
        <time>2021-12-28T15:15:42Z</time>
      </trkpt>
      <trkpt lat="37.5422560" lon="-4.3772420">
        <ele>606.2</ele>
        <time>2021-12-28T15:15:43Z</time>
      </trkpt>
      <trkpt lat="37.5422530" lon="-4.3772820">
        <ele>606.4</ele>
        <time>2021-12-28T15:15:44Z</time>
      </trkpt>
      <trkpt lat="37.5422530" lon="-4.3773230">
        <ele>606.4</ele>
        <time>2021-12-28T15:15:45Z</time>
      </trkpt>
      <trkpt lat="37.5422460" lon="-4.3773650">
        <ele>606.6</ele>
        <time>2021-12-28T15:15:46Z</time>
      </trkpt>
      <trkpt lat="37.5422460" lon="-4.3774050">
        <ele>606.6</ele>
        <time>2021-12-28T15:15:47Z</time>
      </trkpt>
      <trkpt lat="37.5422430" lon="-4.3774420">
        <ele>606.8</ele>
        <time>2021-12-28T15:15:48Z</time>
      </trkpt>
      <trkpt lat="37.5422400" lon="-4.3774800">
        <ele>606.8</ele>
        <time>2021-12-28T15:15:49Z</time>
      </trkpt>
      <trkpt lat="37.5422370" lon="-4.3775200">
        <ele>606.8</ele>
        <time>2021-12-28T15:15:50Z</time>
      </trkpt>
      <trkpt lat="37.5422340" lon="-4.3775620">
        <ele>606.8</ele>
        <time>2021-12-28T15:15:51Z</time>
      </trkpt>
      <trkpt lat="37.5422270" lon="-4.3776040">
        <ele>606.8</ele>
        <time>2021-12-28T15:15:52Z</time>
      </trkpt>
      <trkpt lat="37.5422240" lon="-4.3776450">
        <ele>606.8</ele>
        <time>2021-12-28T15:15:53Z</time>
      </trkpt>
      <trkpt lat="37.5422240" lon="-4.3776850">
        <ele>606.8</ele>
        <time>2021-12-28T15:15:54Z</time>
      </trkpt>
      <trkpt lat="37.5422240" lon="-4.3777250">
        <ele>606.8</ele>
        <time>2021-12-28T15:15:55Z</time>
      </trkpt>
      <trkpt lat="37.5422240" lon="-4.3777630">
        <ele>606.8</ele>
        <time>2021-12-28T15:15:56Z</time>
      </trkpt>
      <trkpt lat="37.5422210" lon="-4.3778000">
        <ele>606.8</ele>
        <time>2021-12-28T15:15:57Z</time>
      </trkpt>
      <trkpt lat="37.5422140" lon="-4.3778350">
        <ele>606.8</ele>
        <time>2021-12-28T15:15:58Z</time>
      </trkpt>
      <trkpt lat="37.5422140" lon="-4.3778720">
        <ele>606.8</ele>
        <time>2021-12-28T15:15:59Z</time>
      </trkpt>
      <trkpt lat="37.5422140" lon="-4.3779100">
        <ele>606.8</ele>
        <time>2021-12-28T15:16:00Z</time>
      </trkpt>
      <trkpt lat="37.5422110" lon="-4.3779420">
        <ele>606.8</ele>
        <time>2021-12-28T15:16:01Z</time>
      </trkpt>
      <trkpt lat="37.5422050" lon="-4.3779750">
        <ele>606.8</ele>
        <time>2021-12-28T15:16:02Z</time>
      </trkpt>
      <trkpt lat="37.5421980" lon="-4.3780100">
        <ele>606.8</ele>
        <time>2021-12-28T15:16:03Z</time>
      </trkpt>
      <trkpt lat="37.5421980" lon="-4.3780460">
        <ele>606.8</ele>
        <time>2021-12-28T15:16:04Z</time>
      </trkpt>
      <trkpt lat="37.5421980" lon="-4.3780860">
        <ele>606.8</ele>
        <time>2021-12-28T15:16:05Z</time>
      </trkpt>
      <trkpt lat="37.5421980" lon="-4.3781270">
        <ele>606.8</ele>
        <time>2021-12-28T15:16:06Z</time>
      </trkpt>
      <trkpt lat="37.5421980" lon="-4.3781680">
        <ele>606.8</ele>
        <time>2021-12-28T15:16:07Z</time>
      </trkpt>
      <trkpt lat="37.5421950" lon="-4.3782100">
        <ele>606.8</ele>
        <time>2021-12-28T15:16:08Z</time>
      </trkpt>
      <trkpt lat="37.5421920" lon="-4.3782470">
        <ele>606.8</ele>
        <time>2021-12-28T15:16:09Z</time>
      </trkpt>
      <trkpt lat="37.5421920" lon="-4.3782820">
        <ele>606.8</ele>
        <time>2021-12-28T15:16:10Z</time>
      </trkpt>
      <trkpt lat="37.5421860" lon="-4.3783200">
        <ele>606.8</ele>
        <time>2021-12-28T15:16:11Z</time>
      </trkpt>
      <trkpt lat="37.5421860" lon="-4.3783580">
        <ele>606.6</ele>
        <time>2021-12-28T15:16:12Z</time>
      </trkpt>
      <trkpt lat="37.5421820" lon="-4.3783980">
        <ele>606.4</ele>
        <time>2021-12-28T15:16:13Z</time>
      </trkpt>
      <trkpt lat="37.5421820" lon="-4.3784380">
        <ele>606.4</ele>
        <time>2021-12-28T15:16:14Z</time>
      </trkpt>
      <trkpt lat="37.5421820" lon="-4.3784820">
        <ele>606.4</ele>
        <time>2021-12-28T15:16:15Z</time>
      </trkpt>
      <trkpt lat="37.5421820" lon="-4.3785250">
        <ele>606.4</ele>
        <time>2021-12-28T15:16:16Z</time>
      </trkpt>
      <trkpt lat="37.5421790" lon="-4.3785670">
        <ele>606.2</ele>
        <time>2021-12-28T15:16:17Z</time>
      </trkpt>
      <trkpt lat="37.5421790" lon="-4.3786050">
        <ele>606.2</ele>
        <time>2021-12-28T15:16:18Z</time>
      </trkpt>
      <trkpt lat="37.5421790" lon="-4.3786420">
        <ele>606.4</ele>
        <time>2021-12-28T15:16:19Z</time>
      </trkpt>
      <trkpt lat="37.5421790" lon="-4.3786800">
        <ele>606.4</ele>
        <time>2021-12-28T15:16:20Z</time>
      </trkpt>
      <trkpt lat="37.5421760" lon="-4.3787200">
        <ele>606.4</ele>
        <time>2021-12-28T15:16:21Z</time>
      </trkpt>
      <trkpt lat="37.5421730" lon="-4.3787620">
        <ele>606.4</ele>
        <time>2021-12-28T15:16:22Z</time>
      </trkpt>
      <trkpt lat="37.5421730" lon="-4.3788030">
        <ele>606.4</ele>
        <time>2021-12-28T15:16:23Z</time>
      </trkpt>
      <trkpt lat="37.5421660" lon="-4.3788500">
        <ele>606.4</ele>
        <time>2021-12-28T15:16:24Z</time>
      </trkpt>
      <trkpt lat="37.5421630" lon="-4.3788920">
        <ele>606.4</ele>
        <time>2021-12-28T15:16:25Z</time>
      </trkpt>
      <trkpt lat="37.5421630" lon="-4.3789300">
        <ele>606.4</ele>
        <time>2021-12-28T15:16:26Z</time>
      </trkpt>
      <trkpt lat="37.5421600" lon="-4.3789680">
        <ele>606.4</ele>
        <time>2021-12-28T15:16:27Z</time>
      </trkpt>
      <trkpt lat="37.5421600" lon="-4.3790070">
        <ele>606.2</ele>
        <time>2021-12-28T15:16:28Z</time>
      </trkpt>
      <trkpt lat="37.5421570" lon="-4.3790450">
        <ele>606.2</ele>
        <time>2021-12-28T15:16:29Z</time>
      </trkpt>
      <trkpt lat="37.5421540" lon="-4.3790830">
        <ele>606.2</ele>
        <time>2021-12-28T15:16:30Z</time>
      </trkpt>
      <trkpt lat="37.5421540" lon="-4.3791230">
        <ele>606.4</ele>
        <time>2021-12-28T15:16:31Z</time>
      </trkpt>
      <trkpt lat="37.5421470" lon="-4.3791650">
        <ele>606.4</ele>
        <time>2021-12-28T15:16:32Z</time>
      </trkpt>
      <trkpt lat="37.5421440" lon="-4.3792030">
        <ele>606.4</ele>
        <time>2021-12-28T15:16:33Z</time>
      </trkpt>
      <trkpt lat="37.5421410" lon="-4.3792400">
        <ele>606.4</ele>
        <time>2021-12-28T15:16:34Z</time>
      </trkpt>
      <trkpt lat="37.5421380" lon="-4.3792750">
        <ele>606.4</ele>
        <time>2021-12-28T15:16:35Z</time>
      </trkpt>
      <trkpt lat="37.5421380" lon="-4.3793100">
        <ele>606.4</ele>
        <time>2021-12-28T15:16:36Z</time>
      </trkpt>
      <trkpt lat="37.5421340" lon="-4.3793440">
        <ele>606.4</ele>
        <time>2021-12-28T15:16:37Z</time>
      </trkpt>
      <trkpt lat="37.5421340" lon="-4.3793680">
        <ele>606.4</ele>
        <time>2021-12-28T15:16:38Z</time>
      </trkpt>
      <trkpt lat="37.5421340" lon="-4.3793680">
        <ele>606.4</ele>
        <time>2021-12-28T15:16:39Z</time>
      </trkpt>
      <trkpt lat="37.5421280" lon="-4.3793980">
        <ele>606.6</ele>
        <time>2021-12-28T15:16:40Z</time>
      </trkpt>
      <trkpt lat="37.5421280" lon="-4.3793980">
        <ele>606.6</ele>
        <time>2021-12-28T15:16:41Z</time>
      </trkpt>
      <trkpt lat="37.5421280" lon="-4.3793980">
        <ele>606.6</ele>
        <time>2021-12-28T15:16:42Z</time>
      </trkpt>
      <trkpt lat="37.5421280" lon="-4.3793980">
        <ele>606.6</ele>
        <time>2021-12-28T15:16:43Z</time>
      </trkpt>
      <trkpt lat="37.5421280" lon="-4.3793980">
        <ele>606.6</ele>
        <time>2021-12-28T15:16:44Z</time>
      </trkpt>
      <trkpt lat="37.5420960" lon="-4.3795830">
        <ele>606.4</ele>
        <time>2021-12-28T15:16:58Z</time>
      </trkpt>
      <trkpt lat="37.5420930" lon="-4.3796150">
        <ele>606.4</ele>
        <time>2021-12-28T15:16:59Z</time>
      </trkpt>
      <trkpt lat="37.5420830" lon="-4.3796500">
        <ele>606.6</ele>
        <time>2021-12-28T15:17:00Z</time>
      </trkpt>
      <trkpt lat="37.5420800" lon="-4.3796880">
        <ele>606.6</ele>
        <time>2021-12-28T15:17:01Z</time>
      </trkpt>
      <trkpt lat="37.5420740" lon="-4.3797280">
        <ele>606.6</ele>
        <time>2021-12-28T15:17:02Z</time>
      </trkpt>
      <trkpt lat="37.5420640" lon="-4.3797650">
        <ele>606.8</ele>
        <time>2021-12-28T15:17:03Z</time>
      </trkpt>
      <trkpt lat="37.5420540" lon="-4.3798030">
        <ele>606.8</ele>
        <time>2021-12-28T15:17:04Z</time>
      </trkpt>
      <trkpt lat="37.5420420" lon="-4.3798360">
        <ele>606.8</ele>
        <time>2021-12-28T15:17:05Z</time>
      </trkpt>
      <trkpt lat="37.5420290" lon="-4.3798700">
        <ele>606.8</ele>
        <time>2021-12-28T15:17:06Z</time>
      </trkpt>
      <trkpt lat="37.5420220" lon="-4.3799070">
        <ele>606.8</ele>
        <time>2021-12-28T15:17:07Z</time>
      </trkpt>
      <trkpt lat="37.5420160" lon="-4.3799450">
        <ele>606.6</ele>
        <time>2021-12-28T15:17:08Z</time>
      </trkpt>
      <trkpt lat="37.5420130" lon="-4.3799880">
        <ele>606.6</ele>
        <time>2021-12-28T15:17:09Z</time>
      </trkpt>
      <trkpt lat="37.5420000" lon="-4.3800340">
        <ele>606.6</ele>
        <time>2021-12-28T15:17:10Z</time>
      </trkpt>
      <trkpt lat="37.5419870" lon="-4.3800800">
        <ele>606.6</ele>
        <time>2021-12-28T15:17:11Z</time>
      </trkpt>
      <trkpt lat="37.5419740" lon="-4.3801300">
        <ele>606.6</ele>
        <time>2021-12-28T15:17:12Z</time>
      </trkpt>
      <trkpt lat="37.5419580" lon="-4.3801830">
        <ele>606.4</ele>
        <time>2021-12-28T15:17:13Z</time>
      </trkpt>
      <trkpt lat="37.5419460" lon="-4.3802350">
        <ele>606.4</ele>
        <time>2021-12-28T15:17:14Z</time>
      </trkpt>
      <trkpt lat="37.5419300" lon="-4.3802870">
        <ele>606.4</ele>
        <time>2021-12-28T15:17:15Z</time>
      </trkpt>
      <trkpt lat="37.5419170" lon="-4.3803340">
        <ele>606.4</ele>
        <time>2021-12-28T15:17:16Z</time>
      </trkpt>
      <trkpt lat="37.5419070" lon="-4.3803780">
        <ele>606.4</ele>
        <time>2021-12-28T15:17:17Z</time>
      </trkpt>
      <trkpt lat="37.5418980" lon="-4.3804200">
        <ele>606.2</ele>
        <time>2021-12-28T15:17:18Z</time>
      </trkpt>
      <trkpt lat="37.5418820" lon="-4.3804630">
        <ele>606.2</ele>
        <time>2021-12-28T15:17:19Z</time>
      </trkpt>
      <trkpt lat="37.5418660" lon="-4.3805080">
        <ele>606.2</ele>
        <time>2021-12-28T15:17:20Z</time>
      </trkpt>
      <trkpt lat="37.5418500" lon="-4.3805550">
        <ele>606.2</ele>
        <time>2021-12-28T15:17:21Z</time>
      </trkpt>
      <trkpt lat="37.5418370" lon="-4.3806020">
        <ele>606.2</ele>
        <time>2021-12-28T15:17:22Z</time>
      </trkpt>
      <trkpt lat="37.5418210" lon="-4.3806480">
        <ele>606.2</ele>
        <time>2021-12-28T15:17:23Z</time>
      </trkpt>
      <trkpt lat="37.5418020" lon="-4.3806950">
        <ele>606.2</ele>
        <time>2021-12-28T15:17:24Z</time>
      </trkpt>
      <trkpt lat="37.5417820" lon="-4.3807420">
        <ele>606.2</ele>
        <time>2021-12-28T15:17:25Z</time>
      </trkpt>
      <trkpt lat="37.5417630" lon="-4.3807900">
        <ele>606.0</ele>
        <time>2021-12-28T15:17:26Z</time>
      </trkpt>
      <trkpt lat="37.5417410" lon="-4.3808360">
        <ele>606.0</ele>
        <time>2021-12-28T15:17:27Z</time>
      </trkpt>
      <trkpt lat="37.5417220" lon="-4.3808830">
        <ele>605.8</ele>
        <time>2021-12-28T15:17:28Z</time>
      </trkpt>
      <trkpt lat="37.5416990" lon="-4.3809280">
        <ele>605.8</ele>
        <time>2021-12-28T15:17:29Z</time>
      </trkpt>
      <trkpt lat="37.5416770" lon="-4.3809750">
        <ele>605.8</ele>
        <time>2021-12-28T15:17:30Z</time>
      </trkpt>
      <trkpt lat="37.5416580" lon="-4.3810180">
        <ele>605.6</ele>
        <time>2021-12-28T15:17:31Z</time>
      </trkpt>
      <trkpt lat="37.5416380" lon="-4.3810650">
        <ele>605.6</ele>
        <time>2021-12-28T15:17:32Z</time>
      </trkpt>
      <trkpt lat="37.5416190" lon="-4.3811080">
        <ele>605.6</ele>
        <time>2021-12-28T15:17:33Z</time>
      </trkpt>
      <trkpt lat="37.5416000" lon="-4.3811520">
        <ele>605.6</ele>
        <time>2021-12-28T15:17:34Z</time>
      </trkpt>
      <trkpt lat="37.5415810" lon="-4.3811920">
        <ele>605.6</ele>
        <time>2021-12-28T15:17:35Z</time>
      </trkpt>
      <trkpt lat="37.5415580" lon="-4.3812330">
        <ele>605.6</ele>
        <time>2021-12-28T15:17:36Z</time>
      </trkpt>
      <trkpt lat="37.5415390" lon="-4.3812730">
        <ele>605.6</ele>
        <time>2021-12-28T15:17:37Z</time>
      </trkpt>
      <trkpt lat="37.5415170" lon="-4.3813180">
        <ele>605.6</ele>
        <time>2021-12-28T15:17:38Z</time>
      </trkpt>
      <trkpt lat="37.5414980" lon="-4.3813630">
        <ele>605.6</ele>
        <time>2021-12-28T15:17:39Z</time>
      </trkpt>
      <trkpt lat="37.5414690" lon="-4.3814120">
        <ele>605.6</ele>
        <time>2021-12-28T15:17:40Z</time>
      </trkpt>
      <trkpt lat="37.5414460" lon="-4.3814600">
        <ele>605.6</ele>
        <time>2021-12-28T15:17:41Z</time>
      </trkpt>
      <trkpt lat="37.5414210" lon="-4.3815070">
        <ele>605.6</ele>
        <time>2021-12-28T15:17:42Z</time>
      </trkpt>
      <trkpt lat="37.5413920" lon="-4.3815550">
        <ele>605.4</ele>
        <time>2021-12-28T15:17:43Z</time>
      </trkpt>
      <trkpt lat="37.5413730" lon="-4.3816030">
        <ele>605.4</ele>
        <time>2021-12-28T15:17:44Z</time>
      </trkpt>
      <trkpt lat="37.5413500" lon="-4.3816480">
        <ele>605.6</ele>
        <time>2021-12-28T15:17:45Z</time>
      </trkpt>
      <trkpt lat="37.5413280" lon="-4.3816900">
        <ele>605.6</ele>
        <time>2021-12-28T15:17:46Z</time>
      </trkpt>
      <trkpt lat="37.5413060" lon="-4.3817280">
        <ele>605.6</ele>
        <time>2021-12-28T15:17:47Z</time>
      </trkpt>
      <trkpt lat="37.5412830" lon="-4.3817700">
        <ele>605.6</ele>
        <time>2021-12-28T15:17:48Z</time>
      </trkpt>
      <trkpt lat="37.5412610" lon="-4.3818120">
        <ele>605.6</ele>
        <time>2021-12-28T15:17:49Z</time>
      </trkpt>
      <trkpt lat="37.5412420" lon="-4.3818550">
        <ele>605.6</ele>
        <time>2021-12-28T15:17:50Z</time>
      </trkpt>
      <trkpt lat="37.5412220" lon="-4.3818930">
        <ele>605.4</ele>
        <time>2021-12-28T15:17:51Z</time>
      </trkpt>
      <trkpt lat="37.5412000" lon="-4.3819330">
        <ele>605.4</ele>
        <time>2021-12-28T15:17:52Z</time>
      </trkpt>
      <trkpt lat="37.5411810" lon="-4.3819700">
        <ele>605.4</ele>
        <time>2021-12-28T15:17:53Z</time>
      </trkpt>
      <trkpt lat="37.5411620" lon="-4.3820100">
        <ele>605.4</ele>
        <time>2021-12-28T15:17:54Z</time>
      </trkpt>
      <trkpt lat="37.5411390" lon="-4.3820500">
        <ele>605.4</ele>
        <time>2021-12-28T15:17:55Z</time>
      </trkpt>
      <trkpt lat="37.5411140" lon="-4.3820900">
        <ele>605.2</ele>
        <time>2021-12-28T15:17:56Z</time>
      </trkpt>
      <trkpt lat="37.5410910" lon="-4.3821320">
        <ele>605.2</ele>
        <time>2021-12-28T15:17:57Z</time>
      </trkpt>
      <trkpt lat="37.5410720" lon="-4.3821720">
        <ele>605.4</ele>
        <time>2021-12-28T15:17:58Z</time>
      </trkpt>
      <trkpt lat="37.5410500" lon="-4.3822100">
        <ele>605.4</ele>
        <time>2021-12-28T15:17:59Z</time>
      </trkpt>
      <trkpt lat="37.5410270" lon="-4.3822480">
        <ele>605.4</ele>
        <time>2021-12-28T15:18:00Z</time>
      </trkpt>
      <trkpt lat="37.5410080" lon="-4.3822860">
        <ele>605.4</ele>
        <time>2021-12-28T15:18:01Z</time>
      </trkpt>
      <trkpt lat="37.5409860" lon="-4.3823270">
        <ele>605.6</ele>
        <time>2021-12-28T15:18:02Z</time>
      </trkpt>
      <trkpt lat="37.5409660" lon="-4.3823650">
        <ele>605.6</ele>
        <time>2021-12-28T15:18:03Z</time>
      </trkpt>
      <trkpt lat="37.5409470" lon="-4.3824070">
        <ele>605.6</ele>
        <time>2021-12-28T15:18:04Z</time>
      </trkpt>
      <trkpt lat="37.5409280" lon="-4.3824480">
        <ele>605.6</ele>
        <time>2021-12-28T15:18:05Z</time>
      </trkpt>
      <trkpt lat="37.5409090" lon="-4.3824870">
        <ele>605.6</ele>
        <time>2021-12-28T15:18:06Z</time>
      </trkpt>
      <trkpt lat="37.5408900" lon="-4.3825240">
        <ele>605.8</ele>
        <time>2021-12-28T15:18:07Z</time>
      </trkpt>
      <trkpt lat="37.5408700" lon="-4.3825630">
        <ele>605.8</ele>
        <time>2021-12-28T15:18:08Z</time>
      </trkpt>
      <trkpt lat="37.5408450" lon="-4.3826050">
        <ele>605.8</ele>
        <time>2021-12-28T15:18:09Z</time>
      </trkpt>
      <trkpt lat="37.5408260" lon="-4.3826450">
        <ele>605.6</ele>
        <time>2021-12-28T15:18:10Z</time>
      </trkpt>
      <trkpt lat="37.5408030" lon="-4.3826870">
        <ele>605.6</ele>
        <time>2021-12-28T15:18:11Z</time>
      </trkpt>
      <trkpt lat="37.5407870" lon="-4.3827270">
        <ele>605.8</ele>
        <time>2021-12-28T15:18:12Z</time>
      </trkpt>
      <trkpt lat="37.5407650" lon="-4.3827650">
        <ele>605.8</ele>
        <time>2021-12-28T15:18:13Z</time>
      </trkpt>
      <trkpt lat="37.5407460" lon="-4.3828040">
        <ele>605.8</ele>
        <time>2021-12-28T15:18:14Z</time>
      </trkpt>
      <trkpt lat="37.5407260" lon="-4.3828440">
        <ele>606.0</ele>
        <time>2021-12-28T15:18:15Z</time>
      </trkpt>
      <trkpt lat="37.5407040" lon="-4.3828820">
        <ele>606.0</ele>
        <time>2021-12-28T15:18:16Z</time>
      </trkpt>
      <trkpt lat="37.5406780" lon="-4.3829220">
        <ele>606.0</ele>
        <time>2021-12-28T15:18:17Z</time>
      </trkpt>
      <trkpt lat="37.5406620" lon="-4.3829620">
        <ele>606.0</ele>
        <time>2021-12-28T15:18:18Z</time>
      </trkpt>
      <trkpt lat="37.5406430" lon="-4.3829980">
        <ele>606.0</ele>
        <time>2021-12-28T15:18:19Z</time>
      </trkpt>
      <trkpt lat="37.5406180" lon="-4.3830370">
        <ele>606.0</ele>
        <time>2021-12-28T15:18:20Z</time>
      </trkpt>
      <trkpt lat="37.5405980" lon="-4.3830780">
        <ele>606.0</ele>
        <time>2021-12-28T15:18:21Z</time>
      </trkpt>
      <trkpt lat="37.5405860" lon="-4.3831180">
        <ele>606.0</ele>
        <time>2021-12-28T15:18:22Z</time>
      </trkpt>
      <trkpt lat="37.5405660" lon="-4.3831580">
        <ele>606.0</ele>
        <time>2021-12-28T15:18:23Z</time>
      </trkpt>
      <trkpt lat="37.5405440" lon="-4.3832020">
        <ele>606.0</ele>
        <time>2021-12-28T15:18:24Z</time>
      </trkpt>
      <trkpt lat="37.5405250" lon="-4.3832440">
        <ele>606.0</ele>
        <time>2021-12-28T15:18:25Z</time>
      </trkpt>
      <trkpt lat="37.5404990" lon="-4.3832830">
        <ele>606.0</ele>
        <time>2021-12-28T15:18:26Z</time>
      </trkpt>
      <trkpt lat="37.5404800" lon="-4.3833230">
        <ele>605.8</ele>
        <time>2021-12-28T15:18:27Z</time>
      </trkpt>
      <trkpt lat="37.5404580" lon="-4.3833650">
        <ele>605.8</ele>
        <time>2021-12-28T15:18:28Z</time>
      </trkpt>
      <trkpt lat="37.5404350" lon="-4.3834070">
        <ele>605.8</ele>
        <time>2021-12-28T15:18:29Z</time>
      </trkpt>
      <trkpt lat="37.5404130" lon="-4.3834480">
        <ele>606.0</ele>
        <time>2021-12-28T15:18:30Z</time>
      </trkpt>
      <trkpt lat="37.5403900" lon="-4.3834870">
        <ele>606.0</ele>
        <time>2021-12-28T15:18:31Z</time>
      </trkpt>
      <trkpt lat="37.5403710" lon="-4.3835270">
        <ele>606.2</ele>
        <time>2021-12-28T15:18:32Z</time>
      </trkpt>
      <trkpt lat="37.5403490" lon="-4.3835650">
        <ele>606.2</ele>
        <time>2021-12-28T15:18:33Z</time>
      </trkpt>
      <trkpt lat="37.5403300" lon="-4.3836030">
        <ele>606.4</ele>
        <time>2021-12-28T15:18:34Z</time>
      </trkpt>
      <trkpt lat="37.5403140" lon="-4.3836380">
        <ele>606.4</ele>
        <time>2021-12-28T15:18:35Z</time>
      </trkpt>
      <trkpt lat="37.5402980" lon="-4.3836730">
        <ele>606.4</ele>
        <time>2021-12-28T15:18:36Z</time>
      </trkpt>
      <trkpt lat="37.5402750" lon="-4.3837160">
        <ele>606.4</ele>
        <time>2021-12-28T15:18:37Z</time>
      </trkpt>
      <trkpt lat="37.5402590" lon="-4.3837530">
        <ele>606.4</ele>
        <time>2021-12-28T15:18:38Z</time>
      </trkpt>
      <trkpt lat="37.5402400" lon="-4.3837900">
        <ele>606.4</ele>
        <time>2021-12-28T15:18:39Z</time>
      </trkpt>
      <trkpt lat="37.5402080" lon="-4.3838440">
        <ele>606.4</ele>
        <time>2021-12-28T15:18:40Z</time>
      </trkpt>
      <trkpt lat="37.5401860" lon="-4.3838780">
        <ele>606.4</ele>
        <time>2021-12-28T15:18:41Z</time>
      </trkpt>
      <trkpt lat="37.5401700" lon="-4.3839120">
        <ele>606.4</ele>
        <time>2021-12-28T15:18:42Z</time>
      </trkpt>
      <trkpt lat="37.5401500" lon="-4.3839500">
        <ele>606.4</ele>
        <time>2021-12-28T15:18:43Z</time>
      </trkpt>
      <trkpt lat="37.5401280" lon="-4.3839850">
        <ele>606.4</ele>
        <time>2021-12-28T15:18:44Z</time>
      </trkpt>
      <trkpt lat="37.5401090" lon="-4.3840220">
        <ele>606.4</ele>
        <time>2021-12-28T15:18:45Z</time>
      </trkpt>
      <trkpt lat="37.5400860" lon="-4.3840620">
        <ele>606.4</ele>
        <time>2021-12-28T15:18:46Z</time>
      </trkpt>
      <trkpt lat="37.5400700" lon="-4.3840980">
        <ele>606.4</ele>
        <time>2021-12-28T15:18:47Z</time>
      </trkpt>
      <trkpt lat="37.5400480" lon="-4.3841330">
        <ele>606.6</ele>
        <time>2021-12-28T15:18:48Z</time>
      </trkpt>
      <trkpt lat="37.5400290" lon="-4.3841680">
        <ele>606.6</ele>
        <time>2021-12-28T15:18:49Z</time>
      </trkpt>
      <trkpt lat="37.5400030" lon="-4.3842050">
        <ele>606.6</ele>
        <time>2021-12-28T15:18:50Z</time>
      </trkpt>
      <trkpt lat="37.5399870" lon="-4.3842440">
        <ele>606.6</ele>
        <time>2021-12-28T15:18:51Z</time>
      </trkpt>
      <trkpt lat="37.5399620" lon="-4.3842820">
        <ele>606.6</ele>
        <time>2021-12-28T15:18:52Z</time>
      </trkpt>
      <trkpt lat="37.5399390" lon="-4.3843200">
        <ele>606.6</ele>
        <time>2021-12-28T15:18:53Z</time>
      </trkpt>
      <trkpt lat="37.5399170" lon="-4.3843560">
        <ele>606.6</ele>
        <time>2021-12-28T15:18:54Z</time>
      </trkpt>
      <trkpt lat="37.5398910" lon="-4.3843930">
        <ele>606.6</ele>
        <time>2021-12-28T15:18:55Z</time>
      </trkpt>
      <trkpt lat="37.5398690" lon="-4.3844300">
        <ele>606.6</ele>
        <time>2021-12-28T15:18:56Z</time>
      </trkpt>
      <trkpt lat="37.5398430" lon="-4.3844650">
        <ele>606.6</ele>
        <time>2021-12-28T15:18:57Z</time>
      </trkpt>
      <trkpt lat="37.5398210" lon="-4.3845030">
        <ele>606.8</ele>
        <time>2021-12-28T15:18:58Z</time>
      </trkpt>
      <trkpt lat="37.5397980" lon="-4.3845400">
        <ele>606.8</ele>
        <time>2021-12-28T15:18:59Z</time>
      </trkpt>
      <trkpt lat="37.5397790" lon="-4.3845750">
        <ele>606.8</ele>
        <time>2021-12-28T15:19:00Z</time>
      </trkpt>
      <trkpt lat="37.5397570" lon="-4.3846100">
        <ele>606.8</ele>
        <time>2021-12-28T15:19:01Z</time>
      </trkpt>
      <trkpt lat="37.5397340" lon="-4.3846460">
        <ele>606.8</ele>
        <time>2021-12-28T15:19:02Z</time>
      </trkpt>
      <trkpt lat="37.5397120" lon="-4.3846820">
        <ele>606.8</ele>
        <time>2021-12-28T15:19:03Z</time>
      </trkpt>
      <trkpt lat="37.5396900" lon="-4.3847160">
        <ele>606.8</ele>
        <time>2021-12-28T15:19:04Z</time>
      </trkpt>
      <trkpt lat="37.5396610" lon="-4.3847500">
        <ele>606.8</ele>
        <time>2021-12-28T15:19:05Z</time>
      </trkpt>
      <trkpt lat="37.5396380" lon="-4.3847850">
        <ele>606.8</ele>
        <time>2021-12-28T15:19:06Z</time>
      </trkpt>
      <trkpt lat="37.5396130" lon="-4.3848180">
        <ele>606.8</ele>
        <time>2021-12-28T15:19:07Z</time>
      </trkpt>
      <trkpt lat="37.5395840" lon="-4.3848530">
        <ele>606.8</ele>
        <time>2021-12-28T15:19:08Z</time>
      </trkpt>
      <trkpt lat="37.5395580" lon="-4.3848880">
        <ele>606.8</ele>
        <time>2021-12-28T15:19:09Z</time>
      </trkpt>
      <trkpt lat="37.5395360" lon="-4.3849220">
        <ele>606.8</ele>
        <time>2021-12-28T15:19:10Z</time>
      </trkpt>
      <trkpt lat="37.5395100" lon="-4.3849550">
        <ele>606.8</ele>
        <time>2021-12-28T15:19:11Z</time>
      </trkpt>
      <trkpt lat="37.5394820" lon="-4.3849880">
        <ele>606.8</ele>
        <time>2021-12-28T15:19:12Z</time>
      </trkpt>
      <trkpt lat="37.5394560" lon="-4.3850200">
        <ele>606.8</ele>
        <time>2021-12-28T15:19:13Z</time>
      </trkpt>
      <trkpt lat="37.5394240" lon="-4.3850550">
        <ele>606.8</ele>
        <time>2021-12-28T15:19:14Z</time>
      </trkpt>
      <trkpt lat="37.5393980" lon="-4.3850880">
        <ele>606.8</ele>
        <time>2021-12-28T15:19:15Z</time>
      </trkpt>
      <trkpt lat="37.5393730" lon="-4.3851180">
        <ele>606.6</ele>
        <time>2021-12-28T15:19:16Z</time>
      </trkpt>
      <trkpt lat="37.5393440" lon="-4.3851500">
        <ele>606.6</ele>
        <time>2021-12-28T15:19:17Z</time>
      </trkpt>
      <trkpt lat="37.5393180" lon="-4.3851830">
        <ele>606.6</ele>
        <time>2021-12-28T15:19:18Z</time>
      </trkpt>
      <trkpt lat="37.5392930" lon="-4.3852180">
        <ele>606.6</ele>
        <time>2021-12-28T15:19:19Z</time>
      </trkpt>
      <trkpt lat="37.5392640" lon="-4.3852500">
        <ele>606.6</ele>
        <time>2021-12-28T15:19:20Z</time>
      </trkpt>
      <trkpt lat="37.5392380" lon="-4.3852840">
        <ele>606.6</ele>
        <time>2021-12-28T15:19:21Z</time>
      </trkpt>
      <trkpt lat="37.5392130" lon="-4.3853180">
        <ele>606.6</ele>
        <time>2021-12-28T15:19:22Z</time>
      </trkpt>
      <trkpt lat="37.5391810" lon="-4.3853520">
        <ele>606.6</ele>
        <time>2021-12-28T15:19:23Z</time>
      </trkpt>
      <trkpt lat="37.5391550" lon="-4.3853830">
        <ele>606.4</ele>
        <time>2021-12-28T15:19:24Z</time>
      </trkpt>
      <trkpt lat="37.5391230" lon="-4.3854160">
        <ele>606.4</ele>
        <time>2021-12-28T15:19:25Z</time>
      </trkpt>
      <trkpt lat="37.5390980" lon="-4.3854500">
        <ele>606.2</ele>
        <time>2021-12-28T15:19:26Z</time>
      </trkpt>
      <trkpt lat="37.5390660" lon="-4.3854870">
        <ele>606.2</ele>
        <time>2021-12-28T15:19:27Z</time>
      </trkpt>
      <trkpt lat="37.5390370" lon="-4.3855200">
        <ele>606.2</ele>
        <time>2021-12-28T15:19:28Z</time>
      </trkpt>
      <trkpt lat="37.5390080" lon="-4.3855550">
        <ele>606.2</ele>
        <time>2021-12-28T15:19:29Z</time>
      </trkpt>
      <trkpt lat="37.5389820" lon="-4.3855870">
        <ele>606.2</ele>
        <time>2021-12-28T15:19:30Z</time>
      </trkpt>
      <trkpt lat="37.5389570" lon="-4.3856180">
        <ele>606.2</ele>
        <time>2021-12-28T15:19:31Z</time>
      </trkpt>
      <trkpt lat="37.5389250" lon="-4.3856500">
        <ele>606.2</ele>
        <time>2021-12-28T15:19:32Z</time>
      </trkpt>
      <trkpt lat="37.5388960" lon="-4.3856820">
        <ele>606.2</ele>
        <time>2021-12-28T15:19:33Z</time>
      </trkpt>
      <trkpt lat="37.5388640" lon="-4.3857140">
        <ele>606.2</ele>
        <time>2021-12-28T15:19:34Z</time>
      </trkpt>
      <trkpt lat="37.5388350" lon="-4.3857420">
        <ele>606.2</ele>
        <time>2021-12-28T15:19:35Z</time>
      </trkpt>
      <trkpt lat="37.5388030" lon="-4.3857720">
        <ele>606.2</ele>
        <time>2021-12-28T15:19:36Z</time>
      </trkpt>
      <trkpt lat="37.5387780" lon="-4.3857980">
        <ele>606.2</ele>
        <time>2021-12-28T15:19:37Z</time>
      </trkpt>
      <trkpt lat="37.5387460" lon="-4.3858280">
        <ele>606.2</ele>
        <time>2021-12-28T15:19:38Z</time>
      </trkpt>
      <trkpt lat="37.5387170" lon="-4.3858580">
        <ele>606.2</ele>
        <time>2021-12-28T15:19:39Z</time>
      </trkpt>
      <trkpt lat="37.5386850" lon="-4.3858850">
        <ele>606.0</ele>
        <time>2021-12-28T15:19:40Z</time>
      </trkpt>
      <trkpt lat="37.5386590" lon="-4.3859150">
        <ele>606.0</ele>
        <time>2021-12-28T15:19:41Z</time>
      </trkpt>
      <trkpt lat="37.5386270" lon="-4.3859450">
        <ele>606.0</ele>
        <time>2021-12-28T15:19:42Z</time>
      </trkpt>
      <trkpt lat="37.5386020" lon="-4.3859740">
        <ele>606.2</ele>
        <time>2021-12-28T15:19:43Z</time>
      </trkpt>
      <trkpt lat="37.5385700" lon="-4.3860020">
        <ele>606.2</ele>
        <time>2021-12-28T15:19:44Z</time>
      </trkpt>
      <trkpt lat="37.5385410" lon="-4.3860320">
        <ele>606.0</ele>
        <time>2021-12-28T15:19:45Z</time>
      </trkpt>
      <trkpt lat="37.5385090" lon="-4.3860600">
        <ele>606.0</ele>
        <time>2021-12-28T15:19:46Z</time>
      </trkpt>
      <trkpt lat="37.5384830" lon="-4.3860880">
        <ele>606.0</ele>
        <time>2021-12-28T15:19:47Z</time>
      </trkpt>
      <trkpt lat="37.5384540" lon="-4.3861160">
        <ele>606.0</ele>
        <time>2021-12-28T15:19:48Z</time>
      </trkpt>
      <trkpt lat="37.5384290" lon="-4.3861450">
        <ele>606.0</ele>
        <time>2021-12-28T15:19:49Z</time>
      </trkpt>
      <trkpt lat="37.5384000" lon="-4.3861750">
        <ele>606.0</ele>
        <time>2021-12-28T15:19:50Z</time>
      </trkpt>
      <trkpt lat="37.5383680" lon="-4.3862030">
        <ele>606.0</ele>
        <time>2021-12-28T15:19:51Z</time>
      </trkpt>
      <trkpt lat="37.5383420" lon="-4.3862300">
        <ele>606.0</ele>
        <time>2021-12-28T15:19:52Z</time>
      </trkpt>
      <trkpt lat="37.5383140" lon="-4.3862570">
        <ele>606.0</ele>
        <time>2021-12-28T15:19:53Z</time>
      </trkpt>
      <trkpt lat="37.5382880" lon="-4.3862820">
        <ele>606.0</ele>
        <time>2021-12-28T15:19:54Z</time>
      </trkpt>
      <trkpt lat="37.5382560" lon="-4.3863050">
        <ele>606.0</ele>
        <time>2021-12-28T15:19:55Z</time>
      </trkpt>
      <trkpt lat="37.5382300" lon="-4.3863320">
        <ele>606.0</ele>
        <time>2021-12-28T15:19:56Z</time>
      </trkpt>
      <trkpt lat="37.5382020" lon="-4.3863640">
        <ele>606.0</ele>
        <time>2021-12-28T15:19:57Z</time>
      </trkpt>
      <trkpt lat="37.5381730" lon="-4.3863980">
        <ele>606.0</ele>
        <time>2021-12-28T15:19:58Z</time>
      </trkpt>
      <trkpt lat="37.5381440" lon="-4.3864360">
        <ele>606.0</ele>
        <time>2021-12-28T15:19:59Z</time>
      </trkpt>
      <trkpt lat="37.5381010" lon="-4.3864920">
        <ele>606.0</ele>
        <time>2021-12-28T15:20:00Z</time>
      </trkpt>
      <trkpt lat="37.5380860" lon="-4.3865100">
        <ele>606.0</ele>
        <time>2021-12-28T15:20:01Z</time>
      </trkpt>
      <trkpt lat="37.5380510" lon="-4.3865470">
        <ele>606.0</ele>
        <time>2021-12-28T15:20:02Z</time>
      </trkpt>
      <trkpt lat="37.5380160" lon="-4.3865830">
        <ele>606.0</ele>
        <time>2021-12-28T15:20:03Z</time>
      </trkpt>
      <trkpt lat="37.5379840" lon="-4.3866230">
        <ele>606.0</ele>
        <time>2021-12-28T15:20:04Z</time>
      </trkpt>
      <trkpt lat="37.5379520" lon="-4.3866640">
        <ele>606.0</ele>
        <time>2021-12-28T15:20:05Z</time>
      </trkpt>
      <trkpt lat="37.5379170" lon="-4.3867050">
        <ele>606.0</ele>
        <time>2021-12-28T15:20:06Z</time>
      </trkpt>
      <trkpt lat="37.5378910" lon="-4.3867440">
        <ele>606.0</ele>
        <time>2021-12-28T15:20:07Z</time>
      </trkpt>
      <trkpt lat="37.5378620" lon="-4.3867800">
        <ele>606.2</ele>
        <time>2021-12-28T15:20:08Z</time>
      </trkpt>
      <trkpt lat="37.5378340" lon="-4.3868180">
        <ele>606.2</ele>
        <time>2021-12-28T15:20:09Z</time>
      </trkpt>
      <trkpt lat="37.5378080" lon="-4.3868530">
        <ele>606.2</ele>
        <time>2021-12-28T15:20:10Z</time>
      </trkpt>
      <trkpt lat="37.5377790" lon="-4.3868900">
        <ele>606.4</ele>
        <time>2021-12-28T15:20:11Z</time>
      </trkpt>
      <trkpt lat="37.5377570" lon="-4.3869280">
        <ele>606.4</ele>
        <time>2021-12-28T15:20:12Z</time>
      </trkpt>
      <trkpt lat="37.5377310" lon="-4.3869650">
        <ele>606.4</ele>
        <time>2021-12-28T15:20:13Z</time>
      </trkpt>
      <trkpt lat="37.5377060" lon="-4.3870020">
        <ele>606.4</ele>
        <time>2021-12-28T15:20:14Z</time>
      </trkpt>
      <trkpt lat="37.5376800" lon="-4.3870420">
        <ele>606.4</ele>
        <time>2021-12-28T15:20:15Z</time>
      </trkpt>
      <trkpt lat="37.5376540" lon="-4.3870820">
        <ele>606.4</ele>
        <time>2021-12-28T15:20:16Z</time>
      </trkpt>
      <trkpt lat="37.5376290" lon="-4.3871200">
        <ele>606.4</ele>
        <time>2021-12-28T15:20:17Z</time>
      </trkpt>
      <trkpt lat="37.5376000" lon="-4.3871600">
        <ele>606.4</ele>
        <time>2021-12-28T15:20:18Z</time>
      </trkpt>
      <trkpt lat="37.5375780" lon="-4.3872000">
        <ele>606.6</ele>
        <time>2021-12-28T15:20:19Z</time>
      </trkpt>
      <trkpt lat="37.5375580" lon="-4.3872360">
        <ele>606.6</ele>
        <time>2021-12-28T15:20:20Z</time>
      </trkpt>
      <trkpt lat="37.5375360" lon="-4.3872750">
        <ele>606.6</ele>
        <time>2021-12-28T15:20:21Z</time>
      </trkpt>
      <trkpt lat="37.5375140" lon="-4.3873150">
        <ele>606.4</ele>
        <time>2021-12-28T15:20:22Z</time>
      </trkpt>
      <trkpt lat="37.5374940" lon="-4.3873550">
        <ele>606.4</ele>
        <time>2021-12-28T15:20:23Z</time>
      </trkpt>
      <trkpt lat="37.5374720" lon="-4.3873970">
        <ele>606.4</ele>
        <time>2021-12-28T15:20:24Z</time>
      </trkpt>
      <trkpt lat="37.5374500" lon="-4.3874400">
        <ele>606.4</ele>
        <time>2021-12-28T15:20:25Z</time>
      </trkpt>
      <trkpt lat="37.5374300" lon="-4.3874830">
        <ele>606.4</ele>
        <time>2021-12-28T15:20:26Z</time>
      </trkpt>
      <trkpt lat="37.5374110" lon="-4.3875250">
        <ele>606.4</ele>
        <time>2021-12-28T15:20:27Z</time>
      </trkpt>
      <trkpt lat="37.5373920" lon="-4.3875660">
        <ele>606.4</ele>
        <time>2021-12-28T15:20:28Z</time>
      </trkpt>
      <trkpt lat="37.5373760" lon="-4.3876100">
        <ele>606.2</ele>
        <time>2021-12-28T15:20:29Z</time>
      </trkpt>
      <trkpt lat="37.5373600" lon="-4.3876530">
        <ele>606.2</ele>
        <time>2021-12-28T15:20:30Z</time>
      </trkpt>
      <trkpt lat="37.5373470" lon="-4.3876980">
        <ele>606.2</ele>
        <time>2021-12-28T15:20:31Z</time>
      </trkpt>
      <trkpt lat="37.5373280" lon="-4.3877450">
        <ele>606.2</ele>
        <time>2021-12-28T15:20:32Z</time>
      </trkpt>
      <trkpt lat="37.5373120" lon="-4.3877920">
        <ele>606.2</ele>
        <time>2021-12-28T15:20:33Z</time>
      </trkpt>
      <trkpt lat="37.5372960" lon="-4.3878400">
        <ele>606.2</ele>
        <time>2021-12-28T15:20:34Z</time>
      </trkpt>
      <trkpt lat="37.5372800" lon="-4.3878850">
        <ele>606.2</ele>
        <time>2021-12-28T15:20:35Z</time>
      </trkpt>
      <trkpt lat="37.5372700" lon="-4.3879320">
        <ele>606.2</ele>
        <time>2021-12-28T15:20:36Z</time>
      </trkpt>
      <trkpt lat="37.5372580" lon="-4.3879780">
        <ele>606.2</ele>
        <time>2021-12-28T15:20:37Z</time>
      </trkpt>
      <trkpt lat="37.5372480" lon="-4.3880250">
        <ele>606.2</ele>
        <time>2021-12-28T15:20:38Z</time>
      </trkpt>
      <trkpt lat="37.5372320" lon="-4.3880740">
        <ele>606.2</ele>
        <time>2021-12-28T15:20:39Z</time>
      </trkpt>
      <trkpt lat="37.5372190" lon="-4.3881220">
        <ele>606.2</ele>
        <time>2021-12-28T15:20:40Z</time>
      </trkpt>
      <trkpt lat="37.5372100" lon="-4.3881700">
        <ele>606.2</ele>
        <time>2021-12-28T15:20:41Z</time>
      </trkpt>
      <trkpt lat="37.5371970" lon="-4.3882200">
        <ele>606.2</ele>
        <time>2021-12-28T15:20:42Z</time>
      </trkpt>
      <trkpt lat="37.5371870" lon="-4.3882680">
        <ele>606.2</ele>
        <time>2021-12-28T15:20:43Z</time>
      </trkpt>
      <trkpt lat="37.5371780" lon="-4.3883170">
        <ele>606.4</ele>
        <time>2021-12-28T15:20:44Z</time>
      </trkpt>
      <trkpt lat="37.5371680" lon="-4.3883630">
        <ele>606.4</ele>
        <time>2021-12-28T15:20:45Z</time>
      </trkpt>
      <trkpt lat="37.5371550" lon="-4.3884100">
        <ele>606.4</ele>
        <time>2021-12-28T15:20:46Z</time>
      </trkpt>
      <trkpt lat="37.5371420" lon="-4.3884570">
        <ele>606.4</ele>
        <time>2021-12-28T15:20:47Z</time>
      </trkpt>
      <trkpt lat="37.5371330" lon="-4.3885040">
        <ele>606.4</ele>
        <time>2021-12-28T15:20:48Z</time>
      </trkpt>
      <trkpt lat="37.5371230" lon="-4.3885500">
        <ele>606.4</ele>
        <time>2021-12-28T15:20:49Z</time>
      </trkpt>
      <trkpt lat="37.5371140" lon="-4.3885980">
        <ele>606.4</ele>
        <time>2021-12-28T15:20:50Z</time>
      </trkpt>
      <trkpt lat="37.5371010" lon="-4.3886470">
        <ele>606.4</ele>
        <time>2021-12-28T15:20:51Z</time>
      </trkpt>
      <trkpt lat="37.5370910" lon="-4.3886950">
        <ele>606.4</ele>
        <time>2021-12-28T15:20:52Z</time>
      </trkpt>
      <trkpt lat="37.5370780" lon="-4.3887470">
        <ele>606.4</ele>
        <time>2021-12-28T15:20:53Z</time>
      </trkpt>
      <trkpt lat="37.5370690" lon="-4.3887940">
        <ele>606.4</ele>
        <time>2021-12-28T15:20:54Z</time>
      </trkpt>
      <trkpt lat="37.5370590" lon="-4.3888370">
        <ele>606.4</ele>
        <time>2021-12-28T15:20:55Z</time>
      </trkpt>
      <trkpt lat="37.5370500" lon="-4.3888800">
        <ele>606.4</ele>
        <time>2021-12-28T15:20:56Z</time>
      </trkpt>
      <trkpt lat="37.5370340" lon="-4.3889230">
        <ele>606.4</ele>
        <time>2021-12-28T15:20:57Z</time>
      </trkpt>
      <trkpt lat="37.5370210" lon="-4.3889680">
        <ele>606.4</ele>
        <time>2021-12-28T15:20:58Z</time>
      </trkpt>
      <trkpt lat="37.5370140" lon="-4.3890150">
        <ele>606.2</ele>
        <time>2021-12-28T15:20:59Z</time>
      </trkpt>
      <trkpt lat="37.5370050" lon="-4.3890620">
        <ele>606.2</ele>
        <time>2021-12-28T15:21:00Z</time>
      </trkpt>
      <trkpt lat="37.5369950" lon="-4.3891070">
        <ele>606.2</ele>
        <time>2021-12-28T15:21:01Z</time>
      </trkpt>
      <trkpt lat="37.5369890" lon="-4.3891540">
        <ele>606.2</ele>
        <time>2021-12-28T15:21:02Z</time>
      </trkpt>
      <trkpt lat="37.5369730" lon="-4.3891980">
        <ele>606.2</ele>
        <time>2021-12-28T15:21:03Z</time>
      </trkpt>
      <trkpt lat="37.5369600" lon="-4.3892430">
        <ele>606.2</ele>
        <time>2021-12-28T15:21:04Z</time>
      </trkpt>
      <trkpt lat="37.5369500" lon="-4.3892850">
        <ele>606.2</ele>
        <time>2021-12-28T15:21:05Z</time>
      </trkpt>
      <trkpt lat="37.5369380" lon="-4.3893250">
        <ele>606.4</ele>
        <time>2021-12-28T15:21:06Z</time>
      </trkpt>
      <trkpt lat="37.5369250" lon="-4.3893630">
        <ele>606.4</ele>
        <time>2021-12-28T15:21:07Z</time>
      </trkpt>
      <trkpt lat="37.5369150" lon="-4.3894000">
        <ele>606.6</ele>
        <time>2021-12-28T15:21:08Z</time>
      </trkpt>
      <trkpt lat="37.5369060" lon="-4.3894350">
        <ele>606.6</ele>
        <time>2021-12-28T15:21:09Z</time>
      </trkpt>
      <trkpt lat="37.5368960" lon="-4.3894680">
        <ele>606.6</ele>
        <time>2021-12-28T15:21:10Z</time>
      </trkpt>
      <trkpt lat="37.5368830" lon="-4.3895040">
        <ele>606.8</ele>
        <time>2021-12-28T15:21:11Z</time>
      </trkpt>
      <trkpt lat="37.5368770" lon="-4.3895400">
        <ele>606.8</ele>
        <time>2021-12-28T15:21:12Z</time>
      </trkpt>
      <trkpt lat="37.5368640" lon="-4.3895770">
        <ele>607.0</ele>
        <time>2021-12-28T15:21:13Z</time>
      </trkpt>
      <trkpt lat="37.5368540" lon="-4.3896130">
        <ele>607.0</ele>
        <time>2021-12-28T15:21:14Z</time>
      </trkpt>
      <trkpt lat="37.5368420" lon="-4.3896500">
        <ele>607.0</ele>
        <time>2021-12-28T15:21:15Z</time>
      </trkpt>
      <trkpt lat="37.5368320" lon="-4.3896850">
        <ele>607.2</ele>
        <time>2021-12-28T15:21:16Z</time>
      </trkpt>
      <trkpt lat="37.5368190" lon="-4.3897220">
        <ele>607.2</ele>
        <time>2021-12-28T15:21:17Z</time>
      </trkpt>
      <trkpt lat="37.5368100" lon="-4.3897600">
        <ele>607.2</ele>
        <time>2021-12-28T15:21:18Z</time>
      </trkpt>
      <trkpt lat="37.5367940" lon="-4.3897980">
        <ele>607.2</ele>
        <time>2021-12-28T15:21:19Z</time>
      </trkpt>
      <trkpt lat="37.5367780" lon="-4.3898370">
        <ele>607.2</ele>
        <time>2021-12-28T15:21:20Z</time>
      </trkpt>
      <trkpt lat="37.5367580" lon="-4.3898750">
        <ele>607.2</ele>
        <time>2021-12-28T15:21:21Z</time>
      </trkpt>
      <trkpt lat="37.5367420" lon="-4.3899140">
        <ele>607.0</ele>
        <time>2021-12-28T15:21:22Z</time>
      </trkpt>
      <trkpt lat="37.5367260" lon="-4.3899500">
        <ele>607.0</ele>
        <time>2021-12-28T15:21:23Z</time>
      </trkpt>
      <trkpt lat="37.5367170" lon="-4.3899860">
        <ele>606.8</ele>
        <time>2021-12-28T15:21:24Z</time>
      </trkpt>
      <trkpt lat="37.5367040" lon="-4.3900220">
        <ele>606.8</ele>
        <time>2021-12-28T15:21:25Z</time>
      </trkpt>
      <trkpt lat="37.5366910" lon="-4.3900600">
        <ele>606.8</ele>
        <time>2021-12-28T15:21:26Z</time>
      </trkpt>
      <trkpt lat="37.5366780" lon="-4.3901000">
        <ele>606.8</ele>
        <time>2021-12-28T15:21:27Z</time>
      </trkpt>
      <trkpt lat="37.5366590" lon="-4.3901350">
        <ele>606.6</ele>
        <time>2021-12-28T15:21:28Z</time>
      </trkpt>
      <trkpt lat="37.5366430" lon="-4.3901720">
        <ele>606.6</ele>
        <time>2021-12-28T15:21:29Z</time>
      </trkpt>
      <trkpt lat="37.5366240" lon="-4.3902080">
        <ele>606.6</ele>
        <time>2021-12-28T15:21:30Z</time>
      </trkpt>
      <trkpt lat="37.5366110" lon="-4.3902400">
        <ele>606.6</ele>
        <time>2021-12-28T15:21:31Z</time>
      </trkpt>
      <trkpt lat="37.5365860" lon="-4.3902780">
        <ele>606.6</ele>
        <time>2021-12-28T15:21:32Z</time>
      </trkpt>
      <trkpt lat="37.5365630" lon="-4.3903130">
        <ele>606.6</ele>
        <time>2021-12-28T15:21:33Z</time>
      </trkpt>
      <trkpt lat="37.5365440" lon="-4.3903480">
        <ele>606.6</ele>
        <time>2021-12-28T15:21:34Z</time>
      </trkpt>
      <trkpt lat="37.5365220" lon="-4.3903800">
        <ele>606.6</ele>
        <time>2021-12-28T15:21:35Z</time>
      </trkpt>
      <trkpt lat="37.5364990" lon="-4.3904170">
        <ele>606.4</ele>
        <time>2021-12-28T15:21:36Z</time>
      </trkpt>
      <trkpt lat="37.5364800" lon="-4.3904530">
        <ele>606.4</ele>
        <time>2021-12-28T15:21:37Z</time>
      </trkpt>
      <trkpt lat="37.5364580" lon="-4.3904880">
        <ele>606.4</ele>
        <time>2021-12-28T15:21:38Z</time>
      </trkpt>
      <trkpt lat="37.5364380" lon="-4.3905240">
        <ele>606.2</ele>
        <time>2021-12-28T15:21:39Z</time>
      </trkpt>
      <trkpt lat="37.5364190" lon="-4.3905580">
        <ele>606.2</ele>
        <time>2021-12-28T15:21:40Z</time>
      </trkpt>
      <trkpt lat="37.5363970" lon="-4.3905940">
        <ele>606.2</ele>
        <time>2021-12-28T15:21:41Z</time>
      </trkpt>
      <trkpt lat="37.5363740" lon="-4.3906300">
        <ele>606.0</ele>
        <time>2021-12-28T15:21:42Z</time>
      </trkpt>
      <trkpt lat="37.5363460" lon="-4.3906650">
        <ele>605.8</ele>
        <time>2021-12-28T15:21:43Z</time>
      </trkpt>
      <trkpt lat="37.5363230" lon="-4.3907000">
        <ele>605.8</ele>
        <time>2021-12-28T15:21:44Z</time>
      </trkpt>
      <trkpt lat="37.5362980" lon="-4.3907330">
        <ele>605.6</ele>
        <time>2021-12-28T15:21:45Z</time>
      </trkpt>
      <trkpt lat="37.5362690" lon="-4.3907670">
        <ele>605.6</ele>
        <time>2021-12-28T15:21:46Z</time>
      </trkpt>
      <trkpt lat="37.5362430" lon="-4.3907980">
        <ele>605.6</ele>
        <time>2021-12-28T15:21:47Z</time>
      </trkpt>
      <trkpt lat="37.5362180" lon="-4.3908300">
        <ele>605.4</ele>
        <time>2021-12-28T15:21:48Z</time>
      </trkpt>
      <trkpt lat="37.5361950" lon="-4.3908600">
        <ele>605.4</ele>
        <time>2021-12-28T15:21:49Z</time>
      </trkpt>
      <trkpt lat="37.5361660" lon="-4.3908900">
        <ele>605.4</ele>
        <time>2021-12-28T15:21:50Z</time>
      </trkpt>
      <trkpt lat="37.5361410" lon="-4.3909200">
        <ele>605.4</ele>
        <time>2021-12-28T15:21:51Z</time>
      </trkpt>
      <trkpt lat="37.5361150" lon="-4.3909500">
        <ele>605.4</ele>
        <time>2021-12-28T15:21:52Z</time>
      </trkpt>
      <trkpt lat="37.5360860" lon="-4.3909820">
        <ele>605.4</ele>
        <time>2021-12-28T15:21:53Z</time>
      </trkpt>
      <trkpt lat="37.5360610" lon="-4.3910120">
        <ele>605.4</ele>
        <time>2021-12-28T15:21:54Z</time>
      </trkpt>
      <trkpt lat="37.5360350" lon="-4.3910420">
        <ele>605.4</ele>
        <time>2021-12-28T15:21:55Z</time>
      </trkpt>
      <trkpt lat="37.5360030" lon="-4.3910730">
        <ele>605.4</ele>
        <time>2021-12-28T15:21:56Z</time>
      </trkpt>
      <trkpt lat="37.5359710" lon="-4.3911020">
        <ele>605.4</ele>
        <time>2021-12-28T15:21:57Z</time>
      </trkpt>
      <trkpt lat="37.5359420" lon="-4.3911280">
        <ele>605.6</ele>
        <time>2021-12-28T15:21:58Z</time>
      </trkpt>
      <trkpt lat="37.5359070" lon="-4.3911570">
        <ele>605.6</ele>
        <time>2021-12-28T15:21:59Z</time>
      </trkpt>
      <trkpt lat="37.5358720" lon="-4.3911850">
        <ele>605.6</ele>
        <time>2021-12-28T15:22:00Z</time>
      </trkpt>
      <trkpt lat="37.5358430" lon="-4.3912120">
        <ele>605.6</ele>
        <time>2021-12-28T15:22:01Z</time>
      </trkpt>
      <trkpt lat="37.5358080" lon="-4.3912400">
        <ele>605.6</ele>
        <time>2021-12-28T15:22:02Z</time>
      </trkpt>
      <trkpt lat="37.5357730" lon="-4.3912680">
        <ele>605.6</ele>
        <time>2021-12-28T15:22:03Z</time>
      </trkpt>
      <trkpt lat="37.5357410" lon="-4.3912970">
        <ele>605.6</ele>
        <time>2021-12-28T15:22:04Z</time>
      </trkpt>
      <trkpt lat="37.5357090" lon="-4.3913230">
        <ele>605.6</ele>
        <time>2021-12-28T15:22:05Z</time>
      </trkpt>
      <trkpt lat="37.5356800" lon="-4.3913450">
        <ele>605.6</ele>
        <time>2021-12-28T15:22:06Z</time>
      </trkpt>
      <trkpt lat="37.5356480" lon="-4.3913680">
        <ele>605.6</ele>
        <time>2021-12-28T15:22:07Z</time>
      </trkpt>
      <trkpt lat="37.5356220" lon="-4.3913900">
        <ele>605.4</ele>
        <time>2021-12-28T15:22:08Z</time>
      </trkpt>
      <trkpt lat="37.5355900" lon="-4.3914150">
        <ele>605.4</ele>
        <time>2021-12-28T15:22:09Z</time>
      </trkpt>
      <trkpt lat="37.5355620" lon="-4.3914380">
        <ele>605.4</ele>
        <time>2021-12-28T15:22:10Z</time>
      </trkpt>
      <trkpt lat="37.5355300" lon="-4.3914630">
        <ele>605.4</ele>
        <time>2021-12-28T15:22:11Z</time>
      </trkpt>
      <trkpt lat="37.5355010" lon="-4.3914870">
        <ele>605.6</ele>
        <time>2021-12-28T15:22:12Z</time>
      </trkpt>
      <trkpt lat="37.5354660" lon="-4.3915120">
        <ele>605.6</ele>
        <time>2021-12-28T15:22:13Z</time>
      </trkpt>
      <trkpt lat="37.5354400" lon="-4.3915370">
        <ele>605.6</ele>
        <time>2021-12-28T15:22:14Z</time>
      </trkpt>
      <trkpt lat="37.5354080" lon="-4.3915640">
        <ele>605.6</ele>
        <time>2021-12-28T15:22:15Z</time>
      </trkpt>
      <trkpt lat="37.5353760" lon="-4.3915870">
        <ele>605.6</ele>
        <time>2021-12-28T15:22:16Z</time>
      </trkpt>
      <trkpt lat="37.5353440" lon="-4.3916120">
        <ele>605.6</ele>
        <time>2021-12-28T15:22:17Z</time>
      </trkpt>
      <trkpt lat="37.5353150" lon="-4.3916350">
        <ele>605.6</ele>
        <time>2021-12-28T15:22:18Z</time>
      </trkpt>
      <trkpt lat="37.5352830" lon="-4.3916580">
        <ele>605.6</ele>
        <time>2021-12-28T15:22:19Z</time>
      </trkpt>
      <trkpt lat="37.5352510" lon="-4.3916840">
        <ele>605.8</ele>
        <time>2021-12-28T15:22:20Z</time>
      </trkpt>
      <trkpt lat="37.5352220" lon="-4.3917080">
        <ele>605.8</ele>
        <time>2021-12-28T15:22:21Z</time>
      </trkpt>
      <trkpt lat="37.5351900" lon="-4.3917300">
        <ele>605.8</ele>
        <time>2021-12-28T15:22:22Z</time>
      </trkpt>
      <trkpt lat="37.5351650" lon="-4.3917530">
        <ele>605.8</ele>
        <time>2021-12-28T15:22:23Z</time>
      </trkpt>
      <trkpt lat="37.5351330" lon="-4.3917780">
        <ele>605.8</ele>
        <time>2021-12-28T15:22:24Z</time>
      </trkpt>
      <trkpt lat="37.5351040" lon="-4.3918020">
        <ele>605.8</ele>
        <time>2021-12-28T15:22:25Z</time>
      </trkpt>
      <trkpt lat="37.5350720" lon="-4.3918270">
        <ele>605.8</ele>
        <time>2021-12-28T15:22:26Z</time>
      </trkpt>
      <trkpt lat="37.5350430" lon="-4.3918520">
        <ele>605.8</ele>
        <time>2021-12-28T15:22:27Z</time>
      </trkpt>
      <trkpt lat="37.5350140" lon="-4.3918770">
        <ele>605.8</ele>
        <time>2021-12-28T15:22:28Z</time>
      </trkpt>
      <trkpt lat="37.5349860" lon="-4.3919020">
        <ele>605.8</ele>
        <time>2021-12-28T15:22:29Z</time>
      </trkpt>
      <trkpt lat="37.5349500" lon="-4.3919280">
        <ele>605.8</ele>
        <time>2021-12-28T15:22:30Z</time>
      </trkpt>
      <trkpt lat="37.5349180" lon="-4.3919500">
        <ele>605.8</ele>
        <time>2021-12-28T15:22:31Z</time>
      </trkpt>
      <trkpt lat="37.5348900" lon="-4.3919720">
        <ele>605.8</ele>
        <time>2021-12-28T15:22:32Z</time>
      </trkpt>
      <trkpt lat="37.5348580" lon="-4.3919950">
        <ele>605.8</ele>
        <time>2021-12-28T15:22:33Z</time>
      </trkpt>
      <trkpt lat="37.5348290" lon="-4.3920180">
        <ele>605.8</ele>
        <time>2021-12-28T15:22:34Z</time>
      </trkpt>
      <trkpt lat="37.5347970" lon="-4.3920400">
        <ele>605.8</ele>
        <time>2021-12-28T15:22:35Z</time>
      </trkpt>
      <trkpt lat="37.5347680" lon="-4.3920630">
        <ele>605.8</ele>
        <time>2021-12-28T15:22:36Z</time>
      </trkpt>
      <trkpt lat="37.5347360" lon="-4.3920880">
        <ele>605.8</ele>
        <time>2021-12-28T15:22:37Z</time>
      </trkpt>
      <trkpt lat="37.5347070" lon="-4.3921130">
        <ele>605.8</ele>
        <time>2021-12-28T15:22:38Z</time>
      </trkpt>
      <trkpt lat="37.5346750" lon="-4.3921380">
        <ele>605.8</ele>
        <time>2021-12-28T15:22:39Z</time>
      </trkpt>
      <trkpt lat="37.5346460" lon="-4.3921630">
        <ele>606.0</ele>
        <time>2021-12-28T15:22:40Z</time>
      </trkpt>
      <trkpt lat="37.5346140" lon="-4.3921880">
        <ele>606.0</ele>
        <time>2021-12-28T15:22:41Z</time>
      </trkpt>
      <trkpt lat="37.5345790" lon="-4.3922150">
        <ele>606.0</ele>
        <time>2021-12-28T15:22:42Z</time>
      </trkpt>
      <trkpt lat="37.5345540" lon="-4.3922420">
        <ele>606.0</ele>
        <time>2021-12-28T15:22:43Z</time>
      </trkpt>
      <trkpt lat="37.5345180" lon="-4.3922650">
        <ele>606.0</ele>
        <time>2021-12-28T15:22:44Z</time>
      </trkpt>
      <trkpt lat="37.5344860" lon="-4.3922900">
        <ele>606.2</ele>
        <time>2021-12-28T15:22:45Z</time>
      </trkpt>
      <trkpt lat="37.5344540" lon="-4.3923140">
        <ele>606.2</ele>
        <time>2021-12-28T15:22:46Z</time>
      </trkpt>
      <trkpt lat="37.5344190" lon="-4.3923370">
        <ele>606.0</ele>
        <time>2021-12-28T15:22:47Z</time>
      </trkpt>
      <trkpt lat="37.5343900" lon="-4.3923580">
        <ele>606.0</ele>
        <time>2021-12-28T15:22:48Z</time>
      </trkpt>
      <trkpt lat="37.5343580" lon="-4.3923820">
        <ele>606.0</ele>
        <time>2021-12-28T15:22:49Z</time>
      </trkpt>
      <trkpt lat="37.5343300" lon="-4.3924080">
        <ele>606.0</ele>
        <time>2021-12-28T15:22:50Z</time>
      </trkpt>
      <trkpt lat="37.5343010" lon="-4.3924350">
        <ele>606.2</ele>
        <time>2021-12-28T15:22:51Z</time>
      </trkpt>
      <trkpt lat="37.5342720" lon="-4.3924630">
        <ele>606.2</ele>
        <time>2021-12-28T15:22:52Z</time>
      </trkpt>
      <trkpt lat="37.5342370" lon="-4.3924880">
        <ele>606.2</ele>
        <time>2021-12-28T15:22:53Z</time>
      </trkpt>
      <trkpt lat="37.5342050" lon="-4.3925130">
        <ele>606.2</ele>
        <time>2021-12-28T15:22:54Z</time>
      </trkpt>
      <trkpt lat="37.5341730" lon="-4.3925380">
        <ele>606.2</ele>
        <time>2021-12-28T15:22:55Z</time>
      </trkpt>
      <trkpt lat="37.5341410" lon="-4.3925620">
        <ele>606.2</ele>
        <time>2021-12-28T15:22:56Z</time>
      </trkpt>
      <trkpt lat="37.5341120" lon="-4.3925850">
        <ele>606.2</ele>
        <time>2021-12-28T15:22:57Z</time>
      </trkpt>
      <trkpt lat="37.5340770" lon="-4.3926070">
        <ele>606.2</ele>
        <time>2021-12-28T15:22:58Z</time>
      </trkpt>
      <trkpt lat="37.5340510" lon="-4.3926320">
        <ele>606.2</ele>
        <time>2021-12-28T15:22:59Z</time>
      </trkpt>
      <trkpt lat="37.5340160" lon="-4.3926580">
        <ele>606.2</ele>
        <time>2021-12-28T15:23:00Z</time>
      </trkpt>
      <trkpt lat="37.5339840" lon="-4.3926850">
        <ele>606.2</ele>
        <time>2021-12-28T15:23:01Z</time>
      </trkpt>
      <trkpt lat="37.5339550" lon="-4.3927100">
        <ele>606.2</ele>
        <time>2021-12-28T15:23:02Z</time>
      </trkpt>
      <trkpt lat="37.5339230" lon="-4.3927340">
        <ele>606.2</ele>
        <time>2021-12-28T15:23:03Z</time>
      </trkpt>
      <trkpt lat="37.5338910" lon="-4.3927560">
        <ele>606.2</ele>
        <time>2021-12-28T15:23:04Z</time>
      </trkpt>
      <trkpt lat="37.5338620" lon="-4.3927820">
        <ele>606.2</ele>
        <time>2021-12-28T15:23:05Z</time>
      </trkpt>
      <trkpt lat="37.5338270" lon="-4.3928060">
        <ele>606.0</ele>
        <time>2021-12-28T15:23:06Z</time>
      </trkpt>
      <trkpt lat="37.5337980" lon="-4.3928300">
        <ele>606.0</ele>
        <time>2021-12-28T15:23:07Z</time>
      </trkpt>
      <trkpt lat="37.5337630" lon="-4.3928550">
        <ele>606.0</ele>
        <time>2021-12-28T15:23:08Z</time>
      </trkpt>
      <trkpt lat="37.5337340" lon="-4.3928800">
        <ele>606.0</ele>
        <time>2021-12-28T15:23:09Z</time>
      </trkpt>
      <trkpt lat="37.5337020" lon="-4.3929020">
        <ele>606.0</ele>
        <time>2021-12-28T15:23:10Z</time>
      </trkpt>
      <trkpt lat="37.5336670" lon="-4.3929280">
        <ele>606.0</ele>
        <time>2021-12-28T15:23:11Z</time>
      </trkpt>
      <trkpt lat="37.5336350" lon="-4.3929530">
        <ele>606.0</ele>
        <time>2021-12-28T15:23:12Z</time>
      </trkpt>
      <trkpt lat="37.5336030" lon="-4.3929770">
        <ele>606.0</ele>
        <time>2021-12-28T15:23:13Z</time>
      </trkpt>
      <trkpt lat="37.5335740" lon="-4.3930020">
        <ele>605.8</ele>
        <time>2021-12-28T15:23:14Z</time>
      </trkpt>
      <trkpt lat="37.5335390" lon="-4.3930270">
        <ele>605.8</ele>
        <time>2021-12-28T15:23:15Z</time>
      </trkpt>
      <trkpt lat="37.5335070" lon="-4.3930520">
        <ele>605.8</ele>
        <time>2021-12-28T15:23:16Z</time>
      </trkpt>
      <trkpt lat="37.5334780" lon="-4.3930770">
        <ele>605.8</ele>
        <time>2021-12-28T15:23:17Z</time>
      </trkpt>
      <trkpt lat="37.5334430" lon="-4.3931020">
        <ele>605.8</ele>
        <time>2021-12-28T15:23:18Z</time>
      </trkpt>
      <trkpt lat="37.5334180" lon="-4.3931280">
        <ele>605.8</ele>
        <time>2021-12-28T15:23:19Z</time>
      </trkpt>
      <trkpt lat="37.5333820" lon="-4.3931520">
        <ele>605.8</ele>
        <time>2021-12-28T15:23:20Z</time>
      </trkpt>
      <trkpt lat="37.5333500" lon="-4.3931730">
        <ele>605.8</ele>
        <time>2021-12-28T15:23:21Z</time>
      </trkpt>
      <trkpt lat="37.5333220" lon="-4.3931980">
        <ele>605.8</ele>
        <time>2021-12-28T15:23:22Z</time>
      </trkpt>
      <trkpt lat="37.5332900" lon="-4.3932230">
        <ele>605.8</ele>
        <time>2021-12-28T15:23:23Z</time>
      </trkpt>
      <trkpt lat="37.5332610" lon="-4.3932520">
        <ele>605.8</ele>
        <time>2021-12-28T15:23:24Z</time>
      </trkpt>
      <trkpt lat="37.5332260" lon="-4.3932800">
        <ele>606.0</ele>
        <time>2021-12-28T15:23:25Z</time>
      </trkpt>
      <trkpt lat="37.5331970" lon="-4.3933050">
        <ele>606.0</ele>
        <time>2021-12-28T15:23:26Z</time>
      </trkpt>
      <trkpt lat="37.5331650" lon="-4.3933300">
        <ele>606.0</ele>
        <time>2021-12-28T15:23:27Z</time>
      </trkpt>
      <trkpt lat="37.5331300" lon="-4.3933540">
        <ele>606.0</ele>
        <time>2021-12-28T15:23:28Z</time>
      </trkpt>
      <trkpt lat="37.5330980" lon="-4.3933770">
        <ele>606.0</ele>
        <time>2021-12-28T15:23:29Z</time>
      </trkpt>
      <trkpt lat="37.5330660" lon="-4.3934040">
        <ele>606.0</ele>
        <time>2021-12-28T15:23:30Z</time>
      </trkpt>
      <trkpt lat="37.5330370" lon="-4.3934340">
        <ele>605.8</ele>
        <time>2021-12-28T15:23:31Z</time>
      </trkpt>
      <trkpt lat="37.5330020" lon="-4.3934580">
        <ele>605.8</ele>
        <time>2021-12-28T15:23:32Z</time>
      </trkpt>
      <trkpt lat="37.5329660" lon="-4.3934830">
        <ele>605.8</ele>
        <time>2021-12-28T15:23:33Z</time>
      </trkpt>
      <trkpt lat="37.5329380" lon="-4.3935100">
        <ele>605.8</ele>
        <time>2021-12-28T15:23:34Z</time>
      </trkpt>
      <trkpt lat="37.5329020" lon="-4.3935350">
        <ele>606.0</ele>
        <time>2021-12-28T15:23:35Z</time>
      </trkpt>
      <trkpt lat="37.5328740" lon="-4.3935600">
        <ele>606.0</ele>
        <time>2021-12-28T15:23:36Z</time>
      </trkpt>
      <trkpt lat="37.5328420" lon="-4.3935870">
        <ele>606.0</ele>
        <time>2021-12-28T15:23:37Z</time>
      </trkpt>
      <trkpt lat="37.5328060" lon="-4.3936130">
        <ele>605.8</ele>
        <time>2021-12-28T15:23:38Z</time>
      </trkpt>
      <trkpt lat="37.5327710" lon="-4.3936400">
        <ele>605.8</ele>
        <time>2021-12-28T15:23:39Z</time>
      </trkpt>
      <trkpt lat="37.5327420" lon="-4.3936640">
        <ele>605.8</ele>
        <time>2021-12-28T15:23:40Z</time>
      </trkpt>
      <trkpt lat="37.5327070" lon="-4.3936880">
        <ele>605.8</ele>
        <time>2021-12-28T15:23:41Z</time>
      </trkpt>
      <trkpt lat="37.5326750" lon="-4.3937150">
        <ele>605.8</ele>
        <time>2021-12-28T15:23:42Z</time>
      </trkpt>
      <trkpt lat="37.5326400" lon="-4.3937400">
        <ele>605.6</ele>
        <time>2021-12-28T15:23:43Z</time>
      </trkpt>
      <trkpt lat="37.5326020" lon="-4.3937650">
        <ele>605.6</ele>
        <time>2021-12-28T15:23:44Z</time>
      </trkpt>
      <trkpt lat="37.5325660" lon="-4.3937900">
        <ele>605.6</ele>
        <time>2021-12-28T15:23:45Z</time>
      </trkpt>
      <trkpt lat="37.5325310" lon="-4.3938200">
        <ele>605.6</ele>
        <time>2021-12-28T15:23:46Z</time>
      </trkpt>
      <trkpt lat="37.5325020" lon="-4.3938460">
        <ele>605.6</ele>
        <time>2021-12-28T15:23:47Z</time>
      </trkpt>
      <trkpt lat="37.5324670" lon="-4.3938720">
        <ele>605.6</ele>
        <time>2021-12-28T15:23:48Z</time>
      </trkpt>
      <trkpt lat="37.5324350" lon="-4.3938950">
        <ele>605.6</ele>
        <time>2021-12-28T15:23:49Z</time>
      </trkpt>
      <trkpt lat="37.5324060" lon="-4.3939220">
        <ele>605.6</ele>
        <time>2021-12-28T15:23:50Z</time>
      </trkpt>
      <trkpt lat="37.5323710" lon="-4.3939480">
        <ele>605.8</ele>
        <time>2021-12-28T15:23:51Z</time>
      </trkpt>
      <trkpt lat="37.5323420" lon="-4.3939730">
        <ele>605.8</ele>
        <time>2021-12-28T15:23:52Z</time>
      </trkpt>
      <trkpt lat="37.5323070" lon="-4.3940000">
        <ele>605.6</ele>
        <time>2021-12-28T15:23:53Z</time>
      </trkpt>
      <trkpt lat="37.5322720" lon="-4.3940280">
        <ele>605.6</ele>
        <time>2021-12-28T15:23:54Z</time>
      </trkpt>
      <trkpt lat="37.5322370" lon="-4.3940570">
        <ele>605.6</ele>
        <time>2021-12-28T15:23:55Z</time>
      </trkpt>
      <trkpt lat="37.5321980" lon="-4.3940840">
        <ele>605.6</ele>
        <time>2021-12-28T15:23:56Z</time>
      </trkpt>
      <trkpt lat="37.5321660" lon="-4.3941100">
        <ele>605.4</ele>
        <time>2021-12-28T15:23:57Z</time>
      </trkpt>
      <trkpt lat="37.5321340" lon="-4.3941360">
        <ele>605.4</ele>
        <time>2021-12-28T15:23:58Z</time>
      </trkpt>
      <trkpt lat="37.5320990" lon="-4.3941630">
        <ele>605.4</ele>
        <time>2021-12-28T15:23:59Z</time>
      </trkpt>
      <trkpt lat="37.5320670" lon="-4.3941880">
        <ele>605.4</ele>
        <time>2021-12-28T15:24:00Z</time>
      </trkpt>
      <trkpt lat="37.5320320" lon="-4.3942160">
        <ele>605.4</ele>
        <time>2021-12-28T15:24:01Z</time>
      </trkpt>
      <trkpt lat="37.5319970" lon="-4.3942430">
        <ele>605.4</ele>
        <time>2021-12-28T15:24:02Z</time>
      </trkpt>
      <trkpt lat="37.5319650" lon="-4.3942680">
        <ele>605.4</ele>
        <time>2021-12-28T15:24:03Z</time>
      </trkpt>
      <trkpt lat="37.5319300" lon="-4.3942930">
        <ele>605.2</ele>
        <time>2021-12-28T15:24:04Z</time>
      </trkpt>
      <trkpt lat="37.5318980" lon="-4.3943200">
        <ele>605.2</ele>
        <time>2021-12-28T15:24:05Z</time>
      </trkpt>
      <trkpt lat="37.5318560" lon="-4.3943470">
        <ele>605.2</ele>
        <time>2021-12-28T15:24:06Z</time>
      </trkpt>
      <trkpt lat="37.5318210" lon="-4.3943750">
        <ele>605.2</ele>
        <time>2021-12-28T15:24:07Z</time>
      </trkpt>
      <trkpt lat="37.5317890" lon="-4.3944050">
        <ele>605.2</ele>
        <time>2021-12-28T15:24:08Z</time>
      </trkpt>
      <trkpt lat="37.5317540" lon="-4.3944350">
        <ele>605.2</ele>
        <time>2021-12-28T15:24:09Z</time>
      </trkpt>
      <trkpt lat="37.5317220" lon="-4.3944600">
        <ele>605.2</ele>
        <time>2021-12-28T15:24:10Z</time>
      </trkpt>
      <trkpt lat="37.5316900" lon="-4.3944860">
        <ele>605.2</ele>
        <time>2021-12-28T15:24:11Z</time>
      </trkpt>
      <trkpt lat="37.5316540" lon="-4.3945130">
        <ele>605.2</ele>
        <time>2021-12-28T15:24:12Z</time>
      </trkpt>
      <trkpt lat="37.5316190" lon="-4.3945420">
        <ele>605.2</ele>
        <time>2021-12-28T15:24:13Z</time>
      </trkpt>
      <trkpt lat="37.5315870" lon="-4.3945720">
        <ele>605.2</ele>
        <time>2021-12-28T15:24:14Z</time>
      </trkpt>
      <trkpt lat="37.5315520" lon="-4.3946000">
        <ele>605.2</ele>
        <time>2021-12-28T15:24:15Z</time>
      </trkpt>
      <trkpt lat="37.5315140" lon="-4.3946280">
        <ele>605.2</ele>
        <time>2021-12-28T15:24:16Z</time>
      </trkpt>
      <trkpt lat="37.5314780" lon="-4.3946570">
        <ele>605.2</ele>
        <time>2021-12-28T15:24:17Z</time>
      </trkpt>
      <trkpt lat="37.5314500" lon="-4.3946830">
        <ele>605.2</ele>
        <time>2021-12-28T15:24:18Z</time>
      </trkpt>
      <trkpt lat="37.5314110" lon="-4.3947100">
        <ele>605.2</ele>
        <time>2021-12-28T15:24:19Z</time>
      </trkpt>
      <trkpt lat="37.5313760" lon="-4.3947370">
        <ele>605.2</ele>
        <time>2021-12-28T15:24:20Z</time>
      </trkpt>
      <trkpt lat="37.5313410" lon="-4.3947650">
        <ele>605.0</ele>
        <time>2021-12-28T15:24:21Z</time>
      </trkpt>
      <trkpt lat="37.5313090" lon="-4.3947920">
        <ele>605.0</ele>
        <time>2021-12-28T15:24:22Z</time>
      </trkpt>
      <trkpt lat="37.5312700" lon="-4.3948180">
        <ele>605.0</ele>
        <time>2021-12-28T15:24:23Z</time>
      </trkpt>
      <trkpt lat="37.5312350" lon="-4.3948430">
        <ele>605.0</ele>
        <time>2021-12-28T15:24:24Z</time>
      </trkpt>
      <trkpt lat="37.5311970" lon="-4.3948680">
        <ele>605.0</ele>
        <time>2021-12-28T15:24:25Z</time>
      </trkpt>
      <trkpt lat="37.5311650" lon="-4.3948920">
        <ele>605.0</ele>
        <time>2021-12-28T15:24:26Z</time>
      </trkpt>
      <trkpt lat="37.5311330" lon="-4.3949180">
        <ele>605.0</ele>
        <time>2021-12-28T15:24:27Z</time>
      </trkpt>
      <trkpt lat="37.5311010" lon="-4.3949430">
        <ele>605.0</ele>
        <time>2021-12-28T15:24:28Z</time>
      </trkpt>
      <trkpt lat="37.5310660" lon="-4.3949700">
        <ele>604.8</ele>
        <time>2021-12-28T15:24:29Z</time>
      </trkpt>
      <trkpt lat="37.5310340" lon="-4.3949950">
        <ele>604.8</ele>
        <time>2021-12-28T15:24:30Z</time>
      </trkpt>
      <trkpt lat="37.5309980" lon="-4.3950230">
        <ele>604.8</ele>
        <time>2021-12-28T15:24:31Z</time>
      </trkpt>
      <trkpt lat="37.5309630" lon="-4.3950530">
        <ele>604.8</ele>
        <time>2021-12-28T15:24:32Z</time>
      </trkpt>
      <trkpt lat="37.5309280" lon="-4.3950800">
        <ele>604.8</ele>
        <time>2021-12-28T15:24:33Z</time>
      </trkpt>
      <trkpt lat="37.5308960" lon="-4.3951070">
        <ele>604.8</ele>
        <time>2021-12-28T15:24:34Z</time>
      </trkpt>
      <trkpt lat="37.5308610" lon="-4.3951350">
        <ele>604.8</ele>
        <time>2021-12-28T15:24:35Z</time>
      </trkpt>
      <trkpt lat="37.5308290" lon="-4.3951640">
        <ele>604.6</ele>
        <time>2021-12-28T15:24:36Z</time>
      </trkpt>
      <trkpt lat="37.5307970" lon="-4.3951880">
        <ele>604.6</ele>
        <time>2021-12-28T15:24:37Z</time>
      </trkpt>
      <trkpt lat="37.5307620" lon="-4.3952150">
        <ele>604.6</ele>
        <time>2021-12-28T15:24:38Z</time>
      </trkpt>
      <trkpt lat="37.5307260" lon="-4.3952420">
        <ele>604.6</ele>
        <time>2021-12-28T15:24:39Z</time>
      </trkpt>
      <trkpt lat="37.5306940" lon="-4.3952720">
        <ele>604.6</ele>
        <time>2021-12-28T15:24:40Z</time>
      </trkpt>
      <trkpt lat="37.5306590" lon="-4.3953020">
        <ele>604.6</ele>
        <time>2021-12-28T15:24:41Z</time>
      </trkpt>
      <trkpt lat="37.5306240" lon="-4.3953320">
        <ele>604.6</ele>
        <time>2021-12-28T15:24:42Z</time>
      </trkpt>
      <trkpt lat="37.5305890" lon="-4.3953600">
        <ele>604.6</ele>
        <time>2021-12-28T15:24:43Z</time>
      </trkpt>
      <trkpt lat="37.5305570" lon="-4.3953900">
        <ele>604.6</ele>
        <time>2021-12-28T15:24:44Z</time>
      </trkpt>
      <trkpt lat="37.5305250" lon="-4.3954200">
        <ele>604.6</ele>
        <time>2021-12-28T15:24:45Z</time>
      </trkpt>
      <trkpt lat="37.5304990" lon="-4.3954470">
        <ele>604.6</ele>
        <time>2021-12-28T15:24:46Z</time>
      </trkpt>
      <trkpt lat="37.5304700" lon="-4.3954720">
        <ele>604.6</ele>
        <time>2021-12-28T15:24:47Z</time>
      </trkpt>
      <trkpt lat="37.5304450" lon="-4.3955040">
        <ele>604.6</ele>
        <time>2021-12-28T15:24:48Z</time>
      </trkpt>
      <trkpt lat="37.5304160" lon="-4.3955340">
        <ele>604.6</ele>
        <time>2021-12-28T15:24:49Z</time>
      </trkpt>
      <trkpt lat="37.5303870" lon="-4.3955650">
        <ele>604.6</ele>
        <time>2021-12-28T15:24:50Z</time>
      </trkpt>
      <trkpt lat="37.5303580" lon="-4.3955960">
        <ele>604.6</ele>
        <time>2021-12-28T15:24:51Z</time>
      </trkpt>
      <trkpt lat="37.5303300" lon="-4.3956300">
        <ele>604.6</ele>
        <time>2021-12-28T15:24:52Z</time>
      </trkpt>
      <trkpt lat="37.5303010" lon="-4.3956630">
        <ele>604.6</ele>
        <time>2021-12-28T15:24:53Z</time>
      </trkpt>
      <trkpt lat="37.5302690" lon="-4.3956970">
        <ele>604.6</ele>
        <time>2021-12-28T15:24:54Z</time>
      </trkpt>
      <trkpt lat="37.5302430" lon="-4.3957320">
        <ele>604.8</ele>
        <time>2021-12-28T15:24:55Z</time>
      </trkpt>
      <trkpt lat="37.5302110" lon="-4.3957630">
        <ele>604.8</ele>
        <time>2021-12-28T15:24:56Z</time>
      </trkpt>
      <trkpt lat="37.5301820" lon="-4.3957970">
        <ele>604.8</ele>
        <time>2021-12-28T15:24:57Z</time>
      </trkpt>
      <trkpt lat="37.5301540" lon="-4.3958340">
        <ele>604.8</ele>
        <time>2021-12-28T15:24:58Z</time>
      </trkpt>
      <trkpt lat="37.5301280" lon="-4.3958720">
        <ele>604.8</ele>
        <time>2021-12-28T15:24:59Z</time>
      </trkpt>
      <trkpt lat="37.5300990" lon="-4.3959080">
        <ele>604.8</ele>
        <time>2021-12-28T15:25:00Z</time>
      </trkpt>
      <trkpt lat="37.5300670" lon="-4.3959480">
        <ele>604.8</ele>
        <time>2021-12-28T15:25:01Z</time>
      </trkpt>
      <trkpt lat="37.5300420" lon="-4.3959860">
        <ele>604.8</ele>
        <time>2021-12-28T15:25:02Z</time>
      </trkpt>
      <trkpt lat="37.5300130" lon="-4.3960230">
        <ele>605.0</ele>
        <time>2021-12-28T15:25:03Z</time>
      </trkpt>
      <trkpt lat="37.5299900" lon="-4.3960620">
        <ele>605.0</ele>
        <time>2021-12-28T15:25:04Z</time>
      </trkpt>
      <trkpt lat="37.5299680" lon="-4.3960980">
        <ele>605.0</ele>
        <time>2021-12-28T15:25:05Z</time>
      </trkpt>
      <trkpt lat="37.5299420" lon="-4.3961340">
        <ele>605.0</ele>
        <time>2021-12-28T15:25:06Z</time>
      </trkpt>
      <trkpt lat="37.5299230" lon="-4.3961700">
        <ele>605.2</ele>
        <time>2021-12-28T15:25:07Z</time>
      </trkpt>
      <trkpt lat="37.5298940" lon="-4.3962070">
        <ele>605.0</ele>
        <time>2021-12-28T15:25:08Z</time>
      </trkpt>
      <trkpt lat="37.5298720" lon="-4.3962450">
        <ele>605.0</ele>
        <time>2021-12-28T15:25:09Z</time>
      </trkpt>
      <trkpt lat="37.5298460" lon="-4.3962850">
        <ele>605.0</ele>
        <time>2021-12-28T15:25:10Z</time>
      </trkpt>
      <trkpt lat="37.5298240" lon="-4.3963260">
        <ele>604.8</ele>
        <time>2021-12-28T15:25:11Z</time>
      </trkpt>
      <trkpt lat="37.5297950" lon="-4.3963660">
        <ele>604.8</ele>
        <time>2021-12-28T15:25:12Z</time>
      </trkpt>
      <trkpt lat="37.5297760" lon="-4.3964080">
        <ele>604.8</ele>
        <time>2021-12-28T15:25:13Z</time>
      </trkpt>
      <trkpt lat="37.5297540" lon="-4.3964500">
        <ele>604.8</ele>
        <time>2021-12-28T15:25:14Z</time>
      </trkpt>
      <trkpt lat="37.5297310" lon="-4.3964900">
        <ele>604.8</ele>
        <time>2021-12-28T15:25:15Z</time>
      </trkpt>
      <trkpt lat="37.5297090" lon="-4.3965280">
        <ele>604.8</ele>
        <time>2021-12-28T15:25:16Z</time>
      </trkpt>
      <trkpt lat="37.5296900" lon="-4.3965670">
        <ele>604.8</ele>
        <time>2021-12-28T15:25:17Z</time>
      </trkpt>
      <trkpt lat="37.5296700" lon="-4.3966050">
        <ele>604.8</ele>
        <time>2021-12-28T15:25:18Z</time>
      </trkpt>
      <trkpt lat="37.5296510" lon="-4.3966430">
        <ele>605.0</ele>
        <time>2021-12-28T15:25:19Z</time>
      </trkpt>
      <trkpt lat="37.5296290" lon="-4.3966850">
        <ele>605.0</ele>
        <time>2021-12-28T15:25:20Z</time>
      </trkpt>
      <trkpt lat="37.5296060" lon="-4.3967250">
        <ele>605.0</ele>
        <time>2021-12-28T15:25:21Z</time>
      </trkpt>
      <trkpt lat="37.5295870" lon="-4.3967650">
        <ele>605.0</ele>
        <time>2021-12-28T15:25:22Z</time>
      </trkpt>
      <trkpt lat="37.5295680" lon="-4.3968050">
        <ele>605.0</ele>
        <time>2021-12-28T15:25:23Z</time>
      </trkpt>
      <trkpt lat="37.5295490" lon="-4.3968450">
        <ele>605.0</ele>
        <time>2021-12-28T15:25:24Z</time>
      </trkpt>
      <trkpt lat="37.5295330" lon="-4.3968880">
        <ele>605.0</ele>
        <time>2021-12-28T15:25:25Z</time>
      </trkpt>
      <trkpt lat="37.5295140" lon="-4.3969280">
        <ele>605.0</ele>
        <time>2021-12-28T15:25:26Z</time>
      </trkpt>
      <trkpt lat="37.5294940" lon="-4.3969680">
        <ele>605.0</ele>
        <time>2021-12-28T15:25:27Z</time>
      </trkpt>
      <trkpt lat="37.5294750" lon="-4.3970080">
        <ele>605.0</ele>
        <time>2021-12-28T15:25:28Z</time>
      </trkpt>
      <trkpt lat="37.5294560" lon="-4.3970480">
        <ele>605.2</ele>
        <time>2021-12-28T15:25:29Z</time>
      </trkpt>
      <trkpt lat="37.5294340" lon="-4.3970880">
        <ele>605.2</ele>
        <time>2021-12-28T15:25:30Z</time>
      </trkpt>
      <trkpt lat="37.5294140" lon="-4.3971280">
        <ele>605.2</ele>
        <time>2021-12-28T15:25:31Z</time>
      </trkpt>
      <trkpt lat="37.5293950" lon="-4.3971700">
        <ele>605.2</ele>
        <time>2021-12-28T15:25:32Z</time>
      </trkpt>
      <trkpt lat="37.5293730" lon="-4.3972100">
        <ele>605.2</ele>
        <time>2021-12-28T15:25:33Z</time>
      </trkpt>
      <trkpt lat="37.5293570" lon="-4.3972500">
        <ele>605.2</ele>
        <time>2021-12-28T15:25:34Z</time>
      </trkpt>
      <trkpt lat="37.5293380" lon="-4.3972900">
        <ele>605.4</ele>
        <time>2021-12-28T15:25:35Z</time>
      </trkpt>
      <trkpt lat="37.5293180" lon="-4.3973300">
        <ele>605.4</ele>
        <time>2021-12-28T15:25:36Z</time>
      </trkpt>
      <trkpt lat="37.5292960" lon="-4.3973680">
        <ele>605.4</ele>
        <time>2021-12-28T15:25:37Z</time>
      </trkpt>
      <trkpt lat="37.5292770" lon="-4.3974080">
        <ele>605.4</ele>
        <time>2021-12-28T15:25:38Z</time>
      </trkpt>
      <trkpt lat="37.5292640" lon="-4.3974480">
        <ele>605.4</ele>
        <time>2021-12-28T15:25:39Z</time>
      </trkpt>
      <trkpt lat="37.5292450" lon="-4.3974850">
        <ele>605.4</ele>
        <time>2021-12-28T15:25:40Z</time>
      </trkpt>
      <trkpt lat="37.5292260" lon="-4.3975220">
        <ele>605.2</ele>
        <time>2021-12-28T15:25:41Z</time>
      </trkpt>
      <trkpt lat="37.5292000" lon="-4.3975580">
        <ele>605.2</ele>
        <time>2021-12-28T15:25:42Z</time>
      </trkpt>
      <trkpt lat="37.5291840" lon="-4.3975950">
        <ele>605.2</ele>
        <time>2021-12-28T15:25:43Z</time>
      </trkpt>
      <trkpt lat="37.5291650" lon="-4.3976350">
        <ele>605.2</ele>
        <time>2021-12-28T15:25:44Z</time>
      </trkpt>
      <trkpt lat="37.5291390" lon="-4.3976720">
        <ele>605.2</ele>
        <time>2021-12-28T15:25:45Z</time>
      </trkpt>
      <trkpt lat="37.5291200" lon="-4.3977100">
        <ele>605.2</ele>
        <time>2021-12-28T15:25:46Z</time>
      </trkpt>
      <trkpt lat="37.5291010" lon="-4.3977460">
        <ele>605.2</ele>
        <time>2021-12-28T15:25:47Z</time>
      </trkpt>
      <trkpt lat="37.5290850" lon="-4.3977850">
        <ele>605.2</ele>
        <time>2021-12-28T15:25:48Z</time>
      </trkpt>
      <trkpt lat="37.5290590" lon="-4.3978270">
        <ele>605.0</ele>
        <time>2021-12-28T15:25:49Z</time>
      </trkpt>
      <trkpt lat="37.5290400" lon="-4.3978700">
        <ele>605.2</ele>
        <time>2021-12-28T15:25:50Z</time>
      </trkpt>
      <trkpt lat="37.5290180" lon="-4.3979100">
        <ele>605.2</ele>
        <time>2021-12-28T15:25:51Z</time>
      </trkpt>
      <trkpt lat="37.5289950" lon="-4.3979520">
        <ele>605.2</ele>
        <time>2021-12-28T15:25:52Z</time>
      </trkpt>
      <trkpt lat="37.5289760" lon="-4.3979920">
        <ele>605.2</ele>
        <time>2021-12-28T15:25:53Z</time>
      </trkpt>
      <trkpt lat="37.5289570" lon="-4.3980300">
        <ele>605.2</ele>
        <time>2021-12-28T15:25:54Z</time>
      </trkpt>
      <trkpt lat="37.5289380" lon="-4.3980720">
        <ele>605.4</ele>
        <time>2021-12-28T15:25:55Z</time>
      </trkpt>
      <trkpt lat="37.5289220" lon="-4.3981120">
        <ele>605.4</ele>
        <time>2021-12-28T15:25:56Z</time>
      </trkpt>
      <trkpt lat="37.5289020" lon="-4.3981530">
        <ele>605.4</ele>
        <time>2021-12-28T15:25:57Z</time>
      </trkpt>
      <trkpt lat="37.5288800" lon="-4.3981920">
        <ele>605.4</ele>
        <time>2021-12-28T15:25:58Z</time>
      </trkpt>
      <trkpt lat="37.5288610" lon="-4.3982320">
        <ele>605.6</ele>
        <time>2021-12-28T15:25:59Z</time>
      </trkpt>
      <trkpt lat="37.5288420" lon="-4.3982720">
        <ele>605.6</ele>
        <time>2021-12-28T15:26:00Z</time>
      </trkpt>
      <trkpt lat="37.5288220" lon="-4.3983120">
        <ele>605.6</ele>
        <time>2021-12-28T15:26:01Z</time>
      </trkpt>
      <trkpt lat="37.5288000" lon="-4.3983500">
        <ele>605.6</ele>
        <time>2021-12-28T15:26:02Z</time>
      </trkpt>
      <trkpt lat="37.5287780" lon="-4.3983900">
        <ele>605.6</ele>
        <time>2021-12-28T15:26:03Z</time>
      </trkpt>
      <trkpt lat="37.5287580" lon="-4.3984260">
        <ele>605.6</ele>
        <time>2021-12-28T15:26:04Z</time>
      </trkpt>
      <trkpt lat="37.5287390" lon="-4.3984630">
        <ele>605.6</ele>
        <time>2021-12-28T15:26:05Z</time>
      </trkpt>
      <trkpt lat="37.5287230" lon="-4.3985020">
        <ele>605.6</ele>
        <time>2021-12-28T15:26:06Z</time>
      </trkpt>
      <trkpt lat="37.5287040" lon="-4.3985420">
        <ele>605.6</ele>
        <time>2021-12-28T15:26:07Z</time>
      </trkpt>
      <trkpt lat="37.5286880" lon="-4.3985800">
        <ele>605.4</ele>
        <time>2021-12-28T15:26:08Z</time>
      </trkpt>
      <trkpt lat="37.5286690" lon="-4.3986180">
        <ele>605.4</ele>
        <time>2021-12-28T15:26:09Z</time>
      </trkpt>
      <trkpt lat="37.5286500" lon="-4.3986570">
        <ele>605.4</ele>
        <time>2021-12-28T15:26:10Z</time>
      </trkpt>
      <trkpt lat="37.5286300" lon="-4.3986930">
        <ele>605.4</ele>
        <time>2021-12-28T15:26:11Z</time>
      </trkpt>
      <trkpt lat="37.5286110" lon="-4.3987300">
        <ele>605.4</ele>
        <time>2021-12-28T15:26:12Z</time>
      </trkpt>
      <trkpt lat="37.5285920" lon="-4.3987660">
        <ele>605.4</ele>
        <time>2021-12-28T15:26:13Z</time>
      </trkpt>
      <trkpt lat="37.5285730" lon="-4.3988020">
        <ele>605.4</ele>
        <time>2021-12-28T15:26:14Z</time>
      </trkpt>
      <trkpt lat="37.5285570" lon="-4.3988380">
        <ele>605.2</ele>
        <time>2021-12-28T15:26:15Z</time>
      </trkpt>
      <trkpt lat="37.5285380" lon="-4.3988720">
        <ele>605.2</ele>
        <time>2021-12-28T15:26:16Z</time>
      </trkpt>
      <trkpt lat="37.5285150" lon="-4.3989080">
        <ele>605.2</ele>
        <time>2021-12-28T15:26:17Z</time>
      </trkpt>
      <trkpt lat="37.5284990" lon="-4.3989450">
        <ele>605.2</ele>
        <time>2021-12-28T15:26:18Z</time>
      </trkpt>
      <trkpt lat="37.5284800" lon="-4.3989820">
        <ele>605.2</ele>
        <time>2021-12-28T15:26:19Z</time>
      </trkpt>
      <trkpt lat="37.5284610" lon="-4.3990180">
        <ele>605.0</ele>
        <time>2021-12-28T15:26:20Z</time>
      </trkpt>
      <trkpt lat="37.5284380" lon="-4.3990560">
        <ele>605.0</ele>
        <time>2021-12-28T15:26:21Z</time>
      </trkpt>
      <trkpt lat="37.5284220" lon="-4.3990960">
        <ele>605.0</ele>
        <time>2021-12-28T15:26:22Z</time>
      </trkpt>
      <trkpt lat="37.5284000" lon="-4.3991360">
        <ele>605.0</ele>
        <time>2021-12-28T15:26:23Z</time>
      </trkpt>
      <trkpt lat="37.5283810" lon="-4.3991730">
        <ele>605.0</ele>
        <time>2021-12-28T15:26:24Z</time>
      </trkpt>
      <trkpt lat="37.5283580" lon="-4.3992100">
        <ele>605.0</ele>
        <time>2021-12-28T15:26:25Z</time>
      </trkpt>
      <trkpt lat="37.5283390" lon="-4.3992500">
        <ele>605.0</ele>
        <time>2021-12-28T15:26:26Z</time>
      </trkpt>
      <trkpt lat="37.5283200" lon="-4.3992880">
        <ele>605.0</ele>
        <time>2021-12-28T15:26:27Z</time>
      </trkpt>
      <trkpt lat="37.5283010" lon="-4.3993280">
        <ele>605.0</ele>
        <time>2021-12-28T15:26:28Z</time>
      </trkpt>
      <trkpt lat="37.5282780" lon="-4.3993670">
        <ele>605.2</ele>
        <time>2021-12-28T15:26:29Z</time>
      </trkpt>
      <trkpt lat="37.5282590" lon="-4.3994080">
        <ele>605.2</ele>
        <time>2021-12-28T15:26:30Z</time>
      </trkpt>
      <trkpt lat="37.5282400" lon="-4.3994460">
        <ele>605.2</ele>
        <time>2021-12-28T15:26:31Z</time>
      </trkpt>
      <trkpt lat="37.5282180" lon="-4.3994860">
        <ele>605.2</ele>
        <time>2021-12-28T15:26:32Z</time>
      </trkpt>
      <trkpt lat="37.5281980" lon="-4.3995250">
        <ele>605.2</ele>
        <time>2021-12-28T15:26:33Z</time>
      </trkpt>
      <trkpt lat="37.5281790" lon="-4.3995600">
        <ele>605.2</ele>
        <time>2021-12-28T15:26:34Z</time>
      </trkpt>
      <trkpt lat="37.5281600" lon="-4.3995980">
        <ele>605.2</ele>
        <time>2021-12-28T15:26:35Z</time>
      </trkpt>
      <trkpt lat="37.5281410" lon="-4.3996370">
        <ele>605.2</ele>
        <time>2021-12-28T15:26:36Z</time>
      </trkpt>
      <trkpt lat="37.5281220" lon="-4.3996720">
        <ele>605.2</ele>
        <time>2021-12-28T15:26:37Z</time>
      </trkpt>
      <trkpt lat="37.5281020" lon="-4.3997100">
        <ele>605.2</ele>
        <time>2021-12-28T15:26:38Z</time>
      </trkpt>
      <trkpt lat="37.5280830" lon="-4.3997470">
        <ele>605.0</ele>
        <time>2021-12-28T15:26:39Z</time>
      </trkpt>
      <trkpt lat="37.5280640" lon="-4.3997850">
        <ele>605.0</ele>
        <time>2021-12-28T15:26:40Z</time>
      </trkpt>
      <trkpt lat="37.5280450" lon="-4.3998230">
        <ele>605.0</ele>
        <time>2021-12-28T15:26:41Z</time>
      </trkpt>
      <trkpt lat="37.5280260" lon="-4.3998600">
        <ele>605.0</ele>
        <time>2021-12-28T15:26:42Z</time>
      </trkpt>
      <trkpt lat="37.5280060" lon="-4.3998980">
        <ele>605.0</ele>
        <time>2021-12-28T15:26:43Z</time>
      </trkpt>
      <trkpt lat="37.5279870" lon="-4.3999370">
        <ele>605.0</ele>
        <time>2021-12-28T15:26:44Z</time>
      </trkpt>
      <trkpt lat="37.5279680" lon="-4.3999750">
        <ele>605.0</ele>
        <time>2021-12-28T15:26:45Z</time>
      </trkpt>
      <trkpt lat="37.5279460" lon="-4.4000140">
        <ele>605.2</ele>
        <time>2021-12-28T15:26:46Z</time>
      </trkpt>
      <trkpt lat="37.5279260" lon="-4.4000500">
        <ele>605.2</ele>
        <time>2021-12-28T15:26:47Z</time>
      </trkpt>
      <trkpt lat="37.5279070" lon="-4.4000920">
        <ele>605.2</ele>
        <time>2021-12-28T15:26:48Z</time>
      </trkpt>
      <trkpt lat="37.5278880" lon="-4.4001280">
        <ele>605.2</ele>
        <time>2021-12-28T15:26:49Z</time>
      </trkpt>
      <trkpt lat="37.5278690" lon="-4.4001660">
        <ele>605.2</ele>
        <time>2021-12-28T15:26:50Z</time>
      </trkpt>
      <trkpt lat="37.5278500" lon="-4.4002000">
        <ele>605.2</ele>
        <time>2021-12-28T15:26:51Z</time>
      </trkpt>
      <trkpt lat="37.5278340" lon="-4.4002350">
        <ele>605.2</ele>
        <time>2021-12-28T15:26:52Z</time>
      </trkpt>
      <trkpt lat="37.5278140" lon="-4.4002730">
        <ele>605.4</ele>
        <time>2021-12-28T15:26:53Z</time>
      </trkpt>
      <trkpt lat="37.5277950" lon="-4.4003130">
        <ele>605.4</ele>
        <time>2021-12-28T15:26:54Z</time>
      </trkpt>
      <trkpt lat="37.5277760" lon="-4.4003540">
        <ele>605.4</ele>
        <time>2021-12-28T15:26:55Z</time>
      </trkpt>
      <trkpt lat="37.5277570" lon="-4.4003940">
        <ele>605.4</ele>
        <time>2021-12-28T15:26:56Z</time>
      </trkpt>
      <trkpt lat="37.5277380" lon="-4.4004340">
        <ele>605.6</ele>
        <time>2021-12-28T15:26:57Z</time>
      </trkpt>
      <trkpt lat="37.5277150" lon="-4.4004730">
        <ele>605.6</ele>
        <time>2021-12-28T15:26:58Z</time>
      </trkpt>
      <trkpt lat="37.5276990" lon="-4.4005130">
        <ele>605.8</ele>
        <time>2021-12-28T15:26:59Z</time>
      </trkpt>
      <trkpt lat="37.5276770" lon="-4.4005480">
        <ele>605.8</ele>
        <time>2021-12-28T15:27:00Z</time>
      </trkpt>
      <trkpt lat="37.5276510" lon="-4.4005830">
        <ele>605.8</ele>
        <time>2021-12-28T15:27:01Z</time>
      </trkpt>
      <trkpt lat="37.5276350" lon="-4.4006180">
        <ele>606.0</ele>
        <time>2021-12-28T15:27:02Z</time>
      </trkpt>
      <trkpt lat="37.5276160" lon="-4.4006530">
        <ele>606.0</ele>
        <time>2021-12-28T15:27:03Z</time>
      </trkpt>
      <trkpt lat="37.5275970" lon="-4.4006940">
        <ele>606.0</ele>
        <time>2021-12-28T15:27:04Z</time>
      </trkpt>
      <trkpt lat="37.5275710" lon="-4.4007350">
        <ele>606.0</ele>
        <time>2021-12-28T15:27:05Z</time>
      </trkpt>
      <trkpt lat="37.5275490" lon="-4.4007720">
        <ele>606.2</ele>
        <time>2021-12-28T15:27:06Z</time>
      </trkpt>
      <trkpt lat="37.5275300" lon="-4.4008100">
        <ele>606.2</ele>
        <time>2021-12-28T15:27:07Z</time>
      </trkpt>
      <trkpt lat="37.5275100" lon="-4.4008530">
        <ele>606.2</ele>
        <time>2021-12-28T15:27:08Z</time>
      </trkpt>
      <trkpt lat="37.5274910" lon="-4.4008950">
        <ele>606.2</ele>
        <time>2021-12-28T15:27:09Z</time>
      </trkpt>
      <trkpt lat="37.5274720" lon="-4.4009330">
        <ele>606.2</ele>
        <time>2021-12-28T15:27:10Z</time>
      </trkpt>
      <trkpt lat="37.5274590" lon="-4.4009650">
        <ele>606.4</ele>
        <time>2021-12-28T15:27:11Z</time>
      </trkpt>
      <trkpt lat="37.5274400" lon="-4.4010000">
        <ele>606.2</ele>
        <time>2021-12-28T15:27:12Z</time>
      </trkpt>
      <trkpt lat="37.5274210" lon="-4.4010340">
        <ele>606.2</ele>
        <time>2021-12-28T15:27:13Z</time>
      </trkpt>
      <trkpt lat="37.5274020" lon="-4.4010700">
        <ele>606.2</ele>
        <time>2021-12-28T15:27:14Z</time>
      </trkpt>
      <trkpt lat="37.5273820" lon="-4.4011070">
        <ele>606.2</ele>
        <time>2021-12-28T15:27:15Z</time>
      </trkpt>
      <trkpt lat="37.5273630" lon="-4.4011470">
        <ele>606.2</ele>
        <time>2021-12-28T15:27:16Z</time>
      </trkpt>
      <trkpt lat="37.5273410" lon="-4.4011820">
        <ele>606.4</ele>
        <time>2021-12-28T15:27:17Z</time>
      </trkpt>
      <trkpt lat="37.5273220" lon="-4.4012180">
        <ele>606.4</ele>
        <time>2021-12-28T15:27:18Z</time>
      </trkpt>
      <trkpt lat="37.5273020" lon="-4.4012530">
        <ele>606.4</ele>
        <time>2021-12-28T15:27:19Z</time>
      </trkpt>
      <trkpt lat="37.5272800" lon="-4.4012900">
        <ele>606.4</ele>
        <time>2021-12-28T15:27:20Z</time>
      </trkpt>
      <trkpt lat="37.5272610" lon="-4.4013250">
        <ele>606.4</ele>
        <time>2021-12-28T15:27:21Z</time>
      </trkpt>
      <trkpt lat="37.5272420" lon="-4.4013580">
        <ele>606.4</ele>
        <time>2021-12-28T15:27:22Z</time>
      </trkpt>
      <trkpt lat="37.5272190" lon="-4.4013920">
        <ele>606.4</ele>
        <time>2021-12-28T15:27:23Z</time>
      </trkpt>
      <trkpt lat="37.5271940" lon="-4.4014270">
        <ele>606.4</ele>
        <time>2021-12-28T15:27:24Z</time>
      </trkpt>
      <trkpt lat="37.5271740" lon="-4.4014600">
        <ele>606.4</ele>
        <time>2021-12-28T15:27:25Z</time>
      </trkpt>
      <trkpt lat="37.5271520" lon="-4.4014950">
        <ele>606.4</ele>
        <time>2021-12-28T15:27:26Z</time>
      </trkpt>
      <trkpt lat="37.5271300" lon="-4.4015300">
        <ele>606.4</ele>
        <time>2021-12-28T15:27:27Z</time>
      </trkpt>
      <trkpt lat="37.5271100" lon="-4.4015600">
        <ele>606.4</ele>
        <time>2021-12-28T15:27:28Z</time>
      </trkpt>
      <trkpt lat="37.5270880" lon="-4.4015880">
        <ele>606.4</ele>
        <time>2021-12-28T15:27:29Z</time>
      </trkpt>
      <trkpt lat="37.5270690" lon="-4.4016150">
        <ele>606.4</ele>
        <time>2021-12-28T15:27:30Z</time>
      </trkpt>
      <trkpt lat="37.5270500" lon="-4.4016470">
        <ele>606.4</ele>
        <time>2021-12-28T15:27:31Z</time>
      </trkpt>
      <trkpt lat="37.5270270" lon="-4.4016780">
        <ele>606.4</ele>
        <time>2021-12-28T15:27:32Z</time>
      </trkpt>
      <trkpt lat="37.5269950" lon="-4.4017240">
        <ele>606.4</ele>
        <time>2021-12-28T15:27:33Z</time>
      </trkpt>
      <trkpt lat="37.5269860" lon="-4.4017400">
        <ele>606.4</ele>
        <time>2021-12-28T15:27:34Z</time>
      </trkpt>
      <trkpt lat="37.5269600" lon="-4.4017720">
        <ele>606.4</ele>
        <time>2021-12-28T15:27:35Z</time>
      </trkpt>
      <trkpt lat="37.5269340" lon="-4.4018040">
        <ele>606.4</ele>
        <time>2021-12-28T15:27:36Z</time>
      </trkpt>
      <trkpt lat="37.5269120" lon="-4.4018350">
        <ele>606.6</ele>
        <time>2021-12-28T15:27:37Z</time>
      </trkpt>
      <trkpt lat="37.5268900" lon="-4.4018650">
        <ele>606.6</ele>
        <time>2021-12-28T15:27:38Z</time>
      </trkpt>
      <trkpt lat="37.5268670" lon="-4.4018980">
        <ele>606.8</ele>
        <time>2021-12-28T15:27:39Z</time>
      </trkpt>
      <trkpt lat="37.5268420" lon="-4.4019260">
        <ele>606.8</ele>
        <time>2021-12-28T15:27:40Z</time>
      </trkpt>
      <trkpt lat="37.5268160" lon="-4.4019550">
        <ele>606.8</ele>
        <time>2021-12-28T15:27:41Z</time>
      </trkpt>
      <trkpt lat="37.5267940" lon="-4.4019850">
        <ele>607.0</ele>
        <time>2021-12-28T15:27:42Z</time>
      </trkpt>
      <trkpt lat="37.5267740" lon="-4.4020170">
        <ele>607.0</ele>
        <time>2021-12-28T15:27:43Z</time>
      </trkpt>
      <trkpt lat="37.5267490" lon="-4.4020450">
        <ele>607.0</ele>
        <time>2021-12-28T15:27:44Z</time>
      </trkpt>
      <trkpt lat="37.5267230" lon="-4.4020720">
        <ele>607.2</ele>
        <time>2021-12-28T15:27:45Z</time>
      </trkpt>
      <trkpt lat="37.5266940" lon="-4.4020980">
        <ele>607.2</ele>
        <time>2021-12-28T15:27:46Z</time>
      </trkpt>
      <trkpt lat="37.5266720" lon="-4.4021270">
        <ele>607.4</ele>
        <time>2021-12-28T15:27:47Z</time>
      </trkpt>
      <trkpt lat="37.5266430" lon="-4.4021500">
        <ele>607.4</ele>
        <time>2021-12-28T15:27:48Z</time>
      </trkpt>
      <trkpt lat="37.5266140" lon="-4.4021770">
        <ele>607.4</ele>
        <time>2021-12-28T15:27:49Z</time>
      </trkpt>
      <trkpt lat="37.5265950" lon="-4.4022050">
        <ele>607.4</ele>
        <time>2021-12-28T15:27:50Z</time>
      </trkpt>
      <trkpt lat="37.5265730" lon="-4.4022330">
        <ele>607.4</ele>
        <time>2021-12-28T15:27:51Z</time>
      </trkpt>
      <trkpt lat="37.5265470" lon="-4.4022530">
        <ele>607.4</ele>
        <time>2021-12-28T15:27:52Z</time>
      </trkpt>
      <trkpt lat="37.5265150" lon="-4.4022700">
        <ele>607.4</ele>
        <time>2021-12-28T15:27:53Z</time>
      </trkpt>
      <trkpt lat="37.5264900" lon="-4.4022980">
        <ele>607.4</ele>
        <time>2021-12-28T15:27:54Z</time>
      </trkpt>
      <trkpt lat="37.5264580" lon="-4.4023250">
        <ele>607.4</ele>
        <time>2021-12-28T15:27:55Z</time>
      </trkpt>
      <trkpt lat="37.5264290" lon="-4.4023520">
        <ele>607.4</ele>
        <time>2021-12-28T15:27:56Z</time>
      </trkpt>
      <trkpt lat="37.5264000" lon="-4.4023730">
        <ele>607.4</ele>
        <time>2021-12-28T15:27:57Z</time>
      </trkpt>
      <trkpt lat="37.5263680" lon="-4.4023950">
        <ele>607.4</ele>
        <time>2021-12-28T15:27:58Z</time>
      </trkpt>
      <trkpt lat="37.5263360" lon="-4.4024180">
        <ele>607.4</ele>
        <time>2021-12-28T15:27:59Z</time>
      </trkpt>
      <trkpt lat="37.5263100" lon="-4.4024420">
        <ele>607.2</ele>
        <time>2021-12-28T15:28:00Z</time>
      </trkpt>
      <trkpt lat="37.5262750" lon="-4.4024650">
        <ele>607.2</ele>
        <time>2021-12-28T15:28:01Z</time>
      </trkpt>
      <trkpt lat="37.5262460" lon="-4.4024870">
        <ele>607.2</ele>
        <time>2021-12-28T15:28:02Z</time>
      </trkpt>
      <trkpt lat="37.5262140" lon="-4.4025080">
        <ele>607.2</ele>
        <time>2021-12-28T15:28:03Z</time>
      </trkpt>
      <trkpt lat="37.5261790" lon="-4.4025280">
        <ele>607.0</ele>
        <time>2021-12-28T15:28:04Z</time>
      </trkpt>
      <trkpt lat="37.5261500" lon="-4.4025500">
        <ele>607.0</ele>
        <time>2021-12-28T15:28:05Z</time>
      </trkpt>
      <trkpt lat="37.5261150" lon="-4.4025700">
        <ele>607.0</ele>
        <time>2021-12-28T15:28:06Z</time>
      </trkpt>
      <trkpt lat="37.5260860" lon="-4.4025920">
        <ele>607.0</ele>
        <time>2021-12-28T15:28:07Z</time>
      </trkpt>
      <trkpt lat="37.5260540" lon="-4.4026130">
        <ele>607.0</ele>
        <time>2021-12-28T15:28:08Z</time>
      </trkpt>
      <trkpt lat="37.5260220" lon="-4.4026330">
        <ele>607.0</ele>
        <time>2021-12-28T15:28:09Z</time>
      </trkpt>
      <trkpt lat="37.5259940" lon="-4.4026530">
        <ele>607.0</ele>
        <time>2021-12-28T15:28:10Z</time>
      </trkpt>
      <trkpt lat="37.5259580" lon="-4.4026750">
        <ele>607.0</ele>
        <time>2021-12-28T15:28:11Z</time>
      </trkpt>
      <trkpt lat="37.5259300" lon="-4.4026970">
        <ele>607.0</ele>
        <time>2021-12-28T15:28:12Z</time>
      </trkpt>
      <trkpt lat="37.5258980" lon="-4.4027180">
        <ele>607.0</ele>
        <time>2021-12-28T15:28:13Z</time>
      </trkpt>
      <trkpt lat="37.5258620" lon="-4.4027370">
        <ele>607.0</ele>
        <time>2021-12-28T15:28:14Z</time>
      </trkpt>
      <trkpt lat="37.5258340" lon="-4.4027550">
        <ele>607.0</ele>
        <time>2021-12-28T15:28:15Z</time>
      </trkpt>
      <trkpt lat="37.5257950" lon="-4.4027700">
        <ele>607.0</ele>
        <time>2021-12-28T15:28:16Z</time>
      </trkpt>
      <trkpt lat="37.5257630" lon="-4.4027880">
        <ele>607.0</ele>
        <time>2021-12-28T15:28:17Z</time>
      </trkpt>
      <trkpt lat="37.5257310" lon="-4.4028070">
        <ele>607.0</ele>
        <time>2021-12-28T15:28:18Z</time>
      </trkpt>
      <trkpt lat="37.5256990" lon="-4.4028240">
        <ele>606.8</ele>
        <time>2021-12-28T15:28:19Z</time>
      </trkpt>
      <trkpt lat="37.5256610" lon="-4.4028420">
        <ele>606.8</ele>
        <time>2021-12-28T15:28:20Z</time>
      </trkpt>
      <trkpt lat="37.5256320" lon="-4.4028600">
        <ele>606.8</ele>
        <time>2021-12-28T15:28:21Z</time>
      </trkpt>
      <trkpt lat="37.5255970" lon="-4.4028780">
        <ele>606.8</ele>
        <time>2021-12-28T15:28:22Z</time>
      </trkpt>
      <trkpt lat="37.5255580" lon="-4.4028950">
        <ele>606.8</ele>
        <time>2021-12-28T15:28:23Z</time>
      </trkpt>
      <trkpt lat="37.5255230" lon="-4.4029130">
        <ele>606.6</ele>
        <time>2021-12-28T15:28:24Z</time>
      </trkpt>
      <trkpt lat="37.5254910" lon="-4.4029330">
        <ele>606.6</ele>
        <time>2021-12-28T15:28:25Z</time>
      </trkpt>
      <trkpt lat="37.5254560" lon="-4.4029500">
        <ele>606.6</ele>
        <time>2021-12-28T15:28:26Z</time>
      </trkpt>
      <trkpt lat="37.5254210" lon="-4.4029630">
        <ele>606.6</ele>
        <time>2021-12-28T15:28:27Z</time>
      </trkpt>
      <trkpt lat="37.5253860" lon="-4.4029820">
        <ele>606.6</ele>
        <time>2021-12-28T15:28:28Z</time>
      </trkpt>
      <trkpt lat="37.5253470" lon="-4.4030020">
        <ele>606.4</ele>
        <time>2021-12-28T15:28:29Z</time>
      </trkpt>
      <trkpt lat="37.5253120" lon="-4.4030220">
        <ele>606.4</ele>
        <time>2021-12-28T15:28:30Z</time>
      </trkpt>
      <trkpt lat="37.5252740" lon="-4.4030420">
        <ele>606.4</ele>
        <time>2021-12-28T15:28:31Z</time>
      </trkpt>
      <trkpt lat="37.5252420" lon="-4.4030600">
        <ele>606.4</ele>
        <time>2021-12-28T15:28:32Z</time>
      </trkpt>
      <trkpt lat="37.5252030" lon="-4.4030770">
        <ele>606.4</ele>
        <time>2021-12-28T15:28:33Z</time>
      </trkpt>
      <trkpt lat="37.5251680" lon="-4.4030930">
        <ele>606.4</ele>
        <time>2021-12-28T15:28:34Z</time>
      </trkpt>
      <trkpt lat="37.5251330" lon="-4.4031100">
        <ele>606.4</ele>
        <time>2021-12-28T15:28:35Z</time>
      </trkpt>
      <trkpt lat="37.5250940" lon="-4.4031300">
        <ele>606.4</ele>
        <time>2021-12-28T15:28:36Z</time>
      </trkpt>
      <trkpt lat="37.5250560" lon="-4.4031500">
        <ele>606.6</ele>
        <time>2021-12-28T15:28:37Z</time>
      </trkpt>
      <trkpt lat="37.5250210" lon="-4.4031680">
        <ele>606.6</ele>
        <time>2021-12-28T15:28:38Z</time>
      </trkpt>
      <trkpt lat="37.5249860" lon="-4.4031900">
        <ele>606.6</ele>
        <time>2021-12-28T15:28:39Z</time>
      </trkpt>
      <trkpt lat="37.5249470" lon="-4.4032080">
        <ele>606.6</ele>
        <time>2021-12-28T15:28:40Z</time>
      </trkpt>
      <trkpt lat="37.5249060" lon="-4.4032240">
        <ele>606.6</ele>
        <time>2021-12-28T15:28:41Z</time>
      </trkpt>
      <trkpt lat="37.5248640" lon="-4.4032420">
        <ele>606.8</ele>
        <time>2021-12-28T15:28:42Z</time>
      </trkpt>
      <trkpt lat="37.5248190" lon="-4.4032560">
        <ele>606.8</ele>
        <time>2021-12-28T15:28:43Z</time>
      </trkpt>
      <trkpt lat="37.5247780" lon="-4.4032720">
        <ele>606.8</ele>
        <time>2021-12-28T15:28:44Z</time>
      </trkpt>
      <trkpt lat="37.5247390" lon="-4.4032860">
        <ele>606.8</ele>
        <time>2021-12-28T15:28:45Z</time>
      </trkpt>
      <trkpt lat="37.5247040" lon="-4.4033050">
        <ele>607.0</ele>
        <time>2021-12-28T15:28:46Z</time>
      </trkpt>
      <trkpt lat="37.5246690" lon="-4.4033200">
        <ele>607.0</ele>
        <time>2021-12-28T15:28:47Z</time>
      </trkpt>
      <trkpt lat="37.5246430" lon="-4.4033320">
        <ele>607.0</ele>
        <time>2021-12-28T15:28:48Z</time>
      </trkpt>
      <trkpt lat="37.5246240" lon="-4.4033380">
        <ele>607.0</ele>
        <time>2021-12-28T15:28:49Z</time>
      </trkpt>
      <trkpt lat="37.5246240" lon="-4.4033380">
        <ele>607.0</ele>
        <time>2021-12-28T15:28:50Z</time>
      </trkpt>
      <trkpt lat="37.5246020" lon="-4.4033460">
        <ele>607.0</ele>
        <time>2021-12-28T15:28:51Z</time>
      </trkpt>
      <trkpt lat="37.5246020" lon="-4.4033460">
        <ele>607.0</ele>
        <time>2021-12-28T15:28:52Z</time>
      </trkpt>
      <trkpt lat="37.5246020" lon="-4.4033460">
        <ele>607.0</ele>
        <time>2021-12-28T15:28:53Z</time>
      </trkpt>
      <trkpt lat="37.5246020" lon="-4.4033460">
        <ele>607.0</ele>
        <time>2021-12-28T15:28:54Z</time>
      </trkpt>
      <trkpt lat="37.5246020" lon="-4.4033460">
        <ele>607.0</ele>
        <time>2021-12-28T15:28:55Z</time>
      </trkpt>
      <trkpt lat="37.5244990" lon="-4.4033880">
        <ele>609.8</ele>
        <time>2021-12-28T15:32:30Z</time>
      </trkpt>
      <trkpt lat="37.5244640" lon="-4.4034030">
        <ele>609.8</ele>
        <time>2021-12-28T15:32:31Z</time>
      </trkpt>
      <trkpt lat="37.5244320" lon="-4.4034200">
        <ele>609.8</ele>
        <time>2021-12-28T15:32:32Z</time>
      </trkpt>
      <trkpt lat="37.5244000" lon="-4.4034370">
        <ele>609.8</ele>
        <time>2021-12-28T15:32:33Z</time>
      </trkpt>
      <trkpt lat="37.5243620" lon="-4.4034520">
        <ele>609.8</ele>
        <time>2021-12-28T15:32:34Z</time>
      </trkpt>
      <trkpt lat="37.5243230" lon="-4.4034670">
        <ele>609.8</ele>
        <time>2021-12-28T15:32:35Z</time>
      </trkpt>
      <trkpt lat="37.5242880" lon="-4.4034830">
        <ele>609.8</ele>
        <time>2021-12-28T15:32:36Z</time>
      </trkpt>
      <trkpt lat="37.5242590" lon="-4.4034980">
        <ele>609.8</ele>
        <time>2021-12-28T15:32:37Z</time>
      </trkpt>
      <trkpt lat="37.5242240" lon="-4.4035170">
        <ele>609.8</ele>
        <time>2021-12-28T15:32:38Z</time>
      </trkpt>
      <trkpt lat="37.5241890" lon="-4.4035370">
        <ele>609.8</ele>
        <time>2021-12-28T15:32:39Z</time>
      </trkpt>
      <trkpt lat="37.5241540" lon="-4.4035570">
        <ele>609.8</ele>
        <time>2021-12-28T15:32:40Z</time>
      </trkpt>
      <trkpt lat="37.5241220" lon="-4.4035750">
        <ele>609.8</ele>
        <time>2021-12-28T15:32:41Z</time>
      </trkpt>
      <trkpt lat="37.5240860" lon="-4.4035940">
        <ele>609.8</ele>
        <time>2021-12-28T15:32:42Z</time>
      </trkpt>
      <trkpt lat="37.5240540" lon="-4.4036120">
        <ele>609.8</ele>
        <time>2021-12-28T15:32:43Z</time>
      </trkpt>
      <trkpt lat="37.5240260" lon="-4.4036320">
        <ele>609.8</ele>
        <time>2021-12-28T15:32:44Z</time>
      </trkpt>
      <trkpt lat="37.5239870" lon="-4.4036520">
        <ele>609.8</ele>
        <time>2021-12-28T15:32:45Z</time>
      </trkpt>
      <trkpt lat="37.5239550" lon="-4.4036700">
        <ele>609.6</ele>
        <time>2021-12-28T15:32:46Z</time>
      </trkpt>
      <trkpt lat="37.5239230" lon="-4.4036880">
        <ele>609.6</ele>
        <time>2021-12-28T15:32:47Z</time>
      </trkpt>
      <trkpt lat="37.5238880" lon="-4.4037100">
        <ele>609.6</ele>
        <time>2021-12-28T15:32:48Z</time>
      </trkpt>
      <trkpt lat="37.5238500" lon="-4.4037350">
        <ele>609.6</ele>
        <time>2021-12-28T15:32:49Z</time>
      </trkpt>
      <trkpt lat="37.5238080" lon="-4.4037600">
        <ele>609.4</ele>
        <time>2021-12-28T15:32:50Z</time>
      </trkpt>
      <trkpt lat="37.5237700" lon="-4.4037850">
        <ele>609.4</ele>
        <time>2021-12-28T15:32:51Z</time>
      </trkpt>
      <trkpt lat="37.5237280" lon="-4.4038100">
        <ele>609.2</ele>
        <time>2021-12-28T15:32:52Z</time>
      </trkpt>
      <trkpt lat="37.5236860" lon="-4.4038370">
        <ele>609.2</ele>
        <time>2021-12-28T15:32:53Z</time>
      </trkpt>
      <trkpt lat="37.5236480" lon="-4.4038650">
        <ele>609.2</ele>
        <time>2021-12-28T15:32:54Z</time>
      </trkpt>
      <trkpt lat="37.5236100" lon="-4.4038950">
        <ele>609.0</ele>
        <time>2021-12-28T15:32:55Z</time>
      </trkpt>
      <trkpt lat="37.5235740" lon="-4.4039240">
        <ele>609.0</ele>
        <time>2021-12-28T15:32:56Z</time>
      </trkpt>
      <trkpt lat="37.5235360" lon="-4.4039540">
        <ele>609.0</ele>
        <time>2021-12-28T15:32:57Z</time>
      </trkpt>
      <trkpt lat="37.5234940" lon="-4.4039830">
        <ele>609.0</ele>
        <time>2021-12-28T15:32:58Z</time>
      </trkpt>
      <trkpt lat="37.5234590" lon="-4.4040160">
        <ele>608.8</ele>
        <time>2021-12-28T15:32:59Z</time>
      </trkpt>
      <trkpt lat="37.5234180" lon="-4.4040480">
        <ele>608.8</ele>
        <time>2021-12-28T15:33:00Z</time>
      </trkpt>
      <trkpt lat="37.5233860" lon="-4.4040780">
        <ele>608.8</ele>
        <time>2021-12-28T15:33:01Z</time>
      </trkpt>
      <trkpt lat="37.5233470" lon="-4.4041080">
        <ele>608.8</ele>
        <time>2021-12-28T15:33:02Z</time>
      </trkpt>
      <trkpt lat="37.5233120" lon="-4.4041380">
        <ele>608.6</ele>
        <time>2021-12-28T15:33:03Z</time>
      </trkpt>
      <trkpt lat="37.5232740" lon="-4.4041650">
        <ele>608.6</ele>
        <time>2021-12-28T15:33:04Z</time>
      </trkpt>
      <trkpt lat="37.5232380" lon="-4.4041920">
        <ele>608.6</ele>
        <time>2021-12-28T15:33:05Z</time>
      </trkpt>
      <trkpt lat="37.5232060" lon="-4.4042180">
        <ele>608.6</ele>
        <time>2021-12-28T15:33:06Z</time>
      </trkpt>
      <trkpt lat="37.5231680" lon="-4.4042480">
        <ele>608.4</ele>
        <time>2021-12-28T15:33:07Z</time>
      </trkpt>
      <trkpt lat="37.5231330" lon="-4.4042800">
        <ele>608.4</ele>
        <time>2021-12-28T15:33:08Z</time>
      </trkpt>
      <trkpt lat="37.5230980" lon="-4.4043120">
        <ele>608.2</ele>
        <time>2021-12-28T15:33:09Z</time>
      </trkpt>
      <trkpt lat="37.5230590" lon="-4.4043430">
        <ele>608.2</ele>
        <time>2021-12-28T15:33:10Z</time>
      </trkpt>
      <trkpt lat="37.5230240" lon="-4.4043730">
        <ele>608.0</ele>
        <time>2021-12-28T15:33:11Z</time>
      </trkpt>
      <trkpt lat="37.5229890" lon="-4.4044000">
        <ele>608.0</ele>
        <time>2021-12-28T15:33:12Z</time>
      </trkpt>
      <trkpt lat="37.5229540" lon="-4.4044260">
        <ele>607.8</ele>
        <time>2021-12-28T15:33:13Z</time>
      </trkpt>
      <trkpt lat="37.5229180" lon="-4.4044570">
        <ele>607.8</ele>
        <time>2021-12-28T15:33:14Z</time>
      </trkpt>
      <trkpt lat="37.5228830" lon="-4.4044870">
        <ele>607.6</ele>
        <time>2021-12-28T15:33:15Z</time>
      </trkpt>
      <trkpt lat="37.5228510" lon="-4.4045170">
        <ele>607.6</ele>
        <time>2021-12-28T15:33:16Z</time>
      </trkpt>
      <trkpt lat="37.5228160" lon="-4.4045450">
        <ele>607.6</ele>
        <time>2021-12-28T15:33:17Z</time>
      </trkpt>
      <trkpt lat="37.5227840" lon="-4.4045720">
        <ele>607.6</ele>
        <time>2021-12-28T15:33:18Z</time>
      </trkpt>
      <trkpt lat="37.5227550" lon="-4.4046000">
        <ele>607.6</ele>
        <time>2021-12-28T15:33:19Z</time>
      </trkpt>
      <trkpt lat="37.5227200" lon="-4.4046250">
        <ele>607.4</ele>
        <time>2021-12-28T15:33:20Z</time>
      </trkpt>
      <trkpt lat="37.5226910" lon="-4.4046520">
        <ele>607.4</ele>
        <time>2021-12-28T15:33:21Z</time>
      </trkpt>
      <trkpt lat="37.5226560" lon="-4.4046800">
        <ele>607.4</ele>
        <time>2021-12-28T15:33:22Z</time>
      </trkpt>
      <trkpt lat="37.5226240" lon="-4.4047080">
        <ele>607.4</ele>
        <time>2021-12-28T15:33:23Z</time>
      </trkpt>
      <trkpt lat="37.5225950" lon="-4.4047350">
        <ele>607.4</ele>
        <time>2021-12-28T15:33:24Z</time>
      </trkpt>
      <trkpt lat="37.5225600" lon="-4.4047650">
        <ele>607.2</ele>
        <time>2021-12-28T15:33:25Z</time>
      </trkpt>
      <trkpt lat="37.5225250" lon="-4.4047950">
        <ele>607.2</ele>
        <time>2021-12-28T15:33:26Z</time>
      </trkpt>
      <trkpt lat="37.5224930" lon="-4.4048250">
        <ele>607.2</ele>
        <time>2021-12-28T15:33:27Z</time>
      </trkpt>
      <trkpt lat="37.5224540" lon="-4.4048530">
        <ele>607.2</ele>
        <time>2021-12-28T15:33:28Z</time>
      </trkpt>
      <trkpt lat="37.5224190" lon="-4.4048820">
        <ele>607.0</ele>
        <time>2021-12-28T15:33:29Z</time>
      </trkpt>
      <trkpt lat="37.5223810" lon="-4.4049100">
        <ele>607.0</ele>
        <time>2021-12-28T15:33:30Z</time>
      </trkpt>
      <trkpt lat="37.5223460" lon="-4.4049380">
        <ele>606.8</ele>
        <time>2021-12-28T15:33:31Z</time>
      </trkpt>
      <trkpt lat="37.5223140" lon="-4.4049680">
        <ele>606.8</ele>
        <time>2021-12-28T15:33:32Z</time>
      </trkpt>
      <trkpt lat="37.5222780" lon="-4.4050020">
        <ele>606.8</ele>
        <time>2021-12-28T15:33:33Z</time>
      </trkpt>
      <trkpt lat="37.5222430" lon="-4.4050320">
        <ele>606.8</ele>
        <time>2021-12-28T15:33:34Z</time>
      </trkpt>
      <trkpt lat="37.5222020" lon="-4.4050630">
        <ele>606.8</ele>
        <time>2021-12-28T15:33:35Z</time>
      </trkpt>
      <trkpt lat="37.5221630" lon="-4.4050950">
        <ele>606.6</ele>
        <time>2021-12-28T15:33:36Z</time>
      </trkpt>
      <trkpt lat="37.5221250" lon="-4.4051260">
        <ele>606.6</ele>
        <time>2021-12-28T15:33:37Z</time>
      </trkpt>
      <trkpt lat="37.5220830" lon="-4.4051600">
        <ele>606.4</ele>
        <time>2021-12-28T15:33:38Z</time>
      </trkpt>
      <trkpt lat="37.5220450" lon="-4.4051930">
        <ele>606.4</ele>
        <time>2021-12-28T15:33:39Z</time>
      </trkpt>
      <trkpt lat="37.5220030" lon="-4.4052280">
        <ele>606.2</ele>
        <time>2021-12-28T15:33:40Z</time>
      </trkpt>
      <trkpt lat="37.5219580" lon="-4.4052640">
        <ele>606.2</ele>
        <time>2021-12-28T15:33:41Z</time>
      </trkpt>
      <trkpt lat="37.5219100" lon="-4.4052950">
        <ele>606.0</ele>
        <time>2021-12-28T15:33:42Z</time>
      </trkpt>
      <trkpt lat="37.5218720" lon="-4.4053300">
        <ele>605.8</ele>
        <time>2021-12-28T15:33:43Z</time>
      </trkpt>
      <trkpt lat="37.5218270" lon="-4.4053680">
        <ele>605.8</ele>
        <time>2021-12-28T15:33:44Z</time>
      </trkpt>
      <trkpt lat="37.5217860" lon="-4.4054050">
        <ele>605.6</ele>
        <time>2021-12-28T15:33:45Z</time>
      </trkpt>
      <trkpt lat="37.5217440" lon="-4.4054400">
        <ele>605.6</ele>
        <time>2021-12-28T15:33:46Z</time>
      </trkpt>
      <trkpt lat="37.5217020" lon="-4.4054750">
        <ele>605.4</ele>
        <time>2021-12-28T15:33:47Z</time>
      </trkpt>
      <trkpt lat="37.5216580" lon="-4.4055100">
        <ele>605.4</ele>
        <time>2021-12-28T15:33:48Z</time>
      </trkpt>
      <trkpt lat="37.5216130" lon="-4.4055450">
        <ele>605.2</ele>
        <time>2021-12-28T15:33:49Z</time>
      </trkpt>
      <trkpt lat="37.5215710" lon="-4.4055820">
        <ele>605.2</ele>
        <time>2021-12-28T15:33:50Z</time>
      </trkpt>
      <trkpt lat="37.5215300" lon="-4.4056180">
        <ele>605.0</ele>
        <time>2021-12-28T15:33:51Z</time>
      </trkpt>
      <trkpt lat="37.5214880" lon="-4.4056540">
        <ele>605.0</ele>
        <time>2021-12-28T15:33:52Z</time>
      </trkpt>
      <trkpt lat="37.5214500" lon="-4.4056870">
        <ele>604.8</ele>
        <time>2021-12-28T15:33:53Z</time>
      </trkpt>
      <trkpt lat="37.5214080" lon="-4.4057200">
        <ele>604.8</ele>
        <time>2021-12-28T15:33:54Z</time>
      </trkpt>
      <trkpt lat="37.5213630" lon="-4.4057550">
        <ele>604.6</ele>
        <time>2021-12-28T15:33:55Z</time>
      </trkpt>
      <trkpt lat="37.5213150" lon="-4.4057900">
        <ele>604.6</ele>
        <time>2021-12-28T15:33:56Z</time>
      </trkpt>
      <trkpt lat="37.5212700" lon="-4.4058260">
        <ele>604.6</ele>
        <time>2021-12-28T15:33:57Z</time>
      </trkpt>
      <trkpt lat="37.5212290" lon="-4.4058620">
        <ele>604.4</ele>
        <time>2021-12-28T15:33:58Z</time>
      </trkpt>
      <trkpt lat="37.5211870" lon="-4.4058950">
        <ele>604.4</ele>
        <time>2021-12-28T15:33:59Z</time>
      </trkpt>
      <trkpt lat="37.5211460" lon="-4.4059270">
        <ele>604.4</ele>
        <time>2021-12-28T15:34:00Z</time>
      </trkpt>
      <trkpt lat="37.5210980" lon="-4.4059620">
        <ele>604.2</ele>
        <time>2021-12-28T15:34:01Z</time>
      </trkpt>
      <trkpt lat="37.5210620" lon="-4.4059950">
        <ele>604.2</ele>
        <time>2021-12-28T15:34:02Z</time>
      </trkpt>
      <trkpt lat="37.5210140" lon="-4.4060280">
        <ele>604.0</ele>
        <time>2021-12-28T15:34:03Z</time>
      </trkpt>
      <trkpt lat="37.5209730" lon="-4.4060650">
        <ele>604.0</ele>
        <time>2021-12-28T15:34:04Z</time>
      </trkpt>
      <trkpt lat="37.5209280" lon="-4.4060980">
        <ele>603.8</ele>
        <time>2021-12-28T15:34:05Z</time>
      </trkpt>
      <trkpt lat="37.5208860" lon="-4.4061330">
        <ele>603.8</ele>
        <time>2021-12-28T15:34:06Z</time>
      </trkpt>
      <trkpt lat="37.5208450" lon="-4.4061680">
        <ele>603.8</ele>
        <time>2021-12-28T15:34:07Z</time>
      </trkpt>
      <trkpt lat="37.5208000" lon="-4.4062000">
        <ele>603.6</ele>
        <time>2021-12-28T15:34:08Z</time>
      </trkpt>
      <trkpt lat="37.5207650" lon="-4.4062320">
        <ele>603.6</ele>
        <time>2021-12-28T15:34:09Z</time>
      </trkpt>
      <trkpt lat="37.5207170" lon="-4.4062650">
        <ele>603.6</ele>
        <time>2021-12-28T15:34:10Z</time>
      </trkpt>
      <trkpt lat="37.5206750" lon="-4.4062980">
        <ele>603.6</ele>
        <time>2021-12-28T15:34:11Z</time>
      </trkpt>
      <trkpt lat="37.5206370" lon="-4.4063280">
        <ele>603.4</ele>
        <time>2021-12-28T15:34:12Z</time>
      </trkpt>
      <trkpt lat="37.5205950" lon="-4.4063600">
        <ele>603.4</ele>
        <time>2021-12-28T15:34:13Z</time>
      </trkpt>
      <trkpt lat="37.5205540" lon="-4.4063920">
        <ele>603.4</ele>
        <time>2021-12-28T15:34:14Z</time>
      </trkpt>
      <trkpt lat="37.5205120" lon="-4.4064240">
        <ele>603.4</ele>
        <time>2021-12-28T15:34:15Z</time>
      </trkpt>
      <trkpt lat="37.5204700" lon="-4.4064530">
        <ele>603.2</ele>
        <time>2021-12-28T15:34:16Z</time>
      </trkpt>
      <trkpt lat="37.5204290" lon="-4.4064830">
        <ele>603.2</ele>
        <time>2021-12-28T15:34:17Z</time>
      </trkpt>
      <trkpt lat="37.5203870" lon="-4.4065100">
        <ele>603.2</ele>
        <time>2021-12-28T15:34:18Z</time>
      </trkpt>
      <trkpt lat="37.5203420" lon="-4.4065400">
        <ele>603.0</ele>
        <time>2021-12-28T15:34:19Z</time>
      </trkpt>
      <trkpt lat="37.5203010" lon="-4.4065650">
        <ele>603.0</ele>
        <time>2021-12-28T15:34:20Z</time>
      </trkpt>
      <trkpt lat="37.5202590" lon="-4.4065900">
        <ele>602.8</ele>
        <time>2021-12-28T15:34:21Z</time>
      </trkpt>
      <trkpt lat="37.5202180" lon="-4.4066150">
        <ele>602.8</ele>
        <time>2021-12-28T15:34:22Z</time>
      </trkpt>
      <trkpt lat="37.5201730" lon="-4.4066420">
        <ele>602.6</ele>
        <time>2021-12-28T15:34:23Z</time>
      </trkpt>
      <trkpt lat="37.5201310" lon="-4.4066650">
        <ele>602.6</ele>
        <time>2021-12-28T15:34:24Z</time>
      </trkpt>
      <trkpt lat="37.5200830" lon="-4.4066880">
        <ele>602.4</ele>
        <time>2021-12-28T15:34:25Z</time>
      </trkpt>
      <trkpt lat="37.5200380" lon="-4.4067080">
        <ele>602.4</ele>
        <time>2021-12-28T15:34:26Z</time>
      </trkpt>
      <trkpt lat="37.5199970" lon="-4.4067280">
        <ele>602.2</ele>
        <time>2021-12-28T15:34:27Z</time>
      </trkpt>
      <trkpt lat="37.5199520" lon="-4.4067480">
        <ele>602.2</ele>
        <time>2021-12-28T15:34:28Z</time>
      </trkpt>
      <trkpt lat="37.5199040" lon="-4.4067680">
        <ele>602.0</ele>
        <time>2021-12-28T15:34:29Z</time>
      </trkpt>
      <trkpt lat="37.5198560" lon="-4.4067850">
        <ele>602.0</ele>
        <time>2021-12-28T15:34:30Z</time>
      </trkpt>
      <trkpt lat="37.5198020" lon="-4.4068030">
        <ele>601.8</ele>
        <time>2021-12-28T15:34:31Z</time>
      </trkpt>
      <trkpt lat="37.5197540" lon="-4.4068230">
        <ele>601.8</ele>
        <time>2021-12-28T15:34:32Z</time>
      </trkpt>
      <trkpt lat="37.5196990" lon="-4.4068380">
        <ele>601.6</ele>
        <time>2021-12-28T15:34:33Z</time>
      </trkpt>
      <trkpt lat="37.5196990" lon="-4.4068380">
        <ele>601.6</ele>
        <time>2021-12-28T15:34:34Z</time>
      </trkpt>
      <trkpt lat="37.5196990" lon="-4.4068380">
        <ele>601.6</ele>
        <time>2021-12-28T15:34:35Z</time>
      </trkpt>
      <trkpt lat="37.5196990" lon="-4.4068380">
        <ele>601.6</ele>
        <time>2021-12-28T15:34:36Z</time>
      </trkpt>
      <trkpt lat="37.5196990" lon="-4.4068380">
        <ele>601.6</ele>
        <time>2021-12-28T15:34:37Z</time>
      </trkpt>
      <trkpt lat="37.5196990" lon="-4.4068380">
        <ele>601.6</ele>
        <time>2021-12-28T15:34:38Z</time>
      </trkpt>
      <trkpt lat="37.5196990" lon="-4.4068380">
        <ele>601.6</ele>
        <time>2021-12-28T15:34:39Z</time>
      </trkpt>
      <trkpt lat="37.5196990" lon="-4.4068380">
        <ele>601.6</ele>
        <time>2021-12-28T15:34:40Z</time>
      </trkpt>
      <trkpt lat="37.5196990" lon="-4.4068380">
        <ele>601.6</ele>
        <time>2021-12-28T15:34:41Z</time>
      </trkpt>
      <trkpt lat="37.5196990" lon="-4.4068380">
        <ele>601.6</ele>
        <time>2021-12-28T15:34:42Z</time>
      </trkpt>
      <trkpt lat="37.5196990" lon="-4.4068380">
        <ele>601.6</ele>
        <time>2021-12-28T15:34:43Z</time>
      </trkpt>
      <trkpt lat="37.5196990" lon="-4.4068380">
        <ele>601.6</ele>
        <time>2021-12-28T15:34:44Z</time>
      </trkpt>
      <trkpt lat="37.5196990" lon="-4.4068380">
        <ele>601.6</ele>
        <time>2021-12-28T15:34:45Z</time>
      </trkpt>
      <trkpt lat="37.5196990" lon="-4.4068380">
        <ele>601.6</ele>
        <time>2021-12-28T15:34:46Z</time>
      </trkpt>
      <trkpt lat="37.5196990" lon="-4.4068380">
        <ele>601.6</ele>
        <time>2021-12-28T15:34:47Z</time>
      </trkpt>
      <trkpt lat="37.5196990" lon="-4.4068380">
        <ele>601.6</ele>
        <time>2021-12-28T15:34:48Z</time>
      </trkpt>
      <trkpt lat="37.5196990" lon="-4.4068380">
        <ele>601.6</ele>
        <time>2021-12-28T15:34:49Z</time>
      </trkpt>
      <trkpt lat="37.5196990" lon="-4.4068380">
        <ele>601.6</ele>
        <time>2021-12-28T15:34:50Z</time>
      </trkpt>
      <trkpt lat="37.5196990" lon="-4.4068380">
        <ele>601.6</ele>
        <time>2021-12-28T15:34:51Z</time>
      </trkpt>
      <trkpt lat="37.5196990" lon="-4.4068380">
        <ele>601.6</ele>
        <time>2021-12-28T15:34:52Z</time>
      </trkpt>
      <trkpt lat="37.5196990" lon="-4.4068380">
        <ele>601.6</ele>
        <time>2021-12-28T15:34:53Z</time>
      </trkpt>
      <trkpt lat="37.5196990" lon="-4.4068380">
        <ele>601.6</ele>
        <time>2021-12-28T15:34:54Z</time>
      </trkpt>
      <trkpt lat="37.5196990" lon="-4.4068380">
        <ele>601.6</ele>
        <time>2021-12-28T15:34:55Z</time>
      </trkpt>
      <trkpt lat="37.5196990" lon="-4.4068380">
        <ele>601.6</ele>
        <time>2021-12-28T15:34:56Z</time>
      </trkpt>
      <trkpt lat="37.5196990" lon="-4.4068380">
        <ele>601.6</ele>
        <time>2021-12-28T15:34:57Z</time>
      </trkpt>
      <trkpt lat="37.5196990" lon="-4.4068380">
        <ele>601.6</ele>
        <time>2021-12-28T15:34:58Z</time>
      </trkpt>
      <trkpt lat="37.5196990" lon="-4.4068380">
        <ele>601.6</ele>
        <time>2021-12-28T15:34:59Z</time>
      </trkpt>
      <trkpt lat="37.5196990" lon="-4.4068380">
        <ele>601.6</ele>
        <time>2021-12-28T15:35:00Z</time>
      </trkpt>
      <trkpt lat="37.5196990" lon="-4.4068380">
        <ele>601.6</ele>
        <time>2021-12-28T15:35:01Z</time>
      </trkpt>
      <trkpt lat="37.5196990" lon="-4.4068380">
        <ele>601.6</ele>
        <time>2021-12-28T15:35:02Z</time>
      </trkpt>
      <trkpt lat="37.5196990" lon="-4.4068380">
        <ele>601.6</ele>
        <time>2021-12-28T15:35:03Z</time>
      </trkpt>
      <trkpt lat="37.5196990" lon="-4.4068380">
        <ele>601.6</ele>
        <time>2021-12-28T15:35:04Z</time>
      </trkpt>
      <trkpt lat="37.5196990" lon="-4.4068380">
        <ele>601.6</ele>
        <time>2021-12-28T15:35:05Z</time>
      </trkpt>
      <trkpt lat="37.5196990" lon="-4.4068380">
        <ele>601.6</ele>
        <time>2021-12-28T15:35:06Z</time>
      </trkpt>
      <trkpt lat="37.5196990" lon="-4.4068380">
        <ele>601.6</ele>
        <time>2021-12-28T15:35:07Z</time>
      </trkpt>
      <trkpt lat="37.5196990" lon="-4.4068380">
        <ele>601.6</ele>
        <time>2021-12-28T15:35:08Z</time>
      </trkpt>
      <trkpt lat="37.5196990" lon="-4.4068380">
        <ele>601.6</ele>
        <time>2021-12-28T15:35:09Z</time>
      </trkpt>
      <trkpt lat="37.5196990" lon="-4.4068380">
        <ele>601.6</ele>
        <time>2021-12-28T15:35:10Z</time>
      </trkpt>
      <trkpt lat="37.5196990" lon="-4.4068380">
        <ele>601.6</ele>
        <time>2021-12-28T15:35:11Z</time>
      </trkpt>
      <trkpt lat="37.5172450" lon="-4.4065700">
        <ele>602.2</ele>
        <time>2021-12-28T15:35:26Z</time>
      </trkpt>
      <trkpt lat="37.5171970" lon="-4.4065480">
        <ele>602.2</ele>
        <time>2021-12-28T15:35:27Z</time>
      </trkpt>
      <trkpt lat="37.5171580" lon="-4.4065260">
        <ele>602.2</ele>
        <time>2021-12-28T15:35:28Z</time>
      </trkpt>
      <trkpt lat="37.5171230" lon="-4.4065100">
        <ele>602.2</ele>
        <time>2021-12-28T15:35:29Z</time>
      </trkpt>
      <trkpt lat="37.5170910" lon="-4.4064960">
        <ele>602.0</ele>
        <time>2021-12-28T15:35:30Z</time>
      </trkpt>
      <trkpt lat="37.5170460" lon="-4.4064750">
        <ele>602.0</ele>
        <time>2021-12-28T15:35:31Z</time>
      </trkpt>
      <trkpt lat="37.5170110" lon="-4.4064530">
        <ele>602.0</ele>
        <time>2021-12-28T15:35:32Z</time>
      </trkpt>
      <trkpt lat="37.5169660" lon="-4.4064350">
        <ele>602.0</ele>
        <time>2021-12-28T15:35:33Z</time>
      </trkpt>
      <trkpt lat="37.5169250" lon="-4.4064120">
        <ele>602.0</ele>
        <time>2021-12-28T15:35:34Z</time>
      </trkpt>
      <trkpt lat="37.5168860" lon="-4.4063920">
        <ele>601.8</ele>
        <time>2021-12-28T15:35:35Z</time>
      </trkpt>
      <trkpt lat="37.5168420" lon="-4.4063680">
        <ele>601.8</ele>
        <time>2021-12-28T15:35:36Z</time>
      </trkpt>
      <trkpt lat="37.5168000" lon="-4.4063450">
        <ele>601.8</ele>
        <time>2021-12-28T15:35:37Z</time>
      </trkpt>
      <trkpt lat="37.5167550" lon="-4.4063250">
        <ele>601.6</ele>
        <time>2021-12-28T15:35:38Z</time>
      </trkpt>
      <trkpt lat="37.5167070" lon="-4.4063050">
        <ele>601.4</ele>
        <time>2021-12-28T15:35:39Z</time>
      </trkpt>
      <trkpt lat="37.5166660" lon="-4.4062830">
        <ele>601.4</ele>
        <time>2021-12-28T15:35:40Z</time>
      </trkpt>
      <trkpt lat="37.5166210" lon="-4.4062580">
        <ele>601.2</ele>
        <time>2021-12-28T15:35:41Z</time>
      </trkpt>
      <trkpt lat="37.5165760" lon="-4.4062380">
        <ele>601.0</ele>
        <time>2021-12-28T15:35:42Z</time>
      </trkpt>
      <trkpt lat="37.5165280" lon="-4.4062130">
        <ele>601.0</ele>
        <time>2021-12-28T15:35:43Z</time>
      </trkpt>
      <trkpt lat="37.5164800" lon="-4.4061900">
        <ele>600.8</ele>
        <time>2021-12-28T15:35:44Z</time>
      </trkpt>
      <trkpt lat="37.5164290" lon="-4.4061700">
        <ele>600.8</ele>
        <time>2021-12-28T15:35:45Z</time>
      </trkpt>
      <trkpt lat="37.5163780" lon="-4.4061460">
        <ele>600.6</ele>
        <time>2021-12-28T15:35:46Z</time>
      </trkpt>
      <trkpt lat="37.5163260" lon="-4.4061230">
        <ele>600.4</ele>
        <time>2021-12-28T15:35:47Z</time>
      </trkpt>
      <trkpt lat="37.5162820" lon="-4.4061000">
        <ele>600.4</ele>
        <time>2021-12-28T15:35:48Z</time>
      </trkpt>
      <trkpt lat="37.5162300" lon="-4.4060740">
        <ele>600.2</ele>
        <time>2021-12-28T15:35:49Z</time>
      </trkpt>
      <trkpt lat="37.5161790" lon="-4.4060520">
        <ele>600.0</ele>
        <time>2021-12-28T15:35:50Z</time>
      </trkpt>
      <trkpt lat="37.5161310" lon="-4.4060320">
        <ele>600.0</ele>
        <time>2021-12-28T15:35:51Z</time>
      </trkpt>
      <trkpt lat="37.5160830" lon="-4.4060120">
        <ele>599.8</ele>
        <time>2021-12-28T15:35:52Z</time>
      </trkpt>
      <trkpt lat="37.5160320" lon="-4.4059880">
        <ele>599.8</ele>
        <time>2021-12-28T15:35:53Z</time>
      </trkpt>
      <trkpt lat="37.5159870" lon="-4.4059680">
        <ele>599.6</ele>
        <time>2021-12-28T15:35:54Z</time>
      </trkpt>
      <trkpt lat="37.5159420" lon="-4.4059480">
        <ele>599.4</ele>
        <time>2021-12-28T15:35:55Z</time>
      </trkpt>
      <trkpt lat="37.5158940" lon="-4.4059270">
        <ele>599.4</ele>
        <time>2021-12-28T15:35:56Z</time>
      </trkpt>
      <trkpt lat="37.5158500" lon="-4.4059070">
        <ele>599.2</ele>
        <time>2021-12-28T15:35:57Z</time>
      </trkpt>
      <trkpt lat="37.5158050" lon="-4.4058880">
        <ele>599.0</ele>
        <time>2021-12-28T15:35:58Z</time>
      </trkpt>
      <trkpt lat="37.5157600" lon="-4.4058780">
        <ele>599.0</ele>
        <time>2021-12-28T15:35:59Z</time>
      </trkpt>
      <trkpt lat="37.5157090" lon="-4.4058650">
        <ele>598.8</ele>
        <time>2021-12-28T15:36:00Z</time>
      </trkpt>
      <trkpt lat="37.5156640" lon="-4.4058400">
        <ele>598.6</ele>
        <time>2021-12-28T15:36:01Z</time>
      </trkpt>
      <trkpt lat="37.5156130" lon="-4.4058220">
        <ele>598.6</ele>
        <time>2021-12-28T15:36:02Z</time>
      </trkpt>
      <trkpt lat="37.5155680" lon="-4.4058060">
        <ele>598.4</ele>
        <time>2021-12-28T15:36:03Z</time>
      </trkpt>
      <trkpt lat="37.5155170" lon="-4.4057950">
        <ele>598.4</ele>
        <time>2021-12-28T15:36:04Z</time>
      </trkpt>
      <trkpt lat="37.5154660" lon="-4.4057860">
        <ele>598.2</ele>
        <time>2021-12-28T15:36:05Z</time>
      </trkpt>
      <trkpt lat="37.5154180" lon="-4.4057780">
        <ele>598.2</ele>
        <time>2021-12-28T15:36:06Z</time>
      </trkpt>
      <trkpt lat="37.5153760" lon="-4.4057760">
        <ele>598.0</ele>
        <time>2021-12-28T15:36:07Z</time>
      </trkpt>
      <trkpt lat="37.5153310" lon="-4.4057680">
        <ele>598.0</ele>
        <time>2021-12-28T15:36:08Z</time>
      </trkpt>
      <trkpt lat="37.5152860" lon="-4.4057600">
        <ele>597.8</ele>
        <time>2021-12-28T15:36:09Z</time>
      </trkpt>
      <trkpt lat="37.5152380" lon="-4.4057520">
        <ele>597.8</ele>
        <time>2021-12-28T15:36:10Z</time>
      </trkpt>
      <trkpt lat="37.5151940" lon="-4.4057450">
        <ele>597.6</ele>
        <time>2021-12-28T15:36:11Z</time>
      </trkpt>
      <trkpt lat="37.5151490" lon="-4.4057380">
        <ele>597.6</ele>
        <time>2021-12-28T15:36:12Z</time>
      </trkpt>
      <trkpt lat="37.5151010" lon="-4.4057330">
        <ele>597.4</ele>
        <time>2021-12-28T15:36:13Z</time>
      </trkpt>
      <trkpt lat="37.5150560" lon="-4.4057320">
        <ele>597.4</ele>
        <time>2021-12-28T15:36:14Z</time>
      </trkpt>
      <trkpt lat="37.5150110" lon="-4.4057300">
        <ele>597.4</ele>
        <time>2021-12-28T15:36:15Z</time>
      </trkpt>
      <trkpt lat="37.5149660" lon="-4.4057280">
        <ele>597.2</ele>
        <time>2021-12-28T15:36:16Z</time>
      </trkpt>
      <trkpt lat="37.5149150" lon="-4.4057280">
        <ele>597.2</ele>
        <time>2021-12-28T15:36:17Z</time>
      </trkpt>
      <trkpt lat="37.5148670" lon="-4.4057260">
        <ele>597.2</ele>
        <time>2021-12-28T15:36:18Z</time>
      </trkpt>
      <trkpt lat="37.5148130" lon="-4.4057250">
        <ele>597.0</ele>
        <time>2021-12-28T15:36:19Z</time>
      </trkpt>
      <trkpt lat="37.5147580" lon="-4.4057260">
        <ele>597.0</ele>
        <time>2021-12-28T15:36:20Z</time>
      </trkpt>
      <trkpt lat="37.5147070" lon="-4.4057300">
        <ele>596.8</ele>
        <time>2021-12-28T15:36:21Z</time>
      </trkpt>
      <trkpt lat="37.5146560" lon="-4.4057350">
        <ele>596.8</ele>
        <time>2021-12-28T15:36:22Z</time>
      </trkpt>
      <trkpt lat="37.5146020" lon="-4.4057380">
        <ele>596.8</ele>
        <time>2021-12-28T15:36:23Z</time>
      </trkpt>
      <trkpt lat="37.5145500" lon="-4.4057430">
        <ele>596.8</ele>
        <time>2021-12-28T15:36:24Z</time>
      </trkpt>
      <trkpt lat="37.5144960" lon="-4.4057460">
        <ele>596.6</ele>
        <time>2021-12-28T15:36:25Z</time>
      </trkpt>
      <trkpt lat="37.5144450" lon="-4.4057520">
        <ele>596.6</ele>
        <time>2021-12-28T15:36:26Z</time>
      </trkpt>
      <trkpt lat="37.5143970" lon="-4.4057560">
        <ele>596.4</ele>
        <time>2021-12-28T15:36:27Z</time>
      </trkpt>
      <trkpt lat="37.5143460" lon="-4.4057630">
        <ele>596.4</ele>
        <time>2021-12-28T15:36:28Z</time>
      </trkpt>
      <trkpt lat="37.5143010" lon="-4.4057720">
        <ele>596.2</ele>
        <time>2021-12-28T15:36:29Z</time>
      </trkpt>
      <trkpt lat="37.5142530" lon="-4.4057760">
        <ele>596.2</ele>
        <time>2021-12-28T15:36:30Z</time>
      </trkpt>
      <trkpt lat="37.5142020" lon="-4.4057850">
        <ele>596.2</ele>
        <time>2021-12-28T15:36:31Z</time>
      </trkpt>
      <trkpt lat="37.5141540" lon="-4.4057930">
        <ele>596.0</ele>
        <time>2021-12-28T15:36:32Z</time>
      </trkpt>
      <trkpt lat="37.5141020" lon="-4.4058020">
        <ele>595.8</ele>
        <time>2021-12-28T15:36:33Z</time>
      </trkpt>
      <trkpt lat="37.5140540" lon="-4.4058100">
        <ele>595.8</ele>
        <time>2021-12-28T15:36:34Z</time>
      </trkpt>
      <trkpt lat="37.5140000" lon="-4.4058160">
        <ele>595.6</ele>
        <time>2021-12-28T15:36:35Z</time>
      </trkpt>
      <trkpt lat="37.5139460" lon="-4.4058250">
        <ele>595.6</ele>
        <time>2021-12-28T15:36:36Z</time>
      </trkpt>
      <trkpt lat="37.5138980" lon="-4.4058320">
        <ele>595.4</ele>
        <time>2021-12-28T15:36:37Z</time>
      </trkpt>
      <trkpt lat="37.5138430" lon="-4.4058360">
        <ele>595.4</ele>
        <time>2021-12-28T15:36:38Z</time>
      </trkpt>
      <trkpt lat="37.5137950" lon="-4.4058450">
        <ele>595.2</ele>
        <time>2021-12-28T15:36:39Z</time>
      </trkpt>
      <trkpt lat="37.5137410" lon="-4.4058530">
        <ele>595.2</ele>
        <time>2021-12-28T15:36:40Z</time>
      </trkpt>
      <trkpt lat="37.5136860" lon="-4.4058580">
        <ele>595.2</ele>
        <time>2021-12-28T15:36:41Z</time>
      </trkpt>
      <trkpt lat="37.5136350" lon="-4.4058650">
        <ele>595.2</ele>
        <time>2021-12-28T15:36:42Z</time>
      </trkpt>
      <trkpt lat="37.5135840" lon="-4.4058700">
        <ele>595.0</ele>
        <time>2021-12-28T15:36:43Z</time>
      </trkpt>
      <trkpt lat="37.5135300" lon="-4.4058780">
        <ele>595.0</ele>
        <time>2021-12-28T15:36:44Z</time>
      </trkpt>
      <trkpt lat="37.5134780" lon="-4.4058880">
        <ele>594.8</ele>
        <time>2021-12-28T15:36:45Z</time>
      </trkpt>
      <trkpt lat="37.5134270" lon="-4.4058950">
        <ele>594.6</ele>
        <time>2021-12-28T15:36:46Z</time>
      </trkpt>
      <trkpt lat="37.5133790" lon="-4.4059050">
        <ele>594.4</ele>
        <time>2021-12-28T15:36:47Z</time>
      </trkpt>
      <trkpt lat="37.5133250" lon="-4.4059130">
        <ele>594.2</ele>
        <time>2021-12-28T15:36:48Z</time>
      </trkpt>
      <trkpt lat="37.5132740" lon="-4.4059200">
        <ele>594.2</ele>
        <time>2021-12-28T15:36:49Z</time>
      </trkpt>
      <trkpt lat="37.5132220" lon="-4.4059280">
        <ele>594.0</ele>
        <time>2021-12-28T15:36:50Z</time>
      </trkpt>
      <trkpt lat="37.5131650" lon="-4.4059350">
        <ele>593.8</ele>
        <time>2021-12-28T15:36:51Z</time>
      </trkpt>
      <trkpt lat="37.5131140" lon="-4.4059420">
        <ele>593.8</ele>
        <time>2021-12-28T15:36:52Z</time>
      </trkpt>
      <trkpt lat="37.5130620" lon="-4.4059450">
        <ele>593.6</ele>
        <time>2021-12-28T15:36:53Z</time>
      </trkpt>
      <trkpt lat="37.5130080" lon="-4.4059500">
        <ele>593.6</ele>
        <time>2021-12-28T15:36:54Z</time>
      </trkpt>
      <trkpt lat="37.5129600" lon="-4.4059570">
        <ele>593.4</ele>
        <time>2021-12-28T15:36:55Z</time>
      </trkpt>
      <trkpt lat="37.5129060" lon="-4.4059640">
        <ele>593.2</ele>
        <time>2021-12-28T15:36:56Z</time>
      </trkpt>
      <trkpt lat="37.5128540" lon="-4.4059720">
        <ele>593.0</ele>
        <time>2021-12-28T15:36:57Z</time>
      </trkpt>
      <trkpt lat="37.5128030" lon="-4.4059800">
        <ele>593.0</ele>
        <time>2021-12-28T15:36:58Z</time>
      </trkpt>
      <trkpt lat="37.5127490" lon="-4.4059870">
        <ele>593.0</ele>
        <time>2021-12-28T15:36:59Z</time>
      </trkpt>
      <trkpt lat="37.5127040" lon="-4.4059950">
        <ele>592.8</ele>
        <time>2021-12-28T15:37:00Z</time>
      </trkpt>
      <trkpt lat="37.5126530" lon="-4.4060040">
        <ele>592.8</ele>
        <time>2021-12-28T15:37:01Z</time>
      </trkpt>
      <trkpt lat="37.5126050" lon="-4.4060120">
        <ele>592.8</ele>
        <time>2021-12-28T15:37:02Z</time>
      </trkpt>
      <trkpt lat="37.5125540" lon="-4.4060200">
        <ele>592.8</ele>
        <time>2021-12-28T15:37:03Z</time>
      </trkpt>
      <trkpt lat="37.5125060" lon="-4.4060240">
        <ele>592.6</ele>
        <time>2021-12-28T15:37:04Z</time>
      </trkpt>
      <trkpt lat="37.5124540" lon="-4.4060300">
        <ele>592.6</ele>
        <time>2021-12-28T15:37:05Z</time>
      </trkpt>
      <trkpt lat="37.5124060" lon="-4.4060370">
        <ele>592.4</ele>
        <time>2021-12-28T15:37:06Z</time>
      </trkpt>
      <trkpt lat="37.5123520" lon="-4.4060440">
        <ele>592.4</ele>
        <time>2021-12-28T15:37:07Z</time>
      </trkpt>
      <trkpt lat="37.5123010" lon="-4.4060500">
        <ele>592.2</ele>
        <time>2021-12-28T15:37:08Z</time>
      </trkpt>
      <trkpt lat="37.5122530" lon="-4.4060550">
        <ele>592.0</ele>
        <time>2021-12-28T15:37:09Z</time>
      </trkpt>
      <trkpt lat="37.5121980" lon="-4.4060620">
        <ele>592.0</ele>
        <time>2021-12-28T15:37:10Z</time>
      </trkpt>
      <trkpt lat="37.5121470" lon="-4.4060670">
        <ele>591.8</ele>
        <time>2021-12-28T15:37:11Z</time>
      </trkpt>
      <trkpt lat="37.5120930" lon="-4.4060740">
        <ele>591.8</ele>
        <time>2021-12-28T15:37:12Z</time>
      </trkpt>
      <trkpt lat="37.5120380" lon="-4.4060800">
        <ele>591.8</ele>
        <time>2021-12-28T15:37:13Z</time>
      </trkpt>
      <trkpt lat="37.5119940" lon="-4.4060880">
        <ele>591.8</ele>
        <time>2021-12-28T15:37:14Z</time>
      </trkpt>
      <trkpt lat="37.5119420" lon="-4.4060950">
        <ele>591.6</ele>
        <time>2021-12-28T15:37:15Z</time>
      </trkpt>
      <trkpt lat="37.5118940" lon="-4.4060980">
        <ele>591.6</ele>
        <time>2021-12-28T15:37:16Z</time>
      </trkpt>
      <trkpt lat="37.5118370" lon="-4.4061050">
        <ele>591.4</ele>
        <time>2021-12-28T15:37:17Z</time>
      </trkpt>
      <trkpt lat="37.5117820" lon="-4.4061120">
        <ele>591.4</ele>
        <time>2021-12-28T15:37:18Z</time>
      </trkpt>
      <trkpt lat="37.5117310" lon="-4.4061200">
        <ele>591.4</ele>
        <time>2021-12-28T15:37:19Z</time>
      </trkpt>
      <trkpt lat="37.5116770" lon="-4.4061280">
        <ele>591.2</ele>
        <time>2021-12-28T15:37:20Z</time>
      </trkpt>
      <trkpt lat="37.5116190" lon="-4.4061380">
        <ele>591.2</ele>
        <time>2021-12-28T15:37:21Z</time>
      </trkpt>
      <trkpt lat="37.5115620" lon="-4.4061450">
        <ele>591.2</ele>
        <time>2021-12-28T15:37:22Z</time>
      </trkpt>
      <trkpt lat="37.5115140" lon="-4.4061530">
        <ele>591.0</ele>
        <time>2021-12-28T15:37:23Z</time>
      </trkpt>
      <trkpt lat="37.5114660" lon="-4.4061650">
        <ele>591.0</ele>
        <time>2021-12-28T15:37:24Z</time>
      </trkpt>
      <trkpt lat="37.5114210" lon="-4.4061750">
        <ele>590.8</ele>
        <time>2021-12-28T15:37:25Z</time>
      </trkpt>
      <trkpt lat="37.5113790" lon="-4.4061880">
        <ele>590.8</ele>
        <time>2021-12-28T15:37:26Z</time>
      </trkpt>
      <trkpt lat="37.5113340" lon="-4.4061980">
        <ele>590.6</ele>
        <time>2021-12-28T15:37:27Z</time>
      </trkpt>
      <trkpt lat="37.5112860" lon="-4.4062080">
        <ele>590.6</ele>
        <time>2021-12-28T15:37:28Z</time>
      </trkpt>
      <trkpt lat="37.5112450" lon="-4.4062200">
        <ele>590.4</ele>
        <time>2021-12-28T15:37:29Z</time>
      </trkpt>
      <trkpt lat="37.5112000" lon="-4.4062350">
        <ele>590.4</ele>
        <time>2021-12-28T15:37:30Z</time>
      </trkpt>
      <trkpt lat="37.5111580" lon="-4.4062500">
        <ele>590.2</ele>
        <time>2021-12-28T15:37:31Z</time>
      </trkpt>
      <trkpt lat="37.5111170" lon="-4.4062700">
        <ele>590.2</ele>
        <time>2021-12-28T15:37:32Z</time>
      </trkpt>
      <trkpt lat="37.5110690" lon="-4.4062880">
        <ele>590.0</ele>
        <time>2021-12-28T15:37:33Z</time>
      </trkpt>
      <trkpt lat="37.5110270" lon="-4.4063070">
        <ele>590.0</ele>
        <time>2021-12-28T15:37:34Z</time>
      </trkpt>
      <trkpt lat="37.5109860" lon="-4.4063270">
        <ele>590.0</ele>
        <time>2021-12-28T15:37:35Z</time>
      </trkpt>
      <trkpt lat="37.5109410" lon="-4.4063470">
        <ele>589.8</ele>
        <time>2021-12-28T15:37:36Z</time>
      </trkpt>
      <trkpt lat="37.5108960" lon="-4.4063720">
        <ele>589.8</ele>
        <time>2021-12-28T15:37:37Z</time>
      </trkpt>
      <trkpt lat="37.5108540" lon="-4.4063980">
        <ele>589.6</ele>
        <time>2021-12-28T15:37:38Z</time>
      </trkpt>
      <trkpt lat="37.5108030" lon="-4.4064280">
        <ele>589.6</ele>
        <time>2021-12-28T15:37:39Z</time>
      </trkpt>
      <trkpt lat="37.5107550" lon="-4.4064580">
        <ele>589.4</ele>
        <time>2021-12-28T15:37:40Z</time>
      </trkpt>
      <trkpt lat="37.5107040" lon="-4.4064930">
        <ele>589.4</ele>
        <time>2021-12-28T15:37:41Z</time>
      </trkpt>
      <trkpt lat="37.5106590" lon="-4.4065260">
        <ele>589.2</ele>
        <time>2021-12-28T15:37:42Z</time>
      </trkpt>
      <trkpt lat="37.5106110" lon="-4.4065580">
        <ele>589.2</ele>
        <time>2021-12-28T15:37:43Z</time>
      </trkpt>
      <trkpt lat="37.5105700" lon="-4.4065900">
        <ele>589.0</ele>
        <time>2021-12-28T15:37:44Z</time>
      </trkpt>
      <trkpt lat="37.5105280" lon="-4.4066220">
        <ele>589.0</ele>
        <time>2021-12-28T15:37:45Z</time>
      </trkpt>
      <trkpt lat="37.5104860" lon="-4.4066540">
        <ele>589.0</ele>
        <time>2021-12-28T15:37:46Z</time>
      </trkpt>
      <trkpt lat="37.5104420" lon="-4.4066880">
        <ele>588.8</ele>
        <time>2021-12-28T15:37:47Z</time>
      </trkpt>
      <trkpt lat="37.5104000" lon="-4.4067270">
        <ele>588.8</ele>
        <time>2021-12-28T15:37:48Z</time>
      </trkpt>
      <trkpt lat="37.5103520" lon="-4.4067670">
        <ele>588.8</ele>
        <time>2021-12-28T15:37:49Z</time>
      </trkpt>
      <trkpt lat="37.5103100" lon="-4.4068060">
        <ele>588.8</ele>
        <time>2021-12-28T15:37:50Z</time>
      </trkpt>
      <trkpt lat="37.5102690" lon="-4.4068450">
        <ele>588.6</ele>
        <time>2021-12-28T15:37:51Z</time>
      </trkpt>
      <trkpt lat="37.5102270" lon="-4.4068830">
        <ele>588.6</ele>
        <time>2021-12-28T15:37:52Z</time>
      </trkpt>
      <trkpt lat="37.5101920" lon="-4.4069230">
        <ele>588.6</ele>
        <time>2021-12-28T15:37:53Z</time>
      </trkpt>
      <trkpt lat="37.5101540" lon="-4.4069650">
        <ele>588.6</ele>
        <time>2021-12-28T15:37:54Z</time>
      </trkpt>
      <trkpt lat="37.5101220" lon="-4.4070050">
        <ele>588.6</ele>
        <time>2021-12-28T15:37:55Z</time>
      </trkpt>
      <trkpt lat="37.5100860" lon="-4.4070450">
        <ele>588.4</ele>
        <time>2021-12-28T15:37:56Z</time>
      </trkpt>
      <trkpt lat="37.5100510" lon="-4.4070840">
        <ele>588.4</ele>
        <time>2021-12-28T15:37:57Z</time>
      </trkpt>
      <trkpt lat="37.5100220" lon="-4.4071260">
        <ele>588.2</ele>
        <time>2021-12-28T15:37:58Z</time>
      </trkpt>
      <trkpt lat="37.5099870" lon="-4.4071660">
        <ele>588.2</ele>
        <time>2021-12-28T15:37:59Z</time>
      </trkpt>
      <trkpt lat="37.5099550" lon="-4.4072080">
        <ele>588.2</ele>
        <time>2021-12-28T15:38:00Z</time>
      </trkpt>
      <trkpt lat="37.5099260" lon="-4.4072500">
        <ele>588.2</ele>
        <time>2021-12-28T15:38:01Z</time>
      </trkpt>
      <trkpt lat="37.5098940" lon="-4.4072920">
        <ele>588.2</ele>
        <time>2021-12-28T15:38:02Z</time>
      </trkpt>
      <trkpt lat="37.5098660" lon="-4.4073330">
        <ele>588.2</ele>
        <time>2021-12-28T15:38:03Z</time>
      </trkpt>
      <trkpt lat="37.5098370" lon="-4.4073740">
        <ele>588.2</ele>
        <time>2021-12-28T15:38:04Z</time>
      </trkpt>
      <trkpt lat="37.5098110" lon="-4.4074170">
        <ele>588.2</ele>
        <time>2021-12-28T15:38:05Z</time>
      </trkpt>
      <trkpt lat="37.5097820" lon="-4.4074620">
        <ele>588.0</ele>
        <time>2021-12-28T15:38:06Z</time>
      </trkpt>
      <trkpt lat="37.5097540" lon="-4.4075050">
        <ele>588.0</ele>
        <time>2021-12-28T15:38:07Z</time>
      </trkpt>
      <trkpt lat="37.5097310" lon="-4.4075520">
        <ele>587.8</ele>
        <time>2021-12-28T15:38:08Z</time>
      </trkpt>
      <trkpt lat="37.5097060" lon="-4.4075980">
        <ele>587.6</ele>
        <time>2021-12-28T15:38:09Z</time>
      </trkpt>
      <trkpt lat="37.5096830" lon="-4.4076430">
        <ele>587.6</ele>
        <time>2021-12-28T15:38:10Z</time>
      </trkpt>
      <trkpt lat="37.5096540" lon="-4.4076920">
        <ele>587.6</ele>
        <time>2021-12-28T15:38:11Z</time>
      </trkpt>
      <trkpt lat="37.5096290" lon="-4.4077440">
        <ele>587.4</ele>
        <time>2021-12-28T15:38:12Z</time>
      </trkpt>
      <trkpt lat="37.5096000" lon="-4.4077940">
        <ele>587.4</ele>
        <time>2021-12-28T15:38:13Z</time>
      </trkpt>
      <trkpt lat="37.5095740" lon="-4.4078460">
        <ele>587.4</ele>
        <time>2021-12-28T15:38:14Z</time>
      </trkpt>
      <trkpt lat="37.5095520" lon="-4.4079030">
        <ele>587.4</ele>
        <time>2021-12-28T15:38:15Z</time>
      </trkpt>
      <trkpt lat="37.5095300" lon="-4.4079580">
        <ele>587.2</ele>
        <time>2021-12-28T15:38:16Z</time>
      </trkpt>
      <trkpt lat="37.5095070" lon="-4.4080130">
        <ele>587.2</ele>
        <time>2021-12-28T15:38:17Z</time>
      </trkpt>
      <trkpt lat="37.5094850" lon="-4.4080700">
        <ele>587.0</ele>
        <time>2021-12-28T15:38:18Z</time>
      </trkpt>
      <trkpt lat="37.5094660" lon="-4.4081280">
        <ele>586.8</ele>
        <time>2021-12-28T15:38:19Z</time>
      </trkpt>
      <trkpt lat="37.5094460" lon="-4.4081900">
        <ele>586.8</ele>
        <time>2021-12-28T15:38:20Z</time>
      </trkpt>
      <trkpt lat="37.5094270" lon="-4.4082500">
        <ele>586.6</ele>
        <time>2021-12-28T15:38:21Z</time>
      </trkpt>
      <trkpt lat="37.5094080" lon="-4.4083100">
        <ele>586.4</ele>
        <time>2021-12-28T15:38:22Z</time>
      </trkpt>
      <trkpt lat="37.5093920" lon="-4.4083720">
        <ele>586.2</ele>
        <time>2021-12-28T15:38:23Z</time>
      </trkpt>
      <trkpt lat="37.5093730" lon="-4.4084320">
        <ele>586.0</ele>
        <time>2021-12-28T15:38:24Z</time>
      </trkpt>
      <trkpt lat="37.5093570" lon="-4.4084920">
        <ele>586.0</ele>
        <time>2021-12-28T15:38:25Z</time>
      </trkpt>
      <trkpt lat="37.5093410" lon="-4.4085530">
        <ele>585.8</ele>
        <time>2021-12-28T15:38:26Z</time>
      </trkpt>
      <trkpt lat="37.5093280" lon="-4.4086160">
        <ele>585.8</ele>
        <time>2021-12-28T15:38:27Z</time>
      </trkpt>
      <trkpt lat="37.5093150" lon="-4.4086780">
        <ele>585.6</ele>
        <time>2021-12-28T15:38:28Z</time>
      </trkpt>
      <trkpt lat="37.5093060" lon="-4.4087430">
        <ele>585.4</ele>
        <time>2021-12-28T15:38:29Z</time>
      </trkpt>
      <trkpt lat="37.5092900" lon="-4.4088050">
        <ele>585.4</ele>
        <time>2021-12-28T15:38:30Z</time>
      </trkpt>
      <trkpt lat="37.5092770" lon="-4.4088670">
        <ele>585.2</ele>
        <time>2021-12-28T15:38:31Z</time>
      </trkpt>
      <trkpt lat="37.5092670" lon="-4.4089280">
        <ele>585.2</ele>
        <time>2021-12-28T15:38:32Z</time>
      </trkpt>
      <trkpt lat="37.5092540" lon="-4.4089900">
        <ele>585.2</ele>
        <time>2021-12-28T15:38:33Z</time>
      </trkpt>
      <trkpt lat="37.5092480" lon="-4.4090520">
        <ele>585.0</ele>
        <time>2021-12-28T15:38:34Z</time>
      </trkpt>
      <trkpt lat="37.5092420" lon="-4.4091150">
        <ele>585.0</ele>
        <time>2021-12-28T15:38:35Z</time>
      </trkpt>
      <trkpt lat="37.5092380" lon="-4.4091800">
        <ele>584.8</ele>
        <time>2021-12-28T15:38:36Z</time>
      </trkpt>
      <trkpt lat="37.5092380" lon="-4.4092460">
        <ele>584.8</ele>
        <time>2021-12-28T15:38:37Z</time>
      </trkpt>
      <trkpt lat="37.5092350" lon="-4.4093100">
        <ele>584.6</ele>
        <time>2021-12-28T15:38:38Z</time>
      </trkpt>
      <trkpt lat="37.5092350" lon="-4.4093720">
        <ele>584.6</ele>
        <time>2021-12-28T15:38:39Z</time>
      </trkpt>
      <trkpt lat="37.5092350" lon="-4.4094320">
        <ele>584.4</ele>
        <time>2021-12-28T15:38:40Z</time>
      </trkpt>
      <trkpt lat="37.5092350" lon="-4.4094940">
        <ele>584.4</ele>
        <time>2021-12-28T15:38:41Z</time>
      </trkpt>
      <trkpt lat="37.5092350" lon="-4.4095570">
        <ele>584.2</ele>
        <time>2021-12-28T15:38:42Z</time>
      </trkpt>
      <trkpt lat="37.5092350" lon="-4.4096200">
        <ele>584.2</ele>
        <time>2021-12-28T15:38:43Z</time>
      </trkpt>
      <trkpt lat="37.5092320" lon="-4.4096820">
        <ele>584.0</ele>
        <time>2021-12-28T15:38:44Z</time>
      </trkpt>
      <trkpt lat="37.5092320" lon="-4.4097430">
        <ele>584.0</ele>
        <time>2021-12-28T15:38:45Z</time>
      </trkpt>
      <trkpt lat="37.5092350" lon="-4.4098020">
        <ele>583.8</ele>
        <time>2021-12-28T15:38:46Z</time>
      </trkpt>
      <trkpt lat="37.5092380" lon="-4.4098600">
        <ele>583.8</ele>
        <time>2021-12-28T15:38:47Z</time>
      </trkpt>
      <trkpt lat="37.5092480" lon="-4.4099240">
        <ele>583.8</ele>
        <time>2021-12-28T15:38:48Z</time>
      </trkpt>
      <trkpt lat="37.5092510" lon="-4.4099860">
        <ele>583.6</ele>
        <time>2021-12-28T15:38:49Z</time>
      </trkpt>
      <trkpt lat="37.5092580" lon="-4.4100460">
        <ele>583.6</ele>
        <time>2021-12-28T15:38:50Z</time>
      </trkpt>
      <trkpt lat="37.5092700" lon="-4.4101100">
        <ele>583.4</ele>
        <time>2021-12-28T15:38:51Z</time>
      </trkpt>
      <trkpt lat="37.5092800" lon="-4.4101700">
        <ele>583.4</ele>
        <time>2021-12-28T15:38:52Z</time>
      </trkpt>
      <trkpt lat="37.5092900" lon="-4.4102300">
        <ele>583.2</ele>
        <time>2021-12-28T15:38:53Z</time>
      </trkpt>
      <trkpt lat="37.5092990" lon="-4.4102870">
        <ele>583.2</ele>
        <time>2021-12-28T15:38:54Z</time>
      </trkpt>
      <trkpt lat="37.5093150" lon="-4.4103460">
        <ele>583.0</ele>
        <time>2021-12-28T15:38:55Z</time>
      </trkpt>
      <trkpt lat="37.5093220" lon="-4.4104020">
        <ele>583.0</ele>
        <time>2021-12-28T15:38:56Z</time>
      </trkpt>
      <trkpt lat="37.5093380" lon="-4.4104530">
        <ele>582.8</ele>
        <time>2021-12-28T15:38:57Z</time>
      </trkpt>
      <trkpt lat="37.5093470" lon="-4.4105080">
        <ele>582.6</ele>
        <time>2021-12-28T15:38:58Z</time>
      </trkpt>
      <trkpt lat="37.5093570" lon="-4.4105650">
        <ele>582.6</ele>
        <time>2021-12-28T15:38:59Z</time>
      </trkpt>
      <trkpt lat="37.5093700" lon="-4.4106200">
        <ele>582.4</ele>
        <time>2021-12-28T15:39:00Z</time>
      </trkpt>
      <trkpt lat="37.5093790" lon="-4.4106760">
        <ele>582.2</ele>
        <time>2021-12-28T15:39:01Z</time>
      </trkpt>
      <trkpt lat="37.5093950" lon="-4.4107350">
        <ele>582.2</ele>
        <time>2021-12-28T15:39:02Z</time>
      </trkpt>
      <trkpt lat="37.5094080" lon="-4.4107930">
        <ele>582.0</ele>
        <time>2021-12-28T15:39:03Z</time>
      </trkpt>
      <trkpt lat="37.5094180" lon="-4.4108530">
        <ele>582.0</ele>
        <time>2021-12-28T15:39:04Z</time>
      </trkpt>
      <trkpt lat="37.5094340" lon="-4.4109140">
        <ele>581.8</ele>
        <time>2021-12-28T15:39:05Z</time>
      </trkpt>
      <trkpt lat="37.5094500" lon="-4.4109740">
        <ele>581.8</ele>
        <time>2021-12-28T15:39:06Z</time>
      </trkpt>
      <trkpt lat="37.5094590" lon="-4.4110320">
        <ele>581.8</ele>
        <time>2021-12-28T15:39:07Z</time>
      </trkpt>
      <trkpt lat="37.5094780" lon="-4.4110900">
        <ele>581.6</ele>
        <time>2021-12-28T15:39:08Z</time>
      </trkpt>
      <trkpt lat="37.5094940" lon="-4.4111470">
        <ele>581.6</ele>
        <time>2021-12-28T15:39:09Z</time>
      </trkpt>
      <trkpt lat="37.5095070" lon="-4.4112070">
        <ele>581.6</ele>
        <time>2021-12-28T15:39:10Z</time>
      </trkpt>
      <trkpt lat="37.5095170" lon="-4.4112650">
        <ele>581.4</ele>
        <time>2021-12-28T15:39:11Z</time>
      </trkpt>
      <trkpt lat="37.5095300" lon="-4.4113240">
        <ele>581.4</ele>
        <time>2021-12-28T15:39:12Z</time>
      </trkpt>
      <trkpt lat="37.5095390" lon="-4.4113800">
        <ele>581.2</ele>
        <time>2021-12-28T15:39:13Z</time>
      </trkpt>
      <trkpt lat="37.5095580" lon="-4.4114380">
        <ele>581.0</ele>
        <time>2021-12-28T15:39:14Z</time>
      </trkpt>
      <trkpt lat="37.5095740" lon="-4.4115000">
        <ele>580.8</ele>
        <time>2021-12-28T15:39:15Z</time>
      </trkpt>
      <trkpt lat="37.5095900" lon="-4.4115600">
        <ele>580.6</ele>
        <time>2021-12-28T15:39:16Z</time>
      </trkpt>
      <trkpt lat="37.5096000" lon="-4.4116170">
        <ele>580.6</ele>
        <time>2021-12-28T15:39:17Z</time>
      </trkpt>
      <trkpt lat="37.5096160" lon="-4.4116700">
        <ele>580.4</ele>
        <time>2021-12-28T15:39:18Z</time>
      </trkpt>
      <trkpt lat="37.5096290" lon="-4.4117220">
        <ele>580.4</ele>
        <time>2021-12-28T15:39:19Z</time>
      </trkpt>
      <trkpt lat="37.5096450" lon="-4.4117730">
        <ele>580.2</ele>
        <time>2021-12-28T15:39:20Z</time>
      </trkpt>
      <trkpt lat="37.5096540" lon="-4.4118280">
        <ele>580.2</ele>
        <time>2021-12-28T15:39:21Z</time>
      </trkpt>
      <trkpt lat="37.5096700" lon="-4.4118950">
        <ele>580.2</ele>
        <time>2021-12-28T15:39:22Z</time>
      </trkpt>
      <trkpt lat="37.5096830" lon="-4.4119540">
        <ele>580.2</ele>
        <time>2021-12-28T15:39:23Z</time>
      </trkpt>
      <trkpt lat="37.5096960" lon="-4.4120120">
        <ele>580.2</ele>
        <time>2021-12-28T15:39:24Z</time>
      </trkpt>
      <trkpt lat="37.5097090" lon="-4.4120700">
        <ele>580.0</ele>
        <time>2021-12-28T15:39:25Z</time>
      </trkpt>
      <trkpt lat="37.5097120" lon="-4.4121280">
        <ele>580.0</ele>
        <time>2021-12-28T15:39:26Z</time>
      </trkpt>
      <trkpt lat="37.5097250" lon="-4.4121870">
        <ele>579.8</ele>
        <time>2021-12-28T15:39:27Z</time>
      </trkpt>
      <trkpt lat="37.5097340" lon="-4.4122450">
        <ele>579.8</ele>
        <time>2021-12-28T15:39:28Z</time>
      </trkpt>
      <trkpt lat="37.5097470" lon="-4.4123050">
        <ele>579.6</ele>
        <time>2021-12-28T15:39:29Z</time>
      </trkpt>
      <trkpt lat="37.5097630" lon="-4.4123650">
        <ele>579.6</ele>
        <time>2021-12-28T15:39:30Z</time>
      </trkpt>
      <trkpt lat="37.5097730" lon="-4.4124260">
        <ele>579.4</ele>
        <time>2021-12-28T15:39:31Z</time>
      </trkpt>
      <trkpt lat="37.5097860" lon="-4.4124880">
        <ele>579.2</ele>
        <time>2021-12-28T15:39:32Z</time>
      </trkpt>
      <trkpt lat="37.5097950" lon="-4.4125470">
        <ele>579.2</ele>
        <time>2021-12-28T15:39:33Z</time>
      </trkpt>
      <trkpt lat="37.5098050" lon="-4.4126080">
        <ele>579.0</ele>
        <time>2021-12-28T15:39:34Z</time>
      </trkpt>
      <trkpt lat="37.5098110" lon="-4.4126700">
        <ele>578.8</ele>
        <time>2021-12-28T15:39:35Z</time>
      </trkpt>
      <trkpt lat="37.5098180" lon="-4.4127350">
        <ele>578.8</ele>
        <time>2021-12-28T15:39:36Z</time>
      </trkpt>
      <trkpt lat="37.5098270" lon="-4.4127980">
        <ele>578.6</ele>
        <time>2021-12-28T15:39:37Z</time>
      </trkpt>
      <trkpt lat="37.5098340" lon="-4.4128630">
        <ele>578.4</ele>
        <time>2021-12-28T15:39:38Z</time>
      </trkpt>
      <trkpt lat="37.5098430" lon="-4.4129280">
        <ele>578.2</ele>
        <time>2021-12-28T15:39:39Z</time>
      </trkpt>
      <trkpt lat="37.5098430" lon="-4.4129920">
        <ele>578.2</ele>
        <time>2021-12-28T15:39:40Z</time>
      </trkpt>
      <trkpt lat="37.5098430" lon="-4.4130540">
        <ele>578.0</ele>
        <time>2021-12-28T15:39:41Z</time>
      </trkpt>
      <trkpt lat="37.5098460" lon="-4.4131220">
        <ele>577.8</ele>
        <time>2021-12-28T15:39:42Z</time>
      </trkpt>
      <trkpt lat="37.5098500" lon="-4.4131860">
        <ele>577.8</ele>
        <time>2021-12-28T15:39:43Z</time>
      </trkpt>
      <trkpt lat="37.5098460" lon="-4.4132530">
        <ele>577.6</ele>
        <time>2021-12-28T15:39:44Z</time>
      </trkpt>
      <trkpt lat="37.5098430" lon="-4.4133200">
        <ele>577.6</ele>
        <time>2021-12-28T15:39:45Z</time>
      </trkpt>
      <trkpt lat="37.5098430" lon="-4.4133900">
        <ele>577.4</ele>
        <time>2021-12-28T15:39:46Z</time>
      </trkpt>
      <trkpt lat="37.5098430" lon="-4.4134530">
        <ele>577.4</ele>
        <time>2021-12-28T15:39:47Z</time>
      </trkpt>
      <trkpt lat="37.5098370" lon="-4.4135180">
        <ele>577.2</ele>
        <time>2021-12-28T15:39:48Z</time>
      </trkpt>
      <trkpt lat="37.5098340" lon="-4.4135820">
        <ele>577.2</ele>
        <time>2021-12-28T15:39:49Z</time>
      </trkpt>
      <trkpt lat="37.5098300" lon="-4.4136480">
        <ele>577.0</ele>
        <time>2021-12-28T15:39:50Z</time>
      </trkpt>
      <trkpt lat="37.5098270" lon="-4.4137150">
        <ele>576.8</ele>
        <time>2021-12-28T15:39:51Z</time>
      </trkpt>
      <trkpt lat="37.5098240" lon="-4.4137840">
        <ele>576.8</ele>
        <time>2021-12-28T15:39:52Z</time>
      </trkpt>
      <trkpt lat="37.5098140" lon="-4.4138520">
        <ele>576.6</ele>
        <time>2021-12-28T15:39:53Z</time>
      </trkpt>
      <trkpt lat="37.5098080" lon="-4.4139180">
        <ele>576.4</ele>
        <time>2021-12-28T15:39:54Z</time>
      </trkpt>
      <trkpt lat="37.5097980" lon="-4.4139870">
        <ele>576.4</ele>
        <time>2021-12-28T15:39:55Z</time>
      </trkpt>
      <trkpt lat="37.5097890" lon="-4.4140500">
        <ele>576.4</ele>
        <time>2021-12-28T15:39:56Z</time>
      </trkpt>
      <trkpt lat="37.5097760" lon="-4.4141150">
        <ele>576.2</ele>
        <time>2021-12-28T15:39:57Z</time>
      </trkpt>
      <trkpt lat="37.5097660" lon="-4.4141750">
        <ele>576.2</ele>
        <time>2021-12-28T15:39:58Z</time>
      </trkpt>
      <trkpt lat="37.5097500" lon="-4.4142320">
        <ele>576.0</ele>
        <time>2021-12-28T15:39:59Z</time>
      </trkpt>
      <trkpt lat="37.5097230" lon="-4.4143200">
        <ele>576.0</ele>
        <time>2021-12-28T15:40:00Z</time>
      </trkpt>
      <trkpt lat="37.5097120" lon="-4.4143520">
        <ele>575.8</ele>
        <time>2021-12-28T15:40:01Z</time>
      </trkpt>
      <trkpt lat="37.5096930" lon="-4.4144100">
        <ele>575.6</ele>
        <time>2021-12-28T15:40:02Z</time>
      </trkpt>
      <trkpt lat="37.5096740" lon="-4.4144680">
        <ele>575.6</ele>
        <time>2021-12-28T15:40:03Z</time>
      </trkpt>
      <trkpt lat="37.5096540" lon="-4.4145280">
        <ele>575.6</ele>
        <time>2021-12-28T15:40:04Z</time>
      </trkpt>
      <trkpt lat="37.5096350" lon="-4.4145880">
        <ele>575.6</ele>
        <time>2021-12-28T15:40:05Z</time>
      </trkpt>
      <trkpt lat="37.5096160" lon="-4.4146480">
        <ele>575.4</ele>
        <time>2021-12-28T15:40:06Z</time>
      </trkpt>
      <trkpt lat="37.5095940" lon="-4.4147130">
        <ele>575.4</ele>
        <time>2021-12-28T15:40:07Z</time>
      </trkpt>
      <trkpt lat="37.5095680" lon="-4.4147750">
        <ele>575.4</ele>
        <time>2021-12-28T15:40:08Z</time>
      </trkpt>
      <trkpt lat="37.5095460" lon="-4.4148370">
        <ele>575.2</ele>
        <time>2021-12-28T15:40:09Z</time>
      </trkpt>
      <trkpt lat="37.5095140" lon="-4.4148960">
        <ele>575.2</ele>
        <time>2021-12-28T15:40:10Z</time>
      </trkpt>
      <trkpt lat="37.5094850" lon="-4.4149600">
        <ele>575.0</ele>
        <time>2021-12-28T15:40:11Z</time>
      </trkpt>
      <trkpt lat="37.5094500" lon="-4.4150230">
        <ele>575.0</ele>
        <time>2021-12-28T15:40:12Z</time>
      </trkpt>
      <trkpt lat="37.5094180" lon="-4.4150820">
        <ele>574.8</ele>
        <time>2021-12-28T15:40:13Z</time>
      </trkpt>
      <trkpt lat="37.5093860" lon="-4.4151400">
        <ele>574.8</ele>
        <time>2021-12-28T15:40:14Z</time>
      </trkpt>
      <trkpt lat="37.5093540" lon="-4.4151980">
        <ele>574.6</ele>
        <time>2021-12-28T15:40:15Z</time>
      </trkpt>
      <trkpt lat="37.5093180" lon="-4.4152560">
        <ele>574.6</ele>
        <time>2021-12-28T15:40:16Z</time>
      </trkpt>
      <trkpt lat="37.5092860" lon="-4.4153150">
        <ele>574.6</ele>
        <time>2021-12-28T15:40:17Z</time>
      </trkpt>
      <trkpt lat="37.5092480" lon="-4.4153700">
        <ele>574.4</ele>
        <time>2021-12-28T15:40:18Z</time>
      </trkpt>
      <trkpt lat="37.5092130" lon="-4.4154250">
        <ele>574.4</ele>
        <time>2021-12-28T15:40:19Z</time>
      </trkpt>
      <trkpt lat="37.5091740" lon="-4.4154800">
        <ele>574.4</ele>
        <time>2021-12-28T15:40:20Z</time>
      </trkpt>
      <trkpt lat="37.5091300" lon="-4.4155340">
        <ele>574.2</ele>
        <time>2021-12-28T15:40:21Z</time>
      </trkpt>
      <trkpt lat="37.5090910" lon="-4.4155880">
        <ele>574.2</ele>
        <time>2021-12-28T15:40:22Z</time>
      </trkpt>
      <trkpt lat="37.5090500" lon="-4.4156420">
        <ele>574.2</ele>
        <time>2021-12-28T15:40:23Z</time>
      </trkpt>
      <trkpt lat="37.5090080" lon="-4.4156930">
        <ele>574.2</ele>
        <time>2021-12-28T15:40:24Z</time>
      </trkpt>
      <trkpt lat="37.5089630" lon="-4.4157450">
        <ele>574.2</ele>
        <time>2021-12-28T15:40:25Z</time>
      </trkpt>
      <trkpt lat="37.5089180" lon="-4.4157950">
        <ele>574.2</ele>
        <time>2021-12-28T15:40:26Z</time>
      </trkpt>
      <trkpt lat="37.5088770" lon="-4.4158380">
        <ele>574.2</ele>
        <time>2021-12-28T15:40:27Z</time>
      </trkpt>
      <trkpt lat="37.5088320" lon="-4.4158800">
        <ele>574.2</ele>
        <time>2021-12-28T15:40:28Z</time>
      </trkpt>
      <trkpt lat="37.5087840" lon="-4.4159200">
        <ele>574.2</ele>
        <time>2021-12-28T15:40:29Z</time>
      </trkpt>
      <trkpt lat="37.5087420" lon="-4.4159620">
        <ele>574.2</ele>
        <time>2021-12-28T15:40:30Z</time>
      </trkpt>
      <trkpt lat="37.5086980" lon="-4.4160020">
        <ele>574.2</ele>
        <time>2021-12-28T15:40:31Z</time>
      </trkpt>
      <trkpt lat="37.5086530" lon="-4.4160430">
        <ele>574.2</ele>
        <time>2021-12-28T15:40:32Z</time>
      </trkpt>
      <trkpt lat="37.5086110" lon="-4.4160850">
        <ele>574.2</ele>
        <time>2021-12-28T15:40:33Z</time>
      </trkpt>
      <trkpt lat="37.5085600" lon="-4.4161250">
        <ele>574.2</ele>
        <time>2021-12-28T15:40:34Z</time>
      </trkpt>
      <trkpt lat="37.5085150" lon="-4.4161600">
        <ele>574.2</ele>
        <time>2021-12-28T15:40:35Z</time>
      </trkpt>
      <trkpt lat="37.5084640" lon="-4.4161900">
        <ele>574.2</ele>
        <time>2021-12-28T15:40:36Z</time>
      </trkpt>
      <trkpt lat="37.5084160" lon="-4.4162250">
        <ele>574.0</ele>
        <time>2021-12-28T15:40:37Z</time>
      </trkpt>
      <trkpt lat="37.5083650" lon="-4.4162550">
        <ele>574.0</ele>
        <time>2021-12-28T15:40:38Z</time>
      </trkpt>
      <trkpt lat="37.5083170" lon="-4.4162850">
        <ele>574.0</ele>
        <time>2021-12-28T15:40:39Z</time>
      </trkpt>
      <trkpt lat="37.5082620" lon="-4.4163180">
        <ele>573.8</ele>
        <time>2021-12-28T15:40:40Z</time>
      </trkpt>
      <trkpt lat="37.5082080" lon="-4.4163480">
        <ele>573.8</ele>
        <time>2021-12-28T15:40:41Z</time>
      </trkpt>
      <trkpt lat="37.5081600" lon="-4.4163780">
        <ele>573.6</ele>
        <time>2021-12-28T15:40:42Z</time>
      </trkpt>
      <trkpt lat="37.5081060" lon="-4.4164050">
        <ele>573.6</ele>
        <time>2021-12-28T15:40:43Z</time>
      </trkpt>
      <trkpt lat="37.5080540" lon="-4.4164280">
        <ele>573.6</ele>
        <time>2021-12-28T15:40:44Z</time>
      </trkpt>
      <trkpt lat="37.5079970" lon="-4.4164520">
        <ele>573.6</ele>
        <time>2021-12-28T15:40:45Z</time>
      </trkpt>
      <trkpt lat="37.5079390" lon="-4.4164700">
        <ele>573.4</ele>
        <time>2021-12-28T15:40:46Z</time>
      </trkpt>
      <trkpt lat="37.5078820" lon="-4.4164900">
        <ele>573.4</ele>
        <time>2021-12-28T15:40:47Z</time>
      </trkpt>
      <trkpt lat="37.5078240" lon="-4.4165080">
        <ele>573.4</ele>
        <time>2021-12-28T15:40:48Z</time>
      </trkpt>
      <trkpt lat="37.5077660" lon="-4.4165240">
        <ele>573.4</ele>
        <time>2021-12-28T15:40:49Z</time>
      </trkpt>
      <trkpt lat="37.5077090" lon="-4.4165370">
        <ele>573.4</ele>
        <time>2021-12-28T15:40:50Z</time>
      </trkpt>
      <trkpt lat="37.5076580" lon="-4.4165480">
        <ele>573.4</ele>
        <time>2021-12-28T15:40:51Z</time>
      </trkpt>
      <trkpt lat="37.5076000" lon="-4.4165600">
        <ele>573.4</ele>
        <time>2021-12-28T15:40:52Z</time>
      </trkpt>
      <trkpt lat="37.5075420" lon="-4.4165720">
        <ele>573.4</ele>
        <time>2021-12-28T15:40:53Z</time>
      </trkpt>
      <trkpt lat="37.5074820" lon="-4.4165800">
        <ele>573.4</ele>
        <time>2021-12-28T15:40:54Z</time>
      </trkpt>
      <trkpt lat="37.5074240" lon="-4.4165880">
        <ele>573.4</ele>
        <time>2021-12-28T15:40:55Z</time>
      </trkpt>
      <trkpt lat="37.5073660" lon="-4.4166020">
        <ele>573.4</ele>
        <time>2021-12-28T15:40:56Z</time>
      </trkpt>
      <trkpt lat="37.5073090" lon="-4.4166120">
        <ele>573.4</ele>
        <time>2021-12-28T15:40:57Z</time>
      </trkpt>
      <trkpt lat="37.5072510" lon="-4.4166180">
        <ele>573.4</ele>
        <time>2021-12-28T15:40:58Z</time>
      </trkpt>
      <trkpt lat="37.5071970" lon="-4.4166250">
        <ele>573.6</ele>
        <time>2021-12-28T15:40:59Z</time>
      </trkpt>
      <trkpt lat="37.5071420" lon="-4.4166320">
        <ele>573.6</ele>
        <time>2021-12-28T15:41:00Z</time>
      </trkpt>
      <trkpt lat="37.5070850" lon="-4.4166380">
        <ele>573.6</ele>
        <time>2021-12-28T15:41:01Z</time>
      </trkpt>
      <trkpt lat="37.5070300" lon="-4.4166460">
        <ele>573.6</ele>
        <time>2021-12-28T15:41:02Z</time>
      </trkpt>
      <trkpt lat="37.5069730" lon="-4.4166580">
        <ele>573.6</ele>
        <time>2021-12-28T15:41:03Z</time>
      </trkpt>
      <trkpt lat="37.5069180" lon="-4.4166680">
        <ele>573.6</ele>
        <time>2021-12-28T15:41:04Z</time>
      </trkpt>
      <trkpt lat="37.5068670" lon="-4.4166750">
        <ele>573.6</ele>
        <time>2021-12-28T15:41:05Z</time>
      </trkpt>
      <trkpt lat="37.5068030" lon="-4.4166850">
        <ele>573.6</ele>
        <time>2021-12-28T15:41:06Z</time>
      </trkpt>
      <trkpt lat="37.5067490" lon="-4.4166950">
        <ele>573.6</ele>
        <time>2021-12-28T15:41:07Z</time>
      </trkpt>
      <trkpt lat="37.5066910" lon="-4.4167030">
        <ele>573.4</ele>
        <time>2021-12-28T15:41:08Z</time>
      </trkpt>
      <trkpt lat="37.5066340" lon="-4.4167120">
        <ele>573.4</ele>
        <time>2021-12-28T15:41:09Z</time>
      </trkpt>
      <trkpt lat="37.5065760" lon="-4.4167180">
        <ele>573.4</ele>
        <time>2021-12-28T15:41:10Z</time>
      </trkpt>
      <trkpt lat="37.5065180" lon="-4.4167250">
        <ele>573.2</ele>
        <time>2021-12-28T15:41:11Z</time>
      </trkpt>
      <trkpt lat="37.5064670" lon="-4.4167350">
        <ele>573.2</ele>
        <time>2021-12-28T15:41:12Z</time>
      </trkpt>
      <trkpt lat="37.5064100" lon="-4.4167450">
        <ele>573.0</ele>
        <time>2021-12-28T15:41:13Z</time>
      </trkpt>
      <trkpt lat="37.5063520" lon="-4.4167580">
        <ele>572.8</ele>
        <time>2021-12-28T15:41:14Z</time>
      </trkpt>
      <trkpt lat="37.5063010" lon="-4.4167680">
        <ele>572.8</ele>
        <time>2021-12-28T15:41:15Z</time>
      </trkpt>
      <trkpt lat="37.5062500" lon="-4.4167820">
        <ele>572.6</ele>
        <time>2021-12-28T15:41:16Z</time>
      </trkpt>
      <trkpt lat="37.5061950" lon="-4.4167930">
        <ele>572.6</ele>
        <time>2021-12-28T15:41:17Z</time>
      </trkpt>
      <trkpt lat="37.5061410" lon="-4.4168050">
        <ele>572.6</ele>
        <time>2021-12-28T15:41:18Z</time>
      </trkpt>
      <trkpt lat="37.5060900" lon="-4.4168180">
        <ele>572.4</ele>
        <time>2021-12-28T15:41:19Z</time>
      </trkpt>
      <trkpt lat="37.5060350" lon="-4.4168340">
        <ele>572.4</ele>
        <time>2021-12-28T15:41:20Z</time>
      </trkpt>
      <trkpt lat="37.5059810" lon="-4.4168520">
        <ele>572.2</ele>
        <time>2021-12-28T15:41:21Z</time>
      </trkpt>
      <trkpt lat="37.5059330" lon="-4.4168740">
        <ele>572.2</ele>
        <time>2021-12-28T15:41:22Z</time>
      </trkpt>
      <trkpt lat="37.5058780" lon="-4.4168980">
        <ele>572.0</ele>
        <time>2021-12-28T15:41:23Z</time>
      </trkpt>
      <trkpt lat="37.5058300" lon="-4.4169240">
        <ele>571.8</ele>
        <time>2021-12-28T15:41:24Z</time>
      </trkpt>
      <trkpt lat="37.5057790" lon="-4.4169480">
        <ele>571.8</ele>
        <time>2021-12-28T15:41:25Z</time>
      </trkpt>
      <trkpt lat="37.5057250" lon="-4.4169730">
        <ele>571.6</ele>
        <time>2021-12-28T15:41:26Z</time>
      </trkpt>
      <trkpt lat="37.5056770" lon="-4.4169960">
        <ele>571.6</ele>
        <time>2021-12-28T15:41:27Z</time>
      </trkpt>
      <trkpt lat="37.5056260" lon="-4.4170220">
        <ele>571.4</ele>
        <time>2021-12-28T15:41:28Z</time>
      </trkpt>
      <trkpt lat="37.5055780" lon="-4.4170430">
        <ele>571.4</ele>
        <time>2021-12-28T15:41:29Z</time>
      </trkpt>
      <trkpt lat="37.5055330" lon="-4.4170700">
        <ele>571.4</ele>
        <time>2021-12-28T15:41:30Z</time>
      </trkpt>
      <trkpt lat="37.5054820" lon="-4.4170970">
        <ele>571.2</ele>
        <time>2021-12-28T15:41:31Z</time>
      </trkpt>
      <trkpt lat="37.5054270" lon="-4.4171250">
        <ele>571.2</ele>
        <time>2021-12-28T15:41:32Z</time>
      </trkpt>
      <trkpt lat="37.5053790" lon="-4.4171550">
        <ele>571.0</ele>
        <time>2021-12-28T15:41:33Z</time>
      </trkpt>
      <trkpt lat="37.5053340" lon="-4.4171850">
        <ele>570.8</ele>
        <time>2021-12-28T15:41:34Z</time>
      </trkpt>
      <trkpt lat="37.5052830" lon="-4.4172180">
        <ele>570.6</ele>
        <time>2021-12-28T15:41:35Z</time>
      </trkpt>
      <trkpt lat="37.5052380" lon="-4.4172520">
        <ele>570.4</ele>
        <time>2021-12-28T15:41:36Z</time>
      </trkpt>
      <trkpt lat="37.5051900" lon="-4.4172820">
        <ele>570.4</ele>
        <time>2021-12-28T15:41:37Z</time>
      </trkpt>
      <trkpt lat="37.5051580" lon="-4.4173070">
        <ele>570.2</ele>
        <time>2021-12-28T15:41:38Z</time>
      </trkpt>
      <trkpt lat="37.5051260" lon="-4.4173280">
        <ele>570.2</ele>
        <time>2021-12-28T15:41:39Z</time>
      </trkpt>
      <trkpt lat="37.5051040" lon="-4.4173480">
        <ele>570.0</ele>
        <time>2021-12-28T15:41:40Z</time>
      </trkpt>
      <trkpt lat="37.5050820" lon="-4.4173700">
        <ele>570.0</ele>
        <time>2021-12-28T15:41:41Z</time>
      </trkpt>
      <trkpt lat="37.5050560" lon="-4.4173920">
        <ele>570.0</ele>
        <time>2021-12-28T15:41:42Z</time>
      </trkpt>
      <trkpt lat="37.5050300" lon="-4.4174080">
        <ele>569.8</ele>
        <time>2021-12-28T15:41:43Z</time>
      </trkpt>
      <trkpt lat="37.5050080" lon="-4.4174250">
        <ele>569.8</ele>
        <time>2021-12-28T15:41:44Z</time>
      </trkpt>
      <trkpt lat="37.5049890" lon="-4.4174420">
        <ele>569.6</ele>
        <time>2021-12-28T15:41:45Z</time>
      </trkpt>
      <trkpt lat="37.5049660" lon="-4.4174580">
        <ele>569.6</ele>
        <time>2021-12-28T15:41:46Z</time>
      </trkpt>
      <trkpt lat="37.5049440" lon="-4.4174750">
        <ele>569.6</ele>
        <time>2021-12-28T15:41:47Z</time>
      </trkpt>
      <trkpt lat="37.5049180" lon="-4.4174930">
        <ele>569.4</ele>
        <time>2021-12-28T15:41:48Z</time>
      </trkpt>
      <trkpt lat="37.5048860" lon="-4.4175100">
        <ele>569.4</ele>
        <time>2021-12-28T15:41:49Z</time>
      </trkpt>
      <trkpt lat="37.5048610" lon="-4.4175250">
        <ele>569.4</ele>
        <time>2021-12-28T15:41:50Z</time>
      </trkpt>
      <trkpt lat="37.5048290" lon="-4.4175440">
        <ele>569.2</ele>
        <time>2021-12-28T15:41:51Z</time>
      </trkpt>
      <trkpt lat="37.5048030" lon="-4.4175620">
        <ele>569.2</ele>
        <time>2021-12-28T15:41:52Z</time>
      </trkpt>
      <trkpt lat="37.5047710" lon="-4.4175840">
        <ele>569.0</ele>
        <time>2021-12-28T15:41:53Z</time>
      </trkpt>
      <trkpt lat="37.5047460" lon="-4.4176070">
        <ele>569.0</ele>
        <time>2021-12-28T15:41:54Z</time>
      </trkpt>
      <trkpt lat="37.5047140" lon="-4.4176270">
        <ele>568.8</ele>
        <time>2021-12-28T15:41:55Z</time>
      </trkpt>
      <trkpt lat="37.5046880" lon="-4.4176480">
        <ele>568.6</ele>
        <time>2021-12-28T15:41:56Z</time>
      </trkpt>
      <trkpt lat="37.5046620" lon="-4.4176720">
        <ele>568.6</ele>
        <time>2021-12-28T15:41:57Z</time>
      </trkpt>
      <trkpt lat="37.5046300" lon="-4.4176960">
        <ele>568.4</ele>
        <time>2021-12-28T15:41:58Z</time>
      </trkpt>
      <trkpt lat="37.5046050" lon="-4.4177230">
        <ele>568.2</ele>
        <time>2021-12-28T15:41:59Z</time>
      </trkpt>
      <trkpt lat="37.5045820" lon="-4.4177450">
        <ele>568.0</ele>
        <time>2021-12-28T15:42:00Z</time>
      </trkpt>
      <trkpt lat="37.5045540" lon="-4.4177680">
        <ele>568.0</ele>
        <time>2021-12-28T15:42:01Z</time>
      </trkpt>
      <trkpt lat="37.5045280" lon="-4.4177880">
        <ele>567.8</ele>
        <time>2021-12-28T15:42:02Z</time>
      </trkpt>
      <trkpt lat="37.5045020" lon="-4.4178070">
        <ele>567.8</ele>
        <time>2021-12-28T15:42:03Z</time>
      </trkpt>
      <trkpt lat="37.5044700" lon="-4.4178280">
        <ele>567.8</ele>
        <time>2021-12-28T15:42:04Z</time>
      </trkpt>
      <trkpt lat="37.5044450" lon="-4.4178500">
        <ele>567.6</ele>
        <time>2021-12-28T15:42:05Z</time>
      </trkpt>
      <trkpt lat="37.5044160" lon="-4.4178720">
        <ele>567.6</ele>
        <time>2021-12-28T15:42:06Z</time>
      </trkpt>
      <trkpt lat="37.5043870" lon="-4.4178880">
        <ele>567.6</ele>
        <time>2021-12-28T15:42:07Z</time>
      </trkpt>
      <trkpt lat="37.5043620" lon="-4.4179040">
        <ele>567.6</ele>
        <time>2021-12-28T15:42:08Z</time>
      </trkpt>
      <trkpt lat="37.5043330" lon="-4.4179220">
        <ele>567.6</ele>
        <time>2021-12-28T15:42:09Z</time>
      </trkpt>
      <trkpt lat="37.5043070" lon="-4.4179400">
        <ele>567.6</ele>
        <time>2021-12-28T15:42:10Z</time>
      </trkpt>
      <trkpt lat="37.5042820" lon="-4.4179600">
        <ele>567.6</ele>
        <time>2021-12-28T15:42:11Z</time>
      </trkpt>
      <trkpt lat="37.5042530" lon="-4.4179820">
        <ele>567.6</ele>
        <time>2021-12-28T15:42:12Z</time>
      </trkpt>
      <trkpt lat="37.5042300" lon="-4.4180030">
        <ele>567.6</ele>
        <time>2021-12-28T15:42:13Z</time>
      </trkpt>
      <trkpt lat="37.5042080" lon="-4.4180250">
        <ele>567.6</ele>
        <time>2021-12-28T15:42:14Z</time>
      </trkpt>
      <trkpt lat="37.5041860" lon="-4.4180430">
        <ele>567.6</ele>
        <time>2021-12-28T15:42:15Z</time>
      </trkpt>
      <trkpt lat="37.5041570" lon="-4.4180600">
        <ele>567.4</ele>
        <time>2021-12-28T15:42:16Z</time>
      </trkpt>
      <trkpt lat="37.5041340" lon="-4.4180760">
        <ele>567.4</ele>
        <time>2021-12-28T15:42:17Z</time>
      </trkpt>
      <trkpt lat="37.5041090" lon="-4.4180950">
        <ele>567.4</ele>
        <time>2021-12-28T15:42:18Z</time>
      </trkpt>
      <trkpt lat="37.5040860" lon="-4.4181130">
        <ele>567.2</ele>
        <time>2021-12-28T15:42:19Z</time>
      </trkpt>
      <trkpt lat="37.5040580" lon="-4.4181330">
        <ele>567.2</ele>
        <time>2021-12-28T15:42:20Z</time>
      </trkpt>
      <trkpt lat="37.5040320" lon="-4.4181530">
        <ele>567.2</ele>
        <time>2021-12-28T15:42:21Z</time>
      </trkpt>
      <trkpt lat="37.5040030" lon="-4.4181750">
        <ele>567.0</ele>
        <time>2021-12-28T15:42:22Z</time>
      </trkpt>
      <trkpt lat="37.5039740" lon="-4.4182000">
        <ele>567.0</ele>
        <time>2021-12-28T15:42:23Z</time>
      </trkpt>
      <trkpt lat="37.5039390" lon="-4.4182270">
        <ele>567.0</ele>
        <time>2021-12-28T15:42:24Z</time>
      </trkpt>
      <trkpt lat="37.5039070" lon="-4.4182520">
        <ele>566.8</ele>
        <time>2021-12-28T15:42:25Z</time>
      </trkpt>
      <trkpt lat="37.5038720" lon="-4.4182800">
        <ele>566.8</ele>
        <time>2021-12-28T15:42:26Z</time>
      </trkpt>
      <trkpt lat="37.5038340" lon="-4.4183140">
        <ele>566.8</ele>
        <time>2021-12-28T15:42:27Z</time>
      </trkpt>
      <trkpt lat="37.5037980" lon="-4.4183480">
        <ele>566.8</ele>
        <time>2021-12-28T15:42:28Z</time>
      </trkpt>
      <trkpt lat="37.5037660" lon="-4.4183850">
        <ele>566.8</ele>
        <time>2021-12-28T15:42:29Z</time>
      </trkpt>
      <trkpt lat="37.5037220" lon="-4.4184200">
        <ele>566.8</ele>
        <time>2021-12-28T15:42:30Z</time>
      </trkpt>
      <trkpt lat="37.5036860" lon="-4.4184580">
        <ele>566.8</ele>
        <time>2021-12-28T15:42:31Z</time>
      </trkpt>
      <trkpt lat="37.5036510" lon="-4.4184950">
        <ele>566.8</ele>
        <time>2021-12-28T15:42:32Z</time>
      </trkpt>
      <trkpt lat="37.5036160" lon="-4.4185350">
        <ele>566.8</ele>
        <time>2021-12-28T15:42:33Z</time>
      </trkpt>
      <trkpt lat="37.5035780" lon="-4.4185750">
        <ele>566.8</ele>
        <time>2021-12-28T15:42:34Z</time>
      </trkpt>
      <trkpt lat="37.5035420" lon="-4.4186150">
        <ele>566.6</ele>
        <time>2021-12-28T15:42:35Z</time>
      </trkpt>
      <trkpt lat="37.5035140" lon="-4.4186570">
        <ele>566.6</ele>
        <time>2021-12-28T15:42:36Z</time>
      </trkpt>
      <trkpt lat="37.5034820" lon="-4.4186970">
        <ele>566.6</ele>
        <time>2021-12-28T15:42:37Z</time>
      </trkpt>
      <trkpt lat="37.5034530" lon="-4.4187350">
        <ele>566.6</ele>
        <time>2021-12-28T15:42:38Z</time>
      </trkpt>
      <trkpt lat="37.5034210" lon="-4.4187720">
        <ele>566.6</ele>
        <time>2021-12-28T15:42:39Z</time>
      </trkpt>
      <trkpt lat="37.5033820" lon="-4.4188080">
        <ele>566.6</ele>
        <time>2021-12-28T15:42:40Z</time>
      </trkpt>
      <trkpt lat="37.5033500" lon="-4.4188470">
        <ele>566.6</ele>
        <time>2021-12-28T15:42:41Z</time>
      </trkpt>
      <trkpt lat="37.5033120" lon="-4.4188850">
        <ele>566.6</ele>
        <time>2021-12-28T15:42:42Z</time>
      </trkpt>
      <trkpt lat="37.5032740" lon="-4.4189220">
        <ele>566.6</ele>
        <time>2021-12-28T15:42:43Z</time>
      </trkpt>
      <trkpt lat="37.5032380" lon="-4.4189600">
        <ele>566.6</ele>
        <time>2021-12-28T15:42:44Z</time>
      </trkpt>
      <trkpt lat="37.5032130" lon="-4.4190020">
        <ele>566.6</ele>
        <time>2021-12-28T15:42:45Z</time>
      </trkpt>
      <trkpt lat="37.5031840" lon="-4.4190420">
        <ele>566.8</ele>
        <time>2021-12-28T15:42:46Z</time>
      </trkpt>
      <trkpt lat="37.5031550" lon="-4.4190780">
        <ele>566.8</ele>
        <time>2021-12-28T15:42:47Z</time>
      </trkpt>
      <trkpt lat="37.5031200" lon="-4.4191160">
        <ele>566.8</ele>
        <time>2021-12-28T15:42:48Z</time>
      </trkpt>
      <trkpt lat="37.5030940" lon="-4.4191560">
        <ele>566.8</ele>
        <time>2021-12-28T15:42:49Z</time>
      </trkpt>
      <trkpt lat="37.5030590" lon="-4.4191880">
        <ele>566.8</ele>
        <time>2021-12-28T15:42:50Z</time>
      </trkpt>
      <trkpt lat="37.5030210" lon="-4.4192270">
        <ele>567.0</ele>
        <time>2021-12-28T15:42:51Z</time>
      </trkpt>
      <trkpt lat="37.5029860" lon="-4.4192650">
        <ele>567.0</ele>
        <time>2021-12-28T15:42:52Z</time>
      </trkpt>
      <trkpt lat="37.5029540" lon="-4.4193070">
        <ele>567.0</ele>
        <time>2021-12-28T15:42:53Z</time>
      </trkpt>
      <trkpt lat="37.5029180" lon="-4.4193470">
        <ele>567.0</ele>
        <time>2021-12-28T15:42:54Z</time>
      </trkpt>
      <trkpt lat="37.5028800" lon="-4.4193900">
        <ele>567.0</ele>
        <time>2021-12-28T15:42:55Z</time>
      </trkpt>
      <trkpt lat="37.5028420" lon="-4.4194330">
        <ele>567.0</ele>
        <time>2021-12-28T15:42:56Z</time>
      </trkpt>
      <trkpt lat="37.5028030" lon="-4.4194760">
        <ele>567.0</ele>
        <time>2021-12-28T15:42:57Z</time>
      </trkpt>
      <trkpt lat="37.5027740" lon="-4.4195230">
        <ele>567.0</ele>
        <time>2021-12-28T15:42:58Z</time>
      </trkpt>
      <trkpt lat="37.5027390" lon="-4.4195720">
        <ele>567.2</ele>
        <time>2021-12-28T15:42:59Z</time>
      </trkpt>
      <trkpt lat="37.5026940" lon="-4.4196200">
        <ele>567.2</ele>
        <time>2021-12-28T15:43:00Z</time>
      </trkpt>
      <trkpt lat="37.5026560" lon="-4.4196680">
        <ele>567.2</ele>
        <time>2021-12-28T15:43:01Z</time>
      </trkpt>
      <trkpt lat="37.5026210" lon="-4.4197120">
        <ele>567.2</ele>
        <time>2021-12-28T15:43:02Z</time>
      </trkpt>
      <trkpt lat="37.5025950" lon="-4.4197570">
        <ele>567.2</ele>
        <time>2021-12-28T15:43:03Z</time>
      </trkpt>
      <trkpt lat="37.5025700" lon="-4.4198050">
        <ele>567.2</ele>
        <time>2021-12-28T15:43:04Z</time>
      </trkpt>
      <trkpt lat="37.5025440" lon="-4.4198500">
        <ele>567.2</ele>
        <time>2021-12-28T15:43:05Z</time>
      </trkpt>
      <trkpt lat="37.5025090" lon="-4.4198930">
        <ele>567.2</ele>
        <time>2021-12-28T15:43:06Z</time>
      </trkpt>
      <trkpt lat="37.5024770" lon="-4.4199350">
        <ele>567.2</ele>
        <time>2021-12-28T15:43:07Z</time>
      </trkpt>
      <trkpt lat="37.5024420" lon="-4.4199770">
        <ele>567.2</ele>
        <time>2021-12-28T15:43:08Z</time>
      </trkpt>
      <trkpt lat="37.5024030" lon="-4.4200200">
        <ele>567.2</ele>
        <time>2021-12-28T15:43:09Z</time>
      </trkpt>
      <trkpt lat="37.5023680" lon="-4.4200640">
        <ele>567.2</ele>
        <time>2021-12-28T15:43:10Z</time>
      </trkpt>
      <trkpt lat="37.5023260" lon="-4.4201020">
        <ele>567.0</ele>
        <time>2021-12-28T15:43:11Z</time>
      </trkpt>
      <trkpt lat="37.5022820" lon="-4.4201400">
        <ele>566.8</ele>
        <time>2021-12-28T15:43:12Z</time>
      </trkpt>
      <trkpt lat="37.5022400" lon="-4.4201800">
        <ele>566.8</ele>
        <time>2021-12-28T15:43:13Z</time>
      </trkpt>
      <trkpt lat="37.5021920" lon="-4.4202230">
        <ele>566.6</ele>
        <time>2021-12-28T15:43:14Z</time>
      </trkpt>
      <trkpt lat="37.5021440" lon="-4.4202680">
        <ele>566.4</ele>
        <time>2021-12-28T15:43:15Z</time>
      </trkpt>
      <trkpt lat="37.5020930" lon="-4.4203120">
        <ele>566.2</ele>
        <time>2021-12-28T15:43:16Z</time>
      </trkpt>
      <trkpt lat="37.5020480" lon="-4.4203550">
        <ele>566.2</ele>
        <time>2021-12-28T15:43:17Z</time>
      </trkpt>
      <trkpt lat="37.5020000" lon="-4.4203940">
        <ele>566.0</ele>
        <time>2021-12-28T15:43:18Z</time>
      </trkpt>
      <trkpt lat="37.5019490" lon="-4.4204300">
        <ele>566.0</ele>
        <time>2021-12-28T15:43:19Z</time>
      </trkpt>
      <trkpt lat="37.5019040" lon="-4.4204680">
        <ele>565.8</ele>
        <time>2021-12-28T15:43:20Z</time>
      </trkpt>
      <trkpt lat="37.5018530" lon="-4.4205060">
        <ele>565.8</ele>
        <time>2021-12-28T15:43:21Z</time>
      </trkpt>
      <trkpt lat="37.5018020" lon="-4.4205400">
        <ele>565.6</ele>
        <time>2021-12-28T15:43:22Z</time>
      </trkpt>
      <trkpt lat="37.5017500" lon="-4.4205720">
        <ele>565.4</ele>
        <time>2021-12-28T15:43:23Z</time>
      </trkpt>
      <trkpt lat="37.5017020" lon="-4.4206070">
        <ele>565.4</ele>
        <time>2021-12-28T15:43:24Z</time>
      </trkpt>
      <trkpt lat="37.5016510" lon="-4.4206400">
        <ele>565.2</ele>
        <time>2021-12-28T15:43:25Z</time>
      </trkpt>
      <trkpt lat="37.5015970" lon="-4.4206750">
        <ele>565.0</ele>
        <time>2021-12-28T15:43:26Z</time>
      </trkpt>
      <trkpt lat="37.5015520" lon="-4.4207100">
        <ele>564.8</ele>
        <time>2021-12-28T15:43:27Z</time>
      </trkpt>
      <trkpt lat="37.5015040" lon="-4.4207450">
        <ele>564.8</ele>
        <time>2021-12-28T15:43:28Z</time>
      </trkpt>
      <trkpt lat="37.5014530" lon="-4.4207820">
        <ele>564.6</ele>
        <time>2021-12-28T15:43:29Z</time>
      </trkpt>
      <trkpt lat="37.5014050" lon="-4.4208150">
        <ele>564.6</ele>
        <time>2021-12-28T15:43:30Z</time>
      </trkpt>
      <trkpt lat="37.5013570" lon="-4.4208480">
        <ele>564.4</ele>
        <time>2021-12-28T15:43:31Z</time>
      </trkpt>
      <trkpt lat="37.5013090" lon="-4.4208800">
        <ele>564.4</ele>
        <time>2021-12-28T15:43:32Z</time>
      </trkpt>
      <trkpt lat="37.5012640" lon="-4.4209100">
        <ele>564.2</ele>
        <time>2021-12-28T15:43:33Z</time>
      </trkpt>
      <trkpt lat="37.5012130" lon="-4.4209360">
        <ele>564.2</ele>
        <time>2021-12-28T15:43:34Z</time>
      </trkpt>
      <trkpt lat="37.5011680" lon="-4.4209630">
        <ele>564.0</ele>
        <time>2021-12-28T15:43:35Z</time>
      </trkpt>
      <trkpt lat="37.5011200" lon="-4.4209920">
        <ele>564.0</ele>
        <time>2021-12-28T15:43:36Z</time>
      </trkpt>
      <trkpt lat="37.5010750" lon="-4.4210170">
        <ele>563.8</ele>
        <time>2021-12-28T15:43:37Z</time>
      </trkpt>
      <trkpt lat="37.5010300" lon="-4.4210430">
        <ele>563.6</ele>
        <time>2021-12-28T15:43:38Z</time>
      </trkpt>
      <trkpt lat="37.5009890" lon="-4.4210750">
        <ele>563.4</ele>
        <time>2021-12-28T15:43:39Z</time>
      </trkpt>
      <trkpt lat="37.5009410" lon="-4.4211040">
        <ele>563.4</ele>
        <time>2021-12-28T15:43:40Z</time>
      </trkpt>
      <trkpt lat="37.5008990" lon="-4.4211300">
        <ele>563.2</ele>
        <time>2021-12-28T15:43:41Z</time>
      </trkpt>
      <trkpt lat="37.5008540" lon="-4.4211570">
        <ele>563.0</ele>
        <time>2021-12-28T15:43:42Z</time>
      </trkpt>
      <trkpt lat="37.5008100" lon="-4.4211850">
        <ele>563.0</ele>
        <time>2021-12-28T15:43:43Z</time>
      </trkpt>
      <trkpt lat="37.5007620" lon="-4.4212150">
        <ele>562.8</ele>
        <time>2021-12-28T15:43:44Z</time>
      </trkpt>
      <trkpt lat="37.5007170" lon="-4.4212460">
        <ele>562.6</ele>
        <time>2021-12-28T15:43:45Z</time>
      </trkpt>
      <trkpt lat="37.5006750" lon="-4.4212780">
        <ele>562.4</ele>
        <time>2021-12-28T15:43:46Z</time>
      </trkpt>
      <trkpt lat="37.5006270" lon="-4.4213100">
        <ele>562.4</ele>
        <time>2021-12-28T15:43:47Z</time>
      </trkpt>
      <trkpt lat="37.5005820" lon="-4.4213380">
        <ele>562.2</ele>
        <time>2021-12-28T15:43:48Z</time>
      </trkpt>
      <trkpt lat="37.5005410" lon="-4.4213630">
        <ele>562.2</ele>
        <time>2021-12-28T15:43:49Z</time>
      </trkpt>
      <trkpt lat="37.5004930" lon="-4.4213920">
        <ele>562.0</ele>
        <time>2021-12-28T15:43:50Z</time>
      </trkpt>
      <trkpt lat="37.5004450" lon="-4.4214270">
        <ele>561.8</ele>
        <time>2021-12-28T15:43:51Z</time>
      </trkpt>
      <trkpt lat="37.5004000" lon="-4.4214620">
        <ele>561.8</ele>
        <time>2021-12-28T15:43:52Z</time>
      </trkpt>
      <trkpt lat="37.5003550" lon="-4.4215000">
        <ele>561.6</ele>
        <time>2021-12-28T15:43:53Z</time>
      </trkpt>
      <trkpt lat="37.5003040" lon="-4.4215360">
        <ele>561.6</ele>
        <time>2021-12-28T15:43:54Z</time>
      </trkpt>
      <trkpt lat="37.5002590" lon="-4.4215680">
        <ele>561.4</ele>
        <time>2021-12-28T15:43:55Z</time>
      </trkpt>
      <trkpt lat="37.5002110" lon="-4.4216060">
        <ele>561.2</ele>
        <time>2021-12-28T15:43:56Z</time>
      </trkpt>
      <trkpt lat="37.5001660" lon="-4.4216430">
        <ele>561.2</ele>
        <time>2021-12-28T15:43:57Z</time>
      </trkpt>
      <trkpt lat="37.5001250" lon="-4.4216800">
        <ele>561.0</ele>
        <time>2021-12-28T15:43:58Z</time>
      </trkpt>
      <trkpt lat="37.5000830" lon="-4.4217170">
        <ele>560.8</ele>
        <time>2021-12-28T15:43:59Z</time>
      </trkpt>
      <trkpt lat="37.5000450" lon="-4.4217540">
        <ele>560.8</ele>
        <time>2021-12-28T15:44:00Z</time>
      </trkpt>
      <trkpt lat="37.5000060" lon="-4.4217900">
        <ele>560.6</ele>
        <time>2021-12-28T15:44:01Z</time>
      </trkpt>
      <trkpt lat="37.4999680" lon="-4.4218250">
        <ele>560.6</ele>
        <time>2021-12-28T15:44:02Z</time>
      </trkpt>
      <trkpt lat="37.4999330" lon="-4.4218640">
        <ele>560.4</ele>
        <time>2021-12-28T15:44:03Z</time>
      </trkpt>
      <trkpt lat="37.4998940" lon="-4.4219000">
        <ele>560.4</ele>
        <time>2021-12-28T15:44:04Z</time>
      </trkpt>
      <trkpt lat="37.4998560" lon="-4.4219400">
        <ele>560.2</ele>
        <time>2021-12-28T15:44:05Z</time>
      </trkpt>
      <trkpt lat="37.4998180" lon="-4.4219800">
        <ele>560.2</ele>
        <time>2021-12-28T15:44:06Z</time>
      </trkpt>
      <trkpt lat="37.4997790" lon="-4.4220220">
        <ele>560.2</ele>
        <time>2021-12-28T15:44:07Z</time>
      </trkpt>
      <trkpt lat="37.4997410" lon="-4.4220650">
        <ele>560.0</ele>
        <time>2021-12-28T15:44:08Z</time>
      </trkpt>
      <trkpt lat="37.4997020" lon="-4.4221080">
        <ele>560.0</ele>
        <time>2021-12-28T15:44:09Z</time>
      </trkpt>
      <trkpt lat="37.4996640" lon="-4.4221520">
        <ele>560.0</ele>
        <time>2021-12-28T15:44:10Z</time>
      </trkpt>
      <trkpt lat="37.4996260" lon="-4.4221970">
        <ele>560.0</ele>
        <time>2021-12-28T15:44:11Z</time>
      </trkpt>
      <trkpt lat="37.4995870" lon="-4.4222430">
        <ele>559.8</ele>
        <time>2021-12-28T15:44:12Z</time>
      </trkpt>
      <trkpt lat="37.4995490" lon="-4.4222920">
        <ele>559.8</ele>
        <time>2021-12-28T15:44:13Z</time>
      </trkpt>
      <trkpt lat="37.4995100" lon="-4.4223400">
        <ele>559.6</ele>
        <time>2021-12-28T15:44:14Z</time>
      </trkpt>
      <trkpt lat="37.4994720" lon="-4.4223870">
        <ele>559.6</ele>
        <time>2021-12-28T15:44:15Z</time>
      </trkpt>
      <trkpt lat="37.4994300" lon="-4.4224380">
        <ele>559.6</ele>
        <time>2021-12-28T15:44:16Z</time>
      </trkpt>
      <trkpt lat="37.4993980" lon="-4.4224900">
        <ele>559.4</ele>
        <time>2021-12-28T15:44:17Z</time>
      </trkpt>
      <trkpt lat="37.4993600" lon="-4.4225420">
        <ele>559.4</ele>
        <time>2021-12-28T15:44:18Z</time>
      </trkpt>
      <trkpt lat="37.4993220" lon="-4.4225930">
        <ele>559.4</ele>
        <time>2021-12-28T15:44:19Z</time>
      </trkpt>
      <trkpt lat="37.4992860" lon="-4.4226460">
        <ele>559.2</ele>
        <time>2021-12-28T15:44:20Z</time>
      </trkpt>
      <trkpt lat="37.4992480" lon="-4.4227030">
        <ele>559.2</ele>
        <time>2021-12-28T15:44:21Z</time>
      </trkpt>
      <trkpt lat="37.4992190" lon="-4.4227580">
        <ele>559.2</ele>
        <time>2021-12-28T15:44:22Z</time>
      </trkpt>
      <trkpt lat="37.4991900" lon="-4.4228080">
        <ele>559.2</ele>
        <time>2021-12-28T15:44:23Z</time>
      </trkpt>
      <trkpt lat="37.4991580" lon="-4.4228520">
        <ele>559.0</ele>
        <time>2021-12-28T15:44:24Z</time>
      </trkpt>
      <trkpt lat="37.4991260" lon="-4.4228970">
        <ele>559.0</ele>
        <time>2021-12-28T15:44:25Z</time>
      </trkpt>
      <trkpt lat="37.4990910" lon="-4.4229450">
        <ele>558.8</ele>
        <time>2021-12-28T15:44:26Z</time>
      </trkpt>
      <trkpt lat="37.4990590" lon="-4.4229960">
        <ele>558.6</ele>
        <time>2021-12-28T15:44:27Z</time>
      </trkpt>
      <trkpt lat="37.4990240" lon="-4.4230500">
        <ele>558.4</ele>
        <time>2021-12-28T15:44:28Z</time>
      </trkpt>
      <trkpt lat="37.4989890" lon="-4.4231020">
        <ele>558.4</ele>
        <time>2021-12-28T15:44:29Z</time>
      </trkpt>
      <trkpt lat="37.4989540" lon="-4.4231540">
        <ele>558.2</ele>
        <time>2021-12-28T15:44:30Z</time>
      </trkpt>
      <trkpt lat="37.4989150" lon="-4.4232070">
        <ele>558.0</ele>
        <time>2021-12-28T15:44:31Z</time>
      </trkpt>
      <trkpt lat="37.4988830" lon="-4.4232620">
        <ele>557.8</ele>
        <time>2021-12-28T15:44:32Z</time>
      </trkpt>
      <trkpt lat="37.4988450" lon="-4.4233150">
        <ele>557.8</ele>
        <time>2021-12-28T15:44:33Z</time>
      </trkpt>
      <trkpt lat="37.4988100" lon="-4.4233680">
        <ele>557.6</ele>
        <time>2021-12-28T15:44:34Z</time>
      </trkpt>
      <trkpt lat="37.4987710" lon="-4.4234220">
        <ele>557.4</ele>
        <time>2021-12-28T15:44:35Z</time>
      </trkpt>
      <trkpt lat="37.4987360" lon="-4.4234750">
        <ele>557.2</ele>
        <time>2021-12-28T15:44:36Z</time>
      </trkpt>
      <trkpt lat="37.4986980" lon="-4.4235320">
        <ele>557.2</ele>
        <time>2021-12-28T15:44:37Z</time>
      </trkpt>
      <trkpt lat="37.4986660" lon="-4.4235850">
        <ele>557.0</ele>
        <time>2021-12-28T15:44:38Z</time>
      </trkpt>
      <trkpt lat="37.4986300" lon="-4.4236380">
        <ele>557.0</ele>
        <time>2021-12-28T15:44:39Z</time>
      </trkpt>
      <trkpt lat="37.4986020" lon="-4.4236920">
        <ele>557.0</ele>
        <time>2021-12-28T15:44:40Z</time>
      </trkpt>
      <trkpt lat="37.4985730" lon="-4.4237380">
        <ele>557.0</ele>
        <time>2021-12-28T15:44:41Z</time>
      </trkpt>
      <trkpt lat="37.4985340" lon="-4.4237900">
        <ele>557.0</ele>
        <time>2021-12-28T15:44:42Z</time>
      </trkpt>
      <trkpt lat="37.4985020" lon="-4.4238420">
        <ele>557.0</ele>
        <time>2021-12-28T15:44:43Z</time>
      </trkpt>
      <trkpt lat="37.4984670" lon="-4.4238940">
        <ele>557.0</ele>
        <time>2021-12-28T15:44:44Z</time>
      </trkpt>
      <trkpt lat="37.4984290" lon="-4.4239470">
        <ele>557.0</ele>
        <time>2021-12-28T15:44:45Z</time>
      </trkpt>
      <trkpt lat="37.4983940" lon="-4.4240030">
        <ele>557.0</ele>
        <time>2021-12-28T15:44:46Z</time>
      </trkpt>
      <trkpt lat="37.4983580" lon="-4.4240580">
        <ele>557.0</ele>
        <time>2021-12-28T15:44:47Z</time>
      </trkpt>
      <trkpt lat="37.4983200" lon="-4.4241060">
        <ele>556.8</ele>
        <time>2021-12-28T15:44:48Z</time>
      </trkpt>
      <trkpt lat="37.4982880" lon="-4.4241570">
        <ele>556.8</ele>
        <time>2021-12-28T15:44:49Z</time>
      </trkpt>
      <trkpt lat="37.4982530" lon="-4.4242050">
        <ele>556.8</ele>
        <time>2021-12-28T15:44:50Z</time>
      </trkpt>
      <trkpt lat="37.4982180" lon="-4.4242520">
        <ele>556.6</ele>
        <time>2021-12-28T15:44:51Z</time>
      </trkpt>
      <trkpt lat="37.4981890" lon="-4.4242980">
        <ele>556.6</ele>
        <time>2021-12-28T15:44:52Z</time>
      </trkpt>
      <trkpt lat="37.4981540" lon="-4.4243400">
        <ele>556.4</ele>
        <time>2021-12-28T15:44:53Z</time>
      </trkpt>
      <trkpt lat="37.4981180" lon="-4.4243760">
        <ele>556.2</ele>
        <time>2021-12-28T15:44:54Z</time>
      </trkpt>
      <trkpt lat="37.4980860" lon="-4.4244160">
        <ele>556.0</ele>
        <time>2021-12-28T15:44:55Z</time>
      </trkpt>
      <trkpt lat="37.4980420" lon="-4.4244560">
        <ele>556.0</ele>
        <time>2021-12-28T15:44:56Z</time>
      </trkpt>
      <trkpt lat="37.4979970" lon="-4.4244970">
        <ele>555.8</ele>
        <time>2021-12-28T15:44:57Z</time>
      </trkpt>
      <trkpt lat="37.4979520" lon="-4.4245370">
        <ele>555.6</ele>
        <time>2021-12-28T15:44:58Z</time>
      </trkpt>
      <trkpt lat="37.4979070" lon="-4.4245820">
        <ele>555.6</ele>
        <time>2021-12-28T15:44:59Z</time>
      </trkpt>
      <trkpt lat="37.4978590" lon="-4.4246240">
        <ele>555.6</ele>
        <time>2021-12-28T15:45:00Z</time>
      </trkpt>
      <trkpt lat="37.4978110" lon="-4.4246650">
        <ele>555.4</ele>
        <time>2021-12-28T15:45:01Z</time>
      </trkpt>
      <trkpt lat="37.4977630" lon="-4.4247150">
        <ele>555.4</ele>
        <time>2021-12-28T15:45:02Z</time>
      </trkpt>
      <trkpt lat="37.4977180" lon="-4.4247550">
        <ele>555.4</ele>
        <time>2021-12-28T15:45:03Z</time>
      </trkpt>
      <trkpt lat="37.4976700" lon="-4.4247980">
        <ele>555.4</ele>
        <time>2021-12-28T15:45:04Z</time>
      </trkpt>
      <trkpt lat="37.4976220" lon="-4.4248380">
        <ele>555.2</ele>
        <time>2021-12-28T15:45:05Z</time>
      </trkpt>
      <trkpt lat="37.4975740" lon="-4.4248750">
        <ele>555.2</ele>
        <time>2021-12-28T15:45:06Z</time>
      </trkpt>
      <trkpt lat="37.4975330" lon="-4.4249070">
        <ele>555.0</ele>
        <time>2021-12-28T15:45:07Z</time>
      </trkpt>
      <trkpt lat="37.4974850" lon="-4.4249400">
        <ele>555.0</ele>
        <time>2021-12-28T15:45:08Z</time>
      </trkpt>
      <trkpt lat="37.4974400" lon="-4.4249750">
        <ele>554.8</ele>
        <time>2021-12-28T15:45:09Z</time>
      </trkpt>
      <trkpt lat="37.4973950" lon="-4.4250100">
        <ele>554.6</ele>
        <time>2021-12-28T15:45:10Z</time>
      </trkpt>
      <trkpt lat="37.4973470" lon="-4.4250450">
        <ele>554.4</ele>
        <time>2021-12-28T15:45:11Z</time>
      </trkpt>
      <trkpt lat="37.4973060" lon="-4.4250760">
        <ele>554.4</ele>
        <time>2021-12-28T15:45:12Z</time>
      </trkpt>
      <trkpt lat="37.4972580" lon="-4.4251060">
        <ele>554.2</ele>
        <time>2021-12-28T15:45:13Z</time>
      </trkpt>
      <trkpt lat="37.4972130" lon="-4.4251380">
        <ele>554.0</ele>
        <time>2021-12-28T15:45:14Z</time>
      </trkpt>
      <trkpt lat="37.4971620" lon="-4.4251670">
        <ele>554.0</ele>
        <time>2021-12-28T15:45:15Z</time>
      </trkpt>
      <trkpt lat="37.4971070" lon="-4.4251930">
        <ele>553.8</ele>
        <time>2021-12-28T15:45:16Z</time>
      </trkpt>
      <trkpt lat="37.4970590" lon="-4.4252200">
        <ele>553.6</ele>
        <time>2021-12-28T15:45:17Z</time>
      </trkpt>
      <trkpt lat="37.4970180" lon="-4.4252420">
        <ele>553.6</ele>
        <time>2021-12-28T15:45:18Z</time>
      </trkpt>
      <trkpt lat="37.4969700" lon="-4.4252680">
        <ele>553.4</ele>
        <time>2021-12-28T15:45:19Z</time>
      </trkpt>
      <trkpt lat="37.4969150" lon="-4.4252950">
        <ele>553.4</ele>
        <time>2021-12-28T15:45:20Z</time>
      </trkpt>
      <trkpt lat="37.4968670" lon="-4.4253170">
        <ele>553.2</ele>
        <time>2021-12-28T15:45:21Z</time>
      </trkpt>
      <trkpt lat="37.4968190" lon="-4.4253370">
        <ele>553.2</ele>
        <time>2021-12-28T15:45:22Z</time>
      </trkpt>
      <trkpt lat="37.4967650" lon="-4.4253570">
        <ele>553.0</ele>
        <time>2021-12-28T15:45:23Z</time>
      </trkpt>
      <trkpt lat="37.4967170" lon="-4.4253770">
        <ele>553.0</ele>
        <time>2021-12-28T15:45:24Z</time>
      </trkpt>
      <trkpt lat="37.4966690" lon="-4.4253980">
        <ele>552.8</ele>
        <time>2021-12-28T15:45:25Z</time>
      </trkpt>
      <trkpt lat="37.4966210" lon="-4.4254180">
        <ele>552.8</ele>
        <time>2021-12-28T15:45:26Z</time>
      </trkpt>
      <trkpt lat="37.4965790" lon="-4.4254350">
        <ele>552.6</ele>
        <time>2021-12-28T15:45:27Z</time>
      </trkpt>
      <trkpt lat="37.4965380" lon="-4.4254460">
        <ele>552.6</ele>
        <time>2021-12-28T15:45:28Z</time>
      </trkpt>
      <trkpt lat="37.4964900" lon="-4.4254580">
        <ele>552.4</ele>
        <time>2021-12-28T15:45:29Z</time>
      </trkpt>
      <trkpt lat="37.4964450" lon="-4.4254750">
        <ele>552.4</ele>
        <time>2021-12-28T15:45:30Z</time>
      </trkpt>
      <trkpt lat="37.4963940" lon="-4.4254850">
        <ele>552.2</ele>
        <time>2021-12-28T15:45:31Z</time>
      </trkpt>
      <trkpt lat="37.4963420" lon="-4.4254960">
        <ele>552.2</ele>
        <time>2021-12-28T15:45:32Z</time>
      </trkpt>
      <trkpt lat="37.4962850" lon="-4.4255060">
        <ele>552.0</ele>
        <time>2021-12-28T15:45:33Z</time>
      </trkpt>
      <trkpt lat="37.4962270" lon="-4.4255170">
        <ele>551.8</ele>
        <time>2021-12-28T15:45:34Z</time>
      </trkpt>
      <trkpt lat="37.4961790" lon="-4.4255250">
        <ele>551.8</ele>
        <time>2021-12-28T15:45:35Z</time>
      </trkpt>
      <trkpt lat="37.4961280" lon="-4.4255320">
        <ele>551.8</ele>
        <time>2021-12-28T15:45:36Z</time>
      </trkpt>
      <trkpt lat="37.4960800" lon="-4.4255420">
        <ele>551.6</ele>
        <time>2021-12-28T15:45:37Z</time>
      </trkpt>
      <trkpt lat="37.4960290" lon="-4.4255520">
        <ele>551.6</ele>
        <time>2021-12-28T15:45:38Z</time>
      </trkpt>
      <trkpt lat="37.4959810" lon="-4.4255620">
        <ele>551.4</ele>
        <time>2021-12-28T15:45:39Z</time>
      </trkpt>
      <trkpt lat="37.4959300" lon="-4.4255720">
        <ele>551.4</ele>
        <time>2021-12-28T15:45:40Z</time>
      </trkpt>
      <trkpt lat="37.4958820" lon="-4.4255800">
        <ele>551.4</ele>
        <time>2021-12-28T15:45:41Z</time>
      </trkpt>
      <trkpt lat="37.4958270" lon="-4.4255900">
        <ele>551.2</ele>
        <time>2021-12-28T15:45:42Z</time>
      </trkpt>
      <trkpt lat="37.4957760" lon="-4.4256020">
        <ele>551.2</ele>
        <time>2021-12-28T15:45:43Z</time>
      </trkpt>
      <trkpt lat="37.4957280" lon="-4.4256100">
        <ele>551.2</ele>
        <time>2021-12-28T15:45:44Z</time>
      </trkpt>
      <trkpt lat="37.4956740" lon="-4.4256100">
        <ele>551.0</ele>
        <time>2021-12-28T15:45:45Z</time>
      </trkpt>
      <trkpt lat="37.4956130" lon="-4.4256080">
        <ele>551.0</ele>
        <time>2021-12-28T15:45:46Z</time>
      </trkpt>
      <trkpt lat="37.4955550" lon="-4.4256020">
        <ele>550.8</ele>
        <time>2021-12-28T15:45:47Z</time>
      </trkpt>
      <trkpt lat="37.4954940" lon="-4.4256000">
        <ele>550.8</ele>
        <time>2021-12-28T15:45:48Z</time>
      </trkpt>
      <trkpt lat="37.4954340" lon="-4.4256020">
        <ele>550.8</ele>
        <time>2021-12-28T15:45:49Z</time>
      </trkpt>
      <trkpt lat="37.4953730" lon="-4.4256020">
        <ele>550.6</ele>
        <time>2021-12-28T15:45:50Z</time>
      </trkpt>
      <trkpt lat="37.4953120" lon="-4.4256030">
        <ele>550.6</ele>
        <time>2021-12-28T15:45:51Z</time>
      </trkpt>
      <trkpt lat="37.4952540" lon="-4.4256000">
        <ele>550.6</ele>
        <time>2021-12-28T15:45:52Z</time>
      </trkpt>
      <trkpt lat="37.4951940" lon="-4.4256000">
        <ele>550.6</ele>
        <time>2021-12-28T15:45:53Z</time>
      </trkpt>
      <trkpt lat="37.4951360" lon="-4.4255950">
        <ele>550.6</ele>
        <time>2021-12-28T15:45:54Z</time>
      </trkpt>
      <trkpt lat="37.4950750" lon="-4.4255880">
        <ele>550.6</ele>
        <time>2021-12-28T15:45:55Z</time>
      </trkpt>
      <trkpt lat="37.4950180" lon="-4.4255770">
        <ele>550.6</ele>
        <time>2021-12-28T15:45:56Z</time>
      </trkpt>
      <trkpt lat="37.4949600" lon="-4.4255750">
        <ele>550.6</ele>
        <time>2021-12-28T15:45:57Z</time>
      </trkpt>
      <trkpt lat="37.4949020" lon="-4.4255730">
        <ele>550.6</ele>
        <time>2021-12-28T15:45:58Z</time>
      </trkpt>
      <trkpt lat="37.4948450" lon="-4.4255720">
        <ele>550.6</ele>
        <time>2021-12-28T15:45:59Z</time>
      </trkpt>
      <trkpt lat="37.4947900" lon="-4.4255650">
        <ele>550.6</ele>
        <time>2021-12-28T15:46:00Z</time>
      </trkpt>
      <trkpt lat="37.4947330" lon="-4.4255620">
        <ele>550.6</ele>
        <time>2021-12-28T15:46:01Z</time>
      </trkpt>
      <trkpt lat="37.4946660" lon="-4.4255580">
        <ele>550.6</ele>
        <time>2021-12-28T15:46:02Z</time>
      </trkpt>
      <trkpt lat="37.4946110" lon="-4.4255600">
        <ele>550.6</ele>
        <time>2021-12-28T15:46:03Z</time>
      </trkpt>
      <trkpt lat="37.4945570" lon="-4.4255580">
        <ele>550.6</ele>
        <time>2021-12-28T15:46:04Z</time>
      </trkpt>
      <trkpt lat="37.4945020" lon="-4.4255600">
        <ele>550.6</ele>
        <time>2021-12-28T15:46:05Z</time>
      </trkpt>
      <trkpt lat="37.4944510" lon="-4.4255620">
        <ele>550.4</ele>
        <time>2021-12-28T15:46:06Z</time>
      </trkpt>
      <trkpt lat="37.4943970" lon="-4.4255600">
        <ele>550.4</ele>
        <time>2021-12-28T15:46:07Z</time>
      </trkpt>
      <trkpt lat="37.4943420" lon="-4.4255580">
        <ele>550.2</ele>
        <time>2021-12-28T15:46:08Z</time>
      </trkpt>
      <trkpt lat="37.4942940" lon="-4.4255580">
        <ele>550.0</ele>
        <time>2021-12-28T15:46:09Z</time>
      </trkpt>
      <trkpt lat="37.4942400" lon="-4.4255570">
        <ele>549.8</ele>
        <time>2021-12-28T15:46:10Z</time>
      </trkpt>
      <trkpt lat="37.4941890" lon="-4.4255580">
        <ele>549.6</ele>
        <time>2021-12-28T15:46:11Z</time>
      </trkpt>
      <trkpt lat="37.4941410" lon="-4.4255600">
        <ele>549.4</ele>
        <time>2021-12-28T15:46:12Z</time>
      </trkpt>
      <trkpt lat="37.4940960" lon="-4.4255600">
        <ele>549.2</ele>
        <time>2021-12-28T15:46:13Z</time>
      </trkpt>
      <trkpt lat="37.4940540" lon="-4.4255620">
        <ele>549.0</ele>
        <time>2021-12-28T15:46:14Z</time>
      </trkpt>
      <trkpt lat="37.4940100" lon="-4.4255630">
        <ele>548.8</ele>
        <time>2021-12-28T15:46:15Z</time>
      </trkpt>
      <trkpt lat="37.4939650" lon="-4.4255680">
        <ele>548.8</ele>
        <time>2021-12-28T15:46:16Z</time>
      </trkpt>
      <trkpt lat="37.4939230" lon="-4.4255750">
        <ele>548.6</ele>
        <time>2021-12-28T15:46:17Z</time>
      </trkpt>
      <trkpt lat="37.4938820" lon="-4.4255830">
        <ele>548.4</ele>
        <time>2021-12-28T15:46:18Z</time>
      </trkpt>
      <trkpt lat="37.4938370" lon="-4.4255900">
        <ele>548.4</ele>
        <time>2021-12-28T15:46:19Z</time>
      </trkpt>
      <trkpt lat="37.4937890" lon="-4.4255980">
        <ele>548.2</ele>
        <time>2021-12-28T15:46:20Z</time>
      </trkpt>
      <trkpt lat="37.4937440" lon="-4.4256070">
        <ele>548.2</ele>
        <time>2021-12-28T15:46:21Z</time>
      </trkpt>
      <trkpt lat="37.4936990" lon="-4.4256170">
        <ele>548.0</ele>
        <time>2021-12-28T15:46:22Z</time>
      </trkpt>
      <trkpt lat="37.4936510" lon="-4.4256280">
        <ele>548.0</ele>
        <time>2021-12-28T15:46:23Z</time>
      </trkpt>
      <trkpt lat="37.4936060" lon="-4.4256440">
        <ele>548.0</ele>
        <time>2021-12-28T15:46:24Z</time>
      </trkpt>
      <trkpt lat="37.4935650" lon="-4.4256520">
        <ele>547.8</ele>
        <time>2021-12-28T15:46:25Z</time>
      </trkpt>
      <trkpt lat="37.4935200" lon="-4.4256620">
        <ele>547.8</ele>
        <time>2021-12-28T15:46:26Z</time>
      </trkpt>
      <trkpt lat="37.4934720" lon="-4.4256720">
        <ele>547.8</ele>
        <time>2021-12-28T15:46:27Z</time>
      </trkpt>
      <trkpt lat="37.4934270" lon="-4.4256850">
        <ele>547.8</ele>
        <time>2021-12-28T15:46:28Z</time>
      </trkpt>
      <trkpt lat="37.4933820" lon="-4.4256980">
        <ele>547.8</ele>
        <time>2021-12-28T15:46:29Z</time>
      </trkpt>
      <trkpt lat="37.4933310" lon="-4.4257140">
        <ele>547.6</ele>
        <time>2021-12-28T15:46:30Z</time>
      </trkpt>
      <trkpt lat="37.4932830" lon="-4.4257300">
        <ele>547.6</ele>
        <time>2021-12-28T15:46:31Z</time>
      </trkpt>
      <trkpt lat="37.4932350" lon="-4.4257480">
        <ele>547.6</ele>
        <time>2021-12-28T15:46:32Z</time>
      </trkpt>
      <trkpt lat="37.4931840" lon="-4.4257660">
        <ele>547.4</ele>
        <time>2021-12-28T15:46:33Z</time>
      </trkpt>
      <trkpt lat="37.4931330" lon="-4.4257860">
        <ele>547.4</ele>
        <time>2021-12-28T15:46:34Z</time>
      </trkpt>
      <trkpt lat="37.4930880" lon="-4.4258050">
        <ele>547.2</ele>
        <time>2021-12-28T15:46:35Z</time>
      </trkpt>
      <trkpt lat="37.4930340" lon="-4.4258250">
        <ele>547.0</ele>
        <time>2021-12-28T15:46:36Z</time>
      </trkpt>
      <trkpt lat="37.4929860" lon="-4.4258500">
        <ele>547.0</ele>
        <time>2021-12-28T15:46:37Z</time>
      </trkpt>
      <trkpt lat="37.4929340" lon="-4.4258750">
        <ele>546.8</ele>
        <time>2021-12-28T15:46:38Z</time>
      </trkpt>
      <trkpt lat="37.4928930" lon="-4.4258980">
        <ele>546.6</ele>
        <time>2021-12-28T15:46:39Z</time>
      </trkpt>
      <trkpt lat="37.4928540" lon="-4.4259170">
        <ele>546.6</ele>
        <time>2021-12-28T15:46:40Z</time>
      </trkpt>
      <trkpt lat="37.4928190" lon="-4.4259350">
        <ele>546.4</ele>
        <time>2021-12-28T15:46:41Z</time>
      </trkpt>
      <trkpt lat="37.4927870" lon="-4.4259550">
        <ele>546.4</ele>
        <time>2021-12-28T15:46:42Z</time>
      </trkpt>
      <trkpt lat="37.4927460" lon="-4.4259770">
        <ele>546.4</ele>
        <time>2021-12-28T15:46:43Z</time>
      </trkpt>
      <trkpt lat="37.4927070" lon="-4.4260040">
        <ele>546.4</ele>
        <time>2021-12-28T15:46:44Z</time>
      </trkpt>
      <trkpt lat="37.4926690" lon="-4.4260320">
        <ele>546.2</ele>
        <time>2021-12-28T15:46:45Z</time>
      </trkpt>
      <trkpt lat="37.4926270" lon="-4.4260620">
        <ele>546.2</ele>
        <time>2021-12-28T15:46:46Z</time>
      </trkpt>
      <trkpt lat="37.4925890" lon="-4.4260900">
        <ele>546.0</ele>
        <time>2021-12-28T15:46:47Z</time>
      </trkpt>
      <trkpt lat="37.4925410" lon="-4.4261250">
        <ele>546.0</ele>
        <time>2021-12-28T15:46:48Z</time>
      </trkpt>
      <trkpt lat="37.4924960" lon="-4.4261600">
        <ele>545.8</ele>
        <time>2021-12-28T15:46:49Z</time>
      </trkpt>
      <trkpt lat="37.4924510" lon="-4.4261950">
        <ele>545.8</ele>
        <time>2021-12-28T15:46:50Z</time>
      </trkpt>
      <trkpt lat="37.4924060" lon="-4.4262300">
        <ele>545.6</ele>
        <time>2021-12-28T15:46:51Z</time>
      </trkpt>
      <trkpt lat="37.4923620" lon="-4.4262670">
        <ele>545.6</ele>
        <time>2021-12-28T15:46:52Z</time>
      </trkpt>
      <trkpt lat="37.4923200" lon="-4.4263050">
        <ele>545.4</ele>
        <time>2021-12-28T15:46:53Z</time>
      </trkpt>
      <trkpt lat="37.4922780" lon="-4.4263420">
        <ele>545.4</ele>
        <time>2021-12-28T15:46:54Z</time>
      </trkpt>
      <trkpt lat="37.4922340" lon="-4.4263840">
        <ele>545.2</ele>
        <time>2021-12-28T15:46:55Z</time>
      </trkpt>
      <trkpt lat="37.4921950" lon="-4.4264250">
        <ele>545.2</ele>
        <time>2021-12-28T15:46:56Z</time>
      </trkpt>
      <trkpt lat="37.4921440" lon="-4.4264680">
        <ele>545.2</ele>
        <time>2021-12-28T15:46:57Z</time>
      </trkpt>
      <trkpt lat="37.4921020" lon="-4.4265100">
        <ele>545.2</ele>
        <time>2021-12-28T15:46:58Z</time>
      </trkpt>
      <trkpt lat="37.4920580" lon="-4.4265550">
        <ele>545.0</ele>
        <time>2021-12-28T15:46:59Z</time>
      </trkpt>
      <trkpt lat="37.4920130" lon="-4.4266000">
        <ele>545.0</ele>
        <time>2021-12-28T15:47:00Z</time>
      </trkpt>
      <trkpt lat="37.4919710" lon="-4.4266430">
        <ele>545.0</ele>
        <time>2021-12-28T15:47:01Z</time>
      </trkpt>
      <trkpt lat="37.4919330" lon="-4.4266850">
        <ele>544.8</ele>
        <time>2021-12-28T15:47:02Z</time>
      </trkpt>
      <trkpt lat="37.4918910" lon="-4.4267270">
        <ele>544.8</ele>
        <time>2021-12-28T15:47:03Z</time>
      </trkpt>
      <trkpt lat="37.4918560" lon="-4.4267700">
        <ele>544.8</ele>
        <time>2021-12-28T15:47:04Z</time>
      </trkpt>
      <trkpt lat="37.4918210" lon="-4.4268150">
        <ele>544.8</ele>
        <time>2021-12-28T15:47:05Z</time>
      </trkpt>
      <trkpt lat="37.4917820" lon="-4.4268620">
        <ele>544.8</ele>
        <time>2021-12-28T15:47:06Z</time>
      </trkpt>
      <trkpt lat="37.4917440" lon="-4.4269050">
        <ele>544.8</ele>
        <time>2021-12-28T15:47:07Z</time>
      </trkpt>
      <trkpt lat="37.4917060" lon="-4.4269500">
        <ele>544.8</ele>
        <time>2021-12-28T15:47:08Z</time>
      </trkpt>
      <trkpt lat="37.4916640" lon="-4.4269950">
        <ele>544.8</ele>
        <time>2021-12-28T15:47:09Z</time>
      </trkpt>
      <trkpt lat="37.4916320" lon="-4.4270420">
        <ele>544.8</ele>
        <time>2021-12-28T15:47:10Z</time>
      </trkpt>
      <trkpt lat="37.4915940" lon="-4.4270900">
        <ele>544.8</ele>
        <time>2021-12-28T15:47:11Z</time>
      </trkpt>
      <trkpt lat="37.4915580" lon="-4.4271360">
        <ele>544.6</ele>
        <time>2021-12-28T15:47:12Z</time>
      </trkpt>
      <trkpt lat="37.4915230" lon="-4.4271830">
        <ele>544.6</ele>
        <time>2021-12-28T15:47:13Z</time>
      </trkpt>
      <trkpt lat="37.4914880" lon="-4.4272330">
        <ele>544.6</ele>
        <time>2021-12-28T15:47:14Z</time>
      </trkpt>
      <trkpt lat="37.4914560" lon="-4.4272820">
        <ele>544.6</ele>
        <time>2021-12-28T15:47:15Z</time>
      </trkpt>
      <trkpt lat="37.4914180" lon="-4.4273330">
        <ele>544.4</ele>
        <time>2021-12-28T15:47:16Z</time>
      </trkpt>
      <trkpt lat="37.4913820" lon="-4.4273870">
        <ele>544.4</ele>
        <time>2021-12-28T15:47:17Z</time>
      </trkpt>
      <trkpt lat="37.4913470" lon="-4.4274370">
        <ele>544.4</ele>
        <time>2021-12-28T15:47:18Z</time>
      </trkpt>
      <trkpt lat="37.4913180" lon="-4.4274850">
        <ele>544.4</ele>
        <time>2021-12-28T15:47:19Z</time>
      </trkpt>
      <trkpt lat="37.4912860" lon="-4.4275300">
        <ele>544.4</ele>
        <time>2021-12-28T15:47:20Z</time>
      </trkpt>
      <trkpt lat="37.4912580" lon="-4.4275760">
        <ele>544.4</ele>
        <time>2021-12-28T15:47:21Z</time>
      </trkpt>
      <trkpt lat="37.4912290" lon="-4.4276160">
        <ele>544.4</ele>
        <time>2021-12-28T15:47:22Z</time>
      </trkpt>
      <trkpt lat="37.4912000" lon="-4.4276600">
        <ele>544.4</ele>
        <time>2021-12-28T15:47:23Z</time>
      </trkpt>
      <trkpt lat="37.4911680" lon="-4.4277020">
        <ele>544.4</ele>
        <time>2021-12-28T15:47:24Z</time>
      </trkpt>
      <trkpt lat="37.4911390" lon="-4.4277420">
        <ele>544.4</ele>
        <time>2021-12-28T15:47:25Z</time>
      </trkpt>
      <trkpt lat="37.4911070" lon="-4.4277840">
        <ele>544.4</ele>
        <time>2021-12-28T15:47:26Z</time>
      </trkpt>
      <trkpt lat="37.4910780" lon="-4.4278270">
        <ele>544.4</ele>
        <time>2021-12-28T15:47:27Z</time>
      </trkpt>
      <trkpt lat="37.4910500" lon="-4.4278680">
        <ele>544.4</ele>
        <time>2021-12-28T15:47:28Z</time>
      </trkpt>
      <trkpt lat="37.4910240" lon="-4.4279120">
        <ele>544.4</ele>
        <time>2021-12-28T15:47:29Z</time>
      </trkpt>
      <trkpt lat="37.4909920" lon="-4.4279520">
        <ele>544.2</ele>
        <time>2021-12-28T15:47:30Z</time>
      </trkpt>
      <trkpt lat="37.4909660" lon="-4.4279950">
        <ele>544.2</ele>
        <time>2021-12-28T15:47:31Z</time>
      </trkpt>
      <trkpt lat="37.4909410" lon="-4.4280400">
        <ele>544.2</ele>
        <time>2021-12-28T15:47:32Z</time>
      </trkpt>
      <trkpt lat="37.4909120" lon="-4.4280820">
        <ele>544.2</ele>
        <time>2021-12-28T15:47:33Z</time>
      </trkpt>
      <trkpt lat="37.4908860" lon="-4.4281250">
        <ele>544.2</ele>
        <time>2021-12-28T15:47:34Z</time>
      </trkpt>
      <trkpt lat="37.4908580" lon="-4.4281680">
        <ele>544.2</ele>
        <time>2021-12-28T15:47:35Z</time>
      </trkpt>
      <trkpt lat="37.4908260" lon="-4.4282100">
        <ele>544.2</ele>
        <time>2021-12-28T15:47:36Z</time>
      </trkpt>
      <trkpt lat="37.4907870" lon="-4.4282550">
        <ele>544.2</ele>
        <time>2021-12-28T15:47:37Z</time>
      </trkpt>
      <trkpt lat="37.4907520" lon="-4.4282980">
        <ele>544.2</ele>
        <time>2021-12-28T15:47:38Z</time>
      </trkpt>
      <trkpt lat="37.4907200" lon="-4.4283430">
        <ele>544.4</ele>
        <time>2021-12-28T15:47:39Z</time>
      </trkpt>
      <trkpt lat="37.4906850" lon="-4.4283900">
        <ele>544.4</ele>
        <time>2021-12-28T15:47:40Z</time>
      </trkpt>
      <trkpt lat="37.4906430" lon="-4.4284380">
        <ele>544.4</ele>
        <time>2021-12-28T15:47:41Z</time>
      </trkpt>
      <trkpt lat="37.4906020" lon="-4.4284870">
        <ele>544.4</ele>
        <time>2021-12-28T15:47:42Z</time>
      </trkpt>
      <trkpt lat="37.4905540" lon="-4.4285360">
        <ele>544.4</ele>
        <time>2021-12-28T15:47:43Z</time>
      </trkpt>
      <trkpt lat="37.4905150" lon="-4.4285800">
        <ele>544.6</ele>
        <time>2021-12-28T15:47:44Z</time>
      </trkpt>
      <trkpt lat="37.4904740" lon="-4.4286230">
        <ele>544.6</ele>
        <time>2021-12-28T15:47:45Z</time>
      </trkpt>
      <trkpt lat="37.4904350" lon="-4.4286680">
        <ele>544.8</ele>
        <time>2021-12-28T15:47:46Z</time>
      </trkpt>
      <trkpt lat="37.4904030" lon="-4.4287130">
        <ele>544.8</ele>
        <time>2021-12-28T15:47:47Z</time>
      </trkpt>
      <trkpt lat="37.4903680" lon="-4.4287570">
        <ele>544.8</ele>
        <time>2021-12-28T15:47:48Z</time>
      </trkpt>
      <trkpt lat="37.4903260" lon="-4.4287970">
        <ele>545.0</ele>
        <time>2021-12-28T15:47:49Z</time>
      </trkpt>
      <trkpt lat="37.4902820" lon="-4.4288370">
        <ele>545.0</ele>
        <time>2021-12-28T15:47:50Z</time>
      </trkpt>
      <trkpt lat="37.4902370" lon="-4.4288820">
        <ele>545.0</ele>
        <time>2021-12-28T15:47:51Z</time>
      </trkpt>
      <trkpt lat="37.4902020" lon="-4.4289250">
        <ele>545.0</ele>
        <time>2021-12-28T15:47:52Z</time>
      </trkpt>
      <trkpt lat="37.4901630" lon="-4.4289680">
        <ele>545.0</ele>
        <time>2021-12-28T15:47:53Z</time>
      </trkpt>
      <trkpt lat="37.4901180" lon="-4.4290100">
        <ele>545.0</ele>
        <time>2021-12-28T15:47:54Z</time>
      </trkpt>
      <trkpt lat="37.4900740" lon="-4.4290480">
        <ele>544.8</ele>
        <time>2021-12-28T15:47:55Z</time>
      </trkpt>
      <trkpt lat="37.4900290" lon="-4.4290920">
        <ele>544.8</ele>
        <time>2021-12-28T15:47:56Z</time>
      </trkpt>
      <trkpt lat="37.4899840" lon="-4.4291350">
        <ele>544.8</ele>
        <time>2021-12-28T15:47:57Z</time>
      </trkpt>
      <trkpt lat="37.4899360" lon="-4.4291780">
        <ele>544.8</ele>
        <time>2021-12-28T15:47:58Z</time>
      </trkpt>
      <trkpt lat="37.4898940" lon="-4.4292200">
        <ele>544.8</ele>
        <time>2021-12-28T15:47:59Z</time>
      </trkpt>
      <trkpt lat="37.4898530" lon="-4.4292660">
        <ele>544.8</ele>
        <time>2021-12-28T15:48:00Z</time>
      </trkpt>
      <trkpt lat="37.4898080" lon="-4.4293120">
        <ele>544.8</ele>
        <time>2021-12-28T15:48:01Z</time>
      </trkpt>
      <trkpt lat="37.4897600" lon="-4.4293530">
        <ele>544.8</ele>
        <time>2021-12-28T15:48:02Z</time>
      </trkpt>
      <trkpt lat="37.4897250" lon="-4.4293900">
        <ele>544.6</ele>
        <time>2021-12-28T15:48:03Z</time>
      </trkpt>
      <trkpt lat="37.4896800" lon="-4.4294300">
        <ele>544.6</ele>
        <time>2021-12-28T15:48:04Z</time>
      </trkpt>
      <trkpt lat="37.4896420" lon="-4.4294740">
        <ele>544.4</ele>
        <time>2021-12-28T15:48:05Z</time>
      </trkpt>
      <trkpt lat="37.4896060" lon="-4.4295140">
        <ele>544.4</ele>
        <time>2021-12-28T15:48:06Z</time>
      </trkpt>
      <trkpt lat="37.4895680" lon="-4.4295520">
        <ele>544.2</ele>
        <time>2021-12-28T15:48:07Z</time>
      </trkpt>
      <trkpt lat="37.4895260" lon="-4.4295870">
        <ele>544.0</ele>
        <time>2021-12-28T15:48:08Z</time>
      </trkpt>
      <trkpt lat="37.4894820" lon="-4.4296230">
        <ele>544.0</ele>
        <time>2021-12-28T15:48:09Z</time>
      </trkpt>
      <trkpt lat="37.4894400" lon="-4.4296620">
        <ele>543.8</ele>
        <time>2021-12-28T15:48:10Z</time>
      </trkpt>
      <trkpt lat="37.4893980" lon="-4.4296960">
        <ele>543.6</ele>
        <time>2021-12-28T15:48:11Z</time>
      </trkpt>
      <trkpt lat="37.4893540" lon="-4.4297400">
        <ele>543.4</ele>
        <time>2021-12-28T15:48:12Z</time>
      </trkpt>
      <trkpt lat="37.4893090" lon="-4.4297830">
        <ele>543.4</ele>
        <time>2021-12-28T15:48:13Z</time>
      </trkpt>
      <trkpt lat="37.4892640" lon="-4.4298270">
        <ele>543.2</ele>
        <time>2021-12-28T15:48:14Z</time>
      </trkpt>
      <trkpt lat="37.4892190" lon="-4.4298740">
        <ele>543.0</ele>
        <time>2021-12-28T15:48:15Z</time>
      </trkpt>
      <trkpt lat="37.4891810" lon="-4.4299200">
        <ele>542.8</ele>
        <time>2021-12-28T15:48:16Z</time>
      </trkpt>
      <trkpt lat="37.4891390" lon="-4.4299630">
        <ele>542.8</ele>
        <time>2021-12-28T15:48:17Z</time>
      </trkpt>
      <trkpt lat="37.4890940" lon="-4.4300020">
        <ele>542.6</ele>
        <time>2021-12-28T15:48:18Z</time>
      </trkpt>
      <trkpt lat="37.4890430" lon="-4.4300420">
        <ele>542.6</ele>
        <time>2021-12-28T15:48:19Z</time>
      </trkpt>
      <trkpt lat="37.4889950" lon="-4.4300780">
        <ele>542.4</ele>
        <time>2021-12-28T15:48:20Z</time>
      </trkpt>
      <trkpt lat="37.4889440" lon="-4.4301180">
        <ele>542.4</ele>
        <time>2021-12-28T15:48:21Z</time>
      </trkpt>
      <trkpt lat="37.4888930" lon="-4.4301580">
        <ele>542.2</ele>
        <time>2021-12-28T15:48:22Z</time>
      </trkpt>
      <trkpt lat="37.4888420" lon="-4.4301950">
        <ele>542.2</ele>
        <time>2021-12-28T15:48:23Z</time>
      </trkpt>
      <trkpt lat="37.4887940" lon="-4.4302270">
        <ele>542.0</ele>
        <time>2021-12-28T15:48:24Z</time>
      </trkpt>
      <trkpt lat="37.4887360" lon="-4.4302580">
        <ele>542.0</ele>
        <time>2021-12-28T15:48:25Z</time>
      </trkpt>
      <trkpt lat="37.4886850" lon="-4.4302930">
        <ele>542.0</ele>
        <time>2021-12-28T15:48:26Z</time>
      </trkpt>
      <trkpt lat="37.4886340" lon="-4.4303250">
        <ele>542.0</ele>
        <time>2021-12-28T15:48:27Z</time>
      </trkpt>
      <trkpt lat="37.4885790" lon="-4.4303560">
        <ele>541.8</ele>
        <time>2021-12-28T15:48:28Z</time>
      </trkpt>
      <trkpt lat="37.4885280" lon="-4.4303900">
        <ele>541.8</ele>
        <time>2021-12-28T15:48:29Z</time>
      </trkpt>
      <trkpt lat="37.4884770" lon="-4.4304200">
        <ele>541.8</ele>
        <time>2021-12-28T15:48:30Z</time>
      </trkpt>
      <trkpt lat="37.4884290" lon="-4.4304480">
        <ele>541.8</ele>
        <time>2021-12-28T15:48:31Z</time>
      </trkpt>
      <trkpt lat="37.4883810" lon="-4.4304750">
        <ele>541.8</ele>
        <time>2021-12-28T15:48:32Z</time>
      </trkpt>
      <trkpt lat="37.4883300" lon="-4.4305020">
        <ele>541.8</ele>
        <time>2021-12-28T15:48:33Z</time>
      </trkpt>
      <trkpt lat="37.4882820" lon="-4.4305220">
        <ele>541.8</ele>
        <time>2021-12-28T15:48:34Z</time>
      </trkpt>
      <trkpt lat="37.4882430" lon="-4.4305350">
        <ele>541.8</ele>
        <time>2021-12-28T15:48:35Z</time>
      </trkpt>
      <trkpt lat="37.4882020" lon="-4.4305470">
        <ele>541.6</ele>
        <time>2021-12-28T15:48:36Z</time>
      </trkpt>
      <trkpt lat="37.4881600" lon="-4.4305600">
        <ele>541.6</ele>
        <time>2021-12-28T15:48:37Z</time>
      </trkpt>
      <trkpt lat="37.4881180" lon="-4.4305740">
        <ele>541.6</ele>
        <time>2021-12-28T15:48:38Z</time>
      </trkpt>
      <trkpt lat="37.4880700" lon="-4.4305850">
        <ele>541.6</ele>
        <time>2021-12-28T15:48:39Z</time>
      </trkpt>
      <trkpt lat="37.4880260" lon="-4.4306020">
        <ele>541.4</ele>
        <time>2021-12-28T15:48:40Z</time>
      </trkpt>
      <trkpt lat="37.4879810" lon="-4.4306180">
        <ele>541.4</ele>
        <time>2021-12-28T15:48:41Z</time>
      </trkpt>
      <trkpt lat="37.4879300" lon="-4.4306350">
        <ele>541.2</ele>
        <time>2021-12-28T15:48:42Z</time>
      </trkpt>
      <trkpt lat="37.4878850" lon="-4.4306500">
        <ele>541.0</ele>
        <time>2021-12-28T15:48:43Z</time>
      </trkpt>
      <trkpt lat="37.4878500" lon="-4.4306600">
        <ele>541.0</ele>
        <time>2021-12-28T15:48:44Z</time>
      </trkpt>
      <trkpt lat="37.4878050" lon="-4.4306730">
        <ele>540.8</ele>
        <time>2021-12-28T15:48:45Z</time>
      </trkpt>
      <trkpt lat="37.4877540" lon="-4.4306880">
        <ele>540.8</ele>
        <time>2021-12-28T15:48:46Z</time>
      </trkpt>
      <trkpt lat="37.4877060" lon="-4.4307030">
        <ele>540.6</ele>
        <time>2021-12-28T15:48:47Z</time>
      </trkpt>
      <trkpt lat="37.4876640" lon="-4.4307220">
        <ele>540.4</ele>
        <time>2021-12-28T15:48:48Z</time>
      </trkpt>
      <trkpt lat="37.4876130" lon="-4.4307350">
        <ele>540.4</ele>
        <time>2021-12-28T15:48:49Z</time>
      </trkpt>
      <trkpt lat="37.4875550" lon="-4.4307500">
        <ele>540.4</ele>
        <time>2021-12-28T15:48:50Z</time>
      </trkpt>
      <trkpt lat="37.4875170" lon="-4.4307580">
        <ele>540.2</ele>
        <time>2021-12-28T15:48:51Z</time>
      </trkpt>
      <trkpt lat="37.4874720" lon="-4.4307650">
        <ele>540.2</ele>
        <time>2021-12-28T15:48:52Z</time>
      </trkpt>
      <trkpt lat="37.4874270" lon="-4.4307720">
        <ele>540.2</ele>
        <time>2021-12-28T15:48:53Z</time>
      </trkpt>
      <trkpt lat="37.4873860" lon="-4.4307780">
        <ele>540.0</ele>
        <time>2021-12-28T15:48:54Z</time>
      </trkpt>
      <trkpt lat="37.4873380" lon="-4.4307920">
        <ele>540.0</ele>
        <time>2021-12-28T15:48:55Z</time>
      </trkpt>
      <trkpt lat="37.4872960" lon="-4.4308030">
        <ele>540.0</ele>
        <time>2021-12-28T15:48:56Z</time>
      </trkpt>
      <trkpt lat="37.4872510" lon="-4.4308170">
        <ele>539.8</ele>
        <time>2021-12-28T15:48:57Z</time>
      </trkpt>
      <trkpt lat="37.4872030" lon="-4.4308270">
        <ele>539.8</ele>
        <time>2021-12-28T15:48:58Z</time>
      </trkpt>
      <trkpt lat="37.4871550" lon="-4.4308350">
        <ele>539.8</ele>
        <time>2021-12-28T15:48:59Z</time>
      </trkpt>
      <trkpt lat="37.4871140" lon="-4.4308470">
        <ele>539.6</ele>
        <time>2021-12-28T15:49:00Z</time>
      </trkpt>
      <trkpt lat="37.4870660" lon="-4.4308570">
        <ele>539.6</ele>
        <time>2021-12-28T15:49:01Z</time>
      </trkpt>
      <trkpt lat="37.4870180" lon="-4.4308650">
        <ele>539.4</ele>
        <time>2021-12-28T15:49:02Z</time>
      </trkpt>
      <trkpt lat="37.4869730" lon="-4.4308750">
        <ele>539.2</ele>
        <time>2021-12-28T15:49:03Z</time>
      </trkpt>
      <trkpt lat="37.4869280" lon="-4.4308880">
        <ele>539.0</ele>
        <time>2021-12-28T15:49:04Z</time>
      </trkpt>
      <trkpt lat="37.4868800" lon="-4.4309000">
        <ele>539.0</ele>
        <time>2021-12-28T15:49:05Z</time>
      </trkpt>
      <trkpt lat="37.4868320" lon="-4.4309100">
        <ele>538.8</ele>
        <time>2021-12-28T15:49:06Z</time>
      </trkpt>
      <trkpt lat="37.4867870" lon="-4.4309220">
        <ele>538.6</ele>
        <time>2021-12-28T15:49:07Z</time>
      </trkpt>
      <trkpt lat="37.4867390" lon="-4.4309320">
        <ele>538.6</ele>
        <time>2021-12-28T15:49:08Z</time>
      </trkpt>
      <trkpt lat="37.4866940" lon="-4.4309400">
        <ele>538.4</ele>
        <time>2021-12-28T15:49:09Z</time>
      </trkpt>
      <trkpt lat="37.4866500" lon="-4.4309480">
        <ele>538.4</ele>
        <time>2021-12-28T15:49:10Z</time>
      </trkpt>
      <trkpt lat="37.4866080" lon="-4.4309550">
        <ele>538.2</ele>
        <time>2021-12-28T15:49:11Z</time>
      </trkpt>
      <trkpt lat="37.4865600" lon="-4.4309620">
        <ele>538.2</ele>
        <time>2021-12-28T15:49:12Z</time>
      </trkpt>
      <trkpt lat="37.4865180" lon="-4.4309700">
        <ele>538.2</ele>
        <time>2021-12-28T15:49:13Z</time>
      </trkpt>
      <trkpt lat="37.4864740" lon="-4.4309820">
        <ele>538.0</ele>
        <time>2021-12-28T15:49:14Z</time>
      </trkpt>
      <trkpt lat="37.4864320" lon="-4.4309900">
        <ele>538.0</ele>
        <time>2021-12-28T15:49:15Z</time>
      </trkpt>
      <trkpt lat="37.4863840" lon="-4.4310020">
        <ele>538.0</ele>
        <time>2021-12-28T15:49:16Z</time>
      </trkpt>
      <trkpt lat="37.4863420" lon="-4.4310120">
        <ele>537.8</ele>
        <time>2021-12-28T15:49:17Z</time>
      </trkpt>
      <trkpt lat="37.4862980" lon="-4.4310220">
        <ele>537.8</ele>
        <time>2021-12-28T15:49:18Z</time>
      </trkpt>
      <trkpt lat="37.4862560" lon="-4.4310330">
        <ele>537.8</ele>
        <time>2021-12-28T15:49:19Z</time>
      </trkpt>
      <trkpt lat="37.4862140" lon="-4.4310450">
        <ele>537.8</ele>
        <time>2021-12-28T15:49:20Z</time>
      </trkpt>
      <trkpt lat="37.4861730" lon="-4.4310530">
        <ele>537.8</ele>
        <time>2021-12-28T15:49:21Z</time>
      </trkpt>
      <trkpt lat="37.4861310" lon="-4.4310630">
        <ele>537.8</ele>
        <time>2021-12-28T15:49:22Z</time>
      </trkpt>
      <trkpt lat="37.4860830" lon="-4.4310750">
        <ele>537.8</ele>
        <time>2021-12-28T15:49:23Z</time>
      </trkpt>
      <trkpt lat="37.4860380" lon="-4.4310860">
        <ele>537.6</ele>
        <time>2021-12-28T15:49:24Z</time>
      </trkpt>
      <trkpt lat="37.4859970" lon="-4.4310960">
        <ele>537.6</ele>
        <time>2021-12-28T15:49:25Z</time>
      </trkpt>
      <trkpt lat="37.4859520" lon="-4.4311100">
        <ele>537.6</ele>
        <time>2021-12-28T15:49:26Z</time>
      </trkpt>
      <trkpt lat="37.4859070" lon="-4.4311220">
        <ele>537.6</ele>
        <time>2021-12-28T15:49:27Z</time>
      </trkpt>
      <trkpt lat="37.4858620" lon="-4.4311350">
        <ele>537.6</ele>
        <time>2021-12-28T15:49:28Z</time>
      </trkpt>
      <trkpt lat="37.4858180" lon="-4.4311500">
        <ele>537.4</ele>
        <time>2021-12-28T15:49:29Z</time>
      </trkpt>
      <trkpt lat="37.4857700" lon="-4.4311650">
        <ele>537.4</ele>
        <time>2021-12-28T15:49:30Z</time>
      </trkpt>
      <trkpt lat="37.4857280" lon="-4.4311800">
        <ele>537.4</ele>
        <time>2021-12-28T15:49:31Z</time>
      </trkpt>
      <trkpt lat="37.4856830" lon="-4.4311970">
        <ele>537.4</ele>
        <time>2021-12-28T15:49:32Z</time>
      </trkpt>
      <trkpt lat="37.4856420" lon="-4.4312170">
        <ele>537.4</ele>
        <time>2021-12-28T15:49:33Z</time>
      </trkpt>
      <trkpt lat="37.4855970" lon="-4.4312350">
        <ele>537.2</ele>
        <time>2021-12-28T15:49:34Z</time>
      </trkpt>
      <trkpt lat="37.4855490" lon="-4.4312550">
        <ele>537.2</ele>
        <time>2021-12-28T15:49:35Z</time>
      </trkpt>
      <trkpt lat="37.4855070" lon="-4.4312740">
        <ele>537.2</ele>
        <time>2021-12-28T15:49:36Z</time>
      </trkpt>
      <trkpt lat="37.4854620" lon="-4.4312950">
        <ele>537.0</ele>
        <time>2021-12-28T15:49:37Z</time>
      </trkpt>
      <trkpt lat="37.4854110" lon="-4.4313170">
        <ele>536.8</ele>
        <time>2021-12-28T15:49:38Z</time>
      </trkpt>
      <trkpt lat="37.4853660" lon="-4.4313380">
        <ele>536.6</ele>
        <time>2021-12-28T15:49:39Z</time>
      </trkpt>
      <trkpt lat="37.4853180" lon="-4.4313580">
        <ele>536.6</ele>
        <time>2021-12-28T15:49:40Z</time>
      </trkpt>
      <trkpt lat="37.4852700" lon="-4.4313800">
        <ele>536.4</ele>
        <time>2021-12-28T15:49:41Z</time>
      </trkpt>
      <trkpt lat="37.4852260" lon="-4.4314020">
        <ele>536.2</ele>
        <time>2021-12-28T15:49:42Z</time>
      </trkpt>
      <trkpt lat="37.4851810" lon="-4.4314250">
        <ele>536.2</ele>
        <time>2021-12-28T15:49:43Z</time>
      </trkpt>
      <trkpt lat="37.4851390" lon="-4.4314460">
        <ele>536.0</ele>
        <time>2021-12-28T15:49:44Z</time>
      </trkpt>
      <trkpt lat="37.4851010" lon="-4.4314680">
        <ele>535.8</ele>
        <time>2021-12-28T15:49:45Z</time>
      </trkpt>
      <trkpt lat="37.4850530" lon="-4.4314870">
        <ele>535.6</ele>
        <time>2021-12-28T15:49:46Z</time>
      </trkpt>
      <trkpt lat="37.4850110" lon="-4.4315050">
        <ele>535.4</ele>
        <time>2021-12-28T15:49:47Z</time>
      </trkpt>
      <trkpt lat="37.4849700" lon="-4.4315250">
        <ele>535.4</ele>
        <time>2021-12-28T15:49:48Z</time>
      </trkpt>
      <trkpt lat="37.4849280" lon="-4.4315500">
        <ele>535.2</ele>
        <time>2021-12-28T15:49:49Z</time>
      </trkpt>
      <trkpt lat="37.4848830" lon="-4.4315720">
        <ele>535.0</ele>
        <time>2021-12-28T15:49:50Z</time>
      </trkpt>
      <trkpt lat="37.4848350" lon="-4.4315940">
        <ele>535.0</ele>
        <time>2021-12-28T15:49:51Z</time>
      </trkpt>
      <trkpt lat="37.4847900" lon="-4.4316180">
        <ele>534.8</ele>
        <time>2021-12-28T15:49:52Z</time>
      </trkpt>
      <trkpt lat="37.4847420" lon="-4.4316400">
        <ele>534.6</ele>
        <time>2021-12-28T15:49:53Z</time>
      </trkpt>
      <trkpt lat="37.4846910" lon="-4.4316600">
        <ele>534.6</ele>
        <time>2021-12-28T15:49:54Z</time>
      </trkpt>
      <trkpt lat="37.4846460" lon="-4.4316840">
        <ele>534.6</ele>
        <time>2021-12-28T15:49:55Z</time>
      </trkpt>
      <trkpt lat="37.4846020" lon="-4.4317020">
        <ele>534.4</ele>
        <time>2021-12-28T15:49:56Z</time>
      </trkpt>
      <trkpt lat="37.4845500" lon="-4.4317220">
        <ele>534.4</ele>
        <time>2021-12-28T15:49:57Z</time>
      </trkpt>
      <trkpt lat="37.4845060" lon="-4.4317430">
        <ele>534.4</ele>
        <time>2021-12-28T15:49:58Z</time>
      </trkpt>
      <trkpt lat="37.4844540" lon="-4.4317680">
        <ele>534.4</ele>
        <time>2021-12-28T15:49:59Z</time>
      </trkpt>
      <trkpt lat="37.4843840" lon="-4.4318090">
        <ele>534.4</ele>
        <time>2021-12-28T15:50:00Z</time>
      </trkpt>
      <trkpt lat="37.4843580" lon="-4.4318200">
        <ele>534.2</ele>
        <time>2021-12-28T15:50:01Z</time>
      </trkpt>
      <trkpt lat="37.4843140" lon="-4.4318400">
        <ele>534.2</ele>
        <time>2021-12-28T15:50:02Z</time>
      </trkpt>
      <trkpt lat="37.4842660" lon="-4.4318580">
        <ele>534.2</ele>
        <time>2021-12-28T15:50:03Z</time>
      </trkpt>
      <trkpt lat="37.4842180" lon="-4.4318750">
        <ele>534.0</ele>
        <time>2021-12-28T15:50:04Z</time>
      </trkpt>
      <trkpt lat="37.4841700" lon="-4.4318900">
        <ele>533.8</ele>
        <time>2021-12-28T15:50:05Z</time>
      </trkpt>
      <trkpt lat="37.4841250" lon="-4.4319050">
        <ele>533.8</ele>
        <time>2021-12-28T15:50:06Z</time>
      </trkpt>
      <trkpt lat="37.4840800" lon="-4.4319170">
        <ele>533.6</ele>
        <time>2021-12-28T15:50:07Z</time>
      </trkpt>
      <trkpt lat="37.4840350" lon="-4.4319230">
        <ele>533.6</ele>
        <time>2021-12-28T15:50:08Z</time>
      </trkpt>
      <trkpt lat="37.4839940" lon="-4.4319320">
        <ele>533.4</ele>
        <time>2021-12-28T15:50:09Z</time>
      </trkpt>
      <trkpt lat="37.4839420" lon="-4.4319440">
        <ele>533.4</ele>
        <time>2021-12-28T15:50:10Z</time>
      </trkpt>
      <trkpt lat="37.4838980" lon="-4.4319520">
        <ele>533.2</ele>
        <time>2021-12-28T15:50:11Z</time>
      </trkpt>
      <trkpt lat="37.4838500" lon="-4.4319570">
        <ele>533.2</ele>
        <time>2021-12-28T15:50:12Z</time>
      </trkpt>
      <trkpt lat="37.4837950" lon="-4.4319580">
        <ele>533.0</ele>
        <time>2021-12-28T15:50:13Z</time>
      </trkpt>
      <trkpt lat="37.4837410" lon="-4.4319640">
        <ele>533.0</ele>
        <time>2021-12-28T15:50:14Z</time>
      </trkpt>
      <trkpt lat="37.4836900" lon="-4.4319670">
        <ele>532.8</ele>
        <time>2021-12-28T15:50:15Z</time>
      </trkpt>
      <trkpt lat="37.4836350" lon="-4.4319700">
        <ele>532.8</ele>
        <time>2021-12-28T15:50:16Z</time>
      </trkpt>
      <trkpt lat="37.4835810" lon="-4.4319740">
        <ele>532.6</ele>
        <time>2021-12-28T15:50:17Z</time>
      </trkpt>
      <trkpt lat="37.4835300" lon="-4.4319720">
        <ele>532.6</ele>
        <time>2021-12-28T15:50:18Z</time>
      </trkpt>
      <trkpt lat="37.4834780" lon="-4.4319680">
        <ele>532.4</ele>
        <time>2021-12-28T15:50:19Z</time>
      </trkpt>
      <trkpt lat="37.4834240" lon="-4.4319570">
        <ele>532.4</ele>
        <time>2021-12-28T15:50:20Z</time>
      </trkpt>
      <trkpt lat="37.4833730" lon="-4.4319500">
        <ele>532.4</ele>
        <time>2021-12-28T15:50:21Z</time>
      </trkpt>
      <trkpt lat="37.4833180" lon="-4.4319480">
        <ele>532.4</ele>
        <time>2021-12-28T15:50:22Z</time>
      </trkpt>
      <trkpt lat="37.4832640" lon="-4.4319500">
        <ele>532.4</ele>
        <time>2021-12-28T15:50:23Z</time>
      </trkpt>
      <trkpt lat="37.4832130" lon="-4.4319500">
        <ele>532.2</ele>
        <time>2021-12-28T15:50:24Z</time>
      </trkpt>
      <trkpt lat="37.4831580" lon="-4.4319520">
        <ele>532.2</ele>
        <time>2021-12-28T15:50:25Z</time>
      </trkpt>
      <trkpt lat="37.4831070" lon="-4.4319480">
        <ele>532.2</ele>
        <time>2021-12-28T15:50:26Z</time>
      </trkpt>
      <trkpt lat="37.4830560" lon="-4.4319420">
        <ele>532.2</ele>
        <time>2021-12-28T15:50:27Z</time>
      </trkpt>
      <trkpt lat="37.4830050" lon="-4.4319280">
        <ele>532.0</ele>
        <time>2021-12-28T15:50:28Z</time>
      </trkpt>
      <trkpt lat="37.4829570" lon="-4.4319130">
        <ele>532.0</ele>
        <time>2021-12-28T15:50:29Z</time>
      </trkpt>
      <trkpt lat="37.4829090" lon="-4.4318930">
        <ele>532.0</ele>
        <time>2021-12-28T15:50:30Z</time>
      </trkpt>
      <trkpt lat="37.4828640" lon="-4.4318680">
        <ele>532.0</ele>
        <time>2021-12-28T15:50:31Z</time>
      </trkpt>
      <trkpt lat="37.4828160" lon="-4.4318470">
        <ele>531.8</ele>
        <time>2021-12-28T15:50:32Z</time>
      </trkpt>
      <trkpt lat="37.4827680" lon="-4.4318280">
        <ele>531.8</ele>
        <time>2021-12-28T15:50:33Z</time>
      </trkpt>
      <trkpt lat="37.4827230" lon="-4.4318000">
        <ele>531.8</ele>
        <time>2021-12-28T15:50:34Z</time>
      </trkpt>
      <trkpt lat="37.4826820" lon="-4.4317680">
        <ele>531.8</ele>
        <time>2021-12-28T15:50:35Z</time>
      </trkpt>
      <trkpt lat="37.4826370" lon="-4.4317300">
        <ele>531.6</ele>
        <time>2021-12-28T15:50:36Z</time>
      </trkpt>
      <trkpt lat="37.4825660" lon="-4.4316770">
        <ele>531.6</ele>
        <time>2021-12-28T15:50:37Z</time>
      </trkpt>
      <trkpt lat="37.4825440" lon="-4.4316570">
        <ele>531.6</ele>
        <time>2021-12-28T15:50:38Z</time>
      </trkpt>
      <trkpt lat="37.4824990" lon="-4.4316170">
        <ele>531.4</ele>
        <time>2021-12-28T15:50:39Z</time>
      </trkpt>
      <trkpt lat="37.4824480" lon="-4.4315870">
        <ele>531.4</ele>
        <time>2021-12-28T15:50:40Z</time>
      </trkpt>
      <trkpt lat="37.4824060" lon="-4.4315620">
        <ele>531.4</ele>
        <time>2021-12-28T15:50:41Z</time>
      </trkpt>
      <trkpt lat="37.4823780" lon="-4.4315420">
        <ele>531.2</ele>
        <time>2021-12-28T15:50:42Z</time>
      </trkpt>
      <trkpt lat="37.4823460" lon="-4.4315200">
        <ele>531.2</ele>
        <time>2021-12-28T15:50:43Z</time>
      </trkpt>
      <trkpt lat="37.4823140" lon="-4.4314930">
        <ele>531.2</ele>
        <time>2021-12-28T15:50:44Z</time>
      </trkpt>
      <trkpt lat="37.4822780" lon="-4.4314560">
        <ele>531.0</ele>
        <time>2021-12-28T15:50:45Z</time>
      </trkpt>
      <trkpt lat="37.4822460" lon="-4.4314150">
        <ele>531.0</ele>
        <time>2021-12-28T15:50:46Z</time>
      </trkpt>
      <trkpt lat="37.4822050" lon="-4.4313720">
        <ele>531.0</ele>
        <time>2021-12-28T15:50:47Z</time>
      </trkpt>
      <trkpt lat="37.4821600" lon="-4.4313270">
        <ele>531.0</ele>
        <time>2021-12-28T15:50:48Z</time>
      </trkpt>
      <trkpt lat="37.4821120" lon="-4.4312820">
        <ele>530.8</ele>
        <time>2021-12-28T15:50:49Z</time>
      </trkpt>
      <trkpt lat="37.4820640" lon="-4.4312350">
        <ele>530.8</ele>
        <time>2021-12-28T15:50:50Z</time>
      </trkpt>
      <trkpt lat="37.4820220" lon="-4.4311800">
        <ele>530.8</ele>
        <time>2021-12-28T15:50:51Z</time>
      </trkpt>
      <trkpt lat="37.4819840" lon="-4.4311250">
        <ele>530.6</ele>
        <time>2021-12-28T15:50:52Z</time>
      </trkpt>
      <trkpt lat="37.4819330" lon="-4.4310700">
        <ele>530.6</ele>
        <time>2021-12-28T15:50:53Z</time>
      </trkpt>
      <trkpt lat="37.4818880" lon="-4.4310120">
        <ele>530.6</ele>
        <time>2021-12-28T15:50:54Z</time>
      </trkpt>
      <trkpt lat="37.4818460" lon="-4.4309540">
        <ele>530.6</ele>
        <time>2021-12-28T15:50:55Z</time>
      </trkpt>
      <trkpt lat="37.4818050" lon="-4.4309000">
        <ele>530.4</ele>
        <time>2021-12-28T15:50:56Z</time>
      </trkpt>
      <trkpt lat="37.4817630" lon="-4.4308450">
        <ele>530.4</ele>
        <time>2021-12-28T15:50:57Z</time>
      </trkpt>
      <trkpt lat="37.4817250" lon="-4.4307970">
        <ele>530.4</ele>
        <time>2021-12-28T15:50:58Z</time>
      </trkpt>
      <trkpt lat="37.4816830" lon="-4.4307520">
        <ele>530.2</ele>
        <time>2021-12-28T15:50:59Z</time>
      </trkpt>
      <trkpt lat="37.4816380" lon="-4.4307020">
        <ele>530.2</ele>
        <time>2021-12-28T15:51:00Z</time>
      </trkpt>
      <trkpt lat="37.4815970" lon="-4.4306470">
        <ele>530.0</ele>
        <time>2021-12-28T15:51:01Z</time>
      </trkpt>
      <trkpt lat="37.4815550" lon="-4.4305880">
        <ele>530.0</ele>
        <time>2021-12-28T15:51:02Z</time>
      </trkpt>
      <trkpt lat="37.4815100" lon="-4.4305280">
        <ele>529.8</ele>
        <time>2021-12-28T15:51:03Z</time>
      </trkpt>
      <trkpt lat="37.4814660" lon="-4.4304670">
        <ele>529.6</ele>
        <time>2021-12-28T15:51:04Z</time>
      </trkpt>
      <trkpt lat="37.4814180" lon="-4.4304020">
        <ele>529.4</ele>
        <time>2021-12-28T15:51:05Z</time>
      </trkpt>
      <trkpt lat="37.4813790" lon="-4.4303420">
        <ele>529.2</ele>
        <time>2021-12-28T15:51:06Z</time>
      </trkpt>
      <trkpt lat="37.4813410" lon="-4.4302800">
        <ele>529.0</ele>
        <time>2021-12-28T15:51:07Z</time>
      </trkpt>
      <trkpt lat="37.4813090" lon="-4.4302150">
        <ele>528.8</ele>
        <time>2021-12-28T15:51:08Z</time>
      </trkpt>
      <trkpt lat="37.4812700" lon="-4.4301480">
        <ele>528.8</ele>
        <time>2021-12-28T15:51:09Z</time>
      </trkpt>
      <trkpt lat="37.4812320" lon="-4.4300800">
        <ele>528.6</ele>
        <time>2021-12-28T15:51:10Z</time>
      </trkpt>
      <trkpt lat="37.4812000" lon="-4.4300050">
        <ele>528.4</ele>
        <time>2021-12-28T15:51:11Z</time>
      </trkpt>
      <trkpt lat="37.4811680" lon="-4.4299320">
        <ele>528.2</ele>
        <time>2021-12-28T15:51:12Z</time>
      </trkpt>
      <trkpt lat="37.4811360" lon="-4.4298640">
        <ele>528.0</ele>
        <time>2021-12-28T15:51:13Z</time>
      </trkpt>
      <trkpt lat="37.4811070" lon="-4.4297970">
        <ele>528.0</ele>
        <time>2021-12-28T15:51:14Z</time>
      </trkpt>
      <trkpt lat="37.4810750" lon="-4.4297320">
        <ele>527.8</ele>
        <time>2021-12-28T15:51:15Z</time>
      </trkpt>
      <trkpt lat="37.4810500" lon="-4.4296680">
        <ele>527.6</ele>
        <time>2021-12-28T15:51:16Z</time>
      </trkpt>
      <trkpt lat="37.4810210" lon="-4.4296050">
        <ele>527.4</ele>
        <time>2021-12-28T15:51:17Z</time>
      </trkpt>
      <trkpt lat="37.4809950" lon="-4.4295400">
        <ele>527.2</ele>
        <time>2021-12-28T15:51:18Z</time>
      </trkpt>
      <trkpt lat="37.4809700" lon="-4.4294780">
        <ele>527.0</ele>
        <time>2021-12-28T15:51:19Z</time>
      </trkpt>
      <trkpt lat="37.4809410" lon="-4.4294130">
        <ele>527.0</ele>
        <time>2021-12-28T15:51:20Z</time>
      </trkpt>
      <trkpt lat="37.4809150" lon="-4.4293500">
        <ele>526.8</ele>
        <time>2021-12-28T15:51:21Z</time>
      </trkpt>
      <trkpt lat="37.4808930" lon="-4.4292880">
        <ele>526.6</ele>
        <time>2021-12-28T15:51:22Z</time>
      </trkpt>
      <trkpt lat="37.4808700" lon="-4.4292300">
        <ele>526.4</ele>
        <time>2021-12-28T15:51:23Z</time>
      </trkpt>
      <trkpt lat="37.4808480" lon="-4.4291720">
        <ele>526.4</ele>
        <time>2021-12-28T15:51:24Z</time>
      </trkpt>
      <trkpt lat="37.4808220" lon="-4.4291130">
        <ele>526.2</ele>
        <time>2021-12-28T15:51:25Z</time>
      </trkpt>
      <trkpt lat="37.4808000" lon="-4.4290550">
        <ele>526.0</ele>
        <time>2021-12-28T15:51:26Z</time>
      </trkpt>
      <trkpt lat="37.4807780" lon="-4.4290000">
        <ele>525.8</ele>
        <time>2021-12-28T15:51:27Z</time>
      </trkpt>
      <trkpt lat="37.4807550" lon="-4.4289420">
        <ele>525.6</ele>
        <time>2021-12-28T15:51:28Z</time>
      </trkpt>
      <trkpt lat="37.4807330" lon="-4.4288850">
        <ele>525.6</ele>
        <time>2021-12-28T15:51:29Z</time>
      </trkpt>
      <trkpt lat="37.4807100" lon="-4.4288250">
        <ele>525.4</ele>
        <time>2021-12-28T15:51:30Z</time>
      </trkpt>
      <trkpt lat="37.4806850" lon="-4.4287670">
        <ele>525.4</ele>
        <time>2021-12-28T15:51:31Z</time>
      </trkpt>
      <trkpt lat="37.4806620" lon="-4.4287070">
        <ele>525.2</ele>
        <time>2021-12-28T15:51:32Z</time>
      </trkpt>
      <trkpt lat="37.4806430" lon="-4.4286480">
        <ele>525.2</ele>
        <time>2021-12-28T15:51:33Z</time>
      </trkpt>
      <trkpt lat="37.4806210" lon="-4.4285900">
        <ele>525.0</ele>
        <time>2021-12-28T15:51:34Z</time>
      </trkpt>
      <trkpt lat="37.4805980" lon="-4.4285340">
        <ele>524.8</ele>
        <time>2021-12-28T15:51:35Z</time>
      </trkpt>
      <trkpt lat="37.4805730" lon="-4.4284770">
        <ele>524.8</ele>
        <time>2021-12-28T15:51:36Z</time>
      </trkpt>
      <trkpt lat="37.4805540" lon="-4.4284170">
        <ele>524.6</ele>
        <time>2021-12-28T15:51:37Z</time>
      </trkpt>
      <trkpt lat="37.4805310" lon="-4.4283580">
        <ele>524.6</ele>
        <time>2021-12-28T15:51:38Z</time>
      </trkpt>
      <trkpt lat="37.4805150" lon="-4.4282950">
        <ele>524.4</ele>
        <time>2021-12-28T15:51:39Z</time>
      </trkpt>
      <trkpt lat="37.4804930" lon="-4.4282360">
        <ele>524.4</ele>
        <time>2021-12-28T15:51:40Z</time>
      </trkpt>
      <trkpt lat="37.4804740" lon="-4.4281800">
        <ele>524.2</ele>
        <time>2021-12-28T15:51:41Z</time>
      </trkpt>
      <trkpt lat="37.4804580" lon="-4.4281240">
        <ele>524.2</ele>
        <time>2021-12-28T15:51:42Z</time>
      </trkpt>
      <trkpt lat="37.4804380" lon="-4.4280720">
        <ele>524.0</ele>
        <time>2021-12-28T15:51:43Z</time>
      </trkpt>
      <trkpt lat="37.4804160" lon="-4.4280170">
        <ele>524.0</ele>
        <time>2021-12-28T15:51:44Z</time>
      </trkpt>
      <trkpt lat="37.4803840" lon="-4.4279620">
        <ele>523.8</ele>
        <time>2021-12-28T15:51:45Z</time>
      </trkpt>
      <trkpt lat="37.4803580" lon="-4.4278980">
        <ele>523.8</ele>
        <time>2021-12-28T15:51:46Z</time>
      </trkpt>
      <trkpt lat="37.4803390" lon="-4.4278320">
        <ele>523.6</ele>
        <time>2021-12-28T15:51:47Z</time>
      </trkpt>
      <trkpt lat="37.4803170" lon="-4.4277680">
        <ele>523.4</ele>
        <time>2021-12-28T15:51:48Z</time>
      </trkpt>
      <trkpt lat="37.4802940" lon="-4.4277070">
        <ele>523.4</ele>
        <time>2021-12-28T15:51:49Z</time>
      </trkpt>
      <trkpt lat="37.4802660" lon="-4.4276480">
        <ele>523.2</ele>
        <time>2021-12-28T15:51:50Z</time>
      </trkpt>
      <trkpt lat="37.4802370" lon="-4.4275960">
        <ele>523.0</ele>
        <time>2021-12-28T15:51:51Z</time>
      </trkpt>
      <trkpt lat="37.4802050" lon="-4.4275400">
        <ele>522.8</ele>
        <time>2021-12-28T15:51:52Z</time>
      </trkpt>
      <trkpt lat="37.4801790" lon="-4.4274840">
        <ele>522.8</ele>
        <time>2021-12-28T15:51:53Z</time>
      </trkpt>
      <trkpt lat="37.4801600" lon="-4.4274250">
        <ele>522.6</ele>
        <time>2021-12-28T15:51:54Z</time>
      </trkpt>
      <trkpt lat="37.4801380" lon="-4.4273620">
        <ele>522.6</ele>
        <time>2021-12-28T15:51:55Z</time>
      </trkpt>
      <trkpt lat="37.4801150" lon="-4.4272980">
        <ele>522.4</ele>
        <time>2021-12-28T15:51:56Z</time>
      </trkpt>
      <trkpt lat="37.4800900" lon="-4.4272350">
        <ele>522.4</ele>
        <time>2021-12-28T15:51:57Z</time>
      </trkpt>
      <trkpt lat="37.4800640" lon="-4.4271720">
        <ele>522.2</ele>
        <time>2021-12-28T15:51:58Z</time>
      </trkpt>
      <trkpt lat="37.4800420" lon="-4.4271080">
        <ele>522.2</ele>
        <time>2021-12-28T15:51:59Z</time>
      </trkpt>
      <trkpt lat="37.4800160" lon="-4.4270450">
        <ele>522.0</ele>
        <time>2021-12-28T15:52:00Z</time>
      </trkpt>
      <trkpt lat="37.4799900" lon="-4.4269800">
        <ele>522.0</ele>
        <time>2021-12-28T15:52:01Z</time>
      </trkpt>
      <trkpt lat="37.4799650" lon="-4.4269130">
        <ele>521.8</ele>
        <time>2021-12-28T15:52:02Z</time>
      </trkpt>
      <trkpt lat="37.4799420" lon="-4.4268500">
        <ele>521.8</ele>
        <time>2021-12-28T15:52:03Z</time>
      </trkpt>
      <trkpt lat="37.4799170" lon="-4.4267900">
        <ele>521.8</ele>
        <time>2021-12-28T15:52:04Z</time>
      </trkpt>
      <trkpt lat="37.4798880" lon="-4.4267300">
        <ele>521.6</ele>
        <time>2021-12-28T15:52:05Z</time>
      </trkpt>
      <trkpt lat="37.4798620" lon="-4.4266680">
        <ele>521.6</ele>
        <time>2021-12-28T15:52:06Z</time>
      </trkpt>
      <trkpt lat="37.4798300" lon="-4.4266050">
        <ele>521.4</ele>
        <time>2021-12-28T15:52:07Z</time>
      </trkpt>
      <trkpt lat="37.4798080" lon="-4.4265430">
        <ele>521.4</ele>
        <time>2021-12-28T15:52:08Z</time>
      </trkpt>
      <trkpt lat="37.4797820" lon="-4.4264800">
        <ele>521.4</ele>
        <time>2021-12-28T15:52:09Z</time>
      </trkpt>
      <trkpt lat="37.4797570" lon="-4.4264200">
        <ele>521.2</ele>
        <time>2021-12-28T15:52:10Z</time>
      </trkpt>
      <trkpt lat="37.4797250" lon="-4.4263640">
        <ele>521.2</ele>
        <time>2021-12-28T15:52:11Z</time>
      </trkpt>
      <trkpt lat="37.4796990" lon="-4.4263050">
        <ele>521.0</ele>
        <time>2021-12-28T15:52:12Z</time>
      </trkpt>
      <trkpt lat="37.4796670" lon="-4.4262480">
        <ele>521.0</ele>
        <time>2021-12-28T15:52:13Z</time>
      </trkpt>
      <trkpt lat="37.4796380" lon="-4.4261900">
        <ele>521.0</ele>
        <time>2021-12-28T15:52:14Z</time>
      </trkpt>
      <trkpt lat="37.4796060" lon="-4.4261280">
        <ele>520.8</ele>
        <time>2021-12-28T15:52:15Z</time>
      </trkpt>
      <trkpt lat="37.4795810" lon="-4.4260700">
        <ele>520.8</ele>
        <time>2021-12-28T15:52:16Z</time>
      </trkpt>
      <trkpt lat="37.4795420" lon="-4.4260150">
        <ele>520.8</ele>
        <time>2021-12-28T15:52:17Z</time>
      </trkpt>
      <trkpt lat="37.4795040" lon="-4.4259620">
        <ele>520.6</ele>
        <time>2021-12-28T15:52:18Z</time>
      </trkpt>
      <trkpt lat="37.4794660" lon="-4.4259100">
        <ele>520.6</ele>
        <time>2021-12-28T15:52:19Z</time>
      </trkpt>
      <trkpt lat="37.4794240" lon="-4.4258630">
        <ele>520.4</ele>
        <time>2021-12-28T15:52:20Z</time>
      </trkpt>
      <trkpt lat="37.4793890" lon="-4.4258120">
        <ele>520.4</ele>
        <time>2021-12-28T15:52:21Z</time>
      </trkpt>
      <trkpt lat="37.4793600" lon="-4.4257560">
        <ele>520.2</ele>
        <time>2021-12-28T15:52:22Z</time>
      </trkpt>
      <trkpt lat="37.4793250" lon="-4.4257050">
        <ele>520.2</ele>
        <time>2021-12-28T15:52:23Z</time>
      </trkpt>
      <trkpt lat="37.4792860" lon="-4.4256570">
        <ele>520.0</ele>
        <time>2021-12-28T15:52:24Z</time>
      </trkpt>
      <trkpt lat="37.4792510" lon="-4.4256100">
        <ele>519.8</ele>
        <time>2021-12-28T15:52:25Z</time>
      </trkpt>
      <trkpt lat="37.4792260" lon="-4.4255650">
        <ele>519.8</ele>
        <time>2021-12-28T15:52:26Z</time>
      </trkpt>
      <trkpt lat="37.4791940" lon="-4.4255220">
        <ele>519.6</ele>
        <time>2021-12-28T15:52:27Z</time>
      </trkpt>
      <trkpt lat="37.4791710" lon="-4.4254860">
        <ele>519.4</ele>
        <time>2021-12-28T15:52:28Z</time>
      </trkpt>
      <trkpt lat="37.4791420" lon="-4.4254500">
        <ele>519.4</ele>
        <time>2021-12-28T15:52:29Z</time>
      </trkpt>
      <trkpt lat="37.4791140" lon="-4.4254050">
        <ele>519.2</ele>
        <time>2021-12-28T15:52:30Z</time>
      </trkpt>
      <trkpt lat="37.4790850" lon="-4.4253580">
        <ele>519.2</ele>
        <time>2021-12-28T15:52:31Z</time>
      </trkpt>
      <trkpt lat="37.4790500" lon="-4.4253140">
        <ele>519.2</ele>
        <time>2021-12-28T15:52:32Z</time>
      </trkpt>
      <trkpt lat="37.4790110" lon="-4.4252700">
        <ele>519.0</ele>
        <time>2021-12-28T15:52:33Z</time>
      </trkpt>
      <trkpt lat="37.4789730" lon="-4.4252350">
        <ele>518.8</ele>
        <time>2021-12-28T15:52:34Z</time>
      </trkpt>
      <trkpt lat="37.4789310" lon="-4.4251970">
        <ele>518.6</ele>
        <time>2021-12-28T15:52:35Z</time>
      </trkpt>
      <trkpt lat="37.4788860" lon="-4.4251530">
        <ele>518.4</ele>
        <time>2021-12-28T15:52:36Z</time>
      </trkpt>
      <trkpt lat="37.4788450" lon="-4.4251120">
        <ele>518.2</ele>
        <time>2021-12-28T15:52:37Z</time>
      </trkpt>
      <trkpt lat="37.4788030" lon="-4.4250660">
        <ele>518.2</ele>
        <time>2021-12-28T15:52:38Z</time>
      </trkpt>
      <trkpt lat="37.4787550" lon="-4.4250240">
        <ele>518.0</ele>
        <time>2021-12-28T15:52:39Z</time>
      </trkpt>
      <trkpt lat="37.4787100" lon="-4.4249820">
        <ele>517.8</ele>
        <time>2021-12-28T15:52:40Z</time>
      </trkpt>
      <trkpt lat="37.4786590" lon="-4.4249420">
        <ele>517.8</ele>
        <time>2021-12-28T15:52:41Z</time>
      </trkpt>
      <trkpt lat="37.4786110" lon="-4.4249030">
        <ele>517.8</ele>
        <time>2021-12-28T15:52:42Z</time>
      </trkpt>
      <trkpt lat="37.4785600" lon="-4.4248630">
        <ele>517.6</ele>
        <time>2021-12-28T15:52:43Z</time>
      </trkpt>
      <trkpt lat="37.4785090" lon="-4.4248270">
        <ele>517.6</ele>
        <time>2021-12-28T15:52:44Z</time>
      </trkpt>
      <trkpt lat="37.4784580" lon="-4.4247920">
        <ele>517.6</ele>
        <time>2021-12-28T15:52:45Z</time>
      </trkpt>
      <trkpt lat="37.4784060" lon="-4.4247620">
        <ele>517.6</ele>
        <time>2021-12-28T15:52:46Z</time>
      </trkpt>
      <trkpt lat="37.4783490" lon="-4.4247280">
        <ele>517.6</ele>
        <time>2021-12-28T15:52:47Z</time>
      </trkpt>
      <trkpt lat="37.4782940" lon="-4.4246950">
        <ele>517.6</ele>
        <time>2021-12-28T15:52:48Z</time>
      </trkpt>
      <trkpt lat="37.4782430" lon="-4.4246640">
        <ele>517.6</ele>
        <time>2021-12-28T15:52:49Z</time>
      </trkpt>
      <trkpt lat="37.4781920" lon="-4.4246350">
        <ele>517.6</ele>
        <time>2021-12-28T15:52:50Z</time>
      </trkpt>
      <trkpt lat="37.4781380" lon="-4.4246080">
        <ele>517.6</ele>
        <time>2021-12-28T15:52:51Z</time>
      </trkpt>
      <trkpt lat="37.4780830" lon="-4.4245780">
        <ele>517.6</ele>
        <time>2021-12-28T15:52:52Z</time>
      </trkpt>
      <trkpt lat="37.4780320" lon="-4.4245500">
        <ele>517.6</ele>
        <time>2021-12-28T15:52:53Z</time>
      </trkpt>
      <trkpt lat="37.4779780" lon="-4.4245250">
        <ele>517.6</ele>
        <time>2021-12-28T15:52:54Z</time>
      </trkpt>
      <trkpt lat="37.4779230" lon="-4.4245020">
        <ele>517.6</ele>
        <time>2021-12-28T15:52:55Z</time>
      </trkpt>
      <trkpt lat="37.4778750" lon="-4.4244770">
        <ele>517.4</ele>
        <time>2021-12-28T15:52:56Z</time>
      </trkpt>
      <trkpt lat="37.4778210" lon="-4.4244550">
        <ele>517.4</ele>
        <time>2021-12-28T15:52:57Z</time>
      </trkpt>
      <trkpt lat="37.4777630" lon="-4.4244360">
        <ele>517.4</ele>
        <time>2021-12-28T15:52:58Z</time>
      </trkpt>
      <trkpt lat="37.4777060" lon="-4.4244180">
        <ele>517.2</ele>
        <time>2021-12-28T15:52:59Z</time>
      </trkpt>
      <trkpt lat="37.4776540" lon="-4.4243950">
        <ele>517.2</ele>
        <time>2021-12-28T15:53:00Z</time>
      </trkpt>
      <trkpt lat="37.4775970" lon="-4.4243720">
        <ele>517.2</ele>
        <time>2021-12-28T15:53:01Z</time>
      </trkpt>
      <trkpt lat="37.4775390" lon="-4.4243530">
        <ele>517.2</ele>
        <time>2021-12-28T15:53:02Z</time>
      </trkpt>
      <trkpt lat="37.4774820" lon="-4.4243400">
        <ele>517.2</ele>
        <time>2021-12-28T15:53:03Z</time>
      </trkpt>
      <trkpt lat="37.4774270" lon="-4.4243280">
        <ele>517.2</ele>
        <time>2021-12-28T15:53:04Z</time>
      </trkpt>
      <trkpt lat="37.4773760" lon="-4.4243230">
        <ele>517.2</ele>
        <time>2021-12-28T15:53:05Z</time>
      </trkpt>
      <trkpt lat="37.4773340" lon="-4.4243180">
        <ele>517.2</ele>
        <time>2021-12-28T15:53:06Z</time>
      </trkpt>
      <trkpt lat="37.4772960" lon="-4.4243140">
        <ele>517.2</ele>
        <time>2021-12-28T15:53:07Z</time>
      </trkpt>
      <trkpt lat="37.4772580" lon="-4.4243080">
        <ele>517.2</ele>
        <time>2021-12-28T15:53:08Z</time>
      </trkpt>
      <trkpt lat="37.4772220" lon="-4.4243020">
        <ele>517.2</ele>
        <time>2021-12-28T15:53:09Z</time>
      </trkpt>
      <trkpt lat="37.4771840" lon="-4.4242940">
        <ele>517.2</ele>
        <time>2021-12-28T15:53:10Z</time>
      </trkpt>
      <trkpt lat="37.4771460" lon="-4.4242870">
        <ele>517.2</ele>
        <time>2021-12-28T15:53:11Z</time>
      </trkpt>
      <trkpt lat="37.4771100" lon="-4.4242820">
        <ele>517.2</ele>
        <time>2021-12-28T15:53:12Z</time>
      </trkpt>
      <trkpt lat="37.4770820" lon="-4.4242770">
        <ele>517.2</ele>
        <time>2021-12-28T15:53:13Z</time>
      </trkpt>
      <trkpt lat="37.4770500" lon="-4.4242720">
        <ele>517.2</ele>
        <time>2021-12-28T15:53:14Z</time>
      </trkpt>
      <trkpt lat="37.4770240" lon="-4.4242670">
        <ele>517.2</ele>
        <time>2021-12-28T15:53:15Z</time>
      </trkpt>
      <trkpt lat="37.4769920" lon="-4.4242650">
        <ele>517.2</ele>
        <time>2021-12-28T15:53:16Z</time>
      </trkpt>
      <trkpt lat="37.4769700" lon="-4.4242640">
        <ele>517.2</ele>
        <time>2021-12-28T15:53:17Z</time>
      </trkpt>
      <trkpt lat="37.4769470" lon="-4.4242600">
        <ele>517.2</ele>
        <time>2021-12-28T15:53:18Z</time>
      </trkpt>
      <trkpt lat="37.4769220" lon="-4.4242580">
        <ele>517.2</ele>
        <time>2021-12-28T15:53:19Z</time>
      </trkpt>
      <trkpt lat="37.4769090" lon="-4.4242420">
        <ele>517.2</ele>
        <time>2021-12-28T15:53:20Z</time>
      </trkpt>
      <trkpt lat="37.4769090" lon="-4.4242420">
        <ele>517.2</ele>
        <time>2021-12-28T15:53:21Z</time>
      </trkpt>
      <trkpt lat="37.4769090" lon="-4.4242420">
        <ele>517.2</ele>
        <time>2021-12-28T15:53:22Z</time>
      </trkpt>
      <trkpt lat="37.4769090" lon="-4.4242420">
        <ele>517.2</ele>
        <time>2021-12-28T15:53:23Z</time>
      </trkpt>
      <trkpt lat="37.4769090" lon="-4.4242420">
        <ele>517.2</ele>
        <time>2021-12-28T15:53:24Z</time>
      </trkpt>
      <trkpt lat="37.4769090" lon="-4.4242420">
        <ele>517.8</ele>
        <time>2021-12-28T15:54:40Z</time>
      </trkpt>
      <trkpt lat="37.4769090" lon="-4.4242420">
        <ele>517.8</ele>
        <time>2021-12-28T15:54:41Z</time>
      </trkpt>
      <trkpt lat="37.4769090" lon="-4.4242420">
        <ele>517.8</ele>
        <time>2021-12-28T15:54:42Z</time>
      </trkpt>
      <trkpt lat="37.4768640" lon="-4.4242800">
        <ele>526.6</ele>
        <time>2021-12-28T15:55:06Z</time>
      </trkpt>
      <trkpt lat="37.4768860" lon="-4.4242920">
        <ele>526.8</ele>
        <time>2021-12-28T15:55:07Z</time>
      </trkpt>
      <trkpt lat="37.4769020" lon="-4.4243070">
        <ele>527.0</ele>
        <time>2021-12-28T15:55:08Z</time>
      </trkpt>
      <trkpt lat="37.4769220" lon="-4.4243200">
        <ele>527.2</ele>
        <time>2021-12-28T15:55:09Z</time>
      </trkpt>
      <trkpt lat="37.4769440" lon="-4.4243300">
        <ele>527.2</ele>
        <time>2021-12-28T15:55:10Z</time>
      </trkpt>
      <trkpt lat="37.4769660" lon="-4.4243350">
        <ele>527.2</ele>
        <time>2021-12-28T15:55:11Z</time>
      </trkpt>
      <trkpt lat="37.4769890" lon="-4.4243400">
        <ele>527.4</ele>
        <time>2021-12-28T15:55:12Z</time>
      </trkpt>
      <trkpt lat="37.4770080" lon="-4.4243450">
        <ele>527.2</ele>
        <time>2021-12-28T15:55:13Z</time>
      </trkpt>
      <trkpt lat="37.4770300" lon="-4.4243530">
        <ele>527.2</ele>
        <time>2021-12-28T15:55:14Z</time>
      </trkpt>
      <trkpt lat="37.4770560" lon="-4.4243680">
        <ele>527.2</ele>
        <time>2021-12-28T15:55:15Z</time>
      </trkpt>
      <trkpt lat="37.4770560" lon="-4.4243680">
        <ele>527.0</ele>
        <time>2021-12-28T15:55:16Z</time>
      </trkpt>
      <trkpt lat="37.4771090" lon="-4.4244040">
        <ele>527.0</ele>
        <time>2021-12-28T15:55:17Z</time>
      </trkpt>
      <trkpt lat="37.4771200" lon="-4.4244080">
        <ele>526.8</ele>
        <time>2021-12-28T15:55:18Z</time>
      </trkpt>
      <trkpt lat="37.4771390" lon="-4.4244200">
        <ele>526.6</ele>
        <time>2021-12-28T15:55:19Z</time>
      </trkpt>
      <trkpt lat="37.4771650" lon="-4.4244400">
        <ele>526.4</ele>
        <time>2021-12-28T15:55:20Z</time>
      </trkpt>
      <trkpt lat="37.4771900" lon="-4.4244630">
        <ele>526.2</ele>
        <time>2021-12-28T15:55:21Z</time>
      </trkpt>
      <trkpt lat="37.4772220" lon="-4.4244900">
        <ele>526.0</ele>
        <time>2021-12-28T15:55:22Z</time>
      </trkpt>
      <trkpt lat="37.4772480" lon="-4.4245180">
        <ele>525.6</ele>
        <time>2021-12-28T15:55:23Z</time>
      </trkpt>
      <trkpt lat="37.4772800" lon="-4.4245500">
        <ele>525.4</ele>
        <time>2021-12-28T15:55:24Z</time>
      </trkpt>
      <trkpt lat="37.4773060" lon="-4.4245800">
        <ele>525.2</ele>
        <time>2021-12-28T15:55:25Z</time>
      </trkpt>
      <trkpt lat="37.4773380" lon="-4.4246100">
        <ele>524.8</ele>
        <time>2021-12-28T15:55:26Z</time>
      </trkpt>
      <trkpt lat="37.4773660" lon="-4.4246450">
        <ele>524.6</ele>
        <time>2021-12-28T15:55:27Z</time>
      </trkpt>
      <trkpt lat="37.4773980" lon="-4.4246880">
        <ele>524.2</ele>
        <time>2021-12-28T15:55:28Z</time>
      </trkpt>
      <trkpt lat="37.4774180" lon="-4.4247420">
        <ele>524.0</ele>
        <time>2021-12-28T15:55:29Z</time>
      </trkpt>
      <trkpt lat="37.4774270" lon="-4.4248050">
        <ele>523.6</ele>
        <time>2021-12-28T15:55:30Z</time>
      </trkpt>
      <trkpt lat="37.4774270" lon="-4.4248650">
        <ele>523.4</ele>
        <time>2021-12-28T15:55:31Z</time>
      </trkpt>
      <trkpt lat="37.4774270" lon="-4.4249280">
        <ele>523.2</ele>
        <time>2021-12-28T15:55:32Z</time>
      </trkpt>
      <trkpt lat="37.4774270" lon="-4.4249920">
        <ele>522.8</ele>
        <time>2021-12-28T15:55:33Z</time>
      </trkpt>
      <trkpt lat="37.4774270" lon="-4.4250500">
        <ele>522.4</ele>
        <time>2021-12-28T15:55:34Z</time>
      </trkpt>
      <trkpt lat="37.4774340" lon="-4.4251050">
        <ele>522.2</ele>
        <time>2021-12-28T15:55:35Z</time>
      </trkpt>
      <trkpt lat="37.4774270" lon="-4.4251580">
        <ele>521.8</ele>
        <time>2021-12-28T15:55:36Z</time>
      </trkpt>
      <trkpt lat="37.4774340" lon="-4.4252080">
        <ele>521.6</ele>
        <time>2021-12-28T15:55:37Z</time>
      </trkpt>
      <trkpt lat="37.4774270" lon="-4.4252550">
        <ele>521.2</ele>
        <time>2021-12-28T15:55:38Z</time>
      </trkpt>
      <trkpt lat="37.4774270" lon="-4.4252950">
        <ele>520.8</ele>
        <time>2021-12-28T15:55:39Z</time>
      </trkpt>
      <trkpt lat="37.4774270" lon="-4.4253300">
        <ele>520.6</ele>
        <time>2021-12-28T15:55:40Z</time>
      </trkpt>
      <trkpt lat="37.4774270" lon="-4.4253600">
        <ele>520.2</ele>
        <time>2021-12-28T15:55:41Z</time>
      </trkpt>
      <trkpt lat="37.4774340" lon="-4.4253840">
        <ele>520.0</ele>
        <time>2021-12-28T15:55:42Z</time>
      </trkpt>
      <trkpt lat="37.4774340" lon="-4.4253840">
        <ele>519.6</ele>
        <time>2021-12-28T15:55:43Z</time>
      </trkpt>
      <trkpt lat="37.4774340" lon="-4.4253840">
        <ele>519.4</ele>
        <time>2021-12-28T15:55:44Z</time>
      </trkpt>
      <trkpt lat="37.4774340" lon="-4.4253840">
        <ele>519.2</ele>
        <time>2021-12-28T15:55:45Z</time>
      </trkpt>
      <trkpt lat="37.4774340" lon="-4.4253840">
        <ele>519.0</ele>
        <time>2021-12-28T15:55:46Z</time>
      </trkpt>
      <trkpt lat="37.4774340" lon="-4.4253840">
        <ele>518.8</ele>
        <time>2021-12-28T15:55:47Z</time>
      </trkpt>
      <trkpt lat="37.4774180" lon="-4.4255200">
        <ele>517.4</ele>
        <time>2021-12-28T15:55:59Z</time>
      </trkpt>
      <trkpt lat="37.4774240" lon="-4.4255500">
        <ele>517.2</ele>
        <time>2021-12-28T15:56:00Z</time>
      </trkpt>
      <trkpt lat="37.4774370" lon="-4.4255850">
        <ele>517.0</ele>
        <time>2021-12-28T15:56:01Z</time>
      </trkpt>
      <trkpt lat="37.4774460" lon="-4.4256200">
        <ele>516.8</ele>
        <time>2021-12-28T15:56:02Z</time>
      </trkpt>
      <trkpt lat="37.4774590" lon="-4.4256600">
        <ele>516.6</ele>
        <time>2021-12-28T15:56:03Z</time>
      </trkpt>
      <trkpt lat="37.4774690" lon="-4.4257000">
        <ele>516.2</ele>
        <time>2021-12-28T15:56:04Z</time>
      </trkpt>
      <trkpt lat="37.4774820" lon="-4.4257420">
        <ele>516.0</ele>
        <time>2021-12-28T15:56:05Z</time>
      </trkpt>
      <trkpt lat="37.4774940" lon="-4.4257850">
        <ele>515.8</ele>
        <time>2021-12-28T15:56:06Z</time>
      </trkpt>
      <trkpt lat="37.4775070" lon="-4.4258300">
        <ele>515.6</ele>
        <time>2021-12-28T15:56:07Z</time>
      </trkpt>
      <trkpt lat="37.4775200" lon="-4.4258750">
        <ele>515.4</ele>
        <time>2021-12-28T15:56:08Z</time>
      </trkpt>
      <trkpt lat="37.4775360" lon="-4.4259200">
        <ele>515.2</ele>
        <time>2021-12-28T15:56:09Z</time>
      </trkpt>
      <trkpt lat="37.4775520" lon="-4.4259650">
        <ele>514.8</ele>
        <time>2021-12-28T15:56:10Z</time>
      </trkpt>
      <trkpt lat="37.4775620" lon="-4.4260100">
        <ele>514.6</ele>
        <time>2021-12-28T15:56:11Z</time>
      </trkpt>
      <trkpt lat="37.4775780" lon="-4.4260580">
        <ele>514.2</ele>
        <time>2021-12-28T15:56:12Z</time>
      </trkpt>
      <trkpt lat="37.4775940" lon="-4.4261080">
        <ele>514.0</ele>
        <time>2021-12-28T15:56:13Z</time>
      </trkpt>
      <trkpt lat="37.4776030" lon="-4.4261550">
        <ele>513.8</ele>
        <time>2021-12-28T15:56:14Z</time>
      </trkpt>
      <trkpt lat="37.4776220" lon="-4.4262050">
        <ele>513.6</ele>
        <time>2021-12-28T15:56:15Z</time>
      </trkpt>
      <trkpt lat="37.4776420" lon="-4.4262570">
        <ele>513.4</ele>
        <time>2021-12-28T15:56:16Z</time>
      </trkpt>
      <trkpt lat="37.4776610" lon="-4.4263100">
        <ele>513.0</ele>
        <time>2021-12-28T15:56:17Z</time>
      </trkpt>
      <trkpt lat="37.4776770" lon="-4.4263650">
        <ele>512.8</ele>
        <time>2021-12-28T15:56:18Z</time>
      </trkpt>
      <trkpt lat="37.4776930" lon="-4.4264220">
        <ele>512.6</ele>
        <time>2021-12-28T15:56:19Z</time>
      </trkpt>
      <trkpt lat="37.4777060" lon="-4.4264820">
        <ele>512.2</ele>
        <time>2021-12-28T15:56:20Z</time>
      </trkpt>
      <trkpt lat="37.4777250" lon="-4.4265400">
        <ele>512.0</ele>
        <time>2021-12-28T15:56:21Z</time>
      </trkpt>
      <trkpt lat="37.4777410" lon="-4.4265970">
        <ele>511.8</ele>
        <time>2021-12-28T15:56:22Z</time>
      </trkpt>
      <trkpt lat="37.4777540" lon="-4.4266530">
        <ele>511.6</ele>
        <time>2021-12-28T15:56:23Z</time>
      </trkpt>
      <trkpt lat="37.4777630" lon="-4.4267050">
        <ele>511.4</ele>
        <time>2021-12-28T15:56:24Z</time>
      </trkpt>
      <trkpt lat="37.4777730" lon="-4.4267570">
        <ele>511.0</ele>
        <time>2021-12-28T15:56:25Z</time>
      </trkpt>
      <trkpt lat="37.4777820" lon="-4.4268030">
        <ele>510.8</ele>
        <time>2021-12-28T15:56:26Z</time>
      </trkpt>
      <trkpt lat="37.4777860" lon="-4.4268560">
        <ele>510.4</ele>
        <time>2021-12-28T15:56:27Z</time>
      </trkpt>
      <trkpt lat="37.4777860" lon="-4.4269100">
        <ele>510.2</ele>
        <time>2021-12-28T15:56:28Z</time>
      </trkpt>
      <trkpt lat="37.4777820" lon="-4.4269670">
        <ele>509.8</ele>
        <time>2021-12-28T15:56:29Z</time>
      </trkpt>
      <trkpt lat="37.4777820" lon="-4.4270240">
        <ele>509.6</ele>
        <time>2021-12-28T15:56:30Z</time>
      </trkpt>
      <trkpt lat="37.4777790" lon="-4.4270840">
        <ele>509.2</ele>
        <time>2021-12-28T15:56:31Z</time>
      </trkpt>
      <trkpt lat="37.4777760" lon="-4.4271450">
        <ele>509.0</ele>
        <time>2021-12-28T15:56:32Z</time>
      </trkpt>
      <trkpt lat="37.4777660" lon="-4.4272100">
        <ele>508.8</ele>
        <time>2021-12-28T15:56:33Z</time>
      </trkpt>
      <trkpt lat="37.4777630" lon="-4.4272720">
        <ele>508.6</ele>
        <time>2021-12-28T15:56:34Z</time>
      </trkpt>
      <trkpt lat="37.4777570" lon="-4.4273370">
        <ele>508.4</ele>
        <time>2021-12-28T15:56:35Z</time>
      </trkpt>
      <trkpt lat="37.4777540" lon="-4.4274070">
        <ele>508.4</ele>
        <time>2021-12-28T15:56:36Z</time>
      </trkpt>
      <trkpt lat="37.4777540" lon="-4.4274800">
        <ele>508.0</ele>
        <time>2021-12-28T15:56:37Z</time>
      </trkpt>
      <trkpt lat="37.4777440" lon="-4.4275600">
        <ele>507.8</ele>
        <time>2021-12-28T15:56:38Z</time>
      </trkpt>
      <trkpt lat="37.4777410" lon="-4.4276380">
        <ele>507.6</ele>
        <time>2021-12-28T15:56:39Z</time>
      </trkpt>
      <trkpt lat="37.4777310" lon="-4.4277170">
        <ele>507.4</ele>
        <time>2021-12-28T15:56:40Z</time>
      </trkpt>
      <trkpt lat="37.4777250" lon="-4.4277900">
        <ele>507.4</ele>
        <time>2021-12-28T15:56:41Z</time>
      </trkpt>
      <trkpt lat="37.4777180" lon="-4.4278630">
        <ele>507.2</ele>
        <time>2021-12-28T15:56:42Z</time>
      </trkpt>
      <trkpt lat="37.4777150" lon="-4.4279420">
        <ele>507.0</ele>
        <time>2021-12-28T15:56:43Z</time>
      </trkpt>
      <trkpt lat="37.4777060" lon="-4.4280180">
        <ele>506.8</ele>
        <time>2021-12-28T15:56:44Z</time>
      </trkpt>
      <trkpt lat="37.4777020" lon="-4.4280940">
        <ele>506.6</ele>
        <time>2021-12-28T15:56:45Z</time>
      </trkpt>
      <trkpt lat="37.4776930" lon="-4.4281700">
        <ele>506.2</ele>
        <time>2021-12-28T15:56:46Z</time>
      </trkpt>
      <trkpt lat="37.4776800" lon="-4.4282420">
        <ele>506.0</ele>
        <time>2021-12-28T15:56:47Z</time>
      </trkpt>
      <trkpt lat="37.4776670" lon="-4.4283160">
        <ele>505.8</ele>
        <time>2021-12-28T15:56:48Z</time>
      </trkpt>
      <trkpt lat="37.4776580" lon="-4.4283920">
        <ele>505.6</ele>
        <time>2021-12-28T15:56:49Z</time>
      </trkpt>
      <trkpt lat="37.4776510" lon="-4.4284650">
        <ele>505.4</ele>
        <time>2021-12-28T15:56:50Z</time>
      </trkpt>
      <trkpt lat="37.4776420" lon="-4.4285420">
        <ele>505.2</ele>
        <time>2021-12-28T15:56:51Z</time>
      </trkpt>
      <trkpt lat="37.4776350" lon="-4.4286120">
        <ele>505.0</ele>
        <time>2021-12-28T15:56:52Z</time>
      </trkpt>
      <trkpt lat="37.4776260" lon="-4.4286770">
        <ele>505.0</ele>
        <time>2021-12-28T15:56:53Z</time>
      </trkpt>
      <trkpt lat="37.4776160" lon="-4.4287400">
        <ele>504.8</ele>
        <time>2021-12-28T15:56:54Z</time>
      </trkpt>
      <trkpt lat="37.4776060" lon="-4.4287980">
        <ele>504.6</ele>
        <time>2021-12-28T15:56:55Z</time>
      </trkpt>
      <trkpt lat="37.4776000" lon="-4.4288600">
        <ele>504.4</ele>
        <time>2021-12-28T15:56:56Z</time>
      </trkpt>
      <trkpt lat="37.4775940" lon="-4.4289150">
        <ele>504.2</ele>
        <time>2021-12-28T15:56:57Z</time>
      </trkpt>
      <trkpt lat="37.4775840" lon="-4.4289680">
        <ele>504.0</ele>
        <time>2021-12-28T15:56:58Z</time>
      </trkpt>
      <trkpt lat="37.4775740" lon="-4.4290200">
        <ele>503.6</ele>
        <time>2021-12-28T15:56:59Z</time>
      </trkpt>
      <trkpt lat="37.4775650" lon="-4.4290670">
        <ele>503.4</ele>
        <time>2021-12-28T15:57:00Z</time>
      </trkpt>
      <trkpt lat="37.4775550" lon="-4.4291130">
        <ele>503.0</ele>
        <time>2021-12-28T15:57:01Z</time>
      </trkpt>
      <trkpt lat="37.4775390" lon="-4.4291570">
        <ele>502.8</ele>
        <time>2021-12-28T15:57:02Z</time>
      </trkpt>
      <trkpt lat="37.4775200" lon="-4.4291950">
        <ele>502.6</ele>
        <time>2021-12-28T15:57:03Z</time>
      </trkpt>
      <trkpt lat="37.4775040" lon="-4.4292320">
        <ele>502.2</ele>
        <time>2021-12-28T15:57:04Z</time>
      </trkpt>
      <trkpt lat="37.4774880" lon="-4.4292700">
        <ele>502.0</ele>
        <time>2021-12-28T15:57:05Z</time>
      </trkpt>
      <trkpt lat="37.4774690" lon="-4.4293200">
        <ele>501.8</ele>
        <time>2021-12-28T15:57:06Z</time>
      </trkpt>
      <trkpt lat="37.4774530" lon="-4.4293770">
        <ele>501.6</ele>
        <time>2021-12-28T15:57:07Z</time>
      </trkpt>
      <trkpt lat="37.4774340" lon="-4.4294370">
        <ele>501.2</ele>
        <time>2021-12-28T15:57:08Z</time>
      </trkpt>
      <trkpt lat="37.4774140" lon="-4.4294970">
        <ele>501.0</ele>
        <time>2021-12-28T15:57:09Z</time>
      </trkpt>
      <trkpt lat="37.4773950" lon="-4.4295570">
        <ele>500.8</ele>
        <time>2021-12-28T15:57:10Z</time>
      </trkpt>
      <trkpt lat="37.4773760" lon="-4.4296160">
        <ele>500.6</ele>
        <time>2021-12-28T15:57:11Z</time>
      </trkpt>
      <trkpt lat="37.4773600" lon="-4.4296750">
        <ele>500.4</ele>
        <time>2021-12-28T15:57:12Z</time>
      </trkpt>
      <trkpt lat="37.4773440" lon="-4.4297270">
        <ele>500.2</ele>
        <time>2021-12-28T15:57:13Z</time>
      </trkpt>
      <trkpt lat="37.4773340" lon="-4.4297700">
        <ele>500.0</ele>
        <time>2021-12-28T15:57:14Z</time>
      </trkpt>
      <trkpt lat="37.4773220" lon="-4.4298180">
        <ele>499.8</ele>
        <time>2021-12-28T15:57:15Z</time>
      </trkpt>
      <trkpt lat="37.4773060" lon="-4.4298720">
        <ele>499.6</ele>
        <time>2021-12-28T15:57:16Z</time>
      </trkpt>
      <trkpt lat="37.4772830" lon="-4.4299220">
        <ele>499.2</ele>
        <time>2021-12-28T15:57:17Z</time>
      </trkpt>
      <trkpt lat="37.4772640" lon="-4.4299760">
        <ele>499.0</ele>
        <time>2021-12-28T15:57:18Z</time>
      </trkpt>
      <trkpt lat="37.4772480" lon="-4.4300380">
        <ele>498.8</ele>
        <time>2021-12-28T15:57:19Z</time>
      </trkpt>
      <trkpt lat="37.4772290" lon="-4.4300950">
        <ele>498.6</ele>
        <time>2021-12-28T15:57:20Z</time>
      </trkpt>
      <trkpt lat="37.4772100" lon="-4.4301500">
        <ele>498.4</ele>
        <time>2021-12-28T15:57:21Z</time>
      </trkpt>
      <trkpt lat="37.4771900" lon="-4.4302050">
        <ele>498.2</ele>
        <time>2021-12-28T15:57:22Z</time>
      </trkpt>
      <trkpt lat="37.4771780" lon="-4.4302600">
        <ele>498.0</ele>
        <time>2021-12-28T15:57:23Z</time>
      </trkpt>
      <trkpt lat="37.4771620" lon="-4.4303150">
        <ele>497.8</ele>
        <time>2021-12-28T15:57:24Z</time>
      </trkpt>
      <trkpt lat="37.4771460" lon="-4.4303650">
        <ele>497.6</ele>
        <time>2021-12-28T15:57:25Z</time>
      </trkpt>
      <trkpt lat="37.4771300" lon="-4.4304160">
        <ele>497.4</ele>
        <time>2021-12-28T15:57:26Z</time>
      </trkpt>
      <trkpt lat="37.4771170" lon="-4.4304680">
        <ele>497.2</ele>
        <time>2021-12-28T15:57:27Z</time>
      </trkpt>
      <trkpt lat="37.4770980" lon="-4.4305200">
        <ele>497.0</ele>
        <time>2021-12-28T15:57:28Z</time>
      </trkpt>
      <trkpt lat="37.4770820" lon="-4.4305740">
        <ele>496.8</ele>
        <time>2021-12-28T15:57:29Z</time>
      </trkpt>
      <trkpt lat="37.4770660" lon="-4.4306270">
        <ele>496.6</ele>
        <time>2021-12-28T15:57:30Z</time>
      </trkpt>
      <trkpt lat="37.4770560" lon="-4.4306780">
        <ele>496.6</ele>
        <time>2021-12-28T15:57:31Z</time>
      </trkpt>
      <trkpt lat="37.4770400" lon="-4.4307300">
        <ele>496.4</ele>
        <time>2021-12-28T15:57:32Z</time>
      </trkpt>
      <trkpt lat="37.4770270" lon="-4.4307830">
        <ele>496.2</ele>
        <time>2021-12-28T15:57:33Z</time>
      </trkpt>
      <trkpt lat="37.4770110" lon="-4.4308420">
        <ele>496.0</ele>
        <time>2021-12-28T15:57:34Z</time>
      </trkpt>
      <trkpt lat="37.4769980" lon="-4.4309070">
        <ele>495.8</ele>
        <time>2021-12-28T15:57:35Z</time>
      </trkpt>
      <trkpt lat="37.4769820" lon="-4.4309720">
        <ele>495.6</ele>
        <time>2021-12-28T15:57:36Z</time>
      </trkpt>
      <trkpt lat="37.4769660" lon="-4.4310400">
        <ele>495.4</ele>
        <time>2021-12-28T15:57:37Z</time>
      </trkpt>
      <trkpt lat="37.4769500" lon="-4.4311150">
        <ele>495.0</ele>
        <time>2021-12-28T15:57:38Z</time>
      </trkpt>
      <trkpt lat="37.4769380" lon="-4.4311950">
        <ele>494.8</ele>
        <time>2021-12-28T15:57:39Z</time>
      </trkpt>
      <trkpt lat="37.4769180" lon="-4.4312800">
        <ele>494.4</ele>
        <time>2021-12-28T15:57:40Z</time>
      </trkpt>
      <trkpt lat="37.4769020" lon="-4.4313580">
        <ele>494.2</ele>
        <time>2021-12-28T15:57:41Z</time>
      </trkpt>
      <trkpt lat="37.4768830" lon="-4.4314360">
        <ele>494.0</ele>
        <time>2021-12-28T15:57:42Z</time>
      </trkpt>
      <trkpt lat="37.4768640" lon="-4.4315200">
        <ele>493.6</ele>
        <time>2021-12-28T15:57:43Z</time>
      </trkpt>
      <trkpt lat="37.4768480" lon="-4.4315950">
        <ele>493.4</ele>
        <time>2021-12-28T15:57:44Z</time>
      </trkpt>
      <trkpt lat="37.4768380" lon="-4.4316640">
        <ele>493.2</ele>
        <time>2021-12-28T15:57:45Z</time>
      </trkpt>
      <trkpt lat="37.4768260" lon="-4.4317280">
        <ele>492.8</ele>
        <time>2021-12-28T15:57:46Z</time>
      </trkpt>
      <trkpt lat="37.4768100" lon="-4.4317950">
        <ele>492.6</ele>
        <time>2021-12-28T15:57:47Z</time>
      </trkpt>
      <trkpt lat="37.4768000" lon="-4.4318600">
        <ele>492.2</ele>
        <time>2021-12-28T15:57:48Z</time>
      </trkpt>
      <trkpt lat="37.4767840" lon="-4.4319300">
        <ele>492.0</ele>
        <time>2021-12-28T15:57:49Z</time>
      </trkpt>
      <trkpt lat="37.4767680" lon="-4.4320000">
        <ele>491.6</ele>
        <time>2021-12-28T15:57:50Z</time>
      </trkpt>
      <trkpt lat="37.4767520" lon="-4.4320720">
        <ele>491.2</ele>
        <time>2021-12-28T15:57:51Z</time>
      </trkpt>
      <trkpt lat="37.4767390" lon="-4.4321430">
        <ele>491.0</ele>
        <time>2021-12-28T15:57:52Z</time>
      </trkpt>
      <trkpt lat="37.4767230" lon="-4.4322150">
        <ele>490.6</ele>
        <time>2021-12-28T15:57:53Z</time>
      </trkpt>
      <trkpt lat="37.4767100" lon="-4.4322800">
        <ele>490.4</ele>
        <time>2021-12-28T15:57:54Z</time>
      </trkpt>
      <trkpt lat="37.4767010" lon="-4.4323470">
        <ele>490.0</ele>
        <time>2021-12-28T15:57:55Z</time>
      </trkpt>
      <trkpt lat="37.4766880" lon="-4.4324130">
        <ele>489.6</ele>
        <time>2021-12-28T15:57:56Z</time>
      </trkpt>
      <trkpt lat="37.4766720" lon="-4.4324830">
        <ele>489.2</ele>
        <time>2021-12-28T15:57:57Z</time>
      </trkpt>
      <trkpt lat="37.4766620" lon="-4.4325520">
        <ele>488.8</ele>
        <time>2021-12-28T15:57:58Z</time>
      </trkpt>
      <trkpt lat="37.4766460" lon="-4.4326230">
        <ele>488.6</ele>
        <time>2021-12-28T15:57:59Z</time>
      </trkpt>
      <trkpt lat="37.4766340" lon="-4.4326950">
        <ele>488.2</ele>
        <time>2021-12-28T15:58:00Z</time>
      </trkpt>
      <trkpt lat="37.4766240" lon="-4.4327650">
        <ele>487.8</ele>
        <time>2021-12-28T15:58:01Z</time>
      </trkpt>
      <trkpt lat="37.4766110" lon="-4.4328350">
        <ele>487.6</ele>
        <time>2021-12-28T15:58:02Z</time>
      </trkpt>
      <trkpt lat="37.4765980" lon="-4.4329050">
        <ele>487.4</ele>
        <time>2021-12-28T15:58:03Z</time>
      </trkpt>
      <trkpt lat="37.4765820" lon="-4.4329750">
        <ele>487.0</ele>
        <time>2021-12-28T15:58:04Z</time>
      </trkpt>
      <trkpt lat="37.4765700" lon="-4.4330440">
        <ele>486.8</ele>
        <time>2021-12-28T15:58:05Z</time>
      </trkpt>
      <trkpt lat="37.4765540" lon="-4.4331170">
        <ele>486.4</ele>
        <time>2021-12-28T15:58:06Z</time>
      </trkpt>
      <trkpt lat="37.4765410" lon="-4.4331930">
        <ele>486.0</ele>
        <time>2021-12-28T15:58:07Z</time>
      </trkpt>
      <trkpt lat="37.4765220" lon="-4.4332680">
        <ele>485.8</ele>
        <time>2021-12-28T15:58:08Z</time>
      </trkpt>
      <trkpt lat="37.4764990" lon="-4.4333420">
        <ele>485.4</ele>
        <time>2021-12-28T15:58:09Z</time>
      </trkpt>
      <trkpt lat="37.4764740" lon="-4.4334250">
        <ele>485.0</ele>
        <time>2021-12-28T15:58:10Z</time>
      </trkpt>
      <trkpt lat="37.4764540" lon="-4.4335030">
        <ele>484.8</ele>
        <time>2021-12-28T15:58:11Z</time>
      </trkpt>
      <trkpt lat="37.4764290" lon="-4.4335820">
        <ele>484.6</ele>
        <time>2021-12-28T15:58:12Z</time>
      </trkpt>
      <trkpt lat="37.4764060" lon="-4.4336620">
        <ele>484.2</ele>
        <time>2021-12-28T15:58:13Z</time>
      </trkpt>
      <trkpt lat="37.4763840" lon="-4.4337350">
        <ele>484.0</ele>
        <time>2021-12-28T15:58:14Z</time>
      </trkpt>
      <trkpt lat="37.4763620" lon="-4.4338040">
        <ele>483.8</ele>
        <time>2021-12-28T15:58:15Z</time>
      </trkpt>
      <trkpt lat="37.4763460" lon="-4.4338720">
        <ele>483.8</ele>
        <time>2021-12-28T15:58:16Z</time>
      </trkpt>
      <trkpt lat="37.4763170" lon="-4.4339450">
        <ele>483.6</ele>
        <time>2021-12-28T15:58:17Z</time>
      </trkpt>
      <trkpt lat="37.4763010" lon="-4.4340180">
        <ele>483.4</ele>
        <time>2021-12-28T15:58:18Z</time>
      </trkpt>
      <trkpt lat="37.4762850" lon="-4.4340970">
        <ele>483.2</ele>
        <time>2021-12-28T15:58:19Z</time>
      </trkpt>
      <trkpt lat="37.4762620" lon="-4.4341740">
        <ele>483.0</ele>
        <time>2021-12-28T15:58:20Z</time>
      </trkpt>
      <trkpt lat="37.4762430" lon="-4.4342520">
        <ele>483.0</ele>
        <time>2021-12-28T15:58:21Z</time>
      </trkpt>
      <trkpt lat="37.4762270" lon="-4.4343230">
        <ele>483.0</ele>
        <time>2021-12-28T15:58:22Z</time>
      </trkpt>
      <trkpt lat="37.4762110" lon="-4.4343970">
        <ele>482.8</ele>
        <time>2021-12-28T15:58:23Z</time>
      </trkpt>
      <trkpt lat="37.4761890" lon="-4.4344680">
        <ele>482.6</ele>
        <time>2021-12-28T15:58:24Z</time>
      </trkpt>
      <trkpt lat="37.4761730" lon="-4.4345450">
        <ele>482.6</ele>
        <time>2021-12-28T15:58:25Z</time>
      </trkpt>
      <trkpt lat="37.4761500" lon="-4.4346100">
        <ele>482.4</ele>
        <time>2021-12-28T15:58:26Z</time>
      </trkpt>
      <trkpt lat="37.4761280" lon="-4.4346830">
        <ele>482.2</ele>
        <time>2021-12-28T15:58:27Z</time>
      </trkpt>
      <trkpt lat="37.4761280" lon="-4.4347650">
        <ele>482.0</ele>
        <time>2021-12-28T15:58:28Z</time>
      </trkpt>
      <trkpt lat="37.4761280" lon="-4.4348480">
        <ele>481.8</ele>
        <time>2021-12-28T15:58:29Z</time>
      </trkpt>
      <trkpt lat="37.4761180" lon="-4.4349350">
        <ele>481.6</ele>
        <time>2021-12-28T15:58:30Z</time>
      </trkpt>
      <trkpt lat="37.4761060" lon="-4.4350130">
        <ele>481.4</ele>
        <time>2021-12-28T15:58:31Z</time>
      </trkpt>
      <trkpt lat="37.4760900" lon="-4.4350940">
        <ele>481.0</ele>
        <time>2021-12-28T15:58:32Z</time>
      </trkpt>
      <trkpt lat="37.4760740" lon="-4.4351750">
        <ele>480.8</ele>
        <time>2021-12-28T15:58:33Z</time>
      </trkpt>
      <trkpt lat="37.4760580" lon="-4.4352620">
        <ele>480.6</ele>
        <time>2021-12-28T15:58:34Z</time>
      </trkpt>
      <trkpt lat="37.4760450" lon="-4.4353470">
        <ele>480.2</ele>
        <time>2021-12-28T15:58:35Z</time>
      </trkpt>
      <trkpt lat="37.4760290" lon="-4.4354300">
        <ele>480.0</ele>
        <time>2021-12-28T15:58:36Z</time>
      </trkpt>
      <trkpt lat="37.4760060" lon="-4.4355120">
        <ele>479.8</ele>
        <time>2021-12-28T15:58:37Z</time>
      </trkpt>
      <trkpt lat="37.4759840" lon="-4.4355920">
        <ele>479.4</ele>
        <time>2021-12-28T15:58:38Z</time>
      </trkpt>
      <trkpt lat="37.4759650" lon="-4.4356820">
        <ele>479.2</ele>
        <time>2021-12-28T15:58:39Z</time>
      </trkpt>
      <trkpt lat="37.4759460" lon="-4.4357670">
        <ele>479.0</ele>
        <time>2021-12-28T15:58:40Z</time>
      </trkpt>
      <trkpt lat="37.4759230" lon="-4.4358480">
        <ele>478.6</ele>
        <time>2021-12-28T15:58:41Z</time>
      </trkpt>
      <trkpt lat="37.4759040" lon="-4.4359280">
        <ele>478.4</ele>
        <time>2021-12-28T15:58:42Z</time>
      </trkpt>
      <trkpt lat="37.4758850" lon="-4.4360050">
        <ele>478.2</ele>
        <time>2021-12-28T15:58:43Z</time>
      </trkpt>
      <trkpt lat="37.4758660" lon="-4.4360850">
        <ele>478.0</ele>
        <time>2021-12-28T15:58:44Z</time>
      </trkpt>
      <trkpt lat="37.4758460" lon="-4.4361640">
        <ele>477.8</ele>
        <time>2021-12-28T15:58:45Z</time>
      </trkpt>
      <trkpt lat="37.4758240" lon="-4.4362420">
        <ele>477.4</ele>
        <time>2021-12-28T15:58:46Z</time>
      </trkpt>
      <trkpt lat="37.4757980" lon="-4.4363230">
        <ele>477.2</ele>
        <time>2021-12-28T15:58:47Z</time>
      </trkpt>
      <trkpt lat="37.4757730" lon="-4.4364080">
        <ele>477.0</ele>
        <time>2021-12-28T15:58:48Z</time>
      </trkpt>
      <trkpt lat="37.4757500" lon="-4.4364900">
        <ele>476.6</ele>
        <time>2021-12-28T15:58:49Z</time>
      </trkpt>
      <trkpt lat="37.4757250" lon="-4.4365740">
        <ele>476.4</ele>
        <time>2021-12-28T15:58:50Z</time>
      </trkpt>
      <trkpt lat="37.4756990" lon="-4.4366560">
        <ele>476.0</ele>
        <time>2021-12-28T15:58:51Z</time>
      </trkpt>
      <trkpt lat="37.4756740" lon="-4.4367400">
        <ele>475.8</ele>
        <time>2021-12-28T15:58:52Z</time>
      </trkpt>
      <trkpt lat="37.4756480" lon="-4.4368250">
        <ele>475.4</ele>
        <time>2021-12-28T15:58:53Z</time>
      </trkpt>
      <trkpt lat="37.4756320" lon="-4.4369070">
        <ele>475.2</ele>
        <time>2021-12-28T15:58:54Z</time>
      </trkpt>
      <trkpt lat="37.4756060" lon="-4.4369920">
        <ele>475.0</ele>
        <time>2021-12-28T15:58:55Z</time>
      </trkpt>
      <trkpt lat="37.4755870" lon="-4.4370760">
        <ele>474.8</ele>
        <time>2021-12-28T15:58:56Z</time>
      </trkpt>
      <trkpt lat="37.4755680" lon="-4.4371580">
        <ele>474.6</ele>
        <time>2021-12-28T15:58:57Z</time>
      </trkpt>
      <trkpt lat="37.4755420" lon="-4.4372420">
        <ele>474.4</ele>
        <time>2021-12-28T15:58:58Z</time>
      </trkpt>
      <trkpt lat="37.4755200" lon="-4.4373220">
        <ele>474.2</ele>
        <time>2021-12-28T15:58:59Z</time>
      </trkpt>
      <trkpt lat="37.4754910" lon="-4.4374000">
        <ele>473.8</ele>
        <time>2021-12-28T15:59:00Z</time>
      </trkpt>
      <trkpt lat="37.4754590" lon="-4.4374880">
        <ele>473.6</ele>
        <time>2021-12-28T15:59:01Z</time>
      </trkpt>
      <trkpt lat="37.4754370" lon="-4.4375750">
        <ele>473.4</ele>
        <time>2021-12-28T15:59:02Z</time>
      </trkpt>
      <trkpt lat="37.4754180" lon="-4.4376570">
        <ele>473.2</ele>
        <time>2021-12-28T15:59:03Z</time>
      </trkpt>
      <trkpt lat="37.4753950" lon="-4.4377380">
        <ele>472.8</ele>
        <time>2021-12-28T15:59:04Z</time>
      </trkpt>
      <trkpt lat="37.4753790" lon="-4.4378180">
        <ele>472.6</ele>
        <time>2021-12-28T15:59:05Z</time>
      </trkpt>
      <trkpt lat="37.4753570" lon="-4.4378970">
        <ele>472.2</ele>
        <time>2021-12-28T15:59:06Z</time>
      </trkpt>
      <trkpt lat="37.4753380" lon="-4.4379770">
        <ele>472.0</ele>
        <time>2021-12-28T15:59:07Z</time>
      </trkpt>
      <trkpt lat="37.4753150" lon="-4.4380580">
        <ele>471.6</ele>
        <time>2021-12-28T15:59:08Z</time>
      </trkpt>
      <trkpt lat="37.4752930" lon="-4.4381380">
        <ele>471.4</ele>
        <time>2021-12-28T15:59:09Z</time>
      </trkpt>
      <trkpt lat="37.4752700" lon="-4.4382180">
        <ele>471.2</ele>
        <time>2021-12-28T15:59:10Z</time>
      </trkpt>
      <trkpt lat="37.4752510" lon="-4.4382980">
        <ele>471.0</ele>
        <time>2021-12-28T15:59:11Z</time>
      </trkpt>
      <trkpt lat="37.4752220" lon="-4.4383760">
        <ele>470.8</ele>
        <time>2021-12-28T15:59:12Z</time>
      </trkpt>
      <trkpt lat="37.4752030" lon="-4.4384550">
        <ele>470.8</ele>
        <time>2021-12-28T15:59:13Z</time>
      </trkpt>
      <trkpt lat="37.4751780" lon="-4.4385320">
        <ele>470.6</ele>
        <time>2021-12-28T15:59:14Z</time>
      </trkpt>
      <trkpt lat="37.4751550" lon="-4.4386100">
        <ele>470.4</ele>
        <time>2021-12-28T15:59:15Z</time>
      </trkpt>
      <trkpt lat="37.4751390" lon="-4.4386850">
        <ele>470.4</ele>
        <time>2021-12-28T15:59:16Z</time>
      </trkpt>
      <trkpt lat="37.4751170" lon="-4.4387620">
        <ele>470.2</ele>
        <time>2021-12-28T15:59:17Z</time>
      </trkpt>
      <trkpt lat="37.4750820" lon="-4.4388420">
        <ele>470.0</ele>
        <time>2021-12-28T15:59:18Z</time>
      </trkpt>
      <trkpt lat="37.4750530" lon="-4.4389220">
        <ele>469.8</ele>
        <time>2021-12-28T15:59:19Z</time>
      </trkpt>
      <trkpt lat="37.4750240" lon="-4.4390000">
        <ele>469.6</ele>
        <time>2021-12-28T15:59:20Z</time>
      </trkpt>
      <trkpt lat="37.4749980" lon="-4.4390780">
        <ele>469.4</ele>
        <time>2021-12-28T15:59:21Z</time>
      </trkpt>
      <trkpt lat="37.4749790" lon="-4.4391530">
        <ele>469.4</ele>
        <time>2021-12-28T15:59:22Z</time>
      </trkpt>
      <trkpt lat="37.4749570" lon="-4.4392250">
        <ele>469.2</ele>
        <time>2021-12-28T15:59:23Z</time>
      </trkpt>
      <trkpt lat="37.4749340" lon="-4.4392930">
        <ele>469.2</ele>
        <time>2021-12-28T15:59:24Z</time>
      </trkpt>
      <trkpt lat="37.4749120" lon="-4.4393600">
        <ele>469.2</ele>
        <time>2021-12-28T15:59:25Z</time>
      </trkpt>
      <trkpt lat="37.4748800" lon="-4.4394250">
        <ele>469.2</ele>
        <time>2021-12-28T15:59:26Z</time>
      </trkpt>
      <trkpt lat="37.4748580" lon="-4.4394860">
        <ele>469.2</ele>
        <time>2021-12-28T15:59:27Z</time>
      </trkpt>
      <trkpt lat="37.4748350" lon="-4.4395460">
        <ele>469.2</ele>
        <time>2021-12-28T15:59:28Z</time>
      </trkpt>
      <trkpt lat="37.4748130" lon="-4.4396020">
        <ele>469.2</ele>
        <time>2021-12-28T15:59:29Z</time>
      </trkpt>
      <trkpt lat="37.4747840" lon="-4.4396620">
        <ele>469.4</ele>
        <time>2021-12-28T15:59:30Z</time>
      </trkpt>
      <trkpt lat="37.4747620" lon="-4.4397180">
        <ele>469.4</ele>
        <time>2021-12-28T15:59:31Z</time>
      </trkpt>
      <trkpt lat="37.4747390" lon="-4.4397800">
        <ele>469.4</ele>
        <time>2021-12-28T15:59:32Z</time>
      </trkpt>
      <trkpt lat="37.4747200" lon="-4.4398450">
        <ele>469.6</ele>
        <time>2021-12-28T15:59:33Z</time>
      </trkpt>
      <trkpt lat="37.4746980" lon="-4.4399080">
        <ele>469.8</ele>
        <time>2021-12-28T15:59:34Z</time>
      </trkpt>
      <trkpt lat="37.4746780" lon="-4.4399750">
        <ele>469.8</ele>
        <time>2021-12-28T15:59:35Z</time>
      </trkpt>
      <trkpt lat="37.4746590" lon="-4.4400270">
        <ele>469.6</ele>
        <time>2021-12-28T15:59:36Z</time>
      </trkpt>
      <trkpt lat="37.4746460" lon="-4.4400780">
        <ele>469.6</ele>
        <time>2021-12-28T15:59:37Z</time>
      </trkpt>
      <trkpt lat="37.4746370" lon="-4.4401250">
        <ele>469.6</ele>
        <time>2021-12-28T15:59:38Z</time>
      </trkpt>
      <trkpt lat="37.4746240" lon="-4.4401620">
        <ele>469.6</ele>
        <time>2021-12-28T15:59:39Z</time>
      </trkpt>
      <trkpt lat="37.4746180" lon="-4.4401900">
        <ele>469.4</ele>
        <time>2021-12-28T15:59:40Z</time>
      </trkpt>
      <trkpt lat="37.4746080" lon="-4.4402200">
        <ele>469.4</ele>
        <time>2021-12-28T15:59:41Z</time>
      </trkpt>
      <trkpt lat="37.4746020" lon="-4.4402500">
        <ele>469.2</ele>
        <time>2021-12-28T15:59:42Z</time>
      </trkpt>
      <trkpt lat="37.4745950" lon="-4.4402770">
        <ele>469.2</ele>
        <time>2021-12-28T15:59:43Z</time>
      </trkpt>
      <trkpt lat="37.4745860" lon="-4.4403020">
        <ele>469.0</ele>
        <time>2021-12-28T15:59:44Z</time>
      </trkpt>
      <trkpt lat="37.4745790" lon="-4.4403230">
        <ele>469.0</ele>
        <time>2021-12-28T15:59:45Z</time>
      </trkpt>
      <trkpt lat="37.4745760" lon="-4.4403480">
        <ele>469.0</ele>
        <time>2021-12-28T15:59:46Z</time>
      </trkpt>
      <trkpt lat="37.4745820" lon="-4.4403720">
        <ele>469.0</ele>
        <time>2021-12-28T15:59:47Z</time>
      </trkpt>
      <trkpt lat="37.4745820" lon="-4.4403720">
        <ele>469.0</ele>
        <time>2021-12-28T15:59:48Z</time>
      </trkpt>
      <trkpt lat="37.4746020" lon="-4.4404000">
        <ele>468.8</ele>
        <time>2021-12-28T15:59:49Z</time>
      </trkpt>
      <trkpt lat="37.4746020" lon="-4.4404000">
        <ele>468.6</ele>
        <time>2021-12-28T15:59:50Z</time>
      </trkpt>
      <trkpt lat="37.4746020" lon="-4.4404000">
        <ele>468.4</ele>
        <time>2021-12-28T15:59:51Z</time>
      </trkpt>
      <trkpt lat="37.4746020" lon="-4.4404000">
        <ele>468.4</ele>
        <time>2021-12-28T15:59:52Z</time>
      </trkpt>
      <trkpt lat="37.4746020" lon="-4.4404000">
        <ele>468.2</ele>
        <time>2021-12-28T15:59:53Z</time>
      </trkpt>
      <trkpt lat="37.4746020" lon="-4.4404000">
        <ele>468.2</ele>
        <time>2021-12-28T15:59:54Z</time>
      </trkpt>
      <trkpt lat="37.4747330" lon="-4.4404670">
        <ele>467.4</ele>
        <time>2021-12-28T16:00:26Z</time>
      </trkpt>
      <trkpt lat="37.4747680" lon="-4.4404830">
        <ele>467.4</ele>
        <time>2021-12-28T16:00:27Z</time>
      </trkpt>
      <trkpt lat="37.4748060" lon="-4.4405020">
        <ele>467.6</ele>
        <time>2021-12-28T16:00:28Z</time>
      </trkpt>
      <trkpt lat="37.4748510" lon="-4.4405220">
        <ele>467.6</ele>
        <time>2021-12-28T16:00:29Z</time>
      </trkpt>
      <trkpt lat="37.4748930" lon="-4.4405350">
        <ele>467.4</ele>
        <time>2021-12-28T16:00:30Z</time>
      </trkpt>
      <trkpt lat="37.4749310" lon="-4.4405460">
        <ele>467.4</ele>
        <time>2021-12-28T16:00:31Z</time>
      </trkpt>
      <trkpt lat="37.4749570" lon="-4.4405520">
        <ele>467.4</ele>
        <time>2021-12-28T16:00:32Z</time>
      </trkpt>
      <trkpt lat="37.4749920" lon="-4.4405600">
        <ele>467.4</ele>
        <time>2021-12-28T16:00:33Z</time>
      </trkpt>
      <trkpt lat="37.4750340" lon="-4.4405760">
        <ele>467.4</ele>
        <time>2021-12-28T16:00:34Z</time>
      </trkpt>
      <trkpt lat="37.4750780" lon="-4.4405880">
        <ele>467.2</ele>
        <time>2021-12-28T16:00:35Z</time>
      </trkpt>
      <trkpt lat="37.4751300" lon="-4.4405930">
        <ele>467.2</ele>
        <time>2021-12-28T16:00:36Z</time>
      </trkpt>
      <trkpt lat="37.4751740" lon="-4.4406080">
        <ele>467.0</ele>
        <time>2021-12-28T16:00:37Z</time>
      </trkpt>
      <trkpt lat="37.4752220" lon="-4.4406250">
        <ele>467.0</ele>
        <time>2021-12-28T16:00:38Z</time>
      </trkpt>
      <trkpt lat="37.4752700" lon="-4.4406420">
        <ele>466.8</ele>
        <time>2021-12-28T16:00:39Z</time>
      </trkpt>
      <trkpt lat="37.4753120" lon="-4.4406550">
        <ele>466.6</ele>
        <time>2021-12-28T16:00:40Z</time>
      </trkpt>
      <trkpt lat="37.4753540" lon="-4.4406700">
        <ele>466.6</ele>
        <time>2021-12-28T16:00:41Z</time>
      </trkpt>
      <trkpt lat="37.4753980" lon="-4.4406830">
        <ele>466.4</ele>
        <time>2021-12-28T16:00:42Z</time>
      </trkpt>
      <trkpt lat="37.4754430" lon="-4.4407030">
        <ele>466.2</ele>
        <time>2021-12-28T16:00:43Z</time>
      </trkpt>
      <trkpt lat="37.4754820" lon="-4.4407300">
        <ele>466.0</ele>
        <time>2021-12-28T16:00:44Z</time>
      </trkpt>
      <trkpt lat="37.4755260" lon="-4.4407420">
        <ele>465.8</ele>
        <time>2021-12-28T16:00:45Z</time>
      </trkpt>
      <trkpt lat="37.4755680" lon="-4.4407550">
        <ele>465.6</ele>
        <time>2021-12-28T16:00:46Z</time>
      </trkpt>
      <trkpt lat="37.4756060" lon="-4.4407700">
        <ele>465.4</ele>
        <time>2021-12-28T16:00:47Z</time>
      </trkpt>
      <trkpt lat="37.4756480" lon="-4.4407820">
        <ele>465.0</ele>
        <time>2021-12-28T16:00:48Z</time>
      </trkpt>
      <trkpt lat="37.4756860" lon="-4.4408000">
        <ele>464.8</ele>
        <time>2021-12-28T16:00:49Z</time>
      </trkpt>
      <trkpt lat="37.4757180" lon="-4.4408200">
        <ele>464.6</ele>
        <time>2021-12-28T16:00:50Z</time>
      </trkpt>
      <trkpt lat="37.4757540" lon="-4.4408380">
        <ele>464.4</ele>
        <time>2021-12-28T16:00:51Z</time>
      </trkpt>
      <trkpt lat="37.4757920" lon="-4.4408620">
        <ele>464.2</ele>
        <time>2021-12-28T16:00:52Z</time>
      </trkpt>
      <trkpt lat="37.4758300" lon="-4.4408720">
        <ele>464.2</ele>
        <time>2021-12-28T16:00:53Z</time>
      </trkpt>
      <trkpt lat="37.4758690" lon="-4.4408780">
        <ele>464.0</ele>
        <time>2021-12-28T16:00:54Z</time>
      </trkpt>
      <trkpt lat="37.4759100" lon="-4.4408820">
        <ele>464.0</ele>
        <time>2021-12-28T16:00:55Z</time>
      </trkpt>
      <trkpt lat="37.4759520" lon="-4.4408950">
        <ele>464.0</ele>
        <time>2021-12-28T16:00:56Z</time>
      </trkpt>
      <trkpt lat="37.4759940" lon="-4.4409130">
        <ele>464.0</ele>
        <time>2021-12-28T16:00:57Z</time>
      </trkpt>
      <trkpt lat="37.4760380" lon="-4.4409420">
        <ele>464.0</ele>
        <time>2021-12-28T16:00:58Z</time>
      </trkpt>
      <trkpt lat="37.4760900" lon="-4.4409560">
        <ele>463.8</ele>
        <time>2021-12-28T16:00:59Z</time>
      </trkpt>
      <trkpt lat="37.4761310" lon="-4.4409770">
        <ele>463.8</ele>
        <time>2021-12-28T16:01:00Z</time>
      </trkpt>
      <trkpt lat="37.4761700" lon="-4.4409850">
        <ele>463.8</ele>
        <time>2021-12-28T16:01:01Z</time>
      </trkpt>
      <trkpt lat="37.4762140" lon="-4.4410030">
        <ele>464.0</ele>
        <time>2021-12-28T16:01:02Z</time>
      </trkpt>
      <trkpt lat="37.4762620" lon="-4.4410200">
        <ele>464.0</ele>
        <time>2021-12-28T16:01:03Z</time>
      </trkpt>
      <trkpt lat="37.4763100" lon="-4.4410350">
        <ele>464.0</ele>
        <time>2021-12-28T16:01:04Z</time>
      </trkpt>
      <trkpt lat="37.4763520" lon="-4.4410500">
        <ele>464.0</ele>
        <time>2021-12-28T16:01:05Z</time>
      </trkpt>
      <trkpt lat="37.4764000" lon="-4.4410670">
        <ele>464.0</ele>
        <time>2021-12-28T16:01:06Z</time>
      </trkpt>
      <trkpt lat="37.4764350" lon="-4.4410850">
        <ele>464.0</ele>
        <time>2021-12-28T16:01:07Z</time>
      </trkpt>
      <trkpt lat="37.4764800" lon="-4.4411180">
        <ele>464.0</ele>
        <time>2021-12-28T16:01:08Z</time>
      </trkpt>
      <trkpt lat="37.4765120" lon="-4.4411340">
        <ele>464.0</ele>
        <time>2021-12-28T16:01:09Z</time>
      </trkpt>
      <trkpt lat="37.4765440" lon="-4.4411550">
        <ele>464.0</ele>
        <time>2021-12-28T16:01:10Z</time>
      </trkpt>
      <trkpt lat="37.4765820" lon="-4.4411700">
        <ele>463.8</ele>
        <time>2021-12-28T16:01:11Z</time>
      </trkpt>
      <trkpt lat="37.4766140" lon="-4.4411800">
        <ele>463.8</ele>
        <time>2021-12-28T16:01:12Z</time>
      </trkpt>
      <trkpt lat="37.4766590" lon="-4.4412000">
        <ele>463.8</ele>
        <time>2021-12-28T16:01:13Z</time>
      </trkpt>
      <trkpt lat="37.4767010" lon="-4.4412180">
        <ele>463.6</ele>
        <time>2021-12-28T16:01:14Z</time>
      </trkpt>
      <trkpt lat="37.4767300" lon="-4.4412450">
        <ele>463.4</ele>
        <time>2021-12-28T16:01:15Z</time>
      </trkpt>
      <trkpt lat="37.4767490" lon="-4.4412830">
        <ele>463.4</ele>
        <time>2021-12-28T16:01:16Z</time>
      </trkpt>
      <trkpt lat="37.4767460" lon="-4.4413280">
        <ele>463.2</ele>
        <time>2021-12-28T16:01:17Z</time>
      </trkpt>
      <trkpt lat="37.4767490" lon="-4.4413680">
        <ele>463.2</ele>
        <time>2021-12-28T16:01:18Z</time>
      </trkpt>
      <trkpt lat="37.4767420" lon="-4.4414070">
        <ele>463.0</ele>
        <time>2021-12-28T16:01:19Z</time>
      </trkpt>
      <trkpt lat="37.4767260" lon="-4.4414480">
        <ele>463.0</ele>
        <time>2021-12-28T16:01:20Z</time>
      </trkpt>
      <trkpt lat="37.4767010" lon="-4.4414980">
        <ele>462.8</ele>
        <time>2021-12-28T16:01:21Z</time>
      </trkpt>
      <trkpt lat="37.4766780" lon="-4.4415400">
        <ele>462.8</ele>
        <time>2021-12-28T16:01:22Z</time>
      </trkpt>
      <trkpt lat="37.4766530" lon="-4.4415760">
        <ele>462.6</ele>
        <time>2021-12-28T16:01:23Z</time>
      </trkpt>
      <trkpt lat="37.4766270" lon="-4.4416160">
        <ele>462.6</ele>
        <time>2021-12-28T16:01:24Z</time>
      </trkpt>
      <trkpt lat="37.4765980" lon="-4.4416550">
        <ele>462.4</ele>
        <time>2021-12-28T16:01:25Z</time>
      </trkpt>
      <trkpt lat="37.4765700" lon="-4.4416880">
        <ele>462.2</ele>
        <time>2021-12-28T16:01:26Z</time>
      </trkpt>
      <trkpt lat="37.4765470" lon="-4.4417200">
        <ele>462.0</ele>
        <time>2021-12-28T16:01:27Z</time>
      </trkpt>
      <trkpt lat="37.4765060" lon="-4.4417580">
        <ele>461.8</ele>
        <time>2021-12-28T16:01:28Z</time>
      </trkpt>
      <trkpt lat="37.4764700" lon="-4.4417950">
        <ele>461.6</ele>
        <time>2021-12-28T16:01:29Z</time>
      </trkpt>
      <trkpt lat="37.4764350" lon="-4.4418370">
        <ele>461.4</ele>
        <time>2021-12-28T16:01:30Z</time>
      </trkpt>
      <trkpt lat="37.4764000" lon="-4.4418720">
        <ele>461.4</ele>
        <time>2021-12-28T16:01:31Z</time>
      </trkpt>
      <trkpt lat="37.4763550" lon="-4.4419200">
        <ele>461.2</ele>
        <time>2021-12-28T16:01:32Z</time>
      </trkpt>
      <trkpt lat="37.4763260" lon="-4.4419620">
        <ele>461.2</ele>
        <time>2021-12-28T16:01:33Z</time>
      </trkpt>
      <trkpt lat="37.4762940" lon="-4.4420000">
        <ele>461.0</ele>
        <time>2021-12-28T16:01:34Z</time>
      </trkpt>
      <trkpt lat="37.4762750" lon="-4.4420380">
        <ele>460.8</ele>
        <time>2021-12-28T16:01:35Z</time>
      </trkpt>
      <trkpt lat="37.4762690" lon="-4.4420700">
        <ele>460.8</ele>
        <time>2021-12-28T16:01:36Z</time>
      </trkpt>
      <trkpt lat="37.4762720" lon="-4.4421120">
        <ele>460.6</ele>
        <time>2021-12-28T16:01:37Z</time>
      </trkpt>
      <trkpt lat="37.4762910" lon="-4.4421500">
        <ele>460.4</ele>
        <time>2021-12-28T16:01:38Z</time>
      </trkpt>
      <trkpt lat="37.4763040" lon="-4.4421820">
        <ele>460.2</ele>
        <time>2021-12-28T16:01:39Z</time>
      </trkpt>
      <trkpt lat="37.4763330" lon="-4.4422140">
        <ele>460.0</ele>
        <time>2021-12-28T16:01:40Z</time>
      </trkpt>
      <trkpt lat="37.4763490" lon="-4.4422440">
        <ele>459.8</ele>
        <time>2021-12-28T16:01:41Z</time>
      </trkpt>
      <trkpt lat="37.4763620" lon="-4.4422660">
        <ele>459.6</ele>
        <time>2021-12-28T16:01:42Z</time>
      </trkpt>
      <trkpt lat="37.4763550" lon="-4.4422960">
        <ele>459.4</ele>
        <time>2021-12-28T16:01:43Z</time>
      </trkpt>
      <trkpt lat="37.4763460" lon="-4.4423220">
        <ele>459.2</ele>
        <time>2021-12-28T16:01:44Z</time>
      </trkpt>
      <trkpt lat="37.4763260" lon="-4.4423350">
        <ele>459.2</ele>
        <time>2021-12-28T16:01:45Z</time>
      </trkpt>
      <trkpt lat="37.4763010" lon="-4.4423650">
        <ele>459.0</ele>
        <time>2021-12-28T16:01:46Z</time>
      </trkpt>
      <trkpt lat="37.4762720" lon="-4.4423950">
        <ele>459.0</ele>
        <time>2021-12-28T16:01:47Z</time>
      </trkpt>
      <trkpt lat="37.4762460" lon="-4.4424200">
        <ele>458.8</ele>
        <time>2021-12-28T16:01:48Z</time>
      </trkpt>
      <trkpt lat="37.4762180" lon="-4.4424480">
        <ele>458.8</ele>
        <time>2021-12-28T16:01:49Z</time>
      </trkpt>
      <trkpt lat="37.4761950" lon="-4.4424840">
        <ele>458.6</ele>
        <time>2021-12-28T16:01:50Z</time>
      </trkpt>
      <trkpt lat="37.4761730" lon="-4.4425080">
        <ele>458.4</ele>
        <time>2021-12-28T16:01:51Z</time>
      </trkpt>
      <trkpt lat="37.4761470" lon="-4.4425480">
        <ele>458.2</ele>
        <time>2021-12-28T16:01:52Z</time>
      </trkpt>
      <trkpt lat="37.4761150" lon="-4.4425880">
        <ele>458.2</ele>
        <time>2021-12-28T16:01:53Z</time>
      </trkpt>
      <trkpt lat="37.4760900" lon="-4.4426250">
        <ele>458.0</ele>
        <time>2021-12-28T16:01:54Z</time>
      </trkpt>
      <trkpt lat="37.4760700" lon="-4.4426500">
        <ele>457.8</ele>
        <time>2021-12-28T16:01:55Z</time>
      </trkpt>
      <trkpt lat="37.4760540" lon="-4.4426620">
        <ele>457.6</ele>
        <time>2021-12-28T16:01:56Z</time>
      </trkpt>
      <trkpt lat="37.4760380" lon="-4.4426750">
        <ele>457.4</ele>
        <time>2021-12-28T16:01:57Z</time>
      </trkpt>
      <trkpt lat="37.4760380" lon="-4.4426750">
        <ele>457.4</ele>
        <time>2021-12-28T16:01:58Z</time>
      </trkpt>
      <trkpt lat="37.4760380" lon="-4.4426750">
        <ele>457.2</ele>
        <time>2021-12-28T16:01:59Z</time>
      </trkpt>
      <trkpt lat="37.4760380" lon="-4.4426750">
        <ele>457.0</ele>
        <time>2021-12-28T16:02:00Z</time>
      </trkpt>
      <trkpt lat="37.4760380" lon="-4.4426750">
        <ele>456.8</ele>
        <time>2021-12-28T16:02:01Z</time>
      </trkpt>
      <trkpt lat="37.4760380" lon="-4.4426750">
        <ele>456.8</ele>
        <time>2021-12-28T16:02:02Z</time>
      </trkpt>
      <trkpt lat="37.4760100" lon="-4.4427770">
        <ele>451.2</ele>
        <time>2021-12-28T16:08:43Z</time>
      </trkpt>
      <trkpt lat="37.4759940" lon="-4.4427880">
        <ele>451.2</ele>
        <time>2021-12-28T16:08:44Z</time>
      </trkpt>
      <trkpt lat="37.4759940" lon="-4.4427880">
        <ele>451.0</ele>
        <time>2021-12-28T16:08:45Z</time>
      </trkpt>
      <trkpt lat="37.4759710" lon="-4.4428150">
        <ele>451.0</ele>
        <time>2021-12-28T16:08:46Z</time>
      </trkpt>
      <trkpt lat="37.4759710" lon="-4.4428150">
        <ele>451.0</ele>
        <time>2021-12-28T16:08:47Z</time>
      </trkpt>
      <trkpt lat="37.4759520" lon="-4.4428450">
        <ele>451.0</ele>
        <time>2021-12-28T16:08:48Z</time>
      </trkpt>
      <trkpt lat="37.4759390" lon="-4.4428620">
        <ele>451.0</ele>
        <time>2021-12-28T16:08:49Z</time>
      </trkpt>
      <trkpt lat="37.4759390" lon="-4.4428620">
        <ele>451.0</ele>
        <time>2021-12-28T16:08:50Z</time>
      </trkpt>
      <trkpt lat="37.4759100" lon="-4.4428920">
        <ele>451.0</ele>
        <time>2021-12-28T16:08:51Z</time>
      </trkpt>
      <trkpt lat="37.4759100" lon="-4.4428920">
        <ele>450.8</ele>
        <time>2021-12-28T16:08:52Z</time>
      </trkpt>
      <trkpt lat="37.4758880" lon="-4.4429150">
        <ele>450.8</ele>
        <time>2021-12-28T16:08:53Z</time>
      </trkpt>
      <trkpt lat="37.4758880" lon="-4.4429150">
        <ele>450.6</ele>
        <time>2021-12-28T16:08:54Z</time>
      </trkpt>
      <trkpt lat="37.4758690" lon="-4.4429440">
        <ele>450.6</ele>
        <time>2021-12-28T16:08:55Z</time>
      </trkpt>
      <trkpt lat="37.4758690" lon="-4.4429440">
        <ele>450.4</ele>
        <time>2021-12-28T16:08:56Z</time>
      </trkpt>
      <trkpt lat="37.4758530" lon="-4.4429680">
        <ele>450.4</ele>
        <time>2021-12-28T16:08:57Z</time>
      </trkpt>
      <trkpt lat="37.4758530" lon="-4.4429680">
        <ele>450.2</ele>
        <time>2021-12-28T16:08:58Z</time>
      </trkpt>
      <trkpt lat="37.4758370" lon="-4.4430000">
        <ele>450.2</ele>
        <time>2021-12-28T16:08:59Z</time>
      </trkpt>
      <trkpt lat="37.4758370" lon="-4.4430000">
        <ele>450.0</ele>
        <time>2021-12-28T16:09:00Z</time>
      </trkpt>
      <trkpt lat="37.4758240" lon="-4.4430300">
        <ele>450.0</ele>
        <time>2021-12-28T16:09:01Z</time>
      </trkpt>
      <trkpt lat="37.4758240" lon="-4.4430300">
        <ele>449.8</ele>
        <time>2021-12-28T16:09:02Z</time>
      </trkpt>
      <trkpt lat="37.4758080" lon="-4.4430700">
        <ele>449.6</ele>
        <time>2021-12-28T16:09:03Z</time>
      </trkpt>
      <trkpt lat="37.4757950" lon="-4.4430920">
        <ele>449.6</ele>
        <time>2021-12-28T16:09:04Z</time>
      </trkpt>
      <trkpt lat="37.4757950" lon="-4.4430920">
        <ele>449.6</ele>
        <time>2021-12-28T16:09:05Z</time>
      </trkpt>
      <trkpt lat="37.4757890" lon="-4.4431270">
        <ele>449.6</ele>
        <time>2021-12-28T16:09:06Z</time>
      </trkpt>
      <trkpt lat="37.4757890" lon="-4.4431270">
        <ele>449.6</ele>
        <time>2021-12-28T16:09:07Z</time>
      </trkpt>
      <trkpt lat="37.4757890" lon="-4.4431650">
        <ele>449.4</ele>
        <time>2021-12-28T16:09:08Z</time>
      </trkpt>
      <trkpt lat="37.4757790" lon="-4.4431850">
        <ele>449.4</ele>
        <time>2021-12-28T16:09:09Z</time>
      </trkpt>
      <trkpt lat="37.4757790" lon="-4.4431850">
        <ele>449.2</ele>
        <time>2021-12-28T16:09:10Z</time>
      </trkpt>
      <trkpt lat="37.4757860" lon="-4.4432080">
        <ele>449.2</ele>
        <time>2021-12-28T16:09:11Z</time>
      </trkpt>
      <trkpt lat="37.4757860" lon="-4.4432080">
        <ele>449.0</ele>
        <time>2021-12-28T16:09:12Z</time>
      </trkpt>
      <trkpt lat="37.4757860" lon="-4.4432080">
        <ele>449.0</ele>
        <time>2021-12-28T16:09:13Z</time>
      </trkpt>
      <trkpt lat="37.4757860" lon="-4.4432080">
        <ele>448.8</ele>
        <time>2021-12-28T16:09:14Z</time>
      </trkpt>
      <trkpt lat="37.4757860" lon="-4.4432080">
        <ele>448.6</ele>
        <time>2021-12-28T16:09:15Z</time>
      </trkpt>
      <trkpt lat="37.4755940" lon="-4.4433930">
        <ele>448.8</ele>
        <time>2021-12-28T16:09:43Z</time>
      </trkpt>
      <trkpt lat="37.4755940" lon="-4.4433930">
        <ele>449.0</ele>
        <time>2021-12-28T16:09:44Z</time>
      </trkpt>
      <trkpt lat="37.4755810" lon="-4.4434130">
        <ele>449.0</ele>
        <time>2021-12-28T16:09:45Z</time>
      </trkpt>
      <trkpt lat="37.4755810" lon="-4.4434130">
        <ele>449.2</ele>
        <time>2021-12-28T16:09:46Z</time>
      </trkpt>
      <trkpt lat="37.4755740" lon="-4.4434350">
        <ele>449.2</ele>
        <time>2021-12-28T16:09:47Z</time>
      </trkpt>
      <trkpt lat="37.4755740" lon="-4.4434350">
        <ele>449.2</ele>
        <time>2021-12-28T16:09:48Z</time>
      </trkpt>
      <trkpt lat="37.4755740" lon="-4.4434350">
        <ele>449.2</ele>
        <time>2021-12-28T16:09:49Z</time>
      </trkpt>
      <trkpt lat="37.4755740" lon="-4.4434350">
        <ele>459.4</ele>
        <time>2021-12-28T16:12:13Z</time>
      </trkpt>
      <trkpt lat="37.4755740" lon="-4.4434350">
        <ele>459.4</ele>
        <time>2021-12-28T16:12:14Z</time>
      </trkpt>
      <trkpt lat="37.4755740" lon="-4.4434350">
        <ele>459.4</ele>
        <time>2021-12-28T16:12:15Z</time>
      </trkpt>
      <trkpt lat="37.4773150" lon="-4.4406830">
        <ele>493.4</ele>
        <time>2021-12-28T19:29:39Z</time>
      </trkpt>
      <trkpt lat="37.4773150" lon="-4.4406830">
        <ele>493.4</ele>
        <time>2021-12-28T19:29:46Z</time>
      </trkpt>
      <trkpt lat="37.4773150" lon="-4.4406830">
        <ele>493.4</ele>
        <time>2021-12-28T19:29:51Z</time>
      </trkpt>
      <trkpt lat="37.4773150" lon="-4.4406830">
        <ele>492.8</ele>
        <time>2021-12-28T19:29:52Z</time>
      </trkpt>
      <trkpt lat="37.4773150" lon="-4.4406830">
        <ele>492.0</ele>
        <time>2021-12-28T19:29:53Z</time>
      </trkpt>
      <trkpt lat="37.4773150" lon="-4.4406830">
        <ele>491.2</ele>
        <time>2021-12-28T19:29:54Z</time>
      </trkpt>
      <trkpt lat="37.4772960" lon="-4.4406730">
        <ele>490.6</ele>
        <time>2021-12-28T19:29:55Z</time>
      </trkpt>
      <trkpt lat="37.4772960" lon="-4.4406730">
        <ele>490.0</ele>
        <time>2021-12-28T19:29:56Z</time>
      </trkpt>
      <trkpt lat="37.4772960" lon="-4.4406730">
        <ele>489.4</ele>
        <time>2021-12-28T19:29:57Z</time>
      </trkpt>
      <trkpt lat="37.4772770" lon="-4.4406770">
        <ele>488.8</ele>
        <time>2021-12-28T19:29:58Z</time>
      </trkpt>
      <trkpt lat="37.4772770" lon="-4.4406770">
        <ele>488.4</ele>
        <time>2021-12-28T19:29:59Z</time>
      </trkpt>
      <trkpt lat="37.4772610" lon="-4.4406880">
        <ele>487.2</ele>
        <time>2021-12-28T19:30:01Z</time>
      </trkpt>
      <trkpt lat="37.4772610" lon="-4.4406880">
        <ele>486.6</ele>
        <time>2021-12-28T19:30:02Z</time>
      </trkpt>
      <trkpt lat="37.4772610" lon="-4.4406880">
        <ele>486.0</ele>
        <time>2021-12-28T19:30:03Z</time>
      </trkpt>
      <trkpt lat="37.4772610" lon="-4.4406880">
        <ele>485.6</ele>
        <time>2021-12-28T19:30:04Z</time>
      </trkpt>
      <trkpt lat="37.4772610" lon="-4.4406880">
        <ele>485.0</ele>
        <time>2021-12-28T19:30:05Z</time>
      </trkpt>
      <trkpt lat="37.4772610" lon="-4.4406880">
        <ele>484.4</ele>
        <time>2021-12-28T19:30:06Z</time>
      </trkpt>
      <trkpt lat="37.4772610" lon="-4.4406880">
        <ele>484.0</ele>
        <time>2021-12-28T19:30:07Z</time>
      </trkpt>
      <trkpt lat="37.4772610" lon="-4.4406880">
        <ele>483.4</ele>
        <time>2021-12-28T19:30:08Z</time>
      </trkpt>
      <trkpt lat="37.4772740" lon="-4.4407080">
        <ele>483.0</ele>
        <time>2021-12-28T19:30:09Z</time>
      </trkpt>
      <trkpt lat="37.4772740" lon="-4.4407080">
        <ele>482.4</ele>
        <time>2021-12-28T19:30:10Z</time>
      </trkpt>
      <trkpt lat="37.4772740" lon="-4.4407080">
        <ele>481.8</ele>
        <time>2021-12-28T19:30:11Z</time>
      </trkpt>
      <trkpt lat="37.4772740" lon="-4.4407080">
        <ele>481.4</ele>
        <time>2021-12-28T19:30:12Z</time>
      </trkpt>
      <trkpt lat="37.4772740" lon="-4.4407080">
        <ele>480.8</ele>
        <time>2021-12-28T19:30:13Z</time>
      </trkpt>
      <trkpt lat="37.4772740" lon="-4.4407080">
        <ele>480.2</ele>
        <time>2021-12-28T19:30:14Z</time>
      </trkpt>
      <trkpt lat="37.4772740" lon="-4.4407080">
        <ele>479.8</ele>
        <time>2021-12-28T19:30:15Z</time>
      </trkpt>
      <trkpt lat="37.4772740" lon="-4.4407080">
        <ele>479.2</ele>
        <time>2021-12-28T19:30:16Z</time>
      </trkpt>
      <trkpt lat="37.4772740" lon="-4.4407080">
        <ele>478.8</ele>
        <time>2021-12-28T19:30:17Z</time>
      </trkpt>
      <trkpt lat="37.4772740" lon="-4.4407080">
        <ele>478.2</ele>
        <time>2021-12-28T19:30:18Z</time>
      </trkpt>
      <trkpt lat="37.4772740" lon="-4.4407080">
        <ele>477.8</ele>
        <time>2021-12-28T19:30:19Z</time>
      </trkpt>
      <trkpt lat="37.4772740" lon="-4.4407080">
        <ele>477.2</ele>
        <time>2021-12-28T19:30:20Z</time>
      </trkpt>
      <trkpt lat="37.4772740" lon="-4.4407080">
        <ele>476.8</ele>
        <time>2021-12-28T19:30:21Z</time>
      </trkpt>
      <trkpt lat="37.4772740" lon="-4.4407080">
        <ele>476.4</ele>
        <time>2021-12-28T19:30:22Z</time>
      </trkpt>
      <trkpt lat="37.4772740" lon="-4.4407080">
        <ele>476.0</ele>
        <time>2021-12-28T19:30:23Z</time>
      </trkpt>
      <trkpt lat="37.4772740" lon="-4.4407080">
        <ele>475.6</ele>
        <time>2021-12-28T19:30:24Z</time>
      </trkpt>
      <trkpt lat="37.4772740" lon="-4.4407080">
        <ele>475.2</ele>
        <time>2021-12-28T19:30:25Z</time>
      </trkpt>
      <trkpt lat="37.4772740" lon="-4.4407080">
        <ele>474.6</ele>
        <time>2021-12-28T19:30:26Z</time>
      </trkpt>
      <trkpt lat="37.4772740" lon="-4.4407080">
        <ele>474.2</ele>
        <time>2021-12-28T19:30:27Z</time>
      </trkpt>
      <trkpt lat="37.4772740" lon="-4.4407080">
        <ele>473.8</ele>
        <time>2021-12-28T19:30:28Z</time>
      </trkpt>
      <trkpt lat="37.4772740" lon="-4.4407080">
        <ele>473.4</ele>
        <time>2021-12-28T19:30:29Z</time>
      </trkpt>
      <trkpt lat="37.4772740" lon="-4.4407080">
        <ele>473.0</ele>
        <time>2021-12-28T19:30:30Z</time>
      </trkpt>
      <trkpt lat="37.4772740" lon="-4.4407080">
        <ele>472.6</ele>
        <time>2021-12-28T19:30:31Z</time>
      </trkpt>
      <trkpt lat="37.4772740" lon="-4.4407080">
        <ele>472.2</ele>
        <time>2021-12-28T19:30:32Z</time>
      </trkpt>
      <trkpt lat="37.4772740" lon="-4.4407080">
        <ele>472.0</ele>
        <time>2021-12-28T19:30:33Z</time>
      </trkpt>
      <trkpt lat="37.4772740" lon="-4.4407080">
        <ele>471.6</ele>
        <time>2021-12-28T19:30:34Z</time>
      </trkpt>
      <trkpt lat="37.4772740" lon="-4.4407080">
        <ele>471.2</ele>
        <time>2021-12-28T19:30:35Z</time>
      </trkpt>
      <trkpt lat="37.4772740" lon="-4.4407080">
        <ele>470.8</ele>
        <time>2021-12-28T19:30:36Z</time>
      </trkpt>
      <trkpt lat="37.4772740" lon="-4.4407080">
        <ele>470.6</ele>
        <time>2021-12-28T19:30:37Z</time>
      </trkpt>
      <trkpt lat="37.4772740" lon="-4.4407080">
        <ele>470.2</ele>
        <time>2021-12-28T19:30:38Z</time>
      </trkpt>
      <trkpt lat="37.4772740" lon="-4.4407080">
        <ele>469.8</ele>
        <time>2021-12-28T19:30:39Z</time>
      </trkpt>
      <trkpt lat="37.4772740" lon="-4.4407080">
        <ele>469.6</ele>
        <time>2021-12-28T19:30:40Z</time>
      </trkpt>
      <trkpt lat="37.4772740" lon="-4.4407080">
        <ele>469.2</ele>
        <time>2021-12-28T19:30:41Z</time>
      </trkpt>
      <trkpt lat="37.4772740" lon="-4.4407080">
        <ele>469.0</ele>
        <time>2021-12-28T19:30:42Z</time>
      </trkpt>
      <trkpt lat="37.4772740" lon="-4.4407080">
        <ele>468.6</ele>
        <time>2021-12-28T19:30:43Z</time>
      </trkpt>
      <trkpt lat="37.4772740" lon="-4.4407080">
        <ele>468.0</ele>
        <time>2021-12-28T19:30:45Z</time>
      </trkpt>
      <trkpt lat="37.4772900" lon="-4.4407200">
        <ele>467.8</ele>
        <time>2021-12-28T19:30:46Z</time>
      </trkpt>
      <trkpt lat="37.4772900" lon="-4.4407200">
        <ele>467.6</ele>
        <time>2021-12-28T19:30:47Z</time>
      </trkpt>
      <trkpt lat="37.4772900" lon="-4.4407200">
        <ele>467.2</ele>
        <time>2021-12-28T19:30:48Z</time>
      </trkpt>
      <trkpt lat="37.4772990" lon="-4.4407000">
        <ele>467.0</ele>
        <time>2021-12-28T19:30:49Z</time>
      </trkpt>
      <trkpt lat="37.4772990" lon="-4.4407000">
        <ele>466.8</ele>
        <time>2021-12-28T19:30:50Z</time>
      </trkpt>
      <trkpt lat="37.4772990" lon="-4.4407000">
        <ele>466.6</ele>
        <time>2021-12-28T19:30:51Z</time>
      </trkpt>
      <trkpt lat="37.4773090" lon="-4.4406730">
        <ele>466.2</ele>
        <time>2021-12-28T19:30:52Z</time>
      </trkpt>
      <trkpt lat="37.4773090" lon="-4.4406730">
        <ele>466.0</ele>
        <time>2021-12-28T19:30:53Z</time>
      </trkpt>
      <trkpt lat="37.4773250" lon="-4.4406530">
        <ele>465.8</ele>
        <time>2021-12-28T19:30:54Z</time>
      </trkpt>
      <trkpt lat="37.4773250" lon="-4.4406530">
        <ele>465.6</ele>
        <time>2021-12-28T19:30:55Z</time>
      </trkpt>
      <trkpt lat="37.4773250" lon="-4.4406530">
        <ele>465.4</ele>
        <time>2021-12-28T19:30:56Z</time>
      </trkpt>
      <trkpt lat="37.4773250" lon="-4.4406530">
        <ele>465.2</ele>
        <time>2021-12-28T19:30:57Z</time>
      </trkpt>
      <trkpt lat="37.4773250" lon="-4.4406530">
        <ele>465.0</ele>
        <time>2021-12-28T19:30:58Z</time>
      </trkpt>
      <trkpt lat="37.4773240" lon="-4.4406540">
        <ele>464.8</ele>
        <time>2021-12-28T19:30:59Z</time>
      </trkpt>
      <trkpt lat="37.4773240" lon="-4.4406540">
        <ele>464.6</ele>
        <time>2021-12-28T19:31:00Z</time>
      </trkpt>
      <trkpt lat="37.4773240" lon="-4.4406540">
        <ele>464.6</ele>
        <time>2021-12-28T19:31:01Z</time>
      </trkpt>
      <trkpt lat="37.4773240" lon="-4.4406540">
        <ele>464.4</ele>
        <time>2021-12-28T19:31:02Z</time>
      </trkpt>
      <trkpt lat="37.4773240" lon="-4.4406540">
        <ele>464.2</ele>
        <time>2021-12-28T19:31:03Z</time>
      </trkpt>
      <trkpt lat="37.4773240" lon="-4.4406540">
        <ele>464.2</ele>
        <time>2021-12-28T19:31:04Z</time>
      </trkpt>
      <trkpt lat="37.4773240" lon="-4.4406540">
        <ele>464.0</ele>
        <time>2021-12-28T19:31:05Z</time>
      </trkpt>
      <trkpt lat="37.4773230" lon="-4.4406550">
        <ele>463.8</ele>
        <time>2021-12-28T19:31:06Z</time>
      </trkpt>
      <trkpt lat="37.4773230" lon="-4.4406550">
        <ele>463.6</ele>
        <time>2021-12-28T19:31:07Z</time>
      </trkpt>
      <trkpt lat="37.4773230" lon="-4.4406550">
        <ele>463.4</ele>
        <time>2021-12-28T19:31:08Z</time>
      </trkpt>
      <trkpt lat="37.4773230" lon="-4.4406550">
        <ele>463.2</ele>
        <time>2021-12-28T19:31:09Z</time>
      </trkpt>
      <trkpt lat="37.4773230" lon="-4.4406550">
        <ele>463.2</ele>
        <time>2021-12-28T19:31:10Z</time>
      </trkpt>
      <trkpt lat="37.4773230" lon="-4.4406550">
        <ele>463.0</ele>
        <time>2021-12-28T19:31:11Z</time>
      </trkpt>
      <trkpt lat="37.4773230" lon="-4.4406550">
        <ele>462.8</ele>
        <time>2021-12-28T19:31:12Z</time>
      </trkpt>
      <trkpt lat="37.4773220" lon="-4.4406550">
        <ele>462.6</ele>
        <time>2021-12-28T19:31:13Z</time>
      </trkpt>
      <trkpt lat="37.4773220" lon="-4.4406560">
        <ele>462.4</ele>
        <time>2021-12-28T19:31:14Z</time>
      </trkpt>
      <trkpt lat="37.4773220" lon="-4.4406560">
        <ele>462.4</ele>
        <time>2021-12-28T19:31:15Z</time>
      </trkpt>
      <trkpt lat="37.4773220" lon="-4.4406560">
        <ele>462.2</ele>
        <time>2021-12-28T19:31:16Z</time>
      </trkpt>
      <trkpt lat="37.4773220" lon="-4.4406560">
        <ele>462.0</ele>
        <time>2021-12-28T19:31:17Z</time>
      </trkpt>
      <trkpt lat="37.4773220" lon="-4.4406560">
        <ele>461.8</ele>
        <time>2021-12-28T19:31:18Z</time>
      </trkpt>
      <trkpt lat="37.4773220" lon="-4.4406560">
        <ele>461.8</ele>
        <time>2021-12-28T19:31:19Z</time>
      </trkpt>
      <trkpt lat="37.4773210" lon="-4.4406560">
        <ele>461.6</ele>
        <time>2021-12-28T19:31:20Z</time>
      </trkpt>
      <trkpt lat="37.4773210" lon="-4.4406560">
        <ele>461.4</ele>
        <time>2021-12-28T19:31:21Z</time>
      </trkpt>
      <trkpt lat="37.4773210" lon="-4.4406570">
        <ele>461.2</ele>
        <time>2021-12-28T19:31:22Z</time>
      </trkpt>
      <trkpt lat="37.4773210" lon="-4.4406570">
        <ele>461.2</ele>
        <time>2021-12-28T19:31:23Z</time>
      </trkpt>
      <trkpt lat="37.4773210" lon="-4.4406570">
        <ele>461.0</ele>
        <time>2021-12-28T19:31:24Z</time>
      </trkpt>
      <trkpt lat="37.4773210" lon="-4.4406570">
        <ele>460.8</ele>
        <time>2021-12-28T19:31:25Z</time>
      </trkpt>
      <trkpt lat="37.4773210" lon="-4.4406570">
        <ele>460.8</ele>
        <time>2021-12-28T19:31:26Z</time>
      </trkpt>
      <trkpt lat="37.4773200" lon="-4.4406570">
        <ele>460.6</ele>
        <time>2021-12-28T19:31:27Z</time>
      </trkpt>
      <trkpt lat="37.4773200" lon="-4.4406570">
        <ele>460.6</ele>
        <time>2021-12-28T19:31:28Z</time>
      </trkpt>
      <trkpt lat="37.4773200" lon="-4.4406580">
        <ele>460.4</ele>
        <time>2021-12-28T19:31:29Z</time>
      </trkpt>
      <trkpt lat="37.4773200" lon="-4.4406580">
        <ele>460.2</ele>
        <time>2021-12-28T19:31:30Z</time>
      </trkpt>
      <trkpt lat="37.4773200" lon="-4.4406580">
        <ele>460.2</ele>
        <time>2021-12-28T19:31:31Z</time>
      </trkpt>
      <trkpt lat="37.4773200" lon="-4.4406580">
        <ele>460.0</ele>
        <time>2021-12-28T19:31:32Z</time>
      </trkpt>
      <trkpt lat="37.4773200" lon="-4.4406580">
        <ele>460.0</ele>
        <time>2021-12-28T19:31:33Z</time>
      </trkpt>
      <trkpt lat="37.4773190" lon="-4.4406580">
        <ele>459.8</ele>
        <time>2021-12-28T19:31:34Z</time>
      </trkpt>
      <trkpt lat="37.4773190" lon="-4.4406580">
        <ele>459.8</ele>
        <time>2021-12-28T19:31:35Z</time>
      </trkpt>
      <trkpt lat="37.4773190" lon="-4.4406580">
        <ele>459.6</ele>
        <time>2021-12-28T19:31:36Z</time>
      </trkpt>
      <trkpt lat="37.4773190" lon="-4.4406590">
        <ele>459.6</ele>
        <time>2021-12-28T19:31:37Z</time>
      </trkpt>
      <trkpt lat="37.4773190" lon="-4.4406590">
        <ele>459.4</ele>
        <time>2021-12-28T19:31:38Z</time>
      </trkpt>
      <trkpt lat="37.4773190" lon="-4.4406590">
        <ele>459.4</ele>
        <time>2021-12-28T19:31:39Z</time>
      </trkpt>
      <trkpt lat="37.4773190" lon="-4.4406590">
        <ele>459.2</ele>
        <time>2021-12-28T19:31:40Z</time>
      </trkpt>
      <trkpt lat="37.4773180" lon="-4.4406590">
        <ele>459.2</ele>
        <time>2021-12-28T19:31:41Z</time>
      </trkpt>
      <trkpt lat="37.4773180" lon="-4.4406590">
        <ele>459.0</ele>
        <time>2021-12-28T19:31:42Z</time>
      </trkpt>
      <trkpt lat="37.4773180" lon="-4.4406590">
        <ele>459.0</ele>
        <time>2021-12-28T19:31:43Z</time>
      </trkpt>
      <trkpt lat="37.4773180" lon="-4.4406600">
        <ele>458.8</ele>
        <time>2021-12-28T19:31:44Z</time>
      </trkpt>
      <trkpt lat="37.4773180" lon="-4.4406600">
        <ele>458.8</ele>
        <time>2021-12-28T19:31:45Z</time>
      </trkpt>
      <trkpt lat="37.4773180" lon="-4.4406600">
        <ele>458.6</ele>
        <time>2021-12-28T19:31:46Z</time>
      </trkpt>
      <trkpt lat="37.4773180" lon="-4.4406600">
        <ele>458.6</ele>
        <time>2021-12-28T19:31:47Z</time>
      </trkpt>
      <trkpt lat="37.4773170" lon="-4.4406600">
        <ele>458.6</ele>
        <time>2021-12-28T19:31:48Z</time>
      </trkpt>
      <trkpt lat="37.4773170" lon="-4.4406600">
        <ele>458.4</ele>
        <time>2021-12-28T19:31:49Z</time>
      </trkpt>
      <trkpt lat="37.4773170" lon="-4.4406600">
        <ele>458.4</ele>
        <time>2021-12-28T19:31:50Z</time>
      </trkpt>
      <trkpt lat="37.4773170" lon="-4.4406600">
        <ele>458.2</ele>
        <time>2021-12-28T19:31:51Z</time>
      </trkpt>
      <trkpt lat="37.4773170" lon="-4.4406610">
        <ele>458.2</ele>
        <time>2021-12-28T19:31:52Z</time>
      </trkpt>
      <trkpt lat="37.4773170" lon="-4.4406610">
        <ele>458.0</ele>
        <time>2021-12-28T19:31:53Z</time>
      </trkpt>
      <trkpt lat="37.4773170" lon="-4.4406610">
        <ele>458.0</ele>
        <time>2021-12-28T19:31:54Z</time>
      </trkpt>
      <trkpt lat="37.4773160" lon="-4.4406610">
        <ele>458.0</ele>
        <time>2021-12-28T19:31:55Z</time>
      </trkpt>
      <trkpt lat="37.4773160" lon="-4.4406610">
        <ele>457.8</ele>
        <time>2021-12-28T19:31:56Z</time>
      </trkpt>
      <trkpt lat="37.4773160" lon="-4.4406610">
        <ele>457.8</ele>
        <time>2021-12-28T19:31:57Z</time>
      </trkpt>
      <trkpt lat="37.4773160" lon="-4.4406610">
        <ele>457.6</ele>
        <time>2021-12-28T19:31:58Z</time>
      </trkpt>
      <trkpt lat="37.4773160" lon="-4.4406620">
        <ele>457.6</ele>
        <time>2021-12-28T19:31:59Z</time>
      </trkpt>
      <trkpt lat="37.4773160" lon="-4.4406620">
        <ele>457.6</ele>
        <time>2021-12-28T19:32:00Z</time>
      </trkpt>
      <trkpt lat="37.4773160" lon="-4.4406620">
        <ele>457.4</ele>
        <time>2021-12-28T19:32:01Z</time>
      </trkpt>
      <trkpt lat="37.4773150" lon="-4.4406620">
        <ele>457.4</ele>
        <time>2021-12-28T19:32:02Z</time>
      </trkpt>
      <trkpt lat="37.4773150" lon="-4.4406620">
        <ele>457.4</ele>
        <time>2021-12-28T19:32:03Z</time>
      </trkpt>
      <trkpt lat="37.4773150" lon="-4.4406620">
        <ele>457.2</ele>
        <time>2021-12-28T19:32:04Z</time>
      </trkpt>
      <trkpt lat="37.4773150" lon="-4.4406620">
        <ele>457.2</ele>
        <time>2021-12-28T19:32:05Z</time>
      </trkpt>
      <trkpt lat="37.4773150" lon="-4.4406620">
        <ele>457.2</ele>
        <time>2021-12-28T19:32:06Z</time>
      </trkpt>
      <trkpt lat="37.4773150" lon="-4.4406630">
        <ele>457.0</ele>
        <time>2021-12-28T19:32:07Z</time>
      </trkpt>
      <trkpt lat="37.4773150" lon="-4.4406630">
        <ele>457.0</ele>
        <time>2021-12-28T19:32:08Z</time>
      </trkpt>
      <trkpt lat="37.4773140" lon="-4.4406630">
        <ele>457.0</ele>
        <time>2021-12-28T19:32:09Z</time>
      </trkpt>
      <trkpt lat="37.4773140" lon="-4.4406630">
        <ele>456.8</ele>
        <time>2021-12-28T19:32:10Z</time>
      </trkpt>
      <trkpt lat="37.4773140" lon="-4.4406630">
        <ele>456.8</ele>
        <time>2021-12-28T19:32:11Z</time>
      </trkpt>
      <trkpt lat="37.4773140" lon="-4.4406630">
        <ele>456.8</ele>
        <time>2021-12-28T19:32:12Z</time>
      </trkpt>
      <trkpt lat="37.4773140" lon="-4.4406630">
        <ele>456.8</ele>
        <time>2021-12-28T19:32:13Z</time>
      </trkpt>
      <trkpt lat="37.4773140" lon="-4.4406640">
        <ele>456.6</ele>
        <time>2021-12-28T19:32:14Z</time>
      </trkpt>
      <trkpt lat="37.4773140" lon="-4.4406640">
        <ele>456.6</ele>
        <time>2021-12-28T19:32:15Z</time>
      </trkpt>
      <trkpt lat="37.4773130" lon="-4.4406640">
        <ele>456.6</ele>
        <time>2021-12-28T19:32:16Z</time>
      </trkpt>
      <trkpt lat="37.4773130" lon="-4.4406640">
        <ele>456.4</ele>
        <time>2021-12-28T19:32:17Z</time>
      </trkpt>
      <trkpt lat="37.4773130" lon="-4.4406640">
        <ele>456.4</ele>
        <time>2021-12-28T19:32:18Z</time>
      </trkpt>
      <trkpt lat="37.4773130" lon="-4.4406640">
        <ele>456.4</ele>
        <time>2021-12-28T19:32:19Z</time>
      </trkpt>
      <trkpt lat="37.4773130" lon="-4.4406640">
        <ele>456.4</ele>
        <time>2021-12-28T19:32:20Z</time>
      </trkpt>
      <trkpt lat="37.4773130" lon="-4.4406640">
        <ele>456.2</ele>
        <time>2021-12-28T19:32:21Z</time>
      </trkpt>
      <trkpt lat="37.4773130" lon="-4.4406650">
        <ele>456.2</ele>
        <time>2021-12-28T19:32:22Z</time>
      </trkpt>
      <trkpt lat="37.4773120" lon="-4.4406650">
        <ele>456.2</ele>
        <time>2021-12-28T19:32:23Z</time>
      </trkpt>
      <trkpt lat="37.4773120" lon="-4.4406650">
        <ele>456.2</ele>
        <time>2021-12-28T19:32:24Z</time>
      </trkpt>
      <trkpt lat="37.4773120" lon="-4.4406650">
        <ele>456.2</ele>
        <time>2021-12-28T19:32:25Z</time>
      </trkpt>
      <trkpt lat="37.4773120" lon="-4.4406650">
        <ele>456.0</ele>
        <time>2021-12-28T19:32:26Z</time>
      </trkpt>
      <trkpt lat="37.4773120" lon="-4.4406650">
        <ele>456.0</ele>
        <time>2021-12-28T19:32:27Z</time>
      </trkpt>
      <trkpt lat="37.4773120" lon="-4.4406650">
        <ele>456.0</ele>
        <time>2021-12-28T19:32:28Z</time>
      </trkpt>
      <trkpt lat="37.4773120" lon="-4.4406660">
        <ele>456.0</ele>
        <time>2021-12-28T19:32:29Z</time>
      </trkpt>
      <trkpt lat="37.4773110" lon="-4.4406660">
        <ele>456.0</ele>
        <time>2021-12-28T19:32:30Z</time>
      </trkpt>
      <trkpt lat="37.4773110" lon="-4.4406660">
        <ele>455.8</ele>
        <time>2021-12-28T19:32:31Z</time>
      </trkpt>
      <trkpt lat="37.4773110" lon="-4.4406660">
        <ele>455.8</ele>
        <time>2021-12-28T19:32:32Z</time>
      </trkpt>
      <trkpt lat="37.4773110" lon="-4.4406660">
        <ele>455.8</ele>
        <time>2021-12-28T19:32:33Z</time>
      </trkpt>
      <trkpt lat="37.4773110" lon="-4.4406660">
        <ele>455.8</ele>
        <time>2021-12-28T19:32:34Z</time>
      </trkpt>
      <trkpt lat="37.4773110" lon="-4.4406660">
        <ele>455.8</ele>
        <time>2021-12-28T19:32:35Z</time>
      </trkpt>
      <trkpt lat="37.4773110" lon="-4.4406660">
        <ele>455.6</ele>
        <time>2021-12-28T19:32:36Z</time>
      </trkpt>
      <trkpt lat="37.4773100" lon="-4.4406670">
        <ele>455.6</ele>
        <time>2021-12-28T19:32:37Z</time>
      </trkpt>
      <trkpt lat="37.4773100" lon="-4.4406670">
        <ele>455.6</ele>
        <time>2021-12-28T19:32:38Z</time>
      </trkpt>
      <trkpt lat="37.4773100" lon="-4.4406670">
        <ele>455.6</ele>
        <time>2021-12-28T19:32:39Z</time>
      </trkpt>
      <trkpt lat="37.4773100" lon="-4.4406670">
        <ele>455.6</ele>
        <time>2021-12-28T19:32:40Z</time>
      </trkpt>
      <trkpt lat="37.4773100" lon="-4.4406670">
        <ele>455.6</ele>
        <time>2021-12-28T19:32:41Z</time>
      </trkpt>
      <trkpt lat="37.4773100" lon="-4.4406670">
        <ele>455.6</ele>
        <time>2021-12-28T19:32:42Z</time>
      </trkpt>
      <trkpt lat="37.4773100" lon="-4.4406670">
        <ele>455.4</ele>
        <time>2021-12-28T19:32:43Z</time>
      </trkpt>
      <trkpt lat="37.4773090" lon="-4.4406680">
        <ele>455.4</ele>
        <time>2021-12-28T19:32:44Z</time>
      </trkpt>
      <trkpt lat="37.4773090" lon="-4.4406680">
        <ele>455.4</ele>
        <time>2021-12-28T19:32:45Z</time>
      </trkpt>
      <trkpt lat="37.4773090" lon="-4.4406680">
        <ele>455.4</ele>
        <time>2021-12-28T19:32:46Z</time>
      </trkpt>
      <trkpt lat="37.4773090" lon="-4.4406680">
        <ele>455.4</ele>
        <time>2021-12-28T19:32:47Z</time>
      </trkpt>
      <trkpt lat="37.4773090" lon="-4.4406680">
        <ele>455.4</ele>
        <time>2021-12-28T19:32:48Z</time>
      </trkpt>
      <trkpt lat="37.4773090" lon="-4.4406680">
        <ele>455.2</ele>
        <time>2021-12-28T19:32:49Z</time>
      </trkpt>
      <trkpt lat="37.4773090" lon="-4.4406680">
        <ele>455.2</ele>
        <time>2021-12-28T19:32:50Z</time>
      </trkpt>
      <trkpt lat="37.4773080" lon="-4.4406680">
        <ele>455.2</ele>
        <time>2021-12-28T19:32:51Z</time>
      </trkpt>
      <trkpt lat="37.4773080" lon="-4.4406690">
        <ele>455.2</ele>
        <time>2021-12-28T19:32:52Z</time>
      </trkpt>
      <trkpt lat="37.4773080" lon="-4.4406690">
        <ele>455.2</ele>
        <time>2021-12-28T19:32:53Z</time>
      </trkpt>
      <trkpt lat="37.4773080" lon="-4.4406690">
        <ele>455.2</ele>
        <time>2021-12-28T19:32:54Z</time>
      </trkpt>
      <trkpt lat="37.4773080" lon="-4.4406690">
        <ele>455.2</ele>
        <time>2021-12-28T19:32:55Z</time>
      </trkpt>
      <trkpt lat="37.4773080" lon="-4.4406690">
        <ele>455.2</ele>
        <time>2021-12-28T19:32:56Z</time>
      </trkpt>
      <trkpt lat="37.4773080" lon="-4.4406690">
        <ele>455.0</ele>
        <time>2021-12-28T19:32:57Z</time>
      </trkpt>
      <trkpt lat="37.4773070" lon="-4.4406690">
        <ele>455.0</ele>
        <time>2021-12-28T19:32:58Z</time>
      </trkpt>
      <trkpt lat="37.4773070" lon="-4.4406700">
        <ele>455.0</ele>
        <time>2021-12-28T19:32:59Z</time>
      </trkpt>
      <trkpt lat="37.4773070" lon="-4.4406700">
        <ele>455.0</ele>
        <time>2021-12-28T19:33:00Z</time>
      </trkpt>
      <trkpt lat="37.4773070" lon="-4.4406700">
        <ele>455.0</ele>
        <time>2021-12-28T19:33:01Z</time>
      </trkpt>
      <trkpt lat="37.4773070" lon="-4.4406700">
        <ele>455.0</ele>
        <time>2021-12-28T19:33:02Z</time>
      </trkpt>
      <trkpt lat="37.4773070" lon="-4.4406700">
        <ele>455.0</ele>
        <time>2021-12-28T19:33:03Z</time>
      </trkpt>
      <trkpt lat="37.4773070" lon="-4.4406700">
        <ele>455.0</ele>
        <time>2021-12-28T19:33:04Z</time>
      </trkpt>
      <trkpt lat="37.4773060" lon="-4.4406700">
        <ele>455.0</ele>
        <time>2021-12-28T19:33:05Z</time>
      </trkpt>
      <trkpt lat="37.4773060" lon="-4.4406700">
        <ele>454.8</ele>
        <time>2021-12-28T19:33:06Z</time>
      </trkpt>
      <trkpt lat="37.4773060" lon="-4.4406710">
        <ele>454.8</ele>
        <time>2021-12-28T19:33:07Z</time>
      </trkpt>
      <trkpt lat="37.4773060" lon="-4.4406710">
        <ele>454.8</ele>
        <time>2021-12-28T19:33:08Z</time>
      </trkpt>
      <trkpt lat="37.4773060" lon="-4.4406710">
        <ele>454.8</ele>
        <time>2021-12-28T19:33:09Z</time>
      </trkpt>
      <trkpt lat="37.4773060" lon="-4.4406710">
        <ele>454.8</ele>
        <time>2021-12-28T19:33:10Z</time>
      </trkpt>
      <trkpt lat="37.4773060" lon="-4.4406710">
        <ele>454.8</ele>
        <time>2021-12-28T19:33:11Z</time>
      </trkpt>
      <trkpt lat="37.4773050" lon="-4.4406710">
        <ele>454.8</ele>
        <time>2021-12-28T19:33:12Z</time>
      </trkpt>
      <trkpt lat="37.4773050" lon="-4.4406710">
        <ele>454.8</ele>
        <time>2021-12-28T19:33:13Z</time>
      </trkpt>
      <trkpt lat="37.4773050" lon="-4.4406710">
        <ele>454.8</ele>
        <time>2021-12-28T19:33:14Z</time>
      </trkpt>
      <trkpt lat="37.4773050" lon="-4.4406720">
        <ele>454.8</ele>
        <time>2021-12-28T19:33:15Z</time>
      </trkpt>
      <trkpt lat="37.4773050" lon="-4.4406720">
        <ele>454.8</ele>
        <time>2021-12-28T19:33:16Z</time>
      </trkpt>
      <trkpt lat="37.4773050" lon="-4.4406720">
        <ele>454.8</ele>
        <time>2021-12-28T19:33:17Z</time>
      </trkpt>
      <trkpt lat="37.4773050" lon="-4.4406720">
        <ele>454.6</ele>
        <time>2021-12-28T19:33:18Z</time>
      </trkpt>
      <trkpt lat="37.4773040" lon="-4.4406720">
        <ele>454.6</ele>
        <time>2021-12-28T19:33:19Z</time>
      </trkpt>
      <trkpt lat="37.4773040" lon="-4.4406720">
        <ele>454.6</ele>
        <time>2021-12-28T19:33:20Z</time>
      </trkpt>
      <trkpt lat="37.4773040" lon="-4.4406720">
        <ele>454.6</ele>
        <time>2021-12-28T19:33:21Z</time>
      </trkpt>
      <trkpt lat="37.4773040" lon="-4.4406730">
        <ele>454.6</ele>
        <time>2021-12-28T19:33:22Z</time>
      </trkpt>
      <trkpt lat="37.4773040" lon="-4.4406730">
        <ele>454.6</ele>
        <time>2021-12-28T19:33:23Z</time>
      </trkpt>
      <trkpt lat="37.4773040" lon="-4.4406730">
        <ele>454.6</ele>
        <time>2021-12-28T19:33:24Z</time>
      </trkpt>
      <trkpt lat="37.4773040" lon="-4.4406730">
        <ele>454.6</ele>
        <time>2021-12-28T19:33:25Z</time>
      </trkpt>
      <trkpt lat="37.4773030" lon="-4.4406730">
        <ele>454.6</ele>
        <time>2021-12-28T19:33:26Z</time>
      </trkpt>
      <trkpt lat="37.4773030" lon="-4.4406730">
        <ele>454.6</ele>
        <time>2021-12-28T19:33:27Z</time>
      </trkpt>
      <trkpt lat="37.4773030" lon="-4.4406730">
        <ele>454.6</ele>
        <time>2021-12-28T19:33:28Z</time>
      </trkpt>
      <trkpt lat="37.4773030" lon="-4.4406730">
        <ele>454.6</ele>
        <time>2021-12-28T19:33:29Z</time>
      </trkpt>
      <trkpt lat="37.4773030" lon="-4.4406740">
        <ele>454.6</ele>
        <time>2021-12-28T19:33:30Z</time>
      </trkpt>
      <trkpt lat="37.4773030" lon="-4.4406740">
        <ele>454.6</ele>
        <time>2021-12-28T19:33:31Z</time>
      </trkpt>
      <trkpt lat="37.4773030" lon="-4.4406740">
        <ele>454.6</ele>
        <time>2021-12-28T19:33:32Z</time>
      </trkpt>
      <trkpt lat="37.4773020" lon="-4.4406740">
        <ele>454.6</ele>
        <time>2021-12-28T19:33:33Z</time>
      </trkpt>
      <trkpt lat="37.4773020" lon="-4.4406740">
        <ele>454.6</ele>
        <time>2021-12-28T19:33:34Z</time>
      </trkpt>
      <trkpt lat="37.4773020" lon="-4.4406740">
        <ele>454.6</ele>
        <time>2021-12-28T19:33:35Z</time>
      </trkpt>
      <trkpt lat="37.4773020" lon="-4.4406740">
        <ele>454.6</ele>
        <time>2021-12-28T19:33:36Z</time>
      </trkpt>
      <trkpt lat="37.4773020" lon="-4.4406750">
        <ele>454.6</ele>
        <time>2021-12-28T19:33:37Z</time>
      </trkpt>
      <trkpt lat="37.4773020" lon="-4.4406750">
        <ele>454.4</ele>
        <time>2021-12-28T19:33:38Z</time>
      </trkpt>
      <trkpt lat="37.4773020" lon="-4.4406750">
        <ele>454.4</ele>
        <time>2021-12-28T19:33:39Z</time>
      </trkpt>
      <trkpt lat="37.4773010" lon="-4.4406750">
        <ele>454.4</ele>
        <time>2021-12-28T19:33:40Z</time>
      </trkpt>
      <trkpt lat="37.4773010" lon="-4.4406750">
        <ele>454.4</ele>
        <time>2021-12-28T19:33:41Z</time>
      </trkpt>
      <trkpt lat="37.4773010" lon="-4.4406750">
        <ele>454.4</ele>
        <time>2021-12-28T19:33:42Z</time>
      </trkpt>
      <trkpt lat="37.4773010" lon="-4.4406750">
        <ele>454.4</ele>
        <time>2021-12-28T19:33:43Z</time>
      </trkpt>
      <trkpt lat="37.4773010" lon="-4.4406750">
        <ele>454.4</ele>
        <time>2021-12-28T19:33:44Z</time>
      </trkpt>
      <trkpt lat="37.4773010" lon="-4.4406760">
        <ele>454.4</ele>
        <time>2021-12-28T19:33:45Z</time>
      </trkpt>
      <trkpt lat="37.4773010" lon="-4.4406760">
        <ele>454.4</ele>
        <time>2021-12-28T19:33:46Z</time>
      </trkpt>
      <trkpt lat="37.4773000" lon="-4.4406760">
        <ele>454.4</ele>
        <time>2021-12-28T19:33:47Z</time>
      </trkpt>
      <trkpt lat="37.4773000" lon="-4.4406760">
        <ele>454.4</ele>
        <time>2021-12-28T19:33:48Z</time>
      </trkpt>
      <trkpt lat="37.4773000" lon="-4.4406760">
        <ele>454.4</ele>
        <time>2021-12-28T19:33:49Z</time>
      </trkpt>
      <trkpt lat="37.4773000" lon="-4.4406760">
        <ele>454.4</ele>
        <time>2021-12-28T19:33:50Z</time>
      </trkpt>
      <trkpt lat="37.4773000" lon="-4.4406760">
        <ele>454.4</ele>
        <time>2021-12-28T19:33:51Z</time>
      </trkpt>
      <trkpt lat="37.4773000" lon="-4.4406770">
        <ele>454.4</ele>
        <time>2021-12-28T19:33:52Z</time>
      </trkpt>
      <trkpt lat="37.4773000" lon="-4.4406770">
        <ele>454.4</ele>
        <time>2021-12-28T19:33:53Z</time>
      </trkpt>
      <trkpt lat="37.4772990" lon="-4.4406770">
        <ele>454.4</ele>
        <time>2021-12-28T19:33:54Z</time>
      </trkpt>
      <trkpt lat="37.4772990" lon="-4.4406770">
        <ele>454.4</ele>
        <time>2021-12-28T19:33:55Z</time>
      </trkpt>
      <trkpt lat="37.4772990" lon="-4.4406770">
        <ele>454.4</ele>
        <time>2021-12-28T19:33:56Z</time>
      </trkpt>
      <trkpt lat="37.4772990" lon="-4.4406770">
        <ele>454.4</ele>
        <time>2021-12-28T19:33:57Z</time>
      </trkpt>
      <trkpt lat="37.4772990" lon="-4.4406770">
        <ele>454.4</ele>
        <time>2021-12-28T19:33:58Z</time>
      </trkpt>
      <trkpt lat="37.4772990" lon="-4.4406770">
        <ele>454.4</ele>
        <time>2021-12-28T19:33:59Z</time>
      </trkpt>
      <trkpt lat="37.4772990" lon="-4.4406780">
        <ele>454.4</ele>
        <time>2021-12-28T19:34:00Z</time>
      </trkpt>
      <trkpt lat="37.4772980" lon="-4.4406780">
        <ele>454.4</ele>
        <time>2021-12-28T19:34:01Z</time>
      </trkpt>
      <trkpt lat="37.4772980" lon="-4.4406780">
        <ele>454.4</ele>
        <time>2021-12-28T19:34:02Z</time>
      </trkpt>
      <trkpt lat="37.4772980" lon="-4.4406780">
        <ele>454.4</ele>
        <time>2021-12-28T19:34:03Z</time>
      </trkpt>
      <trkpt lat="37.4772980" lon="-4.4406780">
        <ele>454.4</ele>
        <time>2021-12-28T19:34:04Z</time>
      </trkpt>
      <trkpt lat="37.4772980" lon="-4.4406780">
        <ele>454.4</ele>
        <time>2021-12-28T19:34:05Z</time>
      </trkpt>
      <trkpt lat="37.4772980" lon="-4.4406780">
        <ele>454.4</ele>
        <time>2021-12-28T19:34:06Z</time>
      </trkpt>
      <trkpt lat="37.4772980" lon="-4.4406790">
        <ele>454.4</ele>
        <time>2021-12-28T19:34:07Z</time>
      </trkpt>
      <trkpt lat="37.4772970" lon="-4.4406790">
        <ele>454.4</ele>
        <time>2021-12-28T19:34:08Z</time>
      </trkpt>
      <trkpt lat="37.4772970" lon="-4.4406790">
        <ele>454.4</ele>
        <time>2021-12-28T19:34:09Z</time>
      </trkpt>
      <trkpt lat="37.4772970" lon="-4.4406790">
        <ele>454.4</ele>
        <time>2021-12-28T19:34:10Z</time>
      </trkpt>
      <trkpt lat="37.4772970" lon="-4.4406790">
        <ele>454.4</ele>
        <time>2021-12-28T19:34:11Z</time>
      </trkpt>
      <trkpt lat="37.4772970" lon="-4.4406790">
        <ele>454.2</ele>
        <time>2021-12-28T19:34:12Z</time>
      </trkpt>
      <trkpt lat="37.4772970" lon="-4.4406790">
        <ele>454.2</ele>
        <time>2021-12-28T19:34:13Z</time>
      </trkpt>
      <trkpt lat="37.4772970" lon="-4.4406790">
        <ele>454.2</ele>
        <time>2021-12-28T19:34:14Z</time>
      </trkpt>
      <trkpt lat="37.4772960" lon="-4.4406800">
        <ele>454.2</ele>
        <time>2021-12-28T19:34:15Z</time>
      </trkpt>
      <trkpt lat="37.4772960" lon="-4.4406800">
        <ele>454.2</ele>
        <time>2021-12-28T19:34:16Z</time>
      </trkpt>
      <trkpt lat="37.4772960" lon="-4.4406800">
        <ele>454.2</ele>
        <time>2021-12-28T19:34:17Z</time>
      </trkpt>
      <trkpt lat="37.4772960" lon="-4.4406800">
        <ele>454.2</ele>
        <time>2021-12-28T19:34:18Z</time>
      </trkpt>
      <trkpt lat="37.4773150" lon="-4.4406880">
        <ele>454.2</ele>
        <time>2021-12-28T19:34:19Z</time>
      </trkpt>
      <trkpt lat="37.4773380" lon="-4.4406920">
        <ele>454.2</ele>
        <time>2021-12-28T19:34:20Z</time>
      </trkpt>
      <trkpt lat="37.4773600" lon="-4.4406970">
        <ele>454.2</ele>
        <time>2021-12-28T19:34:21Z</time>
      </trkpt>
      <trkpt lat="37.4773760" lon="-4.4407120">
        <ele>454.0</ele>
        <time>2021-12-28T19:34:22Z</time>
      </trkpt>
      <trkpt lat="37.4773760" lon="-4.4407120">
        <ele>454.0</ele>
        <time>2021-12-28T19:34:23Z</time>
      </trkpt>
      <trkpt lat="37.4773730" lon="-4.4407620">
        <ele>454.0</ele>
        <time>2021-12-28T19:34:24Z</time>
      </trkpt>
      <trkpt lat="37.4773460" lon="-4.4408050">
        <ele>454.0</ele>
        <time>2021-12-28T19:34:25Z</time>
      </trkpt>
      <trkpt lat="37.4773340" lon="-4.4408200">
        <ele>454.0</ele>
        <time>2021-12-28T19:34:26Z</time>
      </trkpt>
      <trkpt lat="37.4773060" lon="-4.4408480">
        <ele>454.0</ele>
        <time>2021-12-28T19:34:27Z</time>
      </trkpt>
      <trkpt lat="37.4772800" lon="-4.4408780">
        <ele>454.0</ele>
        <time>2021-12-28T19:34:28Z</time>
      </trkpt>
      <trkpt lat="37.4772420" lon="-4.4409130">
        <ele>454.0</ele>
        <time>2021-12-28T19:34:29Z</time>
      </trkpt>
      <trkpt lat="37.4772030" lon="-4.4409400">
        <ele>453.8</ele>
        <time>2021-12-28T19:34:30Z</time>
      </trkpt>
      <trkpt lat="37.4771650" lon="-4.4409680">
        <ele>454.0</ele>
        <time>2021-12-28T19:34:31Z</time>
      </trkpt>
      <trkpt lat="37.4771260" lon="-4.4410000">
        <ele>454.0</ele>
        <time>2021-12-28T19:34:32Z</time>
      </trkpt>
      <trkpt lat="37.4770910" lon="-4.4410320">
        <ele>454.0</ele>
        <time>2021-12-28T19:34:33Z</time>
      </trkpt>
      <trkpt lat="37.4770590" lon="-4.4410640">
        <ele>454.0</ele>
        <time>2021-12-28T19:34:34Z</time>
      </trkpt>
      <trkpt lat="37.4770240" lon="-4.4410970">
        <ele>454.0</ele>
        <time>2021-12-28T19:34:35Z</time>
      </trkpt>
      <trkpt lat="37.4769890" lon="-4.4411280">
        <ele>454.0</ele>
        <time>2021-12-28T19:34:36Z</time>
      </trkpt>
      <trkpt lat="37.4769600" lon="-4.4411580">
        <ele>454.2</ele>
        <time>2021-12-28T19:34:37Z</time>
      </trkpt>
      <trkpt lat="37.4769310" lon="-4.4411900">
        <ele>454.2</ele>
        <time>2021-12-28T19:34:38Z</time>
      </trkpt>
      <trkpt lat="37.4769060" lon="-4.4412220">
        <ele>454.2</ele>
        <time>2021-12-28T19:34:39Z</time>
      </trkpt>
      <trkpt lat="37.4768770" lon="-4.4412520">
        <ele>454.2</ele>
        <time>2021-12-28T19:34:40Z</time>
      </trkpt>
      <trkpt lat="37.4768450" lon="-4.4412780">
        <ele>454.4</ele>
        <time>2021-12-28T19:34:41Z</time>
      </trkpt>
      <trkpt lat="37.4768100" lon="-4.4413000">
        <ele>454.4</ele>
        <time>2021-12-28T19:34:42Z</time>
      </trkpt>
      <trkpt lat="37.4767810" lon="-4.4413200">
        <ele>454.4</ele>
        <time>2021-12-28T19:34:43Z</time>
      </trkpt>
      <trkpt lat="37.4767460" lon="-4.4413380">
        <ele>454.4</ele>
        <time>2021-12-28T19:34:44Z</time>
      </trkpt>
      <trkpt lat="37.4767200" lon="-4.4413530">
        <ele>454.6</ele>
        <time>2021-12-28T19:34:45Z</time>
      </trkpt>
      <trkpt lat="37.4767010" lon="-4.4413620">
        <ele>454.8</ele>
        <time>2021-12-28T19:34:46Z</time>
      </trkpt>
      <trkpt lat="37.4766820" lon="-4.4413630">
        <ele>454.8</ele>
        <time>2021-12-28T19:34:47Z</time>
      </trkpt>
      <trkpt lat="37.4766820" lon="-4.4413630">
        <ele>455.0</ele>
        <time>2021-12-28T19:34:48Z</time>
      </trkpt>
      <trkpt lat="37.4766530" lon="-4.4413580">
        <ele>455.2</ele>
        <time>2021-12-28T19:34:49Z</time>
      </trkpt>
      <trkpt lat="37.4766340" lon="-4.4413470">
        <ele>455.2</ele>
        <time>2021-12-28T19:34:50Z</time>
      </trkpt>
      <trkpt lat="37.4766140" lon="-4.4413320">
        <ele>455.4</ele>
        <time>2021-12-28T19:34:51Z</time>
      </trkpt>
      <trkpt lat="37.4765980" lon="-4.4413130">
        <ele>455.4</ele>
        <time>2021-12-28T19:34:52Z</time>
      </trkpt>
      <trkpt lat="37.4765790" lon="-4.4412880">
        <ele>455.4</ele>
        <time>2021-12-28T19:34:53Z</time>
      </trkpt>
      <trkpt lat="37.4765630" lon="-4.4412600">
        <ele>455.6</ele>
        <time>2021-12-28T19:34:54Z</time>
      </trkpt>
      <trkpt lat="37.4765470" lon="-4.4412350">
        <ele>455.6</ele>
        <time>2021-12-28T19:34:55Z</time>
      </trkpt>
      <trkpt lat="37.4765340" lon="-4.4412080">
        <ele>455.6</ele>
        <time>2021-12-28T19:34:56Z</time>
      </trkpt>
      <trkpt lat="37.4765220" lon="-4.4411900">
        <ele>455.8</ele>
        <time>2021-12-28T19:34:57Z</time>
      </trkpt>
      <trkpt lat="37.4765020" lon="-4.4411800">
        <ele>455.8</ele>
        <time>2021-12-28T19:34:58Z</time>
      </trkpt>
      <trkpt lat="37.4765020" lon="-4.4411800">
        <ele>455.8</ele>
        <time>2021-12-28T19:34:59Z</time>
      </trkpt>
      <trkpt lat="37.4764830" lon="-4.4411820">
        <ele>456.0</ele>
        <time>2021-12-28T19:35:00Z</time>
      </trkpt>
      <trkpt lat="37.4764830" lon="-4.4411820">
        <ele>456.0</ele>
        <time>2021-12-28T19:35:01Z</time>
      </trkpt>
      <trkpt lat="37.4764830" lon="-4.4411820">
        <ele>456.0</ele>
        <time>2021-12-28T19:35:02Z</time>
      </trkpt>
      <trkpt lat="37.4764830" lon="-4.4411820">
        <ele>456.0</ele>
        <time>2021-12-28T19:35:03Z</time>
      </trkpt>
      <trkpt lat="37.4764830" lon="-4.4411820">
        <ele>456.0</ele>
        <time>2021-12-28T19:35:04Z</time>
      </trkpt>
      <trkpt lat="37.4764830" lon="-4.4411820">
        <ele>456.2</ele>
        <time>2021-12-28T19:35:05Z</time>
      </trkpt>
      <trkpt lat="37.4763100" lon="-4.4411270">
        <ele>457.2</ele>
        <time>2021-12-28T19:36:19Z</time>
      </trkpt>
      <trkpt lat="37.4762720" lon="-4.4411140">
        <ele>457.4</ele>
        <time>2021-12-28T19:36:20Z</time>
      </trkpt>
      <trkpt lat="37.4762340" lon="-4.4410950">
        <ele>457.4</ele>
        <time>2021-12-28T19:36:21Z</time>
      </trkpt>
      <trkpt lat="37.4761950" lon="-4.4410740">
        <ele>457.4</ele>
        <time>2021-12-28T19:36:22Z</time>
      </trkpt>
      <trkpt lat="37.4761570" lon="-4.4410520">
        <ele>457.6</ele>
        <time>2021-12-28T19:36:23Z</time>
      </trkpt>
      <trkpt lat="37.4761250" lon="-4.4410330">
        <ele>457.6</ele>
        <time>2021-12-28T19:36:24Z</time>
      </trkpt>
      <trkpt lat="37.4760860" lon="-4.4410200">
        <ele>457.8</ele>
        <time>2021-12-28T19:36:25Z</time>
      </trkpt>
      <trkpt lat="37.4760510" lon="-4.4410120">
        <ele>457.8</ele>
        <time>2021-12-28T19:36:26Z</time>
      </trkpt>
      <trkpt lat="37.4760130" lon="-4.4410100">
        <ele>458.0</ele>
        <time>2021-12-28T19:36:27Z</time>
      </trkpt>
      <trkpt lat="37.4759740" lon="-4.4410030">
        <ele>458.2</ele>
        <time>2021-12-28T19:36:28Z</time>
      </trkpt>
      <trkpt lat="37.4759360" lon="-4.4409970">
        <ele>458.2</ele>
        <time>2021-12-28T19:36:29Z</time>
      </trkpt>
      <trkpt lat="37.4758980" lon="-4.4409830">
        <ele>458.4</ele>
        <time>2021-12-28T19:36:30Z</time>
      </trkpt>
      <trkpt lat="37.4758560" lon="-4.4409730">
        <ele>458.6</ele>
        <time>2021-12-28T19:36:31Z</time>
      </trkpt>
      <trkpt lat="37.4758180" lon="-4.4409560">
        <ele>458.6</ele>
        <time>2021-12-28T19:36:32Z</time>
      </trkpt>
      <trkpt lat="37.4757760" lon="-4.4409420">
        <ele>458.8</ele>
        <time>2021-12-28T19:36:33Z</time>
      </trkpt>
      <trkpt lat="37.4757340" lon="-4.4409320">
        <ele>459.0</ele>
        <time>2021-12-28T19:36:34Z</time>
      </trkpt>
      <trkpt lat="37.4756960" lon="-4.4409150">
        <ele>459.0</ele>
        <time>2021-12-28T19:36:35Z</time>
      </trkpt>
      <trkpt lat="37.4756580" lon="-4.4409030">
        <ele>459.2</ele>
        <time>2021-12-28T19:36:36Z</time>
      </trkpt>
      <trkpt lat="37.4756190" lon="-4.4408860">
        <ele>459.2</ele>
        <time>2021-12-28T19:36:37Z</time>
      </trkpt>
      <trkpt lat="37.4755870" lon="-4.4408760">
        <ele>459.4</ele>
        <time>2021-12-28T19:36:38Z</time>
      </trkpt>
      <trkpt lat="37.4755520" lon="-4.4408650">
        <ele>459.6</ele>
        <time>2021-12-28T19:36:39Z</time>
      </trkpt>
      <trkpt lat="37.4755100" lon="-4.4408550">
        <ele>459.6</ele>
        <time>2021-12-28T19:36:40Z</time>
      </trkpt>
      <trkpt lat="37.4754690" lon="-4.4408460">
        <ele>459.8</ele>
        <time>2021-12-28T19:36:41Z</time>
      </trkpt>
      <trkpt lat="37.4754300" lon="-4.4408350">
        <ele>460.0</ele>
        <time>2021-12-28T19:36:42Z</time>
      </trkpt>
      <trkpt lat="37.4753950" lon="-4.4408200">
        <ele>460.0</ele>
        <time>2021-12-28T19:36:43Z</time>
      </trkpt>
      <trkpt lat="37.4753600" lon="-4.4408070">
        <ele>460.2</ele>
        <time>2021-12-28T19:36:44Z</time>
      </trkpt>
      <trkpt lat="37.4753280" lon="-4.4407980">
        <ele>460.4</ele>
        <time>2021-12-28T19:36:45Z</time>
      </trkpt>
      <trkpt lat="37.4752990" lon="-4.4407900">
        <ele>460.6</ele>
        <time>2021-12-28T19:36:46Z</time>
      </trkpt>
      <trkpt lat="37.4752740" lon="-4.4407820">
        <ele>460.8</ele>
        <time>2021-12-28T19:36:47Z</time>
      </trkpt>
      <trkpt lat="37.4752540" lon="-4.4407770">
        <ele>461.0</ele>
        <time>2021-12-28T19:36:48Z</time>
      </trkpt>
      <trkpt lat="37.4752190" lon="-4.4407670">
        <ele>461.2</ele>
        <time>2021-12-28T19:36:49Z</time>
      </trkpt>
      <trkpt lat="37.4751840" lon="-4.4407580">
        <ele>461.2</ele>
        <time>2021-12-28T19:36:50Z</time>
      </trkpt>
      <trkpt lat="37.4751550" lon="-4.4407480">
        <ele>461.4</ele>
        <time>2021-12-28T19:36:51Z</time>
      </trkpt>
      <trkpt lat="37.4751200" lon="-4.4407350">
        <ele>461.6</ele>
        <time>2021-12-28T19:36:52Z</time>
      </trkpt>
      <trkpt lat="37.4750850" lon="-4.4407220">
        <ele>461.8</ele>
        <time>2021-12-28T19:36:53Z</time>
      </trkpt>
      <trkpt lat="37.4750530" lon="-4.4407030">
        <ele>461.8</ele>
        <time>2021-12-28T19:36:54Z</time>
      </trkpt>
      <trkpt lat="37.4750210" lon="-4.4406870">
        <ele>462.0</ele>
        <time>2021-12-28T19:36:55Z</time>
      </trkpt>
      <trkpt lat="37.4749820" lon="-4.4406700">
        <ele>462.0</ele>
        <time>2021-12-28T19:36:56Z</time>
      </trkpt>
      <trkpt lat="37.4749540" lon="-4.4406580">
        <ele>462.2</ele>
        <time>2021-12-28T19:36:57Z</time>
      </trkpt>
      <trkpt lat="37.4749180" lon="-4.4406450">
        <ele>462.4</ele>
        <time>2021-12-28T19:36:58Z</time>
      </trkpt>
      <trkpt lat="37.4748860" lon="-4.4406380">
        <ele>462.4</ele>
        <time>2021-12-28T19:36:59Z</time>
      </trkpt>
      <trkpt lat="37.4748640" lon="-4.4406350">
        <ele>462.6</ele>
        <time>2021-12-28T19:37:00Z</time>
      </trkpt>
      <trkpt lat="37.4748450" lon="-4.4406320">
        <ele>462.8</ele>
        <time>2021-12-28T19:37:01Z</time>
      </trkpt>
      <trkpt lat="37.4748450" lon="-4.4406320">
        <ele>463.0</ele>
        <time>2021-12-28T19:37:02Z</time>
      </trkpt>
      <trkpt lat="37.4748220" lon="-4.4406230">
        <ele>463.0</ele>
        <time>2021-12-28T19:37:03Z</time>
      </trkpt>
      <trkpt lat="37.4748220" lon="-4.4406230">
        <ele>463.2</ele>
        <time>2021-12-28T19:37:04Z</time>
      </trkpt>
      <trkpt lat="37.4748220" lon="-4.4406230">
        <ele>463.4</ele>
        <time>2021-12-28T19:37:05Z</time>
      </trkpt>
      <trkpt lat="37.4748060" lon="-4.4406120">
        <ele>463.6</ele>
        <time>2021-12-28T19:37:06Z</time>
      </trkpt>
      <trkpt lat="37.4748060" lon="-4.4406120">
        <ele>463.8</ele>
        <time>2021-12-28T19:37:07Z</time>
      </trkpt>
      <trkpt lat="37.4748060" lon="-4.4406120">
        <ele>464.0</ele>
        <time>2021-12-28T19:37:08Z</time>
      </trkpt>
      <trkpt lat="37.4748060" lon="-4.4406120">
        <ele>464.0</ele>
        <time>2021-12-28T19:37:09Z</time>
      </trkpt>
      <trkpt lat="37.4748060" lon="-4.4406120">
        <ele>467.0</ele>
        <time>2021-12-28T19:37:21Z</time>
      </trkpt>
      <trkpt lat="37.4747520" lon="-4.4405830">
        <ele>467.4</ele>
        <time>2021-12-28T19:37:22Z</time>
      </trkpt>
      <trkpt lat="37.4747520" lon="-4.4405830">
        <ele>467.6</ele>
        <time>2021-12-28T19:37:23Z</time>
      </trkpt>
      <trkpt lat="37.4747230" lon="-4.4405600">
        <ele>468.0</ele>
        <time>2021-12-28T19:37:24Z</time>
      </trkpt>
      <trkpt lat="37.4747230" lon="-4.4405600">
        <ele>468.4</ele>
        <time>2021-12-28T19:37:25Z</time>
      </trkpt>
      <trkpt lat="37.4747010" lon="-4.4405230">
        <ele>468.8</ele>
        <time>2021-12-28T19:37:26Z</time>
      </trkpt>
      <trkpt lat="37.4747010" lon="-4.4405230">
        <ele>469.0</ele>
        <time>2021-12-28T19:37:27Z</time>
      </trkpt>
      <trkpt lat="37.4746720" lon="-4.4405080">
        <ele>469.4</ele>
        <time>2021-12-28T19:37:28Z</time>
      </trkpt>
      <trkpt lat="37.4746720" lon="-4.4405080">
        <ele>469.8</ele>
        <time>2021-12-28T19:37:29Z</time>
      </trkpt>
      <trkpt lat="37.4746370" lon="-4.4404850">
        <ele>470.2</ele>
        <time>2021-12-28T19:37:30Z</time>
      </trkpt>
      <trkpt lat="37.4746110" lon="-4.4404530">
        <ele>470.4</ele>
        <time>2021-12-28T19:37:31Z</time>
      </trkpt>
      <trkpt lat="37.4746050" lon="-4.4404380">
        <ele>470.4</ele>
        <time>2021-12-28T19:37:32Z</time>
      </trkpt>
      <trkpt lat="37.4746020" lon="-4.4404040">
        <ele>470.4</ele>
        <time>2021-12-28T19:37:33Z</time>
      </trkpt>
      <trkpt lat="37.4746020" lon="-4.4403650">
        <ele>470.4</ele>
        <time>2021-12-28T19:37:34Z</time>
      </trkpt>
      <trkpt lat="37.4746140" lon="-4.4403220">
        <ele>470.4</ele>
        <time>2021-12-28T19:37:35Z</time>
      </trkpt>
      <trkpt lat="37.4746270" lon="-4.4402780">
        <ele>470.4</ele>
        <time>2021-12-28T19:37:36Z</time>
      </trkpt>
      <trkpt lat="37.4746430" lon="-4.4402350">
        <ele>470.2</ele>
        <time>2021-12-28T19:37:37Z</time>
      </trkpt>
      <trkpt lat="37.4746590" lon="-4.4401930">
        <ele>470.2</ele>
        <time>2021-12-28T19:37:38Z</time>
      </trkpt>
      <trkpt lat="37.4746750" lon="-4.4401530">
        <ele>470.0</ele>
        <time>2021-12-28T19:37:39Z</time>
      </trkpt>
      <trkpt lat="37.4746880" lon="-4.4401140">
        <ele>470.0</ele>
        <time>2021-12-28T19:37:40Z</time>
      </trkpt>
      <trkpt lat="37.4747010" lon="-4.4400720">
        <ele>469.8</ele>
        <time>2021-12-28T19:37:41Z</time>
      </trkpt>
      <trkpt lat="37.4747170" lon="-4.4400320">
        <ele>469.6</ele>
        <time>2021-12-28T19:37:42Z</time>
      </trkpt>
      <trkpt lat="37.4747260" lon="-4.4399920">
        <ele>469.6</ele>
        <time>2021-12-28T19:37:43Z</time>
      </trkpt>
      <trkpt lat="37.4747390" lon="-4.4399520">
        <ele>469.4</ele>
        <time>2021-12-28T19:37:44Z</time>
      </trkpt>
      <trkpt lat="37.4747550" lon="-4.4399080">
        <ele>469.2</ele>
        <time>2021-12-28T19:37:45Z</time>
      </trkpt>
      <trkpt lat="37.4747680" lon="-4.4398650">
        <ele>469.2</ele>
        <time>2021-12-28T19:37:46Z</time>
      </trkpt>
      <trkpt lat="37.4747810" lon="-4.4398230">
        <ele>469.0</ele>
        <time>2021-12-28T19:37:47Z</time>
      </trkpt>
      <trkpt lat="37.4747940" lon="-4.4397850">
        <ele>469.0</ele>
        <time>2021-12-28T19:37:48Z</time>
      </trkpt>
      <trkpt lat="37.4748030" lon="-4.4397470">
        <ele>468.8</ele>
        <time>2021-12-28T19:37:49Z</time>
      </trkpt>
      <trkpt lat="37.4748190" lon="-4.4397100">
        <ele>468.8</ele>
        <time>2021-12-28T19:37:50Z</time>
      </trkpt>
      <trkpt lat="37.4748350" lon="-4.4396720">
        <ele>468.6</ele>
        <time>2021-12-28T19:37:51Z</time>
      </trkpt>
      <trkpt lat="37.4748450" lon="-4.4396350">
        <ele>468.6</ele>
        <time>2021-12-28T19:37:52Z</time>
      </trkpt>
      <trkpt lat="37.4748610" lon="-4.4395950">
        <ele>468.6</ele>
        <time>2021-12-28T19:37:53Z</time>
      </trkpt>
      <trkpt lat="37.4748800" lon="-4.4395480">
        <ele>468.6</ele>
        <time>2021-12-28T19:37:54Z</time>
      </trkpt>
      <trkpt lat="37.4748990" lon="-4.4395060">
        <ele>468.6</ele>
        <time>2021-12-28T19:37:55Z</time>
      </trkpt>
      <trkpt lat="37.4749180" lon="-4.4394680">
        <ele>468.6</ele>
        <time>2021-12-28T19:37:56Z</time>
      </trkpt>
      <trkpt lat="37.4749310" lon="-4.4394300">
        <ele>468.8</ele>
        <time>2021-12-28T19:37:57Z</time>
      </trkpt>
      <trkpt lat="37.4749410" lon="-4.4393940">
        <ele>468.8</ele>
        <time>2021-12-28T19:37:58Z</time>
      </trkpt>
      <trkpt lat="37.4749540" lon="-4.4393570">
        <ele>469.0</ele>
        <time>2021-12-28T19:37:59Z</time>
      </trkpt>
      <trkpt lat="37.4749660" lon="-4.4393150">
        <ele>469.0</ele>
        <time>2021-12-28T19:38:00Z</time>
      </trkpt>
      <trkpt lat="37.4749820" lon="-4.4392730">
        <ele>469.2</ele>
        <time>2021-12-28T19:38:01Z</time>
      </trkpt>
      <trkpt lat="37.4749950" lon="-4.4392350">
        <ele>469.2</ele>
        <time>2021-12-28T19:38:02Z</time>
      </trkpt>
      <trkpt lat="37.4750110" lon="-4.4391950">
        <ele>469.2</ele>
        <time>2021-12-28T19:38:03Z</time>
      </trkpt>
      <trkpt lat="37.4750210" lon="-4.4391550">
        <ele>469.4</ele>
        <time>2021-12-28T19:38:04Z</time>
      </trkpt>
      <trkpt lat="37.4750340" lon="-4.4391060">
        <ele>469.4</ele>
        <time>2021-12-28T19:38:05Z</time>
      </trkpt>
      <trkpt lat="37.4750430" lon="-4.4390680">
        <ele>469.6</ele>
        <time>2021-12-28T19:38:06Z</time>
      </trkpt>
      <trkpt lat="37.4750530" lon="-4.4390250">
        <ele>469.8</ele>
        <time>2021-12-28T19:38:07Z</time>
      </trkpt>
      <trkpt lat="37.4750660" lon="-4.4389870">
        <ele>469.8</ele>
        <time>2021-12-28T19:38:08Z</time>
      </trkpt>
      <trkpt lat="37.4750780" lon="-4.4389470">
        <ele>470.0</ele>
        <time>2021-12-28T19:38:09Z</time>
      </trkpt>
      <trkpt lat="37.4750910" lon="-4.4389070">
        <ele>470.2</ele>
        <time>2021-12-28T19:38:10Z</time>
      </trkpt>
      <trkpt lat="37.4751010" lon="-4.4388680">
        <ele>470.4</ele>
        <time>2021-12-28T19:38:11Z</time>
      </trkpt>
      <trkpt lat="37.4751100" lon="-4.4388260">
        <ele>470.6</ele>
        <time>2021-12-28T19:38:12Z</time>
      </trkpt>
      <trkpt lat="37.4751230" lon="-4.4387880">
        <ele>470.6</ele>
        <time>2021-12-28T19:38:13Z</time>
      </trkpt>
      <trkpt lat="37.4751390" lon="-4.4387460">
        <ele>470.8</ele>
        <time>2021-12-28T19:38:14Z</time>
      </trkpt>
      <trkpt lat="37.4751520" lon="-4.4387050">
        <ele>471.0</ele>
        <time>2021-12-28T19:38:15Z</time>
      </trkpt>
      <trkpt lat="37.4751620" lon="-4.4386640">
        <ele>471.0</ele>
        <time>2021-12-28T19:38:16Z</time>
      </trkpt>
      <trkpt lat="37.4751740" lon="-4.4386220">
        <ele>471.2</ele>
        <time>2021-12-28T19:38:17Z</time>
      </trkpt>
      <trkpt lat="37.4751810" lon="-4.4385800">
        <ele>471.2</ele>
        <time>2021-12-28T19:38:18Z</time>
      </trkpt>
      <trkpt lat="37.4751900" lon="-4.4385420">
        <ele>471.2</ele>
        <time>2021-12-28T19:38:19Z</time>
      </trkpt>
      <trkpt lat="37.4751970" lon="-4.4385050">
        <ele>471.2</ele>
        <time>2021-12-28T19:38:20Z</time>
      </trkpt>
      <trkpt lat="37.4752100" lon="-4.4384660">
        <ele>471.0</ele>
        <time>2021-12-28T19:38:21Z</time>
      </trkpt>
      <trkpt lat="37.4752190" lon="-4.4384280">
        <ele>471.0</ele>
        <time>2021-12-28T19:38:22Z</time>
      </trkpt>
      <trkpt lat="37.4752320" lon="-4.4383900">
        <ele>470.8</ele>
        <time>2021-12-28T19:38:23Z</time>
      </trkpt>
      <trkpt lat="37.4752380" lon="-4.4383520">
        <ele>470.6</ele>
        <time>2021-12-28T19:38:24Z</time>
      </trkpt>
      <trkpt lat="37.4752510" lon="-4.4383100">
        <ele>470.6</ele>
        <time>2021-12-28T19:38:25Z</time>
      </trkpt>
      <trkpt lat="37.4752610" lon="-4.4382650">
        <ele>470.4</ele>
        <time>2021-12-28T19:38:26Z</time>
      </trkpt>
      <trkpt lat="37.4752740" lon="-4.4382230">
        <ele>470.4</ele>
        <time>2021-12-28T19:38:27Z</time>
      </trkpt>
      <trkpt lat="37.4752830" lon="-4.4381820">
        <ele>470.2</ele>
        <time>2021-12-28T19:38:28Z</time>
      </trkpt>
      <trkpt lat="37.4752990" lon="-4.4381420">
        <ele>470.2</ele>
        <time>2021-12-28T19:38:29Z</time>
      </trkpt>
      <trkpt lat="37.4753150" lon="-4.4381020">
        <ele>470.2</ele>
        <time>2021-12-28T19:38:30Z</time>
      </trkpt>
      <trkpt lat="37.4753280" lon="-4.4380630">
        <ele>470.2</ele>
        <time>2021-12-28T19:38:31Z</time>
      </trkpt>
      <trkpt lat="37.4753410" lon="-4.4380240">
        <ele>470.2</ele>
        <time>2021-12-28T19:38:32Z</time>
      </trkpt>
      <trkpt lat="37.4753540" lon="-4.4379800">
        <ele>470.2</ele>
        <time>2021-12-28T19:38:33Z</time>
      </trkpt>
      <trkpt lat="37.4753570" lon="-4.4379370">
        <ele>470.2</ele>
        <time>2021-12-28T19:38:34Z</time>
      </trkpt>
      <trkpt lat="37.4753630" lon="-4.4378930">
        <ele>470.2</ele>
        <time>2021-12-28T19:38:35Z</time>
      </trkpt>
      <trkpt lat="37.4753760" lon="-4.4378520">
        <ele>470.2</ele>
        <time>2021-12-28T19:38:36Z</time>
      </trkpt>
      <trkpt lat="37.4753890" lon="-4.4378100">
        <ele>470.2</ele>
        <time>2021-12-28T19:38:37Z</time>
      </trkpt>
      <trkpt lat="37.4753950" lon="-4.4377660">
        <ele>470.2</ele>
        <time>2021-12-28T19:38:38Z</time>
      </trkpt>
      <trkpt lat="37.4754080" lon="-4.4377250">
        <ele>470.2</ele>
        <time>2021-12-28T19:38:39Z</time>
      </trkpt>
      <trkpt lat="37.4754210" lon="-4.4376830">
        <ele>470.2</ele>
        <time>2021-12-28T19:38:40Z</time>
      </trkpt>
      <trkpt lat="37.4754340" lon="-4.4376420">
        <ele>470.0</ele>
        <time>2021-12-28T19:38:41Z</time>
      </trkpt>
      <trkpt lat="37.4754430" lon="-4.4376000">
        <ele>470.0</ele>
        <time>2021-12-28T19:38:42Z</time>
      </trkpt>
      <trkpt lat="37.4754560" lon="-4.4375620">
        <ele>470.0</ele>
        <time>2021-12-28T19:38:43Z</time>
      </trkpt>
      <trkpt lat="37.4754690" lon="-4.4375230">
        <ele>470.0</ele>
        <time>2021-12-28T19:38:44Z</time>
      </trkpt>
      <trkpt lat="37.4754750" lon="-4.4374820">
        <ele>470.0</ele>
        <time>2021-12-28T19:38:45Z</time>
      </trkpt>
      <trkpt lat="37.4754880" lon="-4.4374400">
        <ele>470.0</ele>
        <time>2021-12-28T19:38:46Z</time>
      </trkpt>
      <trkpt lat="37.4754980" lon="-4.4374000">
        <ele>470.0</ele>
        <time>2021-12-28T19:38:47Z</time>
      </trkpt>
      <trkpt lat="37.4755140" lon="-4.4373580">
        <ele>470.0</ele>
        <time>2021-12-28T19:38:48Z</time>
      </trkpt>
      <trkpt lat="37.4755260" lon="-4.4373170">
        <ele>470.0</ele>
        <time>2021-12-28T19:38:49Z</time>
      </trkpt>
      <trkpt lat="37.4755330" lon="-4.4372770">
        <ele>470.0</ele>
        <time>2021-12-28T19:38:50Z</time>
      </trkpt>
      <trkpt lat="37.4755390" lon="-4.4372340">
        <ele>470.0</ele>
        <time>2021-12-28T19:38:51Z</time>
      </trkpt>
      <trkpt lat="37.4755520" lon="-4.4371920">
        <ele>470.0</ele>
        <time>2021-12-28T19:38:52Z</time>
      </trkpt>
      <trkpt lat="37.4755620" lon="-4.4371520">
        <ele>470.0</ele>
        <time>2021-12-28T19:38:53Z</time>
      </trkpt>
      <trkpt lat="37.4755740" lon="-4.4371120">
        <ele>470.0</ele>
        <time>2021-12-28T19:38:54Z</time>
      </trkpt>
      <trkpt lat="37.4755810" lon="-4.4370780">
        <ele>470.0</ele>
        <time>2021-12-28T19:38:55Z</time>
      </trkpt>
      <trkpt lat="37.4755970" lon="-4.4370300">
        <ele>469.8</ele>
        <time>2021-12-28T19:38:56Z</time>
      </trkpt>
      <trkpt lat="37.4756100" lon="-4.4369900">
        <ele>469.8</ele>
        <time>2021-12-28T19:38:57Z</time>
      </trkpt>
      <trkpt lat="37.4756190" lon="-4.4369500">
        <ele>469.8</ele>
        <time>2021-12-28T19:38:58Z</time>
      </trkpt>
      <trkpt lat="37.4756290" lon="-4.4369100">
        <ele>469.8</ele>
        <time>2021-12-28T19:38:59Z</time>
      </trkpt>
      <trkpt lat="37.4756350" lon="-4.4368720">
        <ele>469.8</ele>
        <time>2021-12-28T19:39:00Z</time>
      </trkpt>
      <trkpt lat="37.4756420" lon="-4.4368320">
        <ele>469.8</ele>
        <time>2021-12-28T19:39:01Z</time>
      </trkpt>
      <trkpt lat="37.4756580" lon="-4.4367950">
        <ele>469.8</ele>
        <time>2021-12-28T19:39:02Z</time>
      </trkpt>
      <trkpt lat="37.4756740" lon="-4.4367580">
        <ele>469.8</ele>
        <time>2021-12-28T19:39:03Z</time>
      </trkpt>
      <trkpt lat="37.4756860" lon="-4.4367180">
        <ele>469.8</ele>
        <time>2021-12-28T19:39:04Z</time>
      </trkpt>
      <trkpt lat="37.4756960" lon="-4.4366800">
        <ele>469.8</ele>
        <time>2021-12-28T19:39:05Z</time>
      </trkpt>
      <trkpt lat="37.4757060" lon="-4.4366380">
        <ele>469.8</ele>
        <time>2021-12-28T19:39:06Z</time>
      </trkpt>
      <trkpt lat="37.4757120" lon="-4.4365970">
        <ele>469.8</ele>
        <time>2021-12-28T19:39:07Z</time>
      </trkpt>
      <trkpt lat="37.4757180" lon="-4.4365550">
        <ele>470.0</ele>
        <time>2021-12-28T19:39:08Z</time>
      </trkpt>
      <trkpt lat="37.4757280" lon="-4.4365150">
        <ele>470.0</ele>
        <time>2021-12-28T19:39:09Z</time>
      </trkpt>
      <trkpt lat="37.4757380" lon="-4.4364750">
        <ele>470.2</ele>
        <time>2021-12-28T19:39:10Z</time>
      </trkpt>
      <trkpt lat="37.4757540" lon="-4.4364350">
        <ele>470.4</ele>
        <time>2021-12-28T19:39:11Z</time>
      </trkpt>
      <trkpt lat="37.4757700" lon="-4.4363950">
        <ele>470.6</ele>
        <time>2021-12-28T19:39:12Z</time>
      </trkpt>
      <trkpt lat="37.4757790" lon="-4.4363550">
        <ele>470.6</ele>
        <time>2021-12-28T19:39:13Z</time>
      </trkpt>
      <trkpt lat="37.4757950" lon="-4.4363150">
        <ele>470.8</ele>
        <time>2021-12-28T19:39:14Z</time>
      </trkpt>
      <trkpt lat="37.4758050" lon="-4.4362750">
        <ele>471.0</ele>
        <time>2021-12-28T19:39:15Z</time>
      </trkpt>
      <trkpt lat="37.4758140" lon="-4.4362350">
        <ele>471.0</ele>
        <time>2021-12-28T19:39:16Z</time>
      </trkpt>
      <trkpt lat="37.4758180" lon="-4.4361950">
        <ele>471.0</ele>
        <time>2021-12-28T19:39:17Z</time>
      </trkpt>
      <trkpt lat="37.4758300" lon="-4.4361580">
        <ele>471.0</ele>
        <time>2021-12-28T19:39:18Z</time>
      </trkpt>
      <trkpt lat="37.4758400" lon="-4.4361180">
        <ele>471.2</ele>
        <time>2021-12-28T19:39:19Z</time>
      </trkpt>
      <trkpt lat="37.4758560" lon="-4.4360800">
        <ele>471.2</ele>
        <time>2021-12-28T19:39:20Z</time>
      </trkpt>
      <trkpt lat="37.4758660" lon="-4.4360400">
        <ele>471.0</ele>
        <time>2021-12-28T19:39:21Z</time>
      </trkpt>
      <trkpt lat="37.4758720" lon="-4.4360020">
        <ele>471.0</ele>
        <time>2021-12-28T19:39:22Z</time>
      </trkpt>
      <trkpt lat="37.4758850" lon="-4.4359630">
        <ele>471.0</ele>
        <time>2021-12-28T19:39:23Z</time>
      </trkpt>
      <trkpt lat="37.4758910" lon="-4.4359240">
        <ele>471.0</ele>
        <time>2021-12-28T19:39:24Z</time>
      </trkpt>
      <trkpt lat="37.4758980" lon="-4.4358850">
        <ele>471.0</ele>
        <time>2021-12-28T19:39:25Z</time>
      </trkpt>
      <trkpt lat="37.4759140" lon="-4.4358470">
        <ele>471.0</ele>
        <time>2021-12-28T19:39:26Z</time>
      </trkpt>
      <trkpt lat="37.4759300" lon="-4.4358080">
        <ele>471.2</ele>
        <time>2021-12-28T19:39:27Z</time>
      </trkpt>
      <trkpt lat="37.4759360" lon="-4.4357680">
        <ele>471.2</ele>
        <time>2021-12-28T19:39:28Z</time>
      </trkpt>
      <trkpt lat="37.4759490" lon="-4.4357300">
        <ele>471.2</ele>
        <time>2021-12-28T19:39:29Z</time>
      </trkpt>
      <trkpt lat="37.4759580" lon="-4.4356900">
        <ele>471.4</ele>
        <time>2021-12-28T19:39:30Z</time>
      </trkpt>
      <trkpt lat="37.4759680" lon="-4.4356520">
        <ele>471.4</ele>
        <time>2021-12-28T19:39:31Z</time>
      </trkpt>
      <trkpt lat="37.4759840" lon="-4.4356120">
        <ele>471.4</ele>
        <time>2021-12-28T19:39:32Z</time>
      </trkpt>
      <trkpt lat="37.4759970" lon="-4.4355740">
        <ele>471.4</ele>
        <time>2021-12-28T19:39:33Z</time>
      </trkpt>
      <trkpt lat="37.4760100" lon="-4.4355340">
        <ele>471.4</ele>
        <time>2021-12-28T19:39:34Z</time>
      </trkpt>
      <trkpt lat="37.4760220" lon="-4.4354920">
        <ele>471.6</ele>
        <time>2021-12-28T19:39:35Z</time>
      </trkpt>
      <trkpt lat="37.4760320" lon="-4.4354520">
        <ele>471.6</ele>
        <time>2021-12-28T19:39:36Z</time>
      </trkpt>
      <trkpt lat="37.4760380" lon="-4.4354200">
        <ele>471.6</ele>
        <time>2021-12-28T19:39:37Z</time>
      </trkpt>
      <trkpt lat="37.4760540" lon="-4.4353720">
        <ele>471.6</ele>
        <time>2021-12-28T19:39:38Z</time>
      </trkpt>
      <trkpt lat="37.4760640" lon="-4.4353300">
        <ele>471.6</ele>
        <time>2021-12-28T19:39:39Z</time>
      </trkpt>
      <trkpt lat="37.4760700" lon="-4.4352920">
        <ele>471.8</ele>
        <time>2021-12-28T19:39:40Z</time>
      </trkpt>
      <trkpt lat="37.4760830" lon="-4.4352500">
        <ele>471.6</ele>
        <time>2021-12-28T19:39:41Z</time>
      </trkpt>
      <trkpt lat="37.4760900" lon="-4.4352070">
        <ele>471.6</ele>
        <time>2021-12-28T19:39:42Z</time>
      </trkpt>
      <trkpt lat="37.4760960" lon="-4.4351640">
        <ele>471.6</ele>
        <time>2021-12-28T19:39:43Z</time>
      </trkpt>
      <trkpt lat="37.4761090" lon="-4.4351240">
        <ele>471.4</ele>
        <time>2021-12-28T19:39:44Z</time>
      </trkpt>
      <trkpt lat="37.4761150" lon="-4.4350830">
        <ele>471.4</ele>
        <time>2021-12-28T19:39:45Z</time>
      </trkpt>
      <trkpt lat="37.4761280" lon="-4.4350420">
        <ele>471.2</ele>
        <time>2021-12-28T19:39:46Z</time>
      </trkpt>
      <trkpt lat="37.4761340" lon="-4.4349980">
        <ele>471.2</ele>
        <time>2021-12-28T19:39:47Z</time>
      </trkpt>
      <trkpt lat="37.4761440" lon="-4.4349550">
        <ele>471.0</ele>
        <time>2021-12-28T19:39:48Z</time>
      </trkpt>
      <trkpt lat="37.4761500" lon="-4.4349130">
        <ele>471.0</ele>
        <time>2021-12-28T19:39:49Z</time>
      </trkpt>
      <trkpt lat="37.4761570" lon="-4.4348740">
        <ele>471.0</ele>
        <time>2021-12-28T19:39:50Z</time>
      </trkpt>
      <trkpt lat="37.4761660" lon="-4.4348300">
        <ele>470.8</ele>
        <time>2021-12-28T19:39:51Z</time>
      </trkpt>
      <trkpt lat="37.4761700" lon="-4.4347920">
        <ele>470.8</ele>
        <time>2021-12-28T19:39:52Z</time>
      </trkpt>
      <trkpt lat="37.4761760" lon="-4.4347500">
        <ele>470.6</ele>
        <time>2021-12-28T19:39:53Z</time>
      </trkpt>
      <trkpt lat="37.4761860" lon="-4.4347100">
        <ele>470.4</ele>
        <time>2021-12-28T19:39:54Z</time>
      </trkpt>
      <trkpt lat="37.4761950" lon="-4.4346720">
        <ele>470.4</ele>
        <time>2021-12-28T19:39:55Z</time>
      </trkpt>
      <trkpt lat="37.4762080" lon="-4.4346330">
        <ele>470.2</ele>
        <time>2021-12-28T19:39:56Z</time>
      </trkpt>
      <trkpt lat="37.4762140" lon="-4.4345950">
        <ele>470.2</ele>
        <time>2021-12-28T19:39:57Z</time>
      </trkpt>
      <trkpt lat="37.4762240" lon="-4.4345560">
        <ele>470.0</ele>
        <time>2021-12-28T19:39:58Z</time>
      </trkpt>
      <trkpt lat="37.4762300" lon="-4.4345170">
        <ele>470.0</ele>
        <time>2021-12-28T19:39:59Z</time>
      </trkpt>
      <trkpt lat="37.4762370" lon="-4.4344770">
        <ele>469.8</ele>
        <time>2021-12-28T19:40:00Z</time>
      </trkpt>
      <trkpt lat="37.4762460" lon="-4.4344350">
        <ele>469.8</ele>
        <time>2021-12-28T19:40:01Z</time>
      </trkpt>
      <trkpt lat="37.4762500" lon="-4.4343940">
        <ele>469.8</ele>
        <time>2021-12-28T19:40:02Z</time>
      </trkpt>
      <trkpt lat="37.4762530" lon="-4.4343520">
        <ele>469.8</ele>
        <time>2021-12-28T19:40:03Z</time>
      </trkpt>
      <trkpt lat="37.4762620" lon="-4.4343120">
        <ele>469.8</ele>
        <time>2021-12-28T19:40:04Z</time>
      </trkpt>
      <trkpt lat="37.4762690" lon="-4.4342720">
        <ele>469.8</ele>
        <time>2021-12-28T19:40:05Z</time>
      </trkpt>
      <trkpt lat="37.4762750" lon="-4.4342330">
        <ele>469.8</ele>
        <time>2021-12-28T19:40:06Z</time>
      </trkpt>
      <trkpt lat="37.4762820" lon="-4.4341920">
        <ele>469.8</ele>
        <time>2021-12-28T19:40:07Z</time>
      </trkpt>
      <trkpt lat="37.4762850" lon="-4.4341480">
        <ele>470.0</ele>
        <time>2021-12-28T19:40:08Z</time>
      </trkpt>
      <trkpt lat="37.4762940" lon="-4.4341070">
        <ele>470.0</ele>
        <time>2021-12-28T19:40:09Z</time>
      </trkpt>
      <trkpt lat="37.4763040" lon="-4.4340670">
        <ele>470.0</ele>
        <time>2021-12-28T19:40:10Z</time>
      </trkpt>
      <trkpt lat="37.4763100" lon="-4.4340280">
        <ele>470.0</ele>
        <time>2021-12-28T19:40:11Z</time>
      </trkpt>
      <trkpt lat="37.4763170" lon="-4.4339880">
        <ele>470.2</ele>
        <time>2021-12-28T19:40:12Z</time>
      </trkpt>
      <trkpt lat="37.4763260" lon="-4.4339500">
        <ele>470.2</ele>
        <time>2021-12-28T19:40:13Z</time>
      </trkpt>
      <trkpt lat="37.4763330" lon="-4.4339080">
        <ele>470.4</ele>
        <time>2021-12-28T19:40:14Z</time>
      </trkpt>
      <trkpt lat="37.4763420" lon="-4.4338680">
        <ele>470.4</ele>
        <time>2021-12-28T19:40:15Z</time>
      </trkpt>
      <trkpt lat="37.4763490" lon="-4.4338260">
        <ele>470.4</ele>
        <time>2021-12-28T19:40:16Z</time>
      </trkpt>
      <trkpt lat="37.4763550" lon="-4.4337850">
        <ele>470.6</ele>
        <time>2021-12-28T19:40:17Z</time>
      </trkpt>
      <trkpt lat="37.4763680" lon="-4.4337440">
        <ele>470.6</ele>
        <time>2021-12-28T19:40:18Z</time>
      </trkpt>
      <trkpt lat="37.4763740" lon="-4.4337050">
        <ele>470.8</ele>
        <time>2021-12-28T19:40:19Z</time>
      </trkpt>
      <trkpt lat="37.4763840" lon="-4.4336750">
        <ele>470.8</ele>
        <time>2021-12-28T19:40:20Z</time>
      </trkpt>
      <trkpt lat="37.4764000" lon="-4.4336300">
        <ele>471.0</ele>
        <time>2021-12-28T19:40:21Z</time>
      </trkpt>
      <trkpt lat="37.4764030" lon="-4.4335930">
        <ele>471.2</ele>
        <time>2021-12-28T19:40:22Z</time>
      </trkpt>
      <trkpt lat="37.4764060" lon="-4.4335550">
        <ele>471.4</ele>
        <time>2021-12-28T19:40:23Z</time>
      </trkpt>
      <trkpt lat="37.4764100" lon="-4.4335250">
        <ele>471.4</ele>
        <time>2021-12-28T19:40:24Z</time>
      </trkpt>
      <trkpt lat="37.4764220" lon="-4.4334800">
        <ele>471.4</ele>
        <time>2021-12-28T19:40:25Z</time>
      </trkpt>
      <trkpt lat="37.4764320" lon="-4.4334440">
        <ele>471.4</ele>
        <time>2021-12-28T19:40:26Z</time>
      </trkpt>
      <trkpt lat="37.4764420" lon="-4.4334070">
        <ele>471.4</ele>
        <time>2021-12-28T19:40:27Z</time>
      </trkpt>
      <trkpt lat="37.4764510" lon="-4.4333680">
        <ele>471.4</ele>
        <time>2021-12-28T19:40:28Z</time>
      </trkpt>
      <trkpt lat="37.4764670" lon="-4.4333320">
        <ele>471.4</ele>
        <time>2021-12-28T19:40:29Z</time>
      </trkpt>
      <trkpt lat="37.4764800" lon="-4.4332970">
        <ele>471.6</ele>
        <time>2021-12-28T19:40:30Z</time>
      </trkpt>
      <trkpt lat="37.4764830" lon="-4.4332630">
        <ele>471.6</ele>
        <time>2021-12-28T19:40:31Z</time>
      </trkpt>
      <trkpt lat="37.4764900" lon="-4.4332250">
        <ele>471.6</ele>
        <time>2021-12-28T19:40:32Z</time>
      </trkpt>
      <trkpt lat="37.4764990" lon="-4.4331950">
        <ele>471.6</ele>
        <time>2021-12-28T19:40:33Z</time>
      </trkpt>
      <trkpt lat="37.4765020" lon="-4.4331580">
        <ele>471.6</ele>
        <time>2021-12-28T19:40:34Z</time>
      </trkpt>
      <trkpt lat="37.4765090" lon="-4.4331230">
        <ele>471.8</ele>
        <time>2021-12-28T19:40:35Z</time>
      </trkpt>
      <trkpt lat="37.4765150" lon="-4.4330880">
        <ele>471.8</ele>
        <time>2021-12-28T19:40:36Z</time>
      </trkpt>
      <trkpt lat="37.4765250" lon="-4.4330540">
        <ele>471.8</ele>
        <time>2021-12-28T19:40:37Z</time>
      </trkpt>
      <trkpt lat="37.4765310" lon="-4.4330140">
        <ele>471.8</ele>
        <time>2021-12-28T19:40:38Z</time>
      </trkpt>
      <trkpt lat="37.4765410" lon="-4.4329770">
        <ele>471.8</ele>
        <time>2021-12-28T19:40:39Z</time>
      </trkpt>
      <trkpt lat="37.4765500" lon="-4.4329370">
        <ele>472.0</ele>
        <time>2021-12-28T19:40:40Z</time>
      </trkpt>
      <trkpt lat="37.4765600" lon="-4.4328970">
        <ele>472.0</ele>
        <time>2021-12-28T19:40:41Z</time>
      </trkpt>
      <trkpt lat="37.4765700" lon="-4.4328560">
        <ele>472.2</ele>
        <time>2021-12-28T19:40:42Z</time>
      </trkpt>
      <trkpt lat="37.4765790" lon="-4.4328150">
        <ele>472.2</ele>
        <time>2021-12-28T19:40:43Z</time>
      </trkpt>
      <trkpt lat="37.4765820" lon="-4.4327730">
        <ele>472.2</ele>
        <time>2021-12-28T19:40:44Z</time>
      </trkpt>
      <trkpt lat="37.4765920" lon="-4.4327300">
        <ele>472.2</ele>
        <time>2021-12-28T19:40:45Z</time>
      </trkpt>
      <trkpt lat="37.4766020" lon="-4.4326880">
        <ele>472.2</ele>
        <time>2021-12-28T19:40:46Z</time>
      </trkpt>
      <trkpt lat="37.4766110" lon="-4.4326450">
        <ele>472.2</ele>
        <time>2021-12-28T19:40:47Z</time>
      </trkpt>
      <trkpt lat="37.4766240" lon="-4.4326030">
        <ele>472.2</ele>
        <time>2021-12-28T19:40:48Z</time>
      </trkpt>
      <trkpt lat="37.4766270" lon="-4.4325620">
        <ele>472.4</ele>
        <time>2021-12-28T19:40:49Z</time>
      </trkpt>
      <trkpt lat="37.4766400" lon="-4.4325230">
        <ele>472.4</ele>
        <time>2021-12-28T19:40:50Z</time>
      </trkpt>
      <trkpt lat="37.4766460" lon="-4.4324830">
        <ele>472.6</ele>
        <time>2021-12-28T19:40:51Z</time>
      </trkpt>
      <trkpt lat="37.4766590" lon="-4.4324430">
        <ele>472.6</ele>
        <time>2021-12-28T19:40:52Z</time>
      </trkpt>
      <trkpt lat="37.4766660" lon="-4.4324000">
        <ele>472.6</ele>
        <time>2021-12-28T19:40:53Z</time>
      </trkpt>
      <trkpt lat="37.4766720" lon="-4.4323580">
        <ele>472.8</ele>
        <time>2021-12-28T19:40:54Z</time>
      </trkpt>
      <trkpt lat="37.4766820" lon="-4.4323150">
        <ele>472.8</ele>
        <time>2021-12-28T19:40:55Z</time>
      </trkpt>
      <trkpt lat="37.4766910" lon="-4.4322720">
        <ele>472.8</ele>
        <time>2021-12-28T19:40:56Z</time>
      </trkpt>
      <trkpt lat="37.4767010" lon="-4.4322300">
        <ele>472.8</ele>
        <time>2021-12-28T19:40:57Z</time>
      </trkpt>
      <trkpt lat="37.4767070" lon="-4.4321880">
        <ele>473.0</ele>
        <time>2021-12-28T19:40:58Z</time>
      </trkpt>
      <trkpt lat="37.4767200" lon="-4.4321480">
        <ele>473.0</ele>
        <time>2021-12-28T19:40:59Z</time>
      </trkpt>
      <trkpt lat="37.4767260" lon="-4.4321080">
        <ele>473.0</ele>
        <time>2021-12-28T19:41:00Z</time>
      </trkpt>
      <trkpt lat="37.4767300" lon="-4.4320680">
        <ele>473.0</ele>
        <time>2021-12-28T19:41:01Z</time>
      </trkpt>
      <trkpt lat="37.4767390" lon="-4.4320300">
        <ele>473.2</ele>
        <time>2021-12-28T19:41:02Z</time>
      </trkpt>
      <trkpt lat="37.4767420" lon="-4.4319920">
        <ele>473.2</ele>
        <time>2021-12-28T19:41:03Z</time>
      </trkpt>
      <trkpt lat="37.4767520" lon="-4.4319550">
        <ele>473.2</ele>
        <time>2021-12-28T19:41:04Z</time>
      </trkpt>
      <trkpt lat="37.4767580" lon="-4.4319200">
        <ele>473.2</ele>
        <time>2021-12-28T19:41:05Z</time>
      </trkpt>
      <trkpt lat="37.4767680" lon="-4.4318830">
        <ele>473.2</ele>
        <time>2021-12-28T19:41:06Z</time>
      </trkpt>
      <trkpt lat="37.4767780" lon="-4.4318470">
        <ele>473.2</ele>
        <time>2021-12-28T19:41:07Z</time>
      </trkpt>
      <trkpt lat="37.4767840" lon="-4.4318100">
        <ele>473.2</ele>
        <time>2021-12-28T19:41:08Z</time>
      </trkpt>
      <trkpt lat="37.4767900" lon="-4.4317750">
        <ele>473.4</ele>
        <time>2021-12-28T19:41:09Z</time>
      </trkpt>
      <trkpt lat="37.4768000" lon="-4.4317360">
        <ele>473.4</ele>
        <time>2021-12-28T19:41:10Z</time>
      </trkpt>
      <trkpt lat="37.4768060" lon="-4.4317020">
        <ele>473.4</ele>
        <time>2021-12-28T19:41:11Z</time>
      </trkpt>
      <trkpt lat="37.4768130" lon="-4.4316650">
        <ele>473.6</ele>
        <time>2021-12-28T19:41:12Z</time>
      </trkpt>
      <trkpt lat="37.4768220" lon="-4.4316280">
        <ele>473.6</ele>
        <time>2021-12-28T19:41:13Z</time>
      </trkpt>
      <trkpt lat="37.4768260" lon="-4.4315900">
        <ele>473.8</ele>
        <time>2021-12-28T19:41:14Z</time>
      </trkpt>
      <trkpt lat="37.4768320" lon="-4.4315500">
        <ele>473.8</ele>
        <time>2021-12-28T19:41:15Z</time>
      </trkpt>
      <trkpt lat="37.4768450" lon="-4.4315120">
        <ele>474.0</ele>
        <time>2021-12-28T19:41:16Z</time>
      </trkpt>
      <trkpt lat="37.4768610" lon="-4.4314700">
        <ele>474.0</ele>
        <time>2021-12-28T19:41:17Z</time>
      </trkpt>
      <trkpt lat="37.4768670" lon="-4.4314300">
        <ele>474.2</ele>
        <time>2021-12-28T19:41:18Z</time>
      </trkpt>
      <trkpt lat="37.4768770" lon="-4.4313880">
        <ele>474.2</ele>
        <time>2021-12-28T19:41:19Z</time>
      </trkpt>
      <trkpt lat="37.4768860" lon="-4.4313440">
        <ele>474.4</ele>
        <time>2021-12-28T19:41:20Z</time>
      </trkpt>
      <trkpt lat="37.4768930" lon="-4.4313000">
        <ele>474.6</ele>
        <time>2021-12-28T19:41:21Z</time>
      </trkpt>
      <trkpt lat="37.4768990" lon="-4.4312550">
        <ele>474.8</ele>
        <time>2021-12-28T19:41:22Z</time>
      </trkpt>
      <trkpt lat="37.4769090" lon="-4.4312120">
        <ele>475.0</ele>
        <time>2021-12-28T19:41:23Z</time>
      </trkpt>
      <trkpt lat="37.4769180" lon="-4.4311680">
        <ele>475.2</ele>
        <time>2021-12-28T19:41:24Z</time>
      </trkpt>
      <trkpt lat="37.4769280" lon="-4.4311250">
        <ele>475.4</ele>
        <time>2021-12-28T19:41:25Z</time>
      </trkpt>
      <trkpt lat="37.4769380" lon="-4.4310780">
        <ele>475.6</ele>
        <time>2021-12-28T19:41:26Z</time>
      </trkpt>
      <trkpt lat="37.4769470" lon="-4.4310350">
        <ele>475.8</ele>
        <time>2021-12-28T19:41:27Z</time>
      </trkpt>
      <trkpt lat="37.4769570" lon="-4.4309920">
        <ele>476.2</ele>
        <time>2021-12-28T19:41:28Z</time>
      </trkpt>
      <trkpt lat="37.4769660" lon="-4.4309480">
        <ele>476.4</ele>
        <time>2021-12-28T19:41:29Z</time>
      </trkpt>
      <trkpt lat="37.4769760" lon="-4.4309080">
        <ele>476.6</ele>
        <time>2021-12-28T19:41:30Z</time>
      </trkpt>
      <trkpt lat="37.4769820" lon="-4.4308670">
        <ele>476.8</ele>
        <time>2021-12-28T19:41:31Z</time>
      </trkpt>
      <trkpt lat="37.4769890" lon="-4.4308270">
        <ele>477.0</ele>
        <time>2021-12-28T19:41:32Z</time>
      </trkpt>
      <trkpt lat="37.4770050" lon="-4.4307850">
        <ele>477.2</ele>
        <time>2021-12-28T19:41:33Z</time>
      </trkpt>
      <trkpt lat="37.4770180" lon="-4.4307430">
        <ele>477.4</ele>
        <time>2021-12-28T19:41:34Z</time>
      </trkpt>
      <trkpt lat="37.4770270" lon="-4.4307060">
        <ele>477.6</ele>
        <time>2021-12-28T19:41:35Z</time>
      </trkpt>
      <trkpt lat="37.4770400" lon="-4.4306680">
        <ele>477.8</ele>
        <time>2021-12-28T19:41:36Z</time>
      </trkpt>
      <trkpt lat="37.4770500" lon="-4.4306300">
        <ele>478.0</ele>
        <time>2021-12-28T19:41:37Z</time>
      </trkpt>
      <trkpt lat="37.4770620" lon="-4.4305920">
        <ele>478.0</ele>
        <time>2021-12-28T19:41:38Z</time>
      </trkpt>
      <trkpt lat="37.4770690" lon="-4.4305540">
        <ele>478.2</ele>
        <time>2021-12-28T19:41:39Z</time>
      </trkpt>
      <trkpt lat="37.4770820" lon="-4.4305150">
        <ele>478.2</ele>
        <time>2021-12-28T19:41:40Z</time>
      </trkpt>
      <trkpt lat="37.4770880" lon="-4.4304770">
        <ele>478.2</ele>
        <time>2021-12-28T19:41:41Z</time>
      </trkpt>
      <trkpt lat="37.4770980" lon="-4.4304400">
        <ele>478.4</ele>
        <time>2021-12-28T19:41:42Z</time>
      </trkpt>
      <trkpt lat="37.4771040" lon="-4.4304030">
        <ele>478.4</ele>
        <time>2021-12-28T19:41:43Z</time>
      </trkpt>
      <trkpt lat="37.4771100" lon="-4.4303680">
        <ele>478.6</ele>
        <time>2021-12-28T19:41:44Z</time>
      </trkpt>
      <trkpt lat="37.4771200" lon="-4.4303320">
        <ele>478.8</ele>
        <time>2021-12-28T19:41:45Z</time>
      </trkpt>
      <trkpt lat="37.4771300" lon="-4.4302950">
        <ele>479.0</ele>
        <time>2021-12-28T19:41:46Z</time>
      </trkpt>
      <trkpt lat="37.4771420" lon="-4.4302580">
        <ele>479.0</ele>
        <time>2021-12-28T19:41:47Z</time>
      </trkpt>
      <trkpt lat="37.4771580" lon="-4.4302220">
        <ele>479.4</ele>
        <time>2021-12-28T19:41:48Z</time>
      </trkpt>
      <trkpt lat="37.4771740" lon="-4.4301840">
        <ele>479.6</ele>
        <time>2021-12-28T19:41:49Z</time>
      </trkpt>
      <trkpt lat="37.4771840" lon="-4.4301450">
        <ele>479.8</ele>
        <time>2021-12-28T19:41:50Z</time>
      </trkpt>
      <trkpt lat="37.4771970" lon="-4.4301080">
        <ele>480.2</ele>
        <time>2021-12-28T19:41:51Z</time>
      </trkpt>
      <trkpt lat="37.4772060" lon="-4.4300720">
        <ele>480.4</ele>
        <time>2021-12-28T19:41:52Z</time>
      </trkpt>
      <trkpt lat="37.4772190" lon="-4.4300360">
        <ele>480.6</ele>
        <time>2021-12-28T19:41:53Z</time>
      </trkpt>
      <trkpt lat="37.4772290" lon="-4.4299980">
        <ele>480.8</ele>
        <time>2021-12-28T19:41:54Z</time>
      </trkpt>
      <trkpt lat="37.4772420" lon="-4.4299620">
        <ele>481.0</ele>
        <time>2021-12-28T19:41:55Z</time>
      </trkpt>
      <trkpt lat="37.4772540" lon="-4.4299250">
        <ele>481.2</ele>
        <time>2021-12-28T19:41:56Z</time>
      </trkpt>
      <trkpt lat="37.4772640" lon="-4.4298880">
        <ele>481.2</ele>
        <time>2021-12-28T19:41:57Z</time>
      </trkpt>
      <trkpt lat="37.4772740" lon="-4.4298520">
        <ele>481.4</ele>
        <time>2021-12-28T19:41:58Z</time>
      </trkpt>
      <trkpt lat="37.4772830" lon="-4.4298150">
        <ele>481.6</ele>
        <time>2021-12-28T19:41:59Z</time>
      </trkpt>
      <trkpt lat="37.4772960" lon="-4.4297800">
        <ele>481.8</ele>
        <time>2021-12-28T19:42:00Z</time>
      </trkpt>
      <trkpt lat="37.4773020" lon="-4.4297450">
        <ele>482.0</ele>
        <time>2021-12-28T19:42:01Z</time>
      </trkpt>
      <trkpt lat="37.4773090" lon="-4.4297120">
        <ele>482.2</ele>
        <time>2021-12-28T19:42:02Z</time>
      </trkpt>
      <trkpt lat="37.4773220" lon="-4.4296820">
        <ele>482.2</ele>
        <time>2021-12-28T19:42:03Z</time>
      </trkpt>
      <trkpt lat="37.4773340" lon="-4.4296520">
        <ele>482.4</ele>
        <time>2021-12-28T19:42:04Z</time>
      </trkpt>
      <trkpt lat="37.4773440" lon="-4.4296200">
        <ele>482.6</ele>
        <time>2021-12-28T19:42:05Z</time>
      </trkpt>
      <trkpt lat="37.4773540" lon="-4.4295900">
        <ele>482.6</ele>
        <time>2021-12-28T19:42:06Z</time>
      </trkpt>
      <trkpt lat="37.4773630" lon="-4.4295620">
        <ele>482.8</ele>
        <time>2021-12-28T19:42:07Z</time>
      </trkpt>
      <trkpt lat="37.4773760" lon="-4.4295340">
        <ele>483.0</ele>
        <time>2021-12-28T19:42:08Z</time>
      </trkpt>
      <trkpt lat="37.4773820" lon="-4.4295040">
        <ele>483.0</ele>
        <time>2021-12-28T19:42:09Z</time>
      </trkpt>
      <trkpt lat="37.4773950" lon="-4.4294780">
        <ele>483.2</ele>
        <time>2021-12-28T19:42:10Z</time>
      </trkpt>
      <trkpt lat="37.4774020" lon="-4.4294530">
        <ele>483.4</ele>
        <time>2021-12-28T19:42:11Z</time>
      </trkpt>
      <trkpt lat="37.4774080" lon="-4.4294250">
        <ele>483.4</ele>
        <time>2021-12-28T19:42:12Z</time>
      </trkpt>
      <trkpt lat="37.4774180" lon="-4.4293950">
        <ele>483.6</ele>
        <time>2021-12-28T19:42:13Z</time>
      </trkpt>
      <trkpt lat="37.4774240" lon="-4.4293680">
        <ele>483.6</ele>
        <time>2021-12-28T19:42:14Z</time>
      </trkpt>
      <trkpt lat="37.4774340" lon="-4.4293420">
        <ele>483.6</ele>
        <time>2021-12-28T19:42:15Z</time>
      </trkpt>
      <trkpt lat="37.4774400" lon="-4.4293150">
        <ele>483.8</ele>
        <time>2021-12-28T19:42:16Z</time>
      </trkpt>
      <trkpt lat="37.4774460" lon="-4.4292880">
        <ele>484.0</ele>
        <time>2021-12-28T19:42:17Z</time>
      </trkpt>
      <trkpt lat="37.4774560" lon="-4.4292620">
        <ele>484.0</ele>
        <time>2021-12-28T19:42:18Z</time>
      </trkpt>
      <trkpt lat="37.4774660" lon="-4.4292350">
        <ele>484.2</ele>
        <time>2021-12-28T19:42:19Z</time>
      </trkpt>
      <trkpt lat="37.4774750" lon="-4.4292100">
        <ele>484.4</ele>
        <time>2021-12-28T19:42:20Z</time>
      </trkpt>
      <trkpt lat="37.4774820" lon="-4.4291820">
        <ele>484.4</ele>
        <time>2021-12-28T19:42:21Z</time>
      </trkpt>
      <trkpt lat="37.4774880" lon="-4.4291540">
        <ele>484.6</ele>
        <time>2021-12-28T19:42:22Z</time>
      </trkpt>
      <trkpt lat="37.4775010" lon="-4.4291250">
        <ele>484.8</ele>
        <time>2021-12-28T19:42:23Z</time>
      </trkpt>
      <trkpt lat="37.4775070" lon="-4.4290950">
        <ele>484.8</ele>
        <time>2021-12-28T19:42:24Z</time>
      </trkpt>
      <trkpt lat="37.4775200" lon="-4.4290670">
        <ele>485.0</ele>
        <time>2021-12-28T19:42:25Z</time>
      </trkpt>
      <trkpt lat="37.4775260" lon="-4.4290370">
        <ele>485.0</ele>
        <time>2021-12-28T19:42:26Z</time>
      </trkpt>
      <trkpt lat="37.4775390" lon="-4.4290030">
        <ele>485.2</ele>
        <time>2021-12-28T19:42:27Z</time>
      </trkpt>
      <trkpt lat="37.4775460" lon="-4.4289800">
        <ele>485.2</ele>
        <time>2021-12-28T19:42:28Z</time>
      </trkpt>
      <trkpt lat="37.4775550" lon="-4.4289450">
        <ele>485.4</ele>
        <time>2021-12-28T19:42:29Z</time>
      </trkpt>
      <trkpt lat="37.4775620" lon="-4.4289150">
        <ele>485.4</ele>
        <time>2021-12-28T19:42:30Z</time>
      </trkpt>
      <trkpt lat="37.4775680" lon="-4.4288860">
        <ele>485.6</ele>
        <time>2021-12-28T19:42:31Z</time>
      </trkpt>
      <trkpt lat="37.4775740" lon="-4.4288640">
        <ele>485.6</ele>
        <time>2021-12-28T19:42:32Z</time>
      </trkpt>
      <trkpt lat="37.4775840" lon="-4.4288350">
        <ele>485.8</ele>
        <time>2021-12-28T19:42:33Z</time>
      </trkpt>
      <trkpt lat="37.4776000" lon="-4.4288170">
        <ele>485.8</ele>
        <time>2021-12-28T19:42:34Z</time>
      </trkpt>
      <trkpt lat="37.4776160" lon="-4.4287970">
        <ele>485.8</ele>
        <time>2021-12-28T19:42:35Z</time>
      </trkpt>
      <trkpt lat="37.4776260" lon="-4.4287770">
        <ele>485.8</ele>
        <time>2021-12-28T19:42:36Z</time>
      </trkpt>
      <trkpt lat="37.4776350" lon="-4.4287430">
        <ele>486.0</ele>
        <time>2021-12-28T19:42:37Z</time>
      </trkpt>
      <trkpt lat="37.4776350" lon="-4.4287130">
        <ele>486.0</ele>
        <time>2021-12-28T19:42:38Z</time>
      </trkpt>
      <trkpt lat="37.4776350" lon="-4.4286880">
        <ele>486.0</ele>
        <time>2021-12-28T19:42:39Z</time>
      </trkpt>
      <trkpt lat="37.4776350" lon="-4.4286580">
        <ele>486.0</ele>
        <time>2021-12-28T19:42:40Z</time>
      </trkpt>
      <trkpt lat="37.4776350" lon="-4.4286260">
        <ele>486.0</ele>
        <time>2021-12-28T19:42:41Z</time>
      </trkpt>
      <trkpt lat="37.4776260" lon="-4.4285950">
        <ele>486.0</ele>
        <time>2021-12-28T19:42:42Z</time>
      </trkpt>
      <trkpt lat="37.4776260" lon="-4.4285720">
        <ele>486.0</ele>
        <time>2021-12-28T19:42:43Z</time>
      </trkpt>
      <trkpt lat="37.4776260" lon="-4.4285350">
        <ele>485.8</ele>
        <time>2021-12-28T19:42:44Z</time>
      </trkpt>
      <trkpt lat="37.4776260" lon="-4.4285100">
        <ele>485.8</ele>
        <time>2021-12-28T19:42:45Z</time>
      </trkpt>
      <trkpt lat="37.4776260" lon="-4.4284770">
        <ele>485.8</ele>
        <time>2021-12-28T19:42:46Z</time>
      </trkpt>
      <trkpt lat="37.4776190" lon="-4.4284440">
        <ele>485.8</ele>
        <time>2021-12-28T19:42:47Z</time>
      </trkpt>
      <trkpt lat="37.4776160" lon="-4.4284130">
        <ele>485.8</ele>
        <time>2021-12-28T19:42:48Z</time>
      </trkpt>
      <trkpt lat="37.4776130" lon="-4.4283900">
        <ele>485.8</ele>
        <time>2021-12-28T19:42:49Z</time>
      </trkpt>
      <trkpt lat="37.4776130" lon="-4.4283550">
        <ele>485.8</ele>
        <time>2021-12-28T19:42:50Z</time>
      </trkpt>
      <trkpt lat="37.4776130" lon="-4.4283230">
        <ele>485.8</ele>
        <time>2021-12-28T19:42:51Z</time>
      </trkpt>
      <trkpt lat="37.4776060" lon="-4.4282930">
        <ele>485.8</ele>
        <time>2021-12-28T19:42:52Z</time>
      </trkpt>
      <trkpt lat="37.4776030" lon="-4.4282700">
        <ele>485.6</ele>
        <time>2021-12-28T19:42:53Z</time>
      </trkpt>
      <trkpt lat="37.4776060" lon="-4.4282400">
        <ele>485.6</ele>
        <time>2021-12-28T19:42:54Z</time>
      </trkpt>
      <trkpt lat="37.4776130" lon="-4.4282000">
        <ele>485.6</ele>
        <time>2021-12-28T19:42:55Z</time>
      </trkpt>
      <trkpt lat="37.4776190" lon="-4.4281670">
        <ele>485.6</ele>
        <time>2021-12-28T19:42:56Z</time>
      </trkpt>
      <trkpt lat="37.4776260" lon="-4.4281400">
        <ele>485.6</ele>
        <time>2021-12-28T19:42:57Z</time>
      </trkpt>
      <trkpt lat="37.4776380" lon="-4.4280950">
        <ele>485.8</ele>
        <time>2021-12-28T19:42:58Z</time>
      </trkpt>
      <trkpt lat="37.4776510" lon="-4.4280630">
        <ele>485.8</ele>
        <time>2021-12-28T19:42:59Z</time>
      </trkpt>
      <trkpt lat="37.4776580" lon="-4.4280300">
        <ele>485.8</ele>
        <time>2021-12-28T19:43:00Z</time>
      </trkpt>
      <trkpt lat="37.4776640" lon="-4.4279970">
        <ele>486.0</ele>
        <time>2021-12-28T19:43:01Z</time>
      </trkpt>
      <trkpt lat="37.4776670" lon="-4.4279660">
        <ele>486.0</ele>
        <time>2021-12-28T19:43:02Z</time>
      </trkpt>
      <trkpt lat="37.4776740" lon="-4.4279380">
        <ele>486.2</ele>
        <time>2021-12-28T19:43:03Z</time>
      </trkpt>
      <trkpt lat="37.4776800" lon="-4.4278980">
        <ele>486.4</ele>
        <time>2021-12-28T19:43:04Z</time>
      </trkpt>
      <trkpt lat="37.4776830" lon="-4.4278660">
        <ele>486.6</ele>
        <time>2021-12-28T19:43:05Z</time>
      </trkpt>
      <trkpt lat="37.4776860" lon="-4.4278320">
        <ele>486.8</ele>
        <time>2021-12-28T19:43:06Z</time>
      </trkpt>
      <trkpt lat="37.4776930" lon="-4.4278000">
        <ele>487.0</ele>
        <time>2021-12-28T19:43:07Z</time>
      </trkpt>
      <trkpt lat="37.4776960" lon="-4.4277770">
        <ele>487.2</ele>
        <time>2021-12-28T19:43:08Z</time>
      </trkpt>
      <trkpt lat="37.4776960" lon="-4.4277400">
        <ele>487.2</ele>
        <time>2021-12-28T19:43:09Z</time>
      </trkpt>
      <trkpt lat="37.4776960" lon="-4.4277170">
        <ele>487.4</ele>
        <time>2021-12-28T19:43:10Z</time>
      </trkpt>
      <trkpt lat="37.4776960" lon="-4.4276850">
        <ele>487.6</ele>
        <time>2021-12-28T19:43:11Z</time>
      </trkpt>
      <trkpt lat="37.4777020" lon="-4.4276520">
        <ele>487.8</ele>
        <time>2021-12-28T19:43:12Z</time>
      </trkpt>
      <trkpt lat="37.4777060" lon="-4.4276200">
        <ele>487.8</ele>
        <time>2021-12-28T19:43:13Z</time>
      </trkpt>
      <trkpt lat="37.4777120" lon="-4.4275860">
        <ele>488.0</ele>
        <time>2021-12-28T19:43:14Z</time>
      </trkpt>
      <trkpt lat="37.4777150" lon="-4.4275560">
        <ele>488.2</ele>
        <time>2021-12-28T19:43:15Z</time>
      </trkpt>
      <trkpt lat="37.4777180" lon="-4.4275250">
        <ele>488.4</ele>
        <time>2021-12-28T19:43:16Z</time>
      </trkpt>
      <trkpt lat="37.4777220" lon="-4.4275000">
        <ele>488.6</ele>
        <time>2021-12-28T19:43:17Z</time>
      </trkpt>
      <trkpt lat="37.4777250" lon="-4.4274680">
        <ele>488.6</ele>
        <time>2021-12-28T19:43:18Z</time>
      </trkpt>
      <trkpt lat="37.4777310" lon="-4.4274320">
        <ele>488.8</ele>
        <time>2021-12-28T19:43:19Z</time>
      </trkpt>
      <trkpt lat="37.4777340" lon="-4.4274070">
        <ele>489.2</ele>
        <time>2021-12-28T19:43:20Z</time>
      </trkpt>
      <trkpt lat="37.4777380" lon="-4.4273750">
        <ele>489.4</ele>
        <time>2021-12-28T19:43:21Z</time>
      </trkpt>
      <trkpt lat="37.4777410" lon="-4.4273370">
        <ele>489.6</ele>
        <time>2021-12-28T19:43:22Z</time>
      </trkpt>
      <trkpt lat="37.4777440" lon="-4.4273030">
        <ele>489.8</ele>
        <time>2021-12-28T19:43:23Z</time>
      </trkpt>
      <trkpt lat="37.4777500" lon="-4.4272750">
        <ele>490.0</ele>
        <time>2021-12-28T19:43:24Z</time>
      </trkpt>
      <trkpt lat="37.4777540" lon="-4.4272430">
        <ele>490.2</ele>
        <time>2021-12-28T19:43:25Z</time>
      </trkpt>
      <trkpt lat="37.4777570" lon="-4.4272130">
        <ele>490.4</ele>
        <time>2021-12-28T19:43:26Z</time>
      </trkpt>
      <trkpt lat="37.4777600" lon="-4.4271760">
        <ele>490.6</ele>
        <time>2021-12-28T19:43:27Z</time>
      </trkpt>
      <trkpt lat="37.4777600" lon="-4.4271450">
        <ele>490.8</ele>
        <time>2021-12-28T19:43:28Z</time>
      </trkpt>
      <trkpt lat="37.4777630" lon="-4.4271120">
        <ele>491.0</ele>
        <time>2021-12-28T19:43:29Z</time>
      </trkpt>
      <trkpt lat="37.4777660" lon="-4.4270800">
        <ele>491.2</ele>
        <time>2021-12-28T19:43:30Z</time>
      </trkpt>
      <trkpt lat="37.4777730" lon="-4.4270520">
        <ele>491.4</ele>
        <time>2021-12-28T19:43:31Z</time>
      </trkpt>
      <trkpt lat="37.4777730" lon="-4.4270220">
        <ele>491.6</ele>
        <time>2021-12-28T19:43:32Z</time>
      </trkpt>
      <trkpt lat="37.4777760" lon="-4.4269900">
        <ele>491.6</ele>
        <time>2021-12-28T19:43:33Z</time>
      </trkpt>
      <trkpt lat="37.4777760" lon="-4.4269570">
        <ele>491.8</ele>
        <time>2021-12-28T19:43:34Z</time>
      </trkpt>
      <trkpt lat="37.4777790" lon="-4.4269230">
        <ele>492.0</ele>
        <time>2021-12-28T19:43:35Z</time>
      </trkpt>
      <trkpt lat="37.4777790" lon="-4.4268920">
        <ele>492.2</ele>
        <time>2021-12-28T19:43:36Z</time>
      </trkpt>
      <trkpt lat="37.4777790" lon="-4.4268580">
        <ele>492.4</ele>
        <time>2021-12-28T19:43:37Z</time>
      </trkpt>
      <trkpt lat="37.4777790" lon="-4.4268250">
        <ele>492.6</ele>
        <time>2021-12-28T19:43:38Z</time>
      </trkpt>
      <trkpt lat="37.4777790" lon="-4.4267980">
        <ele>492.8</ele>
        <time>2021-12-28T19:43:39Z</time>
      </trkpt>
      <trkpt lat="37.4777730" lon="-4.4267570">
        <ele>493.2</ele>
        <time>2021-12-28T19:43:40Z</time>
      </trkpt>
      <trkpt lat="37.4777730" lon="-4.4267240">
        <ele>493.4</ele>
        <time>2021-12-28T19:43:41Z</time>
      </trkpt>
      <trkpt lat="37.4777630" lon="-4.4266900">
        <ele>493.6</ele>
        <time>2021-12-28T19:43:42Z</time>
      </trkpt>
      <trkpt lat="37.4777570" lon="-4.4266570">
        <ele>493.8</ele>
        <time>2021-12-28T19:43:43Z</time>
      </trkpt>
      <trkpt lat="37.4777500" lon="-4.4266230">
        <ele>494.0</ele>
        <time>2021-12-28T19:43:44Z</time>
      </trkpt>
      <trkpt lat="37.4777410" lon="-4.4265900">
        <ele>494.4</ele>
        <time>2021-12-28T19:43:45Z</time>
      </trkpt>
      <trkpt lat="37.4777340" lon="-4.4265580">
        <ele>494.4</ele>
        <time>2021-12-28T19:43:46Z</time>
      </trkpt>
      <trkpt lat="37.4777220" lon="-4.4265250">
        <ele>494.6</ele>
        <time>2021-12-28T19:43:47Z</time>
      </trkpt>
      <trkpt lat="37.4777150" lon="-4.4264930">
        <ele>494.8</ele>
        <time>2021-12-28T19:43:48Z</time>
      </trkpt>
      <trkpt lat="37.4777060" lon="-4.4264620">
        <ele>495.0</ele>
        <time>2021-12-28T19:43:49Z</time>
      </trkpt>
      <trkpt lat="37.4776960" lon="-4.4264280">
        <ele>495.2</ele>
        <time>2021-12-28T19:43:50Z</time>
      </trkpt>
      <trkpt lat="37.4776830" lon="-4.4263950">
        <ele>495.4</ele>
        <time>2021-12-28T19:43:51Z</time>
      </trkpt>
      <trkpt lat="37.4776740" lon="-4.4263650">
        <ele>495.6</ele>
        <time>2021-12-28T19:43:52Z</time>
      </trkpt>
      <trkpt lat="37.4776640" lon="-4.4263300">
        <ele>495.6</ele>
        <time>2021-12-28T19:43:53Z</time>
      </trkpt>
      <trkpt lat="37.4776540" lon="-4.4262980">
        <ele>495.8</ele>
        <time>2021-12-28T19:43:54Z</time>
      </trkpt>
      <trkpt lat="37.4776450" lon="-4.4262680">
        <ele>496.0</ele>
        <time>2021-12-28T19:43:55Z</time>
      </trkpt>
      <trkpt lat="37.4776350" lon="-4.4262380">
        <ele>496.0</ele>
        <time>2021-12-28T19:43:56Z</time>
      </trkpt>
      <trkpt lat="37.4776260" lon="-4.4262060">
        <ele>496.2</ele>
        <time>2021-12-28T19:43:57Z</time>
      </trkpt>
      <trkpt lat="37.4776160" lon="-4.4261750">
        <ele>496.2</ele>
        <time>2021-12-28T19:43:58Z</time>
      </trkpt>
      <trkpt lat="37.4776030" lon="-4.4261450">
        <ele>496.4</ele>
        <time>2021-12-28T19:43:59Z</time>
      </trkpt>
      <trkpt lat="37.4775970" lon="-4.4261130">
        <ele>496.4</ele>
        <time>2021-12-28T19:44:00Z</time>
      </trkpt>
      <trkpt lat="37.4775840" lon="-4.4260840">
        <ele>496.6</ele>
        <time>2021-12-28T19:44:01Z</time>
      </trkpt>
      <trkpt lat="37.4775740" lon="-4.4260540">
        <ele>496.6</ele>
        <time>2021-12-28T19:44:02Z</time>
      </trkpt>
      <trkpt lat="37.4775620" lon="-4.4260180">
        <ele>496.8</ele>
        <time>2021-12-28T19:44:03Z</time>
      </trkpt>
      <trkpt lat="37.4775550" lon="-4.4259850">
        <ele>496.8</ele>
        <time>2021-12-28T19:44:04Z</time>
      </trkpt>
      <trkpt lat="37.4775460" lon="-4.4259500">
        <ele>497.0</ele>
        <time>2021-12-28T19:44:05Z</time>
      </trkpt>
      <trkpt lat="37.4775390" lon="-4.4259220">
        <ele>497.2</ele>
        <time>2021-12-28T19:44:06Z</time>
      </trkpt>
      <trkpt lat="37.4775260" lon="-4.4258800">
        <ele>497.4</ele>
        <time>2021-12-28T19:44:07Z</time>
      </trkpt>
      <trkpt lat="37.4775200" lon="-4.4258460">
        <ele>497.6</ele>
        <time>2021-12-28T19:44:08Z</time>
      </trkpt>
      <trkpt lat="37.4775070" lon="-4.4258130">
        <ele>497.8</ele>
        <time>2021-12-28T19:44:09Z</time>
      </trkpt>
      <trkpt lat="37.4775010" lon="-4.4257860">
        <ele>498.0</ele>
        <time>2021-12-28T19:44:10Z</time>
      </trkpt>
      <trkpt lat="37.4774850" lon="-4.4257470">
        <ele>498.2</ele>
        <time>2021-12-28T19:44:11Z</time>
      </trkpt>
      <trkpt lat="37.4774750" lon="-4.4257150">
        <ele>498.4</ele>
        <time>2021-12-28T19:44:12Z</time>
      </trkpt>
      <trkpt lat="37.4774620" lon="-4.4256840">
        <ele>498.6</ele>
        <time>2021-12-28T19:44:13Z</time>
      </trkpt>
      <trkpt lat="37.4774560" lon="-4.4256520">
        <ele>498.8</ele>
        <time>2021-12-28T19:44:14Z</time>
      </trkpt>
      <trkpt lat="37.4774460" lon="-4.4256250">
        <ele>499.0</ele>
        <time>2021-12-28T19:44:15Z</time>
      </trkpt>
      <trkpt lat="37.4774370" lon="-4.4255870">
        <ele>499.2</ele>
        <time>2021-12-28T19:44:16Z</time>
      </trkpt>
      <trkpt lat="37.4774240" lon="-4.4255530">
        <ele>499.4</ele>
        <time>2021-12-28T19:44:17Z</time>
      </trkpt>
      <trkpt lat="37.4774140" lon="-4.4255230">
        <ele>499.6</ele>
        <time>2021-12-28T19:44:18Z</time>
      </trkpt>
      <trkpt lat="37.4774020" lon="-4.4254930">
        <ele>499.8</ele>
        <time>2021-12-28T19:44:19Z</time>
      </trkpt>
      <trkpt lat="37.4773980" lon="-4.4254620">
        <ele>499.8</ele>
        <time>2021-12-28T19:44:20Z</time>
      </trkpt>
      <trkpt lat="37.4773950" lon="-4.4254300">
        <ele>500.0</ele>
        <time>2021-12-28T19:44:21Z</time>
      </trkpt>
      <trkpt lat="37.4773890" lon="-4.4254000">
        <ele>500.0</ele>
        <time>2021-12-28T19:44:22Z</time>
      </trkpt>
      <trkpt lat="37.4773950" lon="-4.4253680">
        <ele>500.2</ele>
        <time>2021-12-28T19:44:23Z</time>
      </trkpt>
      <trkpt lat="37.4773950" lon="-4.4253370">
        <ele>500.2</ele>
        <time>2021-12-28T19:44:24Z</time>
      </trkpt>
      <trkpt lat="37.4773980" lon="-4.4253020">
        <ele>500.4</ele>
        <time>2021-12-28T19:44:25Z</time>
      </trkpt>
      <trkpt lat="37.4773950" lon="-4.4252640">
        <ele>500.4</ele>
        <time>2021-12-28T19:44:26Z</time>
      </trkpt>
      <trkpt lat="37.4773980" lon="-4.4252250">
        <ele>500.4</ele>
        <time>2021-12-28T19:44:27Z</time>
      </trkpt>
      <trkpt lat="37.4773980" lon="-4.4251930">
        <ele>500.6</ele>
        <time>2021-12-28T19:44:28Z</time>
      </trkpt>
      <trkpt lat="37.4773980" lon="-4.4251480">
        <ele>500.6</ele>
        <time>2021-12-28T19:44:29Z</time>
      </trkpt>
      <trkpt lat="37.4773950" lon="-4.4251150">
        <ele>500.8</ele>
        <time>2021-12-28T19:44:30Z</time>
      </trkpt>
      <trkpt lat="37.4773890" lon="-4.4250800">
        <ele>501.0</ele>
        <time>2021-12-28T19:44:31Z</time>
      </trkpt>
      <trkpt lat="37.4773860" lon="-4.4250460">
        <ele>501.2</ele>
        <time>2021-12-28T19:44:32Z</time>
      </trkpt>
      <trkpt lat="37.4773820" lon="-4.4250200">
        <ele>501.2</ele>
        <time>2021-12-28T19:44:33Z</time>
      </trkpt>
      <trkpt lat="37.4773790" lon="-4.4249780">
        <ele>501.4</ele>
        <time>2021-12-28T19:44:34Z</time>
      </trkpt>
      <trkpt lat="37.4773820" lon="-4.4249420">
        <ele>501.4</ele>
        <time>2021-12-28T19:44:35Z</time>
      </trkpt>
      <trkpt lat="37.4773820" lon="-4.4249050">
        <ele>501.6</ele>
        <time>2021-12-28T19:44:36Z</time>
      </trkpt>
      <trkpt lat="37.4773820" lon="-4.4248670">
        <ele>501.6</ele>
        <time>2021-12-28T19:44:37Z</time>
      </trkpt>
      <trkpt lat="37.4773820" lon="-4.4248270">
        <ele>501.8</ele>
        <time>2021-12-28T19:44:38Z</time>
      </trkpt>
      <trkpt lat="37.4773790" lon="-4.4247900">
        <ele>501.8</ele>
        <time>2021-12-28T19:44:39Z</time>
      </trkpt>
      <trkpt lat="37.4773760" lon="-4.4247530">
        <ele>501.8</ele>
        <time>2021-12-28T19:44:40Z</time>
      </trkpt>
      <trkpt lat="37.4773660" lon="-4.4247230">
        <ele>501.8</ele>
        <time>2021-12-28T19:44:41Z</time>
      </trkpt>
      <trkpt lat="37.4773540" lon="-4.4246840">
        <ele>502.0</ele>
        <time>2021-12-28T19:44:42Z</time>
      </trkpt>
      <trkpt lat="37.4773410" lon="-4.4246550">
        <ele>502.0</ele>
        <time>2021-12-28T19:44:43Z</time>
      </trkpt>
      <trkpt lat="37.4773250" lon="-4.4246250">
        <ele>502.2</ele>
        <time>2021-12-28T19:44:44Z</time>
      </trkpt>
      <trkpt lat="37.4773090" lon="-4.4246000">
        <ele>502.2</ele>
        <time>2021-12-28T19:44:45Z</time>
      </trkpt>
      <trkpt lat="37.4772960" lon="-4.4245780">
        <ele>502.4</ele>
        <time>2021-12-28T19:44:46Z</time>
      </trkpt>
      <trkpt lat="37.4772830" lon="-4.4245570">
        <ele>502.6</ele>
        <time>2021-12-28T19:44:47Z</time>
      </trkpt>
      <trkpt lat="37.4772640" lon="-4.4245380">
        <ele>502.6</ele>
        <time>2021-12-28T19:44:48Z</time>
      </trkpt>
      <trkpt lat="37.4772480" lon="-4.4245180">
        <ele>502.8</ele>
        <time>2021-12-28T19:44:49Z</time>
      </trkpt>
      <trkpt lat="37.4772480" lon="-4.4245180">
        <ele>503.0</ele>
        <time>2021-12-28T19:44:50Z</time>
      </trkpt>
      <trkpt lat="37.4772190" lon="-4.4244850">
        <ele>503.2</ele>
        <time>2021-12-28T19:44:51Z</time>
      </trkpt>
      <trkpt lat="37.4772030" lon="-4.4244670">
        <ele>503.2</ele>
        <time>2021-12-28T19:44:52Z</time>
      </trkpt>
      <trkpt lat="37.4771900" lon="-4.4244460">
        <ele>503.4</ele>
        <time>2021-12-28T19:44:53Z</time>
      </trkpt>
      <trkpt lat="37.4771900" lon="-4.4244460">
        <ele>503.4</ele>
        <time>2021-12-28T19:44:54Z</time>
      </trkpt>
      <trkpt lat="37.4771680" lon="-4.4244020">
        <ele>503.6</ele>
        <time>2021-12-28T19:44:55Z</time>
      </trkpt>
      <trkpt lat="37.4771620" lon="-4.4243760">
        <ele>503.8</ele>
        <time>2021-12-28T19:44:56Z</time>
      </trkpt>
      <trkpt lat="37.4771620" lon="-4.4243760">
        <ele>503.8</ele>
        <time>2021-12-28T19:44:57Z</time>
      </trkpt>
      <trkpt lat="37.4771460" lon="-4.4243400">
        <ele>504.0</ele>
        <time>2021-12-28T19:44:58Z</time>
      </trkpt>
      <trkpt lat="37.4771390" lon="-4.4243180">
        <ele>504.4</ele>
        <time>2021-12-28T19:44:59Z</time>
      </trkpt>
      <trkpt lat="37.4771390" lon="-4.4243180">
        <ele>504.6</ele>
        <time>2021-12-28T19:45:00Z</time>
      </trkpt>
      <trkpt lat="37.4771390" lon="-4.4242920">
        <ele>504.8</ele>
        <time>2021-12-28T19:45:01Z</time>
      </trkpt>
      <trkpt lat="37.4771390" lon="-4.4242920">
        <ele>505.0</ele>
        <time>2021-12-28T19:45:02Z</time>
      </trkpt>
      <trkpt lat="37.4771260" lon="-4.4242740">
        <ele>505.2</ele>
        <time>2021-12-28T19:45:03Z</time>
      </trkpt>
      <trkpt lat="37.4771260" lon="-4.4242740">
        <ele>505.4</ele>
        <time>2021-12-28T19:45:04Z</time>
      </trkpt>
      <trkpt lat="37.4771260" lon="-4.4242740">
        <ele>505.6</ele>
        <time>2021-12-28T19:45:05Z</time>
      </trkpt>
      <trkpt lat="37.4771350" lon="-4.4243060">
        <ele>505.8</ele>
        <time>2021-12-28T19:45:06Z</time>
      </trkpt>
      <trkpt lat="37.4771430" lon="-4.4243390">
        <ele>506.0</ele>
        <time>2021-12-28T19:45:07Z</time>
      </trkpt>
      <trkpt lat="37.4771520" lon="-4.4243710">
        <ele>506.2</ele>
        <time>2021-12-28T19:45:08Z</time>
      </trkpt>
      <trkpt lat="37.4771610" lon="-4.4244030">
        <ele>506.4</ele>
        <time>2021-12-28T19:45:09Z</time>
      </trkpt>
      <trkpt lat="37.4771690" lon="-4.4244360">
        <ele>511.2</ele>
        <time>2021-12-28T19:50:22Z</time>
      </trkpt>
      <trkpt lat="37.4771780" lon="-4.4244680">
        <ele>511.2</ele>
        <time>2021-12-28T19:50:23Z</time>
      </trkpt>
      <trkpt lat="37.4772160" lon="-4.4245070">
        <ele>511.2</ele>
        <time>2021-12-28T19:50:24Z</time>
      </trkpt>
      <trkpt lat="37.4772580" lon="-4.4245480">
        <ele>511.2</ele>
        <time>2021-12-28T19:50:25Z</time>
      </trkpt>
      <trkpt lat="37.4772960" lon="-4.4245840">
        <ele>511.2</ele>
        <time>2021-12-28T19:50:26Z</time>
      </trkpt>
      <trkpt lat="37.4773340" lon="-4.4246300">
        <ele>511.2</ele>
        <time>2021-12-28T19:50:27Z</time>
      </trkpt>
      <trkpt lat="37.4773760" lon="-4.4246930">
        <ele>511.2</ele>
        <time>2021-12-28T19:50:28Z</time>
      </trkpt>
      <trkpt lat="37.4774020" lon="-4.4247460">
        <ele>511.0</ele>
        <time>2021-12-28T19:50:29Z</time>
      </trkpt>
      <trkpt lat="37.4774140" lon="-4.4248100">
        <ele>511.0</ele>
        <time>2021-12-28T19:50:30Z</time>
      </trkpt>
      <trkpt lat="37.4774210" lon="-4.4248770">
        <ele>511.0</ele>
        <time>2021-12-28T19:50:31Z</time>
      </trkpt>
      <trkpt lat="37.4774210" lon="-4.4249280">
        <ele>511.0</ele>
        <time>2021-12-28T19:50:32Z</time>
      </trkpt>
      <trkpt lat="37.4774240" lon="-4.4250040">
        <ele>510.8</ele>
        <time>2021-12-28T19:50:33Z</time>
      </trkpt>
      <trkpt lat="37.4774240" lon="-4.4250600">
        <ele>510.8</ele>
        <time>2021-12-28T19:50:34Z</time>
      </trkpt>
      <trkpt lat="37.4774270" lon="-4.4251130">
        <ele>510.6</ele>
        <time>2021-12-28T19:50:35Z</time>
      </trkpt>
      <trkpt lat="37.4774240" lon="-4.4251530">
        <ele>510.6</ele>
        <time>2021-12-28T19:50:36Z</time>
      </trkpt>
      <trkpt lat="37.4774240" lon="-4.4252080">
        <ele>510.6</ele>
        <time>2021-12-28T19:50:37Z</time>
      </trkpt>
      <trkpt lat="37.4774210" lon="-4.4252470">
        <ele>510.4</ele>
        <time>2021-12-28T19:50:38Z</time>
      </trkpt>
      <trkpt lat="37.4774140" lon="-4.4252800">
        <ele>510.4</ele>
        <time>2021-12-28T19:50:39Z</time>
      </trkpt>
      <trkpt lat="37.4774050" lon="-4.4253080">
        <ele>510.2</ele>
        <time>2021-12-28T19:50:40Z</time>
      </trkpt>
      <trkpt lat="37.4774050" lon="-4.4253080">
        <ele>510.2</ele>
        <time>2021-12-28T19:50:41Z</time>
      </trkpt>
      <trkpt lat="37.4773950" lon="-4.4253450">
        <ele>510.0</ele>
        <time>2021-12-28T19:50:42Z</time>
      </trkpt>
      <trkpt lat="37.4773950" lon="-4.4253450">
        <ele>509.8</ele>
        <time>2021-12-28T19:50:43Z</time>
      </trkpt>
      <trkpt lat="37.4773950" lon="-4.4253450">
        <ele>509.8</ele>
        <time>2021-12-28T19:50:44Z</time>
      </trkpt>
      <trkpt lat="37.4773950" lon="-4.4253450">
        <ele>509.6</ele>
        <time>2021-12-28T19:50:45Z</time>
      </trkpt>
      <trkpt lat="37.4773950" lon="-4.4253450">
        <ele>509.4</ele>
        <time>2021-12-28T19:50:46Z</time>
      </trkpt>
      <trkpt lat="37.4773950" lon="-4.4253450">
        <ele>509.2</ele>
        <time>2021-12-28T19:50:47Z</time>
      </trkpt>
      <trkpt lat="37.4773950" lon="-4.4253450">
        <ele>509.0</ele>
        <time>2021-12-28T19:50:48Z</time>
      </trkpt>
      <trkpt lat="37.4774050" lon="-4.4251630">
        <ele>507.4</ele>
        <time>2021-12-28T19:51:14Z</time>
      </trkpt>
      <trkpt lat="37.4774080" lon="-4.4251360">
        <ele>507.6</ele>
        <time>2021-12-28T19:51:15Z</time>
      </trkpt>
      <trkpt lat="37.4774080" lon="-4.4251120">
        <ele>507.6</ele>
        <time>2021-12-28T19:51:16Z</time>
      </trkpt>
      <trkpt lat="37.4774080" lon="-4.4250860">
        <ele>507.6</ele>
        <time>2021-12-28T19:51:17Z</time>
      </trkpt>
      <trkpt lat="37.4774080" lon="-4.4250580">
        <ele>507.6</ele>
        <time>2021-12-28T19:51:18Z</time>
      </trkpt>
      <trkpt lat="37.4774050" lon="-4.4250350">
        <ele>507.6</ele>
        <time>2021-12-28T19:51:19Z</time>
      </trkpt>
      <trkpt lat="37.4774050" lon="-4.4250350">
        <ele>507.6</ele>
        <time>2021-12-28T19:51:20Z</time>
      </trkpt>
      <trkpt lat="37.4774080" lon="-4.4249950">
        <ele>507.8</ele>
        <time>2021-12-28T19:51:21Z</time>
      </trkpt>
      <trkpt lat="37.4774080" lon="-4.4249950">
        <ele>507.8</ele>
        <time>2021-12-28T19:51:22Z</time>
      </trkpt>
      <trkpt lat="37.4774080" lon="-4.4249620">
        <ele>507.8</ele>
        <time>2021-12-28T19:51:23Z</time>
      </trkpt>
      <trkpt lat="37.4774050" lon="-4.4249370">
        <ele>508.0</ele>
        <time>2021-12-28T19:51:24Z</time>
      </trkpt>
      <trkpt lat="37.4774050" lon="-4.4249140">
        <ele>508.0</ele>
        <time>2021-12-28T19:51:25Z</time>
      </trkpt>
      <trkpt lat="37.4774050" lon="-4.4249140">
        <ele>508.2</ele>
        <time>2021-12-28T19:51:26Z</time>
      </trkpt>
      <trkpt lat="37.4774020" lon="-4.4248700">
        <ele>508.2</ele>
        <time>2021-12-28T19:51:27Z</time>
      </trkpt>
      <trkpt lat="37.4774020" lon="-4.4248700">
        <ele>508.2</ele>
        <time>2021-12-28T19:51:28Z</time>
      </trkpt>
      <trkpt lat="37.4773980" lon="-4.4248300">
        <ele>508.4</ele>
        <time>2021-12-28T19:51:29Z</time>
      </trkpt>
      <trkpt lat="37.4773980" lon="-4.4248300">
        <ele>508.4</ele>
        <time>2021-12-28T19:51:30Z</time>
      </trkpt>
      <trkpt lat="37.4773950" lon="-4.4247850">
        <ele>508.6</ele>
        <time>2021-12-28T19:51:31Z</time>
      </trkpt>
      <trkpt lat="37.4773950" lon="-4.4247850">
        <ele>508.6</ele>
        <time>2021-12-28T19:51:32Z</time>
      </trkpt>
      <trkpt lat="37.4773890" lon="-4.4247450">
        <ele>508.6</ele>
        <time>2021-12-28T19:51:33Z</time>
      </trkpt>
      <trkpt lat="37.4773890" lon="-4.4247450">
        <ele>508.8</ele>
        <time>2021-12-28T19:51:34Z</time>
      </trkpt>
      <trkpt lat="37.4773760" lon="-4.4247080">
        <ele>508.8</ele>
        <time>2021-12-28T19:51:35Z</time>
      </trkpt>
      <trkpt lat="37.4773630" lon="-4.4246920">
        <ele>509.0</ele>
        <time>2021-12-28T19:51:36Z</time>
      </trkpt>
      <trkpt lat="37.4773630" lon="-4.4246920">
        <ele>509.0</ele>
        <time>2021-12-28T19:51:37Z</time>
      </trkpt>
      <trkpt lat="37.4773570" lon="-4.4246550">
        <ele>509.0</ele>
        <time>2021-12-28T19:51:38Z</time>
      </trkpt>
      <trkpt lat="37.4773570" lon="-4.4246550">
        <ele>509.0</ele>
        <time>2021-12-28T19:51:39Z</time>
      </trkpt>
      <trkpt lat="37.4773440" lon="-4.4246170">
        <ele>509.2</ele>
        <time>2021-12-28T19:51:40Z</time>
      </trkpt>
      <trkpt lat="37.4773440" lon="-4.4246170">
        <ele>509.2</ele>
        <time>2021-12-28T19:51:41Z</time>
      </trkpt>
      <trkpt lat="37.4773220" lon="-4.4245880">
        <ele>509.0</ele>
        <time>2021-12-28T19:51:42Z</time>
      </trkpt>
      <trkpt lat="37.4773220" lon="-4.4245880">
        <ele>509.0</ele>
        <time>2021-12-28T19:51:43Z</time>
      </trkpt>
      <trkpt lat="37.4772960" lon="-4.4245600">
        <ele>509.2</ele>
        <time>2021-12-28T19:51:44Z</time>
      </trkpt>
      <trkpt lat="37.4772960" lon="-4.4245600">
        <ele>509.2</ele>
        <time>2021-12-28T19:51:45Z</time>
      </trkpt>
      <trkpt lat="37.4772670" lon="-4.4245380">
        <ele>509.2</ele>
        <time>2021-12-28T19:51:46Z</time>
      </trkpt>
      <trkpt lat="37.4772670" lon="-4.4245380">
        <ele>509.2</ele>
        <time>2021-12-28T19:51:47Z</time>
      </trkpt>
      <trkpt lat="37.4772420" lon="-4.4245130">
        <ele>509.2</ele>
        <time>2021-12-28T19:51:48Z</time>
      </trkpt>
      <trkpt lat="37.4772420" lon="-4.4245130">
        <ele>509.2</ele>
        <time>2021-12-28T19:51:49Z</time>
      </trkpt>
      <trkpt lat="37.4772160" lon="-4.4244900">
        <ele>509.4</ele>
        <time>2021-12-28T19:51:50Z</time>
      </trkpt>
      <trkpt lat="37.4772160" lon="-4.4244900">
        <ele>509.4</ele>
        <time>2021-12-28T19:51:51Z</time>
      </trkpt>
      <trkpt lat="37.4771870" lon="-4.4244650">
        <ele>509.6</ele>
        <time>2021-12-28T19:51:52Z</time>
      </trkpt>
      <trkpt lat="37.4771870" lon="-4.4244650">
        <ele>509.8</ele>
        <time>2021-12-28T19:51:53Z</time>
      </trkpt>
      <trkpt lat="37.4771580" lon="-4.4244420">
        <ele>509.8</ele>
        <time>2021-12-28T19:51:54Z</time>
      </trkpt>
      <trkpt lat="37.4771580" lon="-4.4244420">
        <ele>510.0</ele>
        <time>2021-12-28T19:51:55Z</time>
      </trkpt>
      <trkpt lat="37.4771300" lon="-4.4244280">
        <ele>510.2</ele>
        <time>2021-12-28T19:51:56Z</time>
      </trkpt>
      <trkpt lat="37.4771300" lon="-4.4244280">
        <ele>510.2</ele>
        <time>2021-12-28T19:51:57Z</time>
      </trkpt>
      <trkpt lat="37.4771070" lon="-4.4244050">
        <ele>510.2</ele>
        <time>2021-12-28T19:51:58Z</time>
      </trkpt>
      <trkpt lat="37.4771070" lon="-4.4244050">
        <ele>510.4</ele>
        <time>2021-12-28T19:51:59Z</time>
      </trkpt>
      <trkpt lat="37.4770910" lon="-4.4243760">
        <ele>510.4</ele>
        <time>2021-12-28T19:52:00Z</time>
      </trkpt>
      <trkpt lat="37.4770910" lon="-4.4243760">
        <ele>510.6</ele>
        <time>2021-12-28T19:52:01Z</time>
      </trkpt>
      <trkpt lat="37.4770880" lon="-4.4243480">
        <ele>510.6</ele>
        <time>2021-12-28T19:52:02Z</time>
      </trkpt>
      <trkpt lat="37.4770880" lon="-4.4243480">
        <ele>510.6</ele>
        <time>2021-12-28T19:52:03Z</time>
      </trkpt>
      <trkpt lat="37.4770780" lon="-4.4243150">
        <ele>510.8</ele>
        <time>2021-12-28T19:52:04Z</time>
      </trkpt>
      <trkpt lat="37.4770780" lon="-4.4243150">
        <ele>510.8</ele>
        <time>2021-12-28T19:52:05Z</time>
      </trkpt>
      <trkpt lat="37.4770660" lon="-4.4242900">
        <ele>510.8</ele>
        <time>2021-12-28T19:52:06Z</time>
      </trkpt>
      <trkpt lat="37.4770660" lon="-4.4242900">
        <ele>511.0</ele>
        <time>2021-12-28T19:52:07Z</time>
      </trkpt>
      <trkpt lat="37.4770430" lon="-4.4242750">
        <ele>511.0</ele>
        <time>2021-12-28T19:52:08Z</time>
      </trkpt>
      <trkpt lat="37.4770430" lon="-4.4242750">
        <ele>511.0</ele>
        <time>2021-12-28T19:52:09Z</time>
      </trkpt>
      <trkpt lat="37.4770430" lon="-4.4242750">
        <ele>511.2</ele>
        <time>2021-12-28T19:52:10Z</time>
      </trkpt>
      <trkpt lat="37.4770430" lon="-4.4242750">
        <ele>511.2</ele>
        <time>2021-12-28T19:52:11Z</time>
      </trkpt>
      <trkpt lat="37.4770430" lon="-4.4242750">
        <ele>511.2</ele>
        <time>2021-12-28T19:52:12Z</time>
      </trkpt>
      <trkpt lat="37.4770430" lon="-4.4242750">
        <ele>511.4</ele>
        <time>2021-12-28T19:52:13Z</time>
      </trkpt>
      <trkpt lat="37.4770430" lon="-4.4242750">
        <ele>511.2</ele>
        <time>2021-12-28T19:52:14Z</time>
      </trkpt>
      <trkpt lat="37.4768830" lon="-4.4242570">
        <ele>513.4</ele>
        <time>2021-12-28T19:53:29Z</time>
      </trkpt>
      <trkpt lat="37.4768510" lon="-4.4242540">
        <ele>513.4</ele>
        <time>2021-12-28T19:53:30Z</time>
      </trkpt>
      <trkpt lat="37.4768190" lon="-4.4242480">
        <ele>513.4</ele>
        <time>2021-12-28T19:53:31Z</time>
      </trkpt>
      <trkpt lat="37.4767870" lon="-4.4242450">
        <ele>513.4</ele>
        <time>2021-12-28T19:53:32Z</time>
      </trkpt>
      <trkpt lat="37.4767420" lon="-4.4242420">
        <ele>513.4</ele>
        <time>2021-12-28T19:53:33Z</time>
      </trkpt>
      <trkpt lat="37.4767040" lon="-4.4242400">
        <ele>513.4</ele>
        <time>2021-12-28T19:53:34Z</time>
      </trkpt>
      <trkpt lat="37.4766690" lon="-4.4242380">
        <ele>513.4</ele>
        <time>2021-12-28T19:53:35Z</time>
      </trkpt>
      <trkpt lat="37.4766400" lon="-4.4242370">
        <ele>513.4</ele>
        <time>2021-12-28T19:53:36Z</time>
      </trkpt>
      <trkpt lat="37.4765980" lon="-4.4242350">
        <ele>513.4</ele>
        <time>2021-12-28T19:53:37Z</time>
      </trkpt>
      <trkpt lat="37.4765630" lon="-4.4242340">
        <ele>513.4</ele>
        <time>2021-12-28T19:53:38Z</time>
      </trkpt>
      <trkpt lat="37.4765280" lon="-4.4242350">
        <ele>513.4</ele>
        <time>2021-12-28T19:53:39Z</time>
      </trkpt>
      <trkpt lat="37.4764990" lon="-4.4242350">
        <ele>513.4</ele>
        <time>2021-12-28T19:53:40Z</time>
      </trkpt>
      <trkpt lat="37.4764670" lon="-4.4242320">
        <ele>513.4</ele>
        <time>2021-12-28T19:53:41Z</time>
      </trkpt>
      <trkpt lat="37.4764420" lon="-4.4242320">
        <ele>513.4</ele>
        <time>2021-12-28T19:53:42Z</time>
      </trkpt>
      <trkpt lat="37.4764130" lon="-4.4242300">
        <ele>513.4</ele>
        <time>2021-12-28T19:53:43Z</time>
      </trkpt>
      <trkpt lat="37.4763870" lon="-4.4242320">
        <ele>513.4</ele>
        <time>2021-12-28T19:53:44Z</time>
      </trkpt>
      <trkpt lat="37.4763620" lon="-4.4242340">
        <ele>513.4</ele>
        <time>2021-12-28T19:53:45Z</time>
      </trkpt>
      <trkpt lat="37.4763420" lon="-4.4242350">
        <ele>513.2</ele>
        <time>2021-12-28T19:53:46Z</time>
      </trkpt>
      <trkpt lat="37.4763140" lon="-4.4242380">
        <ele>513.2</ele>
        <time>2021-12-28T19:53:47Z</time>
      </trkpt>
      <trkpt lat="37.4762910" lon="-4.4242420">
        <ele>513.4</ele>
        <time>2021-12-28T19:53:48Z</time>
      </trkpt>
      <trkpt lat="37.4762690" lon="-4.4242440">
        <ele>513.4</ele>
        <time>2021-12-28T19:53:49Z</time>
      </trkpt>
      <trkpt lat="37.4762460" lon="-4.4242450">
        <ele>513.4</ele>
        <time>2021-12-28T19:53:50Z</time>
      </trkpt>
      <trkpt lat="37.4762240" lon="-4.4242420">
        <ele>513.4</ele>
        <time>2021-12-28T19:53:51Z</time>
      </trkpt>
      <trkpt lat="37.4762020" lon="-4.4242400">
        <ele>513.4</ele>
        <time>2021-12-28T19:53:52Z</time>
      </trkpt>
      <trkpt lat="37.4761760" lon="-4.4242380">
        <ele>513.4</ele>
        <time>2021-12-28T19:53:53Z</time>
      </trkpt>
      <trkpt lat="37.4761570" lon="-4.4242370">
        <ele>513.4</ele>
        <time>2021-12-28T19:53:54Z</time>
      </trkpt>
      <trkpt lat="37.4761310" lon="-4.4242350">
        <ele>513.4</ele>
        <time>2021-12-28T19:53:55Z</time>
      </trkpt>
      <trkpt lat="37.4761090" lon="-4.4242340">
        <ele>513.4</ele>
        <time>2021-12-28T19:53:56Z</time>
      </trkpt>
      <trkpt lat="37.4760830" lon="-4.4242300">
        <ele>513.4</ele>
        <time>2021-12-28T19:53:57Z</time>
      </trkpt>
      <trkpt lat="37.4760640" lon="-4.4242280">
        <ele>513.4</ele>
        <time>2021-12-28T19:53:58Z</time>
      </trkpt>
      <trkpt lat="37.4760640" lon="-4.4242280">
        <ele>513.4</ele>
        <time>2021-12-28T19:53:59Z</time>
      </trkpt>
      <trkpt lat="37.4760450" lon="-4.4242250">
        <ele>513.4</ele>
        <time>2021-12-28T19:54:00Z</time>
      </trkpt>
      <trkpt lat="37.4760450" lon="-4.4242250">
        <ele>513.4</ele>
        <time>2021-12-28T19:54:01Z</time>
      </trkpt>
      <trkpt lat="37.4760450" lon="-4.4242250">
        <ele>513.4</ele>
        <time>2021-12-28T19:54:02Z</time>
      </trkpt>
      <trkpt lat="37.4760050" lon="-4.4242170">
        <ele>513.4</ele>
        <time>2021-12-28T19:54:03Z</time>
      </trkpt>
      <trkpt lat="37.4759650" lon="-4.4242100">
        <ele>513.4</ele>
        <time>2021-12-28T19:54:04Z</time>
      </trkpt>
      <trkpt lat="37.4759250" lon="-4.4242020">
        <ele>515.6</ele>
        <time>2021-12-28T19:57:09Z</time>
      </trkpt>
      <trkpt lat="37.4758850" lon="-4.4241950">
        <ele>515.6</ele>
        <time>2021-12-28T19:57:10Z</time>
      </trkpt>
      <trkpt lat="37.4758530" lon="-4.4241920">
        <ele>515.4</ele>
        <time>2021-12-28T19:57:11Z</time>
      </trkpt>
      <trkpt lat="37.4758140" lon="-4.4241920">
        <ele>515.4</ele>
        <time>2021-12-28T19:57:12Z</time>
      </trkpt>
      <trkpt lat="37.4757790" lon="-4.4241950">
        <ele>515.4</ele>
        <time>2021-12-28T19:57:13Z</time>
      </trkpt>
      <trkpt lat="37.4757540" lon="-4.4241950">
        <ele>515.4</ele>
        <time>2021-12-28T19:57:14Z</time>
      </trkpt>
      <trkpt lat="37.4757280" lon="-4.4241930">
        <ele>515.4</ele>
        <time>2021-12-28T19:57:15Z</time>
      </trkpt>
      <trkpt lat="37.4756960" lon="-4.4241970">
        <ele>515.4</ele>
        <time>2021-12-28T19:57:16Z</time>
      </trkpt>
      <trkpt lat="37.4756610" lon="-4.4242000">
        <ele>515.4</ele>
        <time>2021-12-28T19:57:17Z</time>
      </trkpt>
      <trkpt lat="37.4756320" lon="-4.4242020">
        <ele>515.4</ele>
        <time>2021-12-28T19:57:18Z</time>
      </trkpt>
      <trkpt lat="37.4755970" lon="-4.4242070">
        <ele>515.4</ele>
        <time>2021-12-28T19:57:19Z</time>
      </trkpt>
      <trkpt lat="37.4755680" lon="-4.4242080">
        <ele>515.4</ele>
        <time>2021-12-28T19:57:20Z</time>
      </trkpt>
      <trkpt lat="37.4755330" lon="-4.4242100">
        <ele>515.4</ele>
        <time>2021-12-28T19:57:21Z</time>
      </trkpt>
      <trkpt lat="37.4755010" lon="-4.4242140">
        <ele>515.4</ele>
        <time>2021-12-28T19:57:22Z</time>
      </trkpt>
      <trkpt lat="37.4754720" lon="-4.4242150">
        <ele>515.4</ele>
        <time>2021-12-28T19:57:23Z</time>
      </trkpt>
      <trkpt lat="37.4754370" lon="-4.4242100">
        <ele>515.4</ele>
        <time>2021-12-28T19:57:24Z</time>
      </trkpt>
      <trkpt lat="37.4754080" lon="-4.4242070">
        <ele>515.4</ele>
        <time>2021-12-28T19:57:25Z</time>
      </trkpt>
      <trkpt lat="37.4753790" lon="-4.4241970">
        <ele>515.4</ele>
        <time>2021-12-28T19:57:26Z</time>
      </trkpt>
      <trkpt lat="37.4753410" lon="-4.4241900">
        <ele>515.4</ele>
        <time>2021-12-28T19:57:27Z</time>
      </trkpt>
      <trkpt lat="37.4753120" lon="-4.4241900">
        <ele>515.4</ele>
        <time>2021-12-28T19:57:28Z</time>
      </trkpt>
      <trkpt lat="37.4752830" lon="-4.4241920">
        <ele>515.4</ele>
        <time>2021-12-28T19:57:29Z</time>
      </trkpt>
      <trkpt lat="37.4752610" lon="-4.4241880">
        <ele>515.6</ele>
        <time>2021-12-28T19:57:30Z</time>
      </trkpt>
      <trkpt lat="37.4752380" lon="-4.4241780">
        <ele>515.6</ele>
        <time>2021-12-28T19:57:31Z</time>
      </trkpt>
      <trkpt lat="37.4752160" lon="-4.4241720">
        <ele>515.8</ele>
        <time>2021-12-28T19:57:32Z</time>
      </trkpt>
      <trkpt lat="37.4751970" lon="-4.4241580">
        <ele>515.8</ele>
        <time>2021-12-28T19:57:33Z</time>
      </trkpt>
      <trkpt lat="37.4751970" lon="-4.4241580">
        <ele>516.0</ele>
        <time>2021-12-28T19:57:34Z</time>
      </trkpt>
      <trkpt lat="37.4751710" lon="-4.4241400">
        <ele>516.2</ele>
        <time>2021-12-28T19:57:35Z</time>
      </trkpt>
      <trkpt lat="37.4751710" lon="-4.4241400">
        <ele>516.2</ele>
        <time>2021-12-28T19:57:36Z</time>
      </trkpt>
      <trkpt lat="37.4751520" lon="-4.4241230">
        <ele>516.4</ele>
        <time>2021-12-28T19:57:37Z</time>
      </trkpt>
      <trkpt lat="37.4751520" lon="-4.4241230">
        <ele>516.4</ele>
        <time>2021-12-28T19:57:38Z</time>
      </trkpt>
      <trkpt lat="37.4751520" lon="-4.4241230">
        <ele>516.6</ele>
        <time>2021-12-28T19:57:39Z</time>
      </trkpt>
      <trkpt lat="37.4751300" lon="-4.4241080">
        <ele>516.6</ele>
        <time>2021-12-28T19:57:40Z</time>
      </trkpt>
      <trkpt lat="37.4751300" lon="-4.4241080">
        <ele>516.8</ele>
        <time>2021-12-28T19:57:41Z</time>
      </trkpt>
      <trkpt lat="37.4751300" lon="-4.4241080">
        <ele>516.8</ele>
        <time>2021-12-28T19:57:42Z</time>
      </trkpt>
      <trkpt lat="37.4751300" lon="-4.4241080">
        <ele>516.8</ele>
        <time>2021-12-28T19:57:43Z</time>
      </trkpt>
      <trkpt lat="37.4751300" lon="-4.4241080">
        <ele>517.0</ele>
        <time>2021-12-28T19:57:58Z</time>
      </trkpt>
      <trkpt lat="37.4749920" lon="-4.4241130">
        <ele>517.0</ele>
        <time>2021-12-28T19:57:59Z</time>
      </trkpt>
      <trkpt lat="37.4749920" lon="-4.4241130">
        <ele>517.0</ele>
        <time>2021-12-28T19:58:00Z</time>
      </trkpt>
      <trkpt lat="37.4749570" lon="-4.4241100">
        <ele>517.2</ele>
        <time>2021-12-28T19:58:01Z</time>
      </trkpt>
      <trkpt lat="37.4749570" lon="-4.4241100">
        <ele>517.2</ele>
        <time>2021-12-28T19:58:02Z</time>
      </trkpt>
      <trkpt lat="37.4749310" lon="-4.4241080">
        <ele>517.2</ele>
        <time>2021-12-28T19:58:03Z</time>
      </trkpt>
      <trkpt lat="37.4749310" lon="-4.4241080">
        <ele>517.2</ele>
        <time>2021-12-28T19:58:04Z</time>
      </trkpt>
      <trkpt lat="37.4749060" lon="-4.4241060">
        <ele>517.0</ele>
        <time>2021-12-28T19:58:05Z</time>
      </trkpt>
      <trkpt lat="37.4748860" lon="-4.4241030">
        <ele>517.0</ele>
        <time>2021-12-28T19:58:06Z</time>
      </trkpt>
      <trkpt lat="37.4748860" lon="-4.4241030">
        <ele>517.0</ele>
        <time>2021-12-28T19:58:07Z</time>
      </trkpt>
      <trkpt lat="37.4748540" lon="-4.4240980">
        <ele>517.0</ele>
        <time>2021-12-28T19:58:08Z</time>
      </trkpt>
      <trkpt lat="37.4748260" lon="-4.4240930">
        <ele>517.0</ele>
        <time>2021-12-28T19:58:09Z</time>
      </trkpt>
      <trkpt lat="37.4748030" lon="-4.4240920">
        <ele>517.0</ele>
        <time>2021-12-28T19:58:10Z</time>
      </trkpt>
      <trkpt lat="37.4747840" lon="-4.4240880">
        <ele>517.0</ele>
        <time>2021-12-28T19:58:11Z</time>
      </trkpt>
      <trkpt lat="37.4747520" lon="-4.4240950">
        <ele>517.0</ele>
        <time>2021-12-28T19:58:12Z</time>
      </trkpt>
      <trkpt lat="37.4747330" lon="-4.4240880">
        <ele>517.2</ele>
        <time>2021-12-28T19:58:13Z</time>
      </trkpt>
      <trkpt lat="37.4747140" lon="-4.4240860">
        <ele>517.2</ele>
        <time>2021-12-28T19:58:14Z</time>
      </trkpt>
      <trkpt lat="37.4746940" lon="-4.4240800">
        <ele>517.2</ele>
        <time>2021-12-28T19:58:15Z</time>
      </trkpt>
      <trkpt lat="37.4746720" lon="-4.4240800">
        <ele>517.4</ele>
        <time>2021-12-28T19:58:16Z</time>
      </trkpt>
      <trkpt lat="37.4746530" lon="-4.4240820">
        <ele>517.4</ele>
        <time>2021-12-28T19:58:17Z</time>
      </trkpt>
      <trkpt lat="37.4746240" lon="-4.4240800">
        <ele>517.4</ele>
        <time>2021-12-28T19:58:18Z</time>
      </trkpt>
      <trkpt lat="37.4745950" lon="-4.4240820">
        <ele>517.6</ele>
        <time>2021-12-28T19:58:19Z</time>
      </trkpt>
      <trkpt lat="37.4745660" lon="-4.4240850">
        <ele>517.6</ele>
        <time>2021-12-28T19:58:20Z</time>
      </trkpt>
      <trkpt lat="37.4745380" lon="-4.4240900">
        <ele>517.6</ele>
        <time>2021-12-28T19:58:21Z</time>
      </trkpt>
      <trkpt lat="37.4745090" lon="-4.4240850">
        <ele>517.8</ele>
        <time>2021-12-28T19:58:22Z</time>
      </trkpt>
      <trkpt lat="37.4744830" lon="-4.4240820">
        <ele>517.8</ele>
        <time>2021-12-28T19:58:23Z</time>
      </trkpt>
      <trkpt lat="37.4744640" lon="-4.4240800">
        <ele>517.8</ele>
        <time>2021-12-28T19:58:24Z</time>
      </trkpt>
      <trkpt lat="37.4744380" lon="-4.4240820">
        <ele>518.0</ele>
        <time>2021-12-28T19:58:25Z</time>
      </trkpt>
      <trkpt lat="37.4744160" lon="-4.4240820">
        <ele>518.0</ele>
        <time>2021-12-28T19:58:26Z</time>
      </trkpt>
      <trkpt lat="37.4743840" lon="-4.4240860">
        <ele>518.0</ele>
        <time>2021-12-28T19:58:27Z</time>
      </trkpt>
      <trkpt lat="37.4743580" lon="-4.4240920">
        <ele>518.2</ele>
        <time>2021-12-28T19:58:28Z</time>
      </trkpt>
      <trkpt lat="37.4743300" lon="-4.4240930">
        <ele>518.2</ele>
        <time>2021-12-28T19:58:29Z</time>
      </trkpt>
      <trkpt lat="37.4743040" lon="-4.4240930">
        <ele>518.4</ele>
        <time>2021-12-28T19:58:30Z</time>
      </trkpt>
      <trkpt lat="37.4742750" lon="-4.4240920">
        <ele>518.4</ele>
        <time>2021-12-28T19:58:31Z</time>
      </trkpt>
      <trkpt lat="37.4742460" lon="-4.4240900">
        <ele>518.6</ele>
        <time>2021-12-28T19:58:32Z</time>
      </trkpt>
      <trkpt lat="37.4742110" lon="-4.4240900">
        <ele>518.6</ele>
        <time>2021-12-28T19:58:33Z</time>
      </trkpt>
      <trkpt lat="37.4741820" lon="-4.4240950">
        <ele>518.8</ele>
        <time>2021-12-28T19:58:34Z</time>
      </trkpt>
      <trkpt lat="37.4741500" lon="-4.4241030">
        <ele>518.8</ele>
        <time>2021-12-28T19:58:35Z</time>
      </trkpt>
      <trkpt lat="37.4741180" lon="-4.4241100">
        <ele>519.0</ele>
        <time>2021-12-28T19:58:36Z</time>
      </trkpt>
      <trkpt lat="37.4740860" lon="-4.4241100">
        <ele>519.0</ele>
        <time>2021-12-28T19:58:37Z</time>
      </trkpt>
      <trkpt lat="37.4740610" lon="-4.4241080">
        <ele>519.2</ele>
        <time>2021-12-28T19:58:38Z</time>
      </trkpt>
      <trkpt lat="37.4740320" lon="-4.4241050">
        <ele>519.2</ele>
        <time>2021-12-28T19:58:39Z</time>
      </trkpt>
      <trkpt lat="37.4740000" lon="-4.4241050">
        <ele>519.2</ele>
        <time>2021-12-28T19:58:40Z</time>
      </trkpt>
      <trkpt lat="37.4739780" lon="-4.4241050">
        <ele>519.4</ele>
        <time>2021-12-28T19:58:41Z</time>
      </trkpt>
      <trkpt lat="37.4739520" lon="-4.4241080">
        <ele>519.4</ele>
        <time>2021-12-28T19:58:42Z</time>
      </trkpt>
      <trkpt lat="37.4739300" lon="-4.4241120">
        <ele>519.4</ele>
        <time>2021-12-28T19:58:43Z</time>
      </trkpt>
      <trkpt lat="37.4739100" lon="-4.4241130">
        <ele>519.6</ele>
        <time>2021-12-28T19:58:44Z</time>
      </trkpt>
      <trkpt lat="37.4738850" lon="-4.4241150">
        <ele>519.6</ele>
        <time>2021-12-28T19:58:45Z</time>
      </trkpt>
      <trkpt lat="37.4738460" lon="-4.4241170">
        <ele>519.6</ele>
        <time>2021-12-28T19:58:46Z</time>
      </trkpt>
      <trkpt lat="37.4738110" lon="-4.4241180">
        <ele>519.6</ele>
        <time>2021-12-28T19:58:47Z</time>
      </trkpt>
      <trkpt lat="37.4737820" lon="-4.4241180">
        <ele>519.6</ele>
        <time>2021-12-28T19:58:48Z</time>
      </trkpt>
      <trkpt lat="37.4737540" lon="-4.4241220">
        <ele>519.6</ele>
        <time>2021-12-28T19:58:49Z</time>
      </trkpt>
      <trkpt lat="37.4737280" lon="-4.4241200">
        <ele>519.6</ele>
        <time>2021-12-28T19:58:50Z</time>
      </trkpt>
      <trkpt lat="37.4736930" lon="-4.4241200">
        <ele>519.6</ele>
        <time>2021-12-28T19:58:51Z</time>
      </trkpt>
      <trkpt lat="37.4736640" lon="-4.4241220">
        <ele>519.6</ele>
        <time>2021-12-28T19:58:52Z</time>
      </trkpt>
      <trkpt lat="37.4736260" lon="-4.4241250">
        <ele>519.6</ele>
        <time>2021-12-28T19:58:53Z</time>
      </trkpt>
      <trkpt lat="37.4735900" lon="-4.4241300">
        <ele>519.4</ele>
        <time>2021-12-28T19:58:54Z</time>
      </trkpt>
      <trkpt lat="37.4735520" lon="-4.4241370">
        <ele>519.4</ele>
        <time>2021-12-28T19:58:55Z</time>
      </trkpt>
      <trkpt lat="37.4735170" lon="-4.4241400">
        <ele>519.4</ele>
        <time>2021-12-28T19:58:56Z</time>
      </trkpt>
      <trkpt lat="37.4734720" lon="-4.4241380">
        <ele>519.2</ele>
        <time>2021-12-28T19:58:57Z</time>
      </trkpt>
      <trkpt lat="37.4734430" lon="-4.4241370">
        <ele>519.2</ele>
        <time>2021-12-28T19:58:58Z</time>
      </trkpt>
      <trkpt lat="37.4734110" lon="-4.4241330">
        <ele>519.2</ele>
        <time>2021-12-28T19:58:59Z</time>
      </trkpt>
      <trkpt lat="37.4733860" lon="-4.4241370">
        <ele>519.0</ele>
        <time>2021-12-28T19:59:00Z</time>
      </trkpt>
      <trkpt lat="37.4733500" lon="-4.4241400">
        <ele>519.0</ele>
        <time>2021-12-28T19:59:01Z</time>
      </trkpt>
      <trkpt lat="37.4733220" lon="-4.4241430">
        <ele>519.0</ele>
        <time>2021-12-28T19:59:02Z</time>
      </trkpt>
      <trkpt lat="37.4732860" lon="-4.4241450">
        <ele>519.0</ele>
        <time>2021-12-28T19:59:03Z</time>
      </trkpt>
      <trkpt lat="37.4732540" lon="-4.4241470">
        <ele>519.0</ele>
        <time>2021-12-28T19:59:04Z</time>
      </trkpt>
      <trkpt lat="37.4732320" lon="-4.4241420">
        <ele>519.0</ele>
        <time>2021-12-28T19:59:05Z</time>
      </trkpt>
      <trkpt lat="37.4732100" lon="-4.4241430">
        <ele>519.0</ele>
        <time>2021-12-28T19:59:06Z</time>
      </trkpt>
      <trkpt lat="37.4731840" lon="-4.4241430">
        <ele>519.0</ele>
        <time>2021-12-28T19:59:07Z</time>
      </trkpt>
      <trkpt lat="37.4731490" lon="-4.4241450">
        <ele>519.0</ele>
        <time>2021-12-28T19:59:08Z</time>
      </trkpt>
      <trkpt lat="37.4731170" lon="-4.4241420">
        <ele>519.0</ele>
        <time>2021-12-28T19:59:09Z</time>
      </trkpt>
      <trkpt lat="37.4730880" lon="-4.4241380">
        <ele>519.0</ele>
        <time>2021-12-28T19:59:10Z</time>
      </trkpt>
      <trkpt lat="37.4730660" lon="-4.4241420">
        <ele>519.0</ele>
        <time>2021-12-28T19:59:11Z</time>
      </trkpt>
      <trkpt lat="37.4730300" lon="-4.4241450">
        <ele>519.0</ele>
        <time>2021-12-28T19:59:12Z</time>
      </trkpt>
      <trkpt lat="37.4729950" lon="-4.4241570">
        <ele>519.0</ele>
        <time>2021-12-28T19:59:13Z</time>
      </trkpt>
      <trkpt lat="37.4729660" lon="-4.4241650">
        <ele>519.0</ele>
        <time>2021-12-28T19:59:14Z</time>
      </trkpt>
      <trkpt lat="37.4729340" lon="-4.4241780">
        <ele>519.0</ele>
        <time>2021-12-28T19:59:15Z</time>
      </trkpt>
      <trkpt lat="37.4729060" lon="-4.4241880">
        <ele>519.0</ele>
        <time>2021-12-28T19:59:16Z</time>
      </trkpt>
      <trkpt lat="37.4728700" lon="-4.4242000">
        <ele>519.0</ele>
        <time>2021-12-28T19:59:17Z</time>
      </trkpt>
      <trkpt lat="37.4728380" lon="-4.4242080">
        <ele>519.0</ele>
        <time>2021-12-28T19:59:18Z</time>
      </trkpt>
      <trkpt lat="37.4728060" lon="-4.4242200">
        <ele>519.0</ele>
        <time>2021-12-28T19:59:19Z</time>
      </trkpt>
      <trkpt lat="37.4727780" lon="-4.4242320">
        <ele>518.8</ele>
        <time>2021-12-28T19:59:20Z</time>
      </trkpt>
      <trkpt lat="37.4727420" lon="-4.4242420">
        <ele>518.8</ele>
        <time>2021-12-28T19:59:21Z</time>
      </trkpt>
      <trkpt lat="37.4727200" lon="-4.4242420">
        <ele>518.8</ele>
        <time>2021-12-28T19:59:22Z</time>
      </trkpt>
      <trkpt lat="37.4726880" lon="-4.4242400">
        <ele>518.8</ele>
        <time>2021-12-28T19:59:23Z</time>
      </trkpt>
      <trkpt lat="37.4726560" lon="-4.4242380">
        <ele>518.8</ele>
        <time>2021-12-28T19:59:24Z</time>
      </trkpt>
      <trkpt lat="37.4726210" lon="-4.4242370">
        <ele>518.8</ele>
        <time>2021-12-28T19:59:25Z</time>
      </trkpt>
      <trkpt lat="37.4725920" lon="-4.4242370">
        <ele>518.8</ele>
        <time>2021-12-28T19:59:26Z</time>
      </trkpt>
      <trkpt lat="37.4725600" lon="-4.4242350">
        <ele>518.8</ele>
        <time>2021-12-28T19:59:27Z</time>
      </trkpt>
      <trkpt lat="37.4725220" lon="-4.4242370">
        <ele>518.6</ele>
        <time>2021-12-28T19:59:28Z</time>
      </trkpt>
      <trkpt lat="37.4724930" lon="-4.4242380">
        <ele>518.6</ele>
        <time>2021-12-28T19:59:29Z</time>
      </trkpt>
      <trkpt lat="37.4724610" lon="-4.4242380">
        <ele>518.4</ele>
        <time>2021-12-28T19:59:30Z</time>
      </trkpt>
      <trkpt lat="37.4724290" lon="-4.4242370">
        <ele>518.2</ele>
        <time>2021-12-28T19:59:31Z</time>
      </trkpt>
      <trkpt lat="37.4723970" lon="-4.4242350">
        <ele>518.2</ele>
        <time>2021-12-28T19:59:32Z</time>
      </trkpt>
      <trkpt lat="37.4723620" lon="-4.4242320">
        <ele>518.0</ele>
        <time>2021-12-28T19:59:33Z</time>
      </trkpt>
      <trkpt lat="37.4723330" lon="-4.4242320">
        <ele>518.0</ele>
        <time>2021-12-28T19:59:34Z</time>
      </trkpt>
      <trkpt lat="37.4723040" lon="-4.4242320">
        <ele>518.0</ele>
        <time>2021-12-28T19:59:35Z</time>
      </trkpt>
      <trkpt lat="37.4722750" lon="-4.4242320">
        <ele>518.0</ele>
        <time>2021-12-28T19:59:36Z</time>
      </trkpt>
      <trkpt lat="37.4722400" lon="-4.4242340">
        <ele>517.8</ele>
        <time>2021-12-28T19:59:37Z</time>
      </trkpt>
      <trkpt lat="37.4722110" lon="-4.4242350">
        <ele>517.8</ele>
        <time>2021-12-28T19:59:38Z</time>
      </trkpt>
      <trkpt lat="37.4721730" lon="-4.4242370">
        <ele>517.8</ele>
        <time>2021-12-28T19:59:39Z</time>
      </trkpt>
      <trkpt lat="37.4721340" lon="-4.4242350">
        <ele>517.8</ele>
        <time>2021-12-28T19:59:40Z</time>
      </trkpt>
      <trkpt lat="37.4720960" lon="-4.4242350">
        <ele>517.8</ele>
        <time>2021-12-28T19:59:41Z</time>
      </trkpt>
      <trkpt lat="37.4720610" lon="-4.4242350">
        <ele>517.6</ele>
        <time>2021-12-28T19:59:42Z</time>
      </trkpt>
      <trkpt lat="37.4720320" lon="-4.4242370">
        <ele>517.6</ele>
        <time>2021-12-28T19:59:43Z</time>
      </trkpt>
      <trkpt lat="37.4719970" lon="-4.4242380">
        <ele>517.6</ele>
        <time>2021-12-28T19:59:44Z</time>
      </trkpt>
      <trkpt lat="37.4719620" lon="-4.4242400">
        <ele>517.4</ele>
        <time>2021-12-28T19:59:45Z</time>
      </trkpt>
      <trkpt lat="37.4719260" lon="-4.4242400">
        <ele>517.4</ele>
        <time>2021-12-28T19:59:46Z</time>
      </trkpt>
      <trkpt lat="37.4718880" lon="-4.4242380">
        <ele>517.4</ele>
        <time>2021-12-28T19:59:47Z</time>
      </trkpt>
      <trkpt lat="37.4718530" lon="-4.4242380">
        <ele>517.2</ele>
        <time>2021-12-28T19:59:48Z</time>
      </trkpt>
      <trkpt lat="37.4718140" lon="-4.4242370">
        <ele>517.2</ele>
        <time>2021-12-28T19:59:49Z</time>
      </trkpt>
      <trkpt lat="37.4717760" lon="-4.4242400">
        <ele>517.2</ele>
        <time>2021-12-28T19:59:50Z</time>
      </trkpt>
      <trkpt lat="37.4717340" lon="-4.4242400">
        <ele>517.2</ele>
        <time>2021-12-28T19:59:51Z</time>
      </trkpt>
      <trkpt lat="37.4716990" lon="-4.4242420">
        <ele>517.2</ele>
        <time>2021-12-28T19:59:52Z</time>
      </trkpt>
      <trkpt lat="37.4716610" lon="-4.4242420">
        <ele>517.2</ele>
        <time>2021-12-28T19:59:53Z</time>
      </trkpt>
      <trkpt lat="37.4716290" lon="-4.4242400">
        <ele>517.2</ele>
        <time>2021-12-28T19:59:54Z</time>
      </trkpt>
      <trkpt lat="37.4715840" lon="-4.4242420">
        <ele>517.2</ele>
        <time>2021-12-28T19:59:55Z</time>
      </trkpt>
      <trkpt lat="37.4715420" lon="-4.4242450">
        <ele>517.2</ele>
        <time>2021-12-28T19:59:56Z</time>
      </trkpt>
      <trkpt lat="37.4715040" lon="-4.4242470">
        <ele>517.2</ele>
        <time>2021-12-28T19:59:57Z</time>
      </trkpt>
      <trkpt lat="37.4714750" lon="-4.4242470">
        <ele>517.2</ele>
        <time>2021-12-28T19:59:58Z</time>
      </trkpt>
      <trkpt lat="37.4714500" lon="-4.4242480">
        <ele>517.2</ele>
        <time>2021-12-28T19:59:59Z</time>
      </trkpt>
      <trkpt lat="37.4714000" lon="-4.4242520">
        <ele>517.2</ele>
        <time>2021-12-28T20:00:00Z</time>
      </trkpt>
      <trkpt lat="37.4713820" lon="-4.4242540">
        <ele>517.0</ele>
        <time>2021-12-28T20:00:01Z</time>
      </trkpt>
      <trkpt lat="37.4713500" lon="-4.4242540">
        <ele>517.0</ele>
        <time>2021-12-28T20:00:02Z</time>
      </trkpt>
      <trkpt lat="37.4713250" lon="-4.4242570">
        <ele>517.0</ele>
        <time>2021-12-28T20:00:03Z</time>
      </trkpt>
      <trkpt lat="37.4712990" lon="-4.4242570">
        <ele>517.0</ele>
        <time>2021-12-28T20:00:04Z</time>
      </trkpt>
      <trkpt lat="37.4712700" lon="-4.4242570">
        <ele>516.8</ele>
        <time>2021-12-28T20:00:05Z</time>
      </trkpt>
      <trkpt lat="37.4712420" lon="-4.4242540">
        <ele>516.8</ele>
        <time>2021-12-28T20:00:06Z</time>
      </trkpt>
      <trkpt lat="37.4712130" lon="-4.4242520">
        <ele>516.8</ele>
        <time>2021-12-28T20:00:07Z</time>
      </trkpt>
      <trkpt lat="37.4711780" lon="-4.4242500">
        <ele>516.8</ele>
        <time>2021-12-28T20:00:08Z</time>
      </trkpt>
      <trkpt lat="37.4711420" lon="-4.4242500">
        <ele>516.6</ele>
        <time>2021-12-28T20:00:09Z</time>
      </trkpt>
      <trkpt lat="37.4711070" lon="-4.4242500">
        <ele>516.6</ele>
        <time>2021-12-28T20:00:10Z</time>
      </trkpt>
      <trkpt lat="37.4710720" lon="-4.4242500">
        <ele>516.4</ele>
        <time>2021-12-28T20:00:11Z</time>
      </trkpt>
      <trkpt lat="37.4710430" lon="-4.4242520">
        <ele>516.2</ele>
        <time>2021-12-28T20:00:12Z</time>
      </trkpt>
      <trkpt lat="37.4710080" lon="-4.4242570">
        <ele>516.2</ele>
        <time>2021-12-28T20:00:13Z</time>
      </trkpt>
      <trkpt lat="37.4709730" lon="-4.4242570">
        <ele>516.0</ele>
        <time>2021-12-28T20:00:14Z</time>
      </trkpt>
      <trkpt lat="37.4709440" lon="-4.4242570">
        <ele>515.8</ele>
        <time>2021-12-28T20:00:15Z</time>
      </trkpt>
      <trkpt lat="37.4709150" lon="-4.4242570">
        <ele>515.8</ele>
        <time>2021-12-28T20:00:16Z</time>
      </trkpt>
      <trkpt lat="37.4708930" lon="-4.4242550">
        <ele>515.6</ele>
        <time>2021-12-28T20:00:17Z</time>
      </trkpt>
      <trkpt lat="37.4708640" lon="-4.4242540">
        <ele>515.6</ele>
        <time>2021-12-28T20:00:18Z</time>
      </trkpt>
      <trkpt lat="37.4708350" lon="-4.4242520">
        <ele>515.6</ele>
        <time>2021-12-28T20:00:19Z</time>
      </trkpt>
      <trkpt lat="37.4708100" lon="-4.4242500">
        <ele>515.6</ele>
        <time>2021-12-28T20:00:20Z</time>
      </trkpt>
      <trkpt lat="37.4707840" lon="-4.4242540">
        <ele>515.4</ele>
        <time>2021-12-28T20:00:21Z</time>
      </trkpt>
      <trkpt lat="37.4707550" lon="-4.4242550">
        <ele>515.4</ele>
        <time>2021-12-28T20:00:22Z</time>
      </trkpt>
      <trkpt lat="37.4707300" lon="-4.4242580">
        <ele>515.4</ele>
        <time>2021-12-28T20:00:23Z</time>
      </trkpt>
      <trkpt lat="37.4707040" lon="-4.4242580">
        <ele>515.4</ele>
        <time>2021-12-28T20:00:24Z</time>
      </trkpt>
      <trkpt lat="37.4706720" lon="-4.4242570">
        <ele>515.2</ele>
        <time>2021-12-28T20:00:25Z</time>
      </trkpt>
      <trkpt lat="37.4706460" lon="-4.4242540">
        <ele>515.2</ele>
        <time>2021-12-28T20:00:26Z</time>
      </trkpt>
      <trkpt lat="37.4706110" lon="-4.4242500">
        <ele>515.0</ele>
        <time>2021-12-28T20:00:27Z</time>
      </trkpt>
      <trkpt lat="37.4705730" lon="-4.4242470">
        <ele>515.0</ele>
        <time>2021-12-28T20:00:28Z</time>
      </trkpt>
      <trkpt lat="37.4705380" lon="-4.4242440">
        <ele>514.8</ele>
        <time>2021-12-28T20:00:29Z</time>
      </trkpt>
      <trkpt lat="37.4705120" lon="-4.4242440">
        <ele>514.8</ele>
        <time>2021-12-28T20:00:30Z</time>
      </trkpt>
      <trkpt lat="37.4704670" lon="-4.4242480">
        <ele>514.8</ele>
        <time>2021-12-28T20:00:31Z</time>
      </trkpt>
      <trkpt lat="37.4704320" lon="-4.4242500">
        <ele>514.6</ele>
        <time>2021-12-28T20:00:32Z</time>
      </trkpt>
      <trkpt lat="37.4703970" lon="-4.4242500">
        <ele>514.6</ele>
        <time>2021-12-28T20:00:33Z</time>
      </trkpt>
      <trkpt lat="37.4703650" lon="-4.4242480">
        <ele>514.6</ele>
        <time>2021-12-28T20:00:34Z</time>
      </trkpt>
      <trkpt lat="37.4703360" lon="-4.4242480">
        <ele>514.6</ele>
        <time>2021-12-28T20:00:35Z</time>
      </trkpt>
      <trkpt lat="37.4703040" lon="-4.4242480">
        <ele>514.6</ele>
        <time>2021-12-28T20:00:36Z</time>
      </trkpt>
      <trkpt lat="37.4702690" lon="-4.4242440">
        <ele>514.4</ele>
        <time>2021-12-28T20:00:37Z</time>
      </trkpt>
      <trkpt lat="37.4702300" lon="-4.4242420">
        <ele>514.4</ele>
        <time>2021-12-28T20:00:38Z</time>
      </trkpt>
      <trkpt lat="37.4701920" lon="-4.4242380">
        <ele>514.4</ele>
        <time>2021-12-28T20:00:39Z</time>
      </trkpt>
      <trkpt lat="37.4701540" lon="-4.4242340">
        <ele>514.2</ele>
        <time>2021-12-28T20:00:40Z</time>
      </trkpt>
      <trkpt lat="37.4701250" lon="-4.4242300">
        <ele>514.2</ele>
        <time>2021-12-28T20:00:41Z</time>
      </trkpt>
      <trkpt lat="37.4700900" lon="-4.4242240">
        <ele>514.2</ele>
        <time>2021-12-28T20:00:42Z</time>
      </trkpt>
      <trkpt lat="37.4700540" lon="-4.4242200">
        <ele>514.2</ele>
        <time>2021-12-28T20:00:43Z</time>
      </trkpt>
      <trkpt lat="37.4700160" lon="-4.4242180">
        <ele>514.2</ele>
        <time>2021-12-28T20:00:44Z</time>
      </trkpt>
      <trkpt lat="37.4699810" lon="-4.4242150">
        <ele>514.2</ele>
        <time>2021-12-28T20:00:45Z</time>
      </trkpt>
      <trkpt lat="37.4699520" lon="-4.4242140">
        <ele>514.2</ele>
        <time>2021-12-28T20:00:46Z</time>
      </trkpt>
      <trkpt lat="37.4699140" lon="-4.4242070">
        <ele>514.2</ele>
        <time>2021-12-28T20:00:47Z</time>
      </trkpt>
      <trkpt lat="37.4698780" lon="-4.4242050">
        <ele>514.2</ele>
        <time>2021-12-28T20:00:48Z</time>
      </trkpt>
      <trkpt lat="37.4698460" lon="-4.4242020">
        <ele>514.2</ele>
        <time>2021-12-28T20:00:49Z</time>
      </trkpt>
      <trkpt lat="37.4698140" lon="-4.4241930">
        <ele>514.2</ele>
        <time>2021-12-28T20:00:50Z</time>
      </trkpt>
      <trkpt lat="37.4697760" lon="-4.4241900">
        <ele>514.4</ele>
        <time>2021-12-28T20:00:51Z</time>
      </trkpt>
      <trkpt lat="37.4697380" lon="-4.4241870">
        <ele>514.4</ele>
        <time>2021-12-28T20:00:52Z</time>
      </trkpt>
      <trkpt lat="37.4696990" lon="-4.4241780">
        <ele>514.4</ele>
        <time>2021-12-28T20:00:53Z</time>
      </trkpt>
      <trkpt lat="37.4696610" lon="-4.4241680">
        <ele>514.4</ele>
        <time>2021-12-28T20:00:54Z</time>
      </trkpt>
      <trkpt lat="37.4696320" lon="-4.4241600">
        <ele>514.4</ele>
        <time>2021-12-28T20:00:55Z</time>
      </trkpt>
      <trkpt lat="37.4695970" lon="-4.4241520">
        <ele>514.6</ele>
        <time>2021-12-28T20:00:56Z</time>
      </trkpt>
      <trkpt lat="37.4695650" lon="-4.4241400">
        <ele>514.6</ele>
        <time>2021-12-28T20:00:57Z</time>
      </trkpt>
      <trkpt lat="37.4695330" lon="-4.4241330">
        <ele>514.6</ele>
        <time>2021-12-28T20:00:58Z</time>
      </trkpt>
      <trkpt lat="37.4694980" lon="-4.4241230">
        <ele>514.6</ele>
        <time>2021-12-28T20:00:59Z</time>
      </trkpt>
      <trkpt lat="37.4694620" lon="-4.4241170">
        <ele>514.6</ele>
        <time>2021-12-28T20:01:00Z</time>
      </trkpt>
      <trkpt lat="37.4694240" lon="-4.4241050">
        <ele>514.4</ele>
        <time>2021-12-28T20:01:01Z</time>
      </trkpt>
      <trkpt lat="37.4693860" lon="-4.4240960">
        <ele>514.4</ele>
        <time>2021-12-28T20:01:02Z</time>
      </trkpt>
      <trkpt lat="37.4693540" lon="-4.4240880">
        <ele>514.4</ele>
        <time>2021-12-28T20:01:03Z</time>
      </trkpt>
      <trkpt lat="37.4693180" lon="-4.4240760">
        <ele>514.4</ele>
        <time>2021-12-28T20:01:04Z</time>
      </trkpt>
      <trkpt lat="37.4692770" lon="-4.4240680">
        <ele>514.2</ele>
        <time>2021-12-28T20:01:05Z</time>
      </trkpt>
      <trkpt lat="37.4692420" lon="-4.4240560">
        <ele>514.2</ele>
        <time>2021-12-28T20:01:06Z</time>
      </trkpt>
      <trkpt lat="37.4692060" lon="-4.4240430">
        <ele>514.0</ele>
        <time>2021-12-28T20:01:07Z</time>
      </trkpt>
      <trkpt lat="37.4691780" lon="-4.4240280">
        <ele>513.8</ele>
        <time>2021-12-28T20:01:08Z</time>
      </trkpt>
      <trkpt lat="37.4691330" lon="-4.4240100">
        <ele>513.8</ele>
        <time>2021-12-28T20:01:09Z</time>
      </trkpt>
      <trkpt lat="37.4690980" lon="-4.4239950">
        <ele>513.8</ele>
        <time>2021-12-28T20:01:10Z</time>
      </trkpt>
      <trkpt lat="37.4690620" lon="-4.4239800">
        <ele>513.8</ele>
        <time>2021-12-28T20:01:11Z</time>
      </trkpt>
      <trkpt lat="37.4690210" lon="-4.4239650">
        <ele>513.6</ele>
        <time>2021-12-28T20:01:12Z</time>
      </trkpt>
      <trkpt lat="37.4689820" lon="-4.4239480">
        <ele>513.6</ele>
        <time>2021-12-28T20:01:13Z</time>
      </trkpt>
      <trkpt lat="37.4689470" lon="-4.4239270">
        <ele>513.4</ele>
        <time>2021-12-28T20:01:14Z</time>
      </trkpt>
      <trkpt lat="37.4689090" lon="-4.4239050">
        <ele>513.2</ele>
        <time>2021-12-28T20:01:15Z</time>
      </trkpt>
      <trkpt lat="37.4688670" lon="-4.4238840">
        <ele>513.2</ele>
        <time>2021-12-28T20:01:16Z</time>
      </trkpt>
      <trkpt lat="37.4688380" lon="-4.4238670">
        <ele>513.0</ele>
        <time>2021-12-28T20:01:17Z</time>
      </trkpt>
      <trkpt lat="37.4687900" lon="-4.4238370">
        <ele>513.0</ele>
        <time>2021-12-28T20:01:18Z</time>
      </trkpt>
      <trkpt lat="37.4687490" lon="-4.4238130">
        <ele>512.8</ele>
        <time>2021-12-28T20:01:19Z</time>
      </trkpt>
      <trkpt lat="37.4687100" lon="-4.4237920">
        <ele>512.8</ele>
        <time>2021-12-28T20:01:20Z</time>
      </trkpt>
      <trkpt lat="37.4686820" lon="-4.4237720">
        <ele>512.6</ele>
        <time>2021-12-28T20:01:21Z</time>
      </trkpt>
      <trkpt lat="37.4686370" lon="-4.4237430">
        <ele>512.6</ele>
        <time>2021-12-28T20:01:22Z</time>
      </trkpt>
      <trkpt lat="37.4686020" lon="-4.4237200">
        <ele>512.4</ele>
        <time>2021-12-28T20:01:23Z</time>
      </trkpt>
      <trkpt lat="37.4685630" lon="-4.4236960">
        <ele>512.4</ele>
        <time>2021-12-28T20:01:24Z</time>
      </trkpt>
      <trkpt lat="37.4685250" lon="-4.4236750">
        <ele>512.2</ele>
        <time>2021-12-28T20:01:25Z</time>
      </trkpt>
      <trkpt lat="37.4684860" lon="-4.4236530">
        <ele>512.2</ele>
        <time>2021-12-28T20:01:26Z</time>
      </trkpt>
      <trkpt lat="37.4684480" lon="-4.4236320">
        <ele>512.2</ele>
        <time>2021-12-28T20:01:27Z</time>
      </trkpt>
      <trkpt lat="37.4684060" lon="-4.4236100">
        <ele>512.0</ele>
        <time>2021-12-28T20:01:28Z</time>
      </trkpt>
      <trkpt lat="37.4683680" lon="-4.4235900">
        <ele>512.0</ele>
        <time>2021-12-28T20:01:29Z</time>
      </trkpt>
      <trkpt lat="37.4683300" lon="-4.4235670">
        <ele>512.0</ele>
        <time>2021-12-28T20:01:30Z</time>
      </trkpt>
      <trkpt lat="37.4682880" lon="-4.4235440">
        <ele>511.8</ele>
        <time>2021-12-28T20:01:31Z</time>
      </trkpt>
      <trkpt lat="37.4682500" lon="-4.4235220">
        <ele>511.8</ele>
        <time>2021-12-28T20:01:32Z</time>
      </trkpt>
      <trkpt lat="37.4682080" lon="-4.4235000">
        <ele>511.8</ele>
        <time>2021-12-28T20:01:33Z</time>
      </trkpt>
      <trkpt lat="37.4681700" lon="-4.4234750">
        <ele>511.6</ele>
        <time>2021-12-28T20:01:34Z</time>
      </trkpt>
      <trkpt lat="37.4681280" lon="-4.4234500">
        <ele>511.6</ele>
        <time>2021-12-28T20:01:35Z</time>
      </trkpt>
      <trkpt lat="37.4680900" lon="-4.4234270">
        <ele>511.6</ele>
        <time>2021-12-28T20:01:36Z</time>
      </trkpt>
      <trkpt lat="37.4680480" lon="-4.4234020">
        <ele>511.6</ele>
        <time>2021-12-28T20:01:37Z</time>
      </trkpt>
      <trkpt lat="37.4680060" lon="-4.4233750">
        <ele>511.6</ele>
        <time>2021-12-28T20:01:38Z</time>
      </trkpt>
      <trkpt lat="37.4679650" lon="-4.4233500">
        <ele>511.6</ele>
        <time>2021-12-28T20:01:39Z</time>
      </trkpt>
      <trkpt lat="37.4679260" lon="-4.4233200">
        <ele>511.6</ele>
        <time>2021-12-28T20:01:40Z</time>
      </trkpt>
      <trkpt lat="37.4678850" lon="-4.4232950">
        <ele>511.6</ele>
        <time>2021-12-28T20:01:41Z</time>
      </trkpt>
      <trkpt lat="37.4678430" lon="-4.4232700">
        <ele>511.6</ele>
        <time>2021-12-28T20:01:42Z</time>
      </trkpt>
      <trkpt lat="37.4678050" lon="-4.4232440">
        <ele>511.6</ele>
        <time>2021-12-28T20:01:43Z</time>
      </trkpt>
      <trkpt lat="37.4677630" lon="-4.4232180">
        <ele>511.6</ele>
        <time>2021-12-28T20:01:44Z</time>
      </trkpt>
      <trkpt lat="37.4677250" lon="-4.4231980">
        <ele>511.6</ele>
        <time>2021-12-28T20:01:45Z</time>
      </trkpt>
      <trkpt lat="37.4676900" lon="-4.4231770">
        <ele>511.8</ele>
        <time>2021-12-28T20:01:46Z</time>
      </trkpt>
      <trkpt lat="37.4676580" lon="-4.4231580">
        <ele>511.8</ele>
        <time>2021-12-28T20:01:47Z</time>
      </trkpt>
      <trkpt lat="37.4676290" lon="-4.4231400">
        <ele>511.8</ele>
        <time>2021-12-28T20:01:48Z</time>
      </trkpt>
      <trkpt lat="37.4675970" lon="-4.4231220">
        <ele>511.8</ele>
        <time>2021-12-28T20:01:49Z</time>
      </trkpt>
      <trkpt lat="37.4675710" lon="-4.4231050">
        <ele>511.6</ele>
        <time>2021-12-28T20:01:50Z</time>
      </trkpt>
      <trkpt lat="37.4675390" lon="-4.4230880">
        <ele>511.6</ele>
        <time>2021-12-28T20:01:51Z</time>
      </trkpt>
      <trkpt lat="37.4675100" lon="-4.4230730">
        <ele>511.6</ele>
        <time>2021-12-28T20:01:52Z</time>
      </trkpt>
      <trkpt lat="37.4674850" lon="-4.4230550">
        <ele>511.4</ele>
        <time>2021-12-28T20:01:53Z</time>
      </trkpt>
      <trkpt lat="37.4674370" lon="-4.4230300">
        <ele>511.4</ele>
        <time>2021-12-28T20:01:54Z</time>
      </trkpt>
      <trkpt lat="37.4673950" lon="-4.4230060">
        <ele>511.4</ele>
        <time>2021-12-28T20:01:55Z</time>
      </trkpt>
      <trkpt lat="37.4673540" lon="-4.4229830">
        <ele>511.4</ele>
        <time>2021-12-28T20:01:56Z</time>
      </trkpt>
      <trkpt lat="37.4673150" lon="-4.4229600">
        <ele>511.2</ele>
        <time>2021-12-28T20:01:57Z</time>
      </trkpt>
      <trkpt lat="37.4672770" lon="-4.4229380">
        <ele>511.2</ele>
        <time>2021-12-28T20:01:58Z</time>
      </trkpt>
      <trkpt lat="37.4672350" lon="-4.4229140">
        <ele>511.0</ele>
        <time>2021-12-28T20:01:59Z</time>
      </trkpt>
      <trkpt lat="37.4671970" lon="-4.4228920">
        <ele>510.8</ele>
        <time>2021-12-28T20:02:00Z</time>
      </trkpt>
      <trkpt lat="37.4671620" lon="-4.4228700">
        <ele>510.8</ele>
        <time>2021-12-28T20:02:01Z</time>
      </trkpt>
      <trkpt lat="37.4671260" lon="-4.4228480">
        <ele>510.6</ele>
        <time>2021-12-28T20:02:02Z</time>
      </trkpt>
      <trkpt lat="37.4670880" lon="-4.4228250">
        <ele>510.6</ele>
        <time>2021-12-28T20:02:03Z</time>
      </trkpt>
      <trkpt lat="37.4670500" lon="-4.4228020">
        <ele>510.4</ele>
        <time>2021-12-28T20:02:04Z</time>
      </trkpt>
      <trkpt lat="37.4670140" lon="-4.4227820">
        <ele>510.4</ele>
        <time>2021-12-28T20:02:05Z</time>
      </trkpt>
      <trkpt lat="37.4669790" lon="-4.4227630">
        <ele>510.2</ele>
        <time>2021-12-28T20:02:06Z</time>
      </trkpt>
      <trkpt lat="37.4669340" lon="-4.4227330">
        <ele>510.2</ele>
        <time>2021-12-28T20:02:07Z</time>
      </trkpt>
      <trkpt lat="37.4668990" lon="-4.4227050">
        <ele>510.0</ele>
        <time>2021-12-28T20:02:08Z</time>
      </trkpt>
      <trkpt lat="37.4668610" lon="-4.4226850">
        <ele>510.0</ele>
        <time>2021-12-28T20:02:09Z</time>
      </trkpt>
      <trkpt lat="37.4668190" lon="-4.4226630">
        <ele>509.8</ele>
        <time>2021-12-28T20:02:10Z</time>
      </trkpt>
      <trkpt lat="37.4667810" lon="-4.4226400">
        <ele>509.8</ele>
        <time>2021-12-28T20:02:11Z</time>
      </trkpt>
      <trkpt lat="37.4667420" lon="-4.4226160">
        <ele>509.8</ele>
        <time>2021-12-28T20:02:12Z</time>
      </trkpt>
      <trkpt lat="37.4667010" lon="-4.4225980">
        <ele>509.8</ele>
        <time>2021-12-28T20:02:13Z</time>
      </trkpt>
      <trkpt lat="37.4666620" lon="-4.4225800">
        <ele>509.8</ele>
        <time>2021-12-28T20:02:14Z</time>
      </trkpt>
      <trkpt lat="37.4666210" lon="-4.4225640">
        <ele>509.6</ele>
        <time>2021-12-28T20:02:15Z</time>
      </trkpt>
      <trkpt lat="37.4665820" lon="-4.4225450">
        <ele>509.6</ele>
        <time>2021-12-28T20:02:16Z</time>
      </trkpt>
      <trkpt lat="37.4665440" lon="-4.4225270">
        <ele>509.6</ele>
        <time>2021-12-28T20:02:17Z</time>
      </trkpt>
      <trkpt lat="37.4665060" lon="-4.4225120">
        <ele>509.6</ele>
        <time>2021-12-28T20:02:18Z</time>
      </trkpt>
      <trkpt lat="37.4664740" lon="-4.4224940">
        <ele>509.4</ele>
        <time>2021-12-28T20:02:19Z</time>
      </trkpt>
      <trkpt lat="37.4664380" lon="-4.4224780">
        <ele>509.4</ele>
        <time>2021-12-28T20:02:20Z</time>
      </trkpt>
      <trkpt lat="37.4664060" lon="-4.4224640">
        <ele>509.4</ele>
        <time>2021-12-28T20:02:21Z</time>
      </trkpt>
      <trkpt lat="37.4663740" lon="-4.4224480">
        <ele>509.4</ele>
        <time>2021-12-28T20:02:22Z</time>
      </trkpt>
      <trkpt lat="37.4663390" lon="-4.4224370">
        <ele>509.4</ele>
        <time>2021-12-28T20:02:23Z</time>
      </trkpt>
      <trkpt lat="37.4663140" lon="-4.4224280">
        <ele>509.4</ele>
        <time>2021-12-28T20:02:24Z</time>
      </trkpt>
      <trkpt lat="37.4662720" lon="-4.4224170">
        <ele>509.4</ele>
        <time>2021-12-28T20:02:25Z</time>
      </trkpt>
      <trkpt lat="37.4662400" lon="-4.4224070">
        <ele>509.4</ele>
        <time>2021-12-28T20:02:26Z</time>
      </trkpt>
      <trkpt lat="37.4662020" lon="-4.4223970">
        <ele>509.4</ele>
        <time>2021-12-28T20:02:27Z</time>
      </trkpt>
      <trkpt lat="37.4661660" lon="-4.4223850">
        <ele>509.2</ele>
        <time>2021-12-28T20:02:28Z</time>
      </trkpt>
      <trkpt lat="37.4661340" lon="-4.4223750">
        <ele>509.0</ele>
        <time>2021-12-28T20:02:29Z</time>
      </trkpt>
      <trkpt lat="37.4661020" lon="-4.4223630">
        <ele>509.0</ele>
        <time>2021-12-28T20:02:30Z</time>
      </trkpt>
      <trkpt lat="37.4660670" lon="-4.4223550">
        <ele>508.8</ele>
        <time>2021-12-28T20:02:31Z</time>
      </trkpt>
      <trkpt lat="37.4660350" lon="-4.4223450">
        <ele>508.6</ele>
        <time>2021-12-28T20:02:32Z</time>
      </trkpt>
      <trkpt lat="37.4660030" lon="-4.4223350">
        <ele>508.6</ele>
        <time>2021-12-28T20:02:33Z</time>
      </trkpt>
      <trkpt lat="37.4659680" lon="-4.4223220">
        <ele>508.4</ele>
        <time>2021-12-28T20:02:34Z</time>
      </trkpt>
      <trkpt lat="37.4659360" lon="-4.4223100">
        <ele>508.4</ele>
        <time>2021-12-28T20:02:35Z</time>
      </trkpt>
      <trkpt lat="37.4658980" lon="-4.4223030">
        <ele>508.4</ele>
        <time>2021-12-28T20:02:36Z</time>
      </trkpt>
      <trkpt lat="37.4658620" lon="-4.4222950">
        <ele>508.2</ele>
        <time>2021-12-28T20:02:37Z</time>
      </trkpt>
      <trkpt lat="37.4658270" lon="-4.4222880">
        <ele>508.2</ele>
        <time>2021-12-28T20:02:38Z</time>
      </trkpt>
      <trkpt lat="37.4657890" lon="-4.4222820">
        <ele>508.0</ele>
        <time>2021-12-28T20:02:39Z</time>
      </trkpt>
      <trkpt lat="37.4657570" lon="-4.4222760">
        <ele>508.0</ele>
        <time>2021-12-28T20:02:40Z</time>
      </trkpt>
      <trkpt lat="37.4657220" lon="-4.4222720">
        <ele>508.0</ele>
        <time>2021-12-28T20:02:41Z</time>
      </trkpt>
      <trkpt lat="37.4656860" lon="-4.4222630">
        <ele>507.8</ele>
        <time>2021-12-28T20:02:42Z</time>
      </trkpt>
      <trkpt lat="37.4656510" lon="-4.4222580">
        <ele>507.8</ele>
        <time>2021-12-28T20:02:43Z</time>
      </trkpt>
      <trkpt lat="37.4656130" lon="-4.4222530">
        <ele>507.6</ele>
        <time>2021-12-28T20:02:44Z</time>
      </trkpt>
      <trkpt lat="37.4655780" lon="-4.4222520">
        <ele>507.6</ele>
        <time>2021-12-28T20:02:45Z</time>
      </trkpt>
      <trkpt lat="37.4655390" lon="-4.4222480">
        <ele>507.6</ele>
        <time>2021-12-28T20:02:46Z</time>
      </trkpt>
      <trkpt lat="37.4655010" lon="-4.4222450">
        <ele>507.4</ele>
        <time>2021-12-28T20:02:47Z</time>
      </trkpt>
      <trkpt lat="37.4654620" lon="-4.4222400">
        <ele>507.4</ele>
        <time>2021-12-28T20:02:48Z</time>
      </trkpt>
      <trkpt lat="37.4654240" lon="-4.4222380">
        <ele>507.2</ele>
        <time>2021-12-28T20:02:49Z</time>
      </trkpt>
      <trkpt lat="37.4653820" lon="-4.4222350">
        <ele>507.2</ele>
        <time>2021-12-28T20:02:50Z</time>
      </trkpt>
      <trkpt lat="37.4653440" lon="-4.4222350">
        <ele>507.0</ele>
        <time>2021-12-28T20:02:51Z</time>
      </trkpt>
      <trkpt lat="37.4653020" lon="-4.4222340">
        <ele>506.8</ele>
        <time>2021-12-28T20:02:52Z</time>
      </trkpt>
      <trkpt lat="37.4652640" lon="-4.4222350">
        <ele>506.8</ele>
        <time>2021-12-28T20:02:53Z</time>
      </trkpt>
      <trkpt lat="37.4652220" lon="-4.4222340">
        <ele>506.6</ele>
        <time>2021-12-28T20:02:54Z</time>
      </trkpt>
      <trkpt lat="37.4651840" lon="-4.4222350">
        <ele>506.4</ele>
        <time>2021-12-28T20:02:55Z</time>
      </trkpt>
      <trkpt lat="37.4651420" lon="-4.4222340">
        <ele>506.4</ele>
        <time>2021-12-28T20:02:56Z</time>
      </trkpt>
      <trkpt lat="37.4651040" lon="-4.4222300">
        <ele>506.2</ele>
        <time>2021-12-28T20:02:57Z</time>
      </trkpt>
      <trkpt lat="37.4650690" lon="-4.4222230">
        <ele>506.0</ele>
        <time>2021-12-28T20:02:58Z</time>
      </trkpt>
      <trkpt lat="37.4650300" lon="-4.4222200">
        <ele>506.0</ele>
        <time>2021-12-28T20:02:59Z</time>
      </trkpt>
      <trkpt lat="37.4649920" lon="-4.4222200">
        <ele>505.8</ele>
        <time>2021-12-28T20:03:00Z</time>
      </trkpt>
      <trkpt lat="37.4649540" lon="-4.4222200">
        <ele>505.8</ele>
        <time>2021-12-28T20:03:01Z</time>
      </trkpt>
      <trkpt lat="37.4649150" lon="-4.4222220">
        <ele>505.6</ele>
        <time>2021-12-28T20:03:02Z</time>
      </trkpt>
      <trkpt lat="37.4648770" lon="-4.4222250">
        <ele>505.6</ele>
        <time>2021-12-28T20:03:03Z</time>
      </trkpt>
      <trkpt lat="37.4648380" lon="-4.4222280">
        <ele>505.4</ele>
        <time>2021-12-28T20:03:04Z</time>
      </trkpt>
      <trkpt lat="37.4648060" lon="-4.4222320">
        <ele>505.4</ele>
        <time>2021-12-28T20:03:05Z</time>
      </trkpt>
      <trkpt lat="37.4647710" lon="-4.4222340">
        <ele>505.4</ele>
        <time>2021-12-28T20:03:06Z</time>
      </trkpt>
      <trkpt lat="37.4647300" lon="-4.4222340">
        <ele>505.2</ele>
        <time>2021-12-28T20:03:07Z</time>
      </trkpt>
      <trkpt lat="37.4646910" lon="-4.4222320">
        <ele>505.2</ele>
        <time>2021-12-28T20:03:08Z</time>
      </trkpt>
      <trkpt lat="37.4646500" lon="-4.4222340">
        <ele>505.2</ele>
        <time>2021-12-28T20:03:09Z</time>
      </trkpt>
      <trkpt lat="37.4646080" lon="-4.4222320">
        <ele>505.0</ele>
        <time>2021-12-28T20:03:10Z</time>
      </trkpt>
      <trkpt lat="37.4645700" lon="-4.4222340">
        <ele>505.0</ele>
        <time>2021-12-28T20:03:11Z</time>
      </trkpt>
      <trkpt lat="37.4645310" lon="-4.4222360">
        <ele>505.0</ele>
        <time>2021-12-28T20:03:12Z</time>
      </trkpt>
      <trkpt lat="37.4644930" lon="-4.4222400">
        <ele>505.0</ele>
        <time>2021-12-28T20:03:13Z</time>
      </trkpt>
      <trkpt lat="37.4644540" lon="-4.4222450">
        <ele>505.0</ele>
        <time>2021-12-28T20:03:14Z</time>
      </trkpt>
      <trkpt lat="37.4644130" lon="-4.4222480">
        <ele>504.8</ele>
        <time>2021-12-28T20:03:15Z</time>
      </trkpt>
      <trkpt lat="37.4643740" lon="-4.4222550">
        <ele>504.8</ele>
        <time>2021-12-28T20:03:16Z</time>
      </trkpt>
      <trkpt lat="37.4643360" lon="-4.4222520">
        <ele>504.8</ele>
        <time>2021-12-28T20:03:17Z</time>
      </trkpt>
      <trkpt lat="37.4642940" lon="-4.4222520">
        <ele>504.8</ele>
        <time>2021-12-28T20:03:18Z</time>
      </trkpt>
      <trkpt lat="37.4642530" lon="-4.4222620">
        <ele>504.8</ele>
        <time>2021-12-28T20:03:19Z</time>
      </trkpt>
      <trkpt lat="37.4642140" lon="-4.4222680">
        <ele>504.8</ele>
        <time>2021-12-28T20:03:20Z</time>
      </trkpt>
      <trkpt lat="37.4641760" lon="-4.4222720">
        <ele>504.8</ele>
        <time>2021-12-28T20:03:21Z</time>
      </trkpt>
      <trkpt lat="37.4641410" lon="-4.4222780">
        <ele>504.8</ele>
        <time>2021-12-28T20:03:22Z</time>
      </trkpt>
      <trkpt lat="37.4641020" lon="-4.4222860">
        <ele>504.8</ele>
        <time>2021-12-28T20:03:23Z</time>
      </trkpt>
      <trkpt lat="37.4640640" lon="-4.4222980">
        <ele>504.8</ele>
        <time>2021-12-28T20:03:24Z</time>
      </trkpt>
      <trkpt lat="37.4640320" lon="-4.4223060">
        <ele>504.8</ele>
        <time>2021-12-28T20:03:25Z</time>
      </trkpt>
      <trkpt lat="37.4639940" lon="-4.4223160">
        <ele>504.8</ele>
        <time>2021-12-28T20:03:26Z</time>
      </trkpt>
      <trkpt lat="37.4639550" lon="-4.4223260">
        <ele>504.8</ele>
        <time>2021-12-28T20:03:27Z</time>
      </trkpt>
      <trkpt lat="37.4639170" lon="-4.4223360">
        <ele>504.6</ele>
        <time>2021-12-28T20:03:28Z</time>
      </trkpt>
      <trkpt lat="37.4638820" lon="-4.4223450">
        <ele>504.6</ele>
        <time>2021-12-28T20:03:29Z</time>
      </trkpt>
      <trkpt lat="37.4638430" lon="-4.4223530">
        <ele>504.6</ele>
        <time>2021-12-28T20:03:30Z</time>
      </trkpt>
      <trkpt lat="37.4638180" lon="-4.4223620">
        <ele>504.6</ele>
        <time>2021-12-28T20:03:31Z</time>
      </trkpt>
      <trkpt lat="37.4637700" lon="-4.4223750">
        <ele>504.6</ele>
        <time>2021-12-28T20:03:32Z</time>
      </trkpt>
      <trkpt lat="37.4637250" lon="-4.4223870">
        <ele>504.6</ele>
        <time>2021-12-28T20:03:33Z</time>
      </trkpt>
      <trkpt lat="37.4636830" lon="-4.4224000">
        <ele>504.6</ele>
        <time>2021-12-28T20:03:34Z</time>
      </trkpt>
      <trkpt lat="37.4636420" lon="-4.4224130">
        <ele>504.4</ele>
        <time>2021-12-28T20:03:35Z</time>
      </trkpt>
      <trkpt lat="37.4636000" lon="-4.4224270">
        <ele>504.4</ele>
        <time>2021-12-28T20:03:36Z</time>
      </trkpt>
      <trkpt lat="37.4635550" lon="-4.4224420">
        <ele>504.2</ele>
        <time>2021-12-28T20:03:37Z</time>
      </trkpt>
      <trkpt lat="37.4635140" lon="-4.4224550">
        <ele>504.2</ele>
        <time>2021-12-28T20:03:38Z</time>
      </trkpt>
      <trkpt lat="37.4634750" lon="-4.4224570">
        <ele>504.0</ele>
        <time>2021-12-28T20:03:39Z</time>
      </trkpt>
      <trkpt lat="37.4634400" lon="-4.4224700">
        <ele>504.0</ele>
        <time>2021-12-28T20:03:40Z</time>
      </trkpt>
      <trkpt lat="37.4634080" lon="-4.4224840">
        <ele>503.8</ele>
        <time>2021-12-28T20:03:41Z</time>
      </trkpt>
      <trkpt lat="37.4633760" lon="-4.4224970">
        <ele>503.6</ele>
        <time>2021-12-28T20:03:42Z</time>
      </trkpt>
      <trkpt lat="37.4633380" lon="-4.4225140">
        <ele>503.6</ele>
        <time>2021-12-28T20:03:43Z</time>
      </trkpt>
      <trkpt lat="37.4633090" lon="-4.4225270">
        <ele>503.4</ele>
        <time>2021-12-28T20:03:44Z</time>
      </trkpt>
      <trkpt lat="37.4632640" lon="-4.4225480">
        <ele>503.2</ele>
        <time>2021-12-28T20:03:45Z</time>
      </trkpt>
      <trkpt lat="37.4632220" lon="-4.4225680">
        <ele>503.2</ele>
        <time>2021-12-28T20:03:46Z</time>
      </trkpt>
      <trkpt lat="37.4631900" lon="-4.4225840">
        <ele>503.0</ele>
        <time>2021-12-28T20:03:47Z</time>
      </trkpt>
      <trkpt lat="37.4631580" lon="-4.4226030">
        <ele>502.8</ele>
        <time>2021-12-28T20:03:48Z</time>
      </trkpt>
      <trkpt lat="37.4631200" lon="-4.4226220">
        <ele>502.8</ele>
        <time>2021-12-28T20:03:49Z</time>
      </trkpt>
      <trkpt lat="37.4630850" lon="-4.4226430">
        <ele>502.6</ele>
        <time>2021-12-28T20:03:50Z</time>
      </trkpt>
      <trkpt lat="37.4630430" lon="-4.4226650">
        <ele>502.4</ele>
        <time>2021-12-28T20:03:51Z</time>
      </trkpt>
      <trkpt lat="37.4630050" lon="-4.4226860">
        <ele>502.4</ele>
        <time>2021-12-28T20:03:52Z</time>
      </trkpt>
      <trkpt lat="37.4629660" lon="-4.4227100">
        <ele>502.2</ele>
        <time>2021-12-28T20:03:53Z</time>
      </trkpt>
      <trkpt lat="37.4629280" lon="-4.4227320">
        <ele>502.2</ele>
        <time>2021-12-28T20:03:54Z</time>
      </trkpt>
      <trkpt lat="37.4628990" lon="-4.4227500">
        <ele>502.0</ele>
        <time>2021-12-28T20:03:55Z</time>
      </trkpt>
      <trkpt lat="37.4628670" lon="-4.4227720">
        <ele>502.0</ele>
        <time>2021-12-28T20:03:56Z</time>
      </trkpt>
      <trkpt lat="37.4628380" lon="-4.4227920">
        <ele>501.8</ele>
        <time>2021-12-28T20:03:57Z</time>
      </trkpt>
      <trkpt lat="37.4628030" lon="-4.4228120">
        <ele>501.8</ele>
        <time>2021-12-28T20:03:58Z</time>
      </trkpt>
      <trkpt lat="37.4627710" lon="-4.4228320">
        <ele>501.6</ele>
        <time>2021-12-28T20:03:59Z</time>
      </trkpt>
      <trkpt lat="37.4627420" lon="-4.4228500">
        <ele>501.6</ele>
        <time>2021-12-28T20:04:00Z</time>
      </trkpt>
      <trkpt lat="37.4627070" lon="-4.4228720">
        <ele>501.4</ele>
        <time>2021-12-28T20:04:01Z</time>
      </trkpt>
      <trkpt lat="37.4626780" lon="-4.4228970">
        <ele>501.4</ele>
        <time>2021-12-28T20:04:02Z</time>
      </trkpt>
      <trkpt lat="37.4626460" lon="-4.4229230">
        <ele>501.2</ele>
        <time>2021-12-28T20:04:03Z</time>
      </trkpt>
      <trkpt lat="37.4626110" lon="-4.4229500">
        <ele>501.2</ele>
        <time>2021-12-28T20:04:04Z</time>
      </trkpt>
      <trkpt lat="37.4625820" lon="-4.4229750">
        <ele>501.2</ele>
        <time>2021-12-28T20:04:05Z</time>
      </trkpt>
      <trkpt lat="37.4625470" lon="-4.4230000">
        <ele>501.2</ele>
        <time>2021-12-28T20:04:06Z</time>
      </trkpt>
      <trkpt lat="37.4625120" lon="-4.4230260">
        <ele>501.0</ele>
        <time>2021-12-28T20:04:07Z</time>
      </trkpt>
      <trkpt lat="37.4624830" lon="-4.4230550">
        <ele>501.0</ele>
        <time>2021-12-28T20:04:08Z</time>
      </trkpt>
      <trkpt lat="37.4624510" lon="-4.4230850">
        <ele>501.0</ele>
        <time>2021-12-28T20:04:09Z</time>
      </trkpt>
      <trkpt lat="37.4624220" lon="-4.4231100">
        <ele>500.8</ele>
        <time>2021-12-28T20:04:10Z</time>
      </trkpt>
      <trkpt lat="37.4623870" lon="-4.4231380">
        <ele>500.8</ele>
        <time>2021-12-28T20:04:11Z</time>
      </trkpt>
      <trkpt lat="37.4623550" lon="-4.4231670">
        <ele>500.8</ele>
        <time>2021-12-28T20:04:12Z</time>
      </trkpt>
      <trkpt lat="37.4623260" lon="-4.4231970">
        <ele>500.8</ele>
        <time>2021-12-28T20:04:13Z</time>
      </trkpt>
      <trkpt lat="37.4623010" lon="-4.4232250">
        <ele>500.8</ele>
        <time>2021-12-28T20:04:14Z</time>
      </trkpt>
      <trkpt lat="37.4622660" lon="-4.4232540">
        <ele>500.8</ele>
        <time>2021-12-28T20:04:15Z</time>
      </trkpt>
      <trkpt lat="37.4622370" lon="-4.4232850">
        <ele>500.6</ele>
        <time>2021-12-28T20:04:16Z</time>
      </trkpt>
      <trkpt lat="37.4622080" lon="-4.4233150">
        <ele>500.6</ele>
        <time>2021-12-28T20:04:17Z</time>
      </trkpt>
      <trkpt lat="37.4621760" lon="-4.4233430">
        <ele>500.6</ele>
        <time>2021-12-28T20:04:18Z</time>
      </trkpt>
      <trkpt lat="37.4621470" lon="-4.4233680">
        <ele>500.6</ele>
        <time>2021-12-28T20:04:19Z</time>
      </trkpt>
      <trkpt lat="37.4621120" lon="-4.4233960">
        <ele>500.4</ele>
        <time>2021-12-28T20:04:20Z</time>
      </trkpt>
      <trkpt lat="37.4620830" lon="-4.4234230">
        <ele>500.4</ele>
        <time>2021-12-28T20:04:21Z</time>
      </trkpt>
      <trkpt lat="37.4620510" lon="-4.4234530">
        <ele>500.4</ele>
        <time>2021-12-28T20:04:22Z</time>
      </trkpt>
      <trkpt lat="37.4620220" lon="-4.4234800">
        <ele>500.2</ele>
        <time>2021-12-28T20:04:23Z</time>
      </trkpt>
      <trkpt lat="37.4619940" lon="-4.4235070">
        <ele>500.2</ele>
        <time>2021-12-28T20:04:24Z</time>
      </trkpt>
      <trkpt lat="37.4619650" lon="-4.4235320">
        <ele>500.2</ele>
        <time>2021-12-28T20:04:25Z</time>
      </trkpt>
      <trkpt lat="37.4619330" lon="-4.4235580">
        <ele>500.0</ele>
        <time>2021-12-28T20:04:26Z</time>
      </trkpt>
      <trkpt lat="37.4619040" lon="-4.4235850">
        <ele>500.0</ele>
        <time>2021-12-28T20:04:27Z</time>
      </trkpt>
      <trkpt lat="37.4618750" lon="-4.4236150">
        <ele>500.0</ele>
        <time>2021-12-28T20:04:28Z</time>
      </trkpt>
      <trkpt lat="37.4618500" lon="-4.4236400">
        <ele>500.0</ele>
        <time>2021-12-28T20:04:29Z</time>
      </trkpt>
      <trkpt lat="37.4618240" lon="-4.4236650">
        <ele>500.0</ele>
        <time>2021-12-28T20:04:30Z</time>
      </trkpt>
      <trkpt lat="37.4617950" lon="-4.4236920">
        <ele>499.8</ele>
        <time>2021-12-28T20:04:31Z</time>
      </trkpt>
      <trkpt lat="37.4617700" lon="-4.4237160">
        <ele>499.8</ele>
        <time>2021-12-28T20:04:32Z</time>
      </trkpt>
      <trkpt lat="37.4617500" lon="-4.4237380">
        <ele>499.8</ele>
        <time>2021-12-28T20:04:33Z</time>
      </trkpt>
      <trkpt lat="37.4617250" lon="-4.4237600">
        <ele>499.8</ele>
        <time>2021-12-28T20:04:34Z</time>
      </trkpt>
      <trkpt lat="37.4616960" lon="-4.4237830">
        <ele>499.8</ele>
        <time>2021-12-28T20:04:35Z</time>
      </trkpt>
      <trkpt lat="37.4616700" lon="-4.4238050">
        <ele>499.8</ele>
        <time>2021-12-28T20:04:36Z</time>
      </trkpt>
      <trkpt lat="37.4616480" lon="-4.4238270">
        <ele>499.8</ele>
        <time>2021-12-28T20:04:37Z</time>
      </trkpt>
      <trkpt lat="37.4616190" lon="-4.4238530">
        <ele>499.8</ele>
        <time>2021-12-28T20:04:38Z</time>
      </trkpt>
      <trkpt lat="37.4615970" lon="-4.4238770">
        <ele>499.8</ele>
        <time>2021-12-28T20:04:39Z</time>
      </trkpt>
      <trkpt lat="37.4615710" lon="-4.4238980">
        <ele>499.6</ele>
        <time>2021-12-28T20:04:40Z</time>
      </trkpt>
      <trkpt lat="37.4615460" lon="-4.4239220">
        <ele>499.6</ele>
        <time>2021-12-28T20:04:41Z</time>
      </trkpt>
      <trkpt lat="37.4615140" lon="-4.4239450">
        <ele>499.6</ele>
        <time>2021-12-28T20:04:42Z</time>
      </trkpt>
      <trkpt lat="37.4614910" lon="-4.4239680">
        <ele>499.6</ele>
        <time>2021-12-28T20:04:43Z</time>
      </trkpt>
      <trkpt lat="37.4614620" lon="-4.4239930">
        <ele>499.6</ele>
        <time>2021-12-28T20:04:44Z</time>
      </trkpt>
      <trkpt lat="37.4614340" lon="-4.4240220">
        <ele>499.6</ele>
        <time>2021-12-28T20:04:45Z</time>
      </trkpt>
      <trkpt lat="37.4614080" lon="-4.4240460">
        <ele>499.6</ele>
        <time>2021-12-28T20:04:46Z</time>
      </trkpt>
      <trkpt lat="37.4613820" lon="-4.4240660">
        <ele>499.6</ele>
        <time>2021-12-28T20:04:47Z</time>
      </trkpt>
      <trkpt lat="37.4613570" lon="-4.4240900">
        <ele>499.6</ele>
        <time>2021-12-28T20:04:48Z</time>
      </trkpt>
      <trkpt lat="37.4613310" lon="-4.4241120">
        <ele>499.6</ele>
        <time>2021-12-28T20:04:49Z</time>
      </trkpt>
      <trkpt lat="37.4613020" lon="-4.4241350">
        <ele>499.6</ele>
        <time>2021-12-28T20:04:50Z</time>
      </trkpt>
      <trkpt lat="37.4612770" lon="-4.4241580">
        <ele>499.6</ele>
        <time>2021-12-28T20:04:51Z</time>
      </trkpt>
      <trkpt lat="37.4612480" lon="-4.4241830">
        <ele>499.6</ele>
        <time>2021-12-28T20:04:52Z</time>
      </trkpt>
      <trkpt lat="37.4612220" lon="-4.4242070">
        <ele>499.4</ele>
        <time>2021-12-28T20:04:53Z</time>
      </trkpt>
      <trkpt lat="37.4611970" lon="-4.4242320">
        <ele>499.4</ele>
        <time>2021-12-28T20:04:54Z</time>
      </trkpt>
      <trkpt lat="37.4611650" lon="-4.4242570">
        <ele>499.4</ele>
        <time>2021-12-28T20:04:55Z</time>
      </trkpt>
      <trkpt lat="37.4611360" lon="-4.4242780">
        <ele>499.4</ele>
        <time>2021-12-28T20:04:56Z</time>
      </trkpt>
      <trkpt lat="37.4611100" lon="-4.4242970">
        <ele>499.4</ele>
        <time>2021-12-28T20:04:57Z</time>
      </trkpt>
      <trkpt lat="37.4610780" lon="-4.4243170">
        <ele>499.4</ele>
        <time>2021-12-28T20:04:58Z</time>
      </trkpt>
      <trkpt lat="37.4610530" lon="-4.4243360">
        <ele>499.2</ele>
        <time>2021-12-28T20:04:59Z</time>
      </trkpt>
      <trkpt lat="37.4610240" lon="-4.4243560">
        <ele>499.2</ele>
        <time>2021-12-28T20:05:00Z</time>
      </trkpt>
      <trkpt lat="37.4609950" lon="-4.4243750">
        <ele>499.2</ele>
        <time>2021-12-28T20:05:01Z</time>
      </trkpt>
      <trkpt lat="37.4609700" lon="-4.4243930">
        <ele>499.4</ele>
        <time>2021-12-28T20:05:02Z</time>
      </trkpt>
      <trkpt lat="37.4609250" lon="-4.4244150">
        <ele>499.4</ele>
        <time>2021-12-28T20:05:03Z</time>
      </trkpt>
      <trkpt lat="37.4608960" lon="-4.4244400">
        <ele>499.4</ele>
        <time>2021-12-28T20:05:04Z</time>
      </trkpt>
      <trkpt lat="37.4608640" lon="-4.4244600">
        <ele>499.4</ele>
        <time>2021-12-28T20:05:05Z</time>
      </trkpt>
      <trkpt lat="37.4608380" lon="-4.4244780">
        <ele>499.4</ele>
        <time>2021-12-28T20:05:06Z</time>
      </trkpt>
      <trkpt lat="37.4608130" lon="-4.4244950">
        <ele>499.4</ele>
        <time>2021-12-28T20:05:07Z</time>
      </trkpt>
      <trkpt lat="37.4607810" lon="-4.4245120">
        <ele>499.4</ele>
        <time>2021-12-28T20:05:08Z</time>
      </trkpt>
      <trkpt lat="37.4607550" lon="-4.4245300">
        <ele>499.4</ele>
        <time>2021-12-28T20:05:09Z</time>
      </trkpt>
      <trkpt lat="37.4607200" lon="-4.4245480">
        <ele>499.4</ele>
        <time>2021-12-28T20:05:10Z</time>
      </trkpt>
      <trkpt lat="37.4606880" lon="-4.4245650">
        <ele>499.4</ele>
        <time>2021-12-28T20:05:11Z</time>
      </trkpt>
      <trkpt lat="37.4606560" lon="-4.4245820">
        <ele>499.4</ele>
        <time>2021-12-28T20:05:12Z</time>
      </trkpt>
      <trkpt lat="37.4606240" lon="-4.4245980">
        <ele>499.4</ele>
        <time>2021-12-28T20:05:13Z</time>
      </trkpt>
      <trkpt lat="37.4605890" lon="-4.4246170">
        <ele>499.2</ele>
        <time>2021-12-28T20:05:14Z</time>
      </trkpt>
      <trkpt lat="37.4605570" lon="-4.4246340">
        <ele>499.2</ele>
        <time>2021-12-28T20:05:15Z</time>
      </trkpt>
      <trkpt lat="37.4605250" lon="-4.4246480">
        <ele>499.2</ele>
        <time>2021-12-28T20:05:16Z</time>
      </trkpt>
      <trkpt lat="37.4604990" lon="-4.4246600">
        <ele>499.0</ele>
        <time>2021-12-28T20:05:17Z</time>
      </trkpt>
      <trkpt lat="37.4604610" lon="-4.4246800">
        <ele>499.0</ele>
        <time>2021-12-28T20:05:18Z</time>
      </trkpt>
      <trkpt lat="37.4604350" lon="-4.4246960">
        <ele>499.0</ele>
        <time>2021-12-28T20:05:19Z</time>
      </trkpt>
      <trkpt lat="37.4604100" lon="-4.4247080">
        <ele>498.8</ele>
        <time>2021-12-28T20:05:20Z</time>
      </trkpt>
      <trkpt lat="37.4603740" lon="-4.4247280">
        <ele>498.8</ele>
        <time>2021-12-28T20:05:21Z</time>
      </trkpt>
      <trkpt lat="37.4603390" lon="-4.4247360">
        <ele>498.6</ele>
        <time>2021-12-28T20:05:22Z</time>
      </trkpt>
      <trkpt lat="37.4603070" lon="-4.4247460">
        <ele>498.6</ele>
        <time>2021-12-28T20:05:23Z</time>
      </trkpt>
      <trkpt lat="37.4602750" lon="-4.4247600">
        <ele>498.4</ele>
        <time>2021-12-28T20:05:24Z</time>
      </trkpt>
      <trkpt lat="37.4602460" lon="-4.4247700">
        <ele>498.4</ele>
        <time>2021-12-28T20:05:25Z</time>
      </trkpt>
      <trkpt lat="37.4602080" lon="-4.4247830">
        <ele>498.2</ele>
        <time>2021-12-28T20:05:26Z</time>
      </trkpt>
      <trkpt lat="37.4601790" lon="-4.4247960">
        <ele>498.0</ele>
        <time>2021-12-28T20:05:27Z</time>
      </trkpt>
      <trkpt lat="37.4601470" lon="-4.4248060">
        <ele>498.0</ele>
        <time>2021-12-28T20:05:28Z</time>
      </trkpt>
      <trkpt lat="37.4601220" lon="-4.4248150">
        <ele>498.0</ele>
        <time>2021-12-28T20:05:29Z</time>
      </trkpt>
      <trkpt lat="37.4600860" lon="-4.4248280">
        <ele>498.0</ele>
        <time>2021-12-28T20:05:30Z</time>
      </trkpt>
      <trkpt lat="37.4600480" lon="-4.4248400">
        <ele>498.0</ele>
        <time>2021-12-28T20:05:31Z</time>
      </trkpt>
      <trkpt lat="37.4600130" lon="-4.4248500">
        <ele>498.0</ele>
        <time>2021-12-28T20:05:32Z</time>
      </trkpt>
      <trkpt lat="37.4599810" lon="-4.4248580">
        <ele>498.0</ele>
        <time>2021-12-28T20:05:33Z</time>
      </trkpt>
      <trkpt lat="37.4599490" lon="-4.4248670">
        <ele>498.0</ele>
        <time>2021-12-28T20:05:34Z</time>
      </trkpt>
      <trkpt lat="37.4599140" lon="-4.4248730">
        <ele>497.8</ele>
        <time>2021-12-28T20:05:35Z</time>
      </trkpt>
      <trkpt lat="37.4598820" lon="-4.4248820">
        <ele>497.8</ele>
        <time>2021-12-28T20:05:36Z</time>
      </trkpt>
      <trkpt lat="37.4598460" lon="-4.4248920">
        <ele>497.6</ele>
        <time>2021-12-28T20:05:37Z</time>
      </trkpt>
      <trkpt lat="37.4598110" lon="-4.4249020">
        <ele>497.6</ele>
        <time>2021-12-28T20:05:38Z</time>
      </trkpt>
      <trkpt lat="37.4597790" lon="-4.4249080">
        <ele>497.6</ele>
        <time>2021-12-28T20:05:39Z</time>
      </trkpt>
      <trkpt lat="37.4597440" lon="-4.4249150">
        <ele>497.4</ele>
        <time>2021-12-28T20:05:40Z</time>
      </trkpt>
      <trkpt lat="37.4597090" lon="-4.4249240">
        <ele>497.4</ele>
        <time>2021-12-28T20:05:41Z</time>
      </trkpt>
      <trkpt lat="37.4596800" lon="-4.4249340">
        <ele>497.2</ele>
        <time>2021-12-28T20:05:42Z</time>
      </trkpt>
      <trkpt lat="37.4596450" lon="-4.4249440">
        <ele>497.2</ele>
        <time>2021-12-28T20:05:43Z</time>
      </trkpt>
      <trkpt lat="37.4596030" lon="-4.4249540">
        <ele>497.0</ele>
        <time>2021-12-28T20:05:44Z</time>
      </trkpt>
      <trkpt lat="37.4595710" lon="-4.4249600">
        <ele>497.0</ele>
        <time>2021-12-28T20:05:45Z</time>
      </trkpt>
      <trkpt lat="37.4595460" lon="-4.4249700">
        <ele>497.0</ele>
        <time>2021-12-28T20:05:46Z</time>
      </trkpt>
      <trkpt lat="37.4595100" lon="-4.4249750">
        <ele>496.8</ele>
        <time>2021-12-28T20:05:47Z</time>
      </trkpt>
      <trkpt lat="37.4594820" lon="-4.4249820">
        <ele>496.8</ele>
        <time>2021-12-28T20:05:48Z</time>
      </trkpt>
      <trkpt lat="37.4594460" lon="-4.4249940">
        <ele>496.8</ele>
        <time>2021-12-28T20:05:49Z</time>
      </trkpt>
      <trkpt lat="37.4594140" lon="-4.4250040">
        <ele>496.8</ele>
        <time>2021-12-28T20:05:50Z</time>
      </trkpt>
      <trkpt lat="37.4593760" lon="-4.4250120">
        <ele>496.8</ele>
        <time>2021-12-28T20:05:51Z</time>
      </trkpt>
      <trkpt lat="37.4593540" lon="-4.4250180">
        <ele>496.8</ele>
        <time>2021-12-28T20:05:52Z</time>
      </trkpt>
      <trkpt lat="37.4593150" lon="-4.4250250">
        <ele>496.8</ele>
        <time>2021-12-28T20:05:53Z</time>
      </trkpt>
      <trkpt lat="37.4592830" lon="-4.4250350">
        <ele>496.8</ele>
        <time>2021-12-28T20:05:54Z</time>
      </trkpt>
      <trkpt lat="37.4592480" lon="-4.4250450">
        <ele>496.8</ele>
        <time>2021-12-28T20:05:55Z</time>
      </trkpt>
      <trkpt lat="37.4592130" lon="-4.4250530">
        <ele>496.8</ele>
        <time>2021-12-28T20:05:56Z</time>
      </trkpt>
      <trkpt lat="37.4591840" lon="-4.4250660">
        <ele>496.6</ele>
        <time>2021-12-28T20:05:57Z</time>
      </trkpt>
      <trkpt lat="37.4591520" lon="-4.4250760">
        <ele>496.6</ele>
        <time>2021-12-28T20:05:58Z</time>
      </trkpt>
      <trkpt lat="37.4591230" lon="-4.4250860">
        <ele>496.6</ele>
        <time>2021-12-28T20:05:59Z</time>
      </trkpt>
      <trkpt lat="37.4590940" lon="-4.4250930">
        <ele>496.6</ele>
        <time>2021-12-28T20:06:00Z</time>
      </trkpt>
      <trkpt lat="37.4590560" lon="-4.4251000">
        <ele>496.6</ele>
        <time>2021-12-28T20:06:01Z</time>
      </trkpt>
      <trkpt lat="37.4590140" lon="-4.4251100">
        <ele>496.8</ele>
        <time>2021-12-28T20:06:02Z</time>
      </trkpt>
      <trkpt lat="37.4589890" lon="-4.4251160">
        <ele>496.8</ele>
        <time>2021-12-28T20:06:03Z</time>
      </trkpt>
      <trkpt lat="37.4589470" lon="-4.4251260">
        <ele>496.8</ele>
        <time>2021-12-28T20:06:04Z</time>
      </trkpt>
      <trkpt lat="37.4589090" lon="-4.4251360">
        <ele>496.8</ele>
        <time>2021-12-28T20:06:05Z</time>
      </trkpt>
      <trkpt lat="37.4588770" lon="-4.4251450">
        <ele>496.8</ele>
        <time>2021-12-28T20:06:06Z</time>
      </trkpt>
      <trkpt lat="37.4588350" lon="-4.4251560">
        <ele>496.8</ele>
        <time>2021-12-28T20:06:07Z</time>
      </trkpt>
      <trkpt lat="37.4588000" lon="-4.4251680">
        <ele>496.8</ele>
        <time>2021-12-28T20:06:08Z</time>
      </trkpt>
      <trkpt lat="37.4587680" lon="-4.4251800">
        <ele>496.8</ele>
        <time>2021-12-28T20:06:09Z</time>
      </trkpt>
      <trkpt lat="37.4587390" lon="-4.4251900">
        <ele>496.8</ele>
        <time>2021-12-28T20:06:10Z</time>
      </trkpt>
      <trkpt lat="37.4587170" lon="-4.4251970">
        <ele>496.8</ele>
        <time>2021-12-28T20:06:11Z</time>
      </trkpt>
      <trkpt lat="37.4586880" lon="-4.4252070">
        <ele>496.8</ele>
        <time>2021-12-28T20:06:12Z</time>
      </trkpt>
      <trkpt lat="37.4586460" lon="-4.4252180">
        <ele>496.8</ele>
        <time>2021-12-28T20:06:13Z</time>
      </trkpt>
      <trkpt lat="37.4586110" lon="-4.4252300">
        <ele>496.8</ele>
        <time>2021-12-28T20:06:14Z</time>
      </trkpt>
      <trkpt lat="37.4585760" lon="-4.4252420">
        <ele>496.8</ele>
        <time>2021-12-28T20:06:15Z</time>
      </trkpt>
      <trkpt lat="37.4585470" lon="-4.4252550">
        <ele>496.8</ele>
        <time>2021-12-28T20:06:16Z</time>
      </trkpt>
      <trkpt lat="37.4585120" lon="-4.4252670">
        <ele>496.8</ele>
        <time>2021-12-28T20:06:17Z</time>
      </trkpt>
      <trkpt lat="37.4584770" lon="-4.4252770">
        <ele>496.8</ele>
        <time>2021-12-28T20:06:18Z</time>
      </trkpt>
      <trkpt lat="37.4584480" lon="-4.4252900">
        <ele>496.8</ele>
        <time>2021-12-28T20:06:19Z</time>
      </trkpt>
      <trkpt lat="37.4584130" lon="-4.4253040">
        <ele>496.8</ele>
        <time>2021-12-28T20:06:20Z</time>
      </trkpt>
      <trkpt lat="37.4583810" lon="-4.4253180">
        <ele>496.8</ele>
        <time>2021-12-28T20:06:21Z</time>
      </trkpt>
      <trkpt lat="37.4583550" lon="-4.4253340">
        <ele>496.8</ele>
        <time>2021-12-28T20:06:22Z</time>
      </trkpt>
      <trkpt lat="37.4583230" lon="-4.4253500">
        <ele>496.8</ele>
        <time>2021-12-28T20:06:23Z</time>
      </trkpt>
      <trkpt lat="37.4582910" lon="-4.4253650">
        <ele>496.8</ele>
        <time>2021-12-28T20:06:24Z</time>
      </trkpt>
      <trkpt lat="37.4582590" lon="-4.4253820">
        <ele>496.8</ele>
        <time>2021-12-28T20:06:25Z</time>
      </trkpt>
      <trkpt lat="37.4582240" lon="-4.4253970">
        <ele>496.8</ele>
        <time>2021-12-28T20:06:26Z</time>
      </trkpt>
      <trkpt lat="37.4582020" lon="-4.4254100">
        <ele>496.8</ele>
        <time>2021-12-28T20:06:27Z</time>
      </trkpt>
      <trkpt lat="37.4581600" lon="-4.4254320">
        <ele>496.8</ele>
        <time>2021-12-28T20:06:28Z</time>
      </trkpt>
      <trkpt lat="37.4581380" lon="-4.4254430">
        <ele>496.8</ele>
        <time>2021-12-28T20:06:29Z</time>
      </trkpt>
      <trkpt lat="37.4580990" lon="-4.4254650">
        <ele>497.0</ele>
        <time>2021-12-28T20:06:30Z</time>
      </trkpt>
      <trkpt lat="37.4580640" lon="-4.4254820">
        <ele>497.0</ele>
        <time>2021-12-28T20:06:31Z</time>
      </trkpt>
      <trkpt lat="37.4580350" lon="-4.4255000">
        <ele>497.0</ele>
        <time>2021-12-28T20:06:32Z</time>
      </trkpt>
      <trkpt lat="37.4580030" lon="-4.4255180">
        <ele>497.0</ele>
        <time>2021-12-28T20:06:33Z</time>
      </trkpt>
      <trkpt lat="37.4579740" lon="-4.4255380">
        <ele>497.0</ele>
        <time>2021-12-28T20:06:34Z</time>
      </trkpt>
      <trkpt lat="37.4579420" lon="-4.4255580">
        <ele>497.0</ele>
        <time>2021-12-28T20:06:35Z</time>
      </trkpt>
      <trkpt lat="37.4579200" lon="-4.4255750">
        <ele>496.8</ele>
        <time>2021-12-28T20:06:36Z</time>
      </trkpt>
      <trkpt lat="37.4578850" lon="-4.4256000">
        <ele>496.8</ele>
        <time>2021-12-28T20:06:37Z</time>
      </trkpt>
      <trkpt lat="37.4578560" lon="-4.4256220">
        <ele>496.8</ele>
        <time>2021-12-28T20:06:38Z</time>
      </trkpt>
      <trkpt lat="37.4578240" lon="-4.4256420">
        <ele>496.8</ele>
        <time>2021-12-28T20:06:39Z</time>
      </trkpt>
      <trkpt lat="37.4577980" lon="-4.4256640">
        <ele>496.8</ele>
        <time>2021-12-28T20:06:40Z</time>
      </trkpt>
      <trkpt lat="37.4577730" lon="-4.4256820">
        <ele>496.6</ele>
        <time>2021-12-28T20:06:41Z</time>
      </trkpt>
      <trkpt lat="37.4577410" lon="-4.4257040">
        <ele>496.6</ele>
        <time>2021-12-28T20:06:42Z</time>
      </trkpt>
      <trkpt lat="37.4577150" lon="-4.4257220">
        <ele>496.6</ele>
        <time>2021-12-28T20:06:43Z</time>
      </trkpt>
      <trkpt lat="37.4576860" lon="-4.4257420">
        <ele>496.4</ele>
        <time>2021-12-28T20:06:44Z</time>
      </trkpt>
      <trkpt lat="37.4576610" lon="-4.4257630">
        <ele>496.4</ele>
        <time>2021-12-28T20:06:45Z</time>
      </trkpt>
      <trkpt lat="37.4576350" lon="-4.4257850">
        <ele>496.4</ele>
        <time>2021-12-28T20:06:46Z</time>
      </trkpt>
      <trkpt lat="37.4576060" lon="-4.4258060">
        <ele>496.4</ele>
        <time>2021-12-28T20:06:47Z</time>
      </trkpt>
      <trkpt lat="37.4575810" lon="-4.4258280">
        <ele>496.4</ele>
        <time>2021-12-28T20:06:48Z</time>
      </trkpt>
      <trkpt lat="37.4575550" lon="-4.4258520">
        <ele>496.4</ele>
        <time>2021-12-28T20:06:49Z</time>
      </trkpt>
      <trkpt lat="37.4575260" lon="-4.4258730">
        <ele>496.4</ele>
        <time>2021-12-28T20:06:50Z</time>
      </trkpt>
      <trkpt lat="37.4575070" lon="-4.4258920">
        <ele>496.2</ele>
        <time>2021-12-28T20:06:51Z</time>
      </trkpt>
      <trkpt lat="37.4574780" lon="-4.4259180">
        <ele>496.2</ele>
        <time>2021-12-28T20:06:52Z</time>
      </trkpt>
      <trkpt lat="37.4574560" lon="-4.4259380">
        <ele>496.2</ele>
        <time>2021-12-28T20:06:53Z</time>
      </trkpt>
      <trkpt lat="37.4574270" lon="-4.4259620">
        <ele>496.2</ele>
        <time>2021-12-28T20:06:54Z</time>
      </trkpt>
      <trkpt lat="37.4574020" lon="-4.4259840">
        <ele>496.2</ele>
        <time>2021-12-28T20:06:55Z</time>
      </trkpt>
      <trkpt lat="37.4573760" lon="-4.4260050">
        <ele>496.2</ele>
        <time>2021-12-28T20:06:56Z</time>
      </trkpt>
      <trkpt lat="37.4573500" lon="-4.4260320">
        <ele>496.2</ele>
        <time>2021-12-28T20:06:57Z</time>
      </trkpt>
      <trkpt lat="37.4573310" lon="-4.4260520">
        <ele>496.4</ele>
        <time>2021-12-28T20:06:58Z</time>
      </trkpt>
      <trkpt lat="37.4573020" lon="-4.4260840">
        <ele>496.4</ele>
        <time>2021-12-28T20:06:59Z</time>
      </trkpt>
      <trkpt lat="37.4572860" lon="-4.4261050">
        <ele>496.4</ele>
        <time>2021-12-28T20:07:00Z</time>
      </trkpt>
      <trkpt lat="37.4572610" lon="-4.4261300">
        <ele>496.4</ele>
        <time>2021-12-28T20:07:01Z</time>
      </trkpt>
      <trkpt lat="37.4572320" lon="-4.4261620">
        <ele>496.4</ele>
        <time>2021-12-28T20:07:02Z</time>
      </trkpt>
      <trkpt lat="37.4572060" lon="-4.4261900">
        <ele>496.6</ele>
        <time>2021-12-28T20:07:03Z</time>
      </trkpt>
      <trkpt lat="37.4571900" lon="-4.4262130">
        <ele>496.6</ele>
        <time>2021-12-28T20:07:04Z</time>
      </trkpt>
      <trkpt lat="37.4571620" lon="-4.4262450">
        <ele>496.6</ele>
        <time>2021-12-28T20:07:05Z</time>
      </trkpt>
      <trkpt lat="37.4571330" lon="-4.4262720">
        <ele>496.8</ele>
        <time>2021-12-28T20:07:06Z</time>
      </trkpt>
      <trkpt lat="37.4571100" lon="-4.4263020">
        <ele>496.8</ele>
        <time>2021-12-28T20:07:07Z</time>
      </trkpt>
      <trkpt lat="37.4570880" lon="-4.4263270">
        <ele>496.8</ele>
        <time>2021-12-28T20:07:08Z</time>
      </trkpt>
      <trkpt lat="37.4570660" lon="-4.4263540">
        <ele>496.8</ele>
        <time>2021-12-28T20:07:09Z</time>
      </trkpt>
      <trkpt lat="37.4570460" lon="-4.4263840">
        <ele>497.0</ele>
        <time>2021-12-28T20:07:10Z</time>
      </trkpt>
      <trkpt lat="37.4570240" lon="-4.4264080">
        <ele>497.0</ele>
        <time>2021-12-28T20:07:11Z</time>
      </trkpt>
      <trkpt lat="37.4570020" lon="-4.4264360">
        <ele>497.0</ele>
        <time>2021-12-28T20:07:12Z</time>
      </trkpt>
      <trkpt lat="37.4569820" lon="-4.4264630">
        <ele>497.0</ele>
        <time>2021-12-28T20:07:13Z</time>
      </trkpt>
      <trkpt lat="37.4569600" lon="-4.4264920">
        <ele>497.0</ele>
        <time>2021-12-28T20:07:14Z</time>
      </trkpt>
      <trkpt lat="37.4569410" lon="-4.4265200">
        <ele>497.2</ele>
        <time>2021-12-28T20:07:15Z</time>
      </trkpt>
      <trkpt lat="37.4569180" lon="-4.4265450">
        <ele>497.2</ele>
        <time>2021-12-28T20:07:16Z</time>
      </trkpt>
      <trkpt lat="37.4568990" lon="-4.4265700">
        <ele>497.2</ele>
        <time>2021-12-28T20:07:17Z</time>
      </trkpt>
      <trkpt lat="37.4568740" lon="-4.4265970">
        <ele>497.2</ele>
        <time>2021-12-28T20:07:18Z</time>
      </trkpt>
      <trkpt lat="37.4568510" lon="-4.4266180">
        <ele>497.2</ele>
        <time>2021-12-28T20:07:19Z</time>
      </trkpt>
      <trkpt lat="37.4568420" lon="-4.4266480">
        <ele>497.4</ele>
        <time>2021-12-28T20:07:20Z</time>
      </trkpt>
      <trkpt lat="37.4568220" lon="-4.4266750">
        <ele>497.4</ele>
        <time>2021-12-28T20:07:21Z</time>
      </trkpt>
      <trkpt lat="37.4568000" lon="-4.4266920">
        <ele>497.4</ele>
        <time>2021-12-28T20:07:22Z</time>
      </trkpt>
      <trkpt lat="37.4567810" lon="-4.4267250">
        <ele>497.4</ele>
        <time>2021-12-28T20:07:23Z</time>
      </trkpt>
      <trkpt lat="37.4567520" lon="-4.4267640">
        <ele>497.4</ele>
        <time>2021-12-28T20:07:24Z</time>
      </trkpt>
      <trkpt lat="37.4567330" lon="-4.4267860">
        <ele>497.4</ele>
        <time>2021-12-28T20:07:25Z</time>
      </trkpt>
      <trkpt lat="37.4567040" lon="-4.4268250">
        <ele>497.4</ele>
        <time>2021-12-28T20:07:26Z</time>
      </trkpt>
      <trkpt lat="37.4566850" lon="-4.4268580">
        <ele>497.4</ele>
        <time>2021-12-28T20:07:27Z</time>
      </trkpt>
      <trkpt lat="37.4566620" lon="-4.4268900">
        <ele>497.4</ele>
        <time>2021-12-28T20:07:28Z</time>
      </trkpt>
      <trkpt lat="37.4566430" lon="-4.4269250">
        <ele>497.4</ele>
        <time>2021-12-28T20:07:29Z</time>
      </trkpt>
      <trkpt lat="37.4566210" lon="-4.4269580">
        <ele>497.4</ele>
        <time>2021-12-28T20:07:30Z</time>
      </trkpt>
      <trkpt lat="37.4565950" lon="-4.4269920">
        <ele>497.4</ele>
        <time>2021-12-28T20:07:31Z</time>
      </trkpt>
      <trkpt lat="37.4565730" lon="-4.4270270">
        <ele>497.4</ele>
        <time>2021-12-28T20:07:32Z</time>
      </trkpt>
      <trkpt lat="37.4565540" lon="-4.4270600">
        <ele>497.4</ele>
        <time>2021-12-28T20:07:33Z</time>
      </trkpt>
      <trkpt lat="37.4565310" lon="-4.4270940">
        <ele>497.4</ele>
        <time>2021-12-28T20:07:34Z</time>
      </trkpt>
      <trkpt lat="37.4565090" lon="-4.4271300">
        <ele>497.4</ele>
        <time>2021-12-28T20:07:35Z</time>
      </trkpt>
      <trkpt lat="37.4564930" lon="-4.4271620">
        <ele>497.4</ele>
        <time>2021-12-28T20:07:36Z</time>
      </trkpt>
      <trkpt lat="37.4564740" lon="-4.4271900">
        <ele>497.4</ele>
        <time>2021-12-28T20:07:37Z</time>
      </trkpt>
      <trkpt lat="37.4564540" lon="-4.4272150">
        <ele>497.4</ele>
        <time>2021-12-28T20:07:38Z</time>
      </trkpt>
      <trkpt lat="37.4564350" lon="-4.4272400">
        <ele>497.4</ele>
        <time>2021-12-28T20:07:39Z</time>
      </trkpt>
      <trkpt lat="37.4564130" lon="-4.4272650">
        <ele>497.4</ele>
        <time>2021-12-28T20:07:40Z</time>
      </trkpt>
      <trkpt lat="37.4563970" lon="-4.4272880">
        <ele>497.6</ele>
        <time>2021-12-28T20:07:41Z</time>
      </trkpt>
      <trkpt lat="37.4563740" lon="-4.4273180">
        <ele>497.6</ele>
        <time>2021-12-28T20:07:42Z</time>
      </trkpt>
      <trkpt lat="37.4563550" lon="-4.4273450">
        <ele>497.6</ele>
        <time>2021-12-28T20:07:43Z</time>
      </trkpt>
      <trkpt lat="37.4563360" lon="-4.4273700">
        <ele>497.8</ele>
        <time>2021-12-28T20:07:44Z</time>
      </trkpt>
      <trkpt lat="37.4563170" lon="-4.4273950">
        <ele>497.8</ele>
        <time>2021-12-28T20:07:45Z</time>
      </trkpt>
      <trkpt lat="37.4562980" lon="-4.4274200">
        <ele>498.0</ele>
        <time>2021-12-28T20:07:46Z</time>
      </trkpt>
      <trkpt lat="37.4562850" lon="-4.4274440">
        <ele>498.0</ele>
        <time>2021-12-28T20:07:47Z</time>
      </trkpt>
      <trkpt lat="37.4562660" lon="-4.4274680">
        <ele>498.2</ele>
        <time>2021-12-28T20:07:48Z</time>
      </trkpt>
      <trkpt lat="37.4562460" lon="-4.4274880">
        <ele>498.2</ele>
        <time>2021-12-28T20:07:49Z</time>
      </trkpt>
      <trkpt lat="37.4562270" lon="-4.4275100">
        <ele>498.4</ele>
        <time>2021-12-28T20:07:50Z</time>
      </trkpt>
      <trkpt lat="37.4562110" lon="-4.4275380">
        <ele>498.4</ele>
        <time>2021-12-28T20:07:51Z</time>
      </trkpt>
      <trkpt lat="37.4561920" lon="-4.4275630">
        <ele>498.4</ele>
        <time>2021-12-28T20:07:52Z</time>
      </trkpt>
      <trkpt lat="37.4561760" lon="-4.4275820">
        <ele>498.6</ele>
        <time>2021-12-28T20:07:53Z</time>
      </trkpt>
      <trkpt lat="37.4561540" lon="-4.4276160">
        <ele>498.6</ele>
        <time>2021-12-28T20:07:54Z</time>
      </trkpt>
      <trkpt lat="37.4561340" lon="-4.4276450">
        <ele>498.6</ele>
        <time>2021-12-28T20:07:55Z</time>
      </trkpt>
      <trkpt lat="37.4561120" lon="-4.4276720">
        <ele>498.6</ele>
        <time>2021-12-28T20:07:56Z</time>
      </trkpt>
      <trkpt lat="37.4560930" lon="-4.4276950">
        <ele>498.6</ele>
        <time>2021-12-28T20:07:57Z</time>
      </trkpt>
      <trkpt lat="37.4560700" lon="-4.4277240">
        <ele>498.6</ele>
        <time>2021-12-28T20:07:58Z</time>
      </trkpt>
      <trkpt lat="37.4560450" lon="-4.4277500">
        <ele>498.6</ele>
        <time>2021-12-28T20:07:59Z</time>
      </trkpt>
      <trkpt lat="37.4560160" lon="-4.4277840">
        <ele>498.6</ele>
        <time>2021-12-28T20:08:00Z</time>
      </trkpt>
      <trkpt lat="37.4559900" lon="-4.4278080">
        <ele>498.6</ele>
        <time>2021-12-28T20:08:01Z</time>
      </trkpt>
      <trkpt lat="37.4559620" lon="-4.4278340">
        <ele>498.6</ele>
        <time>2021-12-28T20:08:02Z</time>
      </trkpt>
      <trkpt lat="37.4559360" lon="-4.4278560">
        <ele>498.6</ele>
        <time>2021-12-28T20:08:03Z</time>
      </trkpt>
      <trkpt lat="37.4559100" lon="-4.4278830">
        <ele>498.6</ele>
        <time>2021-12-28T20:08:04Z</time>
      </trkpt>
      <trkpt lat="37.4558910" lon="-4.4279050">
        <ele>498.4</ele>
        <time>2021-12-28T20:08:05Z</time>
      </trkpt>
      <trkpt lat="37.4558590" lon="-4.4279360">
        <ele>498.4</ele>
        <time>2021-12-28T20:08:06Z</time>
      </trkpt>
      <trkpt lat="37.4558340" lon="-4.4279630">
        <ele>498.4</ele>
        <time>2021-12-28T20:08:07Z</time>
      </trkpt>
      <trkpt lat="37.4558110" lon="-4.4279920">
        <ele>498.4</ele>
        <time>2021-12-28T20:08:08Z</time>
      </trkpt>
      <trkpt lat="37.4557820" lon="-4.4280200">
        <ele>498.4</ele>
        <time>2021-12-28T20:08:09Z</time>
      </trkpt>
      <trkpt lat="37.4557600" lon="-4.4280450">
        <ele>498.2</ele>
        <time>2021-12-28T20:08:10Z</time>
      </trkpt>
      <trkpt lat="37.4557340" lon="-4.4280680">
        <ele>498.2</ele>
        <time>2021-12-28T20:08:11Z</time>
      </trkpt>
      <trkpt lat="37.4557020" lon="-4.4280970">
        <ele>498.4</ele>
        <time>2021-12-28T20:08:12Z</time>
      </trkpt>
      <trkpt lat="37.4556830" lon="-4.4281170">
        <ele>498.4</ele>
        <time>2021-12-28T20:08:13Z</time>
      </trkpt>
      <trkpt lat="37.4556540" lon="-4.4281450">
        <ele>498.4</ele>
        <time>2021-12-28T20:08:14Z</time>
      </trkpt>
      <trkpt lat="37.4556290" lon="-4.4281680">
        <ele>498.4</ele>
        <time>2021-12-28T20:08:15Z</time>
      </trkpt>
      <trkpt lat="37.4556030" lon="-4.4281860">
        <ele>498.4</ele>
        <time>2021-12-28T20:08:16Z</time>
      </trkpt>
      <trkpt lat="37.4555780" lon="-4.4282080">
        <ele>498.4</ele>
        <time>2021-12-28T20:08:17Z</time>
      </trkpt>
      <trkpt lat="37.4555420" lon="-4.4282320">
        <ele>498.4</ele>
        <time>2021-12-28T20:08:18Z</time>
      </trkpt>
      <trkpt lat="37.4555170" lon="-4.4282520">
        <ele>498.4</ele>
        <time>2021-12-28T20:08:19Z</time>
      </trkpt>
      <trkpt lat="37.4554910" lon="-4.4282720">
        <ele>498.2</ele>
        <time>2021-12-28T20:08:20Z</time>
      </trkpt>
      <trkpt lat="37.4554690" lon="-4.4282880">
        <ele>498.2</ele>
        <time>2021-12-28T20:08:21Z</time>
      </trkpt>
      <trkpt lat="37.4554370" lon="-4.4283130">
        <ele>498.4</ele>
        <time>2021-12-28T20:08:22Z</time>
      </trkpt>
      <trkpt lat="37.4554050" lon="-4.4283370">
        <ele>498.4</ele>
        <time>2021-12-28T20:08:23Z</time>
      </trkpt>
      <trkpt lat="37.4553820" lon="-4.4283520">
        <ele>498.4</ele>
        <time>2021-12-28T20:08:24Z</time>
      </trkpt>
      <trkpt lat="37.4553570" lon="-4.4283720">
        <ele>498.4</ele>
        <time>2021-12-28T20:08:25Z</time>
      </trkpt>
      <trkpt lat="37.4553310" lon="-4.4283900">
        <ele>498.4</ele>
        <time>2021-12-28T20:08:26Z</time>
      </trkpt>
      <trkpt lat="37.4552960" lon="-4.4284100">
        <ele>498.4</ele>
        <time>2021-12-28T20:08:27Z</time>
      </trkpt>
      <trkpt lat="37.4552700" lon="-4.4284280">
        <ele>498.4</ele>
        <time>2021-12-28T20:08:28Z</time>
      </trkpt>
      <trkpt lat="37.4552380" lon="-4.4284470">
        <ele>498.4</ele>
        <time>2021-12-28T20:08:29Z</time>
      </trkpt>
      <trkpt lat="37.4552160" lon="-4.4284580">
        <ele>498.4</ele>
        <time>2021-12-28T20:08:30Z</time>
      </trkpt>
      <trkpt lat="37.4551840" lon="-4.4284750">
        <ele>498.4</ele>
        <time>2021-12-28T20:08:31Z</time>
      </trkpt>
      <trkpt lat="37.4551520" lon="-4.4284920">
        <ele>498.4</ele>
        <time>2021-12-28T20:08:32Z</time>
      </trkpt>
      <trkpt lat="37.4551200" lon="-4.4285040">
        <ele>498.4</ele>
        <time>2021-12-28T20:08:33Z</time>
      </trkpt>
      <trkpt lat="37.4550940" lon="-4.4285180">
        <ele>498.4</ele>
        <time>2021-12-28T20:08:34Z</time>
      </trkpt>
      <trkpt lat="37.4550620" lon="-4.4285360">
        <ele>498.2</ele>
        <time>2021-12-28T20:08:35Z</time>
      </trkpt>
      <trkpt lat="37.4550430" lon="-4.4285580">
        <ele>498.2</ele>
        <time>2021-12-28T20:08:36Z</time>
      </trkpt>
      <trkpt lat="37.4550140" lon="-4.4285750">
        <ele>498.2</ele>
        <time>2021-12-28T20:08:37Z</time>
      </trkpt>
      <trkpt lat="37.4549790" lon="-4.4285900">
        <ele>498.2</ele>
        <time>2021-12-28T20:08:38Z</time>
      </trkpt>
      <trkpt lat="37.4549540" lon="-4.4286050">
        <ele>498.2</ele>
        <time>2021-12-28T20:08:39Z</time>
      </trkpt>
      <trkpt lat="37.4549280" lon="-4.4286180">
        <ele>498.2</ele>
        <time>2021-12-28T20:08:40Z</time>
      </trkpt>
      <trkpt lat="37.4548960" lon="-4.4286380">
        <ele>498.2</ele>
        <time>2021-12-28T20:08:41Z</time>
      </trkpt>
      <trkpt lat="37.4548670" lon="-4.4286530">
        <ele>498.2</ele>
        <time>2021-12-28T20:08:42Z</time>
      </trkpt>
      <trkpt lat="37.4548420" lon="-4.4286660">
        <ele>498.2</ele>
        <time>2021-12-28T20:08:43Z</time>
      </trkpt>
      <trkpt lat="37.4548220" lon="-4.4286730">
        <ele>498.2</ele>
        <time>2021-12-28T20:08:44Z</time>
      </trkpt>
      <trkpt lat="37.4547870" lon="-4.4286900">
        <ele>498.2</ele>
        <time>2021-12-28T20:08:45Z</time>
      </trkpt>
      <trkpt lat="37.4547620" lon="-4.4287020">
        <ele>498.2</ele>
        <time>2021-12-28T20:08:46Z</time>
      </trkpt>
      <trkpt lat="37.4547300" lon="-4.4287150">
        <ele>498.2</ele>
        <time>2021-12-28T20:08:47Z</time>
      </trkpt>
      <trkpt lat="37.4547010" lon="-4.4287280">
        <ele>498.2</ele>
        <time>2021-12-28T20:08:48Z</time>
      </trkpt>
      <trkpt lat="37.4546750" lon="-4.4287430">
        <ele>498.2</ele>
        <time>2021-12-28T20:08:49Z</time>
      </trkpt>
      <trkpt lat="37.4546430" lon="-4.4287600">
        <ele>498.2</ele>
        <time>2021-12-28T20:08:50Z</time>
      </trkpt>
      <trkpt lat="37.4546110" lon="-4.4287740">
        <ele>498.2</ele>
        <time>2021-12-28T20:08:51Z</time>
      </trkpt>
      <trkpt lat="37.4545820" lon="-4.4287880">
        <ele>498.0</ele>
        <time>2021-12-28T20:08:52Z</time>
      </trkpt>
      <trkpt lat="37.4545500" lon="-4.4288000">
        <ele>498.0</ele>
        <time>2021-12-28T20:08:53Z</time>
      </trkpt>
      <trkpt lat="37.4545220" lon="-4.4288100">
        <ele>498.0</ele>
        <time>2021-12-28T20:08:54Z</time>
      </trkpt>
      <trkpt lat="37.4544900" lon="-4.4288220">
        <ele>498.0</ele>
        <time>2021-12-28T20:08:55Z</time>
      </trkpt>
      <trkpt lat="37.4544610" lon="-4.4288370">
        <ele>497.8</ele>
        <time>2021-12-28T20:08:56Z</time>
      </trkpt>
      <trkpt lat="37.4544320" lon="-4.4288480">
        <ele>497.8</ele>
        <time>2021-12-28T20:08:57Z</time>
      </trkpt>
      <trkpt lat="37.4543970" lon="-4.4288600">
        <ele>497.8</ele>
        <time>2021-12-28T20:08:58Z</time>
      </trkpt>
      <trkpt lat="37.4543650" lon="-4.4288720">
        <ele>497.8</ele>
        <time>2021-12-28T20:08:59Z</time>
      </trkpt>
      <trkpt lat="37.4543390" lon="-4.4288860">
        <ele>497.8</ele>
        <time>2021-12-28T20:09:00Z</time>
      </trkpt>
      <trkpt lat="37.4543070" lon="-4.4289000">
        <ele>497.8</ele>
        <time>2021-12-28T20:09:01Z</time>
      </trkpt>
      <trkpt lat="37.4542820" lon="-4.4289130">
        <ele>497.8</ele>
        <time>2021-12-28T20:09:02Z</time>
      </trkpt>
      <trkpt lat="37.4542430" lon="-4.4289320">
        <ele>497.8</ele>
        <time>2021-12-28T20:09:03Z</time>
      </trkpt>
      <trkpt lat="37.4542080" lon="-4.4289450">
        <ele>497.6</ele>
        <time>2021-12-28T20:09:04Z</time>
      </trkpt>
      <trkpt lat="37.4541790" lon="-4.4289560">
        <ele>497.6</ele>
        <time>2021-12-28T20:09:05Z</time>
      </trkpt>
      <trkpt lat="37.4541470" lon="-4.4289680">
        <ele>497.6</ele>
        <time>2021-12-28T20:09:06Z</time>
      </trkpt>
      <trkpt lat="37.4541220" lon="-4.4289850">
        <ele>497.4</ele>
        <time>2021-12-28T20:09:07Z</time>
      </trkpt>
      <trkpt lat="37.4540900" lon="-4.4290020">
        <ele>497.4</ele>
        <time>2021-12-28T20:09:08Z</time>
      </trkpt>
      <trkpt lat="37.4540640" lon="-4.4290160">
        <ele>497.4</ele>
        <time>2021-12-28T20:09:09Z</time>
      </trkpt>
      <trkpt lat="37.4540420" lon="-4.4290330">
        <ele>497.4</ele>
        <time>2021-12-28T20:09:10Z</time>
      </trkpt>
      <trkpt lat="37.4540130" lon="-4.4290520">
        <ele>497.4</ele>
        <time>2021-12-28T20:09:11Z</time>
      </trkpt>
      <trkpt lat="37.4539840" lon="-4.4290630">
        <ele>497.4</ele>
        <time>2021-12-28T20:09:12Z</time>
      </trkpt>
      <trkpt lat="37.4539550" lon="-4.4290770">
        <ele>497.4</ele>
        <time>2021-12-28T20:09:13Z</time>
      </trkpt>
      <trkpt lat="37.4539260" lon="-4.4290930">
        <ele>497.4</ele>
        <time>2021-12-28T20:09:14Z</time>
      </trkpt>
      <trkpt lat="37.4539010" lon="-4.4291070">
        <ele>497.4</ele>
        <time>2021-12-28T20:09:15Z</time>
      </trkpt>
      <trkpt lat="37.4538660" lon="-4.4291270">
        <ele>497.6</ele>
        <time>2021-12-28T20:09:16Z</time>
      </trkpt>
      <trkpt lat="37.4538370" lon="-4.4291440">
        <ele>497.6</ele>
        <time>2021-12-28T20:09:17Z</time>
      </trkpt>
      <trkpt lat="37.4538140" lon="-4.4291600">
        <ele>497.6</ele>
        <time>2021-12-28T20:09:18Z</time>
      </trkpt>
      <trkpt lat="37.4537920" lon="-4.4291700">
        <ele>497.6</ele>
        <time>2021-12-28T20:09:19Z</time>
      </trkpt>
      <trkpt lat="37.4537540" lon="-4.4291850">
        <ele>497.6</ele>
        <time>2021-12-28T20:09:20Z</time>
      </trkpt>
      <trkpt lat="37.4537310" lon="-4.4292000">
        <ele>497.6</ele>
        <time>2021-12-28T20:09:21Z</time>
      </trkpt>
      <trkpt lat="37.4537060" lon="-4.4292140">
        <ele>497.6</ele>
        <time>2021-12-28T20:09:22Z</time>
      </trkpt>
      <trkpt lat="37.4536830" lon="-4.4292250">
        <ele>497.6</ele>
        <time>2021-12-28T20:09:23Z</time>
      </trkpt>
      <trkpt lat="37.4536510" lon="-4.4292400">
        <ele>497.6</ele>
        <time>2021-12-28T20:09:24Z</time>
      </trkpt>
      <trkpt lat="37.4536160" lon="-4.4292540">
        <ele>497.6</ele>
        <time>2021-12-28T20:09:25Z</time>
      </trkpt>
      <trkpt lat="37.4535900" lon="-4.4292650">
        <ele>497.6</ele>
        <time>2021-12-28T20:09:26Z</time>
      </trkpt>
      <trkpt lat="37.4535650" lon="-4.4292800">
        <ele>497.6</ele>
        <time>2021-12-28T20:09:27Z</time>
      </trkpt>
      <trkpt lat="37.4535360" lon="-4.4292920">
        <ele>497.6</ele>
        <time>2021-12-28T20:09:28Z</time>
      </trkpt>
      <trkpt lat="37.4535070" lon="-4.4293050">
        <ele>497.6</ele>
        <time>2021-12-28T20:09:29Z</time>
      </trkpt>
      <trkpt lat="37.4534750" lon="-4.4293180">
        <ele>497.6</ele>
        <time>2021-12-28T20:09:30Z</time>
      </trkpt>
      <trkpt lat="37.4534460" lon="-4.4293320">
        <ele>497.6</ele>
        <time>2021-12-28T20:09:31Z</time>
      </trkpt>
      <trkpt lat="37.4534140" lon="-4.4293450">
        <ele>497.6</ele>
        <time>2021-12-28T20:09:32Z</time>
      </trkpt>
      <trkpt lat="37.4533890" lon="-4.4293580">
        <ele>497.6</ele>
        <time>2021-12-28T20:09:33Z</time>
      </trkpt>
      <trkpt lat="37.4533660" lon="-4.4293700">
        <ele>497.6</ele>
        <time>2021-12-28T20:09:34Z</time>
      </trkpt>
      <trkpt lat="37.4533340" lon="-4.4293900">
        <ele>497.6</ele>
        <time>2021-12-28T20:09:35Z</time>
      </trkpt>
      <trkpt lat="37.4533090" lon="-4.4294050">
        <ele>497.6</ele>
        <time>2021-12-28T20:09:36Z</time>
      </trkpt>
      <trkpt lat="37.4532860" lon="-4.4294170">
        <ele>497.6</ele>
        <time>2021-12-28T20:09:37Z</time>
      </trkpt>
      <trkpt lat="37.4532510" lon="-4.4294320">
        <ele>497.6</ele>
        <time>2021-12-28T20:09:38Z</time>
      </trkpt>
      <trkpt lat="37.4532130" lon="-4.4294500">
        <ele>497.8</ele>
        <time>2021-12-28T20:09:39Z</time>
      </trkpt>
      <trkpt lat="37.4531870" lon="-4.4294650">
        <ele>497.8</ele>
        <time>2021-12-28T20:09:40Z</time>
      </trkpt>
      <trkpt lat="37.4531580" lon="-4.4294770">
        <ele>497.8</ele>
        <time>2021-12-28T20:09:41Z</time>
      </trkpt>
      <trkpt lat="37.4531330" lon="-4.4294940">
        <ele>497.8</ele>
        <time>2021-12-28T20:09:42Z</time>
      </trkpt>
      <trkpt lat="37.4530980" lon="-4.4295120">
        <ele>497.8</ele>
        <time>2021-12-28T20:09:43Z</time>
      </trkpt>
      <trkpt lat="37.4530690" lon="-4.4295280">
        <ele>497.6</ele>
        <time>2021-12-28T20:09:44Z</time>
      </trkpt>
      <trkpt lat="37.4530400" lon="-4.4295420">
        <ele>497.6</ele>
        <time>2021-12-28T20:09:45Z</time>
      </trkpt>
      <trkpt lat="37.4530140" lon="-4.4295550">
        <ele>497.6</ele>
        <time>2021-12-28T20:09:46Z</time>
      </trkpt>
      <trkpt lat="37.4529820" lon="-4.4295720">
        <ele>497.6</ele>
        <time>2021-12-28T20:09:47Z</time>
      </trkpt>
      <trkpt lat="37.4529540" lon="-4.4295900">
        <ele>497.6</ele>
        <time>2021-12-28T20:09:48Z</time>
      </trkpt>
      <trkpt lat="37.4529280" lon="-4.4296050">
        <ele>497.6</ele>
        <time>2021-12-28T20:09:49Z</time>
      </trkpt>
      <trkpt lat="37.4528990" lon="-4.4296200">
        <ele>497.6</ele>
        <time>2021-12-28T20:09:50Z</time>
      </trkpt>
      <trkpt lat="37.4528770" lon="-4.4296320">
        <ele>497.6</ele>
        <time>2021-12-28T20:09:51Z</time>
      </trkpt>
      <trkpt lat="37.4528420" lon="-4.4296480">
        <ele>497.8</ele>
        <time>2021-12-28T20:09:52Z</time>
      </trkpt>
      <trkpt lat="37.4528130" lon="-4.4296650">
        <ele>497.8</ele>
        <time>2021-12-28T20:09:53Z</time>
      </trkpt>
      <trkpt lat="37.4527840" lon="-4.4296800">
        <ele>497.8</ele>
        <time>2021-12-28T20:09:54Z</time>
      </trkpt>
      <trkpt lat="37.4527550" lon="-4.4296930">
        <ele>497.8</ele>
        <time>2021-12-28T20:09:55Z</time>
      </trkpt>
      <trkpt lat="37.4527360" lon="-4.4297000">
        <ele>497.8</ele>
        <time>2021-12-28T20:09:56Z</time>
      </trkpt>
      <trkpt lat="37.4527010" lon="-4.4297160">
        <ele>497.8</ele>
        <time>2021-12-28T20:09:57Z</time>
      </trkpt>
      <trkpt lat="37.4526750" lon="-4.4297300">
        <ele>497.8</ele>
        <time>2021-12-28T20:09:58Z</time>
      </trkpt>
      <trkpt lat="37.4526500" lon="-4.4297430">
        <ele>497.8</ele>
        <time>2021-12-28T20:09:59Z</time>
      </trkpt>
      <trkpt lat="37.4526210" lon="-4.4297580">
        <ele>497.8</ele>
        <time>2021-12-28T20:10:00Z</time>
      </trkpt>
      <trkpt lat="37.4525980" lon="-4.4297700">
        <ele>497.8</ele>
        <time>2021-12-28T20:10:01Z</time>
      </trkpt>
      <trkpt lat="37.4525700" lon="-4.4297850">
        <ele>497.8</ele>
        <time>2021-12-28T20:10:02Z</time>
      </trkpt>
      <trkpt lat="37.4525380" lon="-4.4298000">
        <ele>497.8</ele>
        <time>2021-12-28T20:10:03Z</time>
      </trkpt>
      <trkpt lat="37.4525120" lon="-4.4298100">
        <ele>497.6</ele>
        <time>2021-12-28T20:10:04Z</time>
      </trkpt>
      <trkpt lat="37.4524770" lon="-4.4298230">
        <ele>497.6</ele>
        <time>2021-12-28T20:10:05Z</time>
      </trkpt>
      <trkpt lat="37.4524510" lon="-4.4298380">
        <ele>497.6</ele>
        <time>2021-12-28T20:10:06Z</time>
      </trkpt>
      <trkpt lat="37.4524220" lon="-4.4298540">
        <ele>497.6</ele>
        <time>2021-12-28T20:10:07Z</time>
      </trkpt>
      <trkpt lat="37.4523970" lon="-4.4298670">
        <ele>497.6</ele>
        <time>2021-12-28T20:10:08Z</time>
      </trkpt>
      <trkpt lat="37.4523650" lon="-4.4298800">
        <ele>497.6</ele>
        <time>2021-12-28T20:10:09Z</time>
      </trkpt>
      <trkpt lat="37.4523390" lon="-4.4298970">
        <ele>497.4</ele>
        <time>2021-12-28T20:10:10Z</time>
      </trkpt>
      <trkpt lat="37.4523140" lon="-4.4299120">
        <ele>497.4</ele>
        <time>2021-12-28T20:10:11Z</time>
      </trkpt>
      <trkpt lat="37.4522820" lon="-4.4299270">
        <ele>497.4</ele>
        <time>2021-12-28T20:10:12Z</time>
      </trkpt>
      <trkpt lat="37.4522530" lon="-4.4299400">
        <ele>497.4</ele>
        <time>2021-12-28T20:10:13Z</time>
      </trkpt>
      <trkpt lat="37.4522180" lon="-4.4299550">
        <ele>497.2</ele>
        <time>2021-12-28T20:10:14Z</time>
      </trkpt>
      <trkpt lat="37.4521860" lon="-4.4299700">
        <ele>497.2</ele>
        <time>2021-12-28T20:10:15Z</time>
      </trkpt>
      <trkpt lat="37.4521600" lon="-4.4299860">
        <ele>497.2</ele>
        <time>2021-12-28T20:10:16Z</time>
      </trkpt>
      <trkpt lat="37.4521280" lon="-4.4300030">
        <ele>497.2</ele>
        <time>2021-12-28T20:10:17Z</time>
      </trkpt>
      <trkpt lat="37.4520990" lon="-4.4300150">
        <ele>497.2</ele>
        <time>2021-12-28T20:10:18Z</time>
      </trkpt>
      <trkpt lat="37.4520670" lon="-4.4300280">
        <ele>497.2</ele>
        <time>2021-12-28T20:10:19Z</time>
      </trkpt>
      <trkpt lat="37.4520380" lon="-4.4300420">
        <ele>497.2</ele>
        <time>2021-12-28T20:10:20Z</time>
      </trkpt>
      <trkpt lat="37.4520030" lon="-4.4300560">
        <ele>497.2</ele>
        <time>2021-12-28T20:10:21Z</time>
      </trkpt>
      <trkpt lat="37.4519740" lon="-4.4300720">
        <ele>497.4</ele>
        <time>2021-12-28T20:10:22Z</time>
      </trkpt>
      <trkpt lat="37.4519390" lon="-4.4300880">
        <ele>497.4</ele>
        <time>2021-12-28T20:10:23Z</time>
      </trkpt>
      <trkpt lat="37.4519070" lon="-4.4301030">
        <ele>497.4</ele>
        <time>2021-12-28T20:10:24Z</time>
      </trkpt>
      <trkpt lat="37.4518780" lon="-4.4301200">
        <ele>497.4</ele>
        <time>2021-12-28T20:10:25Z</time>
      </trkpt>
      <trkpt lat="37.4518460" lon="-4.4301350">
        <ele>497.4</ele>
        <time>2021-12-28T20:10:26Z</time>
      </trkpt>
      <trkpt lat="37.4518180" lon="-4.4301520">
        <ele>497.4</ele>
        <time>2021-12-28T20:10:27Z</time>
      </trkpt>
      <trkpt lat="37.4517820" lon="-4.4301670">
        <ele>497.6</ele>
        <time>2021-12-28T20:10:28Z</time>
      </trkpt>
      <trkpt lat="37.4517500" lon="-4.4301820">
        <ele>497.6</ele>
        <time>2021-12-28T20:10:29Z</time>
      </trkpt>
      <trkpt lat="37.4517250" lon="-4.4301980">
        <ele>497.6</ele>
        <time>2021-12-28T20:10:30Z</time>
      </trkpt>
      <trkpt lat="37.4516960" lon="-4.4302140">
        <ele>497.6</ele>
        <time>2021-12-28T20:10:31Z</time>
      </trkpt>
      <trkpt lat="37.4516670" lon="-4.4302300">
        <ele>497.6</ele>
        <time>2021-12-28T20:10:32Z</time>
      </trkpt>
      <trkpt lat="37.4516420" lon="-4.4302450">
        <ele>497.4</ele>
        <time>2021-12-28T20:10:33Z</time>
      </trkpt>
      <trkpt lat="37.4516100" lon="-4.4302580">
        <ele>497.4</ele>
        <time>2021-12-28T20:10:34Z</time>
      </trkpt>
      <trkpt lat="37.4515840" lon="-4.4302700">
        <ele>497.4</ele>
        <time>2021-12-28T20:10:35Z</time>
      </trkpt>
      <trkpt lat="37.4515520" lon="-4.4302850">
        <ele>497.4</ele>
        <time>2021-12-28T20:10:36Z</time>
      </trkpt>
      <trkpt lat="37.4515260" lon="-4.4302980">
        <ele>497.4</ele>
        <time>2021-12-28T20:10:37Z</time>
      </trkpt>
      <trkpt lat="37.4514980" lon="-4.4303130">
        <ele>497.4</ele>
        <time>2021-12-28T20:10:38Z</time>
      </trkpt>
      <trkpt lat="37.4514620" lon="-4.4303280">
        <ele>497.4</ele>
        <time>2021-12-28T20:10:39Z</time>
      </trkpt>
      <trkpt lat="37.4514340" lon="-4.4303430">
        <ele>497.2</ele>
        <time>2021-12-28T20:10:40Z</time>
      </trkpt>
      <trkpt lat="37.4514080" lon="-4.4303560">
        <ele>497.2</ele>
        <time>2021-12-28T20:10:41Z</time>
      </trkpt>
      <trkpt lat="37.4513820" lon="-4.4303700">
        <ele>497.4</ele>
        <time>2021-12-28T20:10:42Z</time>
      </trkpt>
      <trkpt lat="37.4513540" lon="-4.4303830">
        <ele>497.4</ele>
        <time>2021-12-28T20:10:43Z</time>
      </trkpt>
      <trkpt lat="37.4513280" lon="-4.4303960">
        <ele>497.4</ele>
        <time>2021-12-28T20:10:44Z</time>
      </trkpt>
      <trkpt lat="37.4513020" lon="-4.4304100">
        <ele>497.4</ele>
        <time>2021-12-28T20:10:45Z</time>
      </trkpt>
      <trkpt lat="37.4512740" lon="-4.4304220">
        <ele>497.4</ele>
        <time>2021-12-28T20:10:46Z</time>
      </trkpt>
      <trkpt lat="37.4512480" lon="-4.4304320">
        <ele>497.2</ele>
        <time>2021-12-28T20:10:47Z</time>
      </trkpt>
      <trkpt lat="37.4512190" lon="-4.4304430">
        <ele>497.2</ele>
        <time>2021-12-28T20:10:48Z</time>
      </trkpt>
      <trkpt lat="37.4512000" lon="-4.4304530">
        <ele>497.2</ele>
        <time>2021-12-28T20:10:49Z</time>
      </trkpt>
      <trkpt lat="37.4511710" lon="-4.4304670">
        <ele>497.2</ele>
        <time>2021-12-28T20:10:50Z</time>
      </trkpt>
      <trkpt lat="37.4511520" lon="-4.4304850">
        <ele>497.4</ele>
        <time>2021-12-28T20:10:51Z</time>
      </trkpt>
      <trkpt lat="37.4511300" lon="-4.4305020">
        <ele>497.4</ele>
        <time>2021-12-28T20:10:52Z</time>
      </trkpt>
      <trkpt lat="37.4511040" lon="-4.4305220">
        <ele>497.4</ele>
        <time>2021-12-28T20:10:53Z</time>
      </trkpt>
      <trkpt lat="37.4510750" lon="-4.4305340">
        <ele>497.6</ele>
        <time>2021-12-28T20:10:54Z</time>
      </trkpt>
      <trkpt lat="37.4510500" lon="-4.4305450">
        <ele>497.6</ele>
        <time>2021-12-28T20:10:55Z</time>
      </trkpt>
      <trkpt lat="37.4510270" lon="-4.4305570">
        <ele>497.8</ele>
        <time>2021-12-28T20:10:56Z</time>
      </trkpt>
      <trkpt lat="37.4510020" lon="-4.4305680">
        <ele>497.8</ele>
        <time>2021-12-28T20:10:57Z</time>
      </trkpt>
      <trkpt lat="37.4509730" lon="-4.4305800">
        <ele>498.0</ele>
        <time>2021-12-28T20:10:58Z</time>
      </trkpt>
      <trkpt lat="37.4509470" lon="-4.4305920">
        <ele>498.0</ele>
        <time>2021-12-28T20:10:59Z</time>
      </trkpt>
      <trkpt lat="37.4509220" lon="-4.4306050">
        <ele>498.2</ele>
        <time>2021-12-28T20:11:00Z</time>
      </trkpt>
      <trkpt lat="37.4508930" lon="-4.4306180">
        <ele>498.2</ele>
        <time>2021-12-28T20:11:01Z</time>
      </trkpt>
      <trkpt lat="37.4508670" lon="-4.4306300">
        <ele>498.2</ele>
        <time>2021-12-28T20:11:02Z</time>
      </trkpt>
      <trkpt lat="37.4508350" lon="-4.4306450">
        <ele>498.4</ele>
        <time>2021-12-28T20:11:03Z</time>
      </trkpt>
      <trkpt lat="37.4508100" lon="-4.4306560">
        <ele>498.4</ele>
        <time>2021-12-28T20:11:04Z</time>
      </trkpt>
      <trkpt lat="37.4507870" lon="-4.4306630">
        <ele>498.6</ele>
        <time>2021-12-28T20:11:05Z</time>
      </trkpt>
      <trkpt lat="37.4507580" lon="-4.4306730">
        <ele>498.6</ele>
        <time>2021-12-28T20:11:06Z</time>
      </trkpt>
      <trkpt lat="37.4507330" lon="-4.4306860">
        <ele>498.6</ele>
        <time>2021-12-28T20:11:07Z</time>
      </trkpt>
      <trkpt lat="37.4507070" lon="-4.4307000">
        <ele>498.8</ele>
        <time>2021-12-28T20:11:08Z</time>
      </trkpt>
      <trkpt lat="37.4506780" lon="-4.4307100">
        <ele>498.8</ele>
        <time>2021-12-28T20:11:09Z</time>
      </trkpt>
      <trkpt lat="37.4506530" lon="-4.4307220">
        <ele>498.8</ele>
        <time>2021-12-28T20:11:10Z</time>
      </trkpt>
      <trkpt lat="37.4506140" lon="-4.4307350">
        <ele>498.8</ele>
        <time>2021-12-28T20:11:11Z</time>
      </trkpt>
      <trkpt lat="37.4505860" lon="-4.4307450">
        <ele>498.8</ele>
        <time>2021-12-28T20:11:12Z</time>
      </trkpt>
      <trkpt lat="37.4505570" lon="-4.4307560">
        <ele>498.8</ele>
        <time>2021-12-28T20:11:13Z</time>
      </trkpt>
      <trkpt lat="37.4505340" lon="-4.4307680">
        <ele>498.8</ele>
        <time>2021-12-28T20:11:14Z</time>
      </trkpt>
      <trkpt lat="37.4505090" lon="-4.4307800">
        <ele>498.8</ele>
        <time>2021-12-28T20:11:15Z</time>
      </trkpt>
      <trkpt lat="37.4504800" lon="-4.4307900">
        <ele>498.6</ele>
        <time>2021-12-28T20:11:16Z</time>
      </trkpt>
      <trkpt lat="37.4504510" lon="-4.4307980">
        <ele>498.6</ele>
        <time>2021-12-28T20:11:17Z</time>
      </trkpt>
      <trkpt lat="37.4504290" lon="-4.4308080">
        <ele>498.6</ele>
        <time>2021-12-28T20:11:18Z</time>
      </trkpt>
      <trkpt lat="37.4504000" lon="-4.4308170">
        <ele>498.6</ele>
        <time>2021-12-28T20:11:19Z</time>
      </trkpt>
      <trkpt lat="37.4503740" lon="-4.4308220">
        <ele>498.6</ele>
        <time>2021-12-28T20:11:20Z</time>
      </trkpt>
      <trkpt lat="37.4503490" lon="-4.4308250">
        <ele>498.6</ele>
        <time>2021-12-28T20:11:21Z</time>
      </trkpt>
      <trkpt lat="37.4503100" lon="-4.4308370">
        <ele>498.6</ele>
        <time>2021-12-28T20:11:22Z</time>
      </trkpt>
      <trkpt lat="37.4502780" lon="-4.4308470">
        <ele>498.8</ele>
        <time>2021-12-28T20:11:23Z</time>
      </trkpt>
      <trkpt lat="37.4502500" lon="-4.4308550">
        <ele>498.8</ele>
        <time>2021-12-28T20:11:24Z</time>
      </trkpt>
      <trkpt lat="37.4502210" lon="-4.4308620">
        <ele>498.8</ele>
        <time>2021-12-28T20:11:25Z</time>
      </trkpt>
      <trkpt lat="37.4502020" lon="-4.4308680">
        <ele>498.8</ele>
        <time>2021-12-28T20:11:26Z</time>
      </trkpt>
      <trkpt lat="37.4501630" lon="-4.4308800">
        <ele>499.0</ele>
        <time>2021-12-28T20:11:27Z</time>
      </trkpt>
      <trkpt lat="37.4501310" lon="-4.4308950">
        <ele>499.0</ele>
        <time>2021-12-28T20:11:28Z</time>
      </trkpt>
      <trkpt lat="37.4500960" lon="-4.4309050">
        <ele>499.2</ele>
        <time>2021-12-28T20:11:29Z</time>
      </trkpt>
      <trkpt lat="37.4500700" lon="-4.4309120">
        <ele>499.2</ele>
        <time>2021-12-28T20:11:30Z</time>
      </trkpt>
      <trkpt lat="37.4500290" lon="-4.4309150">
        <ele>499.2</ele>
        <time>2021-12-28T20:11:31Z</time>
      </trkpt>
      <trkpt lat="37.4500000" lon="-4.4309180">
        <ele>499.2</ele>
        <time>2021-12-28T20:11:32Z</time>
      </trkpt>
      <trkpt lat="37.4499740" lon="-4.4309250">
        <ele>499.4</ele>
        <time>2021-12-28T20:11:33Z</time>
      </trkpt>
      <trkpt lat="37.4499550" lon="-4.4309340">
        <ele>499.4</ele>
        <time>2021-12-28T20:11:34Z</time>
      </trkpt>
      <trkpt lat="37.4499300" lon="-4.4309400">
        <ele>499.4</ele>
        <time>2021-12-28T20:11:35Z</time>
      </trkpt>
      <trkpt lat="37.4498910" lon="-4.4309440">
        <ele>499.6</ele>
        <time>2021-12-28T20:11:36Z</time>
      </trkpt>
      <trkpt lat="37.4498590" lon="-4.4309500">
        <ele>499.6</ele>
        <time>2021-12-28T20:11:37Z</time>
      </trkpt>
      <trkpt lat="37.4498210" lon="-4.4309580">
        <ele>499.6</ele>
        <time>2021-12-28T20:11:38Z</time>
      </trkpt>
      <trkpt lat="37.4497980" lon="-4.4309580">
        <ele>499.6</ele>
        <time>2021-12-28T20:11:39Z</time>
      </trkpt>
      <trkpt lat="37.4497630" lon="-4.4309640">
        <ele>499.6</ele>
        <time>2021-12-28T20:11:40Z</time>
      </trkpt>
      <trkpt lat="37.4497380" lon="-4.4309640">
        <ele>499.6</ele>
        <time>2021-12-28T20:11:41Z</time>
      </trkpt>
      <trkpt lat="37.4497120" lon="-4.4309670">
        <ele>499.6</ele>
        <time>2021-12-28T20:11:42Z</time>
      </trkpt>
      <trkpt lat="37.4496830" lon="-4.4309720">
        <ele>499.6</ele>
        <time>2021-12-28T20:11:43Z</time>
      </trkpt>
      <trkpt lat="37.4496450" lon="-4.4309800">
        <ele>499.6</ele>
        <time>2021-12-28T20:11:44Z</time>
      </trkpt>
      <trkpt lat="37.4496130" lon="-4.4309780">
        <ele>499.8</ele>
        <time>2021-12-28T20:11:45Z</time>
      </trkpt>
      <trkpt lat="37.4495870" lon="-4.4309740">
        <ele>499.8</ele>
        <time>2021-12-28T20:11:46Z</time>
      </trkpt>
      <trkpt lat="37.4495550" lon="-4.4309720">
        <ele>499.8</ele>
        <time>2021-12-28T20:11:47Z</time>
      </trkpt>
      <trkpt lat="37.4495230" lon="-4.4309680">
        <ele>500.0</ele>
        <time>2021-12-28T20:11:48Z</time>
      </trkpt>
      <trkpt lat="37.4494980" lon="-4.4309720">
        <ele>500.0</ele>
        <time>2021-12-28T20:11:49Z</time>
      </trkpt>
      <trkpt lat="37.4494560" lon="-4.4309670">
        <ele>500.0</ele>
        <time>2021-12-28T20:11:50Z</time>
      </trkpt>
      <trkpt lat="37.4494240" lon="-4.4309670">
        <ele>500.0</ele>
        <time>2021-12-28T20:11:51Z</time>
      </trkpt>
      <trkpt lat="37.4493950" lon="-4.4309600">
        <ele>499.8</ele>
        <time>2021-12-28T20:11:52Z</time>
      </trkpt>
      <trkpt lat="37.4493540" lon="-4.4309580">
        <ele>499.8</ele>
        <time>2021-12-28T20:11:53Z</time>
      </trkpt>
      <trkpt lat="37.4493220" lon="-4.4309580">
        <ele>499.8</ele>
        <time>2021-12-28T20:11:54Z</time>
      </trkpt>
      <trkpt lat="37.4492960" lon="-4.4309570">
        <ele>499.6</ele>
        <time>2021-12-28T20:11:55Z</time>
      </trkpt>
      <trkpt lat="37.4492640" lon="-4.4309540">
        <ele>499.6</ele>
        <time>2021-12-28T20:11:56Z</time>
      </trkpt>
      <trkpt lat="37.4492290" lon="-4.4309500">
        <ele>499.4</ele>
        <time>2021-12-28T20:11:57Z</time>
      </trkpt>
      <trkpt lat="37.4492060" lon="-4.4309500">
        <ele>499.4</ele>
        <time>2021-12-28T20:11:58Z</time>
      </trkpt>
      <trkpt lat="37.4491780" lon="-4.4309520">
        <ele>499.4</ele>
        <time>2021-12-28T20:11:59Z</time>
      </trkpt>
      <trkpt lat="37.4491490" lon="-4.4309520">
        <ele>499.4</ele>
        <time>2021-12-28T20:12:00Z</time>
      </trkpt>
      <trkpt lat="37.4491170" lon="-4.4309470">
        <ele>499.4</ele>
        <time>2021-12-28T20:12:01Z</time>
      </trkpt>
      <trkpt lat="37.4490850" lon="-4.4309440">
        <ele>499.6</ele>
        <time>2021-12-28T20:12:02Z</time>
      </trkpt>
      <trkpt lat="37.4490590" lon="-4.4309380">
        <ele>499.6</ele>
        <time>2021-12-28T20:12:03Z</time>
      </trkpt>
      <trkpt lat="37.4490300" lon="-4.4309320">
        <ele>499.6</ele>
        <time>2021-12-28T20:12:04Z</time>
      </trkpt>
      <trkpt lat="37.4490020" lon="-4.4309240">
        <ele>499.6</ele>
        <time>2021-12-28T20:12:05Z</time>
      </trkpt>
      <trkpt lat="37.4489660" lon="-4.4309180">
        <ele>499.6</ele>
        <time>2021-12-28T20:12:06Z</time>
      </trkpt>
      <trkpt lat="37.4489310" lon="-4.4309140">
        <ele>499.6</ele>
        <time>2021-12-28T20:12:07Z</time>
      </trkpt>
      <trkpt lat="37.4488990" lon="-4.4309070">
        <ele>499.6</ele>
        <time>2021-12-28T20:12:08Z</time>
      </trkpt>
      <trkpt lat="37.4488670" lon="-4.4309020">
        <ele>499.6</ele>
        <time>2021-12-28T20:12:09Z</time>
      </trkpt>
      <trkpt lat="37.4488450" lon="-4.4309000">
        <ele>499.8</ele>
        <time>2021-12-28T20:12:10Z</time>
      </trkpt>
      <trkpt lat="37.4488060" lon="-4.4308950">
        <ele>499.8</ele>
        <time>2021-12-28T20:12:11Z</time>
      </trkpt>
      <trkpt lat="37.4487810" lon="-4.4308920">
        <ele>499.8</ele>
        <time>2021-12-28T20:12:12Z</time>
      </trkpt>
      <trkpt lat="37.4487490" lon="-4.4308880">
        <ele>499.8</ele>
        <time>2021-12-28T20:12:13Z</time>
      </trkpt>
      <trkpt lat="37.4487200" lon="-4.4308820">
        <ele>499.8</ele>
        <time>2021-12-28T20:12:14Z</time>
      </trkpt>
      <trkpt lat="37.4486980" lon="-4.4308770">
        <ele>499.8</ele>
        <time>2021-12-28T20:12:15Z</time>
      </trkpt>
      <trkpt lat="37.4486620" lon="-4.4308700">
        <ele>499.8</ele>
        <time>2021-12-28T20:12:16Z</time>
      </trkpt>
      <trkpt lat="37.4486340" lon="-4.4308670">
        <ele>499.8</ele>
        <time>2021-12-28T20:12:17Z</time>
      </trkpt>
      <trkpt lat="37.4486080" lon="-4.4308620">
        <ele>499.8</ele>
        <time>2021-12-28T20:12:18Z</time>
      </trkpt>
      <trkpt lat="37.4485820" lon="-4.4308580">
        <ele>499.8</ele>
        <time>2021-12-28T20:12:19Z</time>
      </trkpt>
      <trkpt lat="37.4485470" lon="-4.4308520">
        <ele>499.8</ele>
        <time>2021-12-28T20:12:20Z</time>
      </trkpt>
      <trkpt lat="37.4485220" lon="-4.4308470">
        <ele>499.8</ele>
        <time>2021-12-28T20:12:21Z</time>
      </trkpt>
      <trkpt lat="37.4485020" lon="-4.4308450">
        <ele>499.8</ele>
        <time>2021-12-28T20:12:22Z</time>
      </trkpt>
      <trkpt lat="37.4484740" lon="-4.4308400">
        <ele>499.8</ele>
        <time>2021-12-28T20:12:23Z</time>
      </trkpt>
      <trkpt lat="37.4484540" lon="-4.4308370">
        <ele>499.8</ele>
        <time>2021-12-28T20:12:24Z</time>
      </trkpt>
      <trkpt lat="37.4484350" lon="-4.4308320">
        <ele>499.8</ele>
        <time>2021-12-28T20:12:25Z</time>
      </trkpt>
      <trkpt lat="37.4484350" lon="-4.4308320">
        <ele>500.0</ele>
        <time>2021-12-28T20:12:26Z</time>
      </trkpt>
      <trkpt lat="37.4484060" lon="-4.4308230">
        <ele>500.0</ele>
        <time>2021-12-28T20:12:27Z</time>
      </trkpt>
      <trkpt lat="37.4484060" lon="-4.4308230">
        <ele>500.0</ele>
        <time>2021-12-28T20:12:28Z</time>
      </trkpt>
      <trkpt lat="37.4484060" lon="-4.4308230">
        <ele>500.2</ele>
        <time>2021-12-28T20:12:29Z</time>
      </trkpt>
      <trkpt lat="37.4483790" lon="-4.4308270">
        <ele>500.2</ele>
        <time>2021-12-28T20:12:30Z</time>
      </trkpt>
      <trkpt lat="37.4483520" lon="-4.4308300">
        <ele>500.4</ele>
        <time>2021-12-28T20:12:31Z</time>
      </trkpt>
      <trkpt lat="37.4483250" lon="-4.4308330">
        <ele>500.4</ele>
        <time>2021-12-28T20:12:32Z</time>
      </trkpt>
      <trkpt lat="37.4482980" lon="-4.4308370">
        <ele>502.2</ele>
        <time>2021-12-28T20:13:27Z</time>
      </trkpt>
      <trkpt lat="37.4482700" lon="-4.4308400">
        <ele>502.0</ele>
        <time>2021-12-28T20:13:28Z</time>
      </trkpt>
      <trkpt lat="37.4482430" lon="-4.4308430">
        <ele>502.0</ele>
        <time>2021-12-28T20:13:29Z</time>
      </trkpt>
      <trkpt lat="37.4482210" lon="-4.4308430">
        <ele>502.0</ele>
        <time>2021-12-28T20:13:30Z</time>
      </trkpt>
      <trkpt lat="37.4481950" lon="-4.4308370">
        <ele>502.0</ele>
        <time>2021-12-28T20:13:31Z</time>
      </trkpt>
      <trkpt lat="37.4481700" lon="-4.4308230">
        <ele>502.0</ele>
        <time>2021-12-28T20:13:32Z</time>
      </trkpt>
      <trkpt lat="37.4481470" lon="-4.4308100">
        <ele>502.0</ele>
        <time>2021-12-28T20:13:33Z</time>
      </trkpt>
      <trkpt lat="37.4481220" lon="-4.4307980">
        <ele>502.0</ele>
        <time>2021-12-28T20:13:34Z</time>
      </trkpt>
      <trkpt lat="37.4480930" lon="-4.4307870">
        <ele>502.0</ele>
        <time>2021-12-28T20:13:35Z</time>
      </trkpt>
      <trkpt lat="37.4480700" lon="-4.4307760">
        <ele>501.8</ele>
        <time>2021-12-28T20:13:36Z</time>
      </trkpt>
      <trkpt lat="37.4480420" lon="-4.4307720">
        <ele>501.8</ele>
        <time>2021-12-28T20:13:37Z</time>
      </trkpt>
      <trkpt lat="37.4480100" lon="-4.4307650">
        <ele>501.8</ele>
        <time>2021-12-28T20:13:38Z</time>
      </trkpt>
      <trkpt lat="37.4479780" lon="-4.4307580">
        <ele>501.8</ele>
        <time>2021-12-28T20:13:39Z</time>
      </trkpt>
      <trkpt lat="37.4479460" lon="-4.4307520">
        <ele>501.8</ele>
        <time>2021-12-28T20:13:40Z</time>
      </trkpt>
      <trkpt lat="37.4479070" lon="-4.4307480">
        <ele>501.6</ele>
        <time>2021-12-28T20:13:41Z</time>
      </trkpt>
      <trkpt lat="37.4478720" lon="-4.4307430">
        <ele>501.8</ele>
        <time>2021-12-28T20:13:42Z</time>
      </trkpt>
      <trkpt lat="37.4478340" lon="-4.4307380">
        <ele>501.8</ele>
        <time>2021-12-28T20:13:43Z</time>
      </trkpt>
      <trkpt lat="37.4478110" lon="-4.4307380">
        <ele>501.8</ele>
        <time>2021-12-28T20:13:44Z</time>
      </trkpt>
      <trkpt lat="37.4477790" lon="-4.4307350">
        <ele>501.8</ele>
        <time>2021-12-28T20:13:45Z</time>
      </trkpt>
      <trkpt lat="37.4477500" lon="-4.4307330">
        <ele>501.8</ele>
        <time>2021-12-28T20:13:46Z</time>
      </trkpt>
      <trkpt lat="37.4477150" lon="-4.4307320">
        <ele>501.8</ele>
        <time>2021-12-28T20:13:47Z</time>
      </trkpt>
      <trkpt lat="37.4476700" lon="-4.4307260">
        <ele>501.6</ele>
        <time>2021-12-28T20:13:48Z</time>
      </trkpt>
      <trkpt lat="37.4476290" lon="-4.4307220">
        <ele>501.6</ele>
        <time>2021-12-28T20:13:49Z</time>
      </trkpt>
      <trkpt lat="37.4475810" lon="-4.4307120">
        <ele>501.6</ele>
        <time>2021-12-28T20:13:50Z</time>
      </trkpt>
      <trkpt lat="37.4475490" lon="-4.4307050">
        <ele>501.6</ele>
        <time>2021-12-28T20:13:51Z</time>
      </trkpt>
      <trkpt lat="37.4474980" lon="-4.4306960">
        <ele>501.6</ele>
        <time>2021-12-28T20:13:52Z</time>
      </trkpt>
      <trkpt lat="37.4474560" lon="-4.4306880">
        <ele>501.6</ele>
        <time>2021-12-28T20:13:53Z</time>
      </trkpt>
      <trkpt lat="37.4474140" lon="-4.4306800">
        <ele>501.4</ele>
        <time>2021-12-28T20:13:54Z</time>
      </trkpt>
      <trkpt lat="37.4473700" lon="-4.4306750">
        <ele>501.4</ele>
        <time>2021-12-28T20:13:55Z</time>
      </trkpt>
      <trkpt lat="37.4473280" lon="-4.4306700">
        <ele>501.2</ele>
        <time>2021-12-28T20:13:56Z</time>
      </trkpt>
      <trkpt lat="37.4472770" lon="-4.4306620">
        <ele>501.2</ele>
        <time>2021-12-28T20:13:57Z</time>
      </trkpt>
      <trkpt lat="37.4472510" lon="-4.4306580">
        <ele>501.2</ele>
        <time>2021-12-28T20:13:58Z</time>
      </trkpt>
      <trkpt lat="37.4472220" lon="-4.4306520">
        <ele>501.2</ele>
        <time>2021-12-28T20:13:59Z</time>
      </trkpt>
      <trkpt lat="37.4472000" lon="-4.4306480">
        <ele>501.2</ele>
        <time>2021-12-28T20:14:00Z</time>
      </trkpt>
      <trkpt lat="37.4471810" lon="-4.4306450">
        <ele>501.2</ele>
        <time>2021-12-28T20:14:01Z</time>
      </trkpt>
      <trkpt lat="37.4471810" lon="-4.4306450">
        <ele>501.2</ele>
        <time>2021-12-28T20:14:02Z</time>
      </trkpt>
      <trkpt lat="37.4471490" lon="-4.4306450">
        <ele>501.2</ele>
        <time>2021-12-28T20:14:03Z</time>
      </trkpt>
      <trkpt lat="37.4471490" lon="-4.4306450">
        <ele>501.0</ele>
        <time>2021-12-28T20:14:04Z</time>
      </trkpt>
      <trkpt lat="37.4471170" lon="-4.4306430">
        <ele>501.0</ele>
        <time>2021-12-28T20:14:05Z</time>
      </trkpt>
      <trkpt lat="37.4470980" lon="-4.4306430">
        <ele>501.0</ele>
        <time>2021-12-28T20:14:06Z</time>
      </trkpt>
      <trkpt lat="37.4470750" lon="-4.4306400">
        <ele>500.8</ele>
        <time>2021-12-28T20:14:07Z</time>
      </trkpt>
      <trkpt lat="37.4470750" lon="-4.4306400">
        <ele>500.8</ele>
        <time>2021-12-28T20:14:08Z</time>
      </trkpt>
      <trkpt lat="37.4470370" lon="-4.4306380">
        <ele>500.8</ele>
        <time>2021-12-28T20:14:09Z</time>
      </trkpt>
      <trkpt lat="37.4470180" lon="-4.4306380">
        <ele>500.8</ele>
        <time>2021-12-28T20:14:10Z</time>
      </trkpt>
      <trkpt lat="37.4469980" lon="-4.4306370">
        <ele>500.8</ele>
        <time>2021-12-28T20:14:11Z</time>
      </trkpt>
      <trkpt lat="37.4469760" lon="-4.4306380">
        <ele>500.6</ele>
        <time>2021-12-28T20:14:12Z</time>
      </trkpt>
      <trkpt lat="37.4469500" lon="-4.4306370">
        <ele>500.6</ele>
        <time>2021-12-28T20:14:13Z</time>
      </trkpt>
      <trkpt lat="37.4469250" lon="-4.4306320">
        <ele>500.6</ele>
        <time>2021-12-28T20:14:14Z</time>
      </trkpt>
      <trkpt lat="37.4469020" lon="-4.4306280">
        <ele>500.6</ele>
        <time>2021-12-28T20:14:15Z</time>
      </trkpt>
      <trkpt lat="37.4468740" lon="-4.4306250">
        <ele>500.6</ele>
        <time>2021-12-28T20:14:16Z</time>
      </trkpt>
      <trkpt lat="37.4468450" lon="-4.4306180">
        <ele>500.6</ele>
        <time>2021-12-28T20:14:17Z</time>
      </trkpt>
      <trkpt lat="37.4468160" lon="-4.4306170">
        <ele>500.8</ele>
        <time>2021-12-28T20:14:18Z</time>
      </trkpt>
      <trkpt lat="37.4467780" lon="-4.4306120">
        <ele>500.8</ele>
        <time>2021-12-28T20:14:19Z</time>
      </trkpt>
      <trkpt lat="37.4467460" lon="-4.4306070">
        <ele>500.8</ele>
        <time>2021-12-28T20:14:20Z</time>
      </trkpt>
      <trkpt lat="37.4467070" lon="-4.4306020">
        <ele>500.8</ele>
        <time>2021-12-28T20:14:21Z</time>
      </trkpt>
      <trkpt lat="37.4466750" lon="-4.4305970">
        <ele>501.0</ele>
        <time>2021-12-28T20:14:22Z</time>
      </trkpt>
      <trkpt lat="37.4466430" lon="-4.4305920">
        <ele>501.0</ele>
        <time>2021-12-28T20:14:23Z</time>
      </trkpt>
      <trkpt lat="37.4466140" lon="-4.4305880">
        <ele>501.2</ele>
        <time>2021-12-28T20:14:24Z</time>
      </trkpt>
      <trkpt lat="37.4465790" lon="-4.4305840">
        <ele>501.2</ele>
        <time>2021-12-28T20:14:25Z</time>
      </trkpt>
      <trkpt lat="37.4465440" lon="-4.4305770">
        <ele>501.2</ele>
        <time>2021-12-28T20:14:26Z</time>
      </trkpt>
      <trkpt lat="37.4465020" lon="-4.4305720">
        <ele>501.4</ele>
        <time>2021-12-28T20:14:27Z</time>
      </trkpt>
      <trkpt lat="37.4464800" lon="-4.4305670">
        <ele>501.4</ele>
        <time>2021-12-28T20:14:28Z</time>
      </trkpt>
      <trkpt lat="37.4464480" lon="-4.4305650">
        <ele>501.4</ele>
        <time>2021-12-28T20:14:29Z</time>
      </trkpt>
      <trkpt lat="37.4464220" lon="-4.4305650">
        <ele>501.4</ele>
        <time>2021-12-28T20:14:30Z</time>
      </trkpt>
      <trkpt lat="37.4463970" lon="-4.4305600">
        <ele>501.6</ele>
        <time>2021-12-28T20:14:31Z</time>
      </trkpt>
      <trkpt lat="37.4463680" lon="-4.4305550">
        <ele>501.6</ele>
        <time>2021-12-28T20:14:32Z</time>
      </trkpt>
      <trkpt lat="37.4463390" lon="-4.4305480">
        <ele>501.6</ele>
        <time>2021-12-28T20:14:33Z</time>
      </trkpt>
      <trkpt lat="37.4463070" lon="-4.4305440">
        <ele>501.6</ele>
        <time>2021-12-28T20:14:34Z</time>
      </trkpt>
      <trkpt lat="37.4462820" lon="-4.4305370">
        <ele>501.6</ele>
        <time>2021-12-28T20:14:35Z</time>
      </trkpt>
      <trkpt lat="37.4462500" lon="-4.4305340">
        <ele>501.6</ele>
        <time>2021-12-28T20:14:36Z</time>
      </trkpt>
      <trkpt lat="37.4462240" lon="-4.4305320">
        <ele>501.6</ele>
        <time>2021-12-28T20:14:37Z</time>
      </trkpt>
      <trkpt lat="37.4461950" lon="-4.4305300">
        <ele>501.6</ele>
        <time>2021-12-28T20:14:38Z</time>
      </trkpt>
      <trkpt lat="37.4461630" lon="-4.4305280">
        <ele>501.6</ele>
        <time>2021-12-28T20:14:39Z</time>
      </trkpt>
      <trkpt lat="37.4461310" lon="-4.4305250">
        <ele>501.6</ele>
        <time>2021-12-28T20:14:40Z</time>
      </trkpt>
      <trkpt lat="37.4461060" lon="-4.4305220">
        <ele>501.6</ele>
        <time>2021-12-28T20:14:41Z</time>
      </trkpt>
      <trkpt lat="37.4460800" lon="-4.4305180">
        <ele>501.6</ele>
        <time>2021-12-28T20:14:42Z</time>
      </trkpt>
      <trkpt lat="37.4460510" lon="-4.4305150">
        <ele>501.6</ele>
        <time>2021-12-28T20:14:43Z</time>
      </trkpt>
      <trkpt lat="37.4460320" lon="-4.4305100">
        <ele>501.6</ele>
        <time>2021-12-28T20:14:44Z</time>
      </trkpt>
      <trkpt lat="37.4460060" lon="-4.4305070">
        <ele>501.6</ele>
        <time>2021-12-28T20:14:45Z</time>
      </trkpt>
      <trkpt lat="37.4459870" lon="-4.4305070">
        <ele>501.6</ele>
        <time>2021-12-28T20:14:46Z</time>
      </trkpt>
      <trkpt lat="37.4459650" lon="-4.4305050">
        <ele>501.6</ele>
        <time>2021-12-28T20:14:47Z</time>
      </trkpt>
      <trkpt lat="37.4459420" lon="-4.4305020">
        <ele>501.6</ele>
        <time>2021-12-28T20:14:48Z</time>
      </trkpt>
      <trkpt lat="37.4459420" lon="-4.4305020">
        <ele>501.8</ele>
        <time>2021-12-28T20:14:49Z</time>
      </trkpt>
      <trkpt lat="37.4459230" lon="-4.4305000">
        <ele>501.8</ele>
        <time>2021-12-28T20:14:50Z</time>
      </trkpt>
      <trkpt lat="37.4459230" lon="-4.4305000">
        <ele>501.8</ele>
        <time>2021-12-28T20:14:51Z</time>
      </trkpt>
      <trkpt lat="37.4459230" lon="-4.4305000">
        <ele>501.8</ele>
        <time>2021-12-28T20:14:52Z</time>
      </trkpt>
      <trkpt lat="37.4459230" lon="-4.4305000">
        <ele>502.0</ele>
        <time>2021-12-28T20:14:53Z</time>
      </trkpt>
      <trkpt lat="37.4459230" lon="-4.4305000">
        <ele>502.0</ele>
        <time>2021-12-28T20:14:54Z</time>
      </trkpt>
      <trkpt lat="37.4459230" lon="-4.4305000">
        <ele>502.0</ele>
        <time>2021-12-28T20:14:55Z</time>
      </trkpt>
      <trkpt lat="37.4458180" lon="-4.4304850">
        <ele>502.0</ele>
        <time>2021-12-28T20:15:03Z</time>
      </trkpt>
      <trkpt lat="37.4457980" lon="-4.4304820">
        <ele>502.0</ele>
        <time>2021-12-28T20:15:04Z</time>
      </trkpt>
      <trkpt lat="37.4457730" lon="-4.4304770">
        <ele>502.0</ele>
        <time>2021-12-28T20:15:05Z</time>
      </trkpt>
      <trkpt lat="37.4457470" lon="-4.4304730">
        <ele>502.0</ele>
        <time>2021-12-28T20:15:06Z</time>
      </trkpt>
      <trkpt lat="37.4457250" lon="-4.4304680">
        <ele>502.0</ele>
        <time>2021-12-28T20:15:07Z</time>
      </trkpt>
      <trkpt lat="37.4456990" lon="-4.4304680">
        <ele>502.0</ele>
        <time>2021-12-28T20:15:08Z</time>
      </trkpt>
      <trkpt lat="37.4456800" lon="-4.4304680">
        <ele>502.0</ele>
        <time>2021-12-28T20:15:09Z</time>
      </trkpt>
      <trkpt lat="37.4456540" lon="-4.4304630">
        <ele>502.2</ele>
        <time>2021-12-28T20:15:10Z</time>
      </trkpt>
      <trkpt lat="37.4456540" lon="-4.4304630">
        <ele>502.2</ele>
        <time>2021-12-28T20:15:11Z</time>
      </trkpt>
      <trkpt lat="37.4456130" lon="-4.4304520">
        <ele>502.2</ele>
        <time>2021-12-28T20:15:12Z</time>
      </trkpt>
      <trkpt lat="37.4455740" lon="-4.4304440">
        <ele>502.4</ele>
        <time>2021-12-28T20:15:13Z</time>
      </trkpt>
      <trkpt lat="37.4455650" lon="-4.4304420">
        <ele>502.4</ele>
        <time>2021-12-28T20:15:14Z</time>
      </trkpt>
      <trkpt lat="37.4455360" lon="-4.4304400">
        <ele>502.6</ele>
        <time>2021-12-28T20:15:15Z</time>
      </trkpt>
      <trkpt lat="37.4455100" lon="-4.4304400">
        <ele>502.6</ele>
        <time>2021-12-28T20:15:16Z</time>
      </trkpt>
      <trkpt lat="37.4454910" lon="-4.4304400">
        <ele>502.8</ele>
        <time>2021-12-28T20:15:17Z</time>
      </trkpt>
      <trkpt lat="37.4454620" lon="-4.4304300">
        <ele>502.8</ele>
        <time>2021-12-28T20:15:18Z</time>
      </trkpt>
      <trkpt lat="37.4454370" lon="-4.4304260">
        <ele>502.8</ele>
        <time>2021-12-28T20:15:19Z</time>
      </trkpt>
      <trkpt lat="37.4454110" lon="-4.4304220">
        <ele>502.8</ele>
        <time>2021-12-28T20:15:20Z</time>
      </trkpt>
      <trkpt lat="37.4453860" lon="-4.4304180">
        <ele>502.8</ele>
        <time>2021-12-28T20:15:21Z</time>
      </trkpt>
      <trkpt lat="37.4453630" lon="-4.4304150">
        <ele>502.8</ele>
        <time>2021-12-28T20:15:22Z</time>
      </trkpt>
      <trkpt lat="37.4453340" lon="-4.4304130">
        <ele>502.8</ele>
        <time>2021-12-28T20:15:23Z</time>
      </trkpt>
      <trkpt lat="37.4453120" lon="-4.4304080">
        <ele>502.6</ele>
        <time>2021-12-28T20:15:24Z</time>
      </trkpt>
      <trkpt lat="37.4452900" lon="-4.4304100">
        <ele>502.6</ele>
        <time>2021-12-28T20:15:25Z</time>
      </trkpt>
      <trkpt lat="37.4452700" lon="-4.4304080">
        <ele>502.4</ele>
        <time>2021-12-28T20:15:26Z</time>
      </trkpt>
      <trkpt lat="37.4452420" lon="-4.4304100">
        <ele>502.4</ele>
        <time>2021-12-28T20:15:27Z</time>
      </trkpt>
      <trkpt lat="37.4452220" lon="-4.4304060">
        <ele>502.4</ele>
        <time>2021-12-28T20:15:28Z</time>
      </trkpt>
      <trkpt lat="37.4451940" lon="-4.4304030">
        <ele>502.2</ele>
        <time>2021-12-28T20:15:29Z</time>
      </trkpt>
      <trkpt lat="37.4451740" lon="-4.4304000">
        <ele>502.2</ele>
        <time>2021-12-28T20:15:30Z</time>
      </trkpt>
      <trkpt lat="37.4451490" lon="-4.4303960">
        <ele>502.0</ele>
        <time>2021-12-28T20:15:31Z</time>
      </trkpt>
      <trkpt lat="37.4451140" lon="-4.4303950">
        <ele>502.0</ele>
        <time>2021-12-28T20:15:32Z</time>
      </trkpt>
      <trkpt lat="37.4450910" lon="-4.4303920">
        <ele>502.0</ele>
        <time>2021-12-28T20:15:33Z</time>
      </trkpt>
      <trkpt lat="37.4450590" lon="-4.4303900">
        <ele>502.0</ele>
        <time>2021-12-28T20:15:34Z</time>
      </trkpt>
      <trkpt lat="37.4450370" lon="-4.4303880">
        <ele>501.8</ele>
        <time>2021-12-28T20:15:35Z</time>
      </trkpt>
      <trkpt lat="37.4450110" lon="-4.4303850">
        <ele>501.8</ele>
        <time>2021-12-28T20:15:36Z</time>
      </trkpt>
      <trkpt lat="37.4449890" lon="-4.4303820">
        <ele>501.8</ele>
        <time>2021-12-28T20:15:37Z</time>
      </trkpt>
      <trkpt lat="37.4449660" lon="-4.4303780">
        <ele>501.8</ele>
        <time>2021-12-28T20:15:38Z</time>
      </trkpt>
      <trkpt lat="37.4449440" lon="-4.4303750">
        <ele>501.8</ele>
        <time>2021-12-28T20:15:39Z</time>
      </trkpt>
      <trkpt lat="37.4449120" lon="-4.4303700">
        <ele>501.8</ele>
        <time>2021-12-28T20:15:40Z</time>
      </trkpt>
      <trkpt lat="37.4448860" lon="-4.4303660">
        <ele>501.8</ele>
        <time>2021-12-28T20:15:41Z</time>
      </trkpt>
      <trkpt lat="37.4448610" lon="-4.4303620">
        <ele>501.8</ele>
        <time>2021-12-28T20:15:42Z</time>
      </trkpt>
      <trkpt lat="37.4448350" lon="-4.4303560">
        <ele>501.8</ele>
        <time>2021-12-28T20:15:43Z</time>
      </trkpt>
      <trkpt lat="37.4448160" lon="-4.4303530">
        <ele>501.8</ele>
        <time>2021-12-28T20:15:44Z</time>
      </trkpt>
      <trkpt lat="37.4447870" lon="-4.4303520">
        <ele>501.8</ele>
        <time>2021-12-28T20:15:45Z</time>
      </trkpt>
      <trkpt lat="37.4447620" lon="-4.4303520">
        <ele>502.0</ele>
        <time>2021-12-28T20:15:46Z</time>
      </trkpt>
      <trkpt lat="37.4447360" lon="-4.4303500">
        <ele>502.0</ele>
        <time>2021-12-28T20:15:47Z</time>
      </trkpt>
      <trkpt lat="37.4447170" lon="-4.4303450">
        <ele>502.0</ele>
        <time>2021-12-28T20:15:48Z</time>
      </trkpt>
      <trkpt lat="37.4446940" lon="-4.4303400">
        <ele>502.2</ele>
        <time>2021-12-28T20:15:49Z</time>
      </trkpt>
      <trkpt lat="37.4446720" lon="-4.4303360">
        <ele>502.2</ele>
        <time>2021-12-28T20:15:50Z</time>
      </trkpt>
      <trkpt lat="37.4446500" lon="-4.4303360">
        <ele>502.2</ele>
        <time>2021-12-28T20:15:51Z</time>
      </trkpt>
      <trkpt lat="37.4446300" lon="-4.4303330">
        <ele>502.4</ele>
        <time>2021-12-28T20:15:52Z</time>
      </trkpt>
      <trkpt lat="37.4445980" lon="-4.4303280">
        <ele>502.4</ele>
        <time>2021-12-28T20:15:53Z</time>
      </trkpt>
      <trkpt lat="37.4445700" lon="-4.4303230">
        <ele>502.4</ele>
        <time>2021-12-28T20:15:54Z</time>
      </trkpt>
      <trkpt lat="37.4445410" lon="-4.4303180">
        <ele>502.6</ele>
        <time>2021-12-28T20:15:55Z</time>
      </trkpt>
      <trkpt lat="37.4445150" lon="-4.4303160">
        <ele>502.6</ele>
        <time>2021-12-28T20:15:56Z</time>
      </trkpt>
      <trkpt lat="37.4445150" lon="-4.4303160">
        <ele>502.8</ele>
        <time>2021-12-28T20:15:57Z</time>
      </trkpt>
      <trkpt lat="37.4444610" lon="-4.4303160">
        <ele>502.8</ele>
        <time>2021-12-28T20:15:58Z</time>
      </trkpt>
      <trkpt lat="37.4444260" lon="-4.4303100">
        <ele>503.0</ele>
        <time>2021-12-28T20:15:59Z</time>
      </trkpt>
      <trkpt lat="37.4444160" lon="-4.4303100">
        <ele>503.0</ele>
        <time>2021-12-28T20:16:00Z</time>
      </trkpt>
      <trkpt lat="37.4443810" lon="-4.4303100">
        <ele>503.2</ele>
        <time>2021-12-28T20:16:01Z</time>
      </trkpt>
      <trkpt lat="37.4443810" lon="-4.4303100">
        <ele>503.2</ele>
        <time>2021-12-28T20:16:02Z</time>
      </trkpt>
      <trkpt lat="37.4443420" lon="-4.4303020">
        <ele>503.2</ele>
        <time>2021-12-28T20:16:03Z</time>
      </trkpt>
      <trkpt lat="37.4443170" lon="-4.4302950">
        <ele>503.4</ele>
        <time>2021-12-28T20:16:04Z</time>
      </trkpt>
      <trkpt lat="37.4442940" lon="-4.4302930">
        <ele>503.6</ele>
        <time>2021-12-28T20:16:05Z</time>
      </trkpt>
      <trkpt lat="37.4442750" lon="-4.4302900">
        <ele>503.6</ele>
        <time>2021-12-28T20:16:06Z</time>
      </trkpt>
      <trkpt lat="37.4442400" lon="-4.4302850">
        <ele>503.8</ele>
        <time>2021-12-28T20:16:07Z</time>
      </trkpt>
      <trkpt lat="37.4442140" lon="-4.4302820">
        <ele>504.0</ele>
        <time>2021-12-28T20:16:08Z</time>
      </trkpt>
      <trkpt lat="37.4441860" lon="-4.4302770">
        <ele>504.0</ele>
        <time>2021-12-28T20:16:09Z</time>
      </trkpt>
      <trkpt lat="37.4441630" lon="-4.4302720">
        <ele>504.0</ele>
        <time>2021-12-28T20:16:10Z</time>
      </trkpt>
      <trkpt lat="37.4441410" lon="-4.4302680">
        <ele>504.0</ele>
        <time>2021-12-28T20:16:11Z</time>
      </trkpt>
      <trkpt lat="37.4441150" lon="-4.4302650">
        <ele>504.0</ele>
        <time>2021-12-28T20:16:12Z</time>
      </trkpt>
      <trkpt lat="37.4440930" lon="-4.4302620">
        <ele>504.0</ele>
        <time>2021-12-28T20:16:13Z</time>
      </trkpt>
      <trkpt lat="37.4440640" lon="-4.4302600">
        <ele>504.0</ele>
        <time>2021-12-28T20:16:14Z</time>
      </trkpt>
      <trkpt lat="37.4440380" lon="-4.4302550">
        <ele>504.0</ele>
        <time>2021-12-28T20:16:15Z</time>
      </trkpt>
      <trkpt lat="37.4440130" lon="-4.4302500">
        <ele>504.0</ele>
        <time>2021-12-28T20:16:16Z</time>
      </trkpt>
      <trkpt lat="37.4439840" lon="-4.4302480">
        <ele>504.0</ele>
        <time>2021-12-28T20:16:17Z</time>
      </trkpt>
      <trkpt lat="37.4439580" lon="-4.4302440">
        <ele>504.0</ele>
        <time>2021-12-28T20:16:18Z</time>
      </trkpt>
      <trkpt lat="37.4439330" lon="-4.4302370">
        <ele>504.0</ele>
        <time>2021-12-28T20:16:19Z</time>
      </trkpt>
      <trkpt lat="37.4439070" lon="-4.4302350">
        <ele>504.0</ele>
        <time>2021-12-28T20:16:20Z</time>
      </trkpt>
      <trkpt lat="37.4438820" lon="-4.4302320">
        <ele>503.8</ele>
        <time>2021-12-28T20:16:21Z</time>
      </trkpt>
      <trkpt lat="37.4438590" lon="-4.4302270">
        <ele>503.8</ele>
        <time>2021-12-28T20:16:22Z</time>
      </trkpt>
      <trkpt lat="37.4438340" lon="-4.4302220">
        <ele>503.8</ele>
        <time>2021-12-28T20:16:23Z</time>
      </trkpt>
      <trkpt lat="37.4438140" lon="-4.4302170">
        <ele>503.8</ele>
        <time>2021-12-28T20:16:24Z</time>
      </trkpt>
      <trkpt lat="37.4437860" lon="-4.4302140">
        <ele>503.8</ele>
        <time>2021-12-28T20:16:25Z</time>
      </trkpt>
      <trkpt lat="37.4437600" lon="-4.4302120">
        <ele>503.8</ele>
        <time>2021-12-28T20:16:26Z</time>
      </trkpt>
      <trkpt lat="37.4437600" lon="-4.4302120">
        <ele>503.8</ele>
        <time>2021-12-28T20:16:27Z</time>
      </trkpt>
      <trkpt lat="37.4437150" lon="-4.4302050">
        <ele>503.8</ele>
        <time>2021-12-28T20:16:28Z</time>
      </trkpt>
      <trkpt lat="37.4436740" lon="-4.4301960">
        <ele>503.8</ele>
        <time>2021-12-28T20:16:29Z</time>
      </trkpt>
      <trkpt lat="37.4436610" lon="-4.4301950">
        <ele>503.8</ele>
        <time>2021-12-28T20:16:30Z</time>
      </trkpt>
      <trkpt lat="37.4436350" lon="-4.4301920">
        <ele>504.0</ele>
        <time>2021-12-28T20:16:31Z</time>
      </trkpt>
      <trkpt lat="37.4436060" lon="-4.4301850">
        <ele>504.0</ele>
        <time>2021-12-28T20:16:32Z</time>
      </trkpt>
      <trkpt lat="37.4435810" lon="-4.4301840">
        <ele>504.0</ele>
        <time>2021-12-28T20:16:33Z</time>
      </trkpt>
      <trkpt lat="37.4435490" lon="-4.4301820">
        <ele>504.0</ele>
        <time>2021-12-28T20:16:34Z</time>
      </trkpt>
      <trkpt lat="37.4435230" lon="-4.4301800">
        <ele>504.0</ele>
        <time>2021-12-28T20:16:35Z</time>
      </trkpt>
      <trkpt lat="37.4434880" lon="-4.4301770">
        <ele>504.0</ele>
        <time>2021-12-28T20:16:36Z</time>
      </trkpt>
      <trkpt lat="37.4434590" lon="-4.4301750">
        <ele>504.2</ele>
        <time>2021-12-28T20:16:37Z</time>
      </trkpt>
      <trkpt lat="37.4434240" lon="-4.4301750">
        <ele>504.0</ele>
        <time>2021-12-28T20:16:38Z</time>
      </trkpt>
      <trkpt lat="37.4433980" lon="-4.4301730">
        <ele>504.0</ele>
        <time>2021-12-28T20:16:39Z</time>
      </trkpt>
      <trkpt lat="37.4433630" lon="-4.4301720">
        <ele>504.0</ele>
        <time>2021-12-28T20:16:40Z</time>
      </trkpt>
      <trkpt lat="37.4433410" lon="-4.4301680">
        <ele>504.0</ele>
        <time>2021-12-28T20:16:41Z</time>
      </trkpt>
      <trkpt lat="37.4433090" lon="-4.4301630">
        <ele>504.0</ele>
        <time>2021-12-28T20:16:42Z</time>
      </trkpt>
      <trkpt lat="37.4432830" lon="-4.4301580">
        <ele>504.0</ele>
        <time>2021-12-28T20:16:43Z</time>
      </trkpt>
      <trkpt lat="37.4432510" lon="-4.4301570">
        <ele>504.0</ele>
        <time>2021-12-28T20:16:44Z</time>
      </trkpt>
      <trkpt lat="37.4432190" lon="-4.4301600">
        <ele>504.0</ele>
        <time>2021-12-28T20:16:45Z</time>
      </trkpt>
      <trkpt lat="37.4431870" lon="-4.4301580">
        <ele>504.2</ele>
        <time>2021-12-28T20:16:46Z</time>
      </trkpt>
      <trkpt lat="37.4431520" lon="-4.4301550">
        <ele>504.2</ele>
        <time>2021-12-28T20:16:47Z</time>
      </trkpt>
      <trkpt lat="37.4431230" lon="-4.4301530">
        <ele>504.2</ele>
        <time>2021-12-28T20:16:48Z</time>
      </trkpt>
      <trkpt lat="37.4430910" lon="-4.4301530">
        <ele>504.2</ele>
        <time>2021-12-28T20:16:49Z</time>
      </trkpt>
      <trkpt lat="37.4430590" lon="-4.4301550">
        <ele>504.4</ele>
        <time>2021-12-28T20:16:50Z</time>
      </trkpt>
      <trkpt lat="37.4430270" lon="-4.4301580">
        <ele>504.4</ele>
        <time>2021-12-28T20:16:51Z</time>
      </trkpt>
      <trkpt lat="37.4429920" lon="-4.4301620">
        <ele>504.4</ele>
        <time>2021-12-28T20:16:52Z</time>
      </trkpt>
      <trkpt lat="37.4429630" lon="-4.4301620">
        <ele>504.4</ele>
        <time>2021-12-28T20:16:53Z</time>
      </trkpt>
      <trkpt lat="37.4429340" lon="-4.4301580">
        <ele>504.4</ele>
        <time>2021-12-28T20:16:54Z</time>
      </trkpt>
      <trkpt lat="37.4429340" lon="-4.4301580">
        <ele>504.4</ele>
        <time>2021-12-28T20:16:55Z</time>
      </trkpt>
      <trkpt lat="37.4428860" lon="-4.4301600">
        <ele>504.4</ele>
        <time>2021-12-28T20:16:56Z</time>
      </trkpt>
      <trkpt lat="37.4428380" lon="-4.4301690">
        <ele>504.2</ele>
        <time>2021-12-28T20:16:57Z</time>
      </trkpt>
      <trkpt lat="37.4428260" lon="-4.4301720">
        <ele>504.2</ele>
        <time>2021-12-28T20:16:58Z</time>
      </trkpt>
      <trkpt lat="37.4428000" lon="-4.4301750">
        <ele>504.2</ele>
        <time>2021-12-28T20:16:59Z</time>
      </trkpt>
      <trkpt lat="37.4427680" lon="-4.4301800">
        <ele>504.0</ele>
        <time>2021-12-28T20:17:00Z</time>
      </trkpt>
      <trkpt lat="37.4427330" lon="-4.4301840">
        <ele>504.0</ele>
        <time>2021-12-28T20:17:01Z</time>
      </trkpt>
      <trkpt lat="37.4427040" lon="-4.4301900">
        <ele>504.2</ele>
        <time>2021-12-28T20:17:02Z</time>
      </trkpt>
      <trkpt lat="37.4426750" lon="-4.4301970">
        <ele>504.2</ele>
        <time>2021-12-28T20:17:03Z</time>
      </trkpt>
      <trkpt lat="37.4426460" lon="-4.4302020">
        <ele>504.2</ele>
        <time>2021-12-28T20:17:04Z</time>
      </trkpt>
      <trkpt lat="37.4426210" lon="-4.4302080">
        <ele>504.2</ele>
        <time>2021-12-28T20:17:05Z</time>
      </trkpt>
      <trkpt lat="37.4425920" lon="-4.4302170">
        <ele>504.2</ele>
        <time>2021-12-28T20:17:06Z</time>
      </trkpt>
      <trkpt lat="37.4425660" lon="-4.4302240">
        <ele>504.2</ele>
        <time>2021-12-28T20:17:07Z</time>
      </trkpt>
      <trkpt lat="37.4425340" lon="-4.4302280">
        <ele>504.2</ele>
        <time>2021-12-28T20:17:08Z</time>
      </trkpt>
      <trkpt lat="37.4425090" lon="-4.4302370">
        <ele>504.2</ele>
        <time>2021-12-28T20:17:09Z</time>
      </trkpt>
      <trkpt lat="37.4424770" lon="-4.4302450">
        <ele>504.2</ele>
        <time>2021-12-28T20:17:10Z</time>
      </trkpt>
      <trkpt lat="37.4424510" lon="-4.4302540">
        <ele>504.2</ele>
        <time>2021-12-28T20:17:11Z</time>
      </trkpt>
      <trkpt lat="37.4424290" lon="-4.4302640">
        <ele>504.2</ele>
        <time>2021-12-28T20:17:12Z</time>
      </trkpt>
      <trkpt lat="37.4423970" lon="-4.4302720">
        <ele>504.2</ele>
        <time>2021-12-28T20:17:13Z</time>
      </trkpt>
      <trkpt lat="37.4423710" lon="-4.4302840">
        <ele>504.2</ele>
        <time>2021-12-28T20:17:14Z</time>
      </trkpt>
      <trkpt lat="37.4423360" lon="-4.4302930">
        <ele>504.0</ele>
        <time>2021-12-28T20:17:15Z</time>
      </trkpt>
      <trkpt lat="37.4423070" lon="-4.4303050">
        <ele>504.0</ele>
        <time>2021-12-28T20:17:16Z</time>
      </trkpt>
      <trkpt lat="37.4422850" lon="-4.4303130">
        <ele>504.0</ele>
        <time>2021-12-28T20:17:17Z</time>
      </trkpt>
      <trkpt lat="37.4422530" lon="-4.4303250">
        <ele>504.0</ele>
        <time>2021-12-28T20:17:18Z</time>
      </trkpt>
      <trkpt lat="37.4422240" lon="-4.4303360">
        <ele>503.8</ele>
        <time>2021-12-28T20:17:19Z</time>
      </trkpt>
      <trkpt lat="37.4421950" lon="-4.4303450">
        <ele>503.8</ele>
        <time>2021-12-28T20:17:20Z</time>
      </trkpt>
      <trkpt lat="37.4421700" lon="-4.4303560">
        <ele>503.8</ele>
        <time>2021-12-28T20:17:21Z</time>
      </trkpt>
      <trkpt lat="37.4421380" lon="-4.4303660">
        <ele>503.6</ele>
        <time>2021-12-28T20:17:22Z</time>
      </trkpt>
      <trkpt lat="37.4421120" lon="-4.4303780">
        <ele>503.6</ele>
        <time>2021-12-28T20:17:23Z</time>
      </trkpt>
      <trkpt lat="37.4420860" lon="-4.4303920">
        <ele>503.6</ele>
        <time>2021-12-28T20:17:24Z</time>
      </trkpt>
      <trkpt lat="37.4420580" lon="-4.4304030">
        <ele>503.6</ele>
        <time>2021-12-28T20:17:25Z</time>
      </trkpt>
      <trkpt lat="37.4420320" lon="-4.4304160">
        <ele>503.6</ele>
        <time>2021-12-28T20:17:26Z</time>
      </trkpt>
      <trkpt lat="37.4420100" lon="-4.4304280">
        <ele>503.6</ele>
        <time>2021-12-28T20:17:27Z</time>
      </trkpt>
      <trkpt lat="37.4419810" lon="-4.4304370">
        <ele>503.6</ele>
        <time>2021-12-28T20:17:28Z</time>
      </trkpt>
      <trkpt lat="37.4419580" lon="-4.4304480">
        <ele>503.4</ele>
        <time>2021-12-28T20:17:29Z</time>
      </trkpt>
      <trkpt lat="37.4419330" lon="-4.4304620">
        <ele>503.4</ele>
        <time>2021-12-28T20:17:30Z</time>
      </trkpt>
      <trkpt lat="37.4419100" lon="-4.4304720">
        <ele>503.4</ele>
        <time>2021-12-28T20:17:31Z</time>
      </trkpt>
      <trkpt lat="37.4418910" lon="-4.4304820">
        <ele>503.4</ele>
        <time>2021-12-28T20:17:32Z</time>
      </trkpt>
      <trkpt lat="37.4418720" lon="-4.4304950">
        <ele>503.4</ele>
        <time>2021-12-28T20:17:33Z</time>
      </trkpt>
      <trkpt lat="37.4418500" lon="-4.4305070">
        <ele>503.4</ele>
        <time>2021-12-28T20:17:34Z</time>
      </trkpt>
      <trkpt lat="37.4418300" lon="-4.4305180">
        <ele>503.4</ele>
        <time>2021-12-28T20:17:35Z</time>
      </trkpt>
      <trkpt lat="37.4418110" lon="-4.4305270">
        <ele>503.4</ele>
        <time>2021-12-28T20:17:36Z</time>
      </trkpt>
      <trkpt lat="37.4417890" lon="-4.4305400">
        <ele>503.4</ele>
        <time>2021-12-28T20:17:37Z</time>
      </trkpt>
      <trkpt lat="37.4417700" lon="-4.4305520">
        <ele>503.4</ele>
        <time>2021-12-28T20:17:38Z</time>
      </trkpt>
      <trkpt lat="37.4417500" lon="-4.4305640">
        <ele>503.2</ele>
        <time>2021-12-28T20:17:39Z</time>
      </trkpt>
      <trkpt lat="37.4417280" lon="-4.4305750">
        <ele>503.2</ele>
        <time>2021-12-28T20:17:40Z</time>
      </trkpt>
      <trkpt lat="37.4417020" lon="-4.4305880">
        <ele>503.2</ele>
        <time>2021-12-28T20:17:41Z</time>
      </trkpt>
      <trkpt lat="37.4416770" lon="-4.4306040">
        <ele>503.2</ele>
        <time>2021-12-28T20:17:42Z</time>
      </trkpt>
      <trkpt lat="37.4416510" lon="-4.4306200">
        <ele>503.2</ele>
        <time>2021-12-28T20:17:43Z</time>
      </trkpt>
      <trkpt lat="37.4416290" lon="-4.4306370">
        <ele>503.4</ele>
        <time>2021-12-28T20:17:44Z</time>
      </trkpt>
      <trkpt lat="37.4416000" lon="-4.4306540">
        <ele>503.4</ele>
        <time>2021-12-28T20:17:45Z</time>
      </trkpt>
      <trkpt lat="37.4415740" lon="-4.4306680">
        <ele>503.4</ele>
        <time>2021-12-28T20:17:46Z</time>
      </trkpt>
      <trkpt lat="37.4415520" lon="-4.4306830">
        <ele>503.4</ele>
        <time>2021-12-28T20:17:47Z</time>
      </trkpt>
      <trkpt lat="37.4415230" lon="-4.4306950">
        <ele>503.4</ele>
        <time>2021-12-28T20:17:48Z</time>
      </trkpt>
      <trkpt lat="37.4415010" lon="-4.4307060">
        <ele>503.4</ele>
        <time>2021-12-28T20:17:49Z</time>
      </trkpt>
      <trkpt lat="37.4414750" lon="-4.4307180">
        <ele>503.4</ele>
        <time>2021-12-28T20:17:50Z</time>
      </trkpt>
      <trkpt lat="37.4414530" lon="-4.4307320">
        <ele>503.4</ele>
        <time>2021-12-28T20:17:51Z</time>
      </trkpt>
      <trkpt lat="37.4414340" lon="-4.4307500">
        <ele>503.4</ele>
        <time>2021-12-28T20:17:52Z</time>
      </trkpt>
      <trkpt lat="37.4414110" lon="-4.4307680">
        <ele>503.4</ele>
        <time>2021-12-28T20:17:53Z</time>
      </trkpt>
      <trkpt lat="37.4413860" lon="-4.4307870">
        <ele>503.4</ele>
        <time>2021-12-28T20:17:54Z</time>
      </trkpt>
      <trkpt lat="37.4413600" lon="-4.4308020">
        <ele>503.4</ele>
        <time>2021-12-28T20:17:55Z</time>
      </trkpt>
      <trkpt lat="37.4413340" lon="-4.4308180">
        <ele>503.4</ele>
        <time>2021-12-28T20:17:56Z</time>
      </trkpt>
      <trkpt lat="37.4413120" lon="-4.4308320">
        <ele>503.4</ele>
        <time>2021-12-28T20:17:57Z</time>
      </trkpt>
      <trkpt lat="37.4412860" lon="-4.4308430">
        <ele>503.2</ele>
        <time>2021-12-28T20:17:58Z</time>
      </trkpt>
      <trkpt lat="37.4412610" lon="-4.4308570">
        <ele>503.2</ele>
        <time>2021-12-28T20:17:59Z</time>
      </trkpt>
      <trkpt lat="37.4412380" lon="-4.4308730">
        <ele>503.2</ele>
        <time>2021-12-28T20:18:00Z</time>
      </trkpt>
      <trkpt lat="37.4412130" lon="-4.4308940">
        <ele>503.2</ele>
        <time>2021-12-28T20:18:01Z</time>
      </trkpt>
      <trkpt lat="37.4411840" lon="-4.4309120">
        <ele>503.2</ele>
        <time>2021-12-28T20:18:02Z</time>
      </trkpt>
      <trkpt lat="37.4411580" lon="-4.4309320">
        <ele>503.2</ele>
        <time>2021-12-28T20:18:03Z</time>
      </trkpt>
      <trkpt lat="37.4411260" lon="-4.4309550">
        <ele>503.0</ele>
        <time>2021-12-28T20:18:04Z</time>
      </trkpt>
      <trkpt lat="37.4411040" lon="-4.4309770">
        <ele>503.0</ele>
        <time>2021-12-28T20:18:05Z</time>
      </trkpt>
      <trkpt lat="37.4410660" lon="-4.4310000">
        <ele>503.0</ele>
        <time>2021-12-28T20:18:06Z</time>
      </trkpt>
      <trkpt lat="37.4410430" lon="-4.4310200">
        <ele>503.2</ele>
        <time>2021-12-28T20:18:07Z</time>
      </trkpt>
      <trkpt lat="37.4410180" lon="-4.4310300">
        <ele>503.2</ele>
        <time>2021-12-28T20:18:08Z</time>
      </trkpt>
      <trkpt lat="37.4409980" lon="-4.4310420">
        <ele>503.2</ele>
        <time>2021-12-28T20:18:09Z</time>
      </trkpt>
      <trkpt lat="37.4409730" lon="-4.4310620">
        <ele>503.2</ele>
        <time>2021-12-28T20:18:10Z</time>
      </trkpt>
      <trkpt lat="37.4409470" lon="-4.4310830">
        <ele>503.2</ele>
        <time>2021-12-28T20:18:11Z</time>
      </trkpt>
      <trkpt lat="37.4409470" lon="-4.4310830">
        <ele>503.2</ele>
        <time>2021-12-28T20:18:12Z</time>
      </trkpt>
      <trkpt lat="37.4409470" lon="-4.4310830">
        <ele>503.2</ele>
        <time>2021-12-28T20:18:13Z</time>
      </trkpt>
      <trkpt lat="37.4409470" lon="-4.4310830">
        <ele>503.2</ele>
        <time>2021-12-28T20:18:14Z</time>
      </trkpt>
      <trkpt lat="37.4409380" lon="-4.4311060">
        <ele>503.2</ele>
        <time>2021-12-28T20:18:15Z</time>
      </trkpt>
      <trkpt lat="37.4409380" lon="-4.4311060">
        <ele>503.2</ele>
        <time>2021-12-28T20:18:16Z</time>
      </trkpt>
      <trkpt lat="37.4409380" lon="-4.4311060">
        <ele>503.2</ele>
        <time>2021-12-28T20:18:17Z</time>
      </trkpt>
      <trkpt lat="37.4408420" lon="-4.4311250">
        <ele>505.0</ele>
        <time>2021-12-28T20:19:35Z</time>
      </trkpt>
      <trkpt lat="37.4408420" lon="-4.4311250">
        <ele>505.2</ele>
        <time>2021-12-28T20:19:36Z</time>
      </trkpt>
      <trkpt lat="37.4408030" lon="-4.4311500">
        <ele>505.2</ele>
        <time>2021-12-28T20:19:37Z</time>
      </trkpt>
      <trkpt lat="37.4407820" lon="-4.4311620">
        <ele>505.2</ele>
        <time>2021-12-28T20:19:38Z</time>
      </trkpt>
      <trkpt lat="37.4407620" lon="-4.4311730">
        <ele>505.4</ele>
        <time>2021-12-28T20:19:39Z</time>
      </trkpt>
      <trkpt lat="37.4407440" lon="-4.4311850">
        <ele>505.4</ele>
        <time>2021-12-28T20:19:40Z</time>
      </trkpt>
      <trkpt lat="37.4407260" lon="-4.4311970">
        <ele>505.4</ele>
        <time>2021-12-28T20:19:41Z</time>
      </trkpt>
      <trkpt lat="37.4406940" lon="-4.4312180">
        <ele>505.4</ele>
        <time>2021-12-28T20:19:42Z</time>
      </trkpt>
      <trkpt lat="37.4406820" lon="-4.4312270">
        <ele>505.2</ele>
        <time>2021-12-28T20:19:43Z</time>
      </trkpt>
      <trkpt lat="37.4406620" lon="-4.4312400">
        <ele>505.2</ele>
        <time>2021-12-28T20:19:44Z</time>
      </trkpt>
      <trkpt lat="37.4406300" lon="-4.4312580">
        <ele>505.2</ele>
        <time>2021-12-28T20:19:45Z</time>
      </trkpt>
      <trkpt lat="37.4406050" lon="-4.4312770">
        <ele>505.2</ele>
        <time>2021-12-28T20:19:46Z</time>
      </trkpt>
      <trkpt lat="37.4405860" lon="-4.4312900">
        <ele>505.2</ele>
        <time>2021-12-28T20:19:47Z</time>
      </trkpt>
      <trkpt lat="37.4405500" lon="-4.4313140">
        <ele>505.2</ele>
        <time>2021-12-28T20:19:48Z</time>
      </trkpt>
      <trkpt lat="37.4405250" lon="-4.4313340">
        <ele>505.2</ele>
        <time>2021-12-28T20:19:49Z</time>
      </trkpt>
      <trkpt lat="37.4404990" lon="-4.4313520">
        <ele>505.0</ele>
        <time>2021-12-28T20:19:50Z</time>
      </trkpt>
      <trkpt lat="37.4404770" lon="-4.4313680">
        <ele>505.0</ele>
        <time>2021-12-28T20:19:51Z</time>
      </trkpt>
      <trkpt lat="37.4404480" lon="-4.4313880">
        <ele>505.0</ele>
        <time>2021-12-28T20:19:52Z</time>
      </trkpt>
      <trkpt lat="37.4404190" lon="-4.4314100">
        <ele>505.2</ele>
        <time>2021-12-28T20:19:53Z</time>
      </trkpt>
      <trkpt lat="37.4403970" lon="-4.4314250">
        <ele>505.2</ele>
        <time>2021-12-28T20:19:54Z</time>
      </trkpt>
      <trkpt lat="37.4403650" lon="-4.4314420">
        <ele>505.2</ele>
        <time>2021-12-28T20:19:55Z</time>
      </trkpt>
      <trkpt lat="37.4403390" lon="-4.4314580">
        <ele>505.2</ele>
        <time>2021-12-28T20:19:56Z</time>
      </trkpt>
      <trkpt lat="37.4403040" lon="-4.4314800">
        <ele>505.2</ele>
        <time>2021-12-28T20:19:57Z</time>
      </trkpt>
      <trkpt lat="37.4402820" lon="-4.4314950">
        <ele>505.2</ele>
        <time>2021-12-28T20:19:58Z</time>
      </trkpt>
      <trkpt lat="37.4402460" lon="-4.4315130">
        <ele>505.0</ele>
        <time>2021-12-28T20:19:59Z</time>
      </trkpt>
      <trkpt lat="37.4402210" lon="-4.4315230">
        <ele>505.0</ele>
        <time>2021-12-28T20:20:00Z</time>
      </trkpt>
      <trkpt lat="37.4401920" lon="-4.4315380">
        <ele>505.0</ele>
        <time>2021-12-28T20:20:01Z</time>
      </trkpt>
      <trkpt lat="37.4401600" lon="-4.4315550">
        <ele>505.0</ele>
        <time>2021-12-28T20:20:02Z</time>
      </trkpt>
      <trkpt lat="37.4401280" lon="-4.4315720">
        <ele>504.8</ele>
        <time>2021-12-28T20:20:03Z</time>
      </trkpt>
      <trkpt lat="37.4400990" lon="-4.4315870">
        <ele>504.8</ele>
        <time>2021-12-28T20:20:04Z</time>
      </trkpt>
      <trkpt lat="37.4400640" lon="-4.4316050">
        <ele>504.8</ele>
        <time>2021-12-28T20:20:05Z</time>
      </trkpt>
      <trkpt lat="37.4400320" lon="-4.4316170">
        <ele>504.8</ele>
        <time>2021-12-28T20:20:06Z</time>
      </trkpt>
      <trkpt lat="37.4399940" lon="-4.4316350">
        <ele>504.6</ele>
        <time>2021-12-28T20:20:07Z</time>
      </trkpt>
      <trkpt lat="37.4399710" lon="-4.4316470">
        <ele>504.6</ele>
        <time>2021-12-28T20:20:08Z</time>
      </trkpt>
      <trkpt lat="37.4399460" lon="-4.4316620">
        <ele>504.8</ele>
        <time>2021-12-28T20:20:09Z</time>
      </trkpt>
      <trkpt lat="37.4399140" lon="-4.4316750">
        <ele>504.8</ele>
        <time>2021-12-28T20:20:10Z</time>
      </trkpt>
      <trkpt lat="37.4398880" lon="-4.4316840">
        <ele>504.8</ele>
        <time>2021-12-28T20:20:11Z</time>
      </trkpt>
      <trkpt lat="37.4398530" lon="-4.4316940">
        <ele>505.0</ele>
        <time>2021-12-28T20:20:12Z</time>
      </trkpt>
      <trkpt lat="37.4398210" lon="-4.4317050">
        <ele>505.0</ele>
        <time>2021-12-28T20:20:13Z</time>
      </trkpt>
      <trkpt lat="37.4397860" lon="-4.4317180">
        <ele>505.0</ele>
        <time>2021-12-28T20:20:14Z</time>
      </trkpt>
      <trkpt lat="37.4397470" lon="-4.4317320">
        <ele>505.0</ele>
        <time>2021-12-28T20:20:15Z</time>
      </trkpt>
      <trkpt lat="37.4397120" lon="-4.4317430">
        <ele>505.0</ele>
        <time>2021-12-28T20:20:16Z</time>
      </trkpt>
      <trkpt lat="37.4396900" lon="-4.4317550">
        <ele>505.0</ele>
        <time>2021-12-28T20:20:17Z</time>
      </trkpt>
      <trkpt lat="37.4396580" lon="-4.4317700">
        <ele>505.2</ele>
        <time>2021-12-28T20:20:18Z</time>
      </trkpt>
      <trkpt lat="37.4396320" lon="-4.4317850">
        <ele>505.2</ele>
        <time>2021-12-28T20:20:19Z</time>
      </trkpt>
      <trkpt lat="37.4395970" lon="-4.4317960">
        <ele>505.2</ele>
        <time>2021-12-28T20:20:20Z</time>
      </trkpt>
      <trkpt lat="37.4395740" lon="-4.4318020">
        <ele>505.2</ele>
        <time>2021-12-28T20:20:21Z</time>
      </trkpt>
      <trkpt lat="37.4395460" lon="-4.4318100">
        <ele>505.2</ele>
        <time>2021-12-28T20:20:22Z</time>
      </trkpt>
      <trkpt lat="37.4395140" lon="-4.4318160">
        <ele>505.4</ele>
        <time>2021-12-28T20:20:23Z</time>
      </trkpt>
      <trkpt lat="37.4394750" lon="-4.4318260">
        <ele>505.4</ele>
        <time>2021-12-28T20:20:24Z</time>
      </trkpt>
      <trkpt lat="37.4394460" lon="-4.4318370">
        <ele>505.6</ele>
        <time>2021-12-28T20:20:25Z</time>
      </trkpt>
      <trkpt lat="37.4394140" lon="-4.4318430">
        <ele>505.6</ele>
        <time>2021-12-28T20:20:26Z</time>
      </trkpt>
      <trkpt lat="37.4393890" lon="-4.4318520">
        <ele>505.6</ele>
        <time>2021-12-28T20:20:27Z</time>
      </trkpt>
      <trkpt lat="37.4393570" lon="-4.4318580">
        <ele>505.6</ele>
        <time>2021-12-28T20:20:28Z</time>
      </trkpt>
      <trkpt lat="37.4393310" lon="-4.4318630">
        <ele>505.6</ele>
        <time>2021-12-28T20:20:29Z</time>
      </trkpt>
      <trkpt lat="37.4393060" lon="-4.4318650">
        <ele>505.6</ele>
        <time>2021-12-28T20:20:30Z</time>
      </trkpt>
      <trkpt lat="37.4392770" lon="-4.4318650">
        <ele>505.6</ele>
        <time>2021-12-28T20:20:31Z</time>
      </trkpt>
      <trkpt lat="37.4392580" lon="-4.4318680">
        <ele>505.6</ele>
        <time>2021-12-28T20:20:32Z</time>
      </trkpt>
      <trkpt lat="37.4392320" lon="-4.4318700">
        <ele>505.4</ele>
        <time>2021-12-28T20:20:33Z</time>
      </trkpt>
      <trkpt lat="37.4392320" lon="-4.4318700">
        <ele>505.4</ele>
        <time>2021-12-28T20:20:34Z</time>
      </trkpt>
      <trkpt lat="37.4392100" lon="-4.4318730">
        <ele>505.4</ele>
        <time>2021-12-28T20:20:35Z</time>
      </trkpt>
      <trkpt lat="37.4392100" lon="-4.4318730">
        <ele>505.4</ele>
        <time>2021-12-28T20:20:36Z</time>
      </trkpt>
      <trkpt lat="37.4392100" lon="-4.4318730">
        <ele>505.4</ele>
        <time>2021-12-28T20:20:37Z</time>
      </trkpt>
      <trkpt lat="37.4392100" lon="-4.4318730">
        <ele>505.2</ele>
        <time>2021-12-28T20:20:38Z</time>
      </trkpt>
      <trkpt lat="37.4392100" lon="-4.4318730">
        <ele>505.2</ele>
        <time>2021-12-28T20:20:39Z</time>
      </trkpt>
      <trkpt lat="37.4392100" lon="-4.4318730">
        <ele>505.2</ele>
        <time>2021-12-28T20:20:40Z</time>
      </trkpt>
      <trkpt lat="37.4390660" lon="-4.4318930">
        <ele>508.6</ele>
        <time>2021-12-28T20:21:54Z</time>
      </trkpt>
      <trkpt lat="37.4390300" lon="-4.4318980">
        <ele>508.6</ele>
        <time>2021-12-28T20:21:55Z</time>
      </trkpt>
      <trkpt lat="37.4389950" lon="-4.4319020">
        <ele>508.6</ele>
        <time>2021-12-28T20:21:56Z</time>
      </trkpt>
      <trkpt lat="37.4389600" lon="-4.4319030">
        <ele>508.6</ele>
        <time>2021-12-28T20:21:57Z</time>
      </trkpt>
      <trkpt lat="37.4389220" lon="-4.4319030">
        <ele>508.4</ele>
        <time>2021-12-28T20:21:58Z</time>
      </trkpt>
      <trkpt lat="37.4388900" lon="-4.4319030">
        <ele>508.4</ele>
        <time>2021-12-28T20:21:59Z</time>
      </trkpt>
      <trkpt lat="37.4388610" lon="-4.4319020">
        <ele>508.4</ele>
        <time>2021-12-28T20:22:00Z</time>
      </trkpt>
      <trkpt lat="37.4388350" lon="-4.4319020">
        <ele>508.4</ele>
        <time>2021-12-28T20:22:01Z</time>
      </trkpt>
      <trkpt lat="37.4388000" lon="-4.4319030">
        <ele>508.4</ele>
        <time>2021-12-28T20:22:02Z</time>
      </trkpt>
      <trkpt lat="37.4387680" lon="-4.4319050">
        <ele>508.4</ele>
        <time>2021-12-28T20:22:03Z</time>
      </trkpt>
      <trkpt lat="37.4387390" lon="-4.4319020">
        <ele>508.4</ele>
        <time>2021-12-28T20:22:04Z</time>
      </trkpt>
      <trkpt lat="37.4387040" lon="-4.4318980">
        <ele>508.4</ele>
        <time>2021-12-28T20:22:05Z</time>
      </trkpt>
      <trkpt lat="37.4386750" lon="-4.4318980">
        <ele>508.4</ele>
        <time>2021-12-28T20:22:06Z</time>
      </trkpt>
      <trkpt lat="37.4386370" lon="-4.4318930">
        <ele>508.4</ele>
        <time>2021-12-28T20:22:07Z</time>
      </trkpt>
      <trkpt lat="37.4385980" lon="-4.4318900">
        <ele>508.2</ele>
        <time>2021-12-28T20:22:08Z</time>
      </trkpt>
      <trkpt lat="37.4385700" lon="-4.4318870">
        <ele>508.2</ele>
        <time>2021-12-28T20:22:09Z</time>
      </trkpt>
      <trkpt lat="37.4385380" lon="-4.4318850">
        <ele>508.0</ele>
        <time>2021-12-28T20:22:10Z</time>
      </trkpt>
      <trkpt lat="37.4385020" lon="-4.4318830">
        <ele>508.0</ele>
        <time>2021-12-28T20:22:11Z</time>
      </trkpt>
      <trkpt lat="37.4384640" lon="-4.4318800">
        <ele>508.0</ele>
        <time>2021-12-28T20:22:12Z</time>
      </trkpt>
      <trkpt lat="37.4384380" lon="-4.4318770">
        <ele>508.0</ele>
        <time>2021-12-28T20:22:13Z</time>
      </trkpt>
      <trkpt lat="37.4384000" lon="-4.4318750">
        <ele>508.0</ele>
        <time>2021-12-28T20:22:14Z</time>
      </trkpt>
      <trkpt lat="37.4383710" lon="-4.4318720">
        <ele>508.0</ele>
        <time>2021-12-28T20:22:15Z</time>
      </trkpt>
      <trkpt lat="37.4383360" lon="-4.4318680">
        <ele>508.0</ele>
        <time>2021-12-28T20:22:16Z</time>
      </trkpt>
      <trkpt lat="37.4382940" lon="-4.4318630">
        <ele>507.8</ele>
        <time>2021-12-28T20:22:17Z</time>
      </trkpt>
      <trkpt lat="37.4382660" lon="-4.4318600">
        <ele>507.8</ele>
        <time>2021-12-28T20:22:18Z</time>
      </trkpt>
      <trkpt lat="37.4382400" lon="-4.4318520">
        <ele>507.8</ele>
        <time>2021-12-28T20:22:19Z</time>
      </trkpt>
      <trkpt lat="37.4382080" lon="-4.4318430">
        <ele>507.8</ele>
        <time>2021-12-28T20:22:20Z</time>
      </trkpt>
      <trkpt lat="37.4381820" lon="-4.4318350">
        <ele>507.8</ele>
        <time>2021-12-28T20:22:21Z</time>
      </trkpt>
      <trkpt lat="37.4381540" lon="-4.4318260">
        <ele>507.8</ele>
        <time>2021-12-28T20:22:22Z</time>
      </trkpt>
      <trkpt lat="37.4381250" lon="-4.4318200">
        <ele>507.8</ele>
        <time>2021-12-28T20:22:23Z</time>
      </trkpt>
      <trkpt lat="37.4380960" lon="-4.4318150">
        <ele>507.8</ele>
        <time>2021-12-28T20:22:24Z</time>
      </trkpt>
      <trkpt lat="37.4380640" lon="-4.4318100">
        <ele>507.8</ele>
        <time>2021-12-28T20:22:25Z</time>
      </trkpt>
      <trkpt lat="37.4380290" lon="-4.4318000">
        <ele>507.8</ele>
        <time>2021-12-28T20:22:26Z</time>
      </trkpt>
      <trkpt lat="37.4380030" lon="-4.4317900">
        <ele>507.8</ele>
        <time>2021-12-28T20:22:27Z</time>
      </trkpt>
      <trkpt lat="37.4379740" lon="-4.4317800">
        <ele>507.8</ele>
        <time>2021-12-28T20:22:28Z</time>
      </trkpt>
      <trkpt lat="37.4379460" lon="-4.4317720">
        <ele>507.8</ele>
        <time>2021-12-28T20:22:29Z</time>
      </trkpt>
      <trkpt lat="37.4379230" lon="-4.4317660">
        <ele>507.8</ele>
        <time>2021-12-28T20:22:30Z</time>
      </trkpt>
      <trkpt lat="37.4379230" lon="-4.4317660">
        <ele>507.8</ele>
        <time>2021-12-28T20:22:31Z</time>
      </trkpt>
      <trkpt lat="37.4378880" lon="-4.4317630">
        <ele>507.8</ele>
        <time>2021-12-28T20:22:32Z</time>
      </trkpt>
      <trkpt lat="37.4378880" lon="-4.4317630">
        <ele>507.8</ele>
        <time>2021-12-28T20:22:33Z</time>
      </trkpt>
      <trkpt lat="37.4378880" lon="-4.4317630">
        <ele>507.8</ele>
        <time>2021-12-28T20:22:34Z</time>
      </trkpt>
      <trkpt lat="37.4378880" lon="-4.4317630">
        <ele>507.6</ele>
        <time>2021-12-28T20:22:35Z</time>
      </trkpt>
      <trkpt lat="37.4378880" lon="-4.4317630">
        <ele>507.6</ele>
        <time>2021-12-28T20:22:36Z</time>
      </trkpt>
      <trkpt lat="37.4378880" lon="-4.4317630">
        <ele>507.6</ele>
        <time>2021-12-28T20:22:37Z</time>
      </trkpt>
      <trkpt lat="37.4378880" lon="-4.4317630">
        <ele>507.6</ele>
        <time>2021-12-28T20:22:38Z</time>
      </trkpt>
      <trkpt lat="37.4377380" lon="-4.4317130">
        <ele>507.0</ele>
        <time>2021-12-28T20:23:08Z</time>
      </trkpt>
      <trkpt lat="37.4377150" lon="-4.4317060">
        <ele>507.0</ele>
        <time>2021-12-28T20:23:09Z</time>
      </trkpt>
      <trkpt lat="37.4376900" lon="-4.4317020">
        <ele>507.0</ele>
        <time>2021-12-28T20:23:10Z</time>
      </trkpt>
      <trkpt lat="37.4376640" lon="-4.4316980">
        <ele>507.0</ele>
        <time>2021-12-28T20:23:11Z</time>
      </trkpt>
      <trkpt lat="37.4376380" lon="-4.4316940">
        <ele>507.0</ele>
        <time>2021-12-28T20:23:12Z</time>
      </trkpt>
      <trkpt lat="37.4376160" lon="-4.4316920">
        <ele>507.0</ele>
        <time>2021-12-28T20:23:13Z</time>
      </trkpt>
      <trkpt lat="37.4375900" lon="-4.4316880">
        <ele>507.0</ele>
        <time>2021-12-28T20:23:14Z</time>
      </trkpt>
      <trkpt lat="37.4375680" lon="-4.4316800">
        <ele>507.0</ele>
        <time>2021-12-28T20:23:15Z</time>
      </trkpt>
      <trkpt lat="37.4375420" lon="-4.4316720">
        <ele>507.0</ele>
        <time>2021-12-28T20:23:16Z</time>
      </trkpt>
      <trkpt lat="37.4375200" lon="-4.4316640">
        <ele>507.0</ele>
        <time>2021-12-28T20:23:17Z</time>
      </trkpt>
      <trkpt lat="37.4374910" lon="-4.4316550">
        <ele>507.0</ele>
        <time>2021-12-28T20:23:18Z</time>
      </trkpt>
      <trkpt lat="37.4374660" lon="-4.4316450">
        <ele>507.0</ele>
        <time>2021-12-28T20:23:19Z</time>
      </trkpt>
      <trkpt lat="37.4374340" lon="-4.4316400">
        <ele>507.0</ele>
        <time>2021-12-28T20:23:20Z</time>
      </trkpt>
      <trkpt lat="37.4374080" lon="-4.4316350">
        <ele>507.2</ele>
        <time>2021-12-28T20:23:21Z</time>
      </trkpt>
      <trkpt lat="37.4373820" lon="-4.4316270">
        <ele>507.2</ele>
        <time>2021-12-28T20:23:22Z</time>
      </trkpt>
      <trkpt lat="37.4373540" lon="-4.4316180">
        <ele>507.2</ele>
        <time>2021-12-28T20:23:23Z</time>
      </trkpt>
      <trkpt lat="37.4373250" lon="-4.4316080">
        <ele>507.2</ele>
        <time>2021-12-28T20:23:24Z</time>
      </trkpt>
      <trkpt lat="37.4372930" lon="-4.4316000">
        <ele>507.2</ele>
        <time>2021-12-28T20:23:25Z</time>
      </trkpt>
      <trkpt lat="37.4372670" lon="-4.4315940">
        <ele>507.2</ele>
        <time>2021-12-28T20:23:26Z</time>
      </trkpt>
      <trkpt lat="37.4372420" lon="-4.4315850">
        <ele>507.2</ele>
        <time>2021-12-28T20:23:27Z</time>
      </trkpt>
      <trkpt lat="37.4372130" lon="-4.4315770">
        <ele>507.2</ele>
        <time>2021-12-28T20:23:28Z</time>
      </trkpt>
      <trkpt lat="37.4371840" lon="-4.4315670">
        <ele>507.4</ele>
        <time>2021-12-28T20:23:29Z</time>
      </trkpt>
      <trkpt lat="37.4371550" lon="-4.4315550">
        <ele>507.4</ele>
        <time>2021-12-28T20:23:30Z</time>
      </trkpt>
      <trkpt lat="37.4371260" lon="-4.4315480">
        <ele>507.4</ele>
        <time>2021-12-28T20:23:31Z</time>
      </trkpt>
      <trkpt lat="37.4371010" lon="-4.4315400">
        <ele>507.4</ele>
        <time>2021-12-28T20:23:32Z</time>
      </trkpt>
      <trkpt lat="37.4370720" lon="-4.4315330">
        <ele>507.4</ele>
        <time>2021-12-28T20:23:33Z</time>
      </trkpt>
      <trkpt lat="37.4370460" lon="-4.4315270">
        <ele>507.4</ele>
        <time>2021-12-28T20:23:34Z</time>
      </trkpt>
      <trkpt lat="37.4370210" lon="-4.4315170">
        <ele>507.4</ele>
        <time>2021-12-28T20:23:35Z</time>
      </trkpt>
      <trkpt lat="37.4369920" lon="-4.4315100">
        <ele>507.6</ele>
        <time>2021-12-28T20:23:36Z</time>
      </trkpt>
      <trkpt lat="37.4369630" lon="-4.4315020">
        <ele>507.6</ele>
        <time>2021-12-28T20:23:37Z</time>
      </trkpt>
      <trkpt lat="37.4369340" lon="-4.4314950">
        <ele>507.6</ele>
        <time>2021-12-28T20:23:38Z</time>
      </trkpt>
      <trkpt lat="37.4369090" lon="-4.4314900">
        <ele>507.6</ele>
        <time>2021-12-28T20:23:39Z</time>
      </trkpt>
      <trkpt lat="37.4368830" lon="-4.4314830">
        <ele>507.6</ele>
        <time>2021-12-28T20:23:40Z</time>
      </trkpt>
      <trkpt lat="37.4368540" lon="-4.4314780">
        <ele>507.6</ele>
        <time>2021-12-28T20:23:41Z</time>
      </trkpt>
      <trkpt lat="37.4368260" lon="-4.4314720">
        <ele>507.6</ele>
        <time>2021-12-28T20:23:42Z</time>
      </trkpt>
      <trkpt lat="37.4367970" lon="-4.4314630">
        <ele>507.6</ele>
        <time>2021-12-28T20:23:43Z</time>
      </trkpt>
      <trkpt lat="37.4367710" lon="-4.4314580">
        <ele>507.8</ele>
        <time>2021-12-28T20:23:44Z</time>
      </trkpt>
      <trkpt lat="37.4367490" lon="-4.4314530">
        <ele>507.8</ele>
        <time>2021-12-28T20:23:45Z</time>
      </trkpt>
      <trkpt lat="37.4367230" lon="-4.4314450">
        <ele>507.8</ele>
        <time>2021-12-28T20:23:46Z</time>
      </trkpt>
      <trkpt lat="37.4366940" lon="-4.4314360">
        <ele>507.8</ele>
        <time>2021-12-28T20:23:47Z</time>
      </trkpt>
      <trkpt lat="37.4366690" lon="-4.4314320">
        <ele>507.8</ele>
        <time>2021-12-28T20:23:48Z</time>
      </trkpt>
      <trkpt lat="37.4366430" lon="-4.4314250">
        <ele>507.8</ele>
        <time>2021-12-28T20:23:49Z</time>
      </trkpt>
      <trkpt lat="37.4366140" lon="-4.4314160">
        <ele>507.8</ele>
        <time>2021-12-28T20:23:50Z</time>
      </trkpt>
      <trkpt lat="37.4365890" lon="-4.4314130">
        <ele>508.0</ele>
        <time>2021-12-28T20:23:51Z</time>
      </trkpt>
      <trkpt lat="37.4365570" lon="-4.4314120">
        <ele>508.0</ele>
        <time>2021-12-28T20:23:52Z</time>
      </trkpt>
      <trkpt lat="37.4365340" lon="-4.4314080">
        <ele>508.0</ele>
        <time>2021-12-28T20:23:53Z</time>
      </trkpt>
      <trkpt lat="37.4365060" lon="-4.4314080">
        <ele>508.0</ele>
        <time>2021-12-28T20:23:54Z</time>
      </trkpt>
      <trkpt lat="37.4364770" lon="-4.4314050">
        <ele>508.0</ele>
        <time>2021-12-28T20:23:55Z</time>
      </trkpt>
      <trkpt lat="37.4364510" lon="-4.4314020">
        <ele>508.0</ele>
        <time>2021-12-28T20:23:56Z</time>
      </trkpt>
      <trkpt lat="37.4364190" lon="-4.4313960">
        <ele>508.0</ele>
        <time>2021-12-28T20:23:57Z</time>
      </trkpt>
      <trkpt lat="37.4363970" lon="-4.4313960">
        <ele>508.0</ele>
        <time>2021-12-28T20:23:58Z</time>
      </trkpt>
      <trkpt lat="37.4363740" lon="-4.4313950">
        <ele>508.0</ele>
        <time>2021-12-28T20:23:59Z</time>
      </trkpt>
      <trkpt lat="37.4363520" lon="-4.4313930">
        <ele>508.0</ele>
        <time>2021-12-28T20:24:00Z</time>
      </trkpt>
      <trkpt lat="37.4363260" lon="-4.4313920">
        <ele>507.8</ele>
        <time>2021-12-28T20:24:01Z</time>
      </trkpt>
      <trkpt lat="37.4362980" lon="-4.4313900">
        <ele>507.8</ele>
        <time>2021-12-28T20:24:02Z</time>
      </trkpt>
      <trkpt lat="37.4362750" lon="-4.4313880">
        <ele>507.8</ele>
        <time>2021-12-28T20:24:03Z</time>
      </trkpt>
      <trkpt lat="37.4362500" lon="-4.4313860">
        <ele>507.8</ele>
        <time>2021-12-28T20:24:04Z</time>
      </trkpt>
      <trkpt lat="37.4362210" lon="-4.4313830">
        <ele>507.8</ele>
        <time>2021-12-28T20:24:05Z</time>
      </trkpt>
      <trkpt lat="37.4361980" lon="-4.4313830">
        <ele>507.8</ele>
        <time>2021-12-28T20:24:06Z</time>
      </trkpt>
      <trkpt lat="37.4361760" lon="-4.4313820">
        <ele>508.0</ele>
        <time>2021-12-28T20:24:07Z</time>
      </trkpt>
      <trkpt lat="37.4361500" lon="-4.4313820">
        <ele>508.0</ele>
        <time>2021-12-28T20:24:08Z</time>
      </trkpt>
      <trkpt lat="37.4361220" lon="-4.4313820">
        <ele>508.0</ele>
        <time>2021-12-28T20:24:09Z</time>
      </trkpt>
      <trkpt lat="37.4360990" lon="-4.4313850">
        <ele>508.0</ele>
        <time>2021-12-28T20:24:10Z</time>
      </trkpt>
      <trkpt lat="37.4360740" lon="-4.4313880">
        <ele>508.2</ele>
        <time>2021-12-28T20:24:11Z</time>
      </trkpt>
      <trkpt lat="37.4360480" lon="-4.4313880">
        <ele>508.2</ele>
        <time>2021-12-28T20:24:12Z</time>
      </trkpt>
      <trkpt lat="37.4360190" lon="-4.4313900">
        <ele>508.2</ele>
        <time>2021-12-28T20:24:13Z</time>
      </trkpt>
      <trkpt lat="37.4359940" lon="-4.4313920">
        <ele>508.2</ele>
        <time>2021-12-28T20:24:14Z</time>
      </trkpt>
      <trkpt lat="37.4359680" lon="-4.4313930">
        <ele>508.2</ele>
        <time>2021-12-28T20:24:15Z</time>
      </trkpt>
      <trkpt lat="37.4359390" lon="-4.4313930">
        <ele>508.2</ele>
        <time>2021-12-28T20:24:16Z</time>
      </trkpt>
      <trkpt lat="37.4359140" lon="-4.4313930">
        <ele>508.2</ele>
        <time>2021-12-28T20:24:17Z</time>
      </trkpt>
      <trkpt lat="37.4358910" lon="-4.4313920">
        <ele>508.2</ele>
        <time>2021-12-28T20:24:18Z</time>
      </trkpt>
      <trkpt lat="37.4358620" lon="-4.4313950">
        <ele>508.2</ele>
        <time>2021-12-28T20:24:19Z</time>
      </trkpt>
      <trkpt lat="37.4358370" lon="-4.4313960">
        <ele>508.2</ele>
        <time>2021-12-28T20:24:20Z</time>
      </trkpt>
      <trkpt lat="37.4358140" lon="-4.4314000">
        <ele>508.2</ele>
        <time>2021-12-28T20:24:21Z</time>
      </trkpt>
      <trkpt lat="37.4357920" lon="-4.4314030">
        <ele>508.2</ele>
        <time>2021-12-28T20:24:22Z</time>
      </trkpt>
      <trkpt lat="37.4357700" lon="-4.4314080">
        <ele>508.2</ele>
        <time>2021-12-28T20:24:23Z</time>
      </trkpt>
      <trkpt lat="37.4357440" lon="-4.4314060">
        <ele>508.2</ele>
        <time>2021-12-28T20:24:24Z</time>
      </trkpt>
      <trkpt lat="37.4357180" lon="-4.4314080">
        <ele>508.2</ele>
        <time>2021-12-28T20:24:25Z</time>
      </trkpt>
      <trkpt lat="37.4356930" lon="-4.4314120">
        <ele>508.2</ele>
        <time>2021-12-28T20:24:26Z</time>
      </trkpt>
      <trkpt lat="37.4356640" lon="-4.4314160">
        <ele>508.2</ele>
        <time>2021-12-28T20:24:27Z</time>
      </trkpt>
      <trkpt lat="37.4356380" lon="-4.4314230">
        <ele>508.2</ele>
        <time>2021-12-28T20:24:28Z</time>
      </trkpt>
      <trkpt lat="37.4356130" lon="-4.4314300">
        <ele>508.2</ele>
        <time>2021-12-28T20:24:29Z</time>
      </trkpt>
      <trkpt lat="37.4355840" lon="-4.4314350">
        <ele>508.2</ele>
        <time>2021-12-28T20:24:30Z</time>
      </trkpt>
      <trkpt lat="37.4355580" lon="-4.4314430">
        <ele>508.2</ele>
        <time>2021-12-28T20:24:31Z</time>
      </trkpt>
      <trkpt lat="37.4355330" lon="-4.4314500">
        <ele>508.2</ele>
        <time>2021-12-28T20:24:32Z</time>
      </trkpt>
      <trkpt lat="37.4355070" lon="-4.4314500">
        <ele>508.2</ele>
        <time>2021-12-28T20:24:33Z</time>
      </trkpt>
      <trkpt lat="37.4354820" lon="-4.4314520">
        <ele>508.2</ele>
        <time>2021-12-28T20:24:34Z</time>
      </trkpt>
      <trkpt lat="37.4354560" lon="-4.4314530">
        <ele>508.4</ele>
        <time>2021-12-28T20:24:35Z</time>
      </trkpt>
      <trkpt lat="37.4354340" lon="-4.4314600">
        <ele>508.4</ele>
        <time>2021-12-28T20:24:36Z</time>
      </trkpt>
      <trkpt lat="37.4354080" lon="-4.4314700">
        <ele>508.4</ele>
        <time>2021-12-28T20:24:37Z</time>
      </trkpt>
      <trkpt lat="37.4353860" lon="-4.4314750">
        <ele>508.4</ele>
        <time>2021-12-28T20:24:38Z</time>
      </trkpt>
      <trkpt lat="37.4353630" lon="-4.4314820">
        <ele>508.4</ele>
        <time>2021-12-28T20:24:39Z</time>
      </trkpt>
      <trkpt lat="37.4353380" lon="-4.4314880">
        <ele>508.6</ele>
        <time>2021-12-28T20:24:40Z</time>
      </trkpt>
      <trkpt lat="37.4353090" lon="-4.4314950">
        <ele>508.6</ele>
        <time>2021-12-28T20:24:41Z</time>
      </trkpt>
      <trkpt lat="37.4352830" lon="-4.4315000">
        <ele>508.6</ele>
        <time>2021-12-28T20:24:42Z</time>
      </trkpt>
      <trkpt lat="37.4352580" lon="-4.4315050">
        <ele>508.6</ele>
        <time>2021-12-28T20:24:43Z</time>
      </trkpt>
      <trkpt lat="37.4352290" lon="-4.4315100">
        <ele>508.6</ele>
        <time>2021-12-28T20:24:44Z</time>
      </trkpt>
      <trkpt lat="37.4352060" lon="-4.4315180">
        <ele>508.6</ele>
        <time>2021-12-28T20:24:45Z</time>
      </trkpt>
      <trkpt lat="37.4351840" lon="-4.4315250">
        <ele>508.6</ele>
        <time>2021-12-28T20:24:46Z</time>
      </trkpt>
      <trkpt lat="37.4351620" lon="-4.4315300">
        <ele>508.8</ele>
        <time>2021-12-28T20:24:47Z</time>
      </trkpt>
      <trkpt lat="37.4351360" lon="-4.4315380">
        <ele>508.8</ele>
        <time>2021-12-28T20:24:48Z</time>
      </trkpt>
      <trkpt lat="37.4351100" lon="-4.4315430">
        <ele>508.8</ele>
        <time>2021-12-28T20:24:49Z</time>
      </trkpt>
      <trkpt lat="37.4350880" lon="-4.4315530">
        <ele>508.8</ele>
        <time>2021-12-28T20:24:50Z</time>
      </trkpt>
      <trkpt lat="37.4350660" lon="-4.4315600">
        <ele>509.0</ele>
        <time>2021-12-28T20:24:51Z</time>
      </trkpt>
      <trkpt lat="37.4350430" lon="-4.4315700">
        <ele>509.0</ele>
        <time>2021-12-28T20:24:52Z</time>
      </trkpt>
      <trkpt lat="37.4350180" lon="-4.4315770">
        <ele>509.0</ele>
        <time>2021-12-28T20:24:53Z</time>
      </trkpt>
      <trkpt lat="37.4349890" lon="-4.4315820">
        <ele>509.0</ele>
        <time>2021-12-28T20:24:54Z</time>
      </trkpt>
      <trkpt lat="37.4349660" lon="-4.4315870">
        <ele>509.2</ele>
        <time>2021-12-28T20:24:55Z</time>
      </trkpt>
      <trkpt lat="37.4349440" lon="-4.4315950">
        <ele>509.2</ele>
        <time>2021-12-28T20:24:56Z</time>
      </trkpt>
      <trkpt lat="37.4349220" lon="-4.4316050">
        <ele>509.2</ele>
        <time>2021-12-28T20:24:57Z</time>
      </trkpt>
      <trkpt lat="37.4348990" lon="-4.4316120">
        <ele>509.2</ele>
        <time>2021-12-28T20:24:58Z</time>
      </trkpt>
      <trkpt lat="37.4348770" lon="-4.4316240">
        <ele>509.4</ele>
        <time>2021-12-28T20:24:59Z</time>
      </trkpt>
      <trkpt lat="37.4348580" lon="-4.4316320">
        <ele>509.4</ele>
        <time>2021-12-28T20:25:00Z</time>
      </trkpt>
      <trkpt lat="37.4348320" lon="-4.4316450">
        <ele>509.4</ele>
        <time>2021-12-28T20:25:01Z</time>
      </trkpt>
      <trkpt lat="37.4348100" lon="-4.4316540">
        <ele>509.6</ele>
        <time>2021-12-28T20:25:02Z</time>
      </trkpt>
      <trkpt lat="37.4347870" lon="-4.4316680">
        <ele>509.6</ele>
        <time>2021-12-28T20:25:03Z</time>
      </trkpt>
      <trkpt lat="37.4347650" lon="-4.4316840">
        <ele>509.6</ele>
        <time>2021-12-28T20:25:04Z</time>
      </trkpt>
      <trkpt lat="37.4347420" lon="-4.4316950">
        <ele>509.6</ele>
        <time>2021-12-28T20:25:05Z</time>
      </trkpt>
      <trkpt lat="37.4347200" lon="-4.4317050">
        <ele>509.6</ele>
        <time>2021-12-28T20:25:06Z</time>
      </trkpt>
      <trkpt lat="37.4347010" lon="-4.4317150">
        <ele>509.6</ele>
        <time>2021-12-28T20:25:07Z</time>
      </trkpt>
      <trkpt lat="37.4346780" lon="-4.4317250">
        <ele>509.6</ele>
        <time>2021-12-28T20:25:08Z</time>
      </trkpt>
      <trkpt lat="37.4346590" lon="-4.4317350">
        <ele>509.6</ele>
        <time>2021-12-28T20:25:09Z</time>
      </trkpt>
      <trkpt lat="37.4346340" lon="-4.4317430">
        <ele>509.6</ele>
        <time>2021-12-28T20:25:10Z</time>
      </trkpt>
      <trkpt lat="37.4346180" lon="-4.4317580">
        <ele>509.6</ele>
        <time>2021-12-28T20:25:11Z</time>
      </trkpt>
      <trkpt lat="37.4345980" lon="-4.4317720">
        <ele>509.6</ele>
        <time>2021-12-28T20:25:12Z</time>
      </trkpt>
      <trkpt lat="37.4345790" lon="-4.4317860">
        <ele>509.6</ele>
        <time>2021-12-28T20:25:13Z</time>
      </trkpt>
      <trkpt lat="37.4345540" lon="-4.4318000">
        <ele>509.4</ele>
        <time>2021-12-28T20:25:14Z</time>
      </trkpt>
      <trkpt lat="37.4345310" lon="-4.4318150">
        <ele>509.6</ele>
        <time>2021-12-28T20:25:15Z</time>
      </trkpt>
      <trkpt lat="37.4345120" lon="-4.4318280">
        <ele>509.6</ele>
        <time>2021-12-28T20:25:16Z</time>
      </trkpt>
      <trkpt lat="37.4344900" lon="-4.4318420">
        <ele>509.6</ele>
        <time>2021-12-28T20:25:17Z</time>
      </trkpt>
      <trkpt lat="37.4344670" lon="-4.4318550">
        <ele>509.6</ele>
        <time>2021-12-28T20:25:18Z</time>
      </trkpt>
      <trkpt lat="37.4344480" lon="-4.4318680">
        <ele>509.6</ele>
        <time>2021-12-28T20:25:19Z</time>
      </trkpt>
      <trkpt lat="37.4344260" lon="-4.4318850">
        <ele>509.6</ele>
        <time>2021-12-28T20:25:20Z</time>
      </trkpt>
      <trkpt lat="37.4344030" lon="-4.4319000">
        <ele>509.6</ele>
        <time>2021-12-28T20:25:21Z</time>
      </trkpt>
      <trkpt lat="37.4343840" lon="-4.4319150">
        <ele>509.6</ele>
        <time>2021-12-28T20:25:22Z</time>
      </trkpt>
      <trkpt lat="37.4343620" lon="-4.4319320">
        <ele>509.6</ele>
        <time>2021-12-28T20:25:23Z</time>
      </trkpt>
      <trkpt lat="37.4343420" lon="-4.4319480">
        <ele>509.6</ele>
        <time>2021-12-28T20:25:24Z</time>
      </trkpt>
      <trkpt lat="37.4343200" lon="-4.4319650">
        <ele>509.6</ele>
        <time>2021-12-28T20:25:25Z</time>
      </trkpt>
      <trkpt lat="37.4343040" lon="-4.4319820">
        <ele>509.8</ele>
        <time>2021-12-28T20:25:26Z</time>
      </trkpt>
      <trkpt lat="37.4342820" lon="-4.4319950">
        <ele>509.8</ele>
        <time>2021-12-28T20:25:27Z</time>
      </trkpt>
      <trkpt lat="37.4342620" lon="-4.4320100">
        <ele>509.8</ele>
        <time>2021-12-28T20:25:28Z</time>
      </trkpt>
      <trkpt lat="37.4342430" lon="-4.4320220">
        <ele>509.8</ele>
        <time>2021-12-28T20:25:29Z</time>
      </trkpt>
      <trkpt lat="37.4342240" lon="-4.4320370">
        <ele>509.8</ele>
        <time>2021-12-28T20:25:30Z</time>
      </trkpt>
      <trkpt lat="37.4342020" lon="-4.4320540">
        <ele>509.8</ele>
        <time>2021-12-28T20:25:31Z</time>
      </trkpt>
      <trkpt lat="37.4341760" lon="-4.4320700">
        <ele>509.8</ele>
        <time>2021-12-28T20:25:32Z</time>
      </trkpt>
      <trkpt lat="37.4341570" lon="-4.4320850">
        <ele>509.8</ele>
        <time>2021-12-28T20:25:33Z</time>
      </trkpt>
      <trkpt lat="37.4341340" lon="-4.4321030">
        <ele>510.0</ele>
        <time>2021-12-28T20:25:34Z</time>
      </trkpt>
      <trkpt lat="37.4341150" lon="-4.4321200">
        <ele>510.0</ele>
        <time>2021-12-28T20:25:35Z</time>
      </trkpt>
      <trkpt lat="37.4340960" lon="-4.4321400">
        <ele>510.2</ele>
        <time>2021-12-28T20:25:36Z</time>
      </trkpt>
      <trkpt lat="37.4340770" lon="-4.4321600">
        <ele>510.2</ele>
        <time>2021-12-28T20:25:37Z</time>
      </trkpt>
      <trkpt lat="37.4340540" lon="-4.4321780">
        <ele>510.2</ele>
        <time>2021-12-28T20:25:38Z</time>
      </trkpt>
      <trkpt lat="37.4340350" lon="-4.4321980">
        <ele>510.2</ele>
        <time>2021-12-28T20:25:39Z</time>
      </trkpt>
      <trkpt lat="37.4340130" lon="-4.4322180">
        <ele>510.4</ele>
        <time>2021-12-28T20:25:40Z</time>
      </trkpt>
      <trkpt lat="37.4339940" lon="-4.4322370">
        <ele>510.4</ele>
        <time>2021-12-28T20:25:41Z</time>
      </trkpt>
      <trkpt lat="37.4339780" lon="-4.4322550">
        <ele>510.4</ele>
        <time>2021-12-28T20:25:42Z</time>
      </trkpt>
      <trkpt lat="37.4339580" lon="-4.4322730">
        <ele>510.4</ele>
        <time>2021-12-28T20:25:43Z</time>
      </trkpt>
      <trkpt lat="37.4339360" lon="-4.4322920">
        <ele>510.4</ele>
        <time>2021-12-28T20:25:44Z</time>
      </trkpt>
      <trkpt lat="37.4339230" lon="-4.4323080">
        <ele>510.6</ele>
        <time>2021-12-28T20:25:45Z</time>
      </trkpt>
      <trkpt lat="37.4339040" lon="-4.4323270">
        <ele>510.6</ele>
        <time>2021-12-28T20:25:46Z</time>
      </trkpt>
      <trkpt lat="37.4338850" lon="-4.4323450">
        <ele>510.6</ele>
        <time>2021-12-28T20:25:47Z</time>
      </trkpt>
      <trkpt lat="37.4338660" lon="-4.4323640">
        <ele>510.8</ele>
        <time>2021-12-28T20:25:48Z</time>
      </trkpt>
      <trkpt lat="37.4338460" lon="-4.4323840">
        <ele>510.8</ele>
        <time>2021-12-28T20:25:49Z</time>
      </trkpt>
      <trkpt lat="37.4338270" lon="-4.4324040">
        <ele>510.8</ele>
        <time>2021-12-28T20:25:50Z</time>
      </trkpt>
      <trkpt lat="37.4338080" lon="-4.4324220">
        <ele>510.8</ele>
        <time>2021-12-28T20:25:51Z</time>
      </trkpt>
      <trkpt lat="37.4337890" lon="-4.4324420">
        <ele>511.0</ele>
        <time>2021-12-28T20:25:52Z</time>
      </trkpt>
      <trkpt lat="37.4337700" lon="-4.4324630">
        <ele>511.0</ele>
        <time>2021-12-28T20:25:53Z</time>
      </trkpt>
      <trkpt lat="37.4337500" lon="-4.4324820">
        <ele>511.0</ele>
        <time>2021-12-28T20:25:54Z</time>
      </trkpt>
      <trkpt lat="37.4337310" lon="-4.4325020">
        <ele>511.0</ele>
        <time>2021-12-28T20:25:55Z</time>
      </trkpt>
      <trkpt lat="37.4337120" lon="-4.4325250">
        <ele>511.0</ele>
        <time>2021-12-28T20:25:56Z</time>
      </trkpt>
      <trkpt lat="37.4336930" lon="-4.4325470">
        <ele>511.0</ele>
        <time>2021-12-28T20:25:57Z</time>
      </trkpt>
      <trkpt lat="37.4336700" lon="-4.4325680">
        <ele>511.2</ele>
        <time>2021-12-28T20:25:58Z</time>
      </trkpt>
      <trkpt lat="37.4336480" lon="-4.4325900">
        <ele>511.2</ele>
        <time>2021-12-28T20:25:59Z</time>
      </trkpt>
      <trkpt lat="37.4336320" lon="-4.4326120">
        <ele>511.2</ele>
        <time>2021-12-28T20:26:00Z</time>
      </trkpt>
      <trkpt lat="37.4336130" lon="-4.4326370">
        <ele>511.2</ele>
        <time>2021-12-28T20:26:01Z</time>
      </trkpt>
      <trkpt lat="37.4335970" lon="-4.4326600">
        <ele>511.4</ele>
        <time>2021-12-28T20:26:02Z</time>
      </trkpt>
      <trkpt lat="37.4335780" lon="-4.4326820">
        <ele>511.4</ele>
        <time>2021-12-28T20:26:03Z</time>
      </trkpt>
      <trkpt lat="37.4335580" lon="-4.4327040">
        <ele>511.4</ele>
        <time>2021-12-28T20:26:04Z</time>
      </trkpt>
      <trkpt lat="37.4335460" lon="-4.4327240">
        <ele>511.4</ele>
        <time>2021-12-28T20:26:05Z</time>
      </trkpt>
      <trkpt lat="37.4335260" lon="-4.4327450">
        <ele>511.6</ele>
        <time>2021-12-28T20:26:06Z</time>
      </trkpt>
      <trkpt lat="37.4335100" lon="-4.4327680">
        <ele>511.4</ele>
        <time>2021-12-28T20:26:07Z</time>
      </trkpt>
      <trkpt lat="37.4334910" lon="-4.4327920">
        <ele>511.4</ele>
        <time>2021-12-28T20:26:08Z</time>
      </trkpt>
      <trkpt lat="37.4334750" lon="-4.4328160">
        <ele>511.4</ele>
        <time>2021-12-28T20:26:09Z</time>
      </trkpt>
      <trkpt lat="37.4334560" lon="-4.4328360">
        <ele>511.6</ele>
        <time>2021-12-28T20:26:10Z</time>
      </trkpt>
      <trkpt lat="37.4334400" lon="-4.4328560">
        <ele>511.6</ele>
        <time>2021-12-28T20:26:11Z</time>
      </trkpt>
      <trkpt lat="37.4334270" lon="-4.4328800">
        <ele>511.6</ele>
        <time>2021-12-28T20:26:12Z</time>
      </trkpt>
      <trkpt lat="37.4334110" lon="-4.4329020">
        <ele>511.6</ele>
        <time>2021-12-28T20:26:13Z</time>
      </trkpt>
      <trkpt lat="37.4333950" lon="-4.4329220">
        <ele>511.4</ele>
        <time>2021-12-28T20:26:14Z</time>
      </trkpt>
      <trkpt lat="37.4333790" lon="-4.4329450">
        <ele>511.6</ele>
        <time>2021-12-28T20:26:15Z</time>
      </trkpt>
      <trkpt lat="37.4333790" lon="-4.4329450">
        <ele>511.6</ele>
        <time>2021-12-28T20:26:16Z</time>
      </trkpt>
      <trkpt lat="37.4333540" lon="-4.4329830">
        <ele>511.6</ele>
        <time>2021-12-28T20:26:17Z</time>
      </trkpt>
      <trkpt lat="37.4333340" lon="-4.4330020">
        <ele>511.6</ele>
        <time>2021-12-28T20:26:18Z</time>
      </trkpt>
      <trkpt lat="37.4333180" lon="-4.4330250">
        <ele>511.6</ele>
        <time>2021-12-28T20:26:19Z</time>
      </trkpt>
      <trkpt lat="37.4333020" lon="-4.4330470">
        <ele>511.8</ele>
        <time>2021-12-28T20:26:20Z</time>
      </trkpt>
      <trkpt lat="37.4332900" lon="-4.4330720">
        <ele>511.8</ele>
        <time>2021-12-28T20:26:21Z</time>
      </trkpt>
      <trkpt lat="37.4332740" lon="-4.4330950">
        <ele>511.8</ele>
        <time>2021-12-28T20:26:22Z</time>
      </trkpt>
      <trkpt lat="37.4332610" lon="-4.4331200">
        <ele>512.0</ele>
        <time>2021-12-28T20:26:23Z</time>
      </trkpt>
      <trkpt lat="37.4332480" lon="-4.4331420">
        <ele>512.0</ele>
        <time>2021-12-28T20:26:24Z</time>
      </trkpt>
      <trkpt lat="37.4332320" lon="-4.4331650">
        <ele>512.0</ele>
        <time>2021-12-28T20:26:25Z</time>
      </trkpt>
      <trkpt lat="37.4332160" lon="-4.4331900">
        <ele>512.0</ele>
        <time>2021-12-28T20:26:26Z</time>
      </trkpt>
      <trkpt lat="37.4332000" lon="-4.4332150">
        <ele>512.2</ele>
        <time>2021-12-28T20:26:27Z</time>
      </trkpt>
      <trkpt lat="37.4331900" lon="-4.4332380">
        <ele>512.2</ele>
        <time>2021-12-28T20:26:28Z</time>
      </trkpt>
      <trkpt lat="37.4331740" lon="-4.4332580">
        <ele>512.4</ele>
        <time>2021-12-28T20:26:29Z</time>
      </trkpt>
      <trkpt lat="37.4331580" lon="-4.4332820">
        <ele>512.4</ele>
        <time>2021-12-28T20:26:30Z</time>
      </trkpt>
      <trkpt lat="37.4331490" lon="-4.4333070">
        <ele>512.4</ele>
        <time>2021-12-28T20:26:31Z</time>
      </trkpt>
      <trkpt lat="37.4331360" lon="-4.4333300">
        <ele>512.6</ele>
        <time>2021-12-28T20:26:32Z</time>
      </trkpt>
      <trkpt lat="37.4331230" lon="-4.4333540">
        <ele>512.6</ele>
        <time>2021-12-28T20:26:33Z</time>
      </trkpt>
      <trkpt lat="37.4331100" lon="-4.4333750">
        <ele>512.8</ele>
        <time>2021-12-28T20:26:34Z</time>
      </trkpt>
      <trkpt lat="37.4330980" lon="-4.4333950">
        <ele>512.8</ele>
        <time>2021-12-28T20:26:35Z</time>
      </trkpt>
      <trkpt lat="37.4330850" lon="-4.4334140">
        <ele>513.0</ele>
        <time>2021-12-28T20:26:36Z</time>
      </trkpt>
      <trkpt lat="37.4330750" lon="-4.4334340">
        <ele>513.0</ele>
        <time>2021-12-28T20:26:37Z</time>
      </trkpt>
      <trkpt lat="37.4330590" lon="-4.4334550">
        <ele>513.2</ele>
        <time>2021-12-28T20:26:38Z</time>
      </trkpt>
      <trkpt lat="37.4330500" lon="-4.4334760">
        <ele>513.2</ele>
        <time>2021-12-28T20:26:39Z</time>
      </trkpt>
      <trkpt lat="37.4330370" lon="-4.4334980">
        <ele>513.4</ele>
        <time>2021-12-28T20:26:40Z</time>
      </trkpt>
      <trkpt lat="37.4330240" lon="-4.4335220">
        <ele>513.4</ele>
        <time>2021-12-28T20:26:41Z</time>
      </trkpt>
      <trkpt lat="37.4330110" lon="-4.4335460">
        <ele>513.6</ele>
        <time>2021-12-28T20:26:42Z</time>
      </trkpt>
      <trkpt lat="37.4329980" lon="-4.4335660">
        <ele>513.6</ele>
        <time>2021-12-28T20:26:43Z</time>
      </trkpt>
      <trkpt lat="37.4329890" lon="-4.4335860">
        <ele>513.8</ele>
        <time>2021-12-28T20:26:44Z</time>
      </trkpt>
      <trkpt lat="37.4329760" lon="-4.4336100">
        <ele>513.8</ele>
        <time>2021-12-28T20:26:45Z</time>
      </trkpt>
      <trkpt lat="37.4329630" lon="-4.4336320">
        <ele>513.8</ele>
        <time>2021-12-28T20:26:46Z</time>
      </trkpt>
      <trkpt lat="37.4329500" lon="-4.4336500">
        <ele>513.8</ele>
        <time>2021-12-28T20:26:47Z</time>
      </trkpt>
      <trkpt lat="37.4329340" lon="-4.4336720">
        <ele>514.0</ele>
        <time>2021-12-28T20:26:48Z</time>
      </trkpt>
      <trkpt lat="37.4329220" lon="-4.4336940">
        <ele>514.0</ele>
        <time>2021-12-28T20:26:49Z</time>
      </trkpt>
      <trkpt lat="37.4329120" lon="-4.4337170">
        <ele>514.0</ele>
        <time>2021-12-28T20:26:50Z</time>
      </trkpt>
      <trkpt lat="37.4328990" lon="-4.4337370">
        <ele>514.2</ele>
        <time>2021-12-28T20:26:51Z</time>
      </trkpt>
      <trkpt lat="37.4328900" lon="-4.4337570">
        <ele>514.2</ele>
        <time>2021-12-28T20:26:52Z</time>
      </trkpt>
      <trkpt lat="37.4328770" lon="-4.4337780">
        <ele>514.2</ele>
        <time>2021-12-28T20:26:53Z</time>
      </trkpt>
      <trkpt lat="37.4328610" lon="-4.4338020">
        <ele>514.2</ele>
        <time>2021-12-28T20:26:54Z</time>
      </trkpt>
      <trkpt lat="37.4328420" lon="-4.4338240">
        <ele>514.4</ele>
        <time>2021-12-28T20:26:55Z</time>
      </trkpt>
      <trkpt lat="37.4328260" lon="-4.4338430">
        <ele>514.4</ele>
        <time>2021-12-28T20:26:56Z</time>
      </trkpt>
      <trkpt lat="37.4328160" lon="-4.4338650">
        <ele>514.6</ele>
        <time>2021-12-28T20:26:57Z</time>
      </trkpt>
      <trkpt lat="37.4328030" lon="-4.4338850">
        <ele>514.8</ele>
        <time>2021-12-28T20:26:58Z</time>
      </trkpt>
      <trkpt lat="37.4327900" lon="-4.4339060">
        <ele>514.8</ele>
        <time>2021-12-28T20:26:59Z</time>
      </trkpt>
      <trkpt lat="37.4327780" lon="-4.4339300">
        <ele>515.0</ele>
        <time>2021-12-28T20:27:00Z</time>
      </trkpt>
      <trkpt lat="37.4327620" lon="-4.4339500">
        <ele>515.0</ele>
        <time>2021-12-28T20:27:01Z</time>
      </trkpt>
      <trkpt lat="37.4327520" lon="-4.4339720">
        <ele>515.0</ele>
        <time>2021-12-28T20:27:02Z</time>
      </trkpt>
      <trkpt lat="37.4327390" lon="-4.4339930">
        <ele>515.0</ele>
        <time>2021-12-28T20:27:03Z</time>
      </trkpt>
      <trkpt lat="37.4327260" lon="-4.4340130">
        <ele>515.0</ele>
        <time>2021-12-28T20:27:04Z</time>
      </trkpt>
      <trkpt lat="37.4327170" lon="-4.4340370">
        <ele>515.0</ele>
        <time>2021-12-28T20:27:05Z</time>
      </trkpt>
      <trkpt lat="37.4327040" lon="-4.4340580">
        <ele>515.0</ele>
        <time>2021-12-28T20:27:06Z</time>
      </trkpt>
      <trkpt lat="37.4326940" lon="-4.4340780">
        <ele>515.0</ele>
        <time>2021-12-28T20:27:07Z</time>
      </trkpt>
      <trkpt lat="37.4326780" lon="-4.4340970">
        <ele>515.2</ele>
        <time>2021-12-28T20:27:08Z</time>
      </trkpt>
      <trkpt lat="37.4326660" lon="-4.4341180">
        <ele>515.2</ele>
        <time>2021-12-28T20:27:09Z</time>
      </trkpt>
      <trkpt lat="37.4326560" lon="-4.4341400">
        <ele>515.2</ele>
        <time>2021-12-28T20:27:10Z</time>
      </trkpt>
      <trkpt lat="37.4326430" lon="-4.4341600">
        <ele>515.2</ele>
        <time>2021-12-28T20:27:11Z</time>
      </trkpt>
      <trkpt lat="37.4326340" lon="-4.4341800">
        <ele>515.2</ele>
        <time>2021-12-28T20:27:12Z</time>
      </trkpt>
      <trkpt lat="37.4326180" lon="-4.4342020">
        <ele>515.2</ele>
        <time>2021-12-28T20:27:13Z</time>
      </trkpt>
      <trkpt lat="37.4326020" lon="-4.4342230">
        <ele>515.2</ele>
        <time>2021-12-28T20:27:14Z</time>
      </trkpt>
      <trkpt lat="37.4325920" lon="-4.4342460">
        <ele>515.0</ele>
        <time>2021-12-28T20:27:15Z</time>
      </trkpt>
      <trkpt lat="37.4325760" lon="-4.4342680">
        <ele>515.0</ele>
        <time>2021-12-28T20:27:16Z</time>
      </trkpt>
      <trkpt lat="37.4325630" lon="-4.4342880">
        <ele>515.0</ele>
        <time>2021-12-28T20:27:17Z</time>
      </trkpt>
      <trkpt lat="37.4325540" lon="-4.4343080">
        <ele>515.0</ele>
        <time>2021-12-28T20:27:18Z</time>
      </trkpt>
      <trkpt lat="37.4325410" lon="-4.4343280">
        <ele>515.0</ele>
        <time>2021-12-28T20:27:19Z</time>
      </trkpt>
      <trkpt lat="37.4325250" lon="-4.4343480">
        <ele>515.0</ele>
        <time>2021-12-28T20:27:20Z</time>
      </trkpt>
      <trkpt lat="37.4325090" lon="-4.4343670">
        <ele>515.2</ele>
        <time>2021-12-28T20:27:21Z</time>
      </trkpt>
      <trkpt lat="37.4324960" lon="-4.4343870">
        <ele>515.2</ele>
        <time>2021-12-28T20:27:22Z</time>
      </trkpt>
      <trkpt lat="37.4324800" lon="-4.4344070">
        <ele>515.2</ele>
        <time>2021-12-28T20:27:23Z</time>
      </trkpt>
      <trkpt lat="37.4324610" lon="-4.4344320">
        <ele>515.4</ele>
        <time>2021-12-28T20:27:24Z</time>
      </trkpt>
      <trkpt lat="37.4324450" lon="-4.4344570">
        <ele>515.4</ele>
        <time>2021-12-28T20:27:25Z</time>
      </trkpt>
      <trkpt lat="37.4324260" lon="-4.4344800">
        <ele>515.4</ele>
        <time>2021-12-28T20:27:26Z</time>
      </trkpt>
      <trkpt lat="37.4324100" lon="-4.4345020">
        <ele>515.4</ele>
        <time>2021-12-28T20:27:27Z</time>
      </trkpt>
      <trkpt lat="37.4323970" lon="-4.4345250">
        <ele>515.4</ele>
        <time>2021-12-28T20:27:28Z</time>
      </trkpt>
      <trkpt lat="37.4323810" lon="-4.4345450">
        <ele>515.6</ele>
        <time>2021-12-28T20:27:29Z</time>
      </trkpt>
      <trkpt lat="37.4323680" lon="-4.4345630">
        <ele>515.6</ele>
        <time>2021-12-28T20:27:30Z</time>
      </trkpt>
      <trkpt lat="37.4323680" lon="-4.4345630">
        <ele>515.6</ele>
        <time>2021-12-28T20:27:31Z</time>
      </trkpt>
      <trkpt lat="37.4323490" lon="-4.4345830">
        <ele>515.6</ele>
        <time>2021-12-28T20:27:32Z</time>
      </trkpt>
      <trkpt lat="37.4323490" lon="-4.4345830">
        <ele>515.6</ele>
        <time>2021-12-28T20:27:33Z</time>
      </trkpt>
      <trkpt lat="37.4323490" lon="-4.4345830">
        <ele>515.6</ele>
        <time>2021-12-28T20:27:34Z</time>
      </trkpt>
      <trkpt lat="37.4323490" lon="-4.4345830">
        <ele>515.6</ele>
        <time>2021-12-28T20:27:35Z</time>
      </trkpt>
      <trkpt lat="37.4323490" lon="-4.4345830">
        <ele>515.6</ele>
        <time>2021-12-28T20:27:36Z</time>
      </trkpt>
      <trkpt lat="37.4323490" lon="-4.4345830">
        <ele>515.6</ele>
        <time>2021-12-28T20:27:37Z</time>
      </trkpt>
      <trkpt lat="37.4323490" lon="-4.4345830">
        <ele>516.2</ele>
        <time>2021-12-28T20:28:05Z</time>
      </trkpt>
      <trkpt lat="37.4323490" lon="-4.4345830">
        <ele>516.2</ele>
        <time>2021-12-28T20:28:06Z</time>
      </trkpt>
      <trkpt lat="37.4323490" lon="-4.4345830">
        <ele>516.2</ele>
        <time>2021-12-28T20:28:07Z</time>
      </trkpt>
      <trkpt lat="37.4323490" lon="-4.4345830">
        <ele>516.2</ele>
        <time>2021-12-28T20:28:08Z</time>
      </trkpt>
      <trkpt lat="37.4323490" lon="-4.4345830">
        <ele>516.2</ele>
        <time>2021-12-28T20:28:09Z</time>
      </trkpt>
      <trkpt lat="37.4323490" lon="-4.4345830">
        <ele>516.2</ele>
        <time>2021-12-28T20:28:10Z</time>
      </trkpt>
      <trkpt lat="37.4323490" lon="-4.4345830">
        <ele>516.2</ele>
        <time>2021-12-28T20:28:11Z</time>
      </trkpt>
      <trkpt lat="37.4323490" lon="-4.4345830">
        <ele>516.2</ele>
        <time>2021-12-28T20:28:12Z</time>
      </trkpt>
      <trkpt lat="37.4323490" lon="-4.4345830">
        <ele>516.2</ele>
        <time>2021-12-28T20:28:13Z</time>
      </trkpt>
      <trkpt lat="37.4323490" lon="-4.4345830">
        <ele>516.2</ele>
        <time>2021-12-28T20:28:14Z</time>
      </trkpt>
      <trkpt lat="37.4323490" lon="-4.4345830">
        <ele>516.2</ele>
        <time>2021-12-28T20:28:15Z</time>
      </trkpt>
      <trkpt lat="37.4323490" lon="-4.4345830">
        <ele>516.2</ele>
        <time>2021-12-28T20:28:16Z</time>
      </trkpt>
      <trkpt lat="37.4323490" lon="-4.4345830">
        <ele>516.2</ele>
        <time>2021-12-28T20:28:17Z</time>
      </trkpt>
      <trkpt lat="37.4323490" lon="-4.4345830">
        <ele>516.4</ele>
        <time>2021-12-28T20:28:18Z</time>
      </trkpt>
      <trkpt lat="37.4323490" lon="-4.4345830">
        <ele>516.4</ele>
        <time>2021-12-28T20:28:19Z</time>
      </trkpt>
      <trkpt lat="37.4323490" lon="-4.4345830">
        <ele>516.4</ele>
        <time>2021-12-28T20:28:20Z</time>
      </trkpt>
      <trkpt lat="37.4323490" lon="-4.4345830">
        <ele>516.4</ele>
        <time>2021-12-28T20:28:21Z</time>
      </trkpt>
      <trkpt lat="37.4323490" lon="-4.4345830">
        <ele>516.4</ele>
        <time>2021-12-28T20:28:22Z</time>
      </trkpt>
      <trkpt lat="37.4323490" lon="-4.4345830">
        <ele>516.4</ele>
        <time>2021-12-28T20:28:23Z</time>
      </trkpt>
      <trkpt lat="37.4323490" lon="-4.4345830">
        <ele>516.4</ele>
        <time>2021-12-28T20:28:24Z</time>
      </trkpt>
      <trkpt lat="37.4323490" lon="-4.4345830">
        <ele>516.4</ele>
        <time>2021-12-28T20:28:25Z</time>
      </trkpt>
      <trkpt lat="37.4323490" lon="-4.4345830">
        <ele>516.4</ele>
        <time>2021-12-28T20:28:26Z</time>
      </trkpt>
      <trkpt lat="37.4323490" lon="-4.4345830">
        <ele>516.4</ele>
        <time>2021-12-28T20:28:27Z</time>
      </trkpt>
      <trkpt lat="37.4323490" lon="-4.4345830">
        <ele>516.4</ele>
        <time>2021-12-28T20:28:28Z</time>
      </trkpt>
      <trkpt lat="37.4323490" lon="-4.4345830">
        <ele>516.4</ele>
        <time>2021-12-28T20:28:29Z</time>
      </trkpt>
      <trkpt lat="37.4323490" lon="-4.4345830">
        <ele>516.4</ele>
        <time>2021-12-28T20:28:30Z</time>
      </trkpt>
      <trkpt lat="37.4323490" lon="-4.4345830">
        <ele>516.4</ele>
        <time>2021-12-28T20:28:31Z</time>
      </trkpt>
      <trkpt lat="37.4323490" lon="-4.4345830">
        <ele>516.4</ele>
        <time>2021-12-28T20:28:32Z</time>
      </trkpt>
      <trkpt lat="37.4323490" lon="-4.4345830">
        <ele>516.4</ele>
        <time>2021-12-28T20:28:33Z</time>
      </trkpt>
      <trkpt lat="37.4323490" lon="-4.4345830">
        <ele>516.4</ele>
        <time>2021-12-28T20:28:34Z</time>
      </trkpt>
      <trkpt lat="37.4323490" lon="-4.4345830">
        <ele>516.4</ele>
        <time>2021-12-28T20:28:35Z</time>
      </trkpt>
      <trkpt lat="37.4323490" lon="-4.4345830">
        <ele>516.4</ele>
        <time>2021-12-28T20:28:36Z</time>
      </trkpt>
      <trkpt lat="37.4323490" lon="-4.4345830">
        <ele>516.4</ele>
        <time>2021-12-28T20:28:37Z</time>
      </trkpt>
      <trkpt lat="37.4323490" lon="-4.4345830">
        <ele>516.4</ele>
        <time>2021-12-28T20:28:38Z</time>
      </trkpt>
      <trkpt lat="37.4323490" lon="-4.4345830">
        <ele>516.4</ele>
        <time>2021-12-28T20:28:39Z</time>
      </trkpt>
      <trkpt lat="37.4323490" lon="-4.4345830">
        <ele>516.4</ele>
        <time>2021-12-28T20:28:40Z</time>
      </trkpt>
      <trkpt lat="37.4323490" lon="-4.4345830">
        <ele>516.4</ele>
        <time>2021-12-28T20:28:41Z</time>
      </trkpt>
      <trkpt lat="37.4323490" lon="-4.4345830">
        <ele>516.4</ele>
        <time>2021-12-28T20:28:42Z</time>
      </trkpt>
      <trkpt lat="37.4323490" lon="-4.4345830">
        <ele>516.4</ele>
        <time>2021-12-28T20:28:43Z</time>
      </trkpt>
      <trkpt lat="37.4323490" lon="-4.4345830">
        <ele>516.4</ele>
        <time>2021-12-28T20:28:44Z</time>
      </trkpt>
      <trkpt lat="37.4323490" lon="-4.4345830">
        <ele>516.4</ele>
        <time>2021-12-28T20:28:45Z</time>
      </trkpt>
      <trkpt lat="37.4323490" lon="-4.4345830">
        <ele>516.4</ele>
        <time>2021-12-28T20:28:46Z</time>
      </trkpt>
      <trkpt lat="37.4323490" lon="-4.4345830">
        <ele>516.4</ele>
        <time>2021-12-28T20:28:47Z</time>
      </trkpt>
      <trkpt lat="37.4323490" lon="-4.4345830">
        <ele>516.4</ele>
        <time>2021-12-28T20:28:48Z</time>
      </trkpt>
      <trkpt lat="37.4323490" lon="-4.4345830">
        <ele>516.4</ele>
        <time>2021-12-28T20:28:49Z</time>
      </trkpt>
      <trkpt lat="37.4323490" lon="-4.4345830">
        <ele>516.4</ele>
        <time>2021-12-28T20:28:50Z</time>
      </trkpt>
      <trkpt lat="37.4323490" lon="-4.4345830">
        <ele>516.6</ele>
        <time>2021-12-28T20:28:51Z</time>
      </trkpt>
      <trkpt lat="37.4323490" lon="-4.4345830">
        <ele>516.6</ele>
        <time>2021-12-28T20:28:52Z</time>
      </trkpt>
      <trkpt lat="37.4323490" lon="-4.4345830">
        <ele>516.6</ele>
        <time>2021-12-28T20:28:53Z</time>
      </trkpt>
      <trkpt lat="37.4323490" lon="-4.4345830">
        <ele>516.6</ele>
        <time>2021-12-28T20:28:54Z</time>
      </trkpt>
      <trkpt lat="37.4323490" lon="-4.4345830">
        <ele>516.6</ele>
        <time>2021-12-28T20:28:55Z</time>
      </trkpt>
      <trkpt lat="37.4323490" lon="-4.4345830">
        <ele>516.6</ele>
        <time>2021-12-28T20:28:56Z</time>
      </trkpt>
      <trkpt lat="37.4323490" lon="-4.4345830">
        <ele>516.6</ele>
        <time>2021-12-28T20:28:57Z</time>
      </trkpt>
      <trkpt lat="37.4323490" lon="-4.4345830">
        <ele>516.6</ele>
        <time>2021-12-28T20:28:58Z</time>
      </trkpt>
      <trkpt lat="37.4323490" lon="-4.4345830">
        <ele>516.6</ele>
        <time>2021-12-28T20:28:59Z</time>
      </trkpt>
      <trkpt lat="37.4323490" lon="-4.4345830">
        <ele>516.6</ele>
        <time>2021-12-28T20:29:00Z</time>
      </trkpt>
      <trkpt lat="37.4323490" lon="-4.4345830">
        <ele>516.6</ele>
        <time>2021-12-28T20:29:01Z</time>
      </trkpt>
      <trkpt lat="37.4323490" lon="-4.4345830">
        <ele>516.6</ele>
        <time>2021-12-28T20:29:02Z</time>
      </trkpt>
      <trkpt lat="37.4323490" lon="-4.4345830">
        <ele>516.6</ele>
        <time>2021-12-28T20:29:03Z</time>
      </trkpt>
      <trkpt lat="37.4323490" lon="-4.4345830">
        <ele>516.6</ele>
        <time>2021-12-28T20:29:04Z</time>
      </trkpt>
      <trkpt lat="37.4323490" lon="-4.4345830">
        <ele>516.6</ele>
        <time>2021-12-28T20:29:05Z</time>
      </trkpt>
      <trkpt lat="37.4323490" lon="-4.4345830">
        <ele>516.6</ele>
        <time>2021-12-28T20:29:06Z</time>
      </trkpt>
      <trkpt lat="37.4323490" lon="-4.4345830">
        <ele>516.6</ele>
        <time>2021-12-28T20:29:07Z</time>
      </trkpt>
      <trkpt lat="37.4323490" lon="-4.4345830">
        <ele>516.6</ele>
        <time>2021-12-28T20:29:08Z</time>
      </trkpt>
      <trkpt lat="37.4323490" lon="-4.4345830">
        <ele>516.6</ele>
        <time>2021-12-28T20:29:09Z</time>
      </trkpt>
      <trkpt lat="37.4323490" lon="-4.4345830">
        <ele>516.6</ele>
        <time>2021-12-28T20:29:10Z</time>
      </trkpt>
      <trkpt lat="37.4323490" lon="-4.4345830">
        <ele>516.6</ele>
        <time>2021-12-28T20:29:11Z</time>
      </trkpt>
      <trkpt lat="37.4323490" lon="-4.4345830">
        <ele>516.6</ele>
        <time>2021-12-28T20:29:12Z</time>
      </trkpt>
      <trkpt lat="37.4323490" lon="-4.4345830">
        <ele>516.6</ele>
        <time>2021-12-28T20:29:13Z</time>
      </trkpt>
      <trkpt lat="37.4323490" lon="-4.4345830">
        <ele>516.6</ele>
        <time>2021-12-28T20:29:14Z</time>
      </trkpt>
      <trkpt lat="37.4323490" lon="-4.4345830">
        <ele>516.6</ele>
        <time>2021-12-28T20:29:15Z</time>
      </trkpt>
      <trkpt lat="37.4323490" lon="-4.4345830">
        <ele>516.6</ele>
        <time>2021-12-28T20:29:16Z</time>
      </trkpt>
      <trkpt lat="37.4323490" lon="-4.4345830">
        <ele>516.6</ele>
        <time>2021-12-28T20:29:17Z</time>
      </trkpt>
      <trkpt lat="37.4323490" lon="-4.4345830">
        <ele>516.6</ele>
        <time>2021-12-28T20:29:18Z</time>
      </trkpt>
      <trkpt lat="37.4323490" lon="-4.4345830">
        <ele>516.6</ele>
        <time>2021-12-28T20:29:19Z</time>
      </trkpt>
      <trkpt lat="37.4323490" lon="-4.4345830">
        <ele>516.6</ele>
        <time>2021-12-28T20:29:20Z</time>
      </trkpt>
      <trkpt lat="37.4323490" lon="-4.4345830">
        <ele>516.6</ele>
        <time>2021-12-28T20:29:21Z</time>
      </trkpt>
      <trkpt lat="37.4323490" lon="-4.4345830">
        <ele>516.6</ele>
        <time>2021-12-28T20:29:22Z</time>
      </trkpt>
      <trkpt lat="37.4323490" lon="-4.4345830">
        <ele>516.6</ele>
        <time>2021-12-28T20:29:23Z</time>
      </trkpt>
      <trkpt lat="37.4323490" lon="-4.4345830">
        <ele>516.6</ele>
        <time>2021-12-28T20:29:24Z</time>
      </trkpt>
      <trkpt lat="37.4323490" lon="-4.4345830">
        <ele>516.8</ele>
        <time>2021-12-28T20:29:25Z</time>
      </trkpt>
      <trkpt lat="37.4323490" lon="-4.4345830">
        <ele>516.8</ele>
        <time>2021-12-28T20:29:26Z</time>
      </trkpt>
      <trkpt lat="37.4323490" lon="-4.4345830">
        <ele>516.8</ele>
        <time>2021-12-28T20:29:27Z</time>
      </trkpt>
      <trkpt lat="37.4323490" lon="-4.4345830">
        <ele>516.8</ele>
        <time>2021-12-28T20:29:28Z</time>
      </trkpt>
      <trkpt lat="37.4323490" lon="-4.4345830">
        <ele>516.8</ele>
        <time>2021-12-28T20:29:29Z</time>
      </trkpt>
      <trkpt lat="37.4323490" lon="-4.4345830">
        <ele>516.8</ele>
        <time>2021-12-28T20:29:30Z</time>
      </trkpt>
      <trkpt lat="37.4323490" lon="-4.4345830">
        <ele>516.8</ele>
        <time>2021-12-28T20:29:31Z</time>
      </trkpt>
      <trkpt lat="37.4323490" lon="-4.4345830">
        <ele>516.8</ele>
        <time>2021-12-28T20:29:32Z</time>
      </trkpt>
      <trkpt lat="37.4323490" lon="-4.4345830">
        <ele>516.8</ele>
        <time>2021-12-28T20:29:33Z</time>
      </trkpt>
      <trkpt lat="37.4323490" lon="-4.4345830">
        <ele>516.8</ele>
        <time>2021-12-28T20:29:34Z</time>
      </trkpt>
      <trkpt lat="37.4323490" lon="-4.4345830">
        <ele>516.8</ele>
        <time>2021-12-28T20:29:35Z</time>
      </trkpt>
      <trkpt lat="37.4323490" lon="-4.4345830">
        <ele>516.8</ele>
        <time>2021-12-28T20:29:36Z</time>
      </trkpt>
      <trkpt lat="37.4323490" lon="-4.4345830">
        <ele>516.8</ele>
        <time>2021-12-28T20:29:37Z</time>
      </trkpt>
      <trkpt lat="37.4323490" lon="-4.4345830">
        <ele>516.8</ele>
        <time>2021-12-28T20:29:38Z</time>
      </trkpt>
      <trkpt lat="37.4323490" lon="-4.4345830">
        <ele>516.8</ele>
        <time>2021-12-28T20:29:39Z</time>
      </trkpt>
      <trkpt lat="37.4323490" lon="-4.4345830">
        <ele>516.8</ele>
        <time>2021-12-28T20:29:40Z</time>
      </trkpt>
      <trkpt lat="37.4323490" lon="-4.4345830">
        <ele>516.8</ele>
        <time>2021-12-28T20:29:41Z</time>
      </trkpt>
      <trkpt lat="37.4323490" lon="-4.4345830">
        <ele>516.8</ele>
        <time>2021-12-28T20:29:42Z</time>
      </trkpt>
      <trkpt lat="37.4323490" lon="-4.4345830">
        <ele>516.8</ele>
        <time>2021-12-28T20:29:43Z</time>
      </trkpt>
      <trkpt lat="37.4323490" lon="-4.4345830">
        <ele>516.8</ele>
        <time>2021-12-28T20:29:44Z</time>
      </trkpt>
      <trkpt lat="37.4323490" lon="-4.4345830">
        <ele>516.8</ele>
        <time>2021-12-28T20:29:45Z</time>
      </trkpt>
      <trkpt lat="37.4323490" lon="-4.4345830">
        <ele>516.8</ele>
        <time>2021-12-28T20:29:46Z</time>
      </trkpt>
      <trkpt lat="37.4323490" lon="-4.4345830">
        <ele>516.8</ele>
        <time>2021-12-28T20:29:47Z</time>
      </trkpt>
      <trkpt lat="37.4323490" lon="-4.4345830">
        <ele>517.0</ele>
        <time>2021-12-28T20:29:48Z</time>
      </trkpt>
      <trkpt lat="37.4323490" lon="-4.4345830">
        <ele>517.0</ele>
        <time>2021-12-28T20:29:49Z</time>
      </trkpt>
      <trkpt lat="37.4323490" lon="-4.4345830">
        <ele>517.0</ele>
        <time>2021-12-28T20:29:50Z</time>
      </trkpt>
      <trkpt lat="37.4323490" lon="-4.4345830">
        <ele>517.0</ele>
        <time>2021-12-28T20:29:51Z</time>
      </trkpt>
      <trkpt lat="37.4323490" lon="-4.4345830">
        <ele>517.0</ele>
        <time>2021-12-28T20:29:52Z</time>
      </trkpt>
      <trkpt lat="37.4323490" lon="-4.4345830">
        <ele>517.0</ele>
        <time>2021-12-28T20:29:53Z</time>
      </trkpt>
      <trkpt lat="37.4323490" lon="-4.4345830">
        <ele>517.0</ele>
        <time>2021-12-28T20:29:54Z</time>
      </trkpt>
      <trkpt lat="37.4323490" lon="-4.4345830">
        <ele>517.0</ele>
        <time>2021-12-28T20:29:55Z</time>
      </trkpt>
      <trkpt lat="37.4323490" lon="-4.4345830">
        <ele>517.0</ele>
        <time>2021-12-28T20:29:56Z</time>
      </trkpt>
      <trkpt lat="37.4323490" lon="-4.4345830">
        <ele>517.0</ele>
        <time>2021-12-28T20:29:57Z</time>
      </trkpt>
      <trkpt lat="37.4323490" lon="-4.4345830">
        <ele>517.0</ele>
        <time>2021-12-28T20:29:58Z</time>
      </trkpt>
      <trkpt lat="37.4323490" lon="-4.4345830">
        <ele>517.0</ele>
        <time>2021-12-28T20:29:59Z</time>
      </trkpt>
      <trkpt lat="37.4323490" lon="-4.4345830">
        <ele>517.0</ele>
        <time>2021-12-28T20:30:01Z</time>
      </trkpt>
      <trkpt lat="37.4323490" lon="-4.4345830">
        <ele>517.0</ele>
        <time>2021-12-28T20:30:02Z</time>
      </trkpt>
      <trkpt lat="37.4323490" lon="-4.4345830">
        <ele>517.0</ele>
        <time>2021-12-28T20:30:03Z</time>
      </trkpt>
      <trkpt lat="37.4323490" lon="-4.4345830">
        <ele>517.0</ele>
        <time>2021-12-28T20:30:04Z</time>
      </trkpt>
      <trkpt lat="37.4323490" lon="-4.4345830">
        <ele>517.0</ele>
        <time>2021-12-28T20:30:05Z</time>
      </trkpt>
      <trkpt lat="37.4323490" lon="-4.4345830">
        <ele>517.0</ele>
        <time>2021-12-28T20:30:06Z</time>
      </trkpt>
      <trkpt lat="37.4323490" lon="-4.4345830">
        <ele>517.0</ele>
        <time>2021-12-28T20:30:07Z</time>
      </trkpt>
      <trkpt lat="37.4323490" lon="-4.4345830">
        <ele>517.0</ele>
        <time>2021-12-28T20:30:08Z</time>
      </trkpt>
      <trkpt lat="37.4323490" lon="-4.4345830">
        <ele>517.0</ele>
        <time>2021-12-28T20:30:09Z</time>
      </trkpt>
      <trkpt lat="37.4323490" lon="-4.4345830">
        <ele>517.0</ele>
        <time>2021-12-28T20:30:10Z</time>
      </trkpt>
      <trkpt lat="37.4323490" lon="-4.4345830">
        <ele>517.0</ele>
        <time>2021-12-28T20:30:11Z</time>
      </trkpt>
      <trkpt lat="37.4323490" lon="-4.4345830">
        <ele>517.0</ele>
        <time>2021-12-28T20:30:12Z</time>
      </trkpt>
      <trkpt lat="37.4323490" lon="-4.4345830">
        <ele>517.0</ele>
        <time>2021-12-28T20:30:13Z</time>
      </trkpt>
      <trkpt lat="37.4323490" lon="-4.4345830">
        <ele>517.0</ele>
        <time>2021-12-28T20:30:14Z</time>
      </trkpt>
      <trkpt lat="37.4323490" lon="-4.4345830">
        <ele>517.0</ele>
        <time>2021-12-28T20:30:15Z</time>
      </trkpt>
      <trkpt lat="37.4323490" lon="-4.4345830">
        <ele>517.2</ele>
        <time>2021-12-28T20:30:16Z</time>
      </trkpt>
      <trkpt lat="37.4323490" lon="-4.4345830">
        <ele>517.2</ele>
        <time>2021-12-28T20:30:17Z</time>
      </trkpt>
      <trkpt lat="37.4323490" lon="-4.4345830">
        <ele>517.2</ele>
        <time>2021-12-28T20:30:18Z</time>
      </trkpt>
      <trkpt lat="37.4323490" lon="-4.4345830">
        <ele>517.2</ele>
        <time>2021-12-28T20:30:19Z</time>
      </trkpt>
      <trkpt lat="37.4323490" lon="-4.4345830">
        <ele>517.2</ele>
        <time>2021-12-28T20:30:20Z</time>
      </trkpt>
      <trkpt lat="37.4323490" lon="-4.4345830">
        <ele>517.2</ele>
        <time>2021-12-28T20:30:21Z</time>
      </trkpt>
      <trkpt lat="37.4323490" lon="-4.4345830">
        <ele>517.2</ele>
        <time>2021-12-28T20:30:22Z</time>
      </trkpt>
      <trkpt lat="37.4323490" lon="-4.4345830">
        <ele>517.2</ele>
        <time>2021-12-28T20:30:23Z</time>
      </trkpt>
      <trkpt lat="37.4323490" lon="-4.4345830">
        <ele>517.2</ele>
        <time>2021-12-28T20:30:24Z</time>
      </trkpt>
      <trkpt lat="37.4323490" lon="-4.4345830">
        <ele>517.2</ele>
        <time>2021-12-28T20:30:25Z</time>
      </trkpt>
      <trkpt lat="37.4323490" lon="-4.4345830">
        <ele>517.2</ele>
        <time>2021-12-28T20:30:26Z</time>
      </trkpt>
      <trkpt lat="37.4323490" lon="-4.4345830">
        <ele>517.2</ele>
        <time>2021-12-28T20:30:27Z</time>
      </trkpt>
      <trkpt lat="37.4323490" lon="-4.4345830">
        <ele>517.2</ele>
        <time>2021-12-28T20:30:28Z</time>
      </trkpt>
      <trkpt lat="37.4323490" lon="-4.4345830">
        <ele>517.2</ele>
        <time>2021-12-28T20:30:29Z</time>
      </trkpt>
      <trkpt lat="37.4323490" lon="-4.4345830">
        <ele>517.2</ele>
        <time>2021-12-28T20:30:30Z</time>
      </trkpt>
      <trkpt lat="37.4323490" lon="-4.4345830">
        <ele>517.2</ele>
        <time>2021-12-28T20:30:31Z</time>
      </trkpt>
      <trkpt lat="37.4323490" lon="-4.4345830">
        <ele>517.2</ele>
        <time>2021-12-28T20:30:32Z</time>
      </trkpt>
      <trkpt lat="37.4323490" lon="-4.4345830">
        <ele>517.2</ele>
        <time>2021-12-28T20:30:33Z</time>
      </trkpt>
      <trkpt lat="37.4323490" lon="-4.4345830">
        <ele>517.2</ele>
        <time>2021-12-28T20:30:34Z</time>
      </trkpt>
      <trkpt lat="37.4323490" lon="-4.4345830">
        <ele>517.2</ele>
        <time>2021-12-28T20:30:35Z</time>
      </trkpt>
      <trkpt lat="37.4323490" lon="-4.4345830">
        <ele>517.2</ele>
        <time>2021-12-28T20:30:36Z</time>
      </trkpt>
      <trkpt lat="37.4323490" lon="-4.4345830">
        <ele>517.2</ele>
        <time>2021-12-28T20:30:37Z</time>
      </trkpt>
      <trkpt lat="37.4323490" lon="-4.4345830">
        <ele>517.2</ele>
        <time>2021-12-28T20:30:38Z</time>
      </trkpt>
      <trkpt lat="37.4323490" lon="-4.4345830">
        <ele>517.2</ele>
        <time>2021-12-28T20:30:39Z</time>
      </trkpt>
      <trkpt lat="37.4323490" lon="-4.4345830">
        <ele>517.2</ele>
        <time>2021-12-28T20:30:40Z</time>
      </trkpt>
      <trkpt lat="37.4323490" lon="-4.4345830">
        <ele>517.2</ele>
        <time>2021-12-28T20:30:41Z</time>
      </trkpt>
      <trkpt lat="37.4323490" lon="-4.4345830">
        <ele>517.2</ele>
        <time>2021-12-28T20:30:42Z</time>
      </trkpt>
      <trkpt lat="37.4323490" lon="-4.4345830">
        <ele>517.2</ele>
        <time>2021-12-28T20:30:43Z</time>
      </trkpt>
      <trkpt lat="37.4323490" lon="-4.4345830">
        <ele>517.2</ele>
        <time>2021-12-28T20:30:44Z</time>
      </trkpt>
      <trkpt lat="37.4323490" lon="-4.4345830">
        <ele>517.2</ele>
        <time>2021-12-28T20:30:45Z</time>
      </trkpt>
      <trkpt lat="37.4323490" lon="-4.4345830">
        <ele>517.2</ele>
        <time>2021-12-28T20:30:46Z</time>
      </trkpt>
      <trkpt lat="37.4323490" lon="-4.4345830">
        <ele>517.2</ele>
        <time>2021-12-28T20:30:47Z</time>
      </trkpt>
      <trkpt lat="37.4323490" lon="-4.4345830">
        <ele>517.2</ele>
        <time>2021-12-28T20:30:48Z</time>
      </trkpt>
      <trkpt lat="37.4323490" lon="-4.4345830">
        <ele>517.2</ele>
        <time>2021-12-28T20:30:49Z</time>
      </trkpt>
      <trkpt lat="37.4323490" lon="-4.4345830">
        <ele>517.4</ele>
        <time>2021-12-28T20:30:50Z</time>
      </trkpt>
      <trkpt lat="37.4323490" lon="-4.4345830">
        <ele>517.4</ele>
        <time>2021-12-28T20:30:51Z</time>
      </trkpt>
      <trkpt lat="37.4323490" lon="-4.4345830">
        <ele>517.4</ele>
        <time>2021-12-28T20:30:52Z</time>
      </trkpt>
      <trkpt lat="37.4323490" lon="-4.4345830">
        <ele>517.4</ele>
        <time>2021-12-28T20:30:53Z</time>
      </trkpt>
      <trkpt lat="37.4323490" lon="-4.4345830">
        <ele>517.4</ele>
        <time>2021-12-28T20:30:54Z</time>
      </trkpt>
      <trkpt lat="37.4323490" lon="-4.4345830">
        <ele>517.4</ele>
        <time>2021-12-28T20:30:55Z</time>
      </trkpt>
      <trkpt lat="37.4323490" lon="-4.4345830">
        <ele>517.4</ele>
        <time>2021-12-28T20:30:56Z</time>
      </trkpt>
      <trkpt lat="37.4323490" lon="-4.4345830">
        <ele>517.4</ele>
        <time>2021-12-28T20:30:57Z</time>
      </trkpt>
      <trkpt lat="37.4323490" lon="-4.4345830">
        <ele>517.4</ele>
        <time>2021-12-28T20:30:58Z</time>
      </trkpt>
      <trkpt lat="37.4323490" lon="-4.4345830">
        <ele>517.4</ele>
        <time>2021-12-28T20:30:59Z</time>
      </trkpt>
      <trkpt lat="37.4323490" lon="-4.4345830">
        <ele>517.4</ele>
        <time>2021-12-28T20:31:00Z</time>
      </trkpt>
      <trkpt lat="37.4323490" lon="-4.4345830">
        <ele>517.4</ele>
        <time>2021-12-28T20:31:01Z</time>
      </trkpt>
      <trkpt lat="37.4323490" lon="-4.4345830">
        <ele>517.4</ele>
        <time>2021-12-28T20:31:02Z</time>
      </trkpt>
      <trkpt lat="37.4323490" lon="-4.4345830">
        <ele>517.4</ele>
        <time>2021-12-28T20:31:03Z</time>
      </trkpt>
      <trkpt lat="37.4323490" lon="-4.4345830">
        <ele>517.4</ele>
        <time>2021-12-28T20:31:04Z</time>
      </trkpt>
      <trkpt lat="37.4323490" lon="-4.4345830">
        <ele>517.4</ele>
        <time>2021-12-28T20:31:05Z</time>
      </trkpt>
      <trkpt lat="37.4323490" lon="-4.4345830">
        <ele>517.4</ele>
        <time>2021-12-28T20:31:06Z</time>
      </trkpt>
      <trkpt lat="37.4323490" lon="-4.4345830">
        <ele>517.4</ele>
        <time>2021-12-28T20:31:07Z</time>
      </trkpt>
      <trkpt lat="37.4323490" lon="-4.4345830">
        <ele>517.4</ele>
        <time>2021-12-28T20:31:08Z</time>
      </trkpt>
      <trkpt lat="37.4323490" lon="-4.4345830">
        <ele>517.4</ele>
        <time>2021-12-28T20:31:09Z</time>
      </trkpt>
      <trkpt lat="37.4323490" lon="-4.4345830">
        <ele>517.4</ele>
        <time>2021-12-28T20:31:10Z</time>
      </trkpt>
      <trkpt lat="37.4323490" lon="-4.4345830">
        <ele>517.4</ele>
        <time>2021-12-28T20:31:11Z</time>
      </trkpt>
      <trkpt lat="37.4323490" lon="-4.4345830">
        <ele>517.4</ele>
        <time>2021-12-28T20:31:12Z</time>
      </trkpt>
      <trkpt lat="37.4323490" lon="-4.4345830">
        <ele>517.4</ele>
        <time>2021-12-28T20:31:13Z</time>
      </trkpt>
      <trkpt lat="37.4323490" lon="-4.4345830">
        <ele>517.4</ele>
        <time>2021-12-28T20:31:14Z</time>
      </trkpt>
      <trkpt lat="37.4323490" lon="-4.4345830">
        <ele>517.4</ele>
        <time>2021-12-28T20:31:15Z</time>
      </trkpt>
      <trkpt lat="37.4323490" lon="-4.4345830">
        <ele>517.4</ele>
        <time>2021-12-28T20:31:16Z</time>
      </trkpt>
      <trkpt lat="37.4323490" lon="-4.4345830">
        <ele>517.4</ele>
        <time>2021-12-28T20:31:17Z</time>
      </trkpt>
      <trkpt lat="37.4323490" lon="-4.4345830">
        <ele>517.4</ele>
        <time>2021-12-28T20:31:18Z</time>
      </trkpt>
      <trkpt lat="37.4323490" lon="-4.4345830">
        <ele>517.4</ele>
        <time>2021-12-28T20:31:19Z</time>
      </trkpt>
      <trkpt lat="37.4323490" lon="-4.4345830">
        <ele>517.4</ele>
        <time>2021-12-28T20:31:20Z</time>
      </trkpt>
      <trkpt lat="37.4323490" lon="-4.4345830">
        <ele>517.4</ele>
        <time>2021-12-28T20:31:22Z</time>
      </trkpt>
      <trkpt lat="37.4323490" lon="-4.4345830">
        <ele>517.4</ele>
        <time>2021-12-28T20:31:23Z</time>
      </trkpt>
      <trkpt lat="37.4323490" lon="-4.4345830">
        <ele>517.4</ele>
        <time>2021-12-28T20:31:24Z</time>
      </trkpt>
      <trkpt lat="37.4323490" lon="-4.4345830">
        <ele>517.4</ele>
        <time>2021-12-28T20:31:25Z</time>
      </trkpt>
      <trkpt lat="37.4323490" lon="-4.4345830">
        <ele>517.4</ele>
        <time>2021-12-28T20:31:26Z</time>
      </trkpt>
      <trkpt lat="37.4323490" lon="-4.4345830">
        <ele>517.4</ele>
        <time>2021-12-28T20:31:27Z</time>
      </trkpt>
      <trkpt lat="37.4323230" lon="-4.4345730">
        <ele>517.4</ele>
        <time>2021-12-28T20:31:28Z</time>
      </trkpt>
      <trkpt lat="37.4323070" lon="-4.4345530">
        <ele>517.4</ele>
        <time>2021-12-28T20:31:29Z</time>
      </trkpt>
      <trkpt lat="37.4323070" lon="-4.4345530">
        <ele>517.4</ele>
        <time>2021-12-28T20:31:30Z</time>
      </trkpt>
      <trkpt lat="37.4322820" lon="-4.4345170">
        <ele>517.4</ele>
        <time>2021-12-28T20:31:31Z</time>
      </trkpt>
      <trkpt lat="37.4322690" lon="-4.4345000">
        <ele>517.4</ele>
        <time>2021-12-28T20:31:32Z</time>
      </trkpt>
      <trkpt lat="37.4322690" lon="-4.4345000">
        <ele>517.4</ele>
        <time>2021-12-28T20:31:33Z</time>
      </trkpt>
      <trkpt lat="37.4322430" lon="-4.4344650">
        <ele>517.4</ele>
        <time>2021-12-28T20:31:34Z</time>
      </trkpt>
      <trkpt lat="37.4322270" lon="-4.4344470">
        <ele>517.6</ele>
        <time>2021-12-28T20:31:35Z</time>
      </trkpt>
      <trkpt lat="37.4322270" lon="-4.4344470">
        <ele>517.6</ele>
        <time>2021-12-28T20:31:36Z</time>
      </trkpt>
      <trkpt lat="37.4322050" lon="-4.4344280">
        <ele>517.6</ele>
        <time>2021-12-28T20:31:37Z</time>
      </trkpt>
      <trkpt lat="37.4322050" lon="-4.4344280">
        <ele>517.6</ele>
        <time>2021-12-28T20:31:38Z</time>
      </trkpt>
      <trkpt lat="37.4321860" lon="-4.4344220">
        <ele>517.8</ele>
        <time>2021-12-28T20:31:39Z</time>
      </trkpt>
      <trkpt lat="37.4321860" lon="-4.4344220">
        <ele>517.8</ele>
        <time>2021-12-28T20:31:40Z</time>
      </trkpt>
      <trkpt lat="37.4321630" lon="-4.4344170">
        <ele>517.8</ele>
        <time>2021-12-28T20:31:41Z</time>
      </trkpt>
      <trkpt lat="37.4321630" lon="-4.4344170">
        <ele>517.8</ele>
        <time>2021-12-28T20:31:42Z</time>
      </trkpt>
      <trkpt lat="37.4321310" lon="-4.4344120">
        <ele>517.8</ele>
        <time>2021-12-28T20:31:43Z</time>
      </trkpt>
      <trkpt lat="37.4321310" lon="-4.4344120">
        <ele>517.8</ele>
        <time>2021-12-28T20:31:44Z</time>
      </trkpt>
      <trkpt lat="37.4321060" lon="-4.4344070">
        <ele>517.8</ele>
        <time>2021-12-28T20:31:45Z</time>
      </trkpt>
      <trkpt lat="37.4321060" lon="-4.4344070">
        <ele>517.6</ele>
        <time>2021-12-28T20:31:46Z</time>
      </trkpt>
      <trkpt lat="37.4320800" lon="-4.4344050">
        <ele>517.6</ele>
        <time>2021-12-28T20:31:47Z</time>
      </trkpt>
      <trkpt lat="37.4320800" lon="-4.4344050">
        <ele>517.6</ele>
        <time>2021-12-28T20:31:48Z</time>
      </trkpt>
      <trkpt lat="37.4320580" lon="-4.4343980">
        <ele>517.6</ele>
        <time>2021-12-28T20:31:49Z</time>
      </trkpt>
      <trkpt lat="37.4320580" lon="-4.4343980">
        <ele>517.6</ele>
        <time>2021-12-28T20:31:50Z</time>
      </trkpt>
      <trkpt lat="37.4320320" lon="-4.4343920">
        <ele>517.6</ele>
        <time>2021-12-28T20:31:51Z</time>
      </trkpt>
      <trkpt lat="37.4320320" lon="-4.4343920">
        <ele>517.6</ele>
        <time>2021-12-28T20:31:52Z</time>
      </trkpt>
      <trkpt lat="37.4320320" lon="-4.4343920">
        <ele>517.6</ele>
        <time>2021-12-28T20:31:53Z</time>
      </trkpt>
      <trkpt lat="37.4320100" lon="-4.4343900">
        <ele>517.4</ele>
        <time>2021-12-28T20:31:54Z</time>
      </trkpt>
      <trkpt lat="37.4320100" lon="-4.4343900">
        <ele>517.4</ele>
        <time>2021-12-28T20:31:55Z</time>
      </trkpt>
      <trkpt lat="37.4320100" lon="-4.4343900">
        <ele>517.4</ele>
        <time>2021-12-28T20:31:56Z</time>
      </trkpt>
      <trkpt lat="37.4319840" lon="-4.4343780">
        <ele>517.4</ele>
        <time>2021-12-28T20:31:57Z</time>
      </trkpt>
      <trkpt lat="37.4319840" lon="-4.4343780">
        <ele>517.4</ele>
        <time>2021-12-28T20:31:58Z</time>
      </trkpt>
      <trkpt lat="37.4319840" lon="-4.4343780">
        <ele>517.6</ele>
        <time>2021-12-28T20:31:59Z</time>
      </trkpt>
      <trkpt lat="37.4319840" lon="-4.4343780">
        <ele>517.6</ele>
        <time>2021-12-28T20:32:00Z</time>
      </trkpt>
      <trkpt lat="37.4319840" lon="-4.4343780">
        <ele>518.6</ele>
        <time>2021-12-28T20:32:39Z</time>
      </trkpt>
      <trkpt lat="37.4319840" lon="-4.4343780">
        <ele>518.6</ele>
        <time>2021-12-28T20:32:40Z</time>
      </trkpt>
      <trkpt lat="37.4317020" lon="-4.4342950">
        <ele>518.6</ele>
        <time>2021-12-28T20:32:41Z</time>
      </trkpt>
      <trkpt lat="37.4317020" lon="-4.4342950">
        <ele>518.6</ele>
        <time>2021-12-28T20:32:42Z</time>
      </trkpt>
      <trkpt lat="37.4317020" lon="-4.4342950">
        <ele>518.6</ele>
        <time>2021-12-28T20:32:43Z</time>
      </trkpt>
      <trkpt lat="37.4317020" lon="-4.4342950">
        <ele>518.6</ele>
        <time>2021-12-28T20:32:44Z</time>
      </trkpt>
      <trkpt lat="37.4317020" lon="-4.4342950">
        <ele>521.8</ele>
        <time>2021-12-28T20:39:10Z</time>
      </trkpt>
      <trkpt lat="37.4311490" lon="-4.4355860">
        <ele>517.0</ele>
        <time>2021-12-29T08:37:00Z</time>
      </trkpt>
      <trkpt lat="37.4311250" lon="-4.4355980">
        <ele>517.0</ele>
        <time>2021-12-29T08:37:08Z</time>
      </trkpt>
      <trkpt lat="37.4311010" lon="-4.4356100">
        <ele>517.0</ele>
        <time>2021-12-29T08:37:09Z</time>
      </trkpt>
      <trkpt lat="37.4310780" lon="-4.4356210">
        <ele>517.0</ele>
        <time>2021-12-29T08:37:10Z</time>
      </trkpt>
      <trkpt lat="37.4310540" lon="-4.4356330">
        <ele>517.0</ele>
        <time>2021-12-29T08:37:11Z</time>
      </trkpt>
      <trkpt lat="37.4310300" lon="-4.4356440">
        <ele>517.0</ele>
        <time>2021-12-29T08:37:12Z</time>
      </trkpt>
      <trkpt lat="37.4310060" lon="-4.4356560">
        <ele>517.0</ele>
        <time>2021-12-29T08:37:13Z</time>
      </trkpt>
      <trkpt lat="37.4309890" lon="-4.4356630">
        <ele>517.0</ele>
        <time>2021-12-29T08:37:14Z</time>
      </trkpt>
      <trkpt lat="37.4309060" lon="-4.4357070">
        <ele>517.0</ele>
        <time>2021-12-29T08:37:15Z</time>
      </trkpt>
      <trkpt lat="37.4308930" lon="-4.4357120">
        <ele>517.0</ele>
        <time>2021-12-29T08:37:16Z</time>
      </trkpt>
      <trkpt lat="37.4308540" lon="-4.4357230">
        <ele>517.0</ele>
        <time>2021-12-29T08:37:17Z</time>
      </trkpt>
      <trkpt lat="37.4308190" lon="-4.4357400">
        <ele>516.8</ele>
        <time>2021-12-29T08:37:18Z</time>
      </trkpt>
      <trkpt lat="37.4307870" lon="-4.4357530">
        <ele>516.8</ele>
        <time>2021-12-29T08:37:19Z</time>
      </trkpt>
      <trkpt lat="37.4307340" lon="-4.4357700">
        <ele>516.8</ele>
        <time>2021-12-29T08:37:20Z</time>
      </trkpt>
      <trkpt lat="37.4307170" lon="-4.4357770">
        <ele>516.8</ele>
        <time>2021-12-29T08:37:21Z</time>
      </trkpt>
      <trkpt lat="37.4306820" lon="-4.4357880">
        <ele>516.8</ele>
        <time>2021-12-29T08:37:22Z</time>
      </trkpt>
      <trkpt lat="37.4306500" lon="-4.4357980">
        <ele>516.6</ele>
        <time>2021-12-29T08:37:23Z</time>
      </trkpt>
      <trkpt lat="37.4306180" lon="-4.4358100">
        <ele>516.6</ele>
        <time>2021-12-29T08:37:24Z</time>
      </trkpt>
      <trkpt lat="37.4305790" lon="-4.4358220">
        <ele>516.6</ele>
        <time>2021-12-29T08:37:25Z</time>
      </trkpt>
      <trkpt lat="37.4305470" lon="-4.4358300">
        <ele>516.6</ele>
        <time>2021-12-29T08:37:26Z</time>
      </trkpt>
      <trkpt lat="37.4305090" lon="-4.4358400">
        <ele>516.6</ele>
        <time>2021-12-29T08:37:27Z</time>
      </trkpt>
      <trkpt lat="37.4304740" lon="-4.4358500">
        <ele>516.6</ele>
        <time>2021-12-29T08:37:28Z</time>
      </trkpt>
      <trkpt lat="37.4304380" lon="-4.4358570">
        <ele>516.4</ele>
        <time>2021-12-29T08:37:29Z</time>
      </trkpt>
      <trkpt lat="37.4304000" lon="-4.4358640">
        <ele>516.4</ele>
        <time>2021-12-29T08:37:30Z</time>
      </trkpt>
      <trkpt lat="37.4303620" lon="-4.4358740">
        <ele>516.4</ele>
        <time>2021-12-29T08:37:31Z</time>
      </trkpt>
      <trkpt lat="37.4303300" lon="-4.4358850">
        <ele>516.2</ele>
        <time>2021-12-29T08:37:32Z</time>
      </trkpt>
      <trkpt lat="37.4302910" lon="-4.4358950">
        <ele>516.2</ele>
        <time>2021-12-29T08:37:33Z</time>
      </trkpt>
      <trkpt lat="37.4302530" lon="-4.4359070">
        <ele>516.2</ele>
        <time>2021-12-29T08:37:34Z</time>
      </trkpt>
      <trkpt lat="37.4302110" lon="-4.4359200">
        <ele>516.2</ele>
        <time>2021-12-29T08:37:35Z</time>
      </trkpt>
      <trkpt lat="37.4301760" lon="-4.4359280">
        <ele>516.2</ele>
        <time>2021-12-29T08:37:36Z</time>
      </trkpt>
      <trkpt lat="37.4301380" lon="-4.4359360">
        <ele>516.0</ele>
        <time>2021-12-29T08:37:37Z</time>
      </trkpt>
      <trkpt lat="37.4300960" lon="-4.4359480">
        <ele>516.0</ele>
        <time>2021-12-29T08:37:38Z</time>
      </trkpt>
      <trkpt lat="37.4300450" lon="-4.4359630">
        <ele>516.0</ele>
        <time>2021-12-29T08:37:39Z</time>
      </trkpt>
      <trkpt lat="37.4300160" lon="-4.4359730">
        <ele>516.0</ele>
        <time>2021-12-29T08:37:40Z</time>
      </trkpt>
      <trkpt lat="37.4299740" lon="-4.4359850">
        <ele>516.0</ele>
        <time>2021-12-29T08:37:41Z</time>
      </trkpt>
      <trkpt lat="37.4299260" lon="-4.4360030">
        <ele>516.0</ele>
        <time>2021-12-29T08:37:42Z</time>
      </trkpt>
      <trkpt lat="37.4298940" lon="-4.4360160">
        <ele>516.0</ele>
        <time>2021-12-29T08:37:43Z</time>
      </trkpt>
      <trkpt lat="37.4298530" lon="-4.4360280">
        <ele>516.0</ele>
        <time>2021-12-29T08:37:44Z</time>
      </trkpt>
      <trkpt lat="37.4298180" lon="-4.4360400">
        <ele>516.0</ele>
        <time>2021-12-29T08:37:45Z</time>
      </trkpt>
      <trkpt lat="37.4298180" lon="-4.4360400">
        <ele>516.0</ele>
        <time>2021-12-29T08:37:46Z</time>
      </trkpt>
      <trkpt lat="37.4297280" lon="-4.4360690">
        <ele>516.0</ele>
        <time>2021-12-29T08:37:47Z</time>
      </trkpt>
      <trkpt lat="37.4297090" lon="-4.4360750">
        <ele>516.0</ele>
        <time>2021-12-29T08:37:48Z</time>
      </trkpt>
      <trkpt lat="37.4296740" lon="-4.4360870">
        <ele>516.0</ele>
        <time>2021-12-29T08:37:49Z</time>
      </trkpt>
      <trkpt lat="37.4296350" lon="-4.4360970">
        <ele>516.0</ele>
        <time>2021-12-29T08:37:50Z</time>
      </trkpt>
      <trkpt lat="37.4295970" lon="-4.4361070">
        <ele>516.0</ele>
        <time>2021-12-29T08:37:51Z</time>
      </trkpt>
      <trkpt lat="37.4295550" lon="-4.4361200">
        <ele>515.8</ele>
        <time>2021-12-29T08:37:52Z</time>
      </trkpt>
      <trkpt lat="37.4295170" lon="-4.4361330">
        <ele>515.8</ele>
        <time>2021-12-29T08:37:53Z</time>
      </trkpt>
      <trkpt lat="37.4294780" lon="-4.4361470">
        <ele>515.6</ele>
        <time>2021-12-29T08:37:54Z</time>
      </trkpt>
      <trkpt lat="37.4294370" lon="-4.4361580">
        <ele>515.6</ele>
        <time>2021-12-29T08:37:55Z</time>
      </trkpt>
      <trkpt lat="37.4294020" lon="-4.4361700">
        <ele>515.4</ele>
        <time>2021-12-29T08:37:56Z</time>
      </trkpt>
      <trkpt lat="37.4293630" lon="-4.4361840">
        <ele>515.4</ele>
        <time>2021-12-29T08:37:57Z</time>
      </trkpt>
      <trkpt lat="37.4293630" lon="-4.4361840">
        <ele>515.4</ele>
        <time>2021-12-29T08:37:58Z</time>
      </trkpt>
      <trkpt lat="37.4292640" lon="-4.4362190">
        <ele>515.4</ele>
        <time>2021-12-29T08:37:59Z</time>
      </trkpt>
      <trkpt lat="37.4292480" lon="-4.4362240">
        <ele>515.2</ele>
        <time>2021-12-29T08:38:00Z</time>
      </trkpt>
      <trkpt lat="37.4292100" lon="-4.4362380">
        <ele>515.2</ele>
        <time>2021-12-29T08:38:01Z</time>
      </trkpt>
      <trkpt lat="37.4291780" lon="-4.4362500">
        <ele>515.2</ele>
        <time>2021-12-29T08:38:02Z</time>
      </trkpt>
      <trkpt lat="37.4291390" lon="-4.4362600">
        <ele>515.2</ele>
        <time>2021-12-29T08:38:03Z</time>
      </trkpt>
      <trkpt lat="37.4291040" lon="-4.4362740">
        <ele>515.2</ele>
        <time>2021-12-29T08:38:04Z</time>
      </trkpt>
      <trkpt lat="37.4290720" lon="-4.4362830">
        <ele>515.2</ele>
        <time>2021-12-29T08:38:05Z</time>
      </trkpt>
      <trkpt lat="37.4290340" lon="-4.4362980">
        <ele>515.4</ele>
        <time>2021-12-29T08:38:06Z</time>
      </trkpt>
      <trkpt lat="37.4290050" lon="-4.4363130">
        <ele>515.2</ele>
        <time>2021-12-29T08:38:07Z</time>
      </trkpt>
      <trkpt lat="37.4289700" lon="-4.4363280">
        <ele>515.2</ele>
        <time>2021-12-29T08:38:08Z</time>
      </trkpt>
      <trkpt lat="37.4289310" lon="-4.4363430">
        <ele>515.2</ele>
        <time>2021-12-29T08:38:09Z</time>
      </trkpt>
      <trkpt lat="37.4289310" lon="-4.4363430">
        <ele>515.2</ele>
        <time>2021-12-29T08:38:10Z</time>
      </trkpt>
      <trkpt lat="37.4288510" lon="-4.4363820">
        <ele>515.2</ele>
        <time>2021-12-29T08:38:11Z</time>
      </trkpt>
      <trkpt lat="37.4288380" lon="-4.4363880">
        <ele>515.2</ele>
        <time>2021-12-29T08:38:12Z</time>
      </trkpt>
      <trkpt lat="37.4288060" lon="-4.4364070">
        <ele>515.2</ele>
        <time>2021-12-29T08:38:13Z</time>
      </trkpt>
      <trkpt lat="37.4287710" lon="-4.4364230">
        <ele>515.2</ele>
        <time>2021-12-29T08:38:14Z</time>
      </trkpt>
      <trkpt lat="37.4287420" lon="-4.4364430">
        <ele>515.2</ele>
        <time>2021-12-29T08:38:15Z</time>
      </trkpt>
      <trkpt lat="37.4287140" lon="-4.4364650">
        <ele>515.2</ele>
        <time>2021-12-29T08:38:16Z</time>
      </trkpt>
      <trkpt lat="37.4286880" lon="-4.4364830">
        <ele>515.4</ele>
        <time>2021-12-29T08:38:17Z</time>
      </trkpt>
      <trkpt lat="37.4286620" lon="-4.4365000">
        <ele>515.4</ele>
        <time>2021-12-29T08:38:18Z</time>
      </trkpt>
      <trkpt lat="37.4286340" lon="-4.4365150">
        <ele>515.4</ele>
        <time>2021-12-29T08:38:19Z</time>
      </trkpt>
      <trkpt lat="37.4286080" lon="-4.4365270">
        <ele>515.6</ele>
        <time>2021-12-29T08:38:20Z</time>
      </trkpt>
      <trkpt lat="37.4285820" lon="-4.4365420">
        <ele>515.6</ele>
        <time>2021-12-29T08:38:21Z</time>
      </trkpt>
      <trkpt lat="37.4285540" lon="-4.4365570">
        <ele>515.6</ele>
        <time>2021-12-29T08:38:22Z</time>
      </trkpt>
      <trkpt lat="37.4285340" lon="-4.4365680">
        <ele>515.6</ele>
        <time>2021-12-29T08:38:23Z</time>
      </trkpt>
      <trkpt lat="37.4285150" lon="-4.4365840">
        <ele>515.6</ele>
        <time>2021-12-29T08:38:24Z</time>
      </trkpt>
      <trkpt lat="37.4284930" lon="-4.4365950">
        <ele>515.6</ele>
        <time>2021-12-29T08:38:25Z</time>
      </trkpt>
      <trkpt lat="37.4284670" lon="-4.4366080">
        <ele>515.6</ele>
        <time>2021-12-29T08:38:26Z</time>
      </trkpt>
      <trkpt lat="37.4284450" lon="-4.4366280">
        <ele>515.8</ele>
        <time>2021-12-29T08:38:27Z</time>
      </trkpt>
      <trkpt lat="37.4284160" lon="-4.4366500">
        <ele>515.8</ele>
        <time>2021-12-29T08:38:28Z</time>
      </trkpt>
      <trkpt lat="37.4283870" lon="-4.4366750">
        <ele>515.8</ele>
        <time>2021-12-29T08:38:29Z</time>
      </trkpt>
      <trkpt lat="37.4283580" lon="-4.4366980">
        <ele>515.8</ele>
        <time>2021-12-29T08:38:30Z</time>
      </trkpt>
      <trkpt lat="37.4283300" lon="-4.4367250">
        <ele>516.0</ele>
        <time>2021-12-29T08:38:31Z</time>
      </trkpt>
      <trkpt lat="37.4282980" lon="-4.4367480">
        <ele>516.2</ele>
        <time>2021-12-29T08:38:32Z</time>
      </trkpt>
      <trkpt lat="37.4282690" lon="-4.4367730">
        <ele>516.2</ele>
        <time>2021-12-29T08:38:33Z</time>
      </trkpt>
      <trkpt lat="37.4282340" lon="-4.4368020">
        <ele>516.4</ele>
        <time>2021-12-29T08:38:34Z</time>
      </trkpt>
      <trkpt lat="37.4282050" lon="-4.4368270">
        <ele>516.4</ele>
        <time>2021-12-29T08:38:35Z</time>
      </trkpt>
      <trkpt lat="37.4281760" lon="-4.4368520">
        <ele>516.6</ele>
        <time>2021-12-29T08:38:36Z</time>
      </trkpt>
      <trkpt lat="37.4281500" lon="-4.4368780">
        <ele>516.6</ele>
        <time>2021-12-29T08:38:37Z</time>
      </trkpt>
      <trkpt lat="37.4281150" lon="-4.4369070">
        <ele>516.6</ele>
        <time>2021-12-29T08:38:38Z</time>
      </trkpt>
      <trkpt lat="37.4280930" lon="-4.4369300">
        <ele>516.8</ele>
        <time>2021-12-29T08:38:39Z</time>
      </trkpt>
      <trkpt lat="37.4280580" lon="-4.4369570">
        <ele>516.8</ele>
        <time>2021-12-29T08:38:40Z</time>
      </trkpt>
      <trkpt lat="37.4280290" lon="-4.4369830">
        <ele>517.0</ele>
        <time>2021-12-29T08:38:41Z</time>
      </trkpt>
      <trkpt lat="37.4279970" lon="-4.4370120">
        <ele>517.0</ele>
        <time>2021-12-29T08:38:42Z</time>
      </trkpt>
      <trkpt lat="37.4279680" lon="-4.4370400">
        <ele>517.2</ele>
        <time>2021-12-29T08:38:43Z</time>
      </trkpt>
      <trkpt lat="37.4279360" lon="-4.4370680">
        <ele>517.4</ele>
        <time>2021-12-29T08:38:44Z</time>
      </trkpt>
      <trkpt lat="37.4279100" lon="-4.4370960">
        <ele>517.4</ele>
        <time>2021-12-29T08:38:45Z</time>
      </trkpt>
      <trkpt lat="37.4278820" lon="-4.4371270">
        <ele>517.6</ele>
        <time>2021-12-29T08:38:46Z</time>
      </trkpt>
      <trkpt lat="37.4278560" lon="-4.4371530">
        <ele>517.6</ele>
        <time>2021-12-29T08:38:47Z</time>
      </trkpt>
      <trkpt lat="37.4278340" lon="-4.4371820">
        <ele>517.6</ele>
        <time>2021-12-29T08:38:48Z</time>
      </trkpt>
      <trkpt lat="37.4278140" lon="-4.4372100">
        <ele>517.8</ele>
        <time>2021-12-29T08:38:49Z</time>
      </trkpt>
      <trkpt lat="37.4277890" lon="-4.4372420">
        <ele>517.8</ele>
        <time>2021-12-29T08:38:50Z</time>
      </trkpt>
      <trkpt lat="37.4277700" lon="-4.4372640">
        <ele>517.8</ele>
        <time>2021-12-29T08:38:51Z</time>
      </trkpt>
      <trkpt lat="37.4277410" lon="-4.4372870">
        <ele>517.8</ele>
        <time>2021-12-29T08:38:52Z</time>
      </trkpt>
      <trkpt lat="37.4277150" lon="-4.4373140">
        <ele>517.8</ele>
        <time>2021-12-29T08:38:53Z</time>
      </trkpt>
      <trkpt lat="37.4276830" lon="-4.4373450">
        <ele>517.8</ele>
        <time>2021-12-29T08:38:54Z</time>
      </trkpt>
      <trkpt lat="37.4276830" lon="-4.4373450">
        <ele>517.8</ele>
        <time>2021-12-29T08:38:55Z</time>
      </trkpt>
      <trkpt lat="37.4276190" lon="-4.4374360">
        <ele>517.8</ele>
        <time>2021-12-29T08:38:56Z</time>
      </trkpt>
      <trkpt lat="37.4276100" lon="-4.4374520">
        <ele>517.8</ele>
        <time>2021-12-29T08:38:57Z</time>
      </trkpt>
      <trkpt lat="37.4275780" lon="-4.4374880">
        <ele>517.8</ele>
        <time>2021-12-29T08:38:58Z</time>
      </trkpt>
      <trkpt lat="37.4275520" lon="-4.4375250">
        <ele>517.8</ele>
        <time>2021-12-29T08:38:59Z</time>
      </trkpt>
      <trkpt lat="37.4275230" lon="-4.4375640">
        <ele>517.8</ele>
        <time>2021-12-29T08:39:00Z</time>
      </trkpt>
      <trkpt lat="37.4274980" lon="-4.4376000">
        <ele>517.8</ele>
        <time>2021-12-29T08:39:01Z</time>
      </trkpt>
      <trkpt lat="37.4274690" lon="-4.4376340">
        <ele>517.8</ele>
        <time>2021-12-29T08:39:02Z</time>
      </trkpt>
      <trkpt lat="37.4274430" lon="-4.4376620">
        <ele>518.0</ele>
        <time>2021-12-29T08:39:03Z</time>
      </trkpt>
      <trkpt lat="37.4274210" lon="-4.4376920">
        <ele>518.0</ele>
        <time>2021-12-29T08:39:04Z</time>
      </trkpt>
      <trkpt lat="37.4273980" lon="-4.4377230">
        <ele>518.0</ele>
        <time>2021-12-29T08:39:05Z</time>
      </trkpt>
      <trkpt lat="37.4273730" lon="-4.4377550">
        <ele>518.0</ele>
        <time>2021-12-29T08:39:06Z</time>
      </trkpt>
      <trkpt lat="37.4273500" lon="-4.4377880">
        <ele>517.8</ele>
        <time>2021-12-29T08:39:07Z</time>
      </trkpt>
      <trkpt lat="37.4273220" lon="-4.4378250">
        <ele>517.8</ele>
        <time>2021-12-29T08:39:08Z</time>
      </trkpt>
      <trkpt lat="37.4272960" lon="-4.4378630">
        <ele>518.0</ele>
        <time>2021-12-29T08:39:09Z</time>
      </trkpt>
      <trkpt lat="37.4272740" lon="-4.4379040">
        <ele>518.0</ele>
        <time>2021-12-29T08:39:10Z</time>
      </trkpt>
      <trkpt lat="37.4272450" lon="-4.4379440">
        <ele>518.0</ele>
        <time>2021-12-29T08:39:11Z</time>
      </trkpt>
      <trkpt lat="37.4272160" lon="-4.4379820">
        <ele>518.2</ele>
        <time>2021-12-29T08:39:12Z</time>
      </trkpt>
      <trkpt lat="37.4271840" lon="-4.4380220">
        <ele>518.4</ele>
        <time>2021-12-29T08:39:13Z</time>
      </trkpt>
      <trkpt lat="37.4271840" lon="-4.4380220">
        <ele>518.6</ele>
        <time>2021-12-29T08:39:14Z</time>
      </trkpt>
      <trkpt lat="37.4271180" lon="-4.4381190">
        <ele>518.8</ele>
        <time>2021-12-29T08:39:15Z</time>
      </trkpt>
      <trkpt lat="37.4271040" lon="-4.4381360">
        <ele>518.8</ele>
        <time>2021-12-29T08:39:16Z</time>
      </trkpt>
      <trkpt lat="37.4270820" lon="-4.4381730">
        <ele>518.8</ele>
        <time>2021-12-29T08:39:17Z</time>
      </trkpt>
      <trkpt lat="37.4270620" lon="-4.4382080">
        <ele>518.8</ele>
        <time>2021-12-29T08:39:18Z</time>
      </trkpt>
      <trkpt lat="37.4270400" lon="-4.4382420">
        <ele>519.0</ele>
        <time>2021-12-29T08:39:19Z</time>
      </trkpt>
      <trkpt lat="37.4270180" lon="-4.4382770">
        <ele>519.0</ele>
        <time>2021-12-29T08:39:20Z</time>
      </trkpt>
      <trkpt lat="37.4269950" lon="-4.4383080">
        <ele>519.0</ele>
        <time>2021-12-29T08:39:21Z</time>
      </trkpt>
      <trkpt lat="37.4269730" lon="-4.4383400">
        <ele>519.0</ele>
        <time>2021-12-29T08:39:22Z</time>
      </trkpt>
      <trkpt lat="37.4269470" lon="-4.4383720">
        <ele>519.0</ele>
        <time>2021-12-29T08:39:23Z</time>
      </trkpt>
      <trkpt lat="37.4269250" lon="-4.4384050">
        <ele>519.2</ele>
        <time>2021-12-29T08:39:24Z</time>
      </trkpt>
      <trkpt lat="37.4269020" lon="-4.4384400">
        <ele>519.2</ele>
        <time>2021-12-29T08:39:25Z</time>
      </trkpt>
      <trkpt lat="37.4268770" lon="-4.4384720">
        <ele>519.2</ele>
        <time>2021-12-29T08:39:26Z</time>
      </trkpt>
      <trkpt lat="37.4268540" lon="-4.4385050">
        <ele>519.2</ele>
        <time>2021-12-29T08:39:27Z</time>
      </trkpt>
      <trkpt lat="37.4268260" lon="-4.4385350">
        <ele>519.2</ele>
        <time>2021-12-29T08:39:28Z</time>
      </trkpt>
      <trkpt lat="37.4268030" lon="-4.4385680">
        <ele>519.2</ele>
        <time>2021-12-29T08:39:29Z</time>
      </trkpt>
      <trkpt lat="37.4267810" lon="-4.4386040">
        <ele>519.2</ele>
        <time>2021-12-29T08:39:30Z</time>
      </trkpt>
      <trkpt lat="37.4267580" lon="-4.4386400">
        <ele>519.2</ele>
        <time>2021-12-29T08:39:31Z</time>
      </trkpt>
      <trkpt lat="37.4267300" lon="-4.4386740">
        <ele>519.2</ele>
        <time>2021-12-29T08:39:32Z</time>
      </trkpt>
      <trkpt lat="37.4267070" lon="-4.4387080">
        <ele>519.2</ele>
        <time>2021-12-29T08:39:33Z</time>
      </trkpt>
      <trkpt lat="37.4266820" lon="-4.4387430">
        <ele>519.0</ele>
        <time>2021-12-29T08:39:34Z</time>
      </trkpt>
      <trkpt lat="37.4266590" lon="-4.4387850">
        <ele>519.0</ele>
        <time>2021-12-29T08:39:35Z</time>
      </trkpt>
      <trkpt lat="37.4266370" lon="-4.4388230">
        <ele>519.0</ele>
        <time>2021-12-29T08:39:36Z</time>
      </trkpt>
      <trkpt lat="37.4266140" lon="-4.4388650">
        <ele>519.2</ele>
        <time>2021-12-29T08:39:37Z</time>
      </trkpt>
      <trkpt lat="37.4265890" lon="-4.4389070">
        <ele>519.2</ele>
        <time>2021-12-29T08:39:38Z</time>
      </trkpt>
      <trkpt lat="37.4265660" lon="-4.4389430">
        <ele>519.4</ele>
        <time>2021-12-29T08:39:39Z</time>
      </trkpt>
      <trkpt lat="37.4265470" lon="-4.4389820">
        <ele>519.4</ele>
        <time>2021-12-29T08:39:40Z</time>
      </trkpt>
      <trkpt lat="37.4265280" lon="-4.4390180">
        <ele>519.6</ele>
        <time>2021-12-29T08:39:41Z</time>
      </trkpt>
      <trkpt lat="37.4265090" lon="-4.4390550">
        <ele>519.6</ele>
        <time>2021-12-29T08:39:42Z</time>
      </trkpt>
      <trkpt lat="37.4264960" lon="-4.4390920">
        <ele>519.6</ele>
        <time>2021-12-29T08:39:43Z</time>
      </trkpt>
      <trkpt lat="37.4264770" lon="-4.4391280">
        <ele>519.8</ele>
        <time>2021-12-29T08:39:44Z</time>
      </trkpt>
      <trkpt lat="37.4264580" lon="-4.4391680">
        <ele>519.8</ele>
        <time>2021-12-29T08:39:45Z</time>
      </trkpt>
      <trkpt lat="37.4264380" lon="-4.4392070">
        <ele>519.8</ele>
        <time>2021-12-29T08:39:46Z</time>
      </trkpt>
      <trkpt lat="37.4264190" lon="-4.4392470">
        <ele>520.0</ele>
        <time>2021-12-29T08:39:47Z</time>
      </trkpt>
      <trkpt lat="37.4263970" lon="-4.4392820">
        <ele>520.0</ele>
        <time>2021-12-29T08:39:48Z</time>
      </trkpt>
      <trkpt lat="37.4263810" lon="-4.4393180">
        <ele>520.0</ele>
        <time>2021-12-29T08:39:49Z</time>
      </trkpt>
      <trkpt lat="37.4263650" lon="-4.4393540">
        <ele>520.0</ele>
        <time>2021-12-29T08:39:50Z</time>
      </trkpt>
      <trkpt lat="37.4263460" lon="-4.4393880">
        <ele>520.2</ele>
        <time>2021-12-29T08:39:51Z</time>
      </trkpt>
      <trkpt lat="37.4263300" lon="-4.4394220">
        <ele>520.0</ele>
        <time>2021-12-29T08:39:52Z</time>
      </trkpt>
      <trkpt lat="37.4263170" lon="-4.4394560">
        <ele>520.0</ele>
        <time>2021-12-29T08:39:53Z</time>
      </trkpt>
      <trkpt lat="37.4263010" lon="-4.4394900">
        <ele>520.0</ele>
        <time>2021-12-29T08:39:54Z</time>
      </trkpt>
      <trkpt lat="37.4262880" lon="-4.4395220">
        <ele>520.0</ele>
        <time>2021-12-29T08:39:55Z</time>
      </trkpt>
      <trkpt lat="37.4262780" lon="-4.4395550">
        <ele>520.0</ele>
        <time>2021-12-29T08:39:56Z</time>
      </trkpt>
      <trkpt lat="37.4262620" lon="-4.4395900">
        <ele>520.0</ele>
        <time>2021-12-29T08:39:57Z</time>
      </trkpt>
      <trkpt lat="37.4262500" lon="-4.4396230">
        <ele>520.0</ele>
        <time>2021-12-29T08:39:58Z</time>
      </trkpt>
      <trkpt lat="37.4262400" lon="-4.4396550">
        <ele>520.0</ele>
        <time>2021-12-29T08:39:59Z</time>
      </trkpt>
      <trkpt lat="37.4262140" lon="-4.4397000">
        <ele>520.0</ele>
        <time>2021-12-29T08:40:00Z</time>
      </trkpt>
      <trkpt lat="37.4262080" lon="-4.4397150">
        <ele>519.8</ele>
        <time>2021-12-29T08:40:01Z</time>
      </trkpt>
      <trkpt lat="37.4261920" lon="-4.4397440">
        <ele>519.8</ele>
        <time>2021-12-29T08:40:02Z</time>
      </trkpt>
      <trkpt lat="37.4261790" lon="-4.4397750">
        <ele>519.8</ele>
        <time>2021-12-29T08:40:03Z</time>
      </trkpt>
      <trkpt lat="37.4261660" lon="-4.4398060">
        <ele>520.0</ele>
        <time>2021-12-29T08:40:04Z</time>
      </trkpt>
      <trkpt lat="37.4261540" lon="-4.4398330">
        <ele>520.0</ele>
        <time>2021-12-29T08:40:05Z</time>
      </trkpt>
      <trkpt lat="37.4261410" lon="-4.4398650">
        <ele>519.8</ele>
        <time>2021-12-29T08:40:06Z</time>
      </trkpt>
      <trkpt lat="37.4261280" lon="-4.4399020">
        <ele>519.8</ele>
        <time>2021-12-29T08:40:07Z</time>
      </trkpt>
      <trkpt lat="37.4261120" lon="-4.4399370">
        <ele>519.8</ele>
        <time>2021-12-29T08:40:08Z</time>
      </trkpt>
      <trkpt lat="37.4260990" lon="-4.4399700">
        <ele>519.8</ele>
        <time>2021-12-29T08:40:09Z</time>
      </trkpt>
      <trkpt lat="37.4260860" lon="-4.4400020">
        <ele>519.8</ele>
        <time>2021-12-29T08:40:10Z</time>
      </trkpt>
      <trkpt lat="37.4260700" lon="-4.4400340">
        <ele>519.8</ele>
        <time>2021-12-29T08:40:11Z</time>
      </trkpt>
      <trkpt lat="37.4260540" lon="-4.4400670">
        <ele>519.6</ele>
        <time>2021-12-29T08:40:12Z</time>
      </trkpt>
      <trkpt lat="37.4260420" lon="-4.4400970">
        <ele>519.6</ele>
        <time>2021-12-29T08:40:13Z</time>
      </trkpt>
      <trkpt lat="37.4260290" lon="-4.4401280">
        <ele>519.6</ele>
        <time>2021-12-29T08:40:14Z</time>
      </trkpt>
      <trkpt lat="37.4260100" lon="-4.4401650">
        <ele>519.6</ele>
        <time>2021-12-29T08:40:15Z</time>
      </trkpt>
      <trkpt lat="37.4259940" lon="-4.4402020">
        <ele>519.6</ele>
        <time>2021-12-29T08:40:16Z</time>
      </trkpt>
      <trkpt lat="37.4259810" lon="-4.4402320">
        <ele>519.6</ele>
        <time>2021-12-29T08:40:17Z</time>
      </trkpt>
      <trkpt lat="37.4259650" lon="-4.4402630">
        <ele>519.6</ele>
        <time>2021-12-29T08:40:18Z</time>
      </trkpt>
      <trkpt lat="37.4259490" lon="-4.4402950">
        <ele>519.6</ele>
        <time>2021-12-29T08:40:19Z</time>
      </trkpt>
      <trkpt lat="37.4259330" lon="-4.4403270">
        <ele>519.6</ele>
        <time>2021-12-29T08:40:20Z</time>
      </trkpt>
      <trkpt lat="37.4259200" lon="-4.4403600">
        <ele>519.6</ele>
        <time>2021-12-29T08:40:21Z</time>
      </trkpt>
      <trkpt lat="37.4259070" lon="-4.4403920">
        <ele>519.6</ele>
        <time>2021-12-29T08:40:22Z</time>
      </trkpt>
      <trkpt lat="37.4258910" lon="-4.4404250">
        <ele>519.6</ele>
        <time>2021-12-29T08:40:23Z</time>
      </trkpt>
      <trkpt lat="37.4258820" lon="-4.4404570">
        <ele>519.6</ele>
        <time>2021-12-29T08:40:24Z</time>
      </trkpt>
      <trkpt lat="37.4258660" lon="-4.4404920">
        <ele>519.6</ele>
        <time>2021-12-29T08:40:25Z</time>
      </trkpt>
      <trkpt lat="37.4258530" lon="-4.4405250">
        <ele>519.6</ele>
        <time>2021-12-29T08:40:26Z</time>
      </trkpt>
      <trkpt lat="37.4258400" lon="-4.4405600">
        <ele>519.6</ele>
        <time>2021-12-29T08:40:27Z</time>
      </trkpt>
      <trkpt lat="37.4258140" lon="-4.4406110">
        <ele>519.6</ele>
        <time>2021-12-29T08:40:28Z</time>
      </trkpt>
      <trkpt lat="37.4258050" lon="-4.4406280">
        <ele>519.8</ele>
        <time>2021-12-29T08:40:29Z</time>
      </trkpt>
      <trkpt lat="37.4257860" lon="-4.4406620">
        <ele>519.8</ele>
        <time>2021-12-29T08:40:30Z</time>
      </trkpt>
      <trkpt lat="37.4257660" lon="-4.4406930">
        <ele>519.8</ele>
        <time>2021-12-29T08:40:31Z</time>
      </trkpt>
      <trkpt lat="37.4257470" lon="-4.4407270">
        <ele>520.0</ele>
        <time>2021-12-29T08:40:32Z</time>
      </trkpt>
      <trkpt lat="37.4257310" lon="-4.4407570">
        <ele>520.0</ele>
        <time>2021-12-29T08:40:33Z</time>
      </trkpt>
      <trkpt lat="37.4257120" lon="-4.4407880">
        <ele>520.2</ele>
        <time>2021-12-29T08:40:34Z</time>
      </trkpt>
      <trkpt lat="37.4256930" lon="-4.4408180">
        <ele>520.2</ele>
        <time>2021-12-29T08:40:35Z</time>
      </trkpt>
      <trkpt lat="37.4256770" lon="-4.4408500">
        <ele>520.2</ele>
        <time>2021-12-29T08:40:36Z</time>
      </trkpt>
      <trkpt lat="37.4256640" lon="-4.4408850">
        <ele>520.2</ele>
        <time>2021-12-29T08:40:37Z</time>
      </trkpt>
      <trkpt lat="37.4256450" lon="-4.4409180">
        <ele>520.2</ele>
        <time>2021-12-29T08:40:38Z</time>
      </trkpt>
      <trkpt lat="37.4256260" lon="-4.4409500">
        <ele>520.4</ele>
        <time>2021-12-29T08:40:39Z</time>
      </trkpt>
      <trkpt lat="37.4256030" lon="-4.4409800">
        <ele>520.4</ele>
        <time>2021-12-29T08:40:40Z</time>
      </trkpt>
      <trkpt lat="37.4255840" lon="-4.4410100">
        <ele>520.4</ele>
        <time>2021-12-29T08:40:41Z</time>
      </trkpt>
      <trkpt lat="37.4255650" lon="-4.4410420">
        <ele>520.4</ele>
        <time>2021-12-29T08:40:42Z</time>
      </trkpt>
      <trkpt lat="37.4255490" lon="-4.4410740">
        <ele>520.6</ele>
        <time>2021-12-29T08:40:43Z</time>
      </trkpt>
      <trkpt lat="37.4255300" lon="-4.4411040">
        <ele>520.8</ele>
        <time>2021-12-29T08:40:44Z</time>
      </trkpt>
      <trkpt lat="37.4255140" lon="-4.4411340">
        <ele>520.8</ele>
        <time>2021-12-29T08:40:45Z</time>
      </trkpt>
      <trkpt lat="37.4254940" lon="-4.4411620">
        <ele>520.8</ele>
        <time>2021-12-29T08:40:46Z</time>
      </trkpt>
      <trkpt lat="37.4254720" lon="-4.4411900">
        <ele>521.0</ele>
        <time>2021-12-29T08:40:47Z</time>
      </trkpt>
      <trkpt lat="37.4254530" lon="-4.4412150">
        <ele>521.0</ele>
        <time>2021-12-29T08:40:48Z</time>
      </trkpt>
      <trkpt lat="37.4254300" lon="-4.4412430">
        <ele>521.2</ele>
        <time>2021-12-29T08:40:49Z</time>
      </trkpt>
      <trkpt lat="37.4254110" lon="-4.4412730">
        <ele>521.2</ele>
        <time>2021-12-29T08:40:50Z</time>
      </trkpt>
      <trkpt lat="37.4253890" lon="-4.4413020">
        <ele>521.2</ele>
        <time>2021-12-29T08:40:51Z</time>
      </trkpt>
      <trkpt lat="37.4253700" lon="-4.4413300">
        <ele>521.2</ele>
        <time>2021-12-29T08:40:52Z</time>
      </trkpt>
      <trkpt lat="37.4253500" lon="-4.4413580">
        <ele>521.2</ele>
        <time>2021-12-29T08:40:53Z</time>
      </trkpt>
      <trkpt lat="37.4253280" lon="-4.4413880">
        <ele>521.4</ele>
        <time>2021-12-29T08:40:54Z</time>
      </trkpt>
      <trkpt lat="37.4253060" lon="-4.4414170">
        <ele>521.4</ele>
        <time>2021-12-29T08:40:55Z</time>
      </trkpt>
      <trkpt lat="37.4252800" lon="-4.4414440">
        <ele>521.4</ele>
        <time>2021-12-29T08:40:56Z</time>
      </trkpt>
      <trkpt lat="37.4252540" lon="-4.4414680">
        <ele>521.4</ele>
        <time>2021-12-29T08:40:57Z</time>
      </trkpt>
      <trkpt lat="37.4252320" lon="-4.4414950">
        <ele>521.6</ele>
        <time>2021-12-29T08:40:58Z</time>
      </trkpt>
      <trkpt lat="37.4252100" lon="-4.4415240">
        <ele>521.6</ele>
        <time>2021-12-29T08:40:59Z</time>
      </trkpt>
      <trkpt lat="37.4251810" lon="-4.4415520">
        <ele>521.6</ele>
        <time>2021-12-29T08:41:00Z</time>
      </trkpt>
      <trkpt lat="37.4251580" lon="-4.4415780">
        <ele>521.6</ele>
        <time>2021-12-29T08:41:01Z</time>
      </trkpt>
      <trkpt lat="37.4251360" lon="-4.4416050">
        <ele>521.8</ele>
        <time>2021-12-29T08:41:02Z</time>
      </trkpt>
      <trkpt lat="37.4251140" lon="-4.4416330">
        <ele>521.8</ele>
        <time>2021-12-29T08:41:03Z</time>
      </trkpt>
      <trkpt lat="37.4250940" lon="-4.4416600">
        <ele>521.8</ele>
        <time>2021-12-29T08:41:04Z</time>
      </trkpt>
      <trkpt lat="37.4250720" lon="-4.4416850">
        <ele>522.0</ele>
        <time>2021-12-29T08:41:05Z</time>
      </trkpt>
      <trkpt lat="37.4250530" lon="-4.4417080">
        <ele>522.0</ele>
        <time>2021-12-29T08:41:06Z</time>
      </trkpt>
      <trkpt lat="37.4250300" lon="-4.4417280">
        <ele>522.0</ele>
        <time>2021-12-29T08:41:07Z</time>
      </trkpt>
      <trkpt lat="37.4250020" lon="-4.4417500">
        <ele>522.0</ele>
        <time>2021-12-29T08:41:08Z</time>
      </trkpt>
      <trkpt lat="37.4249760" lon="-4.4417700">
        <ele>522.0</ele>
        <time>2021-12-29T08:41:09Z</time>
      </trkpt>
      <trkpt lat="37.4249470" lon="-4.4417950">
        <ele>522.0</ele>
        <time>2021-12-29T08:41:10Z</time>
      </trkpt>
      <trkpt lat="37.4249180" lon="-4.4418200">
        <ele>522.0</ele>
        <time>2021-12-29T08:41:11Z</time>
      </trkpt>
      <trkpt lat="37.4248930" lon="-4.4418470">
        <ele>522.0</ele>
        <time>2021-12-29T08:41:12Z</time>
      </trkpt>
      <trkpt lat="37.4248670" lon="-4.4418740">
        <ele>522.0</ele>
        <time>2021-12-29T08:41:13Z</time>
      </trkpt>
      <trkpt lat="37.4248380" lon="-4.4419020">
        <ele>522.0</ele>
        <time>2021-12-29T08:41:14Z</time>
      </trkpt>
      <trkpt lat="37.4248130" lon="-4.4419260">
        <ele>522.0</ele>
        <time>2021-12-29T08:41:15Z</time>
      </trkpt>
      <trkpt lat="37.4247870" lon="-4.4419500">
        <ele>522.0</ele>
        <time>2021-12-29T08:41:16Z</time>
      </trkpt>
      <trkpt lat="37.4247580" lon="-4.4419730">
        <ele>522.0</ele>
        <time>2021-12-29T08:41:17Z</time>
      </trkpt>
      <trkpt lat="37.4247330" lon="-4.4419980">
        <ele>522.0</ele>
        <time>2021-12-29T08:41:18Z</time>
      </trkpt>
      <trkpt lat="37.4247040" lon="-4.4420230">
        <ele>522.0</ele>
        <time>2021-12-29T08:41:19Z</time>
      </trkpt>
      <trkpt lat="37.4246780" lon="-4.4420480">
        <ele>522.2</ele>
        <time>2021-12-29T08:41:20Z</time>
      </trkpt>
      <trkpt lat="37.4246530" lon="-4.4420720">
        <ele>522.2</ele>
        <time>2021-12-29T08:41:21Z</time>
      </trkpt>
      <trkpt lat="37.4246240" lon="-4.4420930">
        <ele>522.2</ele>
        <time>2021-12-29T08:41:22Z</time>
      </trkpt>
      <trkpt lat="37.4246020" lon="-4.4421180">
        <ele>522.2</ele>
        <time>2021-12-29T08:41:23Z</time>
      </trkpt>
      <trkpt lat="37.4245760" lon="-4.4421440">
        <ele>522.2</ele>
        <time>2021-12-29T08:41:24Z</time>
      </trkpt>
      <trkpt lat="37.4245500" lon="-4.4421680">
        <ele>522.2</ele>
        <time>2021-12-29T08:41:25Z</time>
      </trkpt>
      <trkpt lat="37.4245180" lon="-4.4421940">
        <ele>522.2</ele>
        <time>2021-12-29T08:41:26Z</time>
      </trkpt>
      <trkpt lat="37.4244930" lon="-4.4422180">
        <ele>522.2</ele>
        <time>2021-12-29T08:41:27Z</time>
      </trkpt>
      <trkpt lat="37.4244700" lon="-4.4422440">
        <ele>522.2</ele>
        <time>2021-12-29T08:41:28Z</time>
      </trkpt>
      <trkpt lat="37.4244420" lon="-4.4422660">
        <ele>522.2</ele>
        <time>2021-12-29T08:41:29Z</time>
      </trkpt>
      <trkpt lat="37.4244160" lon="-4.4422920">
        <ele>522.2</ele>
        <time>2021-12-29T08:41:30Z</time>
      </trkpt>
      <trkpt lat="37.4243940" lon="-4.4423150">
        <ele>522.2</ele>
        <time>2021-12-29T08:41:31Z</time>
      </trkpt>
      <trkpt lat="37.4243650" lon="-4.4423400">
        <ele>522.2</ele>
        <time>2021-12-29T08:41:32Z</time>
      </trkpt>
      <trkpt lat="37.4243360" lon="-4.4423650">
        <ele>522.2</ele>
        <time>2021-12-29T08:41:33Z</time>
      </trkpt>
      <trkpt lat="37.4243040" lon="-4.4423900">
        <ele>522.2</ele>
        <time>2021-12-29T08:41:34Z</time>
      </trkpt>
      <trkpt lat="37.4242780" lon="-4.4424180">
        <ele>522.2</ele>
        <time>2021-12-29T08:41:35Z</time>
      </trkpt>
      <trkpt lat="37.4242530" lon="-4.4424450">
        <ele>522.2</ele>
        <time>2021-12-29T08:41:36Z</time>
      </trkpt>
      <trkpt lat="37.4242240" lon="-4.4424700">
        <ele>522.2</ele>
        <time>2021-12-29T08:41:37Z</time>
      </trkpt>
      <trkpt lat="37.4241980" lon="-4.4424970">
        <ele>522.2</ele>
        <time>2021-12-29T08:41:38Z</time>
      </trkpt>
      <trkpt lat="37.4241730" lon="-4.4425220">
        <ele>522.2</ele>
        <time>2021-12-29T08:41:39Z</time>
      </trkpt>
      <trkpt lat="37.4241440" lon="-4.4425480">
        <ele>522.2</ele>
        <time>2021-12-29T08:41:40Z</time>
      </trkpt>
      <trkpt lat="37.4241180" lon="-4.4425750">
        <ele>522.2</ele>
        <time>2021-12-29T08:41:41Z</time>
      </trkpt>
      <trkpt lat="37.4240930" lon="-4.4426030">
        <ele>522.2</ele>
        <time>2021-12-29T08:41:42Z</time>
      </trkpt>
      <trkpt lat="37.4240640" lon="-4.4426330">
        <ele>522.2</ele>
        <time>2021-12-29T08:41:43Z</time>
      </trkpt>
      <trkpt lat="37.4240350" lon="-4.4426620">
        <ele>522.2</ele>
        <time>2021-12-29T08:41:44Z</time>
      </trkpt>
      <trkpt lat="37.4240060" lon="-4.4426880">
        <ele>522.2</ele>
        <time>2021-12-29T08:41:45Z</time>
      </trkpt>
      <trkpt lat="37.4239780" lon="-4.4427160">
        <ele>522.2</ele>
        <time>2021-12-29T08:41:46Z</time>
      </trkpt>
      <trkpt lat="37.4239490" lon="-4.4427450">
        <ele>522.2</ele>
        <time>2021-12-29T08:41:47Z</time>
      </trkpt>
      <trkpt lat="37.4239230" lon="-4.4427770">
        <ele>522.2</ele>
        <time>2021-12-29T08:41:48Z</time>
      </trkpt>
      <trkpt lat="37.4238980" lon="-4.4428070">
        <ele>522.2</ele>
        <time>2021-12-29T08:41:49Z</time>
      </trkpt>
      <trkpt lat="37.4238660" lon="-4.4428350">
        <ele>522.0</ele>
        <time>2021-12-29T08:41:50Z</time>
      </trkpt>
      <trkpt lat="37.4238300" lon="-4.4428680">
        <ele>522.2</ele>
        <time>2021-12-29T08:41:51Z</time>
      </trkpt>
      <trkpt lat="37.4238020" lon="-4.4429000">
        <ele>522.2</ele>
        <time>2021-12-29T08:41:52Z</time>
      </trkpt>
      <trkpt lat="37.4237700" lon="-4.4429350">
        <ele>522.2</ele>
        <time>2021-12-29T08:41:53Z</time>
      </trkpt>
      <trkpt lat="37.4237410" lon="-4.4429720">
        <ele>522.0</ele>
        <time>2021-12-29T08:41:54Z</time>
      </trkpt>
      <trkpt lat="37.4237090" lon="-4.4430080">
        <ele>522.0</ele>
        <time>2021-12-29T08:41:55Z</time>
      </trkpt>
      <trkpt lat="37.4236830" lon="-4.4430450">
        <ele>522.0</ele>
        <time>2021-12-29T08:41:56Z</time>
      </trkpt>
      <trkpt lat="37.4236510" lon="-4.4430820">
        <ele>522.0</ele>
        <time>2021-12-29T08:41:57Z</time>
      </trkpt>
      <trkpt lat="37.4236260" lon="-4.4431200">
        <ele>522.0</ele>
        <time>2021-12-29T08:41:58Z</time>
      </trkpt>
      <trkpt lat="37.4236000" lon="-4.4431580">
        <ele>522.0</ele>
        <time>2021-12-29T08:41:59Z</time>
      </trkpt>
      <trkpt lat="37.4235710" lon="-4.4431970">
        <ele>522.0</ele>
        <time>2021-12-29T08:42:00Z</time>
      </trkpt>
      <trkpt lat="37.4235420" lon="-4.4432370">
        <ele>522.0</ele>
        <time>2021-12-29T08:42:01Z</time>
      </trkpt>
      <trkpt lat="37.4235170" lon="-4.4432750">
        <ele>522.0</ele>
        <time>2021-12-29T08:42:02Z</time>
      </trkpt>
      <trkpt lat="37.4234850" lon="-4.4433150">
        <ele>522.0</ele>
        <time>2021-12-29T08:42:03Z</time>
      </trkpt>
      <trkpt lat="37.4234590" lon="-4.4433560">
        <ele>522.0</ele>
        <time>2021-12-29T08:42:04Z</time>
      </trkpt>
      <trkpt lat="37.4234270" lon="-4.4434000">
        <ele>522.0</ele>
        <time>2021-12-29T08:42:05Z</time>
      </trkpt>
      <trkpt lat="37.4234020" lon="-4.4434420">
        <ele>522.0</ele>
        <time>2021-12-29T08:42:06Z</time>
      </trkpt>
      <trkpt lat="37.4233730" lon="-4.4434820">
        <ele>522.0</ele>
        <time>2021-12-29T08:42:07Z</time>
      </trkpt>
      <trkpt lat="37.4233470" lon="-4.4435200">
        <ele>522.0</ele>
        <time>2021-12-29T08:42:08Z</time>
      </trkpt>
      <trkpt lat="37.4233180" lon="-4.4435620">
        <ele>522.0</ele>
        <time>2021-12-29T08:42:09Z</time>
      </trkpt>
      <trkpt lat="37.4232930" lon="-4.4436040">
        <ele>522.0</ele>
        <time>2021-12-29T08:42:10Z</time>
      </trkpt>
      <trkpt lat="37.4232670" lon="-4.4436440">
        <ele>522.0</ele>
        <time>2021-12-29T08:42:11Z</time>
      </trkpt>
      <trkpt lat="37.4232420" lon="-4.4436860">
        <ele>522.0</ele>
        <time>2021-12-29T08:42:12Z</time>
      </trkpt>
      <trkpt lat="37.4232190" lon="-4.4437320">
        <ele>522.0</ele>
        <time>2021-12-29T08:42:13Z</time>
      </trkpt>
      <trkpt lat="37.4231900" lon="-4.4437780">
        <ele>522.2</ele>
        <time>2021-12-29T08:42:14Z</time>
      </trkpt>
      <trkpt lat="37.4231680" lon="-4.4438230">
        <ele>522.2</ele>
        <time>2021-12-29T08:42:15Z</time>
      </trkpt>
      <trkpt lat="37.4231420" lon="-4.4438680">
        <ele>522.2</ele>
        <time>2021-12-29T08:42:16Z</time>
      </trkpt>
      <trkpt lat="37.4231200" lon="-4.4439140">
        <ele>522.2</ele>
        <time>2021-12-29T08:42:17Z</time>
      </trkpt>
      <trkpt lat="37.4230940" lon="-4.4439620">
        <ele>522.2</ele>
        <time>2021-12-29T08:42:18Z</time>
      </trkpt>
      <trkpt lat="37.4230720" lon="-4.4440080">
        <ele>522.2</ele>
        <time>2021-12-29T08:42:19Z</time>
      </trkpt>
      <trkpt lat="37.4230530" lon="-4.4440550">
        <ele>522.2</ele>
        <time>2021-12-29T08:42:20Z</time>
      </trkpt>
      <trkpt lat="37.4230300" lon="-4.4441050">
        <ele>522.2</ele>
        <time>2021-12-29T08:42:21Z</time>
      </trkpt>
      <trkpt lat="37.4230110" lon="-4.4441530">
        <ele>522.2</ele>
        <time>2021-12-29T08:42:22Z</time>
      </trkpt>
      <trkpt lat="37.4229890" lon="-4.4442030">
        <ele>522.2</ele>
        <time>2021-12-29T08:42:23Z</time>
      </trkpt>
      <trkpt lat="37.4229660" lon="-4.4442520">
        <ele>522.2</ele>
        <time>2021-12-29T08:42:24Z</time>
      </trkpt>
      <trkpt lat="37.4229470" lon="-4.4443050">
        <ele>522.2</ele>
        <time>2021-12-29T08:42:25Z</time>
      </trkpt>
      <trkpt lat="37.4229280" lon="-4.4443550">
        <ele>522.2</ele>
        <time>2021-12-29T08:42:26Z</time>
      </trkpt>
      <trkpt lat="37.4229090" lon="-4.4444060">
        <ele>522.2</ele>
        <time>2021-12-29T08:42:27Z</time>
      </trkpt>
      <trkpt lat="37.4228900" lon="-4.4444560">
        <ele>522.4</ele>
        <time>2021-12-29T08:42:28Z</time>
      </trkpt>
      <trkpt lat="37.4228700" lon="-4.4445080">
        <ele>522.4</ele>
        <time>2021-12-29T08:42:29Z</time>
      </trkpt>
      <trkpt lat="37.4228510" lon="-4.4445570">
        <ele>522.2</ele>
        <time>2021-12-29T08:42:30Z</time>
      </trkpt>
      <trkpt lat="37.4228420" lon="-4.4446070">
        <ele>522.2</ele>
        <time>2021-12-29T08:42:31Z</time>
      </trkpt>
      <trkpt lat="37.4228260" lon="-4.4446570">
        <ele>522.2</ele>
        <time>2021-12-29T08:42:32Z</time>
      </trkpt>
      <trkpt lat="37.4228060" lon="-4.4447070">
        <ele>522.0</ele>
        <time>2021-12-29T08:42:33Z</time>
      </trkpt>
      <trkpt lat="37.4227940" lon="-4.4447580">
        <ele>521.8</ele>
        <time>2021-12-29T08:42:34Z</time>
      </trkpt>
      <trkpt lat="37.4227780" lon="-4.4448100">
        <ele>521.8</ele>
        <time>2021-12-29T08:42:35Z</time>
      </trkpt>
      <trkpt lat="37.4227650" lon="-4.4448620">
        <ele>521.6</ele>
        <time>2021-12-29T08:42:36Z</time>
      </trkpt>
      <trkpt lat="37.4227460" lon="-4.4449130">
        <ele>521.6</ele>
        <time>2021-12-29T08:42:37Z</time>
      </trkpt>
      <trkpt lat="37.4227330" lon="-4.4449670">
        <ele>521.6</ele>
        <time>2021-12-29T08:42:38Z</time>
      </trkpt>
      <trkpt lat="37.4227170" lon="-4.4450200">
        <ele>521.6</ele>
        <time>2021-12-29T08:42:39Z</time>
      </trkpt>
      <trkpt lat="37.4227070" lon="-4.4450730">
        <ele>521.6</ele>
        <time>2021-12-29T08:42:40Z</time>
      </trkpt>
      <trkpt lat="37.4226940" lon="-4.4451250">
        <ele>521.6</ele>
        <time>2021-12-29T08:42:41Z</time>
      </trkpt>
      <trkpt lat="37.4226850" lon="-4.4451800">
        <ele>521.6</ele>
        <time>2021-12-29T08:42:42Z</time>
      </trkpt>
      <trkpt lat="37.4226750" lon="-4.4452350">
        <ele>521.4</ele>
        <time>2021-12-29T08:42:43Z</time>
      </trkpt>
      <trkpt lat="37.4226660" lon="-4.4452900">
        <ele>521.4</ele>
        <time>2021-12-29T08:42:44Z</time>
      </trkpt>
      <trkpt lat="37.4226560" lon="-4.4453470">
        <ele>521.4</ele>
        <time>2021-12-29T08:42:45Z</time>
      </trkpt>
      <trkpt lat="37.4226460" lon="-4.4454030">
        <ele>521.4</ele>
        <time>2021-12-29T08:42:46Z</time>
      </trkpt>
      <trkpt lat="37.4226370" lon="-4.4454580">
        <ele>521.2</ele>
        <time>2021-12-29T08:42:47Z</time>
      </trkpt>
      <trkpt lat="37.4226270" lon="-4.4455150">
        <ele>521.2</ele>
        <time>2021-12-29T08:42:48Z</time>
      </trkpt>
      <trkpt lat="37.4226180" lon="-4.4455730">
        <ele>521.2</ele>
        <time>2021-12-29T08:42:49Z</time>
      </trkpt>
      <trkpt lat="37.4226140" lon="-4.4456300">
        <ele>521.0</ele>
        <time>2021-12-29T08:42:50Z</time>
      </trkpt>
      <trkpt lat="37.4226110" lon="-4.4456840">
        <ele>521.0</ele>
        <time>2021-12-29T08:42:51Z</time>
      </trkpt>
      <trkpt lat="37.4226050" lon="-4.4457380">
        <ele>521.0</ele>
        <time>2021-12-29T08:42:52Z</time>
      </trkpt>
      <trkpt lat="37.4225950" lon="-4.4457930">
        <ele>521.0</ele>
        <time>2021-12-29T08:42:53Z</time>
      </trkpt>
      <trkpt lat="37.4225890" lon="-4.4458480">
        <ele>521.0</ele>
        <time>2021-12-29T08:42:54Z</time>
      </trkpt>
      <trkpt lat="37.4225790" lon="-4.4459070">
        <ele>521.0</ele>
        <time>2021-12-29T08:42:55Z</time>
      </trkpt>
      <trkpt lat="37.4225760" lon="-4.4459620">
        <ele>521.0</ele>
        <time>2021-12-29T08:42:56Z</time>
      </trkpt>
      <trkpt lat="37.4225730" lon="-4.4460220">
        <ele>521.0</ele>
        <time>2021-12-29T08:42:57Z</time>
      </trkpt>
      <trkpt lat="37.4225700" lon="-4.4460800">
        <ele>521.0</ele>
        <time>2021-12-29T08:42:58Z</time>
      </trkpt>
      <trkpt lat="37.4225660" lon="-4.4461400">
        <ele>521.0</ele>
        <time>2021-12-29T08:42:59Z</time>
      </trkpt>
      <trkpt lat="37.4225630" lon="-4.4462000">
        <ele>520.8</ele>
        <time>2021-12-29T08:43:00Z</time>
      </trkpt>
      <trkpt lat="37.4225540" lon="-4.4462580">
        <ele>520.8</ele>
        <time>2021-12-29T08:43:01Z</time>
      </trkpt>
      <trkpt lat="37.4225470" lon="-4.4463180">
        <ele>520.8</ele>
        <time>2021-12-29T08:43:02Z</time>
      </trkpt>
      <trkpt lat="37.4225380" lon="-4.4463800">
        <ele>520.8</ele>
        <time>2021-12-29T08:43:03Z</time>
      </trkpt>
      <trkpt lat="37.4225340" lon="-4.4464400">
        <ele>520.8</ele>
        <time>2021-12-29T08:43:04Z</time>
      </trkpt>
      <trkpt lat="37.4225310" lon="-4.4465020">
        <ele>520.8</ele>
        <time>2021-12-29T08:43:05Z</time>
      </trkpt>
      <trkpt lat="37.4225250" lon="-4.4465630">
        <ele>520.8</ele>
        <time>2021-12-29T08:43:06Z</time>
      </trkpt>
      <trkpt lat="37.4225180" lon="-4.4466220">
        <ele>520.8</ele>
        <time>2021-12-29T08:43:07Z</time>
      </trkpt>
      <trkpt lat="37.4225150" lon="-4.4466800">
        <ele>520.6</ele>
        <time>2021-12-29T08:43:08Z</time>
      </trkpt>
      <trkpt lat="37.4225090" lon="-4.4467400">
        <ele>520.6</ele>
        <time>2021-12-29T08:43:09Z</time>
      </trkpt>
      <trkpt lat="37.4225060" lon="-4.4468000">
        <ele>520.6</ele>
        <time>2021-12-29T08:43:10Z</time>
      </trkpt>
      <trkpt lat="37.4224990" lon="-4.4468600">
        <ele>520.6</ele>
        <time>2021-12-29T08:43:11Z</time>
      </trkpt>
      <trkpt lat="37.4224960" lon="-4.4469220">
        <ele>520.6</ele>
        <time>2021-12-29T08:43:12Z</time>
      </trkpt>
      <trkpt lat="37.4224900" lon="-4.4469780">
        <ele>520.6</ele>
        <time>2021-12-29T08:43:13Z</time>
      </trkpt>
      <trkpt lat="37.4224800" lon="-4.4470370">
        <ele>520.4</ele>
        <time>2021-12-29T08:43:14Z</time>
      </trkpt>
      <trkpt lat="37.4224800" lon="-4.4470950">
        <ele>520.4</ele>
        <time>2021-12-29T08:43:15Z</time>
      </trkpt>
      <trkpt lat="37.4224740" lon="-4.4471550">
        <ele>520.4</ele>
        <time>2021-12-29T08:43:16Z</time>
      </trkpt>
      <trkpt lat="37.4224700" lon="-4.4472160">
        <ele>520.2</ele>
        <time>2021-12-29T08:43:17Z</time>
      </trkpt>
      <trkpt lat="37.4224640" lon="-4.4472760">
        <ele>520.2</ele>
        <time>2021-12-29T08:43:18Z</time>
      </trkpt>
      <trkpt lat="37.4224540" lon="-4.4473380">
        <ele>520.2</ele>
        <time>2021-12-29T08:43:19Z</time>
      </trkpt>
      <trkpt lat="37.4224480" lon="-4.4473970">
        <ele>520.0</ele>
        <time>2021-12-29T08:43:20Z</time>
      </trkpt>
      <trkpt lat="37.4224450" lon="-4.4474570">
        <ele>520.0</ele>
        <time>2021-12-29T08:43:21Z</time>
      </trkpt>
      <trkpt lat="37.4224350" lon="-4.4475150">
        <ele>520.0</ele>
        <time>2021-12-29T08:43:22Z</time>
      </trkpt>
      <trkpt lat="37.4224290" lon="-4.4475750">
        <ele>520.0</ele>
        <time>2021-12-29T08:43:23Z</time>
      </trkpt>
      <trkpt lat="37.4224290" lon="-4.4476320">
        <ele>520.0</ele>
        <time>2021-12-29T08:43:24Z</time>
      </trkpt>
      <trkpt lat="37.4224190" lon="-4.4476920">
        <ele>520.0</ele>
        <time>2021-12-29T08:43:25Z</time>
      </trkpt>
      <trkpt lat="37.4224160" lon="-4.4477520">
        <ele>520.0</ele>
        <time>2021-12-29T08:43:26Z</time>
      </trkpt>
      <trkpt lat="37.4224130" lon="-4.4478120">
        <ele>520.0</ele>
        <time>2021-12-29T08:43:27Z</time>
      </trkpt>
      <trkpt lat="37.4224060" lon="-4.4478660">
        <ele>520.0</ele>
        <time>2021-12-29T08:43:28Z</time>
      </trkpt>
      <trkpt lat="37.4224000" lon="-4.4479230">
        <ele>520.0</ele>
        <time>2021-12-29T08:43:29Z</time>
      </trkpt>
      <trkpt lat="37.4223970" lon="-4.4479780">
        <ele>519.8</ele>
        <time>2021-12-29T08:43:30Z</time>
      </trkpt>
      <trkpt lat="37.4223940" lon="-4.4480330">
        <ele>519.8</ele>
        <time>2021-12-29T08:43:31Z</time>
      </trkpt>
      <trkpt lat="37.4223900" lon="-4.4480920">
        <ele>519.6</ele>
        <time>2021-12-29T08:43:32Z</time>
      </trkpt>
      <trkpt lat="37.4223870" lon="-4.4481520">
        <ele>519.4</ele>
        <time>2021-12-29T08:43:33Z</time>
      </trkpt>
      <trkpt lat="37.4223810" lon="-4.4482120">
        <ele>519.4</ele>
        <time>2021-12-29T08:43:34Z</time>
      </trkpt>
      <trkpt lat="37.4223780" lon="-4.4482720">
        <ele>519.4</ele>
        <time>2021-12-29T08:43:35Z</time>
      </trkpt>
      <trkpt lat="37.4223740" lon="-4.4483320">
        <ele>519.4</ele>
        <time>2021-12-29T08:43:36Z</time>
      </trkpt>
      <trkpt lat="37.4223710" lon="-4.4483930">
        <ele>519.4</ele>
        <time>2021-12-29T08:43:37Z</time>
      </trkpt>
      <trkpt lat="37.4223680" lon="-4.4484500">
        <ele>519.4</ele>
        <time>2021-12-29T08:43:38Z</time>
      </trkpt>
      <trkpt lat="37.4223680" lon="-4.4485080">
        <ele>519.2</ele>
        <time>2021-12-29T08:43:39Z</time>
      </trkpt>
      <trkpt lat="37.4223680" lon="-4.4485660">
        <ele>519.2</ele>
        <time>2021-12-29T08:43:40Z</time>
      </trkpt>
      <trkpt lat="37.4223710" lon="-4.4486250">
        <ele>519.2</ele>
        <time>2021-12-29T08:43:41Z</time>
      </trkpt>
      <trkpt lat="37.4223710" lon="-4.4486800">
        <ele>519.2</ele>
        <time>2021-12-29T08:43:42Z</time>
      </trkpt>
      <trkpt lat="37.4223710" lon="-4.4487380">
        <ele>519.0</ele>
        <time>2021-12-29T08:43:43Z</time>
      </trkpt>
      <trkpt lat="37.4223740" lon="-4.4487970">
        <ele>519.0</ele>
        <time>2021-12-29T08:43:44Z</time>
      </trkpt>
      <trkpt lat="37.4223780" lon="-4.4488550">
        <ele>518.8</ele>
        <time>2021-12-29T08:43:45Z</time>
      </trkpt>
      <trkpt lat="37.4223780" lon="-4.4489100">
        <ele>518.6</ele>
        <time>2021-12-29T08:43:46Z</time>
      </trkpt>
      <trkpt lat="37.4223810" lon="-4.4489680">
        <ele>518.6</ele>
        <time>2021-12-29T08:43:47Z</time>
      </trkpt>
      <trkpt lat="37.4223900" lon="-4.4490250">
        <ele>518.6</ele>
        <time>2021-12-29T08:43:48Z</time>
      </trkpt>
      <trkpt lat="37.4223940" lon="-4.4490780">
        <ele>518.4</ele>
        <time>2021-12-29T08:43:49Z</time>
      </trkpt>
      <trkpt lat="37.4224000" lon="-4.4491330">
        <ele>518.4</ele>
        <time>2021-12-29T08:43:50Z</time>
      </trkpt>
      <trkpt lat="37.4224060" lon="-4.4491900">
        <ele>518.4</ele>
        <time>2021-12-29T08:43:51Z</time>
      </trkpt>
      <trkpt lat="37.4224130" lon="-4.4492500">
        <ele>518.2</ele>
        <time>2021-12-29T08:43:52Z</time>
      </trkpt>
      <trkpt lat="37.4224190" lon="-4.4493080">
        <ele>518.2</ele>
        <time>2021-12-29T08:43:53Z</time>
      </trkpt>
      <trkpt lat="37.4224290" lon="-4.4493650">
        <ele>518.0</ele>
        <time>2021-12-29T08:43:54Z</time>
      </trkpt>
      <trkpt lat="37.4224350" lon="-4.4494220">
        <ele>518.0</ele>
        <time>2021-12-29T08:43:55Z</time>
      </trkpt>
      <trkpt lat="37.4224480" lon="-4.4494770">
        <ele>518.0</ele>
        <time>2021-12-29T08:43:56Z</time>
      </trkpt>
      <trkpt lat="37.4224540" lon="-4.4495300">
        <ele>518.0</ele>
        <time>2021-12-29T08:43:57Z</time>
      </trkpt>
      <trkpt lat="37.4224670" lon="-4.4495820">
        <ele>517.8</ele>
        <time>2021-12-29T08:43:58Z</time>
      </trkpt>
      <trkpt lat="37.4224740" lon="-4.4496360">
        <ele>517.8</ele>
        <time>2021-12-29T08:43:59Z</time>
      </trkpt>
      <trkpt lat="37.4224900" lon="-4.4496920">
        <ele>517.6</ele>
        <time>2021-12-29T08:44:00Z</time>
      </trkpt>
      <trkpt lat="37.4225060" lon="-4.4497470">
        <ele>517.6</ele>
        <time>2021-12-29T08:44:01Z</time>
      </trkpt>
      <trkpt lat="37.4225150" lon="-4.4498020">
        <ele>517.6</ele>
        <time>2021-12-29T08:44:02Z</time>
      </trkpt>
      <trkpt lat="37.4225280" lon="-4.4498550">
        <ele>517.6</ele>
        <time>2021-12-29T08:44:03Z</time>
      </trkpt>
      <trkpt lat="37.4225440" lon="-4.4499100">
        <ele>517.4</ele>
        <time>2021-12-29T08:44:04Z</time>
      </trkpt>
      <trkpt lat="37.4225540" lon="-4.4499680">
        <ele>517.4</ele>
        <time>2021-12-29T08:44:05Z</time>
      </trkpt>
      <trkpt lat="37.4225730" lon="-4.4500250">
        <ele>517.4</ele>
        <time>2021-12-29T08:44:06Z</time>
      </trkpt>
      <trkpt lat="37.4225890" lon="-4.4500830">
        <ele>517.2</ele>
        <time>2021-12-29T08:44:07Z</time>
      </trkpt>
      <trkpt lat="37.4226080" lon="-4.4501450">
        <ele>517.2</ele>
        <time>2021-12-29T08:44:08Z</time>
      </trkpt>
      <trkpt lat="37.4226270" lon="-4.4502070">
        <ele>517.2</ele>
        <time>2021-12-29T08:44:09Z</time>
      </trkpt>
      <trkpt lat="37.4226460" lon="-4.4502670">
        <ele>517.2</ele>
        <time>2021-12-29T08:44:10Z</time>
      </trkpt>
      <trkpt lat="37.4226690" lon="-4.4503280">
        <ele>517.0</ele>
        <time>2021-12-29T08:44:11Z</time>
      </trkpt>
      <trkpt lat="37.4226940" lon="-4.4503880">
        <ele>517.0</ele>
        <time>2021-12-29T08:44:12Z</time>
      </trkpt>
      <trkpt lat="37.4227230" lon="-4.4504500">
        <ele>517.0</ele>
        <time>2021-12-29T08:44:13Z</time>
      </trkpt>
      <trkpt lat="37.4227460" lon="-4.4505080">
        <ele>516.8</ele>
        <time>2021-12-29T08:44:14Z</time>
      </trkpt>
      <trkpt lat="37.4227650" lon="-4.4505700">
        <ele>516.8</ele>
        <time>2021-12-29T08:44:15Z</time>
      </trkpt>
      <trkpt lat="37.4227870" lon="-4.4506300">
        <ele>516.6</ele>
        <time>2021-12-29T08:44:16Z</time>
      </trkpt>
      <trkpt lat="37.4228100" lon="-4.4506900">
        <ele>516.6</ele>
        <time>2021-12-29T08:44:17Z</time>
      </trkpt>
      <trkpt lat="37.4228320" lon="-4.4507480">
        <ele>516.6</ele>
        <time>2021-12-29T08:44:18Z</time>
      </trkpt>
      <trkpt lat="37.4228510" lon="-4.4508070">
        <ele>516.4</ele>
        <time>2021-12-29T08:44:19Z</time>
      </trkpt>
      <trkpt lat="37.4228700" lon="-4.4508630">
        <ele>516.4</ele>
        <time>2021-12-29T08:44:20Z</time>
      </trkpt>
      <trkpt lat="37.4228930" lon="-4.4509180">
        <ele>516.4</ele>
        <time>2021-12-29T08:44:21Z</time>
      </trkpt>
      <trkpt lat="37.4229120" lon="-4.4509740">
        <ele>516.4</ele>
        <time>2021-12-29T08:44:22Z</time>
      </trkpt>
      <trkpt lat="37.4229310" lon="-4.4510230">
        <ele>516.2</ele>
        <time>2021-12-29T08:44:23Z</time>
      </trkpt>
      <trkpt lat="37.4229500" lon="-4.4510760">
        <ele>516.2</ele>
        <time>2021-12-29T08:44:24Z</time>
      </trkpt>
      <trkpt lat="37.4229700" lon="-4.4511300">
        <ele>516.0</ele>
        <time>2021-12-29T08:44:25Z</time>
      </trkpt>
      <trkpt lat="37.4229890" lon="-4.4511870">
        <ele>516.0</ele>
        <time>2021-12-29T08:44:26Z</time>
      </trkpt>
      <trkpt lat="37.4230110" lon="-4.4512400">
        <ele>516.0</ele>
        <time>2021-12-29T08:44:27Z</time>
      </trkpt>
      <trkpt lat="37.4230300" lon="-4.4512940">
        <ele>515.8</ele>
        <time>2021-12-29T08:44:28Z</time>
      </trkpt>
      <trkpt lat="37.4230530" lon="-4.4513470">
        <ele>515.6</ele>
        <time>2021-12-29T08:44:29Z</time>
      </trkpt>
      <trkpt lat="37.4230750" lon="-4.4514020">
        <ele>515.6</ele>
        <time>2021-12-29T08:44:30Z</time>
      </trkpt>
      <trkpt lat="37.4231010" lon="-4.4514560">
        <ele>515.4</ele>
        <time>2021-12-29T08:44:31Z</time>
      </trkpt>
      <trkpt lat="37.4231200" lon="-4.4515100">
        <ele>515.4</ele>
        <time>2021-12-29T08:44:32Z</time>
      </trkpt>
      <trkpt lat="37.4231420" lon="-4.4515620">
        <ele>515.2</ele>
        <time>2021-12-29T08:44:33Z</time>
      </trkpt>
      <trkpt lat="37.4231650" lon="-4.4516150">
        <ele>515.2</ele>
        <time>2021-12-29T08:44:34Z</time>
      </trkpt>
      <trkpt lat="37.4231840" lon="-4.4516680">
        <ele>515.2</ele>
        <time>2021-12-29T08:44:35Z</time>
      </trkpt>
      <trkpt lat="37.4232030" lon="-4.4517180">
        <ele>515.0</ele>
        <time>2021-12-29T08:44:36Z</time>
      </trkpt>
      <trkpt lat="37.4232220" lon="-4.4517700">
        <ele>515.0</ele>
        <time>2021-12-29T08:44:37Z</time>
      </trkpt>
      <trkpt lat="37.4232380" lon="-4.4518200">
        <ele>515.0</ele>
        <time>2021-12-29T08:44:38Z</time>
      </trkpt>
      <trkpt lat="37.4232540" lon="-4.4518720">
        <ele>514.8</ele>
        <time>2021-12-29T08:44:39Z</time>
      </trkpt>
      <trkpt lat="37.4232740" lon="-4.4519220">
        <ele>514.6</ele>
        <time>2021-12-29T08:44:40Z</time>
      </trkpt>
      <trkpt lat="37.4232990" lon="-4.4519750">
        <ele>514.6</ele>
        <time>2021-12-29T08:44:41Z</time>
      </trkpt>
      <trkpt lat="37.4233180" lon="-4.4520300">
        <ele>514.4</ele>
        <time>2021-12-29T08:44:42Z</time>
      </trkpt>
      <trkpt lat="37.4233410" lon="-4.4520850">
        <ele>514.2</ele>
        <time>2021-12-29T08:44:43Z</time>
      </trkpt>
      <trkpt lat="37.4233630" lon="-4.4521400">
        <ele>514.0</ele>
        <time>2021-12-29T08:44:44Z</time>
      </trkpt>
      <trkpt lat="37.4233860" lon="-4.4521930">
        <ele>514.0</ele>
        <time>2021-12-29T08:44:45Z</time>
      </trkpt>
      <trkpt lat="37.4234050" lon="-4.4522470">
        <ele>513.8</ele>
        <time>2021-12-29T08:44:46Z</time>
      </trkpt>
      <trkpt lat="37.4234210" lon="-4.4523000">
        <ele>513.8</ele>
        <time>2021-12-29T08:44:47Z</time>
      </trkpt>
      <trkpt lat="37.4234400" lon="-4.4523520">
        <ele>513.8</ele>
        <time>2021-12-29T08:44:48Z</time>
      </trkpt>
      <trkpt lat="37.4234530" lon="-4.4524020">
        <ele>513.6</ele>
        <time>2021-12-29T08:44:49Z</time>
      </trkpt>
      <trkpt lat="37.4234690" lon="-4.4524530">
        <ele>513.6</ele>
        <time>2021-12-29T08:44:50Z</time>
      </trkpt>
      <trkpt lat="37.4234850" lon="-4.4525050">
        <ele>513.6</ele>
        <time>2021-12-29T08:44:51Z</time>
      </trkpt>
      <trkpt lat="37.4235010" lon="-4.4525580">
        <ele>513.6</ele>
        <time>2021-12-29T08:44:52Z</time>
      </trkpt>
      <trkpt lat="37.4235100" lon="-4.4526130">
        <ele>513.6</ele>
        <time>2021-12-29T08:44:53Z</time>
      </trkpt>
      <trkpt lat="37.4235230" lon="-4.4526680">
        <ele>513.4</ele>
        <time>2021-12-29T08:44:54Z</time>
      </trkpt>
      <trkpt lat="37.4235330" lon="-4.4527200">
        <ele>513.4</ele>
        <time>2021-12-29T08:44:55Z</time>
      </trkpt>
      <trkpt lat="37.4235460" lon="-4.4527750">
        <ele>513.4</ele>
        <time>2021-12-29T08:44:56Z</time>
      </trkpt>
      <trkpt lat="37.4235580" lon="-4.4528320">
        <ele>513.2</ele>
        <time>2021-12-29T08:44:57Z</time>
      </trkpt>
      <trkpt lat="37.4235650" lon="-4.4528860">
        <ele>513.2</ele>
        <time>2021-12-29T08:44:58Z</time>
      </trkpt>
      <trkpt lat="37.4235780" lon="-4.4529380">
        <ele>513.2</ele>
        <time>2021-12-29T08:44:59Z</time>
      </trkpt>
      <trkpt lat="37.4235870" lon="-4.4529920">
        <ele>513.0</ele>
        <time>2021-12-29T08:45:00Z</time>
      </trkpt>
      <trkpt lat="37.4235970" lon="-4.4530450">
        <ele>513.0</ele>
        <time>2021-12-29T08:45:01Z</time>
      </trkpt>
      <trkpt lat="37.4236060" lon="-4.4530970">
        <ele>513.0</ele>
        <time>2021-12-29T08:45:02Z</time>
      </trkpt>
      <trkpt lat="37.4236160" lon="-4.4531500">
        <ele>512.8</ele>
        <time>2021-12-29T08:45:03Z</time>
      </trkpt>
      <trkpt lat="37.4236220" lon="-4.4532030">
        <ele>512.6</ele>
        <time>2021-12-29T08:45:04Z</time>
      </trkpt>
      <trkpt lat="37.4236290" lon="-4.4532580">
        <ele>512.6</ele>
        <time>2021-12-29T08:45:05Z</time>
      </trkpt>
      <trkpt lat="37.4236380" lon="-4.4533150">
        <ele>512.4</ele>
        <time>2021-12-29T08:45:06Z</time>
      </trkpt>
      <trkpt lat="37.4236420" lon="-4.4533780">
        <ele>512.4</ele>
        <time>2021-12-29T08:45:07Z</time>
      </trkpt>
      <trkpt lat="37.4236450" lon="-4.4534400">
        <ele>512.2</ele>
        <time>2021-12-29T08:45:08Z</time>
      </trkpt>
      <trkpt lat="37.4236510" lon="-4.4535030">
        <ele>512.2</ele>
        <time>2021-12-29T08:45:09Z</time>
      </trkpt>
      <trkpt lat="37.4236580" lon="-4.4535630">
        <ele>512.2</ele>
        <time>2021-12-29T08:45:10Z</time>
      </trkpt>
      <trkpt lat="37.4236640" lon="-4.4536220">
        <ele>512.2</ele>
        <time>2021-12-29T08:45:11Z</time>
      </trkpt>
      <trkpt lat="37.4236670" lon="-4.4536830">
        <ele>512.0</ele>
        <time>2021-12-29T08:45:12Z</time>
      </trkpt>
      <trkpt lat="37.4236700" lon="-4.4537440">
        <ele>511.8</ele>
        <time>2021-12-29T08:45:13Z</time>
      </trkpt>
      <trkpt lat="37.4236700" lon="-4.4538050">
        <ele>511.8</ele>
        <time>2021-12-29T08:45:14Z</time>
      </trkpt>
      <trkpt lat="37.4236770" lon="-4.4538680">
        <ele>511.6</ele>
        <time>2021-12-29T08:45:15Z</time>
      </trkpt>
      <trkpt lat="37.4236770" lon="-4.4539330">
        <ele>511.4</ele>
        <time>2021-12-29T08:45:16Z</time>
      </trkpt>
      <trkpt lat="37.4236770" lon="-4.4539980">
        <ele>511.4</ele>
        <time>2021-12-29T08:45:17Z</time>
      </trkpt>
      <trkpt lat="37.4236770" lon="-4.4540620">
        <ele>511.2</ele>
        <time>2021-12-29T08:45:18Z</time>
      </trkpt>
      <trkpt lat="37.4236770" lon="-4.4541250">
        <ele>511.2</ele>
        <time>2021-12-29T08:45:19Z</time>
      </trkpt>
      <trkpt lat="37.4236700" lon="-4.4541900">
        <ele>511.0</ele>
        <time>2021-12-29T08:45:20Z</time>
      </trkpt>
      <trkpt lat="37.4236700" lon="-4.4542550">
        <ele>511.0</ele>
        <time>2021-12-29T08:45:21Z</time>
      </trkpt>
      <trkpt lat="37.4236700" lon="-4.4543180">
        <ele>510.8</ele>
        <time>2021-12-29T08:45:22Z</time>
      </trkpt>
      <trkpt lat="37.4236670" lon="-4.4543830">
        <ele>510.8</ele>
        <time>2021-12-29T08:45:23Z</time>
      </trkpt>
      <trkpt lat="37.4236640" lon="-4.4544470">
        <ele>510.6</ele>
        <time>2021-12-29T08:45:24Z</time>
      </trkpt>
      <trkpt lat="37.4236580" lon="-4.4545120">
        <ele>510.6</ele>
        <time>2021-12-29T08:45:25Z</time>
      </trkpt>
      <trkpt lat="37.4236510" lon="-4.4545760">
        <ele>510.4</ele>
        <time>2021-12-29T08:45:26Z</time>
      </trkpt>
      <trkpt lat="37.4236450" lon="-4.4546460">
        <ele>510.4</ele>
        <time>2021-12-29T08:45:27Z</time>
      </trkpt>
      <trkpt lat="37.4236380" lon="-4.4547130">
        <ele>510.4</ele>
        <time>2021-12-29T08:45:28Z</time>
      </trkpt>
      <trkpt lat="37.4236290" lon="-4.4547800">
        <ele>510.4</ele>
        <time>2021-12-29T08:45:29Z</time>
      </trkpt>
      <trkpt lat="37.4236220" lon="-4.4548470">
        <ele>510.4</ele>
        <time>2021-12-29T08:45:30Z</time>
      </trkpt>
      <trkpt lat="37.4236100" lon="-4.4549150">
        <ele>510.2</ele>
        <time>2021-12-29T08:45:31Z</time>
      </trkpt>
      <trkpt lat="37.4236000" lon="-4.4549830">
        <ele>510.2</ele>
        <time>2021-12-29T08:45:32Z</time>
      </trkpt>
      <trkpt lat="37.4235840" lon="-4.4550480">
        <ele>510.2</ele>
        <time>2021-12-29T08:45:33Z</time>
      </trkpt>
      <trkpt lat="37.4235710" lon="-4.4551140">
        <ele>510.0</ele>
        <time>2021-12-29T08:45:34Z</time>
      </trkpt>
      <trkpt lat="37.4235620" lon="-4.4551750">
        <ele>510.0</ele>
        <time>2021-12-29T08:45:35Z</time>
      </trkpt>
      <trkpt lat="37.4235490" lon="-4.4552380">
        <ele>510.0</ele>
        <time>2021-12-29T08:45:36Z</time>
      </trkpt>
      <trkpt lat="37.4235330" lon="-4.4553030">
        <ele>509.8</ele>
        <time>2021-12-29T08:45:37Z</time>
      </trkpt>
      <trkpt lat="37.4235200" lon="-4.4553650">
        <ele>509.8</ele>
        <time>2021-12-29T08:45:38Z</time>
      </trkpt>
      <trkpt lat="37.4235010" lon="-4.4554270">
        <ele>509.6</ele>
        <time>2021-12-29T08:45:39Z</time>
      </trkpt>
      <trkpt lat="37.4234850" lon="-4.4554900">
        <ele>509.6</ele>
        <time>2021-12-29T08:45:40Z</time>
      </trkpt>
      <trkpt lat="37.4234620" lon="-4.4555520">
        <ele>509.6</ele>
        <time>2021-12-29T08:45:41Z</time>
      </trkpt>
      <trkpt lat="37.4234400" lon="-4.4556130">
        <ele>509.6</ele>
        <time>2021-12-29T08:45:42Z</time>
      </trkpt>
      <trkpt lat="37.4234210" lon="-4.4556750">
        <ele>509.6</ele>
        <time>2021-12-29T08:45:43Z</time>
      </trkpt>
      <trkpt lat="37.4233980" lon="-4.4557380">
        <ele>509.8</ele>
        <time>2021-12-29T08:45:44Z</time>
      </trkpt>
      <trkpt lat="37.4233790" lon="-4.4557970">
        <ele>509.8</ele>
        <time>2021-12-29T08:45:45Z</time>
      </trkpt>
      <trkpt lat="37.4233540" lon="-4.4558580">
        <ele>509.6</ele>
        <time>2021-12-29T08:45:46Z</time>
      </trkpt>
      <trkpt lat="37.4233380" lon="-4.4559170">
        <ele>509.6</ele>
        <time>2021-12-29T08:45:47Z</time>
      </trkpt>
      <trkpt lat="37.4233120" lon="-4.4559760">
        <ele>509.6</ele>
        <time>2021-12-29T08:45:48Z</time>
      </trkpt>
      <trkpt lat="37.4232900" lon="-4.4560350">
        <ele>509.6</ele>
        <time>2021-12-29T08:45:49Z</time>
      </trkpt>
      <trkpt lat="37.4232670" lon="-4.4560930">
        <ele>509.6</ele>
        <time>2021-12-29T08:45:50Z</time>
      </trkpt>
      <trkpt lat="37.4232420" lon="-4.4561530">
        <ele>509.4</ele>
        <time>2021-12-29T08:45:51Z</time>
      </trkpt>
      <trkpt lat="37.4232190" lon="-4.4562120">
        <ele>509.4</ele>
        <time>2021-12-29T08:45:52Z</time>
      </trkpt>
      <trkpt lat="37.4231900" lon="-4.4562680">
        <ele>509.2</ele>
        <time>2021-12-29T08:45:53Z</time>
      </trkpt>
      <trkpt lat="37.4231650" lon="-4.4563220">
        <ele>509.2</ele>
        <time>2021-12-29T08:45:54Z</time>
      </trkpt>
      <trkpt lat="37.4231390" lon="-4.4563750">
        <ele>509.2</ele>
        <time>2021-12-29T08:45:55Z</time>
      </trkpt>
      <trkpt lat="37.4231100" lon="-4.4564250">
        <ele>509.0</ele>
        <time>2021-12-29T08:45:56Z</time>
      </trkpt>
      <trkpt lat="37.4230850" lon="-4.4564770">
        <ele>508.8</ele>
        <time>2021-12-29T08:45:57Z</time>
      </trkpt>
      <trkpt lat="37.4230530" lon="-4.4565300">
        <ele>508.8</ele>
        <time>2021-12-29T08:45:58Z</time>
      </trkpt>
      <trkpt lat="37.4230240" lon="-4.4565820">
        <ele>508.6</ele>
        <time>2021-12-29T08:45:59Z</time>
      </trkpt>
      <trkpt lat="37.4229950" lon="-4.4566350">
        <ele>508.6</ele>
        <time>2021-12-29T08:46:00Z</time>
      </trkpt>
      <trkpt lat="37.4229660" lon="-4.4566860">
        <ele>508.6</ele>
        <time>2021-12-29T08:46:01Z</time>
      </trkpt>
      <trkpt lat="37.4229340" lon="-4.4567360">
        <ele>508.4</ele>
        <time>2021-12-29T08:46:02Z</time>
      </trkpt>
      <trkpt lat="37.4229090" lon="-4.4567850">
        <ele>508.2</ele>
        <time>2021-12-29T08:46:03Z</time>
      </trkpt>
      <trkpt lat="37.4228770" lon="-4.4568330">
        <ele>508.2</ele>
        <time>2021-12-29T08:46:04Z</time>
      </trkpt>
      <trkpt lat="37.4228480" lon="-4.4568820">
        <ele>508.2</ele>
        <time>2021-12-29T08:46:05Z</time>
      </trkpt>
      <trkpt lat="37.4228160" lon="-4.4569300">
        <ele>508.0</ele>
        <time>2021-12-29T08:46:06Z</time>
      </trkpt>
      <trkpt lat="37.4227870" lon="-4.4569750">
        <ele>508.0</ele>
        <time>2021-12-29T08:46:07Z</time>
      </trkpt>
      <trkpt lat="37.4227520" lon="-4.4570180">
        <ele>507.8</ele>
        <time>2021-12-29T08:46:08Z</time>
      </trkpt>
      <trkpt lat="37.4227170" lon="-4.4570620">
        <ele>507.8</ele>
        <time>2021-12-29T08:46:09Z</time>
      </trkpt>
      <trkpt lat="37.4226880" lon="-4.4571050">
        <ele>507.8</ele>
        <time>2021-12-29T08:46:10Z</time>
      </trkpt>
      <trkpt lat="37.4226530" lon="-4.4571470">
        <ele>507.6</ele>
        <time>2021-12-29T08:46:11Z</time>
      </trkpt>
      <trkpt lat="37.4226240" lon="-4.4571870">
        <ele>507.4</ele>
        <time>2021-12-29T08:46:12Z</time>
      </trkpt>
      <trkpt lat="37.4225920" lon="-4.4572300">
        <ele>507.4</ele>
        <time>2021-12-29T08:46:13Z</time>
      </trkpt>
      <trkpt lat="37.4225630" lon="-4.4572720">
        <ele>507.2</ele>
        <time>2021-12-29T08:46:14Z</time>
      </trkpt>
      <trkpt lat="37.4225280" lon="-4.4573140">
        <ele>507.2</ele>
        <time>2021-12-29T08:46:15Z</time>
      </trkpt>
      <trkpt lat="37.4224930" lon="-4.4573530">
        <ele>507.2</ele>
        <time>2021-12-29T08:46:16Z</time>
      </trkpt>
      <trkpt lat="37.4224580" lon="-4.4573930">
        <ele>507.0</ele>
        <time>2021-12-29T08:46:17Z</time>
      </trkpt>
      <trkpt lat="37.4224260" lon="-4.4574330">
        <ele>506.8</ele>
        <time>2021-12-29T08:46:18Z</time>
      </trkpt>
      <trkpt lat="37.4223900" lon="-4.4574780">
        <ele>506.6</ele>
        <time>2021-12-29T08:46:19Z</time>
      </trkpt>
      <trkpt lat="37.4223580" lon="-4.4575250">
        <ele>506.6</ele>
        <time>2021-12-29T08:46:20Z</time>
      </trkpt>
      <trkpt lat="37.4223260" lon="-4.4575740">
        <ele>506.4</ele>
        <time>2021-12-29T08:46:21Z</time>
      </trkpt>
      <trkpt lat="37.4222940" lon="-4.4576220">
        <ele>506.2</ele>
        <time>2021-12-29T08:46:22Z</time>
      </trkpt>
      <trkpt lat="37.4222590" lon="-4.4576670">
        <ele>506.2</ele>
        <time>2021-12-29T08:46:23Z</time>
      </trkpt>
      <trkpt lat="37.4222270" lon="-4.4577100">
        <ele>506.0</ele>
        <time>2021-12-29T08:46:24Z</time>
      </trkpt>
      <trkpt lat="37.4221920" lon="-4.4577500">
        <ele>506.0</ele>
        <time>2021-12-29T08:46:25Z</time>
      </trkpt>
      <trkpt lat="37.4221600" lon="-4.4577880">
        <ele>505.8</ele>
        <time>2021-12-29T08:46:26Z</time>
      </trkpt>
      <trkpt lat="37.4221280" lon="-4.4578250">
        <ele>505.6</ele>
        <time>2021-12-29T08:46:27Z</time>
      </trkpt>
      <trkpt lat="37.4220960" lon="-4.4578630">
        <ele>505.4</ele>
        <time>2021-12-29T08:46:28Z</time>
      </trkpt>
      <trkpt lat="37.4220610" lon="-4.4579020">
        <ele>505.4</ele>
        <time>2021-12-29T08:46:29Z</time>
      </trkpt>
      <trkpt lat="37.4220290" lon="-4.4579400">
        <ele>505.2</ele>
        <time>2021-12-29T08:46:30Z</time>
      </trkpt>
      <trkpt lat="37.4219940" lon="-4.4579840">
        <ele>505.2</ele>
        <time>2021-12-29T08:46:31Z</time>
      </trkpt>
      <trkpt lat="37.4219680" lon="-4.4580300">
        <ele>505.0</ele>
        <time>2021-12-29T08:46:32Z</time>
      </trkpt>
      <trkpt lat="37.4219300" lon="-4.4580760">
        <ele>504.8</ele>
        <time>2021-12-29T08:46:33Z</time>
      </trkpt>
      <trkpt lat="37.4218980" lon="-4.4581230">
        <ele>504.8</ele>
        <time>2021-12-29T08:46:34Z</time>
      </trkpt>
      <trkpt lat="37.4218620" lon="-4.4581680">
        <ele>504.6</ele>
        <time>2021-12-29T08:46:35Z</time>
      </trkpt>
      <trkpt lat="37.4218340" lon="-4.4582120">
        <ele>504.4</ele>
        <time>2021-12-29T08:46:36Z</time>
      </trkpt>
      <trkpt lat="37.4217950" lon="-4.4582520">
        <ele>504.4</ele>
        <time>2021-12-29T08:46:37Z</time>
      </trkpt>
      <trkpt lat="37.4217570" lon="-4.4582880">
        <ele>504.2</ele>
        <time>2021-12-29T08:46:38Z</time>
      </trkpt>
      <trkpt lat="37.4217220" lon="-4.4583250">
        <ele>504.2</ele>
        <time>2021-12-29T08:46:39Z</time>
      </trkpt>
      <trkpt lat="37.4216930" lon="-4.4583670">
        <ele>504.2</ele>
        <time>2021-12-29T08:46:40Z</time>
      </trkpt>
      <trkpt lat="37.4216580" lon="-4.4584100">
        <ele>504.0</ele>
        <time>2021-12-29T08:46:41Z</time>
      </trkpt>
      <trkpt lat="37.4216220" lon="-4.4584530">
        <ele>504.0</ele>
        <time>2021-12-29T08:46:42Z</time>
      </trkpt>
      <trkpt lat="37.4215840" lon="-4.4584930">
        <ele>504.0</ele>
        <time>2021-12-29T08:46:43Z</time>
      </trkpt>
      <trkpt lat="37.4215520" lon="-4.4585330">
        <ele>504.0</ele>
        <time>2021-12-29T08:46:44Z</time>
      </trkpt>
      <trkpt lat="37.4215170" lon="-4.4585720">
        <ele>503.8</ele>
        <time>2021-12-29T08:46:45Z</time>
      </trkpt>
      <trkpt lat="37.4214820" lon="-4.4586100">
        <ele>503.6</ele>
        <time>2021-12-29T08:46:46Z</time>
      </trkpt>
      <trkpt lat="37.4214530" lon="-4.4586470">
        <ele>503.6</ele>
        <time>2021-12-29T08:46:47Z</time>
      </trkpt>
      <trkpt lat="37.4214210" lon="-4.4586880">
        <ele>503.4</ele>
        <time>2021-12-29T08:46:48Z</time>
      </trkpt>
      <trkpt lat="37.4213920" lon="-4.4587320">
        <ele>503.2</ele>
        <time>2021-12-29T08:46:49Z</time>
      </trkpt>
      <trkpt lat="37.4213630" lon="-4.4587760">
        <ele>503.0</ele>
        <time>2021-12-29T08:46:50Z</time>
      </trkpt>
      <trkpt lat="37.4213340" lon="-4.4588200">
        <ele>503.0</ele>
        <time>2021-12-29T08:46:51Z</time>
      </trkpt>
      <trkpt lat="37.4213020" lon="-4.4588600">
        <ele>503.0</ele>
        <time>2021-12-29T08:46:52Z</time>
      </trkpt>
      <trkpt lat="37.4212670" lon="-4.4588970">
        <ele>502.8</ele>
        <time>2021-12-29T08:46:53Z</time>
      </trkpt>
      <trkpt lat="37.4212350" lon="-4.4589350">
        <ele>502.8</ele>
        <time>2021-12-29T08:46:54Z</time>
      </trkpt>
      <trkpt lat="37.4212000" lon="-4.4589740">
        <ele>502.8</ele>
        <time>2021-12-29T08:46:55Z</time>
      </trkpt>
      <trkpt lat="37.4211680" lon="-4.4590120">
        <ele>502.6</ele>
        <time>2021-12-29T08:46:56Z</time>
      </trkpt>
      <trkpt lat="37.4211360" lon="-4.4590570">
        <ele>502.6</ele>
        <time>2021-12-29T08:46:57Z</time>
      </trkpt>
      <trkpt lat="37.4211010" lon="-4.4591000">
        <ele>502.4</ele>
        <time>2021-12-29T08:46:58Z</time>
      </trkpt>
      <trkpt lat="37.4210620" lon="-4.4591460">
        <ele>502.4</ele>
        <time>2021-12-29T08:46:59Z</time>
      </trkpt>
      <trkpt lat="37.4210270" lon="-4.4591960">
        <ele>502.2</ele>
        <time>2021-12-29T08:47:00Z</time>
      </trkpt>
      <trkpt lat="37.4209890" lon="-4.4592420">
        <ele>502.2</ele>
        <time>2021-12-29T08:47:01Z</time>
      </trkpt>
      <trkpt lat="37.4209570" lon="-4.4592850">
        <ele>502.2</ele>
        <time>2021-12-29T08:47:02Z</time>
      </trkpt>
      <trkpt lat="37.4209180" lon="-4.4593270">
        <ele>502.0</ele>
        <time>2021-12-29T08:47:03Z</time>
      </trkpt>
      <trkpt lat="37.4208830" lon="-4.4593720">
        <ele>502.0</ele>
        <time>2021-12-29T08:47:04Z</time>
      </trkpt>
      <trkpt lat="37.4208480" lon="-4.4594170">
        <ele>501.8</ele>
        <time>2021-12-29T08:47:05Z</time>
      </trkpt>
      <trkpt lat="37.4208190" lon="-4.4594600">
        <ele>501.8</ele>
        <time>2021-12-29T08:47:06Z</time>
      </trkpt>
      <trkpt lat="37.4207840" lon="-4.4595030">
        <ele>501.6</ele>
        <time>2021-12-29T08:47:07Z</time>
      </trkpt>
      <trkpt lat="37.4207520" lon="-4.4595480">
        <ele>501.4</ele>
        <time>2021-12-29T08:47:08Z</time>
      </trkpt>
      <trkpt lat="37.4207230" lon="-4.4595930">
        <ele>501.2</ele>
        <time>2021-12-29T08:47:09Z</time>
      </trkpt>
      <trkpt lat="37.4206880" lon="-4.4596370">
        <ele>501.2</ele>
        <time>2021-12-29T08:47:10Z</time>
      </trkpt>
      <trkpt lat="37.4206590" lon="-4.4596780">
        <ele>501.0</ele>
        <time>2021-12-29T08:47:11Z</time>
      </trkpt>
      <trkpt lat="37.4206240" lon="-4.4597200">
        <ele>500.8</ele>
        <time>2021-12-29T08:47:12Z</time>
      </trkpt>
      <trkpt lat="37.4205920" lon="-4.4597670">
        <ele>500.8</ele>
        <time>2021-12-29T08:47:13Z</time>
      </trkpt>
      <trkpt lat="37.4205600" lon="-4.4598150">
        <ele>500.6</ele>
        <time>2021-12-29T08:47:14Z</time>
      </trkpt>
      <trkpt lat="37.4205310" lon="-4.4598530">
        <ele>500.6</ele>
        <time>2021-12-29T08:47:15Z</time>
      </trkpt>
      <trkpt lat="37.4204930" lon="-4.4599080">
        <ele>500.4</ele>
        <time>2021-12-29T08:47:16Z</time>
      </trkpt>
      <trkpt lat="37.4204640" lon="-4.4599550">
        <ele>500.4</ele>
        <time>2021-12-29T08:47:17Z</time>
      </trkpt>
      <trkpt lat="37.4204380" lon="-4.4599930">
        <ele>500.2</ele>
        <time>2021-12-29T08:47:18Z</time>
      </trkpt>
      <trkpt lat="37.4204030" lon="-4.4600520">
        <ele>500.2</ele>
        <time>2021-12-29T08:47:19Z</time>
      </trkpt>
      <trkpt lat="37.4203740" lon="-4.4601000">
        <ele>500.0</ele>
        <time>2021-12-29T08:47:20Z</time>
      </trkpt>
      <trkpt lat="37.4203460" lon="-4.4601500">
        <ele>500.0</ele>
        <time>2021-12-29T08:47:21Z</time>
      </trkpt>
      <trkpt lat="37.4203140" lon="-4.4602000">
        <ele>500.0</ele>
        <time>2021-12-29T08:47:22Z</time>
      </trkpt>
      <trkpt lat="37.4202910" lon="-4.4602480">
        <ele>500.0</ele>
        <time>2021-12-29T08:47:23Z</time>
      </trkpt>
      <trkpt lat="37.4202660" lon="-4.4603000">
        <ele>500.0</ele>
        <time>2021-12-29T08:47:24Z</time>
      </trkpt>
      <trkpt lat="37.4202400" lon="-4.4603530">
        <ele>500.0</ele>
        <time>2021-12-29T08:47:25Z</time>
      </trkpt>
      <trkpt lat="37.4202080" lon="-4.4604050">
        <ele>500.0</ele>
        <time>2021-12-29T08:47:26Z</time>
      </trkpt>
      <trkpt lat="37.4201860" lon="-4.4604470">
        <ele>499.8</ele>
        <time>2021-12-29T08:47:27Z</time>
      </trkpt>
      <trkpt lat="37.4201570" lon="-4.4605080">
        <ele>499.8</ele>
        <time>2021-12-29T08:47:28Z</time>
      </trkpt>
      <trkpt lat="37.4201340" lon="-4.4605600">
        <ele>499.8</ele>
        <time>2021-12-29T08:47:29Z</time>
      </trkpt>
      <trkpt lat="37.4201150" lon="-4.4606000">
        <ele>499.8</ele>
        <time>2021-12-29T08:47:30Z</time>
      </trkpt>
      <trkpt lat="37.4200900" lon="-4.4606620">
        <ele>499.6</ele>
        <time>2021-12-29T08:47:31Z</time>
      </trkpt>
      <trkpt lat="37.4200670" lon="-4.4607130">
        <ele>499.6</ele>
        <time>2021-12-29T08:47:32Z</time>
      </trkpt>
      <trkpt lat="37.4200480" lon="-4.4607650">
        <ele>499.4</ele>
        <time>2021-12-29T08:47:33Z</time>
      </trkpt>
      <trkpt lat="37.4200290" lon="-4.4608170">
        <ele>499.4</ele>
        <time>2021-12-29T08:47:34Z</time>
      </trkpt>
      <trkpt lat="37.4200100" lon="-4.4608680">
        <ele>499.4</ele>
        <time>2021-12-29T08:47:35Z</time>
      </trkpt>
      <trkpt lat="37.4199900" lon="-4.4609200">
        <ele>499.4</ele>
        <time>2021-12-29T08:47:36Z</time>
      </trkpt>
      <trkpt lat="37.4199710" lon="-4.4609730">
        <ele>499.4</ele>
        <time>2021-12-29T08:47:37Z</time>
      </trkpt>
      <trkpt lat="37.4199520" lon="-4.4610280">
        <ele>499.4</ele>
        <time>2021-12-29T08:47:38Z</time>
      </trkpt>
      <trkpt lat="37.4199330" lon="-4.4610840">
        <ele>499.4</ele>
        <time>2021-12-29T08:47:39Z</time>
      </trkpt>
      <trkpt lat="37.4199140" lon="-4.4611370">
        <ele>499.4</ele>
        <time>2021-12-29T08:47:40Z</time>
      </trkpt>
      <trkpt lat="37.4198980" lon="-4.4611800">
        <ele>499.4</ele>
        <time>2021-12-29T08:47:41Z</time>
      </trkpt>
      <trkpt lat="37.4198780" lon="-4.4612500">
        <ele>499.4</ele>
        <time>2021-12-29T08:47:42Z</time>
      </trkpt>
      <trkpt lat="37.4198660" lon="-4.4613080">
        <ele>499.4</ele>
        <time>2021-12-29T08:47:43Z</time>
      </trkpt>
      <trkpt lat="37.4198500" lon="-4.4613650">
        <ele>499.2</ele>
        <time>2021-12-29T08:47:44Z</time>
      </trkpt>
      <trkpt lat="37.4198340" lon="-4.4614270">
        <ele>499.2</ele>
        <time>2021-12-29T08:47:45Z</time>
      </trkpt>
      <trkpt lat="37.4198180" lon="-4.4614870">
        <ele>499.2</ele>
        <time>2021-12-29T08:47:46Z</time>
      </trkpt>
      <trkpt lat="37.4198080" lon="-4.4615500">
        <ele>499.0</ele>
        <time>2021-12-29T08:47:47Z</time>
      </trkpt>
      <trkpt lat="37.4197920" lon="-4.4616100">
        <ele>499.0</ele>
        <time>2021-12-29T08:47:48Z</time>
      </trkpt>
      <trkpt lat="37.4197860" lon="-4.4616700">
        <ele>499.0</ele>
        <time>2021-12-29T08:47:49Z</time>
      </trkpt>
      <trkpt lat="37.4197730" lon="-4.4617170">
        <ele>498.8</ele>
        <time>2021-12-29T08:47:50Z</time>
      </trkpt>
      <trkpt lat="37.4197570" lon="-4.4617870">
        <ele>498.8</ele>
        <time>2021-12-29T08:47:51Z</time>
      </trkpt>
      <trkpt lat="37.4197500" lon="-4.4618450">
        <ele>498.6</ele>
        <time>2021-12-29T08:47:52Z</time>
      </trkpt>
      <trkpt lat="37.4197380" lon="-4.4619050">
        <ele>498.6</ele>
        <time>2021-12-29T08:47:53Z</time>
      </trkpt>
      <trkpt lat="37.4197310" lon="-4.4619650">
        <ele>498.6</ele>
        <time>2021-12-29T08:47:54Z</time>
      </trkpt>
      <trkpt lat="37.4197250" lon="-4.4620260">
        <ele>498.6</ele>
        <time>2021-12-29T08:47:55Z</time>
      </trkpt>
      <trkpt lat="37.4197150" lon="-4.4620880">
        <ele>498.6</ele>
        <time>2021-12-29T08:47:56Z</time>
      </trkpt>
      <trkpt lat="37.4197090" lon="-4.4621480">
        <ele>498.4</ele>
        <time>2021-12-29T08:47:57Z</time>
      </trkpt>
      <trkpt lat="37.4196960" lon="-4.4622100">
        <ele>498.2</ele>
        <time>2021-12-29T08:47:58Z</time>
      </trkpt>
      <trkpt lat="37.4196930" lon="-4.4622700">
        <ele>498.2</ele>
        <time>2021-12-29T08:47:59Z</time>
      </trkpt>
      <trkpt lat="37.4196860" lon="-4.4623280">
        <ele>498.0</ele>
        <time>2021-12-29T08:48:00Z</time>
      </trkpt>
      <trkpt lat="37.4196800" lon="-4.4623850">
        <ele>497.8</ele>
        <time>2021-12-29T08:48:01Z</time>
      </trkpt>
      <trkpt lat="37.4196770" lon="-4.4624320">
        <ele>497.8</ele>
        <time>2021-12-29T08:48:02Z</time>
      </trkpt>
      <trkpt lat="37.4196700" lon="-4.4625000">
        <ele>497.8</ele>
        <time>2021-12-29T08:48:03Z</time>
      </trkpt>
      <trkpt lat="37.4196700" lon="-4.4625620">
        <ele>497.6</ele>
        <time>2021-12-29T08:48:04Z</time>
      </trkpt>
      <trkpt lat="37.4196670" lon="-4.4626220">
        <ele>497.4</ele>
        <time>2021-12-29T08:48:05Z</time>
      </trkpt>
      <trkpt lat="37.4196640" lon="-4.4626780">
        <ele>497.4</ele>
        <time>2021-12-29T08:48:06Z</time>
      </trkpt>
      <trkpt lat="37.4196540" lon="-4.4627350">
        <ele>497.2</ele>
        <time>2021-12-29T08:48:07Z</time>
      </trkpt>
      <trkpt lat="37.4196510" lon="-4.4627820">
        <ele>497.0</ele>
        <time>2021-12-29T08:48:08Z</time>
      </trkpt>
      <trkpt lat="37.4196450" lon="-4.4628520">
        <ele>497.0</ele>
        <time>2021-12-29T08:48:09Z</time>
      </trkpt>
      <trkpt lat="37.4196350" lon="-4.4629120">
        <ele>496.8</ele>
        <time>2021-12-29T08:48:10Z</time>
      </trkpt>
      <trkpt lat="37.4196290" lon="-4.4629720">
        <ele>496.8</ele>
        <time>2021-12-29T08:48:11Z</time>
      </trkpt>
      <trkpt lat="37.4196290" lon="-4.4630320">
        <ele>496.6</ele>
        <time>2021-12-29T08:48:12Z</time>
      </trkpt>
      <trkpt lat="37.4196190" lon="-4.4630900">
        <ele>496.6</ele>
        <time>2021-12-29T08:48:13Z</time>
      </trkpt>
      <trkpt lat="37.4196160" lon="-4.4631480">
        <ele>496.4</ele>
        <time>2021-12-29T08:48:14Z</time>
      </trkpt>
      <trkpt lat="37.4196100" lon="-4.4632070">
        <ele>496.2</ele>
        <time>2021-12-29T08:48:15Z</time>
      </trkpt>
      <trkpt lat="37.4196060" lon="-4.4632640">
        <ele>496.2</ele>
        <time>2021-12-29T08:48:16Z</time>
      </trkpt>
      <trkpt lat="37.4196000" lon="-4.4633050">
        <ele>496.0</ele>
        <time>2021-12-29T08:48:17Z</time>
      </trkpt>
      <trkpt lat="37.4195940" lon="-4.4633720">
        <ele>496.0</ele>
        <time>2021-12-29T08:48:18Z</time>
      </trkpt>
      <trkpt lat="37.4195900" lon="-4.4634280">
        <ele>496.0</ele>
        <time>2021-12-29T08:48:19Z</time>
      </trkpt>
      <trkpt lat="37.4195810" lon="-4.4634880">
        <ele>496.0</ele>
        <time>2021-12-29T08:48:20Z</time>
      </trkpt>
      <trkpt lat="37.4195780" lon="-4.4635480">
        <ele>496.0</ele>
        <time>2021-12-29T08:48:21Z</time>
      </trkpt>
      <trkpt lat="37.4195740" lon="-4.4635980">
        <ele>496.0</ele>
        <time>2021-12-29T08:48:22Z</time>
      </trkpt>
      <trkpt lat="37.4195680" lon="-4.4636730">
        <ele>496.0</ele>
        <time>2021-12-29T08:48:23Z</time>
      </trkpt>
      <trkpt lat="37.4195650" lon="-4.4637380">
        <ele>496.0</ele>
        <time>2021-12-29T08:48:24Z</time>
      </trkpt>
      <trkpt lat="37.4195550" lon="-4.4638000">
        <ele>496.0</ele>
        <time>2021-12-29T08:48:25Z</time>
      </trkpt>
      <trkpt lat="37.4195520" lon="-4.4638500">
        <ele>496.0</ele>
        <time>2021-12-29T08:48:26Z</time>
      </trkpt>
      <trkpt lat="37.4195460" lon="-4.4639240">
        <ele>496.0</ele>
        <time>2021-12-29T08:48:27Z</time>
      </trkpt>
      <trkpt lat="37.4195360" lon="-4.4639850">
        <ele>496.0</ele>
        <time>2021-12-29T08:48:28Z</time>
      </trkpt>
      <trkpt lat="37.4195330" lon="-4.4640460">
        <ele>495.8</ele>
        <time>2021-12-29T08:48:29Z</time>
      </trkpt>
      <trkpt lat="37.4195260" lon="-4.4641050">
        <ele>495.8</ele>
        <time>2021-12-29T08:48:30Z</time>
      </trkpt>
      <trkpt lat="37.4195200" lon="-4.4641630">
        <ele>495.8</ele>
        <time>2021-12-29T08:48:31Z</time>
      </trkpt>
      <trkpt lat="37.4195170" lon="-4.4642230">
        <ele>495.6</ele>
        <time>2021-12-29T08:48:32Z</time>
      </trkpt>
      <trkpt lat="37.4195100" lon="-4.4642800">
        <ele>495.6</ele>
        <time>2021-12-29T08:48:33Z</time>
      </trkpt>
      <trkpt lat="37.4195010" lon="-4.4643350">
        <ele>495.4</ele>
        <time>2021-12-29T08:48:34Z</time>
      </trkpt>
      <trkpt lat="37.4194940" lon="-4.4643800">
        <ele>495.4</ele>
        <time>2021-12-29T08:48:35Z</time>
      </trkpt>
      <trkpt lat="37.4194750" lon="-4.4644520">
        <ele>495.2</ele>
        <time>2021-12-29T08:48:36Z</time>
      </trkpt>
      <trkpt lat="37.4194660" lon="-4.4645120">
        <ele>495.2</ele>
        <time>2021-12-29T08:48:37Z</time>
      </trkpt>
      <trkpt lat="37.4194500" lon="-4.4645750">
        <ele>495.2</ele>
        <time>2021-12-29T08:48:38Z</time>
      </trkpt>
      <trkpt lat="37.4194340" lon="-4.4646420">
        <ele>495.2</ele>
        <time>2021-12-29T08:48:39Z</time>
      </trkpt>
      <trkpt lat="37.4194210" lon="-4.4647050">
        <ele>495.2</ele>
        <time>2021-12-29T08:48:40Z</time>
      </trkpt>
      <trkpt lat="37.4194110" lon="-4.4647660">
        <ele>495.2</ele>
        <time>2021-12-29T08:48:41Z</time>
      </trkpt>
      <trkpt lat="37.4193950" lon="-4.4648280">
        <ele>495.0</ele>
        <time>2021-12-29T08:48:42Z</time>
      </trkpt>
      <trkpt lat="37.4193790" lon="-4.4648900">
        <ele>495.0</ele>
        <time>2021-12-29T08:48:43Z</time>
      </trkpt>
      <trkpt lat="37.4193660" lon="-4.4649480">
        <ele>495.0</ele>
        <time>2021-12-29T08:48:44Z</time>
      </trkpt>
      <trkpt lat="37.4193500" lon="-4.4650070">
        <ele>495.0</ele>
        <time>2021-12-29T08:48:45Z</time>
      </trkpt>
      <trkpt lat="37.4193340" lon="-4.4650630">
        <ele>495.0</ele>
        <time>2021-12-29T08:48:46Z</time>
      </trkpt>
      <trkpt lat="37.4193220" lon="-4.4651060">
        <ele>494.8</ele>
        <time>2021-12-29T08:48:47Z</time>
      </trkpt>
      <trkpt lat="37.4193020" lon="-4.4651620">
        <ele>494.8</ele>
        <time>2021-12-29T08:48:48Z</time>
      </trkpt>
      <trkpt lat="37.4192800" lon="-4.4652270">
        <ele>494.6</ele>
        <time>2021-12-29T08:48:49Z</time>
      </trkpt>
      <trkpt lat="37.4192670" lon="-4.4652720">
        <ele>494.6</ele>
        <time>2021-12-29T08:48:50Z</time>
      </trkpt>
      <trkpt lat="37.4192420" lon="-4.4653380">
        <ele>494.6</ele>
        <time>2021-12-29T08:48:51Z</time>
      </trkpt>
      <trkpt lat="37.4192290" lon="-4.4653870">
        <ele>494.4</ele>
        <time>2021-12-29T08:48:52Z</time>
      </trkpt>
      <trkpt lat="37.4192100" lon="-4.4654460">
        <ele>494.4</ele>
        <time>2021-12-29T08:48:53Z</time>
      </trkpt>
      <trkpt lat="37.4191810" lon="-4.4655150">
        <ele>494.2</ele>
        <time>2021-12-29T08:48:54Z</time>
      </trkpt>
      <trkpt lat="37.4191580" lon="-4.4655680">
        <ele>494.2</ele>
        <time>2021-12-29T08:48:55Z</time>
      </trkpt>
      <trkpt lat="37.4191390" lon="-4.4656100">
        <ele>494.0</ele>
        <time>2021-12-29T08:48:56Z</time>
      </trkpt>
      <trkpt lat="37.4191170" lon="-4.4656620">
        <ele>494.0</ele>
        <time>2021-12-29T08:48:57Z</time>
      </trkpt>
      <trkpt lat="37.4190940" lon="-4.4657140">
        <ele>493.8</ele>
        <time>2021-12-29T08:48:58Z</time>
      </trkpt>
      <trkpt lat="37.4190720" lon="-4.4657650">
        <ele>493.6</ele>
        <time>2021-12-29T08:48:59Z</time>
      </trkpt>
      <trkpt lat="37.4190500" lon="-4.4658160">
        <ele>493.6</ele>
        <time>2021-12-29T08:49:00Z</time>
      </trkpt>
      <trkpt lat="37.4190210" lon="-4.4658680">
        <ele>493.4</ele>
        <time>2021-12-29T08:49:01Z</time>
      </trkpt>
      <trkpt lat="37.4189950" lon="-4.4659220">
        <ele>493.2</ele>
        <time>2021-12-29T08:49:02Z</time>
      </trkpt>
      <trkpt lat="37.4189700" lon="-4.4659750">
        <ele>493.0</ele>
        <time>2021-12-29T08:49:03Z</time>
      </trkpt>
      <trkpt lat="37.4189380" lon="-4.4660250">
        <ele>493.0</ele>
        <time>2021-12-29T08:49:04Z</time>
      </trkpt>
      <trkpt lat="37.4189060" lon="-4.4660680">
        <ele>493.0</ele>
        <time>2021-12-29T08:49:05Z</time>
      </trkpt>
      <trkpt lat="37.4188770" lon="-4.4661130">
        <ele>492.8</ele>
        <time>2021-12-29T08:49:06Z</time>
      </trkpt>
      <trkpt lat="37.4188510" lon="-4.4661620">
        <ele>492.8</ele>
        <time>2021-12-29T08:49:07Z</time>
      </trkpt>
      <trkpt lat="37.4188220" lon="-4.4662080">
        <ele>492.6</ele>
        <time>2021-12-29T08:49:08Z</time>
      </trkpt>
      <trkpt lat="37.4187940" lon="-4.4662570">
        <ele>492.6</ele>
        <time>2021-12-29T08:49:09Z</time>
      </trkpt>
      <trkpt lat="37.4187580" lon="-4.4663080">
        <ele>492.4</ele>
        <time>2021-12-29T08:49:10Z</time>
      </trkpt>
      <trkpt lat="37.4187230" lon="-4.4663640">
        <ele>492.2</ele>
        <time>2021-12-29T08:49:11Z</time>
      </trkpt>
      <trkpt lat="37.4186850" lon="-4.4664270">
        <ele>492.2</ele>
        <time>2021-12-29T08:49:12Z</time>
      </trkpt>
      <trkpt lat="37.4186460" lon="-4.4664800">
        <ele>492.2</ele>
        <time>2021-12-29T08:49:13Z</time>
      </trkpt>
      <trkpt lat="37.4186140" lon="-4.4665330">
        <ele>492.0</ele>
        <time>2021-12-29T08:49:14Z</time>
      </trkpt>
      <trkpt lat="37.4185760" lon="-4.4665850">
        <ele>492.0</ele>
        <time>2021-12-29T08:49:15Z</time>
      </trkpt>
      <trkpt lat="37.4185540" lon="-4.4666270">
        <ele>492.0</ele>
        <time>2021-12-29T08:49:16Z</time>
      </trkpt>
      <trkpt lat="37.4185120" lon="-4.4666850">
        <ele>492.2</ele>
        <time>2021-12-29T08:49:17Z</time>
      </trkpt>
      <trkpt lat="37.4184800" lon="-4.4667220">
        <ele>492.2</ele>
        <time>2021-12-29T08:49:18Z</time>
      </trkpt>
      <trkpt lat="37.4184420" lon="-4.4667800">
        <ele>492.0</ele>
        <time>2021-12-29T08:49:19Z</time>
      </trkpt>
      <trkpt lat="37.4184160" lon="-4.4668170">
        <ele>492.0</ele>
        <time>2021-12-29T08:49:20Z</time>
      </trkpt>
      <trkpt lat="37.4183740" lon="-4.4668750">
        <ele>492.0</ele>
        <time>2021-12-29T08:49:21Z</time>
      </trkpt>
      <trkpt lat="37.4183390" lon="-4.4669230">
        <ele>491.8</ele>
        <time>2021-12-29T08:49:22Z</time>
      </trkpt>
      <trkpt lat="37.4183010" lon="-4.4669770">
        <ele>491.8</ele>
        <time>2021-12-29T08:49:23Z</time>
      </trkpt>
      <trkpt lat="37.4182750" lon="-4.4670180">
        <ele>491.6</ele>
        <time>2021-12-29T08:49:24Z</time>
      </trkpt>
      <trkpt lat="37.4182400" lon="-4.4670720">
        <ele>491.6</ele>
        <time>2021-12-29T08:49:25Z</time>
      </trkpt>
      <trkpt lat="37.4181950" lon="-4.4671370">
        <ele>491.4</ele>
        <time>2021-12-29T08:49:26Z</time>
      </trkpt>
      <trkpt lat="37.4181630" lon="-4.4671780">
        <ele>491.4</ele>
        <time>2021-12-29T08:49:27Z</time>
      </trkpt>
      <trkpt lat="37.4181250" lon="-4.4672300">
        <ele>491.2</ele>
        <time>2021-12-29T08:49:28Z</time>
      </trkpt>
      <trkpt lat="37.4180900" lon="-4.4672820">
        <ele>491.2</ele>
        <time>2021-12-29T08:49:29Z</time>
      </trkpt>
      <trkpt lat="37.4180450" lon="-4.4673430">
        <ele>491.2</ele>
        <time>2021-12-29T08:49:30Z</time>
      </trkpt>
      <trkpt lat="37.4180160" lon="-4.4673950">
        <ele>491.2</ele>
        <time>2021-12-29T08:49:31Z</time>
      </trkpt>
      <trkpt lat="37.4179870" lon="-4.4674380">
        <ele>491.0</ele>
        <time>2021-12-29T08:49:32Z</time>
      </trkpt>
      <trkpt lat="37.4179460" lon="-4.4674970">
        <ele>491.0</ele>
        <time>2021-12-29T08:49:33Z</time>
      </trkpt>
      <trkpt lat="37.4179100" lon="-4.4675430">
        <ele>490.8</ele>
        <time>2021-12-29T08:49:34Z</time>
      </trkpt>
      <trkpt lat="37.4178820" lon="-4.4675930">
        <ele>490.8</ele>
        <time>2021-12-29T08:49:35Z</time>
      </trkpt>
      <trkpt lat="37.4178500" lon="-4.4676320">
        <ele>490.6</ele>
        <time>2021-12-29T08:49:36Z</time>
      </trkpt>
      <trkpt lat="37.4178080" lon="-4.4676920">
        <ele>490.6</ele>
        <time>2021-12-29T08:49:37Z</time>
      </trkpt>
      <trkpt lat="37.4177860" lon="-4.4677330">
        <ele>490.6</ele>
        <time>2021-12-29T08:49:38Z</time>
      </trkpt>
      <trkpt lat="37.4177440" lon="-4.4678000">
        <ele>490.4</ele>
        <time>2021-12-29T08:49:39Z</time>
      </trkpt>
      <trkpt lat="37.4177120" lon="-4.4678570">
        <ele>490.4</ele>
        <time>2021-12-29T08:49:40Z</time>
      </trkpt>
      <trkpt lat="37.4176800" lon="-4.4679130">
        <ele>490.2</ele>
        <time>2021-12-29T08:49:41Z</time>
      </trkpt>
      <trkpt lat="37.4176510" lon="-4.4679580">
        <ele>490.2</ele>
        <time>2021-12-29T08:49:42Z</time>
      </trkpt>
      <trkpt lat="37.4176220" lon="-4.4680170">
        <ele>490.0</ele>
        <time>2021-12-29T08:49:43Z</time>
      </trkpt>
      <trkpt lat="37.4175840" lon="-4.4680870">
        <ele>489.8</ele>
        <time>2021-12-29T08:49:44Z</time>
      </trkpt>
      <trkpt lat="37.4175550" lon="-4.4681370">
        <ele>489.6</ele>
        <time>2021-12-29T08:49:45Z</time>
      </trkpt>
      <trkpt lat="37.4175260" lon="-4.4682080">
        <ele>489.6</ele>
        <time>2021-12-29T08:49:46Z</time>
      </trkpt>
      <trkpt lat="37.4175040" lon="-4.4682580">
        <ele>489.4</ele>
        <time>2021-12-29T08:49:47Z</time>
      </trkpt>
      <trkpt lat="37.4174750" lon="-4.4683280">
        <ele>489.4</ele>
        <time>2021-12-29T08:49:48Z</time>
      </trkpt>
      <trkpt lat="37.4174560" lon="-4.4683750">
        <ele>489.4</ele>
        <time>2021-12-29T08:49:49Z</time>
      </trkpt>
      <trkpt lat="37.4174270" lon="-4.4684320">
        <ele>489.2</ele>
        <time>2021-12-29T08:49:50Z</time>
      </trkpt>
      <trkpt lat="37.4174020" lon="-4.4685040">
        <ele>489.2</ele>
        <time>2021-12-29T08:49:51Z</time>
      </trkpt>
      <trkpt lat="37.4173820" lon="-4.4685540">
        <ele>489.2</ele>
        <time>2021-12-29T08:49:52Z</time>
      </trkpt>
      <trkpt lat="37.4173540" lon="-4.4686300">
        <ele>489.0</ele>
        <time>2021-12-29T08:49:53Z</time>
      </trkpt>
      <trkpt lat="37.4173340" lon="-4.4686820">
        <ele>489.0</ele>
        <time>2021-12-29T08:49:54Z</time>
      </trkpt>
      <trkpt lat="37.4173090" lon="-4.4687570">
        <ele>489.0</ele>
        <time>2021-12-29T08:49:55Z</time>
      </trkpt>
      <trkpt lat="37.4172930" lon="-4.4688050">
        <ele>488.8</ele>
        <time>2021-12-29T08:49:56Z</time>
      </trkpt>
      <trkpt lat="37.4172640" lon="-4.4688770">
        <ele>488.8</ele>
        <time>2021-12-29T08:49:57Z</time>
      </trkpt>
      <trkpt lat="37.4172450" lon="-4.4689360">
        <ele>488.6</ele>
        <time>2021-12-29T08:49:58Z</time>
      </trkpt>
      <trkpt lat="37.4172320" lon="-4.4689880">
        <ele>488.6</ele>
        <time>2021-12-29T08:49:59Z</time>
      </trkpt>
      <trkpt lat="37.4172060" lon="-4.4690930">
        <ele>488.6</ele>
        <time>2021-12-29T08:50:00Z</time>
      </trkpt>
      <trkpt lat="37.4172000" lon="-4.4691300">
        <ele>488.4</ele>
        <time>2021-12-29T08:50:01Z</time>
      </trkpt>
      <trkpt lat="37.4171870" lon="-4.4692050">
        <ele>488.4</ele>
        <time>2021-12-29T08:50:02Z</time>
      </trkpt>
      <trkpt lat="37.4171710" lon="-4.4692580">
        <ele>488.2</ele>
        <time>2021-12-29T08:50:03Z</time>
      </trkpt>
      <trkpt lat="37.4171550" lon="-4.4693380">
        <ele>488.2</ele>
        <time>2021-12-29T08:50:04Z</time>
      </trkpt>
      <trkpt lat="37.4171460" lon="-4.4693920">
        <ele>488.0</ele>
        <time>2021-12-29T08:50:05Z</time>
      </trkpt>
      <trkpt lat="37.4171300" lon="-4.4694750">
        <ele>488.0</ele>
        <time>2021-12-29T08:50:06Z</time>
      </trkpt>
      <trkpt lat="37.4171230" lon="-4.4695450">
        <ele>487.8</ele>
        <time>2021-12-29T08:50:07Z</time>
      </trkpt>
      <trkpt lat="37.4171070" lon="-4.4696120">
        <ele>487.6</ele>
        <time>2021-12-29T08:50:08Z</time>
      </trkpt>
      <trkpt lat="37.4170980" lon="-4.4696780">
        <ele>487.6</ele>
        <time>2021-12-29T08:50:09Z</time>
      </trkpt>
      <trkpt lat="37.4170880" lon="-4.4697450">
        <ele>487.4</ele>
        <time>2021-12-29T08:50:10Z</time>
      </trkpt>
      <trkpt lat="37.4170780" lon="-4.4697980">
        <ele>487.4</ele>
        <time>2021-12-29T08:50:11Z</time>
      </trkpt>
      <trkpt lat="37.4170720" lon="-4.4698650">
        <ele>487.4</ele>
        <time>2021-12-29T08:50:12Z</time>
      </trkpt>
      <trkpt lat="37.4170660" lon="-4.4699400">
        <ele>487.2</ele>
        <time>2021-12-29T08:50:13Z</time>
      </trkpt>
      <trkpt lat="37.4170620" lon="-4.4699850">
        <ele>487.2</ele>
        <time>2021-12-29T08:50:14Z</time>
      </trkpt>
      <trkpt lat="37.4170530" lon="-4.4700430">
        <ele>487.0</ele>
        <time>2021-12-29T08:50:15Z</time>
      </trkpt>
      <trkpt lat="37.4170500" lon="-4.4701020">
        <ele>487.0</ele>
        <time>2021-12-29T08:50:16Z</time>
      </trkpt>
      <trkpt lat="37.4170500" lon="-4.4701600">
        <ele>486.8</ele>
        <time>2021-12-29T08:50:17Z</time>
      </trkpt>
      <trkpt lat="37.4170500" lon="-4.4702220">
        <ele>486.6</ele>
        <time>2021-12-29T08:50:18Z</time>
      </trkpt>
      <trkpt lat="37.4170500" lon="-4.4702800">
        <ele>486.6</ele>
        <time>2021-12-29T08:50:19Z</time>
      </trkpt>
      <trkpt lat="37.4170430" lon="-4.4703380">
        <ele>486.6</ele>
        <time>2021-12-29T08:50:20Z</time>
      </trkpt>
      <trkpt lat="37.4170370" lon="-4.4703960">
        <ele>486.4</ele>
        <time>2021-12-29T08:50:21Z</time>
      </trkpt>
      <trkpt lat="37.4170340" lon="-4.4704530">
        <ele>486.4</ele>
        <time>2021-12-29T08:50:22Z</time>
      </trkpt>
      <trkpt lat="37.4170300" lon="-4.4705080">
        <ele>486.4</ele>
        <time>2021-12-29T08:50:23Z</time>
      </trkpt>
      <trkpt lat="37.4170340" lon="-4.4705680">
        <ele>486.4</ele>
        <time>2021-12-29T08:50:24Z</time>
      </trkpt>
      <trkpt lat="37.4170370" lon="-4.4706280">
        <ele>486.2</ele>
        <time>2021-12-29T08:50:25Z</time>
      </trkpt>
      <trkpt lat="37.4170430" lon="-4.4706870">
        <ele>486.2</ele>
        <time>2021-12-29T08:50:26Z</time>
      </trkpt>
      <trkpt lat="37.4170500" lon="-4.4707450">
        <ele>486.2</ele>
        <time>2021-12-29T08:50:27Z</time>
      </trkpt>
      <trkpt lat="37.4170530" lon="-4.4708030">
        <ele>486.0</ele>
        <time>2021-12-29T08:50:28Z</time>
      </trkpt>
      <trkpt lat="37.4170530" lon="-4.4708670">
        <ele>486.0</ele>
        <time>2021-12-29T08:50:29Z</time>
      </trkpt>
      <trkpt lat="37.4170610" lon="-4.4709610">
        <ele>486.0</ele>
        <time>2021-12-29T08:50:30Z</time>
      </trkpt>
      <trkpt lat="37.4170660" lon="-4.4709950">
        <ele>485.8</ele>
        <time>2021-12-29T08:50:31Z</time>
      </trkpt>
      <trkpt lat="37.4170690" lon="-4.4710420">
        <ele>485.6</ele>
        <time>2021-12-29T08:50:32Z</time>
      </trkpt>
      <trkpt lat="37.4170750" lon="-4.4711130">
        <ele>485.6</ele>
        <time>2021-12-29T08:50:33Z</time>
      </trkpt>
      <trkpt lat="37.4170780" lon="-4.4711560">
        <ele>485.6</ele>
        <time>2021-12-29T08:50:34Z</time>
      </trkpt>
      <trkpt lat="37.4170880" lon="-4.4712120">
        <ele>485.4</ele>
        <time>2021-12-29T08:50:35Z</time>
      </trkpt>
      <trkpt lat="37.4170940" lon="-4.4712670">
        <ele>485.4</ele>
        <time>2021-12-29T08:50:36Z</time>
      </trkpt>
      <trkpt lat="37.4171070" lon="-4.4713200">
        <ele>485.4</ele>
        <time>2021-12-29T08:50:37Z</time>
      </trkpt>
      <trkpt lat="37.4171170" lon="-4.4713800">
        <ele>485.2</ele>
        <time>2021-12-29T08:50:38Z</time>
      </trkpt>
      <trkpt lat="37.4171260" lon="-4.4714380">
        <ele>485.2</ele>
        <time>2021-12-29T08:50:39Z</time>
      </trkpt>
      <trkpt lat="37.4171360" lon="-4.4715000">
        <ele>485.0</ele>
        <time>2021-12-29T08:50:40Z</time>
      </trkpt>
      <trkpt lat="37.4171490" lon="-4.4715620">
        <ele>485.0</ele>
        <time>2021-12-29T08:50:41Z</time>
      </trkpt>
      <trkpt lat="37.4171650" lon="-4.4716220">
        <ele>484.8</ele>
        <time>2021-12-29T08:50:42Z</time>
      </trkpt>
      <trkpt lat="37.4171740" lon="-4.4716870">
        <ele>484.8</ele>
        <time>2021-12-29T08:50:43Z</time>
      </trkpt>
      <trkpt lat="37.4171870" lon="-4.4717480">
        <ele>484.8</ele>
        <time>2021-12-29T08:50:44Z</time>
      </trkpt>
      <trkpt lat="37.4172030" lon="-4.4718080">
        <ele>484.8</ele>
        <time>2021-12-29T08:50:45Z</time>
      </trkpt>
      <trkpt lat="37.4172160" lon="-4.4718720">
        <ele>484.8</ele>
        <time>2021-12-29T08:50:46Z</time>
      </trkpt>
      <trkpt lat="37.4172290" lon="-4.4719330">
        <ele>484.8</ele>
        <time>2021-12-29T08:50:47Z</time>
      </trkpt>
      <trkpt lat="37.4172420" lon="-4.4719940">
        <ele>484.6</ele>
        <time>2021-12-29T08:50:48Z</time>
      </trkpt>
      <trkpt lat="37.4172540" lon="-4.4720620">
        <ele>484.6</ele>
        <time>2021-12-29T08:50:49Z</time>
      </trkpt>
      <trkpt lat="37.4172700" lon="-4.4721060">
        <ele>484.6</ele>
        <time>2021-12-29T08:50:50Z</time>
      </trkpt>
      <trkpt lat="37.4172930" lon="-4.4721780">
        <ele>484.6</ele>
        <time>2021-12-29T08:50:51Z</time>
      </trkpt>
      <trkpt lat="37.4173090" lon="-4.4722400">
        <ele>484.6</ele>
        <time>2021-12-29T08:50:52Z</time>
      </trkpt>
      <trkpt lat="37.4173310" lon="-4.4723020">
        <ele>484.6</ele>
        <time>2021-12-29T08:50:53Z</time>
      </trkpt>
      <trkpt lat="37.4173470" lon="-4.4723520">
        <ele>484.4</ele>
        <time>2021-12-29T08:50:54Z</time>
      </trkpt>
      <trkpt lat="37.4173700" lon="-4.4724250">
        <ele>484.4</ele>
        <time>2021-12-29T08:50:55Z</time>
      </trkpt>
      <trkpt lat="37.4173920" lon="-4.4724820">
        <ele>484.2</ele>
        <time>2021-12-29T08:50:56Z</time>
      </trkpt>
      <trkpt lat="37.4174080" lon="-4.4725280">
        <ele>484.2</ele>
        <time>2021-12-29T08:50:57Z</time>
      </trkpt>
      <trkpt lat="37.4174270" lon="-4.4725850">
        <ele>484.2</ele>
        <time>2021-12-29T08:50:58Z</time>
      </trkpt>
      <trkpt lat="37.4174460" lon="-4.4726430">
        <ele>484.2</ele>
        <time>2021-12-29T08:50:59Z</time>
      </trkpt>
      <trkpt lat="37.4174660" lon="-4.4727000">
        <ele>484.2</ele>
        <time>2021-12-29T08:51:00Z</time>
      </trkpt>
      <trkpt lat="37.4174880" lon="-4.4727600">
        <ele>484.0</ele>
        <time>2021-12-29T08:51:01Z</time>
      </trkpt>
      <trkpt lat="37.4175140" lon="-4.4728280">
        <ele>484.0</ele>
        <time>2021-12-29T08:51:02Z</time>
      </trkpt>
      <trkpt lat="37.4175300" lon="-4.4728730">
        <ele>484.0</ele>
        <time>2021-12-29T08:51:03Z</time>
      </trkpt>
      <trkpt lat="37.4175550" lon="-4.4729430">
        <ele>483.8</ele>
        <time>2021-12-29T08:51:04Z</time>
      </trkpt>
      <trkpt lat="37.4175810" lon="-4.4730020">
        <ele>483.8</ele>
        <time>2021-12-29T08:51:05Z</time>
      </trkpt>
      <trkpt lat="37.4176000" lon="-4.4730520">
        <ele>483.6</ele>
        <time>2021-12-29T08:51:06Z</time>
      </trkpt>
      <trkpt lat="37.4176220" lon="-4.4731120">
        <ele>483.6</ele>
        <time>2021-12-29T08:51:07Z</time>
      </trkpt>
      <trkpt lat="37.4176450" lon="-4.4731730">
        <ele>483.6</ele>
        <time>2021-12-29T08:51:08Z</time>
      </trkpt>
      <trkpt lat="37.4176740" lon="-4.4732500">
        <ele>483.4</ele>
        <time>2021-12-29T08:51:09Z</time>
      </trkpt>
      <trkpt lat="37.4177020" lon="-4.4733150">
        <ele>483.4</ele>
        <time>2021-12-29T08:51:10Z</time>
      </trkpt>
      <trkpt lat="37.4177220" lon="-4.4733770">
        <ele>483.2</ele>
        <time>2021-12-29T08:51:11Z</time>
      </trkpt>
      <trkpt lat="37.4177410" lon="-4.4734270">
        <ele>483.0</ele>
        <time>2021-12-29T08:51:12Z</time>
      </trkpt>
      <trkpt lat="37.4177630" lon="-4.4735050">
        <ele>483.0</ele>
        <time>2021-12-29T08:51:13Z</time>
      </trkpt>
      <trkpt lat="37.4177860" lon="-4.4735720">
        <ele>482.8</ele>
        <time>2021-12-29T08:51:14Z</time>
      </trkpt>
      <trkpt lat="37.4178050" lon="-4.4736230">
        <ele>482.8</ele>
        <time>2021-12-29T08:51:15Z</time>
      </trkpt>
      <trkpt lat="37.4178270" lon="-4.4736900">
        <ele>482.6</ele>
        <time>2021-12-29T08:51:16Z</time>
      </trkpt>
      <trkpt lat="37.4178460" lon="-4.4737550">
        <ele>482.6</ele>
        <time>2021-12-29T08:51:17Z</time>
      </trkpt>
      <trkpt lat="37.4178720" lon="-4.4738250">
        <ele>482.6</ele>
        <time>2021-12-29T08:51:18Z</time>
      </trkpt>
      <trkpt lat="37.4178980" lon="-4.4738820">
        <ele>482.4</ele>
        <time>2021-12-29T08:51:19Z</time>
      </trkpt>
      <trkpt lat="37.4179100" lon="-4.4739260">
        <ele>482.4</ele>
        <time>2021-12-29T08:51:20Z</time>
      </trkpt>
      <trkpt lat="37.4179300" lon="-4.4739850">
        <ele>482.4</ele>
        <time>2021-12-29T08:51:21Z</time>
      </trkpt>
      <trkpt lat="37.4179580" lon="-4.4740520">
        <ele>482.2</ele>
        <time>2021-12-29T08:51:22Z</time>
      </trkpt>
      <trkpt lat="37.4179810" lon="-4.4741070">
        <ele>482.2</ele>
        <time>2021-12-29T08:51:23Z</time>
      </trkpt>
      <trkpt lat="37.4179970" lon="-4.4741520">
        <ele>482.0</ele>
        <time>2021-12-29T08:51:24Z</time>
      </trkpt>
      <trkpt lat="37.4180220" lon="-4.4742050">
        <ele>481.8</ele>
        <time>2021-12-29T08:51:25Z</time>
      </trkpt>
      <trkpt lat="37.4180450" lon="-4.4742580">
        <ele>481.8</ele>
        <time>2021-12-29T08:51:26Z</time>
      </trkpt>
      <trkpt lat="37.4180670" lon="-4.4743180">
        <ele>481.6</ele>
        <time>2021-12-29T08:51:27Z</time>
      </trkpt>
      <trkpt lat="37.4180830" lon="-4.4743570">
        <ele>481.6</ele>
        <time>2021-12-29T08:51:28Z</time>
      </trkpt>
      <trkpt lat="37.4181020" lon="-4.4744080">
        <ele>481.6</ele>
        <time>2021-12-29T08:51:29Z</time>
      </trkpt>
      <trkpt lat="37.4181220" lon="-4.4744600">
        <ele>481.4</ele>
        <time>2021-12-29T08:51:30Z</time>
      </trkpt>
      <trkpt lat="37.4181440" lon="-4.4745300">
        <ele>481.4</ele>
        <time>2021-12-29T08:51:31Z</time>
      </trkpt>
      <trkpt lat="37.4181570" lon="-4.4745750">
        <ele>481.4</ele>
        <time>2021-12-29T08:51:32Z</time>
      </trkpt>
      <trkpt lat="37.4181790" lon="-4.4746300">
        <ele>481.4</ele>
        <time>2021-12-29T08:51:33Z</time>
      </trkpt>
      <trkpt lat="37.4181980" lon="-4.4746980">
        <ele>481.4</ele>
        <time>2021-12-29T08:51:34Z</time>
      </trkpt>
      <trkpt lat="37.4182180" lon="-4.4747400">
        <ele>481.4</ele>
        <time>2021-12-29T08:51:35Z</time>
      </trkpt>
      <trkpt lat="37.4182400" lon="-4.4748040">
        <ele>481.4</ele>
        <time>2021-12-29T08:51:36Z</time>
      </trkpt>
      <trkpt lat="37.4182560" lon="-4.4748440">
        <ele>481.2</ele>
        <time>2021-12-29T08:51:37Z</time>
      </trkpt>
      <trkpt lat="37.4182690" lon="-4.4748960">
        <ele>481.2</ele>
        <time>2021-12-29T08:51:38Z</time>
      </trkpt>
      <trkpt lat="37.4182940" lon="-4.4749500">
        <ele>481.4</ele>
        <time>2021-12-29T08:51:39Z</time>
      </trkpt>
      <trkpt lat="37.4183140" lon="-4.4750030">
        <ele>481.4</ele>
        <time>2021-12-29T08:51:40Z</time>
      </trkpt>
      <trkpt lat="37.4183260" lon="-4.4750570">
        <ele>481.4</ele>
        <time>2021-12-29T08:51:41Z</time>
      </trkpt>
      <trkpt lat="37.4183460" lon="-4.4751120">
        <ele>481.4</ele>
        <time>2021-12-29T08:51:42Z</time>
      </trkpt>
      <trkpt lat="37.4183650" lon="-4.4751650">
        <ele>481.4</ele>
        <time>2021-12-29T08:51:43Z</time>
      </trkpt>
      <trkpt lat="37.4183840" lon="-4.4752170">
        <ele>481.4</ele>
        <time>2021-12-29T08:51:44Z</time>
      </trkpt>
      <trkpt lat="37.4184060" lon="-4.4752680">
        <ele>481.4</ele>
        <time>2021-12-29T08:51:45Z</time>
      </trkpt>
      <trkpt lat="37.4184260" lon="-4.4753220">
        <ele>481.2</ele>
        <time>2021-12-29T08:51:46Z</time>
      </trkpt>
      <trkpt lat="37.4184480" lon="-4.4753780">
        <ele>481.2</ele>
        <time>2021-12-29T08:51:47Z</time>
      </trkpt>
      <trkpt lat="37.4184670" lon="-4.4754350">
        <ele>481.0</ele>
        <time>2021-12-29T08:51:48Z</time>
      </trkpt>
      <trkpt lat="37.4184830" lon="-4.4754900">
        <ele>480.8</ele>
        <time>2021-12-29T08:51:49Z</time>
      </trkpt>
      <trkpt lat="37.4185020" lon="-4.4755420">
        <ele>480.8</ele>
        <time>2021-12-29T08:51:50Z</time>
      </trkpt>
      <trkpt lat="37.4185220" lon="-4.4755920">
        <ele>480.6</ele>
        <time>2021-12-29T08:51:51Z</time>
      </trkpt>
      <trkpt lat="37.4185410" lon="-4.4756450">
        <ele>480.6</ele>
        <time>2021-12-29T08:51:52Z</time>
      </trkpt>
      <trkpt lat="37.4185570" lon="-4.4756980">
        <ele>480.6</ele>
        <time>2021-12-29T08:51:53Z</time>
      </trkpt>
      <trkpt lat="37.4185730" lon="-4.4757500">
        <ele>480.6</ele>
        <time>2021-12-29T08:51:54Z</time>
      </trkpt>
      <trkpt lat="37.4185920" lon="-4.4758000">
        <ele>480.4</ele>
        <time>2021-12-29T08:51:55Z</time>
      </trkpt>
      <trkpt lat="37.4186140" lon="-4.4758480">
        <ele>480.4</ele>
        <time>2021-12-29T08:51:56Z</time>
      </trkpt>
      <trkpt lat="37.4186270" lon="-4.4759000">
        <ele>480.4</ele>
        <time>2021-12-29T08:51:57Z</time>
      </trkpt>
      <trkpt lat="37.4186460" lon="-4.4759520">
        <ele>480.4</ele>
        <time>2021-12-29T08:51:58Z</time>
      </trkpt>
      <trkpt lat="37.4186660" lon="-4.4760050">
        <ele>480.6</ele>
        <time>2021-12-29T08:51:59Z</time>
      </trkpt>
      <trkpt lat="37.4186820" lon="-4.4760620">
        <ele>480.4</ele>
        <time>2021-12-29T08:52:00Z</time>
      </trkpt>
      <trkpt lat="37.4187010" lon="-4.4761180">
        <ele>480.4</ele>
        <time>2021-12-29T08:52:01Z</time>
      </trkpt>
      <trkpt lat="37.4187170" lon="-4.4761740">
        <ele>480.6</ele>
        <time>2021-12-29T08:52:02Z</time>
      </trkpt>
      <trkpt lat="37.4187360" lon="-4.4762280">
        <ele>480.6</ele>
        <time>2021-12-29T08:52:03Z</time>
      </trkpt>
      <trkpt lat="37.4187550" lon="-4.4762840">
        <ele>480.4</ele>
        <time>2021-12-29T08:52:04Z</time>
      </trkpt>
      <trkpt lat="37.4187740" lon="-4.4763380">
        <ele>480.4</ele>
        <time>2021-12-29T08:52:05Z</time>
      </trkpt>
      <trkpt lat="37.4187900" lon="-4.4763930">
        <ele>480.4</ele>
        <time>2021-12-29T08:52:06Z</time>
      </trkpt>
      <trkpt lat="37.4188130" lon="-4.4764600">
        <ele>480.4</ele>
        <time>2021-12-29T08:52:07Z</time>
      </trkpt>
      <trkpt lat="37.4188260" lon="-4.4765170">
        <ele>480.2</ele>
        <time>2021-12-29T08:52:08Z</time>
      </trkpt>
      <trkpt lat="37.4188420" lon="-4.4765640">
        <ele>480.0</ele>
        <time>2021-12-29T08:52:09Z</time>
      </trkpt>
      <trkpt lat="37.4188610" lon="-4.4766180">
        <ele>480.0</ele>
        <time>2021-12-29T08:52:10Z</time>
      </trkpt>
      <trkpt lat="37.4188770" lon="-4.4766720">
        <ele>479.8</ele>
        <time>2021-12-29T08:52:11Z</time>
      </trkpt>
      <trkpt lat="37.4188960" lon="-4.4767350">
        <ele>479.8</ele>
        <time>2021-12-29T08:52:12Z</time>
      </trkpt>
      <trkpt lat="37.4189120" lon="-4.4767820">
        <ele>479.8</ele>
        <time>2021-12-29T08:52:13Z</time>
      </trkpt>
      <trkpt lat="37.4189310" lon="-4.4768370">
        <ele>479.6</ele>
        <time>2021-12-29T08:52:14Z</time>
      </trkpt>
      <trkpt lat="37.4189540" lon="-4.4768940">
        <ele>479.6</ele>
        <time>2021-12-29T08:52:15Z</time>
      </trkpt>
      <trkpt lat="37.4189730" lon="-4.4769480">
        <ele>479.4</ele>
        <time>2021-12-29T08:52:16Z</time>
      </trkpt>
      <trkpt lat="37.4189920" lon="-4.4770020">
        <ele>479.4</ele>
        <time>2021-12-29T08:52:17Z</time>
      </trkpt>
      <trkpt lat="37.4190110" lon="-4.4770550">
        <ele>479.2</ele>
        <time>2021-12-29T08:52:18Z</time>
      </trkpt>
      <trkpt lat="37.4190300" lon="-4.4771130">
        <ele>479.2</ele>
        <time>2021-12-29T08:52:19Z</time>
      </trkpt>
      <trkpt lat="37.4190530" lon="-4.4771700">
        <ele>479.2</ele>
        <time>2021-12-29T08:52:20Z</time>
      </trkpt>
      <trkpt lat="37.4190720" lon="-4.4772400">
        <ele>479.2</ele>
        <time>2021-12-29T08:52:21Z</time>
      </trkpt>
      <trkpt lat="37.4190910" lon="-4.4772970">
        <ele>479.2</ele>
        <time>2021-12-29T08:52:22Z</time>
      </trkpt>
      <trkpt lat="37.4191040" lon="-4.4773420">
        <ele>479.2</ele>
        <time>2021-12-29T08:52:23Z</time>
      </trkpt>
      <trkpt lat="37.4191300" lon="-4.4773950">
        <ele>479.0</ele>
        <time>2021-12-29T08:52:24Z</time>
      </trkpt>
      <trkpt lat="37.4191520" lon="-4.4774630">
        <ele>479.0</ele>
        <time>2021-12-29T08:52:25Z</time>
      </trkpt>
      <trkpt lat="37.4191620" lon="-4.4775100">
        <ele>479.0</ele>
        <time>2021-12-29T08:52:26Z</time>
      </trkpt>
      <trkpt lat="37.4191810" lon="-4.4775780">
        <ele>479.0</ele>
        <time>2021-12-29T08:52:27Z</time>
      </trkpt>
      <trkpt lat="37.4192000" lon="-4.4776220">
        <ele>479.0</ele>
        <time>2021-12-29T08:52:28Z</time>
      </trkpt>
      <trkpt lat="37.4192190" lon="-4.4776740">
        <ele>478.8</ele>
        <time>2021-12-29T08:52:29Z</time>
      </trkpt>
      <trkpt lat="37.4192380" lon="-4.4777250">
        <ele>478.8</ele>
        <time>2021-12-29T08:52:30Z</time>
      </trkpt>
      <trkpt lat="37.4192580" lon="-4.4777750">
        <ele>478.6</ele>
        <time>2021-12-29T08:52:31Z</time>
      </trkpt>
      <trkpt lat="37.4192770" lon="-4.4778260">
        <ele>478.6</ele>
        <time>2021-12-29T08:52:32Z</time>
      </trkpt>
      <trkpt lat="37.4192960" lon="-4.4778780">
        <ele>478.6</ele>
        <time>2021-12-29T08:52:33Z</time>
      </trkpt>
      <trkpt lat="37.4193220" lon="-4.4779450">
        <ele>478.6</ele>
        <time>2021-12-29T08:52:34Z</time>
      </trkpt>
      <trkpt lat="37.4193460" lon="-4.4780230">
        <ele>478.4</ele>
        <time>2021-12-29T08:52:35Z</time>
      </trkpt>
      <trkpt lat="37.4193540" lon="-4.4780450">
        <ele>478.4</ele>
        <time>2021-12-29T08:52:36Z</time>
      </trkpt>
      <trkpt lat="37.4193730" lon="-4.4781000">
        <ele>478.4</ele>
        <time>2021-12-29T08:52:37Z</time>
      </trkpt>
      <trkpt lat="37.4193920" lon="-4.4781550">
        <ele>478.4</ele>
        <time>2021-12-29T08:52:38Z</time>
      </trkpt>
      <trkpt lat="37.4194140" lon="-4.4782250">
        <ele>478.2</ele>
        <time>2021-12-29T08:52:39Z</time>
      </trkpt>
      <trkpt lat="37.4194340" lon="-4.4782700">
        <ele>478.2</ele>
        <time>2021-12-29T08:52:40Z</time>
      </trkpt>
      <trkpt lat="37.4194530" lon="-4.4783300">
        <ele>478.2</ele>
        <time>2021-12-29T08:52:41Z</time>
      </trkpt>
      <trkpt lat="37.4194720" lon="-4.4783950">
        <ele>478.0</ele>
        <time>2021-12-29T08:52:42Z</time>
      </trkpt>
      <trkpt lat="37.4194980" lon="-4.4784650">
        <ele>478.0</ele>
        <time>2021-12-29T08:52:43Z</time>
      </trkpt>
      <trkpt lat="37.4195200" lon="-4.4785220">
        <ele>478.0</ele>
        <time>2021-12-29T08:52:44Z</time>
      </trkpt>
      <trkpt lat="37.4195460" lon="-4.4785820">
        <ele>477.8</ele>
        <time>2021-12-29T08:52:45Z</time>
      </trkpt>
      <trkpt lat="37.4195680" lon="-4.4786420">
        <ele>477.6</ele>
        <time>2021-12-29T08:52:46Z</time>
      </trkpt>
      <trkpt lat="37.4195900" lon="-4.4787020">
        <ele>477.4</ele>
        <time>2021-12-29T08:52:47Z</time>
      </trkpt>
      <trkpt lat="37.4196100" lon="-4.4787640">
        <ele>477.4</ele>
        <time>2021-12-29T08:52:48Z</time>
      </trkpt>
      <trkpt lat="37.4196320" lon="-4.4788220">
        <ele>477.2</ele>
        <time>2021-12-29T08:52:49Z</time>
      </trkpt>
      <trkpt lat="37.4196510" lon="-4.4788680">
        <ele>477.2</ele>
        <time>2021-12-29T08:52:50Z</time>
      </trkpt>
      <trkpt lat="37.4196740" lon="-4.4789230">
        <ele>477.0</ele>
        <time>2021-12-29T08:52:51Z</time>
      </trkpt>
      <trkpt lat="37.4196960" lon="-4.4789800">
        <ele>477.0</ele>
        <time>2021-12-29T08:52:52Z</time>
      </trkpt>
      <trkpt lat="37.4197180" lon="-4.4790480">
        <ele>476.8</ele>
        <time>2021-12-29T08:52:53Z</time>
      </trkpt>
      <trkpt lat="37.4197340" lon="-4.4790970">
        <ele>476.8</ele>
        <time>2021-12-29T08:52:54Z</time>
      </trkpt>
      <trkpt lat="37.4197570" lon="-4.4791530">
        <ele>476.6</ele>
        <time>2021-12-29T08:52:55Z</time>
      </trkpt>
      <trkpt lat="37.4197760" lon="-4.4792080">
        <ele>476.6</ele>
        <time>2021-12-29T08:52:56Z</time>
      </trkpt>
      <trkpt lat="37.4197980" lon="-4.4792780">
        <ele>476.4</ele>
        <time>2021-12-29T08:52:57Z</time>
      </trkpt>
      <trkpt lat="37.4198140" lon="-4.4793250">
        <ele>476.2</ele>
        <time>2021-12-29T08:52:58Z</time>
      </trkpt>
      <trkpt lat="37.4198370" lon="-4.4793950">
        <ele>476.0</ele>
        <time>2021-12-29T08:52:59Z</time>
      </trkpt>
      <trkpt lat="37.4198530" lon="-4.4794500">
        <ele>475.8</ele>
        <time>2021-12-29T08:53:00Z</time>
      </trkpt>
      <trkpt lat="37.4198720" lon="-4.4794960">
        <ele>475.8</ele>
        <time>2021-12-29T08:53:01Z</time>
      </trkpt>
      <trkpt lat="37.4198910" lon="-4.4795520">
        <ele>475.6</ele>
        <time>2021-12-29T08:53:02Z</time>
      </trkpt>
      <trkpt lat="37.4199100" lon="-4.4796070">
        <ele>475.4</ele>
        <time>2021-12-29T08:53:03Z</time>
      </trkpt>
      <trkpt lat="37.4199300" lon="-4.4796630">
        <ele>475.4</ele>
        <time>2021-12-29T08:53:04Z</time>
      </trkpt>
      <trkpt lat="37.4199460" lon="-4.4797170">
        <ele>475.2</ele>
        <time>2021-12-29T08:53:05Z</time>
      </trkpt>
      <trkpt lat="37.4199680" lon="-4.4797700">
        <ele>475.2</ele>
        <time>2021-12-29T08:53:06Z</time>
      </trkpt>
      <trkpt lat="37.4199870" lon="-4.4798260">
        <ele>475.0</ele>
        <time>2021-12-29T08:53:07Z</time>
      </trkpt>
      <trkpt lat="37.4200130" lon="-4.4798830">
        <ele>475.0</ele>
        <time>2021-12-29T08:53:08Z</time>
      </trkpt>
      <trkpt lat="37.4200350" lon="-4.4799380">
        <ele>474.8</ele>
        <time>2021-12-29T08:53:09Z</time>
      </trkpt>
      <trkpt lat="37.4200540" lon="-4.4799950">
        <ele>474.8</ele>
        <time>2021-12-29T08:53:10Z</time>
      </trkpt>
      <trkpt lat="37.4200830" lon="-4.4800540">
        <ele>474.6</ele>
        <time>2021-12-29T08:53:11Z</time>
      </trkpt>
      <trkpt lat="37.4201060" lon="-4.4801140">
        <ele>474.4</ele>
        <time>2021-12-29T08:53:12Z</time>
      </trkpt>
      <trkpt lat="37.4201250" lon="-4.4801730">
        <ele>474.2</ele>
        <time>2021-12-29T08:53:13Z</time>
      </trkpt>
      <trkpt lat="37.4201470" lon="-4.4802330">
        <ele>474.0</ele>
        <time>2021-12-29T08:53:14Z</time>
      </trkpt>
      <trkpt lat="37.4201700" lon="-4.4803030">
        <ele>474.0</ele>
        <time>2021-12-29T08:53:15Z</time>
      </trkpt>
      <trkpt lat="37.4201920" lon="-4.4803620">
        <ele>473.8</ele>
        <time>2021-12-29T08:53:16Z</time>
      </trkpt>
      <trkpt lat="37.4202110" lon="-4.4804270">
        <ele>473.6</ele>
        <time>2021-12-29T08:53:17Z</time>
      </trkpt>
      <trkpt lat="37.4202270" lon="-4.4804740">
        <ele>473.6</ele>
        <time>2021-12-29T08:53:18Z</time>
      </trkpt>
      <trkpt lat="37.4202530" lon="-4.4805500">
        <ele>473.4</ele>
        <time>2021-12-29T08:53:19Z</time>
      </trkpt>
      <trkpt lat="37.4202750" lon="-4.4806130">
        <ele>473.4</ele>
        <time>2021-12-29T08:53:20Z</time>
      </trkpt>
      <trkpt lat="37.4202940" lon="-4.4806800">
        <ele>473.2</ele>
        <time>2021-12-29T08:53:21Z</time>
      </trkpt>
      <trkpt lat="37.4203140" lon="-4.4807450">
        <ele>473.2</ele>
        <time>2021-12-29T08:53:22Z</time>
      </trkpt>
      <trkpt lat="37.4203390" lon="-4.4808070">
        <ele>473.0</ele>
        <time>2021-12-29T08:53:23Z</time>
      </trkpt>
      <trkpt lat="37.4203550" lon="-4.4808550">
        <ele>473.0</ele>
        <time>2021-12-29T08:53:24Z</time>
      </trkpt>
      <trkpt lat="37.4203740" lon="-4.4809280">
        <ele>473.0</ele>
        <time>2021-12-29T08:53:25Z</time>
      </trkpt>
      <trkpt lat="37.4203900" lon="-4.4809760">
        <ele>473.0</ele>
        <time>2021-12-29T08:53:26Z</time>
      </trkpt>
      <trkpt lat="37.4204100" lon="-4.4810350">
        <ele>472.8</ele>
        <time>2021-12-29T08:53:27Z</time>
      </trkpt>
      <trkpt lat="37.4204290" lon="-4.4811070">
        <ele>472.8</ele>
        <time>2021-12-29T08:53:28Z</time>
      </trkpt>
      <trkpt lat="37.4204480" lon="-4.4811640">
        <ele>472.8</ele>
        <time>2021-12-29T08:53:29Z</time>
      </trkpt>
      <trkpt lat="37.4204640" lon="-4.4812200">
        <ele>472.6</ele>
        <time>2021-12-29T08:53:30Z</time>
      </trkpt>
      <trkpt lat="37.4204800" lon="-4.4812680">
        <ele>472.6</ele>
        <time>2021-12-29T08:53:31Z</time>
      </trkpt>
      <trkpt lat="37.4204990" lon="-4.4813280">
        <ele>472.6</ele>
        <time>2021-12-29T08:53:32Z</time>
      </trkpt>
      <trkpt lat="37.4205120" lon="-4.4813830">
        <ele>472.6</ele>
        <time>2021-12-29T08:53:33Z</time>
      </trkpt>
      <trkpt lat="37.4205280" lon="-4.4814440">
        <ele>472.6</ele>
        <time>2021-12-29T08:53:34Z</time>
      </trkpt>
      <trkpt lat="37.4205410" lon="-4.4815020">
        <ele>472.8</ele>
        <time>2021-12-29T08:53:35Z</time>
      </trkpt>
      <trkpt lat="37.4205500" lon="-4.4815600">
        <ele>472.8</ele>
        <time>2021-12-29T08:53:36Z</time>
      </trkpt>
      <trkpt lat="37.4205700" lon="-4.4816160">
        <ele>472.8</ele>
        <time>2021-12-29T08:53:37Z</time>
      </trkpt>
      <trkpt lat="37.4205790" lon="-4.4816500">
        <ele>472.6</ele>
        <time>2021-12-29T08:53:38Z</time>
      </trkpt>
      <trkpt lat="37.4205920" lon="-4.4816830">
        <ele>472.6</ele>
        <time>2021-12-29T08:53:39Z</time>
      </trkpt>
      <trkpt lat="37.4206050" lon="-4.4817130">
        <ele>472.4</ele>
        <time>2021-12-29T08:53:40Z</time>
      </trkpt>
      <trkpt lat="37.4206210" lon="-4.4817400">
        <ele>472.4</ele>
        <time>2021-12-29T08:53:41Z</time>
      </trkpt>
      <trkpt lat="37.4206270" lon="-4.4817630">
        <ele>472.4</ele>
        <time>2021-12-29T08:53:42Z</time>
      </trkpt>
      <trkpt lat="37.4206400" lon="-4.4817900">
        <ele>472.4</ele>
        <time>2021-12-29T08:53:43Z</time>
      </trkpt>
      <trkpt lat="37.4206460" lon="-4.4818170">
        <ele>472.2</ele>
        <time>2021-12-29T08:53:44Z</time>
      </trkpt>
      <trkpt lat="37.4206460" lon="-4.4818480">
        <ele>472.2</ele>
        <time>2021-12-29T08:53:45Z</time>
      </trkpt>
      <trkpt lat="37.4206460" lon="-4.4818840">
        <ele>472.2</ele>
        <time>2021-12-29T08:53:46Z</time>
      </trkpt>
      <trkpt lat="37.4206460" lon="-4.4819250">
        <ele>472.0</ele>
        <time>2021-12-29T08:53:47Z</time>
      </trkpt>
      <trkpt lat="37.4206530" lon="-4.4819620">
        <ele>472.0</ele>
        <time>2021-12-29T08:53:48Z</time>
      </trkpt>
      <trkpt lat="37.4206590" lon="-4.4820080">
        <ele>472.0</ele>
        <time>2021-12-29T08:53:49Z</time>
      </trkpt>
      <trkpt lat="37.4206620" lon="-4.4820530">
        <ele>472.0</ele>
        <time>2021-12-29T08:53:50Z</time>
      </trkpt>
      <trkpt lat="37.4206660" lon="-4.4820980">
        <ele>471.8</ele>
        <time>2021-12-29T08:53:51Z</time>
      </trkpt>
      <trkpt lat="37.4206780" lon="-4.4821420">
        <ele>471.8</ele>
        <time>2021-12-29T08:53:52Z</time>
      </trkpt>
      <trkpt lat="37.4206780" lon="-4.4821950">
        <ele>471.8</ele>
        <time>2021-12-29T08:53:53Z</time>
      </trkpt>
      <trkpt lat="37.4206820" lon="-4.4822480">
        <ele>471.8</ele>
        <time>2021-12-29T08:53:54Z</time>
      </trkpt>
      <trkpt lat="37.4206850" lon="-4.4823020">
        <ele>471.6</ele>
        <time>2021-12-29T08:53:55Z</time>
      </trkpt>
      <trkpt lat="37.4206880" lon="-4.4823580">
        <ele>471.6</ele>
        <time>2021-12-29T08:53:56Z</time>
      </trkpt>
      <trkpt lat="37.4206980" lon="-4.4824150">
        <ele>471.4</ele>
        <time>2021-12-29T08:53:57Z</time>
      </trkpt>
      <trkpt lat="37.4207010" lon="-4.4824850">
        <ele>471.4</ele>
        <time>2021-12-29T08:53:58Z</time>
      </trkpt>
      <trkpt lat="37.4207010" lon="-4.4825300">
        <ele>471.2</ele>
        <time>2021-12-29T08:53:59Z</time>
      </trkpt>
      <trkpt lat="37.4207070" lon="-4.4826040">
        <ele>471.2</ele>
        <time>2021-12-29T08:54:00Z</time>
      </trkpt>
      <trkpt lat="37.4207100" lon="-4.4826550">
        <ele>471.2</ele>
        <time>2021-12-29T08:54:01Z</time>
      </trkpt>
      <trkpt lat="37.4207100" lon="-4.4827020">
        <ele>471.0</ele>
        <time>2021-12-29T08:54:02Z</time>
      </trkpt>
      <trkpt lat="37.4207170" lon="-4.4827620">
        <ele>471.0</ele>
        <time>2021-12-29T08:54:03Z</time>
      </trkpt>
      <trkpt lat="37.4207200" lon="-4.4828270">
        <ele>471.0</ele>
        <time>2021-12-29T08:54:04Z</time>
      </trkpt>
      <trkpt lat="37.4207200" lon="-4.4828800">
        <ele>471.0</ele>
        <time>2021-12-29T08:54:05Z</time>
      </trkpt>
      <trkpt lat="37.4207200" lon="-4.4829220">
        <ele>471.0</ele>
        <time>2021-12-29T08:54:06Z</time>
      </trkpt>
      <trkpt lat="37.4207230" lon="-4.4829800">
        <ele>471.0</ele>
        <time>2021-12-29T08:54:07Z</time>
      </trkpt>
      <trkpt lat="37.4207360" lon="-4.4830480">
        <ele>470.8</ele>
        <time>2021-12-29T08:54:08Z</time>
      </trkpt>
      <trkpt lat="37.4207420" lon="-4.4831030">
        <ele>470.8</ele>
        <time>2021-12-29T08:54:09Z</time>
      </trkpt>
      <trkpt lat="37.4207490" lon="-4.4831650">
        <ele>470.6</ele>
        <time>2021-12-29T08:54:10Z</time>
      </trkpt>
      <trkpt lat="37.4207580" lon="-4.4832250">
        <ele>470.4</ele>
        <time>2021-12-29T08:54:11Z</time>
      </trkpt>
      <trkpt lat="37.4207680" lon="-4.4832570">
        <ele>470.2</ele>
        <time>2021-12-29T08:54:12Z</time>
      </trkpt>
      <trkpt lat="37.4207710" lon="-4.4833120">
        <ele>470.0</ele>
        <time>2021-12-29T08:54:13Z</time>
      </trkpt>
      <trkpt lat="37.4207780" lon="-4.4833750">
        <ele>469.6</ele>
        <time>2021-12-29T08:54:14Z</time>
      </trkpt>
      <trkpt lat="37.4207810" lon="-4.4834430">
        <ele>469.4</ele>
        <time>2021-12-29T08:54:15Z</time>
      </trkpt>
      <trkpt lat="37.4207780" lon="-4.4834880">
        <ele>469.2</ele>
        <time>2021-12-29T08:54:16Z</time>
      </trkpt>
      <trkpt lat="37.4207780" lon="-4.4835450">
        <ele>469.0</ele>
        <time>2021-12-29T08:54:17Z</time>
      </trkpt>
      <trkpt lat="37.4207710" lon="-4.4836170">
        <ele>468.8</ele>
        <time>2021-12-29T08:54:18Z</time>
      </trkpt>
      <trkpt lat="37.4207810" lon="-4.4836570">
        <ele>468.6</ele>
        <time>2021-12-29T08:54:19Z</time>
      </trkpt>
      <trkpt lat="37.4207810" lon="-4.4837180">
        <ele>468.6</ele>
        <time>2021-12-29T08:54:20Z</time>
      </trkpt>
      <trkpt lat="37.4207780" lon="-4.4837830">
        <ele>468.4</ele>
        <time>2021-12-29T08:54:21Z</time>
      </trkpt>
      <trkpt lat="37.4207650" lon="-4.4838600">
        <ele>468.2</ele>
        <time>2021-12-29T08:54:22Z</time>
      </trkpt>
      <trkpt lat="37.4207580" lon="-4.4839200">
        <ele>468.2</ele>
        <time>2021-12-29T08:54:23Z</time>
      </trkpt>
      <trkpt lat="37.4207490" lon="-4.4839820">
        <ele>468.0</ele>
        <time>2021-12-29T08:54:24Z</time>
      </trkpt>
      <trkpt lat="37.4207420" lon="-4.4840450">
        <ele>468.0</ele>
        <time>2021-12-29T08:54:25Z</time>
      </trkpt>
      <trkpt lat="37.4207360" lon="-4.4841100">
        <ele>467.8</ele>
        <time>2021-12-29T08:54:26Z</time>
      </trkpt>
      <trkpt lat="37.4207230" lon="-4.4841670">
        <ele>467.6</ele>
        <time>2021-12-29T08:54:27Z</time>
      </trkpt>
      <trkpt lat="37.4207100" lon="-4.4842170">
        <ele>467.2</ele>
        <time>2021-12-29T08:54:28Z</time>
      </trkpt>
      <trkpt lat="37.4207010" lon="-4.4842780">
        <ele>467.0</ele>
        <time>2021-12-29T08:54:29Z</time>
      </trkpt>
      <trkpt lat="37.4206880" lon="-4.4843370">
        <ele>466.8</ele>
        <time>2021-12-29T08:54:30Z</time>
      </trkpt>
      <trkpt lat="37.4206720" lon="-4.4844150">
        <ele>466.6</ele>
        <time>2021-12-29T08:54:31Z</time>
      </trkpt>
      <trkpt lat="37.4206620" lon="-4.4844800">
        <ele>466.4</ele>
        <time>2021-12-29T08:54:32Z</time>
      </trkpt>
      <trkpt lat="37.4206460" lon="-4.4845470">
        <ele>466.2</ele>
        <time>2021-12-29T08:54:33Z</time>
      </trkpt>
      <trkpt lat="37.4206400" lon="-4.4845920">
        <ele>466.0</ele>
        <time>2021-12-29T08:54:34Z</time>
      </trkpt>
      <trkpt lat="37.4206300" lon="-4.4846450">
        <ele>465.8</ele>
        <time>2021-12-29T08:54:35Z</time>
      </trkpt>
      <trkpt lat="37.4206180" lon="-4.4847040">
        <ele>465.6</ele>
        <time>2021-12-29T08:54:36Z</time>
      </trkpt>
      <trkpt lat="37.4206020" lon="-4.4847630">
        <ele>465.4</ele>
        <time>2021-12-29T08:54:37Z</time>
      </trkpt>
      <trkpt lat="37.4205820" lon="-4.4848260">
        <ele>465.4</ele>
        <time>2021-12-29T08:54:38Z</time>
      </trkpt>
      <trkpt lat="37.4205660" lon="-4.4848870">
        <ele>465.2</ele>
        <time>2021-12-29T08:54:39Z</time>
      </trkpt>
      <trkpt lat="37.4205440" lon="-4.4849620">
        <ele>465.0</ele>
        <time>2021-12-29T08:54:40Z</time>
      </trkpt>
      <trkpt lat="37.4205250" lon="-4.4850200">
        <ele>464.8</ele>
        <time>2021-12-29T08:54:41Z</time>
      </trkpt>
      <trkpt lat="37.4205090" lon="-4.4850660">
        <ele>464.6</ele>
        <time>2021-12-29T08:54:42Z</time>
      </trkpt>
      <trkpt lat="37.4204860" lon="-4.4851360">
        <ele>464.6</ele>
        <time>2021-12-29T08:54:43Z</time>
      </trkpt>
      <trkpt lat="37.4204740" lon="-4.4851860">
        <ele>464.4</ele>
        <time>2021-12-29T08:54:44Z</time>
      </trkpt>
      <trkpt lat="37.4204540" lon="-4.4852620">
        <ele>464.2</ele>
        <time>2021-12-29T08:54:45Z</time>
      </trkpt>
      <trkpt lat="37.4204420" lon="-4.4853120">
        <ele>464.0</ele>
        <time>2021-12-29T08:54:46Z</time>
      </trkpt>
      <trkpt lat="37.4204190" lon="-4.4853870">
        <ele>463.8</ele>
        <time>2021-12-29T08:54:47Z</time>
      </trkpt>
      <trkpt lat="37.4204060" lon="-4.4854350">
        <ele>463.8</ele>
        <time>2021-12-29T08:54:48Z</time>
      </trkpt>
      <trkpt lat="37.4203840" lon="-4.4855050">
        <ele>463.6</ele>
        <time>2021-12-29T08:54:49Z</time>
      </trkpt>
      <trkpt lat="37.4203680" lon="-4.4855530">
        <ele>463.4</ele>
        <time>2021-12-29T08:54:50Z</time>
      </trkpt>
      <trkpt lat="37.4203420" lon="-4.4856270">
        <ele>463.2</ele>
        <time>2021-12-29T08:54:51Z</time>
      </trkpt>
      <trkpt lat="37.4203260" lon="-4.4856770">
        <ele>463.2</ele>
        <time>2021-12-29T08:54:52Z</time>
      </trkpt>
      <trkpt lat="37.4203040" lon="-4.4857400">
        <ele>463.0</ele>
        <time>2021-12-29T08:54:53Z</time>
      </trkpt>
      <trkpt lat="37.4202850" lon="-4.4858020">
        <ele>463.0</ele>
        <time>2021-12-29T08:54:54Z</time>
      </trkpt>
      <trkpt lat="37.4202660" lon="-4.4858650">
        <ele>463.0</ele>
        <time>2021-12-29T08:54:55Z</time>
      </trkpt>
      <trkpt lat="37.4202400" lon="-4.4859470">
        <ele>463.0</ele>
        <time>2021-12-29T08:54:56Z</time>
      </trkpt>
      <trkpt lat="37.4202140" lon="-4.4860150">
        <ele>463.0</ele>
        <time>2021-12-29T08:54:57Z</time>
      </trkpt>
      <trkpt lat="37.4201950" lon="-4.4860750">
        <ele>463.0</ele>
        <time>2021-12-29T08:54:58Z</time>
      </trkpt>
      <trkpt lat="37.4201730" lon="-4.4861360">
        <ele>463.0</ele>
        <time>2021-12-29T08:54:59Z</time>
      </trkpt>
      <trkpt lat="37.4201500" lon="-4.4862000">
        <ele>463.0</ele>
        <time>2021-12-29T08:55:00Z</time>
      </trkpt>
      <trkpt lat="37.4201310" lon="-4.4862480">
        <ele>463.0</ele>
        <time>2021-12-29T08:55:01Z</time>
      </trkpt>
      <trkpt lat="37.4201120" lon="-4.4863070">
        <ele>463.0</ele>
        <time>2021-12-29T08:55:02Z</time>
      </trkpt>
      <trkpt lat="37.4200930" lon="-4.4863680">
        <ele>463.2</ele>
        <time>2021-12-29T08:55:03Z</time>
      </trkpt>
      <trkpt lat="37.4200770" lon="-4.4864280">
        <ele>463.2</ele>
        <time>2021-12-29T08:55:04Z</time>
      </trkpt>
      <trkpt lat="37.4200610" lon="-4.4864900">
        <ele>463.2</ele>
        <time>2021-12-29T08:55:05Z</time>
      </trkpt>
      <trkpt lat="37.4200420" lon="-4.4865550">
        <ele>463.2</ele>
        <time>2021-12-29T08:55:06Z</time>
      </trkpt>
      <trkpt lat="37.4200220" lon="-4.4866170">
        <ele>463.2</ele>
        <time>2021-12-29T08:55:07Z</time>
      </trkpt>
      <trkpt lat="37.4200030" lon="-4.4866780">
        <ele>463.2</ele>
        <time>2021-12-29T08:55:08Z</time>
      </trkpt>
      <trkpt lat="37.4199870" lon="-4.4867400">
        <ele>463.2</ele>
        <time>2021-12-29T08:55:09Z</time>
      </trkpt>
      <trkpt lat="37.4199680" lon="-4.4868000">
        <ele>463.2</ele>
        <time>2021-12-29T08:55:10Z</time>
      </trkpt>
      <trkpt lat="37.4199490" lon="-4.4868620">
        <ele>463.2</ele>
        <time>2021-12-29T08:55:11Z</time>
      </trkpt>
      <trkpt lat="37.4199300" lon="-4.4869220">
        <ele>463.2</ele>
        <time>2021-12-29T08:55:12Z</time>
      </trkpt>
      <trkpt lat="37.4199100" lon="-4.4869950">
        <ele>463.2</ele>
        <time>2021-12-29T08:55:13Z</time>
      </trkpt>
      <trkpt lat="37.4198910" lon="-4.4870520">
        <ele>463.2</ele>
        <time>2021-12-29T08:55:14Z</time>
      </trkpt>
      <trkpt lat="37.4198720" lon="-4.4871120">
        <ele>463.4</ele>
        <time>2021-12-29T08:55:15Z</time>
      </trkpt>
      <trkpt lat="37.4198560" lon="-4.4871640">
        <ele>463.2</ele>
        <time>2021-12-29T08:55:16Z</time>
      </trkpt>
      <trkpt lat="37.4198370" lon="-4.4872250">
        <ele>463.2</ele>
        <time>2021-12-29T08:55:17Z</time>
      </trkpt>
      <trkpt lat="37.4198180" lon="-4.4872880">
        <ele>463.4</ele>
        <time>2021-12-29T08:55:18Z</time>
      </trkpt>
      <trkpt lat="37.4197980" lon="-4.4873500">
        <ele>463.4</ele>
        <time>2021-12-29T08:55:19Z</time>
      </trkpt>
      <trkpt lat="37.4197860" lon="-4.4874120">
        <ele>463.2</ele>
        <time>2021-12-29T08:55:20Z</time>
      </trkpt>
      <trkpt lat="37.4197660" lon="-4.4874700">
        <ele>463.2</ele>
        <time>2021-12-29T08:55:21Z</time>
      </trkpt>
      <trkpt lat="37.4197500" lon="-4.4875270">
        <ele>463.2</ele>
        <time>2021-12-29T08:55:22Z</time>
      </trkpt>
      <trkpt lat="37.4197310" lon="-4.4875830">
        <ele>463.0</ele>
        <time>2021-12-29T08:55:23Z</time>
      </trkpt>
      <trkpt lat="37.4197120" lon="-4.4876430">
        <ele>463.0</ele>
        <time>2021-12-29T08:55:24Z</time>
      </trkpt>
      <trkpt lat="37.4196960" lon="-4.4877030">
        <ele>463.0</ele>
        <time>2021-12-29T08:55:25Z</time>
      </trkpt>
      <trkpt lat="37.4196740" lon="-4.4877620">
        <ele>463.0</ele>
        <time>2021-12-29T08:55:26Z</time>
      </trkpt>
      <trkpt lat="37.4196740" lon="-4.4877620">
        <ele>462.8</ele>
        <time>2021-12-29T08:55:27Z</time>
      </trkpt>
      <trkpt lat="37.4196260" lon="-4.4879220">
        <ele>462.8</ele>
        <time>2021-12-29T08:55:28Z</time>
      </trkpt>
      <trkpt lat="37.4196160" lon="-4.4879520">
        <ele>462.8</ele>
        <time>2021-12-29T08:55:29Z</time>
      </trkpt>
      <trkpt lat="37.4195970" lon="-4.4880100">
        <ele>462.8</ele>
        <time>2021-12-29T08:55:30Z</time>
      </trkpt>
      <trkpt lat="37.4195780" lon="-4.4880670">
        <ele>462.6</ele>
        <time>2021-12-29T08:55:31Z</time>
      </trkpt>
      <trkpt lat="37.4195650" lon="-4.4881240">
        <ele>462.6</ele>
        <time>2021-12-29T08:55:32Z</time>
      </trkpt>
      <trkpt lat="37.4195390" lon="-4.4881840">
        <ele>462.6</ele>
        <time>2021-12-29T08:55:33Z</time>
      </trkpt>
      <trkpt lat="37.4195200" lon="-4.4882420">
        <ele>462.6</ele>
        <time>2021-12-29T08:55:34Z</time>
      </trkpt>
      <trkpt lat="37.4195010" lon="-4.4883000">
        <ele>462.4</ele>
        <time>2021-12-29T08:55:35Z</time>
      </trkpt>
      <trkpt lat="37.4194880" lon="-4.4883550">
        <ele>462.4</ele>
        <time>2021-12-29T08:55:36Z</time>
      </trkpt>
      <trkpt lat="37.4194720" lon="-4.4884130">
        <ele>462.4</ele>
        <time>2021-12-29T08:55:37Z</time>
      </trkpt>
      <trkpt lat="37.4194530" lon="-4.4884740">
        <ele>462.4</ele>
        <time>2021-12-29T08:55:38Z</time>
      </trkpt>
      <trkpt lat="37.4194400" lon="-4.4885300">
        <ele>462.4</ele>
        <time>2021-12-29T08:55:39Z</time>
      </trkpt>
      <trkpt lat="37.4194270" lon="-4.4885860">
        <ele>462.2</ele>
        <time>2021-12-29T08:55:40Z</time>
      </trkpt>
      <trkpt lat="37.4194080" lon="-4.4886450">
        <ele>462.2</ele>
        <time>2021-12-29T08:55:41Z</time>
      </trkpt>
      <trkpt lat="37.4193920" lon="-4.4887030">
        <ele>462.2</ele>
        <time>2021-12-29T08:55:42Z</time>
      </trkpt>
      <trkpt lat="37.4193730" lon="-4.4887600">
        <ele>462.0</ele>
        <time>2021-12-29T08:55:43Z</time>
      </trkpt>
      <trkpt lat="37.4193540" lon="-4.4888200">
        <ele>462.0</ele>
        <time>2021-12-29T08:55:44Z</time>
      </trkpt>
      <trkpt lat="37.4193340" lon="-4.4888800">
        <ele>462.0</ele>
        <time>2021-12-29T08:55:45Z</time>
      </trkpt>
      <trkpt lat="37.4193180" lon="-4.4889360">
        <ele>462.0</ele>
        <time>2021-12-29T08:55:46Z</time>
      </trkpt>
      <trkpt lat="37.4192990" lon="-4.4889930">
        <ele>461.8</ele>
        <time>2021-12-29T08:55:47Z</time>
      </trkpt>
      <trkpt lat="37.4192860" lon="-4.4890520">
        <ele>461.8</ele>
        <time>2021-12-29T08:55:48Z</time>
      </trkpt>
      <trkpt lat="37.4192670" lon="-4.4891070">
        <ele>461.8</ele>
        <time>2021-12-29T08:55:49Z</time>
      </trkpt>
      <trkpt lat="37.4192480" lon="-4.4891670">
        <ele>461.8</ele>
        <time>2021-12-29T08:55:50Z</time>
      </trkpt>
      <trkpt lat="37.4192290" lon="-4.4892270">
        <ele>461.6</ele>
        <time>2021-12-29T08:55:51Z</time>
      </trkpt>
      <trkpt lat="37.4192100" lon="-4.4892850">
        <ele>461.6</ele>
        <time>2021-12-29T08:55:52Z</time>
      </trkpt>
      <trkpt lat="37.4191940" lon="-4.4893420">
        <ele>461.6</ele>
        <time>2021-12-29T08:55:53Z</time>
      </trkpt>
      <trkpt lat="37.4191780" lon="-4.4893960">
        <ele>461.4</ele>
        <time>2021-12-29T08:55:54Z</time>
      </trkpt>
      <trkpt lat="37.4191620" lon="-4.4894520">
        <ele>461.4</ele>
        <time>2021-12-29T08:55:55Z</time>
      </trkpt>
      <trkpt lat="37.4191420" lon="-4.4895080">
        <ele>461.2</ele>
        <time>2021-12-29T08:55:56Z</time>
      </trkpt>
      <trkpt lat="37.4191300" lon="-4.4895650">
        <ele>461.2</ele>
        <time>2021-12-29T08:55:57Z</time>
      </trkpt>
      <trkpt lat="37.4191140" lon="-4.4896250">
        <ele>461.2</ele>
        <time>2021-12-29T08:55:58Z</time>
      </trkpt>
      <trkpt lat="37.4190980" lon="-4.4896850">
        <ele>461.2</ele>
        <time>2021-12-29T08:55:59Z</time>
      </trkpt>
      <trkpt lat="37.4190820" lon="-4.4897450">
        <ele>461.0</ele>
        <time>2021-12-29T08:56:00Z</time>
      </trkpt>
      <trkpt lat="37.4190590" lon="-4.4898070">
        <ele>461.0</ele>
        <time>2021-12-29T08:56:01Z</time>
      </trkpt>
      <trkpt lat="37.4190430" lon="-4.4898650">
        <ele>460.8</ele>
        <time>2021-12-29T08:56:02Z</time>
      </trkpt>
      <trkpt lat="37.4190240" lon="-4.4899250">
        <ele>460.8</ele>
        <time>2021-12-29T08:56:03Z</time>
      </trkpt>
      <trkpt lat="37.4190110" lon="-4.4899820">
        <ele>460.6</ele>
        <time>2021-12-29T08:56:04Z</time>
      </trkpt>
      <trkpt lat="37.4189920" lon="-4.4900380">
        <ele>460.6</ele>
        <time>2021-12-29T08:56:05Z</time>
      </trkpt>
      <trkpt lat="37.4189730" lon="-4.4901000">
        <ele>460.4</ele>
        <time>2021-12-29T08:56:06Z</time>
      </trkpt>
      <trkpt lat="37.4189540" lon="-4.4901600">
        <ele>460.4</ele>
        <time>2021-12-29T08:56:07Z</time>
      </trkpt>
      <trkpt lat="37.4189310" lon="-4.4902200">
        <ele>460.4</ele>
        <time>2021-12-29T08:56:08Z</time>
      </trkpt>
      <trkpt lat="37.4189120" lon="-4.4902800">
        <ele>460.4</ele>
        <time>2021-12-29T08:56:09Z</time>
      </trkpt>
      <trkpt lat="37.4188930" lon="-4.4903470">
        <ele>460.4</ele>
        <time>2021-12-29T08:56:10Z</time>
      </trkpt>
      <trkpt lat="37.4188700" lon="-4.4904120">
        <ele>460.4</ele>
        <time>2021-12-29T08:56:11Z</time>
      </trkpt>
      <trkpt lat="37.4188510" lon="-4.4904720">
        <ele>460.4</ele>
        <time>2021-12-29T08:56:12Z</time>
      </trkpt>
      <trkpt lat="37.4188350" lon="-4.4905320">
        <ele>460.4</ele>
        <time>2021-12-29T08:56:13Z</time>
      </trkpt>
      <trkpt lat="37.4188160" lon="-4.4905880">
        <ele>460.4</ele>
        <time>2021-12-29T08:56:14Z</time>
      </trkpt>
      <trkpt lat="37.4187970" lon="-4.4906450">
        <ele>460.4</ele>
        <time>2021-12-29T08:56:15Z</time>
      </trkpt>
      <trkpt lat="37.4187810" lon="-4.4907000">
        <ele>460.4</ele>
        <time>2021-12-29T08:56:16Z</time>
      </trkpt>
      <trkpt lat="37.4187650" lon="-4.4907530">
        <ele>460.4</ele>
        <time>2021-12-29T08:56:17Z</time>
      </trkpt>
      <trkpt lat="37.4187520" lon="-4.4907980">
        <ele>460.4</ele>
        <time>2021-12-29T08:56:18Z</time>
      </trkpt>
      <trkpt lat="37.4187330" lon="-4.4908680">
        <ele>460.2</ele>
        <time>2021-12-29T08:56:19Z</time>
      </trkpt>
      <trkpt lat="37.4187170" lon="-4.4909270">
        <ele>460.2</ele>
        <time>2021-12-29T08:56:20Z</time>
      </trkpt>
      <trkpt lat="37.4186980" lon="-4.4909840">
        <ele>460.2</ele>
        <time>2021-12-29T08:56:21Z</time>
      </trkpt>
      <trkpt lat="37.4186780" lon="-4.4910420">
        <ele>460.0</ele>
        <time>2021-12-29T08:56:22Z</time>
      </trkpt>
      <trkpt lat="37.4186620" lon="-4.4911020">
        <ele>459.8</ele>
        <time>2021-12-29T08:56:23Z</time>
      </trkpt>
      <trkpt lat="37.4186430" lon="-4.4911600">
        <ele>459.8</ele>
        <time>2021-12-29T08:56:24Z</time>
      </trkpt>
      <trkpt lat="37.4186270" lon="-4.4912180">
        <ele>459.6</ele>
        <time>2021-12-29T08:56:25Z</time>
      </trkpt>
      <trkpt lat="37.4186110" lon="-4.4912780">
        <ele>459.4</ele>
        <time>2021-12-29T08:56:26Z</time>
      </trkpt>
      <trkpt lat="37.4185860" lon="-4.4913450">
        <ele>459.4</ele>
        <time>2021-12-29T08:56:27Z</time>
      </trkpt>
      <trkpt lat="37.4185660" lon="-4.4914060">
        <ele>459.4</ele>
        <time>2021-12-29T08:56:28Z</time>
      </trkpt>
      <trkpt lat="37.4185470" lon="-4.4914700">
        <ele>459.2</ele>
        <time>2021-12-29T08:56:29Z</time>
      </trkpt>
      <trkpt lat="37.4185280" lon="-4.4915330">
        <ele>459.0</ele>
        <time>2021-12-29T08:56:30Z</time>
      </trkpt>
      <trkpt lat="37.4185150" lon="-4.4915950">
        <ele>459.0</ele>
        <time>2021-12-29T08:56:31Z</time>
      </trkpt>
      <trkpt lat="37.4184960" lon="-4.4916570">
        <ele>459.0</ele>
        <time>2021-12-29T08:56:32Z</time>
      </trkpt>
      <trkpt lat="37.4184770" lon="-4.4917180">
        <ele>459.0</ele>
        <time>2021-12-29T08:56:33Z</time>
      </trkpt>
      <trkpt lat="37.4184580" lon="-4.4917780">
        <ele>459.0</ele>
        <time>2021-12-29T08:56:34Z</time>
      </trkpt>
      <trkpt lat="37.4184380" lon="-4.4918380">
        <ele>458.8</ele>
        <time>2021-12-29T08:56:35Z</time>
      </trkpt>
      <trkpt lat="37.4184190" lon="-4.4918980">
        <ele>458.8</ele>
        <time>2021-12-29T08:56:36Z</time>
      </trkpt>
      <trkpt lat="37.4184000" lon="-4.4919530">
        <ele>458.8</ele>
        <time>2021-12-29T08:56:37Z</time>
      </trkpt>
      <trkpt lat="37.4183840" lon="-4.4920100">
        <ele>458.8</ele>
        <time>2021-12-29T08:56:38Z</time>
      </trkpt>
      <trkpt lat="37.4183650" lon="-4.4920650">
        <ele>458.8</ele>
        <time>2021-12-29T08:56:39Z</time>
      </trkpt>
      <trkpt lat="37.4183490" lon="-4.4921180">
        <ele>458.6</ele>
        <time>2021-12-29T08:56:40Z</time>
      </trkpt>
      <trkpt lat="37.4183360" lon="-4.4921700">
        <ele>458.6</ele>
        <time>2021-12-29T08:56:41Z</time>
      </trkpt>
      <trkpt lat="37.4183200" lon="-4.4922220">
        <ele>458.6</ele>
        <time>2021-12-29T08:56:42Z</time>
      </trkpt>
      <trkpt lat="37.4183040" lon="-4.4922750">
        <ele>458.4</ele>
        <time>2021-12-29T08:56:43Z</time>
      </trkpt>
      <trkpt lat="37.4182820" lon="-4.4923320">
        <ele>458.4</ele>
        <time>2021-12-29T08:56:44Z</time>
      </trkpt>
      <trkpt lat="37.4182660" lon="-4.4923940">
        <ele>458.4</ele>
        <time>2021-12-29T08:56:45Z</time>
      </trkpt>
      <trkpt lat="37.4182460" lon="-4.4924540">
        <ele>458.4</ele>
        <time>2021-12-29T08:56:46Z</time>
      </trkpt>
      <trkpt lat="37.4182270" lon="-4.4925130">
        <ele>458.4</ele>
        <time>2021-12-29T08:56:47Z</time>
      </trkpt>
      <trkpt lat="37.4182080" lon="-4.4925730">
        <ele>458.4</ele>
        <time>2021-12-29T08:56:48Z</time>
      </trkpt>
      <trkpt lat="37.4181890" lon="-4.4926300">
        <ele>458.4</ele>
        <time>2021-12-29T08:56:49Z</time>
      </trkpt>
      <trkpt lat="37.4181760" lon="-4.4926850">
        <ele>458.6</ele>
        <time>2021-12-29T08:56:50Z</time>
      </trkpt>
      <trkpt lat="37.4181570" lon="-4.4927400">
        <ele>458.6</ele>
        <time>2021-12-29T08:56:51Z</time>
      </trkpt>
      <trkpt lat="37.4181410" lon="-4.4927950">
        <ele>458.6</ele>
        <time>2021-12-29T08:56:52Z</time>
      </trkpt>
      <trkpt lat="37.4181250" lon="-4.4928500">
        <ele>458.6</ele>
        <time>2021-12-29T08:56:53Z</time>
      </trkpt>
      <trkpt lat="37.4181060" lon="-4.4929030">
        <ele>458.4</ele>
        <time>2021-12-29T08:56:54Z</time>
      </trkpt>
      <trkpt lat="37.4180900" lon="-4.4929570">
        <ele>458.4</ele>
        <time>2021-12-29T08:56:55Z</time>
      </trkpt>
      <trkpt lat="37.4180700" lon="-4.4930080">
        <ele>458.4</ele>
        <time>2021-12-29T08:56:56Z</time>
      </trkpt>
      <trkpt lat="37.4180580" lon="-4.4930600">
        <ele>458.2</ele>
        <time>2021-12-29T08:56:57Z</time>
      </trkpt>
      <trkpt lat="37.4180380" lon="-4.4931100">
        <ele>458.2</ele>
        <time>2021-12-29T08:56:58Z</time>
      </trkpt>
      <trkpt lat="37.4180220" lon="-4.4931550">
        <ele>458.0</ele>
        <time>2021-12-29T08:56:59Z</time>
      </trkpt>
      <trkpt lat="37.4180060" lon="-4.4931960">
        <ele>458.0</ele>
        <time>2021-12-29T08:57:00Z</time>
      </trkpt>
      <trkpt lat="37.4179970" lon="-4.4932350">
        <ele>458.0</ele>
        <time>2021-12-29T08:57:01Z</time>
      </trkpt>
      <trkpt lat="37.4179840" lon="-4.4932700">
        <ele>458.0</ele>
        <time>2021-12-29T08:57:02Z</time>
      </trkpt>
      <trkpt lat="37.4179780" lon="-4.4933000">
        <ele>457.8</ele>
        <time>2021-12-29T08:57:03Z</time>
      </trkpt>
      <trkpt lat="37.4179680" lon="-4.4933300">
        <ele>457.8</ele>
        <time>2021-12-29T08:57:04Z</time>
      </trkpt>
      <trkpt lat="37.4179580" lon="-4.4933580">
        <ele>457.8</ele>
        <time>2021-12-29T08:57:05Z</time>
      </trkpt>
      <trkpt lat="37.4179520" lon="-4.4933870">
        <ele>457.8</ele>
        <time>2021-12-29T08:57:06Z</time>
      </trkpt>
      <trkpt lat="37.4179460" lon="-4.4934180">
        <ele>457.8</ele>
        <time>2021-12-29T08:57:07Z</time>
      </trkpt>
      <trkpt lat="37.4179390" lon="-4.4934520">
        <ele>457.8</ele>
        <time>2021-12-29T08:57:08Z</time>
      </trkpt>
      <trkpt lat="37.4179260" lon="-4.4934850">
        <ele>457.8</ele>
        <time>2021-12-29T08:57:09Z</time>
      </trkpt>
      <trkpt lat="37.4179100" lon="-4.4935200">
        <ele>457.8</ele>
        <time>2021-12-29T08:57:10Z</time>
      </trkpt>
      <trkpt lat="37.4178980" lon="-4.4935580">
        <ele>457.8</ele>
        <time>2021-12-29T08:57:11Z</time>
      </trkpt>
      <trkpt lat="37.4178720" lon="-4.4935980">
        <ele>457.8</ele>
        <time>2021-12-29T08:57:12Z</time>
      </trkpt>
      <trkpt lat="37.4178590" lon="-4.4936480">
        <ele>457.8</ele>
        <time>2021-12-29T08:57:13Z</time>
      </trkpt>
      <trkpt lat="37.4178430" lon="-4.4936980">
        <ele>457.8</ele>
        <time>2021-12-29T08:57:14Z</time>
      </trkpt>
      <trkpt lat="37.4178270" lon="-4.4937470">
        <ele>457.8</ele>
        <time>2021-12-29T08:57:15Z</time>
      </trkpt>
      <trkpt lat="37.4178110" lon="-4.4937950">
        <ele>457.8</ele>
        <time>2021-12-29T08:57:16Z</time>
      </trkpt>
      <trkpt lat="37.4177980" lon="-4.4938420">
        <ele>458.0</ele>
        <time>2021-12-29T08:57:17Z</time>
      </trkpt>
      <trkpt lat="37.4177860" lon="-4.4938860">
        <ele>458.0</ele>
        <time>2021-12-29T08:57:18Z</time>
      </trkpt>
      <trkpt lat="37.4177730" lon="-4.4939300">
        <ele>458.0</ele>
        <time>2021-12-29T08:57:19Z</time>
      </trkpt>
      <trkpt lat="37.4177600" lon="-4.4939720">
        <ele>457.8</ele>
        <time>2021-12-29T08:57:20Z</time>
      </trkpt>
      <trkpt lat="37.4177500" lon="-4.4940070">
        <ele>457.8</ele>
        <time>2021-12-29T08:57:21Z</time>
      </trkpt>
      <trkpt lat="37.4177380" lon="-4.4940580">
        <ele>457.8</ele>
        <time>2021-12-29T08:57:22Z</time>
      </trkpt>
      <trkpt lat="37.4177250" lon="-4.4940980">
        <ele>457.8</ele>
        <time>2021-12-29T08:57:23Z</time>
      </trkpt>
      <trkpt lat="37.4177090" lon="-4.4941440">
        <ele>457.8</ele>
        <time>2021-12-29T08:57:24Z</time>
      </trkpt>
      <trkpt lat="37.4176990" lon="-4.4941870">
        <ele>457.6</ele>
        <time>2021-12-29T08:57:25Z</time>
      </trkpt>
      <trkpt lat="37.4176830" lon="-4.4942300">
        <ele>457.6</ele>
        <time>2021-12-29T08:57:26Z</time>
      </trkpt>
      <trkpt lat="37.4176670" lon="-4.4942730">
        <ele>457.8</ele>
        <time>2021-12-29T08:57:27Z</time>
      </trkpt>
      <trkpt lat="37.4176510" lon="-4.4943150">
        <ele>457.8</ele>
        <time>2021-12-29T08:57:28Z</time>
      </trkpt>
      <trkpt lat="37.4176420" lon="-4.4943570">
        <ele>457.8</ele>
        <time>2021-12-29T08:57:29Z</time>
      </trkpt>
      <trkpt lat="37.4176290" lon="-4.4943900">
        <ele>457.8</ele>
        <time>2021-12-29T08:57:30Z</time>
      </trkpt>
      <trkpt lat="37.4176130" lon="-4.4944380">
        <ele>457.8</ele>
        <time>2021-12-29T08:57:31Z</time>
      </trkpt>
      <trkpt lat="37.4176030" lon="-4.4944780">
        <ele>457.8</ele>
        <time>2021-12-29T08:57:32Z</time>
      </trkpt>
      <trkpt lat="37.4175940" lon="-4.4945180">
        <ele>457.8</ele>
        <time>2021-12-29T08:57:33Z</time>
      </trkpt>
      <trkpt lat="37.4175810" lon="-4.4945580">
        <ele>457.8</ele>
        <time>2021-12-29T08:57:34Z</time>
      </trkpt>
      <trkpt lat="37.4175680" lon="-4.4945960">
        <ele>457.8</ele>
        <time>2021-12-29T08:57:35Z</time>
      </trkpt>
      <trkpt lat="37.4175520" lon="-4.4946350">
        <ele>458.0</ele>
        <time>2021-12-29T08:57:36Z</time>
      </trkpt>
      <trkpt lat="37.4175420" lon="-4.4946750">
        <ele>458.0</ele>
        <time>2021-12-29T08:57:37Z</time>
      </trkpt>
      <trkpt lat="37.4175300" lon="-4.4947170">
        <ele>458.0</ele>
        <time>2021-12-29T08:57:38Z</time>
      </trkpt>
      <trkpt lat="37.4175200" lon="-4.4947600">
        <ele>458.0</ele>
        <time>2021-12-29T08:57:39Z</time>
      </trkpt>
      <trkpt lat="37.4175100" lon="-4.4947950">
        <ele>458.2</ele>
        <time>2021-12-29T08:57:40Z</time>
      </trkpt>
      <trkpt lat="37.4174940" lon="-4.4948420">
        <ele>458.2</ele>
        <time>2021-12-29T08:57:41Z</time>
      </trkpt>
      <trkpt lat="37.4174850" lon="-4.4948820">
        <ele>458.2</ele>
        <time>2021-12-29T08:57:42Z</time>
      </trkpt>
      <trkpt lat="37.4174720" lon="-4.4949220">
        <ele>458.2</ele>
        <time>2021-12-29T08:57:43Z</time>
      </trkpt>
      <trkpt lat="37.4174560" lon="-4.4949630">
        <ele>458.4</ele>
        <time>2021-12-29T08:57:44Z</time>
      </trkpt>
      <trkpt lat="37.4174460" lon="-4.4950060">
        <ele>458.4</ele>
        <time>2021-12-29T08:57:45Z</time>
      </trkpt>
      <trkpt lat="37.4174300" lon="-4.4950480">
        <ele>458.4</ele>
        <time>2021-12-29T08:57:46Z</time>
      </trkpt>
      <trkpt lat="37.4174210" lon="-4.4950920">
        <ele>458.4</ele>
        <time>2021-12-29T08:57:47Z</time>
      </trkpt>
      <trkpt lat="37.4174110" lon="-4.4951250">
        <ele>458.2</ele>
        <time>2021-12-29T08:57:48Z</time>
      </trkpt>
      <trkpt lat="37.4173920" lon="-4.4951750">
        <ele>458.2</ele>
        <time>2021-12-29T08:57:49Z</time>
      </trkpt>
      <trkpt lat="37.4173760" lon="-4.4952180">
        <ele>458.2</ele>
        <time>2021-12-29T08:57:50Z</time>
      </trkpt>
      <trkpt lat="37.4173660" lon="-4.4952600">
        <ele>458.2</ele>
        <time>2021-12-29T08:57:51Z</time>
      </trkpt>
      <trkpt lat="37.4173570" lon="-4.4952960">
        <ele>458.2</ele>
        <time>2021-12-29T08:57:52Z</time>
      </trkpt>
      <trkpt lat="37.4173470" lon="-4.4953330">
        <ele>458.2</ele>
        <time>2021-12-29T08:57:53Z</time>
      </trkpt>
      <trkpt lat="37.4173410" lon="-4.4953660">
        <ele>458.0</ele>
        <time>2021-12-29T08:57:54Z</time>
      </trkpt>
      <trkpt lat="37.4173310" lon="-4.4954030">
        <ele>458.0</ele>
        <time>2021-12-29T08:57:55Z</time>
      </trkpt>
      <trkpt lat="37.4173220" lon="-4.4954420">
        <ele>457.8</ele>
        <time>2021-12-29T08:57:56Z</time>
      </trkpt>
      <trkpt lat="37.4173120" lon="-4.4954680">
        <ele>457.8</ele>
        <time>2021-12-29T08:57:57Z</time>
      </trkpt>
      <trkpt lat="37.4172960" lon="-4.4955120">
        <ele>457.8</ele>
        <time>2021-12-29T08:57:58Z</time>
      </trkpt>
      <trkpt lat="37.4172900" lon="-4.4955480">
        <ele>457.8</ele>
        <time>2021-12-29T08:57:59Z</time>
      </trkpt>
      <trkpt lat="37.4172770" lon="-4.4955870">
        <ele>457.8</ele>
        <time>2021-12-29T08:58:00Z</time>
      </trkpt>
      <trkpt lat="37.4172670" lon="-4.4956170">
        <ele>457.8</ele>
        <time>2021-12-29T08:58:01Z</time>
      </trkpt>
      <trkpt lat="37.4172540" lon="-4.4956560">
        <ele>457.8</ele>
        <time>2021-12-29T08:58:02Z</time>
      </trkpt>
      <trkpt lat="37.4172510" lon="-4.4956880">
        <ele>457.6</ele>
        <time>2021-12-29T08:58:03Z</time>
      </trkpt>
      <trkpt lat="37.4172450" lon="-4.4957160">
        <ele>457.6</ele>
        <time>2021-12-29T08:58:04Z</time>
      </trkpt>
      <trkpt lat="37.4172420" lon="-4.4957430">
        <ele>457.6</ele>
        <time>2021-12-29T08:58:05Z</time>
      </trkpt>
      <trkpt lat="37.4172320" lon="-4.4957630">
        <ele>457.6</ele>
        <time>2021-12-29T08:58:06Z</time>
      </trkpt>
      <trkpt lat="37.4172260" lon="-4.4957900">
        <ele>457.6</ele>
        <time>2021-12-29T08:58:07Z</time>
      </trkpt>
      <trkpt lat="37.4172130" lon="-4.4958150">
        <ele>457.6</ele>
        <time>2021-12-29T08:58:08Z</time>
      </trkpt>
      <trkpt lat="37.4172060" lon="-4.4958400">
        <ele>457.6</ele>
        <time>2021-12-29T08:58:09Z</time>
      </trkpt>
      <trkpt lat="37.4171940" lon="-4.4958680">
        <ele>457.4</ele>
        <time>2021-12-29T08:58:10Z</time>
      </trkpt>
      <trkpt lat="37.4171840" lon="-4.4959020">
        <ele>457.4</ele>
        <time>2021-12-29T08:58:11Z</time>
      </trkpt>
      <trkpt lat="37.4171710" lon="-4.4959350">
        <ele>457.2</ele>
        <time>2021-12-29T08:58:12Z</time>
      </trkpt>
      <trkpt lat="37.4171550" lon="-4.4959700">
        <ele>457.2</ele>
        <time>2021-12-29T08:58:13Z</time>
      </trkpt>
      <trkpt lat="37.4171460" lon="-4.4960050">
        <ele>457.0</ele>
        <time>2021-12-29T08:58:14Z</time>
      </trkpt>
      <trkpt lat="37.4171360" lon="-4.4960380">
        <ele>457.2</ele>
        <time>2021-12-29T08:58:15Z</time>
      </trkpt>
      <trkpt lat="37.4171260" lon="-4.4960730">
        <ele>457.2</ele>
        <time>2021-12-29T08:58:16Z</time>
      </trkpt>
      <trkpt lat="37.4171170" lon="-4.4961080">
        <ele>457.2</ele>
        <time>2021-12-29T08:58:17Z</time>
      </trkpt>
      <trkpt lat="37.4171040" lon="-4.4961430">
        <ele>457.2</ele>
        <time>2021-12-29T08:58:18Z</time>
      </trkpt>
      <trkpt lat="37.4170910" lon="-4.4961770">
        <ele>457.2</ele>
        <time>2021-12-29T08:58:19Z</time>
      </trkpt>
      <trkpt lat="37.4170780" lon="-4.4962140">
        <ele>457.2</ele>
        <time>2021-12-29T08:58:20Z</time>
      </trkpt>
      <trkpt lat="37.4170690" lon="-4.4962500">
        <ele>457.0</ele>
        <time>2021-12-29T08:58:21Z</time>
      </trkpt>
      <trkpt lat="37.4170500" lon="-4.4962920">
        <ele>457.2</ele>
        <time>2021-12-29T08:58:22Z</time>
      </trkpt>
      <trkpt lat="37.4170430" lon="-4.4963330">
        <ele>457.2</ele>
        <time>2021-12-29T08:58:23Z</time>
      </trkpt>
      <trkpt lat="37.4170340" lon="-4.4963820">
        <ele>457.2</ele>
        <time>2021-12-29T08:58:24Z</time>
      </trkpt>
      <trkpt lat="37.4170180" lon="-4.4964250">
        <ele>457.2</ele>
        <time>2021-12-29T08:58:25Z</time>
      </trkpt>
      <trkpt lat="37.4169980" lon="-4.4964670">
        <ele>457.2</ele>
        <time>2021-12-29T08:58:26Z</time>
      </trkpt>
      <trkpt lat="37.4169890" lon="-4.4965070">
        <ele>457.2</ele>
        <time>2021-12-29T08:58:27Z</time>
      </trkpt>
      <trkpt lat="37.4169700" lon="-4.4965520">
        <ele>457.2</ele>
        <time>2021-12-29T08:58:28Z</time>
      </trkpt>
      <trkpt lat="37.4169570" lon="-4.4965900">
        <ele>457.2</ele>
        <time>2021-12-29T08:58:29Z</time>
      </trkpt>
      <trkpt lat="37.4169470" lon="-4.4966300">
        <ele>457.2</ele>
        <time>2021-12-29T08:58:30Z</time>
      </trkpt>
      <trkpt lat="37.4169310" lon="-4.4966720">
        <ele>457.2</ele>
        <time>2021-12-29T08:58:31Z</time>
      </trkpt>
      <trkpt lat="37.4169180" lon="-4.4967160">
        <ele>457.2</ele>
        <time>2021-12-29T08:58:32Z</time>
      </trkpt>
      <trkpt lat="37.4169090" lon="-4.4967650">
        <ele>457.2</ele>
        <time>2021-12-29T08:58:33Z</time>
      </trkpt>
      <trkpt lat="37.4168930" lon="-4.4968150">
        <ele>457.2</ele>
        <time>2021-12-29T08:58:34Z</time>
      </trkpt>
      <trkpt lat="37.4168740" lon="-4.4968700">
        <ele>457.2</ele>
        <time>2021-12-29T08:58:35Z</time>
      </trkpt>
      <trkpt lat="37.4168640" lon="-4.4969250">
        <ele>457.2</ele>
        <time>2021-12-29T08:58:36Z</time>
      </trkpt>
      <trkpt lat="37.4168510" lon="-4.4969770">
        <ele>457.2</ele>
        <time>2021-12-29T08:58:37Z</time>
      </trkpt>
      <trkpt lat="37.4168380" lon="-4.4970240">
        <ele>457.2</ele>
        <time>2021-12-29T08:58:38Z</time>
      </trkpt>
      <trkpt lat="37.4168260" lon="-4.4970680">
        <ele>457.2</ele>
        <time>2021-12-29T08:58:39Z</time>
      </trkpt>
      <trkpt lat="37.4168100" lon="-4.4971160">
        <ele>457.2</ele>
        <time>2021-12-29T08:58:40Z</time>
      </trkpt>
      <trkpt lat="37.4167940" lon="-4.4971680">
        <ele>457.2</ele>
        <time>2021-12-29T08:58:41Z</time>
      </trkpt>
      <trkpt lat="37.4167810" lon="-4.4972200">
        <ele>457.2</ele>
        <time>2021-12-29T08:58:42Z</time>
      </trkpt>
      <trkpt lat="37.4167710" lon="-4.4972700">
        <ele>457.0</ele>
        <time>2021-12-29T08:58:43Z</time>
      </trkpt>
      <trkpt lat="37.4167550" lon="-4.4973250">
        <ele>457.0</ele>
        <time>2021-12-29T08:58:44Z</time>
      </trkpt>
      <trkpt lat="37.4167360" lon="-4.4973750">
        <ele>457.0</ele>
        <time>2021-12-29T08:58:45Z</time>
      </trkpt>
      <trkpt lat="37.4167200" lon="-4.4974260">
        <ele>457.0</ele>
        <time>2021-12-29T08:58:46Z</time>
      </trkpt>
      <trkpt lat="37.4167070" lon="-4.4974780">
        <ele>456.8</ele>
        <time>2021-12-29T08:58:47Z</time>
      </trkpt>
      <trkpt lat="37.4166940" lon="-4.4975280">
        <ele>456.8</ele>
        <time>2021-12-29T08:58:48Z</time>
      </trkpt>
      <trkpt lat="37.4166780" lon="-4.4975780">
        <ele>456.6</ele>
        <time>2021-12-29T08:58:49Z</time>
      </trkpt>
      <trkpt lat="37.4166660" lon="-4.4976300">
        <ele>456.6</ele>
        <time>2021-12-29T08:58:50Z</time>
      </trkpt>
      <trkpt lat="37.4166500" lon="-4.4976840">
        <ele>456.4</ele>
        <time>2021-12-29T08:58:51Z</time>
      </trkpt>
      <trkpt lat="37.4166340" lon="-4.4977360">
        <ele>456.4</ele>
        <time>2021-12-29T08:58:52Z</time>
      </trkpt>
      <trkpt lat="37.4166180" lon="-4.4977930">
        <ele>456.4</ele>
        <time>2021-12-29T08:58:53Z</time>
      </trkpt>
      <trkpt lat="37.4166020" lon="-4.4978550">
        <ele>456.4</ele>
        <time>2021-12-29T08:58:54Z</time>
      </trkpt>
      <trkpt lat="37.4165890" lon="-4.4979180">
        <ele>456.4</ele>
        <time>2021-12-29T08:58:55Z</time>
      </trkpt>
      <trkpt lat="37.4165700" lon="-4.4979770">
        <ele>456.4</ele>
        <time>2021-12-29T08:58:56Z</time>
      </trkpt>
      <trkpt lat="37.4165540" lon="-4.4980340">
        <ele>456.4</ele>
        <time>2021-12-29T08:58:57Z</time>
      </trkpt>
      <trkpt lat="37.4165380" lon="-4.4980880">
        <ele>456.4</ele>
        <time>2021-12-29T08:58:58Z</time>
      </trkpt>
      <trkpt lat="37.4165280" lon="-4.4981430">
        <ele>456.2</ele>
        <time>2021-12-29T08:58:59Z</time>
      </trkpt>
      <trkpt lat="37.4165120" lon="-4.4981970">
        <ele>456.2</ele>
        <time>2021-12-29T08:59:00Z</time>
      </trkpt>
      <trkpt lat="37.4164990" lon="-4.4982480">
        <ele>456.2</ele>
        <time>2021-12-29T08:59:01Z</time>
      </trkpt>
      <trkpt lat="37.4164860" lon="-4.4983000">
        <ele>456.2</ele>
        <time>2021-12-29T08:59:02Z</time>
      </trkpt>
      <trkpt lat="37.4164700" lon="-4.4983540">
        <ele>456.2</ele>
        <time>2021-12-29T08:59:03Z</time>
      </trkpt>
      <trkpt lat="37.4164540" lon="-4.4984040">
        <ele>456.2</ele>
        <time>2021-12-29T08:59:04Z</time>
      </trkpt>
      <trkpt lat="37.4164480" lon="-4.4984460">
        <ele>456.2</ele>
        <time>2021-12-29T08:59:05Z</time>
      </trkpt>
      <trkpt lat="37.4164290" lon="-4.4985100">
        <ele>456.2</ele>
        <time>2021-12-29T08:59:06Z</time>
      </trkpt>
      <trkpt lat="37.4164160" lon="-4.4985620">
        <ele>456.2</ele>
        <time>2021-12-29T08:59:07Z</time>
      </trkpt>
      <trkpt lat="37.4164030" lon="-4.4986130">
        <ele>456.2</ele>
        <time>2021-12-29T08:59:08Z</time>
      </trkpt>
      <trkpt lat="37.4163940" lon="-4.4986650">
        <ele>456.2</ele>
        <time>2021-12-29T08:59:09Z</time>
      </trkpt>
      <trkpt lat="37.4163870" lon="-4.4987170">
        <ele>456.4</ele>
        <time>2021-12-29T08:59:10Z</time>
      </trkpt>
      <trkpt lat="37.4163740" lon="-4.4987680">
        <ele>456.4</ele>
        <time>2021-12-29T08:59:11Z</time>
      </trkpt>
      <trkpt lat="37.4163680" lon="-4.4988250">
        <ele>456.4</ele>
        <time>2021-12-29T08:59:12Z</time>
      </trkpt>
      <trkpt lat="37.4163580" lon="-4.4988800">
        <ele>456.4</ele>
        <time>2021-12-29T08:59:13Z</time>
      </trkpt>
      <trkpt lat="37.4163520" lon="-4.4989380">
        <ele>456.4</ele>
        <time>2021-12-29T08:59:14Z</time>
      </trkpt>
      <trkpt lat="37.4163390" lon="-4.4989980">
        <ele>456.4</ele>
        <time>2021-12-29T08:59:15Z</time>
      </trkpt>
      <trkpt lat="37.4163330" lon="-4.4990580">
        <ele>456.6</ele>
        <time>2021-12-29T08:59:16Z</time>
      </trkpt>
      <trkpt lat="37.4163200" lon="-4.4991220">
        <ele>456.6</ele>
        <time>2021-12-29T08:59:17Z</time>
      </trkpt>
      <trkpt lat="37.4163140" lon="-4.4991820">
        <ele>456.6</ele>
        <time>2021-12-29T08:59:18Z</time>
      </trkpt>
      <trkpt lat="37.4163040" lon="-4.4992420">
        <ele>456.4</ele>
        <time>2021-12-29T08:59:19Z</time>
      </trkpt>
      <trkpt lat="37.4163010" lon="-4.4993020">
        <ele>456.4</ele>
        <time>2021-12-29T08:59:20Z</time>
      </trkpt>
      <trkpt lat="37.4162940" lon="-4.4993640">
        <ele>456.4</ele>
        <time>2021-12-29T08:59:21Z</time>
      </trkpt>
      <trkpt lat="37.4162880" lon="-4.4994240">
        <ele>456.2</ele>
        <time>2021-12-29T08:59:22Z</time>
      </trkpt>
      <trkpt lat="37.4162780" lon="-4.4994820">
        <ele>456.2</ele>
        <time>2021-12-29T08:59:23Z</time>
      </trkpt>
      <trkpt lat="37.4162750" lon="-4.4995400">
        <ele>456.0</ele>
        <time>2021-12-29T08:59:24Z</time>
      </trkpt>
      <trkpt lat="37.4162720" lon="-4.4995950">
        <ele>456.0</ele>
        <time>2021-12-29T08:59:25Z</time>
      </trkpt>
      <trkpt lat="37.4162690" lon="-4.4996530">
        <ele>456.0</ele>
        <time>2021-12-29T08:59:26Z</time>
      </trkpt>
      <trkpt lat="37.4162620" lon="-4.4996970">
        <ele>455.8</ele>
        <time>2021-12-29T08:59:27Z</time>
      </trkpt>
      <trkpt lat="37.4162590" lon="-4.4997620">
        <ele>455.8</ele>
        <time>2021-12-29T08:59:28Z</time>
      </trkpt>
      <trkpt lat="37.4162560" lon="-4.4998150">
        <ele>455.8</ele>
        <time>2021-12-29T08:59:29Z</time>
      </trkpt>
      <trkpt lat="37.4162530" lon="-4.4998720">
        <ele>455.6</ele>
        <time>2021-12-29T08:59:30Z</time>
      </trkpt>
      <trkpt lat="37.4162530" lon="-4.4999280">
        <ele>455.8</ele>
        <time>2021-12-29T08:59:31Z</time>
      </trkpt>
      <trkpt lat="37.4162530" lon="-4.4999830">
        <ele>455.8</ele>
        <time>2021-12-29T08:59:32Z</time>
      </trkpt>
      <trkpt lat="37.4162560" lon="-4.5000370">
        <ele>456.0</ele>
        <time>2021-12-29T08:59:33Z</time>
      </trkpt>
      <trkpt lat="37.4162590" lon="-4.5000870">
        <ele>456.0</ele>
        <time>2021-12-29T08:59:34Z</time>
      </trkpt>
      <trkpt lat="37.4162620" lon="-4.5001370">
        <ele>456.0</ele>
        <time>2021-12-29T08:59:35Z</time>
      </trkpt>
      <trkpt lat="37.4162690" lon="-4.5001870">
        <ele>456.2</ele>
        <time>2021-12-29T08:59:36Z</time>
      </trkpt>
      <trkpt lat="37.4162720" lon="-4.5002330">
        <ele>456.2</ele>
        <time>2021-12-29T08:59:37Z</time>
      </trkpt>
      <trkpt lat="37.4162750" lon="-4.5002800">
        <ele>456.2</ele>
        <time>2021-12-29T08:59:38Z</time>
      </trkpt>
      <trkpt lat="37.4162750" lon="-4.5003250">
        <ele>456.2</ele>
        <time>2021-12-29T08:59:39Z</time>
      </trkpt>
      <trkpt lat="37.4162780" lon="-4.5003680">
        <ele>456.2</ele>
        <time>2021-12-29T08:59:40Z</time>
      </trkpt>
      <trkpt lat="37.4162820" lon="-4.5004170">
        <ele>456.2</ele>
        <time>2021-12-29T08:59:41Z</time>
      </trkpt>
      <trkpt lat="37.4162880" lon="-4.5004620">
        <ele>456.2</ele>
        <time>2021-12-29T08:59:42Z</time>
      </trkpt>
      <trkpt lat="37.4162910" lon="-4.5005060">
        <ele>456.2</ele>
        <time>2021-12-29T08:59:43Z</time>
      </trkpt>
      <trkpt lat="37.4162910" lon="-4.5005520">
        <ele>456.2</ele>
        <time>2021-12-29T08:59:44Z</time>
      </trkpt>
      <trkpt lat="37.4162940" lon="-4.5005980">
        <ele>456.4</ele>
        <time>2021-12-29T08:59:45Z</time>
      </trkpt>
      <trkpt lat="37.4162980" lon="-4.5006450">
        <ele>456.4</ele>
        <time>2021-12-29T08:59:46Z</time>
      </trkpt>
      <trkpt lat="37.4163010" lon="-4.5006930">
        <ele>456.4</ele>
        <time>2021-12-29T08:59:47Z</time>
      </trkpt>
      <trkpt lat="37.4163040" lon="-4.5007380">
        <ele>456.4</ele>
        <time>2021-12-29T08:59:48Z</time>
      </trkpt>
      <trkpt lat="37.4163100" lon="-4.5007850">
        <ele>456.6</ele>
        <time>2021-12-29T08:59:49Z</time>
      </trkpt>
      <trkpt lat="37.4163140" lon="-4.5008340">
        <ele>456.4</ele>
        <time>2021-12-29T08:59:50Z</time>
      </trkpt>
      <trkpt lat="37.4163200" lon="-4.5008830">
        <ele>456.6</ele>
        <time>2021-12-29T08:59:51Z</time>
      </trkpt>
      <trkpt lat="37.4163300" lon="-4.5009330">
        <ele>456.4</ele>
        <time>2021-12-29T08:59:52Z</time>
      </trkpt>
      <trkpt lat="37.4163330" lon="-4.5009830">
        <ele>456.4</ele>
        <time>2021-12-29T08:59:53Z</time>
      </trkpt>
      <trkpt lat="37.4163360" lon="-4.5010350">
        <ele>456.4</ele>
        <time>2021-12-29T08:59:54Z</time>
      </trkpt>
      <trkpt lat="37.4163390" lon="-4.5010880">
        <ele>456.4</ele>
        <time>2021-12-29T08:59:55Z</time>
      </trkpt>
      <trkpt lat="37.4163420" lon="-4.5011420">
        <ele>456.4</ele>
        <time>2021-12-29T08:59:56Z</time>
      </trkpt>
      <trkpt lat="37.4163490" lon="-4.5011970">
        <ele>456.4</ele>
        <time>2021-12-29T08:59:57Z</time>
      </trkpt>
      <trkpt lat="37.4163520" lon="-4.5012500">
        <ele>456.4</ele>
        <time>2021-12-29T08:59:58Z</time>
      </trkpt>
      <trkpt lat="37.4163550" lon="-4.5013100">
        <ele>456.4</ele>
        <time>2021-12-29T08:59:59Z</time>
      </trkpt>
      <trkpt lat="37.4163630" lon="-4.5014010">
        <ele>456.4</ele>
        <time>2021-12-29T09:00:00Z</time>
      </trkpt>
      <trkpt lat="37.4163680" lon="-4.5014320">
        <ele>456.4</ele>
        <time>2021-12-29T09:00:01Z</time>
      </trkpt>
      <trkpt lat="37.4163710" lon="-4.5014950">
        <ele>456.4</ele>
        <time>2021-12-29T09:00:02Z</time>
      </trkpt>
      <trkpt lat="37.4163740" lon="-4.5015620">
        <ele>456.2</ele>
        <time>2021-12-29T09:00:03Z</time>
      </trkpt>
      <trkpt lat="37.4163800" lon="-4.5016630">
        <ele>456.2</ele>
        <time>2021-12-29T09:00:04Z</time>
      </trkpt>
      <trkpt lat="37.4163820" lon="-4.5016980">
        <ele>456.0</ele>
        <time>2021-12-29T09:00:05Z</time>
      </trkpt>
      <trkpt lat="37.4163870" lon="-4.5017670">
        <ele>456.0</ele>
        <time>2021-12-29T09:00:06Z</time>
      </trkpt>
      <trkpt lat="37.4163940" lon="-4.5018400">
        <ele>455.8</ele>
        <time>2021-12-29T09:00:07Z</time>
      </trkpt>
      <trkpt lat="37.4164000" lon="-4.5019100">
        <ele>455.8</ele>
        <time>2021-12-29T09:00:08Z</time>
      </trkpt>
      <trkpt lat="37.4164100" lon="-4.5019820">
        <ele>455.6</ele>
        <time>2021-12-29T09:00:09Z</time>
      </trkpt>
      <trkpt lat="37.4164160" lon="-4.5020600">
        <ele>455.6</ele>
        <time>2021-12-29T09:00:10Z</time>
      </trkpt>
      <trkpt lat="37.4164220" lon="-4.5021400">
        <ele>455.6</ele>
        <time>2021-12-29T09:00:11Z</time>
      </trkpt>
      <trkpt lat="37.4164320" lon="-4.5022220">
        <ele>455.4</ele>
        <time>2021-12-29T09:00:12Z</time>
      </trkpt>
      <trkpt lat="37.4164350" lon="-4.5023080">
        <ele>455.4</ele>
        <time>2021-12-29T09:00:13Z</time>
      </trkpt>
      <trkpt lat="37.4164420" lon="-4.5023930">
        <ele>455.2</ele>
        <time>2021-12-29T09:00:14Z</time>
      </trkpt>
      <trkpt lat="37.4164510" lon="-4.5024820">
        <ele>455.2</ele>
        <time>2021-12-29T09:00:15Z</time>
      </trkpt>
      <trkpt lat="37.4164610" lon="-4.5025720">
        <ele>455.0</ele>
        <time>2021-12-29T09:00:16Z</time>
      </trkpt>
      <trkpt lat="37.4164700" lon="-4.5026650">
        <ele>454.8</ele>
        <time>2021-12-29T09:00:17Z</time>
      </trkpt>
      <trkpt lat="37.4164770" lon="-4.5027560">
        <ele>454.6</ele>
        <time>2021-12-29T09:00:18Z</time>
      </trkpt>
      <trkpt lat="37.4164900" lon="-4.5028500">
        <ele>454.6</ele>
        <time>2021-12-29T09:00:19Z</time>
      </trkpt>
      <trkpt lat="37.4164960" lon="-4.5029450">
        <ele>454.4</ele>
        <time>2021-12-29T09:00:20Z</time>
      </trkpt>
      <trkpt lat="37.4165090" lon="-4.5030360">
        <ele>454.2</ele>
        <time>2021-12-29T09:00:21Z</time>
      </trkpt>
      <trkpt lat="37.4165150" lon="-4.5031280">
        <ele>454.0</ele>
        <time>2021-12-29T09:00:22Z</time>
      </trkpt>
      <trkpt lat="37.4165220" lon="-4.5032200">
        <ele>454.0</ele>
        <time>2021-12-29T09:00:23Z</time>
      </trkpt>
      <trkpt lat="37.4165310" lon="-4.5033080">
        <ele>454.0</ele>
        <time>2021-12-29T09:00:24Z</time>
      </trkpt>
      <trkpt lat="37.4165380" lon="-4.5033980">
        <ele>453.8</ele>
        <time>2021-12-29T09:00:25Z</time>
      </trkpt>
      <trkpt lat="37.4165500" lon="-4.5034870">
        <ele>453.8</ele>
        <time>2021-12-29T09:00:26Z</time>
      </trkpt>
      <trkpt lat="37.4165570" lon="-4.5035720">
        <ele>453.6</ele>
        <time>2021-12-29T09:00:27Z</time>
      </trkpt>
      <trkpt lat="37.4165660" lon="-4.5036600">
        <ele>453.6</ele>
        <time>2021-12-29T09:00:28Z</time>
      </trkpt>
      <trkpt lat="37.4165700" lon="-4.5037430">
        <ele>453.6</ele>
        <time>2021-12-29T09:00:29Z</time>
      </trkpt>
      <trkpt lat="37.4165760" lon="-4.5038250">
        <ele>453.4</ele>
        <time>2021-12-29T09:00:30Z</time>
      </trkpt>
      <trkpt lat="37.4165860" lon="-4.5039050">
        <ele>453.4</ele>
        <time>2021-12-29T09:00:31Z</time>
      </trkpt>
      <trkpt lat="37.4165920" lon="-4.5039850">
        <ele>453.4</ele>
        <time>2021-12-29T09:00:32Z</time>
      </trkpt>
      <trkpt lat="37.4166060" lon="-4.5041010">
        <ele>453.4</ele>
        <time>2021-12-29T09:00:33Z</time>
      </trkpt>
      <trkpt lat="37.4166100" lon="-4.5041400">
        <ele>453.2</ele>
        <time>2021-12-29T09:00:34Z</time>
      </trkpt>
      <trkpt lat="37.4166180" lon="-4.5042180">
        <ele>453.2</ele>
        <time>2021-12-29T09:00:35Z</time>
      </trkpt>
      <trkpt lat="37.4166270" lon="-4.5042980">
        <ele>453.2</ele>
        <time>2021-12-29T09:00:36Z</time>
      </trkpt>
      <trkpt lat="37.4166340" lon="-4.5043750">
        <ele>453.2</ele>
        <time>2021-12-29T09:00:37Z</time>
      </trkpt>
      <trkpt lat="37.4166400" lon="-4.5044520">
        <ele>453.0</ele>
        <time>2021-12-29T09:00:38Z</time>
      </trkpt>
      <trkpt lat="37.4166460" lon="-4.5045270">
        <ele>453.0</ele>
        <time>2021-12-29T09:00:39Z</time>
      </trkpt>
      <trkpt lat="37.4166530" lon="-4.5046020">
        <ele>453.0</ele>
        <time>2021-12-29T09:00:40Z</time>
      </trkpt>
      <trkpt lat="37.4166590" lon="-4.5046750">
        <ele>453.0</ele>
        <time>2021-12-29T09:00:41Z</time>
      </trkpt>
      <trkpt lat="37.4166690" lon="-4.5047460">
        <ele>452.8</ele>
        <time>2021-12-29T09:00:42Z</time>
      </trkpt>
      <trkpt lat="37.4166750" lon="-4.5048180">
        <ele>452.8</ele>
        <time>2021-12-29T09:00:43Z</time>
      </trkpt>
      <trkpt lat="37.4166820" lon="-4.5048870">
        <ele>452.8</ele>
        <time>2021-12-29T09:00:44Z</time>
      </trkpt>
      <trkpt lat="37.4166880" lon="-4.5049550">
        <ele>452.6</ele>
        <time>2021-12-29T09:00:45Z</time>
      </trkpt>
      <trkpt lat="37.4166940" lon="-4.5050240">
        <ele>452.6</ele>
        <time>2021-12-29T09:00:46Z</time>
      </trkpt>
      <trkpt lat="37.4166980" lon="-4.5050900">
        <ele>452.6</ele>
        <time>2021-12-29T09:00:47Z</time>
      </trkpt>
      <trkpt lat="37.4167010" lon="-4.5051530">
        <ele>452.6</ele>
        <time>2021-12-29T09:00:48Z</time>
      </trkpt>
      <trkpt lat="37.4167100" lon="-4.5052200">
        <ele>452.6</ele>
        <time>2021-12-29T09:00:49Z</time>
      </trkpt>
      <trkpt lat="37.4167140" lon="-4.5052870">
        <ele>452.4</ele>
        <time>2021-12-29T09:00:50Z</time>
      </trkpt>
      <trkpt lat="37.4167200" lon="-4.5053500">
        <ele>452.4</ele>
        <time>2021-12-29T09:00:51Z</time>
      </trkpt>
      <trkpt lat="37.4167260" lon="-4.5054120">
        <ele>452.2</ele>
        <time>2021-12-29T09:00:52Z</time>
      </trkpt>
      <trkpt lat="37.4167330" lon="-4.5054620">
        <ele>452.2</ele>
        <time>2021-12-29T09:00:53Z</time>
      </trkpt>
      <trkpt lat="37.4167360" lon="-4.5055360">
        <ele>452.0</ele>
        <time>2021-12-29T09:00:54Z</time>
      </trkpt>
      <trkpt lat="37.4167460" lon="-4.5055970">
        <ele>452.0</ele>
        <time>2021-12-29T09:00:55Z</time>
      </trkpt>
      <trkpt lat="37.4167490" lon="-4.5056620">
        <ele>451.8</ele>
        <time>2021-12-29T09:00:56Z</time>
      </trkpt>
      <trkpt lat="37.4167520" lon="-4.5057250">
        <ele>451.8</ele>
        <time>2021-12-29T09:00:57Z</time>
      </trkpt>
      <trkpt lat="37.4167580" lon="-4.5057870">
        <ele>451.6</ele>
        <time>2021-12-29T09:00:58Z</time>
      </trkpt>
      <trkpt lat="37.4167650" lon="-4.5058480">
        <ele>451.6</ele>
        <time>2021-12-29T09:00:59Z</time>
      </trkpt>
      <trkpt lat="37.4167710" lon="-4.5059130">
        <ele>451.4</ele>
        <time>2021-12-29T09:01:00Z</time>
      </trkpt>
      <trkpt lat="37.4167740" lon="-4.5059820">
        <ele>451.4</ele>
        <time>2021-12-29T09:01:01Z</time>
      </trkpt>
      <trkpt lat="37.4167780" lon="-4.5060500">
        <ele>451.4</ele>
        <time>2021-12-29T09:01:02Z</time>
      </trkpt>
      <trkpt lat="37.4167870" lon="-4.5061170">
        <ele>451.2</ele>
        <time>2021-12-29T09:01:03Z</time>
      </trkpt>
      <trkpt lat="37.4167900" lon="-4.5061850">
        <ele>451.2</ele>
        <time>2021-12-29T09:01:04Z</time>
      </trkpt>
      <trkpt lat="37.4167970" lon="-4.5062530">
        <ele>451.0</ele>
        <time>2021-12-29T09:01:05Z</time>
      </trkpt>
      <trkpt lat="37.4168000" lon="-4.5063230">
        <ele>451.0</ele>
        <time>2021-12-29T09:01:06Z</time>
      </trkpt>
      <trkpt lat="37.4168100" lon="-4.5063920">
        <ele>450.8</ele>
        <time>2021-12-29T09:01:07Z</time>
      </trkpt>
      <trkpt lat="37.4168160" lon="-4.5064600">
        <ele>450.8</ele>
        <time>2021-12-29T09:01:08Z</time>
      </trkpt>
      <trkpt lat="37.4168260" lon="-4.5065250">
        <ele>450.8</ele>
        <time>2021-12-29T09:01:09Z</time>
      </trkpt>
      <trkpt lat="37.4168320" lon="-4.5065920">
        <ele>450.6</ele>
        <time>2021-12-29T09:01:10Z</time>
      </trkpt>
      <trkpt lat="37.4168350" lon="-4.5066530">
        <ele>450.6</ele>
        <time>2021-12-29T09:01:11Z</time>
      </trkpt>
      <trkpt lat="37.4168450" lon="-4.5067180">
        <ele>450.6</ele>
        <time>2021-12-29T09:01:12Z</time>
      </trkpt>
      <trkpt lat="37.4168480" lon="-4.5067800">
        <ele>450.4</ele>
        <time>2021-12-29T09:01:13Z</time>
      </trkpt>
      <trkpt lat="37.4168540" lon="-4.5068440">
        <ele>450.4</ele>
        <time>2021-12-29T09:01:14Z</time>
      </trkpt>
      <trkpt lat="37.4168580" lon="-4.5069020">
        <ele>450.4</ele>
        <time>2021-12-29T09:01:15Z</time>
      </trkpt>
      <trkpt lat="37.4168670" lon="-4.5069620">
        <ele>450.2</ele>
        <time>2021-12-29T09:01:16Z</time>
      </trkpt>
      <trkpt lat="37.4168700" lon="-4.5070200">
        <ele>450.2</ele>
        <time>2021-12-29T09:01:17Z</time>
      </trkpt>
      <trkpt lat="37.4168800" lon="-4.5070780">
        <ele>450.2</ele>
        <time>2021-12-29T09:01:18Z</time>
      </trkpt>
      <trkpt lat="37.4168860" lon="-4.5071350">
        <ele>450.2</ele>
        <time>2021-12-29T09:01:19Z</time>
      </trkpt>
      <trkpt lat="37.4168930" lon="-4.5071980">
        <ele>450.0</ele>
        <time>2021-12-29T09:01:20Z</time>
      </trkpt>
      <trkpt lat="37.4168960" lon="-4.5072620">
        <ele>449.8</ele>
        <time>2021-12-29T09:01:21Z</time>
      </trkpt>
      <trkpt lat="37.4169060" lon="-4.5073250">
        <ele>449.8</ele>
        <time>2021-12-29T09:01:22Z</time>
      </trkpt>
      <trkpt lat="37.4169120" lon="-4.5073870">
        <ele>449.6</ele>
        <time>2021-12-29T09:01:23Z</time>
      </trkpt>
      <trkpt lat="37.4169150" lon="-4.5074480">
        <ele>449.6</ele>
        <time>2021-12-29T09:01:24Z</time>
      </trkpt>
      <trkpt lat="37.4169250" lon="-4.5075050">
        <ele>449.6</ele>
        <time>2021-12-29T09:01:25Z</time>
      </trkpt>
      <trkpt lat="37.4169280" lon="-4.5075620">
        <ele>449.4</ele>
        <time>2021-12-29T09:01:26Z</time>
      </trkpt>
      <trkpt lat="37.4169310" lon="-4.5076130">
        <ele>449.4</ele>
        <time>2021-12-29T09:01:27Z</time>
      </trkpt>
      <trkpt lat="37.4169340" lon="-4.5076660">
        <ele>449.4</ele>
        <time>2021-12-29T09:01:28Z</time>
      </trkpt>
      <trkpt lat="37.4169340" lon="-4.5077150">
        <ele>449.2</ele>
        <time>2021-12-29T09:01:29Z</time>
      </trkpt>
      <trkpt lat="37.4169380" lon="-4.5077470">
        <ele>449.2</ele>
        <time>2021-12-29T09:01:30Z</time>
      </trkpt>
      <trkpt lat="37.4169440" lon="-4.5077700">
        <ele>449.2</ele>
        <time>2021-12-29T09:01:31Z</time>
      </trkpt>
      <trkpt lat="37.4169440" lon="-4.5077700">
        <ele>449.2</ele>
        <time>2021-12-29T09:01:32Z</time>
      </trkpt>
      <trkpt lat="37.4169440" lon="-4.5077700">
        <ele>449.2</ele>
        <time>2021-12-29T09:01:33Z</time>
      </trkpt>
      <trkpt lat="37.4169440" lon="-4.5077700">
        <ele>449.2</ele>
        <time>2021-12-29T09:01:34Z</time>
      </trkpt>
      <trkpt lat="37.4169440" lon="-4.5077700">
        <ele>449.0</ele>
        <time>2021-12-29T09:01:35Z</time>
      </trkpt>
      <trkpt lat="37.4169440" lon="-4.5077700">
        <ele>449.0</ele>
        <time>2021-12-29T09:01:36Z</time>
      </trkpt>
      <trkpt lat="37.4169440" lon="-4.5077700">
        <ele>449.0</ele>
        <time>2021-12-29T09:01:42Z</time>
      </trkpt>
      <trkpt lat="37.4169540" lon="-4.5079160">
        <ele>448.4</ele>
        <time>2021-12-29T09:01:43Z</time>
      </trkpt>
      <trkpt lat="37.4169630" lon="-4.5079430">
        <ele>448.4</ele>
        <time>2021-12-29T09:01:44Z</time>
      </trkpt>
      <trkpt lat="37.4169630" lon="-4.5079700">
        <ele>448.4</ele>
        <time>2021-12-29T09:01:45Z</time>
      </trkpt>
      <trkpt lat="37.4169630" lon="-4.5080030">
        <ele>448.4</ele>
        <time>2021-12-29T09:01:46Z</time>
      </trkpt>
      <trkpt lat="37.4169660" lon="-4.5080380">
        <ele>448.4</ele>
        <time>2021-12-29T09:01:47Z</time>
      </trkpt>
      <trkpt lat="37.4169700" lon="-4.5080780">
        <ele>448.4</ele>
        <time>2021-12-29T09:01:48Z</time>
      </trkpt>
      <trkpt lat="37.4169760" lon="-4.5081200">
        <ele>448.2</ele>
        <time>2021-12-29T09:01:49Z</time>
      </trkpt>
      <trkpt lat="37.4169790" lon="-4.5081650">
        <ele>448.2</ele>
        <time>2021-12-29T09:01:50Z</time>
      </trkpt>
      <trkpt lat="37.4169860" lon="-4.5082150">
        <ele>448.2</ele>
        <time>2021-12-29T09:01:51Z</time>
      </trkpt>
      <trkpt lat="37.4169860" lon="-4.5082680">
        <ele>448.2</ele>
        <time>2021-12-29T09:01:52Z</time>
      </trkpt>
      <trkpt lat="37.4169890" lon="-4.5083260">
        <ele>448.2</ele>
        <time>2021-12-29T09:01:53Z</time>
      </trkpt>
      <trkpt lat="37.4169890" lon="-4.5083870">
        <ele>448.2</ele>
        <time>2021-12-29T09:01:54Z</time>
      </trkpt>
      <trkpt lat="37.4169920" lon="-4.5084520">
        <ele>448.2</ele>
        <time>2021-12-29T09:01:55Z</time>
      </trkpt>
      <trkpt lat="37.4169980" lon="-4.5085170">
        <ele>448.2</ele>
        <time>2021-12-29T09:01:56Z</time>
      </trkpt>
      <trkpt lat="37.4170080" lon="-4.5085820">
        <ele>448.2</ele>
        <time>2021-12-29T09:01:57Z</time>
      </trkpt>
      <trkpt lat="37.4170140" lon="-4.5086460">
        <ele>448.2</ele>
        <time>2021-12-29T09:01:58Z</time>
      </trkpt>
      <trkpt lat="37.4170180" lon="-4.5087130">
        <ele>448.0</ele>
        <time>2021-12-29T09:01:59Z</time>
      </trkpt>
      <trkpt lat="37.4170240" lon="-4.5087820">
        <ele>448.0</ele>
        <time>2021-12-29T09:02:00Z</time>
      </trkpt>
      <trkpt lat="37.4170300" lon="-4.5088500">
        <ele>448.0</ele>
        <time>2021-12-29T09:02:01Z</time>
      </trkpt>
      <trkpt lat="37.4170370" lon="-4.5089150">
        <ele>447.8</ele>
        <time>2021-12-29T09:02:02Z</time>
      </trkpt>
      <trkpt lat="37.4170430" lon="-4.5089830">
        <ele>447.8</ele>
        <time>2021-12-29T09:02:03Z</time>
      </trkpt>
      <trkpt lat="37.4170500" lon="-4.5090560">
        <ele>447.8</ele>
        <time>2021-12-29T09:02:04Z</time>
      </trkpt>
      <trkpt lat="37.4170530" lon="-4.5091300">
        <ele>447.6</ele>
        <time>2021-12-29T09:02:05Z</time>
      </trkpt>
      <trkpt lat="37.4170560" lon="-4.5092040">
        <ele>447.6</ele>
        <time>2021-12-29T09:02:06Z</time>
      </trkpt>
      <trkpt lat="37.4170660" lon="-4.5092770">
        <ele>447.6</ele>
        <time>2021-12-29T09:02:07Z</time>
      </trkpt>
      <trkpt lat="37.4170690" lon="-4.5093460">
        <ele>447.4</ele>
        <time>2021-12-29T09:02:08Z</time>
      </trkpt>
      <trkpt lat="37.4170780" lon="-4.5094200">
        <ele>447.4</ele>
        <time>2021-12-29T09:02:09Z</time>
      </trkpt>
      <trkpt lat="37.4170880" lon="-4.5094900">
        <ele>447.2</ele>
        <time>2021-12-29T09:02:10Z</time>
      </trkpt>
      <trkpt lat="37.4170940" lon="-4.5095580">
        <ele>447.2</ele>
        <time>2021-12-29T09:02:11Z</time>
      </trkpt>
      <trkpt lat="37.4170980" lon="-4.5096280">
        <ele>447.0</ele>
        <time>2021-12-29T09:02:12Z</time>
      </trkpt>
      <trkpt lat="37.4171070" lon="-4.5096950">
        <ele>447.0</ele>
        <time>2021-12-29T09:02:13Z</time>
      </trkpt>
      <trkpt lat="37.4171140" lon="-4.5097630">
        <ele>447.0</ele>
        <time>2021-12-29T09:02:14Z</time>
      </trkpt>
      <trkpt lat="37.4171230" lon="-4.5098330">
        <ele>446.8</ele>
        <time>2021-12-29T09:02:15Z</time>
      </trkpt>
      <trkpt lat="37.4171260" lon="-4.5098980">
        <ele>446.8</ele>
        <time>2021-12-29T09:02:16Z</time>
      </trkpt>
      <trkpt lat="37.4171300" lon="-4.5099620">
        <ele>446.6</ele>
        <time>2021-12-29T09:02:17Z</time>
      </trkpt>
      <trkpt lat="37.4171330" lon="-4.5100280">
        <ele>446.6</ele>
        <time>2021-12-29T09:02:18Z</time>
      </trkpt>
      <trkpt lat="37.4171330" lon="-4.5100950">
        <ele>446.6</ele>
        <time>2021-12-29T09:02:19Z</time>
      </trkpt>
      <trkpt lat="37.4171360" lon="-4.5101610">
        <ele>446.6</ele>
        <time>2021-12-29T09:02:20Z</time>
      </trkpt>
      <trkpt lat="37.4171460" lon="-4.5102320">
        <ele>446.6</ele>
        <time>2021-12-29T09:02:21Z</time>
      </trkpt>
      <trkpt lat="37.4171460" lon="-4.5103040">
        <ele>446.4</ele>
        <time>2021-12-29T09:02:22Z</time>
      </trkpt>
      <trkpt lat="37.4171520" lon="-4.5103750">
        <ele>446.4</ele>
        <time>2021-12-29T09:02:23Z</time>
      </trkpt>
      <trkpt lat="37.4171620" lon="-4.5104460">
        <ele>446.4</ele>
        <time>2021-12-29T09:02:24Z</time>
      </trkpt>
      <trkpt lat="37.4171650" lon="-4.5105200">
        <ele>446.2</ele>
        <time>2021-12-29T09:02:25Z</time>
      </trkpt>
      <trkpt lat="37.4171710" lon="-4.5105940">
        <ele>446.2</ele>
        <time>2021-12-29T09:02:26Z</time>
      </trkpt>
      <trkpt lat="37.4171740" lon="-4.5106650">
        <ele>446.2</ele>
        <time>2021-12-29T09:02:27Z</time>
      </trkpt>
      <trkpt lat="37.4171780" lon="-4.5107360">
        <ele>446.2</ele>
        <time>2021-12-29T09:02:28Z</time>
      </trkpt>
      <trkpt lat="37.4171870" lon="-4.5108080">
        <ele>446.2</ele>
        <time>2021-12-29T09:02:29Z</time>
      </trkpt>
      <trkpt lat="37.4171970" lon="-4.5108780">
        <ele>446.0</ele>
        <time>2021-12-29T09:02:30Z</time>
      </trkpt>
      <trkpt lat="37.4172030" lon="-4.5109480">
        <ele>446.0</ele>
        <time>2021-12-29T09:02:31Z</time>
      </trkpt>
      <trkpt lat="37.4172100" lon="-4.5110170">
        <ele>445.8</ele>
        <time>2021-12-29T09:02:32Z</time>
      </trkpt>
      <trkpt lat="37.4172130" lon="-4.5110850">
        <ele>445.8</ele>
        <time>2021-12-29T09:02:33Z</time>
      </trkpt>
      <trkpt lat="37.4172220" lon="-4.5111520">
        <ele>445.8</ele>
        <time>2021-12-29T09:02:34Z</time>
      </trkpt>
      <trkpt lat="37.4172260" lon="-4.5112150">
        <ele>445.6</ele>
        <time>2021-12-29T09:02:35Z</time>
      </trkpt>
      <trkpt lat="37.4172320" lon="-4.5112770">
        <ele>445.6</ele>
        <time>2021-12-29T09:02:36Z</time>
      </trkpt>
      <trkpt lat="37.4172420" lon="-4.5113380">
        <ele>445.4</ele>
        <time>2021-12-29T09:02:37Z</time>
      </trkpt>
      <trkpt lat="37.4172450" lon="-4.5113980">
        <ele>445.4</ele>
        <time>2021-12-29T09:02:38Z</time>
      </trkpt>
      <trkpt lat="37.4172510" lon="-4.5114560">
        <ele>445.4</ele>
        <time>2021-12-29T09:02:39Z</time>
      </trkpt>
      <trkpt lat="37.4172610" lon="-4.5115130">
        <ele>445.2</ele>
        <time>2021-12-29T09:02:40Z</time>
      </trkpt>
      <trkpt lat="37.4172670" lon="-4.5115730">
        <ele>445.0</ele>
        <time>2021-12-29T09:02:41Z</time>
      </trkpt>
      <trkpt lat="37.4172740" lon="-4.5116330">
        <ele>444.8</ele>
        <time>2021-12-29T09:02:42Z</time>
      </trkpt>
      <trkpt lat="37.4172830" lon="-4.5116970">
        <ele>444.6</ele>
        <time>2021-12-29T09:02:43Z</time>
      </trkpt>
      <trkpt lat="37.4172900" lon="-4.5117570">
        <ele>444.6</ele>
        <time>2021-12-29T09:02:44Z</time>
      </trkpt>
      <trkpt lat="37.4173120" lon="-4.5118100">
        <ele>444.4</ele>
        <time>2021-12-29T09:02:45Z</time>
      </trkpt>
      <trkpt lat="37.4173220" lon="-4.5118800">
        <ele>444.2</ele>
        <time>2021-12-29T09:02:46Z</time>
      </trkpt>
      <trkpt lat="37.4173250" lon="-4.5119420">
        <ele>444.2</ele>
        <time>2021-12-29T09:02:47Z</time>
      </trkpt>
      <trkpt lat="37.4173280" lon="-4.5120050">
        <ele>444.0</ele>
        <time>2021-12-29T09:02:48Z</time>
      </trkpt>
      <trkpt lat="37.4173310" lon="-4.5120680">
        <ele>443.8</ele>
        <time>2021-12-29T09:02:49Z</time>
      </trkpt>
      <trkpt lat="37.4173340" lon="-4.5121340">
        <ele>443.8</ele>
        <time>2021-12-29T09:02:50Z</time>
      </trkpt>
      <trkpt lat="37.4173440" lon="-4.5121960">
        <ele>443.6</ele>
        <time>2021-12-29T09:02:51Z</time>
      </trkpt>
      <trkpt lat="37.4173500" lon="-4.5122600">
        <ele>443.6</ele>
        <time>2021-12-29T09:02:52Z</time>
      </trkpt>
      <trkpt lat="37.4173570" lon="-4.5123250">
        <ele>443.6</ele>
        <time>2021-12-29T09:02:53Z</time>
      </trkpt>
      <trkpt lat="37.4173630" lon="-4.5123920">
        <ele>443.6</ele>
        <time>2021-12-29T09:02:54Z</time>
      </trkpt>
      <trkpt lat="37.4173700" lon="-4.5124570">
        <ele>443.4</ele>
        <time>2021-12-29T09:02:55Z</time>
      </trkpt>
      <trkpt lat="37.4173760" lon="-4.5125200">
        <ele>443.4</ele>
        <time>2021-12-29T09:02:56Z</time>
      </trkpt>
      <trkpt lat="37.4173890" lon="-4.5125850">
        <ele>443.4</ele>
        <time>2021-12-29T09:02:57Z</time>
      </trkpt>
      <trkpt lat="37.4174050" lon="-4.5126520">
        <ele>443.4</ele>
        <time>2021-12-29T09:02:58Z</time>
      </trkpt>
      <trkpt lat="37.4174210" lon="-4.5127170">
        <ele>443.2</ele>
        <time>2021-12-29T09:02:59Z</time>
      </trkpt>
      <trkpt lat="37.4174340" lon="-4.5127850">
        <ele>443.4</ele>
        <time>2021-12-29T09:03:00Z</time>
      </trkpt>
      <trkpt lat="37.4174500" lon="-4.5128560">
        <ele>443.4</ele>
        <time>2021-12-29T09:03:01Z</time>
      </trkpt>
      <trkpt lat="37.4174660" lon="-4.5129280">
        <ele>443.2</ele>
        <time>2021-12-29T09:03:02Z</time>
      </trkpt>
      <trkpt lat="37.4174750" lon="-4.5130020">
        <ele>443.2</ele>
        <time>2021-12-29T09:03:03Z</time>
      </trkpt>
      <trkpt lat="37.4175010" lon="-4.5130750">
        <ele>443.0</ele>
        <time>2021-12-29T09:03:04Z</time>
      </trkpt>
      <trkpt lat="37.4175200" lon="-4.5131440">
        <ele>443.0</ele>
        <time>2021-12-29T09:03:05Z</time>
      </trkpt>
      <trkpt lat="37.4175420" lon="-4.5132160">
        <ele>442.8</ele>
        <time>2021-12-29T09:03:06Z</time>
      </trkpt>
      <trkpt lat="37.4175620" lon="-4.5132880">
        <ele>442.8</ele>
        <time>2021-12-29T09:03:07Z</time>
      </trkpt>
      <trkpt lat="37.4175810" lon="-4.5133580">
        <ele>442.6</ele>
        <time>2021-12-29T09:03:08Z</time>
      </trkpt>
      <trkpt lat="37.4176000" lon="-4.5134280">
        <ele>442.6</ele>
        <time>2021-12-29T09:03:09Z</time>
      </trkpt>
      <trkpt lat="37.4176220" lon="-4.5134980">
        <ele>442.6</ele>
        <time>2021-12-29T09:03:10Z</time>
      </trkpt>
      <trkpt lat="37.4176450" lon="-4.5135660">
        <ele>442.4</ele>
        <time>2021-12-29T09:03:11Z</time>
      </trkpt>
      <trkpt lat="37.4176640" lon="-4.5136350">
        <ele>442.4</ele>
        <time>2021-12-29T09:03:12Z</time>
      </trkpt>
      <trkpt lat="37.4176900" lon="-4.5137020">
        <ele>442.4</ele>
        <time>2021-12-29T09:03:13Z</time>
      </trkpt>
      <trkpt lat="37.4177120" lon="-4.5137680">
        <ele>442.4</ele>
        <time>2021-12-29T09:03:14Z</time>
      </trkpt>
      <trkpt lat="37.4177380" lon="-4.5138350">
        <ele>442.4</ele>
        <time>2021-12-29T09:03:15Z</time>
      </trkpt>
      <trkpt lat="37.4177630" lon="-4.5139000">
        <ele>442.4</ele>
        <time>2021-12-29T09:03:16Z</time>
      </trkpt>
      <trkpt lat="37.4177860" lon="-4.5139630">
        <ele>442.4</ele>
        <time>2021-12-29T09:03:17Z</time>
      </trkpt>
      <trkpt lat="37.4178080" lon="-4.5140270">
        <ele>442.4</ele>
        <time>2021-12-29T09:03:18Z</time>
      </trkpt>
      <trkpt lat="37.4178370" lon="-4.5140900">
        <ele>442.4</ele>
        <time>2021-12-29T09:03:19Z</time>
      </trkpt>
      <trkpt lat="37.4178590" lon="-4.5141520">
        <ele>442.4</ele>
        <time>2021-12-29T09:03:20Z</time>
      </trkpt>
      <trkpt lat="37.4178850" lon="-4.5142120">
        <ele>442.2</ele>
        <time>2021-12-29T09:03:21Z</time>
      </trkpt>
      <trkpt lat="37.4179070" lon="-4.5142730">
        <ele>442.2</ele>
        <time>2021-12-29T09:03:22Z</time>
      </trkpt>
      <trkpt lat="37.4179360" lon="-4.5143380">
        <ele>442.2</ele>
        <time>2021-12-29T09:03:23Z</time>
      </trkpt>
      <trkpt lat="37.4179620" lon="-4.5144020">
        <ele>442.2</ele>
        <time>2021-12-29T09:03:24Z</time>
      </trkpt>
      <trkpt lat="37.4179870" lon="-4.5144640">
        <ele>442.2</ele>
        <time>2021-12-29T09:03:25Z</time>
      </trkpt>
      <trkpt lat="37.4180160" lon="-4.5145240">
        <ele>442.0</ele>
        <time>2021-12-29T09:03:26Z</time>
      </trkpt>
      <trkpt lat="37.4180450" lon="-4.5145820">
        <ele>442.0</ele>
        <time>2021-12-29T09:03:27Z</time>
      </trkpt>
      <trkpt lat="37.4180700" lon="-4.5146400">
        <ele>442.0</ele>
        <time>2021-12-29T09:03:28Z</time>
      </trkpt>
      <trkpt lat="37.4180900" lon="-4.5146980">
        <ele>442.0</ele>
        <time>2021-12-29T09:03:29Z</time>
      </trkpt>
      <trkpt lat="37.4181150" lon="-4.5147580">
        <ele>441.8</ele>
        <time>2021-12-29T09:03:30Z</time>
      </trkpt>
      <trkpt lat="37.4181380" lon="-4.5148140">
        <ele>441.8</ele>
        <time>2021-12-29T09:03:31Z</time>
      </trkpt>
      <trkpt lat="37.4181630" lon="-4.5148720">
        <ele>441.6</ele>
        <time>2021-12-29T09:03:32Z</time>
      </trkpt>
      <trkpt lat="37.4181860" lon="-4.5149300">
        <ele>441.6</ele>
        <time>2021-12-29T09:03:33Z</time>
      </trkpt>
      <trkpt lat="37.4182080" lon="-4.5149920">
        <ele>441.4</ele>
        <time>2021-12-29T09:03:34Z</time>
      </trkpt>
      <trkpt lat="37.4182370" lon="-4.5150550">
        <ele>441.4</ele>
        <time>2021-12-29T09:03:35Z</time>
      </trkpt>
      <trkpt lat="37.4182590" lon="-4.5151170">
        <ele>441.2</ele>
        <time>2021-12-29T09:03:36Z</time>
      </trkpt>
      <trkpt lat="37.4182850" lon="-4.5151780">
        <ele>441.0</ele>
        <time>2021-12-29T09:03:37Z</time>
      </trkpt>
      <trkpt lat="37.4183140" lon="-4.5152400">
        <ele>441.0</ele>
        <time>2021-12-29T09:03:38Z</time>
      </trkpt>
      <trkpt lat="37.4183420" lon="-4.5153030">
        <ele>440.8</ele>
        <time>2021-12-29T09:03:39Z</time>
      </trkpt>
      <trkpt lat="37.4183680" lon="-4.5153660">
        <ele>440.8</ele>
        <time>2021-12-29T09:03:40Z</time>
      </trkpt>
      <trkpt lat="37.4183970" lon="-4.5154320">
        <ele>440.6</ele>
        <time>2021-12-29T09:03:41Z</time>
      </trkpt>
      <trkpt lat="37.4184220" lon="-4.5154970">
        <ele>440.6</ele>
        <time>2021-12-29T09:03:42Z</time>
      </trkpt>
      <trkpt lat="37.4184480" lon="-4.5155580">
        <ele>440.4</ele>
        <time>2021-12-29T09:03:43Z</time>
      </trkpt>
      <trkpt lat="37.4184670" lon="-4.5156080">
        <ele>440.4</ele>
        <time>2021-12-29T09:03:44Z</time>
      </trkpt>
      <trkpt lat="37.4184990" lon="-4.5156830">
        <ele>440.4</ele>
        <time>2021-12-29T09:03:45Z</time>
      </trkpt>
      <trkpt lat="37.4185250" lon="-4.5157430">
        <ele>440.2</ele>
        <time>2021-12-29T09:03:46Z</time>
      </trkpt>
      <trkpt lat="37.4185470" lon="-4.5158050">
        <ele>440.2</ele>
        <time>2021-12-29T09:03:47Z</time>
      </trkpt>
      <trkpt lat="37.4185760" lon="-4.5158670">
        <ele>440.0</ele>
        <time>2021-12-29T09:03:48Z</time>
      </trkpt>
      <trkpt lat="37.4186020" lon="-4.5159280">
        <ele>440.0</ele>
        <time>2021-12-29T09:03:49Z</time>
      </trkpt>
      <trkpt lat="37.4186240" lon="-4.5159900">
        <ele>439.8</ele>
        <time>2021-12-29T09:03:50Z</time>
      </trkpt>
      <trkpt lat="37.4186530" lon="-4.5160520">
        <ele>439.8</ele>
        <time>2021-12-29T09:03:51Z</time>
      </trkpt>
      <trkpt lat="37.4186780" lon="-4.5161130">
        <ele>439.8</ele>
        <time>2021-12-29T09:03:52Z</time>
      </trkpt>
      <trkpt lat="37.4187040" lon="-4.5161750">
        <ele>439.6</ele>
        <time>2021-12-29T09:03:53Z</time>
      </trkpt>
      <trkpt lat="37.4187330" lon="-4.5162380">
        <ele>439.6</ele>
        <time>2021-12-29T09:03:54Z</time>
      </trkpt>
      <trkpt lat="37.4187580" lon="-4.5163000">
        <ele>439.4</ele>
        <time>2021-12-29T09:03:55Z</time>
      </trkpt>
      <trkpt lat="37.4187740" lon="-4.5163470">
        <ele>439.2</ele>
        <time>2021-12-29T09:03:56Z</time>
      </trkpt>
      <trkpt lat="37.4188030" lon="-4.5164220">
        <ele>439.2</ele>
        <time>2021-12-29T09:03:57Z</time>
      </trkpt>
      <trkpt lat="37.4188260" lon="-4.5164850">
        <ele>439.0</ele>
        <time>2021-12-29T09:03:58Z</time>
      </trkpt>
      <trkpt lat="37.4188540" lon="-4.5165470">
        <ele>438.8</ele>
        <time>2021-12-29T09:03:59Z</time>
      </trkpt>
      <trkpt lat="37.4188770" lon="-4.5166100">
        <ele>438.8</ele>
        <time>2021-12-29T09:04:00Z</time>
      </trkpt>
      <trkpt lat="37.4188990" lon="-4.5166730">
        <ele>438.6</ele>
        <time>2021-12-29T09:04:01Z</time>
      </trkpt>
      <trkpt lat="37.4189220" lon="-4.5167360">
        <ele>438.4</ele>
        <time>2021-12-29T09:04:02Z</time>
      </trkpt>
      <trkpt lat="37.4189500" lon="-4.5167980">
        <ele>438.4</ele>
        <time>2021-12-29T09:04:03Z</time>
      </trkpt>
      <trkpt lat="37.4189760" lon="-4.5168600">
        <ele>438.4</ele>
        <time>2021-12-29T09:04:04Z</time>
      </trkpt>
      <trkpt lat="37.4189980" lon="-4.5169200">
        <ele>438.2</ele>
        <time>2021-12-29T09:04:05Z</time>
      </trkpt>
      <trkpt lat="37.4190240" lon="-4.5169820">
        <ele>438.2</ele>
        <time>2021-12-29T09:04:06Z</time>
      </trkpt>
      <trkpt lat="37.4190500" lon="-4.5170420">
        <ele>438.2</ele>
        <time>2021-12-29T09:04:07Z</time>
      </trkpt>
      <trkpt lat="37.4190750" lon="-4.5171020">
        <ele>438.2</ele>
        <time>2021-12-29T09:04:08Z</time>
      </trkpt>
      <trkpt lat="37.4191010" lon="-4.5171620">
        <ele>438.0</ele>
        <time>2021-12-29T09:04:09Z</time>
      </trkpt>
      <trkpt lat="37.4191230" lon="-4.5172220">
        <ele>437.8</ele>
        <time>2021-12-29T09:04:10Z</time>
      </trkpt>
      <trkpt lat="37.4191490" lon="-4.5172800">
        <ele>437.8</ele>
        <time>2021-12-29T09:04:11Z</time>
      </trkpt>
      <trkpt lat="37.4191780" lon="-4.5173420">
        <ele>437.6</ele>
        <time>2021-12-29T09:04:12Z</time>
      </trkpt>
      <trkpt lat="37.4192030" lon="-4.5174020">
        <ele>437.6</ele>
        <time>2021-12-29T09:04:13Z</time>
      </trkpt>
      <trkpt lat="37.4192290" lon="-4.5174620">
        <ele>437.4</ele>
        <time>2021-12-29T09:04:14Z</time>
      </trkpt>
      <trkpt lat="37.4192540" lon="-4.5175250">
        <ele>437.2</ele>
        <time>2021-12-29T09:04:15Z</time>
      </trkpt>
      <trkpt lat="37.4192800" lon="-4.5175870">
        <ele>437.2</ele>
        <time>2021-12-29T09:04:16Z</time>
      </trkpt>
      <trkpt lat="37.4193090" lon="-4.5176480">
        <ele>437.0</ele>
        <time>2021-12-29T09:04:17Z</time>
      </trkpt>
      <trkpt lat="37.4193340" lon="-4.5177100">
        <ele>437.0</ele>
        <time>2021-12-29T09:04:18Z</time>
      </trkpt>
      <trkpt lat="37.4193600" lon="-4.5177730">
        <ele>437.0</ele>
        <time>2021-12-29T09:04:19Z</time>
      </trkpt>
      <trkpt lat="37.4193890" lon="-4.5178360">
        <ele>436.8</ele>
        <time>2021-12-29T09:04:20Z</time>
      </trkpt>
      <trkpt lat="37.4194140" lon="-4.5179000">
        <ele>436.8</ele>
        <time>2021-12-29T09:04:21Z</time>
      </trkpt>
      <trkpt lat="37.4194400" lon="-4.5179670">
        <ele>436.6</ele>
        <time>2021-12-29T09:04:22Z</time>
      </trkpt>
      <trkpt lat="37.4194690" lon="-4.5180280">
        <ele>436.6</ele>
        <time>2021-12-29T09:04:23Z</time>
      </trkpt>
      <trkpt lat="37.4194910" lon="-4.5180900">
        <ele>436.6</ele>
        <time>2021-12-29T09:04:24Z</time>
      </trkpt>
      <trkpt lat="37.4195140" lon="-4.5181500">
        <ele>436.4</ele>
        <time>2021-12-29T09:04:25Z</time>
      </trkpt>
      <trkpt lat="37.4195390" lon="-4.5182100">
        <ele>436.4</ele>
        <time>2021-12-29T09:04:26Z</time>
      </trkpt>
      <trkpt lat="37.4195680" lon="-4.5182720">
        <ele>436.2</ele>
        <time>2021-12-29T09:04:27Z</time>
      </trkpt>
      <trkpt lat="37.4195900" lon="-4.5183340">
        <ele>436.0</ele>
        <time>2021-12-29T09:04:28Z</time>
      </trkpt>
      <trkpt lat="37.4196160" lon="-4.5183920">
        <ele>436.0</ele>
        <time>2021-12-29T09:04:29Z</time>
      </trkpt>
      <trkpt lat="37.4196380" lon="-4.5184500">
        <ele>435.8</ele>
        <time>2021-12-29T09:04:30Z</time>
      </trkpt>
      <trkpt lat="37.4196670" lon="-4.5185100">
        <ele>435.6</ele>
        <time>2021-12-29T09:04:31Z</time>
      </trkpt>
      <trkpt lat="37.4196930" lon="-4.5185680">
        <ele>435.6</ele>
        <time>2021-12-29T09:04:32Z</time>
      </trkpt>
      <trkpt lat="37.4197150" lon="-4.5186280">
        <ele>435.4</ele>
        <time>2021-12-29T09:04:33Z</time>
      </trkpt>
      <trkpt lat="37.4197380" lon="-4.5186900">
        <ele>435.4</ele>
        <time>2021-12-29T09:04:34Z</time>
      </trkpt>
      <trkpt lat="37.4197660" lon="-4.5187540">
        <ele>435.4</ele>
        <time>2021-12-29T09:04:35Z</time>
      </trkpt>
      <trkpt lat="37.4197920" lon="-4.5188160">
        <ele>435.4</ele>
        <time>2021-12-29T09:04:36Z</time>
      </trkpt>
      <trkpt lat="37.4198180" lon="-4.5188800">
        <ele>435.2</ele>
        <time>2021-12-29T09:04:37Z</time>
      </trkpt>
      <trkpt lat="37.4198460" lon="-4.5189450">
        <ele>435.2</ele>
        <time>2021-12-29T09:04:38Z</time>
      </trkpt>
      <trkpt lat="37.4198720" lon="-4.5190080">
        <ele>435.2</ele>
        <time>2021-12-29T09:04:39Z</time>
      </trkpt>
      <trkpt lat="37.4199040" lon="-4.5190700">
        <ele>435.2</ele>
        <time>2021-12-29T09:04:40Z</time>
      </trkpt>
      <trkpt lat="37.4199300" lon="-4.5191320">
        <ele>435.2</ele>
        <time>2021-12-29T09:04:41Z</time>
      </trkpt>
      <trkpt lat="37.4199550" lon="-4.5191950">
        <ele>435.0</ele>
        <time>2021-12-29T09:04:42Z</time>
      </trkpt>
      <trkpt lat="37.4199780" lon="-4.5192600">
        <ele>435.0</ele>
        <time>2021-12-29T09:04:43Z</time>
      </trkpt>
      <trkpt lat="37.4200060" lon="-4.5193220">
        <ele>434.8</ele>
        <time>2021-12-29T09:04:44Z</time>
      </trkpt>
      <trkpt lat="37.4200290" lon="-4.5193850">
        <ele>434.8</ele>
        <time>2021-12-29T09:04:45Z</time>
      </trkpt>
      <trkpt lat="37.4200540" lon="-4.5194480">
        <ele>434.6</ele>
        <time>2021-12-29T09:04:46Z</time>
      </trkpt>
      <trkpt lat="37.4200770" lon="-4.5195080">
        <ele>434.6</ele>
        <time>2021-12-29T09:04:47Z</time>
      </trkpt>
      <trkpt lat="37.4201060" lon="-4.5195680">
        <ele>434.4</ele>
        <time>2021-12-29T09:04:48Z</time>
      </trkpt>
      <trkpt lat="37.4201310" lon="-4.5196280">
        <ele>434.2</ele>
        <time>2021-12-29T09:04:49Z</time>
      </trkpt>
      <trkpt lat="37.4201570" lon="-4.5196900">
        <ele>434.2</ele>
        <time>2021-12-29T09:04:50Z</time>
      </trkpt>
      <trkpt lat="37.4201860" lon="-4.5197550">
        <ele>434.0</ele>
        <time>2021-12-29T09:04:51Z</time>
      </trkpt>
      <trkpt lat="37.4202140" lon="-4.5198180">
        <ele>433.8</ele>
        <time>2021-12-29T09:04:52Z</time>
      </trkpt>
      <trkpt lat="37.4202400" lon="-4.5198800">
        <ele>433.8</ele>
        <time>2021-12-29T09:04:53Z</time>
      </trkpt>
      <trkpt lat="37.4202660" lon="-4.5199450">
        <ele>433.6</ele>
        <time>2021-12-29T09:04:54Z</time>
      </trkpt>
      <trkpt lat="37.4202880" lon="-4.5200070">
        <ele>433.6</ele>
        <time>2021-12-29T09:04:55Z</time>
      </trkpt>
      <trkpt lat="37.4203070" lon="-4.5200700">
        <ele>433.6</ele>
        <time>2021-12-29T09:04:56Z</time>
      </trkpt>
      <trkpt lat="37.4203300" lon="-4.5201340">
        <ele>433.4</ele>
        <time>2021-12-29T09:04:57Z</time>
      </trkpt>
      <trkpt lat="37.4203550" lon="-4.5201930">
        <ele>433.4</ele>
        <time>2021-12-29T09:04:58Z</time>
      </trkpt>
      <trkpt lat="37.4203840" lon="-4.5202550">
        <ele>433.2</ele>
        <time>2021-12-29T09:04:59Z</time>
      </trkpt>
      <trkpt lat="37.4204100" lon="-4.5203170">
        <ele>433.2</ele>
        <time>2021-12-29T09:05:00Z</time>
      </trkpt>
      <trkpt lat="37.4204380" lon="-4.5203820">
        <ele>433.0</ele>
        <time>2021-12-29T09:05:01Z</time>
      </trkpt>
      <trkpt lat="37.4204640" lon="-4.5204470">
        <ele>433.0</ele>
        <time>2021-12-29T09:05:02Z</time>
      </trkpt>
      <trkpt lat="37.4204900" lon="-4.5205150">
        <ele>432.8</ele>
        <time>2021-12-29T09:05:03Z</time>
      </trkpt>
      <trkpt lat="37.4205180" lon="-4.5205780">
        <ele>432.8</ele>
        <time>2021-12-29T09:05:04Z</time>
      </trkpt>
      <trkpt lat="37.4205440" lon="-4.5206430">
        <ele>432.8</ele>
        <time>2021-12-29T09:05:05Z</time>
      </trkpt>
      <trkpt lat="37.4205700" lon="-4.5207080">
        <ele>432.8</ele>
        <time>2021-12-29T09:05:06Z</time>
      </trkpt>
      <trkpt lat="37.4205980" lon="-4.5207720">
        <ele>432.6</ele>
        <time>2021-12-29T09:05:07Z</time>
      </trkpt>
      <trkpt lat="37.4206240" lon="-4.5208370">
        <ele>432.6</ele>
        <time>2021-12-29T09:05:08Z</time>
      </trkpt>
      <trkpt lat="37.4206460" lon="-4.5209000">
        <ele>432.6</ele>
        <time>2021-12-29T09:05:09Z</time>
      </trkpt>
      <trkpt lat="37.4206780" lon="-4.5209650">
        <ele>432.6</ele>
        <time>2021-12-29T09:05:10Z</time>
      </trkpt>
      <trkpt lat="37.4207040" lon="-4.5210320">
        <ele>432.4</ele>
        <time>2021-12-29T09:05:11Z</time>
      </trkpt>
      <trkpt lat="37.4207300" lon="-4.5210950">
        <ele>432.4</ele>
        <time>2021-12-29T09:05:12Z</time>
      </trkpt>
      <trkpt lat="37.4207620" lon="-4.5211580">
        <ele>432.4</ele>
        <time>2021-12-29T09:05:13Z</time>
      </trkpt>
      <trkpt lat="37.4207870" lon="-4.5212230">
        <ele>432.2</ele>
        <time>2021-12-29T09:05:14Z</time>
      </trkpt>
      <trkpt lat="37.4208190" lon="-4.5212880">
        <ele>432.2</ele>
        <time>2021-12-29T09:05:15Z</time>
      </trkpt>
      <trkpt lat="37.4208450" lon="-4.5213520">
        <ele>432.0</ele>
        <time>2021-12-29T09:05:16Z</time>
      </trkpt>
      <trkpt lat="37.4208700" lon="-4.5214170">
        <ele>432.0</ele>
        <time>2021-12-29T09:05:17Z</time>
      </trkpt>
      <trkpt lat="37.4208990" lon="-4.5214820">
        <ele>432.0</ele>
        <time>2021-12-29T09:05:18Z</time>
      </trkpt>
      <trkpt lat="37.4209250" lon="-4.5215470">
        <ele>432.0</ele>
        <time>2021-12-29T09:05:19Z</time>
      </trkpt>
      <trkpt lat="37.4209500" lon="-4.5216080">
        <ele>431.8</ele>
        <time>2021-12-29T09:05:20Z</time>
      </trkpt>
      <trkpt lat="37.4209790" lon="-4.5216700">
        <ele>431.8</ele>
        <time>2021-12-29T09:05:21Z</time>
      </trkpt>
      <trkpt lat="37.4210050" lon="-4.5217330">
        <ele>431.6</ele>
        <time>2021-12-29T09:05:22Z</time>
      </trkpt>
      <trkpt lat="37.4210300" lon="-4.5218000">
        <ele>431.6</ele>
        <time>2021-12-29T09:05:23Z</time>
      </trkpt>
      <trkpt lat="37.4210590" lon="-4.5218670">
        <ele>431.4</ele>
        <time>2021-12-29T09:05:24Z</time>
      </trkpt>
      <trkpt lat="37.4210850" lon="-4.5219320">
        <ele>431.4</ele>
        <time>2021-12-29T09:05:25Z</time>
      </trkpt>
      <trkpt lat="37.4211140" lon="-4.5219930">
        <ele>431.2</ele>
        <time>2021-12-29T09:05:26Z</time>
      </trkpt>
      <trkpt lat="37.4211390" lon="-4.5220600">
        <ele>431.2</ele>
        <time>2021-12-29T09:05:27Z</time>
      </trkpt>
      <trkpt lat="37.4211680" lon="-4.5221230">
        <ele>431.0</ele>
        <time>2021-12-29T09:05:28Z</time>
      </trkpt>
      <trkpt lat="37.4211940" lon="-4.5221880">
        <ele>431.0</ele>
        <time>2021-12-29T09:05:29Z</time>
      </trkpt>
      <trkpt lat="37.4212190" lon="-4.5222500">
        <ele>431.0</ele>
        <time>2021-12-29T09:05:30Z</time>
      </trkpt>
      <trkpt lat="37.4212450" lon="-4.5223100">
        <ele>430.8</ele>
        <time>2021-12-29T09:05:31Z</time>
      </trkpt>
      <trkpt lat="37.4212670" lon="-4.5223720">
        <ele>430.8</ele>
        <time>2021-12-29T09:05:32Z</time>
      </trkpt>
      <trkpt lat="37.4212960" lon="-4.5224300">
        <ele>430.8</ele>
        <time>2021-12-29T09:05:33Z</time>
      </trkpt>
      <trkpt lat="37.4213180" lon="-4.5224820">
        <ele>430.8</ele>
        <time>2021-12-29T09:05:34Z</time>
      </trkpt>
      <trkpt lat="37.4213380" lon="-4.5225340">
        <ele>430.6</ele>
        <time>2021-12-29T09:05:35Z</time>
      </trkpt>
      <trkpt lat="37.4213600" lon="-4.5225850">
        <ele>430.6</ele>
        <time>2021-12-29T09:05:36Z</time>
      </trkpt>
      <trkpt lat="37.4213790" lon="-4.5226350">
        <ele>430.6</ele>
        <time>2021-12-29T09:05:37Z</time>
      </trkpt>
      <trkpt lat="37.4213950" lon="-4.5226850">
        <ele>430.4</ele>
        <time>2021-12-29T09:05:38Z</time>
      </trkpt>
      <trkpt lat="37.4214140" lon="-4.5227380">
        <ele>430.4</ele>
        <time>2021-12-29T09:05:39Z</time>
      </trkpt>
      <trkpt lat="37.4214270" lon="-4.5227780">
        <ele>430.4</ele>
        <time>2021-12-29T09:05:40Z</time>
      </trkpt>
      <trkpt lat="37.4214560" lon="-4.5228330">
        <ele>430.2</ele>
        <time>2021-12-29T09:05:41Z</time>
      </trkpt>
      <trkpt lat="37.4214720" lon="-4.5228650">
        <ele>430.2</ele>
        <time>2021-12-29T09:05:42Z</time>
      </trkpt>
      <trkpt lat="37.4214940" lon="-4.5229040">
        <ele>430.0</ele>
        <time>2021-12-29T09:05:43Z</time>
      </trkpt>
      <trkpt lat="37.4215070" lon="-4.5229440">
        <ele>430.0</ele>
        <time>2021-12-29T09:05:44Z</time>
      </trkpt>
      <trkpt lat="37.4215330" lon="-4.5229850">
        <ele>429.8</ele>
        <time>2021-12-29T09:05:45Z</time>
      </trkpt>
      <trkpt lat="37.4215460" lon="-4.5230360">
        <ele>429.8</ele>
        <time>2021-12-29T09:05:46Z</time>
      </trkpt>
      <trkpt lat="37.4215650" lon="-4.5230900">
        <ele>429.6</ele>
        <time>2021-12-29T09:05:47Z</time>
      </trkpt>
      <trkpt lat="37.4215840" lon="-4.5231450">
        <ele>429.6</ele>
        <time>2021-12-29T09:05:48Z</time>
      </trkpt>
      <trkpt lat="37.4216030" lon="-4.5231950">
        <ele>429.6</ele>
        <time>2021-12-29T09:05:49Z</time>
      </trkpt>
      <trkpt lat="37.4216220" lon="-4.5232450">
        <ele>429.4</ele>
        <time>2021-12-29T09:05:50Z</time>
      </trkpt>
      <trkpt lat="37.4216450" lon="-4.5232970">
        <ele>429.4</ele>
        <time>2021-12-29T09:05:51Z</time>
      </trkpt>
      <trkpt lat="37.4216700" lon="-4.5233540">
        <ele>429.4</ele>
        <time>2021-12-29T09:05:52Z</time>
      </trkpt>
      <trkpt lat="37.4216930" lon="-4.5234060">
        <ele>429.4</ele>
        <time>2021-12-29T09:05:53Z</time>
      </trkpt>
      <trkpt lat="37.4217120" lon="-4.5234620">
        <ele>429.4</ele>
        <time>2021-12-29T09:05:54Z</time>
      </trkpt>
      <trkpt lat="37.4217340" lon="-4.5235120">
        <ele>429.4</ele>
        <time>2021-12-29T09:05:55Z</time>
      </trkpt>
      <trkpt lat="37.4217570" lon="-4.5235630">
        <ele>429.4</ele>
        <time>2021-12-29T09:05:56Z</time>
      </trkpt>
      <trkpt lat="37.4217760" lon="-4.5236170">
        <ele>429.4</ele>
        <time>2021-12-29T09:05:57Z</time>
      </trkpt>
      <trkpt lat="37.4217980" lon="-4.5236700">
        <ele>429.2</ele>
        <time>2021-12-29T09:05:58Z</time>
      </trkpt>
      <trkpt lat="37.4218210" lon="-4.5237200">
        <ele>429.2</ele>
        <time>2021-12-29T09:05:59Z</time>
      </trkpt>
      <trkpt lat="37.4218400" lon="-4.5237720">
        <ele>429.2</ele>
        <time>2021-12-29T09:06:00Z</time>
      </trkpt>
      <trkpt lat="37.4218620" lon="-4.5238250">
        <ele>429.2</ele>
        <time>2021-12-29T09:06:01Z</time>
      </trkpt>
      <trkpt lat="37.4218880" lon="-4.5238800">
        <ele>429.2</ele>
        <time>2021-12-29T09:06:02Z</time>
      </trkpt>
      <trkpt lat="37.4219100" lon="-4.5239370">
        <ele>429.2</ele>
        <time>2021-12-29T09:06:03Z</time>
      </trkpt>
      <trkpt lat="37.4219360" lon="-4.5239870">
        <ele>429.2</ele>
        <time>2021-12-29T09:06:04Z</time>
      </trkpt>
      <trkpt lat="37.4219580" lon="-4.5240430">
        <ele>429.2</ele>
        <time>2021-12-29T09:06:05Z</time>
      </trkpt>
      <trkpt lat="37.4219810" lon="-4.5241030">
        <ele>429.2</ele>
        <time>2021-12-29T09:06:06Z</time>
      </trkpt>
      <trkpt lat="37.4220030" lon="-4.5241620">
        <ele>429.2</ele>
        <time>2021-12-29T09:06:07Z</time>
      </trkpt>
      <trkpt lat="37.4220320" lon="-4.5242220">
        <ele>429.2</ele>
        <time>2021-12-29T09:06:08Z</time>
      </trkpt>
      <trkpt lat="37.4220540" lon="-4.5242840">
        <ele>429.2</ele>
        <time>2021-12-29T09:06:09Z</time>
      </trkpt>
      <trkpt lat="37.4220800" lon="-4.5243470">
        <ele>429.2</ele>
        <time>2021-12-29T09:06:10Z</time>
      </trkpt>
      <trkpt lat="37.4221020" lon="-4.5244130">
        <ele>429.2</ele>
        <time>2021-12-29T09:06:11Z</time>
      </trkpt>
      <trkpt lat="37.4221310" lon="-4.5244780">
        <ele>429.4</ele>
        <time>2021-12-29T09:06:12Z</time>
      </trkpt>
      <trkpt lat="37.4221600" lon="-4.5245550">
        <ele>429.4</ele>
        <time>2021-12-29T09:06:13Z</time>
      </trkpt>
      <trkpt lat="37.4221790" lon="-4.5246000">
        <ele>429.4</ele>
        <time>2021-12-29T09:06:14Z</time>
      </trkpt>
      <trkpt lat="37.4222080" lon="-4.5246600">
        <ele>429.4</ele>
        <time>2021-12-29T09:06:15Z</time>
      </trkpt>
      <trkpt lat="37.4222340" lon="-4.5247200">
        <ele>429.4</ele>
        <time>2021-12-29T09:06:16Z</time>
      </trkpt>
      <trkpt lat="37.4222560" lon="-4.5247820">
        <ele>429.4</ele>
        <time>2021-12-29T09:06:17Z</time>
      </trkpt>
      <trkpt lat="37.4222780" lon="-4.5248450">
        <ele>429.4</ele>
        <time>2021-12-29T09:06:18Z</time>
      </trkpt>
      <trkpt lat="37.4223070" lon="-4.5249070">
        <ele>429.4</ele>
        <time>2021-12-29T09:06:19Z</time>
      </trkpt>
      <trkpt lat="37.4223300" lon="-4.5249700">
        <ele>429.4</ele>
        <time>2021-12-29T09:06:20Z</time>
      </trkpt>
      <trkpt lat="37.4223550" lon="-4.5250300">
        <ele>429.2</ele>
        <time>2021-12-29T09:06:21Z</time>
      </trkpt>
      <trkpt lat="37.4223810" lon="-4.5250930">
        <ele>429.0</ele>
        <time>2021-12-29T09:06:22Z</time>
      </trkpt>
      <trkpt lat="37.4224060" lon="-4.5251550">
        <ele>429.0</ele>
        <time>2021-12-29T09:06:23Z</time>
      </trkpt>
      <trkpt lat="37.4224320" lon="-4.5252160">
        <ele>429.0</ele>
        <time>2021-12-29T09:06:24Z</time>
      </trkpt>
      <trkpt lat="37.4224580" lon="-4.5252800">
        <ele>428.8</ele>
        <time>2021-12-29T09:06:25Z</time>
      </trkpt>
      <trkpt lat="37.4224860" lon="-4.5253440">
        <ele>428.8</ele>
        <time>2021-12-29T09:06:26Z</time>
      </trkpt>
      <trkpt lat="37.4225120" lon="-4.5254080">
        <ele>428.6</ele>
        <time>2021-12-29T09:06:27Z</time>
      </trkpt>
      <trkpt lat="37.4225440" lon="-4.5254740">
        <ele>428.4</ele>
        <time>2021-12-29T09:06:28Z</time>
      </trkpt>
      <trkpt lat="37.4225700" lon="-4.5255380">
        <ele>428.4</ele>
        <time>2021-12-29T09:06:29Z</time>
      </trkpt>
      <trkpt lat="37.4225950" lon="-4.5256020">
        <ele>428.2</ele>
        <time>2021-12-29T09:06:30Z</time>
      </trkpt>
      <trkpt lat="37.4226240" lon="-4.5256620">
        <ele>428.2</ele>
        <time>2021-12-29T09:06:31Z</time>
      </trkpt>
      <trkpt lat="37.4226500" lon="-4.5257220">
        <ele>428.0</ele>
        <time>2021-12-29T09:06:32Z</time>
      </trkpt>
      <trkpt lat="37.4226720" lon="-4.5257850">
        <ele>428.0</ele>
        <time>2021-12-29T09:06:33Z</time>
      </trkpt>
      <trkpt lat="37.4226980" lon="-4.5258420">
        <ele>427.8</ele>
        <time>2021-12-29T09:06:34Z</time>
      </trkpt>
      <trkpt lat="37.4227230" lon="-4.5258980">
        <ele>427.8</ele>
        <time>2021-12-29T09:06:35Z</time>
      </trkpt>
      <trkpt lat="37.4227460" lon="-4.5259580">
        <ele>427.6</ele>
        <time>2021-12-29T09:06:36Z</time>
      </trkpt>
      <trkpt lat="37.4227710" lon="-4.5260200">
        <ele>427.4</ele>
        <time>2021-12-29T09:06:37Z</time>
      </trkpt>
      <trkpt lat="37.4227940" lon="-4.5260800">
        <ele>427.4</ele>
        <time>2021-12-29T09:06:38Z</time>
      </trkpt>
      <trkpt lat="37.4228160" lon="-4.5261400">
        <ele>427.2</ele>
        <time>2021-12-29T09:06:39Z</time>
      </trkpt>
      <trkpt lat="37.4228420" lon="-4.5261960">
        <ele>427.2</ele>
        <time>2021-12-29T09:06:40Z</time>
      </trkpt>
      <trkpt lat="37.4228670" lon="-4.5262530">
        <ele>427.0</ele>
        <time>2021-12-29T09:06:41Z</time>
      </trkpt>
      <trkpt lat="37.4228860" lon="-4.5263080">
        <ele>427.0</ele>
        <time>2021-12-29T09:06:42Z</time>
      </trkpt>
      <trkpt lat="37.4229120" lon="-4.5263680">
        <ele>426.8</ele>
        <time>2021-12-29T09:06:43Z</time>
      </trkpt>
      <trkpt lat="37.4229410" lon="-4.5264400">
        <ele>426.6</ele>
        <time>2021-12-29T09:06:44Z</time>
      </trkpt>
      <trkpt lat="37.4229570" lon="-4.5264880">
        <ele>426.6</ele>
        <time>2021-12-29T09:06:45Z</time>
      </trkpt>
      <trkpt lat="37.4229860" lon="-4.5265460">
        <ele>426.6</ele>
        <time>2021-12-29T09:06:46Z</time>
      </trkpt>
      <trkpt lat="37.4230110" lon="-4.5266050">
        <ele>426.4</ele>
        <time>2021-12-29T09:06:47Z</time>
      </trkpt>
      <trkpt lat="37.4230400" lon="-4.5266630">
        <ele>426.4</ele>
        <time>2021-12-29T09:06:48Z</time>
      </trkpt>
      <trkpt lat="37.4230560" lon="-4.5267230">
        <ele>426.2</ele>
        <time>2021-12-29T09:06:49Z</time>
      </trkpt>
      <trkpt lat="37.4230850" lon="-4.5267800">
        <ele>426.2</ele>
        <time>2021-12-29T09:06:50Z</time>
      </trkpt>
      <trkpt lat="37.4231070" lon="-4.5268400">
        <ele>426.2</ele>
        <time>2021-12-29T09:06:51Z</time>
      </trkpt>
      <trkpt lat="37.4231330" lon="-4.5269020">
        <ele>426.0</ele>
        <time>2021-12-29T09:06:52Z</time>
      </trkpt>
      <trkpt lat="37.4231620" lon="-4.5269650">
        <ele>426.0</ele>
        <time>2021-12-29T09:06:53Z</time>
      </trkpt>
      <trkpt lat="37.4231870" lon="-4.5270230">
        <ele>425.8</ele>
        <time>2021-12-29T09:06:54Z</time>
      </trkpt>
      <trkpt lat="37.4232190" lon="-4.5271000">
        <ele>425.8</ele>
        <time>2021-12-29T09:06:55Z</time>
      </trkpt>
      <trkpt lat="37.4232380" lon="-4.5271480">
        <ele>425.6</ele>
        <time>2021-12-29T09:06:56Z</time>
      </trkpt>
      <trkpt lat="37.4232640" lon="-4.5272080">
        <ele>425.6</ele>
        <time>2021-12-29T09:06:57Z</time>
      </trkpt>
      <trkpt lat="37.4232860" lon="-4.5272720">
        <ele>425.6</ele>
        <time>2021-12-29T09:06:58Z</time>
      </trkpt>
      <trkpt lat="37.4233120" lon="-4.5273330">
        <ele>425.4</ele>
        <time>2021-12-29T09:06:59Z</time>
      </trkpt>
      <trkpt lat="37.4233410" lon="-4.5273980">
        <ele>425.4</ele>
        <time>2021-12-29T09:07:00Z</time>
      </trkpt>
      <trkpt lat="37.4233660" lon="-4.5274640">
        <ele>425.4</ele>
        <time>2021-12-29T09:07:01Z</time>
      </trkpt>
      <trkpt lat="37.4233890" lon="-4.5275280">
        <ele>425.4</ele>
        <time>2021-12-29T09:07:02Z</time>
      </trkpt>
      <trkpt lat="37.4234180" lon="-4.5275900">
        <ele>425.2</ele>
        <time>2021-12-29T09:07:03Z</time>
      </trkpt>
      <trkpt lat="37.4234460" lon="-4.5276650">
        <ele>425.2</ele>
        <time>2021-12-29T09:07:04Z</time>
      </trkpt>
      <trkpt lat="37.4234660" lon="-4.5277170">
        <ele>425.0</ele>
        <time>2021-12-29T09:07:05Z</time>
      </trkpt>
      <trkpt lat="37.4234910" lon="-4.5277780">
        <ele>425.0</ele>
        <time>2021-12-29T09:07:06Z</time>
      </trkpt>
      <trkpt lat="37.4235170" lon="-4.5278400">
        <ele>425.0</ele>
        <time>2021-12-29T09:07:07Z</time>
      </trkpt>
      <trkpt lat="37.4235390" lon="-4.5279020">
        <ele>424.8</ele>
        <time>2021-12-29T09:07:08Z</time>
      </trkpt>
      <trkpt lat="37.4235650" lon="-4.5279650">
        <ele>424.8</ele>
        <time>2021-12-29T09:07:09Z</time>
      </trkpt>
      <trkpt lat="37.4235870" lon="-4.5280260">
        <ele>424.6</ele>
        <time>2021-12-29T09:07:10Z</time>
      </trkpt>
      <trkpt lat="37.4236160" lon="-4.5280870">
        <ele>424.6</ele>
        <time>2021-12-29T09:07:11Z</time>
      </trkpt>
      <trkpt lat="37.4236420" lon="-4.5281500">
        <ele>424.4</ele>
        <time>2021-12-29T09:07:12Z</time>
      </trkpt>
      <trkpt lat="37.4236670" lon="-4.5282120">
        <ele>424.2</ele>
        <time>2021-12-29T09:07:13Z</time>
      </trkpt>
      <trkpt lat="37.4236960" lon="-4.5282750">
        <ele>424.2</ele>
        <time>2021-12-29T09:07:14Z</time>
      </trkpt>
      <trkpt lat="37.4237220" lon="-4.5283350">
        <ele>424.0</ele>
        <time>2021-12-29T09:07:15Z</time>
      </trkpt>
      <trkpt lat="37.4237440" lon="-4.5283950">
        <ele>424.0</ele>
        <time>2021-12-29T09:07:16Z</time>
      </trkpt>
      <trkpt lat="37.4237700" lon="-4.5284550">
        <ele>423.8</ele>
        <time>2021-12-29T09:07:17Z</time>
      </trkpt>
      <trkpt lat="37.4237980" lon="-4.5285180">
        <ele>423.6</ele>
        <time>2021-12-29T09:07:18Z</time>
      </trkpt>
      <trkpt lat="37.4238210" lon="-4.5285780">
        <ele>423.4</ele>
        <time>2021-12-29T09:07:19Z</time>
      </trkpt>
      <trkpt lat="37.4238460" lon="-4.5286380">
        <ele>423.4</ele>
        <time>2021-12-29T09:07:20Z</time>
      </trkpt>
      <trkpt lat="37.4238690" lon="-4.5287000">
        <ele>423.2</ele>
        <time>2021-12-29T09:07:21Z</time>
      </trkpt>
      <trkpt lat="37.4238980" lon="-4.5287620">
        <ele>423.2</ele>
        <time>2021-12-29T09:07:22Z</time>
      </trkpt>
      <trkpt lat="37.4239230" lon="-4.5288220">
        <ele>423.0</ele>
        <time>2021-12-29T09:07:23Z</time>
      </trkpt>
      <trkpt lat="37.4239490" lon="-4.5288800">
        <ele>422.8</ele>
        <time>2021-12-29T09:07:24Z</time>
      </trkpt>
      <trkpt lat="37.4239740" lon="-4.5289400">
        <ele>422.6</ele>
        <time>2021-12-29T09:07:25Z</time>
      </trkpt>
      <trkpt lat="37.4240030" lon="-4.5290030">
        <ele>422.4</ele>
        <time>2021-12-29T09:07:26Z</time>
      </trkpt>
      <trkpt lat="37.4240290" lon="-4.5290660">
        <ele>422.4</ele>
        <time>2021-12-29T09:07:27Z</time>
      </trkpt>
      <trkpt lat="37.4240580" lon="-4.5291320">
        <ele>422.2</ele>
        <time>2021-12-29T09:07:28Z</time>
      </trkpt>
      <trkpt lat="37.4240800" lon="-4.5291950">
        <ele>422.0</ele>
        <time>2021-12-29T09:07:29Z</time>
      </trkpt>
      <trkpt lat="37.4241060" lon="-4.5292550">
        <ele>422.0</ele>
        <time>2021-12-29T09:07:30Z</time>
      </trkpt>
      <trkpt lat="37.4241340" lon="-4.5293150">
        <ele>421.8</ele>
        <time>2021-12-29T09:07:31Z</time>
      </trkpt>
      <trkpt lat="37.4241600" lon="-4.5293760">
        <ele>421.6</ele>
        <time>2021-12-29T09:07:32Z</time>
      </trkpt>
      <trkpt lat="37.4241860" lon="-4.5294380">
        <ele>421.4</ele>
        <time>2021-12-29T09:07:33Z</time>
      </trkpt>
      <trkpt lat="37.4242080" lon="-4.5295000">
        <ele>421.2</ele>
        <time>2021-12-29T09:07:34Z</time>
      </trkpt>
      <trkpt lat="37.4242340" lon="-4.5295580">
        <ele>421.2</ele>
        <time>2021-12-29T09:07:35Z</time>
      </trkpt>
      <trkpt lat="37.4242590" lon="-4.5296220">
        <ele>421.0</ele>
        <time>2021-12-29T09:07:36Z</time>
      </trkpt>
      <trkpt lat="37.4242910" lon="-4.5296830">
        <ele>421.0</ele>
        <time>2021-12-29T09:07:37Z</time>
      </trkpt>
      <trkpt lat="37.4243200" lon="-4.5297580">
        <ele>420.8</ele>
        <time>2021-12-29T09:07:38Z</time>
      </trkpt>
      <trkpt lat="37.4243390" lon="-4.5298100">
        <ele>420.8</ele>
        <time>2021-12-29T09:07:39Z</time>
      </trkpt>
      <trkpt lat="37.4243650" lon="-4.5298720">
        <ele>420.8</ele>
        <time>2021-12-29T09:07:40Z</time>
      </trkpt>
      <trkpt lat="37.4243940" lon="-4.5299320">
        <ele>420.8</ele>
        <time>2021-12-29T09:07:41Z</time>
      </trkpt>
      <trkpt lat="37.4244190" lon="-4.5299900">
        <ele>420.6</ele>
        <time>2021-12-29T09:07:42Z</time>
      </trkpt>
      <trkpt lat="37.4244450" lon="-4.5300520">
        <ele>420.6</ele>
        <time>2021-12-29T09:07:43Z</time>
      </trkpt>
      <trkpt lat="37.4244700" lon="-4.5301130">
        <ele>420.4</ele>
        <time>2021-12-29T09:07:44Z</time>
      </trkpt>
      <trkpt lat="37.4244960" lon="-4.5301750">
        <ele>420.2</ele>
        <time>2021-12-29T09:07:45Z</time>
      </trkpt>
      <trkpt lat="37.4245250" lon="-4.5302380">
        <ele>420.2</ele>
        <time>2021-12-29T09:07:46Z</time>
      </trkpt>
      <trkpt lat="37.4245500" lon="-4.5302980">
        <ele>420.0</ele>
        <time>2021-12-29T09:07:47Z</time>
      </trkpt>
      <trkpt lat="37.4245760" lon="-4.5303560">
        <ele>420.0</ele>
        <time>2021-12-29T09:07:48Z</time>
      </trkpt>
      <trkpt lat="37.4245980" lon="-4.5304130">
        <ele>419.8</ele>
        <time>2021-12-29T09:07:49Z</time>
      </trkpt>
      <trkpt lat="37.4246210" lon="-4.5304630">
        <ele>419.8</ele>
        <time>2021-12-29T09:07:50Z</time>
      </trkpt>
      <trkpt lat="37.4246430" lon="-4.5305180">
        <ele>419.8</ele>
        <time>2021-12-29T09:07:51Z</time>
      </trkpt>
      <trkpt lat="37.4246620" lon="-4.5305580">
        <ele>419.6</ele>
        <time>2021-12-29T09:07:52Z</time>
      </trkpt>
      <trkpt lat="37.4246750" lon="-4.5305950">
        <ele>419.6</ele>
        <time>2021-12-29T09:07:53Z</time>
      </trkpt>
      <trkpt lat="37.4246910" lon="-4.5306250">
        <ele>419.4</ele>
        <time>2021-12-29T09:07:54Z</time>
      </trkpt>
      <trkpt lat="37.4247010" lon="-4.5306480">
        <ele>419.4</ele>
        <time>2021-12-29T09:07:55Z</time>
      </trkpt>
      <trkpt lat="37.4247140" lon="-4.5306720">
        <ele>419.2</ele>
        <time>2021-12-29T09:07:56Z</time>
      </trkpt>
      <trkpt lat="37.4247200" lon="-4.5306940">
        <ele>419.0</ele>
        <time>2021-12-29T09:07:57Z</time>
      </trkpt>
      <trkpt lat="37.4247300" lon="-4.5307150">
        <ele>418.8</ele>
        <time>2021-12-29T09:07:58Z</time>
      </trkpt>
      <trkpt lat="37.4247360" lon="-4.5307380">
        <ele>418.8</ele>
        <time>2021-12-29T09:07:59Z</time>
      </trkpt>
      <trkpt lat="37.4247420" lon="-4.5307680">
        <ele>418.8</ele>
        <time>2021-12-29T09:08:00Z</time>
      </trkpt>
      <trkpt lat="37.4247550" lon="-4.5308050">
        <ele>418.6</ele>
        <time>2021-12-29T09:08:01Z</time>
      </trkpt>
      <trkpt lat="37.4247680" lon="-4.5308400">
        <ele>418.4</ele>
        <time>2021-12-29T09:08:02Z</time>
      </trkpt>
      <trkpt lat="37.4247810" lon="-4.5308720">
        <ele>418.2</ele>
        <time>2021-12-29T09:08:03Z</time>
      </trkpt>
      <trkpt lat="37.4247970" lon="-4.5309150">
        <ele>418.2</ele>
        <time>2021-12-29T09:08:04Z</time>
      </trkpt>
      <trkpt lat="37.4248130" lon="-4.5309550">
        <ele>418.0</ele>
        <time>2021-12-29T09:08:05Z</time>
      </trkpt>
      <trkpt lat="37.4248290" lon="-4.5309980">
        <ele>418.0</ele>
        <time>2021-12-29T09:08:06Z</time>
      </trkpt>
      <trkpt lat="37.4248380" lon="-4.5310420">
        <ele>417.8</ele>
        <time>2021-12-29T09:08:07Z</time>
      </trkpt>
      <trkpt lat="37.4248510" lon="-4.5310850">
        <ele>417.6</ele>
        <time>2021-12-29T09:08:08Z</time>
      </trkpt>
      <trkpt lat="37.4248610" lon="-4.5311320">
        <ele>417.6</ele>
        <time>2021-12-29T09:08:09Z</time>
      </trkpt>
      <trkpt lat="37.4248740" lon="-4.5311760">
        <ele>417.4</ele>
        <time>2021-12-29T09:08:10Z</time>
      </trkpt>
      <trkpt lat="37.4248830" lon="-4.5312280">
        <ele>417.4</ele>
        <time>2021-12-29T09:08:11Z</time>
      </trkpt>
      <trkpt lat="37.4248960" lon="-4.5312770">
        <ele>417.4</ele>
        <time>2021-12-29T09:08:12Z</time>
      </trkpt>
      <trkpt lat="37.4249090" lon="-4.5313250">
        <ele>417.4</ele>
        <time>2021-12-29T09:08:13Z</time>
      </trkpt>
      <trkpt lat="37.4249180" lon="-4.5313750">
        <ele>417.4</ele>
        <time>2021-12-29T09:08:14Z</time>
      </trkpt>
      <trkpt lat="37.4249340" lon="-4.5314220">
        <ele>417.4</ele>
        <time>2021-12-29T09:08:15Z</time>
      </trkpt>
      <trkpt lat="37.4249470" lon="-4.5314720">
        <ele>417.2</ele>
        <time>2021-12-29T09:08:16Z</time>
      </trkpt>
      <trkpt lat="37.4249540" lon="-4.5315130">
        <ele>417.2</ele>
        <time>2021-12-29T09:08:17Z</time>
      </trkpt>
      <trkpt lat="37.4249700" lon="-4.5315770">
        <ele>417.2</ele>
        <time>2021-12-29T09:08:18Z</time>
      </trkpt>
      <trkpt lat="37.4249790" lon="-4.5316300">
        <ele>417.0</ele>
        <time>2021-12-29T09:08:19Z</time>
      </trkpt>
      <trkpt lat="37.4249920" lon="-4.5316880">
        <ele>416.8</ele>
        <time>2021-12-29T09:08:20Z</time>
      </trkpt>
      <trkpt lat="37.4250080" lon="-4.5317480">
        <ele>416.8</ele>
        <time>2021-12-29T09:08:21Z</time>
      </trkpt>
      <trkpt lat="37.4250140" lon="-4.5318060">
        <ele>416.6</ele>
        <time>2021-12-29T09:08:22Z</time>
      </trkpt>
      <trkpt lat="37.4250270" lon="-4.5318650">
        <ele>416.6</ele>
        <time>2021-12-29T09:08:23Z</time>
      </trkpt>
      <trkpt lat="37.4250340" lon="-4.5319250">
        <ele>416.6</ele>
        <time>2021-12-29T09:08:24Z</time>
      </trkpt>
      <trkpt lat="37.4250460" lon="-4.5319820">
        <ele>416.6</ele>
        <time>2021-12-29T09:08:25Z</time>
      </trkpt>
      <trkpt lat="37.4250530" lon="-4.5320400">
        <ele>416.6</ele>
        <time>2021-12-29T09:08:26Z</time>
      </trkpt>
      <trkpt lat="37.4250590" lon="-4.5320970">
        <ele>416.6</ele>
        <time>2021-12-29T09:08:27Z</time>
      </trkpt>
      <trkpt lat="37.4250690" lon="-4.5321520">
        <ele>416.6</ele>
        <time>2021-12-29T09:08:28Z</time>
      </trkpt>
      <trkpt lat="37.4250750" lon="-4.5322060">
        <ele>416.4</ele>
        <time>2021-12-29T09:08:29Z</time>
      </trkpt>
      <trkpt lat="37.4250820" lon="-4.5322620">
        <ele>416.2</ele>
        <time>2021-12-29T09:08:30Z</time>
      </trkpt>
      <trkpt lat="37.4250880" lon="-4.5323180">
        <ele>416.2</ele>
        <time>2021-12-29T09:08:31Z</time>
      </trkpt>
      <trkpt lat="37.4250910" lon="-4.5323770">
        <ele>416.2</ele>
        <time>2021-12-29T09:08:32Z</time>
      </trkpt>
      <trkpt lat="37.4250980" lon="-4.5324350">
        <ele>416.2</ele>
        <time>2021-12-29T09:08:33Z</time>
      </trkpt>
      <trkpt lat="37.4251010" lon="-4.5324960">
        <ele>416.2</ele>
        <time>2021-12-29T09:08:34Z</time>
      </trkpt>
      <trkpt lat="37.4251070" lon="-4.5325600">
        <ele>416.0</ele>
        <time>2021-12-29T09:08:35Z</time>
      </trkpt>
      <trkpt lat="37.4251100" lon="-4.5326200">
        <ele>416.0</ele>
        <time>2021-12-29T09:08:36Z</time>
      </trkpt>
      <trkpt lat="37.4251100" lon="-4.5326820">
        <ele>416.0</ele>
        <time>2021-12-29T09:08:37Z</time>
      </trkpt>
      <trkpt lat="37.4251140" lon="-4.5327420">
        <ele>415.8</ele>
        <time>2021-12-29T09:08:38Z</time>
      </trkpt>
      <trkpt lat="37.4251140" lon="-4.5328070">
        <ele>415.8</ele>
        <time>2021-12-29T09:08:39Z</time>
      </trkpt>
      <trkpt lat="37.4251170" lon="-4.5328730">
        <ele>415.8</ele>
        <time>2021-12-29T09:08:40Z</time>
      </trkpt>
      <trkpt lat="37.4251200" lon="-4.5329380">
        <ele>415.6</ele>
        <time>2021-12-29T09:08:41Z</time>
      </trkpt>
      <trkpt lat="37.4251200" lon="-4.5330030">
        <ele>415.6</ele>
        <time>2021-12-29T09:08:42Z</time>
      </trkpt>
      <trkpt lat="37.4251260" lon="-4.5330680">
        <ele>415.4</ele>
        <time>2021-12-29T09:08:43Z</time>
      </trkpt>
      <trkpt lat="37.4251260" lon="-4.5331350">
        <ele>415.4</ele>
        <time>2021-12-29T09:08:44Z</time>
      </trkpt>
      <trkpt lat="37.4251200" lon="-4.5332060">
        <ele>415.4</ele>
        <time>2021-12-29T09:08:45Z</time>
      </trkpt>
      <trkpt lat="37.4251200" lon="-4.5332780">
        <ele>415.4</ele>
        <time>2021-12-29T09:08:46Z</time>
      </trkpt>
      <trkpt lat="37.4251170" lon="-4.5333500">
        <ele>415.2</ele>
        <time>2021-12-29T09:08:47Z</time>
      </trkpt>
      <trkpt lat="37.4251200" lon="-4.5334180">
        <ele>415.2</ele>
        <time>2021-12-29T09:08:48Z</time>
      </trkpt>
      <trkpt lat="37.4251170" lon="-4.5334870">
        <ele>415.0</ele>
        <time>2021-12-29T09:08:49Z</time>
      </trkpt>
      <trkpt lat="37.4251140" lon="-4.5335560">
        <ele>414.8</ele>
        <time>2021-12-29T09:08:50Z</time>
      </trkpt>
      <trkpt lat="37.4251100" lon="-4.5336250">
        <ele>414.6</ele>
        <time>2021-12-29T09:08:51Z</time>
      </trkpt>
      <trkpt lat="37.4251070" lon="-4.5336930">
        <ele>414.4</ele>
        <time>2021-12-29T09:08:52Z</time>
      </trkpt>
      <trkpt lat="37.4251010" lon="-4.5337650">
        <ele>414.4</ele>
        <time>2021-12-29T09:08:53Z</time>
      </trkpt>
      <trkpt lat="37.4250980" lon="-4.5338380">
        <ele>414.2</ele>
        <time>2021-12-29T09:08:54Z</time>
      </trkpt>
      <trkpt lat="37.4250910" lon="-4.5339150">
        <ele>414.2</ele>
        <time>2021-12-29T09:08:55Z</time>
      </trkpt>
      <trkpt lat="37.4250820" lon="-4.5339900">
        <ele>414.0</ele>
        <time>2021-12-29T09:08:56Z</time>
      </trkpt>
      <trkpt lat="37.4250820" lon="-4.5340670">
        <ele>414.0</ele>
        <time>2021-12-29T09:08:57Z</time>
      </trkpt>
      <trkpt lat="37.4250750" lon="-4.5341400">
        <ele>413.8</ele>
        <time>2021-12-29T09:08:58Z</time>
      </trkpt>
      <trkpt lat="37.4250720" lon="-4.5342130">
        <ele>413.8</ele>
        <time>2021-12-29T09:08:59Z</time>
      </trkpt>
      <trkpt lat="37.4250720" lon="-4.5342860">
        <ele>413.8</ele>
        <time>2021-12-29T09:09:00Z</time>
      </trkpt>
      <trkpt lat="37.4250660" lon="-4.5343620">
        <ele>413.8</ele>
        <time>2021-12-29T09:09:01Z</time>
      </trkpt>
      <trkpt lat="37.4250590" lon="-4.5344350">
        <ele>413.6</ele>
        <time>2021-12-29T09:09:02Z</time>
      </trkpt>
      <trkpt lat="37.4250560" lon="-4.5345070">
        <ele>413.6</ele>
        <time>2021-12-29T09:09:03Z</time>
      </trkpt>
      <trkpt lat="37.4250560" lon="-4.5345820">
        <ele>413.4</ele>
        <time>2021-12-29T09:09:04Z</time>
      </trkpt>
      <trkpt lat="37.4250530" lon="-4.5346560">
        <ele>413.2</ele>
        <time>2021-12-29T09:09:05Z</time>
      </trkpt>
      <trkpt lat="37.4250500" lon="-4.5347320">
        <ele>413.2</ele>
        <time>2021-12-29T09:09:06Z</time>
      </trkpt>
      <trkpt lat="37.4250460" lon="-4.5348070">
        <ele>413.0</ele>
        <time>2021-12-29T09:09:07Z</time>
      </trkpt>
      <trkpt lat="37.4250370" lon="-4.5348850">
        <ele>413.0</ele>
        <time>2021-12-29T09:09:08Z</time>
      </trkpt>
      <trkpt lat="37.4250340" lon="-4.5349620">
        <ele>413.0</ele>
        <time>2021-12-29T09:09:09Z</time>
      </trkpt>
      <trkpt lat="37.4250300" lon="-4.5350400">
        <ele>412.8</ele>
        <time>2021-12-29T09:09:10Z</time>
      </trkpt>
      <trkpt lat="37.4250270" lon="-4.5351170">
        <ele>412.8</ele>
        <time>2021-12-29T09:09:11Z</time>
      </trkpt>
      <trkpt lat="37.4250210" lon="-4.5351940">
        <ele>412.8</ele>
        <time>2021-12-29T09:09:12Z</time>
      </trkpt>
      <trkpt lat="37.4250180" lon="-4.5352680">
        <ele>412.6</ele>
        <time>2021-12-29T09:09:13Z</time>
      </trkpt>
      <trkpt lat="37.4250140" lon="-4.5353450">
        <ele>412.6</ele>
        <time>2021-12-29T09:09:14Z</time>
      </trkpt>
      <trkpt lat="37.4250080" lon="-4.5354220">
        <ele>412.4</ele>
        <time>2021-12-29T09:09:15Z</time>
      </trkpt>
      <trkpt lat="37.4250080" lon="-4.5354950">
        <ele>412.4</ele>
        <time>2021-12-29T09:09:16Z</time>
      </trkpt>
      <trkpt lat="37.4250080" lon="-4.5355700">
        <ele>412.2</ele>
        <time>2021-12-29T09:09:17Z</time>
      </trkpt>
      <trkpt lat="37.4250020" lon="-4.5356440">
        <ele>412.0</ele>
        <time>2021-12-29T09:09:18Z</time>
      </trkpt>
      <trkpt lat="37.4249980" lon="-4.5357180">
        <ele>411.8</ele>
        <time>2021-12-29T09:09:19Z</time>
      </trkpt>
      <trkpt lat="37.4249920" lon="-4.5357970">
        <ele>411.6</ele>
        <time>2021-12-29T09:09:20Z</time>
      </trkpt>
      <trkpt lat="37.4249890" lon="-4.5358750">
        <ele>411.4</ele>
        <time>2021-12-29T09:09:21Z</time>
      </trkpt>
      <trkpt lat="37.4249820" lon="-4.5359500">
        <ele>411.2</ele>
        <time>2021-12-29T09:09:22Z</time>
      </trkpt>
      <trkpt lat="37.4249790" lon="-4.5360230">
        <ele>411.2</ele>
        <time>2021-12-29T09:09:23Z</time>
      </trkpt>
      <trkpt lat="37.4249790" lon="-4.5360960">
        <ele>411.0</ele>
        <time>2021-12-29T09:09:24Z</time>
      </trkpt>
      <trkpt lat="37.4249760" lon="-4.5361700">
        <ele>410.8</ele>
        <time>2021-12-29T09:09:25Z</time>
      </trkpt>
      <trkpt lat="37.4249700" lon="-4.5362380">
        <ele>410.8</ele>
        <time>2021-12-29T09:09:26Z</time>
      </trkpt>
      <trkpt lat="37.4249660" lon="-4.5363070">
        <ele>410.6</ele>
        <time>2021-12-29T09:09:27Z</time>
      </trkpt>
      <trkpt lat="37.4249660" lon="-4.5363750">
        <ele>410.6</ele>
        <time>2021-12-29T09:09:28Z</time>
      </trkpt>
      <trkpt lat="37.4249600" lon="-4.5364450">
        <ele>410.4</ele>
        <time>2021-12-29T09:09:29Z</time>
      </trkpt>
      <trkpt lat="37.4249570" lon="-4.5365150">
        <ele>410.4</ele>
        <time>2021-12-29T09:09:30Z</time>
      </trkpt>
      <trkpt lat="37.4249500" lon="-4.5366190">
        <ele>410.4</ele>
        <time>2021-12-29T09:09:31Z</time>
      </trkpt>
      <trkpt lat="37.4249470" lon="-4.5366530">
        <ele>410.2</ele>
        <time>2021-12-29T09:09:32Z</time>
      </trkpt>
      <trkpt lat="37.4249410" lon="-4.5367220">
        <ele>410.2</ele>
        <time>2021-12-29T09:09:33Z</time>
      </trkpt>
      <trkpt lat="37.4249380" lon="-4.5367920">
        <ele>410.2</ele>
        <time>2021-12-29T09:09:34Z</time>
      </trkpt>
      <trkpt lat="37.4249380" lon="-4.5368620">
        <ele>410.0</ele>
        <time>2021-12-29T09:09:35Z</time>
      </trkpt>
      <trkpt lat="37.4249340" lon="-4.5369300">
        <ele>410.0</ele>
        <time>2021-12-29T09:09:36Z</time>
      </trkpt>
      <trkpt lat="37.4249280" lon="-4.5370020">
        <ele>409.8</ele>
        <time>2021-12-29T09:09:37Z</time>
      </trkpt>
      <trkpt lat="37.4249280" lon="-4.5370730">
        <ele>409.8</ele>
        <time>2021-12-29T09:09:38Z</time>
      </trkpt>
      <trkpt lat="37.4249220" lon="-4.5371460">
        <ele>409.6</ele>
        <time>2021-12-29T09:09:39Z</time>
      </trkpt>
      <trkpt lat="37.4249180" lon="-4.5372180">
        <ele>409.4</ele>
        <time>2021-12-29T09:09:40Z</time>
      </trkpt>
      <trkpt lat="37.4249150" lon="-4.5372920">
        <ele>409.2</ele>
        <time>2021-12-29T09:09:41Z</time>
      </trkpt>
      <trkpt lat="37.4249120" lon="-4.5373640">
        <ele>409.0</ele>
        <time>2021-12-29T09:09:42Z</time>
      </trkpt>
      <trkpt lat="37.4249120" lon="-4.5374380">
        <ele>409.0</ele>
        <time>2021-12-29T09:09:43Z</time>
      </trkpt>
      <trkpt lat="37.4249120" lon="-4.5375120">
        <ele>408.8</ele>
        <time>2021-12-29T09:09:44Z</time>
      </trkpt>
      <trkpt lat="37.4249090" lon="-4.5375850">
        <ele>408.8</ele>
        <time>2021-12-29T09:09:45Z</time>
      </trkpt>
      <trkpt lat="37.4249020" lon="-4.5376570">
        <ele>408.6</ele>
        <time>2021-12-29T09:09:46Z</time>
      </trkpt>
      <trkpt lat="37.4248960" lon="-4.5377280">
        <ele>408.6</ele>
        <time>2021-12-29T09:09:47Z</time>
      </trkpt>
      <trkpt lat="37.4248930" lon="-4.5377980">
        <ele>408.6</ele>
        <time>2021-12-29T09:09:48Z</time>
      </trkpt>
      <trkpt lat="37.4248900" lon="-4.5378720">
        <ele>408.4</ele>
        <time>2021-12-29T09:09:49Z</time>
      </trkpt>
      <trkpt lat="37.4248830" lon="-4.5379450">
        <ele>408.2</ele>
        <time>2021-12-29T09:09:50Z</time>
      </trkpt>
      <trkpt lat="37.4248800" lon="-4.5380180">
        <ele>408.2</ele>
        <time>2021-12-29T09:09:51Z</time>
      </trkpt>
      <trkpt lat="37.4248770" lon="-4.5380920">
        <ele>408.0</ele>
        <time>2021-12-29T09:09:52Z</time>
      </trkpt>
      <trkpt lat="37.4248740" lon="-4.5381630">
        <ele>408.0</ele>
        <time>2021-12-29T09:09:53Z</time>
      </trkpt>
      <trkpt lat="37.4248700" lon="-4.5382350">
        <ele>407.8</ele>
        <time>2021-12-29T09:09:54Z</time>
      </trkpt>
      <trkpt lat="37.4248670" lon="-4.5383070">
        <ele>407.8</ele>
        <time>2021-12-29T09:09:55Z</time>
      </trkpt>
      <trkpt lat="37.4248610" lon="-4.5383740">
        <ele>407.6</ele>
        <time>2021-12-29T09:09:56Z</time>
      </trkpt>
      <trkpt lat="37.4248580" lon="-4.5384440">
        <ele>407.4</ele>
        <time>2021-12-29T09:09:57Z</time>
      </trkpt>
      <trkpt lat="37.4248510" lon="-4.5385150">
        <ele>407.4</ele>
        <time>2021-12-29T09:09:58Z</time>
      </trkpt>
      <trkpt lat="37.4248480" lon="-4.5385870">
        <ele>407.2</ele>
        <time>2021-12-29T09:09:59Z</time>
      </trkpt>
      <trkpt lat="37.4248460" lon="-4.5386940">
        <ele>407.2</ele>
        <time>2021-12-29T09:10:00Z</time>
      </trkpt>
      <trkpt lat="37.4248450" lon="-4.5387300">
        <ele>407.0</ele>
        <time>2021-12-29T09:10:01Z</time>
      </trkpt>
      <trkpt lat="37.4248420" lon="-4.5388020">
        <ele>407.0</ele>
        <time>2021-12-29T09:10:02Z</time>
      </trkpt>
      <trkpt lat="37.4248380" lon="-4.5388720">
        <ele>406.8</ele>
        <time>2021-12-29T09:10:03Z</time>
      </trkpt>
      <trkpt lat="37.4248350" lon="-4.5389450">
        <ele>406.8</ele>
        <time>2021-12-29T09:10:04Z</time>
      </trkpt>
      <trkpt lat="37.4248350" lon="-4.5390180">
        <ele>406.6</ele>
        <time>2021-12-29T09:10:05Z</time>
      </trkpt>
      <trkpt lat="37.4248320" lon="-4.5390900">
        <ele>406.6</ele>
        <time>2021-12-29T09:10:06Z</time>
      </trkpt>
      <trkpt lat="37.4248220" lon="-4.5391620">
        <ele>406.6</ele>
        <time>2021-12-29T09:10:07Z</time>
      </trkpt>
      <trkpt lat="37.4248190" lon="-4.5392360">
        <ele>406.4</ele>
        <time>2021-12-29T09:10:08Z</time>
      </trkpt>
      <trkpt lat="37.4248190" lon="-4.5392970">
        <ele>406.4</ele>
        <time>2021-12-29T09:10:09Z</time>
      </trkpt>
      <trkpt lat="37.4248130" lon="-4.5393850">
        <ele>406.4</ele>
        <time>2021-12-29T09:10:10Z</time>
      </trkpt>
      <trkpt lat="37.4248060" lon="-4.5394950">
        <ele>406.4</ele>
        <time>2021-12-29T09:10:11Z</time>
      </trkpt>
      <trkpt lat="37.4248030" lon="-4.5395320">
        <ele>406.2</ele>
        <time>2021-12-29T09:10:12Z</time>
      </trkpt>
      <trkpt lat="37.4247970" lon="-4.5396060">
        <ele>406.0</ele>
        <time>2021-12-29T09:10:13Z</time>
      </trkpt>
      <trkpt lat="37.4247900" lon="-4.5396830">
        <ele>405.8</ele>
        <time>2021-12-29T09:10:14Z</time>
      </trkpt>
      <trkpt lat="37.4247810" lon="-4.5397580">
        <ele>405.6</ele>
        <time>2021-12-29T09:10:15Z</time>
      </trkpt>
      <trkpt lat="37.4247710" lon="-4.5398330">
        <ele>405.6</ele>
        <time>2021-12-29T09:10:16Z</time>
      </trkpt>
      <trkpt lat="37.4247680" lon="-4.5398920">
        <ele>405.4</ele>
        <time>2021-12-29T09:10:17Z</time>
      </trkpt>
      <trkpt lat="37.4247550" lon="-4.5399820">
        <ele>405.4</ele>
        <time>2021-12-29T09:10:18Z</time>
      </trkpt>
      <trkpt lat="37.4247420" lon="-4.5400550">
        <ele>405.2</ele>
        <time>2021-12-29T09:10:19Z</time>
      </trkpt>
      <trkpt lat="37.4247360" lon="-4.5401240">
        <ele>405.0</ele>
        <time>2021-12-29T09:10:20Z</time>
      </trkpt>
      <trkpt lat="37.4247230" lon="-4.5401870">
        <ele>404.8</ele>
        <time>2021-12-29T09:10:21Z</time>
      </trkpt>
      <trkpt lat="37.4247140" lon="-4.5402400">
        <ele>404.8</ele>
        <time>2021-12-29T09:10:22Z</time>
      </trkpt>
      <trkpt lat="37.4247040" lon="-4.5402850">
        <ele>404.6</ele>
        <time>2021-12-29T09:10:23Z</time>
      </trkpt>
      <trkpt lat="37.4247010" lon="-4.5403180">
        <ele>404.4</ele>
        <time>2021-12-29T09:10:24Z</time>
      </trkpt>
      <trkpt lat="37.4247010" lon="-4.5403180">
        <ele>404.4</ele>
        <time>2021-12-29T09:10:25Z</time>
      </trkpt>
      <trkpt lat="37.4246940" lon="-4.5403550">
        <ele>404.4</ele>
        <time>2021-12-29T09:10:26Z</time>
      </trkpt>
      <trkpt lat="37.4246940" lon="-4.5403550">
        <ele>404.4</ele>
        <time>2021-12-29T09:10:27Z</time>
      </trkpt>
      <trkpt lat="37.4246940" lon="-4.5403550">
        <ele>404.2</ele>
        <time>2021-12-29T09:10:28Z</time>
      </trkpt>
      <trkpt lat="37.4246910" lon="-4.5403820">
        <ele>404.0</ele>
        <time>2021-12-29T09:10:29Z</time>
      </trkpt>
      <trkpt lat="37.4246910" lon="-4.5403820">
        <ele>404.0</ele>
        <time>2021-12-29T09:10:30Z</time>
      </trkpt>
      <trkpt lat="37.4246910" lon="-4.5403820">
        <ele>403.8</ele>
        <time>2021-12-29T09:10:31Z</time>
      </trkpt>
      <trkpt lat="37.4246910" lon="-4.5404100">
        <ele>403.8</ele>
        <time>2021-12-29T09:10:32Z</time>
      </trkpt>
      <trkpt lat="37.4246910" lon="-4.5404100">
        <ele>403.6</ele>
        <time>2021-12-29T09:10:33Z</time>
      </trkpt>
      <trkpt lat="37.4246910" lon="-4.5404100">
        <ele>403.4</ele>
        <time>2021-12-29T09:10:34Z</time>
      </trkpt>
      <trkpt lat="37.4246910" lon="-4.5404100">
        <ele>403.4</ele>
        <time>2021-12-29T09:10:35Z</time>
      </trkpt>
      <trkpt lat="37.4245310" lon="-4.5404920">
        <ele>399.2</ele>
        <time>2021-12-29T09:12:08Z</time>
      </trkpt>
      <trkpt lat="37.4245310" lon="-4.5404920">
        <ele>399.2</ele>
        <time>2021-12-29T09:12:09Z</time>
      </trkpt>
      <trkpt lat="37.4245300" lon="-4.5405100">
        <ele>399.2</ele>
        <time>2021-12-29T09:12:10Z</time>
      </trkpt>
      <trkpt lat="37.4245280" lon="-4.5405290">
        <ele>399.2</ele>
        <time>2021-12-29T09:12:11Z</time>
      </trkpt>
      <trkpt lat="37.4245270" lon="-4.5405480">
        <ele>399.2</ele>
        <time>2021-12-29T09:12:12Z</time>
      </trkpt>
      <trkpt lat="37.4245250" lon="-4.5405670">
        <ele>399.2</ele>
        <time>2021-12-29T09:12:13Z</time>
      </trkpt>
      <trkpt lat="37.4245240" lon="-4.5405860">
        <ele>399.2</ele>
        <time>2021-12-29T09:12:14Z</time>
      </trkpt>
      <trkpt lat="37.4245220" lon="-4.5406050">
        <ele>399.2</ele>
        <time>2021-12-29T09:12:15Z</time>
      </trkpt>
      <trkpt lat="37.4245210" lon="-4.5406230">
        <ele>399.2</ele>
        <time>2021-12-29T09:12:16Z</time>
      </trkpt>
      <trkpt lat="37.4245190" lon="-4.5406420">
        <ele>399.2</ele>
        <time>2021-12-29T09:12:17Z</time>
      </trkpt>
      <trkpt lat="37.4245180" lon="-4.5406610">
        <ele>399.2</ele>
        <time>2021-12-29T09:12:18Z</time>
      </trkpt>
      <trkpt lat="37.4245160" lon="-4.5406800">
        <ele>399.2</ele>
        <time>2021-12-29T09:12:19Z</time>
      </trkpt>
      <trkpt lat="37.4245150" lon="-4.5406990">
        <ele>399.2</ele>
        <time>2021-12-29T09:12:20Z</time>
      </trkpt>
      <trkpt lat="37.4245140" lon="-4.5407170">
        <ele>399.2</ele>
        <time>2021-12-29T09:12:21Z</time>
      </trkpt>
      <trkpt lat="37.4245120" lon="-4.5407360">
        <ele>399.2</ele>
        <time>2021-12-29T09:12:22Z</time>
      </trkpt>
      <trkpt lat="37.4245110" lon="-4.5407550">
        <ele>399.2</ele>
        <time>2021-12-29T09:12:23Z</time>
      </trkpt>
      <trkpt lat="37.4245090" lon="-4.5407740">
        <ele>399.2</ele>
        <time>2021-12-29T09:12:24Z</time>
      </trkpt>
      <trkpt lat="37.4245080" lon="-4.5407930">
        <ele>399.2</ele>
        <time>2021-12-29T09:12:25Z</time>
      </trkpt>
      <trkpt lat="37.4245060" lon="-4.5408110">
        <ele>399.2</ele>
        <time>2021-12-29T09:12:26Z</time>
      </trkpt>
      <trkpt lat="37.4245050" lon="-4.5408300">
        <ele>399.2</ele>
        <time>2021-12-29T09:12:27Z</time>
      </trkpt>
      <trkpt lat="37.4245030" lon="-4.5408490">
        <ele>399.2</ele>
        <time>2021-12-29T09:12:28Z</time>
      </trkpt>
      <trkpt lat="37.4245020" lon="-4.5408680">
        <ele>399.2</ele>
        <time>2021-12-29T09:12:29Z</time>
      </trkpt>
      <trkpt lat="37.4245000" lon="-4.5408870">
        <ele>399.2</ele>
        <time>2021-12-29T09:12:30Z</time>
      </trkpt>
      <trkpt lat="37.4244990" lon="-4.5409060">
        <ele>399.2</ele>
        <time>2021-12-29T09:12:31Z</time>
      </trkpt>
      <trkpt lat="37.4244970" lon="-4.5409240">
        <ele>399.2</ele>
        <time>2021-12-29T09:12:32Z</time>
      </trkpt>
      <trkpt lat="37.4244960" lon="-4.5409430">
        <ele>399.2</ele>
        <time>2021-12-29T09:12:33Z</time>
      </trkpt>
      <trkpt lat="37.4244940" lon="-4.5409620">
        <ele>399.2</ele>
        <time>2021-12-29T09:12:34Z</time>
      </trkpt>
      <trkpt lat="37.4244930" lon="-4.5409810">
        <ele>399.2</ele>
        <time>2021-12-29T09:12:35Z</time>
      </trkpt>
      <trkpt lat="37.4244910" lon="-4.5410000">
        <ele>399.2</ele>
        <time>2021-12-29T09:12:36Z</time>
      </trkpt>
      <trkpt lat="37.4244900" lon="-4.5410180">
        <ele>399.2</ele>
        <time>2021-12-29T09:12:37Z</time>
      </trkpt>
      <trkpt lat="37.4244880" lon="-4.5410370">
        <ele>399.2</ele>
        <time>2021-12-29T09:12:38Z</time>
      </trkpt>
      <trkpt lat="37.4244870" lon="-4.5410560">
        <ele>399.2</ele>
        <time>2021-12-29T09:12:39Z</time>
      </trkpt>
      <trkpt lat="37.4244860" lon="-4.5410750">
        <ele>399.2</ele>
        <time>2021-12-29T09:12:40Z</time>
      </trkpt>
      <trkpt lat="37.4244840" lon="-4.5410940">
        <ele>399.2</ele>
        <time>2021-12-29T09:12:41Z</time>
      </trkpt>
      <trkpt lat="37.4244830" lon="-4.5411130">
        <ele>399.2</ele>
        <time>2021-12-29T09:12:42Z</time>
      </trkpt>
      <trkpt lat="37.4244810" lon="-4.5411310">
        <ele>399.2</ele>
        <time>2021-12-29T09:12:43Z</time>
      </trkpt>
      <trkpt lat="37.4244800" lon="-4.5411500">
        <ele>399.2</ele>
        <time>2021-12-29T09:12:44Z</time>
      </trkpt>
      <trkpt lat="37.4244780" lon="-4.5411690">
        <ele>399.2</ele>
        <time>2021-12-29T09:12:45Z</time>
      </trkpt>
      <trkpt lat="37.4244770" lon="-4.5411880">
        <ele>399.2</ele>
        <time>2021-12-29T09:12:46Z</time>
      </trkpt>
      <trkpt lat="37.4244750" lon="-4.5412070">
        <ele>399.2</ele>
        <time>2021-12-29T09:12:47Z</time>
      </trkpt>
      <trkpt lat="37.4244540" lon="-4.5412420">
        <ele>399.2</ele>
        <time>2021-12-29T09:12:48Z</time>
      </trkpt>
      <trkpt lat="37.4244350" lon="-4.5412900">
        <ele>399.4</ele>
        <time>2021-12-29T09:12:49Z</time>
      </trkpt>
      <trkpt lat="37.4244220" lon="-4.5413060">
        <ele>399.4</ele>
        <time>2021-12-29T09:12:50Z</time>
      </trkpt>
      <trkpt lat="37.4244030" lon="-4.5413520">
        <ele>399.2</ele>
        <time>2021-12-29T09:12:51Z</time>
      </trkpt>
      <trkpt lat="37.4243840" lon="-4.5413950">
        <ele>399.2</ele>
        <time>2021-12-29T09:12:52Z</time>
      </trkpt>
      <trkpt lat="37.4243710" lon="-4.5414330">
        <ele>399.2</ele>
        <time>2021-12-29T09:12:53Z</time>
      </trkpt>
      <trkpt lat="37.4243460" lon="-4.5414800">
        <ele>399.2</ele>
        <time>2021-12-29T09:12:54Z</time>
      </trkpt>
      <trkpt lat="37.4243230" lon="-4.5415270">
        <ele>399.0</ele>
        <time>2021-12-29T09:12:55Z</time>
      </trkpt>
      <trkpt lat="37.4243040" lon="-4.5415720">
        <ele>399.0</ele>
        <time>2021-12-29T09:12:56Z</time>
      </trkpt>
      <trkpt lat="37.4242820" lon="-4.5416250">
        <ele>399.0</ele>
        <time>2021-12-29T09:12:57Z</time>
      </trkpt>
      <trkpt lat="37.4242590" lon="-4.5416730">
        <ele>399.0</ele>
        <time>2021-12-29T09:12:58Z</time>
      </trkpt>
      <trkpt lat="37.4242400" lon="-4.5417100">
        <ele>399.0</ele>
        <time>2021-12-29T09:12:59Z</time>
      </trkpt>
      <trkpt lat="37.4242140" lon="-4.5417720">
        <ele>399.0</ele>
        <time>2021-12-29T09:13:00Z</time>
      </trkpt>
      <trkpt lat="37.4241920" lon="-4.5418100">
        <ele>399.0</ele>
        <time>2021-12-29T09:13:01Z</time>
      </trkpt>
      <trkpt lat="37.4241600" lon="-4.5418680">
        <ele>399.0</ele>
        <time>2021-12-29T09:13:02Z</time>
      </trkpt>
      <trkpt lat="37.4241340" lon="-4.5419200">
        <ele>399.0</ele>
        <time>2021-12-29T09:13:03Z</time>
      </trkpt>
      <trkpt lat="37.4241060" lon="-4.5419700">
        <ele>399.0</ele>
        <time>2021-12-29T09:13:04Z</time>
      </trkpt>
      <trkpt lat="37.4240800" lon="-4.5420200">
        <ele>399.0</ele>
        <time>2021-12-29T09:13:05Z</time>
      </trkpt>
      <trkpt lat="37.4240540" lon="-4.5420680">
        <ele>399.0</ele>
        <time>2021-12-29T09:13:06Z</time>
      </trkpt>
      <trkpt lat="37.4240260" lon="-4.5421170">
        <ele>399.0</ele>
        <time>2021-12-29T09:13:07Z</time>
      </trkpt>
      <trkpt lat="37.4240030" lon="-4.5421650">
        <ele>399.0</ele>
        <time>2021-12-29T09:13:08Z</time>
      </trkpt>
      <trkpt lat="37.4239780" lon="-4.5422140">
        <ele>398.8</ele>
        <time>2021-12-29T09:13:09Z</time>
      </trkpt>
      <trkpt lat="37.4239490" lon="-4.5422640">
        <ele>398.8</ele>
        <time>2021-12-29T09:13:10Z</time>
      </trkpt>
      <trkpt lat="37.4239260" lon="-4.5423120">
        <ele>398.8</ele>
        <time>2021-12-29T09:13:11Z</time>
      </trkpt>
      <trkpt lat="37.4239010" lon="-4.5423600">
        <ele>398.6</ele>
        <time>2021-12-29T09:13:12Z</time>
      </trkpt>
      <trkpt lat="37.4238750" lon="-4.5424080">
        <ele>398.6</ele>
        <time>2021-12-29T09:13:13Z</time>
      </trkpt>
      <trkpt lat="37.4238500" lon="-4.5424570">
        <ele>398.6</ele>
        <time>2021-12-29T09:13:14Z</time>
      </trkpt>
      <trkpt lat="37.4238240" lon="-4.5425030">
        <ele>398.4</ele>
        <time>2021-12-29T09:13:15Z</time>
      </trkpt>
      <trkpt lat="37.4238020" lon="-4.5425520">
        <ele>398.4</ele>
        <time>2021-12-29T09:13:16Z</time>
      </trkpt>
      <trkpt lat="37.4237790" lon="-4.5425900">
        <ele>398.4</ele>
        <time>2021-12-29T09:13:17Z</time>
      </trkpt>
      <trkpt lat="37.4237410" lon="-4.5426520">
        <ele>398.4</ele>
        <time>2021-12-29T09:13:18Z</time>
      </trkpt>
      <trkpt lat="37.4237090" lon="-4.5427050">
        <ele>398.4</ele>
        <time>2021-12-29T09:13:19Z</time>
      </trkpt>
      <trkpt lat="37.4236830" lon="-4.5427580">
        <ele>398.4</ele>
        <time>2021-12-29T09:13:20Z</time>
      </trkpt>
      <trkpt lat="37.4236580" lon="-4.5428120">
        <ele>398.4</ele>
        <time>2021-12-29T09:13:21Z</time>
      </trkpt>
      <trkpt lat="37.4236320" lon="-4.5428530">
        <ele>398.4</ele>
        <time>2021-12-29T09:13:22Z</time>
      </trkpt>
      <trkpt lat="37.4236000" lon="-4.5429170">
        <ele>398.4</ele>
        <time>2021-12-29T09:13:23Z</time>
      </trkpt>
      <trkpt lat="37.4235710" lon="-4.5429720">
        <ele>398.4</ele>
        <time>2021-12-29T09:13:24Z</time>
      </trkpt>
      <trkpt lat="37.4235420" lon="-4.5430250">
        <ele>398.4</ele>
        <time>2021-12-29T09:13:25Z</time>
      </trkpt>
      <trkpt lat="37.4235170" lon="-4.5430780">
        <ele>398.2</ele>
        <time>2021-12-29T09:13:26Z</time>
      </trkpt>
      <trkpt lat="37.4234850" lon="-4.5431350">
        <ele>398.2</ele>
        <time>2021-12-29T09:13:27Z</time>
      </trkpt>
      <trkpt lat="37.4234590" lon="-4.5431930">
        <ele>398.2</ele>
        <time>2021-12-29T09:13:28Z</time>
      </trkpt>
      <trkpt lat="37.4234270" lon="-4.5432520">
        <ele>398.0</ele>
        <time>2021-12-29T09:13:29Z</time>
      </trkpt>
      <trkpt lat="37.4234020" lon="-4.5433120">
        <ele>398.0</ele>
        <time>2021-12-29T09:13:30Z</time>
      </trkpt>
      <trkpt lat="37.4233700" lon="-4.5433730">
        <ele>398.0</ele>
        <time>2021-12-29T09:13:31Z</time>
      </trkpt>
      <trkpt lat="37.4233380" lon="-4.5434300">
        <ele>397.8</ele>
        <time>2021-12-29T09:13:32Z</time>
      </trkpt>
      <trkpt lat="37.4233020" lon="-4.5434900">
        <ele>397.8</ele>
        <time>2021-12-29T09:13:33Z</time>
      </trkpt>
      <trkpt lat="37.4232740" lon="-4.5435480">
        <ele>397.8</ele>
        <time>2021-12-29T09:13:34Z</time>
      </trkpt>
      <trkpt lat="37.4232420" lon="-4.5436070">
        <ele>397.8</ele>
        <time>2021-12-29T09:13:35Z</time>
      </trkpt>
      <trkpt lat="37.4232100" lon="-4.5436650">
        <ele>397.8</ele>
        <time>2021-12-29T09:13:36Z</time>
      </trkpt>
      <trkpt lat="37.4231810" lon="-4.5437250">
        <ele>397.8</ele>
        <time>2021-12-29T09:13:37Z</time>
      </trkpt>
      <trkpt lat="37.4231460" lon="-4.5437860">
        <ele>397.8</ele>
        <time>2021-12-29T09:13:38Z</time>
      </trkpt>
      <trkpt lat="37.4231140" lon="-4.5438480">
        <ele>397.6</ele>
        <time>2021-12-29T09:13:39Z</time>
      </trkpt>
      <trkpt lat="37.4230820" lon="-4.5439100">
        <ele>397.6</ele>
        <time>2021-12-29T09:13:40Z</time>
      </trkpt>
      <trkpt lat="37.4230500" lon="-4.5439700">
        <ele>397.4</ele>
        <time>2021-12-29T09:13:41Z</time>
      </trkpt>
      <trkpt lat="37.4230210" lon="-4.5440320">
        <ele>397.4</ele>
        <time>2021-12-29T09:13:42Z</time>
      </trkpt>
      <trkpt lat="37.4229890" lon="-4.5440920">
        <ele>397.2</ele>
        <time>2021-12-29T09:13:43Z</time>
      </trkpt>
      <trkpt lat="37.4229570" lon="-4.5441500">
        <ele>397.2</ele>
        <time>2021-12-29T09:13:44Z</time>
      </trkpt>
      <trkpt lat="37.4229280" lon="-4.5442080">
        <ele>397.0</ele>
        <time>2021-12-29T09:13:45Z</time>
      </trkpt>
      <trkpt lat="37.4228960" lon="-4.5442670">
        <ele>397.0</ele>
        <time>2021-12-29T09:13:46Z</time>
      </trkpt>
      <trkpt lat="37.4228670" lon="-4.5443300">
        <ele>397.0</ele>
        <time>2021-12-29T09:13:47Z</time>
      </trkpt>
      <trkpt lat="37.4228320" lon="-4.5443900">
        <ele>396.8</ele>
        <time>2021-12-29T09:13:48Z</time>
      </trkpt>
      <trkpt lat="37.4228030" lon="-4.5444550">
        <ele>396.8</ele>
        <time>2021-12-29T09:13:49Z</time>
      </trkpt>
      <trkpt lat="37.4227680" lon="-4.5445160">
        <ele>396.6</ele>
        <time>2021-12-29T09:13:50Z</time>
      </trkpt>
      <trkpt lat="37.4227360" lon="-4.5445820">
        <ele>396.6</ele>
        <time>2021-12-29T09:13:51Z</time>
      </trkpt>
      <trkpt lat="37.4227070" lon="-4.5446440">
        <ele>396.4</ele>
        <time>2021-12-29T09:13:52Z</time>
      </trkpt>
      <trkpt lat="37.4226750" lon="-4.5447080">
        <ele>396.4</ele>
        <time>2021-12-29T09:13:53Z</time>
      </trkpt>
      <trkpt lat="37.4226500" lon="-4.5447730">
        <ele>396.4</ele>
        <time>2021-12-29T09:13:54Z</time>
      </trkpt>
      <trkpt lat="37.4226180" lon="-4.5448400">
        <ele>396.4</ele>
        <time>2021-12-29T09:13:55Z</time>
      </trkpt>
      <trkpt lat="37.4225920" lon="-4.5449050">
        <ele>396.2</ele>
        <time>2021-12-29T09:13:56Z</time>
      </trkpt>
      <trkpt lat="37.4225700" lon="-4.5449720">
        <ele>396.0</ele>
        <time>2021-12-29T09:13:57Z</time>
      </trkpt>
      <trkpt lat="37.4225470" lon="-4.5450380">
        <ele>396.0</ele>
        <time>2021-12-29T09:13:58Z</time>
      </trkpt>
      <trkpt lat="37.4225180" lon="-4.5451050">
        <ele>396.0</ele>
        <time>2021-12-29T09:13:59Z</time>
      </trkpt>
      <trkpt lat="37.4224960" lon="-4.5451720">
        <ele>396.0</ele>
        <time>2021-12-29T09:14:00Z</time>
      </trkpt>
      <trkpt lat="37.4224700" lon="-4.5452380">
        <ele>395.8</ele>
        <time>2021-12-29T09:14:01Z</time>
      </trkpt>
      <trkpt lat="37.4224480" lon="-4.5453070">
        <ele>395.8</ele>
        <time>2021-12-29T09:14:02Z</time>
      </trkpt>
      <trkpt lat="37.4224290" lon="-4.5453740">
        <ele>395.8</ele>
        <time>2021-12-29T09:14:03Z</time>
      </trkpt>
      <trkpt lat="37.4224060" lon="-4.5454420">
        <ele>395.6</ele>
        <time>2021-12-29T09:14:04Z</time>
      </trkpt>
      <trkpt lat="37.4223900" lon="-4.5455080">
        <ele>395.6</ele>
        <time>2021-12-29T09:14:05Z</time>
      </trkpt>
      <trkpt lat="37.4223710" lon="-4.5455760">
        <ele>395.4</ele>
        <time>2021-12-29T09:14:06Z</time>
      </trkpt>
      <trkpt lat="37.4223520" lon="-4.5456450">
        <ele>395.4</ele>
        <time>2021-12-29T09:14:07Z</time>
      </trkpt>
      <trkpt lat="37.4223360" lon="-4.5457120">
        <ele>395.2</ele>
        <time>2021-12-29T09:14:08Z</time>
      </trkpt>
      <trkpt lat="37.4223200" lon="-4.5457770">
        <ele>395.0</ele>
        <time>2021-12-29T09:14:09Z</time>
      </trkpt>
      <trkpt lat="37.4223010" lon="-4.5458430">
        <ele>395.0</ele>
        <time>2021-12-29T09:14:10Z</time>
      </trkpt>
      <trkpt lat="37.4222880" lon="-4.5459120">
        <ele>395.0</ele>
        <time>2021-12-29T09:14:11Z</time>
      </trkpt>
      <trkpt lat="37.4222720" lon="-4.5459780">
        <ele>395.0</ele>
        <time>2021-12-29T09:14:12Z</time>
      </trkpt>
      <trkpt lat="37.4222590" lon="-4.5460430">
        <ele>394.8</ele>
        <time>2021-12-29T09:14:13Z</time>
      </trkpt>
      <trkpt lat="37.4222500" lon="-4.5461100">
        <ele>394.8</ele>
        <time>2021-12-29T09:14:14Z</time>
      </trkpt>
      <trkpt lat="37.4222400" lon="-4.5461780">
        <ele>394.8</ele>
        <time>2021-12-29T09:14:15Z</time>
      </trkpt>
      <trkpt lat="37.4222340" lon="-4.5462450">
        <ele>394.6</ele>
        <time>2021-12-29T09:14:16Z</time>
      </trkpt>
      <trkpt lat="37.4222270" lon="-4.5463120">
        <ele>394.6</ele>
        <time>2021-12-29T09:14:17Z</time>
      </trkpt>
      <trkpt lat="37.4222210" lon="-4.5463780">
        <ele>394.4</ele>
        <time>2021-12-29T09:14:18Z</time>
      </trkpt>
      <trkpt lat="37.4222180" lon="-4.5464480">
        <ele>394.2</ele>
        <time>2021-12-29T09:14:19Z</time>
      </trkpt>
      <trkpt lat="37.4222140" lon="-4.5465160">
        <ele>394.0</ele>
        <time>2021-12-29T09:14:20Z</time>
      </trkpt>
      <trkpt lat="37.4222080" lon="-4.5465860">
        <ele>393.8</ele>
        <time>2021-12-29T09:14:21Z</time>
      </trkpt>
      <trkpt lat="37.4222080" lon="-4.5466550">
        <ele>393.8</ele>
        <time>2021-12-29T09:14:22Z</time>
      </trkpt>
      <trkpt lat="37.4222020" lon="-4.5467250">
        <ele>393.6</ele>
        <time>2021-12-29T09:14:23Z</time>
      </trkpt>
      <trkpt lat="37.4221980" lon="-4.5467940">
        <ele>393.4</ele>
        <time>2021-12-29T09:14:24Z</time>
      </trkpt>
      <trkpt lat="37.4221950" lon="-4.5468640">
        <ele>393.4</ele>
        <time>2021-12-29T09:14:25Z</time>
      </trkpt>
      <trkpt lat="37.4221950" lon="-4.5469330">
        <ele>393.2</ele>
        <time>2021-12-29T09:14:26Z</time>
      </trkpt>
      <trkpt lat="37.4221920" lon="-4.5470000">
        <ele>393.0</ele>
        <time>2021-12-29T09:14:27Z</time>
      </trkpt>
      <trkpt lat="37.4221950" lon="-4.5470670">
        <ele>393.0</ele>
        <time>2021-12-29T09:14:28Z</time>
      </trkpt>
      <trkpt lat="37.4221980" lon="-4.5471350">
        <ele>393.0</ele>
        <time>2021-12-29T09:14:29Z</time>
      </trkpt>
      <trkpt lat="37.4221980" lon="-4.5472070">
        <ele>392.8</ele>
        <time>2021-12-29T09:14:30Z</time>
      </trkpt>
      <trkpt lat="37.4222020" lon="-4.5472760">
        <ele>392.8</ele>
        <time>2021-12-29T09:14:31Z</time>
      </trkpt>
      <trkpt lat="37.4222080" lon="-4.5473450">
        <ele>392.6</ele>
        <time>2021-12-29T09:14:32Z</time>
      </trkpt>
      <trkpt lat="37.4222110" lon="-4.5474130">
        <ele>392.4</ele>
        <time>2021-12-29T09:14:33Z</time>
      </trkpt>
      <trkpt lat="37.4222180" lon="-4.5474820">
        <ele>392.4</ele>
        <time>2021-12-29T09:14:34Z</time>
      </trkpt>
      <trkpt lat="37.4222270" lon="-4.5475520">
        <ele>392.4</ele>
        <time>2021-12-29T09:14:35Z</time>
      </trkpt>
      <trkpt lat="37.4222340" lon="-4.5476200">
        <ele>392.2</ele>
        <time>2021-12-29T09:14:36Z</time>
      </trkpt>
      <trkpt lat="37.4222400" lon="-4.5476920">
        <ele>392.2</ele>
        <time>2021-12-29T09:14:37Z</time>
      </trkpt>
      <trkpt lat="37.4222530" lon="-4.5477630">
        <ele>392.0</ele>
        <time>2021-12-29T09:14:38Z</time>
      </trkpt>
      <trkpt lat="37.4222660" lon="-4.5478340">
        <ele>392.0</ele>
        <time>2021-12-29T09:14:39Z</time>
      </trkpt>
      <trkpt lat="37.4222720" lon="-4.5479040">
        <ele>391.8</ele>
        <time>2021-12-29T09:14:40Z</time>
      </trkpt>
      <trkpt lat="37.4222820" lon="-4.5479720">
        <ele>391.8</ele>
        <time>2021-12-29T09:14:41Z</time>
      </trkpt>
      <trkpt lat="37.4222980" lon="-4.5480360">
        <ele>391.8</ele>
        <time>2021-12-29T09:14:42Z</time>
      </trkpt>
      <trkpt lat="37.4223140" lon="-4.5481030">
        <ele>391.8</ele>
        <time>2021-12-29T09:14:43Z</time>
      </trkpt>
      <trkpt lat="37.4223260" lon="-4.5481750">
        <ele>391.6</ele>
        <time>2021-12-29T09:14:44Z</time>
      </trkpt>
      <trkpt lat="37.4223390" lon="-4.5482470">
        <ele>391.6</ele>
        <time>2021-12-29T09:14:45Z</time>
      </trkpt>
      <trkpt lat="37.4223550" lon="-4.5483150">
        <ele>391.6</ele>
        <time>2021-12-29T09:14:46Z</time>
      </trkpt>
      <trkpt lat="37.4223710" lon="-4.5483830">
        <ele>391.4</ele>
        <time>2021-12-29T09:14:47Z</time>
      </trkpt>
      <trkpt lat="37.4223870" lon="-4.5484520">
        <ele>391.4</ele>
        <time>2021-12-29T09:14:48Z</time>
      </trkpt>
      <trkpt lat="37.4224000" lon="-4.5485200">
        <ele>391.4</ele>
        <time>2021-12-29T09:14:49Z</time>
      </trkpt>
      <trkpt lat="37.4224190" lon="-4.5485900">
        <ele>391.4</ele>
        <time>2021-12-29T09:14:50Z</time>
      </trkpt>
      <trkpt lat="37.4224450" lon="-4.5486580">
        <ele>391.4</ele>
        <time>2021-12-29T09:14:51Z</time>
      </trkpt>
      <trkpt lat="37.4224640" lon="-4.5487280">
        <ele>391.4</ele>
        <time>2021-12-29T09:14:52Z</time>
      </trkpt>
      <trkpt lat="37.4224800" lon="-4.5487970">
        <ele>391.4</ele>
        <time>2021-12-29T09:14:53Z</time>
      </trkpt>
      <trkpt lat="37.4225060" lon="-4.5488670">
        <ele>391.4</ele>
        <time>2021-12-29T09:14:54Z</time>
      </trkpt>
      <trkpt lat="37.4225280" lon="-4.5489320">
        <ele>391.4</ele>
        <time>2021-12-29T09:14:55Z</time>
      </trkpt>
      <trkpt lat="37.4225500" lon="-4.5489970">
        <ele>391.4</ele>
        <time>2021-12-29T09:14:56Z</time>
      </trkpt>
      <trkpt lat="37.4225700" lon="-4.5490630">
        <ele>391.4</ele>
        <time>2021-12-29T09:14:57Z</time>
      </trkpt>
      <trkpt lat="37.4225890" lon="-4.5491280">
        <ele>391.2</ele>
        <time>2021-12-29T09:14:58Z</time>
      </trkpt>
      <trkpt lat="37.4226110" lon="-4.5491930">
        <ele>391.2</ele>
        <time>2021-12-29T09:14:59Z</time>
      </trkpt>
      <trkpt lat="37.4226300" lon="-4.5492600">
        <ele>391.2</ele>
        <time>2021-12-29T09:15:00Z</time>
      </trkpt>
      <trkpt lat="37.4226530" lon="-4.5493230">
        <ele>391.0</ele>
        <time>2021-12-29T09:15:01Z</time>
      </trkpt>
      <trkpt lat="37.4226720" lon="-4.5493900">
        <ele>391.0</ele>
        <time>2021-12-29T09:15:02Z</time>
      </trkpt>
      <trkpt lat="37.4226910" lon="-4.5494580">
        <ele>390.8</ele>
        <time>2021-12-29T09:15:03Z</time>
      </trkpt>
      <trkpt lat="37.4227140" lon="-4.5495250">
        <ele>390.8</ele>
        <time>2021-12-29T09:15:04Z</time>
      </trkpt>
      <trkpt lat="37.4227330" lon="-4.5495900">
        <ele>390.6</ele>
        <time>2021-12-29T09:15:05Z</time>
      </trkpt>
      <trkpt lat="37.4227550" lon="-4.5496570">
        <ele>390.4</ele>
        <time>2021-12-29T09:15:06Z</time>
      </trkpt>
      <trkpt lat="37.4227740" lon="-4.5497220">
        <ele>390.2</ele>
        <time>2021-12-29T09:15:07Z</time>
      </trkpt>
      <trkpt lat="37.4227970" lon="-4.5497860">
        <ele>390.2</ele>
        <time>2021-12-29T09:15:08Z</time>
      </trkpt>
      <trkpt lat="37.4228130" lon="-4.5498380">
        <ele>390.0</ele>
        <time>2021-12-29T09:15:09Z</time>
      </trkpt>
      <trkpt lat="37.4228420" lon="-4.5499170">
        <ele>390.0</ele>
        <time>2021-12-29T09:15:10Z</time>
      </trkpt>
      <trkpt lat="37.4228640" lon="-4.5499850">
        <ele>389.8</ele>
        <time>2021-12-29T09:15:11Z</time>
      </trkpt>
      <trkpt lat="37.4228830" lon="-4.5500520">
        <ele>389.8</ele>
        <time>2021-12-29T09:15:12Z</time>
      </trkpt>
      <trkpt lat="37.4229020" lon="-4.5501160">
        <ele>389.8</ele>
        <time>2021-12-29T09:15:13Z</time>
      </trkpt>
      <trkpt lat="37.4229220" lon="-4.5501820">
        <ele>389.8</ele>
        <time>2021-12-29T09:15:14Z</time>
      </trkpt>
      <trkpt lat="37.4229440" lon="-4.5502450">
        <ele>389.6</ele>
        <time>2021-12-29T09:15:15Z</time>
      </trkpt>
      <trkpt lat="37.4229630" lon="-4.5503080">
        <ele>389.6</ele>
        <time>2021-12-29T09:15:16Z</time>
      </trkpt>
      <trkpt lat="37.4229860" lon="-4.5503720">
        <ele>389.6</ele>
        <time>2021-12-29T09:15:17Z</time>
      </trkpt>
      <trkpt lat="37.4230080" lon="-4.5504400">
        <ele>389.6</ele>
        <time>2021-12-29T09:15:18Z</time>
      </trkpt>
      <trkpt lat="37.4230270" lon="-4.5505050">
        <ele>389.6</ele>
        <time>2021-12-29T09:15:19Z</time>
      </trkpt>
      <trkpt lat="37.4230500" lon="-4.5505700">
        <ele>389.4</ele>
        <time>2021-12-29T09:15:20Z</time>
      </trkpt>
      <trkpt lat="37.4230690" lon="-4.5506380">
        <ele>389.4</ele>
        <time>2021-12-29T09:15:21Z</time>
      </trkpt>
      <trkpt lat="37.4230880" lon="-4.5507040">
        <ele>389.2</ele>
        <time>2021-12-29T09:15:22Z</time>
      </trkpt>
      <trkpt lat="37.4231070" lon="-4.5507680">
        <ele>389.2</ele>
        <time>2021-12-29T09:15:23Z</time>
      </trkpt>
      <trkpt lat="37.4231230" lon="-4.5508220">
        <ele>389.2</ele>
        <time>2021-12-29T09:15:24Z</time>
      </trkpt>
      <trkpt lat="37.4231490" lon="-4.5509000">
        <ele>389.2</ele>
        <time>2021-12-29T09:15:25Z</time>
      </trkpt>
      <trkpt lat="37.4231680" lon="-4.5509640">
        <ele>389.2</ele>
        <time>2021-12-29T09:15:26Z</time>
      </trkpt>
      <trkpt lat="37.4231870" lon="-4.5510280">
        <ele>389.0</ele>
        <time>2021-12-29T09:15:27Z</time>
      </trkpt>
      <trkpt lat="37.4232100" lon="-4.5510930">
        <ele>389.0</ele>
        <time>2021-12-29T09:15:28Z</time>
      </trkpt>
      <trkpt lat="37.4232290" lon="-4.5511580">
        <ele>389.0</ele>
        <time>2021-12-29T09:15:29Z</time>
      </trkpt>
      <trkpt lat="37.4232510" lon="-4.5512230">
        <ele>388.8</ele>
        <time>2021-12-29T09:15:30Z</time>
      </trkpt>
      <trkpt lat="37.4232740" lon="-4.5512880">
        <ele>388.6</ele>
        <time>2021-12-29T09:15:31Z</time>
      </trkpt>
      <trkpt lat="37.4232930" lon="-4.5513540">
        <ele>388.6</ele>
        <time>2021-12-29T09:15:32Z</time>
      </trkpt>
      <trkpt lat="37.4233120" lon="-4.5514200">
        <ele>388.6</ele>
        <time>2021-12-29T09:15:33Z</time>
      </trkpt>
      <trkpt lat="37.4233310" lon="-4.5514860">
        <ele>388.4</ele>
        <time>2021-12-29T09:15:34Z</time>
      </trkpt>
      <trkpt lat="37.4233500" lon="-4.5515550">
        <ele>388.4</ele>
        <time>2021-12-29T09:15:35Z</time>
      </trkpt>
      <trkpt lat="37.4233700" lon="-4.5516230">
        <ele>388.4</ele>
        <time>2021-12-29T09:15:36Z</time>
      </trkpt>
      <trkpt lat="37.4233920" lon="-4.5516920">
        <ele>388.2</ele>
        <time>2021-12-29T09:15:37Z</time>
      </trkpt>
      <trkpt lat="37.4234110" lon="-4.5517600">
        <ele>388.2</ele>
        <time>2021-12-29T09:15:38Z</time>
      </trkpt>
      <trkpt lat="37.4234300" lon="-4.5518280">
        <ele>388.0</ele>
        <time>2021-12-29T09:15:39Z</time>
      </trkpt>
      <trkpt lat="37.4234500" lon="-4.5518950">
        <ele>388.0</ele>
        <time>2021-12-29T09:15:40Z</time>
      </trkpt>
      <trkpt lat="37.4234720" lon="-4.5519620">
        <ele>388.0</ele>
        <time>2021-12-29T09:15:41Z</time>
      </trkpt>
      <trkpt lat="37.4234880" lon="-4.5520300">
        <ele>388.0</ele>
        <time>2021-12-29T09:15:42Z</time>
      </trkpt>
      <trkpt lat="37.4235100" lon="-4.5520980">
        <ele>387.8</ele>
        <time>2021-12-29T09:15:43Z</time>
      </trkpt>
      <trkpt lat="37.4235300" lon="-4.5521680">
        <ele>387.8</ele>
        <time>2021-12-29T09:15:44Z</time>
      </trkpt>
      <trkpt lat="37.4235460" lon="-4.5522360">
        <ele>387.6</ele>
        <time>2021-12-29T09:15:45Z</time>
      </trkpt>
      <trkpt lat="37.4235650" lon="-4.5523020">
        <ele>387.4</ele>
        <time>2021-12-29T09:15:46Z</time>
      </trkpt>
      <trkpt lat="37.4235810" lon="-4.5523670">
        <ele>387.4</ele>
        <time>2021-12-29T09:15:47Z</time>
      </trkpt>
      <trkpt lat="37.4235970" lon="-4.5524300">
        <ele>387.2</ele>
        <time>2021-12-29T09:15:48Z</time>
      </trkpt>
      <trkpt lat="37.4236060" lon="-4.5524930">
        <ele>387.0</ele>
        <time>2021-12-29T09:15:49Z</time>
      </trkpt>
      <trkpt lat="37.4236220" lon="-4.5525580">
        <ele>387.0</ele>
        <time>2021-12-29T09:15:50Z</time>
      </trkpt>
      <trkpt lat="37.4236290" lon="-4.5526230">
        <ele>386.8</ele>
        <time>2021-12-29T09:15:51Z</time>
      </trkpt>
      <trkpt lat="37.4236420" lon="-4.5526920">
        <ele>386.6</ele>
        <time>2021-12-29T09:15:52Z</time>
      </trkpt>
      <trkpt lat="37.4236450" lon="-4.5527600">
        <ele>386.6</ele>
        <time>2021-12-29T09:15:53Z</time>
      </trkpt>
      <trkpt lat="37.4236580" lon="-4.5528280">
        <ele>386.6</ele>
        <time>2021-12-29T09:15:54Z</time>
      </trkpt>
      <trkpt lat="37.4236670" lon="-4.5528960">
        <ele>386.4</ele>
        <time>2021-12-29T09:15:55Z</time>
      </trkpt>
      <trkpt lat="37.4236770" lon="-4.5529630">
        <ele>386.4</ele>
        <time>2021-12-29T09:15:56Z</time>
      </trkpt>
      <trkpt lat="37.4236830" lon="-4.5530300">
        <ele>386.2</ele>
        <time>2021-12-29T09:15:57Z</time>
      </trkpt>
      <trkpt lat="37.4236860" lon="-4.5530970">
        <ele>386.2</ele>
        <time>2021-12-29T09:15:58Z</time>
      </trkpt>
      <trkpt lat="37.4236900" lon="-4.5531640">
        <ele>386.2</ele>
        <time>2021-12-29T09:15:59Z</time>
      </trkpt>
      <trkpt lat="37.4236990" lon="-4.5532280">
        <ele>386.0</ele>
        <time>2021-12-29T09:16:00Z</time>
      </trkpt>
      <trkpt lat="37.4237020" lon="-4.5532900">
        <ele>386.0</ele>
        <time>2021-12-29T09:16:01Z</time>
      </trkpt>
      <trkpt lat="37.4237060" lon="-4.5533550">
        <ele>385.8</ele>
        <time>2021-12-29T09:16:02Z</time>
      </trkpt>
      <trkpt lat="37.4237090" lon="-4.5534200">
        <ele>385.6</ele>
        <time>2021-12-29T09:16:03Z</time>
      </trkpt>
      <trkpt lat="37.4237150" lon="-4.5534850">
        <ele>385.6</ele>
        <time>2021-12-29T09:16:04Z</time>
      </trkpt>
      <trkpt lat="37.4237150" lon="-4.5535520">
        <ele>385.4</ele>
        <time>2021-12-29T09:16:05Z</time>
      </trkpt>
      <trkpt lat="37.4237150" lon="-4.5536180">
        <ele>385.2</ele>
        <time>2021-12-29T09:16:06Z</time>
      </trkpt>
      <trkpt lat="37.4237150" lon="-4.5536870">
        <ele>385.2</ele>
        <time>2021-12-29T09:16:07Z</time>
      </trkpt>
      <trkpt lat="37.4237150" lon="-4.5537530">
        <ele>385.2</ele>
        <time>2021-12-29T09:16:08Z</time>
      </trkpt>
      <trkpt lat="37.4237090" lon="-4.5538180">
        <ele>385.0</ele>
        <time>2021-12-29T09:16:09Z</time>
      </trkpt>
      <trkpt lat="37.4237090" lon="-4.5538820">
        <ele>385.0</ele>
        <time>2021-12-29T09:16:10Z</time>
      </trkpt>
      <trkpt lat="37.4237090" lon="-4.5539450">
        <ele>385.0</ele>
        <time>2021-12-29T09:16:11Z</time>
      </trkpt>
      <trkpt lat="37.4237060" lon="-4.5540060">
        <ele>385.0</ele>
        <time>2021-12-29T09:16:12Z</time>
      </trkpt>
      <trkpt lat="37.4236990" lon="-4.5540700">
        <ele>385.0</ele>
        <time>2021-12-29T09:16:13Z</time>
      </trkpt>
      <trkpt lat="37.4236900" lon="-4.5541340">
        <ele>385.0</ele>
        <time>2021-12-29T09:16:14Z</time>
      </trkpt>
      <trkpt lat="37.4236830" lon="-4.5541980">
        <ele>385.0</ele>
        <time>2021-12-29T09:16:15Z</time>
      </trkpt>
      <trkpt lat="37.4236770" lon="-4.5542620">
        <ele>385.0</ele>
        <time>2021-12-29T09:16:16Z</time>
      </trkpt>
      <trkpt lat="37.4236700" lon="-4.5543250">
        <ele>385.0</ele>
        <time>2021-12-29T09:16:17Z</time>
      </trkpt>
      <trkpt lat="37.4236610" lon="-4.5543770">
        <ele>385.0</ele>
        <time>2021-12-29T09:16:18Z</time>
      </trkpt>
      <trkpt lat="37.4236510" lon="-4.5544530">
        <ele>385.0</ele>
        <time>2021-12-29T09:16:19Z</time>
      </trkpt>
      <trkpt lat="37.4236450" lon="-4.5545170">
        <ele>385.0</ele>
        <time>2021-12-29T09:16:20Z</time>
      </trkpt>
      <trkpt lat="37.4236320" lon="-4.5545800">
        <ele>384.8</ele>
        <time>2021-12-29T09:16:21Z</time>
      </trkpt>
      <trkpt lat="37.4236220" lon="-4.5546450">
        <ele>384.8</ele>
        <time>2021-12-29T09:16:22Z</time>
      </trkpt>
      <trkpt lat="37.4236100" lon="-4.5547080">
        <ele>384.6</ele>
        <time>2021-12-29T09:16:23Z</time>
      </trkpt>
      <trkpt lat="37.4236030" lon="-4.5547700">
        <ele>384.6</ele>
        <time>2021-12-29T09:16:24Z</time>
      </trkpt>
      <trkpt lat="37.4235900" lon="-4.5548320">
        <ele>384.6</ele>
        <time>2021-12-29T09:16:25Z</time>
      </trkpt>
      <trkpt lat="37.4235810" lon="-4.5548950">
        <ele>384.4</ele>
        <time>2021-12-29T09:16:26Z</time>
      </trkpt>
      <trkpt lat="37.4235680" lon="-4.5549560">
        <ele>384.4</ele>
        <time>2021-12-29T09:16:27Z</time>
      </trkpt>
      <trkpt lat="37.4235580" lon="-4.5550160">
        <ele>384.2</ele>
        <time>2021-12-29T09:16:28Z</time>
      </trkpt>
      <trkpt lat="37.4235490" lon="-4.5550760">
        <ele>384.2</ele>
        <time>2021-12-29T09:16:29Z</time>
      </trkpt>
      <trkpt lat="37.4235390" lon="-4.5551370">
        <ele>384.2</ele>
        <time>2021-12-29T09:16:30Z</time>
      </trkpt>
      <trkpt lat="37.4235300" lon="-4.5551840">
        <ele>384.0</ele>
        <time>2021-12-29T09:16:31Z</time>
      </trkpt>
      <trkpt lat="37.4235230" lon="-4.5552500">
        <ele>384.0</ele>
        <time>2021-12-29T09:16:32Z</time>
      </trkpt>
      <trkpt lat="37.4235100" lon="-4.5553060">
        <ele>383.8</ele>
        <time>2021-12-29T09:16:33Z</time>
      </trkpt>
      <trkpt lat="37.4235010" lon="-4.5553660">
        <ele>383.8</ele>
        <time>2021-12-29T09:16:34Z</time>
      </trkpt>
      <trkpt lat="37.4234880" lon="-4.5554150">
        <ele>383.8</ele>
        <time>2021-12-29T09:16:35Z</time>
      </trkpt>
      <trkpt lat="37.4234720" lon="-4.5554920">
        <ele>383.8</ele>
        <time>2021-12-29T09:16:36Z</time>
      </trkpt>
      <trkpt lat="37.4234620" lon="-4.5555570">
        <ele>383.6</ele>
        <time>2021-12-29T09:16:37Z</time>
      </trkpt>
      <trkpt lat="37.4234500" lon="-4.5556240">
        <ele>383.6</ele>
        <time>2021-12-29T09:16:38Z</time>
      </trkpt>
      <trkpt lat="37.4234370" lon="-4.5556900">
        <ele>383.6</ele>
        <time>2021-12-29T09:16:39Z</time>
      </trkpt>
      <trkpt lat="37.4234240" lon="-4.5557530">
        <ele>383.6</ele>
        <time>2021-12-29T09:16:40Z</time>
      </trkpt>
      <trkpt lat="37.4234080" lon="-4.5558170">
        <ele>383.6</ele>
        <time>2021-12-29T09:16:41Z</time>
      </trkpt>
      <trkpt lat="37.4233980" lon="-4.5558800">
        <ele>383.4</ele>
        <time>2021-12-29T09:16:42Z</time>
      </trkpt>
      <trkpt lat="37.4233860" lon="-4.5559440">
        <ele>383.4</ele>
        <time>2021-12-29T09:16:43Z</time>
      </trkpt>
      <trkpt lat="37.4233730" lon="-4.5560100">
        <ele>383.4</ele>
        <time>2021-12-29T09:16:44Z</time>
      </trkpt>
      <trkpt lat="37.4233600" lon="-4.5560750">
        <ele>383.2</ele>
        <time>2021-12-29T09:16:45Z</time>
      </trkpt>
      <trkpt lat="37.4233440" lon="-4.5561420">
        <ele>383.2</ele>
        <time>2021-12-29T09:16:46Z</time>
      </trkpt>
      <trkpt lat="37.4233310" lon="-4.5562080">
        <ele>383.2</ele>
        <time>2021-12-29T09:16:47Z</time>
      </trkpt>
      <trkpt lat="37.4233220" lon="-4.5562740">
        <ele>383.2</ele>
        <time>2021-12-29T09:16:48Z</time>
      </trkpt>
      <trkpt lat="37.4233060" lon="-4.5563380">
        <ele>383.0</ele>
        <time>2021-12-29T09:16:49Z</time>
      </trkpt>
      <trkpt lat="37.4232990" lon="-4.5564030">
        <ele>383.0</ele>
        <time>2021-12-29T09:16:50Z</time>
      </trkpt>
      <trkpt lat="37.4232860" lon="-4.5564700">
        <ele>383.0</ele>
        <time>2021-12-29T09:16:51Z</time>
      </trkpt>
      <trkpt lat="37.4232740" lon="-4.5565420">
        <ele>382.8</ele>
        <time>2021-12-29T09:16:52Z</time>
      </trkpt>
      <trkpt lat="37.4232640" lon="-4.5566120">
        <ele>382.8</ele>
        <time>2021-12-29T09:16:53Z</time>
      </trkpt>
      <trkpt lat="37.4232480" lon="-4.5566800">
        <ele>382.8</ele>
        <time>2021-12-29T09:16:54Z</time>
      </trkpt>
      <trkpt lat="37.4232380" lon="-4.5567500">
        <ele>382.8</ele>
        <time>2021-12-29T09:16:55Z</time>
      </trkpt>
      <trkpt lat="37.4232220" lon="-4.5568180">
        <ele>382.6</ele>
        <time>2021-12-29T09:16:56Z</time>
      </trkpt>
      <trkpt lat="37.4232130" lon="-4.5568870">
        <ele>382.6</ele>
        <time>2021-12-29T09:16:57Z</time>
      </trkpt>
      <trkpt lat="37.4232030" lon="-4.5569520">
        <ele>382.6</ele>
        <time>2021-12-29T09:16:58Z</time>
      </trkpt>
      <trkpt lat="37.4231870" lon="-4.5570120">
        <ele>382.4</ele>
        <time>2021-12-29T09:16:59Z</time>
      </trkpt>
      <trkpt lat="37.4231740" lon="-4.5570740">
        <ele>382.4</ele>
        <time>2021-12-29T09:17:00Z</time>
      </trkpt>
      <trkpt lat="37.4231680" lon="-4.5571400">
        <ele>382.2</ele>
        <time>2021-12-29T09:17:01Z</time>
      </trkpt>
      <trkpt lat="37.4231550" lon="-4.5572000">
        <ele>382.2</ele>
        <time>2021-12-29T09:17:02Z</time>
      </trkpt>
      <trkpt lat="37.4231420" lon="-4.5572620">
        <ele>382.0</ele>
        <time>2021-12-29T09:17:03Z</time>
      </trkpt>
      <trkpt lat="37.4231330" lon="-4.5573240">
        <ele>382.0</ele>
        <time>2021-12-29T09:17:04Z</time>
      </trkpt>
      <trkpt lat="37.4231230" lon="-4.5573920">
        <ele>382.0</ele>
        <time>2021-12-29T09:17:05Z</time>
      </trkpt>
      <trkpt lat="37.4231140" lon="-4.5574580">
        <ele>382.0</ele>
        <time>2021-12-29T09:17:06Z</time>
      </trkpt>
      <trkpt lat="37.4231040" lon="-4.5575250">
        <ele>382.0</ele>
        <time>2021-12-29T09:17:07Z</time>
      </trkpt>
      <trkpt lat="37.4230910" lon="-4.5575880">
        <ele>381.8</ele>
        <time>2021-12-29T09:17:08Z</time>
      </trkpt>
      <trkpt lat="37.4230850" lon="-4.5576520">
        <ele>381.8</ele>
        <time>2021-12-29T09:17:09Z</time>
      </trkpt>
      <trkpt lat="37.4230720" lon="-4.5577140">
        <ele>381.8</ele>
        <time>2021-12-29T09:17:10Z</time>
      </trkpt>
      <trkpt lat="37.4230660" lon="-4.5577780">
        <ele>381.6</ele>
        <time>2021-12-29T09:17:11Z</time>
      </trkpt>
      <trkpt lat="37.4230530" lon="-4.5578450">
        <ele>381.6</ele>
        <time>2021-12-29T09:17:12Z</time>
      </trkpt>
      <trkpt lat="37.4230430" lon="-4.5579100">
        <ele>381.4</ele>
        <time>2021-12-29T09:17:13Z</time>
      </trkpt>
      <trkpt lat="37.4230240" lon="-4.5579780">
        <ele>381.4</ele>
        <time>2021-12-29T09:17:14Z</time>
      </trkpt>
      <trkpt lat="37.4230080" lon="-4.5580470">
        <ele>381.4</ele>
        <time>2021-12-29T09:17:15Z</time>
      </trkpt>
      <trkpt lat="37.4229950" lon="-4.5581130">
        <ele>381.4</ele>
        <time>2021-12-29T09:17:16Z</time>
      </trkpt>
      <trkpt lat="37.4229890" lon="-4.5581800">
        <ele>381.2</ele>
        <time>2021-12-29T09:17:17Z</time>
      </trkpt>
      <trkpt lat="37.4229730" lon="-4.5582480">
        <ele>381.2</ele>
        <time>2021-12-29T09:17:18Z</time>
      </trkpt>
      <trkpt lat="37.4229630" lon="-4.5583170">
        <ele>381.0</ele>
        <time>2021-12-29T09:17:19Z</time>
      </trkpt>
      <trkpt lat="37.4229500" lon="-4.5583840">
        <ele>381.0</ele>
        <time>2021-12-29T09:17:20Z</time>
      </trkpt>
      <trkpt lat="37.4229340" lon="-4.5584500">
        <ele>380.8</ele>
        <time>2021-12-29T09:17:21Z</time>
      </trkpt>
      <trkpt lat="37.4229250" lon="-4.5585180">
        <ele>380.6</ele>
        <time>2021-12-29T09:17:22Z</time>
      </trkpt>
      <trkpt lat="37.4229090" lon="-4.5585860">
        <ele>380.6</ele>
        <time>2021-12-29T09:17:23Z</time>
      </trkpt>
      <trkpt lat="37.4228960" lon="-4.5586550">
        <ele>380.6</ele>
        <time>2021-12-29T09:17:24Z</time>
      </trkpt>
      <trkpt lat="37.4228830" lon="-4.5587240">
        <ele>380.4</ele>
        <time>2021-12-29T09:17:25Z</time>
      </trkpt>
      <trkpt lat="37.4228670" lon="-4.5587930">
        <ele>380.4</ele>
        <time>2021-12-29T09:17:26Z</time>
      </trkpt>
      <trkpt lat="37.4228580" lon="-4.5588620">
        <ele>380.4</ele>
        <time>2021-12-29T09:17:27Z</time>
      </trkpt>
      <trkpt lat="37.4228450" lon="-4.5589300">
        <ele>380.4</ele>
        <time>2021-12-29T09:17:28Z</time>
      </trkpt>
      <trkpt lat="37.4228350" lon="-4.5589980">
        <ele>380.2</ele>
        <time>2021-12-29T09:17:29Z</time>
      </trkpt>
      <trkpt lat="37.4228220" lon="-4.5590700">
        <ele>380.2</ele>
        <time>2021-12-29T09:17:30Z</time>
      </trkpt>
      <trkpt lat="37.4228100" lon="-4.5591380">
        <ele>380.0</ele>
        <time>2021-12-29T09:17:31Z</time>
      </trkpt>
      <trkpt lat="37.4227940" lon="-4.5592120">
        <ele>380.0</ele>
        <time>2021-12-29T09:17:32Z</time>
      </trkpt>
      <trkpt lat="37.4227840" lon="-4.5592800">
        <ele>379.8</ele>
        <time>2021-12-29T09:17:33Z</time>
      </trkpt>
      <trkpt lat="37.4227680" lon="-4.5593470">
        <ele>379.8</ele>
        <time>2021-12-29T09:17:34Z</time>
      </trkpt>
      <trkpt lat="37.4227550" lon="-4.5594140">
        <ele>379.6</ele>
        <time>2021-12-29T09:17:35Z</time>
      </trkpt>
      <trkpt lat="37.4227460" lon="-4.5594770">
        <ele>379.6</ele>
        <time>2021-12-29T09:17:36Z</time>
      </trkpt>
      <trkpt lat="37.4227330" lon="-4.5595420">
        <ele>379.4</ele>
        <time>2021-12-29T09:17:37Z</time>
      </trkpt>
      <trkpt lat="37.4227230" lon="-4.5596080">
        <ele>379.4</ele>
        <time>2021-12-29T09:17:38Z</time>
      </trkpt>
      <trkpt lat="37.4227140" lon="-4.5596780">
        <ele>379.2</ele>
        <time>2021-12-29T09:17:39Z</time>
      </trkpt>
      <trkpt lat="37.4227040" lon="-4.5597480">
        <ele>379.2</ele>
        <time>2021-12-29T09:17:40Z</time>
      </trkpt>
      <trkpt lat="37.4226910" lon="-4.5598170">
        <ele>379.0</ele>
        <time>2021-12-29T09:17:41Z</time>
      </trkpt>
      <trkpt lat="37.4226780" lon="-4.5598880">
        <ele>379.0</ele>
        <time>2021-12-29T09:17:42Z</time>
      </trkpt>
      <trkpt lat="37.4226690" lon="-4.5599580">
        <ele>378.8</ele>
        <time>2021-12-29T09:17:43Z</time>
      </trkpt>
      <trkpt lat="37.4226530" lon="-4.5600300">
        <ele>378.8</ele>
        <time>2021-12-29T09:17:44Z</time>
      </trkpt>
      <trkpt lat="37.4226430" lon="-4.5601000">
        <ele>378.8</ele>
        <time>2021-12-29T09:17:45Z</time>
      </trkpt>
      <trkpt lat="37.4226300" lon="-4.5601680">
        <ele>378.8</ele>
        <time>2021-12-29T09:17:46Z</time>
      </trkpt>
      <trkpt lat="37.4226180" lon="-4.5602380">
        <ele>378.8</ele>
        <time>2021-12-29T09:17:47Z</time>
      </trkpt>
      <trkpt lat="37.4226080" lon="-4.5603080">
        <ele>378.6</ele>
        <time>2021-12-29T09:17:48Z</time>
      </trkpt>
      <trkpt lat="37.4225950" lon="-4.5603770">
        <ele>378.6</ele>
        <time>2021-12-29T09:17:49Z</time>
      </trkpt>
      <trkpt lat="37.4225860" lon="-4.5604470">
        <ele>378.6</ele>
        <time>2021-12-29T09:17:50Z</time>
      </trkpt>
      <trkpt lat="37.4225700" lon="-4.5605180">
        <ele>378.4</ele>
        <time>2021-12-29T09:17:51Z</time>
      </trkpt>
      <trkpt lat="37.4225570" lon="-4.5605880">
        <ele>378.4</ele>
        <time>2021-12-29T09:17:52Z</time>
      </trkpt>
      <trkpt lat="37.4225440" lon="-4.5606600">
        <ele>378.4</ele>
        <time>2021-12-29T09:17:53Z</time>
      </trkpt>
      <trkpt lat="37.4225340" lon="-4.5607320">
        <ele>378.4</ele>
        <time>2021-12-29T09:17:54Z</time>
      </trkpt>
      <trkpt lat="37.4225180" lon="-4.5608000">
        <ele>378.4</ele>
        <time>2021-12-29T09:17:55Z</time>
      </trkpt>
      <trkpt lat="37.4225090" lon="-4.5608700">
        <ele>378.2</ele>
        <time>2021-12-29T09:17:56Z</time>
      </trkpt>
      <trkpt lat="37.4224930" lon="-4.5609430">
        <ele>378.2</ele>
        <time>2021-12-29T09:17:57Z</time>
      </trkpt>
      <trkpt lat="37.4224800" lon="-4.5610150">
        <ele>378.0</ele>
        <time>2021-12-29T09:17:58Z</time>
      </trkpt>
      <trkpt lat="37.4224700" lon="-4.5610850">
        <ele>378.0</ele>
        <time>2021-12-29T09:17:59Z</time>
      </trkpt>
      <trkpt lat="37.4224540" lon="-4.5611570">
        <ele>378.0</ele>
        <time>2021-12-29T09:18:00Z</time>
      </trkpt>
      <trkpt lat="37.4224480" lon="-4.5612120">
        <ele>378.0</ele>
        <time>2021-12-29T09:18:01Z</time>
      </trkpt>
      <trkpt lat="37.4224320" lon="-4.5612900">
        <ele>378.0</ele>
        <time>2021-12-29T09:18:02Z</time>
      </trkpt>
      <trkpt lat="37.4224160" lon="-4.5613560">
        <ele>377.8</ele>
        <time>2021-12-29T09:18:03Z</time>
      </trkpt>
      <trkpt lat="37.4224060" lon="-4.5614230">
        <ele>377.8</ele>
        <time>2021-12-29T09:18:04Z</time>
      </trkpt>
      <trkpt lat="37.4223940" lon="-4.5614930">
        <ele>377.6</ele>
        <time>2021-12-29T09:18:05Z</time>
      </trkpt>
      <trkpt lat="37.4223780" lon="-4.5615600">
        <ele>377.6</ele>
        <time>2021-12-29T09:18:06Z</time>
      </trkpt>
      <trkpt lat="37.4223650" lon="-4.5616320">
        <ele>377.6</ele>
        <time>2021-12-29T09:18:07Z</time>
      </trkpt>
      <trkpt lat="37.4223520" lon="-4.5617000">
        <ele>377.6</ele>
        <time>2021-12-29T09:18:08Z</time>
      </trkpt>
      <trkpt lat="37.4223390" lon="-4.5617670">
        <ele>377.6</ele>
        <time>2021-12-29T09:18:09Z</time>
      </trkpt>
      <trkpt lat="37.4223300" lon="-4.5618320">
        <ele>377.6</ele>
        <time>2021-12-29T09:18:10Z</time>
      </trkpt>
      <trkpt lat="37.4223140" lon="-4.5618970">
        <ele>377.4</ele>
        <time>2021-12-29T09:18:11Z</time>
      </trkpt>
      <trkpt lat="37.4222980" lon="-4.5619650">
        <ele>377.4</ele>
        <time>2021-12-29T09:18:12Z</time>
      </trkpt>
      <trkpt lat="37.4222880" lon="-4.5620300">
        <ele>377.4</ele>
        <time>2021-12-29T09:18:13Z</time>
      </trkpt>
      <trkpt lat="37.4222720" lon="-4.5620960">
        <ele>377.4</ele>
        <time>2021-12-29T09:18:14Z</time>
      </trkpt>
      <trkpt lat="37.4222660" lon="-4.5621630">
        <ele>377.2</ele>
        <time>2021-12-29T09:18:15Z</time>
      </trkpt>
      <trkpt lat="37.4222500" lon="-4.5622320">
        <ele>377.2</ele>
        <time>2021-12-29T09:18:16Z</time>
      </trkpt>
      <trkpt lat="37.4222370" lon="-4.5622980">
        <ele>377.0</ele>
        <time>2021-12-29T09:18:17Z</time>
      </trkpt>
      <trkpt lat="37.4222210" lon="-4.5623650">
        <ele>377.0</ele>
        <time>2021-12-29T09:18:18Z</time>
      </trkpt>
      <trkpt lat="37.4222080" lon="-4.5624320">
        <ele>376.8</ele>
        <time>2021-12-29T09:18:19Z</time>
      </trkpt>
      <trkpt lat="37.4221920" lon="-4.5624980">
        <ele>376.8</ele>
        <time>2021-12-29T09:18:20Z</time>
      </trkpt>
      <trkpt lat="37.4221700" lon="-4.5625670">
        <ele>376.6</ele>
        <time>2021-12-29T09:18:21Z</time>
      </trkpt>
      <trkpt lat="37.4221540" lon="-4.5626350">
        <ele>376.6</ele>
        <time>2021-12-29T09:18:22Z</time>
      </trkpt>
      <trkpt lat="37.4221340" lon="-4.5627020">
        <ele>376.6</ele>
        <time>2021-12-29T09:18:23Z</time>
      </trkpt>
      <trkpt lat="37.4221150" lon="-4.5627660">
        <ele>376.6</ele>
        <time>2021-12-29T09:18:24Z</time>
      </trkpt>
      <trkpt lat="37.4220930" lon="-4.5628320">
        <ele>376.6</ele>
        <time>2021-12-29T09:18:25Z</time>
      </trkpt>
      <trkpt lat="37.4220740" lon="-4.5628970">
        <ele>376.4</ele>
        <time>2021-12-29T09:18:26Z</time>
      </trkpt>
      <trkpt lat="37.4220480" lon="-4.5629600">
        <ele>376.4</ele>
        <time>2021-12-29T09:18:27Z</time>
      </trkpt>
      <trkpt lat="37.4220220" lon="-4.5630260">
        <ele>376.4</ele>
        <time>2021-12-29T09:18:28Z</time>
      </trkpt>
      <trkpt lat="37.4219970" lon="-4.5630920">
        <ele>376.4</ele>
        <time>2021-12-29T09:18:29Z</time>
      </trkpt>
      <trkpt lat="37.4219740" lon="-4.5631600">
        <ele>376.4</ele>
        <time>2021-12-29T09:18:30Z</time>
      </trkpt>
      <trkpt lat="37.4219490" lon="-4.5632250">
        <ele>376.2</ele>
        <time>2021-12-29T09:18:31Z</time>
      </trkpt>
      <trkpt lat="37.4219200" lon="-4.5632880">
        <ele>376.2</ele>
        <time>2021-12-29T09:18:32Z</time>
      </trkpt>
      <trkpt lat="37.4218940" lon="-4.5633480">
        <ele>376.0</ele>
        <time>2021-12-29T09:18:33Z</time>
      </trkpt>
      <trkpt lat="37.4218620" lon="-4.5634080">
        <ele>376.0</ele>
        <time>2021-12-29T09:18:34Z</time>
      </trkpt>
      <trkpt lat="37.4218340" lon="-4.5634680">
        <ele>375.8</ele>
        <time>2021-12-29T09:18:35Z</time>
      </trkpt>
      <trkpt lat="37.4218020" lon="-4.5635300">
        <ele>375.8</ele>
        <time>2021-12-29T09:18:36Z</time>
      </trkpt>
      <trkpt lat="37.4217700" lon="-4.5635900">
        <ele>375.6</ele>
        <time>2021-12-29T09:18:37Z</time>
      </trkpt>
      <trkpt lat="37.4217380" lon="-4.5636500">
        <ele>375.6</ele>
        <time>2021-12-29T09:18:38Z</time>
      </trkpt>
      <trkpt lat="37.4217020" lon="-4.5637100">
        <ele>375.4</ele>
        <time>2021-12-29T09:18:39Z</time>
      </trkpt>
      <trkpt lat="37.4216700" lon="-4.5637700">
        <ele>375.4</ele>
        <time>2021-12-29T09:18:40Z</time>
      </trkpt>
      <trkpt lat="37.4216350" lon="-4.5638280">
        <ele>375.2</ele>
        <time>2021-12-29T09:18:41Z</time>
      </trkpt>
      <trkpt lat="37.4215970" lon="-4.5638870">
        <ele>375.0</ele>
        <time>2021-12-29T09:18:42Z</time>
      </trkpt>
      <trkpt lat="37.4215580" lon="-4.5639430">
        <ele>375.0</ele>
        <time>2021-12-29T09:18:43Z</time>
      </trkpt>
      <trkpt lat="37.4215230" lon="-4.5639970">
        <ele>374.8</ele>
        <time>2021-12-29T09:18:44Z</time>
      </trkpt>
      <trkpt lat="37.4214850" lon="-4.5640500">
        <ele>374.8</ele>
        <time>2021-12-29T09:18:45Z</time>
      </trkpt>
      <trkpt lat="37.4214460" lon="-4.5641020">
        <ele>374.6</ele>
        <time>2021-12-29T09:18:46Z</time>
      </trkpt>
      <trkpt lat="37.4214110" lon="-4.5641550">
        <ele>374.4</ele>
        <time>2021-12-29T09:18:47Z</time>
      </trkpt>
      <trkpt lat="37.4213730" lon="-4.5642070">
        <ele>374.4</ele>
        <time>2021-12-29T09:18:48Z</time>
      </trkpt>
      <trkpt lat="37.4213280" lon="-4.5642580">
        <ele>374.2</ele>
        <time>2021-12-29T09:18:49Z</time>
      </trkpt>
      <trkpt lat="37.4212930" lon="-4.5643080">
        <ele>374.2</ele>
        <time>2021-12-29T09:18:50Z</time>
      </trkpt>
      <trkpt lat="37.4212480" lon="-4.5643580">
        <ele>374.2</ele>
        <time>2021-12-29T09:18:51Z</time>
      </trkpt>
      <trkpt lat="37.4212060" lon="-4.5644070">
        <ele>374.0</ele>
        <time>2021-12-29T09:18:52Z</time>
      </trkpt>
      <trkpt lat="37.4211680" lon="-4.5644530">
        <ele>373.8</ele>
        <time>2021-12-29T09:18:53Z</time>
      </trkpt>
      <trkpt lat="37.4211260" lon="-4.5645000">
        <ele>373.8</ele>
        <time>2021-12-29T09:18:54Z</time>
      </trkpt>
      <trkpt lat="37.4210850" lon="-4.5645430">
        <ele>373.6</ele>
        <time>2021-12-29T09:18:55Z</time>
      </trkpt>
      <trkpt lat="37.4210430" lon="-4.5645880">
        <ele>373.4</ele>
        <time>2021-12-29T09:18:56Z</time>
      </trkpt>
      <trkpt lat="37.4210020" lon="-4.5646350">
        <ele>373.2</ele>
        <time>2021-12-29T09:18:57Z</time>
      </trkpt>
      <trkpt lat="37.4209570" lon="-4.5646770">
        <ele>373.0</ele>
        <time>2021-12-29T09:18:58Z</time>
      </trkpt>
      <trkpt lat="37.4209150" lon="-4.5647180">
        <ele>373.0</ele>
        <time>2021-12-29T09:18:59Z</time>
      </trkpt>
      <trkpt lat="37.4208700" lon="-4.5647580">
        <ele>372.8</ele>
        <time>2021-12-29T09:19:00Z</time>
      </trkpt>
      <trkpt lat="37.4208290" lon="-4.5647960">
        <ele>372.6</ele>
        <time>2021-12-29T09:19:01Z</time>
      </trkpt>
      <trkpt lat="37.4207840" lon="-4.5648350">
        <ele>372.4</ele>
        <time>2021-12-29T09:19:02Z</time>
      </trkpt>
      <trkpt lat="37.4207420" lon="-4.5648700">
        <ele>372.4</ele>
        <time>2021-12-29T09:19:03Z</time>
      </trkpt>
      <trkpt lat="37.4207010" lon="-4.5649030">
        <ele>372.2</ele>
        <time>2021-12-29T09:19:04Z</time>
      </trkpt>
      <trkpt lat="37.4206530" lon="-4.5649380">
        <ele>372.0</ele>
        <time>2021-12-29T09:19:05Z</time>
      </trkpt>
      <trkpt lat="37.4206080" lon="-4.5649720">
        <ele>372.0</ele>
        <time>2021-12-29T09:19:06Z</time>
      </trkpt>
      <trkpt lat="37.4205630" lon="-4.5650070">
        <ele>371.8</ele>
        <time>2021-12-29T09:19:07Z</time>
      </trkpt>
      <trkpt lat="37.4205180" lon="-4.5650380">
        <ele>371.6</ele>
        <time>2021-12-29T09:19:08Z</time>
      </trkpt>
      <trkpt lat="37.4204670" lon="-4.5650670">
        <ele>371.6</ele>
        <time>2021-12-29T09:19:09Z</time>
      </trkpt>
      <trkpt lat="37.4204220" lon="-4.5650970">
        <ele>371.4</ele>
        <time>2021-12-29T09:19:10Z</time>
      </trkpt>
      <trkpt lat="37.4203710" lon="-4.5651300">
        <ele>371.4</ele>
        <time>2021-12-29T09:19:11Z</time>
      </trkpt>
      <trkpt lat="37.4203300" lon="-4.5651620">
        <ele>371.4</ele>
        <time>2021-12-29T09:19:12Z</time>
      </trkpt>
      <trkpt lat="37.4202820" lon="-4.5651920">
        <ele>371.2</ele>
        <time>2021-12-29T09:19:13Z</time>
      </trkpt>
      <trkpt lat="37.4202300" lon="-4.5652200">
        <ele>371.2</ele>
        <time>2021-12-29T09:19:14Z</time>
      </trkpt>
      <trkpt lat="37.4201820" lon="-4.5652520">
        <ele>371.2</ele>
        <time>2021-12-29T09:19:15Z</time>
      </trkpt>
      <trkpt lat="37.4201310" lon="-4.5652800">
        <ele>371.2</ele>
        <time>2021-12-29T09:19:16Z</time>
      </trkpt>
      <trkpt lat="37.4200860" lon="-4.5653120">
        <ele>371.0</ele>
        <time>2021-12-29T09:19:17Z</time>
      </trkpt>
      <trkpt lat="37.4200350" lon="-4.5653400">
        <ele>371.0</ele>
        <time>2021-12-29T09:19:18Z</time>
      </trkpt>
      <trkpt lat="37.4199870" lon="-4.5653700">
        <ele>371.0</ele>
        <time>2021-12-29T09:19:19Z</time>
      </trkpt>
      <trkpt lat="37.4199360" lon="-4.5654020">
        <ele>370.8</ele>
        <time>2021-12-29T09:19:20Z</time>
      </trkpt>
      <trkpt lat="37.4198910" lon="-4.5654350">
        <ele>370.8</ele>
        <time>2021-12-29T09:19:21Z</time>
      </trkpt>
      <trkpt lat="37.4198430" lon="-4.5654650">
        <ele>370.8</ele>
        <time>2021-12-29T09:19:22Z</time>
      </trkpt>
      <trkpt lat="37.4197920" lon="-4.5654950">
        <ele>370.6</ele>
        <time>2021-12-29T09:19:23Z</time>
      </trkpt>
      <trkpt lat="37.4197470" lon="-4.5655260">
        <ele>370.6</ele>
        <time>2021-12-29T09:19:24Z</time>
      </trkpt>
      <trkpt lat="37.4196960" lon="-4.5655600">
        <ele>370.6</ele>
        <time>2021-12-29T09:19:25Z</time>
      </trkpt>
      <trkpt lat="37.4196540" lon="-4.5655880">
        <ele>370.4</ele>
        <time>2021-12-29T09:19:26Z</time>
      </trkpt>
      <trkpt lat="37.4195940" lon="-4.5656300">
        <ele>370.4</ele>
        <time>2021-12-29T09:19:27Z</time>
      </trkpt>
      <trkpt lat="37.4195460" lon="-4.5656630">
        <ele>370.2</ele>
        <time>2021-12-29T09:19:28Z</time>
      </trkpt>
      <trkpt lat="37.4194940" lon="-4.5656970">
        <ele>370.2</ele>
        <time>2021-12-29T09:19:29Z</time>
      </trkpt>
      <trkpt lat="37.4194460" lon="-4.5657300">
        <ele>370.2</ele>
        <time>2021-12-29T09:19:30Z</time>
      </trkpt>
      <trkpt lat="37.4193920" lon="-4.5657640">
        <ele>370.2</ele>
        <time>2021-12-29T09:19:31Z</time>
      </trkpt>
      <trkpt lat="37.4193380" lon="-4.5657980">
        <ele>370.0</ele>
        <time>2021-12-29T09:19:32Z</time>
      </trkpt>
      <trkpt lat="37.4192900" lon="-4.5658280">
        <ele>370.0</ele>
        <time>2021-12-29T09:19:33Z</time>
      </trkpt>
      <trkpt lat="37.4192420" lon="-4.5658600">
        <ele>370.0</ele>
        <time>2021-12-29T09:19:34Z</time>
      </trkpt>
      <trkpt lat="37.4191940" lon="-4.5658900">
        <ele>370.0</ele>
        <time>2021-12-29T09:19:35Z</time>
      </trkpt>
      <trkpt lat="37.4191490" lon="-4.5659200">
        <ele>369.8</ele>
        <time>2021-12-29T09:19:36Z</time>
      </trkpt>
      <trkpt lat="37.4191010" lon="-4.5659530">
        <ele>369.8</ele>
        <time>2021-12-29T09:19:37Z</time>
      </trkpt>
      <trkpt lat="37.4190530" lon="-4.5659870">
        <ele>369.8</ele>
        <time>2021-12-29T09:19:38Z</time>
      </trkpt>
      <trkpt lat="37.4190020" lon="-4.5660200">
        <ele>369.8</ele>
        <time>2021-12-29T09:19:39Z</time>
      </trkpt>
      <trkpt lat="37.4189540" lon="-4.5660550">
        <ele>369.6</ele>
        <time>2021-12-29T09:19:40Z</time>
      </trkpt>
      <trkpt lat="37.4189060" lon="-4.5660940">
        <ele>369.6</ele>
        <time>2021-12-29T09:19:41Z</time>
      </trkpt>
      <trkpt lat="37.4188640" lon="-4.5661280">
        <ele>369.4</ele>
        <time>2021-12-29T09:19:42Z</time>
      </trkpt>
      <trkpt lat="37.4188190" lon="-4.5661650">
        <ele>369.4</ele>
        <time>2021-12-29T09:19:43Z</time>
      </trkpt>
      <trkpt lat="37.4187740" lon="-4.5662000">
        <ele>369.4</ele>
        <time>2021-12-29T09:19:44Z</time>
      </trkpt>
      <trkpt lat="37.4187260" lon="-4.5662400">
        <ele>369.2</ele>
        <time>2021-12-29T09:19:45Z</time>
      </trkpt>
      <trkpt lat="37.4186820" lon="-4.5662780">
        <ele>369.0</ele>
        <time>2021-12-29T09:19:46Z</time>
      </trkpt>
      <trkpt lat="37.4186370" lon="-4.5663180">
        <ele>369.0</ele>
        <time>2021-12-29T09:19:47Z</time>
      </trkpt>
      <trkpt lat="37.4185920" lon="-4.5663630">
        <ele>368.8</ele>
        <time>2021-12-29T09:19:48Z</time>
      </trkpt>
      <trkpt lat="37.4185470" lon="-4.5664050">
        <ele>368.8</ele>
        <time>2021-12-29T09:19:49Z</time>
      </trkpt>
      <trkpt lat="37.4185020" lon="-4.5664520">
        <ele>368.6</ele>
        <time>2021-12-29T09:19:50Z</time>
      </trkpt>
      <trkpt lat="37.4184580" lon="-4.5664980">
        <ele>368.4</ele>
        <time>2021-12-29T09:19:51Z</time>
      </trkpt>
      <trkpt lat="37.4184160" lon="-4.5665440">
        <ele>368.2</ele>
        <time>2021-12-29T09:19:52Z</time>
      </trkpt>
      <trkpt lat="37.4183780" lon="-4.5665880">
        <ele>368.2</ele>
        <time>2021-12-29T09:19:53Z</time>
      </trkpt>
      <trkpt lat="37.4183390" lon="-4.5666350">
        <ele>368.0</ele>
        <time>2021-12-29T09:19:54Z</time>
      </trkpt>
      <trkpt lat="37.4182980" lon="-4.5666830">
        <ele>367.8</ele>
        <time>2021-12-29T09:19:55Z</time>
      </trkpt>
      <trkpt lat="37.4182620" lon="-4.5667320">
        <ele>367.6</ele>
        <time>2021-12-29T09:19:56Z</time>
      </trkpt>
      <trkpt lat="37.4182210" lon="-4.5667840">
        <ele>367.6</ele>
        <time>2021-12-29T09:19:57Z</time>
      </trkpt>
      <trkpt lat="37.4181820" lon="-4.5668350">
        <ele>367.4</ele>
        <time>2021-12-29T09:19:58Z</time>
      </trkpt>
      <trkpt lat="37.4181410" lon="-4.5668880">
        <ele>367.4</ele>
        <time>2021-12-29T09:19:59Z</time>
      </trkpt>
      <trkpt lat="37.4180830" lon="-4.5669700">
        <ele>367.4</ele>
        <time>2021-12-29T09:20:00Z</time>
      </trkpt>
      <trkpt lat="37.4180640" lon="-4.5669980">
        <ele>367.2</ele>
        <time>2021-12-29T09:20:01Z</time>
      </trkpt>
      <trkpt lat="37.4180260" lon="-4.5670520">
        <ele>367.0</ele>
        <time>2021-12-29T09:20:02Z</time>
      </trkpt>
      <trkpt lat="37.4179870" lon="-4.5671080">
        <ele>366.8</ele>
        <time>2021-12-29T09:20:03Z</time>
      </trkpt>
      <trkpt lat="37.4179490" lon="-4.5671640">
        <ele>366.8</ele>
        <time>2021-12-29T09:20:04Z</time>
      </trkpt>
      <trkpt lat="37.4179100" lon="-4.5672220">
        <ele>366.6</ele>
        <time>2021-12-29T09:20:05Z</time>
      </trkpt>
      <trkpt lat="37.4178780" lon="-4.5672820">
        <ele>366.6</ele>
        <time>2021-12-29T09:20:06Z</time>
      </trkpt>
      <trkpt lat="37.4178460" lon="-4.5673430">
        <ele>366.4</ele>
        <time>2021-12-29T09:20:07Z</time>
      </trkpt>
      <trkpt lat="37.4178110" lon="-4.5674050">
        <ele>366.4</ele>
        <time>2021-12-29T09:20:08Z</time>
      </trkpt>
      <trkpt lat="37.4177820" lon="-4.5674670">
        <ele>366.2</ele>
        <time>2021-12-29T09:20:09Z</time>
      </trkpt>
      <trkpt lat="37.4177500" lon="-4.5675280">
        <ele>366.2</ele>
        <time>2021-12-29T09:20:10Z</time>
      </trkpt>
      <trkpt lat="37.4177220" lon="-4.5675880">
        <ele>366.2</ele>
        <time>2021-12-29T09:20:11Z</time>
      </trkpt>
      <trkpt lat="37.4176930" lon="-4.5676480">
        <ele>366.0</ele>
        <time>2021-12-29T09:20:12Z</time>
      </trkpt>
      <trkpt lat="37.4176640" lon="-4.5677080">
        <ele>365.8</ele>
        <time>2021-12-29T09:20:13Z</time>
      </trkpt>
      <trkpt lat="37.4176380" lon="-4.5677680">
        <ele>365.8</ele>
        <time>2021-12-29T09:20:14Z</time>
      </trkpt>
      <trkpt lat="37.4176130" lon="-4.5678300">
        <ele>365.6</ele>
        <time>2021-12-29T09:20:15Z</time>
      </trkpt>
      <trkpt lat="37.4175870" lon="-4.5678940">
        <ele>365.6</ele>
        <time>2021-12-29T09:20:16Z</time>
      </trkpt>
      <trkpt lat="37.4175620" lon="-4.5679600">
        <ele>365.4</ele>
        <time>2021-12-29T09:20:17Z</time>
      </trkpt>
      <trkpt lat="37.4175390" lon="-4.5680260">
        <ele>365.2</ele>
        <time>2021-12-29T09:20:18Z</time>
      </trkpt>
      <trkpt lat="37.4175140" lon="-4.5680950">
        <ele>365.2</ele>
        <time>2021-12-29T09:20:19Z</time>
      </trkpt>
      <trkpt lat="37.4174910" lon="-4.5681630">
        <ele>365.0</ele>
        <time>2021-12-29T09:20:20Z</time>
      </trkpt>
      <trkpt lat="37.4174690" lon="-4.5682320">
        <ele>365.0</ele>
        <time>2021-12-29T09:20:21Z</time>
      </trkpt>
      <trkpt lat="37.4174460" lon="-4.5683020">
        <ele>364.8</ele>
        <time>2021-12-29T09:20:22Z</time>
      </trkpt>
      <trkpt lat="37.4174240" lon="-4.5683700">
        <ele>364.8</ele>
        <time>2021-12-29T09:20:23Z</time>
      </trkpt>
      <trkpt lat="37.4174050" lon="-4.5684380">
        <ele>364.6</ele>
        <time>2021-12-29T09:20:24Z</time>
      </trkpt>
      <trkpt lat="37.4173820" lon="-4.5685070">
        <ele>364.6</ele>
        <time>2021-12-29T09:20:25Z</time>
      </trkpt>
      <trkpt lat="37.4173630" lon="-4.5685750">
        <ele>364.6</ele>
        <time>2021-12-29T09:20:26Z</time>
      </trkpt>
      <trkpt lat="37.4173470" lon="-4.5686450">
        <ele>364.4</ele>
        <time>2021-12-29T09:20:27Z</time>
      </trkpt>
      <trkpt lat="37.4173310" lon="-4.5687150">
        <ele>364.2</ele>
        <time>2021-12-29T09:20:28Z</time>
      </trkpt>
      <trkpt lat="37.4173220" lon="-4.5687870">
        <ele>364.2</ele>
        <time>2021-12-29T09:20:29Z</time>
      </trkpt>
      <trkpt lat="37.4173020" lon="-4.5688580">
        <ele>364.0</ele>
        <time>2021-12-29T09:20:30Z</time>
      </trkpt>
      <trkpt lat="37.4172860" lon="-4.5689300">
        <ele>363.8</ele>
        <time>2021-12-29T09:20:31Z</time>
      </trkpt>
      <trkpt lat="37.4172740" lon="-4.5690020">
        <ele>363.8</ele>
        <time>2021-12-29T09:20:32Z</time>
      </trkpt>
      <trkpt lat="37.4172640" lon="-4.5690720">
        <ele>363.6</ele>
        <time>2021-12-29T09:20:33Z</time>
      </trkpt>
      <trkpt lat="37.4172510" lon="-4.5691420">
        <ele>363.4</ele>
        <time>2021-12-29T09:20:34Z</time>
      </trkpt>
      <trkpt lat="37.4172450" lon="-4.5692100">
        <ele>363.4</ele>
        <time>2021-12-29T09:20:35Z</time>
      </trkpt>
      <trkpt lat="37.4172320" lon="-4.5692780">
        <ele>363.2</ele>
        <time>2021-12-29T09:20:36Z</time>
      </trkpt>
      <trkpt lat="37.4172260" lon="-4.5693460">
        <ele>363.2</ele>
        <time>2021-12-29T09:20:37Z</time>
      </trkpt>
      <trkpt lat="37.4172220" lon="-4.5694130">
        <ele>363.0</ele>
        <time>2021-12-29T09:20:38Z</time>
      </trkpt>
      <trkpt lat="37.4172130" lon="-4.5694770">
        <ele>363.0</ele>
        <time>2021-12-29T09:20:39Z</time>
      </trkpt>
      <trkpt lat="37.4172100" lon="-4.5695450">
        <ele>362.8</ele>
        <time>2021-12-29T09:20:40Z</time>
      </trkpt>
      <trkpt lat="37.4172060" lon="-4.5696120">
        <ele>362.8</ele>
        <time>2021-12-29T09:20:41Z</time>
      </trkpt>
      <trkpt lat="37.4172030" lon="-4.5696760">
        <ele>362.8</ele>
        <time>2021-12-29T09:20:42Z</time>
      </trkpt>
      <trkpt lat="37.4171970" lon="-4.5697420">
        <ele>362.6</ele>
        <time>2021-12-29T09:20:43Z</time>
      </trkpt>
      <trkpt lat="37.4171970" lon="-4.5698060">
        <ele>362.6</ele>
        <time>2021-12-29T09:20:44Z</time>
      </trkpt>
      <trkpt lat="37.4171940" lon="-4.5698720">
        <ele>362.4</ele>
        <time>2021-12-29T09:20:45Z</time>
      </trkpt>
      <trkpt lat="37.4171940" lon="-4.5699400">
        <ele>362.4</ele>
        <time>2021-12-29T09:20:46Z</time>
      </trkpt>
      <trkpt lat="37.4171940" lon="-4.5700070">
        <ele>362.4</ele>
        <time>2021-12-29T09:20:47Z</time>
      </trkpt>
      <trkpt lat="37.4171940" lon="-4.5700730">
        <ele>362.4</ele>
        <time>2021-12-29T09:20:48Z</time>
      </trkpt>
      <trkpt lat="37.4171900" lon="-4.5701420">
        <ele>362.2</ele>
        <time>2021-12-29T09:20:49Z</time>
      </trkpt>
      <trkpt lat="37.4171870" lon="-4.5702120">
        <ele>362.2</ele>
        <time>2021-12-29T09:20:50Z</time>
      </trkpt>
      <trkpt lat="37.4171870" lon="-4.5702800">
        <ele>362.2</ele>
        <time>2021-12-29T09:20:51Z</time>
      </trkpt>
      <trkpt lat="37.4171870" lon="-4.5703350">
        <ele>362.2</ele>
        <time>2021-12-29T09:20:52Z</time>
      </trkpt>
      <trkpt lat="37.4171900" lon="-4.5704150">
        <ele>362.2</ele>
        <time>2021-12-29T09:20:53Z</time>
      </trkpt>
      <trkpt lat="37.4171900" lon="-4.5704780">
        <ele>362.2</ele>
        <time>2021-12-29T09:20:54Z</time>
      </trkpt>
      <trkpt lat="37.4171900" lon="-4.5705420">
        <ele>362.0</ele>
        <time>2021-12-29T09:20:55Z</time>
      </trkpt>
      <trkpt lat="37.4171870" lon="-4.5706070">
        <ele>362.0</ele>
        <time>2021-12-29T09:20:56Z</time>
      </trkpt>
      <trkpt lat="37.4171870" lon="-4.5706720">
        <ele>361.8</ele>
        <time>2021-12-29T09:20:57Z</time>
      </trkpt>
      <trkpt lat="37.4171870" lon="-4.5707330">
        <ele>361.8</ele>
        <time>2021-12-29T09:20:58Z</time>
      </trkpt>
      <trkpt lat="37.4171870" lon="-4.5707920">
        <ele>361.8</ele>
        <time>2021-12-29T09:20:59Z</time>
      </trkpt>
      <trkpt lat="37.4171870" lon="-4.5708460">
        <ele>361.8</ele>
        <time>2021-12-29T09:21:00Z</time>
      </trkpt>
      <trkpt lat="37.4171870" lon="-4.5708900">
        <ele>361.6</ele>
        <time>2021-12-29T09:21:01Z</time>
      </trkpt>
      <trkpt lat="37.4171870" lon="-4.5709530">
        <ele>361.6</ele>
        <time>2021-12-29T09:21:02Z</time>
      </trkpt>
      <trkpt lat="37.4171870" lon="-4.5710050">
        <ele>361.4</ele>
        <time>2021-12-29T09:21:03Z</time>
      </trkpt>
      <trkpt lat="37.4171870" lon="-4.5710540">
        <ele>361.2</ele>
        <time>2021-12-29T09:21:04Z</time>
      </trkpt>
      <trkpt lat="37.4171870" lon="-4.5710950">
        <ele>361.2</ele>
        <time>2021-12-29T09:21:05Z</time>
      </trkpt>
      <trkpt lat="37.4171870" lon="-4.5711330">
        <ele>361.0</ele>
        <time>2021-12-29T09:21:06Z</time>
      </trkpt>
      <trkpt lat="37.4171870" lon="-4.5711620">
        <ele>361.0</ele>
        <time>2021-12-29T09:21:07Z</time>
      </trkpt>
      <trkpt lat="37.4171870" lon="-4.5711620">
        <ele>361.0</ele>
        <time>2021-12-29T09:21:08Z</time>
      </trkpt>
      <trkpt lat="37.4171870" lon="-4.5711950">
        <ele>361.0</ele>
        <time>2021-12-29T09:21:09Z</time>
      </trkpt>
      <trkpt lat="37.4171870" lon="-4.5711950">
        <ele>360.8</ele>
        <time>2021-12-29T09:21:10Z</time>
      </trkpt>
      <trkpt lat="37.4171870" lon="-4.5711950">
        <ele>360.8</ele>
        <time>2021-12-29T09:21:11Z</time>
      </trkpt>
      <trkpt lat="37.4171900" lon="-4.5712180">
        <ele>360.6</ele>
        <time>2021-12-29T09:21:12Z</time>
      </trkpt>
      <trkpt lat="37.4171900" lon="-4.5712180">
        <ele>360.4</ele>
        <time>2021-12-29T09:21:13Z</time>
      </trkpt>
      <trkpt lat="37.4171900" lon="-4.5712560">
        <ele>360.4</ele>
        <time>2021-12-29T09:21:14Z</time>
      </trkpt>
      <trkpt lat="37.4171900" lon="-4.5712940">
        <ele>360.4</ele>
        <time>2021-12-29T09:21:15Z</time>
      </trkpt>
      <trkpt lat="37.4171900" lon="-4.5713310">
        <ele>360.4</ele>
        <time>2021-12-29T09:21:27Z</time>
      </trkpt>
      <trkpt lat="37.4171900" lon="-4.5713690">
        <ele>359.2</ele>
        <time>2021-12-29T09:21:28Z</time>
      </trkpt>
      <trkpt lat="37.4171900" lon="-4.5714070">
        <ele>359.0</ele>
        <time>2021-12-29T09:21:29Z</time>
      </trkpt>
      <trkpt lat="37.4171900" lon="-4.5714480">
        <ele>359.0</ele>
        <time>2021-12-29T09:21:30Z</time>
      </trkpt>
      <trkpt lat="37.4171940" lon="-4.5714920">
        <ele>359.0</ele>
        <time>2021-12-29T09:21:31Z</time>
      </trkpt>
      <trkpt lat="37.4171940" lon="-4.5715380">
        <ele>359.0</ele>
        <time>2021-12-29T09:21:32Z</time>
      </trkpt>
      <trkpt lat="37.4171940" lon="-4.5715870">
        <ele>359.0</ele>
        <time>2021-12-29T09:21:33Z</time>
      </trkpt>
      <trkpt lat="37.4171940" lon="-4.5716330">
        <ele>359.0</ele>
        <time>2021-12-29T09:21:34Z</time>
      </trkpt>
      <trkpt lat="37.4171940" lon="-4.5716730">
        <ele>359.0</ele>
        <time>2021-12-29T09:21:35Z</time>
      </trkpt>
      <trkpt lat="37.4171940" lon="-4.5717340">
        <ele>359.0</ele>
        <time>2021-12-29T09:21:36Z</time>
      </trkpt>
      <trkpt lat="37.4171940" lon="-4.5717850">
        <ele>358.8</ele>
        <time>2021-12-29T09:21:37Z</time>
      </trkpt>
      <trkpt lat="37.4171940" lon="-4.5718360">
        <ele>358.8</ele>
        <time>2021-12-29T09:21:38Z</time>
      </trkpt>
      <trkpt lat="37.4171940" lon="-4.5718880">
        <ele>358.8</ele>
        <time>2021-12-29T09:21:39Z</time>
      </trkpt>
      <trkpt lat="37.4171900" lon="-4.5719420">
        <ele>358.8</ele>
        <time>2021-12-29T09:21:40Z</time>
      </trkpt>
      <trkpt lat="37.4171870" lon="-4.5719950">
        <ele>358.8</ele>
        <time>2021-12-29T09:21:41Z</time>
      </trkpt>
      <trkpt lat="37.4171870" lon="-4.5720540">
        <ele>358.8</ele>
        <time>2021-12-29T09:21:42Z</time>
      </trkpt>
      <trkpt lat="37.4171780" lon="-4.5721100">
        <ele>359.0</ele>
        <time>2021-12-29T09:21:43Z</time>
      </trkpt>
      <trkpt lat="37.4171740" lon="-4.5721660">
        <ele>359.0</ele>
        <time>2021-12-29T09:21:44Z</time>
      </trkpt>
      <trkpt lat="37.4171710" lon="-4.5722230">
        <ele>359.0</ele>
        <time>2021-12-29T09:21:45Z</time>
      </trkpt>
      <trkpt lat="37.4171680" lon="-4.5722780">
        <ele>359.0</ele>
        <time>2021-12-29T09:21:46Z</time>
      </trkpt>
      <trkpt lat="37.4171650" lon="-4.5723350">
        <ele>359.0</ele>
        <time>2021-12-29T09:21:47Z</time>
      </trkpt>
      <trkpt lat="37.4171550" lon="-4.5723920">
        <ele>358.8</ele>
        <time>2021-12-29T09:21:48Z</time>
      </trkpt>
      <trkpt lat="37.4171490" lon="-4.5724480">
        <ele>358.8</ele>
        <time>2021-12-29T09:21:49Z</time>
      </trkpt>
      <trkpt lat="37.4171360" lon="-4.5725070">
        <ele>358.8</ele>
        <time>2021-12-29T09:21:50Z</time>
      </trkpt>
      <trkpt lat="37.4171300" lon="-4.5725660">
        <ele>358.8</ele>
        <time>2021-12-29T09:21:51Z</time>
      </trkpt>
      <trkpt lat="37.4171170" lon="-4.5726280">
        <ele>358.8</ele>
        <time>2021-12-29T09:21:52Z</time>
      </trkpt>
      <trkpt lat="37.4171070" lon="-4.5726930">
        <ele>358.6</ele>
        <time>2021-12-29T09:21:53Z</time>
      </trkpt>
      <trkpt lat="37.4170910" lon="-4.5727580">
        <ele>358.6</ele>
        <time>2021-12-29T09:21:54Z</time>
      </trkpt>
      <trkpt lat="37.4170780" lon="-4.5728280">
        <ele>358.4</ele>
        <time>2021-12-29T09:21:55Z</time>
      </trkpt>
      <trkpt lat="37.4170690" lon="-4.5728980">
        <ele>358.4</ele>
        <time>2021-12-29T09:21:56Z</time>
      </trkpt>
      <trkpt lat="37.4170530" lon="-4.5729650">
        <ele>358.2</ele>
        <time>2021-12-29T09:21:57Z</time>
      </trkpt>
      <trkpt lat="37.4170370" lon="-4.5730330">
        <ele>358.2</ele>
        <time>2021-12-29T09:21:58Z</time>
      </trkpt>
      <trkpt lat="37.4170180" lon="-4.5730970">
        <ele>358.0</ele>
        <time>2021-12-29T09:21:59Z</time>
      </trkpt>
      <trkpt lat="37.4170050" lon="-4.5731650">
        <ele>358.0</ele>
        <time>2021-12-29T09:22:00Z</time>
      </trkpt>
      <trkpt lat="37.4169860" lon="-4.5732300">
        <ele>357.8</ele>
        <time>2021-12-29T09:22:01Z</time>
      </trkpt>
      <trkpt lat="37.4169660" lon="-4.5732960">
        <ele>357.6</ele>
        <time>2021-12-29T09:22:02Z</time>
      </trkpt>
      <trkpt lat="37.4169470" lon="-4.5733600">
        <ele>357.4</ele>
        <time>2021-12-29T09:22:03Z</time>
      </trkpt>
      <trkpt lat="37.4169280" lon="-4.5734230">
        <ele>357.4</ele>
        <time>2021-12-29T09:22:04Z</time>
      </trkpt>
      <trkpt lat="37.4169090" lon="-4.5734870">
        <ele>357.2</ele>
        <time>2021-12-29T09:22:05Z</time>
      </trkpt>
      <trkpt lat="37.4168860" lon="-4.5735480">
        <ele>357.0</ele>
        <time>2021-12-29T09:22:06Z</time>
      </trkpt>
      <trkpt lat="37.4168580" lon="-4.5736080">
        <ele>357.0</ele>
        <time>2021-12-29T09:22:07Z</time>
      </trkpt>
      <trkpt lat="37.4168380" lon="-4.5736700">
        <ele>357.0</ele>
        <time>2021-12-29T09:22:08Z</time>
      </trkpt>
      <trkpt lat="37.4168160" lon="-4.5737300">
        <ele>356.8</ele>
        <time>2021-12-29T09:22:09Z</time>
      </trkpt>
      <trkpt lat="37.4167900" lon="-4.5737900">
        <ele>356.8</ele>
        <time>2021-12-29T09:22:10Z</time>
      </trkpt>
      <trkpt lat="37.4167680" lon="-4.5738540">
        <ele>356.6</ele>
        <time>2021-12-29T09:22:11Z</time>
      </trkpt>
      <trkpt lat="37.4167460" lon="-4.5739180">
        <ele>356.4</ele>
        <time>2021-12-29T09:22:12Z</time>
      </trkpt>
      <trkpt lat="37.4167170" lon="-4.5739820">
        <ele>356.4</ele>
        <time>2021-12-29T09:22:13Z</time>
      </trkpt>
      <trkpt lat="37.4166910" lon="-4.5740430">
        <ele>356.2</ele>
        <time>2021-12-29T09:22:14Z</time>
      </trkpt>
      <trkpt lat="37.4166690" lon="-4.5741030">
        <ele>356.2</ele>
        <time>2021-12-29T09:22:15Z</time>
      </trkpt>
      <trkpt lat="37.4166400" lon="-4.5741640">
        <ele>356.0</ele>
        <time>2021-12-29T09:22:16Z</time>
      </trkpt>
      <trkpt lat="37.4166180" lon="-4.5742200">
        <ele>356.0</ele>
        <time>2021-12-29T09:22:17Z</time>
      </trkpt>
      <trkpt lat="37.4165950" lon="-4.5742800">
        <ele>355.8</ele>
        <time>2021-12-29T09:22:18Z</time>
      </trkpt>
      <trkpt lat="37.4165700" lon="-4.5743360">
        <ele>355.6</ele>
        <time>2021-12-29T09:22:19Z</time>
      </trkpt>
      <trkpt lat="37.4165410" lon="-4.5743950">
        <ele>355.4</ele>
        <time>2021-12-29T09:22:20Z</time>
      </trkpt>
      <trkpt lat="37.4165180" lon="-4.5744530">
        <ele>355.4</ele>
        <time>2021-12-29T09:22:21Z</time>
      </trkpt>
      <trkpt lat="37.4164930" lon="-4.5745120">
        <ele>355.4</ele>
        <time>2021-12-29T09:22:22Z</time>
      </trkpt>
      <trkpt lat="37.4164740" lon="-4.5745720">
        <ele>355.4</ele>
        <time>2021-12-29T09:22:23Z</time>
      </trkpt>
      <trkpt lat="37.4164480" lon="-4.5746270">
        <ele>355.2</ele>
        <time>2021-12-29T09:22:24Z</time>
      </trkpt>
      <trkpt lat="37.4164290" lon="-4.5746830">
        <ele>355.2</ele>
        <time>2021-12-29T09:22:25Z</time>
      </trkpt>
      <trkpt lat="37.4164030" lon="-4.5747430">
        <ele>355.2</ele>
        <time>2021-12-29T09:22:26Z</time>
      </trkpt>
      <trkpt lat="37.4163810" lon="-4.5748030">
        <ele>355.0</ele>
        <time>2021-12-29T09:22:27Z</time>
      </trkpt>
      <trkpt lat="37.4163580" lon="-4.5748640">
        <ele>355.0</ele>
        <time>2021-12-29T09:22:28Z</time>
      </trkpt>
      <trkpt lat="37.4163360" lon="-4.5749240">
        <ele>355.0</ele>
        <time>2021-12-29T09:22:29Z</time>
      </trkpt>
      <trkpt lat="37.4163140" lon="-4.5749820">
        <ele>355.0</ele>
        <time>2021-12-29T09:22:30Z</time>
      </trkpt>
      <trkpt lat="37.4162880" lon="-4.5750420">
        <ele>355.0</ele>
        <time>2021-12-29T09:22:31Z</time>
      </trkpt>
      <trkpt lat="37.4162690" lon="-4.5751020">
        <ele>355.0</ele>
        <time>2021-12-29T09:22:32Z</time>
      </trkpt>
      <trkpt lat="37.4162400" lon="-4.5751620">
        <ele>355.0</ele>
        <time>2021-12-29T09:22:33Z</time>
      </trkpt>
      <trkpt lat="37.4162180" lon="-4.5752240">
        <ele>354.8</ele>
        <time>2021-12-29T09:22:34Z</time>
      </trkpt>
      <trkpt lat="37.4161950" lon="-4.5752850">
        <ele>354.8</ele>
        <time>2021-12-29T09:22:35Z</time>
      </trkpt>
      <trkpt lat="37.4161700" lon="-4.5753500">
        <ele>354.8</ele>
        <time>2021-12-29T09:22:36Z</time>
      </trkpt>
      <trkpt lat="37.4161410" lon="-4.5754130">
        <ele>354.6</ele>
        <time>2021-12-29T09:22:37Z</time>
      </trkpt>
      <trkpt lat="37.4161150" lon="-4.5754750">
        <ele>354.6</ele>
        <time>2021-12-29T09:22:38Z</time>
      </trkpt>
      <trkpt lat="37.4160930" lon="-4.5755380">
        <ele>354.6</ele>
        <time>2021-12-29T09:22:39Z</time>
      </trkpt>
      <trkpt lat="37.4160640" lon="-4.5755980">
        <ele>354.6</ele>
        <time>2021-12-29T09:22:40Z</time>
      </trkpt>
      <trkpt lat="37.4160420" lon="-4.5756600">
        <ele>354.6</ele>
        <time>2021-12-29T09:22:41Z</time>
      </trkpt>
      <trkpt lat="37.4160190" lon="-4.5757180">
        <ele>354.6</ele>
        <time>2021-12-29T09:22:42Z</time>
      </trkpt>
      <trkpt lat="37.4159970" lon="-4.5757800">
        <ele>354.4</ele>
        <time>2021-12-29T09:22:43Z</time>
      </trkpt>
      <trkpt lat="37.4159710" lon="-4.5758380">
        <ele>354.4</ele>
        <time>2021-12-29T09:22:44Z</time>
      </trkpt>
      <trkpt lat="37.4159420" lon="-4.5758970">
        <ele>354.4</ele>
        <time>2021-12-29T09:22:45Z</time>
      </trkpt>
      <trkpt lat="37.4159200" lon="-4.5759550">
        <ele>354.2</ele>
        <time>2021-12-29T09:22:46Z</time>
      </trkpt>
      <trkpt lat="37.4158980" lon="-4.5760160">
        <ele>354.2</ele>
        <time>2021-12-29T09:22:47Z</time>
      </trkpt>
      <trkpt lat="37.4158750" lon="-4.5760780">
        <ele>354.2</ele>
        <time>2021-12-29T09:22:48Z</time>
      </trkpt>
      <trkpt lat="37.4158530" lon="-4.5761360">
        <ele>354.0</ele>
        <time>2021-12-29T09:22:49Z</time>
      </trkpt>
      <trkpt lat="37.4158240" lon="-4.5761970">
        <ele>354.0</ele>
        <time>2021-12-29T09:22:50Z</time>
      </trkpt>
      <trkpt lat="37.4158020" lon="-4.5762570">
        <ele>354.0</ele>
        <time>2021-12-29T09:22:51Z</time>
      </trkpt>
      <trkpt lat="37.4157790" lon="-4.5763180">
        <ele>353.8</ele>
        <time>2021-12-29T09:22:52Z</time>
      </trkpt>
      <trkpt lat="37.4157540" lon="-4.5763800">
        <ele>353.8</ele>
        <time>2021-12-29T09:22:53Z</time>
      </trkpt>
      <trkpt lat="37.4157250" lon="-4.5764380">
        <ele>353.8</ele>
        <time>2021-12-29T09:22:54Z</time>
      </trkpt>
      <trkpt lat="37.4157020" lon="-4.5764980">
        <ele>353.6</ele>
        <time>2021-12-29T09:22:55Z</time>
      </trkpt>
      <trkpt lat="37.4156800" lon="-4.5765570">
        <ele>353.6</ele>
        <time>2021-12-29T09:22:56Z</time>
      </trkpt>
      <trkpt lat="37.4156540" lon="-4.5766150">
        <ele>353.6</ele>
        <time>2021-12-29T09:22:57Z</time>
      </trkpt>
      <trkpt lat="37.4156260" lon="-4.5766740">
        <ele>353.6</ele>
        <time>2021-12-29T09:22:58Z</time>
      </trkpt>
      <trkpt lat="37.4156030" lon="-4.5767340">
        <ele>353.4</ele>
        <time>2021-12-29T09:22:59Z</time>
      </trkpt>
      <trkpt lat="37.4155780" lon="-4.5767930">
        <ele>353.4</ele>
        <time>2021-12-29T09:23:00Z</time>
      </trkpt>
      <trkpt lat="37.4155550" lon="-4.5768550">
        <ele>353.2</ele>
        <time>2021-12-29T09:23:01Z</time>
      </trkpt>
      <trkpt lat="37.4155260" lon="-4.5769170">
        <ele>353.0</ele>
        <time>2021-12-29T09:23:02Z</time>
      </trkpt>
      <trkpt lat="37.4155040" lon="-4.5769770">
        <ele>352.8</ele>
        <time>2021-12-29T09:23:03Z</time>
      </trkpt>
      <trkpt lat="37.4154780" lon="-4.5770380">
        <ele>352.8</ele>
        <time>2021-12-29T09:23:04Z</time>
      </trkpt>
      <trkpt lat="37.4154500" lon="-4.5771020">
        <ele>352.8</ele>
        <time>2021-12-29T09:23:05Z</time>
      </trkpt>
      <trkpt lat="37.4154240" lon="-4.5771650">
        <ele>352.6</ele>
        <time>2021-12-29T09:23:06Z</time>
      </trkpt>
      <trkpt lat="37.4154020" lon="-4.5772280">
        <ele>352.6</ele>
        <time>2021-12-29T09:23:07Z</time>
      </trkpt>
      <trkpt lat="37.4153760" lon="-4.5772920">
        <ele>352.6</ele>
        <time>2021-12-29T09:23:08Z</time>
      </trkpt>
      <trkpt lat="37.4153500" lon="-4.5773570">
        <ele>352.4</ele>
        <time>2021-12-29T09:23:09Z</time>
      </trkpt>
      <trkpt lat="37.4153250" lon="-4.5774200">
        <ele>352.4</ele>
        <time>2021-12-29T09:23:10Z</time>
      </trkpt>
      <trkpt lat="37.4152960" lon="-4.5774850">
        <ele>352.4</ele>
        <time>2021-12-29T09:23:11Z</time>
      </trkpt>
      <trkpt lat="37.4152700" lon="-4.5775480">
        <ele>352.6</ele>
        <time>2021-12-29T09:23:12Z</time>
      </trkpt>
      <trkpt lat="37.4152450" lon="-4.5776150">
        <ele>352.6</ele>
        <time>2021-12-29T09:23:13Z</time>
      </trkpt>
      <trkpt lat="37.4152190" lon="-4.5776800">
        <ele>352.6</ele>
        <time>2021-12-29T09:23:14Z</time>
      </trkpt>
      <trkpt lat="37.4151900" lon="-4.5777480">
        <ele>352.6</ele>
        <time>2021-12-29T09:23:15Z</time>
      </trkpt>
      <trkpt lat="37.4151650" lon="-4.5778150">
        <ele>352.6</ele>
        <time>2021-12-29T09:23:16Z</time>
      </trkpt>
      <trkpt lat="37.4151390" lon="-4.5778780">
        <ele>352.6</ele>
        <time>2021-12-29T09:23:17Z</time>
      </trkpt>
      <trkpt lat="37.4151100" lon="-4.5779430">
        <ele>352.6</ele>
        <time>2021-12-29T09:23:18Z</time>
      </trkpt>
      <trkpt lat="37.4150880" lon="-4.5780050">
        <ele>352.6</ele>
        <time>2021-12-29T09:23:19Z</time>
      </trkpt>
      <trkpt lat="37.4150660" lon="-4.5780700">
        <ele>352.6</ele>
        <time>2021-12-29T09:23:20Z</time>
      </trkpt>
      <trkpt lat="37.4150400" lon="-4.5781320">
        <ele>352.6</ele>
        <time>2021-12-29T09:23:21Z</time>
      </trkpt>
      <trkpt lat="37.4150180" lon="-4.5781930">
        <ele>352.4</ele>
        <time>2021-12-29T09:23:22Z</time>
      </trkpt>
      <trkpt lat="37.4149890" lon="-4.5782530">
        <ele>352.4</ele>
        <time>2021-12-29T09:23:23Z</time>
      </trkpt>
      <trkpt lat="37.4149630" lon="-4.5783120">
        <ele>352.2</ele>
        <time>2021-12-29T09:23:24Z</time>
      </trkpt>
      <trkpt lat="37.4149380" lon="-4.5783740">
        <ele>352.2</ele>
        <time>2021-12-29T09:23:25Z</time>
      </trkpt>
      <trkpt lat="37.4149120" lon="-4.5784370">
        <ele>352.2</ele>
        <time>2021-12-29T09:23:26Z</time>
      </trkpt>
      <trkpt lat="37.4148860" lon="-4.5785000">
        <ele>352.0</ele>
        <time>2021-12-29T09:23:27Z</time>
      </trkpt>
      <trkpt lat="37.4148640" lon="-4.5785650">
        <ele>352.0</ele>
        <time>2021-12-29T09:23:28Z</time>
      </trkpt>
      <trkpt lat="37.4148380" lon="-4.5786280">
        <ele>352.0</ele>
        <time>2021-12-29T09:23:29Z</time>
      </trkpt>
      <trkpt lat="37.4148100" lon="-4.5786900">
        <ele>351.8</ele>
        <time>2021-12-29T09:23:30Z</time>
      </trkpt>
      <trkpt lat="37.4147840" lon="-4.5787550">
        <ele>351.6</ele>
        <time>2021-12-29T09:23:31Z</time>
      </trkpt>
      <trkpt lat="37.4147550" lon="-4.5788180">
        <ele>351.6</ele>
        <time>2021-12-29T09:23:32Z</time>
      </trkpt>
      <trkpt lat="37.4147300" lon="-4.5788850">
        <ele>351.4</ele>
        <time>2021-12-29T09:23:33Z</time>
      </trkpt>
      <trkpt lat="37.4147040" lon="-4.5789480">
        <ele>351.4</ele>
        <time>2021-12-29T09:23:34Z</time>
      </trkpt>
      <trkpt lat="37.4146750" lon="-4.5790150">
        <ele>351.4</ele>
        <time>2021-12-29T09:23:35Z</time>
      </trkpt>
      <trkpt lat="37.4146500" lon="-4.5790820">
        <ele>351.2</ele>
        <time>2021-12-29T09:23:36Z</time>
      </trkpt>
      <trkpt lat="37.4146270" lon="-4.5791470">
        <ele>351.0</ele>
        <time>2021-12-29T09:23:37Z</time>
      </trkpt>
      <trkpt lat="37.4146020" lon="-4.5792120">
        <ele>350.8</ele>
        <time>2021-12-29T09:23:38Z</time>
      </trkpt>
      <trkpt lat="37.4145730" lon="-4.5792780">
        <ele>350.8</ele>
        <time>2021-12-29T09:23:39Z</time>
      </trkpt>
      <trkpt lat="37.4145470" lon="-4.5793430">
        <ele>350.6</ele>
        <time>2021-12-29T09:23:40Z</time>
      </trkpt>
      <trkpt lat="37.4145220" lon="-4.5794070">
        <ele>350.4</ele>
        <time>2021-12-29T09:23:41Z</time>
      </trkpt>
      <trkpt lat="37.4144960" lon="-4.5794680">
        <ele>350.4</ele>
        <time>2021-12-29T09:23:42Z</time>
      </trkpt>
      <trkpt lat="37.4144700" lon="-4.5795280">
        <ele>350.4</ele>
        <time>2021-12-29T09:23:43Z</time>
      </trkpt>
      <trkpt lat="37.4144450" lon="-4.5795900">
        <ele>350.2</ele>
        <time>2021-12-29T09:23:44Z</time>
      </trkpt>
      <trkpt lat="37.4144220" lon="-4.5796520">
        <ele>350.2</ele>
        <time>2021-12-29T09:23:45Z</time>
      </trkpt>
      <trkpt lat="37.4143970" lon="-4.5797120">
        <ele>350.2</ele>
        <time>2021-12-29T09:23:46Z</time>
      </trkpt>
      <trkpt lat="37.4143710" lon="-4.5797740">
        <ele>350.2</ele>
        <time>2021-12-29T09:23:47Z</time>
      </trkpt>
      <trkpt lat="37.4143490" lon="-4.5798340">
        <ele>350.2</ele>
        <time>2021-12-29T09:23:48Z</time>
      </trkpt>
      <trkpt lat="37.4143260" lon="-4.5798950">
        <ele>350.0</ele>
        <time>2021-12-29T09:23:49Z</time>
      </trkpt>
      <trkpt lat="37.4143040" lon="-4.5799550">
        <ele>349.8</ele>
        <time>2021-12-29T09:23:50Z</time>
      </trkpt>
      <trkpt lat="37.4142750" lon="-4.5800170">
        <ele>349.6</ele>
        <time>2021-12-29T09:23:51Z</time>
      </trkpt>
      <trkpt lat="37.4142530" lon="-4.5800780">
        <ele>349.6</ele>
        <time>2021-12-29T09:23:52Z</time>
      </trkpt>
      <trkpt lat="37.4142270" lon="-4.5801380">
        <ele>349.4</ele>
        <time>2021-12-29T09:23:53Z</time>
      </trkpt>
      <trkpt lat="37.4142050" lon="-4.5801980">
        <ele>349.2</ele>
        <time>2021-12-29T09:23:54Z</time>
      </trkpt>
      <trkpt lat="37.4141790" lon="-4.5802600">
        <ele>349.2</ele>
        <time>2021-12-29T09:23:55Z</time>
      </trkpt>
      <trkpt lat="37.4141540" lon="-4.5803180">
        <ele>349.0</ele>
        <time>2021-12-29T09:23:56Z</time>
      </trkpt>
      <trkpt lat="37.4141310" lon="-4.5803800">
        <ele>349.0</ele>
        <time>2021-12-29T09:23:57Z</time>
      </trkpt>
      <trkpt lat="37.4141090" lon="-4.5804380">
        <ele>348.8</ele>
        <time>2021-12-29T09:23:58Z</time>
      </trkpt>
      <trkpt lat="37.4140900" lon="-4.5804970">
        <ele>348.6</ele>
        <time>2021-12-29T09:23:59Z</time>
      </trkpt>
      <trkpt lat="37.4140670" lon="-4.5805540">
        <ele>348.4</ele>
        <time>2021-12-29T09:24:00Z</time>
      </trkpt>
      <trkpt lat="37.4140450" lon="-4.5806050">
        <ele>348.4</ele>
        <time>2021-12-29T09:24:01Z</time>
      </trkpt>
      <trkpt lat="37.4140290" lon="-4.5806530">
        <ele>348.2</ele>
        <time>2021-12-29T09:24:02Z</time>
      </trkpt>
      <trkpt lat="37.4140130" lon="-4.5806920">
        <ele>348.0</ele>
        <time>2021-12-29T09:24:03Z</time>
      </trkpt>
      <trkpt lat="37.4140000" lon="-4.5807200">
        <ele>348.0</ele>
        <time>2021-12-29T09:24:04Z</time>
      </trkpt>
      <trkpt lat="37.4140000" lon="-4.5807200">
        <ele>347.8</ele>
        <time>2021-12-29T09:24:05Z</time>
      </trkpt>
      <trkpt lat="37.4139900" lon="-4.5807480">
        <ele>347.8</ele>
        <time>2021-12-29T09:24:06Z</time>
      </trkpt>
      <trkpt lat="37.4139900" lon="-4.5807480">
        <ele>347.8</ele>
        <time>2021-12-29T09:24:07Z</time>
      </trkpt>
      <trkpt lat="37.4139810" lon="-4.5807680">
        <ele>347.6</ele>
        <time>2021-12-29T09:24:08Z</time>
      </trkpt>
      <trkpt lat="37.4139810" lon="-4.5807680">
        <ele>347.6</ele>
        <time>2021-12-29T09:24:09Z</time>
      </trkpt>
      <trkpt lat="37.4139710" lon="-4.5807930">
        <ele>347.4</ele>
        <time>2021-12-29T09:24:10Z</time>
      </trkpt>
      <trkpt lat="37.4139710" lon="-4.5807930">
        <ele>347.4</ele>
        <time>2021-12-29T09:24:11Z</time>
      </trkpt>
      <trkpt lat="37.4139520" lon="-4.5808250">
        <ele>347.2</ele>
        <time>2021-12-29T09:24:12Z</time>
      </trkpt>
      <trkpt lat="37.4139460" lon="-4.5808480">
        <ele>347.2</ele>
        <time>2021-12-29T09:24:13Z</time>
      </trkpt>
      <trkpt lat="37.4139330" lon="-4.5808680">
        <ele>347.0</ele>
        <time>2021-12-29T09:24:14Z</time>
      </trkpt>
      <trkpt lat="37.4139170" lon="-4.5809050">
        <ele>347.0</ele>
        <time>2021-12-29T09:24:15Z</time>
      </trkpt>
      <trkpt lat="37.4139010" lon="-4.5809430">
        <ele>346.8</ele>
        <time>2021-12-29T09:24:16Z</time>
      </trkpt>
      <trkpt lat="37.4138910" lon="-4.5809850">
        <ele>346.8</ele>
        <time>2021-12-29T09:24:17Z</time>
      </trkpt>
      <trkpt lat="37.4138750" lon="-4.5810280">
        <ele>346.6</ele>
        <time>2021-12-29T09:24:18Z</time>
      </trkpt>
      <trkpt lat="37.4138560" lon="-4.5810630">
        <ele>346.6</ele>
        <time>2021-12-29T09:24:19Z</time>
      </trkpt>
      <trkpt lat="37.4138340" lon="-4.5811180">
        <ele>346.4</ele>
        <time>2021-12-29T09:24:20Z</time>
      </trkpt>
      <trkpt lat="37.4138110" lon="-4.5811650">
        <ele>346.2</ele>
        <time>2021-12-29T09:24:21Z</time>
      </trkpt>
      <trkpt lat="37.4137890" lon="-4.5812140">
        <ele>346.2</ele>
        <time>2021-12-29T09:24:22Z</time>
      </trkpt>
      <trkpt lat="37.4137700" lon="-4.5812550">
        <ele>346.0</ele>
        <time>2021-12-29T09:24:23Z</time>
      </trkpt>
      <trkpt lat="37.4137410" lon="-4.5813200">
        <ele>345.8</ele>
        <time>2021-12-29T09:24:24Z</time>
      </trkpt>
      <trkpt lat="37.4137220" lon="-4.5813760">
        <ele>345.8</ele>
        <time>2021-12-29T09:24:25Z</time>
      </trkpt>
      <trkpt lat="37.4137020" lon="-4.5814220">
        <ele>345.6</ele>
        <time>2021-12-29T09:24:26Z</time>
      </trkpt>
      <trkpt lat="37.4136770" lon="-4.5814900">
        <ele>345.6</ele>
        <time>2021-12-29T09:24:27Z</time>
      </trkpt>
      <trkpt lat="37.4136580" lon="-4.5815450">
        <ele>345.4</ele>
        <time>2021-12-29T09:24:28Z</time>
      </trkpt>
      <trkpt lat="37.4136350" lon="-4.5816000">
        <ele>345.4</ele>
        <time>2021-12-29T09:24:29Z</time>
      </trkpt>
      <trkpt lat="37.4136160" lon="-4.5816540">
        <ele>345.4</ele>
        <time>2021-12-29T09:24:30Z</time>
      </trkpt>
      <trkpt lat="37.4135940" lon="-4.5817080">
        <ele>345.4</ele>
        <time>2021-12-29T09:24:31Z</time>
      </trkpt>
      <trkpt lat="37.4135740" lon="-4.5817630">
        <ele>345.4</ele>
        <time>2021-12-29T09:24:32Z</time>
      </trkpt>
      <trkpt lat="37.4135580" lon="-4.5818200">
        <ele>345.4</ele>
        <time>2021-12-29T09:24:33Z</time>
      </trkpt>
      <trkpt lat="37.4135390" lon="-4.5818750">
        <ele>345.2</ele>
        <time>2021-12-29T09:24:34Z</time>
      </trkpt>
      <trkpt lat="37.4135230" lon="-4.5819340">
        <ele>345.2</ele>
        <time>2021-12-29T09:24:35Z</time>
      </trkpt>
      <trkpt lat="37.4135040" lon="-4.5819930">
        <ele>345.0</ele>
        <time>2021-12-29T09:24:36Z</time>
      </trkpt>
      <trkpt lat="37.4134910" lon="-4.5820550">
        <ele>345.0</ele>
        <time>2021-12-29T09:24:37Z</time>
      </trkpt>
      <trkpt lat="37.4134750" lon="-4.5821170">
        <ele>344.8</ele>
        <time>2021-12-29T09:24:38Z</time>
      </trkpt>
      <trkpt lat="37.4134560" lon="-4.5821780">
        <ele>344.8</ele>
        <time>2021-12-29T09:24:39Z</time>
      </trkpt>
      <trkpt lat="37.4134400" lon="-4.5822400">
        <ele>344.8</ele>
        <time>2021-12-29T09:24:40Z</time>
      </trkpt>
      <trkpt lat="37.4134300" lon="-4.5823000">
        <ele>344.8</ele>
        <time>2021-12-29T09:24:41Z</time>
      </trkpt>
      <trkpt lat="37.4134140" lon="-4.5823620">
        <ele>344.8</ele>
        <time>2021-12-29T09:24:42Z</time>
      </trkpt>
      <trkpt lat="37.4134020" lon="-4.5824230">
        <ele>344.6</ele>
        <time>2021-12-29T09:24:43Z</time>
      </trkpt>
      <trkpt lat="37.4133950" lon="-4.5824870">
        <ele>344.6</ele>
        <time>2021-12-29T09:24:44Z</time>
      </trkpt>
      <trkpt lat="37.4133820" lon="-4.5825480">
        <ele>344.6</ele>
        <time>2021-12-29T09:24:45Z</time>
      </trkpt>
      <trkpt lat="37.4133730" lon="-4.5826100">
        <ele>344.6</ele>
        <time>2021-12-29T09:24:46Z</time>
      </trkpt>
      <trkpt lat="37.4133630" lon="-4.5826730">
        <ele>344.4</ele>
        <time>2021-12-29T09:24:47Z</time>
      </trkpt>
      <trkpt lat="37.4133540" lon="-4.5827360">
        <ele>344.4</ele>
        <time>2021-12-29T09:24:48Z</time>
      </trkpt>
      <trkpt lat="37.4133440" lon="-4.5827980">
        <ele>344.4</ele>
        <time>2021-12-29T09:24:49Z</time>
      </trkpt>
      <trkpt lat="37.4133380" lon="-4.5828620">
        <ele>344.2</ele>
        <time>2021-12-29T09:24:50Z</time>
      </trkpt>
      <trkpt lat="37.4133310" lon="-4.5829250">
        <ele>344.2</ele>
        <time>2021-12-29T09:24:51Z</time>
      </trkpt>
      <trkpt lat="37.4133220" lon="-4.5829900">
        <ele>344.2</ele>
        <time>2021-12-29T09:24:52Z</time>
      </trkpt>
      <trkpt lat="37.4133150" lon="-4.5830550">
        <ele>344.2</ele>
        <time>2021-12-29T09:24:53Z</time>
      </trkpt>
      <trkpt lat="37.4133120" lon="-4.5831200">
        <ele>344.2</ele>
        <time>2021-12-29T09:24:54Z</time>
      </trkpt>
      <trkpt lat="37.4133020" lon="-4.5831830">
        <ele>344.2</ele>
        <time>2021-12-29T09:24:55Z</time>
      </trkpt>
      <trkpt lat="37.4133020" lon="-4.5832500">
        <ele>344.0</ele>
        <time>2021-12-29T09:24:56Z</time>
      </trkpt>
      <trkpt lat="37.4132990" lon="-4.5833170">
        <ele>344.0</ele>
        <time>2021-12-29T09:24:57Z</time>
      </trkpt>
      <trkpt lat="37.4132960" lon="-4.5833840">
        <ele>344.0</ele>
        <time>2021-12-29T09:24:58Z</time>
      </trkpt>
      <trkpt lat="37.4132930" lon="-4.5834520">
        <ele>344.0</ele>
        <time>2021-12-29T09:24:59Z</time>
      </trkpt>
      <trkpt lat="37.4132930" lon="-4.5835220">
        <ele>343.8</ele>
        <time>2021-12-29T09:25:00Z</time>
      </trkpt>
      <trkpt lat="37.4132930" lon="-4.5835920">
        <ele>343.8</ele>
        <time>2021-12-29T09:25:01Z</time>
      </trkpt>
      <trkpt lat="37.4132930" lon="-4.5836640">
        <ele>343.6</ele>
        <time>2021-12-29T09:25:02Z</time>
      </trkpt>
      <trkpt lat="37.4132990" lon="-4.5837360">
        <ele>343.6</ele>
        <time>2021-12-29T09:25:03Z</time>
      </trkpt>
      <trkpt lat="37.4133020" lon="-4.5838100">
        <ele>343.6</ele>
        <time>2021-12-29T09:25:04Z</time>
      </trkpt>
      <trkpt lat="37.4133060" lon="-4.5838820">
        <ele>343.4</ele>
        <time>2021-12-29T09:25:05Z</time>
      </trkpt>
      <trkpt lat="37.4133120" lon="-4.5839520">
        <ele>343.4</ele>
        <time>2021-12-29T09:25:06Z</time>
      </trkpt>
      <trkpt lat="37.4133150" lon="-4.5840200">
        <ele>343.2</ele>
        <time>2021-12-29T09:25:07Z</time>
      </trkpt>
      <trkpt lat="37.4133220" lon="-4.5840850">
        <ele>343.2</ele>
        <time>2021-12-29T09:25:08Z</time>
      </trkpt>
      <trkpt lat="37.4133310" lon="-4.5841530">
        <ele>343.2</ele>
        <time>2021-12-29T09:25:09Z</time>
      </trkpt>
      <trkpt lat="37.4133410" lon="-4.5842160">
        <ele>343.0</ele>
        <time>2021-12-29T09:25:10Z</time>
      </trkpt>
      <trkpt lat="37.4133540" lon="-4.5842770">
        <ele>343.0</ele>
        <time>2021-12-29T09:25:11Z</time>
      </trkpt>
      <trkpt lat="37.4133630" lon="-4.5843380">
        <ele>342.8</ele>
        <time>2021-12-29T09:25:12Z</time>
      </trkpt>
      <trkpt lat="37.4133760" lon="-4.5843980">
        <ele>342.8</ele>
        <time>2021-12-29T09:25:13Z</time>
      </trkpt>
      <trkpt lat="37.4133890" lon="-4.5844560">
        <ele>342.8</ele>
        <time>2021-12-29T09:25:14Z</time>
      </trkpt>
      <trkpt lat="37.4133950" lon="-4.5845150">
        <ele>342.6</ele>
        <time>2021-12-29T09:25:15Z</time>
      </trkpt>
      <trkpt lat="37.4134050" lon="-4.5845730">
        <ele>342.4</ele>
        <time>2021-12-29T09:25:16Z</time>
      </trkpt>
      <trkpt lat="37.4134180" lon="-4.5846300">
        <ele>342.4</ele>
        <time>2021-12-29T09:25:17Z</time>
      </trkpt>
      <trkpt lat="37.4134300" lon="-4.5846850">
        <ele>342.2</ele>
        <time>2021-12-29T09:25:18Z</time>
      </trkpt>
      <trkpt lat="37.4134430" lon="-4.5847440">
        <ele>342.2</ele>
        <time>2021-12-29T09:25:19Z</time>
      </trkpt>
      <trkpt lat="37.4134560" lon="-4.5848020">
        <ele>342.2</ele>
        <time>2021-12-29T09:25:20Z</time>
      </trkpt>
      <trkpt lat="37.4134720" lon="-4.5848580">
        <ele>342.0</ele>
        <time>2021-12-29T09:25:21Z</time>
      </trkpt>
      <trkpt lat="37.4134880" lon="-4.5849160">
        <ele>342.0</ele>
        <time>2021-12-29T09:25:22Z</time>
      </trkpt>
      <trkpt lat="37.4135010" lon="-4.5849750">
        <ele>342.0</ele>
        <time>2021-12-29T09:25:23Z</time>
      </trkpt>
      <trkpt lat="37.4135200" lon="-4.5850370">
        <ele>341.8</ele>
        <time>2021-12-29T09:25:24Z</time>
      </trkpt>
      <trkpt lat="37.4135390" lon="-4.5850980">
        <ele>341.8</ele>
        <time>2021-12-29T09:25:25Z</time>
      </trkpt>
      <trkpt lat="37.4135550" lon="-4.5851580">
        <ele>341.6</ele>
        <time>2021-12-29T09:25:26Z</time>
      </trkpt>
      <trkpt lat="37.4135780" lon="-4.5852200">
        <ele>341.6</ele>
        <time>2021-12-29T09:25:27Z</time>
      </trkpt>
      <trkpt lat="37.4135970" lon="-4.5852800">
        <ele>341.4</ele>
        <time>2021-12-29T09:25:28Z</time>
      </trkpt>
      <trkpt lat="37.4136190" lon="-4.5853400">
        <ele>341.2</ele>
        <time>2021-12-29T09:25:29Z</time>
      </trkpt>
      <trkpt lat="37.4136420" lon="-4.5854020">
        <ele>341.2</ele>
        <time>2021-12-29T09:25:30Z</time>
      </trkpt>
      <trkpt lat="37.4136610" lon="-4.5854520">
        <ele>341.0</ele>
        <time>2021-12-29T09:25:31Z</time>
      </trkpt>
      <trkpt lat="37.4136930" lon="-4.5855260">
        <ele>341.0</ele>
        <time>2021-12-29T09:25:32Z</time>
      </trkpt>
      <trkpt lat="37.4137150" lon="-4.5855860">
        <ele>340.8</ele>
        <time>2021-12-29T09:25:33Z</time>
      </trkpt>
      <trkpt lat="37.4137410" lon="-4.5856420">
        <ele>340.6</ele>
        <time>2021-12-29T09:25:34Z</time>
      </trkpt>
      <trkpt lat="37.4137660" lon="-4.5856980">
        <ele>340.6</ele>
        <time>2021-12-29T09:25:35Z</time>
      </trkpt>
      <trkpt lat="37.4137920" lon="-4.5857540">
        <ele>340.4</ele>
        <time>2021-12-29T09:25:36Z</time>
      </trkpt>
      <trkpt lat="37.4138180" lon="-4.5858100">
        <ele>340.4</ele>
        <time>2021-12-29T09:25:37Z</time>
      </trkpt>
      <trkpt lat="37.4138400" lon="-4.5858630">
        <ele>340.2</ele>
        <time>2021-12-29T09:25:38Z</time>
      </trkpt>
      <trkpt lat="37.4138660" lon="-4.5859180">
        <ele>340.2</ele>
        <time>2021-12-29T09:25:39Z</time>
      </trkpt>
      <trkpt lat="37.4138910" lon="-4.5859700">
        <ele>340.2</ele>
        <time>2021-12-29T09:25:40Z</time>
      </trkpt>
      <trkpt lat="37.4139170" lon="-4.5860200">
        <ele>340.2</ele>
        <time>2021-12-29T09:25:41Z</time>
      </trkpt>
      <trkpt lat="37.4139460" lon="-4.5860700">
        <ele>340.0</ele>
        <time>2021-12-29T09:25:42Z</time>
      </trkpt>
      <trkpt lat="37.4139740" lon="-4.5861220">
        <ele>340.0</ele>
        <time>2021-12-29T09:25:43Z</time>
      </trkpt>
      <trkpt lat="37.4139970" lon="-4.5861600">
        <ele>339.8</ele>
        <time>2021-12-29T09:25:44Z</time>
      </trkpt>
      <trkpt lat="37.4140350" lon="-4.5862200">
        <ele>339.8</ele>
        <time>2021-12-29T09:25:45Z</time>
      </trkpt>
      <trkpt lat="37.4140670" lon="-4.5862720">
        <ele>339.6</ele>
        <time>2021-12-29T09:25:46Z</time>
      </trkpt>
      <trkpt lat="37.4140960" lon="-4.5863230">
        <ele>339.6</ele>
        <time>2021-12-29T09:25:47Z</time>
      </trkpt>
      <trkpt lat="37.4141310" lon="-4.5863730">
        <ele>339.4</ele>
        <time>2021-12-29T09:25:48Z</time>
      </trkpt>
      <trkpt lat="37.4141630" lon="-4.5864220">
        <ele>339.4</ele>
        <time>2021-12-29T09:25:49Z</time>
      </trkpt>
      <trkpt lat="37.4141920" lon="-4.5864680">
        <ele>339.2</ele>
        <time>2021-12-29T09:25:50Z</time>
      </trkpt>
      <trkpt lat="37.4142240" lon="-4.5865140">
        <ele>339.2</ele>
        <time>2021-12-29T09:25:51Z</time>
      </trkpt>
      <trkpt lat="37.4142670" lon="-4.5865720">
        <ele>339.2</ele>
        <time>2021-12-29T09:25:52Z</time>
      </trkpt>
      <trkpt lat="37.4142850" lon="-4.5865950">
        <ele>339.0</ele>
        <time>2021-12-29T09:25:53Z</time>
      </trkpt>
      <trkpt lat="37.4143260" lon="-4.5866460">
        <ele>339.0</ele>
        <time>2021-12-29T09:25:54Z</time>
      </trkpt>
      <trkpt lat="37.4143620" lon="-4.5866880">
        <ele>339.0</ele>
        <time>2021-12-29T09:25:55Z</time>
      </trkpt>
      <trkpt lat="37.4143940" lon="-4.5867280">
        <ele>338.8</ele>
        <time>2021-12-29T09:25:56Z</time>
      </trkpt>
      <trkpt lat="37.4144260" lon="-4.5867570">
        <ele>338.8</ele>
        <time>2021-12-29T09:25:57Z</time>
      </trkpt>
      <trkpt lat="37.4144670" lon="-4.5868020">
        <ele>338.8</ele>
        <time>2021-12-29T09:25:58Z</time>
      </trkpt>
      <trkpt lat="37.4145020" lon="-4.5868420">
        <ele>338.6</ele>
        <time>2021-12-29T09:25:59Z</time>
      </trkpt>
      <trkpt lat="37.4145340" lon="-4.5868820">
        <ele>338.6</ele>
        <time>2021-12-29T09:26:00Z</time>
      </trkpt>
      <trkpt lat="37.4145700" lon="-4.5869200">
        <ele>338.6</ele>
        <time>2021-12-29T09:26:01Z</time>
      </trkpt>
      <trkpt lat="37.4146020" lon="-4.5869520">
        <ele>338.6</ele>
        <time>2021-12-29T09:26:02Z</time>
      </trkpt>
      <trkpt lat="37.4146460" lon="-4.5869920">
        <ele>338.6</ele>
        <time>2021-12-29T09:26:03Z</time>
      </trkpt>
      <trkpt lat="37.4146820" lon="-4.5870230">
        <ele>338.6</ele>
        <time>2021-12-29T09:26:04Z</time>
      </trkpt>
      <trkpt lat="37.4147140" lon="-4.5870550">
        <ele>338.4</ele>
        <time>2021-12-29T09:26:05Z</time>
      </trkpt>
      <trkpt lat="37.4147420" lon="-4.5870800">
        <ele>338.4</ele>
        <time>2021-12-29T09:26:06Z</time>
      </trkpt>
      <trkpt lat="37.4147810" lon="-4.5871170">
        <ele>338.4</ele>
        <time>2021-12-29T09:26:07Z</time>
      </trkpt>
      <trkpt lat="37.4148100" lon="-4.5871480">
        <ele>338.4</ele>
        <time>2021-12-29T09:26:08Z</time>
      </trkpt>
      <trkpt lat="37.4148450" lon="-4.5871820">
        <ele>338.4</ele>
        <time>2021-12-29T09:26:09Z</time>
      </trkpt>
      <trkpt lat="37.4148740" lon="-4.5872100">
        <ele>338.2</ele>
        <time>2021-12-29T09:26:10Z</time>
      </trkpt>
      <trkpt lat="37.4149020" lon="-4.5872320">
        <ele>338.2</ele>
        <time>2021-12-29T09:26:11Z</time>
      </trkpt>
      <trkpt lat="37.4149440" lon="-4.5872650">
        <ele>338.0</ele>
        <time>2021-12-29T09:26:12Z</time>
      </trkpt>
      <trkpt lat="37.4149820" lon="-4.5872930">
        <ele>338.0</ele>
        <time>2021-12-29T09:26:13Z</time>
      </trkpt>
      <trkpt lat="37.4150110" lon="-4.5873220">
        <ele>337.8</ele>
        <time>2021-12-29T09:26:14Z</time>
      </trkpt>
      <trkpt lat="37.4150430" lon="-4.5873420">
        <ele>337.8</ele>
        <time>2021-12-29T09:26:15Z</time>
      </trkpt>
      <trkpt lat="37.4150850" lon="-4.5873750">
        <ele>337.8</ele>
        <time>2021-12-29T09:26:16Z</time>
      </trkpt>
      <trkpt lat="37.4151230" lon="-4.5874030">
        <ele>337.6</ele>
        <time>2021-12-29T09:26:17Z</time>
      </trkpt>
      <trkpt lat="37.4151490" lon="-4.5874270">
        <ele>337.6</ele>
        <time>2021-12-29T09:26:18Z</time>
      </trkpt>
      <trkpt lat="37.4151840" lon="-4.5874570">
        <ele>337.6</ele>
        <time>2021-12-29T09:26:19Z</time>
      </trkpt>
      <trkpt lat="37.4152290" lon="-4.5874900">
        <ele>337.6</ele>
        <time>2021-12-29T09:26:20Z</time>
      </trkpt>
      <trkpt lat="37.4152670" lon="-4.5875140">
        <ele>337.6</ele>
        <time>2021-12-29T09:26:21Z</time>
      </trkpt>
      <trkpt lat="37.4153060" lon="-4.5875340">
        <ele>337.4</ele>
        <time>2021-12-29T09:26:22Z</time>
      </trkpt>
      <trkpt lat="37.4153410" lon="-4.5875540">
        <ele>337.4</ele>
        <time>2021-12-29T09:26:23Z</time>
      </trkpt>
      <trkpt lat="37.4153660" lon="-4.5875680">
        <ele>337.4</ele>
        <time>2021-12-29T09:26:24Z</time>
      </trkpt>
      <trkpt lat="37.4154050" lon="-4.5875930">
        <ele>337.2</ele>
        <time>2021-12-29T09:26:25Z</time>
      </trkpt>
      <trkpt lat="37.4154400" lon="-4.5876150">
        <ele>337.2</ele>
        <time>2021-12-29T09:26:26Z</time>
      </trkpt>
      <trkpt lat="37.4154690" lon="-4.5876360">
        <ele>337.2</ele>
        <time>2021-12-29T09:26:27Z</time>
      </trkpt>
      <trkpt lat="37.4155070" lon="-4.5876580">
        <ele>337.0</ele>
        <time>2021-12-29T09:26:28Z</time>
      </trkpt>
      <trkpt lat="37.4155360" lon="-4.5876780">
        <ele>337.0</ele>
        <time>2021-12-29T09:26:29Z</time>
      </trkpt>
      <trkpt lat="37.4155810" lon="-4.5877050">
        <ele>337.0</ele>
        <time>2021-12-29T09:26:30Z</time>
      </trkpt>
      <trkpt lat="37.4156190" lon="-4.5877280">
        <ele>337.0</ele>
        <time>2021-12-29T09:26:31Z</time>
      </trkpt>
      <trkpt lat="37.4156540" lon="-4.5877500">
        <ele>336.8</ele>
        <time>2021-12-29T09:26:32Z</time>
      </trkpt>
      <trkpt lat="37.4156800" lon="-4.5877680">
        <ele>336.8</ele>
        <time>2021-12-29T09:26:33Z</time>
      </trkpt>
      <trkpt lat="37.4157250" lon="-4.5877900">
        <ele>336.8</ele>
        <time>2021-12-29T09:26:34Z</time>
      </trkpt>
      <trkpt lat="37.4157540" lon="-4.5877980">
        <ele>336.8</ele>
        <time>2021-12-29T09:26:35Z</time>
      </trkpt>
      <trkpt lat="37.4157920" lon="-4.5878000">
        <ele>336.6</ele>
        <time>2021-12-29T09:26:36Z</time>
      </trkpt>
      <trkpt lat="37.4158210" lon="-4.5877930">
        <ele>336.6</ele>
        <time>2021-12-29T09:26:37Z</time>
      </trkpt>
      <trkpt lat="37.4158530" lon="-4.5877880">
        <ele>336.6</ele>
        <time>2021-12-29T09:26:38Z</time>
      </trkpt>
      <trkpt lat="37.4158820" lon="-4.5877920">
        <ele>336.6</ele>
        <time>2021-12-29T09:26:39Z</time>
      </trkpt>
      <trkpt lat="37.4159100" lon="-4.5878000">
        <ele>336.6</ele>
        <time>2021-12-29T09:26:40Z</time>
      </trkpt>
      <trkpt lat="37.4159420" lon="-4.5878080">
        <ele>336.6</ele>
        <time>2021-12-29T09:26:41Z</time>
      </trkpt>
      <trkpt lat="37.4159620" lon="-4.5878170">
        <ele>336.6</ele>
        <time>2021-12-29T09:26:42Z</time>
      </trkpt>
      <trkpt lat="37.4159940" lon="-4.5878320">
        <ele>336.8</ele>
        <time>2021-12-29T09:26:43Z</time>
      </trkpt>
      <trkpt lat="37.4160130" lon="-4.5878420">
        <ele>336.8</ele>
        <time>2021-12-29T09:26:44Z</time>
      </trkpt>
      <trkpt lat="37.4160130" lon="-4.5878420">
        <ele>336.8</ele>
        <time>2021-12-29T09:26:45Z</time>
      </trkpt>
      <trkpt lat="37.4160130" lon="-4.5878420">
        <ele>336.8</ele>
        <time>2021-12-29T09:26:46Z</time>
      </trkpt>
      <trkpt lat="37.4160130" lon="-4.5878420">
        <ele>336.8</ele>
        <time>2021-12-29T09:26:47Z</time>
      </trkpt>
      <trkpt lat="37.4160130" lon="-4.5878420">
        <ele>336.8</ele>
        <time>2021-12-29T09:26:48Z</time>
      </trkpt>
      <trkpt lat="37.4160130" lon="-4.5878420">
        <ele>336.8</ele>
        <time>2021-12-29T09:26:49Z</time>
      </trkpt>
      <trkpt lat="37.4160130" lon="-4.5878420">
        <ele>336.8</ele>
        <time>2021-12-29T10:18:33Z</time>
      </trkpt>
      <trkpt lat="37.4160130" lon="-4.5878420">
        <ele>337.4</ele>
        <time>2021-12-29T10:18:34Z</time>
      </trkpt>
      <trkpt lat="37.4160130" lon="-4.5878420">
        <ele>337.2</ele>
        <time>2021-12-29T10:18:35Z</time>
      </trkpt>
      <trkpt lat="37.4160130" lon="-4.5878420">
        <ele>337.2</ele>
        <time>2021-12-29T10:18:36Z</time>
      </trkpt>
      <trkpt lat="37.4160130" lon="-4.5878420">
        <ele>337.2</ele>
        <time>2021-12-29T10:39:40Z</time>
      </trkpt>
      <trkpt lat="37.4161730" lon="-4.5879850">
        <ele>336.8</ele>
        <time>2021-12-29T10:39:41Z</time>
      </trkpt>
      <trkpt lat="37.4161980" lon="-4.5880020">
        <ele>336.8</ele>
        <time>2021-12-29T10:39:42Z</time>
      </trkpt>
      <trkpt lat="37.4162240" lon="-4.5880220">
        <ele>336.8</ele>
        <time>2021-12-29T10:39:43Z</time>
      </trkpt>
      <trkpt lat="37.4162560" lon="-4.5880530">
        <ele>336.8</ele>
        <time>2021-12-29T10:39:44Z</time>
      </trkpt>
      <trkpt lat="37.4162880" lon="-4.5880870">
        <ele>337.0</ele>
        <time>2021-12-29T10:39:45Z</time>
      </trkpt>
      <trkpt lat="37.4163100" lon="-4.5881050">
        <ele>337.0</ele>
        <time>2021-12-29T10:39:46Z</time>
      </trkpt>
      <trkpt lat="37.4163390" lon="-4.5881280">
        <ele>337.0</ele>
        <time>2021-12-29T10:39:47Z</time>
      </trkpt>
      <trkpt lat="37.4163740" lon="-4.5881450">
        <ele>337.2</ele>
        <time>2021-12-29T10:39:48Z</time>
      </trkpt>
      <trkpt lat="37.4164130" lon="-4.5881670">
        <ele>337.2</ele>
        <time>2021-12-29T10:39:49Z</time>
      </trkpt>
      <trkpt lat="37.4164480" lon="-4.5881880">
        <ele>337.4</ele>
        <time>2021-12-29T10:39:50Z</time>
      </trkpt>
      <trkpt lat="37.4164740" lon="-4.5882050">
        <ele>337.4</ele>
        <time>2021-12-29T10:39:51Z</time>
      </trkpt>
      <trkpt lat="37.4165020" lon="-4.5882270">
        <ele>337.4</ele>
        <time>2021-12-29T10:39:52Z</time>
      </trkpt>
      <trkpt lat="37.4165380" lon="-4.5882520">
        <ele>337.4</ele>
        <time>2021-12-29T10:39:53Z</time>
      </trkpt>
      <trkpt lat="37.4165660" lon="-4.5882700">
        <ele>337.2</ele>
        <time>2021-12-29T10:39:54Z</time>
      </trkpt>
      <trkpt lat="37.4165920" lon="-4.5882840">
        <ele>337.2</ele>
        <time>2021-12-29T10:39:55Z</time>
      </trkpt>
      <trkpt lat="37.4166210" lon="-4.5882980">
        <ele>337.2</ele>
        <time>2021-12-29T10:39:56Z</time>
      </trkpt>
      <trkpt lat="37.4166590" lon="-4.5883220">
        <ele>337.2</ele>
        <time>2021-12-29T10:39:57Z</time>
      </trkpt>
      <trkpt lat="37.4166940" lon="-4.5883460">
        <ele>337.2</ele>
        <time>2021-12-29T10:39:58Z</time>
      </trkpt>
      <trkpt lat="37.4167260" lon="-4.5883660">
        <ele>337.2</ele>
        <time>2021-12-29T10:39:59Z</time>
      </trkpt>
      <trkpt lat="37.4167660" lon="-4.5883950">
        <ele>337.2</ele>
        <time>2021-12-29T10:40:00Z</time>
      </trkpt>
      <trkpt lat="37.4167810" lon="-4.5884050">
        <ele>337.4</ele>
        <time>2021-12-29T10:40:01Z</time>
      </trkpt>
      <trkpt lat="37.4168160" lon="-4.5884250">
        <ele>337.6</ele>
        <time>2021-12-29T10:40:02Z</time>
      </trkpt>
      <trkpt lat="37.4168580" lon="-4.5884470">
        <ele>337.6</ele>
        <time>2021-12-29T10:40:03Z</time>
      </trkpt>
      <trkpt lat="37.4168900" lon="-4.5884530">
        <ele>337.6</ele>
        <time>2021-12-29T10:40:04Z</time>
      </trkpt>
      <trkpt lat="37.4169280" lon="-4.5884670">
        <ele>337.6</ele>
        <time>2021-12-29T10:40:05Z</time>
      </trkpt>
      <trkpt lat="37.4169630" lon="-4.5884830">
        <ele>337.6</ele>
        <time>2021-12-29T10:40:06Z</time>
      </trkpt>
      <trkpt lat="37.4169920" lon="-4.5885020">
        <ele>337.6</ele>
        <time>2021-12-29T10:40:07Z</time>
      </trkpt>
      <trkpt lat="37.4170240" lon="-4.5885230">
        <ele>337.6</ele>
        <time>2021-12-29T10:40:08Z</time>
      </trkpt>
      <trkpt lat="37.4170460" lon="-4.5885380">
        <ele>337.8</ele>
        <time>2021-12-29T10:40:09Z</time>
      </trkpt>
      <trkpt lat="37.4170690" lon="-4.5885570">
        <ele>337.8</ele>
        <time>2021-12-29T10:40:10Z</time>
      </trkpt>
      <trkpt lat="37.4171040" lon="-4.5885800">
        <ele>337.8</ele>
        <time>2021-12-29T10:40:11Z</time>
      </trkpt>
      <trkpt lat="37.4171330" lon="-4.5886000">
        <ele>337.8</ele>
        <time>2021-12-29T10:40:12Z</time>
      </trkpt>
      <trkpt lat="37.4171550" lon="-4.5886140">
        <ele>337.8</ele>
        <time>2021-12-29T10:40:13Z</time>
      </trkpt>
      <trkpt lat="37.4171940" lon="-4.5886340">
        <ele>337.8</ele>
        <time>2021-12-29T10:40:14Z</time>
      </trkpt>
      <trkpt lat="37.4172290" lon="-4.5886470">
        <ele>337.8</ele>
        <time>2021-12-29T10:40:15Z</time>
      </trkpt>
      <trkpt lat="37.4172640" lon="-4.5886620">
        <ele>337.8</ele>
        <time>2021-12-29T10:40:16Z</time>
      </trkpt>
      <trkpt lat="37.4172930" lon="-4.5886780">
        <ele>338.0</ele>
        <time>2021-12-29T10:40:17Z</time>
      </trkpt>
      <trkpt lat="37.4173150" lon="-4.5886920">
        <ele>338.0</ele>
        <time>2021-12-29T10:40:18Z</time>
      </trkpt>
      <trkpt lat="37.4173440" lon="-4.5887120">
        <ele>338.0</ele>
        <time>2021-12-29T10:40:19Z</time>
      </trkpt>
      <trkpt lat="37.4173820" lon="-4.5887320">
        <ele>338.0</ele>
        <time>2021-12-29T10:40:20Z</time>
      </trkpt>
      <trkpt lat="37.4174050" lon="-4.5887420">
        <ele>338.0</ele>
        <time>2021-12-29T10:40:21Z</time>
      </trkpt>
      <trkpt lat="37.4174340" lon="-4.5887560">
        <ele>338.0</ele>
        <time>2021-12-29T10:40:22Z</time>
      </trkpt>
      <trkpt lat="37.4174660" lon="-4.5887730">
        <ele>338.0</ele>
        <time>2021-12-29T10:40:23Z</time>
      </trkpt>
      <trkpt lat="37.4175010" lon="-4.5887850">
        <ele>338.0</ele>
        <time>2021-12-29T10:40:24Z</time>
      </trkpt>
      <trkpt lat="37.4175300" lon="-4.5888000">
        <ele>338.0</ele>
        <time>2021-12-29T10:40:25Z</time>
      </trkpt>
      <trkpt lat="37.4175620" lon="-4.5888180">
        <ele>338.0</ele>
        <time>2021-12-29T10:40:26Z</time>
      </trkpt>
      <trkpt lat="37.4175940" lon="-4.5888380">
        <ele>338.0</ele>
        <time>2021-12-29T10:40:27Z</time>
      </trkpt>
      <trkpt lat="37.4176260" lon="-4.5888600">
        <ele>338.0</ele>
        <time>2021-12-29T10:40:28Z</time>
      </trkpt>
      <trkpt lat="37.4176610" lon="-4.5888820">
        <ele>338.2</ele>
        <time>2021-12-29T10:40:29Z</time>
      </trkpt>
      <trkpt lat="37.4176990" lon="-4.5889040">
        <ele>338.2</ele>
        <time>2021-12-29T10:40:30Z</time>
      </trkpt>
      <trkpt lat="37.4177310" lon="-4.5889220">
        <ele>338.2</ele>
        <time>2021-12-29T10:40:31Z</time>
      </trkpt>
      <trkpt lat="37.4177700" lon="-4.5889380">
        <ele>338.4</ele>
        <time>2021-12-29T10:40:32Z</time>
      </trkpt>
      <trkpt lat="37.4178080" lon="-4.5889570">
        <ele>338.4</ele>
        <time>2021-12-29T10:40:33Z</time>
      </trkpt>
      <trkpt lat="37.4178460" lon="-4.5889780">
        <ele>338.4</ele>
        <time>2021-12-29T10:40:34Z</time>
      </trkpt>
      <trkpt lat="37.4178850" lon="-4.5890020">
        <ele>338.4</ele>
        <time>2021-12-29T10:40:35Z</time>
      </trkpt>
      <trkpt lat="37.4179200" lon="-4.5890240">
        <ele>338.6</ele>
        <time>2021-12-29T10:40:36Z</time>
      </trkpt>
      <trkpt lat="37.4179520" lon="-4.5890430">
        <ele>338.6</ele>
        <time>2021-12-29T10:40:37Z</time>
      </trkpt>
      <trkpt lat="37.4179900" lon="-4.5890660">
        <ele>338.6</ele>
        <time>2021-12-29T10:40:38Z</time>
      </trkpt>
      <trkpt lat="37.4180260" lon="-4.5890900">
        <ele>338.6</ele>
        <time>2021-12-29T10:40:39Z</time>
      </trkpt>
      <trkpt lat="37.4180640" lon="-4.5891120">
        <ele>338.6</ele>
        <time>2021-12-29T10:40:40Z</time>
      </trkpt>
      <trkpt lat="37.4180990" lon="-4.5891320">
        <ele>338.8</ele>
        <time>2021-12-29T10:40:41Z</time>
      </trkpt>
      <trkpt lat="37.4181280" lon="-4.5891500">
        <ele>338.8</ele>
        <time>2021-12-29T10:40:42Z</time>
      </trkpt>
      <trkpt lat="37.4181600" lon="-4.5891680">
        <ele>338.8</ele>
        <time>2021-12-29T10:40:43Z</time>
      </trkpt>
      <trkpt lat="37.4181950" lon="-4.5891880">
        <ele>338.6</ele>
        <time>2021-12-29T10:40:44Z</time>
      </trkpt>
      <trkpt lat="37.4182240" lon="-4.5892100">
        <ele>338.6</ele>
        <time>2021-12-29T10:40:45Z</time>
      </trkpt>
      <trkpt lat="37.4182560" lon="-4.5892280">
        <ele>338.6</ele>
        <time>2021-12-29T10:40:46Z</time>
      </trkpt>
      <trkpt lat="37.4182820" lon="-4.5892440">
        <ele>338.6</ele>
        <time>2021-12-29T10:40:47Z</time>
      </trkpt>
      <trkpt lat="37.4183140" lon="-4.5892640">
        <ele>338.8</ele>
        <time>2021-12-29T10:40:48Z</time>
      </trkpt>
      <trkpt lat="37.4183360" lon="-4.5892800">
        <ele>338.8</ele>
        <time>2021-12-29T10:40:49Z</time>
      </trkpt>
      <trkpt lat="37.4183620" lon="-4.5892970">
        <ele>338.8</ele>
        <time>2021-12-29T10:40:50Z</time>
      </trkpt>
      <trkpt lat="37.4183870" lon="-4.5893140">
        <ele>338.8</ele>
        <time>2021-12-29T10:40:51Z</time>
      </trkpt>
      <trkpt lat="37.4184160" lon="-4.5893300">
        <ele>338.8</ele>
        <time>2021-12-29T10:40:52Z</time>
      </trkpt>
      <trkpt lat="37.4184350" lon="-4.5893480">
        <ele>338.8</ele>
        <time>2021-12-29T10:40:53Z</time>
      </trkpt>
      <trkpt lat="37.4184580" lon="-4.5893670">
        <ele>338.8</ele>
        <time>2021-12-29T10:40:54Z</time>
      </trkpt>
      <trkpt lat="37.4184830" lon="-4.5893850">
        <ele>338.8</ele>
        <time>2021-12-29T10:40:55Z</time>
      </trkpt>
      <trkpt lat="37.4185060" lon="-4.5894000">
        <ele>338.8</ele>
        <time>2021-12-29T10:40:56Z</time>
      </trkpt>
      <trkpt lat="37.4185380" lon="-4.5894160">
        <ele>338.6</ele>
        <time>2021-12-29T10:40:57Z</time>
      </trkpt>
      <trkpt lat="37.4185660" lon="-4.5894360">
        <ele>338.6</ele>
        <time>2021-12-29T10:40:58Z</time>
      </trkpt>
      <trkpt lat="37.4185980" lon="-4.5894550">
        <ele>338.6</ele>
        <time>2021-12-29T10:40:59Z</time>
      </trkpt>
      <trkpt lat="37.4186270" lon="-4.5894750">
        <ele>338.6</ele>
        <time>2021-12-29T10:41:00Z</time>
      </trkpt>
      <trkpt lat="37.4186560" lon="-4.5894950">
        <ele>338.4</ele>
        <time>2021-12-29T10:41:01Z</time>
      </trkpt>
      <trkpt lat="37.4186820" lon="-4.5895180">
        <ele>338.4</ele>
        <time>2021-12-29T10:41:02Z</time>
      </trkpt>
      <trkpt lat="37.4187100" lon="-4.5895420">
        <ele>338.4</ele>
        <time>2021-12-29T10:41:03Z</time>
      </trkpt>
      <trkpt lat="37.4187330" lon="-4.5895680">
        <ele>338.4</ele>
        <time>2021-12-29T10:41:04Z</time>
      </trkpt>
      <trkpt lat="37.4187580" lon="-4.5895980">
        <ele>338.4</ele>
        <time>2021-12-29T10:41:05Z</time>
      </trkpt>
      <trkpt lat="37.4187900" lon="-4.5896270">
        <ele>338.4</ele>
        <time>2021-12-29T10:41:06Z</time>
      </trkpt>
      <trkpt lat="37.4188160" lon="-4.5896520">
        <ele>338.4</ele>
        <time>2021-12-29T10:41:07Z</time>
      </trkpt>
      <trkpt lat="37.4188450" lon="-4.5896770">
        <ele>338.4</ele>
        <time>2021-12-29T10:41:08Z</time>
      </trkpt>
      <trkpt lat="37.4188740" lon="-4.5897040">
        <ele>338.4</ele>
        <time>2021-12-29T10:41:09Z</time>
      </trkpt>
      <trkpt lat="37.4188960" lon="-4.5897320">
        <ele>338.4</ele>
        <time>2021-12-29T10:41:10Z</time>
      </trkpt>
      <trkpt lat="37.4189220" lon="-4.5897620">
        <ele>338.4</ele>
        <time>2021-12-29T10:41:11Z</time>
      </trkpt>
      <trkpt lat="37.4189440" lon="-4.5897920">
        <ele>338.6</ele>
        <time>2021-12-29T10:41:12Z</time>
      </trkpt>
      <trkpt lat="37.4189700" lon="-4.5898200">
        <ele>338.6</ele>
        <time>2021-12-29T10:41:13Z</time>
      </trkpt>
      <trkpt lat="37.4189950" lon="-4.5898500">
        <ele>338.6</ele>
        <time>2021-12-29T10:41:14Z</time>
      </trkpt>
      <trkpt lat="37.4190180" lon="-4.5898770">
        <ele>338.6</ele>
        <time>2021-12-29T10:41:15Z</time>
      </trkpt>
      <trkpt lat="37.4190430" lon="-4.5899030">
        <ele>338.6</ele>
        <time>2021-12-29T10:41:16Z</time>
      </trkpt>
      <trkpt lat="37.4190690" lon="-4.5899330">
        <ele>338.6</ele>
        <time>2021-12-29T10:41:17Z</time>
      </trkpt>
      <trkpt lat="37.4190910" lon="-4.5899640">
        <ele>338.6</ele>
        <time>2021-12-29T10:41:18Z</time>
      </trkpt>
      <trkpt lat="37.4191140" lon="-4.5899970">
        <ele>338.6</ele>
        <time>2021-12-29T10:41:19Z</time>
      </trkpt>
      <trkpt lat="37.4191360" lon="-4.5900280">
        <ele>338.4</ele>
        <time>2021-12-29T10:41:20Z</time>
      </trkpt>
      <trkpt lat="37.4191580" lon="-4.5900560">
        <ele>338.4</ele>
        <time>2021-12-29T10:41:21Z</time>
      </trkpt>
      <trkpt lat="37.4191810" lon="-4.5900900">
        <ele>338.4</ele>
        <time>2021-12-29T10:41:22Z</time>
      </trkpt>
      <trkpt lat="37.4192100" lon="-4.5901220">
        <ele>338.4</ele>
        <time>2021-12-29T10:41:23Z</time>
      </trkpt>
      <trkpt lat="37.4192350" lon="-4.5901530">
        <ele>338.4</ele>
        <time>2021-12-29T10:41:24Z</time>
      </trkpt>
      <trkpt lat="37.4192580" lon="-4.5901860">
        <ele>338.2</ele>
        <time>2021-12-29T10:41:25Z</time>
      </trkpt>
      <trkpt lat="37.4192860" lon="-4.5902180">
        <ele>338.2</ele>
        <time>2021-12-29T10:41:26Z</time>
      </trkpt>
      <trkpt lat="37.4193090" lon="-4.5902520">
        <ele>338.2</ele>
        <time>2021-12-29T10:41:27Z</time>
      </trkpt>
      <trkpt lat="37.4193380" lon="-4.5902950">
        <ele>338.2</ele>
        <time>2021-12-29T10:41:28Z</time>
      </trkpt>
      <trkpt lat="37.4193570" lon="-4.5903340">
        <ele>338.0</ele>
        <time>2021-12-29T10:41:29Z</time>
      </trkpt>
      <trkpt lat="37.4193790" lon="-4.5903650">
        <ele>338.0</ele>
        <time>2021-12-29T10:41:30Z</time>
      </trkpt>
      <trkpt lat="37.4194110" lon="-4.5904120">
        <ele>338.0</ele>
        <time>2021-12-29T10:41:31Z</time>
      </trkpt>
      <trkpt lat="37.4194300" lon="-4.5904420">
        <ele>337.8</ele>
        <time>2021-12-29T10:41:32Z</time>
      </trkpt>
      <trkpt lat="37.4194560" lon="-4.5904800">
        <ele>337.6</ele>
        <time>2021-12-29T10:41:33Z</time>
      </trkpt>
      <trkpt lat="37.4194820" lon="-4.5905180">
        <ele>337.6</ele>
        <time>2021-12-29T10:41:34Z</time>
      </trkpt>
      <trkpt lat="37.4195140" lon="-4.5905580">
        <ele>337.4</ele>
        <time>2021-12-29T10:41:35Z</time>
      </trkpt>
      <trkpt lat="37.4195390" lon="-4.5906020">
        <ele>337.4</ele>
        <time>2021-12-29T10:41:36Z</time>
      </trkpt>
      <trkpt lat="37.4195650" lon="-4.5906450">
        <ele>337.2</ele>
        <time>2021-12-29T10:41:37Z</time>
      </trkpt>
      <trkpt lat="37.4195900" lon="-4.5906900">
        <ele>337.2</ele>
        <time>2021-12-29T10:41:38Z</time>
      </trkpt>
      <trkpt lat="37.4196130" lon="-4.5907370">
        <ele>337.2</ele>
        <time>2021-12-29T10:41:39Z</time>
      </trkpt>
      <trkpt lat="37.4196380" lon="-4.5907830">
        <ele>337.0</ele>
        <time>2021-12-29T10:41:40Z</time>
      </trkpt>
      <trkpt lat="37.4196670" lon="-4.5908300">
        <ele>337.0</ele>
        <time>2021-12-29T10:41:41Z</time>
      </trkpt>
      <trkpt lat="37.4196960" lon="-4.5908760">
        <ele>337.0</ele>
        <time>2021-12-29T10:41:42Z</time>
      </trkpt>
      <trkpt lat="37.4197280" lon="-4.5909170">
        <ele>337.0</ele>
        <time>2021-12-29T10:41:43Z</time>
      </trkpt>
      <trkpt lat="37.4197500" lon="-4.5909620">
        <ele>337.0</ele>
        <time>2021-12-29T10:41:44Z</time>
      </trkpt>
      <trkpt lat="37.4197730" lon="-4.5910050">
        <ele>337.2</ele>
        <time>2021-12-29T10:41:45Z</time>
      </trkpt>
      <trkpt lat="37.4197980" lon="-4.5910540">
        <ele>337.2</ele>
        <time>2021-12-29T10:41:46Z</time>
      </trkpt>
      <trkpt lat="37.4198240" lon="-4.5910980">
        <ele>337.2</ele>
        <time>2021-12-29T10:41:47Z</time>
      </trkpt>
      <trkpt lat="37.4198430" lon="-4.5911370">
        <ele>337.2</ele>
        <time>2021-12-29T10:41:48Z</time>
      </trkpt>
      <trkpt lat="37.4198660" lon="-4.5911980">
        <ele>337.0</ele>
        <time>2021-12-29T10:41:49Z</time>
      </trkpt>
      <trkpt lat="37.4198780" lon="-4.5912330">
        <ele>337.0</ele>
        <time>2021-12-29T10:41:50Z</time>
      </trkpt>
      <trkpt lat="37.4199070" lon="-4.5912820">
        <ele>337.0</ele>
        <time>2021-12-29T10:41:51Z</time>
      </trkpt>
      <trkpt lat="37.4199260" lon="-4.5913220">
        <ele>337.0</ele>
        <time>2021-12-29T10:41:52Z</time>
      </trkpt>
      <trkpt lat="37.4199420" lon="-4.5913680">
        <ele>337.0</ele>
        <time>2021-12-29T10:41:53Z</time>
      </trkpt>
      <trkpt lat="37.4199520" lon="-4.5914070">
        <ele>337.0</ele>
        <time>2021-12-29T10:41:54Z</time>
      </trkpt>
      <trkpt lat="37.4199680" lon="-4.5914680">
        <ele>337.0</ele>
        <time>2021-12-29T10:41:55Z</time>
      </trkpt>
      <trkpt lat="37.4199840" lon="-4.5915220">
        <ele>337.0</ele>
        <time>2021-12-29T10:41:56Z</time>
      </trkpt>
      <trkpt lat="37.4199970" lon="-4.5915760">
        <ele>337.2</ele>
        <time>2021-12-29T10:41:57Z</time>
      </trkpt>
      <trkpt lat="37.4200130" lon="-4.5916320">
        <ele>337.2</ele>
        <time>2021-12-29T10:41:58Z</time>
      </trkpt>
      <trkpt lat="37.4200220" lon="-4.5916730">
        <ele>337.2</ele>
        <time>2021-12-29T10:41:59Z</time>
      </trkpt>
      <trkpt lat="37.4200420" lon="-4.5917370">
        <ele>337.2</ele>
        <time>2021-12-29T10:42:00Z</time>
      </trkpt>
      <trkpt lat="37.4200510" lon="-4.5917870">
        <ele>337.2</ele>
        <time>2021-12-29T10:42:01Z</time>
      </trkpt>
      <trkpt lat="37.4200670" lon="-4.5918380">
        <ele>337.0</ele>
        <time>2021-12-29T10:42:02Z</time>
      </trkpt>
      <trkpt lat="37.4200770" lon="-4.5918820">
        <ele>337.0</ele>
        <time>2021-12-29T10:42:03Z</time>
      </trkpt>
      <trkpt lat="37.4200930" lon="-4.5919400">
        <ele>336.8</ele>
        <time>2021-12-29T10:42:04Z</time>
      </trkpt>
      <trkpt lat="37.4201060" lon="-4.5919900">
        <ele>336.8</ele>
        <time>2021-12-29T10:42:05Z</time>
      </trkpt>
      <trkpt lat="37.4201150" lon="-4.5920400">
        <ele>336.8</ele>
        <time>2021-12-29T10:42:06Z</time>
      </trkpt>
      <trkpt lat="37.4201280" lon="-4.5920940">
        <ele>336.8</ele>
        <time>2021-12-29T10:42:07Z</time>
      </trkpt>
      <trkpt lat="37.4201410" lon="-4.5921450">
        <ele>336.6</ele>
        <time>2021-12-29T10:42:08Z</time>
      </trkpt>
      <trkpt lat="37.4201440" lon="-4.5921880">
        <ele>336.6</ele>
        <time>2021-12-29T10:42:09Z</time>
      </trkpt>
      <trkpt lat="37.4201570" lon="-4.5922500">
        <ele>336.6</ele>
        <time>2021-12-29T10:42:10Z</time>
      </trkpt>
      <trkpt lat="37.4201660" lon="-4.5922980">
        <ele>336.6</ele>
        <time>2021-12-29T10:42:11Z</time>
      </trkpt>
      <trkpt lat="37.4201730" lon="-4.5923480">
        <ele>336.4</ele>
        <time>2021-12-29T10:42:12Z</time>
      </trkpt>
      <trkpt lat="37.4201820" lon="-4.5923870">
        <ele>336.4</ele>
        <time>2021-12-29T10:42:13Z</time>
      </trkpt>
      <trkpt lat="37.4201920" lon="-4.5924480">
        <ele>336.4</ele>
        <time>2021-12-29T10:42:14Z</time>
      </trkpt>
      <trkpt lat="37.4202020" lon="-4.5925000">
        <ele>336.4</ele>
        <time>2021-12-29T10:42:15Z</time>
      </trkpt>
      <trkpt lat="37.4202080" lon="-4.5925560">
        <ele>336.2</ele>
        <time>2021-12-29T10:42:16Z</time>
      </trkpt>
      <trkpt lat="37.4202110" lon="-4.5926020">
        <ele>336.2</ele>
        <time>2021-12-29T10:42:17Z</time>
      </trkpt>
      <trkpt lat="37.4202140" lon="-4.5926650">
        <ele>336.2</ele>
        <time>2021-12-29T10:42:18Z</time>
      </trkpt>
      <trkpt lat="37.4202210" lon="-4.5927170">
        <ele>336.0</ele>
        <time>2021-12-29T10:42:19Z</time>
      </trkpt>
      <trkpt lat="37.4202270" lon="-4.5927680">
        <ele>336.0</ele>
        <time>2021-12-29T10:42:20Z</time>
      </trkpt>
      <trkpt lat="37.4202340" lon="-4.5928220">
        <ele>336.0</ele>
        <time>2021-12-29T10:42:21Z</time>
      </trkpt>
      <trkpt lat="37.4202430" lon="-4.5928740">
        <ele>335.8</ele>
        <time>2021-12-29T10:42:22Z</time>
      </trkpt>
      <trkpt lat="37.4202460" lon="-4.5929230">
        <ele>335.8</ele>
        <time>2021-12-29T10:42:23Z</time>
      </trkpt>
      <trkpt lat="37.4202460" lon="-4.5929750">
        <ele>335.8</ele>
        <time>2021-12-29T10:42:24Z</time>
      </trkpt>
      <trkpt lat="37.4202500" lon="-4.5930270">
        <ele>335.8</ele>
        <time>2021-12-29T10:42:25Z</time>
      </trkpt>
      <trkpt lat="37.4202500" lon="-4.5930650">
        <ele>335.8</ele>
        <time>2021-12-29T10:42:26Z</time>
      </trkpt>
      <trkpt lat="37.4202500" lon="-4.5931180">
        <ele>335.8</ele>
        <time>2021-12-29T10:42:27Z</time>
      </trkpt>
      <trkpt lat="37.4202500" lon="-4.5931600">
        <ele>335.8</ele>
        <time>2021-12-29T10:42:28Z</time>
      </trkpt>
      <trkpt lat="37.4202500" lon="-4.5932040">
        <ele>335.8</ele>
        <time>2021-12-29T10:42:29Z</time>
      </trkpt>
      <trkpt lat="37.4202500" lon="-4.5932370">
        <ele>335.8</ele>
        <time>2021-12-29T10:42:30Z</time>
      </trkpt>
      <trkpt lat="37.4202500" lon="-4.5932760">
        <ele>335.8</ele>
        <time>2021-12-29T10:42:31Z</time>
      </trkpt>
      <trkpt lat="37.4202530" lon="-4.5933320">
        <ele>335.8</ele>
        <time>2021-12-29T10:42:32Z</time>
      </trkpt>
      <trkpt lat="37.4202500" lon="-4.5933800">
        <ele>335.8</ele>
        <time>2021-12-29T10:42:33Z</time>
      </trkpt>
      <trkpt lat="37.4202500" lon="-4.5934270">
        <ele>335.8</ele>
        <time>2021-12-29T10:42:34Z</time>
      </trkpt>
      <trkpt lat="37.4202500" lon="-4.5934650">
        <ele>335.8</ele>
        <time>2021-12-29T10:42:35Z</time>
      </trkpt>
      <trkpt lat="37.4202500" lon="-4.5935220">
        <ele>335.6</ele>
        <time>2021-12-29T10:42:36Z</time>
      </trkpt>
      <trkpt lat="37.4202460" lon="-4.5935750">
        <ele>335.6</ele>
        <time>2021-12-29T10:42:37Z</time>
      </trkpt>
      <trkpt lat="37.4202400" lon="-4.5936300">
        <ele>335.6</ele>
        <time>2021-12-29T10:42:38Z</time>
      </trkpt>
      <trkpt lat="37.4202340" lon="-4.5936860">
        <ele>335.6</ele>
        <time>2021-12-29T10:42:39Z</time>
      </trkpt>
      <trkpt lat="37.4202340" lon="-4.5937280">
        <ele>335.4</ele>
        <time>2021-12-29T10:42:40Z</time>
      </trkpt>
      <trkpt lat="37.4202300" lon="-4.5937820">
        <ele>335.4</ele>
        <time>2021-12-29T10:42:41Z</time>
      </trkpt>
      <trkpt lat="37.4202240" lon="-4.5938450">
        <ele>335.4</ele>
        <time>2021-12-29T10:42:42Z</time>
      </trkpt>
      <trkpt lat="37.4202110" lon="-4.5938970">
        <ele>335.2</ele>
        <time>2021-12-29T10:42:43Z</time>
      </trkpt>
      <trkpt lat="37.4202080" lon="-4.5939400">
        <ele>335.2</ele>
        <time>2021-12-29T10:42:44Z</time>
      </trkpt>
      <trkpt lat="37.4202050" lon="-4.5940060">
        <ele>335.0</ele>
        <time>2021-12-29T10:42:45Z</time>
      </trkpt>
      <trkpt lat="37.4201950" lon="-4.5940620">
        <ele>334.8</ele>
        <time>2021-12-29T10:42:46Z</time>
      </trkpt>
      <trkpt lat="37.4201890" lon="-4.5941180">
        <ele>334.8</ele>
        <time>2021-12-29T10:42:47Z</time>
      </trkpt>
      <trkpt lat="37.4201820" lon="-4.5941720">
        <ele>334.6</ele>
        <time>2021-12-29T10:42:48Z</time>
      </trkpt>
      <trkpt lat="37.4201760" lon="-4.5942170">
        <ele>334.6</ele>
        <time>2021-12-29T10:42:49Z</time>
      </trkpt>
      <trkpt lat="37.4201700" lon="-4.5942820">
        <ele>334.4</ele>
        <time>2021-12-29T10:42:50Z</time>
      </trkpt>
      <trkpt lat="37.4201630" lon="-4.5943350">
        <ele>334.4</ele>
        <time>2021-12-29T10:42:51Z</time>
      </trkpt>
      <trkpt lat="37.4201540" lon="-4.5943860">
        <ele>334.2</ele>
        <time>2021-12-29T10:42:52Z</time>
      </trkpt>
      <trkpt lat="37.4201470" lon="-4.5944300">
        <ele>334.2</ele>
        <time>2021-12-29T10:42:53Z</time>
      </trkpt>
      <trkpt lat="37.4201410" lon="-4.5944900">
        <ele>334.0</ele>
        <time>2021-12-29T10:42:54Z</time>
      </trkpt>
      <trkpt lat="37.4201280" lon="-4.5945440">
        <ele>333.8</ele>
        <time>2021-12-29T10:42:55Z</time>
      </trkpt>
      <trkpt lat="37.4201220" lon="-4.5945980">
        <ele>333.8</ele>
        <time>2021-12-29T10:42:56Z</time>
      </trkpt>
      <trkpt lat="37.4201120" lon="-4.5946520">
        <ele>333.6</ele>
        <time>2021-12-29T10:42:57Z</time>
      </trkpt>
      <trkpt lat="37.4201090" lon="-4.5946960">
        <ele>333.4</ele>
        <time>2021-12-29T10:42:58Z</time>
      </trkpt>
      <trkpt lat="37.4201020" lon="-4.5947620">
        <ele>333.2</ele>
        <time>2021-12-29T10:42:59Z</time>
      </trkpt>
      <trkpt lat="37.4200930" lon="-4.5948180">
        <ele>333.2</ele>
        <time>2021-12-29T10:43:00Z</time>
      </trkpt>
      <trkpt lat="37.4200860" lon="-4.5948740">
        <ele>333.0</ele>
        <time>2021-12-29T10:43:01Z</time>
      </trkpt>
      <trkpt lat="37.4200770" lon="-4.5949250">
        <ele>333.0</ele>
        <time>2021-12-29T10:43:02Z</time>
      </trkpt>
      <trkpt lat="37.4200740" lon="-4.5949750">
        <ele>332.8</ele>
        <time>2021-12-29T10:43:03Z</time>
      </trkpt>
      <trkpt lat="37.4200700" lon="-4.5950260">
        <ele>332.8</ele>
        <time>2021-12-29T10:43:04Z</time>
      </trkpt>
      <trkpt lat="37.4200610" lon="-4.5950820">
        <ele>332.8</ele>
        <time>2021-12-29T10:43:05Z</time>
      </trkpt>
      <trkpt lat="37.4200450" lon="-4.5951400">
        <ele>332.6</ele>
        <time>2021-12-29T10:43:06Z</time>
      </trkpt>
      <trkpt lat="37.4200350" lon="-4.5951900">
        <ele>332.6</ele>
        <time>2021-12-29T10:43:07Z</time>
      </trkpt>
      <trkpt lat="37.4200420" lon="-4.5952550">
        <ele>332.4</ele>
        <time>2021-12-29T10:43:08Z</time>
      </trkpt>
      <trkpt lat="37.4200320" lon="-4.5953080">
        <ele>332.4</ele>
        <time>2021-12-29T10:43:09Z</time>
      </trkpt>
      <trkpt lat="37.4200260" lon="-4.5953600">
        <ele>332.2</ele>
        <time>2021-12-29T10:43:10Z</time>
      </trkpt>
      <trkpt lat="37.4200130" lon="-4.5954120">
        <ele>332.2</ele>
        <time>2021-12-29T10:43:11Z</time>
      </trkpt>
      <trkpt lat="37.4200100" lon="-4.5954620">
        <ele>332.0</ele>
        <time>2021-12-29T10:43:12Z</time>
      </trkpt>
      <trkpt lat="37.4200060" lon="-4.5954980">
        <ele>332.0</ele>
        <time>2021-12-29T10:43:13Z</time>
      </trkpt>
      <trkpt lat="37.4199970" lon="-4.5955500">
        <ele>331.8</ele>
        <time>2021-12-29T10:43:14Z</time>
      </trkpt>
      <trkpt lat="37.4199970" lon="-4.5955950">
        <ele>331.8</ele>
        <time>2021-12-29T10:43:15Z</time>
      </trkpt>
      <trkpt lat="37.4199940" lon="-4.5956280">
        <ele>331.8</ele>
        <time>2021-12-29T10:43:16Z</time>
      </trkpt>
      <trkpt lat="37.4199870" lon="-4.5956820">
        <ele>331.8</ele>
        <time>2021-12-29T10:43:17Z</time>
      </trkpt>
      <trkpt lat="37.4199840" lon="-4.5957260">
        <ele>331.6</ele>
        <time>2021-12-29T10:43:18Z</time>
      </trkpt>
      <trkpt lat="37.4199740" lon="-4.5957760">
        <ele>331.6</ele>
        <time>2021-12-29T10:43:19Z</time>
      </trkpt>
      <trkpt lat="37.4199710" lon="-4.5958270">
        <ele>331.6</ele>
        <time>2021-12-29T10:43:20Z</time>
      </trkpt>
      <trkpt lat="37.4199650" lon="-4.5958770">
        <ele>331.6</ele>
        <time>2021-12-29T10:43:21Z</time>
      </trkpt>
      <trkpt lat="37.4199550" lon="-4.5959250">
        <ele>331.4</ele>
        <time>2021-12-29T10:43:22Z</time>
      </trkpt>
      <trkpt lat="37.4199490" lon="-4.5959750">
        <ele>331.4</ele>
        <time>2021-12-29T10:43:23Z</time>
      </trkpt>
      <trkpt lat="37.4199420" lon="-4.5960260">
        <ele>331.4</ele>
        <time>2021-12-29T10:43:24Z</time>
      </trkpt>
      <trkpt lat="37.4199330" lon="-4.5960750">
        <ele>331.4</ele>
        <time>2021-12-29T10:43:25Z</time>
      </trkpt>
      <trkpt lat="37.4199300" lon="-4.5961230">
        <ele>331.4</ele>
        <time>2021-12-29T10:43:26Z</time>
      </trkpt>
      <trkpt lat="37.4199300" lon="-4.5961680">
        <ele>331.4</ele>
        <time>2021-12-29T10:43:27Z</time>
      </trkpt>
      <trkpt lat="37.4199260" lon="-4.5962120">
        <ele>331.4</ele>
        <time>2021-12-29T10:43:28Z</time>
      </trkpt>
      <trkpt lat="37.4199260" lon="-4.5962550">
        <ele>331.2</ele>
        <time>2021-12-29T10:43:29Z</time>
      </trkpt>
      <trkpt lat="37.4199230" lon="-4.5962980">
        <ele>331.2</ele>
        <time>2021-12-29T10:43:30Z</time>
      </trkpt>
      <trkpt lat="37.4199230" lon="-4.5963440">
        <ele>331.2</ele>
        <time>2021-12-29T10:43:31Z</time>
      </trkpt>
      <trkpt lat="37.4199140" lon="-4.5963900">
        <ele>331.0</ele>
        <time>2021-12-29T10:43:32Z</time>
      </trkpt>
      <trkpt lat="37.4199100" lon="-4.5964360">
        <ele>331.0</ele>
        <time>2021-12-29T10:43:33Z</time>
      </trkpt>
      <trkpt lat="37.4199040" lon="-4.5964850">
        <ele>331.0</ele>
        <time>2021-12-29T10:43:34Z</time>
      </trkpt>
      <trkpt lat="37.4198940" lon="-4.5965230">
        <ele>330.8</ele>
        <time>2021-12-29T10:43:35Z</time>
      </trkpt>
      <trkpt lat="37.4198910" lon="-4.5965800">
        <ele>330.8</ele>
        <time>2021-12-29T10:43:36Z</time>
      </trkpt>
      <trkpt lat="37.4198850" lon="-4.5966280">
        <ele>330.6</ele>
        <time>2021-12-29T10:43:37Z</time>
      </trkpt>
      <trkpt lat="37.4198750" lon="-4.5966780">
        <ele>330.6</ele>
        <time>2021-12-29T10:43:38Z</time>
      </trkpt>
      <trkpt lat="37.4198720" lon="-4.5967170">
        <ele>330.6</ele>
        <time>2021-12-29T10:43:39Z</time>
      </trkpt>
      <trkpt lat="37.4198660" lon="-4.5967750">
        <ele>330.4</ele>
        <time>2021-12-29T10:43:40Z</time>
      </trkpt>
      <trkpt lat="37.4198560" lon="-4.5968220">
        <ele>330.4</ele>
        <time>2021-12-29T10:43:41Z</time>
      </trkpt>
      <trkpt lat="37.4198530" lon="-4.5968620">
        <ele>330.4</ele>
        <time>2021-12-29T10:43:42Z</time>
      </trkpt>
      <trkpt lat="37.4198500" lon="-4.5969020">
        <ele>330.4</ele>
        <time>2021-12-29T10:43:43Z</time>
      </trkpt>
      <trkpt lat="37.4198430" lon="-4.5969470">
        <ele>330.2</ele>
        <time>2021-12-29T10:43:44Z</time>
      </trkpt>
      <trkpt lat="37.4198340" lon="-4.5969950">
        <ele>330.2</ele>
        <time>2021-12-29T10:43:45Z</time>
      </trkpt>
      <trkpt lat="37.4198270" lon="-4.5970420">
        <ele>330.2</ele>
        <time>2021-12-29T10:43:46Z</time>
      </trkpt>
      <trkpt lat="37.4198240" lon="-4.5970880">
        <ele>330.2</ele>
        <time>2021-12-29T10:43:47Z</time>
      </trkpt>
      <trkpt lat="37.4198180" lon="-4.5971280">
        <ele>330.0</ele>
        <time>2021-12-29T10:43:48Z</time>
      </trkpt>
      <trkpt lat="37.4198110" lon="-4.5971900">
        <ele>330.0</ele>
        <time>2021-12-29T10:43:49Z</time>
      </trkpt>
      <trkpt lat="37.4197980" lon="-4.5972400">
        <ele>330.0</ele>
        <time>2021-12-29T10:43:50Z</time>
      </trkpt>
      <trkpt lat="37.4197950" lon="-4.5972900">
        <ele>329.8</ele>
        <time>2021-12-29T10:43:51Z</time>
      </trkpt>
      <trkpt lat="37.4197890" lon="-4.5973420">
        <ele>329.8</ele>
        <time>2021-12-29T10:43:52Z</time>
      </trkpt>
      <trkpt lat="37.4197860" lon="-4.5973940">
        <ele>329.8</ele>
        <time>2021-12-29T10:43:53Z</time>
      </trkpt>
      <trkpt lat="37.4197760" lon="-4.5974420">
        <ele>329.6</ele>
        <time>2021-12-29T10:43:54Z</time>
      </trkpt>
      <trkpt lat="37.4197730" lon="-4.5974880">
        <ele>329.6</ele>
        <time>2021-12-29T10:43:55Z</time>
      </trkpt>
      <trkpt lat="37.4197660" lon="-4.5975260">
        <ele>329.4</ele>
        <time>2021-12-29T10:43:56Z</time>
      </trkpt>
      <trkpt lat="37.4197630" lon="-4.5975750">
        <ele>329.4</ele>
        <time>2021-12-29T10:43:57Z</time>
      </trkpt>
      <trkpt lat="37.4197540" lon="-4.5976320">
        <ele>329.2</ele>
        <time>2021-12-29T10:43:58Z</time>
      </trkpt>
      <trkpt lat="37.4197470" lon="-4.5976770">
        <ele>329.2</ele>
        <time>2021-12-29T10:43:59Z</time>
      </trkpt>
      <trkpt lat="37.4197380" lon="-4.5977270">
        <ele>329.0</ele>
        <time>2021-12-29T10:44:00Z</time>
      </trkpt>
      <trkpt lat="37.4197340" lon="-4.5977680">
        <ele>329.0</ele>
        <time>2021-12-29T10:44:01Z</time>
      </trkpt>
      <trkpt lat="37.4197280" lon="-4.5978300">
        <ele>328.8</ele>
        <time>2021-12-29T10:44:02Z</time>
      </trkpt>
      <trkpt lat="37.4197250" lon="-4.5978800">
        <ele>328.8</ele>
        <time>2021-12-29T10:44:03Z</time>
      </trkpt>
      <trkpt lat="37.4197120" lon="-4.5979280">
        <ele>328.6</ele>
        <time>2021-12-29T10:44:04Z</time>
      </trkpt>
      <trkpt lat="37.4197060" lon="-4.5979750">
        <ele>328.6</ele>
        <time>2021-12-29T10:44:05Z</time>
      </trkpt>
      <trkpt lat="37.4196990" lon="-4.5980200">
        <ele>328.6</ele>
        <time>2021-12-29T10:44:06Z</time>
      </trkpt>
      <trkpt lat="37.4196960" lon="-4.5980700">
        <ele>328.4</ele>
        <time>2021-12-29T10:44:07Z</time>
      </trkpt>
      <trkpt lat="37.4196900" lon="-4.5981200">
        <ele>328.4</ele>
        <time>2021-12-29T10:44:08Z</time>
      </trkpt>
      <trkpt lat="37.4196800" lon="-4.5981680">
        <ele>328.4</ele>
        <time>2021-12-29T10:44:09Z</time>
      </trkpt>
      <trkpt lat="37.4196770" lon="-4.5982100">
        <ele>328.4</ele>
        <time>2021-12-29T10:44:10Z</time>
      </trkpt>
      <trkpt lat="37.4196700" lon="-4.5982700">
        <ele>328.4</ele>
        <time>2021-12-29T10:44:11Z</time>
      </trkpt>
      <trkpt lat="37.4196640" lon="-4.5983220">
        <ele>328.2</ele>
        <time>2021-12-29T10:44:12Z</time>
      </trkpt>
      <trkpt lat="37.4196540" lon="-4.5983720">
        <ele>328.2</ele>
        <time>2021-12-29T10:44:13Z</time>
      </trkpt>
      <trkpt lat="37.4196510" lon="-4.5984200">
        <ele>328.2</ele>
        <time>2021-12-29T10:44:14Z</time>
      </trkpt>
      <trkpt lat="37.4196450" lon="-4.5984600">
        <ele>328.0</ele>
        <time>2021-12-29T10:44:15Z</time>
      </trkpt>
      <trkpt lat="37.4196350" lon="-4.5985200">
        <ele>328.0</ele>
        <time>2021-12-29T10:44:16Z</time>
      </trkpt>
      <trkpt lat="37.4196290" lon="-4.5985680">
        <ele>327.8</ele>
        <time>2021-12-29T10:44:17Z</time>
      </trkpt>
      <trkpt lat="37.4196260" lon="-4.5986200">
        <ele>327.8</ele>
        <time>2021-12-29T10:44:18Z</time>
      </trkpt>
      <trkpt lat="37.4196160" lon="-4.5986600">
        <ele>327.8</ele>
        <time>2021-12-29T10:44:19Z</time>
      </trkpt>
      <trkpt lat="37.4196100" lon="-4.5987180">
        <ele>327.8</ele>
        <time>2021-12-29T10:44:20Z</time>
      </trkpt>
      <trkpt lat="37.4196000" lon="-4.5987670">
        <ele>327.6</ele>
        <time>2021-12-29T10:44:21Z</time>
      </trkpt>
      <trkpt lat="37.4195940" lon="-4.5988140">
        <ele>327.6</ele>
        <time>2021-12-29T10:44:22Z</time>
      </trkpt>
      <trkpt lat="37.4195870" lon="-4.5988620">
        <ele>327.6</ele>
        <time>2021-12-29T10:44:23Z</time>
      </trkpt>
      <trkpt lat="37.4195780" lon="-4.5989120">
        <ele>327.4</ele>
        <time>2021-12-29T10:44:24Z</time>
      </trkpt>
      <trkpt lat="37.4195740" lon="-4.5989620">
        <ele>327.4</ele>
        <time>2021-12-29T10:44:25Z</time>
      </trkpt>
      <trkpt lat="37.4195680" lon="-4.5990100">
        <ele>327.2</ele>
        <time>2021-12-29T10:44:26Z</time>
      </trkpt>
      <trkpt lat="37.4195650" lon="-4.5990580">
        <ele>327.2</ele>
        <time>2021-12-29T10:44:27Z</time>
      </trkpt>
      <trkpt lat="37.4195580" lon="-4.5990940">
        <ele>327.0</ele>
        <time>2021-12-29T10:44:28Z</time>
      </trkpt>
      <trkpt lat="37.4195520" lon="-4.5991470">
        <ele>327.0</ele>
        <time>2021-12-29T10:44:29Z</time>
      </trkpt>
      <trkpt lat="37.4195520" lon="-4.5991920">
        <ele>327.0</ele>
        <time>2021-12-29T10:44:30Z</time>
      </trkpt>
      <trkpt lat="37.4195460" lon="-4.5992360">
        <ele>326.8</ele>
        <time>2021-12-29T10:44:31Z</time>
      </trkpt>
      <trkpt lat="37.4195360" lon="-4.5992780">
        <ele>326.8</ele>
        <time>2021-12-29T10:44:32Z</time>
      </trkpt>
      <trkpt lat="37.4195360" lon="-4.5993120">
        <ele>326.8</ele>
        <time>2021-12-29T10:44:33Z</time>
      </trkpt>
      <trkpt lat="37.4195330" lon="-4.5993630">
        <ele>326.8</ele>
        <time>2021-12-29T10:44:34Z</time>
      </trkpt>
      <trkpt lat="37.4195300" lon="-4.5994050">
        <ele>326.8</ele>
        <time>2021-12-29T10:44:35Z</time>
      </trkpt>
      <trkpt lat="37.4195260" lon="-4.5994520">
        <ele>326.8</ele>
        <time>2021-12-29T10:44:36Z</time>
      </trkpt>
      <trkpt lat="37.4195200" lon="-4.5994900">
        <ele>326.6</ele>
        <time>2021-12-29T10:44:37Z</time>
      </trkpt>
      <trkpt lat="37.4195140" lon="-4.5995480">
        <ele>326.6</ele>
        <time>2021-12-29T10:44:38Z</time>
      </trkpt>
      <trkpt lat="37.4195100" lon="-4.5995980">
        <ele>326.6</ele>
        <time>2021-12-29T10:44:39Z</time>
      </trkpt>
      <trkpt lat="37.4195010" lon="-4.5996480">
        <ele>326.6</ele>
        <time>2021-12-29T10:44:40Z</time>
      </trkpt>
      <trkpt lat="37.4194940" lon="-4.5996970">
        <ele>326.6</ele>
        <time>2021-12-29T10:44:41Z</time>
      </trkpt>
      <trkpt lat="37.4194880" lon="-4.5997330">
        <ele>326.6</ele>
        <time>2021-12-29T10:44:42Z</time>
      </trkpt>
      <trkpt lat="37.4194820" lon="-4.5997880">
        <ele>326.6</ele>
        <time>2021-12-29T10:44:43Z</time>
      </trkpt>
      <trkpt lat="37.4194780" lon="-4.5998350">
        <ele>326.6</ele>
        <time>2021-12-29T10:44:44Z</time>
      </trkpt>
      <trkpt lat="37.4194720" lon="-4.5998740">
        <ele>326.6</ele>
        <time>2021-12-29T10:44:45Z</time>
      </trkpt>
      <trkpt lat="37.4194660" lon="-4.5999230">
        <ele>326.4</ele>
        <time>2021-12-29T10:44:46Z</time>
      </trkpt>
      <trkpt lat="37.4194590" lon="-4.5999720">
        <ele>326.4</ele>
        <time>2021-12-29T10:44:47Z</time>
      </trkpt>
      <trkpt lat="37.4194560" lon="-4.6000220">
        <ele>326.4</ele>
        <time>2021-12-29T10:44:48Z</time>
      </trkpt>
      <trkpt lat="37.4194500" lon="-4.6000730">
        <ele>326.4</ele>
        <time>2021-12-29T10:44:49Z</time>
      </trkpt>
      <trkpt lat="37.4194400" lon="-4.6001240">
        <ele>326.4</ele>
        <time>2021-12-29T10:44:50Z</time>
      </trkpt>
      <trkpt lat="37.4194340" lon="-4.6001750">
        <ele>326.2</ele>
        <time>2021-12-29T10:44:51Z</time>
      </trkpt>
      <trkpt lat="37.4194300" lon="-4.6002250">
        <ele>326.2</ele>
        <time>2021-12-29T10:44:52Z</time>
      </trkpt>
      <trkpt lat="37.4194270" lon="-4.6002750">
        <ele>326.2</ele>
        <time>2021-12-29T10:44:53Z</time>
      </trkpt>
      <trkpt lat="37.4194180" lon="-4.6003250">
        <ele>326.2</ele>
        <time>2021-12-29T10:44:54Z</time>
      </trkpt>
      <trkpt lat="37.4194140" lon="-4.6003770">
        <ele>326.2</ele>
        <time>2021-12-29T10:44:55Z</time>
      </trkpt>
      <trkpt lat="37.4194080" lon="-4.6004270">
        <ele>326.0</ele>
        <time>2021-12-29T10:44:56Z</time>
      </trkpt>
      <trkpt lat="37.4194020" lon="-4.6004770">
        <ele>326.0</ele>
        <time>2021-12-29T10:44:57Z</time>
      </trkpt>
      <trkpt lat="37.4193950" lon="-4.6005270">
        <ele>326.0</ele>
        <time>2021-12-29T10:44:58Z</time>
      </trkpt>
      <trkpt lat="37.4193890" lon="-4.6005780">
        <ele>326.0</ele>
        <time>2021-12-29T10:44:59Z</time>
      </trkpt>
      <trkpt lat="37.4193790" lon="-4.6006280">
        <ele>325.8</ele>
        <time>2021-12-29T10:45:00Z</time>
      </trkpt>
      <trkpt lat="37.4193760" lon="-4.6006780">
        <ele>325.8</ele>
        <time>2021-12-29T10:45:01Z</time>
      </trkpt>
      <trkpt lat="37.4193660" lon="-4.6007280">
        <ele>325.6</ele>
        <time>2021-12-29T10:45:02Z</time>
      </trkpt>
      <trkpt lat="37.4193570" lon="-4.6007870">
        <ele>325.6</ele>
        <time>2021-12-29T10:45:03Z</time>
      </trkpt>
      <trkpt lat="37.4193470" lon="-4.6008250">
        <ele>325.6</ele>
        <time>2021-12-29T10:45:04Z</time>
      </trkpt>
      <trkpt lat="37.4193410" lon="-4.6008720">
        <ele>325.6</ele>
        <time>2021-12-29T10:45:05Z</time>
      </trkpt>
      <trkpt lat="37.4193380" lon="-4.6009200">
        <ele>325.6</ele>
        <time>2021-12-29T10:45:06Z</time>
      </trkpt>
      <trkpt lat="37.4193310" lon="-4.6009680">
        <ele>325.4</ele>
        <time>2021-12-29T10:45:07Z</time>
      </trkpt>
      <trkpt lat="37.4193220" lon="-4.6010160">
        <ele>325.4</ele>
        <time>2021-12-29T10:45:08Z</time>
      </trkpt>
      <trkpt lat="37.4193150" lon="-4.6010660">
        <ele>325.4</ele>
        <time>2021-12-29T10:45:09Z</time>
      </trkpt>
      <trkpt lat="37.4193120" lon="-4.6011150">
        <ele>325.2</ele>
        <time>2021-12-29T10:45:10Z</time>
      </trkpt>
      <trkpt lat="37.4193020" lon="-4.6011620">
        <ele>325.2</ele>
        <time>2021-12-29T10:45:11Z</time>
      </trkpt>
      <trkpt lat="37.4192960" lon="-4.6012070">
        <ele>325.2</ele>
        <time>2021-12-29T10:45:12Z</time>
      </trkpt>
      <trkpt lat="37.4192900" lon="-4.6012540">
        <ele>325.0</ele>
        <time>2021-12-29T10:45:13Z</time>
      </trkpt>
      <trkpt lat="37.4192860" lon="-4.6012980">
        <ele>325.0</ele>
        <time>2021-12-29T10:45:14Z</time>
      </trkpt>
      <trkpt lat="37.4192770" lon="-4.6013450">
        <ele>325.0</ele>
        <time>2021-12-29T10:45:15Z</time>
      </trkpt>
      <trkpt lat="37.4192700" lon="-4.6013920">
        <ele>324.8</ele>
        <time>2021-12-29T10:45:16Z</time>
      </trkpt>
      <trkpt lat="37.4192580" lon="-4.6014400">
        <ele>324.8</ele>
        <time>2021-12-29T10:45:17Z</time>
      </trkpt>
      <trkpt lat="37.4192510" lon="-4.6014830">
        <ele>324.6</ele>
        <time>2021-12-29T10:45:18Z</time>
      </trkpt>
      <trkpt lat="37.4192380" lon="-4.6015280">
        <ele>324.6</ele>
        <time>2021-12-29T10:45:19Z</time>
      </trkpt>
      <trkpt lat="37.4192320" lon="-4.6015740">
        <ele>324.6</ele>
        <time>2021-12-29T10:45:20Z</time>
      </trkpt>
      <trkpt lat="37.4192190" lon="-4.6016170">
        <ele>324.4</ele>
        <time>2021-12-29T10:45:21Z</time>
      </trkpt>
      <trkpt lat="37.4192130" lon="-4.6016620">
        <ele>324.2</ele>
        <time>2021-12-29T10:45:22Z</time>
      </trkpt>
      <trkpt lat="37.4191970" lon="-4.6017060">
        <ele>324.2</ele>
        <time>2021-12-29T10:45:23Z</time>
      </trkpt>
      <trkpt lat="37.4191900" lon="-4.6017530">
        <ele>324.0</ele>
        <time>2021-12-29T10:45:24Z</time>
      </trkpt>
      <trkpt lat="37.4191740" lon="-4.6018020">
        <ele>324.0</ele>
        <time>2021-12-29T10:45:25Z</time>
      </trkpt>
      <trkpt lat="37.4191620" lon="-4.6018520">
        <ele>323.8</ele>
        <time>2021-12-29T10:45:26Z</time>
      </trkpt>
      <trkpt lat="37.4191490" lon="-4.6018980">
        <ele>323.8</ele>
        <time>2021-12-29T10:45:27Z</time>
      </trkpt>
      <trkpt lat="37.4191360" lon="-4.6019440">
        <ele>323.6</ele>
        <time>2021-12-29T10:45:28Z</time>
      </trkpt>
      <trkpt lat="37.4191200" lon="-4.6019900">
        <ele>323.6</ele>
        <time>2021-12-29T10:45:29Z</time>
      </trkpt>
      <trkpt lat="37.4191040" lon="-4.6020360">
        <ele>323.6</ele>
        <time>2021-12-29T10:45:30Z</time>
      </trkpt>
      <trkpt lat="37.4190910" lon="-4.6020780">
        <ele>323.6</ele>
        <time>2021-12-29T10:45:31Z</time>
      </trkpt>
      <trkpt lat="37.4190750" lon="-4.6021200">
        <ele>323.4</ele>
        <time>2021-12-29T10:45:32Z</time>
      </trkpt>
      <trkpt lat="37.4190620" lon="-4.6021620">
        <ele>323.4</ele>
        <time>2021-12-29T10:45:33Z</time>
      </trkpt>
      <trkpt lat="37.4190500" lon="-4.6022050">
        <ele>323.4</ele>
        <time>2021-12-29T10:45:34Z</time>
      </trkpt>
      <trkpt lat="37.4190370" lon="-4.6022480">
        <ele>323.2</ele>
        <time>2021-12-29T10:45:35Z</time>
      </trkpt>
      <trkpt lat="37.4190210" lon="-4.6022940">
        <ele>323.2</ele>
        <time>2021-12-29T10:45:36Z</time>
      </trkpt>
      <trkpt lat="37.4190050" lon="-4.6023370">
        <ele>323.2</ele>
        <time>2021-12-29T10:45:37Z</time>
      </trkpt>
      <trkpt lat="37.4189820" lon="-4.6023900">
        <ele>323.0</ele>
        <time>2021-12-29T10:45:38Z</time>
      </trkpt>
      <trkpt lat="37.4189600" lon="-4.6024330">
        <ele>323.0</ele>
        <time>2021-12-29T10:45:39Z</time>
      </trkpt>
      <trkpt lat="37.4189440" lon="-4.6024680">
        <ele>323.0</ele>
        <time>2021-12-29T10:45:40Z</time>
      </trkpt>
      <trkpt lat="37.4189310" lon="-4.6025100">
        <ele>322.8</ele>
        <time>2021-12-29T10:45:41Z</time>
      </trkpt>
      <trkpt lat="37.4189150" lon="-4.6025520">
        <ele>322.8</ele>
        <time>2021-12-29T10:45:42Z</time>
      </trkpt>
      <trkpt lat="37.4188990" lon="-4.6026000">
        <ele>322.8</ele>
        <time>2021-12-29T10:45:43Z</time>
      </trkpt>
      <trkpt lat="37.4188830" lon="-4.6026370">
        <ele>322.6</ele>
        <time>2021-12-29T10:45:44Z</time>
      </trkpt>
      <trkpt lat="37.4188740" lon="-4.6026670">
        <ele>322.6</ele>
        <time>2021-12-29T10:45:45Z</time>
      </trkpt>
      <trkpt lat="37.4188580" lon="-4.6027030">
        <ele>322.6</ele>
        <time>2021-12-29T10:45:46Z</time>
      </trkpt>
      <trkpt lat="37.4188350" lon="-4.6027450">
        <ele>322.4</ele>
        <time>2021-12-29T10:45:47Z</time>
      </trkpt>
      <trkpt lat="37.4188160" lon="-4.6027830">
        <ele>322.4</ele>
        <time>2021-12-29T10:45:48Z</time>
      </trkpt>
      <trkpt lat="37.4187970" lon="-4.6028230">
        <ele>322.2</ele>
        <time>2021-12-29T10:45:49Z</time>
      </trkpt>
      <trkpt lat="37.4187710" lon="-4.6028650">
        <ele>322.2</ele>
        <time>2021-12-29T10:45:50Z</time>
      </trkpt>
      <trkpt lat="37.4187460" lon="-4.6029070">
        <ele>322.0</ele>
        <time>2021-12-29T10:45:51Z</time>
      </trkpt>
      <trkpt lat="37.4187230" lon="-4.6029500">
        <ele>322.0</ele>
        <time>2021-12-29T10:45:52Z</time>
      </trkpt>
      <trkpt lat="37.4187010" lon="-4.6029920">
        <ele>322.0</ele>
        <time>2021-12-29T10:45:53Z</time>
      </trkpt>
      <trkpt lat="37.4186780" lon="-4.6030320">
        <ele>322.0</ele>
        <time>2021-12-29T10:45:54Z</time>
      </trkpt>
      <trkpt lat="37.4186530" lon="-4.6030720">
        <ele>322.0</ele>
        <time>2021-12-29T10:45:55Z</time>
      </trkpt>
      <trkpt lat="37.4186340" lon="-4.6031120">
        <ele>322.0</ele>
        <time>2021-12-29T10:45:56Z</time>
      </trkpt>
      <trkpt lat="37.4186050" lon="-4.6031520">
        <ele>322.0</ele>
        <time>2021-12-29T10:45:57Z</time>
      </trkpt>
      <trkpt lat="37.4185820" lon="-4.6031930">
        <ele>322.0</ele>
        <time>2021-12-29T10:45:58Z</time>
      </trkpt>
      <trkpt lat="37.4185570" lon="-4.6032320">
        <ele>321.8</ele>
        <time>2021-12-29T10:45:59Z</time>
      </trkpt>
      <trkpt lat="37.4185280" lon="-4.6032720">
        <ele>321.8</ele>
        <time>2021-12-29T10:46:00Z</time>
      </trkpt>
      <trkpt lat="37.4185060" lon="-4.6033100">
        <ele>321.6</ele>
        <time>2021-12-29T10:46:01Z</time>
      </trkpt>
      <trkpt lat="37.4184800" lon="-4.6033500">
        <ele>321.6</ele>
        <time>2021-12-29T10:46:02Z</time>
      </trkpt>
      <trkpt lat="37.4184540" lon="-4.6033870">
        <ele>321.6</ele>
        <time>2021-12-29T10:46:03Z</time>
      </trkpt>
      <trkpt lat="37.4184290" lon="-4.6034250">
        <ele>321.4</ele>
        <time>2021-12-29T10:46:04Z</time>
      </trkpt>
      <trkpt lat="37.4184030" lon="-4.6034600">
        <ele>321.4</ele>
        <time>2021-12-29T10:46:05Z</time>
      </trkpt>
      <trkpt lat="37.4183810" lon="-4.6034980">
        <ele>321.2</ele>
        <time>2021-12-29T10:46:06Z</time>
      </trkpt>
      <trkpt lat="37.4183580" lon="-4.6035320">
        <ele>321.0</ele>
        <time>2021-12-29T10:46:07Z</time>
      </trkpt>
      <trkpt lat="37.4183360" lon="-4.6035670">
        <ele>321.0</ele>
        <time>2021-12-29T10:46:08Z</time>
      </trkpt>
      <trkpt lat="37.4183140" lon="-4.6035980">
        <ele>321.0</ele>
        <time>2021-12-29T10:46:09Z</time>
      </trkpt>
      <trkpt lat="37.4182940" lon="-4.6036320">
        <ele>321.0</ele>
        <time>2021-12-29T10:46:10Z</time>
      </trkpt>
      <trkpt lat="37.4182660" lon="-4.6036620">
        <ele>320.8</ele>
        <time>2021-12-29T10:46:11Z</time>
      </trkpt>
      <trkpt lat="37.4182400" lon="-4.6036920">
        <ele>320.8</ele>
        <time>2021-12-29T10:46:12Z</time>
      </trkpt>
      <trkpt lat="37.4182140" lon="-4.6037250">
        <ele>320.8</ele>
        <time>2021-12-29T10:46:13Z</time>
      </trkpt>
      <trkpt lat="37.4181890" lon="-4.6037580">
        <ele>320.6</ele>
        <time>2021-12-29T10:46:14Z</time>
      </trkpt>
      <trkpt lat="37.4181630" lon="-4.6037900">
        <ele>320.6</ele>
        <time>2021-12-29T10:46:15Z</time>
      </trkpt>
      <trkpt lat="37.4181380" lon="-4.6038230">
        <ele>320.4</ele>
        <time>2021-12-29T10:46:16Z</time>
      </trkpt>
      <trkpt lat="37.4181090" lon="-4.6038580">
        <ele>320.4</ele>
        <time>2021-12-29T10:46:17Z</time>
      </trkpt>
      <trkpt lat="37.4180860" lon="-4.6038930">
        <ele>320.2</ele>
        <time>2021-12-29T10:46:18Z</time>
      </trkpt>
      <trkpt lat="37.4180580" lon="-4.6039370">
        <ele>320.2</ele>
        <time>2021-12-29T10:46:19Z</time>
      </trkpt>
      <trkpt lat="37.4180380" lon="-4.6039650">
        <ele>320.2</ele>
        <time>2021-12-29T10:46:20Z</time>
      </trkpt>
      <trkpt lat="37.4180060" lon="-4.6040000">
        <ele>320.0</ele>
        <time>2021-12-29T10:46:21Z</time>
      </trkpt>
      <trkpt lat="37.4179810" lon="-4.6040350">
        <ele>320.0</ele>
        <time>2021-12-29T10:46:22Z</time>
      </trkpt>
      <trkpt lat="37.4179580" lon="-4.6040700">
        <ele>320.0</ele>
        <time>2021-12-29T10:46:23Z</time>
      </trkpt>
      <trkpt lat="37.4179260" lon="-4.6041020">
        <ele>319.8</ele>
        <time>2021-12-29T10:46:24Z</time>
      </trkpt>
      <trkpt lat="37.4179010" lon="-4.6041350">
        <ele>319.8</ele>
        <time>2021-12-29T10:46:25Z</time>
      </trkpt>
      <trkpt lat="37.4178720" lon="-4.6041680">
        <ele>319.8</ele>
        <time>2021-12-29T10:46:26Z</time>
      </trkpt>
      <trkpt lat="37.4178460" lon="-4.6042020">
        <ele>319.6</ele>
        <time>2021-12-29T10:46:27Z</time>
      </trkpt>
      <trkpt lat="37.4178210" lon="-4.6042370">
        <ele>319.6</ele>
        <time>2021-12-29T10:46:28Z</time>
      </trkpt>
      <trkpt lat="37.4177860" lon="-4.6042730">
        <ele>319.4</ele>
        <time>2021-12-29T10:46:29Z</time>
      </trkpt>
      <trkpt lat="37.4177540" lon="-4.6043080">
        <ele>319.4</ele>
        <time>2021-12-29T10:46:30Z</time>
      </trkpt>
      <trkpt lat="37.4177280" lon="-4.6043450">
        <ele>319.2</ele>
        <time>2021-12-29T10:46:31Z</time>
      </trkpt>
      <trkpt lat="37.4176990" lon="-4.6043820">
        <ele>319.2</ele>
        <time>2021-12-29T10:46:32Z</time>
      </trkpt>
      <trkpt lat="37.4176670" lon="-4.6044180">
        <ele>319.0</ele>
        <time>2021-12-29T10:46:33Z</time>
      </trkpt>
      <trkpt lat="37.4176380" lon="-4.6044580">
        <ele>319.0</ele>
        <time>2021-12-29T10:46:34Z</time>
      </trkpt>
      <trkpt lat="37.4176060" lon="-4.6044950">
        <ele>319.0</ele>
        <time>2021-12-29T10:46:35Z</time>
      </trkpt>
      <trkpt lat="37.4175740" lon="-4.6045330">
        <ele>319.0</ele>
        <time>2021-12-29T10:46:36Z</time>
      </trkpt>
      <trkpt lat="37.4175460" lon="-4.6045720">
        <ele>319.0</ele>
        <time>2021-12-29T10:46:37Z</time>
      </trkpt>
      <trkpt lat="37.4175200" lon="-4.6046120">
        <ele>318.8</ele>
        <time>2021-12-29T10:46:38Z</time>
      </trkpt>
      <trkpt lat="37.4174880" lon="-4.6046480">
        <ele>318.8</ele>
        <time>2021-12-29T10:46:39Z</time>
      </trkpt>
      <trkpt lat="37.4174560" lon="-4.6046850">
        <ele>318.8</ele>
        <time>2021-12-29T10:46:40Z</time>
      </trkpt>
      <trkpt lat="37.4174300" lon="-4.6047240">
        <ele>318.6</ele>
        <time>2021-12-29T10:46:41Z</time>
      </trkpt>
      <trkpt lat="37.4174020" lon="-4.6047640">
        <ele>318.6</ele>
        <time>2021-12-29T10:46:42Z</time>
      </trkpt>
      <trkpt lat="37.4173700" lon="-4.6048000">
        <ele>318.4</ele>
        <time>2021-12-29T10:46:43Z</time>
      </trkpt>
      <trkpt lat="37.4173440" lon="-4.6048360">
        <ele>318.4</ele>
        <time>2021-12-29T10:46:44Z</time>
      </trkpt>
      <trkpt lat="37.4173120" lon="-4.6048750">
        <ele>318.4</ele>
        <time>2021-12-29T10:46:45Z</time>
      </trkpt>
      <trkpt lat="37.4172830" lon="-4.6049130">
        <ele>318.2</ele>
        <time>2021-12-29T10:46:46Z</time>
      </trkpt>
      <trkpt lat="37.4172510" lon="-4.6049530">
        <ele>318.2</ele>
        <time>2021-12-29T10:46:47Z</time>
      </trkpt>
      <trkpt lat="37.4172220" lon="-4.6049920">
        <ele>318.2</ele>
        <time>2021-12-29T10:46:48Z</time>
      </trkpt>
      <trkpt lat="37.4171940" lon="-4.6050330">
        <ele>318.0</ele>
        <time>2021-12-29T10:46:49Z</time>
      </trkpt>
      <trkpt lat="37.4171650" lon="-4.6050750">
        <ele>318.0</ele>
        <time>2021-12-29T10:46:50Z</time>
      </trkpt>
      <trkpt lat="37.4171330" lon="-4.6051150">
        <ele>317.8</ele>
        <time>2021-12-29T10:46:51Z</time>
      </trkpt>
      <trkpt lat="37.4170980" lon="-4.6051570">
        <ele>317.8</ele>
        <time>2021-12-29T10:46:52Z</time>
      </trkpt>
      <trkpt lat="37.4170690" lon="-4.6051960">
        <ele>317.6</ele>
        <time>2021-12-29T10:46:53Z</time>
      </trkpt>
      <trkpt lat="37.4170340" lon="-4.6052360">
        <ele>317.4</ele>
        <time>2021-12-29T10:46:54Z</time>
      </trkpt>
      <trkpt lat="37.4169980" lon="-4.6052760">
        <ele>317.4</ele>
        <time>2021-12-29T10:46:55Z</time>
      </trkpt>
      <trkpt lat="37.4169660" lon="-4.6053180">
        <ele>317.2</ele>
        <time>2021-12-29T10:46:56Z</time>
      </trkpt>
      <trkpt lat="37.4169340" lon="-4.6053600">
        <ele>317.2</ele>
        <time>2021-12-29T10:46:57Z</time>
      </trkpt>
      <trkpt lat="37.4168960" lon="-4.6054020">
        <ele>317.2</ele>
        <time>2021-12-29T10:46:58Z</time>
      </trkpt>
      <trkpt lat="37.4168670" lon="-4.6054470">
        <ele>317.0</ele>
        <time>2021-12-29T10:46:59Z</time>
      </trkpt>
      <trkpt lat="37.4168320" lon="-4.6054940">
        <ele>317.0</ele>
        <time>2021-12-29T10:47:00Z</time>
      </trkpt>
      <trkpt lat="37.4167970" lon="-4.6055350">
        <ele>316.8</ele>
        <time>2021-12-29T10:47:01Z</time>
      </trkpt>
      <trkpt lat="37.4167680" lon="-4.6055750">
        <ele>316.8</ele>
        <time>2021-12-29T10:47:02Z</time>
      </trkpt>
      <trkpt lat="37.4167360" lon="-4.6056130">
        <ele>316.8</ele>
        <time>2021-12-29T10:47:03Z</time>
      </trkpt>
      <trkpt lat="37.4167070" lon="-4.6056520">
        <ele>316.6</ele>
        <time>2021-12-29T10:47:04Z</time>
      </trkpt>
      <trkpt lat="37.4166780" lon="-4.6056880">
        <ele>316.6</ele>
        <time>2021-12-29T10:47:05Z</time>
      </trkpt>
      <trkpt lat="37.4166590" lon="-4.6057170">
        <ele>316.4</ele>
        <time>2021-12-29T10:47:06Z</time>
      </trkpt>
      <trkpt lat="37.4166460" lon="-4.6057330">
        <ele>316.4</ele>
        <time>2021-12-29T10:47:07Z</time>
      </trkpt>
      <trkpt lat="37.4166460" lon="-4.6057330">
        <ele>316.4</ele>
        <time>2021-12-29T10:47:08Z</time>
      </trkpt>
      <trkpt lat="37.4166300" lon="-4.6057520">
        <ele>316.2</ele>
        <time>2021-12-29T10:47:09Z</time>
      </trkpt>
      <trkpt lat="37.4166300" lon="-4.6057520">
        <ele>316.2</ele>
        <time>2021-12-29T10:47:10Z</time>
      </trkpt>
      <trkpt lat="37.4166300" lon="-4.6057520">
        <ele>316.0</ele>
        <time>2021-12-29T10:47:11Z</time>
      </trkpt>
      <trkpt lat="37.4166300" lon="-4.6057520">
        <ele>316.0</ele>
        <time>2021-12-29T10:47:12Z</time>
      </trkpt>
      <trkpt lat="37.4166300" lon="-4.6057520">
        <ele>316.0</ele>
        <time>2021-12-29T10:47:13Z</time>
      </trkpt>
      <trkpt lat="37.4166300" lon="-4.6057520">
        <ele>315.8</ele>
        <time>2021-12-29T10:47:14Z</time>
      </trkpt>
      <trkpt lat="37.4166300" lon="-4.6057520">
        <ele>315.8</ele>
        <time>2021-12-29T10:47:44Z</time>
      </trkpt>
      <trkpt lat="37.4165380" lon="-4.6058600">
        <ele>313.8</ele>
        <time>2021-12-29T10:47:45Z</time>
      </trkpt>
      <trkpt lat="37.4165150" lon="-4.6058860">
        <ele>313.8</ele>
        <time>2021-12-29T10:47:46Z</time>
      </trkpt>
      <trkpt lat="37.4164900" lon="-4.6059180">
        <ele>313.8</ele>
        <time>2021-12-29T10:47:47Z</time>
      </trkpt>
      <trkpt lat="37.4164670" lon="-4.6059550">
        <ele>313.6</ele>
        <time>2021-12-29T10:47:48Z</time>
      </trkpt>
      <trkpt lat="37.4164420" lon="-4.6059920">
        <ele>313.8</ele>
        <time>2021-12-29T10:47:49Z</time>
      </trkpt>
      <trkpt lat="37.4164190" lon="-4.6060270">
        <ele>313.8</ele>
        <time>2021-12-29T10:47:50Z</time>
      </trkpt>
      <trkpt lat="37.4163940" lon="-4.6060620">
        <ele>313.8</ele>
        <time>2021-12-29T10:47:51Z</time>
      </trkpt>
      <trkpt lat="37.4163710" lon="-4.6060950">
        <ele>313.6</ele>
        <time>2021-12-29T10:47:52Z</time>
      </trkpt>
      <trkpt lat="37.4163420" lon="-4.6061250">
        <ele>313.6</ele>
        <time>2021-12-29T10:47:53Z</time>
      </trkpt>
      <trkpt lat="37.4163200" lon="-4.6061580">
        <ele>313.6</ele>
        <time>2021-12-29T10:47:54Z</time>
      </trkpt>
      <trkpt lat="37.4162980" lon="-4.6061920">
        <ele>313.6</ele>
        <time>2021-12-29T10:47:55Z</time>
      </trkpt>
      <trkpt lat="37.4162750" lon="-4.6062230">
        <ele>313.6</ele>
        <time>2021-12-29T10:47:56Z</time>
      </trkpt>
      <trkpt lat="37.4162530" lon="-4.6062560">
        <ele>313.4</ele>
        <time>2021-12-29T10:47:57Z</time>
      </trkpt>
      <trkpt lat="37.4162300" lon="-4.6062850">
        <ele>313.4</ele>
        <time>2021-12-29T10:47:58Z</time>
      </trkpt>
      <trkpt lat="37.4162110" lon="-4.6063100">
        <ele>313.4</ele>
        <time>2021-12-29T10:47:59Z</time>
      </trkpt>
      <trkpt lat="37.4161920" lon="-4.6063350">
        <ele>313.4</ele>
        <time>2021-12-29T10:48:00Z</time>
      </trkpt>
      <trkpt lat="37.4161920" lon="-4.6063350">
        <ele>313.4</ele>
        <time>2021-12-29T10:48:01Z</time>
      </trkpt>
      <trkpt lat="37.4161700" lon="-4.6063600">
        <ele>313.4</ele>
        <time>2021-12-29T10:48:02Z</time>
      </trkpt>
      <trkpt lat="37.4161700" lon="-4.6063600">
        <ele>313.4</ele>
        <time>2021-12-29T10:48:03Z</time>
      </trkpt>
      <trkpt lat="37.4161500" lon="-4.6063850">
        <ele>313.4</ele>
        <time>2021-12-29T10:48:04Z</time>
      </trkpt>
      <trkpt lat="37.4161500" lon="-4.6063850">
        <ele>313.4</ele>
        <time>2021-12-29T10:48:05Z</time>
      </trkpt>
      <trkpt lat="37.4161220" lon="-4.6064150">
        <ele>313.2</ele>
        <time>2021-12-29T10:48:06Z</time>
      </trkpt>
      <trkpt lat="37.4161120" lon="-4.6064350">
        <ele>313.2</ele>
        <time>2021-12-29T10:48:07Z</time>
      </trkpt>
      <trkpt lat="37.4160960" lon="-4.6064550">
        <ele>313.2</ele>
        <time>2021-12-29T10:48:08Z</time>
      </trkpt>
      <trkpt lat="37.4160770" lon="-4.6064770">
        <ele>313.2</ele>
        <time>2021-12-29T10:48:09Z</time>
      </trkpt>
      <trkpt lat="37.4160580" lon="-4.6065000">
        <ele>313.2</ele>
        <time>2021-12-29T10:48:10Z</time>
      </trkpt>
      <trkpt lat="37.4160380" lon="-4.6065250">
        <ele>313.2</ele>
        <time>2021-12-29T10:48:11Z</time>
      </trkpt>
      <trkpt lat="37.4160130" lon="-4.6065480">
        <ele>313.2</ele>
        <time>2021-12-29T10:48:12Z</time>
      </trkpt>
      <trkpt lat="37.4159900" lon="-4.6065750">
        <ele>313.0</ele>
        <time>2021-12-29T10:48:13Z</time>
      </trkpt>
      <trkpt lat="37.4159650" lon="-4.6066050">
        <ele>313.0</ele>
        <time>2021-12-29T10:48:14Z</time>
      </trkpt>
      <trkpt lat="37.4159420" lon="-4.6066330">
        <ele>313.0</ele>
        <time>2021-12-29T10:48:15Z</time>
      </trkpt>
      <trkpt lat="37.4159170" lon="-4.6066630">
        <ele>312.8</ele>
        <time>2021-12-29T10:48:16Z</time>
      </trkpt>
      <trkpt lat="37.4159010" lon="-4.6066860">
        <ele>312.8</ele>
        <time>2021-12-29T10:48:17Z</time>
      </trkpt>
      <trkpt lat="37.4158850" lon="-4.6066970">
        <ele>312.8</ele>
        <time>2021-12-29T10:48:18Z</time>
      </trkpt>
      <trkpt lat="37.4158850" lon="-4.6066970">
        <ele>312.8</ele>
        <time>2021-12-29T10:48:19Z</time>
      </trkpt>
      <trkpt lat="37.4158850" lon="-4.6066970">
        <ele>312.8</ele>
        <time>2021-12-29T10:48:20Z</time>
      </trkpt>
      <trkpt lat="37.4158850" lon="-4.6066970">
        <ele>312.8</ele>
        <time>2021-12-29T10:48:21Z</time>
      </trkpt>
      <trkpt lat="37.4158850" lon="-4.6066970">
        <ele>312.8</ele>
        <time>2021-12-29T10:48:22Z</time>
      </trkpt>
      <trkpt lat="37.4158850" lon="-4.6066970">
        <ele>312.8</ele>
        <time>2021-12-29T10:48:23Z</time>
      </trkpt>
      <trkpt lat="37.4158850" lon="-4.6066970">
        <ele>312.6</ele>
        <time>2021-12-29T10:48:24Z</time>
      </trkpt>
      <trkpt lat="37.4158850" lon="-4.6066970">
        <ele>312.6</ele>
        <time>2021-12-29T10:48:53Z</time>
      </trkpt>
      <trkpt lat="37.4157820" lon="-4.6068300">
        <ele>311.2</ele>
        <time>2021-12-29T10:48:54Z</time>
      </trkpt>
      <trkpt lat="37.4157600" lon="-4.6068570">
        <ele>311.2</ele>
        <time>2021-12-29T10:48:55Z</time>
      </trkpt>
      <trkpt lat="37.4157340" lon="-4.6068850">
        <ele>311.2</ele>
        <time>2021-12-29T10:48:56Z</time>
      </trkpt>
      <trkpt lat="37.4157120" lon="-4.6069120">
        <ele>311.2</ele>
        <time>2021-12-29T10:48:57Z</time>
      </trkpt>
      <trkpt lat="37.4156860" lon="-4.6069360">
        <ele>311.2</ele>
        <time>2021-12-29T10:48:58Z</time>
      </trkpt>
      <trkpt lat="37.4156670" lon="-4.6069620">
        <ele>311.2</ele>
        <time>2021-12-29T10:48:59Z</time>
      </trkpt>
      <trkpt lat="37.4156540" lon="-4.6069860">
        <ele>311.0</ele>
        <time>2021-12-29T10:49:00Z</time>
      </trkpt>
      <trkpt lat="37.4156350" lon="-4.6070080">
        <ele>311.0</ele>
        <time>2021-12-29T10:49:01Z</time>
      </trkpt>
      <trkpt lat="37.4156160" lon="-4.6070280">
        <ele>311.2</ele>
        <time>2021-12-29T10:49:02Z</time>
      </trkpt>
      <trkpt lat="37.4155870" lon="-4.6070570">
        <ele>311.2</ele>
        <time>2021-12-29T10:49:03Z</time>
      </trkpt>
      <trkpt lat="37.4155740" lon="-4.6070750">
        <ele>311.2</ele>
        <time>2021-12-29T10:49:04Z</time>
      </trkpt>
      <trkpt lat="37.4155580" lon="-4.6071000">
        <ele>311.2</ele>
        <time>2021-12-29T10:49:05Z</time>
      </trkpt>
      <trkpt lat="37.4155360" lon="-4.6071280">
        <ele>311.4</ele>
        <time>2021-12-29T10:49:06Z</time>
      </trkpt>
      <trkpt lat="37.4155170" lon="-4.6071550">
        <ele>311.4</ele>
        <time>2021-12-29T10:49:07Z</time>
      </trkpt>
      <trkpt lat="37.4154980" lon="-4.6071800">
        <ele>311.4</ele>
        <time>2021-12-29T10:49:08Z</time>
      </trkpt>
      <trkpt lat="37.4154780" lon="-4.6072040">
        <ele>311.4</ele>
        <time>2021-12-29T10:49:09Z</time>
      </trkpt>
      <trkpt lat="37.4154590" lon="-4.6072270">
        <ele>311.4</ele>
        <time>2021-12-29T10:49:10Z</time>
      </trkpt>
      <trkpt lat="37.4154400" lon="-4.6072500">
        <ele>311.4</ele>
        <time>2021-12-29T10:49:11Z</time>
      </trkpt>
      <trkpt lat="37.4154210" lon="-4.6072720">
        <ele>311.4</ele>
        <time>2021-12-29T10:49:12Z</time>
      </trkpt>
      <trkpt lat="37.4154020" lon="-4.6072950">
        <ele>311.4</ele>
        <time>2021-12-29T10:49:13Z</time>
      </trkpt>
      <trkpt lat="37.4153820" lon="-4.6073150">
        <ele>311.4</ele>
        <time>2021-12-29T10:49:14Z</time>
      </trkpt>
      <trkpt lat="37.4153630" lon="-4.6073380">
        <ele>311.6</ele>
        <time>2021-12-29T10:49:15Z</time>
      </trkpt>
      <trkpt lat="37.4153440" lon="-4.6073620">
        <ele>311.6</ele>
        <time>2021-12-29T10:49:16Z</time>
      </trkpt>
      <trkpt lat="37.4153280" lon="-4.6073850">
        <ele>311.6</ele>
        <time>2021-12-29T10:49:17Z</time>
      </trkpt>
      <trkpt lat="37.4153150" lon="-4.6074070">
        <ele>311.6</ele>
        <time>2021-12-29T10:49:18Z</time>
      </trkpt>
      <trkpt lat="37.4152990" lon="-4.6074230">
        <ele>311.6</ele>
        <time>2021-12-29T10:49:19Z</time>
      </trkpt>
      <trkpt lat="37.4152990" lon="-4.6074230">
        <ele>311.6</ele>
        <time>2021-12-29T10:49:20Z</time>
      </trkpt>
      <trkpt lat="37.4152800" lon="-4.6074570">
        <ele>311.6</ele>
        <time>2021-12-29T10:49:21Z</time>
      </trkpt>
      <trkpt lat="37.4152670" lon="-4.6074750">
        <ele>311.6</ele>
        <time>2021-12-29T10:49:22Z</time>
      </trkpt>
      <trkpt lat="37.4152480" lon="-4.6074950">
        <ele>311.6</ele>
        <time>2021-12-29T10:49:23Z</time>
      </trkpt>
      <trkpt lat="37.4152480" lon="-4.6074950">
        <ele>311.4</ele>
        <time>2021-12-29T10:49:24Z</time>
      </trkpt>
      <trkpt lat="37.4152190" lon="-4.6075270">
        <ele>311.4</ele>
        <time>2021-12-29T10:49:25Z</time>
      </trkpt>
      <trkpt lat="37.4151940" lon="-4.6075610">
        <ele>311.4</ele>
        <time>2021-12-29T10:49:26Z</time>
      </trkpt>
      <trkpt lat="37.4151840" lon="-4.6075750">
        <ele>311.6</ele>
        <time>2021-12-29T10:49:27Z</time>
      </trkpt>
      <trkpt lat="37.4151680" lon="-4.6075940">
        <ele>311.4</ele>
        <time>2021-12-29T10:49:28Z</time>
      </trkpt>
      <trkpt lat="37.4151490" lon="-4.6076180">
        <ele>311.4</ele>
        <time>2021-12-29T10:49:29Z</time>
      </trkpt>
      <trkpt lat="37.4151260" lon="-4.6076430">
        <ele>311.4</ele>
        <time>2021-12-29T10:49:30Z</time>
      </trkpt>
      <trkpt lat="37.4151070" lon="-4.6076660">
        <ele>311.4</ele>
        <time>2021-12-29T10:49:31Z</time>
      </trkpt>
      <trkpt lat="37.4150910" lon="-4.6076830">
        <ele>311.4</ele>
        <time>2021-12-29T10:49:32Z</time>
      </trkpt>
      <trkpt lat="37.4150910" lon="-4.6076830">
        <ele>311.4</ele>
        <time>2021-12-29T10:49:33Z</time>
      </trkpt>
      <trkpt lat="37.4150910" lon="-4.6076830">
        <ele>311.4</ele>
        <time>2021-12-29T10:49:34Z</time>
      </trkpt>
      <trkpt lat="37.4150910" lon="-4.6076830">
        <ele>311.4</ele>
        <time>2021-12-29T10:49:35Z</time>
      </trkpt>
      <trkpt lat="37.4150910" lon="-4.6076830">
        <ele>311.4</ele>
        <time>2021-12-29T10:49:36Z</time>
      </trkpt>
      <trkpt lat="37.4150910" lon="-4.6076830">
        <ele>311.4</ele>
        <time>2021-12-29T10:49:37Z</time>
      </trkpt>
      <trkpt lat="37.4150910" lon="-4.6076830">
        <ele>311.4</ele>
        <time>2021-12-29T10:49:38Z</time>
      </trkpt>
      <trkpt lat="37.4150910" lon="-4.6076830">
        <ele>311.4</ele>
        <time>2021-12-29T10:50:29Z</time>
      </trkpt>
      <trkpt lat="37.4149630" lon="-4.6078380">
        <ele>312.8</ele>
        <time>2021-12-29T10:50:30Z</time>
      </trkpt>
      <trkpt lat="37.4149220" lon="-4.6078920">
        <ele>312.8</ele>
        <time>2021-12-29T10:50:31Z</time>
      </trkpt>
      <trkpt lat="37.4149060" lon="-4.6079120">
        <ele>312.8</ele>
        <time>2021-12-29T10:50:32Z</time>
      </trkpt>
      <trkpt lat="37.4148740" lon="-4.6079530">
        <ele>312.6</ele>
        <time>2021-12-29T10:50:33Z</time>
      </trkpt>
      <trkpt lat="37.4148420" lon="-4.6079930">
        <ele>312.6</ele>
        <time>2021-12-29T10:50:34Z</time>
      </trkpt>
      <trkpt lat="37.4148100" lon="-4.6080300">
        <ele>312.6</ele>
        <time>2021-12-29T10:50:35Z</time>
      </trkpt>
      <trkpt lat="37.4147840" lon="-4.6080650">
        <ele>312.4</ele>
        <time>2021-12-29T10:50:36Z</time>
      </trkpt>
      <trkpt lat="37.4147520" lon="-4.6081020">
        <ele>312.4</ele>
        <time>2021-12-29T10:50:37Z</time>
      </trkpt>
      <trkpt lat="37.4147230" lon="-4.6081420">
        <ele>312.4</ele>
        <time>2021-12-29T10:50:38Z</time>
      </trkpt>
      <trkpt lat="37.4146940" lon="-4.6081830">
        <ele>312.4</ele>
        <time>2021-12-29T10:50:39Z</time>
      </trkpt>
      <trkpt lat="37.4146660" lon="-4.6082220">
        <ele>312.4</ele>
        <time>2021-12-29T10:50:40Z</time>
      </trkpt>
      <trkpt lat="37.4146340" lon="-4.6082620">
        <ele>312.4</ele>
        <time>2021-12-29T10:50:41Z</time>
      </trkpt>
      <trkpt lat="37.4146020" lon="-4.6083020">
        <ele>312.4</ele>
        <time>2021-12-29T10:50:42Z</time>
      </trkpt>
      <trkpt lat="37.4145700" lon="-4.6083450">
        <ele>312.4</ele>
        <time>2021-12-29T10:50:43Z</time>
      </trkpt>
      <trkpt lat="37.4145310" lon="-4.6083950">
        <ele>312.2</ele>
        <time>2021-12-29T10:50:44Z</time>
      </trkpt>
      <trkpt lat="37.4145060" lon="-4.6084320">
        <ele>312.2</ele>
        <time>2021-12-29T10:50:45Z</time>
      </trkpt>
      <trkpt lat="37.4144700" lon="-4.6084770">
        <ele>312.2</ele>
        <time>2021-12-29T10:50:46Z</time>
      </trkpt>
      <trkpt lat="37.4144420" lon="-4.6085200">
        <ele>312.2</ele>
        <time>2021-12-29T10:50:47Z</time>
      </trkpt>
      <trkpt lat="37.4144060" lon="-4.6085670">
        <ele>312.2</ele>
        <time>2021-12-29T10:50:48Z</time>
      </trkpt>
      <trkpt lat="37.4143710" lon="-4.6086120">
        <ele>312.2</ele>
        <time>2021-12-29T10:50:49Z</time>
      </trkpt>
      <trkpt lat="37.4143420" lon="-4.6086530">
        <ele>312.2</ele>
        <time>2021-12-29T10:50:50Z</time>
      </trkpt>
      <trkpt lat="37.4143070" lon="-4.6086980">
        <ele>312.2</ele>
        <time>2021-12-29T10:50:51Z</time>
      </trkpt>
      <trkpt lat="37.4142690" lon="-4.6087520">
        <ele>312.2</ele>
        <time>2021-12-29T10:50:52Z</time>
      </trkpt>
      <trkpt lat="37.4142430" lon="-4.6087860">
        <ele>312.2</ele>
        <time>2021-12-29T10:50:53Z</time>
      </trkpt>
      <trkpt lat="37.4142080" lon="-4.6088250">
        <ele>312.2</ele>
        <time>2021-12-29T10:50:54Z</time>
      </trkpt>
      <trkpt lat="37.4141730" lon="-4.6088620">
        <ele>312.2</ele>
        <time>2021-12-29T10:50:55Z</time>
      </trkpt>
      <trkpt lat="37.4141380" lon="-4.6089000">
        <ele>312.2</ele>
        <time>2021-12-29T10:50:56Z</time>
      </trkpt>
      <trkpt lat="37.4140990" lon="-4.6089480">
        <ele>312.2</ele>
        <time>2021-12-29T10:50:57Z</time>
      </trkpt>
      <trkpt lat="37.4140740" lon="-4.6089800">
        <ele>312.2</ele>
        <time>2021-12-29T10:50:58Z</time>
      </trkpt>
      <trkpt lat="37.4140450" lon="-4.6090200">
        <ele>312.0</ele>
        <time>2021-12-29T10:50:59Z</time>
      </trkpt>
      <trkpt lat="37.4140130" lon="-4.6090600">
        <ele>312.0</ele>
        <time>2021-12-29T10:51:00Z</time>
      </trkpt>
      <trkpt lat="37.4139810" lon="-4.6091000">
        <ele>312.0</ele>
        <time>2021-12-29T10:51:01Z</time>
      </trkpt>
      <trkpt lat="37.4139490" lon="-4.6091430">
        <ele>312.0</ele>
        <time>2021-12-29T10:51:02Z</time>
      </trkpt>
      <trkpt lat="37.4139140" lon="-4.6091870">
        <ele>312.0</ele>
        <time>2021-12-29T10:51:03Z</time>
      </trkpt>
      <trkpt lat="37.4138850" lon="-4.6092300">
        <ele>312.0</ele>
        <time>2021-12-29T10:51:04Z</time>
      </trkpt>
      <trkpt lat="37.4138530" lon="-4.6092740">
        <ele>312.0</ele>
        <time>2021-12-29T10:51:05Z</time>
      </trkpt>
      <trkpt lat="37.4138140" lon="-4.6093240">
        <ele>312.0</ele>
        <time>2021-12-29T10:51:06Z</time>
      </trkpt>
      <trkpt lat="37.4137890" lon="-4.6093570">
        <ele>312.2</ele>
        <time>2021-12-29T10:51:07Z</time>
      </trkpt>
      <trkpt lat="37.4137570" lon="-4.6093950">
        <ele>312.2</ele>
        <time>2021-12-29T10:51:08Z</time>
      </trkpt>
      <trkpt lat="37.4137310" lon="-4.6094300">
        <ele>312.2</ele>
        <time>2021-12-29T10:51:09Z</time>
      </trkpt>
      <trkpt lat="37.4137020" lon="-4.6094650">
        <ele>312.2</ele>
        <time>2021-12-29T10:51:10Z</time>
      </trkpt>
      <trkpt lat="37.4136770" lon="-4.6094980">
        <ele>312.2</ele>
        <time>2021-12-29T10:51:11Z</time>
      </trkpt>
      <trkpt lat="37.4136540" lon="-4.6095370">
        <ele>312.2</ele>
        <time>2021-12-29T10:51:12Z</time>
      </trkpt>
      <trkpt lat="37.4136320" lon="-4.6095750">
        <ele>312.4</ele>
        <time>2021-12-29T10:51:13Z</time>
      </trkpt>
      <trkpt lat="37.4136030" lon="-4.6096140">
        <ele>312.4</ele>
        <time>2021-12-29T10:51:14Z</time>
      </trkpt>
      <trkpt lat="37.4135780" lon="-4.6096520">
        <ele>312.4</ele>
        <time>2021-12-29T10:51:15Z</time>
      </trkpt>
      <trkpt lat="37.4135490" lon="-4.6096880">
        <ele>312.4</ele>
        <time>2021-12-29T10:51:16Z</time>
      </trkpt>
      <trkpt lat="37.4135230" lon="-4.6097250">
        <ele>312.4</ele>
        <time>2021-12-29T10:51:17Z</time>
      </trkpt>
      <trkpt lat="37.4134940" lon="-4.6097660">
        <ele>312.4</ele>
        <time>2021-12-29T10:51:18Z</time>
      </trkpt>
      <trkpt lat="37.4134720" lon="-4.6097930">
        <ele>312.4</ele>
        <time>2021-12-29T10:51:19Z</time>
      </trkpt>
      <trkpt lat="37.4134500" lon="-4.6098280">
        <ele>312.4</ele>
        <time>2021-12-29T10:51:20Z</time>
      </trkpt>
      <trkpt lat="37.4134210" lon="-4.6098570">
        <ele>312.4</ele>
        <time>2021-12-29T10:51:21Z</time>
      </trkpt>
      <trkpt lat="37.4134020" lon="-4.6098870">
        <ele>312.4</ele>
        <time>2021-12-29T10:51:22Z</time>
      </trkpt>
      <trkpt lat="37.4133790" lon="-4.6099170">
        <ele>312.6</ele>
        <time>2021-12-29T10:51:23Z</time>
      </trkpt>
      <trkpt lat="37.4133540" lon="-4.6099500">
        <ele>312.6</ele>
        <time>2021-12-29T10:51:24Z</time>
      </trkpt>
      <trkpt lat="37.4133310" lon="-4.6099850">
        <ele>312.6</ele>
        <time>2021-12-29T10:51:25Z</time>
      </trkpt>
      <trkpt lat="37.4133020" lon="-4.6100180">
        <ele>312.6</ele>
        <time>2021-12-29T10:51:26Z</time>
      </trkpt>
      <trkpt lat="37.4132770" lon="-4.6100550">
        <ele>312.8</ele>
        <time>2021-12-29T10:51:27Z</time>
      </trkpt>
      <trkpt lat="37.4132540" lon="-4.6100930">
        <ele>312.8</ele>
        <time>2021-12-29T10:51:28Z</time>
      </trkpt>
      <trkpt lat="37.4132260" lon="-4.6101350">
        <ele>312.8</ele>
        <time>2021-12-29T10:51:29Z</time>
      </trkpt>
      <trkpt lat="37.4132030" lon="-4.6101720">
        <ele>312.8</ele>
        <time>2021-12-29T10:51:30Z</time>
      </trkpt>
      <trkpt lat="37.4131810" lon="-4.6102080">
        <ele>312.8</ele>
        <time>2021-12-29T10:51:31Z</time>
      </trkpt>
      <trkpt lat="37.4131550" lon="-4.6102480">
        <ele>312.8</ele>
        <time>2021-12-29T10:51:32Z</time>
      </trkpt>
      <trkpt lat="37.4131330" lon="-4.6102870">
        <ele>313.0</ele>
        <time>2021-12-29T10:51:33Z</time>
      </trkpt>
      <trkpt lat="37.4131100" lon="-4.6103240">
        <ele>313.0</ele>
        <time>2021-12-29T10:51:34Z</time>
      </trkpt>
      <trkpt lat="37.4130850" lon="-4.6103620">
        <ele>313.0</ele>
        <time>2021-12-29T10:51:35Z</time>
      </trkpt>
      <trkpt lat="37.4130590" lon="-4.6104000">
        <ele>313.0</ele>
        <time>2021-12-29T10:51:36Z</time>
      </trkpt>
      <trkpt lat="37.4130340" lon="-4.6104360">
        <ele>313.0</ele>
        <time>2021-12-29T10:51:37Z</time>
      </trkpt>
      <trkpt lat="37.4130050" lon="-4.6104750">
        <ele>313.0</ele>
        <time>2021-12-29T10:51:38Z</time>
      </trkpt>
      <trkpt lat="37.4129860" lon="-4.6105130">
        <ele>313.0</ele>
        <time>2021-12-29T10:51:39Z</time>
      </trkpt>
      <trkpt lat="37.4129600" lon="-4.6105500">
        <ele>312.8</ele>
        <time>2021-12-29T10:51:40Z</time>
      </trkpt>
      <trkpt lat="37.4129410" lon="-4.6105830">
        <ele>312.8</ele>
        <time>2021-12-29T10:51:41Z</time>
      </trkpt>
      <trkpt lat="37.4129180" lon="-4.6106180">
        <ele>312.8</ele>
        <time>2021-12-29T10:51:42Z</time>
      </trkpt>
      <trkpt lat="37.4129020" lon="-4.6106540">
        <ele>312.6</ele>
        <time>2021-12-29T10:51:43Z</time>
      </trkpt>
      <trkpt lat="37.4128860" lon="-4.6106880">
        <ele>312.6</ele>
        <time>2021-12-29T10:51:44Z</time>
      </trkpt>
      <trkpt lat="37.4128670" lon="-4.6107250">
        <ele>312.6</ele>
        <time>2021-12-29T10:51:45Z</time>
      </trkpt>
      <trkpt lat="37.4128450" lon="-4.6107640">
        <ele>312.6</ele>
        <time>2021-12-29T10:51:46Z</time>
      </trkpt>
      <trkpt lat="37.4128260" lon="-4.6108000">
        <ele>312.4</ele>
        <time>2021-12-29T10:51:47Z</time>
      </trkpt>
      <trkpt lat="37.4128130" lon="-4.6108380">
        <ele>312.4</ele>
        <time>2021-12-29T10:51:48Z</time>
      </trkpt>
      <trkpt lat="37.4127870" lon="-4.6108750">
        <ele>312.4</ele>
        <time>2021-12-29T10:51:49Z</time>
      </trkpt>
      <trkpt lat="37.4127680" lon="-4.6109080">
        <ele>312.4</ele>
        <time>2021-12-29T10:51:50Z</time>
      </trkpt>
      <trkpt lat="37.4127490" lon="-4.6109470">
        <ele>312.4</ele>
        <time>2021-12-29T10:51:51Z</time>
      </trkpt>
      <trkpt lat="37.4127260" lon="-4.6109850">
        <ele>312.4</ele>
        <time>2021-12-29T10:51:52Z</time>
      </trkpt>
      <trkpt lat="37.4127070" lon="-4.6110220">
        <ele>312.4</ele>
        <time>2021-12-29T10:51:53Z</time>
      </trkpt>
      <trkpt lat="37.4126880" lon="-4.6110600">
        <ele>312.4</ele>
        <time>2021-12-29T10:51:54Z</time>
      </trkpt>
      <trkpt lat="37.4126690" lon="-4.6111020">
        <ele>312.4</ele>
        <time>2021-12-29T10:51:55Z</time>
      </trkpt>
      <trkpt lat="37.4126460" lon="-4.6111430">
        <ele>312.4</ele>
        <time>2021-12-29T10:51:56Z</time>
      </trkpt>
      <trkpt lat="37.4126270" lon="-4.6111820">
        <ele>312.2</ele>
        <time>2021-12-29T10:51:57Z</time>
      </trkpt>
      <trkpt lat="37.4126080" lon="-4.6112250">
        <ele>312.2</ele>
        <time>2021-12-29T10:51:58Z</time>
      </trkpt>
      <trkpt lat="37.4125950" lon="-4.6112680">
        <ele>312.2</ele>
        <time>2021-12-29T10:51:59Z</time>
      </trkpt>
      <trkpt lat="37.4125790" lon="-4.6113100">
        <ele>312.2</ele>
        <time>2021-12-29T10:52:00Z</time>
      </trkpt>
      <trkpt lat="37.4125600" lon="-4.6113500">
        <ele>312.2</ele>
        <time>2021-12-29T10:52:01Z</time>
      </trkpt>
      <trkpt lat="37.4125410" lon="-4.6113900">
        <ele>312.2</ele>
        <time>2021-12-29T10:52:02Z</time>
      </trkpt>
      <trkpt lat="37.4125250" lon="-4.6114270">
        <ele>312.2</ele>
        <time>2021-12-29T10:52:03Z</time>
      </trkpt>
      <trkpt lat="37.4125090" lon="-4.6114620">
        <ele>312.2</ele>
        <time>2021-12-29T10:52:04Z</time>
      </trkpt>
      <trkpt lat="37.4124900" lon="-4.6114980">
        <ele>312.2</ele>
        <time>2021-12-29T10:52:05Z</time>
      </trkpt>
      <trkpt lat="37.4124770" lon="-4.6115360">
        <ele>312.2</ele>
        <time>2021-12-29T10:52:06Z</time>
      </trkpt>
      <trkpt lat="37.4124580" lon="-4.6115730">
        <ele>312.2</ele>
        <time>2021-12-29T10:52:07Z</time>
      </trkpt>
      <trkpt lat="37.4124380" lon="-4.6116200">
        <ele>312.2</ele>
        <time>2021-12-29T10:52:08Z</time>
      </trkpt>
      <trkpt lat="37.4124220" lon="-4.6116500">
        <ele>312.2</ele>
        <time>2021-12-29T10:52:09Z</time>
      </trkpt>
      <trkpt lat="37.4124060" lon="-4.6116900">
        <ele>312.0</ele>
        <time>2021-12-29T10:52:10Z</time>
      </trkpt>
      <trkpt lat="37.4123870" lon="-4.6117300">
        <ele>312.0</ele>
        <time>2021-12-29T10:52:11Z</time>
      </trkpt>
      <trkpt lat="37.4123680" lon="-4.6117700">
        <ele>311.8</ele>
        <time>2021-12-29T10:52:12Z</time>
      </trkpt>
      <trkpt lat="37.4123490" lon="-4.6118080">
        <ele>311.8</ele>
        <time>2021-12-29T10:52:13Z</time>
      </trkpt>
      <trkpt lat="37.4123360" lon="-4.6118480">
        <ele>311.8</ele>
        <time>2021-12-29T10:52:14Z</time>
      </trkpt>
      <trkpt lat="37.4123170" lon="-4.6118860">
        <ele>311.8</ele>
        <time>2021-12-29T10:52:15Z</time>
      </trkpt>
      <trkpt lat="37.4122980" lon="-4.6119250">
        <ele>311.8</ele>
        <time>2021-12-29T10:52:16Z</time>
      </trkpt>
      <trkpt lat="37.4122720" lon="-4.6119720">
        <ele>311.8</ele>
        <time>2021-12-29T10:52:17Z</time>
      </trkpt>
      <trkpt lat="37.4122590" lon="-4.6120020">
        <ele>311.8</ele>
        <time>2021-12-29T10:52:18Z</time>
      </trkpt>
      <trkpt lat="37.4122460" lon="-4.6120370">
        <ele>311.6</ele>
        <time>2021-12-29T10:52:19Z</time>
      </trkpt>
      <trkpt lat="37.4122270" lon="-4.6120720">
        <ele>311.6</ele>
        <time>2021-12-29T10:52:20Z</time>
      </trkpt>
      <trkpt lat="37.4122080" lon="-4.6121040">
        <ele>311.6</ele>
        <time>2021-12-29T10:52:21Z</time>
      </trkpt>
      <trkpt lat="37.4121920" lon="-4.6121350">
        <ele>311.4</ele>
        <time>2021-12-29T10:52:22Z</time>
      </trkpt>
      <trkpt lat="37.4121790" lon="-4.6121700">
        <ele>311.4</ele>
        <time>2021-12-29T10:52:23Z</time>
      </trkpt>
      <trkpt lat="37.4121630" lon="-4.6122050">
        <ele>311.2</ele>
        <time>2021-12-29T10:52:24Z</time>
      </trkpt>
      <trkpt lat="37.4121470" lon="-4.6122360">
        <ele>311.2</ele>
        <time>2021-12-29T10:52:25Z</time>
      </trkpt>
      <trkpt lat="37.4121310" lon="-4.6122620">
        <ele>311.2</ele>
        <time>2021-12-29T10:52:26Z</time>
      </trkpt>
      <trkpt lat="37.4121310" lon="-4.6122620">
        <ele>311.0</ele>
        <time>2021-12-29T10:52:27Z</time>
      </trkpt>
      <trkpt lat="37.4121220" lon="-4.6122830">
        <ele>311.0</ele>
        <time>2021-12-29T10:52:28Z</time>
      </trkpt>
      <trkpt lat="37.4121220" lon="-4.6122830">
        <ele>311.0</ele>
        <time>2021-12-29T10:52:29Z</time>
      </trkpt>
      <trkpt lat="37.4121220" lon="-4.6122830">
        <ele>311.0</ele>
        <time>2021-12-29T10:52:30Z</time>
      </trkpt>
      <trkpt lat="37.4121220" lon="-4.6122830">
        <ele>311.0</ele>
        <time>2021-12-29T10:52:31Z</time>
      </trkpt>
      <trkpt lat="37.4121220" lon="-4.6122830">
        <ele>310.8</ele>
        <time>2021-12-29T10:52:32Z</time>
      </trkpt>
      <trkpt lat="37.4121220" lon="-4.6122830">
        <ele>310.8</ele>
        <time>2021-12-29T10:52:33Z</time>
      </trkpt>
      <trkpt lat="37.4121220" lon="-4.6122830">
        <ele>310.8</ele>
        <time>2021-12-29T10:56:26Z</time>
      </trkpt>
      <trkpt lat="37.4121220" lon="-4.6122830">
        <ele>312.0</ele>
        <time>2021-12-29T10:56:27Z</time>
      </trkpt>
      <trkpt lat="37.4120320" lon="-4.6124140">
        <ele>312.0</ele>
        <time>2021-12-29T10:56:28Z</time>
      </trkpt>
      <trkpt lat="37.4120320" lon="-4.6124140">
        <ele>312.0</ele>
        <time>2021-12-29T10:56:29Z</time>
      </trkpt>
      <trkpt lat="37.4120190" lon="-4.6124440">
        <ele>312.0</ele>
        <time>2021-12-29T10:56:30Z</time>
      </trkpt>
      <trkpt lat="37.4120190" lon="-4.6124440">
        <ele>312.0</ele>
        <time>2021-12-29T10:56:31Z</time>
      </trkpt>
      <trkpt lat="37.4120030" lon="-4.6124740">
        <ele>312.0</ele>
        <time>2021-12-29T10:56:32Z</time>
      </trkpt>
      <trkpt lat="37.4120030" lon="-4.6124740">
        <ele>312.0</ele>
        <time>2021-12-29T10:56:33Z</time>
      </trkpt>
      <trkpt lat="37.4119940" lon="-4.6124950">
        <ele>312.0</ele>
        <time>2021-12-29T10:56:34Z</time>
      </trkpt>
      <trkpt lat="37.4119940" lon="-4.6124950">
        <ele>312.0</ele>
        <time>2021-12-29T10:56:35Z</time>
      </trkpt>
      <trkpt lat="37.4119840" lon="-4.6125180">
        <ele>312.0</ele>
        <time>2021-12-29T10:56:36Z</time>
      </trkpt>
      <trkpt lat="37.4119840" lon="-4.6125180">
        <ele>311.8</ele>
        <time>2021-12-29T10:56:37Z</time>
      </trkpt>
      <trkpt lat="37.4119620" lon="-4.6125400">
        <ele>311.8</ele>
        <time>2021-12-29T10:56:38Z</time>
      </trkpt>
      <trkpt lat="37.4119620" lon="-4.6125400">
        <ele>311.8</ele>
        <time>2021-12-29T10:56:39Z</time>
      </trkpt>
      <trkpt lat="37.4119460" lon="-4.6125620">
        <ele>311.6</ele>
        <time>2021-12-29T10:56:40Z</time>
      </trkpt>
      <trkpt lat="37.4119460" lon="-4.6125620">
        <ele>311.6</ele>
        <time>2021-12-29T10:56:41Z</time>
      </trkpt>
      <trkpt lat="37.4119460" lon="-4.6125620">
        <ele>311.6</ele>
        <time>2021-12-29T10:56:42Z</time>
      </trkpt>
      <trkpt lat="37.4119330" lon="-4.6125900">
        <ele>311.6</ele>
        <time>2021-12-29T10:56:43Z</time>
      </trkpt>
      <trkpt lat="37.4119330" lon="-4.6125900">
        <ele>311.6</ele>
        <time>2021-12-29T10:56:44Z</time>
      </trkpt>
      <trkpt lat="37.4119330" lon="-4.6125900">
        <ele>311.6</ele>
        <time>2021-12-29T10:56:45Z</time>
      </trkpt>
      <trkpt lat="37.4119200" lon="-4.6126250">
        <ele>311.6</ele>
        <time>2021-12-29T10:56:46Z</time>
      </trkpt>
      <trkpt lat="37.4119200" lon="-4.6126250">
        <ele>311.4</ele>
        <time>2021-12-29T10:56:47Z</time>
      </trkpt>
      <trkpt lat="37.4119140" lon="-4.6126500">
        <ele>311.4</ele>
        <time>2021-12-29T10:56:48Z</time>
      </trkpt>
      <trkpt lat="37.4119140" lon="-4.6126500">
        <ele>311.2</ele>
        <time>2021-12-29T10:56:49Z</time>
      </trkpt>
      <trkpt lat="37.4119100" lon="-4.6126750">
        <ele>311.2</ele>
        <time>2021-12-29T10:56:50Z</time>
      </trkpt>
      <trkpt lat="37.4119100" lon="-4.6126750">
        <ele>311.2</ele>
        <time>2021-12-29T10:56:51Z</time>
      </trkpt>
      <trkpt lat="37.4119100" lon="-4.6126750">
        <ele>311.2</ele>
        <time>2021-12-29T10:56:52Z</time>
      </trkpt>
      <trkpt lat="37.4119100" lon="-4.6126750">
        <ele>311.0</ele>
        <time>2021-12-29T10:56:53Z</time>
      </trkpt>
      <trkpt lat="37.4119100" lon="-4.6126750">
        <ele>311.0</ele>
        <time>2021-12-29T10:56:54Z</time>
      </trkpt>
      <trkpt lat="37.4119100" lon="-4.6126750">
        <ele>311.0</ele>
        <time>2021-12-29T10:56:55Z</time>
      </trkpt>
      <trkpt lat="37.4119100" lon="-4.6126750">
        <ele>311.0</ele>
        <time>2021-12-29T10:57:24Z</time>
      </trkpt>
      <trkpt lat="37.4118080" lon="-4.6128400">
        <ele>313.4</ele>
        <time>2021-12-29T10:57:25Z</time>
      </trkpt>
      <trkpt lat="37.4117950" lon="-4.6128640">
        <ele>313.4</ele>
        <time>2021-12-29T10:57:26Z</time>
      </trkpt>
      <trkpt lat="37.4117950" lon="-4.6128640">
        <ele>313.4</ele>
        <time>2021-12-29T10:57:27Z</time>
      </trkpt>
      <trkpt lat="37.4117860" lon="-4.6128880">
        <ele>313.6</ele>
        <time>2021-12-29T10:57:28Z</time>
      </trkpt>
      <trkpt lat="37.4117860" lon="-4.6128880">
        <ele>313.4</ele>
        <time>2021-12-29T10:57:29Z</time>
      </trkpt>
      <trkpt lat="37.4117700" lon="-4.6129150">
        <ele>313.4</ele>
        <time>2021-12-29T10:57:30Z</time>
      </trkpt>
      <trkpt lat="37.4117700" lon="-4.6129150">
        <ele>313.4</ele>
        <time>2021-12-29T10:57:31Z</time>
      </trkpt>
      <trkpt lat="37.4117600" lon="-4.6129430">
        <ele>313.4</ele>
        <time>2021-12-29T10:57:32Z</time>
      </trkpt>
      <trkpt lat="37.4117600" lon="-4.6129430">
        <ele>313.4</ele>
        <time>2021-12-29T10:57:33Z</time>
      </trkpt>
      <trkpt lat="37.4117470" lon="-4.6129700">
        <ele>313.4</ele>
        <time>2021-12-29T10:57:34Z</time>
      </trkpt>
      <trkpt lat="37.4117470" lon="-4.6129700">
        <ele>313.6</ele>
        <time>2021-12-29T10:57:35Z</time>
      </trkpt>
      <trkpt lat="37.4117470" lon="-4.6129700">
        <ele>313.6</ele>
        <time>2021-12-29T10:57:36Z</time>
      </trkpt>
      <trkpt lat="37.4117340" lon="-4.6130030">
        <ele>313.6</ele>
        <time>2021-12-29T10:57:37Z</time>
      </trkpt>
      <trkpt lat="37.4117340" lon="-4.6130030">
        <ele>313.4</ele>
        <time>2021-12-29T10:57:38Z</time>
      </trkpt>
      <trkpt lat="37.4117280" lon="-4.6130250">
        <ele>313.4</ele>
        <time>2021-12-29T10:57:39Z</time>
      </trkpt>
      <trkpt lat="37.4117280" lon="-4.6130250">
        <ele>313.2</ele>
        <time>2021-12-29T10:57:40Z</time>
      </trkpt>
      <trkpt lat="37.4117120" lon="-4.6130470">
        <ele>313.0</ele>
        <time>2021-12-29T10:57:41Z</time>
      </trkpt>
      <trkpt lat="37.4117120" lon="-4.6130470">
        <ele>313.0</ele>
        <time>2021-12-29T10:57:42Z</time>
      </trkpt>
      <trkpt lat="37.4116960" lon="-4.6130730">
        <ele>312.8</ele>
        <time>2021-12-29T10:57:43Z</time>
      </trkpt>
      <trkpt lat="37.4116960" lon="-4.6130730">
        <ele>312.8</ele>
        <time>2021-12-29T10:57:44Z</time>
      </trkpt>
      <trkpt lat="37.4116770" lon="-4.6131020">
        <ele>312.6</ele>
        <time>2021-12-29T10:57:45Z</time>
      </trkpt>
      <trkpt lat="37.4116770" lon="-4.6131020">
        <ele>312.6</ele>
        <time>2021-12-29T10:57:46Z</time>
      </trkpt>
      <trkpt lat="37.4116640" lon="-4.6131270">
        <ele>312.6</ele>
        <time>2021-12-29T10:57:47Z</time>
      </trkpt>
      <trkpt lat="37.4116640" lon="-4.6131270">
        <ele>312.4</ele>
        <time>2021-12-29T10:57:48Z</time>
      </trkpt>
      <trkpt lat="37.4116480" lon="-4.6131570">
        <ele>312.4</ele>
        <time>2021-12-29T10:57:49Z</time>
      </trkpt>
      <trkpt lat="37.4116480" lon="-4.6131570">
        <ele>312.2</ele>
        <time>2021-12-29T10:57:50Z</time>
      </trkpt>
      <trkpt lat="37.4116420" lon="-4.6131850">
        <ele>312.2</ele>
        <time>2021-12-29T10:57:51Z</time>
      </trkpt>
      <trkpt lat="37.4116420" lon="-4.6131850">
        <ele>312.2</ele>
        <time>2021-12-29T10:57:52Z</time>
      </trkpt>
      <trkpt lat="37.4116420" lon="-4.6131850">
        <ele>312.2</ele>
        <time>2021-12-29T10:57:53Z</time>
      </trkpt>
      <trkpt lat="37.4116290" lon="-4.6132100">
        <ele>312.2</ele>
        <time>2021-12-29T10:57:54Z</time>
      </trkpt>
      <trkpt lat="37.4116290" lon="-4.6132100">
        <ele>312.2</ele>
        <time>2021-12-29T10:57:55Z</time>
      </trkpt>
      <trkpt lat="37.4116030" lon="-4.6132200">
        <ele>312.2</ele>
        <time>2021-12-29T10:57:56Z</time>
      </trkpt>
      <trkpt lat="37.4116030" lon="-4.6132200">
        <ele>312.2</ele>
        <time>2021-12-29T10:57:57Z</time>
      </trkpt>
      <trkpt lat="37.4115940" lon="-4.6132560">
        <ele>312.2</ele>
        <time>2021-12-29T10:57:58Z</time>
      </trkpt>
      <trkpt lat="37.4115940" lon="-4.6132560">
        <ele>312.2</ele>
        <time>2021-12-29T10:57:59Z</time>
      </trkpt>
      <trkpt lat="37.4115940" lon="-4.6132900">
        <ele>312.2</ele>
        <time>2021-12-29T10:58:00Z</time>
      </trkpt>
      <trkpt lat="37.4115940" lon="-4.6132900">
        <ele>312.4</ele>
        <time>2021-12-29T10:58:01Z</time>
      </trkpt>
      <trkpt lat="37.4115940" lon="-4.6132900">
        <ele>312.4</ele>
        <time>2021-12-29T10:58:02Z</time>
      </trkpt>
      <trkpt lat="37.4115940" lon="-4.6132900">
        <ele>312.4</ele>
        <time>2021-12-29T10:58:03Z</time>
      </trkpt>
      <trkpt lat="37.4115870" lon="-4.6133120">
        <ele>312.4</ele>
        <time>2021-12-29T10:58:04Z</time>
      </trkpt>
      <trkpt lat="37.4115870" lon="-4.6133120">
        <ele>312.4</ele>
        <time>2021-12-29T10:58:05Z</time>
      </trkpt>
      <trkpt lat="37.4115870" lon="-4.6133120">
        <ele>312.4</ele>
        <time>2021-12-29T10:58:06Z</time>
      </trkpt>
      <trkpt lat="37.4115870" lon="-4.6133120">
        <ele>312.4</ele>
        <time>2021-12-29T10:58:16Z</time>
      </trkpt>
      <trkpt lat="37.4115330" lon="-4.6134280">
        <ele>312.6</ele>
        <time>2021-12-29T10:58:17Z</time>
      </trkpt>
      <trkpt lat="37.4115330" lon="-4.6134280">
        <ele>312.6</ele>
        <time>2021-12-29T10:58:18Z</time>
      </trkpt>
      <trkpt lat="37.4115330" lon="-4.6134280">
        <ele>312.6</ele>
        <time>2021-12-29T10:58:19Z</time>
      </trkpt>
      <trkpt lat="37.4115230" lon="-4.6134570">
        <ele>312.6</ele>
        <time>2021-12-29T10:58:20Z</time>
      </trkpt>
      <trkpt lat="37.4115230" lon="-4.6134570">
        <ele>312.6</ele>
        <time>2021-12-29T10:58:21Z</time>
      </trkpt>
      <trkpt lat="37.4115230" lon="-4.6134570">
        <ele>312.6</ele>
        <time>2021-12-29T10:58:22Z</time>
      </trkpt>
      <trkpt lat="37.4115230" lon="-4.6134570">
        <ele>312.6</ele>
        <time>2021-12-29T10:58:23Z</time>
      </trkpt>
      <trkpt lat="37.4115230" lon="-4.6134570">
        <ele>312.6</ele>
        <time>2021-12-29T10:58:24Z</time>
      </trkpt>
      <trkpt lat="37.4115230" lon="-4.6134570">
        <ele>312.6</ele>
        <time>2021-12-29T10:58:25Z</time>
      </trkpt>
      <trkpt lat="37.4115230" lon="-4.6134570">
        <ele>312.6</ele>
        <time>2021-12-29T10:58:26Z</time>
      </trkpt>
      <trkpt lat="37.4115230" lon="-4.6134570">
        <ele>312.6</ele>
        <time>2021-12-29T10:58:45Z</time>
      </trkpt>
      <trkpt lat="37.4114620" lon="-4.6135550">
        <ele>313.0</ele>
        <time>2021-12-29T10:58:46Z</time>
      </trkpt>
      <trkpt lat="37.4114500" lon="-4.6135730">
        <ele>313.0</ele>
        <time>2021-12-29T10:58:47Z</time>
      </trkpt>
      <trkpt lat="37.4114500" lon="-4.6135730">
        <ele>313.0</ele>
        <time>2021-12-29T10:58:48Z</time>
      </trkpt>
      <trkpt lat="37.4114430" lon="-4.6135970">
        <ele>313.0</ele>
        <time>2021-12-29T10:58:49Z</time>
      </trkpt>
      <trkpt lat="37.4114430" lon="-4.6135970">
        <ele>313.2</ele>
        <time>2021-12-29T10:58:50Z</time>
      </trkpt>
      <trkpt lat="37.4114430" lon="-4.6135970">
        <ele>313.2</ele>
        <time>2021-12-29T10:58:51Z</time>
      </trkpt>
      <trkpt lat="37.4114430" lon="-4.6135970">
        <ele>313.2</ele>
        <time>2021-12-29T10:58:52Z</time>
      </trkpt>
      <trkpt lat="37.4114430" lon="-4.6135970">
        <ele>313.2</ele>
        <time>2021-12-29T10:58:53Z</time>
      </trkpt>
      <trkpt lat="37.4114430" lon="-4.6135970">
        <ele>313.2</ele>
        <time>2021-12-29T10:59:07Z</time>
      </trkpt>
      <trkpt lat="37.4114430" lon="-4.6135970">
        <ele>312.6</ele>
        <time>2021-12-29T10:59:08Z</time>
      </trkpt>
      <trkpt lat="37.4113950" lon="-4.6136960">
        <ele>312.6</ele>
        <time>2021-12-29T10:59:09Z</time>
      </trkpt>
      <trkpt lat="37.4113950" lon="-4.6136960">
        <ele>312.6</ele>
        <time>2021-12-29T10:59:10Z</time>
      </trkpt>
      <trkpt lat="37.4113950" lon="-4.6136960">
        <ele>312.6</ele>
        <time>2021-12-29T10:59:11Z</time>
      </trkpt>
      <trkpt lat="37.4113890" lon="-4.6137230">
        <ele>312.6</ele>
        <time>2021-12-29T10:59:12Z</time>
      </trkpt>
      <trkpt lat="37.4113890" lon="-4.6137230">
        <ele>312.4</ele>
        <time>2021-12-29T10:59:13Z</time>
      </trkpt>
      <trkpt lat="37.4113760" lon="-4.6137480">
        <ele>312.4</ele>
        <time>2021-12-29T10:59:14Z</time>
      </trkpt>
      <trkpt lat="37.4113760" lon="-4.6137480">
        <ele>312.4</ele>
        <time>2021-12-29T10:59:15Z</time>
      </trkpt>
      <trkpt lat="37.4113660" lon="-4.6137680">
        <ele>312.4</ele>
        <time>2021-12-29T10:59:16Z</time>
      </trkpt>
      <trkpt lat="37.4113660" lon="-4.6137680">
        <ele>312.4</ele>
        <time>2021-12-29T10:59:17Z</time>
      </trkpt>
      <trkpt lat="37.4113540" lon="-4.6137880">
        <ele>312.4</ele>
        <time>2021-12-29T10:59:18Z</time>
      </trkpt>
      <trkpt lat="37.4113540" lon="-4.6137880">
        <ele>312.4</ele>
        <time>2021-12-29T10:59:19Z</time>
      </trkpt>
      <trkpt lat="37.4113540" lon="-4.6138140">
        <ele>312.4</ele>
        <time>2021-12-29T10:59:20Z</time>
      </trkpt>
      <trkpt lat="37.4113540" lon="-4.6138140">
        <ele>312.4</ele>
        <time>2021-12-29T10:59:21Z</time>
      </trkpt>
      <trkpt lat="37.4113540" lon="-4.6138140">
        <ele>312.4</ele>
        <time>2021-12-29T10:59:22Z</time>
      </trkpt>
      <trkpt lat="37.4113540" lon="-4.6138140">
        <ele>312.4</ele>
        <time>2021-12-29T10:59:36Z</time>
      </trkpt>
      <trkpt lat="37.4112960" lon="-4.6139630">
        <ele>312.8</ele>
        <time>2021-12-29T10:59:37Z</time>
      </trkpt>
      <trkpt lat="37.4112960" lon="-4.6139630">
        <ele>312.8</ele>
        <time>2021-12-29T10:59:38Z</time>
      </trkpt>
      <trkpt lat="37.4112860" lon="-4.6139900">
        <ele>312.6</ele>
        <time>2021-12-29T10:59:39Z</time>
      </trkpt>
      <trkpt lat="37.4112860" lon="-4.6139900">
        <ele>312.6</ele>
        <time>2021-12-29T10:59:40Z</time>
      </trkpt>
      <trkpt lat="37.4112700" lon="-4.6140100">
        <ele>312.6</ele>
        <time>2021-12-29T10:59:41Z</time>
      </trkpt>
      <trkpt lat="37.4112700" lon="-4.6140100">
        <ele>312.6</ele>
        <time>2021-12-29T10:59:42Z</time>
      </trkpt>
      <trkpt lat="37.4112580" lon="-4.6140350">
        <ele>312.6</ele>
        <time>2021-12-29T10:59:43Z</time>
      </trkpt>
      <trkpt lat="37.4112580" lon="-4.6140350">
        <ele>312.4</ele>
        <time>2021-12-29T10:59:44Z</time>
      </trkpt>
      <trkpt lat="37.4112480" lon="-4.6140650">
        <ele>312.4</ele>
        <time>2021-12-29T10:59:45Z</time>
      </trkpt>
      <trkpt lat="37.4112480" lon="-4.6140650">
        <ele>312.2</ele>
        <time>2021-12-29T10:59:46Z</time>
      </trkpt>
      <trkpt lat="37.4112350" lon="-4.6140970">
        <ele>312.2</ele>
        <time>2021-12-29T10:59:47Z</time>
      </trkpt>
      <trkpt lat="37.4112350" lon="-4.6140970">
        <ele>312.2</ele>
        <time>2021-12-29T10:59:48Z</time>
      </trkpt>
      <trkpt lat="37.4112260" lon="-4.6141270">
        <ele>312.0</ele>
        <time>2021-12-29T10:59:49Z</time>
      </trkpt>
      <trkpt lat="37.4112260" lon="-4.6141270">
        <ele>312.0</ele>
        <time>2021-12-29T10:59:50Z</time>
      </trkpt>
      <trkpt lat="37.4112160" lon="-4.6141520">
        <ele>311.8</ele>
        <time>2021-12-29T10:59:51Z</time>
      </trkpt>
      <trkpt lat="37.4112160" lon="-4.6141520">
        <ele>311.8</ele>
        <time>2021-12-29T10:59:52Z</time>
      </trkpt>
      <trkpt lat="37.4111940" lon="-4.6141720">
        <ele>311.6</ele>
        <time>2021-12-29T10:59:53Z</time>
      </trkpt>
      <trkpt lat="37.4111940" lon="-4.6141720">
        <ele>311.6</ele>
        <time>2021-12-29T10:59:54Z</time>
      </trkpt>
      <trkpt lat="37.4111780" lon="-4.6141980">
        <ele>311.6</ele>
        <time>2021-12-29T10:59:55Z</time>
      </trkpt>
      <trkpt lat="37.4111780" lon="-4.6141980">
        <ele>311.6</ele>
        <time>2021-12-29T10:59:56Z</time>
      </trkpt>
      <trkpt lat="37.4111710" lon="-4.6142320">
        <ele>311.6</ele>
        <time>2021-12-29T10:59:57Z</time>
      </trkpt>
      <trkpt lat="37.4111710" lon="-4.6142320">
        <ele>311.4</ele>
        <time>2021-12-29T10:59:58Z</time>
      </trkpt>
      <trkpt lat="37.4111680" lon="-4.6142620">
        <ele>311.4</ele>
        <time>2021-12-29T10:59:59Z</time>
      </trkpt>
      <trkpt lat="37.4111680" lon="-4.6142620">
        <ele>311.2</ele>
        <time>2021-12-29T11:00:01Z</time>
      </trkpt>
      <trkpt lat="37.4111680" lon="-4.6142620">
        <ele>311.2</ele>
        <time>2021-12-29T11:00:02Z</time>
      </trkpt>
      <trkpt lat="37.4111680" lon="-4.6142620">
        <ele>311.2</ele>
        <time>2021-12-29T11:00:03Z</time>
      </trkpt>
      <trkpt lat="37.4111680" lon="-4.6142620">
        <ele>311.0</ele>
        <time>2021-12-29T11:00:04Z</time>
      </trkpt>
      <trkpt lat="37.4111680" lon="-4.6142620">
        <ele>311.0</ele>
        <time>2021-12-29T11:00:05Z</time>
      </trkpt>
      <trkpt lat="37.4111680" lon="-4.6142620">
        <ele>311.0</ele>
        <time>2021-12-29T11:00:06Z</time>
      </trkpt>
      <trkpt lat="37.4111680" lon="-4.6142620">
        <ele>311.0</ele>
        <time>2021-12-29T11:00:16Z</time>
      </trkpt>
      <trkpt lat="37.4111330" lon="-4.6143750">
        <ele>311.0</ele>
        <time>2021-12-29T11:00:17Z</time>
      </trkpt>
      <trkpt lat="37.4111330" lon="-4.6143750">
        <ele>311.2</ele>
        <time>2021-12-29T11:00:18Z</time>
      </trkpt>
      <trkpt lat="37.4111260" lon="-4.6144060">
        <ele>311.0</ele>
        <time>2021-12-29T11:00:19Z</time>
      </trkpt>
      <trkpt lat="37.4111260" lon="-4.6144060">
        <ele>311.0</ele>
        <time>2021-12-29T11:00:20Z</time>
      </trkpt>
      <trkpt lat="37.4111140" lon="-4.6144380">
        <ele>311.0</ele>
        <time>2021-12-29T11:00:21Z</time>
      </trkpt>
      <trkpt lat="37.4111140" lon="-4.6144380">
        <ele>311.0</ele>
        <time>2021-12-29T11:00:22Z</time>
      </trkpt>
      <trkpt lat="37.4111100" lon="-4.6144680">
        <ele>311.0</ele>
        <time>2021-12-29T11:00:23Z</time>
      </trkpt>
      <trkpt lat="37.4111100" lon="-4.6144680">
        <ele>311.0</ele>
        <time>2021-12-29T11:00:24Z</time>
      </trkpt>
      <trkpt lat="37.4110980" lon="-4.6145030">
        <ele>311.0</ele>
        <time>2021-12-29T11:00:25Z</time>
      </trkpt>
      <trkpt lat="37.4110980" lon="-4.6145030">
        <ele>311.0</ele>
        <time>2021-12-29T11:00:26Z</time>
      </trkpt>
      <trkpt lat="37.4110880" lon="-4.6145380">
        <ele>310.8</ele>
        <time>2021-12-29T11:00:27Z</time>
      </trkpt>
      <trkpt lat="37.4110880" lon="-4.6145380">
        <ele>310.8</ele>
        <time>2021-12-29T11:00:28Z</time>
      </trkpt>
      <trkpt lat="37.4110780" lon="-4.6145720">
        <ele>310.8</ele>
        <time>2021-12-29T11:00:29Z</time>
      </trkpt>
      <trkpt lat="37.4110780" lon="-4.6145720">
        <ele>310.8</ele>
        <time>2021-12-29T11:00:30Z</time>
      </trkpt>
      <trkpt lat="37.4110720" lon="-4.6145970">
        <ele>310.8</ele>
        <time>2021-12-29T11:00:31Z</time>
      </trkpt>
      <trkpt lat="37.4110720" lon="-4.6145970">
        <ele>310.8</ele>
        <time>2021-12-29T11:00:32Z</time>
      </trkpt>
      <trkpt lat="37.4110720" lon="-4.6145970">
        <ele>311.0</ele>
        <time>2021-12-29T11:00:33Z</time>
      </trkpt>
      <trkpt lat="37.4110720" lon="-4.6145970">
        <ele>311.0</ele>
        <time>2021-12-29T11:00:34Z</time>
      </trkpt>
      <trkpt lat="37.4110720" lon="-4.6145970">
        <ele>311.0</ele>
        <time>2021-12-29T11:00:35Z</time>
      </trkpt>
      <trkpt lat="37.4110720" lon="-4.6145970">
        <ele>311.0</ele>
        <time>2021-12-29T11:00:36Z</time>
      </trkpt>
      <trkpt lat="37.4110720" lon="-4.6145970">
        <ele>311.0</ele>
        <time>2021-12-29T11:00:37Z</time>
      </trkpt>
      <trkpt lat="37.4110720" lon="-4.6145970">
        <ele>311.0</ele>
        <time>2021-12-29T11:00:38Z</time>
      </trkpt>
      <trkpt lat="37.4110720" lon="-4.6145970">
        <ele>311.0</ele>
        <time>2021-12-29T11:00:39Z</time>
      </trkpt>
      <trkpt lat="37.4110720" lon="-4.6145970">
        <ele>311.0</ele>
        <time>2021-12-29T11:01:58Z</time>
      </trkpt>
      <trkpt lat="37.4110080" lon="-4.6147870">
        <ele>312.0</ele>
        <time>2021-12-29T11:01:59Z</time>
      </trkpt>
      <trkpt lat="37.4110080" lon="-4.6147870">
        <ele>312.0</ele>
        <time>2021-12-29T11:02:00Z</time>
      </trkpt>
      <trkpt lat="37.4110080" lon="-4.6147870">
        <ele>312.0</ele>
        <time>2021-12-29T11:02:01Z</time>
      </trkpt>
      <trkpt lat="37.4110080" lon="-4.6147870">
        <ele>312.0</ele>
        <time>2021-12-29T11:02:02Z</time>
      </trkpt>
      <trkpt lat="37.4110080" lon="-4.6147870">
        <ele>312.0</ele>
        <time>2021-12-29T11:02:09Z</time>
      </trkpt>
      <trkpt lat="37.4109700" lon="-4.6149180">
        <ele>311.8</ele>
        <time>2021-12-29T11:02:10Z</time>
      </trkpt>
      <trkpt lat="37.4109600" lon="-4.6149470">
        <ele>311.8</ele>
        <time>2021-12-29T11:02:11Z</time>
      </trkpt>
      <trkpt lat="37.4109570" lon="-4.6149720">
        <ele>311.8</ele>
        <time>2021-12-29T11:02:12Z</time>
      </trkpt>
      <trkpt lat="37.4109570" lon="-4.6149720">
        <ele>311.8</ele>
        <time>2021-12-29T11:02:13Z</time>
      </trkpt>
      <trkpt lat="37.4109500" lon="-4.6150150">
        <ele>311.8</ele>
        <time>2021-12-29T11:02:14Z</time>
      </trkpt>
      <trkpt lat="37.4109500" lon="-4.6150150">
        <ele>311.8</ele>
        <time>2021-12-29T11:02:15Z</time>
      </trkpt>
      <trkpt lat="37.4109410" lon="-4.6150460">
        <ele>311.8</ele>
        <time>2021-12-29T11:02:16Z</time>
      </trkpt>
      <trkpt lat="37.4109410" lon="-4.6150460">
        <ele>311.6</ele>
        <time>2021-12-29T11:02:17Z</time>
      </trkpt>
      <trkpt lat="37.4109340" lon="-4.6150750">
        <ele>311.6</ele>
        <time>2021-12-29T11:02:18Z</time>
      </trkpt>
      <trkpt lat="37.4109340" lon="-4.6150750">
        <ele>311.6</ele>
        <time>2021-12-29T11:02:19Z</time>
      </trkpt>
      <trkpt lat="37.4109280" lon="-4.6151000">
        <ele>311.6</ele>
        <time>2021-12-29T11:02:20Z</time>
      </trkpt>
      <trkpt lat="37.4109280" lon="-4.6151000">
        <ele>311.6</ele>
        <time>2021-12-29T11:02:21Z</time>
      </trkpt>
      <trkpt lat="37.4109180" lon="-4.6151350">
        <ele>311.6</ele>
        <time>2021-12-29T11:02:22Z</time>
      </trkpt>
      <trkpt lat="37.4109180" lon="-4.6151350">
        <ele>311.6</ele>
        <time>2021-12-29T11:02:23Z</time>
      </trkpt>
      <trkpt lat="37.4109180" lon="-4.6151350">
        <ele>311.4</ele>
        <time>2021-12-29T11:02:24Z</time>
      </trkpt>
      <trkpt lat="37.4109120" lon="-4.6151600">
        <ele>311.4</ele>
        <time>2021-12-29T11:02:25Z</time>
      </trkpt>
      <trkpt lat="37.4109120" lon="-4.6151600">
        <ele>311.4</ele>
        <time>2021-12-29T11:02:26Z</time>
      </trkpt>
      <trkpt lat="37.4109120" lon="-4.6151600">
        <ele>311.4</ele>
        <time>2021-12-29T11:02:27Z</time>
      </trkpt>
      <trkpt lat="37.4109120" lon="-4.6151600">
        <ele>311.4</ele>
        <time>2021-12-29T11:02:28Z</time>
      </trkpt>
      <trkpt lat="37.4109120" lon="-4.6151600">
        <ele>311.2</ele>
        <time>2021-12-29T11:02:29Z</time>
      </trkpt>
      <trkpt lat="37.4109120" lon="-4.6151600">
        <ele>311.2</ele>
        <time>2021-12-29T11:02:30Z</time>
      </trkpt>
      <trkpt lat="37.4109120" lon="-4.6151600">
        <ele>311.2</ele>
        <time>2021-12-29T11:02:53Z</time>
      </trkpt>
      <trkpt lat="37.4108960" lon="-4.6152580">
        <ele>310.2</ele>
        <time>2021-12-29T11:02:54Z</time>
      </trkpt>
      <trkpt lat="37.4108960" lon="-4.6152580">
        <ele>310.2</ele>
        <time>2021-12-29T11:02:55Z</time>
      </trkpt>
      <trkpt lat="37.4108860" lon="-4.6152800">
        <ele>310.2</ele>
        <time>2021-12-29T11:02:56Z</time>
      </trkpt>
      <trkpt lat="37.4108860" lon="-4.6152800">
        <ele>310.2</ele>
        <time>2021-12-29T11:02:57Z</time>
      </trkpt>
      <trkpt lat="37.4108740" lon="-4.6153180">
        <ele>310.0</ele>
        <time>2021-12-29T11:02:58Z</time>
      </trkpt>
      <trkpt lat="37.4108740" lon="-4.6153180">
        <ele>310.0</ele>
        <time>2021-12-29T11:02:59Z</time>
      </trkpt>
      <trkpt lat="37.4108740" lon="-4.6153180">
        <ele>310.0</ele>
        <time>2021-12-29T11:03:00Z</time>
      </trkpt>
      <trkpt lat="37.4108740" lon="-4.6153180">
        <ele>310.0</ele>
        <time>2021-12-29T11:03:01Z</time>
      </trkpt>
      <trkpt lat="37.4108740" lon="-4.6153180">
        <ele>310.2</ele>
        <time>2021-12-29T11:03:02Z</time>
      </trkpt>
      <trkpt lat="37.4108740" lon="-4.6153180">
        <ele>310.2</ele>
        <time>2021-12-29T11:03:03Z</time>
      </trkpt>
      <trkpt lat="37.4108740" lon="-4.6153180">
        <ele>310.2</ele>
        <time>2021-12-29T11:03:04Z</time>
      </trkpt>
      <trkpt lat="37.4108740" lon="-4.6153180">
        <ele>310.2</ele>
        <time>2021-12-29T11:03:05Z</time>
      </trkpt>
      <trkpt lat="37.4108740" lon="-4.6153180">
        <ele>310.2</ele>
        <time>2021-12-29T11:03:21Z</time>
      </trkpt>
      <trkpt lat="37.4108740" lon="-4.6153180">
        <ele>311.8</ele>
        <time>2021-12-29T11:03:22Z</time>
      </trkpt>
      <trkpt lat="37.4108740" lon="-4.6153180">
        <ele>311.8</ele>
        <time>2021-12-29T11:03:23Z</time>
      </trkpt>
      <trkpt lat="37.4108740" lon="-4.6153180">
        <ele>311.8</ele>
        <time>2021-12-29T11:03:24Z</time>
      </trkpt>
      <trkpt lat="37.4108740" lon="-4.6153180">
        <ele>311.8</ele>
        <time>2021-12-29T11:03:25Z</time>
      </trkpt>
      <trkpt lat="37.4108740" lon="-4.6153180">
        <ele>311.8</ele>
        <time>2021-12-29T11:03:30Z</time>
      </trkpt>
      <trkpt lat="37.4108740" lon="-4.6153180">
        <ele>312.0</ele>
        <time>2021-12-29T11:03:31Z</time>
      </trkpt>
      <trkpt lat="37.4108350" lon="-4.6155350">
        <ele>312.0</ele>
        <time>2021-12-29T11:03:32Z</time>
      </trkpt>
      <trkpt lat="37.4108350" lon="-4.6155350">
        <ele>312.0</ele>
        <time>2021-12-29T11:03:33Z</time>
      </trkpt>
      <trkpt lat="37.4108320" lon="-4.6155680">
        <ele>312.0</ele>
        <time>2021-12-29T11:03:34Z</time>
      </trkpt>
      <trkpt lat="37.4108320" lon="-4.6155680">
        <ele>312.0</ele>
        <time>2021-12-29T11:03:35Z</time>
      </trkpt>
      <trkpt lat="37.4108320" lon="-4.6155680">
        <ele>312.2</ele>
        <time>2021-12-29T11:03:36Z</time>
      </trkpt>
      <trkpt lat="37.4108320" lon="-4.6155680">
        <ele>312.2</ele>
        <time>2021-12-29T11:03:37Z</time>
      </trkpt>
      <trkpt lat="37.4108320" lon="-4.6155680">
        <ele>312.2</ele>
        <time>2021-12-29T11:03:38Z</time>
      </trkpt>
      <trkpt lat="37.4108320" lon="-4.6155680">
        <ele>312.2</ele>
        <time>2021-12-29T11:03:39Z</time>
      </trkpt>
      <trkpt lat="37.4108320" lon="-4.6155680">
        <ele>312.2</ele>
        <time>2021-12-29T11:03:40Z</time>
      </trkpt>
      <trkpt lat="37.4108320" lon="-4.6155680">
        <ele>312.2</ele>
        <time>2021-12-29T11:04:49Z</time>
      </trkpt>
      <trkpt lat="37.4108320" lon="-4.6155680">
        <ele>312.8</ele>
        <time>2021-12-29T11:04:50Z</time>
      </trkpt>
      <trkpt lat="37.4108160" lon="-4.6157000">
        <ele>312.8</ele>
        <time>2021-12-29T11:04:51Z</time>
      </trkpt>
      <trkpt lat="37.4108160" lon="-4.6157000">
        <ele>312.8</ele>
        <time>2021-12-29T11:04:52Z</time>
      </trkpt>
      <trkpt lat="37.4108160" lon="-4.6157000">
        <ele>312.8</ele>
        <time>2021-12-29T11:04:53Z</time>
      </trkpt>
      <trkpt lat="37.4108160" lon="-4.6157000">
        <ele>313.0</ele>
        <time>2021-12-29T11:04:54Z</time>
      </trkpt>
      <trkpt lat="37.4108160" lon="-4.6157000">
        <ele>313.0</ele>
        <time>2021-12-29T11:04:55Z</time>
      </trkpt>
      <trkpt lat="37.4108160" lon="-4.6157000">
        <ele>313.0</ele>
        <time>2021-12-29T11:05:04Z</time>
      </trkpt>
      <trkpt lat="37.4108160" lon="-4.6157000">
        <ele>312.8</ele>
        <time>2021-12-29T11:05:05Z</time>
      </trkpt>
      <trkpt lat="37.4108160" lon="-4.6157000">
        <ele>312.6</ele>
        <time>2021-12-29T11:05:06Z</time>
      </trkpt>
      <trkpt lat="37.4108160" lon="-4.6157000">
        <ele>312.6</ele>
        <time>2021-12-29T11:05:07Z</time>
      </trkpt>
      <trkpt lat="37.4108160" lon="-4.6157000">
        <ele>312.6</ele>
        <time>2021-12-29T11:05:11Z</time>
      </trkpt>
      <trkpt lat="37.4108190" lon="-4.6159300">
        <ele>312.4</ele>
        <time>2021-12-29T11:05:12Z</time>
      </trkpt>
      <trkpt lat="37.4108180" lon="-4.6159430">
        <ele>312.4</ele>
        <time>2021-12-29T11:05:13Z</time>
      </trkpt>
      <trkpt lat="37.4108160" lon="-4.6159570">
        <ele>312.4</ele>
        <time>2021-12-29T11:05:14Z</time>
      </trkpt>
      <trkpt lat="37.4108160" lon="-4.6159570">
        <ele>312.4</ele>
        <time>2021-12-29T11:05:15Z</time>
      </trkpt>
      <trkpt lat="37.4108130" lon="-4.6159820">
        <ele>312.4</ele>
        <time>2021-12-29T11:05:16Z</time>
      </trkpt>
      <trkpt lat="37.4108130" lon="-4.6159820">
        <ele>312.4</ele>
        <time>2021-12-29T11:05:17Z</time>
      </trkpt>
      <trkpt lat="37.4108130" lon="-4.6159820">
        <ele>312.4</ele>
        <time>2021-12-29T11:05:18Z</time>
      </trkpt>
      <trkpt lat="37.4108130" lon="-4.6159820">
        <ele>312.4</ele>
        <time>2021-12-29T11:05:19Z</time>
      </trkpt>
      <trkpt lat="37.4108130" lon="-4.6159820">
        <ele>312.4</ele>
        <time>2021-12-29T11:05:20Z</time>
      </trkpt>
      <trkpt lat="37.4108130" lon="-4.6159820">
        <ele>312.4</ele>
        <time>2021-12-29T11:05:21Z</time>
      </trkpt>
      <trkpt lat="37.4108130" lon="-4.6159820">
        <ele>312.4</ele>
        <time>2021-12-29T11:05:30Z</time>
      </trkpt>
      <trkpt lat="37.4108130" lon="-4.6159820">
        <ele>312.4</ele>
        <time>2021-12-29T11:05:31Z</time>
      </trkpt>
      <trkpt lat="37.4108130" lon="-4.6159820">
        <ele>312.4</ele>
        <time>2021-12-29T11:05:32Z</time>
      </trkpt>
      <trkpt lat="37.4108130" lon="-4.6159820">
        <ele>312.4</ele>
        <time>2021-12-29T11:05:33Z</time>
      </trkpt>
      <trkpt lat="37.4108130" lon="-4.6159820">
        <ele>312.4</ele>
        <time>2021-12-29T11:06:47Z</time>
      </trkpt>
      <trkpt lat="37.4108130" lon="-4.6159820">
        <ele>312.4</ele>
        <time>2021-12-29T11:06:48Z</time>
      </trkpt>
      <trkpt lat="37.4107900" lon="-4.6162330">
        <ele>312.4</ele>
        <time>2021-12-29T11:06:49Z</time>
      </trkpt>
      <trkpt lat="37.4107870" lon="-4.6162570">
        <ele>312.4</ele>
        <time>2021-12-29T11:06:50Z</time>
      </trkpt>
      <trkpt lat="37.4107870" lon="-4.6162570">
        <ele>312.2</ele>
        <time>2021-12-29T11:06:51Z</time>
      </trkpt>
      <trkpt lat="37.4107780" lon="-4.6162950">
        <ele>312.2</ele>
        <time>2021-12-29T11:06:52Z</time>
      </trkpt>
      <trkpt lat="37.4107780" lon="-4.6162950">
        <ele>312.2</ele>
        <time>2021-12-29T11:06:53Z</time>
      </trkpt>
      <trkpt lat="37.4107740" lon="-4.6163280">
        <ele>312.0</ele>
        <time>2021-12-29T11:06:54Z</time>
      </trkpt>
      <trkpt lat="37.4107740" lon="-4.6163280">
        <ele>312.0</ele>
        <time>2021-12-29T11:06:55Z</time>
      </trkpt>
      <trkpt lat="37.4107740" lon="-4.6163600">
        <ele>312.0</ele>
        <time>2021-12-29T11:06:56Z</time>
      </trkpt>
      <trkpt lat="37.4107740" lon="-4.6163600">
        <ele>312.0</ele>
        <time>2021-12-29T11:06:57Z</time>
      </trkpt>
      <trkpt lat="37.4107680" lon="-4.6163880">
        <ele>311.8</ele>
        <time>2021-12-29T11:06:58Z</time>
      </trkpt>
      <trkpt lat="37.4107680" lon="-4.6163880">
        <ele>311.8</ele>
        <time>2021-12-29T11:06:59Z</time>
      </trkpt>
      <trkpt lat="37.4107680" lon="-4.6163880">
        <ele>311.8</ele>
        <time>2021-12-29T11:07:00Z</time>
      </trkpt>
      <trkpt lat="37.4107710" lon="-4.6164200">
        <ele>311.6</ele>
        <time>2021-12-29T11:07:01Z</time>
      </trkpt>
      <trkpt lat="37.4107710" lon="-4.6164200">
        <ele>311.6</ele>
        <time>2021-12-29T11:07:02Z</time>
      </trkpt>
      <trkpt lat="37.4107710" lon="-4.6164200">
        <ele>311.4</ele>
        <time>2021-12-29T11:07:03Z</time>
      </trkpt>
      <trkpt lat="37.4107710" lon="-4.6164200">
        <ele>311.4</ele>
        <time>2021-12-29T11:07:04Z</time>
      </trkpt>
      <trkpt lat="37.4107710" lon="-4.6164200">
        <ele>311.4</ele>
        <time>2021-12-29T11:07:05Z</time>
      </trkpt>
      <trkpt lat="37.4107710" lon="-4.6164200">
        <ele>311.4</ele>
        <time>2021-12-29T11:07:06Z</time>
      </trkpt>
      <trkpt lat="37.4107710" lon="-4.6164200">
        <ele>311.4</ele>
        <time>2021-12-29T11:07:07Z</time>
      </trkpt>
      <trkpt lat="37.4107710" lon="-4.6164200">
        <ele>311.4</ele>
        <time>2021-12-29T11:07:08Z</time>
      </trkpt>
      <trkpt lat="37.4107710" lon="-4.6164200">
        <ele>311.4</ele>
        <time>2021-12-29T11:07:30Z</time>
      </trkpt>
      <trkpt lat="37.4107710" lon="-4.6164200">
        <ele>311.2</ele>
        <time>2021-12-29T11:07:31Z</time>
      </trkpt>
      <trkpt lat="37.4107620" lon="-4.6165550">
        <ele>311.2</ele>
        <time>2021-12-29T11:07:32Z</time>
      </trkpt>
      <trkpt lat="37.4107620" lon="-4.6165550">
        <ele>311.2</ele>
        <time>2021-12-29T11:07:33Z</time>
      </trkpt>
      <trkpt lat="37.4107580" lon="-4.6165930">
        <ele>311.2</ele>
        <time>2021-12-29T11:07:34Z</time>
      </trkpt>
      <trkpt lat="37.4107620" lon="-4.6166180">
        <ele>311.2</ele>
        <time>2021-12-29T11:07:35Z</time>
      </trkpt>
      <trkpt lat="37.4107620" lon="-4.6166180">
        <ele>311.2</ele>
        <time>2021-12-29T11:07:36Z</time>
      </trkpt>
      <trkpt lat="37.4107620" lon="-4.6166480">
        <ele>311.2</ele>
        <time>2021-12-29T11:07:37Z</time>
      </trkpt>
      <trkpt lat="37.4107620" lon="-4.6166480">
        <ele>311.2</ele>
        <time>2021-12-29T11:07:38Z</time>
      </trkpt>
      <trkpt lat="37.4107620" lon="-4.6166480">
        <ele>311.0</ele>
        <time>2021-12-29T11:07:39Z</time>
      </trkpt>
      <trkpt lat="37.4107620" lon="-4.6166480">
        <ele>311.0</ele>
        <time>2021-12-29T11:07:40Z</time>
      </trkpt>
      <trkpt lat="37.4107620" lon="-4.6166480">
        <ele>311.0</ele>
        <time>2021-12-29T11:07:41Z</time>
      </trkpt>
      <trkpt lat="37.4107620" lon="-4.6166480">
        <ele>311.0</ele>
        <time>2021-12-29T11:07:42Z</time>
      </trkpt>
      <trkpt lat="37.4107620" lon="-4.6166480">
        <ele>311.0</ele>
        <time>2021-12-29T11:20:11Z</time>
      </trkpt>
      <trkpt lat="37.4106750" lon="-4.6171730">
        <ele>313.0</ele>
        <time>2021-12-29T11:20:12Z</time>
      </trkpt>
      <trkpt lat="37.4106750" lon="-4.6171730">
        <ele>313.0</ele>
        <time>2021-12-29T11:20:13Z</time>
      </trkpt>
      <trkpt lat="37.4106620" lon="-4.6172150">
        <ele>313.0</ele>
        <time>2021-12-29T11:20:14Z</time>
      </trkpt>
      <trkpt lat="37.4106620" lon="-4.6172150">
        <ele>313.2</ele>
        <time>2021-12-29T11:20:15Z</time>
      </trkpt>
      <trkpt lat="37.4106590" lon="-4.6172470">
        <ele>313.2</ele>
        <time>2021-12-29T11:20:16Z</time>
      </trkpt>
      <trkpt lat="37.4106590" lon="-4.6172470">
        <ele>313.0</ele>
        <time>2021-12-29T11:20:17Z</time>
      </trkpt>
      <trkpt lat="37.4106590" lon="-4.6172700">
        <ele>313.0</ele>
        <time>2021-12-29T11:20:18Z</time>
      </trkpt>
      <trkpt lat="37.4106590" lon="-4.6172700">
        <ele>313.0</ele>
        <time>2021-12-29T11:20:19Z</time>
      </trkpt>
      <trkpt lat="37.4106720" lon="-4.6172930">
        <ele>313.0</ele>
        <time>2021-12-29T11:20:20Z</time>
      </trkpt>
      <trkpt lat="37.4106720" lon="-4.6172930">
        <ele>312.8</ele>
        <time>2021-12-29T11:20:21Z</time>
      </trkpt>
      <trkpt lat="37.4106720" lon="-4.6172930">
        <ele>312.8</ele>
        <time>2021-12-29T11:20:22Z</time>
      </trkpt>
      <trkpt lat="37.4106720" lon="-4.6172930">
        <ele>312.8</ele>
        <time>2021-12-29T11:20:23Z</time>
      </trkpt>
      <trkpt lat="37.4106720" lon="-4.6172930">
        <ele>312.8</ele>
        <time>2021-12-29T11:23:13Z</time>
      </trkpt>
      <trkpt lat="37.4106110" lon="-4.6181070">
        <ele>312.4</ele>
        <time>2021-12-29T11:23:14Z</time>
      </trkpt>
      <trkpt lat="37.4106050" lon="-4.6181300">
        <ele>312.4</ele>
        <time>2021-12-29T11:23:15Z</time>
      </trkpt>
      <trkpt lat="37.4106050" lon="-4.6181300">
        <ele>312.4</ele>
        <time>2021-12-29T11:23:16Z</time>
      </trkpt>
      <trkpt lat="37.4106050" lon="-4.6181740">
        <ele>312.4</ele>
        <time>2021-12-29T11:23:17Z</time>
      </trkpt>
      <trkpt lat="37.4106050" lon="-4.6181740">
        <ele>312.4</ele>
        <time>2021-12-29T11:23:18Z</time>
      </trkpt>
      <trkpt lat="37.4105980" lon="-4.6182080">
        <ele>312.4</ele>
        <time>2021-12-29T11:23:19Z</time>
      </trkpt>
      <trkpt lat="37.4105980" lon="-4.6182080">
        <ele>312.2</ele>
        <time>2021-12-29T11:23:20Z</time>
      </trkpt>
      <trkpt lat="37.4105980" lon="-4.6182330">
        <ele>312.2</ele>
        <time>2021-12-29T11:23:21Z</time>
      </trkpt>
      <trkpt lat="37.4105980" lon="-4.6182330">
        <ele>312.2</ele>
        <time>2021-12-29T11:23:22Z</time>
      </trkpt>
      <trkpt lat="37.4105950" lon="-4.6182600">
        <ele>312.0</ele>
        <time>2021-12-29T11:23:23Z</time>
      </trkpt>
      <trkpt lat="37.4105950" lon="-4.6182600">
        <ele>312.0</ele>
        <time>2021-12-29T11:23:24Z</time>
      </trkpt>
      <trkpt lat="37.4105950" lon="-4.6182600">
        <ele>311.8</ele>
        <time>2021-12-29T11:23:25Z</time>
      </trkpt>
      <trkpt lat="37.4105950" lon="-4.6182600">
        <ele>311.8</ele>
        <time>2021-12-29T11:23:26Z</time>
      </trkpt>
      <trkpt lat="37.4105950" lon="-4.6182600">
        <ele>311.8</ele>
        <time>2021-12-29T11:23:27Z</time>
      </trkpt>
      <trkpt lat="37.4105950" lon="-4.6182600">
        <ele>311.6</ele>
        <time>2021-12-29T11:23:28Z</time>
      </trkpt>
      <trkpt lat="37.4105950" lon="-4.6182600">
        <ele>311.6</ele>
        <time>2021-12-29T11:23:29Z</time>
      </trkpt>
      <trkpt lat="37.4105950" lon="-4.6182600">
        <ele>311.6</ele>
        <time>2021-12-29T11:23:48Z</time>
      </trkpt>
      <trkpt lat="37.4106240" lon="-4.6181420">
        <ele>311.2</ele>
        <time>2021-12-29T11:23:49Z</time>
      </trkpt>
      <trkpt lat="37.4106240" lon="-4.6181420">
        <ele>311.0</ele>
        <time>2021-12-29T11:23:50Z</time>
      </trkpt>
      <trkpt lat="37.4106240" lon="-4.6181420">
        <ele>311.0</ele>
        <time>2021-12-29T11:23:51Z</time>
      </trkpt>
      <trkpt lat="37.4106240" lon="-4.6181420">
        <ele>310.8</ele>
        <time>2021-12-29T11:23:52Z</time>
      </trkpt>
      <trkpt lat="37.4106240" lon="-4.6181420">
        <ele>302.4</ele>
        <time>2021-12-29T12:11:32Z</time>
      </trkpt>
      <trkpt lat="37.4106240" lon="-4.6181420">
        <ele>302.4</ele>
        <time>2021-12-29T12:11:33Z</time>
      </trkpt>
      <trkpt lat="37.4106240" lon="-4.6181420">
        <ele>302.4</ele>
        <time>2021-12-29T12:11:34Z</time>
      </trkpt>
      <trkpt lat="37.4106240" lon="-4.6181420">
        <ele>302.4</ele>
        <time>2021-12-29T12:11:35Z</time>
      </trkpt>
      <trkpt lat="37.4106240" lon="-4.6181420">
        <ele>302.4</ele>
        <time>2021-12-29T12:11:36Z</time>
      </trkpt>
      <trkpt lat="37.4106240" lon="-4.6181420">
        <ele>302.4</ele>
        <time>2021-12-29T12:11:37Z</time>
      </trkpt>
      <trkpt lat="37.4106240" lon="-4.6181420">
        <ele>302.4</ele>
        <time>2021-12-29T12:11:38Z</time>
      </trkpt>
      <trkpt lat="37.4106240" lon="-4.6181420">
        <ele>302.4</ele>
        <time>2021-12-29T12:11:39Z</time>
      </trkpt>
      <trkpt lat="37.4106240" lon="-4.6181420">
        <ele>302.4</ele>
        <time>2021-12-29T12:11:40Z</time>
      </trkpt>
      <trkpt lat="37.4106240" lon="-4.6181420">
        <ele>302.4</ele>
        <time>2021-12-29T12:11:41Z</time>
      </trkpt>
      <trkpt lat="37.4106240" lon="-4.6181420">
        <ele>302.4</ele>
        <time>2021-12-29T12:11:42Z</time>
      </trkpt>
      <trkpt lat="37.4106240" lon="-4.6181420">
        <ele>302.4</ele>
        <time>2021-12-29T12:11:43Z</time>
      </trkpt>
      <trkpt lat="37.4106240" lon="-4.6181420">
        <ele>302.4</ele>
        <time>2021-12-29T12:11:44Z</time>
      </trkpt>
      <trkpt lat="37.4106240" lon="-4.6181420">
        <ele>302.4</ele>
        <time>2021-12-29T12:11:45Z</time>
      </trkpt>
      <trkpt lat="37.4106240" lon="-4.6181420">
        <ele>302.4</ele>
        <time>2021-12-29T12:11:46Z</time>
      </trkpt>
      <trkpt lat="37.4106240" lon="-4.6181420">
        <ele>302.4</ele>
        <time>2021-12-29T12:11:47Z</time>
      </trkpt>
      <trkpt lat="37.4106240" lon="-4.6181420">
        <ele>302.4</ele>
        <time>2021-12-29T12:11:48Z</time>
      </trkpt>
      <trkpt lat="37.4106240" lon="-4.6181420">
        <ele>302.4</ele>
        <time>2021-12-29T12:11:49Z</time>
      </trkpt>
      <trkpt lat="37.4106240" lon="-4.6181420">
        <ele>302.4</ele>
        <time>2021-12-29T12:11:50Z</time>
      </trkpt>
      <trkpt lat="37.4106240" lon="-4.6181420">
        <ele>302.4</ele>
        <time>2021-12-29T12:11:51Z</time>
      </trkpt>
      <trkpt lat="37.4106240" lon="-4.6181420">
        <ele>302.4</ele>
        <time>2021-12-29T12:11:52Z</time>
      </trkpt>
      <trkpt lat="37.4106240" lon="-4.6181420">
        <ele>302.4</ele>
        <time>2021-12-29T12:11:53Z</time>
      </trkpt>
      <trkpt lat="37.4106240" lon="-4.6181420">
        <ele>302.4</ele>
        <time>2021-12-29T12:11:54Z</time>
      </trkpt>
      <trkpt lat="37.4106240" lon="-4.6181420">
        <ele>302.4</ele>
        <time>2021-12-29T12:11:55Z</time>
      </trkpt>
      <trkpt lat="37.4106240" lon="-4.6181420">
        <ele>302.4</ele>
        <time>2021-12-29T12:11:56Z</time>
      </trkpt>
      <trkpt lat="37.4106240" lon="-4.6181420">
        <ele>302.4</ele>
        <time>2021-12-29T12:11:57Z</time>
      </trkpt>
      <trkpt lat="37.4106240" lon="-4.6181420">
        <ele>302.4</ele>
        <time>2021-12-29T12:11:58Z</time>
      </trkpt>
      <trkpt lat="37.4106240" lon="-4.6181420">
        <ele>302.4</ele>
        <time>2021-12-29T12:11:59Z</time>
      </trkpt>
      <trkpt lat="37.4106240" lon="-4.6181420">
        <ele>302.4</ele>
        <time>2021-12-29T12:12:00Z</time>
      </trkpt>
      <trkpt lat="37.4106240" lon="-4.6181420">
        <ele>302.4</ele>
        <time>2021-12-29T12:12:01Z</time>
      </trkpt>
      <trkpt lat="37.4106240" lon="-4.6181420">
        <ele>302.4</ele>
        <time>2021-12-29T12:12:02Z</time>
      </trkpt>
      <trkpt lat="37.4106240" lon="-4.6181420">
        <ele>302.4</ele>
        <time>2021-12-29T12:12:03Z</time>
      </trkpt>
      <trkpt lat="37.4106240" lon="-4.6181420">
        <ele>302.4</ele>
        <time>2021-12-29T12:12:04Z</time>
      </trkpt>
      <trkpt lat="37.4106240" lon="-4.6181420">
        <ele>302.4</ele>
        <time>2021-12-29T12:12:05Z</time>
      </trkpt>
      <trkpt lat="37.4106240" lon="-4.6181420">
        <ele>302.4</ele>
        <time>2021-12-29T12:12:06Z</time>
      </trkpt>
      <trkpt lat="37.4106240" lon="-4.6181420">
        <ele>302.4</ele>
        <time>2021-12-29T12:12:07Z</time>
      </trkpt>
      <trkpt lat="37.4106240" lon="-4.6181420">
        <ele>302.4</ele>
        <time>2021-12-29T12:12:08Z</time>
      </trkpt>
      <trkpt lat="37.4106240" lon="-4.6181420">
        <ele>302.4</ele>
        <time>2021-12-29T12:12:09Z</time>
      </trkpt>
      <trkpt lat="37.4106240" lon="-4.6181420">
        <ele>302.4</ele>
        <time>2021-12-29T12:12:10Z</time>
      </trkpt>
      <trkpt lat="37.4106240" lon="-4.6181420">
        <ele>302.4</ele>
        <time>2021-12-29T12:12:11Z</time>
      </trkpt>
      <trkpt lat="37.4106240" lon="-4.6181420">
        <ele>302.4</ele>
        <time>2021-12-29T12:12:12Z</time>
      </trkpt>
      <trkpt lat="37.4106240" lon="-4.6181420">
        <ele>302.4</ele>
        <time>2021-12-29T12:12:13Z</time>
      </trkpt>
      <trkpt lat="37.4106240" lon="-4.6181420">
        <ele>302.4</ele>
        <time>2021-12-29T12:12:14Z</time>
      </trkpt>
      <trkpt lat="37.4106240" lon="-4.6181420">
        <ele>302.4</ele>
        <time>2021-12-29T12:12:15Z</time>
      </trkpt>
      <trkpt lat="37.4106240" lon="-4.6181420">
        <ele>302.4</ele>
        <time>2021-12-29T12:12:16Z</time>
      </trkpt>
      <trkpt lat="37.4106240" lon="-4.6181420">
        <ele>302.4</ele>
        <time>2021-12-29T12:12:17Z</time>
      </trkpt>
      <trkpt lat="37.4106240" lon="-4.6181420">
        <ele>302.4</ele>
        <time>2021-12-29T12:12:18Z</time>
      </trkpt>
      <trkpt lat="37.4106240" lon="-4.6181420">
        <ele>302.4</ele>
        <time>2021-12-29T12:12:19Z</time>
      </trkpt>
      <trkpt lat="37.4106240" lon="-4.6181420">
        <ele>302.4</ele>
        <time>2021-12-29T12:12:20Z</time>
      </trkpt>
      <trkpt lat="37.4106240" lon="-4.6181420">
        <ele>302.4</ele>
        <time>2021-12-29T12:12:21Z</time>
      </trkpt>
      <trkpt lat="37.4106240" lon="-4.6181420">
        <ele>302.4</ele>
        <time>2021-12-29T12:12:22Z</time>
      </trkpt>
      <trkpt lat="37.4106240" lon="-4.6181420">
        <ele>302.4</ele>
        <time>2021-12-29T12:12:23Z</time>
      </trkpt>
      <trkpt lat="37.4106240" lon="-4.6181420">
        <ele>302.4</ele>
        <time>2021-12-29T12:12:24Z</time>
      </trkpt>
      <trkpt lat="37.4106240" lon="-4.6181420">
        <ele>302.4</ele>
        <time>2021-12-29T12:12:25Z</time>
      </trkpt>
      <trkpt lat="37.4106240" lon="-4.6181420">
        <ele>302.4</ele>
        <time>2021-12-29T12:12:26Z</time>
      </trkpt>
      <trkpt lat="37.4106240" lon="-4.6181420">
        <ele>302.4</ele>
        <time>2021-12-29T12:12:27Z</time>
      </trkpt>
      <trkpt lat="37.4106240" lon="-4.6181420">
        <ele>302.4</ele>
        <time>2021-12-29T12:12:29Z</time>
      </trkpt>
      <trkpt lat="37.4106240" lon="-4.6181420">
        <ele>302.4</ele>
        <time>2021-12-29T12:12:30Z</time>
      </trkpt>
      <trkpt lat="37.4106240" lon="-4.6181420">
        <ele>302.4</ele>
        <time>2021-12-29T12:12:31Z</time>
      </trkpt>
      <trkpt lat="37.4106240" lon="-4.6181420">
        <ele>302.4</ele>
        <time>2021-12-29T12:12:32Z</time>
      </trkpt>
      <trkpt lat="37.4106240" lon="-4.6181420">
        <ele>302.4</ele>
        <time>2021-12-29T12:12:33Z</time>
      </trkpt>
      <trkpt lat="37.4106240" lon="-4.6181420">
        <ele>302.4</ele>
        <time>2021-12-29T12:12:34Z</time>
      </trkpt>
      <trkpt lat="37.4106240" lon="-4.6181420">
        <ele>302.4</ele>
        <time>2021-12-29T12:12:35Z</time>
      </trkpt>
      <trkpt lat="37.4106240" lon="-4.6181420">
        <ele>302.4</ele>
        <time>2021-12-29T12:12:36Z</time>
      </trkpt>
      <trkpt lat="37.4106240" lon="-4.6181420">
        <ele>302.4</ele>
        <time>2021-12-29T12:12:37Z</time>
      </trkpt>
      <trkpt lat="37.4106240" lon="-4.6181420">
        <ele>302.4</ele>
        <time>2021-12-29T12:12:38Z</time>
      </trkpt>
      <trkpt lat="37.4106240" lon="-4.6181420">
        <ele>302.4</ele>
        <time>2021-12-29T12:12:39Z</time>
      </trkpt>
      <trkpt lat="37.4106240" lon="-4.6181420">
        <ele>302.4</ele>
        <time>2021-12-29T12:12:40Z</time>
      </trkpt>
      <trkpt lat="37.4106240" lon="-4.6181420">
        <ele>302.4</ele>
        <time>2021-12-29T12:12:41Z</time>
      </trkpt>
      <trkpt lat="37.4106240" lon="-4.6181420">
        <ele>302.4</ele>
        <time>2021-12-29T12:12:42Z</time>
      </trkpt>
      <trkpt lat="37.4106240" lon="-4.6181420">
        <ele>302.4</ele>
        <time>2021-12-29T12:12:43Z</time>
      </trkpt>
      <trkpt lat="37.4106240" lon="-4.6181420">
        <ele>302.4</ele>
        <time>2021-12-29T12:12:44Z</time>
      </trkpt>
      <trkpt lat="37.4106240" lon="-4.6181420">
        <ele>302.4</ele>
        <time>2021-12-29T12:12:45Z</time>
      </trkpt>
      <trkpt lat="37.4106240" lon="-4.6181420">
        <ele>302.4</ele>
        <time>2021-12-29T12:12:46Z</time>
      </trkpt>
      <trkpt lat="37.4106240" lon="-4.6181420">
        <ele>302.4</ele>
        <time>2021-12-29T12:12:47Z</time>
      </trkpt>
      <trkpt lat="37.4106240" lon="-4.6181420">
        <ele>302.4</ele>
        <time>2021-12-29T12:12:48Z</time>
      </trkpt>
      <trkpt lat="37.4106240" lon="-4.6181420">
        <ele>302.4</ele>
        <time>2021-12-29T12:12:49Z</time>
      </trkpt>
      <trkpt lat="37.4106240" lon="-4.6181420">
        <ele>302.4</ele>
        <time>2021-12-29T12:12:50Z</time>
      </trkpt>
      <trkpt lat="37.4106240" lon="-4.6181420">
        <ele>302.4</ele>
        <time>2021-12-29T12:12:51Z</time>
      </trkpt>
      <trkpt lat="37.4106240" lon="-4.6181420">
        <ele>302.4</ele>
        <time>2021-12-29T12:12:52Z</time>
      </trkpt>
      <trkpt lat="37.4106240" lon="-4.6181420">
        <ele>302.4</ele>
        <time>2021-12-29T12:12:53Z</time>
      </trkpt>
      <trkpt lat="37.4106240" lon="-4.6181420">
        <ele>302.4</ele>
        <time>2021-12-29T12:12:54Z</time>
      </trkpt>
      <trkpt lat="37.4106240" lon="-4.6181420">
        <ele>302.4</ele>
        <time>2021-12-29T12:12:55Z</time>
      </trkpt>
      <trkpt lat="37.4106240" lon="-4.6181420">
        <ele>302.4</ele>
        <time>2021-12-29T12:12:56Z</time>
      </trkpt>
      <trkpt lat="37.4106240" lon="-4.6181420">
        <ele>302.4</ele>
        <time>2021-12-29T12:12:57Z</time>
      </trkpt>
      <trkpt lat="37.4106240" lon="-4.6181420">
        <ele>302.4</ele>
        <time>2021-12-29T12:12:58Z</time>
      </trkpt>
      <trkpt lat="37.4106240" lon="-4.6181420">
        <ele>302.4</ele>
        <time>2021-12-29T12:12:59Z</time>
      </trkpt>
      <trkpt lat="37.4106240" lon="-4.6181420">
        <ele>302.4</ele>
        <time>2021-12-29T12:13:00Z</time>
      </trkpt>
      <trkpt lat="37.4106240" lon="-4.6181420">
        <ele>302.4</ele>
        <time>2021-12-29T12:13:01Z</time>
      </trkpt>
      <trkpt lat="37.4106240" lon="-4.6181420">
        <ele>302.4</ele>
        <time>2021-12-29T12:13:02Z</time>
      </trkpt>
      <trkpt lat="37.4106240" lon="-4.6181420">
        <ele>302.4</ele>
        <time>2021-12-29T12:13:03Z</time>
      </trkpt>
      <trkpt lat="37.4106240" lon="-4.6181420">
        <ele>302.4</ele>
        <time>2021-12-29T12:13:04Z</time>
      </trkpt>
      <trkpt lat="37.4106240" lon="-4.6181420">
        <ele>302.4</ele>
        <time>2021-12-29T12:13:05Z</time>
      </trkpt>
      <trkpt lat="37.4106240" lon="-4.6181420">
        <ele>302.4</ele>
        <time>2021-12-29T12:13:06Z</time>
      </trkpt>
      <trkpt lat="37.4106240" lon="-4.6181420">
        <ele>302.4</ele>
        <time>2021-12-29T12:13:07Z</time>
      </trkpt>
      <trkpt lat="37.4106240" lon="-4.6181420">
        <ele>302.6</ele>
        <time>2021-12-29T12:13:08Z</time>
      </trkpt>
      <trkpt lat="37.4106240" lon="-4.6181420">
        <ele>302.6</ele>
        <time>2021-12-29T12:13:09Z</time>
      </trkpt>
      <trkpt lat="37.4106240" lon="-4.6181420">
        <ele>302.6</ele>
        <time>2021-12-29T12:13:10Z</time>
      </trkpt>
      <trkpt lat="37.4106240" lon="-4.6181420">
        <ele>302.6</ele>
        <time>2021-12-29T12:13:11Z</time>
      </trkpt>
      <trkpt lat="37.4106240" lon="-4.6181420">
        <ele>302.6</ele>
        <time>2021-12-29T12:13:12Z</time>
      </trkpt>
      <trkpt lat="37.4106240" lon="-4.6181420">
        <ele>302.6</ele>
        <time>2021-12-29T12:13:13Z</time>
      </trkpt>
      <trkpt lat="37.4106240" lon="-4.6181420">
        <ele>302.6</ele>
        <time>2021-12-29T12:13:14Z</time>
      </trkpt>
      <trkpt lat="37.4106240" lon="-4.6181420">
        <ele>302.6</ele>
        <time>2021-12-29T12:13:15Z</time>
      </trkpt>
      <trkpt lat="37.4106240" lon="-4.6181420">
        <ele>302.6</ele>
        <time>2021-12-29T12:13:16Z</time>
      </trkpt>
      <trkpt lat="37.4106240" lon="-4.6181420">
        <ele>302.6</ele>
        <time>2021-12-29T12:13:17Z</time>
      </trkpt>
      <trkpt lat="37.4106240" lon="-4.6181420">
        <ele>302.6</ele>
        <time>2021-12-29T12:13:18Z</time>
      </trkpt>
      <trkpt lat="37.4106240" lon="-4.6181420">
        <ele>302.6</ele>
        <time>2021-12-29T12:13:19Z</time>
      </trkpt>
      <trkpt lat="37.4106240" lon="-4.6181420">
        <ele>302.6</ele>
        <time>2021-12-29T12:13:20Z</time>
      </trkpt>
      <trkpt lat="37.4106240" lon="-4.6181420">
        <ele>302.6</ele>
        <time>2021-12-29T12:13:21Z</time>
      </trkpt>
      <trkpt lat="37.4106240" lon="-4.6181420">
        <ele>302.6</ele>
        <time>2021-12-29T12:13:22Z</time>
      </trkpt>
      <trkpt lat="37.4106240" lon="-4.6181420">
        <ele>302.6</ele>
        <time>2021-12-29T12:13:23Z</time>
      </trkpt>
      <trkpt lat="37.4106240" lon="-4.6181420">
        <ele>302.6</ele>
        <time>2021-12-29T12:13:24Z</time>
      </trkpt>
      <trkpt lat="37.4106240" lon="-4.6181420">
        <ele>302.6</ele>
        <time>2021-12-29T12:13:25Z</time>
      </trkpt>
      <trkpt lat="37.4106240" lon="-4.6181420">
        <ele>302.6</ele>
        <time>2021-12-29T12:13:26Z</time>
      </trkpt>
      <trkpt lat="37.4106240" lon="-4.6181420">
        <ele>302.6</ele>
        <time>2021-12-29T12:13:27Z</time>
      </trkpt>
      <trkpt lat="37.4106240" lon="-4.6181420">
        <ele>302.6</ele>
        <time>2021-12-29T12:13:28Z</time>
      </trkpt>
      <trkpt lat="37.4106240" lon="-4.6181420">
        <ele>302.6</ele>
        <time>2021-12-29T12:13:29Z</time>
      </trkpt>
      <trkpt lat="37.4106240" lon="-4.6181420">
        <ele>302.6</ele>
        <time>2021-12-29T12:13:30Z</time>
      </trkpt>
      <trkpt lat="37.4106240" lon="-4.6181420">
        <ele>302.6</ele>
        <time>2021-12-29T12:13:31Z</time>
      </trkpt>
      <trkpt lat="37.4106240" lon="-4.6181420">
        <ele>302.6</ele>
        <time>2021-12-29T12:13:32Z</time>
      </trkpt>
      <trkpt lat="37.4106240" lon="-4.6181420">
        <ele>302.6</ele>
        <time>2021-12-29T12:13:33Z</time>
      </trkpt>
      <trkpt lat="37.4106240" lon="-4.6181420">
        <ele>302.6</ele>
        <time>2021-12-29T12:13:34Z</time>
      </trkpt>
      <trkpt lat="37.4106240" lon="-4.6181420">
        <ele>302.6</ele>
        <time>2021-12-29T12:13:35Z</time>
      </trkpt>
      <trkpt lat="37.4106240" lon="-4.6181420">
        <ele>302.6</ele>
        <time>2021-12-29T12:13:36Z</time>
      </trkpt>
      <trkpt lat="37.4106240" lon="-4.6181420">
        <ele>302.6</ele>
        <time>2021-12-29T12:13:37Z</time>
      </trkpt>
      <trkpt lat="37.4106240" lon="-4.6181420">
        <ele>302.6</ele>
        <time>2021-12-29T12:13:38Z</time>
      </trkpt>
      <trkpt lat="37.4106240" lon="-4.6181420">
        <ele>302.6</ele>
        <time>2021-12-29T12:13:39Z</time>
      </trkpt>
      <trkpt lat="37.4106240" lon="-4.6181420">
        <ele>302.6</ele>
        <time>2021-12-29T12:13:40Z</time>
      </trkpt>
      <trkpt lat="37.4106240" lon="-4.6181420">
        <ele>302.6</ele>
        <time>2021-12-29T12:13:41Z</time>
      </trkpt>
      <trkpt lat="37.4106240" lon="-4.6181420">
        <ele>302.6</ele>
        <time>2021-12-29T12:13:42Z</time>
      </trkpt>
      <trkpt lat="37.4106240" lon="-4.6181420">
        <ele>302.8</ele>
        <time>2021-12-29T12:13:43Z</time>
      </trkpt>
      <trkpt lat="37.4106240" lon="-4.6181420">
        <ele>302.8</ele>
        <time>2021-12-29T12:13:44Z</time>
      </trkpt>
      <trkpt lat="37.4106240" lon="-4.6181420">
        <ele>302.8</ele>
        <time>2021-12-29T12:13:45Z</time>
      </trkpt>
      <trkpt lat="37.4106240" lon="-4.6181420">
        <ele>302.8</ele>
        <time>2021-12-29T12:13:46Z</time>
      </trkpt>
      <trkpt lat="37.4106240" lon="-4.6181420">
        <ele>302.8</ele>
        <time>2021-12-29T12:13:47Z</time>
      </trkpt>
      <trkpt lat="37.4106240" lon="-4.6181420">
        <ele>302.8</ele>
        <time>2021-12-29T12:13:48Z</time>
      </trkpt>
      <trkpt lat="37.4106240" lon="-4.6181420">
        <ele>302.8</ele>
        <time>2021-12-29T12:13:49Z</time>
      </trkpt>
      <trkpt lat="37.4106240" lon="-4.6181420">
        <ele>302.8</ele>
        <time>2021-12-29T12:13:50Z</time>
      </trkpt>
      <trkpt lat="37.4106240" lon="-4.6181420">
        <ele>302.8</ele>
        <time>2021-12-29T12:13:51Z</time>
      </trkpt>
      <trkpt lat="37.4106240" lon="-4.6181420">
        <ele>302.8</ele>
        <time>2021-12-29T12:13:52Z</time>
      </trkpt>
      <trkpt lat="37.4106240" lon="-4.6181420">
        <ele>302.8</ele>
        <time>2021-12-29T12:13:53Z</time>
      </trkpt>
      <trkpt lat="37.4106240" lon="-4.6181420">
        <ele>302.8</ele>
        <time>2021-12-29T12:13:54Z</time>
      </trkpt>
      <trkpt lat="37.4106240" lon="-4.6181420">
        <ele>302.8</ele>
        <time>2021-12-29T12:13:55Z</time>
      </trkpt>
      <trkpt lat="37.4106240" lon="-4.6181420">
        <ele>302.8</ele>
        <time>2021-12-29T12:13:56Z</time>
      </trkpt>
      <trkpt lat="37.4106240" lon="-4.6181420">
        <ele>302.8</ele>
        <time>2021-12-29T12:13:57Z</time>
      </trkpt>
      <trkpt lat="37.4106240" lon="-4.6181420">
        <ele>302.8</ele>
        <time>2021-12-29T12:13:58Z</time>
      </trkpt>
      <trkpt lat="37.4106240" lon="-4.6181420">
        <ele>302.8</ele>
        <time>2021-12-29T12:13:59Z</time>
      </trkpt>
      <trkpt lat="37.4106240" lon="-4.6181420">
        <ele>302.8</ele>
        <time>2021-12-29T12:14:00Z</time>
      </trkpt>
      <trkpt lat="37.4106240" lon="-4.6181420">
        <ele>302.8</ele>
        <time>2021-12-29T12:14:01Z</time>
      </trkpt>
      <trkpt lat="37.4106240" lon="-4.6181420">
        <ele>302.8</ele>
        <time>2021-12-29T12:14:02Z</time>
      </trkpt>
      <trkpt lat="37.4106240" lon="-4.6181420">
        <ele>302.8</ele>
        <time>2021-12-29T12:14:03Z</time>
      </trkpt>
      <trkpt lat="37.4106240" lon="-4.6181420">
        <ele>302.8</ele>
        <time>2021-12-29T12:14:04Z</time>
      </trkpt>
      <trkpt lat="37.4106240" lon="-4.6181420">
        <ele>302.8</ele>
        <time>2021-12-29T12:14:05Z</time>
      </trkpt>
      <trkpt lat="37.4106240" lon="-4.6181420">
        <ele>302.8</ele>
        <time>2021-12-29T12:14:06Z</time>
      </trkpt>
      <trkpt lat="37.4106240" lon="-4.6181420">
        <ele>302.8</ele>
        <time>2021-12-29T12:14:07Z</time>
      </trkpt>
      <trkpt lat="37.4106240" lon="-4.6181420">
        <ele>302.8</ele>
        <time>2021-12-29T12:14:08Z</time>
      </trkpt>
      <trkpt lat="37.4106240" lon="-4.6181420">
        <ele>302.8</ele>
        <time>2021-12-29T12:14:09Z</time>
      </trkpt>
      <trkpt lat="37.4106240" lon="-4.6181420">
        <ele>302.8</ele>
        <time>2021-12-29T12:14:10Z</time>
      </trkpt>
      <trkpt lat="37.4106240" lon="-4.6181420">
        <ele>302.8</ele>
        <time>2021-12-29T12:14:11Z</time>
      </trkpt>
      <trkpt lat="37.4106240" lon="-4.6181420">
        <ele>302.8</ele>
        <time>2021-12-29T12:14:12Z</time>
      </trkpt>
      <trkpt lat="37.4113250" lon="-4.6321830">
        <ele>302.8</ele>
        <time>2021-12-29T12:14:13Z</time>
      </trkpt>
      <trkpt lat="37.4113380" lon="-4.6321960">
        <ele>302.8</ele>
        <time>2021-12-29T12:14:14Z</time>
      </trkpt>
      <trkpt lat="37.4113500" lon="-4.6322100">
        <ele>303.0</ele>
        <time>2021-12-29T12:14:15Z</time>
      </trkpt>
      <trkpt lat="37.4113500" lon="-4.6322100">
        <ele>303.0</ele>
        <time>2021-12-29T12:14:16Z</time>
      </trkpt>
      <trkpt lat="37.4113760" lon="-4.6322260">
        <ele>303.0</ele>
        <time>2021-12-29T12:14:17Z</time>
      </trkpt>
      <trkpt lat="37.4113760" lon="-4.6322260">
        <ele>303.0</ele>
        <time>2021-12-29T12:14:18Z</time>
      </trkpt>
      <trkpt lat="37.4113950" lon="-4.6322450">
        <ele>302.8</ele>
        <time>2021-12-29T12:14:19Z</time>
      </trkpt>
      <trkpt lat="37.4113950" lon="-4.6322450">
        <ele>302.8</ele>
        <time>2021-12-29T12:14:20Z</time>
      </trkpt>
      <trkpt lat="37.4113950" lon="-4.6322450">
        <ele>302.8</ele>
        <time>2021-12-29T12:14:21Z</time>
      </trkpt>
      <trkpt lat="37.4114110" lon="-4.6322660">
        <ele>302.8</ele>
        <time>2021-12-29T12:14:22Z</time>
      </trkpt>
      <trkpt lat="37.4114110" lon="-4.6322660">
        <ele>302.8</ele>
        <time>2021-12-29T12:14:23Z</time>
      </trkpt>
      <trkpt lat="37.4114110" lon="-4.6322660">
        <ele>302.8</ele>
        <time>2021-12-29T12:14:24Z</time>
      </trkpt>
      <trkpt lat="37.4114110" lon="-4.6322660">
        <ele>302.8</ele>
        <time>2021-12-29T12:14:25Z</time>
      </trkpt>
      <trkpt lat="37.4114110" lon="-4.6322660">
        <ele>302.6</ele>
        <time>2021-12-29T12:14:26Z</time>
      </trkpt>
      <trkpt lat="37.4114110" lon="-4.6322660">
        <ele>302.6</ele>
        <time>2021-12-29T12:14:27Z</time>
      </trkpt>
      <trkpt lat="37.4114110" lon="-4.6322660">
        <ele>302.8</ele>
        <time>2021-12-29T12:14:28Z</time>
      </trkpt>
      <trkpt lat="37.4114110" lon="-4.6322660">
        <ele>302.8</ele>
        <time>2021-12-29T12:14:29Z</time>
      </trkpt>
      <trkpt lat="37.4114110" lon="-4.6322660">
        <ele>302.8</ele>
        <time>2021-12-29T12:14:30Z</time>
      </trkpt>
      <trkpt lat="37.4114110" lon="-4.6322660">
        <ele>302.8</ele>
        <time>2021-12-29T12:14:31Z</time>
      </trkpt>
      <trkpt lat="37.4114110" lon="-4.6322660">
        <ele>302.8</ele>
        <time>2021-12-29T12:14:32Z</time>
      </trkpt>
      <trkpt lat="37.4114110" lon="-4.6322660">
        <ele>302.8</ele>
        <time>2021-12-29T12:14:33Z</time>
      </trkpt>
      <trkpt lat="37.4114110" lon="-4.6322660">
        <ele>302.8</ele>
        <time>2021-12-29T12:14:34Z</time>
      </trkpt>
      <trkpt lat="37.4114110" lon="-4.6322660">
        <ele>302.6</ele>
        <time>2021-12-29T12:14:35Z</time>
      </trkpt>
      <trkpt lat="37.4114110" lon="-4.6322660">
        <ele>302.6</ele>
        <time>2021-12-29T12:14:36Z</time>
      </trkpt>
      <trkpt lat="37.4114110" lon="-4.6322660">
        <ele>302.6</ele>
        <time>2021-12-29T12:14:37Z</time>
      </trkpt>
      <trkpt lat="37.4114110" lon="-4.6322660">
        <ele>302.6</ele>
        <time>2021-12-29T12:14:38Z</time>
      </trkpt>
      <trkpt lat="37.4114110" lon="-4.6322660">
        <ele>302.8</ele>
        <time>2021-12-29T12:14:39Z</time>
      </trkpt>
      <trkpt lat="37.4114110" lon="-4.6322660">
        <ele>302.8</ele>
        <time>2021-12-29T12:14:40Z</time>
      </trkpt>
      <trkpt lat="37.4114110" lon="-4.6322660">
        <ele>303.0</ele>
        <time>2021-12-29T12:14:41Z</time>
      </trkpt>
      <trkpt lat="37.4114110" lon="-4.6322660">
        <ele>303.0</ele>
        <time>2021-12-29T12:14:42Z</time>
      </trkpt>
      <trkpt lat="37.4114110" lon="-4.6322660">
        <ele>303.0</ele>
        <time>2021-12-29T12:14:43Z</time>
      </trkpt>
      <trkpt lat="37.4114110" lon="-4.6322660">
        <ele>303.0</ele>
        <time>2021-12-29T12:14:44Z</time>
      </trkpt>
      <trkpt lat="37.4114110" lon="-4.6322660">
        <ele>303.2</ele>
        <time>2021-12-29T12:14:45Z</time>
      </trkpt>
      <trkpt lat="37.4114110" lon="-4.6322660">
        <ele>303.2</ele>
        <time>2021-12-29T12:14:46Z</time>
      </trkpt>
      <trkpt lat="37.4114110" lon="-4.6322660">
        <ele>303.2</ele>
        <time>2021-12-29T12:14:47Z</time>
      </trkpt>
      <trkpt lat="37.4114110" lon="-4.6322660">
        <ele>303.2</ele>
        <time>2021-12-29T12:14:48Z</time>
      </trkpt>
      <trkpt lat="37.4114110" lon="-4.6322660">
        <ele>303.4</ele>
        <time>2021-12-29T12:14:49Z</time>
      </trkpt>
      <trkpt lat="37.4114110" lon="-4.6322660">
        <ele>303.4</ele>
        <time>2021-12-29T12:14:50Z</time>
      </trkpt>
      <trkpt lat="37.4114240" lon="-4.6322920">
        <ele>303.4</ele>
        <time>2021-12-29T12:14:51Z</time>
      </trkpt>
      <trkpt lat="37.4114240" lon="-4.6322920">
        <ele>303.4</ele>
        <time>2021-12-29T12:14:52Z</time>
      </trkpt>
      <trkpt lat="37.4114240" lon="-4.6322920">
        <ele>303.4</ele>
        <time>2021-12-29T12:14:53Z</time>
      </trkpt>
      <trkpt lat="37.4114430" lon="-4.6323080">
        <ele>303.6</ele>
        <time>2021-12-29T12:14:54Z</time>
      </trkpt>
      <trkpt lat="37.4114430" lon="-4.6323080">
        <ele>303.6</ele>
        <time>2021-12-29T12:14:55Z</time>
      </trkpt>
      <trkpt lat="37.4114430" lon="-4.6323080">
        <ele>303.6</ele>
        <time>2021-12-29T12:14:56Z</time>
      </trkpt>
      <trkpt lat="37.4114620" lon="-4.6323280">
        <ele>303.6</ele>
        <time>2021-12-29T12:14:57Z</time>
      </trkpt>
      <trkpt lat="37.4114620" lon="-4.6323280">
        <ele>303.6</ele>
        <time>2021-12-29T12:14:58Z</time>
      </trkpt>
      <trkpt lat="37.4114620" lon="-4.6323280">
        <ele>303.6</ele>
        <time>2021-12-29T12:14:59Z</time>
      </trkpt>
      <trkpt lat="37.4114620" lon="-4.6323280">
        <ele>303.6</ele>
        <time>2021-12-29T12:15:00Z</time>
      </trkpt>
      <trkpt lat="37.4114620" lon="-4.6323280">
        <ele>303.6</ele>
        <time>2021-12-29T12:15:01Z</time>
      </trkpt>
      <trkpt lat="37.4114620" lon="-4.6323280">
        <ele>303.6</ele>
        <time>2021-12-29T12:15:02Z</time>
      </trkpt>
      <trkpt lat="37.4114620" lon="-4.6323280">
        <ele>303.8</ele>
        <time>2021-12-29T12:15:03Z</time>
      </trkpt>
      <trkpt lat="37.4114620" lon="-4.6323280">
        <ele>303.8</ele>
        <time>2021-12-29T12:15:04Z</time>
      </trkpt>
      <trkpt lat="37.4114620" lon="-4.6323280">
        <ele>303.8</ele>
        <time>2021-12-29T12:15:05Z</time>
      </trkpt>
      <trkpt lat="37.4114750" lon="-4.6323450">
        <ele>303.8</ele>
        <time>2021-12-29T12:15:06Z</time>
      </trkpt>
      <trkpt lat="37.4114750" lon="-4.6323450">
        <ele>303.8</ele>
        <time>2021-12-29T12:15:07Z</time>
      </trkpt>
      <trkpt lat="37.4114940" lon="-4.6323620">
        <ele>303.8</ele>
        <time>2021-12-29T12:15:08Z</time>
      </trkpt>
      <trkpt lat="37.4114940" lon="-4.6323620">
        <ele>303.8</ele>
        <time>2021-12-29T12:15:09Z</time>
      </trkpt>
      <trkpt lat="37.4114940" lon="-4.6323620">
        <ele>303.8</ele>
        <time>2021-12-29T12:15:10Z</time>
      </trkpt>
      <trkpt lat="37.4115070" lon="-4.6323780">
        <ele>303.8</ele>
        <time>2021-12-29T12:15:11Z</time>
      </trkpt>
      <trkpt lat="37.4115070" lon="-4.6323780">
        <ele>303.8</ele>
        <time>2021-12-29T12:15:12Z</time>
      </trkpt>
      <trkpt lat="37.4115070" lon="-4.6323780">
        <ele>303.8</ele>
        <time>2021-12-29T12:15:13Z</time>
      </trkpt>
      <trkpt lat="37.4115230" lon="-4.6323950">
        <ele>303.8</ele>
        <time>2021-12-29T12:15:14Z</time>
      </trkpt>
      <trkpt lat="37.4115230" lon="-4.6323950">
        <ele>303.8</ele>
        <time>2021-12-29T12:15:15Z</time>
      </trkpt>
      <trkpt lat="37.4115230" lon="-4.6323950">
        <ele>303.8</ele>
        <time>2021-12-29T12:15:16Z</time>
      </trkpt>
      <trkpt lat="37.4115230" lon="-4.6323950">
        <ele>303.8</ele>
        <time>2021-12-29T12:15:17Z</time>
      </trkpt>
      <trkpt lat="37.4115230" lon="-4.6323950">
        <ele>303.8</ele>
        <time>2021-12-29T12:15:18Z</time>
      </trkpt>
      <trkpt lat="37.4115230" lon="-4.6323950">
        <ele>303.8</ele>
        <time>2021-12-29T12:15:19Z</time>
      </trkpt>
      <trkpt lat="37.4115230" lon="-4.6323950">
        <ele>303.8</ele>
        <time>2021-12-29T12:15:20Z</time>
      </trkpt>
      <trkpt lat="37.4115420" lon="-4.6324080">
        <ele>303.8</ele>
        <time>2021-12-29T12:15:21Z</time>
      </trkpt>
      <trkpt lat="37.4115420" lon="-4.6324080">
        <ele>303.8</ele>
        <time>2021-12-29T12:15:22Z</time>
      </trkpt>
      <trkpt lat="37.4115420" lon="-4.6324080">
        <ele>303.8</ele>
        <time>2021-12-29T12:15:23Z</time>
      </trkpt>
      <trkpt lat="37.4115650" lon="-4.6324220">
        <ele>303.8</ele>
        <time>2021-12-29T12:15:24Z</time>
      </trkpt>
      <trkpt lat="37.4115650" lon="-4.6324220">
        <ele>303.8</ele>
        <time>2021-12-29T12:15:25Z</time>
      </trkpt>
      <trkpt lat="37.4115650" lon="-4.6324220">
        <ele>303.8</ele>
        <time>2021-12-29T12:15:26Z</time>
      </trkpt>
      <trkpt lat="37.4115870" lon="-4.6324350">
        <ele>303.8</ele>
        <time>2021-12-29T12:15:27Z</time>
      </trkpt>
      <trkpt lat="37.4115870" lon="-4.6324350">
        <ele>303.8</ele>
        <time>2021-12-29T12:15:28Z</time>
      </trkpt>
      <trkpt lat="37.4116030" lon="-4.6324470">
        <ele>303.8</ele>
        <time>2021-12-29T12:15:29Z</time>
      </trkpt>
      <trkpt lat="37.4116030" lon="-4.6324470">
        <ele>303.8</ele>
        <time>2021-12-29T12:15:30Z</time>
      </trkpt>
      <trkpt lat="37.4116030" lon="-4.6324470">
        <ele>303.8</ele>
        <time>2021-12-29T12:15:31Z</time>
      </trkpt>
      <trkpt lat="37.4116220" lon="-4.6324600">
        <ele>303.8</ele>
        <time>2021-12-29T12:15:32Z</time>
      </trkpt>
      <trkpt lat="37.4116220" lon="-4.6324600">
        <ele>303.8</ele>
        <time>2021-12-29T12:15:33Z</time>
      </trkpt>
      <trkpt lat="37.4116220" lon="-4.6324600">
        <ele>303.8</ele>
        <time>2021-12-29T12:15:34Z</time>
      </trkpt>
      <trkpt lat="37.4116450" lon="-4.6324770">
        <ele>303.8</ele>
        <time>2021-12-29T12:15:35Z</time>
      </trkpt>
      <trkpt lat="37.4116450" lon="-4.6324770">
        <ele>303.6</ele>
        <time>2021-12-29T12:15:36Z</time>
      </trkpt>
      <trkpt lat="37.4116640" lon="-4.6324880">
        <ele>303.6</ele>
        <time>2021-12-29T12:15:37Z</time>
      </trkpt>
      <trkpt lat="37.4116640" lon="-4.6324880">
        <ele>303.4</ele>
        <time>2021-12-29T12:15:38Z</time>
      </trkpt>
      <trkpt lat="37.4116640" lon="-4.6324880">
        <ele>303.4</ele>
        <time>2021-12-29T12:15:39Z</time>
      </trkpt>
      <trkpt lat="37.4116830" lon="-4.6325070">
        <ele>303.4</ele>
        <time>2021-12-29T12:15:40Z</time>
      </trkpt>
      <trkpt lat="37.4116830" lon="-4.6325070">
        <ele>303.4</ele>
        <time>2021-12-29T12:15:41Z</time>
      </trkpt>
      <trkpt lat="37.4117020" lon="-4.6325240">
        <ele>303.4</ele>
        <time>2021-12-29T12:15:42Z</time>
      </trkpt>
      <trkpt lat="37.4117020" lon="-4.6325240">
        <ele>303.2</ele>
        <time>2021-12-29T12:15:43Z</time>
      </trkpt>
      <trkpt lat="37.4117020" lon="-4.6325240">
        <ele>303.2</ele>
        <time>2021-12-29T12:15:44Z</time>
      </trkpt>
      <trkpt lat="37.4117250" lon="-4.6325370">
        <ele>303.2</ele>
        <time>2021-12-29T12:15:45Z</time>
      </trkpt>
      <trkpt lat="37.4117250" lon="-4.6325370">
        <ele>303.2</ele>
        <time>2021-12-29T12:15:46Z</time>
      </trkpt>
      <trkpt lat="37.4117250" lon="-4.6325370">
        <ele>303.2</ele>
        <time>2021-12-29T12:15:47Z</time>
      </trkpt>
      <trkpt lat="37.4117250" lon="-4.6325370">
        <ele>303.0</ele>
        <time>2021-12-29T12:15:48Z</time>
      </trkpt>
      <trkpt lat="37.4117250" lon="-4.6325370">
        <ele>303.0</ele>
        <time>2021-12-29T12:15:49Z</time>
      </trkpt>
      <trkpt lat="37.4117250" lon="-4.6325370">
        <ele>303.0</ele>
        <time>2021-12-29T12:16:09Z</time>
      </trkpt>
      <trkpt lat="37.4118660" lon="-4.6326550">
        <ele>302.4</ele>
        <time>2021-12-29T12:16:10Z</time>
      </trkpt>
      <trkpt lat="37.4118660" lon="-4.6326550">
        <ele>302.4</ele>
        <time>2021-12-29T12:16:11Z</time>
      </trkpt>
      <trkpt lat="37.4118850" lon="-4.6326680">
        <ele>302.4</ele>
        <time>2021-12-29T12:16:12Z</time>
      </trkpt>
      <trkpt lat="37.4118850" lon="-4.6326680">
        <ele>302.4</ele>
        <time>2021-12-29T12:16:13Z</time>
      </trkpt>
      <trkpt lat="37.4119010" lon="-4.6326900">
        <ele>302.2</ele>
        <time>2021-12-29T12:16:14Z</time>
      </trkpt>
      <trkpt lat="37.4119010" lon="-4.6326900">
        <ele>302.2</ele>
        <time>2021-12-29T12:16:15Z</time>
      </trkpt>
      <trkpt lat="37.4119010" lon="-4.6326900">
        <ele>302.2</ele>
        <time>2021-12-29T12:16:16Z</time>
      </trkpt>
      <trkpt lat="37.4119200" lon="-4.6327120">
        <ele>302.0</ele>
        <time>2021-12-29T12:16:17Z</time>
      </trkpt>
      <trkpt lat="37.4119200" lon="-4.6327120">
        <ele>302.0</ele>
        <time>2021-12-29T12:16:18Z</time>
      </trkpt>
      <trkpt lat="37.4119390" lon="-4.6327170">
        <ele>302.0</ele>
        <time>2021-12-29T12:16:19Z</time>
      </trkpt>
      <trkpt lat="37.4119390" lon="-4.6327170">
        <ele>302.0</ele>
        <time>2021-12-29T12:16:20Z</time>
      </trkpt>
      <trkpt lat="37.4119390" lon="-4.6327170">
        <ele>302.0</ele>
        <time>2021-12-29T12:16:21Z</time>
      </trkpt>
      <trkpt lat="37.4119390" lon="-4.6327170">
        <ele>302.0</ele>
        <time>2021-12-29T12:16:22Z</time>
      </trkpt>
      <trkpt lat="37.4119390" lon="-4.6327170">
        <ele>302.0</ele>
        <time>2021-12-29T12:16:23Z</time>
      </trkpt>
      <trkpt lat="37.4119390" lon="-4.6327170">
        <ele>302.0</ele>
        <time>2021-12-29T12:16:24Z</time>
      </trkpt>
      <trkpt lat="37.4119390" lon="-4.6327170">
        <ele>302.0</ele>
        <time>2021-12-29T12:16:25Z</time>
      </trkpt>
      <trkpt lat="37.4119390" lon="-4.6327170">
        <ele>302.0</ele>
        <time>2021-12-29T12:17:45Z</time>
      </trkpt>
      <trkpt lat="37.4121250" lon="-4.6328570">
        <ele>301.6</ele>
        <time>2021-12-29T12:17:46Z</time>
      </trkpt>
      <trkpt lat="37.4121470" lon="-4.6328770">
        <ele>301.8</ele>
        <time>2021-12-29T12:17:47Z</time>
      </trkpt>
      <trkpt lat="37.4121820" lon="-4.6329020">
        <ele>301.8</ele>
        <time>2021-12-29T12:17:48Z</time>
      </trkpt>
      <trkpt lat="37.4122050" lon="-4.6329250">
        <ele>301.8</ele>
        <time>2021-12-29T12:17:49Z</time>
      </trkpt>
      <trkpt lat="37.4122240" lon="-4.6329430">
        <ele>301.8</ele>
        <time>2021-12-29T12:17:50Z</time>
      </trkpt>
      <trkpt lat="37.4122500" lon="-4.6329580">
        <ele>301.8</ele>
        <time>2021-12-29T12:17:51Z</time>
      </trkpt>
      <trkpt lat="37.4122720" lon="-4.6329760">
        <ele>301.8</ele>
        <time>2021-12-29T12:17:52Z</time>
      </trkpt>
      <trkpt lat="37.4122980" lon="-4.6329960">
        <ele>301.8</ele>
        <time>2021-12-29T12:17:53Z</time>
      </trkpt>
      <trkpt lat="37.4123170" lon="-4.6330130">
        <ele>301.8</ele>
        <time>2021-12-29T12:17:54Z</time>
      </trkpt>
      <trkpt lat="37.4123390" lon="-4.6330330">
        <ele>301.8</ele>
        <time>2021-12-29T12:17:55Z</time>
      </trkpt>
      <trkpt lat="37.4123580" lon="-4.6330530">
        <ele>301.8</ele>
        <time>2021-12-29T12:17:56Z</time>
      </trkpt>
      <trkpt lat="37.4123810" lon="-4.6330770">
        <ele>301.8</ele>
        <time>2021-12-29T12:17:57Z</time>
      </trkpt>
      <trkpt lat="37.4124030" lon="-4.6331020">
        <ele>302.0</ele>
        <time>2021-12-29T12:17:58Z</time>
      </trkpt>
      <trkpt lat="37.4124260" lon="-4.6331230">
        <ele>302.0</ele>
        <time>2021-12-29T12:17:59Z</time>
      </trkpt>
      <trkpt lat="37.4124510" lon="-4.6331420">
        <ele>302.0</ele>
        <time>2021-12-29T12:18:00Z</time>
      </trkpt>
      <trkpt lat="37.4124800" lon="-4.6331570">
        <ele>302.2</ele>
        <time>2021-12-29T12:18:01Z</time>
      </trkpt>
      <trkpt lat="37.4125060" lon="-4.6331750">
        <ele>302.2</ele>
        <time>2021-12-29T12:18:02Z</time>
      </trkpt>
      <trkpt lat="37.4125340" lon="-4.6331970">
        <ele>302.2</ele>
        <time>2021-12-29T12:18:03Z</time>
      </trkpt>
      <trkpt lat="37.4125630" lon="-4.6332220">
        <ele>302.4</ele>
        <time>2021-12-29T12:18:04Z</time>
      </trkpt>
      <trkpt lat="37.4125980" lon="-4.6332500">
        <ele>302.4</ele>
        <time>2021-12-29T12:18:05Z</time>
      </trkpt>
      <trkpt lat="37.4126270" lon="-4.6332830">
        <ele>302.4</ele>
        <time>2021-12-29T12:18:06Z</time>
      </trkpt>
      <trkpt lat="37.4126590" lon="-4.6333180">
        <ele>302.2</ele>
        <time>2021-12-29T12:18:07Z</time>
      </trkpt>
      <trkpt lat="37.4126880" lon="-4.6333520">
        <ele>302.2</ele>
        <time>2021-12-29T12:18:08Z</time>
      </trkpt>
      <trkpt lat="37.4127200" lon="-4.6333830">
        <ele>302.2</ele>
        <time>2021-12-29T12:18:09Z</time>
      </trkpt>
      <trkpt lat="37.4127460" lon="-4.6334130">
        <ele>302.0</ele>
        <time>2021-12-29T12:18:10Z</time>
      </trkpt>
      <trkpt lat="37.4127740" lon="-4.6334490">
        <ele>302.0</ele>
        <time>2021-12-29T12:18:11Z</time>
      </trkpt>
      <trkpt lat="37.4127970" lon="-4.6334700">
        <ele>302.0</ele>
        <time>2021-12-29T12:18:12Z</time>
      </trkpt>
      <trkpt lat="37.4128190" lon="-4.6334980">
        <ele>302.0</ele>
        <time>2021-12-29T12:18:13Z</time>
      </trkpt>
      <trkpt lat="37.4128420" lon="-4.6335270">
        <ele>301.8</ele>
        <time>2021-12-29T12:18:14Z</time>
      </trkpt>
      <trkpt lat="37.4128640" lon="-4.6335580">
        <ele>301.8</ele>
        <time>2021-12-29T12:18:15Z</time>
      </trkpt>
      <trkpt lat="37.4128930" lon="-4.6335900">
        <ele>301.8</ele>
        <time>2021-12-29T12:18:16Z</time>
      </trkpt>
      <trkpt lat="37.4129150" lon="-4.6336200">
        <ele>302.0</ele>
        <time>2021-12-29T12:18:17Z</time>
      </trkpt>
      <trkpt lat="37.4129410" lon="-4.6336500">
        <ele>302.0</ele>
        <time>2021-12-29T12:18:18Z</time>
      </trkpt>
      <trkpt lat="37.4129660" lon="-4.6336850">
        <ele>301.8</ele>
        <time>2021-12-29T12:18:19Z</time>
      </trkpt>
      <trkpt lat="37.4129980" lon="-4.6337180">
        <ele>301.8</ele>
        <time>2021-12-29T12:18:20Z</time>
      </trkpt>
      <trkpt lat="37.4130240" lon="-4.6337520">
        <ele>301.8</ele>
        <time>2021-12-29T12:18:21Z</time>
      </trkpt>
      <trkpt lat="37.4130530" lon="-4.6337880">
        <ele>301.8</ele>
        <time>2021-12-29T12:18:22Z</time>
      </trkpt>
      <trkpt lat="37.4130780" lon="-4.6338250">
        <ele>301.8</ele>
        <time>2021-12-29T12:18:23Z</time>
      </trkpt>
      <trkpt lat="37.4131010" lon="-4.6338620">
        <ele>301.8</ele>
        <time>2021-12-29T12:18:24Z</time>
      </trkpt>
      <trkpt lat="37.4131260" lon="-4.6339000">
        <ele>301.8</ele>
        <time>2021-12-29T12:18:25Z</time>
      </trkpt>
      <trkpt lat="37.4131550" lon="-4.6339380">
        <ele>302.0</ele>
        <time>2021-12-29T12:18:26Z</time>
      </trkpt>
      <trkpt lat="37.4131780" lon="-4.6339780">
        <ele>302.0</ele>
        <time>2021-12-29T12:18:27Z</time>
      </trkpt>
      <trkpt lat="37.4132000" lon="-4.6340150">
        <ele>302.0</ele>
        <time>2021-12-29T12:18:28Z</time>
      </trkpt>
      <trkpt lat="37.4132220" lon="-4.6340480">
        <ele>302.0</ele>
        <time>2021-12-29T12:18:29Z</time>
      </trkpt>
      <trkpt lat="37.4132420" lon="-4.6340870">
        <ele>302.0</ele>
        <time>2021-12-29T12:18:30Z</time>
      </trkpt>
      <trkpt lat="37.4132610" lon="-4.6341220">
        <ele>302.0</ele>
        <time>2021-12-29T12:18:31Z</time>
      </trkpt>
      <trkpt lat="37.4132800" lon="-4.6341550">
        <ele>302.0</ele>
        <time>2021-12-29T12:18:32Z</time>
      </trkpt>
      <trkpt lat="37.4133020" lon="-4.6341900">
        <ele>302.2</ele>
        <time>2021-12-29T12:18:33Z</time>
      </trkpt>
      <trkpt lat="37.4133250" lon="-4.6342250">
        <ele>302.0</ele>
        <time>2021-12-29T12:18:34Z</time>
      </trkpt>
      <trkpt lat="37.4133440" lon="-4.6342600">
        <ele>302.0</ele>
        <time>2021-12-29T12:18:35Z</time>
      </trkpt>
      <trkpt lat="37.4133630" lon="-4.6342920">
        <ele>302.0</ele>
        <time>2021-12-29T12:18:36Z</time>
      </trkpt>
      <trkpt lat="37.4133820" lon="-4.6343270">
        <ele>302.0</ele>
        <time>2021-12-29T12:18:37Z</time>
      </trkpt>
      <trkpt lat="37.4134050" lon="-4.6343580">
        <ele>302.0</ele>
        <time>2021-12-29T12:18:38Z</time>
      </trkpt>
      <trkpt lat="37.4134210" lon="-4.6343920">
        <ele>302.0</ele>
        <time>2021-12-29T12:18:39Z</time>
      </trkpt>
      <trkpt lat="37.4134370" lon="-4.6344220">
        <ele>302.0</ele>
        <time>2021-12-29T12:18:40Z</time>
      </trkpt>
      <trkpt lat="37.4134530" lon="-4.6344520">
        <ele>302.0</ele>
        <time>2021-12-29T12:18:41Z</time>
      </trkpt>
      <trkpt lat="37.4134690" lon="-4.6344780">
        <ele>302.0</ele>
        <time>2021-12-29T12:18:42Z</time>
      </trkpt>
      <trkpt lat="37.4134880" lon="-4.6345100">
        <ele>302.0</ele>
        <time>2021-12-29T12:18:43Z</time>
      </trkpt>
      <trkpt lat="37.4135010" lon="-4.6345520">
        <ele>302.0</ele>
        <time>2021-12-29T12:18:44Z</time>
      </trkpt>
      <trkpt lat="37.4135170" lon="-4.6345870">
        <ele>302.0</ele>
        <time>2021-12-29T12:18:45Z</time>
      </trkpt>
      <trkpt lat="37.4135330" lon="-4.6346140">
        <ele>301.8</ele>
        <time>2021-12-29T12:18:46Z</time>
      </trkpt>
      <trkpt lat="37.4135420" lon="-4.6346480">
        <ele>301.8</ele>
        <time>2021-12-29T12:18:47Z</time>
      </trkpt>
      <trkpt lat="37.4135580" lon="-4.6346860">
        <ele>301.8</ele>
        <time>2021-12-29T12:18:48Z</time>
      </trkpt>
      <trkpt lat="37.4135740" lon="-4.6347230">
        <ele>301.6</ele>
        <time>2021-12-29T12:18:49Z</time>
      </trkpt>
      <trkpt lat="37.4135900" lon="-4.6347600">
        <ele>301.6</ele>
        <time>2021-12-29T12:18:50Z</time>
      </trkpt>
      <trkpt lat="37.4136000" lon="-4.6347950">
        <ele>301.6</ele>
        <time>2021-12-29T12:18:51Z</time>
      </trkpt>
      <trkpt lat="37.4136160" lon="-4.6348330">
        <ele>301.6</ele>
        <time>2021-12-29T12:18:52Z</time>
      </trkpt>
      <trkpt lat="37.4136320" lon="-4.6348630">
        <ele>301.6</ele>
        <time>2021-12-29T12:18:53Z</time>
      </trkpt>
      <trkpt lat="37.4136420" lon="-4.6348920">
        <ele>301.6</ele>
        <time>2021-12-29T12:18:54Z</time>
      </trkpt>
      <trkpt lat="37.4136480" lon="-4.6349150">
        <ele>301.6</ele>
        <time>2021-12-29T12:18:55Z</time>
      </trkpt>
      <trkpt lat="37.4136480" lon="-4.6349150">
        <ele>301.6</ele>
        <time>2021-12-29T12:18:56Z</time>
      </trkpt>
      <trkpt lat="37.4136510" lon="-4.6349420">
        <ele>301.6</ele>
        <time>2021-12-29T12:18:57Z</time>
      </trkpt>
      <trkpt lat="37.4136510" lon="-4.6349420">
        <ele>301.6</ele>
        <time>2021-12-29T12:18:58Z</time>
      </trkpt>
      <trkpt lat="37.4136580" lon="-4.6349680">
        <ele>301.8</ele>
        <time>2021-12-29T12:18:59Z</time>
      </trkpt>
      <trkpt lat="37.4136580" lon="-4.6349680">
        <ele>301.8</ele>
        <time>2021-12-29T12:19:00Z</time>
      </trkpt>
      <trkpt lat="37.4136670" lon="-4.6349980">
        <ele>301.8</ele>
        <time>2021-12-29T12:19:01Z</time>
      </trkpt>
      <trkpt lat="37.4136740" lon="-4.6350200">
        <ele>301.8</ele>
        <time>2021-12-29T12:19:02Z</time>
      </trkpt>
      <trkpt lat="37.4136860" lon="-4.6350450">
        <ele>302.0</ele>
        <time>2021-12-29T12:19:03Z</time>
      </trkpt>
      <trkpt lat="37.4136900" lon="-4.6350720">
        <ele>302.0</ele>
        <time>2021-12-29T12:19:04Z</time>
      </trkpt>
      <trkpt lat="37.4136990" lon="-4.6351020">
        <ele>302.0</ele>
        <time>2021-12-29T12:19:05Z</time>
      </trkpt>
      <trkpt lat="37.4137090" lon="-4.6351330">
        <ele>302.0</ele>
        <time>2021-12-29T12:19:06Z</time>
      </trkpt>
      <trkpt lat="37.4137180" lon="-4.6351610">
        <ele>302.0</ele>
        <time>2021-12-29T12:19:07Z</time>
      </trkpt>
      <trkpt lat="37.4137310" lon="-4.6352050">
        <ele>302.0</ele>
        <time>2021-12-29T12:19:08Z</time>
      </trkpt>
      <trkpt lat="37.4137470" lon="-4.6352450">
        <ele>302.0</ele>
        <time>2021-12-29T12:19:09Z</time>
      </trkpt>
      <trkpt lat="37.4137570" lon="-4.6352840">
        <ele>302.0</ele>
        <time>2021-12-29T12:19:10Z</time>
      </trkpt>
      <trkpt lat="37.4137700" lon="-4.6353250">
        <ele>302.0</ele>
        <time>2021-12-29T12:19:11Z</time>
      </trkpt>
      <trkpt lat="37.4137860" lon="-4.6353680">
        <ele>302.0</ele>
        <time>2021-12-29T12:19:12Z</time>
      </trkpt>
      <trkpt lat="37.4137950" lon="-4.6354130">
        <ele>302.2</ele>
        <time>2021-12-29T12:19:13Z</time>
      </trkpt>
      <trkpt lat="37.4138080" lon="-4.6354580">
        <ele>302.2</ele>
        <time>2021-12-29T12:19:14Z</time>
      </trkpt>
      <trkpt lat="37.4138180" lon="-4.6355000">
        <ele>302.2</ele>
        <time>2021-12-29T12:19:15Z</time>
      </trkpt>
      <trkpt lat="37.4138340" lon="-4.6355420">
        <ele>302.2</ele>
        <time>2021-12-29T12:19:16Z</time>
      </trkpt>
      <trkpt lat="37.4138400" lon="-4.6355820">
        <ele>302.0</ele>
        <time>2021-12-29T12:19:17Z</time>
      </trkpt>
      <trkpt lat="37.4138500" lon="-4.6356240">
        <ele>302.0</ele>
        <time>2021-12-29T12:19:18Z</time>
      </trkpt>
      <trkpt lat="37.4138560" lon="-4.6356650">
        <ele>302.0</ele>
        <time>2021-12-29T12:19:19Z</time>
      </trkpt>
      <trkpt lat="37.4138690" lon="-4.6357050">
        <ele>302.0</ele>
        <time>2021-12-29T12:19:20Z</time>
      </trkpt>
      <trkpt lat="37.4138780" lon="-4.6357450">
        <ele>302.0</ele>
        <time>2021-12-29T12:19:21Z</time>
      </trkpt>
      <trkpt lat="37.4138910" lon="-4.6357850">
        <ele>302.0</ele>
        <time>2021-12-29T12:19:22Z</time>
      </trkpt>
      <trkpt lat="37.4138980" lon="-4.6358280">
        <ele>302.0</ele>
        <time>2021-12-29T12:19:23Z</time>
      </trkpt>
      <trkpt lat="37.4139070" lon="-4.6358720">
        <ele>301.8</ele>
        <time>2021-12-29T12:19:24Z</time>
      </trkpt>
      <trkpt lat="37.4139100" lon="-4.6359180">
        <ele>301.8</ele>
        <time>2021-12-29T12:19:25Z</time>
      </trkpt>
      <trkpt lat="37.4139140" lon="-4.6359640">
        <ele>301.8</ele>
        <time>2021-12-29T12:19:26Z</time>
      </trkpt>
      <trkpt lat="37.4139200" lon="-4.6360100">
        <ele>301.8</ele>
        <time>2021-12-29T12:19:27Z</time>
      </trkpt>
      <trkpt lat="37.4139260" lon="-4.6360570">
        <ele>301.8</ele>
        <time>2021-12-29T12:19:28Z</time>
      </trkpt>
      <trkpt lat="37.4139300" lon="-4.6361020">
        <ele>301.8</ele>
        <time>2021-12-29T12:19:29Z</time>
      </trkpt>
      <trkpt lat="37.4139360" lon="-4.6361450">
        <ele>301.8</ele>
        <time>2021-12-29T12:19:30Z</time>
      </trkpt>
      <trkpt lat="37.4139360" lon="-4.6361930">
        <ele>301.8</ele>
        <time>2021-12-29T12:19:31Z</time>
      </trkpt>
      <trkpt lat="37.4139390" lon="-4.6362420">
        <ele>301.8</ele>
        <time>2021-12-29T12:19:32Z</time>
      </trkpt>
      <trkpt lat="37.4139460" lon="-4.6362900">
        <ele>301.8</ele>
        <time>2021-12-29T12:19:33Z</time>
      </trkpt>
      <trkpt lat="37.4139490" lon="-4.6363350">
        <ele>301.8</ele>
        <time>2021-12-29T12:19:34Z</time>
      </trkpt>
      <trkpt lat="37.4139520" lon="-4.6363770">
        <ele>301.8</ele>
        <time>2021-12-29T12:19:35Z</time>
      </trkpt>
      <trkpt lat="37.4139520" lon="-4.6364180">
        <ele>302.0</ele>
        <time>2021-12-29T12:19:36Z</time>
      </trkpt>
      <trkpt lat="37.4139520" lon="-4.6364580">
        <ele>302.0</ele>
        <time>2021-12-29T12:19:37Z</time>
      </trkpt>
      <trkpt lat="37.4139550" lon="-4.6365000">
        <ele>302.0</ele>
        <time>2021-12-29T12:19:38Z</time>
      </trkpt>
      <trkpt lat="37.4139580" lon="-4.6365380">
        <ele>302.0</ele>
        <time>2021-12-29T12:19:39Z</time>
      </trkpt>
      <trkpt lat="37.4139580" lon="-4.6365780">
        <ele>302.0</ele>
        <time>2021-12-29T12:19:40Z</time>
      </trkpt>
      <trkpt lat="37.4139580" lon="-4.6366170">
        <ele>302.0</ele>
        <time>2021-12-29T12:19:41Z</time>
      </trkpt>
      <trkpt lat="37.4139650" lon="-4.6366480">
        <ele>302.2</ele>
        <time>2021-12-29T12:19:42Z</time>
      </trkpt>
      <trkpt lat="37.4139650" lon="-4.6366800">
        <ele>302.2</ele>
        <time>2021-12-29T12:19:43Z</time>
      </trkpt>
      <trkpt lat="37.4139650" lon="-4.6367120">
        <ele>302.2</ele>
        <time>2021-12-29T12:19:44Z</time>
      </trkpt>
      <trkpt lat="37.4139650" lon="-4.6367420">
        <ele>302.2</ele>
        <time>2021-12-29T12:19:45Z</time>
      </trkpt>
      <trkpt lat="37.4139650" lon="-4.6367750">
        <ele>302.2</ele>
        <time>2021-12-29T12:19:46Z</time>
      </trkpt>
      <trkpt lat="37.4139650" lon="-4.6368060">
        <ele>302.4</ele>
        <time>2021-12-29T12:19:47Z</time>
      </trkpt>
      <trkpt lat="37.4139650" lon="-4.6368360">
        <ele>302.4</ele>
        <time>2021-12-29T12:19:48Z</time>
      </trkpt>
      <trkpt lat="37.4139650" lon="-4.6368720">
        <ele>302.4</ele>
        <time>2021-12-29T12:19:49Z</time>
      </trkpt>
      <trkpt lat="37.4139650" lon="-4.6369070">
        <ele>302.6</ele>
        <time>2021-12-29T12:19:50Z</time>
      </trkpt>
      <trkpt lat="37.4139650" lon="-4.6369420">
        <ele>302.6</ele>
        <time>2021-12-29T12:19:51Z</time>
      </trkpt>
      <trkpt lat="37.4139650" lon="-4.6369730">
        <ele>302.6</ele>
        <time>2021-12-29T12:19:52Z</time>
      </trkpt>
      <trkpt lat="37.4139650" lon="-4.6370070">
        <ele>302.6</ele>
        <time>2021-12-29T12:19:53Z</time>
      </trkpt>
      <trkpt lat="37.4139580" lon="-4.6370380">
        <ele>302.6</ele>
        <time>2021-12-29T12:19:54Z</time>
      </trkpt>
      <trkpt lat="37.4139580" lon="-4.6370680">
        <ele>302.6</ele>
        <time>2021-12-29T12:19:55Z</time>
      </trkpt>
      <trkpt lat="37.4139550" lon="-4.6370960">
        <ele>302.6</ele>
        <time>2021-12-29T12:19:56Z</time>
      </trkpt>
      <trkpt lat="37.4139550" lon="-4.6371230">
        <ele>302.6</ele>
        <time>2021-12-29T12:19:57Z</time>
      </trkpt>
      <trkpt lat="37.4139520" lon="-4.6371480">
        <ele>302.8</ele>
        <time>2021-12-29T12:19:58Z</time>
      </trkpt>
      <trkpt lat="37.4139520" lon="-4.6371480">
        <ele>302.8</ele>
        <time>2021-12-29T12:19:59Z</time>
      </trkpt>
      <trkpt lat="37.4139490" lon="-4.6371920">
        <ele>302.8</ele>
        <time>2021-12-29T12:20:00Z</time>
      </trkpt>
      <trkpt lat="37.4139490" lon="-4.6371920">
        <ele>303.0</ele>
        <time>2021-12-29T12:20:01Z</time>
      </trkpt>
      <trkpt lat="37.4139460" lon="-4.6372360">
        <ele>303.0</ele>
        <time>2021-12-29T12:20:02Z</time>
      </trkpt>
      <trkpt lat="37.4139460" lon="-4.6372360">
        <ele>303.0</ele>
        <time>2021-12-29T12:20:03Z</time>
      </trkpt>
      <trkpt lat="37.4139360" lon="-4.6372730">
        <ele>303.0</ele>
        <time>2021-12-29T12:20:04Z</time>
      </trkpt>
      <trkpt lat="37.4139360" lon="-4.6372730">
        <ele>303.0</ele>
        <time>2021-12-29T12:20:05Z</time>
      </trkpt>
      <trkpt lat="37.4139330" lon="-4.6372980">
        <ele>303.2</ele>
        <time>2021-12-29T12:20:06Z</time>
      </trkpt>
      <trkpt lat="37.4139330" lon="-4.6372980">
        <ele>303.2</ele>
        <time>2021-12-29T12:20:07Z</time>
      </trkpt>
      <trkpt lat="37.4139330" lon="-4.6372980">
        <ele>303.2</ele>
        <time>2021-12-29T12:20:08Z</time>
      </trkpt>
      <trkpt lat="37.4139330" lon="-4.6372980">
        <ele>303.2</ele>
        <time>2021-12-29T12:20:09Z</time>
      </trkpt>
      <trkpt lat="37.4139330" lon="-4.6372980">
        <ele>303.2</ele>
        <time>2021-12-29T12:20:10Z</time>
      </trkpt>
      <trkpt lat="37.4139330" lon="-4.6372980">
        <ele>303.4</ele>
        <time>2021-12-29T12:20:11Z</time>
      </trkpt>
      <trkpt lat="37.4139330" lon="-4.6372980">
        <ele>303.4</ele>
        <time>2021-12-29T12:20:21Z</time>
      </trkpt>
      <trkpt lat="37.4139170" lon="-4.6373970">
        <ele>304.0</ele>
        <time>2021-12-29T12:20:22Z</time>
      </trkpt>
      <trkpt lat="37.4139170" lon="-4.6373970">
        <ele>303.8</ele>
        <time>2021-12-29T12:20:23Z</time>
      </trkpt>
      <trkpt lat="37.4139140" lon="-4.6374220">
        <ele>303.8</ele>
        <time>2021-12-29T12:20:24Z</time>
      </trkpt>
      <trkpt lat="37.4139140" lon="-4.6374220">
        <ele>303.8</ele>
        <time>2021-12-29T12:20:25Z</time>
      </trkpt>
      <trkpt lat="37.4139140" lon="-4.6374220">
        <ele>303.8</ele>
        <time>2021-12-29T12:20:26Z</time>
      </trkpt>
      <trkpt lat="37.4139140" lon="-4.6374460">
        <ele>303.6</ele>
        <time>2021-12-29T12:20:27Z</time>
      </trkpt>
      <trkpt lat="37.4139140" lon="-4.6374460">
        <ele>303.6</ele>
        <time>2021-12-29T12:20:28Z</time>
      </trkpt>
      <trkpt lat="37.4139140" lon="-4.6374460">
        <ele>303.6</ele>
        <time>2021-12-29T12:20:29Z</time>
      </trkpt>
      <trkpt lat="37.4139140" lon="-4.6374460">
        <ele>303.6</ele>
        <time>2021-12-29T12:20:30Z</time>
      </trkpt>
      <trkpt lat="37.4139140" lon="-4.6374460">
        <ele>303.6</ele>
        <time>2021-12-29T12:21:36Z</time>
      </trkpt>
      <trkpt lat="37.4139140" lon="-4.6374460">
        <ele>302.8</ele>
        <time>2021-12-29T12:21:37Z</time>
      </trkpt>
      <trkpt lat="37.4138880" lon="-4.6379050">
        <ele>303.0</ele>
        <time>2021-12-29T12:21:38Z</time>
      </trkpt>
      <trkpt lat="37.4138880" lon="-4.6379050">
        <ele>303.0</ele>
        <time>2021-12-29T12:21:39Z</time>
      </trkpt>
      <trkpt lat="37.4138880" lon="-4.6379330">
        <ele>303.0</ele>
        <time>2021-12-29T12:21:40Z</time>
      </trkpt>
      <trkpt lat="37.4138880" lon="-4.6379330">
        <ele>303.0</ele>
        <time>2021-12-29T12:21:41Z</time>
      </trkpt>
      <trkpt lat="37.4138880" lon="-4.6379580">
        <ele>303.0</ele>
        <time>2021-12-29T12:21:42Z</time>
      </trkpt>
      <trkpt lat="37.4138880" lon="-4.6379580">
        <ele>303.2</ele>
        <time>2021-12-29T12:21:43Z</time>
      </trkpt>
      <trkpt lat="37.4138880" lon="-4.6379580">
        <ele>303.2</ele>
        <time>2021-12-29T12:21:44Z</time>
      </trkpt>
      <trkpt lat="37.4138910" lon="-4.6379900">
        <ele>303.2</ele>
        <time>2021-12-29T12:21:45Z</time>
      </trkpt>
      <trkpt lat="37.4138910" lon="-4.6379900">
        <ele>303.2</ele>
        <time>2021-12-29T12:21:46Z</time>
      </trkpt>
      <trkpt lat="37.4138940" lon="-4.6380130">
        <ele>303.2</ele>
        <time>2021-12-29T12:21:47Z</time>
      </trkpt>
      <trkpt lat="37.4138940" lon="-4.6380130">
        <ele>303.2</ele>
        <time>2021-12-29T12:21:48Z</time>
      </trkpt>
      <trkpt lat="37.4138940" lon="-4.6380130">
        <ele>303.2</ele>
        <time>2021-12-29T12:21:49Z</time>
      </trkpt>
      <trkpt lat="37.4139010" lon="-4.6380380">
        <ele>303.2</ele>
        <time>2021-12-29T12:21:50Z</time>
      </trkpt>
      <trkpt lat="37.4139010" lon="-4.6380380">
        <ele>303.2</ele>
        <time>2021-12-29T12:21:51Z</time>
      </trkpt>
      <trkpt lat="37.4138980" lon="-4.6380680">
        <ele>303.2</ele>
        <time>2021-12-29T12:21:52Z</time>
      </trkpt>
      <trkpt lat="37.4138980" lon="-4.6380680">
        <ele>303.2</ele>
        <time>2021-12-29T12:21:53Z</time>
      </trkpt>
      <trkpt lat="37.4138940" lon="-4.6380970">
        <ele>303.2</ele>
        <time>2021-12-29T12:21:54Z</time>
      </trkpt>
      <trkpt lat="37.4138940" lon="-4.6380970">
        <ele>303.2</ele>
        <time>2021-12-29T12:21:55Z</time>
      </trkpt>
      <trkpt lat="37.4138910" lon="-4.6381250">
        <ele>303.2</ele>
        <time>2021-12-29T12:21:56Z</time>
      </trkpt>
      <trkpt lat="37.4138910" lon="-4.6381250">
        <ele>303.2</ele>
        <time>2021-12-29T12:21:57Z</time>
      </trkpt>
      <trkpt lat="37.4138910" lon="-4.6381550">
        <ele>303.2</ele>
        <time>2021-12-29T12:21:58Z</time>
      </trkpt>
      <trkpt lat="37.4138910" lon="-4.6381550">
        <ele>303.2</ele>
        <time>2021-12-29T12:21:59Z</time>
      </trkpt>
      <trkpt lat="37.4138880" lon="-4.6381900">
        <ele>303.2</ele>
        <time>2021-12-29T12:22:00Z</time>
      </trkpt>
      <trkpt lat="37.4138880" lon="-4.6381900">
        <ele>303.2</ele>
        <time>2021-12-29T12:22:01Z</time>
      </trkpt>
      <trkpt lat="37.4138780" lon="-4.6382200">
        <ele>303.4</ele>
        <time>2021-12-29T12:22:02Z</time>
      </trkpt>
      <trkpt lat="37.4138780" lon="-4.6382200">
        <ele>303.4</ele>
        <time>2021-12-29T12:22:03Z</time>
      </trkpt>
      <trkpt lat="37.4138750" lon="-4.6382520">
        <ele>303.4</ele>
        <time>2021-12-29T12:22:04Z</time>
      </trkpt>
      <trkpt lat="37.4138750" lon="-4.6382520">
        <ele>303.4</ele>
        <time>2021-12-29T12:22:05Z</time>
      </trkpt>
      <trkpt lat="37.4138750" lon="-4.6382780">
        <ele>303.6</ele>
        <time>2021-12-29T12:22:06Z</time>
      </trkpt>
      <trkpt lat="37.4138750" lon="-4.6382780">
        <ele>303.6</ele>
        <time>2021-12-29T12:22:07Z</time>
      </trkpt>
      <trkpt lat="37.4138720" lon="-4.6383080">
        <ele>303.6</ele>
        <time>2021-12-29T12:22:08Z</time>
      </trkpt>
      <trkpt lat="37.4138720" lon="-4.6383080">
        <ele>303.6</ele>
        <time>2021-12-29T12:22:09Z</time>
      </trkpt>
      <trkpt lat="37.4138720" lon="-4.6383400">
        <ele>303.8</ele>
        <time>2021-12-29T12:22:10Z</time>
      </trkpt>
      <trkpt lat="37.4138720" lon="-4.6383400">
        <ele>303.8</ele>
        <time>2021-12-29T12:22:11Z</time>
      </trkpt>
      <trkpt lat="37.4138750" lon="-4.6383630">
        <ele>303.8</ele>
        <time>2021-12-29T12:22:12Z</time>
      </trkpt>
      <trkpt lat="37.4138750" lon="-4.6383630">
        <ele>303.8</ele>
        <time>2021-12-29T12:22:13Z</time>
      </trkpt>
      <trkpt lat="37.4138750" lon="-4.6383900">
        <ele>303.8</ele>
        <time>2021-12-29T12:22:14Z</time>
      </trkpt>
      <trkpt lat="37.4138750" lon="-4.6383900">
        <ele>303.8</ele>
        <time>2021-12-29T12:22:15Z</time>
      </trkpt>
      <trkpt lat="37.4138720" lon="-4.6384250">
        <ele>303.8</ele>
        <time>2021-12-29T12:22:16Z</time>
      </trkpt>
      <trkpt lat="37.4138720" lon="-4.6384250">
        <ele>303.6</ele>
        <time>2021-12-29T12:22:17Z</time>
      </trkpt>
      <trkpt lat="37.4138690" lon="-4.6384540">
        <ele>303.6</ele>
        <time>2021-12-29T12:22:18Z</time>
      </trkpt>
      <trkpt lat="37.4138690" lon="-4.6384540">
        <ele>303.6</ele>
        <time>2021-12-29T12:22:19Z</time>
      </trkpt>
      <trkpt lat="37.4138690" lon="-4.6384840">
        <ele>303.6</ele>
        <time>2021-12-29T12:22:20Z</time>
      </trkpt>
      <trkpt lat="37.4138690" lon="-4.6384840">
        <ele>303.6</ele>
        <time>2021-12-29T12:22:21Z</time>
      </trkpt>
      <trkpt lat="37.4138720" lon="-4.6385150">
        <ele>303.4</ele>
        <time>2021-12-29T12:22:22Z</time>
      </trkpt>
      <trkpt lat="37.4138720" lon="-4.6385150">
        <ele>303.4</ele>
        <time>2021-12-29T12:22:23Z</time>
      </trkpt>
      <trkpt lat="37.4138720" lon="-4.6385430">
        <ele>303.4</ele>
        <time>2021-12-29T12:22:24Z</time>
      </trkpt>
      <trkpt lat="37.4138720" lon="-4.6385430">
        <ele>303.4</ele>
        <time>2021-12-29T12:22:25Z</time>
      </trkpt>
      <trkpt lat="37.4138750" lon="-4.6385730">
        <ele>303.4</ele>
        <time>2021-12-29T12:22:26Z</time>
      </trkpt>
      <trkpt lat="37.4138750" lon="-4.6385730">
        <ele>303.4</ele>
        <time>2021-12-29T12:22:27Z</time>
      </trkpt>
      <trkpt lat="37.4138720" lon="-4.6386000">
        <ele>303.6</ele>
        <time>2021-12-29T12:22:28Z</time>
      </trkpt>
      <trkpt lat="37.4138720" lon="-4.6386000">
        <ele>303.6</ele>
        <time>2021-12-29T12:22:29Z</time>
      </trkpt>
      <trkpt lat="37.4138720" lon="-4.6386330">
        <ele>303.6</ele>
        <time>2021-12-29T12:22:30Z</time>
      </trkpt>
      <trkpt lat="37.4138720" lon="-4.6386330">
        <ele>303.6</ele>
        <time>2021-12-29T12:22:31Z</time>
      </trkpt>
      <trkpt lat="37.4138750" lon="-4.6386670">
        <ele>303.6</ele>
        <time>2021-12-29T12:22:32Z</time>
      </trkpt>
      <trkpt lat="37.4138750" lon="-4.6386670">
        <ele>303.6</ele>
        <time>2021-12-29T12:22:33Z</time>
      </trkpt>
      <trkpt lat="37.4138750" lon="-4.6386970">
        <ele>303.8</ele>
        <time>2021-12-29T12:22:34Z</time>
      </trkpt>
      <trkpt lat="37.4138750" lon="-4.6386970">
        <ele>303.8</ele>
        <time>2021-12-29T12:22:35Z</time>
      </trkpt>
      <trkpt lat="37.4138780" lon="-4.6387230">
        <ele>303.8</ele>
        <time>2021-12-29T12:22:36Z</time>
      </trkpt>
      <trkpt lat="37.4138780" lon="-4.6387230">
        <ele>303.8</ele>
        <time>2021-12-29T12:22:37Z</time>
      </trkpt>
      <trkpt lat="37.4138780" lon="-4.6387230">
        <ele>303.8</ele>
        <time>2021-12-29T12:22:38Z</time>
      </trkpt>
      <trkpt lat="37.4138780" lon="-4.6387230">
        <ele>304.0</ele>
        <time>2021-12-29T12:22:39Z</time>
      </trkpt>
      <trkpt lat="37.4138780" lon="-4.6387230">
        <ele>304.0</ele>
        <time>2021-12-29T12:22:40Z</time>
      </trkpt>
      <trkpt lat="37.4138780" lon="-4.6387230">
        <ele>304.0</ele>
        <time>2021-12-29T12:22:41Z</time>
      </trkpt>
      <trkpt lat="37.4138780" lon="-4.6387230">
        <ele>304.0</ele>
        <time>2021-12-29T12:22:42Z</time>
      </trkpt>
      <trkpt lat="37.4138780" lon="-4.6387230">
        <ele>304.0</ele>
        <time>2021-12-29T12:22:43Z</time>
      </trkpt>
      <trkpt lat="37.4138780" lon="-4.6387230">
        <ele>304.0</ele>
        <time>2021-12-29T12:23:15Z</time>
      </trkpt>
      <trkpt lat="37.4138590" lon="-4.6388720">
        <ele>302.2</ele>
        <time>2021-12-29T12:23:16Z</time>
      </trkpt>
      <trkpt lat="37.4138590" lon="-4.6389030">
        <ele>302.2</ele>
        <time>2021-12-29T12:23:17Z</time>
      </trkpt>
      <trkpt lat="37.4138560" lon="-4.6389350">
        <ele>302.2</ele>
        <time>2021-12-29T12:23:18Z</time>
      </trkpt>
      <trkpt lat="37.4138560" lon="-4.6389700">
        <ele>302.2</ele>
        <time>2021-12-29T12:23:19Z</time>
      </trkpt>
      <trkpt lat="37.4138560" lon="-4.6390030">
        <ele>302.2</ele>
        <time>2021-12-29T12:23:20Z</time>
      </trkpt>
      <trkpt lat="37.4138530" lon="-4.6390320">
        <ele>302.2</ele>
        <time>2021-12-29T12:23:21Z</time>
      </trkpt>
      <trkpt lat="37.4138530" lon="-4.6390600">
        <ele>302.2</ele>
        <time>2021-12-29T12:23:22Z</time>
      </trkpt>
      <trkpt lat="37.4138500" lon="-4.6390880">
        <ele>302.2</ele>
        <time>2021-12-29T12:23:23Z</time>
      </trkpt>
      <trkpt lat="37.4138460" lon="-4.6391200">
        <ele>302.2</ele>
        <time>2021-12-29T12:23:24Z</time>
      </trkpt>
      <trkpt lat="37.4138460" lon="-4.6391540">
        <ele>302.2</ele>
        <time>2021-12-29T12:23:25Z</time>
      </trkpt>
      <trkpt lat="37.4138460" lon="-4.6391850">
        <ele>302.2</ele>
        <time>2021-12-29T12:23:26Z</time>
      </trkpt>
      <trkpt lat="37.4138460" lon="-4.6392160">
        <ele>302.2</ele>
        <time>2021-12-29T12:23:27Z</time>
      </trkpt>
      <trkpt lat="37.4138460" lon="-4.6392480">
        <ele>302.2</ele>
        <time>2021-12-29T12:23:28Z</time>
      </trkpt>
      <trkpt lat="37.4138460" lon="-4.6392820">
        <ele>302.2</ele>
        <time>2021-12-29T12:23:29Z</time>
      </trkpt>
      <trkpt lat="37.4138460" lon="-4.6393160">
        <ele>302.2</ele>
        <time>2021-12-29T12:23:30Z</time>
      </trkpt>
      <trkpt lat="37.4138460" lon="-4.6393500">
        <ele>302.2</ele>
        <time>2021-12-29T12:23:31Z</time>
      </trkpt>
      <trkpt lat="37.4138460" lon="-4.6393850">
        <ele>302.2</ele>
        <time>2021-12-29T12:23:32Z</time>
      </trkpt>
      <trkpt lat="37.4138400" lon="-4.6394180">
        <ele>302.2</ele>
        <time>2021-12-29T12:23:33Z</time>
      </trkpt>
      <trkpt lat="37.4138370" lon="-4.6394570">
        <ele>302.2</ele>
        <time>2021-12-29T12:23:34Z</time>
      </trkpt>
      <trkpt lat="37.4138340" lon="-4.6394940">
        <ele>302.2</ele>
        <time>2021-12-29T12:23:35Z</time>
      </trkpt>
      <trkpt lat="37.4138340" lon="-4.6395280">
        <ele>302.2</ele>
        <time>2021-12-29T12:23:36Z</time>
      </trkpt>
      <trkpt lat="37.4138300" lon="-4.6395660">
        <ele>302.2</ele>
        <time>2021-12-29T12:23:37Z</time>
      </trkpt>
      <trkpt lat="37.4138270" lon="-4.6396060">
        <ele>302.2</ele>
        <time>2021-12-29T12:23:38Z</time>
      </trkpt>
      <trkpt lat="37.4138270" lon="-4.6396430">
        <ele>302.2</ele>
        <time>2021-12-29T12:23:39Z</time>
      </trkpt>
      <trkpt lat="37.4138210" lon="-4.6396800">
        <ele>302.2</ele>
        <time>2021-12-29T12:23:40Z</time>
      </trkpt>
      <trkpt lat="37.4138210" lon="-4.6397170">
        <ele>302.2</ele>
        <time>2021-12-29T12:23:41Z</time>
      </trkpt>
      <trkpt lat="37.4138180" lon="-4.6397570">
        <ele>302.4</ele>
        <time>2021-12-29T12:23:42Z</time>
      </trkpt>
      <trkpt lat="37.4138180" lon="-4.6397970">
        <ele>302.4</ele>
        <time>2021-12-29T12:23:43Z</time>
      </trkpt>
      <trkpt lat="37.4138180" lon="-4.6398350">
        <ele>302.6</ele>
        <time>2021-12-29T12:23:44Z</time>
      </trkpt>
      <trkpt lat="37.4138180" lon="-4.6398740">
        <ele>302.6</ele>
        <time>2021-12-29T12:23:45Z</time>
      </trkpt>
      <trkpt lat="37.4138140" lon="-4.6399140">
        <ele>302.6</ele>
        <time>2021-12-29T12:23:46Z</time>
      </trkpt>
      <trkpt lat="37.4138110" lon="-4.6399520">
        <ele>302.8</ele>
        <time>2021-12-29T12:23:47Z</time>
      </trkpt>
      <trkpt lat="37.4138080" lon="-4.6399860">
        <ele>303.0</ele>
        <time>2021-12-29T12:23:48Z</time>
      </trkpt>
      <trkpt lat="37.4138020" lon="-4.6400230">
        <ele>303.0</ele>
        <time>2021-12-29T12:23:49Z</time>
      </trkpt>
      <trkpt lat="37.4137980" lon="-4.6400600">
        <ele>303.2</ele>
        <time>2021-12-29T12:23:50Z</time>
      </trkpt>
      <trkpt lat="37.4137950" lon="-4.6400950">
        <ele>303.2</ele>
        <time>2021-12-29T12:23:51Z</time>
      </trkpt>
      <trkpt lat="37.4137950" lon="-4.6401320">
        <ele>303.4</ele>
        <time>2021-12-29T12:23:52Z</time>
      </trkpt>
      <trkpt lat="37.4137920" lon="-4.6401720">
        <ele>303.6</ele>
        <time>2021-12-29T12:23:53Z</time>
      </trkpt>
      <trkpt lat="37.4137920" lon="-4.6402080">
        <ele>303.6</ele>
        <time>2021-12-29T12:23:54Z</time>
      </trkpt>
      <trkpt lat="37.4137890" lon="-4.6402480">
        <ele>303.8</ele>
        <time>2021-12-29T12:23:55Z</time>
      </trkpt>
      <trkpt lat="37.4137890" lon="-4.6402900">
        <ele>303.8</ele>
        <time>2021-12-29T12:23:56Z</time>
      </trkpt>
      <trkpt lat="37.4137860" lon="-4.6403320">
        <ele>303.8</ele>
        <time>2021-12-29T12:23:57Z</time>
      </trkpt>
      <trkpt lat="37.4137860" lon="-4.6403730">
        <ele>303.8</ele>
        <time>2021-12-29T12:23:58Z</time>
      </trkpt>
      <trkpt lat="37.4137790" lon="-4.6404100">
        <ele>303.8</ele>
        <time>2021-12-29T12:23:59Z</time>
      </trkpt>
      <trkpt lat="37.4137860" lon="-4.6404500">
        <ele>303.8</ele>
        <time>2021-12-29T12:24:00Z</time>
      </trkpt>
      <trkpt lat="37.4137860" lon="-4.6404920">
        <ele>303.8</ele>
        <time>2021-12-29T12:24:01Z</time>
      </trkpt>
      <trkpt lat="37.4137860" lon="-4.6405340">
        <ele>303.8</ele>
        <time>2021-12-29T12:24:02Z</time>
      </trkpt>
      <trkpt lat="37.4137790" lon="-4.6405750">
        <ele>303.8</ele>
        <time>2021-12-29T12:24:03Z</time>
      </trkpt>
      <trkpt lat="37.4137790" lon="-4.6406150">
        <ele>303.8</ele>
        <time>2021-12-29T12:24:04Z</time>
      </trkpt>
      <trkpt lat="37.4137760" lon="-4.6406520">
        <ele>304.0</ele>
        <time>2021-12-29T12:24:05Z</time>
      </trkpt>
      <trkpt lat="37.4137730" lon="-4.6406860">
        <ele>304.0</ele>
        <time>2021-12-29T12:24:06Z</time>
      </trkpt>
      <trkpt lat="37.4137730" lon="-4.6407200">
        <ele>304.0</ele>
        <time>2021-12-29T12:24:07Z</time>
      </trkpt>
      <trkpt lat="37.4137700" lon="-4.6407550">
        <ele>304.2</ele>
        <time>2021-12-29T12:24:08Z</time>
      </trkpt>
      <trkpt lat="37.4137700" lon="-4.6407850">
        <ele>304.2</ele>
        <time>2021-12-29T12:24:09Z</time>
      </trkpt>
      <trkpt lat="37.4137700" lon="-4.6408080">
        <ele>304.2</ele>
        <time>2021-12-29T12:24:10Z</time>
      </trkpt>
      <trkpt lat="37.4137700" lon="-4.6408080">
        <ele>304.2</ele>
        <time>2021-12-29T12:24:11Z</time>
      </trkpt>
      <trkpt lat="37.4137660" lon="-4.6408420">
        <ele>304.2</ele>
        <time>2021-12-29T12:24:12Z</time>
      </trkpt>
      <trkpt lat="37.4137660" lon="-4.6408420">
        <ele>304.2</ele>
        <time>2021-12-29T12:24:13Z</time>
      </trkpt>
      <trkpt lat="37.4137660" lon="-4.6408420">
        <ele>304.2</ele>
        <time>2021-12-29T12:24:14Z</time>
      </trkpt>
      <trkpt lat="37.4137660" lon="-4.6408420">
        <ele>304.2</ele>
        <time>2021-12-29T12:24:15Z</time>
      </trkpt>
      <trkpt lat="37.4137660" lon="-4.6408420">
        <ele>304.2</ele>
        <time>2021-12-29T12:24:16Z</time>
      </trkpt>
      <trkpt lat="37.4137660" lon="-4.6408420">
        <ele>304.2</ele>
        <time>2021-12-29T12:24:17Z</time>
      </trkpt>
      <trkpt lat="37.4137660" lon="-4.6408420">
        <ele>304.2</ele>
        <time>2021-12-29T12:25:26Z</time>
      </trkpt>
      <trkpt lat="37.4137790" lon="-4.6410130">
        <ele>303.2</ele>
        <time>2021-12-29T12:25:27Z</time>
      </trkpt>
      <trkpt lat="37.4137790" lon="-4.6410130">
        <ele>303.4</ele>
        <time>2021-12-29T12:25:28Z</time>
      </trkpt>
      <trkpt lat="37.4137790" lon="-4.6410500">
        <ele>303.4</ele>
        <time>2021-12-29T12:25:29Z</time>
      </trkpt>
      <trkpt lat="37.4137790" lon="-4.6410500">
        <ele>303.4</ele>
        <time>2021-12-29T12:25:30Z</time>
      </trkpt>
      <trkpt lat="37.4137730" lon="-4.6410820">
        <ele>303.4</ele>
        <time>2021-12-29T12:25:31Z</time>
      </trkpt>
      <trkpt lat="37.4137730" lon="-4.6410820">
        <ele>303.4</ele>
        <time>2021-12-29T12:25:32Z</time>
      </trkpt>
      <trkpt lat="37.4137730" lon="-4.6410820">
        <ele>303.4</ele>
        <time>2021-12-29T12:25:33Z</time>
      </trkpt>
      <trkpt lat="37.4137620" lon="-4.6411510">
        <ele>303.6</ele>
        <time>2021-12-29T12:25:34Z</time>
      </trkpt>
      <trkpt lat="37.4137520" lon="-4.6412200">
        <ele>303.6</ele>
        <time>2021-12-29T12:25:35Z</time>
      </trkpt>
      <trkpt lat="37.4137420" lon="-4.6412890">
        <ele>303.6</ele>
        <time>2021-12-29T12:26:02Z</time>
      </trkpt>
      <trkpt lat="37.4137310" lon="-4.6413580">
        <ele>304.6</ele>
        <time>2021-12-29T12:26:03Z</time>
      </trkpt>
      <trkpt lat="37.4137310" lon="-4.6413580">
        <ele>304.6</ele>
        <time>2021-12-29T12:26:04Z</time>
      </trkpt>
      <trkpt lat="37.4137310" lon="-4.6413850">
        <ele>304.6</ele>
        <time>2021-12-29T12:26:05Z</time>
      </trkpt>
      <trkpt lat="37.4137310" lon="-4.6413850">
        <ele>304.8</ele>
        <time>2021-12-29T12:26:06Z</time>
      </trkpt>
      <trkpt lat="37.4137310" lon="-4.6414120">
        <ele>304.8</ele>
        <time>2021-12-29T12:26:07Z</time>
      </trkpt>
      <trkpt lat="37.4137310" lon="-4.6414120">
        <ele>304.8</ele>
        <time>2021-12-29T12:26:08Z</time>
      </trkpt>
      <trkpt lat="37.4137310" lon="-4.6414120">
        <ele>305.0</ele>
        <time>2021-12-29T12:26:09Z</time>
      </trkpt>
      <trkpt lat="37.4137280" lon="-4.6414450">
        <ele>305.0</ele>
        <time>2021-12-29T12:26:10Z</time>
      </trkpt>
      <trkpt lat="37.4137280" lon="-4.6414450">
        <ele>305.2</ele>
        <time>2021-12-29T12:26:11Z</time>
      </trkpt>
      <trkpt lat="37.4137220" lon="-4.6414680">
        <ele>305.2</ele>
        <time>2021-12-29T12:26:12Z</time>
      </trkpt>
      <trkpt lat="37.4137220" lon="-4.6414680">
        <ele>305.2</ele>
        <time>2021-12-29T12:26:13Z</time>
      </trkpt>
      <trkpt lat="37.4137220" lon="-4.6414930">
        <ele>305.2</ele>
        <time>2021-12-29T12:26:14Z</time>
      </trkpt>
      <trkpt lat="37.4137220" lon="-4.6414930">
        <ele>305.0</ele>
        <time>2021-12-29T12:26:15Z</time>
      </trkpt>
      <trkpt lat="37.4137180" lon="-4.6415220">
        <ele>305.0</ele>
        <time>2021-12-29T12:26:16Z</time>
      </trkpt>
      <trkpt lat="37.4137180" lon="-4.6415220">
        <ele>305.0</ele>
        <time>2021-12-29T12:26:17Z</time>
      </trkpt>
      <trkpt lat="37.4137150" lon="-4.6415540">
        <ele>305.0</ele>
        <time>2021-12-29T12:26:18Z</time>
      </trkpt>
      <trkpt lat="37.4137150" lon="-4.6415540">
        <ele>305.0</ele>
        <time>2021-12-29T12:26:19Z</time>
      </trkpt>
      <trkpt lat="37.4137150" lon="-4.6415840">
        <ele>305.0</ele>
        <time>2021-12-29T12:26:20Z</time>
      </trkpt>
      <trkpt lat="37.4137150" lon="-4.6415840">
        <ele>305.0</ele>
        <time>2021-12-29T12:26:21Z</time>
      </trkpt>
      <trkpt lat="37.4137150" lon="-4.6416080">
        <ele>304.8</ele>
        <time>2021-12-29T12:26:22Z</time>
      </trkpt>
      <trkpt lat="37.4137150" lon="-4.6416080">
        <ele>304.8</ele>
        <time>2021-12-29T12:26:23Z</time>
      </trkpt>
      <trkpt lat="37.4137150" lon="-4.6416420">
        <ele>304.8</ele>
        <time>2021-12-29T12:26:24Z</time>
      </trkpt>
      <trkpt lat="37.4137150" lon="-4.6416420">
        <ele>304.8</ele>
        <time>2021-12-29T12:26:25Z</time>
      </trkpt>
      <trkpt lat="37.4137120" lon="-4.6416730">
        <ele>304.8</ele>
        <time>2021-12-29T12:26:26Z</time>
      </trkpt>
      <trkpt lat="37.4137120" lon="-4.6416730">
        <ele>304.8</ele>
        <time>2021-12-29T12:26:27Z</time>
      </trkpt>
      <trkpt lat="37.4137120" lon="-4.6417000">
        <ele>304.8</ele>
        <time>2021-12-29T12:26:28Z</time>
      </trkpt>
      <trkpt lat="37.4137120" lon="-4.6417000">
        <ele>304.8</ele>
        <time>2021-12-29T12:26:29Z</time>
      </trkpt>
      <trkpt lat="37.4137120" lon="-4.6417330">
        <ele>304.8</ele>
        <time>2021-12-29T12:26:30Z</time>
      </trkpt>
      <trkpt lat="37.4137120" lon="-4.6417330">
        <ele>304.8</ele>
        <time>2021-12-29T12:26:31Z</time>
      </trkpt>
      <trkpt lat="37.4137090" lon="-4.6417600">
        <ele>304.8</ele>
        <time>2021-12-29T12:26:32Z</time>
      </trkpt>
      <trkpt lat="37.4137090" lon="-4.6417600">
        <ele>305.0</ele>
        <time>2021-12-29T12:26:33Z</time>
      </trkpt>
      <trkpt lat="37.4137090" lon="-4.6417900">
        <ele>305.0</ele>
        <time>2021-12-29T12:26:34Z</time>
      </trkpt>
      <trkpt lat="37.4137090" lon="-4.6417900">
        <ele>305.0</ele>
        <time>2021-12-29T12:26:35Z</time>
      </trkpt>
      <trkpt lat="37.4137090" lon="-4.6417900">
        <ele>305.0</ele>
        <time>2021-12-29T12:26:36Z</time>
      </trkpt>
      <trkpt lat="37.4137070" lon="-4.6418310">
        <ele>305.0</ele>
        <time>2021-12-29T12:26:37Z</time>
      </trkpt>
      <trkpt lat="37.4137060" lon="-4.6418720">
        <ele>305.0</ele>
        <time>2021-12-29T12:26:38Z</time>
      </trkpt>
      <trkpt lat="37.4137040" lon="-4.6419130">
        <ele>305.0</ele>
        <time>2021-12-29T12:26:39Z</time>
      </trkpt>
      <trkpt lat="37.4137020" lon="-4.6419540">
        <ele>305.0</ele>
        <time>2021-12-29T12:26:40Z</time>
      </trkpt>
      <trkpt lat="37.4137010" lon="-4.6419950">
        <ele>305.0</ele>
        <time>2021-12-29T12:29:46Z</time>
      </trkpt>
      <trkpt lat="37.4136990" lon="-4.6420360">
        <ele>304.4</ele>
        <time>2021-12-29T12:29:47Z</time>
      </trkpt>
      <trkpt lat="37.4136990" lon="-4.6420700">
        <ele>304.4</ele>
        <time>2021-12-29T12:29:48Z</time>
      </trkpt>
      <trkpt lat="37.4136960" lon="-4.6421020">
        <ele>304.2</ele>
        <time>2021-12-29T12:29:49Z</time>
      </trkpt>
      <trkpt lat="37.4136990" lon="-4.6421350">
        <ele>304.2</ele>
        <time>2021-12-29T12:29:50Z</time>
      </trkpt>
      <trkpt lat="37.4136990" lon="-4.6421730">
        <ele>304.2</ele>
        <time>2021-12-29T12:29:51Z</time>
      </trkpt>
      <trkpt lat="37.4136990" lon="-4.6422080">
        <ele>304.2</ele>
        <time>2021-12-29T12:29:52Z</time>
      </trkpt>
      <trkpt lat="37.4136990" lon="-4.6422470">
        <ele>304.2</ele>
        <time>2021-12-29T12:29:53Z</time>
      </trkpt>
      <trkpt lat="37.4136990" lon="-4.6422880">
        <ele>304.0</ele>
        <time>2021-12-29T12:29:54Z</time>
      </trkpt>
      <trkpt lat="37.4136990" lon="-4.6423340">
        <ele>304.0</ele>
        <time>2021-12-29T12:29:55Z</time>
      </trkpt>
      <trkpt lat="37.4136960" lon="-4.6423800">
        <ele>304.0</ele>
        <time>2021-12-29T12:29:56Z</time>
      </trkpt>
      <trkpt lat="37.4136930" lon="-4.6424260">
        <ele>304.0</ele>
        <time>2021-12-29T12:29:57Z</time>
      </trkpt>
      <trkpt lat="37.4136900" lon="-4.6424750">
        <ele>304.0</ele>
        <time>2021-12-29T12:29:58Z</time>
      </trkpt>
      <trkpt lat="37.4136860" lon="-4.6425250">
        <ele>304.2</ele>
        <time>2021-12-29T12:29:59Z</time>
      </trkpt>
      <trkpt lat="37.4136770" lon="-4.6426040">
        <ele>304.2</ele>
        <time>2021-12-29T12:30:00Z</time>
      </trkpt>
      <trkpt lat="37.4136740" lon="-4.6426300">
        <ele>304.4</ele>
        <time>2021-12-29T12:30:01Z</time>
      </trkpt>
      <trkpt lat="37.4136700" lon="-4.6426840">
        <ele>304.4</ele>
        <time>2021-12-29T12:30:02Z</time>
      </trkpt>
      <trkpt lat="37.4136670" lon="-4.6427380">
        <ele>304.4</ele>
        <time>2021-12-29T12:30:03Z</time>
      </trkpt>
      <trkpt lat="37.4136580" lon="-4.6427930">
        <ele>304.4</ele>
        <time>2021-12-29T12:30:04Z</time>
      </trkpt>
      <trkpt lat="37.4136540" lon="-4.6428460">
        <ele>304.2</ele>
        <time>2021-12-29T12:30:05Z</time>
      </trkpt>
      <trkpt lat="37.4136480" lon="-4.6429020">
        <ele>304.2</ele>
        <time>2021-12-29T12:30:06Z</time>
      </trkpt>
      <trkpt lat="37.4136480" lon="-4.6429520">
        <ele>304.2</ele>
        <time>2021-12-29T12:30:07Z</time>
      </trkpt>
      <trkpt lat="37.4136380" lon="-4.6430020">
        <ele>304.2</ele>
        <time>2021-12-29T12:30:08Z</time>
      </trkpt>
      <trkpt lat="37.4136350" lon="-4.6430520">
        <ele>304.2</ele>
        <time>2021-12-29T12:30:09Z</time>
      </trkpt>
      <trkpt lat="37.4136320" lon="-4.6431020">
        <ele>304.2</ele>
        <time>2021-12-29T12:30:10Z</time>
      </trkpt>
      <trkpt lat="37.4136220" lon="-4.6431520">
        <ele>304.2</ele>
        <time>2021-12-29T12:30:11Z</time>
      </trkpt>
      <trkpt lat="37.4136160" lon="-4.6432020">
        <ele>304.4</ele>
        <time>2021-12-29T12:30:12Z</time>
      </trkpt>
      <trkpt lat="37.4136100" lon="-4.6432480">
        <ele>304.4</ele>
        <time>2021-12-29T12:30:13Z</time>
      </trkpt>
      <trkpt lat="37.4135970" lon="-4.6432950">
        <ele>304.4</ele>
        <time>2021-12-29T12:30:14Z</time>
      </trkpt>
      <trkpt lat="37.4135900" lon="-4.6433440">
        <ele>304.4</ele>
        <time>2021-12-29T12:30:15Z</time>
      </trkpt>
      <trkpt lat="37.4135810" lon="-4.6433920">
        <ele>304.4</ele>
        <time>2021-12-29T12:30:16Z</time>
      </trkpt>
      <trkpt lat="37.4135780" lon="-4.6434420">
        <ele>304.4</ele>
        <time>2021-12-29T12:30:17Z</time>
      </trkpt>
      <trkpt lat="37.4135710" lon="-4.6434950">
        <ele>304.4</ele>
        <time>2021-12-29T12:30:18Z</time>
      </trkpt>
      <trkpt lat="37.4135620" lon="-4.6435480">
        <ele>304.4</ele>
        <time>2021-12-29T12:30:19Z</time>
      </trkpt>
      <trkpt lat="37.4135550" lon="-4.6436030">
        <ele>304.4</ele>
        <time>2021-12-29T12:30:20Z</time>
      </trkpt>
      <trkpt lat="37.4135490" lon="-4.6436600">
        <ele>304.4</ele>
        <time>2021-12-29T12:30:21Z</time>
      </trkpt>
      <trkpt lat="37.4135390" lon="-4.6437150">
        <ele>304.4</ele>
        <time>2021-12-29T12:30:22Z</time>
      </trkpt>
      <trkpt lat="37.4135360" lon="-4.6437680">
        <ele>304.4</ele>
        <time>2021-12-29T12:30:23Z</time>
      </trkpt>
      <trkpt lat="37.4135230" lon="-4.6438220">
        <ele>304.4</ele>
        <time>2021-12-29T12:30:24Z</time>
      </trkpt>
      <trkpt lat="37.4135140" lon="-4.6438730">
        <ele>304.4</ele>
        <time>2021-12-29T12:30:25Z</time>
      </trkpt>
      <trkpt lat="37.4135010" lon="-4.6439250">
        <ele>304.4</ele>
        <time>2021-12-29T12:30:26Z</time>
      </trkpt>
      <trkpt lat="37.4134940" lon="-4.6439750">
        <ele>304.4</ele>
        <time>2021-12-29T12:30:27Z</time>
      </trkpt>
      <trkpt lat="37.4134880" lon="-4.6440270">
        <ele>304.2</ele>
        <time>2021-12-29T12:30:28Z</time>
      </trkpt>
      <trkpt lat="37.4134750" lon="-4.6440740">
        <ele>304.2</ele>
        <time>2021-12-29T12:30:29Z</time>
      </trkpt>
      <trkpt lat="37.4134620" lon="-4.6441200">
        <ele>304.2</ele>
        <time>2021-12-29T12:30:30Z</time>
      </trkpt>
      <trkpt lat="37.4134560" lon="-4.6441680">
        <ele>304.2</ele>
        <time>2021-12-29T12:30:31Z</time>
      </trkpt>
      <trkpt lat="37.4134430" lon="-4.6442180">
        <ele>304.2</ele>
        <time>2021-12-29T12:30:32Z</time>
      </trkpt>
      <trkpt lat="37.4134370" lon="-4.6442680">
        <ele>304.2</ele>
        <time>2021-12-29T12:30:33Z</time>
      </trkpt>
      <trkpt lat="37.4134240" lon="-4.6443200">
        <ele>304.0</ele>
        <time>2021-12-29T12:30:34Z</time>
      </trkpt>
      <trkpt lat="37.4134180" lon="-4.6443700">
        <ele>304.0</ele>
        <time>2021-12-29T12:30:35Z</time>
      </trkpt>
      <trkpt lat="37.4134110" lon="-4.6444200">
        <ele>304.0</ele>
        <time>2021-12-29T12:30:36Z</time>
      </trkpt>
      <trkpt lat="37.4133980" lon="-4.6444730">
        <ele>304.0</ele>
        <time>2021-12-29T12:30:37Z</time>
      </trkpt>
      <trkpt lat="37.4133890" lon="-4.6445280">
        <ele>304.0</ele>
        <time>2021-12-29T12:30:38Z</time>
      </trkpt>
      <trkpt lat="37.4133760" lon="-4.6445800">
        <ele>303.8</ele>
        <time>2021-12-29T12:30:39Z</time>
      </trkpt>
      <trkpt lat="37.4133600" lon="-4.6446320">
        <ele>303.8</ele>
        <time>2021-12-29T12:30:40Z</time>
      </trkpt>
      <trkpt lat="37.4133500" lon="-4.6446800">
        <ele>303.8</ele>
        <time>2021-12-29T12:30:41Z</time>
      </trkpt>
      <trkpt lat="37.4133380" lon="-4.6447280">
        <ele>304.0</ele>
        <time>2021-12-29T12:30:42Z</time>
      </trkpt>
      <trkpt lat="37.4133250" lon="-4.6447770">
        <ele>304.0</ele>
        <time>2021-12-29T12:30:43Z</time>
      </trkpt>
      <trkpt lat="37.4133120" lon="-4.6448250">
        <ele>304.0</ele>
        <time>2021-12-29T12:30:44Z</time>
      </trkpt>
      <trkpt lat="37.4132990" lon="-4.6448750">
        <ele>304.0</ele>
        <time>2021-12-29T12:30:45Z</time>
      </trkpt>
      <trkpt lat="37.4132900" lon="-4.6449230">
        <ele>304.0</ele>
        <time>2021-12-29T12:30:46Z</time>
      </trkpt>
      <trkpt lat="37.4132770" lon="-4.6449720">
        <ele>304.0</ele>
        <time>2021-12-29T12:30:47Z</time>
      </trkpt>
      <trkpt lat="37.4132610" lon="-4.6450180">
        <ele>304.2</ele>
        <time>2021-12-29T12:30:48Z</time>
      </trkpt>
      <trkpt lat="37.4132510" lon="-4.6450620">
        <ele>304.2</ele>
        <time>2021-12-29T12:30:49Z</time>
      </trkpt>
      <trkpt lat="37.4132420" lon="-4.6451070">
        <ele>304.2</ele>
        <time>2021-12-29T12:30:50Z</time>
      </trkpt>
      <trkpt lat="37.4132320" lon="-4.6451500">
        <ele>304.0</ele>
        <time>2021-12-29T12:30:51Z</time>
      </trkpt>
      <trkpt lat="37.4132190" lon="-4.6451920">
        <ele>304.0</ele>
        <time>2021-12-29T12:30:52Z</time>
      </trkpt>
      <trkpt lat="37.4132130" lon="-4.6452320">
        <ele>304.0</ele>
        <time>2021-12-29T12:30:53Z</time>
      </trkpt>
      <trkpt lat="37.4132000" lon="-4.6452700">
        <ele>304.0</ele>
        <time>2021-12-29T12:30:54Z</time>
      </trkpt>
      <trkpt lat="37.4131900" lon="-4.6453060">
        <ele>304.0</ele>
        <time>2021-12-29T12:30:55Z</time>
      </trkpt>
      <trkpt lat="37.4131810" lon="-4.6453430">
        <ele>304.0</ele>
        <time>2021-12-29T12:30:56Z</time>
      </trkpt>
      <trkpt lat="37.4131740" lon="-4.6453780">
        <ele>304.0</ele>
        <time>2021-12-29T12:30:57Z</time>
      </trkpt>
      <trkpt lat="37.4131650" lon="-4.6454100">
        <ele>304.0</ele>
        <time>2021-12-29T12:30:58Z</time>
      </trkpt>
      <trkpt lat="37.4131580" lon="-4.6454380">
        <ele>304.0</ele>
        <time>2021-12-29T12:30:59Z</time>
      </trkpt>
      <trkpt lat="37.4131460" lon="-4.6454670">
        <ele>304.0</ele>
        <time>2021-12-29T12:31:00Z</time>
      </trkpt>
      <trkpt lat="37.4131390" lon="-4.6454900">
        <ele>304.0</ele>
        <time>2021-12-29T12:31:01Z</time>
      </trkpt>
      <trkpt lat="37.4131390" lon="-4.6454900">
        <ele>304.0</ele>
        <time>2021-12-29T12:31:02Z</time>
      </trkpt>
      <trkpt lat="37.4131330" lon="-4.6455230">
        <ele>304.0</ele>
        <time>2021-12-29T12:31:03Z</time>
      </trkpt>
      <trkpt lat="37.4131330" lon="-4.6455230">
        <ele>304.0</ele>
        <time>2021-12-29T12:31:04Z</time>
      </trkpt>
      <trkpt lat="37.4131330" lon="-4.6455230">
        <ele>304.2</ele>
        <time>2021-12-29T12:31:05Z</time>
      </trkpt>
      <trkpt lat="37.4131330" lon="-4.6455230">
        <ele>304.2</ele>
        <time>2021-12-29T12:31:06Z</time>
      </trkpt>
      <trkpt lat="37.4131330" lon="-4.6455230">
        <ele>304.2</ele>
        <time>2021-12-29T12:31:07Z</time>
      </trkpt>
      <trkpt lat="37.4131330" lon="-4.6455230">
        <ele>304.2</ele>
        <time>2021-12-29T12:31:08Z</time>
      </trkpt>
      <trkpt lat="37.4131330" lon="-4.6455230">
        <ele>304.2</ele>
        <time>2021-12-29T12:31:56Z</time>
      </trkpt>
      <trkpt lat="37.4130820" lon="-4.6457030">
        <ele>302.6</ele>
        <time>2021-12-29T12:31:57Z</time>
      </trkpt>
      <trkpt lat="37.4130720" lon="-4.6457430">
        <ele>302.6</ele>
        <time>2021-12-29T12:31:58Z</time>
      </trkpt>
      <trkpt lat="37.4130590" lon="-4.6457850">
        <ele>302.6</ele>
        <time>2021-12-29T12:31:59Z</time>
      </trkpt>
      <trkpt lat="37.4130460" lon="-4.6458240">
        <ele>302.4</ele>
        <time>2021-12-29T12:32:00Z</time>
      </trkpt>
      <trkpt lat="37.4130370" lon="-4.6458640">
        <ele>302.4</ele>
        <time>2021-12-29T12:32:01Z</time>
      </trkpt>
      <trkpt lat="37.4130240" lon="-4.6458980">
        <ele>302.4</ele>
        <time>2021-12-29T12:32:02Z</time>
      </trkpt>
      <trkpt lat="37.4130110" lon="-4.6459350">
        <ele>302.4</ele>
        <time>2021-12-29T12:32:03Z</time>
      </trkpt>
      <trkpt lat="37.4129980" lon="-4.6459760">
        <ele>302.4</ele>
        <time>2021-12-29T12:32:04Z</time>
      </trkpt>
      <trkpt lat="37.4129820" lon="-4.6460200">
        <ele>302.4</ele>
        <time>2021-12-29T12:32:05Z</time>
      </trkpt>
      <trkpt lat="37.4129660" lon="-4.6460620">
        <ele>302.4</ele>
        <time>2021-12-29T12:32:06Z</time>
      </trkpt>
      <trkpt lat="37.4129470" lon="-4.6461050">
        <ele>302.4</ele>
        <time>2021-12-29T12:32:07Z</time>
      </trkpt>
      <trkpt lat="37.4129340" lon="-4.6461520">
        <ele>302.4</ele>
        <time>2021-12-29T12:32:08Z</time>
      </trkpt>
      <trkpt lat="37.4129180" lon="-4.6461970">
        <ele>302.4</ele>
        <time>2021-12-29T12:32:09Z</time>
      </trkpt>
      <trkpt lat="37.4128990" lon="-4.6462430">
        <ele>302.4</ele>
        <time>2021-12-29T12:32:10Z</time>
      </trkpt>
      <trkpt lat="37.4128830" lon="-4.6462860">
        <ele>302.4</ele>
        <time>2021-12-29T12:32:11Z</time>
      </trkpt>
      <trkpt lat="37.4128670" lon="-4.6463330">
        <ele>302.4</ele>
        <time>2021-12-29T12:32:12Z</time>
      </trkpt>
      <trkpt lat="37.4128480" lon="-4.6463770">
        <ele>302.6</ele>
        <time>2021-12-29T12:32:13Z</time>
      </trkpt>
      <trkpt lat="37.4128350" lon="-4.6464180">
        <ele>302.6</ele>
        <time>2021-12-29T12:32:14Z</time>
      </trkpt>
      <trkpt lat="37.4128190" lon="-4.6464600">
        <ele>302.6</ele>
        <time>2021-12-29T12:32:15Z</time>
      </trkpt>
      <trkpt lat="37.4128000" lon="-4.6465000">
        <ele>302.6</ele>
        <time>2021-12-29T12:32:16Z</time>
      </trkpt>
      <trkpt lat="37.4127840" lon="-4.6465400">
        <ele>302.6</ele>
        <time>2021-12-29T12:32:17Z</time>
      </trkpt>
      <trkpt lat="37.4127680" lon="-4.6465820">
        <ele>302.6</ele>
        <time>2021-12-29T12:32:18Z</time>
      </trkpt>
      <trkpt lat="37.4127490" lon="-4.6466200">
        <ele>302.6</ele>
        <time>2021-12-29T12:32:19Z</time>
      </trkpt>
      <trkpt lat="37.4127390" lon="-4.6466630">
        <ele>302.8</ele>
        <time>2021-12-29T12:32:20Z</time>
      </trkpt>
      <trkpt lat="37.4127230" lon="-4.6467050">
        <ele>302.8</ele>
        <time>2021-12-29T12:32:21Z</time>
      </trkpt>
      <trkpt lat="37.4127070" lon="-4.6467420">
        <ele>302.6</ele>
        <time>2021-12-29T12:32:22Z</time>
      </trkpt>
      <trkpt lat="37.4126880" lon="-4.6467780">
        <ele>302.6</ele>
        <time>2021-12-29T12:32:23Z</time>
      </trkpt>
      <trkpt lat="37.4126750" lon="-4.6468170">
        <ele>302.6</ele>
        <time>2021-12-29T12:32:24Z</time>
      </trkpt>
      <trkpt lat="37.4126590" lon="-4.6468540">
        <ele>302.6</ele>
        <time>2021-12-29T12:32:25Z</time>
      </trkpt>
      <trkpt lat="37.4126430" lon="-4.6468870">
        <ele>302.4</ele>
        <time>2021-12-29T12:32:26Z</time>
      </trkpt>
      <trkpt lat="37.4126270" lon="-4.6469220">
        <ele>302.4</ele>
        <time>2021-12-29T12:32:27Z</time>
      </trkpt>
      <trkpt lat="37.4126140" lon="-4.6469540">
        <ele>302.4</ele>
        <time>2021-12-29T12:32:28Z</time>
      </trkpt>
      <trkpt lat="37.4125980" lon="-4.6469860">
        <ele>302.4</ele>
        <time>2021-12-29T12:32:29Z</time>
      </trkpt>
      <trkpt lat="37.4125820" lon="-4.6470180">
        <ele>302.4</ele>
        <time>2021-12-29T12:32:30Z</time>
      </trkpt>
      <trkpt lat="37.4125700" lon="-4.6470460">
        <ele>302.4</ele>
        <time>2021-12-29T12:32:31Z</time>
      </trkpt>
      <trkpt lat="37.4125600" lon="-4.6470780">
        <ele>302.4</ele>
        <time>2021-12-29T12:32:32Z</time>
      </trkpt>
      <trkpt lat="37.4125410" lon="-4.6471120">
        <ele>302.2</ele>
        <time>2021-12-29T12:32:33Z</time>
      </trkpt>
      <trkpt lat="37.4125250" lon="-4.6471430">
        <ele>302.2</ele>
        <time>2021-12-29T12:32:34Z</time>
      </trkpt>
      <trkpt lat="37.4125060" lon="-4.6471800">
        <ele>302.2</ele>
        <time>2021-12-29T12:32:35Z</time>
      </trkpt>
      <trkpt lat="37.4124900" lon="-4.6472150">
        <ele>302.0</ele>
        <time>2021-12-29T12:32:36Z</time>
      </trkpt>
      <trkpt lat="37.4124770" lon="-4.6472500">
        <ele>302.0</ele>
        <time>2021-12-29T12:32:37Z</time>
      </trkpt>
      <trkpt lat="37.4124610" lon="-4.6472840">
        <ele>302.0</ele>
        <time>2021-12-29T12:32:38Z</time>
      </trkpt>
      <trkpt lat="37.4124450" lon="-4.6473150">
        <ele>302.0</ele>
        <time>2021-12-29T12:32:39Z</time>
      </trkpt>
      <trkpt lat="37.4124290" lon="-4.6473500">
        <ele>302.0</ele>
        <time>2021-12-29T12:32:40Z</time>
      </trkpt>
      <trkpt lat="37.4124160" lon="-4.6473830">
        <ele>302.0</ele>
        <time>2021-12-29T12:32:41Z</time>
      </trkpt>
      <trkpt lat="37.4124000" lon="-4.6474150">
        <ele>302.0</ele>
        <time>2021-12-29T12:32:42Z</time>
      </trkpt>
      <trkpt lat="37.4123840" lon="-4.6474480">
        <ele>302.0</ele>
        <time>2021-12-29T12:32:43Z</time>
      </trkpt>
      <trkpt lat="37.4123680" lon="-4.6474820">
        <ele>302.0</ele>
        <time>2021-12-29T12:32:44Z</time>
      </trkpt>
      <trkpt lat="37.4123520" lon="-4.6475170">
        <ele>302.2</ele>
        <time>2021-12-29T12:32:45Z</time>
      </trkpt>
      <trkpt lat="37.4123300" lon="-4.6475540">
        <ele>302.2</ele>
        <time>2021-12-29T12:32:46Z</time>
      </trkpt>
      <trkpt lat="37.4123100" lon="-4.6475880">
        <ele>302.2</ele>
        <time>2021-12-29T12:32:47Z</time>
      </trkpt>
      <trkpt lat="37.4122910" lon="-4.6476240">
        <ele>302.2</ele>
        <time>2021-12-29T12:32:48Z</time>
      </trkpt>
      <trkpt lat="37.4122780" lon="-4.6476580">
        <ele>302.2</ele>
        <time>2021-12-29T12:32:49Z</time>
      </trkpt>
      <trkpt lat="37.4122590" lon="-4.6476920">
        <ele>302.4</ele>
        <time>2021-12-29T12:32:50Z</time>
      </trkpt>
      <trkpt lat="37.4122430" lon="-4.6477230">
        <ele>302.4</ele>
        <time>2021-12-29T12:32:51Z</time>
      </trkpt>
      <trkpt lat="37.4122270" lon="-4.6477530">
        <ele>302.6</ele>
        <time>2021-12-29T12:32:52Z</time>
      </trkpt>
      <trkpt lat="37.4122080" lon="-4.6477870">
        <ele>302.6</ele>
        <time>2021-12-29T12:32:53Z</time>
      </trkpt>
      <trkpt lat="37.4121920" lon="-4.6478200">
        <ele>302.6</ele>
        <time>2021-12-29T12:32:54Z</time>
      </trkpt>
      <trkpt lat="37.4121700" lon="-4.6478520">
        <ele>302.8</ele>
        <time>2021-12-29T12:32:55Z</time>
      </trkpt>
      <trkpt lat="37.4121540" lon="-4.6478850">
        <ele>302.8</ele>
        <time>2021-12-29T12:32:56Z</time>
      </trkpt>
      <trkpt lat="37.4121380" lon="-4.6479170">
        <ele>302.8</ele>
        <time>2021-12-29T12:32:57Z</time>
      </trkpt>
      <trkpt lat="37.4121180" lon="-4.6479440">
        <ele>302.8</ele>
        <time>2021-12-29T12:32:58Z</time>
      </trkpt>
      <trkpt lat="37.4121020" lon="-4.6479720">
        <ele>303.0</ele>
        <time>2021-12-29T12:32:59Z</time>
      </trkpt>
      <trkpt lat="37.4120900" lon="-4.6480000">
        <ele>303.0</ele>
        <time>2021-12-29T12:33:00Z</time>
      </trkpt>
      <trkpt lat="37.4120740" lon="-4.6480280">
        <ele>303.0</ele>
        <time>2021-12-29T12:33:01Z</time>
      </trkpt>
      <trkpt lat="37.4120540" lon="-4.6480560">
        <ele>303.0</ele>
        <time>2021-12-29T12:33:02Z</time>
      </trkpt>
      <trkpt lat="37.4120380" lon="-4.6480860">
        <ele>303.0</ele>
        <time>2021-12-29T12:33:03Z</time>
      </trkpt>
      <trkpt lat="37.4120190" lon="-4.6481150">
        <ele>303.2</ele>
        <time>2021-12-29T12:33:04Z</time>
      </trkpt>
      <trkpt lat="37.4120000" lon="-4.6481430">
        <ele>303.2</ele>
        <time>2021-12-29T12:33:05Z</time>
      </trkpt>
      <trkpt lat="37.4119840" lon="-4.6481770">
        <ele>303.2</ele>
        <time>2021-12-29T12:33:06Z</time>
      </trkpt>
      <trkpt lat="37.4119650" lon="-4.6482120">
        <ele>303.4</ele>
        <time>2021-12-29T12:33:07Z</time>
      </trkpt>
      <trkpt lat="37.4119490" lon="-4.6482440">
        <ele>303.4</ele>
        <time>2021-12-29T12:33:08Z</time>
      </trkpt>
      <trkpt lat="37.4119330" lon="-4.6482720">
        <ele>303.4</ele>
        <time>2021-12-29T12:33:09Z</time>
      </trkpt>
      <trkpt lat="37.4119140" lon="-4.6483000">
        <ele>303.4</ele>
        <time>2021-12-29T12:33:10Z</time>
      </trkpt>
      <trkpt lat="37.4118940" lon="-4.6483280">
        <ele>303.4</ele>
        <time>2021-12-29T12:33:11Z</time>
      </trkpt>
      <trkpt lat="37.4118750" lon="-4.6483580">
        <ele>303.6</ele>
        <time>2021-12-29T12:33:12Z</time>
      </trkpt>
      <trkpt lat="37.4118590" lon="-4.6483900">
        <ele>303.6</ele>
        <time>2021-12-29T12:33:13Z</time>
      </trkpt>
      <trkpt lat="37.4118400" lon="-4.6484200">
        <ele>303.6</ele>
        <time>2021-12-29T12:33:14Z</time>
      </trkpt>
      <trkpt lat="37.4118210" lon="-4.6484520">
        <ele>303.6</ele>
        <time>2021-12-29T12:33:15Z</time>
      </trkpt>
      <trkpt lat="37.4118020" lon="-4.6484830">
        <ele>303.6</ele>
        <time>2021-12-29T12:33:16Z</time>
      </trkpt>
      <trkpt lat="37.4117860" lon="-4.6485150">
        <ele>303.6</ele>
        <time>2021-12-29T12:33:17Z</time>
      </trkpt>
      <trkpt lat="37.4117630" lon="-4.6485450">
        <ele>303.8</ele>
        <time>2021-12-29T12:33:18Z</time>
      </trkpt>
      <trkpt lat="37.4117440" lon="-4.6485750">
        <ele>303.8</ele>
        <time>2021-12-29T12:33:19Z</time>
      </trkpt>
      <trkpt lat="37.4117280" lon="-4.6486040">
        <ele>303.8</ele>
        <time>2021-12-29T12:33:20Z</time>
      </trkpt>
      <trkpt lat="37.4117060" lon="-4.6486340">
        <ele>303.8</ele>
        <time>2021-12-29T12:33:21Z</time>
      </trkpt>
      <trkpt lat="37.4116900" lon="-4.6486580">
        <ele>303.8</ele>
        <time>2021-12-29T12:33:22Z</time>
      </trkpt>
      <trkpt lat="37.4116670" lon="-4.6486850">
        <ele>303.8</ele>
        <time>2021-12-29T12:33:23Z</time>
      </trkpt>
      <trkpt lat="37.4116510" lon="-4.6487130">
        <ele>303.8</ele>
        <time>2021-12-29T12:33:24Z</time>
      </trkpt>
      <trkpt lat="37.4116320" lon="-4.6487400">
        <ele>304.0</ele>
        <time>2021-12-29T12:33:25Z</time>
      </trkpt>
      <trkpt lat="37.4116130" lon="-4.6487650">
        <ele>304.0</ele>
        <time>2021-12-29T12:33:26Z</time>
      </trkpt>
      <trkpt lat="37.4115970" lon="-4.6487900">
        <ele>304.0</ele>
        <time>2021-12-29T12:33:27Z</time>
      </trkpt>
      <trkpt lat="37.4115840" lon="-4.6488150">
        <ele>304.2</ele>
        <time>2021-12-29T12:33:28Z</time>
      </trkpt>
      <trkpt lat="37.4115680" lon="-4.6488380">
        <ele>304.2</ele>
        <time>2021-12-29T12:33:29Z</time>
      </trkpt>
      <trkpt lat="37.4115520" lon="-4.6488600">
        <ele>304.2</ele>
        <time>2021-12-29T12:33:30Z</time>
      </trkpt>
      <trkpt lat="37.4115360" lon="-4.6488830">
        <ele>304.2</ele>
        <time>2021-12-29T12:33:31Z</time>
      </trkpt>
      <trkpt lat="37.4115230" lon="-4.6489030">
        <ele>304.2</ele>
        <time>2021-12-29T12:33:32Z</time>
      </trkpt>
      <trkpt lat="37.4115070" lon="-4.6489180">
        <ele>304.2</ele>
        <time>2021-12-29T12:33:33Z</time>
      </trkpt>
      <trkpt lat="37.4115070" lon="-4.6489180">
        <ele>304.2</ele>
        <time>2021-12-29T12:33:34Z</time>
      </trkpt>
      <trkpt lat="37.4114910" lon="-4.6489370">
        <ele>304.2</ele>
        <time>2021-12-29T12:33:35Z</time>
      </trkpt>
      <trkpt lat="37.4114910" lon="-4.6489370">
        <ele>304.2</ele>
        <time>2021-12-29T12:33:36Z</time>
      </trkpt>
      <trkpt lat="37.4114750" lon="-4.6489580">
        <ele>304.0</ele>
        <time>2021-12-29T12:33:37Z</time>
      </trkpt>
      <trkpt lat="37.4114750" lon="-4.6489580">
        <ele>304.0</ele>
        <time>2021-12-29T12:33:38Z</time>
      </trkpt>
      <trkpt lat="37.4114750" lon="-4.6489580">
        <ele>304.0</ele>
        <time>2021-12-29T12:33:39Z</time>
      </trkpt>
      <trkpt lat="37.4114750" lon="-4.6489580">
        <ele>303.8</ele>
        <time>2021-12-29T12:33:40Z</time>
      </trkpt>
      <trkpt lat="37.4114750" lon="-4.6489580">
        <ele>303.8</ele>
        <time>2021-12-29T12:33:41Z</time>
      </trkpt>
      <trkpt lat="37.4114750" lon="-4.6489580">
        <ele>303.6</ele>
        <time>2021-12-29T12:33:42Z</time>
      </trkpt>
      <trkpt lat="37.4114750" lon="-4.6489580">
        <ele>303.4</ele>
        <time>2021-12-29T12:33:43Z</time>
      </trkpt>
      <trkpt lat="37.4113660" lon="-4.6491080">
        <ele>301.8</ele>
        <time>2021-12-29T12:35:15Z</time>
      </trkpt>
      <trkpt lat="37.4113470" lon="-4.6491420">
        <ele>301.8</ele>
        <time>2021-12-29T12:35:16Z</time>
      </trkpt>
      <trkpt lat="37.4113250" lon="-4.6491780">
        <ele>301.8</ele>
        <time>2021-12-29T12:35:17Z</time>
      </trkpt>
      <trkpt lat="37.4112960" lon="-4.6492130">
        <ele>301.8</ele>
        <time>2021-12-29T12:35:18Z</time>
      </trkpt>
      <trkpt lat="37.4112700" lon="-4.6492450">
        <ele>301.8</ele>
        <time>2021-12-29T12:35:19Z</time>
      </trkpt>
      <trkpt lat="37.4112480" lon="-4.6492800">
        <ele>302.0</ele>
        <time>2021-12-29T12:35:20Z</time>
      </trkpt>
      <trkpt lat="37.4112290" lon="-4.6493100">
        <ele>302.0</ele>
        <time>2021-12-29T12:35:21Z</time>
      </trkpt>
      <trkpt lat="37.4112000" lon="-4.6493380">
        <ele>302.0</ele>
        <time>2021-12-29T12:35:22Z</time>
      </trkpt>
      <trkpt lat="37.4111840" lon="-4.6493680">
        <ele>302.0</ele>
        <time>2021-12-29T12:35:23Z</time>
      </trkpt>
      <trkpt lat="37.4111650" lon="-4.6493970">
        <ele>302.2</ele>
        <time>2021-12-29T12:35:24Z</time>
      </trkpt>
      <trkpt lat="37.4111460" lon="-4.6494240">
        <ele>302.2</ele>
        <time>2021-12-29T12:35:25Z</time>
      </trkpt>
      <trkpt lat="37.4111200" lon="-4.6494500">
        <ele>302.2</ele>
        <time>2021-12-29T12:35:26Z</time>
      </trkpt>
      <trkpt lat="37.4110980" lon="-4.6494760">
        <ele>302.4</ele>
        <time>2021-12-29T12:35:27Z</time>
      </trkpt>
      <trkpt lat="37.4110780" lon="-4.6495050">
        <ele>302.4</ele>
        <time>2021-12-29T12:35:28Z</time>
      </trkpt>
      <trkpt lat="37.4110560" lon="-4.6495320">
        <ele>302.4</ele>
        <time>2021-12-29T12:35:29Z</time>
      </trkpt>
      <trkpt lat="37.4110300" lon="-4.6495580">
        <ele>302.6</ele>
        <time>2021-12-29T12:35:30Z</time>
      </trkpt>
      <trkpt lat="37.4110110" lon="-4.6495880">
        <ele>302.6</ele>
        <time>2021-12-29T12:35:31Z</time>
      </trkpt>
      <trkpt lat="37.4109890" lon="-4.6496180">
        <ele>302.6</ele>
        <time>2021-12-29T12:35:32Z</time>
      </trkpt>
      <trkpt lat="37.4109660" lon="-4.6496480">
        <ele>302.6</ele>
        <time>2021-12-29T12:35:33Z</time>
      </trkpt>
      <trkpt lat="37.4109340" lon="-4.6496770">
        <ele>302.6</ele>
        <time>2021-12-29T12:35:34Z</time>
      </trkpt>
      <trkpt lat="37.4109090" lon="-4.6497100">
        <ele>302.8</ele>
        <time>2021-12-29T12:35:35Z</time>
      </trkpt>
      <trkpt lat="37.4108770" lon="-4.6497430">
        <ele>302.8</ele>
        <time>2021-12-29T12:35:36Z</time>
      </trkpt>
      <trkpt lat="37.4108480" lon="-4.6497750">
        <ele>302.8</ele>
        <time>2021-12-29T12:35:37Z</time>
      </trkpt>
      <trkpt lat="37.4108190" lon="-4.6498060">
        <ele>302.8</ele>
        <time>2021-12-29T12:35:38Z</time>
      </trkpt>
      <trkpt lat="37.4107940" lon="-4.6498400">
        <ele>302.8</ele>
        <time>2021-12-29T12:35:39Z</time>
      </trkpt>
      <trkpt lat="37.4107620" lon="-4.6498730">
        <ele>302.8</ele>
        <time>2021-12-29T12:35:40Z</time>
      </trkpt>
      <trkpt lat="37.4107330" lon="-4.6499050">
        <ele>302.8</ele>
        <time>2021-12-29T12:35:41Z</time>
      </trkpt>
      <trkpt lat="37.4107040" lon="-4.6499370">
        <ele>302.8</ele>
        <time>2021-12-29T12:35:42Z</time>
      </trkpt>
      <trkpt lat="37.4106880" lon="-4.6499600">
        <ele>302.8</ele>
        <time>2021-12-29T12:35:43Z</time>
      </trkpt>
      <trkpt lat="37.4106620" lon="-4.6499870">
        <ele>302.8</ele>
        <time>2021-12-29T12:35:44Z</time>
      </trkpt>
      <trkpt lat="37.4106400" lon="-4.6500100">
        <ele>303.0</ele>
        <time>2021-12-29T12:35:45Z</time>
      </trkpt>
      <trkpt lat="37.4106210" lon="-4.6500340">
        <ele>303.0</ele>
        <time>2021-12-29T12:35:46Z</time>
      </trkpt>
      <trkpt lat="37.4106050" lon="-4.6500570">
        <ele>303.0</ele>
        <time>2021-12-29T12:35:47Z</time>
      </trkpt>
      <trkpt lat="37.4105890" lon="-4.6500770">
        <ele>303.0</ele>
        <time>2021-12-29T12:35:48Z</time>
      </trkpt>
      <trkpt lat="37.4105700" lon="-4.6500950">
        <ele>303.0</ele>
        <time>2021-12-29T12:35:49Z</time>
      </trkpt>
      <trkpt lat="37.4105540" lon="-4.6501150">
        <ele>303.0</ele>
        <time>2021-12-29T12:35:50Z</time>
      </trkpt>
      <trkpt lat="37.4105380" lon="-4.6501350">
        <ele>303.2</ele>
        <time>2021-12-29T12:35:51Z</time>
      </trkpt>
      <trkpt lat="37.4105220" lon="-4.6501580">
        <ele>303.2</ele>
        <time>2021-12-29T12:35:52Z</time>
      </trkpt>
      <trkpt lat="37.4105090" lon="-4.6501760">
        <ele>303.2</ele>
        <time>2021-12-29T12:35:53Z</time>
      </trkpt>
      <trkpt lat="37.4104900" lon="-4.6501950">
        <ele>303.0</ele>
        <time>2021-12-29T12:35:54Z</time>
      </trkpt>
      <trkpt lat="37.4104740" lon="-4.6502150">
        <ele>303.0</ele>
        <time>2021-12-29T12:35:55Z</time>
      </trkpt>
      <trkpt lat="37.4104580" lon="-4.6502330">
        <ele>303.0</ele>
        <time>2021-12-29T12:35:56Z</time>
      </trkpt>
      <trkpt lat="37.4104380" lon="-4.6502530">
        <ele>303.0</ele>
        <time>2021-12-29T12:35:57Z</time>
      </trkpt>
      <trkpt lat="37.4104220" lon="-4.6502750">
        <ele>303.0</ele>
        <time>2021-12-29T12:35:58Z</time>
      </trkpt>
      <trkpt lat="37.4104030" lon="-4.6502950">
        <ele>303.0</ele>
        <time>2021-12-29T12:35:59Z</time>
      </trkpt>
      <trkpt lat="37.4103840" lon="-4.6503150">
        <ele>303.0</ele>
        <time>2021-12-29T12:36:00Z</time>
      </trkpt>
      <trkpt lat="37.4103710" lon="-4.6503400">
        <ele>303.0</ele>
        <time>2021-12-29T12:36:01Z</time>
      </trkpt>
      <trkpt lat="37.4103520" lon="-4.6503640">
        <ele>303.0</ele>
        <time>2021-12-29T12:36:02Z</time>
      </trkpt>
      <trkpt lat="37.4103390" lon="-4.6503870">
        <ele>303.0</ele>
        <time>2021-12-29T12:36:03Z</time>
      </trkpt>
      <trkpt lat="37.4103200" lon="-4.6504120">
        <ele>303.0</ele>
        <time>2021-12-29T12:36:04Z</time>
      </trkpt>
      <trkpt lat="37.4103040" lon="-4.6504350">
        <ele>303.0</ele>
        <time>2021-12-29T12:36:05Z</time>
      </trkpt>
      <trkpt lat="37.4102850" lon="-4.6504550">
        <ele>303.0</ele>
        <time>2021-12-29T12:36:06Z</time>
      </trkpt>
      <trkpt lat="37.4102660" lon="-4.6504750">
        <ele>303.0</ele>
        <time>2021-12-29T12:36:07Z</time>
      </trkpt>
      <trkpt lat="37.4102530" lon="-4.6504920">
        <ele>303.0</ele>
        <time>2021-12-29T12:36:08Z</time>
      </trkpt>
      <trkpt lat="37.4102370" lon="-4.6505060">
        <ele>303.0</ele>
        <time>2021-12-29T12:36:09Z</time>
      </trkpt>
      <trkpt lat="37.4102210" lon="-4.6505230">
        <ele>303.0</ele>
        <time>2021-12-29T12:36:10Z</time>
      </trkpt>
      <trkpt lat="37.4102050" lon="-4.6505400">
        <ele>303.2</ele>
        <time>2021-12-29T12:36:11Z</time>
      </trkpt>
      <trkpt lat="37.4101920" lon="-4.6505620">
        <ele>303.4</ele>
        <time>2021-12-29T12:36:12Z</time>
      </trkpt>
      <trkpt lat="37.4101760" lon="-4.6505820">
        <ele>303.4</ele>
        <time>2021-12-29T12:36:13Z</time>
      </trkpt>
      <trkpt lat="37.4101570" lon="-4.6506000">
        <ele>303.4</ele>
        <time>2021-12-29T12:36:14Z</time>
      </trkpt>
      <trkpt lat="37.4101380" lon="-4.6506180">
        <ele>303.4</ele>
        <time>2021-12-29T12:36:15Z</time>
      </trkpt>
      <trkpt lat="37.4101180" lon="-4.6506380">
        <ele>303.4</ele>
        <time>2021-12-29T12:36:16Z</time>
      </trkpt>
      <trkpt lat="37.4101020" lon="-4.6506620">
        <ele>303.4</ele>
        <time>2021-12-29T12:36:17Z</time>
      </trkpt>
      <trkpt lat="37.4100800" lon="-4.6506870">
        <ele>303.4</ele>
        <time>2021-12-29T12:36:18Z</time>
      </trkpt>
      <trkpt lat="37.4100580" lon="-4.6507140">
        <ele>303.6</ele>
        <time>2021-12-29T12:36:19Z</time>
      </trkpt>
      <trkpt lat="37.4100350" lon="-4.6507420">
        <ele>303.6</ele>
        <time>2021-12-29T12:36:20Z</time>
      </trkpt>
      <trkpt lat="37.4100060" lon="-4.6507740">
        <ele>303.6</ele>
        <time>2021-12-29T12:36:21Z</time>
      </trkpt>
      <trkpt lat="37.4099780" lon="-4.6508100">
        <ele>303.6</ele>
        <time>2021-12-29T12:36:22Z</time>
      </trkpt>
      <trkpt lat="37.4099460" lon="-4.6508500">
        <ele>303.8</ele>
        <time>2021-12-29T12:36:23Z</time>
      </trkpt>
      <trkpt lat="37.4099140" lon="-4.6508920">
        <ele>303.8</ele>
        <time>2021-12-29T12:36:24Z</time>
      </trkpt>
      <trkpt lat="37.4098820" lon="-4.6509330">
        <ele>303.8</ele>
        <time>2021-12-29T12:36:25Z</time>
      </trkpt>
      <trkpt lat="37.4098430" lon="-4.6509770">
        <ele>303.8</ele>
        <time>2021-12-29T12:36:26Z</time>
      </trkpt>
      <trkpt lat="37.4098020" lon="-4.6510230">
        <ele>303.8</ele>
        <time>2021-12-29T12:36:27Z</time>
      </trkpt>
      <trkpt lat="37.4097600" lon="-4.6510680">
        <ele>303.8</ele>
        <time>2021-12-29T12:36:28Z</time>
      </trkpt>
      <trkpt lat="37.4097150" lon="-4.6511180">
        <ele>304.0</ele>
        <time>2021-12-29T12:36:29Z</time>
      </trkpt>
      <trkpt lat="37.4096700" lon="-4.6511720">
        <ele>304.0</ele>
        <time>2021-12-29T12:36:30Z</time>
      </trkpt>
      <trkpt lat="37.4096290" lon="-4.6512250">
        <ele>304.0</ele>
        <time>2021-12-29T12:36:31Z</time>
      </trkpt>
      <trkpt lat="37.4095840" lon="-4.6512760">
        <ele>304.0</ele>
        <time>2021-12-29T12:36:32Z</time>
      </trkpt>
      <trkpt lat="37.4095420" lon="-4.6513250">
        <ele>304.0</ele>
        <time>2021-12-29T12:36:33Z</time>
      </trkpt>
      <trkpt lat="37.4095010" lon="-4.6513780">
        <ele>304.0</ele>
        <time>2021-12-29T12:36:34Z</time>
      </trkpt>
      <trkpt lat="37.4094530" lon="-4.6514340">
        <ele>304.0</ele>
        <time>2021-12-29T12:36:35Z</time>
      </trkpt>
      <trkpt lat="37.4094050" lon="-4.6514900">
        <ele>304.0</ele>
        <time>2021-12-29T12:36:36Z</time>
      </trkpt>
      <trkpt lat="37.4093540" lon="-4.6515480">
        <ele>304.0</ele>
        <time>2021-12-29T12:36:37Z</time>
      </trkpt>
      <trkpt lat="37.4093020" lon="-4.6516100">
        <ele>303.8</ele>
        <time>2021-12-29T12:36:38Z</time>
      </trkpt>
      <trkpt lat="37.4092510" lon="-4.6516720">
        <ele>303.6</ele>
        <time>2021-12-29T12:36:39Z</time>
      </trkpt>
      <trkpt lat="37.4092030" lon="-4.6517330">
        <ele>303.6</ele>
        <time>2021-12-29T12:36:40Z</time>
      </trkpt>
      <trkpt lat="37.4091520" lon="-4.6517980">
        <ele>303.4</ele>
        <time>2021-12-29T12:36:41Z</time>
      </trkpt>
      <trkpt lat="37.4091040" lon="-4.6518600">
        <ele>303.4</ele>
        <time>2021-12-29T12:36:42Z</time>
      </trkpt>
      <trkpt lat="37.4090590" lon="-4.6519160">
        <ele>303.2</ele>
        <time>2021-12-29T12:36:43Z</time>
      </trkpt>
      <trkpt lat="37.4090110" lon="-4.6519720">
        <ele>303.2</ele>
        <time>2021-12-29T12:36:44Z</time>
      </trkpt>
      <trkpt lat="37.4089700" lon="-4.6520270">
        <ele>303.0</ele>
        <time>2021-12-29T12:36:45Z</time>
      </trkpt>
      <trkpt lat="37.4089280" lon="-4.6520730">
        <ele>303.0</ele>
        <time>2021-12-29T12:36:46Z</time>
      </trkpt>
      <trkpt lat="37.4088900" lon="-4.6521250">
        <ele>302.8</ele>
        <time>2021-12-29T12:36:47Z</time>
      </trkpt>
      <trkpt lat="37.4088480" lon="-4.6521740">
        <ele>302.8</ele>
        <time>2021-12-29T12:36:48Z</time>
      </trkpt>
      <trkpt lat="37.4088130" lon="-4.6522200">
        <ele>302.6</ele>
        <time>2021-12-29T12:36:49Z</time>
      </trkpt>
      <trkpt lat="37.4087740" lon="-4.6522630">
        <ele>302.6</ele>
        <time>2021-12-29T12:36:50Z</time>
      </trkpt>
      <trkpt lat="37.4087420" lon="-4.6523080">
        <ele>302.4</ele>
        <time>2021-12-29T12:36:51Z</time>
      </trkpt>
      <trkpt lat="37.4087070" lon="-4.6523500">
        <ele>302.4</ele>
        <time>2021-12-29T12:36:52Z</time>
      </trkpt>
      <trkpt lat="37.4086720" lon="-4.6523900">
        <ele>302.4</ele>
        <time>2021-12-29T12:36:53Z</time>
      </trkpt>
      <trkpt lat="37.4086370" lon="-4.6524300">
        <ele>302.2</ele>
        <time>2021-12-29T12:36:54Z</time>
      </trkpt>
      <trkpt lat="37.4086050" lon="-4.6524680">
        <ele>302.2</ele>
        <time>2021-12-29T12:36:55Z</time>
      </trkpt>
      <trkpt lat="37.4085700" lon="-4.6525070">
        <ele>302.0</ele>
        <time>2021-12-29T12:36:56Z</time>
      </trkpt>
      <trkpt lat="37.4085380" lon="-4.6525470">
        <ele>301.8</ele>
        <time>2021-12-29T12:36:57Z</time>
      </trkpt>
      <trkpt lat="37.4085090" lon="-4.6525820">
        <ele>301.8</ele>
        <time>2021-12-29T12:36:58Z</time>
      </trkpt>
      <trkpt lat="37.4084740" lon="-4.6526220">
        <ele>301.6</ele>
        <time>2021-12-29T12:36:59Z</time>
      </trkpt>
      <trkpt lat="37.4084480" lon="-4.6526580">
        <ele>301.4</ele>
        <time>2021-12-29T12:37:00Z</time>
      </trkpt>
      <trkpt lat="37.4084160" lon="-4.6526930">
        <ele>301.4</ele>
        <time>2021-12-29T12:37:01Z</time>
      </trkpt>
      <trkpt lat="37.4083900" lon="-4.6527300">
        <ele>301.4</ele>
        <time>2021-12-29T12:37:02Z</time>
      </trkpt>
      <trkpt lat="37.4083580" lon="-4.6527620">
        <ele>301.2</ele>
        <time>2021-12-29T12:37:03Z</time>
      </trkpt>
      <trkpt lat="37.4083330" lon="-4.6527940">
        <ele>301.2</ele>
        <time>2021-12-29T12:37:04Z</time>
      </trkpt>
      <trkpt lat="37.4083070" lon="-4.6528250">
        <ele>301.2</ele>
        <time>2021-12-29T12:37:05Z</time>
      </trkpt>
      <trkpt lat="37.4082750" lon="-4.6528580">
        <ele>301.0</ele>
        <time>2021-12-29T12:37:06Z</time>
      </trkpt>
      <trkpt lat="37.4082530" lon="-4.6528880">
        <ele>301.0</ele>
        <time>2021-12-29T12:37:07Z</time>
      </trkpt>
      <trkpt lat="37.4082270" lon="-4.6529200">
        <ele>301.0</ele>
        <time>2021-12-29T12:37:08Z</time>
      </trkpt>
      <trkpt lat="37.4081980" lon="-4.6529520">
        <ele>301.0</ele>
        <time>2021-12-29T12:37:09Z</time>
      </trkpt>
      <trkpt lat="37.4081730" lon="-4.6529850">
        <ele>301.0</ele>
        <time>2021-12-29T12:37:10Z</time>
      </trkpt>
      <trkpt lat="37.4081470" lon="-4.6530160">
        <ele>300.8</ele>
        <time>2021-12-29T12:37:11Z</time>
      </trkpt>
      <trkpt lat="37.4081150" lon="-4.6530500">
        <ele>300.8</ele>
        <time>2021-12-29T12:37:12Z</time>
      </trkpt>
      <trkpt lat="37.4080860" lon="-4.6530820">
        <ele>300.8</ele>
        <time>2021-12-29T12:37:13Z</time>
      </trkpt>
      <trkpt lat="37.4080540" lon="-4.6531150">
        <ele>300.6</ele>
        <time>2021-12-29T12:37:14Z</time>
      </trkpt>
      <trkpt lat="37.4080220" lon="-4.6531480">
        <ele>300.6</ele>
        <time>2021-12-29T12:37:15Z</time>
      </trkpt>
      <trkpt lat="37.4079940" lon="-4.6531880">
        <ele>300.6</ele>
        <time>2021-12-29T12:37:16Z</time>
      </trkpt>
      <trkpt lat="37.4079680" lon="-4.6532270">
        <ele>300.6</ele>
        <time>2021-12-29T12:37:17Z</time>
      </trkpt>
      <trkpt lat="37.4079360" lon="-4.6532620">
        <ele>300.6</ele>
        <time>2021-12-29T12:37:18Z</time>
      </trkpt>
      <trkpt lat="37.4079040" lon="-4.6533000">
        <ele>300.6</ele>
        <time>2021-12-29T12:37:19Z</time>
      </trkpt>
      <trkpt lat="37.4078750" lon="-4.6533380">
        <ele>300.6</ele>
        <time>2021-12-29T12:37:20Z</time>
      </trkpt>
      <trkpt lat="37.4078400" lon="-4.6533760">
        <ele>300.6</ele>
        <time>2021-12-29T12:37:21Z</time>
      </trkpt>
      <trkpt lat="37.4078050" lon="-4.6534150">
        <ele>300.6</ele>
        <time>2021-12-29T12:37:22Z</time>
      </trkpt>
      <trkpt lat="37.4077730" lon="-4.6534520">
        <ele>300.6</ele>
        <time>2021-12-29T12:37:23Z</time>
      </trkpt>
      <trkpt lat="37.4077410" lon="-4.6534880">
        <ele>300.6</ele>
        <time>2021-12-29T12:37:24Z</time>
      </trkpt>
      <trkpt lat="37.4077090" lon="-4.6535240">
        <ele>300.8</ele>
        <time>2021-12-29T12:37:25Z</time>
      </trkpt>
      <trkpt lat="37.4076770" lon="-4.6535600">
        <ele>300.8</ele>
        <time>2021-12-29T12:37:26Z</time>
      </trkpt>
      <trkpt lat="37.4076450" lon="-4.6535950">
        <ele>300.8</ele>
        <time>2021-12-29T12:37:27Z</time>
      </trkpt>
      <trkpt lat="37.4076190" lon="-4.6536300">
        <ele>301.0</ele>
        <time>2021-12-29T12:37:28Z</time>
      </trkpt>
      <trkpt lat="37.4075900" lon="-4.6536650">
        <ele>301.0</ele>
        <time>2021-12-29T12:37:29Z</time>
      </trkpt>
      <trkpt lat="37.4075580" lon="-4.6537020">
        <ele>301.0</ele>
        <time>2021-12-29T12:37:30Z</time>
      </trkpt>
      <trkpt lat="37.4075260" lon="-4.6537380">
        <ele>300.8</ele>
        <time>2021-12-29T12:37:31Z</time>
      </trkpt>
      <trkpt lat="37.4074940" lon="-4.6537720">
        <ele>300.8</ele>
        <time>2021-12-29T12:37:32Z</time>
      </trkpt>
      <trkpt lat="37.4074660" lon="-4.6538100">
        <ele>300.8</ele>
        <time>2021-12-29T12:37:33Z</time>
      </trkpt>
      <trkpt lat="37.4074340" lon="-4.6538470">
        <ele>300.8</ele>
        <time>2021-12-29T12:37:34Z</time>
      </trkpt>
      <trkpt lat="37.4073980" lon="-4.6538840">
        <ele>300.6</ele>
        <time>2021-12-29T12:37:35Z</time>
      </trkpt>
      <trkpt lat="37.4073660" lon="-4.6539200">
        <ele>300.6</ele>
        <time>2021-12-29T12:37:36Z</time>
      </trkpt>
      <trkpt lat="37.4073380" lon="-4.6539550">
        <ele>300.6</ele>
        <time>2021-12-29T12:37:37Z</time>
      </trkpt>
      <trkpt lat="37.4073060" lon="-4.6539920">
        <ele>300.4</ele>
        <time>2021-12-29T12:37:38Z</time>
      </trkpt>
      <trkpt lat="37.4072770" lon="-4.6540260">
        <ele>300.4</ele>
        <time>2021-12-29T12:37:39Z</time>
      </trkpt>
      <trkpt lat="37.4072480" lon="-4.6540600">
        <ele>300.2</ele>
        <time>2021-12-29T12:37:40Z</time>
      </trkpt>
      <trkpt lat="37.4072190" lon="-4.6540950">
        <ele>300.2</ele>
        <time>2021-12-29T12:37:41Z</time>
      </trkpt>
      <trkpt lat="37.4071870" lon="-4.6541300">
        <ele>300.0</ele>
        <time>2021-12-29T12:37:42Z</time>
      </trkpt>
      <trkpt lat="37.4071580" lon="-4.6541620">
        <ele>300.0</ele>
        <time>2021-12-29T12:37:43Z</time>
      </trkpt>
      <trkpt lat="37.4071230" lon="-4.6541980">
        <ele>300.0</ele>
        <time>2021-12-29T12:37:44Z</time>
      </trkpt>
      <trkpt lat="37.4070980" lon="-4.6542370">
        <ele>299.8</ele>
        <time>2021-12-29T12:37:45Z</time>
      </trkpt>
      <trkpt lat="37.4070620" lon="-4.6542750">
        <ele>299.8</ele>
        <time>2021-12-29T12:37:46Z</time>
      </trkpt>
      <trkpt lat="37.4070340" lon="-4.6543150">
        <ele>299.8</ele>
        <time>2021-12-29T12:37:47Z</time>
      </trkpt>
      <trkpt lat="37.4070020" lon="-4.6543530">
        <ele>299.6</ele>
        <time>2021-12-29T12:37:48Z</time>
      </trkpt>
      <trkpt lat="37.4069700" lon="-4.6543920">
        <ele>299.6</ele>
        <time>2021-12-29T12:37:49Z</time>
      </trkpt>
      <trkpt lat="37.4069380" lon="-4.6544320">
        <ele>299.4</ele>
        <time>2021-12-29T12:37:50Z</time>
      </trkpt>
      <trkpt lat="37.4069020" lon="-4.6544730">
        <ele>299.2</ele>
        <time>2021-12-29T12:37:51Z</time>
      </trkpt>
      <trkpt lat="37.4068640" lon="-4.6545170">
        <ele>299.2</ele>
        <time>2021-12-29T12:37:52Z</time>
      </trkpt>
      <trkpt lat="37.4068290" lon="-4.6545570">
        <ele>299.2</ele>
        <time>2021-12-29T12:37:53Z</time>
      </trkpt>
      <trkpt lat="37.4067900" lon="-4.6546020">
        <ele>299.0</ele>
        <time>2021-12-29T12:37:54Z</time>
      </trkpt>
      <trkpt lat="37.4067580" lon="-4.6546440">
        <ele>299.0</ele>
        <time>2021-12-29T12:37:55Z</time>
      </trkpt>
      <trkpt lat="37.4067260" lon="-4.6546830">
        <ele>299.0</ele>
        <time>2021-12-29T12:37:56Z</time>
      </trkpt>
      <trkpt lat="37.4066880" lon="-4.6547250">
        <ele>299.0</ele>
        <time>2021-12-29T12:37:57Z</time>
      </trkpt>
      <trkpt lat="37.4066530" lon="-4.6547620">
        <ele>299.0</ele>
        <time>2021-12-29T12:37:58Z</time>
      </trkpt>
      <trkpt lat="37.4066210" lon="-4.6547980">
        <ele>299.0</ele>
        <time>2021-12-29T12:37:59Z</time>
      </trkpt>
      <trkpt lat="37.4065890" lon="-4.6548370">
        <ele>299.0</ele>
        <time>2021-12-29T12:38:00Z</time>
      </trkpt>
      <trkpt lat="37.4065600" lon="-4.6548750">
        <ele>299.0</ele>
        <time>2021-12-29T12:38:01Z</time>
      </trkpt>
      <trkpt lat="37.4065280" lon="-4.6549070">
        <ele>299.0</ele>
        <time>2021-12-29T12:38:02Z</time>
      </trkpt>
      <trkpt lat="37.4065020" lon="-4.6549380">
        <ele>299.0</ele>
        <time>2021-12-29T12:38:03Z</time>
      </trkpt>
      <trkpt lat="37.4064700" lon="-4.6549740">
        <ele>299.0</ele>
        <time>2021-12-29T12:38:04Z</time>
      </trkpt>
      <trkpt lat="37.4064450" lon="-4.6550050">
        <ele>298.8</ele>
        <time>2021-12-29T12:38:05Z</time>
      </trkpt>
      <trkpt lat="37.4064190" lon="-4.6550400">
        <ele>298.8</ele>
        <time>2021-12-29T12:38:06Z</time>
      </trkpt>
      <trkpt lat="37.4063900" lon="-4.6550730">
        <ele>298.8</ele>
        <time>2021-12-29T12:38:07Z</time>
      </trkpt>
      <trkpt lat="37.4063650" lon="-4.6551050">
        <ele>298.8</ele>
        <time>2021-12-29T12:38:08Z</time>
      </trkpt>
      <trkpt lat="37.4063420" lon="-4.6551380">
        <ele>298.6</ele>
        <time>2021-12-29T12:38:09Z</time>
      </trkpt>
      <trkpt lat="37.4063100" lon="-4.6551750">
        <ele>298.6</ele>
        <time>2021-12-29T12:38:10Z</time>
      </trkpt>
      <trkpt lat="37.4062850" lon="-4.6552120">
        <ele>298.6</ele>
        <time>2021-12-29T12:38:11Z</time>
      </trkpt>
      <trkpt lat="37.4062530" lon="-4.6552450">
        <ele>298.6</ele>
        <time>2021-12-29T12:38:12Z</time>
      </trkpt>
      <trkpt lat="37.4062240" lon="-4.6552820">
        <ele>298.4</ele>
        <time>2021-12-29T12:38:13Z</time>
      </trkpt>
      <trkpt lat="37.4061860" lon="-4.6553180">
        <ele>298.4</ele>
        <time>2021-12-29T12:38:14Z</time>
      </trkpt>
      <trkpt lat="37.4061500" lon="-4.6553550">
        <ele>298.2</ele>
        <time>2021-12-29T12:38:15Z</time>
      </trkpt>
      <trkpt lat="37.4061220" lon="-4.6553950">
        <ele>298.2</ele>
        <time>2021-12-29T12:38:16Z</time>
      </trkpt>
      <trkpt lat="37.4060900" lon="-4.6554350">
        <ele>298.2</ele>
        <time>2021-12-29T12:38:17Z</time>
      </trkpt>
      <trkpt lat="37.4060640" lon="-4.6554750">
        <ele>298.0</ele>
        <time>2021-12-29T12:38:18Z</time>
      </trkpt>
      <trkpt lat="37.4060320" lon="-4.6555120">
        <ele>298.0</ele>
        <time>2021-12-29T12:38:19Z</time>
      </trkpt>
      <trkpt lat="37.4060030" lon="-4.6555480">
        <ele>297.8</ele>
        <time>2021-12-29T12:38:20Z</time>
      </trkpt>
      <trkpt lat="37.4059740" lon="-4.6555820">
        <ele>297.8</ele>
        <time>2021-12-29T12:38:21Z</time>
      </trkpt>
      <trkpt lat="37.4059460" lon="-4.6556120">
        <ele>297.8</ele>
        <time>2021-12-29T12:38:22Z</time>
      </trkpt>
      <trkpt lat="37.4059140" lon="-4.6556400">
        <ele>297.8</ele>
        <time>2021-12-29T12:38:23Z</time>
      </trkpt>
      <trkpt lat="37.4058850" lon="-4.6556740">
        <ele>297.8</ele>
        <time>2021-12-29T12:38:24Z</time>
      </trkpt>
      <trkpt lat="37.4058560" lon="-4.6557080">
        <ele>297.6</ele>
        <time>2021-12-29T12:38:25Z</time>
      </trkpt>
      <trkpt lat="37.4058270" lon="-4.6557450">
        <ele>297.6</ele>
        <time>2021-12-29T12:38:26Z</time>
      </trkpt>
      <trkpt lat="37.4057950" lon="-4.6557820">
        <ele>297.4</ele>
        <time>2021-12-29T12:38:27Z</time>
      </trkpt>
      <trkpt lat="37.4057630" lon="-4.6558200">
        <ele>297.4</ele>
        <time>2021-12-29T12:38:28Z</time>
      </trkpt>
      <trkpt lat="37.4057310" lon="-4.6558600">
        <ele>297.2</ele>
        <time>2021-12-29T12:38:29Z</time>
      </trkpt>
      <trkpt lat="37.4056960" lon="-4.6559000">
        <ele>297.2</ele>
        <time>2021-12-29T12:38:30Z</time>
      </trkpt>
      <trkpt lat="37.4056640" lon="-4.6559420">
        <ele>297.2</ele>
        <time>2021-12-29T12:38:31Z</time>
      </trkpt>
      <trkpt lat="37.4056290" lon="-4.6559850">
        <ele>297.0</ele>
        <time>2021-12-29T12:38:32Z</time>
      </trkpt>
      <trkpt lat="37.4055970" lon="-4.6560270">
        <ele>297.0</ele>
        <time>2021-12-29T12:38:33Z</time>
      </trkpt>
      <trkpt lat="37.4055680" lon="-4.6560670">
        <ele>297.0</ele>
        <time>2021-12-29T12:38:34Z</time>
      </trkpt>
      <trkpt lat="37.4055360" lon="-4.6561080">
        <ele>296.8</ele>
        <time>2021-12-29T12:38:35Z</time>
      </trkpt>
      <trkpt lat="37.4055010" lon="-4.6561480">
        <ele>296.8</ele>
        <time>2021-12-29T12:38:36Z</time>
      </trkpt>
      <trkpt lat="37.4054720" lon="-4.6561880">
        <ele>296.6</ele>
        <time>2021-12-29T12:38:37Z</time>
      </trkpt>
      <trkpt lat="37.4054400" lon="-4.6562250">
        <ele>296.4</ele>
        <time>2021-12-29T12:38:38Z</time>
      </trkpt>
      <trkpt lat="37.4054110" lon="-4.6562600">
        <ele>296.2</ele>
        <time>2021-12-29T12:38:39Z</time>
      </trkpt>
      <trkpt lat="37.4053790" lon="-4.6562950">
        <ele>296.2</ele>
        <time>2021-12-29T12:38:40Z</time>
      </trkpt>
      <trkpt lat="37.4053540" lon="-4.6563280">
        <ele>296.0</ele>
        <time>2021-12-29T12:38:41Z</time>
      </trkpt>
      <trkpt lat="37.4053180" lon="-4.6563620">
        <ele>295.8</ele>
        <time>2021-12-29T12:38:42Z</time>
      </trkpt>
      <trkpt lat="37.4052860" lon="-4.6563980">
        <ele>295.8</ele>
        <time>2021-12-29T12:38:43Z</time>
      </trkpt>
      <trkpt lat="37.4052580" lon="-4.6564370">
        <ele>295.6</ele>
        <time>2021-12-29T12:38:44Z</time>
      </trkpt>
      <trkpt lat="37.4052220" lon="-4.6564760">
        <ele>295.6</ele>
        <time>2021-12-29T12:38:45Z</time>
      </trkpt>
      <trkpt lat="37.4051940" lon="-4.6565160">
        <ele>295.4</ele>
        <time>2021-12-29T12:38:46Z</time>
      </trkpt>
      <trkpt lat="37.4051620" lon="-4.6565550">
        <ele>295.4</ele>
        <time>2021-12-29T12:38:47Z</time>
      </trkpt>
      <trkpt lat="37.4051300" lon="-4.6565970">
        <ele>295.4</ele>
        <time>2021-12-29T12:38:48Z</time>
      </trkpt>
      <trkpt lat="37.4050940" lon="-4.6566350">
        <ele>295.2</ele>
        <time>2021-12-29T12:38:49Z</time>
      </trkpt>
      <trkpt lat="37.4050620" lon="-4.6566780">
        <ele>295.2</ele>
        <time>2021-12-29T12:38:50Z</time>
      </trkpt>
      <trkpt lat="37.4050300" lon="-4.6567180">
        <ele>295.0</ele>
        <time>2021-12-29T12:38:51Z</time>
      </trkpt>
      <trkpt lat="37.4049980" lon="-4.6567580">
        <ele>295.0</ele>
        <time>2021-12-29T12:38:52Z</time>
      </trkpt>
      <trkpt lat="37.4049700" lon="-4.6567950">
        <ele>294.8</ele>
        <time>2021-12-29T12:38:53Z</time>
      </trkpt>
      <trkpt lat="37.4049380" lon="-4.6568330">
        <ele>294.8</ele>
        <time>2021-12-29T12:38:54Z</time>
      </trkpt>
      <trkpt lat="37.4049120" lon="-4.6568720">
        <ele>294.6</ele>
        <time>2021-12-29T12:38:55Z</time>
      </trkpt>
      <trkpt lat="37.4048770" lon="-4.6569100">
        <ele>294.6</ele>
        <time>2021-12-29T12:38:56Z</time>
      </trkpt>
      <trkpt lat="37.4048510" lon="-4.6569480">
        <ele>294.6</ele>
        <time>2021-12-29T12:38:57Z</time>
      </trkpt>
      <trkpt lat="37.4048190" lon="-4.6569930">
        <ele>294.4</ele>
        <time>2021-12-29T12:38:58Z</time>
      </trkpt>
      <trkpt lat="37.4047840" lon="-4.6570370">
        <ele>294.4</ele>
        <time>2021-12-29T12:38:59Z</time>
      </trkpt>
      <trkpt lat="37.4047580" lon="-4.6570800">
        <ele>294.4</ele>
        <time>2021-12-29T12:39:00Z</time>
      </trkpt>
      <trkpt lat="37.4047230" lon="-4.6571260">
        <ele>294.4</ele>
        <time>2021-12-29T12:39:01Z</time>
      </trkpt>
      <trkpt lat="37.4046910" lon="-4.6571730">
        <ele>294.2</ele>
        <time>2021-12-29T12:39:02Z</time>
      </trkpt>
      <trkpt lat="37.4046590" lon="-4.6572200">
        <ele>294.2</ele>
        <time>2021-12-29T12:39:03Z</time>
      </trkpt>
      <trkpt lat="37.4046270" lon="-4.6572650">
        <ele>294.2</ele>
        <time>2021-12-29T12:39:04Z</time>
      </trkpt>
      <trkpt lat="37.4046020" lon="-4.6573100">
        <ele>294.2</ele>
        <time>2021-12-29T12:39:05Z</time>
      </trkpt>
      <trkpt lat="37.4045760" lon="-4.6573540">
        <ele>294.2</ele>
        <time>2021-12-29T12:39:06Z</time>
      </trkpt>
      <trkpt lat="37.4045470" lon="-4.6573980">
        <ele>294.2</ele>
        <time>2021-12-29T12:39:07Z</time>
      </trkpt>
      <trkpt lat="37.4045180" lon="-4.6574440">
        <ele>294.2</ele>
        <time>2021-12-29T12:39:08Z</time>
      </trkpt>
      <trkpt lat="37.4044960" lon="-4.6574870">
        <ele>294.2</ele>
        <time>2021-12-29T12:39:09Z</time>
      </trkpt>
      <trkpt lat="37.4044670" lon="-4.6575330">
        <ele>294.0</ele>
        <time>2021-12-29T12:39:10Z</time>
      </trkpt>
      <trkpt lat="37.4044420" lon="-4.6575820">
        <ele>294.0</ele>
        <time>2021-12-29T12:39:11Z</time>
      </trkpt>
      <trkpt lat="37.4044160" lon="-4.6576320">
        <ele>294.0</ele>
        <time>2021-12-29T12:39:12Z</time>
      </trkpt>
      <trkpt lat="37.4043870" lon="-4.6576820">
        <ele>293.8</ele>
        <time>2021-12-29T12:39:13Z</time>
      </trkpt>
      <trkpt lat="37.4043650" lon="-4.6577340">
        <ele>293.8</ele>
        <time>2021-12-29T12:39:14Z</time>
      </trkpt>
      <trkpt lat="37.4043420" lon="-4.6577850">
        <ele>293.8</ele>
        <time>2021-12-29T12:39:15Z</time>
      </trkpt>
      <trkpt lat="37.4043170" lon="-4.6578350">
        <ele>293.8</ele>
        <time>2021-12-29T12:39:16Z</time>
      </trkpt>
      <trkpt lat="37.4042880" lon="-4.6578860">
        <ele>293.8</ele>
        <time>2021-12-29T12:39:17Z</time>
      </trkpt>
      <trkpt lat="37.4042660" lon="-4.6579360">
        <ele>293.8</ele>
        <time>2021-12-29T12:39:18Z</time>
      </trkpt>
      <trkpt lat="37.4042400" lon="-4.6579880">
        <ele>293.8</ele>
        <time>2021-12-29T12:39:19Z</time>
      </trkpt>
      <trkpt lat="37.4042180" lon="-4.6580420">
        <ele>293.8</ele>
        <time>2021-12-29T12:39:20Z</time>
      </trkpt>
      <trkpt lat="37.4041890" lon="-4.6580940">
        <ele>293.8</ele>
        <time>2021-12-29T12:39:21Z</time>
      </trkpt>
      <trkpt lat="37.4041630" lon="-4.6581450">
        <ele>293.8</ele>
        <time>2021-12-29T12:39:22Z</time>
      </trkpt>
      <trkpt lat="37.4041410" lon="-4.6581980">
        <ele>293.8</ele>
        <time>2021-12-29T12:39:23Z</time>
      </trkpt>
      <trkpt lat="37.4041180" lon="-4.6582530">
        <ele>293.8</ele>
        <time>2021-12-29T12:39:24Z</time>
      </trkpt>
      <trkpt lat="37.4040990" lon="-4.6583120">
        <ele>293.8</ele>
        <time>2021-12-29T12:39:25Z</time>
      </trkpt>
      <trkpt lat="37.4040800" lon="-4.6583700">
        <ele>293.8</ele>
        <time>2021-12-29T12:39:26Z</time>
      </trkpt>
      <trkpt lat="37.4040580" lon="-4.6584250">
        <ele>293.8</ele>
        <time>2021-12-29T12:39:27Z</time>
      </trkpt>
      <trkpt lat="37.4040420" lon="-4.6584800">
        <ele>293.8</ele>
        <time>2021-12-29T12:39:28Z</time>
      </trkpt>
      <trkpt lat="37.4040220" lon="-4.6585350">
        <ele>293.8</ele>
        <time>2021-12-29T12:39:29Z</time>
      </trkpt>
      <trkpt lat="37.4040030" lon="-4.6585900">
        <ele>293.8</ele>
        <time>2021-12-29T12:39:30Z</time>
      </trkpt>
      <trkpt lat="37.4039840" lon="-4.6586400">
        <ele>293.8</ele>
        <time>2021-12-29T12:39:31Z</time>
      </trkpt>
      <trkpt lat="37.4039650" lon="-4.6586950">
        <ele>293.8</ele>
        <time>2021-12-29T12:39:32Z</time>
      </trkpt>
      <trkpt lat="37.4039460" lon="-4.6587480">
        <ele>293.8</ele>
        <time>2021-12-29T12:39:33Z</time>
      </trkpt>
      <trkpt lat="37.4039260" lon="-4.6588020">
        <ele>293.6</ele>
        <time>2021-12-29T12:39:34Z</time>
      </trkpt>
      <trkpt lat="37.4039100" lon="-4.6588570">
        <ele>293.6</ele>
        <time>2021-12-29T12:39:35Z</time>
      </trkpt>
      <trkpt lat="37.4038980" lon="-4.6589080">
        <ele>293.6</ele>
        <time>2021-12-29T12:39:36Z</time>
      </trkpt>
      <trkpt lat="37.4038820" lon="-4.6589650">
        <ele>293.6</ele>
        <time>2021-12-29T12:39:37Z</time>
      </trkpt>
      <trkpt lat="37.4038690" lon="-4.6590220">
        <ele>293.6</ele>
        <time>2021-12-29T12:39:38Z</time>
      </trkpt>
      <trkpt lat="37.4038530" lon="-4.6590780">
        <ele>293.6</ele>
        <time>2021-12-29T12:39:39Z</time>
      </trkpt>
      <trkpt lat="37.4038430" lon="-4.6591350">
        <ele>293.8</ele>
        <time>2021-12-29T12:39:40Z</time>
      </trkpt>
      <trkpt lat="37.4038300" lon="-4.6591900">
        <ele>293.8</ele>
        <time>2021-12-29T12:39:41Z</time>
      </trkpt>
      <trkpt lat="37.4038210" lon="-4.6592520">
        <ele>293.8</ele>
        <time>2021-12-29T12:39:42Z</time>
      </trkpt>
      <trkpt lat="37.4038080" lon="-4.6593150">
        <ele>293.8</ele>
        <time>2021-12-29T12:39:43Z</time>
      </trkpt>
      <trkpt lat="37.4037980" lon="-4.6593750">
        <ele>293.8</ele>
        <time>2021-12-29T12:39:44Z</time>
      </trkpt>
      <trkpt lat="37.4037890" lon="-4.6594320">
        <ele>293.6</ele>
        <time>2021-12-29T12:39:45Z</time>
      </trkpt>
      <trkpt lat="37.4037790" lon="-4.6594900">
        <ele>293.6</ele>
        <time>2021-12-29T12:39:46Z</time>
      </trkpt>
      <trkpt lat="37.4037660" lon="-4.6595500">
        <ele>293.6</ele>
        <time>2021-12-29T12:39:47Z</time>
      </trkpt>
      <trkpt lat="37.4037540" lon="-4.6596100">
        <ele>293.4</ele>
        <time>2021-12-29T12:39:48Z</time>
      </trkpt>
      <trkpt lat="37.4037440" lon="-4.6596680">
        <ele>293.4</ele>
        <time>2021-12-29T12:39:49Z</time>
      </trkpt>
      <trkpt lat="37.4037310" lon="-4.6597300">
        <ele>293.2</ele>
        <time>2021-12-29T12:39:50Z</time>
      </trkpt>
      <trkpt lat="37.4037250" lon="-4.6597920">
        <ele>293.2</ele>
        <time>2021-12-29T12:39:51Z</time>
      </trkpt>
      <trkpt lat="37.4037120" lon="-4.6598550">
        <ele>293.2</ele>
        <time>2021-12-29T12:39:52Z</time>
      </trkpt>
      <trkpt lat="37.4037060" lon="-4.6599180">
        <ele>293.2</ele>
        <time>2021-12-29T12:39:53Z</time>
      </trkpt>
      <trkpt lat="37.4036990" lon="-4.6599830">
        <ele>293.2</ele>
        <time>2021-12-29T12:39:54Z</time>
      </trkpt>
      <trkpt lat="37.4036900" lon="-4.6600460">
        <ele>293.0</ele>
        <time>2021-12-29T12:39:55Z</time>
      </trkpt>
      <trkpt lat="37.4036830" lon="-4.6601080">
        <ele>293.0</ele>
        <time>2021-12-29T12:39:56Z</time>
      </trkpt>
      <trkpt lat="37.4036800" lon="-4.6601750">
        <ele>293.0</ele>
        <time>2021-12-29T12:39:57Z</time>
      </trkpt>
      <trkpt lat="37.4036740" lon="-4.6602420">
        <ele>292.8</ele>
        <time>2021-12-29T12:39:58Z</time>
      </trkpt>
      <trkpt lat="37.4036700" lon="-4.6603070">
        <ele>292.8</ele>
        <time>2021-12-29T12:39:59Z</time>
      </trkpt>
      <trkpt lat="37.4036660" lon="-4.6604220">
        <ele>292.8</ele>
        <time>2021-12-29T12:40:00Z</time>
      </trkpt>
      <trkpt lat="37.4036660" lon="-4.6604540">
        <ele>292.8</ele>
        <time>2021-12-29T12:40:01Z</time>
      </trkpt>
      <trkpt lat="37.4036640" lon="-4.6605180">
        <ele>292.6</ele>
        <time>2021-12-29T12:40:02Z</time>
      </trkpt>
      <trkpt lat="37.4036610" lon="-4.6605880">
        <ele>292.6</ele>
        <time>2021-12-29T12:40:03Z</time>
      </trkpt>
      <trkpt lat="37.4036610" lon="-4.6606730">
        <ele>292.4</ele>
        <time>2021-12-29T12:40:04Z</time>
      </trkpt>
      <trkpt lat="37.4036610" lon="-4.6607300">
        <ele>292.4</ele>
        <time>2021-12-29T12:40:05Z</time>
      </trkpt>
      <trkpt lat="37.4036610" lon="-4.6608020">
        <ele>292.4</ele>
        <time>2021-12-29T12:40:06Z</time>
      </trkpt>
      <trkpt lat="37.4036610" lon="-4.6608700">
        <ele>292.2</ele>
        <time>2021-12-29T12:40:07Z</time>
      </trkpt>
      <trkpt lat="37.4036640" lon="-4.6609440">
        <ele>292.2</ele>
        <time>2021-12-29T12:40:08Z</time>
      </trkpt>
      <trkpt lat="37.4036640" lon="-4.6610160">
        <ele>292.2</ele>
        <time>2021-12-29T12:40:09Z</time>
      </trkpt>
      <trkpt lat="37.4036670" lon="-4.6610880">
        <ele>292.0</ele>
        <time>2021-12-29T12:40:10Z</time>
      </trkpt>
      <trkpt lat="37.4036700" lon="-4.6611580">
        <ele>292.0</ele>
        <time>2021-12-29T12:40:11Z</time>
      </trkpt>
      <trkpt lat="37.4036740" lon="-4.6612240">
        <ele>292.0</ele>
        <time>2021-12-29T12:40:12Z</time>
      </trkpt>
      <trkpt lat="37.4036830" lon="-4.6612900">
        <ele>291.8</ele>
        <time>2021-12-29T12:40:13Z</time>
      </trkpt>
      <trkpt lat="37.4036860" lon="-4.6613550">
        <ele>291.8</ele>
        <time>2021-12-29T12:40:14Z</time>
      </trkpt>
      <trkpt lat="37.4036930" lon="-4.6614220">
        <ele>291.8</ele>
        <time>2021-12-29T12:40:15Z</time>
      </trkpt>
      <trkpt lat="37.4037020" lon="-4.6614980">
        <ele>291.8</ele>
        <time>2021-12-29T12:40:16Z</time>
      </trkpt>
      <trkpt lat="37.4037090" lon="-4.6615480">
        <ele>291.6</ele>
        <time>2021-12-29T12:40:17Z</time>
      </trkpt>
      <trkpt lat="37.4037180" lon="-4.6616080">
        <ele>291.6</ele>
        <time>2021-12-29T12:40:18Z</time>
      </trkpt>
      <trkpt lat="37.4037280" lon="-4.6616670">
        <ele>291.6</ele>
        <time>2021-12-29T12:40:19Z</time>
      </trkpt>
      <trkpt lat="37.4037380" lon="-4.6617250">
        <ele>291.4</ele>
        <time>2021-12-29T12:40:20Z</time>
      </trkpt>
      <trkpt lat="37.4037440" lon="-4.6617830">
        <ele>291.2</ele>
        <time>2021-12-29T12:40:21Z</time>
      </trkpt>
      <trkpt lat="37.4037540" lon="-4.6618430">
        <ele>291.2</ele>
        <time>2021-12-29T12:40:22Z</time>
      </trkpt>
      <trkpt lat="37.4037630" lon="-4.6619030">
        <ele>291.2</ele>
        <time>2021-12-29T12:40:23Z</time>
      </trkpt>
      <trkpt lat="37.4037730" lon="-4.6619580">
        <ele>291.0</ele>
        <time>2021-12-29T12:40:24Z</time>
      </trkpt>
      <trkpt lat="37.4037820" lon="-4.6620140">
        <ele>290.8</ele>
        <time>2021-12-29T12:40:25Z</time>
      </trkpt>
      <trkpt lat="37.4037920" lon="-4.6620700">
        <ele>290.8</ele>
        <time>2021-12-29T12:40:26Z</time>
      </trkpt>
      <trkpt lat="37.4038020" lon="-4.6621220">
        <ele>290.6</ele>
        <time>2021-12-29T12:40:27Z</time>
      </trkpt>
      <trkpt lat="37.4038080" lon="-4.6621750">
        <ele>290.6</ele>
        <time>2021-12-29T12:40:28Z</time>
      </trkpt>
      <trkpt lat="37.4038210" lon="-4.6622300">
        <ele>290.4</ele>
        <time>2021-12-29T12:40:29Z</time>
      </trkpt>
      <trkpt lat="37.4038300" lon="-4.6622850">
        <ele>290.4</ele>
        <time>2021-12-29T12:40:30Z</time>
      </trkpt>
      <trkpt lat="37.4038460" lon="-4.6623370">
        <ele>290.2</ele>
        <time>2021-12-29T12:40:31Z</time>
      </trkpt>
      <trkpt lat="37.4038590" lon="-4.6623900">
        <ele>290.2</ele>
        <time>2021-12-29T12:40:32Z</time>
      </trkpt>
      <trkpt lat="37.4038690" lon="-4.6624460">
        <ele>290.0</ele>
        <time>2021-12-29T12:40:33Z</time>
      </trkpt>
      <trkpt lat="37.4038780" lon="-4.6625050">
        <ele>289.8</ele>
        <time>2021-12-29T12:40:34Z</time>
      </trkpt>
      <trkpt lat="37.4038880" lon="-4.6625630">
        <ele>289.8</ele>
        <time>2021-12-29T12:40:35Z</time>
      </trkpt>
      <trkpt lat="37.4039010" lon="-4.6626200">
        <ele>289.8</ele>
        <time>2021-12-29T12:40:36Z</time>
      </trkpt>
      <trkpt lat="37.4039100" lon="-4.6626780">
        <ele>289.6</ele>
        <time>2021-12-29T12:40:37Z</time>
      </trkpt>
      <trkpt lat="37.4039230" lon="-4.6627380">
        <ele>289.6</ele>
        <time>2021-12-29T12:40:38Z</time>
      </trkpt>
      <trkpt lat="37.4039300" lon="-4.6628000">
        <ele>289.4</ele>
        <time>2021-12-29T12:40:39Z</time>
      </trkpt>
      <trkpt lat="37.4039390" lon="-4.6628630">
        <ele>289.2</ele>
        <time>2021-12-29T12:40:40Z</time>
      </trkpt>
      <trkpt lat="37.4039490" lon="-4.6629250">
        <ele>289.2</ele>
        <time>2021-12-29T12:40:41Z</time>
      </trkpt>
      <trkpt lat="37.4039620" lon="-4.6629840">
        <ele>289.0</ele>
        <time>2021-12-29T12:40:42Z</time>
      </trkpt>
      <trkpt lat="37.4039710" lon="-4.6630440">
        <ele>288.8</ele>
        <time>2021-12-29T12:40:43Z</time>
      </trkpt>
      <trkpt lat="37.4039840" lon="-4.6631160">
        <ele>288.8</ele>
        <time>2021-12-29T12:40:44Z</time>
      </trkpt>
      <trkpt lat="37.4039900" lon="-4.6631650">
        <ele>288.6</ele>
        <time>2021-12-29T12:40:45Z</time>
      </trkpt>
      <trkpt lat="37.4040030" lon="-4.6632230">
        <ele>288.4</ele>
        <time>2021-12-29T12:40:46Z</time>
      </trkpt>
      <trkpt lat="37.4040100" lon="-4.6632850">
        <ele>288.4</ele>
        <time>2021-12-29T12:40:47Z</time>
      </trkpt>
      <trkpt lat="37.4040220" lon="-4.6633440">
        <ele>288.2</ele>
        <time>2021-12-29T12:40:48Z</time>
      </trkpt>
      <trkpt lat="37.4040350" lon="-4.6634020">
        <ele>288.0</ele>
        <time>2021-12-29T12:40:49Z</time>
      </trkpt>
      <trkpt lat="37.4040450" lon="-4.6634600">
        <ele>288.0</ele>
        <time>2021-12-29T12:40:50Z</time>
      </trkpt>
      <trkpt lat="37.4040510" lon="-4.6635180">
        <ele>287.8</ele>
        <time>2021-12-29T12:40:51Z</time>
      </trkpt>
      <trkpt lat="37.4040640" lon="-4.6635750">
        <ele>287.8</ele>
        <time>2021-12-29T12:40:52Z</time>
      </trkpt>
      <trkpt lat="37.4040770" lon="-4.6636280">
        <ele>287.8</ele>
        <time>2021-12-29T12:40:53Z</time>
      </trkpt>
      <trkpt lat="37.4040830" lon="-4.6636820">
        <ele>287.8</ele>
        <time>2021-12-29T12:40:54Z</time>
      </trkpt>
      <trkpt lat="37.4040990" lon="-4.6637370">
        <ele>287.8</ele>
        <time>2021-12-29T12:40:55Z</time>
      </trkpt>
      <trkpt lat="37.4041090" lon="-4.6637920">
        <ele>287.8</ele>
        <time>2021-12-29T12:40:56Z</time>
      </trkpt>
      <trkpt lat="37.4041220" lon="-4.6638480">
        <ele>287.8</ele>
        <time>2021-12-29T12:40:57Z</time>
      </trkpt>
      <trkpt lat="37.4041340" lon="-4.6639080">
        <ele>287.8</ele>
        <time>2021-12-29T12:40:58Z</time>
      </trkpt>
      <trkpt lat="37.4041380" lon="-4.6639670">
        <ele>287.8</ele>
        <time>2021-12-29T12:40:59Z</time>
      </trkpt>
      <trkpt lat="37.4041470" lon="-4.6640250">
        <ele>287.8</ele>
        <time>2021-12-29T12:41:00Z</time>
      </trkpt>
      <trkpt lat="37.4041600" lon="-4.6640850">
        <ele>287.8</ele>
        <time>2021-12-29T12:41:01Z</time>
      </trkpt>
      <trkpt lat="37.4041700" lon="-4.6641440">
        <ele>287.6</ele>
        <time>2021-12-29T12:41:02Z</time>
      </trkpt>
      <trkpt lat="37.4041820" lon="-4.6642000">
        <ele>287.6</ele>
        <time>2021-12-29T12:41:03Z</time>
      </trkpt>
      <trkpt lat="37.4041950" lon="-4.6642580">
        <ele>287.4</ele>
        <time>2021-12-29T12:41:04Z</time>
      </trkpt>
      <trkpt lat="37.4042050" lon="-4.6643150">
        <ele>287.4</ele>
        <time>2021-12-29T12:41:05Z</time>
      </trkpt>
      <trkpt lat="37.4042180" lon="-4.6643720">
        <ele>287.4</ele>
        <time>2021-12-29T12:41:06Z</time>
      </trkpt>
      <trkpt lat="37.4042210" lon="-4.6644280">
        <ele>287.2</ele>
        <time>2021-12-29T12:41:07Z</time>
      </trkpt>
      <trkpt lat="37.4042340" lon="-4.6644820">
        <ele>287.2</ele>
        <time>2021-12-29T12:41:08Z</time>
      </trkpt>
      <trkpt lat="37.4042430" lon="-4.6645380">
        <ele>287.2</ele>
        <time>2021-12-29T12:41:09Z</time>
      </trkpt>
      <trkpt lat="37.4042500" lon="-4.6645960">
        <ele>287.0</ele>
        <time>2021-12-29T12:41:10Z</time>
      </trkpt>
      <trkpt lat="37.4042590" lon="-4.6646570">
        <ele>287.0</ele>
        <time>2021-12-29T12:41:11Z</time>
      </trkpt>
      <trkpt lat="37.4042690" lon="-4.6647180">
        <ele>287.0</ele>
        <time>2021-12-29T12:41:12Z</time>
      </trkpt>
      <trkpt lat="37.4042750" lon="-4.6647780">
        <ele>287.0</ele>
        <time>2021-12-29T12:41:13Z</time>
      </trkpt>
      <trkpt lat="37.4042820" lon="-4.6648370">
        <ele>287.0</ele>
        <time>2021-12-29T12:41:14Z</time>
      </trkpt>
      <trkpt lat="37.4042940" lon="-4.6648960">
        <ele>286.8</ele>
        <time>2021-12-29T12:41:15Z</time>
      </trkpt>
      <trkpt lat="37.4043040" lon="-4.6649580">
        <ele>286.6</ele>
        <time>2021-12-29T12:41:16Z</time>
      </trkpt>
      <trkpt lat="37.4043170" lon="-4.6650200">
        <ele>286.6</ele>
        <time>2021-12-29T12:41:17Z</time>
      </trkpt>
      <trkpt lat="37.4043260" lon="-4.6650820">
        <ele>286.4</ele>
        <time>2021-12-29T12:41:18Z</time>
      </trkpt>
      <trkpt lat="37.4043390" lon="-4.6651450">
        <ele>286.4</ele>
        <time>2021-12-29T12:41:19Z</time>
      </trkpt>
      <trkpt lat="37.4043460" lon="-4.6652080">
        <ele>286.2</ele>
        <time>2021-12-29T12:41:20Z</time>
      </trkpt>
      <trkpt lat="37.4043580" lon="-4.6652720">
        <ele>286.2</ele>
        <time>2021-12-29T12:41:21Z</time>
      </trkpt>
      <trkpt lat="37.4043680" lon="-4.6653320">
        <ele>286.0</ele>
        <time>2021-12-29T12:41:22Z</time>
      </trkpt>
      <trkpt lat="37.4043810" lon="-4.6653950">
        <ele>285.8</ele>
        <time>2021-12-29T12:41:23Z</time>
      </trkpt>
      <trkpt lat="37.4043940" lon="-4.6654620">
        <ele>285.8</ele>
        <time>2021-12-29T12:41:24Z</time>
      </trkpt>
      <trkpt lat="37.4044030" lon="-4.6655270">
        <ele>285.6</ele>
        <time>2021-12-29T12:41:25Z</time>
      </trkpt>
      <trkpt lat="37.4044160" lon="-4.6655880">
        <ele>285.4</ele>
        <time>2021-12-29T12:41:26Z</time>
      </trkpt>
      <trkpt lat="37.4044290" lon="-4.6656520">
        <ele>285.4</ele>
        <time>2021-12-29T12:41:27Z</time>
      </trkpt>
      <trkpt lat="37.4044420" lon="-4.6657170">
        <ele>285.2</ele>
        <time>2021-12-29T12:41:28Z</time>
      </trkpt>
      <trkpt lat="37.4044540" lon="-4.6657800">
        <ele>285.2</ele>
        <time>2021-12-29T12:41:29Z</time>
      </trkpt>
      <trkpt lat="37.4044640" lon="-4.6658450">
        <ele>285.2</ele>
        <time>2021-12-29T12:41:30Z</time>
      </trkpt>
      <trkpt lat="37.4044740" lon="-4.6659120">
        <ele>285.2</ele>
        <time>2021-12-29T12:41:31Z</time>
      </trkpt>
      <trkpt lat="37.4044830" lon="-4.6659930">
        <ele>285.2</ele>
        <time>2021-12-29T12:41:32Z</time>
      </trkpt>
      <trkpt lat="37.4044930" lon="-4.6660480">
        <ele>285.2</ele>
        <time>2021-12-29T12:41:33Z</time>
      </trkpt>
      <trkpt lat="37.4044990" lon="-4.6661180">
        <ele>285.2</ele>
        <time>2021-12-29T12:41:34Z</time>
      </trkpt>
      <trkpt lat="37.4045060" lon="-4.6661840">
        <ele>285.2</ele>
        <time>2021-12-29T12:41:35Z</time>
      </trkpt>
      <trkpt lat="37.4045180" lon="-4.6662480">
        <ele>285.2</ele>
        <time>2021-12-29T12:41:36Z</time>
      </trkpt>
      <trkpt lat="37.4045340" lon="-4.6663150">
        <ele>285.0</ele>
        <time>2021-12-29T12:41:37Z</time>
      </trkpt>
      <trkpt lat="37.4045470" lon="-4.6663800">
        <ele>285.0</ele>
        <time>2021-12-29T12:41:38Z</time>
      </trkpt>
      <trkpt lat="37.4045630" lon="-4.6664450">
        <ele>285.0</ele>
        <time>2021-12-29T12:41:39Z</time>
      </trkpt>
      <trkpt lat="37.4045760" lon="-4.6665140">
        <ele>284.8</ele>
        <time>2021-12-29T12:41:40Z</time>
      </trkpt>
      <trkpt lat="37.4045860" lon="-4.6665800">
        <ele>284.6</ele>
        <time>2021-12-29T12:41:41Z</time>
      </trkpt>
      <trkpt lat="37.4045980" lon="-4.6666450">
        <ele>284.6</ele>
        <time>2021-12-29T12:41:42Z</time>
      </trkpt>
      <trkpt lat="37.4046110" lon="-4.6667080">
        <ele>284.4</ele>
        <time>2021-12-29T12:41:43Z</time>
      </trkpt>
      <trkpt lat="37.4046240" lon="-4.6667720">
        <ele>284.2</ele>
        <time>2021-12-29T12:41:44Z</time>
      </trkpt>
      <trkpt lat="37.4046400" lon="-4.6668350">
        <ele>284.2</ele>
        <time>2021-12-29T12:41:45Z</time>
      </trkpt>
      <trkpt lat="37.4046460" lon="-4.6668950">
        <ele>284.0</ele>
        <time>2021-12-29T12:41:46Z</time>
      </trkpt>
      <trkpt lat="37.4046590" lon="-4.6669570">
        <ele>283.8</ele>
        <time>2021-12-29T12:41:47Z</time>
      </trkpt>
      <trkpt lat="37.4046720" lon="-4.6670220">
        <ele>283.6</ele>
        <time>2021-12-29T12:41:48Z</time>
      </trkpt>
      <trkpt lat="37.4046820" lon="-4.6670870">
        <ele>283.4</ele>
        <time>2021-12-29T12:41:49Z</time>
      </trkpt>
      <trkpt lat="37.4046940" lon="-4.6671550">
        <ele>283.4</ele>
        <time>2021-12-29T12:41:50Z</time>
      </trkpt>
      <trkpt lat="37.4047040" lon="-4.6672240">
        <ele>283.2</ele>
        <time>2021-12-29T12:41:51Z</time>
      </trkpt>
      <trkpt lat="37.4047170" lon="-4.6672920">
        <ele>283.0</ele>
        <time>2021-12-29T12:41:52Z</time>
      </trkpt>
      <trkpt lat="37.4047260" lon="-4.6673580">
        <ele>283.0</ele>
        <time>2021-12-29T12:41:53Z</time>
      </trkpt>
      <trkpt lat="37.4047390" lon="-4.6674260">
        <ele>282.8</ele>
        <time>2021-12-29T12:41:54Z</time>
      </trkpt>
      <trkpt lat="37.4047460" lon="-4.6674950">
        <ele>282.8</ele>
        <time>2021-12-29T12:41:55Z</time>
      </trkpt>
      <trkpt lat="37.4047580" lon="-4.6675650">
        <ele>282.6</ele>
        <time>2021-12-29T12:41:56Z</time>
      </trkpt>
      <trkpt lat="37.4047650" lon="-4.6676320">
        <ele>282.4</ele>
        <time>2021-12-29T12:41:57Z</time>
      </trkpt>
      <trkpt lat="37.4047740" lon="-4.6676980">
        <ele>282.4</ele>
        <time>2021-12-29T12:41:58Z</time>
      </trkpt>
      <trkpt lat="37.4047810" lon="-4.6677650">
        <ele>282.4</ele>
        <time>2021-12-29T12:41:59Z</time>
      </trkpt>
      <trkpt lat="37.4047900" lon="-4.6678320">
        <ele>282.4</ele>
        <time>2021-12-29T12:42:00Z</time>
      </trkpt>
      <trkpt lat="37.4047970" lon="-4.6678970">
        <ele>282.2</ele>
        <time>2021-12-29T12:42:01Z</time>
      </trkpt>
      <trkpt lat="37.4048000" lon="-4.6679640">
        <ele>282.2</ele>
        <time>2021-12-29T12:42:02Z</time>
      </trkpt>
      <trkpt lat="37.4048130" lon="-4.6680420">
        <ele>282.0</ele>
        <time>2021-12-29T12:42:03Z</time>
      </trkpt>
      <trkpt lat="37.4048130" lon="-4.6680960">
        <ele>281.8</ele>
        <time>2021-12-29T12:42:04Z</time>
      </trkpt>
      <trkpt lat="37.4048190" lon="-4.6681680">
        <ele>281.8</ele>
        <time>2021-12-29T12:42:05Z</time>
      </trkpt>
      <trkpt lat="37.4048220" lon="-4.6682350">
        <ele>281.6</ele>
        <time>2021-12-29T12:42:06Z</time>
      </trkpt>
      <trkpt lat="37.4048260" lon="-4.6683000">
        <ele>281.4</ele>
        <time>2021-12-29T12:42:07Z</time>
      </trkpt>
      <trkpt lat="37.4048380" lon="-4.6683800">
        <ele>281.2</ele>
        <time>2021-12-29T12:42:08Z</time>
      </trkpt>
      <trkpt lat="37.4048380" lon="-4.6684320">
        <ele>281.2</ele>
        <time>2021-12-29T12:42:09Z</time>
      </trkpt>
      <trkpt lat="37.4048450" lon="-4.6684950">
        <ele>281.0</ele>
        <time>2021-12-29T12:42:10Z</time>
      </trkpt>
      <trkpt lat="37.4048510" lon="-4.6685580">
        <ele>281.0</ele>
        <time>2021-12-29T12:42:11Z</time>
      </trkpt>
      <trkpt lat="37.4048510" lon="-4.6686180">
        <ele>280.8</ele>
        <time>2021-12-29T12:42:12Z</time>
      </trkpt>
      <trkpt lat="37.4048540" lon="-4.6686820">
        <ele>280.8</ele>
        <time>2021-12-29T12:42:13Z</time>
      </trkpt>
      <trkpt lat="37.4048580" lon="-4.6687450">
        <ele>280.6</ele>
        <time>2021-12-29T12:42:14Z</time>
      </trkpt>
      <trkpt lat="37.4048610" lon="-4.6688100">
        <ele>280.6</ele>
        <time>2021-12-29T12:42:15Z</time>
      </trkpt>
      <trkpt lat="37.4048610" lon="-4.6688730">
        <ele>280.4</ele>
        <time>2021-12-29T12:42:16Z</time>
      </trkpt>
      <trkpt lat="37.4048640" lon="-4.6689400">
        <ele>280.4</ele>
        <time>2021-12-29T12:42:17Z</time>
      </trkpt>
      <trkpt lat="37.4048700" lon="-4.6690070">
        <ele>280.2</ele>
        <time>2021-12-29T12:42:18Z</time>
      </trkpt>
      <trkpt lat="37.4048740" lon="-4.6690750">
        <ele>280.0</ele>
        <time>2021-12-29T12:42:19Z</time>
      </trkpt>
      <trkpt lat="37.4048740" lon="-4.6691420">
        <ele>279.8</ele>
        <time>2021-12-29T12:42:20Z</time>
      </trkpt>
      <trkpt lat="37.4048740" lon="-4.6692070">
        <ele>279.8</ele>
        <time>2021-12-29T12:42:21Z</time>
      </trkpt>
      <trkpt lat="37.4048740" lon="-4.6692700">
        <ele>279.6</ele>
        <time>2021-12-29T12:42:22Z</time>
      </trkpt>
      <trkpt lat="37.4048770" lon="-4.6693350">
        <ele>279.6</ele>
        <time>2021-12-29T12:42:23Z</time>
      </trkpt>
      <trkpt lat="37.4048770" lon="-4.6694000">
        <ele>279.6</ele>
        <time>2021-12-29T12:42:24Z</time>
      </trkpt>
      <trkpt lat="37.4048770" lon="-4.6694630">
        <ele>279.4</ele>
        <time>2021-12-29T12:42:25Z</time>
      </trkpt>
      <trkpt lat="37.4048740" lon="-4.6695260">
        <ele>279.4</ele>
        <time>2021-12-29T12:42:26Z</time>
      </trkpt>
      <trkpt lat="37.4048740" lon="-4.6695870">
        <ele>279.2</ele>
        <time>2021-12-29T12:42:27Z</time>
      </trkpt>
      <trkpt lat="37.4048740" lon="-4.6696400">
        <ele>279.2</ele>
        <time>2021-12-29T12:42:28Z</time>
      </trkpt>
      <trkpt lat="37.4048740" lon="-4.6696970">
        <ele>279.2</ele>
        <time>2021-12-29T12:42:29Z</time>
      </trkpt>
      <trkpt lat="37.4048700" lon="-4.6697550">
        <ele>279.0</ele>
        <time>2021-12-29T12:42:30Z</time>
      </trkpt>
      <trkpt lat="37.4048700" lon="-4.6698150">
        <ele>279.0</ele>
        <time>2021-12-29T12:42:31Z</time>
      </trkpt>
      <trkpt lat="37.4048640" lon="-4.6698720">
        <ele>279.0</ele>
        <time>2021-12-29T12:42:32Z</time>
      </trkpt>
      <trkpt lat="37.4048640" lon="-4.6699330">
        <ele>279.0</ele>
        <time>2021-12-29T12:42:33Z</time>
      </trkpt>
      <trkpt lat="37.4048610" lon="-4.6699970">
        <ele>278.8</ele>
        <time>2021-12-29T12:42:34Z</time>
      </trkpt>
      <trkpt lat="37.4048580" lon="-4.6700600">
        <ele>278.8</ele>
        <time>2021-12-29T12:42:35Z</time>
      </trkpt>
      <trkpt lat="37.4048540" lon="-4.6701200">
        <ele>278.6</ele>
        <time>2021-12-29T12:42:36Z</time>
      </trkpt>
      <trkpt lat="37.4048510" lon="-4.6701820">
        <ele>278.6</ele>
        <time>2021-12-29T12:42:37Z</time>
      </trkpt>
      <trkpt lat="37.4048420" lon="-4.6702430">
        <ele>278.4</ele>
        <time>2021-12-29T12:42:38Z</time>
      </trkpt>
      <trkpt lat="37.4048380" lon="-4.6703070">
        <ele>278.4</ele>
        <time>2021-12-29T12:42:39Z</time>
      </trkpt>
      <trkpt lat="37.4048350" lon="-4.6703700">
        <ele>278.4</ele>
        <time>2021-12-29T12:42:40Z</time>
      </trkpt>
      <trkpt lat="37.4048320" lon="-4.6704340">
        <ele>278.4</ele>
        <time>2021-12-29T12:42:41Z</time>
      </trkpt>
      <trkpt lat="37.4048220" lon="-4.6704960">
        <ele>278.4</ele>
        <time>2021-12-29T12:42:42Z</time>
      </trkpt>
      <trkpt lat="37.4048190" lon="-4.6705630">
        <ele>278.2</ele>
        <time>2021-12-29T12:42:43Z</time>
      </trkpt>
      <trkpt lat="37.4048130" lon="-4.6706300">
        <ele>278.4</ele>
        <time>2021-12-29T12:42:44Z</time>
      </trkpt>
      <trkpt lat="37.4048030" lon="-4.6706950">
        <ele>278.4</ele>
        <time>2021-12-29T12:42:45Z</time>
      </trkpt>
      <trkpt lat="37.4047970" lon="-4.6707640">
        <ele>278.4</ele>
        <time>2021-12-29T12:42:46Z</time>
      </trkpt>
      <trkpt lat="37.4047900" lon="-4.6708460">
        <ele>278.4</ele>
        <time>2021-12-29T12:42:47Z</time>
      </trkpt>
      <trkpt lat="37.4047840" lon="-4.6709020">
        <ele>278.2</ele>
        <time>2021-12-29T12:42:48Z</time>
      </trkpt>
      <trkpt lat="37.4047740" lon="-4.6709680">
        <ele>278.2</ele>
        <time>2021-12-29T12:42:49Z</time>
      </trkpt>
      <trkpt lat="37.4047710" lon="-4.6710330">
        <ele>278.2</ele>
        <time>2021-12-29T12:42:50Z</time>
      </trkpt>
      <trkpt lat="37.4047620" lon="-4.6711000">
        <ele>278.2</ele>
        <time>2021-12-29T12:42:51Z</time>
      </trkpt>
      <trkpt lat="37.4047580" lon="-4.6711640">
        <ele>278.0</ele>
        <time>2021-12-29T12:42:52Z</time>
      </trkpt>
      <trkpt lat="37.4047460" lon="-4.6712260">
        <ele>278.0</ele>
        <time>2021-12-29T12:42:53Z</time>
      </trkpt>
      <trkpt lat="37.4047390" lon="-4.6712850">
        <ele>278.0</ele>
        <time>2021-12-29T12:42:54Z</time>
      </trkpt>
      <trkpt lat="37.4047330" lon="-4.6713430">
        <ele>277.8</ele>
        <time>2021-12-29T12:42:55Z</time>
      </trkpt>
      <trkpt lat="37.4047260" lon="-4.6714040">
        <ele>277.6</ele>
        <time>2021-12-29T12:42:56Z</time>
      </trkpt>
      <trkpt lat="37.4047170" lon="-4.6714580">
        <ele>277.6</ele>
        <time>2021-12-29T12:42:57Z</time>
      </trkpt>
      <trkpt lat="37.4047040" lon="-4.6715120">
        <ele>277.4</ele>
        <time>2021-12-29T12:42:58Z</time>
      </trkpt>
      <trkpt lat="37.4046980" lon="-4.6715630">
        <ele>277.4</ele>
        <time>2021-12-29T12:42:59Z</time>
      </trkpt>
      <trkpt lat="37.4046910" lon="-4.6716160">
        <ele>277.2</ele>
        <time>2021-12-29T12:43:00Z</time>
      </trkpt>
      <trkpt lat="37.4046850" lon="-4.6716720">
        <ele>277.2</ele>
        <time>2021-12-29T12:43:01Z</time>
      </trkpt>
      <trkpt lat="37.4046780" lon="-4.6717250">
        <ele>277.0</ele>
        <time>2021-12-29T12:43:02Z</time>
      </trkpt>
      <trkpt lat="37.4046660" lon="-4.6717770">
        <ele>277.0</ele>
        <time>2021-12-29T12:43:03Z</time>
      </trkpt>
      <trkpt lat="37.4046560" lon="-4.6718280">
        <ele>276.8</ele>
        <time>2021-12-29T12:43:04Z</time>
      </trkpt>
      <trkpt lat="37.4046430" lon="-4.6718820">
        <ele>276.8</ele>
        <time>2021-12-29T12:43:05Z</time>
      </trkpt>
      <trkpt lat="37.4046340" lon="-4.6719360">
        <ele>276.6</ele>
        <time>2021-12-29T12:43:06Z</time>
      </trkpt>
      <trkpt lat="37.4046210" lon="-4.6719930">
        <ele>276.6</ele>
        <time>2021-12-29T12:43:07Z</time>
      </trkpt>
      <trkpt lat="37.4046140" lon="-4.6720500">
        <ele>276.6</ele>
        <time>2021-12-29T12:43:08Z</time>
      </trkpt>
      <trkpt lat="37.4046050" lon="-4.6721070">
        <ele>276.6</ele>
        <time>2021-12-29T12:43:09Z</time>
      </trkpt>
      <trkpt lat="37.4045980" lon="-4.6721640">
        <ele>276.6</ele>
        <time>2021-12-29T12:43:10Z</time>
      </trkpt>
      <trkpt lat="37.4045820" lon="-4.6722220">
        <ele>276.4</ele>
        <time>2021-12-29T12:43:11Z</time>
      </trkpt>
      <trkpt lat="37.4045730" lon="-4.6722800">
        <ele>276.4</ele>
        <time>2021-12-29T12:43:12Z</time>
      </trkpt>
      <trkpt lat="37.4045570" lon="-4.6723380">
        <ele>276.2</ele>
        <time>2021-12-29T12:43:13Z</time>
      </trkpt>
      <trkpt lat="37.4045440" lon="-4.6723950">
        <ele>276.2</ele>
        <time>2021-12-29T12:43:14Z</time>
      </trkpt>
      <trkpt lat="37.4045340" lon="-4.6724520">
        <ele>276.0</ele>
        <time>2021-12-29T12:43:15Z</time>
      </trkpt>
      <trkpt lat="37.4045180" lon="-4.6725100">
        <ele>276.0</ele>
        <time>2021-12-29T12:43:16Z</time>
      </trkpt>
      <trkpt lat="37.4045060" lon="-4.6725660">
        <ele>275.8</ele>
        <time>2021-12-29T12:43:17Z</time>
      </trkpt>
      <trkpt lat="37.4044960" lon="-4.6726230">
        <ele>275.8</ele>
        <time>2021-12-29T12:43:18Z</time>
      </trkpt>
      <trkpt lat="37.4044800" lon="-4.6726800">
        <ele>275.6</ele>
        <time>2021-12-29T12:43:19Z</time>
      </trkpt>
      <trkpt lat="37.4044670" lon="-4.6727370">
        <ele>275.6</ele>
        <time>2021-12-29T12:43:20Z</time>
      </trkpt>
      <trkpt lat="37.4044540" lon="-4.6727930">
        <ele>275.4</ele>
        <time>2021-12-29T12:43:21Z</time>
      </trkpt>
      <trkpt lat="37.4044420" lon="-4.6728470">
        <ele>275.4</ele>
        <time>2021-12-29T12:43:22Z</time>
      </trkpt>
      <trkpt lat="37.4044290" lon="-4.6729040">
        <ele>275.2</ele>
        <time>2021-12-29T12:43:23Z</time>
      </trkpt>
      <trkpt lat="37.4044160" lon="-4.6729600">
        <ele>275.0</ele>
        <time>2021-12-29T12:43:24Z</time>
      </trkpt>
      <trkpt lat="37.4044030" lon="-4.6730160">
        <ele>275.0</ele>
        <time>2021-12-29T12:43:25Z</time>
      </trkpt>
      <trkpt lat="37.4043870" lon="-4.6730750">
        <ele>274.8</ele>
        <time>2021-12-29T12:43:26Z</time>
      </trkpt>
      <trkpt lat="37.4043740" lon="-4.6731320">
        <ele>274.6</ele>
        <time>2021-12-29T12:43:27Z</time>
      </trkpt>
      <trkpt lat="37.4043580" lon="-4.6731920">
        <ele>274.6</ele>
        <time>2021-12-29T12:43:28Z</time>
      </trkpt>
      <trkpt lat="37.4043460" lon="-4.6732520">
        <ele>274.4</ele>
        <time>2021-12-29T12:43:29Z</time>
      </trkpt>
      <trkpt lat="37.4043330" lon="-4.6733120">
        <ele>274.4</ele>
        <time>2021-12-29T12:43:30Z</time>
      </trkpt>
      <trkpt lat="37.4043200" lon="-4.6733720">
        <ele>274.4</ele>
        <time>2021-12-29T12:43:31Z</time>
      </trkpt>
      <trkpt lat="37.4043040" lon="-4.6734320">
        <ele>274.4</ele>
        <time>2021-12-29T12:43:32Z</time>
      </trkpt>
      <trkpt lat="37.4042880" lon="-4.6734920">
        <ele>274.4</ele>
        <time>2021-12-29T12:43:33Z</time>
      </trkpt>
      <trkpt lat="37.4042750" lon="-4.6735520">
        <ele>274.4</ele>
        <time>2021-12-29T12:43:34Z</time>
      </trkpt>
      <trkpt lat="37.4042590" lon="-4.6736140">
        <ele>274.2</ele>
        <time>2021-12-29T12:43:35Z</time>
      </trkpt>
      <trkpt lat="37.4042430" lon="-4.6736750">
        <ele>274.2</ele>
        <time>2021-12-29T12:43:36Z</time>
      </trkpt>
      <trkpt lat="37.4042340" lon="-4.6737350">
        <ele>274.2</ele>
        <time>2021-12-29T12:43:37Z</time>
      </trkpt>
      <trkpt lat="37.4042210" lon="-4.6737930">
        <ele>274.2</ele>
        <time>2021-12-29T12:43:38Z</time>
      </trkpt>
      <trkpt lat="37.4042080" lon="-4.6738520">
        <ele>274.2</ele>
        <time>2021-12-29T12:43:39Z</time>
      </trkpt>
      <trkpt lat="37.4041950" lon="-4.6739100">
        <ele>274.2</ele>
        <time>2021-12-29T12:43:40Z</time>
      </trkpt>
      <trkpt lat="37.4041790" lon="-4.6739640">
        <ele>274.0</ele>
        <time>2021-12-29T12:43:41Z</time>
      </trkpt>
      <trkpt lat="37.4041660" lon="-4.6740200">
        <ele>274.0</ele>
        <time>2021-12-29T12:43:42Z</time>
      </trkpt>
      <trkpt lat="37.4041570" lon="-4.6740760">
        <ele>274.0</ele>
        <time>2021-12-29T12:43:43Z</time>
      </trkpt>
      <trkpt lat="37.4041410" lon="-4.6741350">
        <ele>274.0</ele>
        <time>2021-12-29T12:43:44Z</time>
      </trkpt>
      <trkpt lat="37.4041250" lon="-4.6741930">
        <ele>273.8</ele>
        <time>2021-12-29T12:43:45Z</time>
      </trkpt>
      <trkpt lat="37.4041090" lon="-4.6742550">
        <ele>273.8</ele>
        <time>2021-12-29T12:43:46Z</time>
      </trkpt>
      <trkpt lat="37.4040990" lon="-4.6743150">
        <ele>273.8</ele>
        <time>2021-12-29T12:43:47Z</time>
      </trkpt>
      <trkpt lat="37.4040830" lon="-4.6743760">
        <ele>273.6</ele>
        <time>2021-12-29T12:43:48Z</time>
      </trkpt>
      <trkpt lat="37.4040670" lon="-4.6744360">
        <ele>273.6</ele>
        <time>2021-12-29T12:43:49Z</time>
      </trkpt>
      <trkpt lat="37.4040510" lon="-4.6744970">
        <ele>273.4</ele>
        <time>2021-12-29T12:43:50Z</time>
      </trkpt>
      <trkpt lat="37.4040380" lon="-4.6745550">
        <ele>273.4</ele>
        <time>2021-12-29T12:43:51Z</time>
      </trkpt>
      <trkpt lat="37.4040260" lon="-4.6746120">
        <ele>273.4</ele>
        <time>2021-12-29T12:43:52Z</time>
      </trkpt>
      <trkpt lat="37.4040100" lon="-4.6746700">
        <ele>273.4</ele>
        <time>2021-12-29T12:43:53Z</time>
      </trkpt>
      <trkpt lat="37.4039970" lon="-4.6747300">
        <ele>273.4</ele>
        <time>2021-12-29T12:43:54Z</time>
      </trkpt>
      <trkpt lat="37.4039840" lon="-4.6747920">
        <ele>273.4</ele>
        <time>2021-12-29T12:43:55Z</time>
      </trkpt>
      <trkpt lat="37.4039680" lon="-4.6748520">
        <ele>273.2</ele>
        <time>2021-12-29T12:43:56Z</time>
      </trkpt>
      <trkpt lat="37.4039520" lon="-4.6749100">
        <ele>273.2</ele>
        <time>2021-12-29T12:43:57Z</time>
      </trkpt>
      <trkpt lat="37.4039390" lon="-4.6749700">
        <ele>273.0</ele>
        <time>2021-12-29T12:43:58Z</time>
      </trkpt>
      <trkpt lat="37.4039260" lon="-4.6750320">
        <ele>273.0</ele>
        <time>2021-12-29T12:43:59Z</time>
      </trkpt>
      <trkpt lat="37.4039100" lon="-4.6750880">
        <ele>273.0</ele>
        <time>2021-12-29T12:44:00Z</time>
      </trkpt>
      <trkpt lat="37.4039010" lon="-4.6751430">
        <ele>272.8</ele>
        <time>2021-12-29T12:44:01Z</time>
      </trkpt>
      <trkpt lat="37.4038880" lon="-4.6751980">
        <ele>272.8</ele>
        <time>2021-12-29T12:44:02Z</time>
      </trkpt>
      <trkpt lat="37.4038720" lon="-4.6752530">
        <ele>272.6</ele>
        <time>2021-12-29T12:44:03Z</time>
      </trkpt>
      <trkpt lat="37.4038620" lon="-4.6753070">
        <ele>272.6</ele>
        <time>2021-12-29T12:44:04Z</time>
      </trkpt>
      <trkpt lat="37.4038530" lon="-4.6753600">
        <ele>272.6</ele>
        <time>2021-12-29T12:44:05Z</time>
      </trkpt>
      <trkpt lat="37.4038400" lon="-4.6754160">
        <ele>272.4</ele>
        <time>2021-12-29T12:44:06Z</time>
      </trkpt>
      <trkpt lat="37.4038270" lon="-4.6754720">
        <ele>272.4</ele>
        <time>2021-12-29T12:44:07Z</time>
      </trkpt>
      <trkpt lat="37.4038110" lon="-4.6755280">
        <ele>272.4</ele>
        <time>2021-12-29T12:44:08Z</time>
      </trkpt>
      <trkpt lat="37.4038050" lon="-4.6755830">
        <ele>272.4</ele>
        <time>2021-12-29T12:44:09Z</time>
      </trkpt>
      <trkpt lat="37.4037920" lon="-4.6756400">
        <ele>272.2</ele>
        <time>2021-12-29T12:44:10Z</time>
      </trkpt>
      <trkpt lat="37.4037820" lon="-4.6756980">
        <ele>272.2</ele>
        <time>2021-12-29T12:44:11Z</time>
      </trkpt>
      <trkpt lat="37.4037660" lon="-4.6757540">
        <ele>272.0</ele>
        <time>2021-12-29T12:44:12Z</time>
      </trkpt>
      <trkpt lat="37.4037470" lon="-4.6758080">
        <ele>272.0</ele>
        <time>2021-12-29T12:44:13Z</time>
      </trkpt>
      <trkpt lat="37.4037380" lon="-4.6758630">
        <ele>272.0</ele>
        <time>2021-12-29T12:44:14Z</time>
      </trkpt>
      <trkpt lat="37.4037220" lon="-4.6759220">
        <ele>272.0</ele>
        <time>2021-12-29T12:44:15Z</time>
      </trkpt>
      <trkpt lat="37.4037090" lon="-4.6759800">
        <ele>272.0</ele>
        <time>2021-12-29T12:44:16Z</time>
      </trkpt>
      <trkpt lat="37.4036930" lon="-4.6760370">
        <ele>272.0</ele>
        <time>2021-12-29T12:44:17Z</time>
      </trkpt>
      <trkpt lat="37.4036830" lon="-4.6760950">
        <ele>272.0</ele>
        <time>2021-12-29T12:44:18Z</time>
      </trkpt>
      <trkpt lat="37.4036670" lon="-4.6761550">
        <ele>272.0</ele>
        <time>2021-12-29T12:44:19Z</time>
      </trkpt>
      <trkpt lat="37.4036510" lon="-4.6762150">
        <ele>272.0</ele>
        <time>2021-12-29T12:44:20Z</time>
      </trkpt>
      <trkpt lat="37.4036380" lon="-4.6762750">
        <ele>271.8</ele>
        <time>2021-12-29T12:44:21Z</time>
      </trkpt>
      <trkpt lat="37.4036220" lon="-4.6763350">
        <ele>271.8</ele>
        <time>2021-12-29T12:44:22Z</time>
      </trkpt>
      <trkpt lat="37.4036100" lon="-4.6763950">
        <ele>271.6</ele>
        <time>2021-12-29T12:44:23Z</time>
      </trkpt>
      <trkpt lat="37.4036000" lon="-4.6764520">
        <ele>271.6</ele>
        <time>2021-12-29T12:44:24Z</time>
      </trkpt>
      <trkpt lat="37.4035870" lon="-4.6765060">
        <ele>271.6</ele>
        <time>2021-12-29T12:44:25Z</time>
      </trkpt>
      <trkpt lat="37.4035740" lon="-4.6765630">
        <ele>271.6</ele>
        <time>2021-12-29T12:44:26Z</time>
      </trkpt>
      <trkpt lat="37.4035620" lon="-4.6766220">
        <ele>271.6</ele>
        <time>2021-12-29T12:44:27Z</time>
      </trkpt>
      <trkpt lat="37.4035490" lon="-4.6766770">
        <ele>271.4</ele>
        <time>2021-12-29T12:44:28Z</time>
      </trkpt>
      <trkpt lat="37.4035390" lon="-4.6767350">
        <ele>271.4</ele>
        <time>2021-12-29T12:44:29Z</time>
      </trkpt>
      <trkpt lat="37.4035260" lon="-4.6767920">
        <ele>271.4</ele>
        <time>2021-12-29T12:44:30Z</time>
      </trkpt>
      <trkpt lat="37.4035100" lon="-4.6768480">
        <ele>271.4</ele>
        <time>2021-12-29T12:44:31Z</time>
      </trkpt>
      <trkpt lat="37.4034940" lon="-4.6769050">
        <ele>271.4</ele>
        <time>2021-12-29T12:44:32Z</time>
      </trkpt>
      <trkpt lat="37.4034850" lon="-4.6769630">
        <ele>271.2</ele>
        <time>2021-12-29T12:44:33Z</time>
      </trkpt>
      <trkpt lat="37.4034690" lon="-4.6770200">
        <ele>271.2</ele>
        <time>2021-12-29T12:44:34Z</time>
      </trkpt>
      <trkpt lat="37.4034590" lon="-4.6770770">
        <ele>271.2</ele>
        <time>2021-12-29T12:44:35Z</time>
      </trkpt>
      <trkpt lat="37.4034430" lon="-4.6771340">
        <ele>271.0</ele>
        <time>2021-12-29T12:44:36Z</time>
      </trkpt>
      <trkpt lat="37.4034270" lon="-4.6771880">
        <ele>271.0</ele>
        <time>2021-12-29T12:44:37Z</time>
      </trkpt>
      <trkpt lat="37.4034140" lon="-4.6772420">
        <ele>270.8</ele>
        <time>2021-12-29T12:44:38Z</time>
      </trkpt>
      <trkpt lat="37.4034050" lon="-4.6772950">
        <ele>270.8</ele>
        <time>2021-12-29T12:44:39Z</time>
      </trkpt>
      <trkpt lat="37.4033950" lon="-4.6773480">
        <ele>270.6</ele>
        <time>2021-12-29T12:44:40Z</time>
      </trkpt>
      <trkpt lat="37.4033860" lon="-4.6774000">
        <ele>270.6</ele>
        <time>2021-12-29T12:44:41Z</time>
      </trkpt>
      <trkpt lat="37.4033730" lon="-4.6774540">
        <ele>270.6</ele>
        <time>2021-12-29T12:44:42Z</time>
      </trkpt>
      <trkpt lat="37.4033630" lon="-4.6775060">
        <ele>270.4</ele>
        <time>2021-12-29T12:44:43Z</time>
      </trkpt>
      <trkpt lat="37.4033470" lon="-4.6775620">
        <ele>270.4</ele>
        <time>2021-12-29T12:44:44Z</time>
      </trkpt>
      <trkpt lat="37.4033310" lon="-4.6776180">
        <ele>270.2</ele>
        <time>2021-12-29T12:44:45Z</time>
      </trkpt>
      <trkpt lat="37.4033150" lon="-4.6776730">
        <ele>270.2</ele>
        <time>2021-12-29T12:44:46Z</time>
      </trkpt>
      <trkpt lat="37.4033060" lon="-4.6777320">
        <ele>270.2</ele>
        <time>2021-12-29T12:44:47Z</time>
      </trkpt>
      <trkpt lat="37.4032900" lon="-4.6777870">
        <ele>270.2</ele>
        <time>2021-12-29T12:44:48Z</time>
      </trkpt>
      <trkpt lat="37.4032770" lon="-4.6778430">
        <ele>270.2</ele>
        <time>2021-12-29T12:44:49Z</time>
      </trkpt>
      <trkpt lat="37.4032670" lon="-4.6779020">
        <ele>270.2</ele>
        <time>2021-12-29T12:44:50Z</time>
      </trkpt>
      <trkpt lat="37.4032540" lon="-4.6779600">
        <ele>270.0</ele>
        <time>2021-12-29T12:44:51Z</time>
      </trkpt>
      <trkpt lat="37.4032480" lon="-4.6780170">
        <ele>270.0</ele>
        <time>2021-12-29T12:44:52Z</time>
      </trkpt>
      <trkpt lat="37.4032350" lon="-4.6780750">
        <ele>270.0</ele>
        <time>2021-12-29T12:44:53Z</time>
      </trkpt>
      <trkpt lat="37.4032220" lon="-4.6781320">
        <ele>270.0</ele>
        <time>2021-12-29T12:44:54Z</time>
      </trkpt>
      <trkpt lat="37.4032060" lon="-4.6781880">
        <ele>270.0</ele>
        <time>2021-12-29T12:44:55Z</time>
      </trkpt>
      <trkpt lat="37.4031900" lon="-4.6782450">
        <ele>270.0</ele>
        <time>2021-12-29T12:44:56Z</time>
      </trkpt>
      <trkpt lat="37.4031740" lon="-4.6783030">
        <ele>270.0</ele>
        <time>2021-12-29T12:44:57Z</time>
      </trkpt>
      <trkpt lat="37.4031620" lon="-4.6783600">
        <ele>270.0</ele>
        <time>2021-12-29T12:44:58Z</time>
      </trkpt>
      <trkpt lat="37.4031460" lon="-4.6784180">
        <ele>270.0</ele>
        <time>2021-12-29T12:44:59Z</time>
      </trkpt>
      <trkpt lat="37.4031330" lon="-4.6784750">
        <ele>270.0</ele>
        <time>2021-12-29T12:45:00Z</time>
      </trkpt>
      <trkpt lat="37.4031170" lon="-4.6785320">
        <ele>270.0</ele>
        <time>2021-12-29T12:45:01Z</time>
      </trkpt>
      <trkpt lat="37.4031100" lon="-4.6785880">
        <ele>270.0</ele>
        <time>2021-12-29T12:45:02Z</time>
      </trkpt>
      <trkpt lat="37.4030940" lon="-4.6786480">
        <ele>270.0</ele>
        <time>2021-12-29T12:45:03Z</time>
      </trkpt>
      <trkpt lat="37.4030880" lon="-4.6787070">
        <ele>270.0</ele>
        <time>2021-12-29T12:45:04Z</time>
      </trkpt>
      <trkpt lat="37.4030750" lon="-4.6787670">
        <ele>269.8</ele>
        <time>2021-12-29T12:45:05Z</time>
      </trkpt>
      <trkpt lat="37.4030660" lon="-4.6788280">
        <ele>269.8</ele>
        <time>2021-12-29T12:45:06Z</time>
      </trkpt>
      <trkpt lat="37.4030530" lon="-4.6788900">
        <ele>269.8</ele>
        <time>2021-12-29T12:45:07Z</time>
      </trkpt>
      <trkpt lat="37.4030340" lon="-4.6789620">
        <ele>269.8</ele>
        <time>2021-12-29T12:45:08Z</time>
      </trkpt>
      <trkpt lat="37.4030240" lon="-4.6790200">
        <ele>269.8</ele>
        <time>2021-12-29T12:45:09Z</time>
      </trkpt>
      <trkpt lat="37.4030110" lon="-4.6790670">
        <ele>269.8</ele>
        <time>2021-12-29T12:45:10Z</time>
      </trkpt>
      <trkpt lat="37.4029920" lon="-4.6791220">
        <ele>270.0</ele>
        <time>2021-12-29T12:45:11Z</time>
      </trkpt>
      <trkpt lat="37.4029760" lon="-4.6791770">
        <ele>270.0</ele>
        <time>2021-12-29T12:45:12Z</time>
      </trkpt>
      <trkpt lat="37.4029660" lon="-4.6792300">
        <ele>270.0</ele>
        <time>2021-12-29T12:45:13Z</time>
      </trkpt>
      <trkpt lat="37.4029540" lon="-4.6792820">
        <ele>270.0</ele>
        <time>2021-12-29T12:45:14Z</time>
      </trkpt>
      <trkpt lat="37.4029380" lon="-4.6793320">
        <ele>270.0</ele>
        <time>2021-12-29T12:45:15Z</time>
      </trkpt>
      <trkpt lat="37.4029250" lon="-4.6793830">
        <ele>269.8</ele>
        <time>2021-12-29T12:45:16Z</time>
      </trkpt>
      <trkpt lat="37.4029090" lon="-4.6794370">
        <ele>269.8</ele>
        <time>2021-12-29T12:45:17Z</time>
      </trkpt>
      <trkpt lat="37.4028930" lon="-4.6794900">
        <ele>269.6</ele>
        <time>2021-12-29T12:45:18Z</time>
      </trkpt>
      <trkpt lat="37.4028830" lon="-4.6795440">
        <ele>269.6</ele>
        <time>2021-12-29T12:45:19Z</time>
      </trkpt>
      <trkpt lat="37.4028670" lon="-4.6795980">
        <ele>269.4</ele>
        <time>2021-12-29T12:45:20Z</time>
      </trkpt>
      <trkpt lat="37.4028540" lon="-4.6796530">
        <ele>269.4</ele>
        <time>2021-12-29T12:45:21Z</time>
      </trkpt>
      <trkpt lat="37.4028450" lon="-4.6797100">
        <ele>269.2</ele>
        <time>2021-12-29T12:45:22Z</time>
      </trkpt>
      <trkpt lat="37.4028290" lon="-4.6797650">
        <ele>269.2</ele>
        <time>2021-12-29T12:45:23Z</time>
      </trkpt>
      <trkpt lat="37.4028130" lon="-4.6798170">
        <ele>269.0</ele>
        <time>2021-12-29T12:45:24Z</time>
      </trkpt>
      <trkpt lat="37.4027970" lon="-4.6798700">
        <ele>268.8</ele>
        <time>2021-12-29T12:45:25Z</time>
      </trkpt>
      <trkpt lat="37.4027870" lon="-4.6799240">
        <ele>268.8</ele>
        <time>2021-12-29T12:45:26Z</time>
      </trkpt>
      <trkpt lat="37.4027740" lon="-4.6799760">
        <ele>268.6</ele>
        <time>2021-12-29T12:45:27Z</time>
      </trkpt>
      <trkpt lat="37.4027650" lon="-4.6800320">
        <ele>268.6</ele>
        <time>2021-12-29T12:45:28Z</time>
      </trkpt>
      <trkpt lat="37.4027490" lon="-4.6800880">
        <ele>268.6</ele>
        <time>2021-12-29T12:45:29Z</time>
      </trkpt>
      <trkpt lat="37.4027360" lon="-4.6801470">
        <ele>268.4</ele>
        <time>2021-12-29T12:45:30Z</time>
      </trkpt>
      <trkpt lat="37.4027260" lon="-4.6802050">
        <ele>268.4</ele>
        <time>2021-12-29T12:45:31Z</time>
      </trkpt>
      <trkpt lat="37.4027100" lon="-4.6802650">
        <ele>268.4</ele>
        <time>2021-12-29T12:45:32Z</time>
      </trkpt>
      <trkpt lat="37.4026980" lon="-4.6803200">
        <ele>268.4</ele>
        <time>2021-12-29T12:45:33Z</time>
      </trkpt>
      <trkpt lat="37.4026880" lon="-4.6803730">
        <ele>268.4</ele>
        <time>2021-12-29T12:45:34Z</time>
      </trkpt>
      <trkpt lat="37.4026750" lon="-4.6804280">
        <ele>268.4</ele>
        <time>2021-12-29T12:45:35Z</time>
      </trkpt>
      <trkpt lat="37.4026660" lon="-4.6804850">
        <ele>268.4</ele>
        <time>2021-12-29T12:45:36Z</time>
      </trkpt>
      <trkpt lat="37.4026530" lon="-4.6805400">
        <ele>268.4</ele>
        <time>2021-12-29T12:45:37Z</time>
      </trkpt>
      <trkpt lat="37.4026400" lon="-4.6805920">
        <ele>268.4</ele>
        <time>2021-12-29T12:45:38Z</time>
      </trkpt>
      <trkpt lat="37.4026300" lon="-4.6806470">
        <ele>268.4</ele>
        <time>2021-12-29T12:45:39Z</time>
      </trkpt>
      <trkpt lat="37.4026180" lon="-4.6807030">
        <ele>268.2</ele>
        <time>2021-12-29T12:45:40Z</time>
      </trkpt>
      <trkpt lat="37.4026020" lon="-4.6807600">
        <ele>268.2</ele>
        <time>2021-12-29T12:45:41Z</time>
      </trkpt>
      <trkpt lat="37.4025890" lon="-4.6808180">
        <ele>268.2</ele>
        <time>2021-12-29T12:45:42Z</time>
      </trkpt>
      <trkpt lat="37.4025700" lon="-4.6808770">
        <ele>268.2</ele>
        <time>2021-12-29T12:45:43Z</time>
      </trkpt>
      <trkpt lat="37.4025540" lon="-4.6809340">
        <ele>268.4</ele>
        <time>2021-12-29T12:45:44Z</time>
      </trkpt>
      <trkpt lat="37.4025410" lon="-4.6809920">
        <ele>268.4</ele>
        <time>2021-12-29T12:45:45Z</time>
      </trkpt>
      <trkpt lat="37.4025280" lon="-4.6810480">
        <ele>268.4</ele>
        <time>2021-12-29T12:45:46Z</time>
      </trkpt>
      <trkpt lat="37.4025150" lon="-4.6811060">
        <ele>268.4</ele>
        <time>2021-12-29T12:45:47Z</time>
      </trkpt>
      <trkpt lat="37.4024990" lon="-4.6811680">
        <ele>268.4</ele>
        <time>2021-12-29T12:45:48Z</time>
      </trkpt>
      <trkpt lat="37.4024860" lon="-4.6812300">
        <ele>268.6</ele>
        <time>2021-12-29T12:45:49Z</time>
      </trkpt>
      <trkpt lat="37.4024700" lon="-4.6812920">
        <ele>268.6</ele>
        <time>2021-12-29T12:45:50Z</time>
      </trkpt>
      <trkpt lat="37.4024580" lon="-4.6813500">
        <ele>268.6</ele>
        <time>2021-12-29T12:45:51Z</time>
      </trkpt>
      <trkpt lat="37.4024420" lon="-4.6814080">
        <ele>268.6</ele>
        <time>2021-12-29T12:45:52Z</time>
      </trkpt>
      <trkpt lat="37.4024290" lon="-4.6814720">
        <ele>268.6</ele>
        <time>2021-12-29T12:45:53Z</time>
      </trkpt>
      <trkpt lat="37.4024100" lon="-4.6815320">
        <ele>268.6</ele>
        <time>2021-12-29T12:45:54Z</time>
      </trkpt>
      <trkpt lat="37.4023940" lon="-4.6815900">
        <ele>268.6</ele>
        <time>2021-12-29T12:45:55Z</time>
      </trkpt>
      <trkpt lat="37.4023780" lon="-4.6816500">
        <ele>268.8</ele>
        <time>2021-12-29T12:45:56Z</time>
      </trkpt>
      <trkpt lat="37.4023680" lon="-4.6817120">
        <ele>268.8</ele>
        <time>2021-12-29T12:45:57Z</time>
      </trkpt>
      <trkpt lat="37.4023520" lon="-4.6817730">
        <ele>268.8</ele>
        <time>2021-12-29T12:45:58Z</time>
      </trkpt>
      <trkpt lat="37.4023360" lon="-4.6818350">
        <ele>269.0</ele>
        <time>2021-12-29T12:45:59Z</time>
      </trkpt>
      <trkpt lat="37.4023230" lon="-4.6818950">
        <ele>269.0</ele>
        <time>2021-12-29T12:46:00Z</time>
      </trkpt>
      <trkpt lat="37.4023100" lon="-4.6819540">
        <ele>269.0</ele>
        <time>2021-12-29T12:46:01Z</time>
      </trkpt>
      <trkpt lat="37.4022940" lon="-4.6820150">
        <ele>269.0</ele>
        <time>2021-12-29T12:46:02Z</time>
      </trkpt>
      <trkpt lat="37.4022780" lon="-4.6820700">
        <ele>269.0</ele>
        <time>2021-12-29T12:46:03Z</time>
      </trkpt>
      <trkpt lat="37.4022690" lon="-4.6821250">
        <ele>269.0</ele>
        <time>2021-12-29T12:46:04Z</time>
      </trkpt>
      <trkpt lat="37.4022530" lon="-4.6821830">
        <ele>269.0</ele>
        <time>2021-12-29T12:46:05Z</time>
      </trkpt>
      <trkpt lat="37.4022400" lon="-4.6822430">
        <ele>269.2</ele>
        <time>2021-12-29T12:46:06Z</time>
      </trkpt>
      <trkpt lat="37.4022240" lon="-4.6823040">
        <ele>269.2</ele>
        <time>2021-12-29T12:46:07Z</time>
      </trkpt>
      <trkpt lat="37.4022110" lon="-4.6823600">
        <ele>269.2</ele>
        <time>2021-12-29T12:46:08Z</time>
      </trkpt>
      <trkpt lat="37.4021980" lon="-4.6824180">
        <ele>269.2</ele>
        <time>2021-12-29T12:46:09Z</time>
      </trkpt>
      <trkpt lat="37.4021890" lon="-4.6824730">
        <ele>269.2</ele>
        <time>2021-12-29T12:46:10Z</time>
      </trkpt>
      <trkpt lat="37.4021790" lon="-4.6825260">
        <ele>269.2</ele>
        <time>2021-12-29T12:46:11Z</time>
      </trkpt>
      <trkpt lat="37.4021630" lon="-4.6825770">
        <ele>269.2</ele>
        <time>2021-12-29T12:46:12Z</time>
      </trkpt>
      <trkpt lat="37.4021570" lon="-4.6826230">
        <ele>269.2</ele>
        <time>2021-12-29T12:46:13Z</time>
      </trkpt>
      <trkpt lat="37.4021410" lon="-4.6826670">
        <ele>269.2</ele>
        <time>2021-12-29T12:46:14Z</time>
      </trkpt>
      <trkpt lat="37.4021340" lon="-4.6827050">
        <ele>269.0</ele>
        <time>2021-12-29T12:46:15Z</time>
      </trkpt>
      <trkpt lat="37.4021250" lon="-4.6827430">
        <ele>269.0</ele>
        <time>2021-12-29T12:46:16Z</time>
      </trkpt>
      <trkpt lat="37.4021180" lon="-4.6827850">
        <ele>268.8</ele>
        <time>2021-12-29T12:46:17Z</time>
      </trkpt>
      <trkpt lat="37.4021120" lon="-4.6828300">
        <ele>268.8</ele>
        <time>2021-12-29T12:46:18Z</time>
      </trkpt>
      <trkpt lat="37.4021020" lon="-4.6828750">
        <ele>268.8</ele>
        <time>2021-12-29T12:46:19Z</time>
      </trkpt>
      <trkpt lat="37.4020960" lon="-4.6829180">
        <ele>268.8</ele>
        <time>2021-12-29T12:46:20Z</time>
      </trkpt>
      <trkpt lat="37.4020830" lon="-4.6829650">
        <ele>268.8</ele>
        <time>2021-12-29T12:46:21Z</time>
      </trkpt>
      <trkpt lat="37.4020770" lon="-4.6830180">
        <ele>268.8</ele>
        <time>2021-12-29T12:46:22Z</time>
      </trkpt>
      <trkpt lat="37.4020640" lon="-4.6830670">
        <ele>268.6</ele>
        <time>2021-12-29T12:46:23Z</time>
      </trkpt>
      <trkpt lat="37.4020580" lon="-4.6831040">
        <ele>268.6</ele>
        <time>2021-12-29T12:46:24Z</time>
      </trkpt>
      <trkpt lat="37.4020510" lon="-4.6831300">
        <ele>268.4</ele>
        <time>2021-12-29T12:46:25Z</time>
      </trkpt>
      <trkpt lat="37.4020510" lon="-4.6831300">
        <ele>268.4</ele>
        <time>2021-12-29T12:46:26Z</time>
      </trkpt>
      <trkpt lat="37.4020420" lon="-4.6831660">
        <ele>268.4</ele>
        <time>2021-12-29T12:46:27Z</time>
      </trkpt>
      <trkpt lat="37.4020420" lon="-4.6831660">
        <ele>268.4</ele>
        <time>2021-12-29T12:46:28Z</time>
      </trkpt>
      <trkpt lat="37.4020420" lon="-4.6831660">
        <ele>268.2</ele>
        <time>2021-12-29T12:46:29Z</time>
      </trkpt>
      <trkpt lat="37.4020420" lon="-4.6831660">
        <ele>268.2</ele>
        <time>2021-12-29T12:46:30Z</time>
      </trkpt>
      <trkpt lat="37.4020420" lon="-4.6831660">
        <ele>268.2</ele>
        <time>2021-12-29T12:46:31Z</time>
      </trkpt>
      <trkpt lat="37.4020420" lon="-4.6831660">
        <ele>268.2</ele>
        <time>2021-12-29T12:46:32Z</time>
      </trkpt>
      <trkpt lat="37.4020420" lon="-4.6831660">
        <ele>268.2</ele>
        <time>2021-12-29T12:46:33Z</time>
      </trkpt>
      <trkpt lat="37.4020420" lon="-4.6831660">
        <ele>268.2</ele>
        <time>2021-12-29T12:46:57Z</time>
      </trkpt>
      <trkpt lat="37.4019840" lon="-4.6833980">
        <ele>267.0</ele>
        <time>2021-12-29T12:46:58Z</time>
      </trkpt>
      <trkpt lat="37.4019740" lon="-4.6834250">
        <ele>267.0</ele>
        <time>2021-12-29T12:46:59Z</time>
      </trkpt>
      <trkpt lat="37.4019710" lon="-4.6834520">
        <ele>267.0</ele>
        <time>2021-12-29T12:47:00Z</time>
      </trkpt>
      <trkpt lat="37.4019620" lon="-4.6834830">
        <ele>267.0</ele>
        <time>2021-12-29T12:47:01Z</time>
      </trkpt>
      <trkpt lat="37.4019550" lon="-4.6835160">
        <ele>267.0</ele>
        <time>2021-12-29T12:47:02Z</time>
      </trkpt>
      <trkpt lat="37.4019420" lon="-4.6835550">
        <ele>267.0</ele>
        <time>2021-12-29T12:47:03Z</time>
      </trkpt>
      <trkpt lat="37.4019360" lon="-4.6835930">
        <ele>267.0</ele>
        <time>2021-12-29T12:47:04Z</time>
      </trkpt>
      <trkpt lat="37.4019260" lon="-4.6836320">
        <ele>267.0</ele>
        <time>2021-12-29T12:47:05Z</time>
      </trkpt>
      <trkpt lat="37.4019170" lon="-4.6836730">
        <ele>266.8</ele>
        <time>2021-12-29T12:47:06Z</time>
      </trkpt>
      <trkpt lat="37.4019040" lon="-4.6837200">
        <ele>266.8</ele>
        <time>2021-12-29T12:47:07Z</time>
      </trkpt>
      <trkpt lat="37.4018940" lon="-4.6837670">
        <ele>266.8</ele>
        <time>2021-12-29T12:47:08Z</time>
      </trkpt>
      <trkpt lat="37.4018850" lon="-4.6838130">
        <ele>266.6</ele>
        <time>2021-12-29T12:47:09Z</time>
      </trkpt>
      <trkpt lat="37.4018750" lon="-4.6838630">
        <ele>266.6</ele>
        <time>2021-12-29T12:47:10Z</time>
      </trkpt>
      <trkpt lat="37.4018620" lon="-4.6839120">
        <ele>266.6</ele>
        <time>2021-12-29T12:47:11Z</time>
      </trkpt>
      <trkpt lat="37.4018530" lon="-4.6839580">
        <ele>266.6</ele>
        <time>2021-12-29T12:47:12Z</time>
      </trkpt>
      <trkpt lat="37.4018400" lon="-4.6840030">
        <ele>266.6</ele>
        <time>2021-12-29T12:47:13Z</time>
      </trkpt>
      <trkpt lat="37.4018270" lon="-4.6840480">
        <ele>266.6</ele>
        <time>2021-12-29T12:47:14Z</time>
      </trkpt>
      <trkpt lat="37.4018210" lon="-4.6840970">
        <ele>266.6</ele>
        <time>2021-12-29T12:47:15Z</time>
      </trkpt>
      <trkpt lat="37.4018110" lon="-4.6841470">
        <ele>266.4</ele>
        <time>2021-12-29T12:47:16Z</time>
      </trkpt>
      <trkpt lat="37.4017980" lon="-4.6841980">
        <ele>266.4</ele>
        <time>2021-12-29T12:47:17Z</time>
      </trkpt>
      <trkpt lat="37.4017860" lon="-4.6842480">
        <ele>266.2</ele>
        <time>2021-12-29T12:47:18Z</time>
      </trkpt>
      <trkpt lat="37.4017730" lon="-4.6842980">
        <ele>266.2</ele>
        <time>2021-12-29T12:47:19Z</time>
      </trkpt>
      <trkpt lat="37.4017600" lon="-4.6843470">
        <ele>266.2</ele>
        <time>2021-12-29T12:47:20Z</time>
      </trkpt>
      <trkpt lat="37.4017540" lon="-4.6843970">
        <ele>266.2</ele>
        <time>2021-12-29T12:47:21Z</time>
      </trkpt>
      <trkpt lat="37.4017380" lon="-4.6844470">
        <ele>266.0</ele>
        <time>2021-12-29T12:47:22Z</time>
      </trkpt>
      <trkpt lat="37.4017250" lon="-4.6844980">
        <ele>266.0</ele>
        <time>2021-12-29T12:47:23Z</time>
      </trkpt>
      <trkpt lat="37.4017150" lon="-4.6845500">
        <ele>266.0</ele>
        <time>2021-12-29T12:47:24Z</time>
      </trkpt>
      <trkpt lat="37.4017020" lon="-4.6846050">
        <ele>266.0</ele>
        <time>2021-12-29T12:47:25Z</time>
      </trkpt>
      <trkpt lat="37.4016860" lon="-4.6846580">
        <ele>266.0</ele>
        <time>2021-12-29T12:47:26Z</time>
      </trkpt>
      <trkpt lat="37.4016770" lon="-4.6847120">
        <ele>266.0</ele>
        <time>2021-12-29T12:47:27Z</time>
      </trkpt>
      <trkpt lat="37.4016640" lon="-4.6847670">
        <ele>266.0</ele>
        <time>2021-12-29T12:47:28Z</time>
      </trkpt>
      <trkpt lat="37.4016540" lon="-4.6848220">
        <ele>266.0</ele>
        <time>2021-12-29T12:47:29Z</time>
      </trkpt>
      <trkpt lat="37.4016380" lon="-4.6848740">
        <ele>266.0</ele>
        <time>2021-12-29T12:47:30Z</time>
      </trkpt>
      <trkpt lat="37.4016260" lon="-4.6849260">
        <ele>266.0</ele>
        <time>2021-12-29T12:47:31Z</time>
      </trkpt>
      <trkpt lat="37.4016160" lon="-4.6849750">
        <ele>266.0</ele>
        <time>2021-12-29T12:47:32Z</time>
      </trkpt>
      <trkpt lat="37.4016000" lon="-4.6850250">
        <ele>266.0</ele>
        <time>2021-12-29T12:47:33Z</time>
      </trkpt>
      <trkpt lat="37.4015940" lon="-4.6850750">
        <ele>266.0</ele>
        <time>2021-12-29T12:47:34Z</time>
      </trkpt>
      <trkpt lat="37.4015810" lon="-4.6851240">
        <ele>266.0</ele>
        <time>2021-12-29T12:47:35Z</time>
      </trkpt>
      <trkpt lat="37.4015740" lon="-4.6851700">
        <ele>266.0</ele>
        <time>2021-12-29T12:47:36Z</time>
      </trkpt>
      <trkpt lat="37.4015620" lon="-4.6852170">
        <ele>266.0</ele>
        <time>2021-12-29T12:47:37Z</time>
      </trkpt>
      <trkpt lat="37.4015490" lon="-4.6852620">
        <ele>266.0</ele>
        <time>2021-12-29T12:47:38Z</time>
      </trkpt>
      <trkpt lat="37.4015390" lon="-4.6853080">
        <ele>265.8</ele>
        <time>2021-12-29T12:47:39Z</time>
      </trkpt>
      <trkpt lat="37.4015260" lon="-4.6853570">
        <ele>265.8</ele>
        <time>2021-12-29T12:47:40Z</time>
      </trkpt>
      <trkpt lat="37.4015200" lon="-4.6854070">
        <ele>265.8</ele>
        <time>2021-12-29T12:47:41Z</time>
      </trkpt>
      <trkpt lat="37.4015070" lon="-4.6854550">
        <ele>265.6</ele>
        <time>2021-12-29T12:47:42Z</time>
      </trkpt>
      <trkpt lat="37.4014980" lon="-4.6855000">
        <ele>265.6</ele>
        <time>2021-12-29T12:47:43Z</time>
      </trkpt>
      <trkpt lat="37.4014850" lon="-4.6855480">
        <ele>265.6</ele>
        <time>2021-12-29T12:47:44Z</time>
      </trkpt>
      <trkpt lat="37.4014780" lon="-4.6855980">
        <ele>265.8</ele>
        <time>2021-12-29T12:47:45Z</time>
      </trkpt>
      <trkpt lat="37.4014660" lon="-4.6856520">
        <ele>265.8</ele>
        <time>2021-12-29T12:47:46Z</time>
      </trkpt>
      <trkpt lat="37.4014560" lon="-4.6857050">
        <ele>265.8</ele>
        <time>2021-12-29T12:47:47Z</time>
      </trkpt>
      <trkpt lat="37.4014430" lon="-4.6857530">
        <ele>265.8</ele>
        <time>2021-12-29T12:47:48Z</time>
      </trkpt>
      <trkpt lat="37.4014270" lon="-4.6858000">
        <ele>265.8</ele>
        <time>2021-12-29T12:47:49Z</time>
      </trkpt>
      <trkpt lat="37.4014180" lon="-4.6858480">
        <ele>265.8</ele>
        <time>2021-12-29T12:47:50Z</time>
      </trkpt>
      <trkpt lat="37.4014050" lon="-4.6858970">
        <ele>265.6</ele>
        <time>2021-12-29T12:47:51Z</time>
      </trkpt>
      <trkpt lat="37.4013950" lon="-4.6859450">
        <ele>265.8</ele>
        <time>2021-12-29T12:47:52Z</time>
      </trkpt>
      <trkpt lat="37.4013820" lon="-4.6859930">
        <ele>265.8</ele>
        <time>2021-12-29T12:47:53Z</time>
      </trkpt>
      <trkpt lat="37.4013700" lon="-4.6860450">
        <ele>265.8</ele>
        <time>2021-12-29T12:47:54Z</time>
      </trkpt>
      <trkpt lat="37.4013600" lon="-4.6860970">
        <ele>265.8</ele>
        <time>2021-12-29T12:47:55Z</time>
      </trkpt>
      <trkpt lat="37.4013470" lon="-4.6861480">
        <ele>265.8</ele>
        <time>2021-12-29T12:47:56Z</time>
      </trkpt>
      <trkpt lat="37.4013380" lon="-4.6861970">
        <ele>265.8</ele>
        <time>2021-12-29T12:47:57Z</time>
      </trkpt>
      <trkpt lat="37.4013250" lon="-4.6862480">
        <ele>265.8</ele>
        <time>2021-12-29T12:47:58Z</time>
      </trkpt>
      <trkpt lat="37.4013150" lon="-4.6862960">
        <ele>265.8</ele>
        <time>2021-12-29T12:47:59Z</time>
      </trkpt>
      <trkpt lat="37.4013020" lon="-4.6863460">
        <ele>265.8</ele>
        <time>2021-12-29T12:48:00Z</time>
      </trkpt>
      <trkpt lat="37.4012900" lon="-4.6863950">
        <ele>265.8</ele>
        <time>2021-12-29T12:48:01Z</time>
      </trkpt>
      <trkpt lat="37.4012800" lon="-4.6864470">
        <ele>265.6</ele>
        <time>2021-12-29T12:48:02Z</time>
      </trkpt>
      <trkpt lat="37.4012670" lon="-4.6864950">
        <ele>265.6</ele>
        <time>2021-12-29T12:48:03Z</time>
      </trkpt>
      <trkpt lat="37.4012580" lon="-4.6865420">
        <ele>265.6</ele>
        <time>2021-12-29T12:48:04Z</time>
      </trkpt>
      <trkpt lat="37.4012450" lon="-4.6865900">
        <ele>265.6</ele>
        <time>2021-12-29T12:48:05Z</time>
      </trkpt>
      <trkpt lat="37.4012380" lon="-4.6866380">
        <ele>265.6</ele>
        <time>2021-12-29T12:48:06Z</time>
      </trkpt>
      <trkpt lat="37.4012260" lon="-4.6866880">
        <ele>265.6</ele>
        <time>2021-12-29T12:48:07Z</time>
      </trkpt>
      <trkpt lat="37.4012160" lon="-4.6867380">
        <ele>265.6</ele>
        <time>2021-12-29T12:48:08Z</time>
      </trkpt>
      <trkpt lat="37.4012030" lon="-4.6867880">
        <ele>265.6</ele>
        <time>2021-12-29T12:48:09Z</time>
      </trkpt>
      <trkpt lat="37.4011900" lon="-4.6868370">
        <ele>265.6</ele>
        <time>2021-12-29T12:48:10Z</time>
      </trkpt>
      <trkpt lat="37.4011810" lon="-4.6868850">
        <ele>265.6</ele>
        <time>2021-12-29T12:48:11Z</time>
      </trkpt>
      <trkpt lat="37.4011650" lon="-4.6869350">
        <ele>265.4</ele>
        <time>2021-12-29T12:48:12Z</time>
      </trkpt>
      <trkpt lat="37.4011520" lon="-4.6869820">
        <ele>265.4</ele>
        <time>2021-12-29T12:48:13Z</time>
      </trkpt>
      <trkpt lat="37.4011420" lon="-4.6870320">
        <ele>265.4</ele>
        <time>2021-12-29T12:48:14Z</time>
      </trkpt>
      <trkpt lat="37.4011300" lon="-4.6870780">
        <ele>265.4</ele>
        <time>2021-12-29T12:48:15Z</time>
      </trkpt>
      <trkpt lat="37.4011230" lon="-4.6871250">
        <ele>265.4</ele>
        <time>2021-12-29T12:48:16Z</time>
      </trkpt>
      <trkpt lat="37.4011100" lon="-4.6871680">
        <ele>265.2</ele>
        <time>2021-12-29T12:48:17Z</time>
      </trkpt>
      <trkpt lat="37.4011010" lon="-4.6872140">
        <ele>265.2</ele>
        <time>2021-12-29T12:48:18Z</time>
      </trkpt>
      <trkpt lat="37.4010880" lon="-4.6872580">
        <ele>265.2</ele>
        <time>2021-12-29T12:48:19Z</time>
      </trkpt>
      <trkpt lat="37.4010820" lon="-4.6873040">
        <ele>265.0</ele>
        <time>2021-12-29T12:48:20Z</time>
      </trkpt>
      <trkpt lat="37.4010690" lon="-4.6873480">
        <ele>265.0</ele>
        <time>2021-12-29T12:48:21Z</time>
      </trkpt>
      <trkpt lat="37.4010620" lon="-4.6873920">
        <ele>265.0</ele>
        <time>2021-12-29T12:48:22Z</time>
      </trkpt>
      <trkpt lat="37.4010500" lon="-4.6874360">
        <ele>265.0</ele>
        <time>2021-12-29T12:48:23Z</time>
      </trkpt>
      <trkpt lat="37.4010430" lon="-4.6874800">
        <ele>265.0</ele>
        <time>2021-12-29T12:48:24Z</time>
      </trkpt>
      <trkpt lat="37.4010300" lon="-4.6875230">
        <ele>265.0</ele>
        <time>2021-12-29T12:48:25Z</time>
      </trkpt>
      <trkpt lat="37.4010240" lon="-4.6875670">
        <ele>264.8</ele>
        <time>2021-12-29T12:48:26Z</time>
      </trkpt>
      <trkpt lat="37.4010110" lon="-4.6876140">
        <ele>264.8</ele>
        <time>2021-12-29T12:48:27Z</time>
      </trkpt>
      <trkpt lat="37.4010020" lon="-4.6876580">
        <ele>264.8</ele>
        <time>2021-12-29T12:48:28Z</time>
      </trkpt>
      <trkpt lat="37.4009920" lon="-4.6877020">
        <ele>264.8</ele>
        <time>2021-12-29T12:48:29Z</time>
      </trkpt>
      <trkpt lat="37.4009820" lon="-4.6877400">
        <ele>264.6</ele>
        <time>2021-12-29T12:48:30Z</time>
      </trkpt>
      <trkpt lat="37.4009730" lon="-4.6877800">
        <ele>264.6</ele>
        <time>2021-12-29T12:48:31Z</time>
      </trkpt>
      <trkpt lat="37.4009660" lon="-4.6878170">
        <ele>264.6</ele>
        <time>2021-12-29T12:48:32Z</time>
      </trkpt>
      <trkpt lat="37.4009600" lon="-4.6878570">
        <ele>264.6</ele>
        <time>2021-12-29T12:48:33Z</time>
      </trkpt>
      <trkpt lat="37.4009470" lon="-4.6878970">
        <ele>264.6</ele>
        <time>2021-12-29T12:48:34Z</time>
      </trkpt>
      <trkpt lat="37.4009380" lon="-4.6879370">
        <ele>264.6</ele>
        <time>2021-12-29T12:48:35Z</time>
      </trkpt>
      <trkpt lat="37.4009280" lon="-4.6879780">
        <ele>264.8</ele>
        <time>2021-12-29T12:48:36Z</time>
      </trkpt>
      <trkpt lat="37.4009120" lon="-4.6880220">
        <ele>264.6</ele>
        <time>2021-12-29T12:48:37Z</time>
      </trkpt>
      <trkpt lat="37.4009060" lon="-4.6880660">
        <ele>264.6</ele>
        <time>2021-12-29T12:48:38Z</time>
      </trkpt>
      <trkpt lat="37.4008930" lon="-4.6881130">
        <ele>264.6</ele>
        <time>2021-12-29T12:48:39Z</time>
      </trkpt>
      <trkpt lat="37.4008800" lon="-4.6881620">
        <ele>264.8</ele>
        <time>2021-12-29T12:48:40Z</time>
      </trkpt>
      <trkpt lat="37.4008700" lon="-4.6882100">
        <ele>264.8</ele>
        <time>2021-12-29T12:48:41Z</time>
      </trkpt>
      <trkpt lat="37.4008610" lon="-4.6882580">
        <ele>264.6</ele>
        <time>2021-12-29T12:48:42Z</time>
      </trkpt>
      <trkpt lat="37.4008480" lon="-4.6883050">
        <ele>264.6</ele>
        <time>2021-12-29T12:48:43Z</time>
      </trkpt>
      <trkpt lat="37.4008320" lon="-4.6883540">
        <ele>264.6</ele>
        <time>2021-12-29T12:48:44Z</time>
      </trkpt>
      <trkpt lat="37.4008220" lon="-4.6884020">
        <ele>264.6</ele>
        <time>2021-12-29T12:48:45Z</time>
      </trkpt>
      <trkpt lat="37.4008130" lon="-4.6884480">
        <ele>264.6</ele>
        <time>2021-12-29T12:48:46Z</time>
      </trkpt>
      <trkpt lat="37.4008060" lon="-4.6884950">
        <ele>264.6</ele>
        <time>2021-12-29T12:48:47Z</time>
      </trkpt>
      <trkpt lat="37.4007940" lon="-4.6885430">
        <ele>264.4</ele>
        <time>2021-12-29T12:48:48Z</time>
      </trkpt>
      <trkpt lat="37.4007870" lon="-4.6885900">
        <ele>264.4</ele>
        <time>2021-12-29T12:48:49Z</time>
      </trkpt>
      <trkpt lat="37.4007740" lon="-4.6886380">
        <ele>264.4</ele>
        <time>2021-12-29T12:48:50Z</time>
      </trkpt>
      <trkpt lat="37.4007680" lon="-4.6886850">
        <ele>264.4</ele>
        <time>2021-12-29T12:48:51Z</time>
      </trkpt>
      <trkpt lat="37.4007580" lon="-4.6887320">
        <ele>264.4</ele>
        <time>2021-12-29T12:48:52Z</time>
      </trkpt>
      <trkpt lat="37.4007490" lon="-4.6887820">
        <ele>264.4</ele>
        <time>2021-12-29T12:48:53Z</time>
      </trkpt>
      <trkpt lat="37.4007420" lon="-4.6888300">
        <ele>264.4</ele>
        <time>2021-12-29T12:48:54Z</time>
      </trkpt>
      <trkpt lat="37.4007300" lon="-4.6888780">
        <ele>264.4</ele>
        <time>2021-12-29T12:48:55Z</time>
      </trkpt>
      <trkpt lat="37.4007140" lon="-4.6889270">
        <ele>264.4</ele>
        <time>2021-12-29T12:48:56Z</time>
      </trkpt>
      <trkpt lat="37.4007070" lon="-4.6889740">
        <ele>264.4</ele>
        <time>2021-12-29T12:48:57Z</time>
      </trkpt>
      <trkpt lat="37.4006940" lon="-4.6890320">
        <ele>264.4</ele>
        <time>2021-12-29T12:48:58Z</time>
      </trkpt>
      <trkpt lat="37.4006850" lon="-4.6890720">
        <ele>264.4</ele>
        <time>2021-12-29T12:48:59Z</time>
      </trkpt>
      <trkpt lat="37.4006750" lon="-4.6891220">
        <ele>264.4</ele>
        <time>2021-12-29T12:49:00Z</time>
      </trkpt>
      <trkpt lat="37.4006690" lon="-4.6891720">
        <ele>264.4</ele>
        <time>2021-12-29T12:49:01Z</time>
      </trkpt>
      <trkpt lat="37.4006620" lon="-4.6892180">
        <ele>264.6</ele>
        <time>2021-12-29T12:49:02Z</time>
      </trkpt>
      <trkpt lat="37.4006590" lon="-4.6892670">
        <ele>264.6</ele>
        <time>2021-12-29T12:49:03Z</time>
      </trkpt>
      <trkpt lat="37.4006500" lon="-4.6893150">
        <ele>264.6</ele>
        <time>2021-12-29T12:49:04Z</time>
      </trkpt>
      <trkpt lat="37.4006430" lon="-4.6893670">
        <ele>264.6</ele>
        <time>2021-12-29T12:49:05Z</time>
      </trkpt>
      <trkpt lat="37.4006400" lon="-4.6894170">
        <ele>264.6</ele>
        <time>2021-12-29T12:49:06Z</time>
      </trkpt>
      <trkpt lat="37.4006300" lon="-4.6894650">
        <ele>264.6</ele>
        <time>2021-12-29T12:49:07Z</time>
      </trkpt>
      <trkpt lat="37.4006240" lon="-4.6895130">
        <ele>264.6</ele>
        <time>2021-12-29T12:49:08Z</time>
      </trkpt>
      <trkpt lat="37.4006110" lon="-4.6895670">
        <ele>264.6</ele>
        <time>2021-12-29T12:49:09Z</time>
      </trkpt>
      <trkpt lat="37.4006080" lon="-4.6896180">
        <ele>264.6</ele>
        <time>2021-12-29T12:49:10Z</time>
      </trkpt>
      <trkpt lat="37.4006050" lon="-4.6896680">
        <ele>264.6</ele>
        <time>2021-12-29T12:49:11Z</time>
      </trkpt>
      <trkpt lat="37.4005950" lon="-4.6897170">
        <ele>264.6</ele>
        <time>2021-12-29T12:49:12Z</time>
      </trkpt>
      <trkpt lat="37.4005950" lon="-4.6897670">
        <ele>264.6</ele>
        <time>2021-12-29T12:49:13Z</time>
      </trkpt>
      <trkpt lat="37.4005950" lon="-4.6898160">
        <ele>264.6</ele>
        <time>2021-12-29T12:49:14Z</time>
      </trkpt>
      <trkpt lat="37.4005920" lon="-4.6898630">
        <ele>264.4</ele>
        <time>2021-12-29T12:49:15Z</time>
      </trkpt>
      <trkpt lat="37.4005890" lon="-4.6899120">
        <ele>264.4</ele>
        <time>2021-12-29T12:49:16Z</time>
      </trkpt>
      <trkpt lat="37.4005890" lon="-4.6899600">
        <ele>264.4</ele>
        <time>2021-12-29T12:49:17Z</time>
      </trkpt>
      <trkpt lat="37.4005860" lon="-4.6900100">
        <ele>264.4</ele>
        <time>2021-12-29T12:49:18Z</time>
      </trkpt>
      <trkpt lat="37.4005860" lon="-4.6900580">
        <ele>264.4</ele>
        <time>2021-12-29T12:49:19Z</time>
      </trkpt>
      <trkpt lat="37.4005820" lon="-4.6901180">
        <ele>264.4</ele>
        <time>2021-12-29T12:49:20Z</time>
      </trkpt>
      <trkpt lat="37.4005860" lon="-4.6901560">
        <ele>264.2</ele>
        <time>2021-12-29T12:49:21Z</time>
      </trkpt>
      <trkpt lat="37.4005860" lon="-4.6902060">
        <ele>264.2</ele>
        <time>2021-12-29T12:49:22Z</time>
      </trkpt>
      <trkpt lat="37.4005820" lon="-4.6902560">
        <ele>264.2</ele>
        <time>2021-12-29T12:49:23Z</time>
      </trkpt>
      <trkpt lat="37.4005820" lon="-4.6903070">
        <ele>264.2</ele>
        <time>2021-12-29T12:49:24Z</time>
      </trkpt>
      <trkpt lat="37.4005860" lon="-4.6903550">
        <ele>264.0</ele>
        <time>2021-12-29T12:49:25Z</time>
      </trkpt>
      <trkpt lat="37.4005820" lon="-4.6904070">
        <ele>264.0</ele>
        <time>2021-12-29T12:49:26Z</time>
      </trkpt>
      <trkpt lat="37.4005860" lon="-4.6904570">
        <ele>264.0</ele>
        <time>2021-12-29T12:49:27Z</time>
      </trkpt>
      <trkpt lat="37.4005860" lon="-4.6905060">
        <ele>264.0</ele>
        <time>2021-12-29T12:49:28Z</time>
      </trkpt>
      <trkpt lat="37.4005890" lon="-4.6905530">
        <ele>264.0</ele>
        <time>2021-12-29T12:49:29Z</time>
      </trkpt>
      <trkpt lat="37.4005890" lon="-4.6906030">
        <ele>264.0</ele>
        <time>2021-12-29T12:49:30Z</time>
      </trkpt>
      <trkpt lat="37.4005890" lon="-4.6906500">
        <ele>264.0</ele>
        <time>2021-12-29T12:49:31Z</time>
      </trkpt>
      <trkpt lat="37.4005950" lon="-4.6906970">
        <ele>264.0</ele>
        <time>2021-12-29T12:49:32Z</time>
      </trkpt>
      <trkpt lat="37.4005950" lon="-4.6907440">
        <ele>264.0</ele>
        <time>2021-12-29T12:49:33Z</time>
      </trkpt>
      <trkpt lat="37.4006020" lon="-4.6907920">
        <ele>264.0</ele>
        <time>2021-12-29T12:49:34Z</time>
      </trkpt>
      <trkpt lat="37.4006050" lon="-4.6908400">
        <ele>264.2</ele>
        <time>2021-12-29T12:49:35Z</time>
      </trkpt>
      <trkpt lat="37.4006110" lon="-4.6908860">
        <ele>264.2</ele>
        <time>2021-12-29T12:49:36Z</time>
      </trkpt>
      <trkpt lat="37.4006140" lon="-4.6909330">
        <ele>264.2</ele>
        <time>2021-12-29T12:49:37Z</time>
      </trkpt>
      <trkpt lat="37.4006210" lon="-4.6909800">
        <ele>264.2</ele>
        <time>2021-12-29T12:49:38Z</time>
      </trkpt>
      <trkpt lat="37.4006240" lon="-4.6910270">
        <ele>264.2</ele>
        <time>2021-12-29T12:49:39Z</time>
      </trkpt>
      <trkpt lat="37.4006300" lon="-4.6910750">
        <ele>264.2</ele>
        <time>2021-12-29T12:49:40Z</time>
      </trkpt>
      <trkpt lat="37.4006340" lon="-4.6911250">
        <ele>264.2</ele>
        <time>2021-12-29T12:49:41Z</time>
      </trkpt>
      <trkpt lat="37.4006430" lon="-4.6911740">
        <ele>264.2</ele>
        <time>2021-12-29T12:49:42Z</time>
      </trkpt>
      <trkpt lat="37.4006500" lon="-4.6912220">
        <ele>264.2</ele>
        <time>2021-12-29T12:49:43Z</time>
      </trkpt>
      <trkpt lat="37.4006530" lon="-4.6912700">
        <ele>264.2</ele>
        <time>2021-12-29T12:49:44Z</time>
      </trkpt>
      <trkpt lat="37.4006620" lon="-4.6913200">
        <ele>264.2</ele>
        <time>2021-12-29T12:49:45Z</time>
      </trkpt>
      <trkpt lat="37.4006750" lon="-4.6913770">
        <ele>264.2</ele>
        <time>2021-12-29T12:49:46Z</time>
      </trkpt>
      <trkpt lat="37.4006820" lon="-4.6914150">
        <ele>264.2</ele>
        <time>2021-12-29T12:49:47Z</time>
      </trkpt>
      <trkpt lat="37.4006880" lon="-4.6914640">
        <ele>264.2</ele>
        <time>2021-12-29T12:49:48Z</time>
      </trkpt>
      <trkpt lat="37.4006940" lon="-4.6915120">
        <ele>264.2</ele>
        <time>2021-12-29T12:49:49Z</time>
      </trkpt>
      <trkpt lat="37.4007070" lon="-4.6915720">
        <ele>264.2</ele>
        <time>2021-12-29T12:49:50Z</time>
      </trkpt>
      <trkpt lat="37.4007140" lon="-4.6916100">
        <ele>264.2</ele>
        <time>2021-12-29T12:49:51Z</time>
      </trkpt>
      <trkpt lat="37.4007200" lon="-4.6916600">
        <ele>264.2</ele>
        <time>2021-12-29T12:49:52Z</time>
      </trkpt>
      <trkpt lat="37.4007260" lon="-4.6917100">
        <ele>264.2</ele>
        <time>2021-12-29T12:49:53Z</time>
      </trkpt>
      <trkpt lat="37.4007330" lon="-4.6917580">
        <ele>264.2</ele>
        <time>2021-12-29T12:49:54Z</time>
      </trkpt>
      <trkpt lat="37.4007420" lon="-4.6918070">
        <ele>264.4</ele>
        <time>2021-12-29T12:49:55Z</time>
      </trkpt>
      <trkpt lat="37.4007490" lon="-4.6918540">
        <ele>264.4</ele>
        <time>2021-12-29T12:49:56Z</time>
      </trkpt>
      <trkpt lat="37.4007580" lon="-4.6919020">
        <ele>264.4</ele>
        <time>2021-12-29T12:49:57Z</time>
      </trkpt>
      <trkpt lat="37.4007680" lon="-4.6919500">
        <ele>264.4</ele>
        <time>2021-12-29T12:49:58Z</time>
      </trkpt>
      <trkpt lat="37.4007740" lon="-4.6919980">
        <ele>264.4</ele>
        <time>2021-12-29T12:49:59Z</time>
      </trkpt>
      <trkpt lat="37.4007870" lon="-4.6920720">
        <ele>264.4</ele>
        <time>2021-12-29T12:50:00Z</time>
      </trkpt>
      <trkpt lat="37.4007900" lon="-4.6920970">
        <ele>264.4</ele>
        <time>2021-12-29T12:50:01Z</time>
      </trkpt>
      <trkpt lat="37.4008000" lon="-4.6921450">
        <ele>264.4</ele>
        <time>2021-12-29T12:50:02Z</time>
      </trkpt>
      <trkpt lat="37.4008100" lon="-4.6921950">
        <ele>264.4</ele>
        <time>2021-12-29T12:50:03Z</time>
      </trkpt>
      <trkpt lat="37.4008220" lon="-4.6922530">
        <ele>264.4</ele>
        <time>2021-12-29T12:50:04Z</time>
      </trkpt>
      <trkpt lat="37.4008260" lon="-4.6922930">
        <ele>264.4</ele>
        <time>2021-12-29T12:50:05Z</time>
      </trkpt>
      <trkpt lat="37.4008320" lon="-4.6923420">
        <ele>264.4</ele>
        <time>2021-12-29T12:50:06Z</time>
      </trkpt>
      <trkpt lat="37.4008380" lon="-4.6923880">
        <ele>264.4</ele>
        <time>2021-12-29T12:50:07Z</time>
      </trkpt>
      <trkpt lat="37.4008480" lon="-4.6924370">
        <ele>264.4</ele>
        <time>2021-12-29T12:50:08Z</time>
      </trkpt>
      <trkpt lat="37.4008580" lon="-4.6924870">
        <ele>264.6</ele>
        <time>2021-12-29T12:50:09Z</time>
      </trkpt>
      <trkpt lat="37.4008640" lon="-4.6925380">
        <ele>264.6</ele>
        <time>2021-12-29T12:50:10Z</time>
      </trkpt>
      <trkpt lat="37.4008700" lon="-4.6925880">
        <ele>264.6</ele>
        <time>2021-12-29T12:50:11Z</time>
      </trkpt>
      <trkpt lat="37.4008800" lon="-4.6926360">
        <ele>264.8</ele>
        <time>2021-12-29T12:50:12Z</time>
      </trkpt>
      <trkpt lat="37.4008860" lon="-4.6926850">
        <ele>264.8</ele>
        <time>2021-12-29T12:50:13Z</time>
      </trkpt>
      <trkpt lat="37.4008930" lon="-4.6927330">
        <ele>264.8</ele>
        <time>2021-12-29T12:50:14Z</time>
      </trkpt>
      <trkpt lat="37.4009020" lon="-4.6927820">
        <ele>264.8</ele>
        <time>2021-12-29T12:50:15Z</time>
      </trkpt>
      <trkpt lat="37.4009120" lon="-4.6928300">
        <ele>264.8</ele>
        <time>2021-12-29T12:50:16Z</time>
      </trkpt>
      <trkpt lat="37.4009180" lon="-4.6928780">
        <ele>264.8</ele>
        <time>2021-12-29T12:50:17Z</time>
      </trkpt>
      <trkpt lat="37.4009280" lon="-4.6929260">
        <ele>264.8</ele>
        <time>2021-12-29T12:50:18Z</time>
      </trkpt>
      <trkpt lat="37.4009380" lon="-4.6929750">
        <ele>264.8</ele>
        <time>2021-12-29T12:50:19Z</time>
      </trkpt>
      <trkpt lat="37.4009440" lon="-4.6930230">
        <ele>264.8</ele>
        <time>2021-12-29T12:50:20Z</time>
      </trkpt>
      <trkpt lat="37.4009500" lon="-4.6930730">
        <ele>264.8</ele>
        <time>2021-12-29T12:50:21Z</time>
      </trkpt>
      <trkpt lat="37.4009600" lon="-4.6931230">
        <ele>264.8</ele>
        <time>2021-12-29T12:50:22Z</time>
      </trkpt>
      <trkpt lat="37.4009660" lon="-4.6931740">
        <ele>264.8</ele>
        <time>2021-12-29T12:50:23Z</time>
      </trkpt>
      <trkpt lat="37.4009790" lon="-4.6932200">
        <ele>264.8</ele>
        <time>2021-12-29T12:50:24Z</time>
      </trkpt>
      <trkpt lat="37.4009890" lon="-4.6932700">
        <ele>264.8</ele>
        <time>2021-12-29T12:50:25Z</time>
      </trkpt>
      <trkpt lat="37.4009980" lon="-4.6933200">
        <ele>264.8</ele>
        <time>2021-12-29T12:50:26Z</time>
      </trkpt>
      <trkpt lat="37.4010080" lon="-4.6933700">
        <ele>264.8</ele>
        <time>2021-12-29T12:50:27Z</time>
      </trkpt>
      <trkpt lat="37.4010210" lon="-4.6934220">
        <ele>264.6</ele>
        <time>2021-12-29T12:50:28Z</time>
      </trkpt>
      <trkpt lat="37.4010270" lon="-4.6934730">
        <ele>264.6</ele>
        <time>2021-12-29T12:50:29Z</time>
      </trkpt>
      <trkpt lat="37.4010370" lon="-4.6935250">
        <ele>264.6</ele>
        <time>2021-12-29T12:50:30Z</time>
      </trkpt>
      <trkpt lat="37.4010430" lon="-4.6935780">
        <ele>264.6</ele>
        <time>2021-12-29T12:50:31Z</time>
      </trkpt>
      <trkpt lat="37.4010500" lon="-4.6936320">
        <ele>264.6</ele>
        <time>2021-12-29T12:50:32Z</time>
      </trkpt>
      <trkpt lat="37.4010590" lon="-4.6936860">
        <ele>264.6</ele>
        <time>2021-12-29T12:50:33Z</time>
      </trkpt>
      <trkpt lat="37.4010660" lon="-4.6937360">
        <ele>264.4</ele>
        <time>2021-12-29T12:50:34Z</time>
      </trkpt>
      <trkpt lat="37.4010780" lon="-4.6937880">
        <ele>264.4</ele>
        <time>2021-12-29T12:50:35Z</time>
      </trkpt>
      <trkpt lat="37.4010850" lon="-4.6938400">
        <ele>264.4</ele>
        <time>2021-12-29T12:50:36Z</time>
      </trkpt>
      <trkpt lat="37.4010980" lon="-4.6938900">
        <ele>264.4</ele>
        <time>2021-12-29T12:50:37Z</time>
      </trkpt>
      <trkpt lat="37.4011040" lon="-4.6939380">
        <ele>264.4</ele>
        <time>2021-12-29T12:50:38Z</time>
      </trkpt>
      <trkpt lat="37.4011100" lon="-4.6939870">
        <ele>264.4</ele>
        <time>2021-12-29T12:50:39Z</time>
      </trkpt>
      <trkpt lat="37.4011200" lon="-4.6940380">
        <ele>264.4</ele>
        <time>2021-12-29T12:50:40Z</time>
      </trkpt>
      <trkpt lat="37.4011260" lon="-4.6940880">
        <ele>264.4</ele>
        <time>2021-12-29T12:50:41Z</time>
      </trkpt>
      <trkpt lat="37.4011360" lon="-4.6941420">
        <ele>264.6</ele>
        <time>2021-12-29T12:50:42Z</time>
      </trkpt>
      <trkpt lat="37.4011420" lon="-4.6941930">
        <ele>264.6</ele>
        <time>2021-12-29T12:50:43Z</time>
      </trkpt>
      <trkpt lat="37.4011520" lon="-4.6942420">
        <ele>264.6</ele>
        <time>2021-12-29T12:50:44Z</time>
      </trkpt>
      <trkpt lat="37.4011620" lon="-4.6942900">
        <ele>264.6</ele>
        <time>2021-12-29T12:50:45Z</time>
      </trkpt>
      <trkpt lat="37.4011680" lon="-4.6943380">
        <ele>264.6</ele>
        <time>2021-12-29T12:50:46Z</time>
      </trkpt>
      <trkpt lat="37.4011780" lon="-4.6943880">
        <ele>264.6</ele>
        <time>2021-12-29T12:50:47Z</time>
      </trkpt>
      <trkpt lat="37.4011870" lon="-4.6944350">
        <ele>264.6</ele>
        <time>2021-12-29T12:50:48Z</time>
      </trkpt>
      <trkpt lat="37.4011970" lon="-4.6944800">
        <ele>264.6</ele>
        <time>2021-12-29T12:50:49Z</time>
      </trkpt>
      <trkpt lat="37.4012030" lon="-4.6945250">
        <ele>264.6</ele>
        <time>2021-12-29T12:50:50Z</time>
      </trkpt>
      <trkpt lat="37.4012100" lon="-4.6945720">
        <ele>264.6</ele>
        <time>2021-12-29T12:50:51Z</time>
      </trkpt>
      <trkpt lat="37.4012190" lon="-4.6946170">
        <ele>264.6</ele>
        <time>2021-12-29T12:50:52Z</time>
      </trkpt>
      <trkpt lat="37.4012260" lon="-4.6946640">
        <ele>264.6</ele>
        <time>2021-12-29T12:50:53Z</time>
      </trkpt>
      <trkpt lat="37.4012350" lon="-4.6947100">
        <ele>264.6</ele>
        <time>2021-12-29T12:50:54Z</time>
      </trkpt>
      <trkpt lat="37.4012450" lon="-4.6947580">
        <ele>264.6</ele>
        <time>2021-12-29T12:50:55Z</time>
      </trkpt>
      <trkpt lat="37.4012510" lon="-4.6948060">
        <ele>264.4</ele>
        <time>2021-12-29T12:50:56Z</time>
      </trkpt>
      <trkpt lat="37.4012580" lon="-4.6948570">
        <ele>264.4</ele>
        <time>2021-12-29T12:50:57Z</time>
      </trkpt>
      <trkpt lat="37.4012670" lon="-4.6949050">
        <ele>264.4</ele>
        <time>2021-12-29T12:50:58Z</time>
      </trkpt>
      <trkpt lat="37.4012700" lon="-4.6949520">
        <ele>264.2</ele>
        <time>2021-12-29T12:50:59Z</time>
      </trkpt>
      <trkpt lat="37.4012830" lon="-4.6949980">
        <ele>264.2</ele>
        <time>2021-12-29T12:51:00Z</time>
      </trkpt>
      <trkpt lat="37.4012900" lon="-4.6950450">
        <ele>264.0</ele>
        <time>2021-12-29T12:51:01Z</time>
      </trkpt>
      <trkpt lat="37.4012990" lon="-4.6950920">
        <ele>264.0</ele>
        <time>2021-12-29T12:51:02Z</time>
      </trkpt>
      <trkpt lat="37.4013060" lon="-4.6951400">
        <ele>264.2</ele>
        <time>2021-12-29T12:51:03Z</time>
      </trkpt>
      <trkpt lat="37.4013150" lon="-4.6951870">
        <ele>264.2</ele>
        <time>2021-12-29T12:51:04Z</time>
      </trkpt>
      <trkpt lat="37.4013220" lon="-4.6952320">
        <ele>264.2</ele>
        <time>2021-12-29T12:51:05Z</time>
      </trkpt>
      <trkpt lat="37.4013250" lon="-4.6952780">
        <ele>264.0</ele>
        <time>2021-12-29T12:51:06Z</time>
      </trkpt>
      <trkpt lat="37.4013380" lon="-4.6953270">
        <ele>264.0</ele>
        <time>2021-12-29T12:51:07Z</time>
      </trkpt>
      <trkpt lat="37.4013440" lon="-4.6953750">
        <ele>264.0</ele>
        <time>2021-12-29T12:51:08Z</time>
      </trkpt>
      <trkpt lat="37.4013470" lon="-4.6954220">
        <ele>264.0</ele>
        <time>2021-12-29T12:51:09Z</time>
      </trkpt>
      <trkpt lat="37.4013570" lon="-4.6954700">
        <ele>264.0</ele>
        <time>2021-12-29T12:51:10Z</time>
      </trkpt>
      <trkpt lat="37.4013630" lon="-4.6955180">
        <ele>264.0</ele>
        <time>2021-12-29T12:51:11Z</time>
      </trkpt>
      <trkpt lat="37.4013660" lon="-4.6955650">
        <ele>264.0</ele>
        <time>2021-12-29T12:51:12Z</time>
      </trkpt>
      <trkpt lat="37.4013760" lon="-4.6956130">
        <ele>264.0</ele>
        <time>2021-12-29T12:51:13Z</time>
      </trkpt>
      <trkpt lat="37.4013820" lon="-4.6956620">
        <ele>264.0</ele>
        <time>2021-12-29T12:51:14Z</time>
      </trkpt>
      <trkpt lat="37.4013890" lon="-4.6957100">
        <ele>264.0</ele>
        <time>2021-12-29T12:51:15Z</time>
      </trkpt>
      <trkpt lat="37.4014020" lon="-4.6957580">
        <ele>264.0</ele>
        <time>2021-12-29T12:51:16Z</time>
      </trkpt>
      <trkpt lat="37.4014080" lon="-4.6958050">
        <ele>264.0</ele>
        <time>2021-12-29T12:51:17Z</time>
      </trkpt>
      <trkpt lat="37.4014180" lon="-4.6958520">
        <ele>264.0</ele>
        <time>2021-12-29T12:51:18Z</time>
      </trkpt>
      <trkpt lat="37.4014240" lon="-4.6958980">
        <ele>264.0</ele>
        <time>2021-12-29T12:51:19Z</time>
      </trkpt>
      <trkpt lat="37.4014340" lon="-4.6959430">
        <ele>264.0</ele>
        <time>2021-12-29T12:51:20Z</time>
      </trkpt>
      <trkpt lat="37.4014400" lon="-4.6959880">
        <ele>264.0</ele>
        <time>2021-12-29T12:51:21Z</time>
      </trkpt>
      <trkpt lat="37.4014460" lon="-4.6960370">
        <ele>264.2</ele>
        <time>2021-12-29T12:51:22Z</time>
      </trkpt>
      <trkpt lat="37.4014560" lon="-4.6960830">
        <ele>264.2</ele>
        <time>2021-12-29T12:51:23Z</time>
      </trkpt>
      <trkpt lat="37.4014620" lon="-4.6961320">
        <ele>264.2</ele>
        <time>2021-12-29T12:51:24Z</time>
      </trkpt>
      <trkpt lat="37.4014690" lon="-4.6961780">
        <ele>264.2</ele>
        <time>2021-12-29T12:51:25Z</time>
      </trkpt>
      <trkpt lat="37.4014780" lon="-4.6962260">
        <ele>264.4</ele>
        <time>2021-12-29T12:51:26Z</time>
      </trkpt>
      <trkpt lat="37.4014850" lon="-4.6962770">
        <ele>264.4</ele>
        <time>2021-12-29T12:51:27Z</time>
      </trkpt>
      <trkpt lat="37.4014940" lon="-4.6963280">
        <ele>264.4</ele>
        <time>2021-12-29T12:51:28Z</time>
      </trkpt>
      <trkpt lat="37.4015010" lon="-4.6963800">
        <ele>264.4</ele>
        <time>2021-12-29T12:51:29Z</time>
      </trkpt>
      <trkpt lat="37.4015070" lon="-4.6964320">
        <ele>264.4</ele>
        <time>2021-12-29T12:51:30Z</time>
      </trkpt>
      <trkpt lat="37.4015170" lon="-4.6964830">
        <ele>264.4</ele>
        <time>2021-12-29T12:51:31Z</time>
      </trkpt>
      <trkpt lat="37.4015200" lon="-4.6965350">
        <ele>264.4</ele>
        <time>2021-12-29T12:51:32Z</time>
      </trkpt>
      <trkpt lat="37.4015260" lon="-4.6965870">
        <ele>264.2</ele>
        <time>2021-12-29T12:51:33Z</time>
      </trkpt>
      <trkpt lat="37.4015360" lon="-4.6966370">
        <ele>264.2</ele>
        <time>2021-12-29T12:51:34Z</time>
      </trkpt>
      <trkpt lat="37.4015390" lon="-4.6966800">
        <ele>264.2</ele>
        <time>2021-12-29T12:51:35Z</time>
      </trkpt>
      <trkpt lat="37.4015420" lon="-4.6967220">
        <ele>264.2</ele>
        <time>2021-12-29T12:51:36Z</time>
      </trkpt>
      <trkpt lat="37.4015460" lon="-4.6967650">
        <ele>264.2</ele>
        <time>2021-12-29T12:51:37Z</time>
      </trkpt>
      <trkpt lat="37.4015490" lon="-4.6968100">
        <ele>264.2</ele>
        <time>2021-12-29T12:51:38Z</time>
      </trkpt>
      <trkpt lat="37.4015550" lon="-4.6968550">
        <ele>264.2</ele>
        <time>2021-12-29T12:51:39Z</time>
      </trkpt>
      <trkpt lat="37.4015580" lon="-4.6968980">
        <ele>264.2</ele>
        <time>2021-12-29T12:51:40Z</time>
      </trkpt>
      <trkpt lat="37.4015620" lon="-4.6969450">
        <ele>264.2</ele>
        <time>2021-12-29T12:51:41Z</time>
      </trkpt>
      <trkpt lat="37.4015680" lon="-4.6969930">
        <ele>264.2</ele>
        <time>2021-12-29T12:51:42Z</time>
      </trkpt>
      <trkpt lat="37.4015780" lon="-4.6970400">
        <ele>264.2</ele>
        <time>2021-12-29T12:51:43Z</time>
      </trkpt>
      <trkpt lat="37.4015870" lon="-4.6970880">
        <ele>264.2</ele>
        <time>2021-12-29T12:51:44Z</time>
      </trkpt>
      <trkpt lat="37.4015940" lon="-4.6971370">
        <ele>264.4</ele>
        <time>2021-12-29T12:51:45Z</time>
      </trkpt>
      <trkpt lat="37.4015970" lon="-4.6971880">
        <ele>264.4</ele>
        <time>2021-12-29T12:51:46Z</time>
      </trkpt>
      <trkpt lat="37.4016000" lon="-4.6972360">
        <ele>264.4</ele>
        <time>2021-12-29T12:51:47Z</time>
      </trkpt>
      <trkpt lat="37.4016000" lon="-4.6972870">
        <ele>264.6</ele>
        <time>2021-12-29T12:51:48Z</time>
      </trkpt>
      <trkpt lat="37.4016030" lon="-4.6973370">
        <ele>264.6</ele>
        <time>2021-12-29T12:51:49Z</time>
      </trkpt>
      <trkpt lat="37.4016060" lon="-4.6973850">
        <ele>264.8</ele>
        <time>2021-12-29T12:51:50Z</time>
      </trkpt>
      <trkpt lat="37.4016060" lon="-4.6974340">
        <ele>264.8</ele>
        <time>2021-12-29T12:51:51Z</time>
      </trkpt>
      <trkpt lat="37.4016060" lon="-4.6974820">
        <ele>264.8</ele>
        <time>2021-12-29T12:51:52Z</time>
      </trkpt>
      <trkpt lat="37.4016060" lon="-4.6975300">
        <ele>264.8</ele>
        <time>2021-12-29T12:51:53Z</time>
      </trkpt>
      <trkpt lat="37.4016130" lon="-4.6975800">
        <ele>264.8</ele>
        <time>2021-12-29T12:51:54Z</time>
      </trkpt>
      <trkpt lat="37.4016160" lon="-4.6976300">
        <ele>264.8</ele>
        <time>2021-12-29T12:51:55Z</time>
      </trkpt>
      <trkpt lat="37.4016190" lon="-4.6976780">
        <ele>264.8</ele>
        <time>2021-12-29T12:51:56Z</time>
      </trkpt>
      <trkpt lat="37.4016220" lon="-4.6977250">
        <ele>265.0</ele>
        <time>2021-12-29T12:51:57Z</time>
      </trkpt>
      <trkpt lat="37.4016260" lon="-4.6977720">
        <ele>265.0</ele>
        <time>2021-12-29T12:51:58Z</time>
      </trkpt>
      <trkpt lat="37.4016260" lon="-4.6978200">
        <ele>265.0</ele>
        <time>2021-12-29T12:51:59Z</time>
      </trkpt>
      <trkpt lat="37.4016220" lon="-4.6978680">
        <ele>265.0</ele>
        <time>2021-12-29T12:52:00Z</time>
      </trkpt>
      <trkpt lat="37.4016220" lon="-4.6979130">
        <ele>265.2</ele>
        <time>2021-12-29T12:52:01Z</time>
      </trkpt>
      <trkpt lat="37.4016220" lon="-4.6979600">
        <ele>265.2</ele>
        <time>2021-12-29T12:52:02Z</time>
      </trkpt>
      <trkpt lat="37.4016220" lon="-4.6980030">
        <ele>265.2</ele>
        <time>2021-12-29T12:52:03Z</time>
      </trkpt>
      <trkpt lat="37.4016190" lon="-4.6980500">
        <ele>265.2</ele>
        <time>2021-12-29T12:52:04Z</time>
      </trkpt>
      <trkpt lat="37.4016220" lon="-4.6980970">
        <ele>265.2</ele>
        <time>2021-12-29T12:52:05Z</time>
      </trkpt>
      <trkpt lat="37.4016260" lon="-4.6981450">
        <ele>265.2</ele>
        <time>2021-12-29T12:52:06Z</time>
      </trkpt>
      <trkpt lat="37.4016260" lon="-4.6981940">
        <ele>265.2</ele>
        <time>2021-12-29T12:52:07Z</time>
      </trkpt>
      <trkpt lat="37.4016320" lon="-4.6982400">
        <ele>265.4</ele>
        <time>2021-12-29T12:52:08Z</time>
      </trkpt>
      <trkpt lat="37.4016260" lon="-4.6982850">
        <ele>265.4</ele>
        <time>2021-12-29T12:52:09Z</time>
      </trkpt>
      <trkpt lat="37.4016260" lon="-4.6983300">
        <ele>265.4</ele>
        <time>2021-12-29T12:52:10Z</time>
      </trkpt>
      <trkpt lat="37.4016260" lon="-4.6983730">
        <ele>265.4</ele>
        <time>2021-12-29T12:52:11Z</time>
      </trkpt>
      <trkpt lat="37.4016260" lon="-4.6984180">
        <ele>265.4</ele>
        <time>2021-12-29T12:52:12Z</time>
      </trkpt>
      <trkpt lat="37.4016260" lon="-4.6984650">
        <ele>265.4</ele>
        <time>2021-12-29T12:52:13Z</time>
      </trkpt>
      <trkpt lat="37.4016260" lon="-4.6985140">
        <ele>265.4</ele>
        <time>2021-12-29T12:52:14Z</time>
      </trkpt>
      <trkpt lat="37.4016260" lon="-4.6985620">
        <ele>265.4</ele>
        <time>2021-12-29T12:52:15Z</time>
      </trkpt>
      <trkpt lat="37.4016220" lon="-4.6986100">
        <ele>265.4</ele>
        <time>2021-12-29T12:52:16Z</time>
      </trkpt>
      <trkpt lat="37.4016220" lon="-4.6986600">
        <ele>265.4</ele>
        <time>2021-12-29T12:52:17Z</time>
      </trkpt>
      <trkpt lat="37.4016160" lon="-4.6987120">
        <ele>265.4</ele>
        <time>2021-12-29T12:52:18Z</time>
      </trkpt>
      <trkpt lat="37.4016130" lon="-4.6987620">
        <ele>265.4</ele>
        <time>2021-12-29T12:52:19Z</time>
      </trkpt>
      <trkpt lat="37.4016130" lon="-4.6988120">
        <ele>265.4</ele>
        <time>2021-12-29T12:52:20Z</time>
      </trkpt>
      <trkpt lat="37.4016060" lon="-4.6988620">
        <ele>265.4</ele>
        <time>2021-12-29T12:52:21Z</time>
      </trkpt>
      <trkpt lat="37.4016030" lon="-4.6989120">
        <ele>265.4</ele>
        <time>2021-12-29T12:52:22Z</time>
      </trkpt>
      <trkpt lat="37.4016030" lon="-4.6989630">
        <ele>265.4</ele>
        <time>2021-12-29T12:52:23Z</time>
      </trkpt>
      <trkpt lat="37.4016030" lon="-4.6990150">
        <ele>265.4</ele>
        <time>2021-12-29T12:52:24Z</time>
      </trkpt>
      <trkpt lat="37.4016030" lon="-4.6990670">
        <ele>265.4</ele>
        <time>2021-12-29T12:52:25Z</time>
      </trkpt>
      <trkpt lat="37.4016000" lon="-4.6991170">
        <ele>265.4</ele>
        <time>2021-12-29T12:52:26Z</time>
      </trkpt>
      <trkpt lat="37.4016000" lon="-4.6991670">
        <ele>265.4</ele>
        <time>2021-12-29T12:52:27Z</time>
      </trkpt>
      <trkpt lat="37.4016000" lon="-4.6992170">
        <ele>265.4</ele>
        <time>2021-12-29T12:52:28Z</time>
      </trkpt>
      <trkpt lat="37.4015970" lon="-4.6992680">
        <ele>265.6</ele>
        <time>2021-12-29T12:52:29Z</time>
      </trkpt>
      <trkpt lat="37.4015940" lon="-4.6993200">
        <ele>265.6</ele>
        <time>2021-12-29T12:52:30Z</time>
      </trkpt>
      <trkpt lat="37.4015940" lon="-4.6993750">
        <ele>265.6</ele>
        <time>2021-12-29T12:52:31Z</time>
      </trkpt>
      <trkpt lat="37.4015870" lon="-4.6994270">
        <ele>265.6</ele>
        <time>2021-12-29T12:52:32Z</time>
      </trkpt>
      <trkpt lat="37.4015870" lon="-4.6994770">
        <ele>265.6</ele>
        <time>2021-12-29T12:52:33Z</time>
      </trkpt>
      <trkpt lat="37.4015870" lon="-4.6995250">
        <ele>265.6</ele>
        <time>2021-12-29T12:52:34Z</time>
      </trkpt>
      <trkpt lat="37.4015870" lon="-4.6995720">
        <ele>265.6</ele>
        <time>2021-12-29T12:52:35Z</time>
      </trkpt>
      <trkpt lat="37.4015840" lon="-4.6996220">
        <ele>265.6</ele>
        <time>2021-12-29T12:52:36Z</time>
      </trkpt>
      <trkpt lat="37.4015840" lon="-4.6996720">
        <ele>265.6</ele>
        <time>2021-12-29T12:52:37Z</time>
      </trkpt>
      <trkpt lat="37.4015840" lon="-4.6997230">
        <ele>265.6</ele>
        <time>2021-12-29T12:52:38Z</time>
      </trkpt>
      <trkpt lat="37.4015840" lon="-4.6997750">
        <ele>265.6</ele>
        <time>2021-12-29T12:52:39Z</time>
      </trkpt>
      <trkpt lat="37.4015840" lon="-4.6998280">
        <ele>265.6</ele>
        <time>2021-12-29T12:52:40Z</time>
      </trkpt>
      <trkpt lat="37.4015840" lon="-4.6998840">
        <ele>265.6</ele>
        <time>2021-12-29T12:52:41Z</time>
      </trkpt>
      <trkpt lat="37.4015810" lon="-4.6999450">
        <ele>265.6</ele>
        <time>2021-12-29T12:52:42Z</time>
      </trkpt>
      <trkpt lat="37.4015780" lon="-4.6999860">
        <ele>265.6</ele>
        <time>2021-12-29T12:52:43Z</time>
      </trkpt>
      <trkpt lat="37.4015780" lon="-4.7000380">
        <ele>265.6</ele>
        <time>2021-12-29T12:52:44Z</time>
      </trkpt>
      <trkpt lat="37.4015740" lon="-4.7000900">
        <ele>265.6</ele>
        <time>2021-12-29T12:52:45Z</time>
      </trkpt>
      <trkpt lat="37.4015740" lon="-4.7001430">
        <ele>265.6</ele>
        <time>2021-12-29T12:52:46Z</time>
      </trkpt>
      <trkpt lat="37.4015650" lon="-4.7001970">
        <ele>265.6</ele>
        <time>2021-12-29T12:52:47Z</time>
      </trkpt>
      <trkpt lat="37.4015620" lon="-4.7002480">
        <ele>265.6</ele>
        <time>2021-12-29T12:52:48Z</time>
      </trkpt>
      <trkpt lat="37.4015620" lon="-4.7002980">
        <ele>265.4</ele>
        <time>2021-12-29T12:52:49Z</time>
      </trkpt>
      <trkpt lat="37.4015620" lon="-4.7003480">
        <ele>265.4</ele>
        <time>2021-12-29T12:52:50Z</time>
      </trkpt>
      <trkpt lat="37.4015620" lon="-4.7003980">
        <ele>265.4</ele>
        <time>2021-12-29T12:52:51Z</time>
      </trkpt>
      <trkpt lat="37.4015580" lon="-4.7004500">
        <ele>265.6</ele>
        <time>2021-12-29T12:52:52Z</time>
      </trkpt>
      <trkpt lat="37.4015580" lon="-4.7005000">
        <ele>265.6</ele>
        <time>2021-12-29T12:52:53Z</time>
      </trkpt>
      <trkpt lat="37.4015580" lon="-4.7005520">
        <ele>265.8</ele>
        <time>2021-12-29T12:52:54Z</time>
      </trkpt>
      <trkpt lat="37.4015550" lon="-4.7006050">
        <ele>265.8</ele>
        <time>2021-12-29T12:52:55Z</time>
      </trkpt>
      <trkpt lat="37.4015550" lon="-4.7006580">
        <ele>265.8</ele>
        <time>2021-12-29T12:52:56Z</time>
      </trkpt>
      <trkpt lat="37.4015490" lon="-4.7007150">
        <ele>265.8</ele>
        <time>2021-12-29T12:52:57Z</time>
      </trkpt>
      <trkpt lat="37.4015490" lon="-4.7007700">
        <ele>266.0</ele>
        <time>2021-12-29T12:52:58Z</time>
      </trkpt>
      <trkpt lat="37.4015460" lon="-4.7008230">
        <ele>266.0</ele>
        <time>2021-12-29T12:52:59Z</time>
      </trkpt>
      <trkpt lat="37.4015460" lon="-4.7008770">
        <ele>266.0</ele>
        <time>2021-12-29T12:53:00Z</time>
      </trkpt>
      <trkpt lat="37.4015460" lon="-4.7009320">
        <ele>266.2</ele>
        <time>2021-12-29T12:53:01Z</time>
      </trkpt>
      <trkpt lat="37.4015460" lon="-4.7009850">
        <ele>266.2</ele>
        <time>2021-12-29T12:53:02Z</time>
      </trkpt>
      <trkpt lat="37.4015460" lon="-4.7010400">
        <ele>266.2</ele>
        <time>2021-12-29T12:53:03Z</time>
      </trkpt>
      <trkpt lat="37.4015390" lon="-4.7010980">
        <ele>266.2</ele>
        <time>2021-12-29T12:53:04Z</time>
      </trkpt>
      <trkpt lat="37.4015360" lon="-4.7011600">
        <ele>266.2</ele>
        <time>2021-12-29T12:53:05Z</time>
      </trkpt>
      <trkpt lat="37.4015360" lon="-4.7012200">
        <ele>266.2</ele>
        <time>2021-12-29T12:53:06Z</time>
      </trkpt>
      <trkpt lat="37.4015360" lon="-4.7012750">
        <ele>266.2</ele>
        <time>2021-12-29T12:53:07Z</time>
      </trkpt>
      <trkpt lat="37.4015260" lon="-4.7013300">
        <ele>266.2</ele>
        <time>2021-12-29T12:53:08Z</time>
      </trkpt>
      <trkpt lat="37.4015230" lon="-4.7013820">
        <ele>266.2</ele>
        <time>2021-12-29T12:53:09Z</time>
      </trkpt>
      <trkpt lat="37.4015230" lon="-4.7014320">
        <ele>266.2</ele>
        <time>2021-12-29T12:53:10Z</time>
      </trkpt>
      <trkpt lat="37.4015200" lon="-4.7014850">
        <ele>266.2</ele>
        <time>2021-12-29T12:53:11Z</time>
      </trkpt>
      <trkpt lat="37.4015200" lon="-4.7015400">
        <ele>266.2</ele>
        <time>2021-12-29T12:53:12Z</time>
      </trkpt>
      <trkpt lat="37.4015170" lon="-4.7015950">
        <ele>266.2</ele>
        <time>2021-12-29T12:53:13Z</time>
      </trkpt>
      <trkpt lat="37.4015170" lon="-4.7016480">
        <ele>266.2</ele>
        <time>2021-12-29T12:53:14Z</time>
      </trkpt>
      <trkpt lat="37.4015170" lon="-4.7017020">
        <ele>266.2</ele>
        <time>2021-12-29T12:53:15Z</time>
      </trkpt>
      <trkpt lat="37.4015140" lon="-4.7017550">
        <ele>266.2</ele>
        <time>2021-12-29T12:53:16Z</time>
      </trkpt>
      <trkpt lat="37.4015070" lon="-4.7018060">
        <ele>266.2</ele>
        <time>2021-12-29T12:53:17Z</time>
      </trkpt>
      <trkpt lat="37.4015070" lon="-4.7018600">
        <ele>266.0</ele>
        <time>2021-12-29T12:53:18Z</time>
      </trkpt>
      <trkpt lat="37.4015070" lon="-4.7019130">
        <ele>266.0</ele>
        <time>2021-12-29T12:53:19Z</time>
      </trkpt>
      <trkpt lat="37.4015040" lon="-4.7019670">
        <ele>266.0</ele>
        <time>2021-12-29T12:53:20Z</time>
      </trkpt>
      <trkpt lat="37.4015010" lon="-4.7020250">
        <ele>266.0</ele>
        <time>2021-12-29T12:53:21Z</time>
      </trkpt>
      <trkpt lat="37.4014980" lon="-4.7020850">
        <ele>266.0</ele>
        <time>2021-12-29T12:53:22Z</time>
      </trkpt>
      <trkpt lat="37.4014980" lon="-4.7021450">
        <ele>266.2</ele>
        <time>2021-12-29T12:53:23Z</time>
      </trkpt>
      <trkpt lat="37.4014980" lon="-4.7022050">
        <ele>266.2</ele>
        <time>2021-12-29T12:53:24Z</time>
      </trkpt>
      <trkpt lat="37.4014980" lon="-4.7022670">
        <ele>266.2</ele>
        <time>2021-12-29T12:53:25Z</time>
      </trkpt>
      <trkpt lat="37.4014940" lon="-4.7023270">
        <ele>266.2</ele>
        <time>2021-12-29T12:53:26Z</time>
      </trkpt>
      <trkpt lat="37.4014940" lon="-4.7023900">
        <ele>266.2</ele>
        <time>2021-12-29T12:53:27Z</time>
      </trkpt>
      <trkpt lat="37.4014880" lon="-4.7024520">
        <ele>266.2</ele>
        <time>2021-12-29T12:53:28Z</time>
      </trkpt>
      <trkpt lat="37.4014850" lon="-4.7025150">
        <ele>266.2</ele>
        <time>2021-12-29T12:53:29Z</time>
      </trkpt>
      <trkpt lat="37.4014820" lon="-4.7025730">
        <ele>266.2</ele>
        <time>2021-12-29T12:53:30Z</time>
      </trkpt>
      <trkpt lat="37.4014820" lon="-4.7026330">
        <ele>266.2</ele>
        <time>2021-12-29T12:53:31Z</time>
      </trkpt>
      <trkpt lat="37.4014780" lon="-4.7026940">
        <ele>266.2</ele>
        <time>2021-12-29T12:53:32Z</time>
      </trkpt>
      <trkpt lat="37.4014750" lon="-4.7027550">
        <ele>266.2</ele>
        <time>2021-12-29T12:53:33Z</time>
      </trkpt>
      <trkpt lat="37.4014750" lon="-4.7028150">
        <ele>266.0</ele>
        <time>2021-12-29T12:53:34Z</time>
      </trkpt>
      <trkpt lat="37.4014690" lon="-4.7028760">
        <ele>266.0</ele>
        <time>2021-12-29T12:53:35Z</time>
      </trkpt>
      <trkpt lat="37.4014660" lon="-4.7029370">
        <ele>266.0</ele>
        <time>2021-12-29T12:53:36Z</time>
      </trkpt>
      <trkpt lat="37.4014660" lon="-4.7029970">
        <ele>266.0</ele>
        <time>2021-12-29T12:53:37Z</time>
      </trkpt>
      <trkpt lat="37.4014620" lon="-4.7030570">
        <ele>266.0</ele>
        <time>2021-12-29T12:53:38Z</time>
      </trkpt>
      <trkpt lat="37.4014620" lon="-4.7031160">
        <ele>266.0</ele>
        <time>2021-12-29T12:53:39Z</time>
      </trkpt>
      <trkpt lat="37.4014590" lon="-4.7031750">
        <ele>266.0</ele>
        <time>2021-12-29T12:53:40Z</time>
      </trkpt>
      <trkpt lat="37.4014560" lon="-4.7032330">
        <ele>266.2</ele>
        <time>2021-12-29T12:53:41Z</time>
      </trkpt>
      <trkpt lat="37.4014500" lon="-4.7032930">
        <ele>266.2</ele>
        <time>2021-12-29T12:53:42Z</time>
      </trkpt>
      <trkpt lat="37.4014500" lon="-4.7033540">
        <ele>266.2</ele>
        <time>2021-12-29T12:53:43Z</time>
      </trkpt>
      <trkpt lat="37.4014460" lon="-4.7034120">
        <ele>266.4</ele>
        <time>2021-12-29T12:53:44Z</time>
      </trkpt>
      <trkpt lat="37.4014430" lon="-4.7034700">
        <ele>266.4</ele>
        <time>2021-12-29T12:53:45Z</time>
      </trkpt>
      <trkpt lat="37.4014430" lon="-4.7035260">
        <ele>266.4</ele>
        <time>2021-12-29T12:53:46Z</time>
      </trkpt>
      <trkpt lat="37.4014430" lon="-4.7035820">
        <ele>266.4</ele>
        <time>2021-12-29T12:53:47Z</time>
      </trkpt>
      <trkpt lat="37.4014400" lon="-4.7036350">
        <ele>266.4</ele>
        <time>2021-12-29T12:53:48Z</time>
      </trkpt>
      <trkpt lat="37.4014370" lon="-4.7036880">
        <ele>266.2</ele>
        <time>2021-12-29T12:53:49Z</time>
      </trkpt>
      <trkpt lat="37.4014340" lon="-4.7037440">
        <ele>266.2</ele>
        <time>2021-12-29T12:53:50Z</time>
      </trkpt>
      <trkpt lat="37.4014270" lon="-4.7037970">
        <ele>266.2</ele>
        <time>2021-12-29T12:53:51Z</time>
      </trkpt>
      <trkpt lat="37.4014270" lon="-4.7038550">
        <ele>266.2</ele>
        <time>2021-12-29T12:53:52Z</time>
      </trkpt>
      <trkpt lat="37.4014270" lon="-4.7039100">
        <ele>266.2</ele>
        <time>2021-12-29T12:53:53Z</time>
      </trkpt>
      <trkpt lat="37.4014240" lon="-4.7039630">
        <ele>266.2</ele>
        <time>2021-12-29T12:53:54Z</time>
      </trkpt>
      <trkpt lat="37.4014180" lon="-4.7040200">
        <ele>266.2</ele>
        <time>2021-12-29T12:53:55Z</time>
      </trkpt>
      <trkpt lat="37.4014180" lon="-4.7040750">
        <ele>266.2</ele>
        <time>2021-12-29T12:53:56Z</time>
      </trkpt>
      <trkpt lat="37.4014140" lon="-4.7041320">
        <ele>266.0</ele>
        <time>2021-12-29T12:53:57Z</time>
      </trkpt>
      <trkpt lat="37.4014080" lon="-4.7041880">
        <ele>266.2</ele>
        <time>2021-12-29T12:53:58Z</time>
      </trkpt>
      <trkpt lat="37.4014080" lon="-4.7042450">
        <ele>266.2</ele>
        <time>2021-12-29T12:53:59Z</time>
      </trkpt>
      <trkpt lat="37.4014080" lon="-4.7042980">
        <ele>266.2</ele>
        <time>2021-12-29T12:54:00Z</time>
      </trkpt>
      <trkpt lat="37.4014050" lon="-4.7043530">
        <ele>266.2</ele>
        <time>2021-12-29T12:54:01Z</time>
      </trkpt>
      <trkpt lat="37.4014050" lon="-4.7044080">
        <ele>266.0</ele>
        <time>2021-12-29T12:54:02Z</time>
      </trkpt>
      <trkpt lat="37.4014020" lon="-4.7044670">
        <ele>266.0</ele>
        <time>2021-12-29T12:54:03Z</time>
      </trkpt>
      <trkpt lat="37.4014020" lon="-4.7045230">
        <ele>266.0</ele>
        <time>2021-12-29T12:54:04Z</time>
      </trkpt>
      <trkpt lat="37.4013980" lon="-4.7045850">
        <ele>266.0</ele>
        <time>2021-12-29T12:54:05Z</time>
      </trkpt>
      <trkpt lat="37.4013980" lon="-4.7046450">
        <ele>266.0</ele>
        <time>2021-12-29T12:54:06Z</time>
      </trkpt>
      <trkpt lat="37.4013980" lon="-4.7047000">
        <ele>266.0</ele>
        <time>2021-12-29T12:54:07Z</time>
      </trkpt>
      <trkpt lat="37.4013980" lon="-4.7047570">
        <ele>266.0</ele>
        <time>2021-12-29T12:54:08Z</time>
      </trkpt>
      <trkpt lat="37.4013950" lon="-4.7048120">
        <ele>266.0</ele>
        <time>2021-12-29T12:54:09Z</time>
      </trkpt>
      <trkpt lat="37.4013950" lon="-4.7048660">
        <ele>266.0</ele>
        <time>2021-12-29T12:54:10Z</time>
      </trkpt>
      <trkpt lat="37.4013950" lon="-4.7049230">
        <ele>266.0</ele>
        <time>2021-12-29T12:54:11Z</time>
      </trkpt>
      <trkpt lat="37.4013890" lon="-4.7049800">
        <ele>266.0</ele>
        <time>2021-12-29T12:54:12Z</time>
      </trkpt>
      <trkpt lat="37.4013890" lon="-4.7050420">
        <ele>266.0</ele>
        <time>2021-12-29T12:54:13Z</time>
      </trkpt>
      <trkpt lat="37.4013860" lon="-4.7051020">
        <ele>265.8</ele>
        <time>2021-12-29T12:54:14Z</time>
      </trkpt>
      <trkpt lat="37.4013820" lon="-4.7051620">
        <ele>265.8</ele>
        <time>2021-12-29T12:54:15Z</time>
      </trkpt>
      <trkpt lat="37.4013820" lon="-4.7052220">
        <ele>265.8</ele>
        <time>2021-12-29T12:54:16Z</time>
      </trkpt>
      <trkpt lat="37.4013790" lon="-4.7052820">
        <ele>265.8</ele>
        <time>2021-12-29T12:54:17Z</time>
      </trkpt>
      <trkpt lat="37.4013790" lon="-4.7053420">
        <ele>265.6</ele>
        <time>2021-12-29T12:54:18Z</time>
      </trkpt>
      <trkpt lat="37.4013760" lon="-4.7054020">
        <ele>265.6</ele>
        <time>2021-12-29T12:54:19Z</time>
      </trkpt>
      <trkpt lat="37.4013700" lon="-4.7054640">
        <ele>265.6</ele>
        <time>2021-12-29T12:54:20Z</time>
      </trkpt>
      <trkpt lat="37.4013660" lon="-4.7055240">
        <ele>265.4</ele>
        <time>2021-12-29T12:54:21Z</time>
      </trkpt>
      <trkpt lat="37.4013660" lon="-4.7055850">
        <ele>265.4</ele>
        <time>2021-12-29T12:54:22Z</time>
      </trkpt>
      <trkpt lat="37.4013630" lon="-4.7056460">
        <ele>265.4</ele>
        <time>2021-12-29T12:54:23Z</time>
      </trkpt>
      <trkpt lat="37.4013600" lon="-4.7057080">
        <ele>265.4</ele>
        <time>2021-12-29T12:54:24Z</time>
      </trkpt>
      <trkpt lat="37.4013570" lon="-4.7057700">
        <ele>265.4</ele>
        <time>2021-12-29T12:54:25Z</time>
      </trkpt>
      <trkpt lat="37.4013570" lon="-4.7058300">
        <ele>265.4</ele>
        <time>2021-12-29T12:54:26Z</time>
      </trkpt>
      <trkpt lat="37.4013500" lon="-4.7058900">
        <ele>265.4</ele>
        <time>2021-12-29T12:54:27Z</time>
      </trkpt>
      <trkpt lat="37.4013500" lon="-4.7059500">
        <ele>265.2</ele>
        <time>2021-12-29T12:54:28Z</time>
      </trkpt>
      <trkpt lat="37.4013500" lon="-4.7060080">
        <ele>265.2</ele>
        <time>2021-12-29T12:54:29Z</time>
      </trkpt>
      <trkpt lat="37.4013470" lon="-4.7060650">
        <ele>265.0</ele>
        <time>2021-12-29T12:54:30Z</time>
      </trkpt>
      <trkpt lat="37.4013440" lon="-4.7061200">
        <ele>265.0</ele>
        <time>2021-12-29T12:54:31Z</time>
      </trkpt>
      <trkpt lat="37.4013410" lon="-4.7061720">
        <ele>265.0</ele>
        <time>2021-12-29T12:54:32Z</time>
      </trkpt>
      <trkpt lat="37.4013380" lon="-4.7062240">
        <ele>265.0</ele>
        <time>2021-12-29T12:54:33Z</time>
      </trkpt>
      <trkpt lat="37.4013280" lon="-4.7062720">
        <ele>265.0</ele>
        <time>2021-12-29T12:54:34Z</time>
      </trkpt>
      <trkpt lat="37.4013220" lon="-4.7063180">
        <ele>265.0</ele>
        <time>2021-12-29T12:54:35Z</time>
      </trkpt>
      <trkpt lat="37.4013060" lon="-4.7063660">
        <ele>264.8</ele>
        <time>2021-12-29T12:54:36Z</time>
      </trkpt>
      <trkpt lat="37.4012960" lon="-4.7064130">
        <ele>264.8</ele>
        <time>2021-12-29T12:54:37Z</time>
      </trkpt>
      <trkpt lat="37.4012830" lon="-4.7064600">
        <ele>264.6</ele>
        <time>2021-12-29T12:54:38Z</time>
      </trkpt>
      <trkpt lat="37.4012670" lon="-4.7065030">
        <ele>264.6</ele>
        <time>2021-12-29T12:54:39Z</time>
      </trkpt>
      <trkpt lat="37.4012480" lon="-4.7065440">
        <ele>264.6</ele>
        <time>2021-12-29T12:54:40Z</time>
      </trkpt>
      <trkpt lat="37.4012350" lon="-4.7065820">
        <ele>264.6</ele>
        <time>2021-12-29T12:54:41Z</time>
      </trkpt>
      <trkpt lat="37.4012190" lon="-4.7066160">
        <ele>264.4</ele>
        <time>2021-12-29T12:54:42Z</time>
      </trkpt>
      <trkpt lat="37.4012060" lon="-4.7066550">
        <ele>264.4</ele>
        <time>2021-12-29T12:54:43Z</time>
      </trkpt>
      <trkpt lat="37.4012000" lon="-4.7066950">
        <ele>264.6</ele>
        <time>2021-12-29T12:54:44Z</time>
      </trkpt>
      <trkpt lat="37.4011900" lon="-4.7067380">
        <ele>264.6</ele>
        <time>2021-12-29T12:54:45Z</time>
      </trkpt>
      <trkpt lat="37.4011870" lon="-4.7067800">
        <ele>264.6</ele>
        <time>2021-12-29T12:54:46Z</time>
      </trkpt>
      <trkpt lat="37.4011810" lon="-4.7068250">
        <ele>264.6</ele>
        <time>2021-12-29T12:54:47Z</time>
      </trkpt>
      <trkpt lat="37.4011810" lon="-4.7068720">
        <ele>264.6</ele>
        <time>2021-12-29T12:54:48Z</time>
      </trkpt>
      <trkpt lat="37.4011840" lon="-4.7069180">
        <ele>264.6</ele>
        <time>2021-12-29T12:54:49Z</time>
      </trkpt>
      <trkpt lat="37.4011840" lon="-4.7069700">
        <ele>264.4</ele>
        <time>2021-12-29T12:54:50Z</time>
      </trkpt>
      <trkpt lat="37.4011840" lon="-4.7070200">
        <ele>264.4</ele>
        <time>2021-12-29T12:54:51Z</time>
      </trkpt>
      <trkpt lat="37.4011870" lon="-4.7070660">
        <ele>264.4</ele>
        <time>2021-12-29T12:54:52Z</time>
      </trkpt>
      <trkpt lat="37.4011870" lon="-4.7071170">
        <ele>264.4</ele>
        <time>2021-12-29T12:54:53Z</time>
      </trkpt>
      <trkpt lat="37.4011900" lon="-4.7071670">
        <ele>264.4</ele>
        <time>2021-12-29T12:54:54Z</time>
      </trkpt>
      <trkpt lat="37.4011900" lon="-4.7072180">
        <ele>264.4</ele>
        <time>2021-12-29T12:54:55Z</time>
      </trkpt>
      <trkpt lat="37.4011900" lon="-4.7072720">
        <ele>264.4</ele>
        <time>2021-12-29T12:54:56Z</time>
      </trkpt>
      <trkpt lat="37.4011970" lon="-4.7073270">
        <ele>264.4</ele>
        <time>2021-12-29T12:54:57Z</time>
      </trkpt>
      <trkpt lat="37.4011970" lon="-4.7073800">
        <ele>264.4</ele>
        <time>2021-12-29T12:54:58Z</time>
      </trkpt>
      <trkpt lat="37.4012000" lon="-4.7074330">
        <ele>264.4</ele>
        <time>2021-12-29T12:54:59Z</time>
      </trkpt>
      <trkpt lat="37.4012030" lon="-4.7074850">
        <ele>264.4</ele>
        <time>2021-12-29T12:55:00Z</time>
      </trkpt>
      <trkpt lat="37.4012060" lon="-4.7075350">
        <ele>264.4</ele>
        <time>2021-12-29T12:55:01Z</time>
      </trkpt>
      <trkpt lat="37.4012100" lon="-4.7075840">
        <ele>264.2</ele>
        <time>2021-12-29T12:55:02Z</time>
      </trkpt>
      <trkpt lat="37.4012160" lon="-4.7076320">
        <ele>264.2</ele>
        <time>2021-12-29T12:55:03Z</time>
      </trkpt>
      <trkpt lat="37.4012220" lon="-4.7076840">
        <ele>264.2</ele>
        <time>2021-12-29T12:55:04Z</time>
      </trkpt>
      <trkpt lat="37.4012260" lon="-4.7077350">
        <ele>264.2</ele>
        <time>2021-12-29T12:55:05Z</time>
      </trkpt>
      <trkpt lat="37.4012290" lon="-4.7077830">
        <ele>264.2</ele>
        <time>2021-12-29T12:55:06Z</time>
      </trkpt>
      <trkpt lat="37.4012380" lon="-4.7078330">
        <ele>264.2</ele>
        <time>2021-12-29T12:55:07Z</time>
      </trkpt>
      <trkpt lat="37.4012420" lon="-4.7078800">
        <ele>264.2</ele>
        <time>2021-12-29T12:55:08Z</time>
      </trkpt>
      <trkpt lat="37.4012450" lon="-4.7079270">
        <ele>264.4</ele>
        <time>2021-12-29T12:55:09Z</time>
      </trkpt>
      <trkpt lat="37.4012480" lon="-4.7079740">
        <ele>264.4</ele>
        <time>2021-12-29T12:55:10Z</time>
      </trkpt>
      <trkpt lat="37.4012580" lon="-4.7080200">
        <ele>264.6</ele>
        <time>2021-12-29T12:55:11Z</time>
      </trkpt>
      <trkpt lat="37.4012610" lon="-4.7080780">
        <ele>264.6</ele>
        <time>2021-12-29T12:55:12Z</time>
      </trkpt>
      <trkpt lat="37.4012610" lon="-4.7081200">
        <ele>264.6</ele>
        <time>2021-12-29T12:55:13Z</time>
      </trkpt>
      <trkpt lat="37.4012640" lon="-4.7081720">
        <ele>264.6</ele>
        <time>2021-12-29T12:55:14Z</time>
      </trkpt>
      <trkpt lat="37.4012670" lon="-4.7082230">
        <ele>264.6</ele>
        <time>2021-12-29T12:55:15Z</time>
      </trkpt>
      <trkpt lat="37.4012700" lon="-4.7082750">
        <ele>264.4</ele>
        <time>2021-12-29T12:55:16Z</time>
      </trkpt>
      <trkpt lat="37.4012700" lon="-4.7083300">
        <ele>264.4</ele>
        <time>2021-12-29T12:55:17Z</time>
      </trkpt>
      <trkpt lat="37.4012700" lon="-4.7083850">
        <ele>264.4</ele>
        <time>2021-12-29T12:55:18Z</time>
      </trkpt>
      <trkpt lat="37.4012670" lon="-4.7084380">
        <ele>264.4</ele>
        <time>2021-12-29T12:55:19Z</time>
      </trkpt>
      <trkpt lat="37.4012640" lon="-4.7084900">
        <ele>264.4</ele>
        <time>2021-12-29T12:55:20Z</time>
      </trkpt>
      <trkpt lat="37.4012640" lon="-4.7085420">
        <ele>264.4</ele>
        <time>2021-12-29T12:55:21Z</time>
      </trkpt>
      <trkpt lat="37.4012610" lon="-4.7085950">
        <ele>264.2</ele>
        <time>2021-12-29T12:55:22Z</time>
      </trkpt>
      <trkpt lat="37.4012580" lon="-4.7086450">
        <ele>264.2</ele>
        <time>2021-12-29T12:55:23Z</time>
      </trkpt>
      <trkpt lat="37.4012510" lon="-4.7086920">
        <ele>264.2</ele>
        <time>2021-12-29T12:55:24Z</time>
      </trkpt>
      <trkpt lat="37.4012450" lon="-4.7087360">
        <ele>264.2</ele>
        <time>2021-12-29T12:55:25Z</time>
      </trkpt>
      <trkpt lat="37.4012420" lon="-4.7087760">
        <ele>264.2</ele>
        <time>2021-12-29T12:55:26Z</time>
      </trkpt>
      <trkpt lat="37.4012290" lon="-4.7088130">
        <ele>264.2</ele>
        <time>2021-12-29T12:55:27Z</time>
      </trkpt>
      <trkpt lat="37.4012220" lon="-4.7088500">
        <ele>264.2</ele>
        <time>2021-12-29T12:55:28Z</time>
      </trkpt>
      <trkpt lat="37.4012100" lon="-4.7088870">
        <ele>264.2</ele>
        <time>2021-12-29T12:55:29Z</time>
      </trkpt>
      <trkpt lat="37.4012060" lon="-4.7089180">
        <ele>264.0</ele>
        <time>2021-12-29T12:55:30Z</time>
      </trkpt>
      <trkpt lat="37.4012060" lon="-4.7089450">
        <ele>264.0</ele>
        <time>2021-12-29T12:55:31Z</time>
      </trkpt>
      <trkpt lat="37.4012060" lon="-4.7089680">
        <ele>264.0</ele>
        <time>2021-12-29T12:55:32Z</time>
      </trkpt>
      <trkpt lat="37.4012060" lon="-4.7089680">
        <ele>264.0</ele>
        <time>2021-12-29T12:55:33Z</time>
      </trkpt>
      <trkpt lat="37.4012060" lon="-4.7090020">
        <ele>264.0</ele>
        <time>2021-12-29T12:55:34Z</time>
      </trkpt>
      <trkpt lat="37.4012060" lon="-4.7090020">
        <ele>264.2</ele>
        <time>2021-12-29T12:55:35Z</time>
      </trkpt>
      <trkpt lat="37.4012060" lon="-4.7090020">
        <ele>264.2</ele>
        <time>2021-12-29T12:55:36Z</time>
      </trkpt>
      <trkpt lat="37.4012060" lon="-4.7090020">
        <ele>264.2</ele>
        <time>2021-12-29T12:55:37Z</time>
      </trkpt>
      <trkpt lat="37.4012060" lon="-4.7090020">
        <ele>264.4</ele>
        <time>2021-12-29T12:55:38Z</time>
      </trkpt>
      <trkpt lat="37.4012060" lon="-4.7090020">
        <ele>264.4</ele>
        <time>2021-12-29T12:55:39Z</time>
      </trkpt>
      <trkpt lat="37.4012060" lon="-4.7090020">
        <ele>264.4</ele>
        <time>2021-12-29T13:02:29Z</time>
      </trkpt>
      <trkpt lat="37.4011460" lon="-4.7089230">
        <ele>266.2</ele>
        <time>2021-12-29T13:02:30Z</time>
      </trkpt>
      <trkpt lat="37.4011390" lon="-4.7089600">
        <ele>266.2</ele>
        <time>2021-12-29T13:02:31Z</time>
      </trkpt>
      <trkpt lat="37.4011360" lon="-4.7090000">
        <ele>266.0</ele>
        <time>2021-12-29T13:02:32Z</time>
      </trkpt>
      <trkpt lat="37.4011360" lon="-4.7090470">
        <ele>266.0</ele>
        <time>2021-12-29T13:02:33Z</time>
      </trkpt>
      <trkpt lat="37.4011390" lon="-4.7090950">
        <ele>266.0</ele>
        <time>2021-12-29T13:02:34Z</time>
      </trkpt>
      <trkpt lat="37.4011460" lon="-4.7091400">
        <ele>266.0</ele>
        <time>2021-12-29T13:02:35Z</time>
      </trkpt>
      <trkpt lat="37.4011460" lon="-4.7091920">
        <ele>266.0</ele>
        <time>2021-12-29T13:02:36Z</time>
      </trkpt>
      <trkpt lat="37.4011460" lon="-4.7092400">
        <ele>266.0</ele>
        <time>2021-12-29T13:02:37Z</time>
      </trkpt>
      <trkpt lat="37.4011460" lon="-4.7093180">
        <ele>266.0</ele>
        <time>2021-12-29T13:02:38Z</time>
      </trkpt>
      <trkpt lat="37.4011460" lon="-4.7093440">
        <ele>266.0</ele>
        <time>2021-12-29T13:02:39Z</time>
      </trkpt>
      <trkpt lat="37.4011460" lon="-4.7093970">
        <ele>266.0</ele>
        <time>2021-12-29T13:02:40Z</time>
      </trkpt>
      <trkpt lat="37.4011460" lon="-4.7094480">
        <ele>265.8</ele>
        <time>2021-12-29T13:02:41Z</time>
      </trkpt>
      <trkpt lat="37.4011490" lon="-4.7095020">
        <ele>265.8</ele>
        <time>2021-12-29T13:02:42Z</time>
      </trkpt>
      <trkpt lat="37.4011520" lon="-4.7095520">
        <ele>265.8</ele>
        <time>2021-12-29T13:02:43Z</time>
      </trkpt>
      <trkpt lat="37.4011490" lon="-4.7096070">
        <ele>265.8</ele>
        <time>2021-12-29T13:02:44Z</time>
      </trkpt>
      <trkpt lat="37.4011460" lon="-4.7096620">
        <ele>265.6</ele>
        <time>2021-12-29T13:02:45Z</time>
      </trkpt>
      <trkpt lat="37.4011420" lon="-4.7097180">
        <ele>265.6</ele>
        <time>2021-12-29T13:02:46Z</time>
      </trkpt>
      <trkpt lat="37.4011460" lon="-4.7097770">
        <ele>265.4</ele>
        <time>2021-12-29T13:02:47Z</time>
      </trkpt>
      <trkpt lat="37.4011490" lon="-4.7098380">
        <ele>265.4</ele>
        <time>2021-12-29T13:02:48Z</time>
      </trkpt>
      <trkpt lat="37.4011490" lon="-4.7099020">
        <ele>265.2</ele>
        <time>2021-12-29T13:02:49Z</time>
      </trkpt>
      <trkpt lat="37.4011490" lon="-4.7099650">
        <ele>265.2</ele>
        <time>2021-12-29T13:02:50Z</time>
      </trkpt>
      <trkpt lat="37.4011460" lon="-4.7100280">
        <ele>265.0</ele>
        <time>2021-12-29T13:02:51Z</time>
      </trkpt>
      <trkpt lat="37.4011420" lon="-4.7101080">
        <ele>265.0</ele>
        <time>2021-12-29T13:02:52Z</time>
      </trkpt>
      <trkpt lat="37.4011420" lon="-4.7101580">
        <ele>265.0</ele>
        <time>2021-12-29T13:02:53Z</time>
      </trkpt>
      <trkpt lat="37.4011420" lon="-4.7102200">
        <ele>264.8</ele>
        <time>2021-12-29T13:02:54Z</time>
      </trkpt>
      <trkpt lat="37.4011420" lon="-4.7102800">
        <ele>264.8</ele>
        <time>2021-12-29T13:02:55Z</time>
      </trkpt>
      <trkpt lat="37.4011420" lon="-4.7103400">
        <ele>264.6</ele>
        <time>2021-12-29T13:02:56Z</time>
      </trkpt>
      <trkpt lat="37.4011420" lon="-4.7104040">
        <ele>264.4</ele>
        <time>2021-12-29T13:02:57Z</time>
      </trkpt>
      <trkpt lat="37.4011420" lon="-4.7104640">
        <ele>264.2</ele>
        <time>2021-12-29T13:02:58Z</time>
      </trkpt>
      <trkpt lat="37.4011420" lon="-4.7105230">
        <ele>264.0</ele>
        <time>2021-12-29T13:02:59Z</time>
      </trkpt>
      <trkpt lat="37.4011390" lon="-4.7105820">
        <ele>263.8</ele>
        <time>2021-12-29T13:03:00Z</time>
      </trkpt>
      <trkpt lat="37.4011390" lon="-4.7106420">
        <ele>263.6</ele>
        <time>2021-12-29T13:03:01Z</time>
      </trkpt>
      <trkpt lat="37.4011390" lon="-4.7106980">
        <ele>263.6</ele>
        <time>2021-12-29T13:03:02Z</time>
      </trkpt>
      <trkpt lat="37.4011390" lon="-4.7107580">
        <ele>263.4</ele>
        <time>2021-12-29T13:03:03Z</time>
      </trkpt>
      <trkpt lat="37.4011390" lon="-4.7108150">
        <ele>263.4</ele>
        <time>2021-12-29T13:03:04Z</time>
      </trkpt>
      <trkpt lat="37.4011360" lon="-4.7108730">
        <ele>263.4</ele>
        <time>2021-12-29T13:03:05Z</time>
      </trkpt>
      <trkpt lat="37.4011360" lon="-4.7109330">
        <ele>263.4</ele>
        <time>2021-12-29T13:03:06Z</time>
      </trkpt>
      <trkpt lat="37.4011360" lon="-4.7109930">
        <ele>263.2</ele>
        <time>2021-12-29T13:03:07Z</time>
      </trkpt>
      <trkpt lat="37.4011360" lon="-4.7110550">
        <ele>263.2</ele>
        <time>2021-12-29T13:03:08Z</time>
      </trkpt>
      <trkpt lat="37.4011390" lon="-4.7111180">
        <ele>263.2</ele>
        <time>2021-12-29T13:03:09Z</time>
      </trkpt>
      <trkpt lat="37.4011390" lon="-4.7111780">
        <ele>263.2</ele>
        <time>2021-12-29T13:03:10Z</time>
      </trkpt>
      <trkpt lat="37.4011420" lon="-4.7112400">
        <ele>263.2</ele>
        <time>2021-12-29T13:03:11Z</time>
      </trkpt>
      <trkpt lat="37.4011420" lon="-4.7113030">
        <ele>263.2</ele>
        <time>2021-12-29T13:03:12Z</time>
      </trkpt>
      <trkpt lat="37.4011420" lon="-4.7113670">
        <ele>263.2</ele>
        <time>2021-12-29T13:03:13Z</time>
      </trkpt>
      <trkpt lat="37.4011460" lon="-4.7114270">
        <ele>263.2</ele>
        <time>2021-12-29T13:03:14Z</time>
      </trkpt>
      <trkpt lat="37.4011520" lon="-4.7114870">
        <ele>263.2</ele>
        <time>2021-12-29T13:03:15Z</time>
      </trkpt>
      <trkpt lat="37.4011580" lon="-4.7115470">
        <ele>263.2</ele>
        <time>2021-12-29T13:03:16Z</time>
      </trkpt>
      <trkpt lat="37.4011620" lon="-4.7116080">
        <ele>263.2</ele>
        <time>2021-12-29T13:03:17Z</time>
      </trkpt>
      <trkpt lat="37.4011650" lon="-4.7116700">
        <ele>263.0</ele>
        <time>2021-12-29T13:03:18Z</time>
      </trkpt>
      <trkpt lat="37.4011650" lon="-4.7117330">
        <ele>263.0</ele>
        <time>2021-12-29T13:03:19Z</time>
      </trkpt>
      <trkpt lat="37.4011680" lon="-4.7117980">
        <ele>263.0</ele>
        <time>2021-12-29T13:03:20Z</time>
      </trkpt>
      <trkpt lat="37.4011710" lon="-4.7118600">
        <ele>262.8</ele>
        <time>2021-12-29T13:03:21Z</time>
      </trkpt>
      <trkpt lat="37.4011780" lon="-4.7119360">
        <ele>262.8</ele>
        <time>2021-12-29T13:03:22Z</time>
      </trkpt>
      <trkpt lat="37.4011780" lon="-4.7119860">
        <ele>262.8</ele>
        <time>2021-12-29T13:03:23Z</time>
      </trkpt>
      <trkpt lat="37.4011810" lon="-4.7120500">
        <ele>262.8</ele>
        <time>2021-12-29T13:03:24Z</time>
      </trkpt>
      <trkpt lat="37.4011840" lon="-4.7121130">
        <ele>262.6</ele>
        <time>2021-12-29T13:03:25Z</time>
      </trkpt>
      <trkpt lat="37.4011840" lon="-4.7121780">
        <ele>262.6</ele>
        <time>2021-12-29T13:03:26Z</time>
      </trkpt>
      <trkpt lat="37.4011870" lon="-4.7122420">
        <ele>262.4</ele>
        <time>2021-12-29T13:03:27Z</time>
      </trkpt>
      <trkpt lat="37.4011900" lon="-4.7123030">
        <ele>262.4</ele>
        <time>2021-12-29T13:03:28Z</time>
      </trkpt>
      <trkpt lat="37.4011900" lon="-4.7123650">
        <ele>262.4</ele>
        <time>2021-12-29T13:03:29Z</time>
      </trkpt>
      <trkpt lat="37.4012000" lon="-4.7124280">
        <ele>262.4</ele>
        <time>2021-12-29T13:03:30Z</time>
      </trkpt>
      <trkpt lat="37.4012030" lon="-4.7124920">
        <ele>262.4</ele>
        <time>2021-12-29T13:03:31Z</time>
      </trkpt>
      <trkpt lat="37.4012100" lon="-4.7125570">
        <ele>262.4</ele>
        <time>2021-12-29T13:03:32Z</time>
      </trkpt>
      <trkpt lat="37.4012160" lon="-4.7126200">
        <ele>262.4</ele>
        <time>2021-12-29T13:03:33Z</time>
      </trkpt>
      <trkpt lat="37.4012190" lon="-4.7126850">
        <ele>262.4</ele>
        <time>2021-12-29T13:03:34Z</time>
      </trkpt>
      <trkpt lat="37.4012190" lon="-4.7127500">
        <ele>262.4</ele>
        <time>2021-12-29T13:03:35Z</time>
      </trkpt>
      <trkpt lat="37.4012220" lon="-4.7128120">
        <ele>262.4</ele>
        <time>2021-12-29T13:03:36Z</time>
      </trkpt>
      <trkpt lat="37.4012260" lon="-4.7128720">
        <ele>262.2</ele>
        <time>2021-12-29T13:03:37Z</time>
      </trkpt>
      <trkpt lat="37.4012290" lon="-4.7129340">
        <ele>262.0</ele>
        <time>2021-12-29T13:03:38Z</time>
      </trkpt>
      <trkpt lat="37.4012350" lon="-4.7129960">
        <ele>262.0</ele>
        <time>2021-12-29T13:03:39Z</time>
      </trkpt>
      <trkpt lat="37.4012420" lon="-4.7130580">
        <ele>261.8</ele>
        <time>2021-12-29T13:03:40Z</time>
      </trkpt>
      <trkpt lat="37.4012450" lon="-4.7131220">
        <ele>261.6</ele>
        <time>2021-12-29T13:03:41Z</time>
      </trkpt>
      <trkpt lat="37.4012480" lon="-4.7131870">
        <ele>261.4</ele>
        <time>2021-12-29T13:03:42Z</time>
      </trkpt>
      <trkpt lat="37.4012580" lon="-4.7132540">
        <ele>261.2</ele>
        <time>2021-12-29T13:03:43Z</time>
      </trkpt>
      <trkpt lat="37.4012610" lon="-4.7133350">
        <ele>261.2</ele>
        <time>2021-12-29T13:03:44Z</time>
      </trkpt>
      <trkpt lat="37.4012640" lon="-4.7133880">
        <ele>261.0</ele>
        <time>2021-12-29T13:03:45Z</time>
      </trkpt>
      <trkpt lat="37.4012670" lon="-4.7134520">
        <ele>261.0</ele>
        <time>2021-12-29T13:03:46Z</time>
      </trkpt>
      <trkpt lat="37.4012700" lon="-4.7135150">
        <ele>261.0</ele>
        <time>2021-12-29T13:03:47Z</time>
      </trkpt>
      <trkpt lat="37.4012770" lon="-4.7135780">
        <ele>260.8</ele>
        <time>2021-12-29T13:03:48Z</time>
      </trkpt>
      <trkpt lat="37.4012770" lon="-4.7136420">
        <ele>260.8</ele>
        <time>2021-12-29T13:03:49Z</time>
      </trkpt>
      <trkpt lat="37.4012800" lon="-4.7137180">
        <ele>260.8</ele>
        <time>2021-12-29T13:03:50Z</time>
      </trkpt>
      <trkpt lat="37.4012830" lon="-4.7137680">
        <ele>260.8</ele>
        <time>2021-12-29T13:03:51Z</time>
      </trkpt>
      <trkpt lat="37.4012860" lon="-4.7138320">
        <ele>261.0</ele>
        <time>2021-12-29T13:03:52Z</time>
      </trkpt>
      <trkpt lat="37.4012900" lon="-4.7138970">
        <ele>261.0</ele>
        <time>2021-12-29T13:03:53Z</time>
      </trkpt>
      <trkpt lat="37.4012960" lon="-4.7139620">
        <ele>261.0</ele>
        <time>2021-12-29T13:03:54Z</time>
      </trkpt>
      <trkpt lat="37.4012960" lon="-4.7140320">
        <ele>261.0</ele>
        <time>2021-12-29T13:03:55Z</time>
      </trkpt>
      <trkpt lat="37.4012990" lon="-4.7141000">
        <ele>261.0</ele>
        <time>2021-12-29T13:03:56Z</time>
      </trkpt>
      <trkpt lat="37.4012990" lon="-4.7141680">
        <ele>261.0</ele>
        <time>2021-12-29T13:03:57Z</time>
      </trkpt>
      <trkpt lat="37.4012990" lon="-4.7142330">
        <ele>260.8</ele>
        <time>2021-12-29T13:03:58Z</time>
      </trkpt>
      <trkpt lat="37.4013020" lon="-4.7142980">
        <ele>260.8</ele>
        <time>2021-12-29T13:03:59Z</time>
      </trkpt>
      <trkpt lat="37.4013060" lon="-4.7143620">
        <ele>260.8</ele>
        <time>2021-12-29T13:04:00Z</time>
      </trkpt>
      <trkpt lat="37.4013090" lon="-4.7144260">
        <ele>260.8</ele>
        <time>2021-12-29T13:04:01Z</time>
      </trkpt>
      <trkpt lat="37.4013150" lon="-4.7144920">
        <ele>260.8</ele>
        <time>2021-12-29T13:04:02Z</time>
      </trkpt>
      <trkpt lat="37.4013220" lon="-4.7145570">
        <ele>260.6</ele>
        <time>2021-12-29T13:04:03Z</time>
      </trkpt>
      <trkpt lat="37.4013220" lon="-4.7146240">
        <ele>260.6</ele>
        <time>2021-12-29T13:04:04Z</time>
      </trkpt>
      <trkpt lat="37.4013250" lon="-4.7146920">
        <ele>260.4</ele>
        <time>2021-12-29T13:04:05Z</time>
      </trkpt>
      <trkpt lat="37.4013340" lon="-4.7147720">
        <ele>260.4</ele>
        <time>2021-12-29T13:04:06Z</time>
      </trkpt>
      <trkpt lat="37.4013380" lon="-4.7148260">
        <ele>260.2</ele>
        <time>2021-12-29T13:04:07Z</time>
      </trkpt>
      <trkpt lat="37.4013410" lon="-4.7149070">
        <ele>260.2</ele>
        <time>2021-12-29T13:04:08Z</time>
      </trkpt>
      <trkpt lat="37.4013440" lon="-4.7149600">
        <ele>260.0</ele>
        <time>2021-12-29T13:04:09Z</time>
      </trkpt>
      <trkpt lat="37.4013470" lon="-4.7150280">
        <ele>259.8</ele>
        <time>2021-12-29T13:04:10Z</time>
      </trkpt>
      <trkpt lat="37.4013500" lon="-4.7151100">
        <ele>259.8</ele>
        <time>2021-12-29T13:04:11Z</time>
      </trkpt>
      <trkpt lat="37.4013570" lon="-4.7151650">
        <ele>259.6</ele>
        <time>2021-12-29T13:04:12Z</time>
      </trkpt>
      <trkpt lat="37.4013570" lon="-4.7152350">
        <ele>259.6</ele>
        <time>2021-12-29T13:04:13Z</time>
      </trkpt>
      <trkpt lat="37.4013600" lon="-4.7153040">
        <ele>259.6</ele>
        <time>2021-12-29T13:04:14Z</time>
      </trkpt>
      <trkpt lat="37.4013600" lon="-4.7153700">
        <ele>259.4</ele>
        <time>2021-12-29T13:04:15Z</time>
      </trkpt>
      <trkpt lat="37.4013630" lon="-4.7154380">
        <ele>259.4</ele>
        <time>2021-12-29T13:04:16Z</time>
      </trkpt>
      <trkpt lat="37.4013700" lon="-4.7155050">
        <ele>259.4</ele>
        <time>2021-12-29T13:04:17Z</time>
      </trkpt>
      <trkpt lat="37.4013760" lon="-4.7155750">
        <ele>259.6</ele>
        <time>2021-12-29T13:04:18Z</time>
      </trkpt>
      <trkpt lat="37.4013790" lon="-4.7156450">
        <ele>259.4</ele>
        <time>2021-12-29T13:04:19Z</time>
      </trkpt>
      <trkpt lat="37.4013860" lon="-4.7157300">
        <ele>259.4</ele>
        <time>2021-12-29T13:04:20Z</time>
      </trkpt>
      <trkpt lat="37.4013890" lon="-4.7158020">
        <ele>259.4</ele>
        <time>2021-12-29T13:04:21Z</time>
      </trkpt>
      <trkpt lat="37.4013890" lon="-4.7158600">
        <ele>259.4</ele>
        <time>2021-12-29T13:04:22Z</time>
      </trkpt>
      <trkpt lat="37.4013950" lon="-4.7159330">
        <ele>259.2</ele>
        <time>2021-12-29T13:04:23Z</time>
      </trkpt>
      <trkpt lat="37.4013980" lon="-4.7160170">
        <ele>259.2</ele>
        <time>2021-12-29T13:04:24Z</time>
      </trkpt>
      <trkpt lat="37.4014020" lon="-4.7160720">
        <ele>259.0</ele>
        <time>2021-12-29T13:04:25Z</time>
      </trkpt>
      <trkpt lat="37.4014020" lon="-4.7161400">
        <ele>259.0</ele>
        <time>2021-12-29T13:04:26Z</time>
      </trkpt>
      <trkpt lat="37.4014050" lon="-4.7162080">
        <ele>259.0</ele>
        <time>2021-12-29T13:04:27Z</time>
      </trkpt>
      <trkpt lat="37.4014080" lon="-4.7162750">
        <ele>259.0</ele>
        <time>2021-12-29T13:04:28Z</time>
      </trkpt>
      <trkpt lat="37.4014080" lon="-4.7163440">
        <ele>259.0</ele>
        <time>2021-12-29T13:04:29Z</time>
      </trkpt>
      <trkpt lat="37.4014180" lon="-4.7164270">
        <ele>258.8</ele>
        <time>2021-12-29T13:04:30Z</time>
      </trkpt>
      <trkpt lat="37.4014210" lon="-4.7164830">
        <ele>258.8</ele>
        <time>2021-12-29T13:04:31Z</time>
      </trkpt>
      <trkpt lat="37.4014240" lon="-4.7165520">
        <ele>258.8</ele>
        <time>2021-12-29T13:04:32Z</time>
      </trkpt>
      <trkpt lat="37.4014270" lon="-4.7166180">
        <ele>258.8</ele>
        <time>2021-12-29T13:04:33Z</time>
      </trkpt>
      <trkpt lat="37.4014270" lon="-4.7167000">
        <ele>258.8</ele>
        <time>2021-12-29T13:04:34Z</time>
      </trkpt>
      <trkpt lat="37.4014340" lon="-4.7167540">
        <ele>258.8</ele>
        <time>2021-12-29T13:04:35Z</time>
      </trkpt>
      <trkpt lat="37.4014370" lon="-4.7168170">
        <ele>258.8</ele>
        <time>2021-12-29T13:04:36Z</time>
      </trkpt>
      <trkpt lat="37.4014400" lon="-4.7168800">
        <ele>258.8</ele>
        <time>2021-12-29T13:04:37Z</time>
      </trkpt>
      <trkpt lat="37.4014430" lon="-4.7169420">
        <ele>258.6</ele>
        <time>2021-12-29T13:04:38Z</time>
      </trkpt>
      <trkpt lat="37.4014430" lon="-4.7170020">
        <ele>258.6</ele>
        <time>2021-12-29T13:04:39Z</time>
      </trkpt>
      <trkpt lat="37.4014460" lon="-4.7170650">
        <ele>258.6</ele>
        <time>2021-12-29T13:04:40Z</time>
      </trkpt>
      <trkpt lat="37.4014500" lon="-4.7171300">
        <ele>258.4</ele>
        <time>2021-12-29T13:04:41Z</time>
      </trkpt>
      <trkpt lat="37.4014500" lon="-4.7172080">
        <ele>258.2</ele>
        <time>2021-12-29T13:04:42Z</time>
      </trkpt>
      <trkpt lat="37.4014500" lon="-4.7172600">
        <ele>258.2</ele>
        <time>2021-12-29T13:04:43Z</time>
      </trkpt>
      <trkpt lat="37.4014500" lon="-4.7173270">
        <ele>258.0</ele>
        <time>2021-12-29T13:04:44Z</time>
      </trkpt>
      <trkpt lat="37.4014560" lon="-4.7173920">
        <ele>258.0</ele>
        <time>2021-12-29T13:04:45Z</time>
      </trkpt>
      <trkpt lat="37.4014620" lon="-4.7174580">
        <ele>258.0</ele>
        <time>2021-12-29T13:04:46Z</time>
      </trkpt>
      <trkpt lat="37.4014660" lon="-4.7175250">
        <ele>258.0</ele>
        <time>2021-12-29T13:04:47Z</time>
      </trkpt>
      <trkpt lat="37.4014750" lon="-4.7175920">
        <ele>257.8</ele>
        <time>2021-12-29T13:04:48Z</time>
      </trkpt>
      <trkpt lat="37.4014780" lon="-4.7176570">
        <ele>257.8</ele>
        <time>2021-12-29T13:04:49Z</time>
      </trkpt>
      <trkpt lat="37.4014820" lon="-4.7177220">
        <ele>257.8</ele>
        <time>2021-12-29T13:04:50Z</time>
      </trkpt>
      <trkpt lat="37.4014850" lon="-4.7178020">
        <ele>257.6</ele>
        <time>2021-12-29T13:04:51Z</time>
      </trkpt>
      <trkpt lat="37.4014880" lon="-4.7178680">
        <ele>257.6</ele>
        <time>2021-12-29T13:04:52Z</time>
      </trkpt>
      <trkpt lat="37.4014940" lon="-4.7179230">
        <ele>257.6</ele>
        <time>2021-12-29T13:04:53Z</time>
      </trkpt>
      <trkpt lat="37.4014980" lon="-4.7179930">
        <ele>257.4</ele>
        <time>2021-12-29T13:04:54Z</time>
      </trkpt>
      <trkpt lat="37.4015010" lon="-4.7180620">
        <ele>257.4</ele>
        <time>2021-12-29T13:04:55Z</time>
      </trkpt>
      <trkpt lat="37.4015040" lon="-4.7181320">
        <ele>257.2</ele>
        <time>2021-12-29T13:04:56Z</time>
      </trkpt>
      <trkpt lat="37.4015070" lon="-4.7182020">
        <ele>257.2</ele>
        <time>2021-12-29T13:04:57Z</time>
      </trkpt>
      <trkpt lat="37.4015140" lon="-4.7182720">
        <ele>257.0</ele>
        <time>2021-12-29T13:04:58Z</time>
      </trkpt>
      <trkpt lat="37.4015170" lon="-4.7183400">
        <ele>257.0</ele>
        <time>2021-12-29T13:04:59Z</time>
      </trkpt>
      <trkpt lat="37.4015170" lon="-4.7184200">
        <ele>256.8</ele>
        <time>2021-12-29T13:05:00Z</time>
      </trkpt>
      <trkpt lat="37.4015200" lon="-4.7184870">
        <ele>256.8</ele>
        <time>2021-12-29T13:05:01Z</time>
      </trkpt>
      <trkpt lat="37.4015230" lon="-4.7185370">
        <ele>256.8</ele>
        <time>2021-12-29T13:05:02Z</time>
      </trkpt>
      <trkpt lat="37.4015260" lon="-4.7186000">
        <ele>256.6</ele>
        <time>2021-12-29T13:05:03Z</time>
      </trkpt>
      <trkpt lat="37.4015330" lon="-4.7186620">
        <ele>256.4</ele>
        <time>2021-12-29T13:05:04Z</time>
      </trkpt>
      <trkpt lat="37.4015360" lon="-4.7187250">
        <ele>256.4</ele>
        <time>2021-12-29T13:05:05Z</time>
      </trkpt>
      <trkpt lat="37.4015420" lon="-4.7188000">
        <ele>256.4</ele>
        <time>2021-12-29T13:05:06Z</time>
      </trkpt>
      <trkpt lat="37.4015460" lon="-4.7188500">
        <ele>256.2</ele>
        <time>2021-12-29T13:05:07Z</time>
      </trkpt>
      <trkpt lat="37.4015490" lon="-4.7189130">
        <ele>256.2</ele>
        <time>2021-12-29T13:05:08Z</time>
      </trkpt>
      <trkpt lat="37.4015550" lon="-4.7189780">
        <ele>256.0</ele>
        <time>2021-12-29T13:05:09Z</time>
      </trkpt>
      <trkpt lat="37.4015580" lon="-4.7190550">
        <ele>256.0</ele>
        <time>2021-12-29T13:05:10Z</time>
      </trkpt>
      <trkpt lat="37.4015580" lon="-4.7191100">
        <ele>255.8</ele>
        <time>2021-12-29T13:05:11Z</time>
      </trkpt>
      <trkpt lat="37.4015620" lon="-4.7191750">
        <ele>255.8</ele>
        <time>2021-12-29T13:05:12Z</time>
      </trkpt>
      <trkpt lat="37.4015650" lon="-4.7192380">
        <ele>255.6</ele>
        <time>2021-12-29T13:05:13Z</time>
      </trkpt>
      <trkpt lat="37.4015650" lon="-4.7193030">
        <ele>255.6</ele>
        <time>2021-12-29T13:05:14Z</time>
      </trkpt>
      <trkpt lat="37.4015680" lon="-4.7193680">
        <ele>255.4</ele>
        <time>2021-12-29T13:05:15Z</time>
      </trkpt>
      <trkpt lat="37.4015780" lon="-4.7194320">
        <ele>255.4</ele>
        <time>2021-12-29T13:05:16Z</time>
      </trkpt>
      <trkpt lat="37.4015810" lon="-4.7194930">
        <ele>255.4</ele>
        <time>2021-12-29T13:05:17Z</time>
      </trkpt>
      <trkpt lat="37.4015840" lon="-4.7195550">
        <ele>255.2</ele>
        <time>2021-12-29T13:05:18Z</time>
      </trkpt>
      <trkpt lat="37.4015870" lon="-4.7196180">
        <ele>255.2</ele>
        <time>2021-12-29T13:05:19Z</time>
      </trkpt>
      <trkpt lat="37.4015870" lon="-4.7196830">
        <ele>255.0</ele>
        <time>2021-12-29T13:05:20Z</time>
      </trkpt>
      <trkpt lat="37.4015940" lon="-4.7197460">
        <ele>255.0</ele>
        <time>2021-12-29T13:05:21Z</time>
      </trkpt>
      <trkpt lat="37.4016000" lon="-4.7198250">
        <ele>255.0</ele>
        <time>2021-12-29T13:05:22Z</time>
      </trkpt>
      <trkpt lat="37.4016000" lon="-4.7198900">
        <ele>254.8</ele>
        <time>2021-12-29T13:05:23Z</time>
      </trkpt>
      <trkpt lat="37.4016030" lon="-4.7199440">
        <ele>254.8</ele>
        <time>2021-12-29T13:05:24Z</time>
      </trkpt>
      <trkpt lat="37.4016060" lon="-4.7200100">
        <ele>254.8</ele>
        <time>2021-12-29T13:05:25Z</time>
      </trkpt>
      <trkpt lat="37.4016130" lon="-4.7200750">
        <ele>254.8</ele>
        <time>2021-12-29T13:05:26Z</time>
      </trkpt>
      <trkpt lat="37.4016160" lon="-4.7201400">
        <ele>254.8</ele>
        <time>2021-12-29T13:05:27Z</time>
      </trkpt>
      <trkpt lat="37.4016190" lon="-4.7202200">
        <ele>254.6</ele>
        <time>2021-12-29T13:05:28Z</time>
      </trkpt>
      <trkpt lat="37.4016220" lon="-4.7202720">
        <ele>254.6</ele>
        <time>2021-12-29T13:05:29Z</time>
      </trkpt>
      <trkpt lat="37.4016260" lon="-4.7203400">
        <ele>254.4</ele>
        <time>2021-12-29T13:05:30Z</time>
      </trkpt>
      <trkpt lat="37.4016260" lon="-4.7204050">
        <ele>254.4</ele>
        <time>2021-12-29T13:05:31Z</time>
      </trkpt>
      <trkpt lat="37.4016350" lon="-4.7204730">
        <ele>254.2</ele>
        <time>2021-12-29T13:05:32Z</time>
      </trkpt>
      <trkpt lat="37.4016380" lon="-4.7205380">
        <ele>254.2</ele>
        <time>2021-12-29T13:05:33Z</time>
      </trkpt>
      <trkpt lat="37.4016420" lon="-4.7206050">
        <ele>254.0</ele>
        <time>2021-12-29T13:05:34Z</time>
      </trkpt>
      <trkpt lat="37.4016420" lon="-4.7206700">
        <ele>254.0</ele>
        <time>2021-12-29T13:05:35Z</time>
      </trkpt>
      <trkpt lat="37.4016480" lon="-4.7207460">
        <ele>254.0</ele>
        <time>2021-12-29T13:05:36Z</time>
      </trkpt>
      <trkpt lat="37.4016480" lon="-4.7207980">
        <ele>253.8</ele>
        <time>2021-12-29T13:05:37Z</time>
      </trkpt>
      <trkpt lat="37.4016540" lon="-4.7208620">
        <ele>253.8</ele>
        <time>2021-12-29T13:05:38Z</time>
      </trkpt>
      <trkpt lat="37.4016580" lon="-4.7209220">
        <ele>253.8</ele>
        <time>2021-12-29T13:05:39Z</time>
      </trkpt>
      <trkpt lat="37.4016580" lon="-4.7209840">
        <ele>253.6</ele>
        <time>2021-12-29T13:05:40Z</time>
      </trkpt>
      <trkpt lat="37.4016610" lon="-4.7210420">
        <ele>253.6</ele>
        <time>2021-12-29T13:05:41Z</time>
      </trkpt>
      <trkpt lat="37.4016670" lon="-4.7211000">
        <ele>253.6</ele>
        <time>2021-12-29T13:05:42Z</time>
      </trkpt>
      <trkpt lat="37.4016670" lon="-4.7211580">
        <ele>253.6</ele>
        <time>2021-12-29T13:05:43Z</time>
      </trkpt>
      <trkpt lat="37.4016740" lon="-4.7212170">
        <ele>253.4</ele>
        <time>2021-12-29T13:05:44Z</time>
      </trkpt>
      <trkpt lat="37.4016770" lon="-4.7212750">
        <ele>253.2</ele>
        <time>2021-12-29T13:05:45Z</time>
      </trkpt>
      <trkpt lat="37.4016800" lon="-4.7213340">
        <ele>253.2</ele>
        <time>2021-12-29T13:05:46Z</time>
      </trkpt>
      <trkpt lat="37.4016830" lon="-4.7213940">
        <ele>253.0</ele>
        <time>2021-12-29T13:05:47Z</time>
      </trkpt>
      <trkpt lat="37.4016830" lon="-4.7214530">
        <ele>252.8</ele>
        <time>2021-12-29T13:05:48Z</time>
      </trkpt>
      <trkpt lat="37.4016860" lon="-4.7215150">
        <ele>252.8</ele>
        <time>2021-12-29T13:05:49Z</time>
      </trkpt>
      <trkpt lat="37.4016930" lon="-4.7215750">
        <ele>252.8</ele>
        <time>2021-12-29T13:05:50Z</time>
      </trkpt>
      <trkpt lat="37.4016930" lon="-4.7216380">
        <ele>252.6</ele>
        <time>2021-12-29T13:05:51Z</time>
      </trkpt>
      <trkpt lat="37.4016960" lon="-4.7216980">
        <ele>252.6</ele>
        <time>2021-12-29T13:05:52Z</time>
      </trkpt>
      <trkpt lat="37.4016990" lon="-4.7217620">
        <ele>252.6</ele>
        <time>2021-12-29T13:05:53Z</time>
      </trkpt>
      <trkpt lat="37.4017020" lon="-4.7218230">
        <ele>252.6</ele>
        <time>2021-12-29T13:05:54Z</time>
      </trkpt>
      <trkpt lat="37.4017060" lon="-4.7218830">
        <ele>252.4</ele>
        <time>2021-12-29T13:05:55Z</time>
      </trkpt>
      <trkpt lat="37.4017060" lon="-4.7219450">
        <ele>252.2</ele>
        <time>2021-12-29T13:05:56Z</time>
      </trkpt>
      <trkpt lat="37.4017150" lon="-4.7220070">
        <ele>252.2</ele>
        <time>2021-12-29T13:05:57Z</time>
      </trkpt>
      <trkpt lat="37.4017150" lon="-4.7220650">
        <ele>252.0</ele>
        <time>2021-12-29T13:05:58Z</time>
      </trkpt>
      <trkpt lat="37.4017150" lon="-4.7221220">
        <ele>252.0</ele>
        <time>2021-12-29T13:05:59Z</time>
      </trkpt>
      <trkpt lat="37.4017180" lon="-4.7221780">
        <ele>251.8</ele>
        <time>2021-12-29T13:06:00Z</time>
      </trkpt>
      <trkpt lat="37.4017220" lon="-4.7222380">
        <ele>251.8</ele>
        <time>2021-12-29T13:06:01Z</time>
      </trkpt>
      <trkpt lat="37.4017220" lon="-4.7222970">
        <ele>251.8</ele>
        <time>2021-12-29T13:06:02Z</time>
      </trkpt>
      <trkpt lat="37.4017250" lon="-4.7223550">
        <ele>251.8</ele>
        <time>2021-12-29T13:06:03Z</time>
      </trkpt>
      <trkpt lat="37.4017280" lon="-4.7224150">
        <ele>251.8</ele>
        <time>2021-12-29T13:06:04Z</time>
      </trkpt>
      <trkpt lat="37.4017340" lon="-4.7224780">
        <ele>251.6</ele>
        <time>2021-12-29T13:06:05Z</time>
      </trkpt>
      <trkpt lat="37.4017410" lon="-4.7225380">
        <ele>251.6</ele>
        <time>2021-12-29T13:06:06Z</time>
      </trkpt>
      <trkpt lat="37.4017470" lon="-4.7225970">
        <ele>251.4</ele>
        <time>2021-12-29T13:06:07Z</time>
      </trkpt>
      <trkpt lat="37.4017630" lon="-4.7226530">
        <ele>251.4</ele>
        <time>2021-12-29T13:06:08Z</time>
      </trkpt>
      <trkpt lat="37.4017820" lon="-4.7227080">
        <ele>251.4</ele>
        <time>2021-12-29T13:06:09Z</time>
      </trkpt>
      <trkpt lat="37.4018020" lon="-4.7227620">
        <ele>251.2</ele>
        <time>2021-12-29T13:06:10Z</time>
      </trkpt>
      <trkpt lat="37.4018240" lon="-4.7228120">
        <ele>251.2</ele>
        <time>2021-12-29T13:06:11Z</time>
      </trkpt>
      <trkpt lat="37.4018460" lon="-4.7228580">
        <ele>251.2</ele>
        <time>2021-12-29T13:06:12Z</time>
      </trkpt>
      <trkpt lat="37.4018750" lon="-4.7229050">
        <ele>251.2</ele>
        <time>2021-12-29T13:06:13Z</time>
      </trkpt>
      <trkpt lat="37.4019010" lon="-4.7229480">
        <ele>251.2</ele>
        <time>2021-12-29T13:06:14Z</time>
      </trkpt>
      <trkpt lat="37.4019330" lon="-4.7229870">
        <ele>251.2</ele>
        <time>2021-12-29T13:06:15Z</time>
      </trkpt>
      <trkpt lat="37.4019620" lon="-4.7230200">
        <ele>251.2</ele>
        <time>2021-12-29T13:06:16Z</time>
      </trkpt>
      <trkpt lat="37.4019900" lon="-4.7230480">
        <ele>251.2</ele>
        <time>2021-12-29T13:06:17Z</time>
      </trkpt>
      <trkpt lat="37.4020190" lon="-4.7230750">
        <ele>251.0</ele>
        <time>2021-12-29T13:06:18Z</time>
      </trkpt>
      <trkpt lat="37.4020510" lon="-4.7231020">
        <ele>251.0</ele>
        <time>2021-12-29T13:06:19Z</time>
      </trkpt>
      <trkpt lat="37.4020770" lon="-4.7231330">
        <ele>251.0</ele>
        <time>2021-12-29T13:06:20Z</time>
      </trkpt>
      <trkpt lat="37.4021020" lon="-4.7231620">
        <ele>251.0</ele>
        <time>2021-12-29T13:06:21Z</time>
      </trkpt>
      <trkpt lat="37.4021250" lon="-4.7231900">
        <ele>251.0</ele>
        <time>2021-12-29T13:06:22Z</time>
      </trkpt>
      <trkpt lat="37.4021500" lon="-4.7232120">
        <ele>250.8</ele>
        <time>2021-12-29T13:06:23Z</time>
      </trkpt>
      <trkpt lat="37.4021700" lon="-4.7232300">
        <ele>250.8</ele>
        <time>2021-12-29T13:06:24Z</time>
      </trkpt>
      <trkpt lat="37.4021920" lon="-4.7232460">
        <ele>250.6</ele>
        <time>2021-12-29T13:06:25Z</time>
      </trkpt>
      <trkpt lat="37.4022110" lon="-4.7232650">
        <ele>250.6</ele>
        <time>2021-12-29T13:06:26Z</time>
      </trkpt>
      <trkpt lat="37.4022340" lon="-4.7232830">
        <ele>250.6</ele>
        <time>2021-12-29T13:06:27Z</time>
      </trkpt>
      <trkpt lat="37.4022590" lon="-4.7233030">
        <ele>250.6</ele>
        <time>2021-12-29T13:06:28Z</time>
      </trkpt>
      <trkpt lat="37.4022780" lon="-4.7233280">
        <ele>250.6</ele>
        <time>2021-12-29T13:06:29Z</time>
      </trkpt>
      <trkpt lat="37.4023010" lon="-4.7233530">
        <ele>250.4</ele>
        <time>2021-12-29T13:06:30Z</time>
      </trkpt>
      <trkpt lat="37.4023230" lon="-4.7233780">
        <ele>250.4</ele>
        <time>2021-12-29T13:06:31Z</time>
      </trkpt>
      <trkpt lat="37.4023490" lon="-4.7234040">
        <ele>250.2</ele>
        <time>2021-12-29T13:06:32Z</time>
      </trkpt>
      <trkpt lat="37.4023710" lon="-4.7234300">
        <ele>250.2</ele>
        <time>2021-12-29T13:06:33Z</time>
      </trkpt>
      <trkpt lat="37.4023970" lon="-4.7234580">
        <ele>250.0</ele>
        <time>2021-12-29T13:06:34Z</time>
      </trkpt>
      <trkpt lat="37.4024290" lon="-4.7234850">
        <ele>250.0</ele>
        <time>2021-12-29T13:06:35Z</time>
      </trkpt>
      <trkpt lat="37.4024540" lon="-4.7235120">
        <ele>250.0</ele>
        <time>2021-12-29T13:06:36Z</time>
      </trkpt>
      <trkpt lat="37.4024860" lon="-4.7235420">
        <ele>250.0</ele>
        <time>2021-12-29T13:06:37Z</time>
      </trkpt>
      <trkpt lat="37.4025120" lon="-4.7235720">
        <ele>250.0</ele>
        <time>2021-12-29T13:06:38Z</time>
      </trkpt>
      <trkpt lat="37.4025340" lon="-4.7235960">
        <ele>250.0</ele>
        <time>2021-12-29T13:06:39Z</time>
      </trkpt>
      <trkpt lat="37.4025660" lon="-4.7236180">
        <ele>250.0</ele>
        <time>2021-12-29T13:06:40Z</time>
      </trkpt>
      <trkpt lat="37.4025890" lon="-4.7236380">
        <ele>250.0</ele>
        <time>2021-12-29T13:06:41Z</time>
      </trkpt>
      <trkpt lat="37.4026110" lon="-4.7236580">
        <ele>249.8</ele>
        <time>2021-12-29T13:06:42Z</time>
      </trkpt>
      <trkpt lat="37.4026300" lon="-4.7236770">
        <ele>249.8</ele>
        <time>2021-12-29T13:06:43Z</time>
      </trkpt>
      <trkpt lat="37.4026460" lon="-4.7236930">
        <ele>249.8</ele>
        <time>2021-12-29T13:06:44Z</time>
      </trkpt>
      <trkpt lat="37.4026460" lon="-4.7236930">
        <ele>249.8</ele>
        <time>2021-12-29T13:06:45Z</time>
      </trkpt>
      <trkpt lat="37.4026460" lon="-4.7236930">
        <ele>249.8</ele>
        <time>2021-12-29T13:06:46Z</time>
      </trkpt>
      <trkpt lat="37.4026460" lon="-4.7236930">
        <ele>249.8</ele>
        <time>2021-12-29T13:06:47Z</time>
      </trkpt>
      <trkpt lat="37.4026460" lon="-4.7236930">
        <ele>249.8</ele>
        <time>2021-12-29T13:06:48Z</time>
      </trkpt>
      <trkpt lat="37.4026460" lon="-4.7236930">
        <ele>249.8</ele>
        <time>2021-12-29T13:06:49Z</time>
      </trkpt>
      <trkpt lat="37.4026460" lon="-4.7236930">
        <ele>249.8</ele>
        <time>2021-12-29T13:06:50Z</time>
      </trkpt>
      <trkpt lat="37.4026460" lon="-4.7236930">
        <ele>249.8</ele>
        <time>2021-12-29T13:07:13Z</time>
      </trkpt>
      <trkpt lat="37.4026880" lon="-4.7238850">
        <ele>248.6</ele>
        <time>2021-12-29T13:07:14Z</time>
      </trkpt>
      <trkpt lat="37.4026980" lon="-4.7239360">
        <ele>248.4</ele>
        <time>2021-12-29T13:07:15Z</time>
      </trkpt>
      <trkpt lat="37.4026980" lon="-4.7239900">
        <ele>248.4</ele>
        <time>2021-12-29T13:07:16Z</time>
      </trkpt>
      <trkpt lat="37.4027010" lon="-4.7240450">
        <ele>248.4</ele>
        <time>2021-12-29T13:07:17Z</time>
      </trkpt>
      <trkpt lat="37.4026980" lon="-4.7241040">
        <ele>248.4</ele>
        <time>2021-12-29T13:07:18Z</time>
      </trkpt>
      <trkpt lat="37.4026880" lon="-4.7241580">
        <ele>248.4</ele>
        <time>2021-12-29T13:07:19Z</time>
      </trkpt>
      <trkpt lat="37.4026750" lon="-4.7242150">
        <ele>248.4</ele>
        <time>2021-12-29T13:07:20Z</time>
      </trkpt>
      <trkpt lat="37.4026660" lon="-4.7242730">
        <ele>248.4</ele>
        <time>2021-12-29T13:07:21Z</time>
      </trkpt>
      <trkpt lat="37.4026500" lon="-4.7243350">
        <ele>248.4</ele>
        <time>2021-12-29T13:07:22Z</time>
      </trkpt>
      <trkpt lat="37.4026370" lon="-4.7243970">
        <ele>248.4</ele>
        <time>2021-12-29T13:07:23Z</time>
      </trkpt>
      <trkpt lat="37.4026210" lon="-4.7244580">
        <ele>248.4</ele>
        <time>2021-12-29T13:07:24Z</time>
      </trkpt>
      <trkpt lat="37.4026080" lon="-4.7245220">
        <ele>248.4</ele>
        <time>2021-12-29T13:07:25Z</time>
      </trkpt>
      <trkpt lat="37.4025920" lon="-4.7245860">
        <ele>248.4</ele>
        <time>2021-12-29T13:07:26Z</time>
      </trkpt>
      <trkpt lat="37.4025790" lon="-4.7246500">
        <ele>248.4</ele>
        <time>2021-12-29T13:07:27Z</time>
      </trkpt>
      <trkpt lat="37.4025660" lon="-4.7247170">
        <ele>248.6</ele>
        <time>2021-12-29T13:07:28Z</time>
      </trkpt>
      <trkpt lat="37.4025540" lon="-4.7247840">
        <ele>248.6</ele>
        <time>2021-12-29T13:07:29Z</time>
      </trkpt>
      <trkpt lat="37.4025380" lon="-4.7248480">
        <ele>248.6</ele>
        <time>2021-12-29T13:07:30Z</time>
      </trkpt>
      <trkpt lat="37.4025280" lon="-4.7249160">
        <ele>248.6</ele>
        <time>2021-12-29T13:07:31Z</time>
      </trkpt>
      <trkpt lat="37.4025090" lon="-4.7249980">
        <ele>248.4</ele>
        <time>2021-12-29T13:07:32Z</time>
      </trkpt>
      <trkpt lat="37.4024960" lon="-4.7250650">
        <ele>248.4</ele>
        <time>2021-12-29T13:07:33Z</time>
      </trkpt>
      <trkpt lat="37.4024860" lon="-4.7251200">
        <ele>248.4</ele>
        <time>2021-12-29T13:07:34Z</time>
      </trkpt>
      <trkpt lat="37.4024700" lon="-4.7251870">
        <ele>248.4</ele>
        <time>2021-12-29T13:07:35Z</time>
      </trkpt>
      <trkpt lat="37.4024540" lon="-4.7252530">
        <ele>248.4</ele>
        <time>2021-12-29T13:07:36Z</time>
      </trkpt>
      <trkpt lat="37.4024380" lon="-4.7253350">
        <ele>248.4</ele>
        <time>2021-12-29T13:07:37Z</time>
      </trkpt>
      <trkpt lat="37.4024290" lon="-4.7253870">
        <ele>248.4</ele>
        <time>2021-12-29T13:07:38Z</time>
      </trkpt>
      <trkpt lat="37.4024130" lon="-4.7254520">
        <ele>248.4</ele>
        <time>2021-12-29T13:07:39Z</time>
      </trkpt>
      <trkpt lat="37.4023970" lon="-4.7255140">
        <ele>248.4</ele>
        <time>2021-12-29T13:07:40Z</time>
      </trkpt>
      <trkpt lat="37.4023870" lon="-4.7255720">
        <ele>248.4</ele>
        <time>2021-12-29T13:07:41Z</time>
      </trkpt>
      <trkpt lat="37.4023680" lon="-4.7256430">
        <ele>248.4</ele>
        <time>2021-12-29T13:07:42Z</time>
      </trkpt>
      <trkpt lat="37.4023580" lon="-4.7256900">
        <ele>248.6</ele>
        <time>2021-12-29T13:07:43Z</time>
      </trkpt>
      <trkpt lat="37.4023490" lon="-4.7257500">
        <ele>248.6</ele>
        <time>2021-12-29T13:07:44Z</time>
      </trkpt>
      <trkpt lat="37.4023330" lon="-4.7258120">
        <ele>248.8</ele>
        <time>2021-12-29T13:07:45Z</time>
      </trkpt>
      <trkpt lat="37.4023200" lon="-4.7258740">
        <ele>248.8</ele>
        <time>2021-12-29T13:07:46Z</time>
      </trkpt>
      <trkpt lat="37.4023140" lon="-4.7259330">
        <ele>248.8</ele>
        <time>2021-12-29T13:07:47Z</time>
      </trkpt>
      <trkpt lat="37.4023010" lon="-4.7259930">
        <ele>248.8</ele>
        <time>2021-12-29T13:07:48Z</time>
      </trkpt>
      <trkpt lat="37.4022880" lon="-4.7260520">
        <ele>248.8</ele>
        <time>2021-12-29T13:07:49Z</time>
      </trkpt>
      <trkpt lat="37.4022750" lon="-4.7261100">
        <ele>248.6</ele>
        <time>2021-12-29T13:07:50Z</time>
      </trkpt>
      <trkpt lat="37.4022620" lon="-4.7261680">
        <ele>248.6</ele>
        <time>2021-12-29T13:07:51Z</time>
      </trkpt>
      <trkpt lat="37.4022530" lon="-4.7262270">
        <ele>248.4</ele>
        <time>2021-12-29T13:07:52Z</time>
      </trkpt>
      <trkpt lat="37.4022400" lon="-4.7262850">
        <ele>248.4</ele>
        <time>2021-12-29T13:07:53Z</time>
      </trkpt>
      <trkpt lat="37.4022300" lon="-4.7263430">
        <ele>248.2</ele>
        <time>2021-12-29T13:07:54Z</time>
      </trkpt>
      <trkpt lat="37.4022180" lon="-4.7264030">
        <ele>248.2</ele>
        <time>2021-12-29T13:07:55Z</time>
      </trkpt>
      <trkpt lat="37.4022080" lon="-4.7264620">
        <ele>248.2</ele>
        <time>2021-12-29T13:07:56Z</time>
      </trkpt>
      <trkpt lat="37.4021950" lon="-4.7265200">
        <ele>248.0</ele>
        <time>2021-12-29T13:07:57Z</time>
      </trkpt>
      <trkpt lat="37.4021790" lon="-4.7265780">
        <ele>248.0</ele>
        <time>2021-12-29T13:07:58Z</time>
      </trkpt>
      <trkpt lat="37.4021700" lon="-4.7266370">
        <ele>248.0</ele>
        <time>2021-12-29T13:07:59Z</time>
      </trkpt>
      <trkpt lat="37.4021570" lon="-4.7266930">
        <ele>248.0</ele>
        <time>2021-12-29T13:08:00Z</time>
      </trkpt>
      <trkpt lat="37.4021440" lon="-4.7267500">
        <ele>248.0</ele>
        <time>2021-12-29T13:08:01Z</time>
      </trkpt>
      <trkpt lat="37.4021310" lon="-4.7268030">
        <ele>248.0</ele>
        <time>2021-12-29T13:08:02Z</time>
      </trkpt>
      <trkpt lat="37.4021180" lon="-4.7268580">
        <ele>248.0</ele>
        <time>2021-12-29T13:08:03Z</time>
      </trkpt>
      <trkpt lat="37.4021090" lon="-4.7269140">
        <ele>248.0</ele>
        <time>2021-12-29T13:08:04Z</time>
      </trkpt>
      <trkpt lat="37.4020990" lon="-4.7269680">
        <ele>247.8</ele>
        <time>2021-12-29T13:08:05Z</time>
      </trkpt>
      <trkpt lat="37.4020900" lon="-4.7270230">
        <ele>248.0</ele>
        <time>2021-12-29T13:08:06Z</time>
      </trkpt>
      <trkpt lat="37.4020740" lon="-4.7270780">
        <ele>248.0</ele>
        <time>2021-12-29T13:08:07Z</time>
      </trkpt>
      <trkpt lat="37.4020610" lon="-4.7271330">
        <ele>248.0</ele>
        <time>2021-12-29T13:08:08Z</time>
      </trkpt>
      <trkpt lat="37.4020510" lon="-4.7271900">
        <ele>248.0</ele>
        <time>2021-12-29T13:08:09Z</time>
      </trkpt>
      <trkpt lat="37.4020380" lon="-4.7272450">
        <ele>248.0</ele>
        <time>2021-12-29T13:08:10Z</time>
      </trkpt>
      <trkpt lat="37.4020220" lon="-4.7273020">
        <ele>248.0</ele>
        <time>2021-12-29T13:08:11Z</time>
      </trkpt>
      <trkpt lat="37.4020130" lon="-4.7273600">
        <ele>247.8</ele>
        <time>2021-12-29T13:08:12Z</time>
      </trkpt>
      <trkpt lat="37.4020030" lon="-4.7274160">
        <ele>247.8</ele>
        <time>2021-12-29T13:08:13Z</time>
      </trkpt>
      <trkpt lat="37.4019940" lon="-4.7274730">
        <ele>247.8</ele>
        <time>2021-12-29T13:08:14Z</time>
      </trkpt>
      <trkpt lat="37.4019840" lon="-4.7275300">
        <ele>247.8</ele>
        <time>2021-12-29T13:08:15Z</time>
      </trkpt>
      <trkpt lat="37.4019710" lon="-4.7275870">
        <ele>247.6</ele>
        <time>2021-12-29T13:08:16Z</time>
      </trkpt>
      <trkpt lat="37.4019580" lon="-4.7276400">
        <ele>247.4</ele>
        <time>2021-12-29T13:08:17Z</time>
      </trkpt>
      <trkpt lat="37.4019460" lon="-4.7276960">
        <ele>247.4</ele>
        <time>2021-12-29T13:08:18Z</time>
      </trkpt>
      <trkpt lat="37.4019360" lon="-4.7277480">
        <ele>247.4</ele>
        <time>2021-12-29T13:08:19Z</time>
      </trkpt>
      <trkpt lat="37.4019260" lon="-4.7278020">
        <ele>247.4</ele>
        <time>2021-12-29T13:08:20Z</time>
      </trkpt>
      <trkpt lat="37.4019170" lon="-4.7278530">
        <ele>247.4</ele>
        <time>2021-12-29T13:08:21Z</time>
      </trkpt>
      <trkpt lat="37.4019040" lon="-4.7279070">
        <ele>247.4</ele>
        <time>2021-12-29T13:08:22Z</time>
      </trkpt>
      <trkpt lat="37.4018940" lon="-4.7279620">
        <ele>247.4</ele>
        <time>2021-12-29T13:08:23Z</time>
      </trkpt>
      <trkpt lat="37.4018820" lon="-4.7280170">
        <ele>247.4</ele>
        <time>2021-12-29T13:08:24Z</time>
      </trkpt>
      <trkpt lat="37.4018720" lon="-4.7280720">
        <ele>247.4</ele>
        <time>2021-12-29T13:08:25Z</time>
      </trkpt>
      <trkpt lat="37.4018590" lon="-4.7281250">
        <ele>247.2</ele>
        <time>2021-12-29T13:08:26Z</time>
      </trkpt>
      <trkpt lat="37.4018460" lon="-4.7281800">
        <ele>247.2</ele>
        <time>2021-12-29T13:08:27Z</time>
      </trkpt>
      <trkpt lat="37.4018370" lon="-4.7282350">
        <ele>247.2</ele>
        <time>2021-12-29T13:08:28Z</time>
      </trkpt>
      <trkpt lat="37.4018240" lon="-4.7282880">
        <ele>247.2</ele>
        <time>2021-12-29T13:08:29Z</time>
      </trkpt>
      <trkpt lat="37.4018140" lon="-4.7283400">
        <ele>247.0</ele>
        <time>2021-12-29T13:08:30Z</time>
      </trkpt>
      <trkpt lat="37.4018020" lon="-4.7283940">
        <ele>247.0</ele>
        <time>2021-12-29T13:08:31Z</time>
      </trkpt>
      <trkpt lat="37.4017920" lon="-4.7284450">
        <ele>247.0</ele>
        <time>2021-12-29T13:08:32Z</time>
      </trkpt>
      <trkpt lat="37.4017790" lon="-4.7284960">
        <ele>246.8</ele>
        <time>2021-12-29T13:08:33Z</time>
      </trkpt>
      <trkpt lat="37.4017730" lon="-4.7285500">
        <ele>246.8</ele>
        <time>2021-12-29T13:08:34Z</time>
      </trkpt>
      <trkpt lat="37.4017600" lon="-4.7286030">
        <ele>246.6</ele>
        <time>2021-12-29T13:08:35Z</time>
      </trkpt>
      <trkpt lat="37.4017540" lon="-4.7286570">
        <ele>246.6</ele>
        <time>2021-12-29T13:08:36Z</time>
      </trkpt>
      <trkpt lat="37.4017410" lon="-4.7287070">
        <ele>246.6</ele>
        <time>2021-12-29T13:08:37Z</time>
      </trkpt>
      <trkpt lat="37.4017280" lon="-4.7287570">
        <ele>246.6</ele>
        <time>2021-12-29T13:08:38Z</time>
      </trkpt>
      <trkpt lat="37.4017180" lon="-4.7288080">
        <ele>246.6</ele>
        <time>2021-12-29T13:08:39Z</time>
      </trkpt>
      <trkpt lat="37.4017060" lon="-4.7288630">
        <ele>246.4</ele>
        <time>2021-12-29T13:08:40Z</time>
      </trkpt>
      <trkpt lat="37.4016990" lon="-4.7289180">
        <ele>246.4</ele>
        <time>2021-12-29T13:08:41Z</time>
      </trkpt>
      <trkpt lat="37.4016830" lon="-4.7289720">
        <ele>246.4</ele>
        <time>2021-12-29T13:08:42Z</time>
      </trkpt>
      <trkpt lat="37.4016770" lon="-4.7290240">
        <ele>246.4</ele>
        <time>2021-12-29T13:08:43Z</time>
      </trkpt>
      <trkpt lat="37.4016610" lon="-4.7290870">
        <ele>246.4</ele>
        <time>2021-12-29T13:08:44Z</time>
      </trkpt>
      <trkpt lat="37.4016540" lon="-4.7291270">
        <ele>246.2</ele>
        <time>2021-12-29T13:08:45Z</time>
      </trkpt>
      <trkpt lat="37.4016420" lon="-4.7291800">
        <ele>246.2</ele>
        <time>2021-12-29T13:08:46Z</time>
      </trkpt>
      <trkpt lat="37.4016260" lon="-4.7292330">
        <ele>246.2</ele>
        <time>2021-12-29T13:08:47Z</time>
      </trkpt>
      <trkpt lat="37.4016190" lon="-4.7292850">
        <ele>246.0</ele>
        <time>2021-12-29T13:08:48Z</time>
      </trkpt>
      <trkpt lat="37.4016060" lon="-4.7293400">
        <ele>246.0</ele>
        <time>2021-12-29T13:08:49Z</time>
      </trkpt>
      <trkpt lat="37.4015970" lon="-4.7293940">
        <ele>246.0</ele>
        <time>2021-12-29T13:08:50Z</time>
      </trkpt>
      <trkpt lat="37.4015840" lon="-4.7294480">
        <ele>246.0</ele>
        <time>2021-12-29T13:08:51Z</time>
      </trkpt>
      <trkpt lat="37.4015740" lon="-4.7295030">
        <ele>246.0</ele>
        <time>2021-12-29T13:08:52Z</time>
      </trkpt>
      <trkpt lat="37.4015650" lon="-4.7295580">
        <ele>245.8</ele>
        <time>2021-12-29T13:08:53Z</time>
      </trkpt>
      <trkpt lat="37.4015580" lon="-4.7296120">
        <ele>245.8</ele>
        <time>2021-12-29T13:08:54Z</time>
      </trkpt>
      <trkpt lat="37.4015460" lon="-4.7296670">
        <ele>245.8</ele>
        <time>2021-12-29T13:08:55Z</time>
      </trkpt>
      <trkpt lat="37.4015390" lon="-4.7297220">
        <ele>245.6</ele>
        <time>2021-12-29T13:08:56Z</time>
      </trkpt>
      <trkpt lat="37.4015330" lon="-4.7297770">
        <ele>245.6</ele>
        <time>2021-12-29T13:08:57Z</time>
      </trkpt>
      <trkpt lat="37.4015230" lon="-4.7298330">
        <ele>245.6</ele>
        <time>2021-12-29T13:08:58Z</time>
      </trkpt>
      <trkpt lat="37.4015170" lon="-4.7298880">
        <ele>245.6</ele>
        <time>2021-12-29T13:08:59Z</time>
      </trkpt>
      <trkpt lat="37.4015140" lon="-4.7299450">
        <ele>245.6</ele>
        <time>2021-12-29T13:09:00Z</time>
      </trkpt>
      <trkpt lat="37.4015070" lon="-4.7300020">
        <ele>245.6</ele>
        <time>2021-12-29T13:09:01Z</time>
      </trkpt>
      <trkpt lat="37.4015040" lon="-4.7300550">
        <ele>245.4</ele>
        <time>2021-12-29T13:09:02Z</time>
      </trkpt>
      <trkpt lat="37.4015010" lon="-4.7301080">
        <ele>245.4</ele>
        <time>2021-12-29T13:09:03Z</time>
      </trkpt>
      <trkpt lat="37.4015010" lon="-4.7301660">
        <ele>245.4</ele>
        <time>2021-12-29T13:09:04Z</time>
      </trkpt>
      <trkpt lat="37.4014980" lon="-4.7302220">
        <ele>245.2</ele>
        <time>2021-12-29T13:09:05Z</time>
      </trkpt>
      <trkpt lat="37.4014980" lon="-4.7302800">
        <ele>245.2</ele>
        <time>2021-12-29T13:09:06Z</time>
      </trkpt>
      <trkpt lat="37.4014980" lon="-4.7303380">
        <ele>245.0</ele>
        <time>2021-12-29T13:09:07Z</time>
      </trkpt>
      <trkpt lat="37.4014940" lon="-4.7303970">
        <ele>245.2</ele>
        <time>2021-12-29T13:09:08Z</time>
      </trkpt>
      <trkpt lat="37.4014940" lon="-4.7304550">
        <ele>245.0</ele>
        <time>2021-12-29T13:09:09Z</time>
      </trkpt>
      <trkpt lat="37.4014940" lon="-4.7305120">
        <ele>245.0</ele>
        <time>2021-12-29T13:09:10Z</time>
      </trkpt>
      <trkpt lat="37.4014980" lon="-4.7305680">
        <ele>245.0</ele>
        <time>2021-12-29T13:09:11Z</time>
      </trkpt>
      <trkpt lat="37.4015010" lon="-4.7306280">
        <ele>245.0</ele>
        <time>2021-12-29T13:09:12Z</time>
      </trkpt>
      <trkpt lat="37.4015040" lon="-4.7306880">
        <ele>244.8</ele>
        <time>2021-12-29T13:09:13Z</time>
      </trkpt>
      <trkpt lat="37.4015140" lon="-4.7307580">
        <ele>244.8</ele>
        <time>2021-12-29T13:09:14Z</time>
      </trkpt>
      <trkpt lat="37.4015170" lon="-4.7308070">
        <ele>244.6</ele>
        <time>2021-12-29T13:09:15Z</time>
      </trkpt>
      <trkpt lat="37.4015230" lon="-4.7308650">
        <ele>244.6</ele>
        <time>2021-12-29T13:09:16Z</time>
      </trkpt>
      <trkpt lat="37.4015330" lon="-4.7309220">
        <ele>244.4</ele>
        <time>2021-12-29T13:09:17Z</time>
      </trkpt>
      <trkpt lat="37.4015420" lon="-4.7309760">
        <ele>244.4</ele>
        <time>2021-12-29T13:09:18Z</time>
      </trkpt>
      <trkpt lat="37.4015490" lon="-4.7310420">
        <ele>244.2</ele>
        <time>2021-12-29T13:09:19Z</time>
      </trkpt>
      <trkpt lat="37.4015620" lon="-4.7310970">
        <ele>244.2</ele>
        <time>2021-12-29T13:09:20Z</time>
      </trkpt>
      <trkpt lat="37.4015650" lon="-4.7311370">
        <ele>244.2</ele>
        <time>2021-12-29T13:09:21Z</time>
      </trkpt>
      <trkpt lat="37.4015780" lon="-4.7311900">
        <ele>244.0</ele>
        <time>2021-12-29T13:09:22Z</time>
      </trkpt>
      <trkpt lat="37.4015870" lon="-4.7312430">
        <ele>244.0</ele>
        <time>2021-12-29T13:09:23Z</time>
      </trkpt>
      <trkpt lat="37.4016030" lon="-4.7312950">
        <ele>243.8</ele>
        <time>2021-12-29T13:09:24Z</time>
      </trkpt>
      <trkpt lat="37.4016190" lon="-4.7313500">
        <ele>243.8</ele>
        <time>2021-12-29T13:09:25Z</time>
      </trkpt>
      <trkpt lat="37.4016350" lon="-4.7314020">
        <ele>243.6</ele>
        <time>2021-12-29T13:09:26Z</time>
      </trkpt>
      <trkpt lat="37.4016480" lon="-4.7314550">
        <ele>243.4</ele>
        <time>2021-12-29T13:09:27Z</time>
      </trkpt>
      <trkpt lat="37.4016670" lon="-4.7315170">
        <ele>243.4</ele>
        <time>2021-12-29T13:09:28Z</time>
      </trkpt>
      <trkpt lat="37.4016800" lon="-4.7315580">
        <ele>243.2</ele>
        <time>2021-12-29T13:09:29Z</time>
      </trkpt>
      <trkpt lat="37.4016960" lon="-4.7316060">
        <ele>243.2</ele>
        <time>2021-12-29T13:09:30Z</time>
      </trkpt>
      <trkpt lat="37.4017120" lon="-4.7316560">
        <ele>243.2</ele>
        <time>2021-12-29T13:09:31Z</time>
      </trkpt>
      <trkpt lat="37.4017250" lon="-4.7317080">
        <ele>243.0</ele>
        <time>2021-12-29T13:09:32Z</time>
      </trkpt>
      <trkpt lat="37.4017410" lon="-4.7317600">
        <ele>243.0</ele>
        <time>2021-12-29T13:09:33Z</time>
      </trkpt>
      <trkpt lat="37.4017570" lon="-4.7318080">
        <ele>243.0</ele>
        <time>2021-12-29T13:09:34Z</time>
      </trkpt>
      <trkpt lat="37.4017730" lon="-4.7318550">
        <ele>242.8</ele>
        <time>2021-12-29T13:09:35Z</time>
      </trkpt>
      <trkpt lat="37.4017920" lon="-4.7319050">
        <ele>242.8</ele>
        <time>2021-12-29T13:09:36Z</time>
      </trkpt>
      <trkpt lat="37.4018110" lon="-4.7319560">
        <ele>242.8</ele>
        <time>2021-12-29T13:09:37Z</time>
      </trkpt>
      <trkpt lat="37.4018240" lon="-4.7320080">
        <ele>242.6</ele>
        <time>2021-12-29T13:09:38Z</time>
      </trkpt>
      <trkpt lat="37.4018400" lon="-4.7320600">
        <ele>242.6</ele>
        <time>2021-12-29T13:09:39Z</time>
      </trkpt>
      <trkpt lat="37.4018530" lon="-4.7321130">
        <ele>242.6</ele>
        <time>2021-12-29T13:09:40Z</time>
      </trkpt>
      <trkpt lat="37.4018660" lon="-4.7321640">
        <ele>242.6</ele>
        <time>2021-12-29T13:09:41Z</time>
      </trkpt>
      <trkpt lat="37.4018850" lon="-4.7322140">
        <ele>242.6</ele>
        <time>2021-12-29T13:09:42Z</time>
      </trkpt>
      <trkpt lat="37.4019010" lon="-4.7322640">
        <ele>242.6</ele>
        <time>2021-12-29T13:09:43Z</time>
      </trkpt>
      <trkpt lat="37.4019170" lon="-4.7323130">
        <ele>242.6</ele>
        <time>2021-12-29T13:09:44Z</time>
      </trkpt>
      <trkpt lat="37.4019330" lon="-4.7323630">
        <ele>242.6</ele>
        <time>2021-12-29T13:09:45Z</time>
      </trkpt>
      <trkpt lat="37.4019520" lon="-4.7324170">
        <ele>242.6</ele>
        <time>2021-12-29T13:09:46Z</time>
      </trkpt>
      <trkpt lat="37.4019650" lon="-4.7324670">
        <ele>242.6</ele>
        <time>2021-12-29T13:09:47Z</time>
      </trkpt>
      <trkpt lat="37.4019840" lon="-4.7325180">
        <ele>242.6</ele>
        <time>2021-12-29T13:09:48Z</time>
      </trkpt>
      <trkpt lat="37.4020000" lon="-4.7325680">
        <ele>242.6</ele>
        <time>2021-12-29T13:09:49Z</time>
      </trkpt>
      <trkpt lat="37.4020190" lon="-4.7326220">
        <ele>242.4</ele>
        <time>2021-12-29T13:09:50Z</time>
      </trkpt>
      <trkpt lat="37.4020380" lon="-4.7326720">
        <ele>242.4</ele>
        <time>2021-12-29T13:09:51Z</time>
      </trkpt>
      <trkpt lat="37.4020540" lon="-4.7327220">
        <ele>242.4</ele>
        <time>2021-12-29T13:09:52Z</time>
      </trkpt>
      <trkpt lat="37.4020700" lon="-4.7327720">
        <ele>242.4</ele>
        <time>2021-12-29T13:09:53Z</time>
      </trkpt>
      <trkpt lat="37.4020830" lon="-4.7328230">
        <ele>242.2</ele>
        <time>2021-12-29T13:09:54Z</time>
      </trkpt>
      <trkpt lat="37.4020990" lon="-4.7328770">
        <ele>242.2</ele>
        <time>2021-12-29T13:09:55Z</time>
      </trkpt>
      <trkpt lat="37.4021180" lon="-4.7329370">
        <ele>242.2</ele>
        <time>2021-12-29T13:09:56Z</time>
      </trkpt>
      <trkpt lat="37.4021340" lon="-4.7329770">
        <ele>242.2</ele>
        <time>2021-12-29T13:09:57Z</time>
      </trkpt>
      <trkpt lat="37.4021500" lon="-4.7330260">
        <ele>242.2</ele>
        <time>2021-12-29T13:09:58Z</time>
      </trkpt>
      <trkpt lat="37.4021630" lon="-4.7330800">
        <ele>242.2</ele>
        <time>2021-12-29T13:09:59Z</time>
      </trkpt>
      <trkpt lat="37.4021890" lon="-4.7331590">
        <ele>242.2</ele>
        <time>2021-12-29T13:10:00Z</time>
      </trkpt>
      <trkpt lat="37.4021980" lon="-4.7331850">
        <ele>242.2</ele>
        <time>2021-12-29T13:10:01Z</time>
      </trkpt>
      <trkpt lat="37.4022140" lon="-4.7332380">
        <ele>242.2</ele>
        <time>2021-12-29T13:10:02Z</time>
      </trkpt>
      <trkpt lat="37.4022340" lon="-4.7332970">
        <ele>242.2</ele>
        <time>2021-12-29T13:10:03Z</time>
      </trkpt>
      <trkpt lat="37.4022500" lon="-4.7333530">
        <ele>242.0</ele>
        <time>2021-12-29T13:10:04Z</time>
      </trkpt>
      <trkpt lat="37.4022620" lon="-4.7334150">
        <ele>242.0</ele>
        <time>2021-12-29T13:10:05Z</time>
      </trkpt>
      <trkpt lat="37.4022780" lon="-4.7334780">
        <ele>242.0</ele>
        <time>2021-12-29T13:10:06Z</time>
      </trkpt>
      <trkpt lat="37.4022940" lon="-4.7335400">
        <ele>241.8</ele>
        <time>2021-12-29T13:10:07Z</time>
      </trkpt>
      <trkpt lat="37.4023140" lon="-4.7336140">
        <ele>241.8</ele>
        <time>2021-12-29T13:10:08Z</time>
      </trkpt>
      <trkpt lat="37.4023230" lon="-4.7336620">
        <ele>241.6</ele>
        <time>2021-12-29T13:10:09Z</time>
      </trkpt>
      <trkpt lat="37.4023360" lon="-4.7337230">
        <ele>241.6</ele>
        <time>2021-12-29T13:10:10Z</time>
      </trkpt>
      <trkpt lat="37.4023490" lon="-4.7337860">
        <ele>241.6</ele>
        <time>2021-12-29T13:10:11Z</time>
      </trkpt>
      <trkpt lat="37.4023620" lon="-4.7338630">
        <ele>241.4</ele>
        <time>2021-12-29T13:10:12Z</time>
      </trkpt>
      <trkpt lat="37.4023740" lon="-4.7339300">
        <ele>241.4</ele>
        <time>2021-12-29T13:10:13Z</time>
      </trkpt>
      <trkpt lat="37.4023870" lon="-4.7339970">
        <ele>241.4</ele>
        <time>2021-12-29T13:10:14Z</time>
      </trkpt>
      <trkpt lat="37.4023940" lon="-4.7340500">
        <ele>241.4</ele>
        <time>2021-12-29T13:10:15Z</time>
      </trkpt>
      <trkpt lat="37.4023970" lon="-4.7341150">
        <ele>241.4</ele>
        <time>2021-12-29T13:10:16Z</time>
      </trkpt>
      <trkpt lat="37.4024030" lon="-4.7342000">
        <ele>241.4</ele>
        <time>2021-12-29T13:10:17Z</time>
      </trkpt>
      <trkpt lat="37.4024130" lon="-4.7342740">
        <ele>241.4</ele>
        <time>2021-12-29T13:10:18Z</time>
      </trkpt>
      <trkpt lat="37.4024130" lon="-4.7343320">
        <ele>241.2</ele>
        <time>2021-12-29T13:10:19Z</time>
      </trkpt>
      <trkpt lat="37.4024160" lon="-4.7344030">
        <ele>241.2</ele>
        <time>2021-12-29T13:10:20Z</time>
      </trkpt>
      <trkpt lat="37.4024190" lon="-4.7344750">
        <ele>241.2</ele>
        <time>2021-12-29T13:10:21Z</time>
      </trkpt>
      <trkpt lat="37.4024290" lon="-4.7345620">
        <ele>241.0</ele>
        <time>2021-12-29T13:10:22Z</time>
      </trkpt>
      <trkpt lat="37.4024290" lon="-4.7346340">
        <ele>241.0</ele>
        <time>2021-12-29T13:10:23Z</time>
      </trkpt>
      <trkpt lat="37.4024290" lon="-4.7346920">
        <ele>240.8</ele>
        <time>2021-12-29T13:10:24Z</time>
      </trkpt>
      <trkpt lat="37.4024290" lon="-4.7347620">
        <ele>240.8</ele>
        <time>2021-12-29T13:10:25Z</time>
      </trkpt>
      <trkpt lat="37.4024290" lon="-4.7348360">
        <ele>240.8</ele>
        <time>2021-12-29T13:10:26Z</time>
      </trkpt>
      <trkpt lat="37.4024320" lon="-4.7349250">
        <ele>240.8</ele>
        <time>2021-12-29T13:10:27Z</time>
      </trkpt>
      <trkpt lat="37.4024350" lon="-4.7349870">
        <ele>240.8</ele>
        <time>2021-12-29T13:10:28Z</time>
      </trkpt>
      <trkpt lat="37.4024380" lon="-4.7350640">
        <ele>240.8</ele>
        <time>2021-12-29T13:10:29Z</time>
      </trkpt>
      <trkpt lat="37.4024380" lon="-4.7351420">
        <ele>240.8</ele>
        <time>2021-12-29T13:10:30Z</time>
      </trkpt>
      <trkpt lat="37.4024420" lon="-4.7352200">
        <ele>240.8</ele>
        <time>2021-12-29T13:10:31Z</time>
      </trkpt>
      <trkpt lat="37.4024480" lon="-4.7352970">
        <ele>240.8</ele>
        <time>2021-12-29T13:10:32Z</time>
      </trkpt>
      <trkpt lat="37.4024510" lon="-4.7353750">
        <ele>240.6</ele>
        <time>2021-12-29T13:10:33Z</time>
      </trkpt>
      <trkpt lat="37.4024510" lon="-4.7354500">
        <ele>240.6</ele>
        <time>2021-12-29T13:10:34Z</time>
      </trkpt>
      <trkpt lat="37.4024480" lon="-4.7355280">
        <ele>240.4</ele>
        <time>2021-12-29T13:10:35Z</time>
      </trkpt>
      <trkpt lat="37.4024420" lon="-4.7356220">
        <ele>240.2</ele>
        <time>2021-12-29T13:10:36Z</time>
      </trkpt>
      <trkpt lat="37.4024480" lon="-4.7356820">
        <ele>240.2</ele>
        <time>2021-12-29T13:10:37Z</time>
      </trkpt>
      <trkpt lat="37.4024480" lon="-4.7357570">
        <ele>240.0</ele>
        <time>2021-12-29T13:10:38Z</time>
      </trkpt>
      <trkpt lat="37.4024480" lon="-4.7358300">
        <ele>240.0</ele>
        <time>2021-12-29T13:10:39Z</time>
      </trkpt>
      <trkpt lat="37.4024420" lon="-4.7359130">
        <ele>239.8</ele>
        <time>2021-12-29T13:10:40Z</time>
      </trkpt>
      <trkpt lat="37.4024380" lon="-4.7359680">
        <ele>239.8</ele>
        <time>2021-12-29T13:10:41Z</time>
      </trkpt>
      <trkpt lat="37.4024350" lon="-4.7360350">
        <ele>239.8</ele>
        <time>2021-12-29T13:10:42Z</time>
      </trkpt>
      <trkpt lat="37.4024320" lon="-4.7360980">
        <ele>239.8</ele>
        <time>2021-12-29T13:10:43Z</time>
      </trkpt>
      <trkpt lat="37.4024320" lon="-4.7361620">
        <ele>239.6</ele>
        <time>2021-12-29T13:10:44Z</time>
      </trkpt>
      <trkpt lat="37.4024320" lon="-4.7362380">
        <ele>239.6</ele>
        <time>2021-12-29T13:10:45Z</time>
      </trkpt>
      <trkpt lat="37.4024320" lon="-4.7362880">
        <ele>239.4</ele>
        <time>2021-12-29T13:10:46Z</time>
      </trkpt>
      <trkpt lat="37.4024320" lon="-4.7363520">
        <ele>239.4</ele>
        <time>2021-12-29T13:10:47Z</time>
      </trkpt>
      <trkpt lat="37.4024320" lon="-4.7364140">
        <ele>239.2</ele>
        <time>2021-12-29T13:10:48Z</time>
      </trkpt>
      <trkpt lat="37.4024320" lon="-4.7364880">
        <ele>239.0</ele>
        <time>2021-12-29T13:10:49Z</time>
      </trkpt>
      <trkpt lat="37.4024290" lon="-4.7365380">
        <ele>238.8</ele>
        <time>2021-12-29T13:10:50Z</time>
      </trkpt>
      <trkpt lat="37.4024290" lon="-4.7365980">
        <ele>238.6</ele>
        <time>2021-12-29T13:10:51Z</time>
      </trkpt>
      <trkpt lat="37.4024290" lon="-4.7366580">
        <ele>238.4</ele>
        <time>2021-12-29T13:10:52Z</time>
      </trkpt>
      <trkpt lat="37.4024320" lon="-4.7367170">
        <ele>238.2</ele>
        <time>2021-12-29T13:10:53Z</time>
      </trkpt>
      <trkpt lat="37.4024320" lon="-4.7367720">
        <ele>238.0</ele>
        <time>2021-12-29T13:10:54Z</time>
      </trkpt>
      <trkpt lat="37.4024320" lon="-4.7368280">
        <ele>237.8</ele>
        <time>2021-12-29T13:10:55Z</time>
      </trkpt>
      <trkpt lat="37.4024320" lon="-4.7368830">
        <ele>237.8</ele>
        <time>2021-12-29T13:10:56Z</time>
      </trkpt>
      <trkpt lat="37.4024290" lon="-4.7369380">
        <ele>237.8</ele>
        <time>2021-12-29T13:10:57Z</time>
      </trkpt>
      <trkpt lat="37.4024290" lon="-4.7369930">
        <ele>237.6</ele>
        <time>2021-12-29T13:10:58Z</time>
      </trkpt>
      <trkpt lat="37.4024290" lon="-4.7370480">
        <ele>237.6</ele>
        <time>2021-12-29T13:10:59Z</time>
      </trkpt>
      <trkpt lat="37.4024290" lon="-4.7371040">
        <ele>237.4</ele>
        <time>2021-12-29T13:11:00Z</time>
      </trkpt>
      <trkpt lat="37.4024290" lon="-4.7371580">
        <ele>237.4</ele>
        <time>2021-12-29T13:11:01Z</time>
      </trkpt>
      <trkpt lat="37.4024320" lon="-4.7372130">
        <ele>237.2</ele>
        <time>2021-12-29T13:11:02Z</time>
      </trkpt>
      <trkpt lat="37.4024320" lon="-4.7372680">
        <ele>237.2</ele>
        <time>2021-12-29T13:11:03Z</time>
      </trkpt>
      <trkpt lat="37.4024320" lon="-4.7373250">
        <ele>237.0</ele>
        <time>2021-12-29T13:11:04Z</time>
      </trkpt>
      <trkpt lat="37.4024320" lon="-4.7373830">
        <ele>237.0</ele>
        <time>2021-12-29T13:11:05Z</time>
      </trkpt>
      <trkpt lat="37.4024350" lon="-4.7374400">
        <ele>236.8</ele>
        <time>2021-12-29T13:11:06Z</time>
      </trkpt>
      <trkpt lat="37.4024320" lon="-4.7374980">
        <ele>236.6</ele>
        <time>2021-12-29T13:11:07Z</time>
      </trkpt>
      <trkpt lat="37.4024320" lon="-4.7375550">
        <ele>236.6</ele>
        <time>2021-12-29T13:11:08Z</time>
      </trkpt>
      <trkpt lat="37.4024350" lon="-4.7376100">
        <ele>236.4</ele>
        <time>2021-12-29T13:11:09Z</time>
      </trkpt>
      <trkpt lat="37.4024350" lon="-4.7376670">
        <ele>236.4</ele>
        <time>2021-12-29T13:11:10Z</time>
      </trkpt>
      <trkpt lat="37.4024350" lon="-4.7377230">
        <ele>236.2</ele>
        <time>2021-12-29T13:11:11Z</time>
      </trkpt>
      <trkpt lat="37.4024350" lon="-4.7377780">
        <ele>236.0</ele>
        <time>2021-12-29T13:11:12Z</time>
      </trkpt>
      <trkpt lat="37.4024350" lon="-4.7378340">
        <ele>236.0</ele>
        <time>2021-12-29T13:11:13Z</time>
      </trkpt>
      <trkpt lat="37.4024350" lon="-4.7378900">
        <ele>235.8</ele>
        <time>2021-12-29T13:11:14Z</time>
      </trkpt>
      <trkpt lat="37.4024350" lon="-4.7379480">
        <ele>235.8</ele>
        <time>2021-12-29T13:11:15Z</time>
      </trkpt>
      <trkpt lat="37.4024350" lon="-4.7380030">
        <ele>235.8</ele>
        <time>2021-12-29T13:11:16Z</time>
      </trkpt>
      <trkpt lat="37.4024380" lon="-4.7380570">
        <ele>235.6</ele>
        <time>2021-12-29T13:11:17Z</time>
      </trkpt>
      <trkpt lat="37.4024380" lon="-4.7381100">
        <ele>235.6</ele>
        <time>2021-12-29T13:11:18Z</time>
      </trkpt>
      <trkpt lat="37.4024420" lon="-4.7381650">
        <ele>235.6</ele>
        <time>2021-12-29T13:11:19Z</time>
      </trkpt>
      <trkpt lat="37.4024420" lon="-4.7382200">
        <ele>235.4</ele>
        <time>2021-12-29T13:11:20Z</time>
      </trkpt>
      <trkpt lat="37.4024420" lon="-4.7382730">
        <ele>235.2</ele>
        <time>2021-12-29T13:11:21Z</time>
      </trkpt>
      <trkpt lat="37.4024480" lon="-4.7383260">
        <ele>235.2</ele>
        <time>2021-12-29T13:11:22Z</time>
      </trkpt>
      <trkpt lat="37.4024480" lon="-4.7383800">
        <ele>235.0</ele>
        <time>2021-12-29T13:11:23Z</time>
      </trkpt>
      <trkpt lat="37.4024480" lon="-4.7384330">
        <ele>235.0</ele>
        <time>2021-12-29T13:11:24Z</time>
      </trkpt>
      <trkpt lat="37.4024480" lon="-4.7384870">
        <ele>234.8</ele>
        <time>2021-12-29T13:11:25Z</time>
      </trkpt>
      <trkpt lat="37.4024480" lon="-4.7385400">
        <ele>234.8</ele>
        <time>2021-12-29T13:11:26Z</time>
      </trkpt>
      <trkpt lat="37.4024420" lon="-4.7385950">
        <ele>234.6</ele>
        <time>2021-12-29T13:11:27Z</time>
      </trkpt>
      <trkpt lat="37.4024420" lon="-4.7386480">
        <ele>234.6</ele>
        <time>2021-12-29T13:11:28Z</time>
      </trkpt>
      <trkpt lat="37.4024420" lon="-4.7387020">
        <ele>234.4</ele>
        <time>2021-12-29T13:11:29Z</time>
      </trkpt>
      <trkpt lat="37.4024420" lon="-4.7387570">
        <ele>234.4</ele>
        <time>2021-12-29T13:11:30Z</time>
      </trkpt>
      <trkpt lat="37.4024380" lon="-4.7388150">
        <ele>234.2</ele>
        <time>2021-12-29T13:11:31Z</time>
      </trkpt>
      <trkpt lat="37.4024380" lon="-4.7388720">
        <ele>234.2</ele>
        <time>2021-12-29T13:11:32Z</time>
      </trkpt>
      <trkpt lat="37.4024380" lon="-4.7389270">
        <ele>234.2</ele>
        <time>2021-12-29T13:11:33Z</time>
      </trkpt>
      <trkpt lat="37.4024380" lon="-4.7389820">
        <ele>234.0</ele>
        <time>2021-12-29T13:11:34Z</time>
      </trkpt>
      <trkpt lat="37.4024380" lon="-4.7390380">
        <ele>234.0</ele>
        <time>2021-12-29T13:11:35Z</time>
      </trkpt>
      <trkpt lat="37.4024380" lon="-4.7390950">
        <ele>234.0</ele>
        <time>2021-12-29T13:11:36Z</time>
      </trkpt>
      <trkpt lat="37.4024350" lon="-4.7391630">
        <ele>234.0</ele>
        <time>2021-12-29T13:11:37Z</time>
      </trkpt>
      <trkpt lat="37.4024320" lon="-4.7392080">
        <ele>233.8</ele>
        <time>2021-12-29T13:11:38Z</time>
      </trkpt>
      <trkpt lat="37.4024290" lon="-4.7392640">
        <ele>233.8</ele>
        <time>2021-12-29T13:11:39Z</time>
      </trkpt>
      <trkpt lat="37.4024190" lon="-4.7393200">
        <ele>233.6</ele>
        <time>2021-12-29T13:11:40Z</time>
      </trkpt>
      <trkpt lat="37.4024160" lon="-4.7393750">
        <ele>233.6</ele>
        <time>2021-12-29T13:11:41Z</time>
      </trkpt>
      <trkpt lat="37.4024130" lon="-4.7394300">
        <ele>233.4</ele>
        <time>2021-12-29T13:11:42Z</time>
      </trkpt>
      <trkpt lat="37.4024000" lon="-4.7394850">
        <ele>233.4</ele>
        <time>2021-12-29T13:11:43Z</time>
      </trkpt>
      <trkpt lat="37.4023940" lon="-4.7395380">
        <ele>233.4</ele>
        <time>2021-12-29T13:11:44Z</time>
      </trkpt>
      <trkpt lat="37.4023810" lon="-4.7395920">
        <ele>233.4</ele>
        <time>2021-12-29T13:11:45Z</time>
      </trkpt>
      <trkpt lat="37.4023710" lon="-4.7396450">
        <ele>233.2</ele>
        <time>2021-12-29T13:11:46Z</time>
      </trkpt>
      <trkpt lat="37.4023580" lon="-4.7396980">
        <ele>233.2</ele>
        <time>2021-12-29T13:11:47Z</time>
      </trkpt>
      <trkpt lat="37.4023490" lon="-4.7397480">
        <ele>233.2</ele>
        <time>2021-12-29T13:11:48Z</time>
      </trkpt>
      <trkpt lat="37.4023330" lon="-4.7397980">
        <ele>233.2</ele>
        <time>2021-12-29T13:11:49Z</time>
      </trkpt>
      <trkpt lat="37.4023170" lon="-4.7398480">
        <ele>233.2</ele>
        <time>2021-12-29T13:11:50Z</time>
      </trkpt>
      <trkpt lat="37.4023010" lon="-4.7398970">
        <ele>233.2</ele>
        <time>2021-12-29T13:11:51Z</time>
      </trkpt>
      <trkpt lat="37.4022880" lon="-4.7399440">
        <ele>233.2</ele>
        <time>2021-12-29T13:11:52Z</time>
      </trkpt>
      <trkpt lat="37.4022750" lon="-4.7399900">
        <ele>233.2</ele>
        <time>2021-12-29T13:11:53Z</time>
      </trkpt>
      <trkpt lat="37.4022590" lon="-4.7400350">
        <ele>233.2</ele>
        <time>2021-12-29T13:11:54Z</time>
      </trkpt>
      <trkpt lat="37.4022430" lon="-4.7400760">
        <ele>233.2</ele>
        <time>2021-12-29T13:11:55Z</time>
      </trkpt>
      <trkpt lat="37.4022240" lon="-4.7401180">
        <ele>233.2</ele>
        <time>2021-12-29T13:11:56Z</time>
      </trkpt>
      <trkpt lat="37.4022110" lon="-4.7401570">
        <ele>233.2</ele>
        <time>2021-12-29T13:11:57Z</time>
      </trkpt>
      <trkpt lat="37.4021950" lon="-4.7401950">
        <ele>233.2</ele>
        <time>2021-12-29T13:11:58Z</time>
      </trkpt>
      <trkpt lat="37.4021790" lon="-4.7402340">
        <ele>233.2</ele>
        <time>2021-12-29T13:11:59Z</time>
      </trkpt>
      <trkpt lat="37.4021630" lon="-4.7402720">
        <ele>233.2</ele>
        <time>2021-12-29T13:12:00Z</time>
      </trkpt>
      <trkpt lat="37.4021500" lon="-4.7403140">
        <ele>233.2</ele>
        <time>2021-12-29T13:12:01Z</time>
      </trkpt>
      <trkpt lat="37.4021310" lon="-4.7403550">
        <ele>233.2</ele>
        <time>2021-12-29T13:12:02Z</time>
      </trkpt>
      <trkpt lat="37.4021150" lon="-4.7403960">
        <ele>233.2</ele>
        <time>2021-12-29T13:12:03Z</time>
      </trkpt>
      <trkpt lat="37.4020990" lon="-4.7404360">
        <ele>233.2</ele>
        <time>2021-12-29T13:12:04Z</time>
      </trkpt>
      <trkpt lat="37.4020800" lon="-4.7404770">
        <ele>233.2</ele>
        <time>2021-12-29T13:12:05Z</time>
      </trkpt>
      <trkpt lat="37.4020700" lon="-4.7405200">
        <ele>233.2</ele>
        <time>2021-12-29T13:12:06Z</time>
      </trkpt>
      <trkpt lat="37.4020540" lon="-4.7405680">
        <ele>233.2</ele>
        <time>2021-12-29T13:12:07Z</time>
      </trkpt>
      <trkpt lat="37.4020380" lon="-4.7406080">
        <ele>233.2</ele>
        <time>2021-12-29T13:12:08Z</time>
      </trkpt>
      <trkpt lat="37.4020190" lon="-4.7406520">
        <ele>233.2</ele>
        <time>2021-12-29T13:12:09Z</time>
      </trkpt>
      <trkpt lat="37.4020000" lon="-4.7406950">
        <ele>233.2</ele>
        <time>2021-12-29T13:12:10Z</time>
      </trkpt>
      <trkpt lat="37.4019840" lon="-4.7407380">
        <ele>233.2</ele>
        <time>2021-12-29T13:12:11Z</time>
      </trkpt>
      <trkpt lat="37.4019710" lon="-4.7407830">
        <ele>233.2</ele>
        <time>2021-12-29T13:12:12Z</time>
      </trkpt>
      <trkpt lat="37.4019520" lon="-4.7408270">
        <ele>233.2</ele>
        <time>2021-12-29T13:12:13Z</time>
      </trkpt>
      <trkpt lat="37.4019360" lon="-4.7408700">
        <ele>233.4</ele>
        <time>2021-12-29T13:12:14Z</time>
      </trkpt>
      <trkpt lat="37.4019170" lon="-4.7409120">
        <ele>233.4</ele>
        <time>2021-12-29T13:12:15Z</time>
      </trkpt>
      <trkpt lat="37.4019010" lon="-4.7409570">
        <ele>233.6</ele>
        <time>2021-12-29T13:12:16Z</time>
      </trkpt>
      <trkpt lat="37.4018820" lon="-4.7410000">
        <ele>233.6</ele>
        <time>2021-12-29T13:12:17Z</time>
      </trkpt>
      <trkpt lat="37.4018620" lon="-4.7410450">
        <ele>233.8</ele>
        <time>2021-12-29T13:12:18Z</time>
      </trkpt>
      <trkpt lat="37.4018430" lon="-4.7410920">
        <ele>233.8</ele>
        <time>2021-12-29T13:12:19Z</time>
      </trkpt>
      <trkpt lat="37.4018240" lon="-4.7411380">
        <ele>233.8</ele>
        <time>2021-12-29T13:12:20Z</time>
      </trkpt>
      <trkpt lat="37.4018050" lon="-4.7411880">
        <ele>233.8</ele>
        <time>2021-12-29T13:12:21Z</time>
      </trkpt>
      <trkpt lat="37.4017860" lon="-4.7412380">
        <ele>234.0</ele>
        <time>2021-12-29T13:12:22Z</time>
      </trkpt>
      <trkpt lat="37.4017630" lon="-4.7412920">
        <ele>234.0</ele>
        <time>2021-12-29T13:12:23Z</time>
      </trkpt>
      <trkpt lat="37.4017440" lon="-4.7413470">
        <ele>233.8</ele>
        <time>2021-12-29T13:12:24Z</time>
      </trkpt>
      <trkpt lat="37.4017220" lon="-4.7414000">
        <ele>233.8</ele>
        <time>2021-12-29T13:12:25Z</time>
      </trkpt>
      <trkpt lat="37.4017020" lon="-4.7414550">
        <ele>233.8</ele>
        <time>2021-12-29T13:12:26Z</time>
      </trkpt>
      <trkpt lat="37.4016800" lon="-4.7415120">
        <ele>233.8</ele>
        <time>2021-12-29T13:12:27Z</time>
      </trkpt>
      <trkpt lat="37.4016580" lon="-4.7415680">
        <ele>233.6</ele>
        <time>2021-12-29T13:12:28Z</time>
      </trkpt>
      <trkpt lat="37.4016350" lon="-4.7416300">
        <ele>233.6</ele>
        <time>2021-12-29T13:12:29Z</time>
      </trkpt>
      <trkpt lat="37.4016060" lon="-4.7416900">
        <ele>233.6</ele>
        <time>2021-12-29T13:12:30Z</time>
      </trkpt>
      <trkpt lat="37.4015780" lon="-4.7417560">
        <ele>233.6</ele>
        <time>2021-12-29T13:12:31Z</time>
      </trkpt>
      <trkpt lat="37.4015460" lon="-4.7418400">
        <ele>233.6</ele>
        <time>2021-12-29T13:12:32Z</time>
      </trkpt>
      <trkpt lat="37.4015230" lon="-4.7419020">
        <ele>233.6</ele>
        <time>2021-12-29T13:12:33Z</time>
      </trkpt>
      <trkpt lat="37.4014940" lon="-4.7419770">
        <ele>233.6</ele>
        <time>2021-12-29T13:12:34Z</time>
      </trkpt>
      <trkpt lat="37.4014620" lon="-4.7420570">
        <ele>233.6</ele>
        <time>2021-12-29T13:12:35Z</time>
      </trkpt>
      <trkpt lat="37.4014270" lon="-4.7421360">
        <ele>233.6</ele>
        <time>2021-12-29T13:12:36Z</time>
      </trkpt>
      <trkpt lat="37.4013980" lon="-4.7422220">
        <ele>233.6</ele>
        <time>2021-12-29T13:12:37Z</time>
      </trkpt>
      <trkpt lat="37.4013630" lon="-4.7423080">
        <ele>233.4</ele>
        <time>2021-12-29T13:12:38Z</time>
      </trkpt>
      <trkpt lat="37.4013280" lon="-4.7423950">
        <ele>233.4</ele>
        <time>2021-12-29T13:12:39Z</time>
      </trkpt>
      <trkpt lat="37.4012900" lon="-4.7425000">
        <ele>233.4</ele>
        <time>2021-12-29T13:12:40Z</time>
      </trkpt>
      <trkpt lat="37.4012640" lon="-4.7425720">
        <ele>233.6</ele>
        <time>2021-12-29T13:12:41Z</time>
      </trkpt>
      <trkpt lat="37.4012290" lon="-4.7426580">
        <ele>233.6</ele>
        <time>2021-12-29T13:12:42Z</time>
      </trkpt>
      <trkpt lat="37.4011970" lon="-4.7427470">
        <ele>233.4</ele>
        <time>2021-12-29T13:12:43Z</time>
      </trkpt>
      <trkpt lat="37.4011620" lon="-4.7428330">
        <ele>233.4</ele>
        <time>2021-12-29T13:12:44Z</time>
      </trkpt>
      <trkpt lat="37.4011300" lon="-4.7429180">
        <ele>233.2</ele>
        <time>2021-12-29T13:12:45Z</time>
      </trkpt>
      <trkpt lat="37.4011010" lon="-4.7430030">
        <ele>233.2</ele>
        <time>2021-12-29T13:12:46Z</time>
      </trkpt>
      <trkpt lat="37.4010720" lon="-4.7430850">
        <ele>233.2</ele>
        <time>2021-12-29T13:12:47Z</time>
      </trkpt>
      <trkpt lat="37.4010460" lon="-4.7431630">
        <ele>233.0</ele>
        <time>2021-12-29T13:12:48Z</time>
      </trkpt>
      <trkpt lat="37.4010110" lon="-4.7432530">
        <ele>232.8</ele>
        <time>2021-12-29T13:12:49Z</time>
      </trkpt>
      <trkpt lat="37.4009920" lon="-4.7433130">
        <ele>232.8</ele>
        <time>2021-12-29T13:12:50Z</time>
      </trkpt>
      <trkpt lat="37.4009660" lon="-4.7433840">
        <ele>232.6</ele>
        <time>2021-12-29T13:12:51Z</time>
      </trkpt>
      <trkpt lat="37.4009440" lon="-4.7434520">
        <ele>232.4</ele>
        <time>2021-12-29T13:12:52Z</time>
      </trkpt>
      <trkpt lat="37.4009220" lon="-4.7435200">
        <ele>232.4</ele>
        <time>2021-12-29T13:12:53Z</time>
      </trkpt>
      <trkpt lat="37.4008990" lon="-4.7436000">
        <ele>232.2</ele>
        <time>2021-12-29T13:12:54Z</time>
      </trkpt>
      <trkpt lat="37.4008830" lon="-4.7436550">
        <ele>232.2</ele>
        <time>2021-12-29T13:12:55Z</time>
      </trkpt>
      <trkpt lat="37.4008640" lon="-4.7437200">
        <ele>232.0</ele>
        <time>2021-12-29T13:12:56Z</time>
      </trkpt>
      <trkpt lat="37.4008480" lon="-4.7437980">
        <ele>231.8</ele>
        <time>2021-12-29T13:12:57Z</time>
      </trkpt>
      <trkpt lat="37.4008320" lon="-4.7438650">
        <ele>231.8</ele>
        <time>2021-12-29T13:12:58Z</time>
      </trkpt>
      <trkpt lat="37.4008260" lon="-4.7439200">
        <ele>231.8</ele>
        <time>2021-12-29T13:12:59Z</time>
      </trkpt>
      <trkpt lat="37.4008130" lon="-4.7439850">
        <ele>231.6</ele>
        <time>2021-12-29T13:13:00Z</time>
      </trkpt>
      <trkpt lat="37.4008060" lon="-4.7440520">
        <ele>231.6</ele>
        <time>2021-12-29T13:13:01Z</time>
      </trkpt>
      <trkpt lat="37.4007940" lon="-4.7441280">
        <ele>231.6</ele>
        <time>2021-12-29T13:13:02Z</time>
      </trkpt>
      <trkpt lat="37.4007900" lon="-4.7441930">
        <ele>231.4</ele>
        <time>2021-12-29T13:13:03Z</time>
      </trkpt>
      <trkpt lat="37.4007870" lon="-4.7442450">
        <ele>231.4</ele>
        <time>2021-12-29T13:13:04Z</time>
      </trkpt>
      <trkpt lat="37.4007840" lon="-4.7443100">
        <ele>231.2</ele>
        <time>2021-12-29T13:13:05Z</time>
      </trkpt>
      <trkpt lat="37.4007810" lon="-4.7443880">
        <ele>231.0</ele>
        <time>2021-12-29T13:13:06Z</time>
      </trkpt>
      <trkpt lat="37.4007740" lon="-4.7444420">
        <ele>230.8</ele>
        <time>2021-12-29T13:13:07Z</time>
      </trkpt>
      <trkpt lat="37.4007710" lon="-4.7445070">
        <ele>230.8</ele>
        <time>2021-12-29T13:13:08Z</time>
      </trkpt>
      <trkpt lat="37.4007680" lon="-4.7445720">
        <ele>230.6</ele>
        <time>2021-12-29T13:13:09Z</time>
      </trkpt>
      <trkpt lat="37.4007650" lon="-4.7446350">
        <ele>230.6</ele>
        <time>2021-12-29T13:13:10Z</time>
      </trkpt>
      <trkpt lat="37.4007620" lon="-4.7446980">
        <ele>230.6</ele>
        <time>2021-12-29T13:13:11Z</time>
      </trkpt>
      <trkpt lat="37.4007580" lon="-4.7447700">
        <ele>230.6</ele>
        <time>2021-12-29T13:13:12Z</time>
      </trkpt>
      <trkpt lat="37.4007580" lon="-4.7448200">
        <ele>230.6</ele>
        <time>2021-12-29T13:13:13Z</time>
      </trkpt>
      <trkpt lat="37.4007620" lon="-4.7448820">
        <ele>230.4</ele>
        <time>2021-12-29T13:13:14Z</time>
      </trkpt>
      <trkpt lat="37.4007580" lon="-4.7449420">
        <ele>230.4</ele>
        <time>2021-12-29T13:13:15Z</time>
      </trkpt>
      <trkpt lat="37.4007580" lon="-4.7450030">
        <ele>230.2</ele>
        <time>2021-12-29T13:13:16Z</time>
      </trkpt>
      <trkpt lat="37.4007520" lon="-4.7450630">
        <ele>230.2</ele>
        <time>2021-12-29T13:13:17Z</time>
      </trkpt>
      <trkpt lat="37.4007460" lon="-4.7451250">
        <ele>230.2</ele>
        <time>2021-12-29T13:13:18Z</time>
      </trkpt>
      <trkpt lat="37.4007420" lon="-4.7451870">
        <ele>230.0</ele>
        <time>2021-12-29T13:13:19Z</time>
      </trkpt>
      <trkpt lat="37.4007420" lon="-4.7452500">
        <ele>230.0</ele>
        <time>2021-12-29T13:13:20Z</time>
      </trkpt>
      <trkpt lat="37.4007330" lon="-4.7453100">
        <ele>229.8</ele>
        <time>2021-12-29T13:13:21Z</time>
      </trkpt>
      <trkpt lat="37.4007300" lon="-4.7453700">
        <ele>229.8</ele>
        <time>2021-12-29T13:13:22Z</time>
      </trkpt>
      <trkpt lat="37.4007260" lon="-4.7454300">
        <ele>229.6</ele>
        <time>2021-12-29T13:13:23Z</time>
      </trkpt>
      <trkpt lat="37.4007230" lon="-4.7454870">
        <ele>229.4</ele>
        <time>2021-12-29T13:13:24Z</time>
      </trkpt>
      <trkpt lat="37.4007200" lon="-4.7455440">
        <ele>229.4</ele>
        <time>2021-12-29T13:13:25Z</time>
      </trkpt>
      <trkpt lat="37.4007140" lon="-4.7456040">
        <ele>229.2</ele>
        <time>2021-12-29T13:13:26Z</time>
      </trkpt>
      <trkpt lat="37.4007140" lon="-4.7456650">
        <ele>229.2</ele>
        <time>2021-12-29T13:13:27Z</time>
      </trkpt>
      <trkpt lat="37.4007100" lon="-4.7457280">
        <ele>229.2</ele>
        <time>2021-12-29T13:13:28Z</time>
      </trkpt>
      <trkpt lat="37.4007070" lon="-4.7457900">
        <ele>229.2</ele>
        <time>2021-12-29T13:13:29Z</time>
      </trkpt>
      <trkpt lat="37.4007040" lon="-4.7458650">
        <ele>229.0</ele>
        <time>2021-12-29T13:13:30Z</time>
      </trkpt>
      <trkpt lat="37.4007010" lon="-4.7459150">
        <ele>229.0</ele>
        <time>2021-12-29T13:13:31Z</time>
      </trkpt>
      <trkpt lat="37.4006940" lon="-4.7459780">
        <ele>229.0</ele>
        <time>2021-12-29T13:13:32Z</time>
      </trkpt>
      <trkpt lat="37.4006940" lon="-4.7460400">
        <ele>228.8</ele>
        <time>2021-12-29T13:13:33Z</time>
      </trkpt>
      <trkpt lat="37.4006910" lon="-4.7461020">
        <ele>228.6</ele>
        <time>2021-12-29T13:13:34Z</time>
      </trkpt>
      <trkpt lat="37.4006880" lon="-4.7461620">
        <ele>228.6</ele>
        <time>2021-12-29T13:13:35Z</time>
      </trkpt>
      <trkpt lat="37.4006850" lon="-4.7462220">
        <ele>228.6</ele>
        <time>2021-12-29T13:13:36Z</time>
      </trkpt>
      <trkpt lat="37.4006850" lon="-4.7462820">
        <ele>228.6</ele>
        <time>2021-12-29T13:13:37Z</time>
      </trkpt>
      <trkpt lat="37.4006820" lon="-4.7463400">
        <ele>228.6</ele>
        <time>2021-12-29T13:13:38Z</time>
      </trkpt>
      <trkpt lat="37.4006750" lon="-4.7463980">
        <ele>228.6</ele>
        <time>2021-12-29T13:13:39Z</time>
      </trkpt>
      <trkpt lat="37.4006720" lon="-4.7464580">
        <ele>228.6</ele>
        <time>2021-12-29T13:13:40Z</time>
      </trkpt>
      <trkpt lat="37.4006690" lon="-4.7465170">
        <ele>228.4</ele>
        <time>2021-12-29T13:13:41Z</time>
      </trkpt>
      <trkpt lat="37.4006660" lon="-4.7465740">
        <ele>228.4</ele>
        <time>2021-12-29T13:13:42Z</time>
      </trkpt>
      <trkpt lat="37.4006620" lon="-4.7466320">
        <ele>228.2</ele>
        <time>2021-12-29T13:13:43Z</time>
      </trkpt>
      <trkpt lat="37.4006620" lon="-4.7466900">
        <ele>228.2</ele>
        <time>2021-12-29T13:13:44Z</time>
      </trkpt>
      <trkpt lat="37.4006590" lon="-4.7467500">
        <ele>228.2</ele>
        <time>2021-12-29T13:13:45Z</time>
      </trkpt>
      <trkpt lat="37.4006590" lon="-4.7468120">
        <ele>228.0</ele>
        <time>2021-12-29T13:13:46Z</time>
      </trkpt>
      <trkpt lat="37.4006590" lon="-4.7468680">
        <ele>228.0</ele>
        <time>2021-12-29T13:13:47Z</time>
      </trkpt>
      <trkpt lat="37.4006530" lon="-4.7469270">
        <ele>228.0</ele>
        <time>2021-12-29T13:13:48Z</time>
      </trkpt>
      <trkpt lat="37.4006500" lon="-4.7469850">
        <ele>227.8</ele>
        <time>2021-12-29T13:13:49Z</time>
      </trkpt>
      <trkpt lat="37.4006500" lon="-4.7470430">
        <ele>227.8</ele>
        <time>2021-12-29T13:13:50Z</time>
      </trkpt>
      <trkpt lat="37.4006460" lon="-4.7471020">
        <ele>227.6</ele>
        <time>2021-12-29T13:13:51Z</time>
      </trkpt>
      <trkpt lat="37.4006430" lon="-4.7471570">
        <ele>227.6</ele>
        <time>2021-12-29T13:13:52Z</time>
      </trkpt>
      <trkpt lat="37.4006400" lon="-4.7472100">
        <ele>227.4</ele>
        <time>2021-12-29T13:13:53Z</time>
      </trkpt>
      <trkpt lat="37.4006400" lon="-4.7472650">
        <ele>227.4</ele>
        <time>2021-12-29T13:13:54Z</time>
      </trkpt>
      <trkpt lat="37.4006400" lon="-4.7473220">
        <ele>227.4</ele>
        <time>2021-12-29T13:13:55Z</time>
      </trkpt>
      <trkpt lat="37.4006460" lon="-4.7473760">
        <ele>227.2</ele>
        <time>2021-12-29T13:13:56Z</time>
      </trkpt>
      <trkpt lat="37.4006620" lon="-4.7474420">
        <ele>227.2</ele>
        <time>2021-12-29T13:13:57Z</time>
      </trkpt>
      <trkpt lat="37.4006720" lon="-4.7474830">
        <ele>227.2</ele>
        <time>2021-12-29T13:13:58Z</time>
      </trkpt>
      <trkpt lat="37.4007010" lon="-4.7475300">
        <ele>227.0</ele>
        <time>2021-12-29T13:13:59Z</time>
      </trkpt>
      <trkpt lat="37.4007330" lon="-4.7475730">
        <ele>227.0</ele>
        <time>2021-12-29T13:14:00Z</time>
      </trkpt>
      <trkpt lat="37.4007680" lon="-4.7476150">
        <ele>226.8</ele>
        <time>2021-12-29T13:14:01Z</time>
      </trkpt>
      <trkpt lat="37.4008060" lon="-4.7476550">
        <ele>226.8</ele>
        <time>2021-12-29T13:14:02Z</time>
      </trkpt>
      <trkpt lat="37.4008380" lon="-4.7477040">
        <ele>226.8</ele>
        <time>2021-12-29T13:14:03Z</time>
      </trkpt>
      <trkpt lat="37.4008640" lon="-4.7477560">
        <ele>226.8</ele>
        <time>2021-12-29T13:14:04Z</time>
      </trkpt>
      <trkpt lat="37.4008800" lon="-4.7478160">
        <ele>226.8</ele>
        <time>2021-12-29T13:14:05Z</time>
      </trkpt>
      <trkpt lat="37.4008830" lon="-4.7478770">
        <ele>226.6</ele>
        <time>2021-12-29T13:14:06Z</time>
      </trkpt>
      <trkpt lat="37.4008670" lon="-4.7479350">
        <ele>226.6</ele>
        <time>2021-12-29T13:14:07Z</time>
      </trkpt>
      <trkpt lat="37.4008420" lon="-4.7479880">
        <ele>226.4</ele>
        <time>2021-12-29T13:14:08Z</time>
      </trkpt>
      <trkpt lat="37.4008060" lon="-4.7480320">
        <ele>226.4</ele>
        <time>2021-12-29T13:14:09Z</time>
      </trkpt>
      <trkpt lat="37.4007580" lon="-4.7480740">
        <ele>226.4</ele>
        <time>2021-12-29T13:14:10Z</time>
      </trkpt>
      <trkpt lat="37.4007200" lon="-4.7480900">
        <ele>226.4</ele>
        <time>2021-12-29T13:14:11Z</time>
      </trkpt>
      <trkpt lat="37.4006720" lon="-4.7481020">
        <ele>226.2</ele>
        <time>2021-12-29T13:14:12Z</time>
      </trkpt>
      <trkpt lat="37.4006240" lon="-4.7481020">
        <ele>226.2</ele>
        <time>2021-12-29T13:14:13Z</time>
      </trkpt>
      <trkpt lat="37.4005730" lon="-4.7480950">
        <ele>226.2</ele>
        <time>2021-12-29T13:14:14Z</time>
      </trkpt>
      <trkpt lat="37.4005250" lon="-4.7480870">
        <ele>226.2</ele>
        <time>2021-12-29T13:14:15Z</time>
      </trkpt>
      <trkpt lat="37.4004740" lon="-4.7480750">
        <ele>226.2</ele>
        <time>2021-12-29T13:14:16Z</time>
      </trkpt>
      <trkpt lat="37.4004260" lon="-4.7480700">
        <ele>226.2</ele>
        <time>2021-12-29T13:14:17Z</time>
      </trkpt>
      <trkpt lat="37.4003650" lon="-4.7480750">
        <ele>226.2</ele>
        <time>2021-12-29T13:14:18Z</time>
      </trkpt>
      <trkpt lat="37.4003230" lon="-4.7480870">
        <ele>226.0</ele>
        <time>2021-12-29T13:14:19Z</time>
      </trkpt>
      <trkpt lat="37.4002720" lon="-4.7481120">
        <ele>226.0</ele>
        <time>2021-12-29T13:14:20Z</time>
      </trkpt>
      <trkpt lat="37.4002270" lon="-4.7481430">
        <ele>226.0</ele>
        <time>2021-12-29T13:14:21Z</time>
      </trkpt>
      <trkpt lat="37.4001820" lon="-4.7481820">
        <ele>226.0</ele>
        <time>2021-12-29T13:14:22Z</time>
      </trkpt>
      <trkpt lat="37.4001340" lon="-4.7482220">
        <ele>226.0</ele>
        <time>2021-12-29T13:14:23Z</time>
      </trkpt>
      <trkpt lat="37.4000860" lon="-4.7482630">
        <ele>225.8</ele>
        <time>2021-12-29T13:14:24Z</time>
      </trkpt>
      <trkpt lat="37.4000450" lon="-4.7483080">
        <ele>225.8</ele>
        <time>2021-12-29T13:14:25Z</time>
      </trkpt>
      <trkpt lat="37.3999940" lon="-4.7483520">
        <ele>225.6</ele>
        <time>2021-12-29T13:14:26Z</time>
      </trkpt>
      <trkpt lat="37.3999460" lon="-4.7483920">
        <ele>225.6</ele>
        <time>2021-12-29T13:14:27Z</time>
      </trkpt>
      <trkpt lat="37.3998850" lon="-4.7484380">
        <ele>225.4</ele>
        <time>2021-12-29T13:14:28Z</time>
      </trkpt>
      <trkpt lat="37.3998460" lon="-4.7484720">
        <ele>225.4</ele>
        <time>2021-12-29T13:14:29Z</time>
      </trkpt>
      <trkpt lat="37.3997980" lon="-4.7485130">
        <ele>225.4</ele>
        <time>2021-12-29T13:14:30Z</time>
      </trkpt>
      <trkpt lat="37.3997500" lon="-4.7485530">
        <ele>225.4</ele>
        <time>2021-12-29T13:14:31Z</time>
      </trkpt>
      <trkpt lat="37.3997020" lon="-4.7485970">
        <ele>225.2</ele>
        <time>2021-12-29T13:14:32Z</time>
      </trkpt>
      <trkpt lat="37.3996580" lon="-4.7486370">
        <ele>225.2</ele>
        <time>2021-12-29T13:14:33Z</time>
      </trkpt>
      <trkpt lat="37.3996130" lon="-4.7486770">
        <ele>225.2</ele>
        <time>2021-12-29T13:14:34Z</time>
      </trkpt>
      <trkpt lat="37.3995680" lon="-4.7487170">
        <ele>225.2</ele>
        <time>2021-12-29T13:14:35Z</time>
      </trkpt>
      <trkpt lat="37.3995170" lon="-4.7487550">
        <ele>225.2</ele>
        <time>2021-12-29T13:14:36Z</time>
      </trkpt>
      <trkpt lat="37.3994720" lon="-4.7487950">
        <ele>225.2</ele>
        <time>2021-12-29T13:14:37Z</time>
      </trkpt>
      <trkpt lat="37.3994240" lon="-4.7488350">
        <ele>225.0</ele>
        <time>2021-12-29T13:14:38Z</time>
      </trkpt>
      <trkpt lat="37.3993790" lon="-4.7488750">
        <ele>224.8</ele>
        <time>2021-12-29T13:14:39Z</time>
      </trkpt>
      <trkpt lat="37.3993220" lon="-4.7489230">
        <ele>224.8</ele>
        <time>2021-12-29T13:14:40Z</time>
      </trkpt>
      <trkpt lat="37.3992830" lon="-4.7489570">
        <ele>224.8</ele>
        <time>2021-12-29T13:14:41Z</time>
      </trkpt>
      <trkpt lat="37.3992380" lon="-4.7489970">
        <ele>224.6</ele>
        <time>2021-12-29T13:14:42Z</time>
      </trkpt>
      <trkpt lat="37.3991940" lon="-4.7490380">
        <ele>224.6</ele>
        <time>2021-12-29T13:14:43Z</time>
      </trkpt>
      <trkpt lat="37.3991460" lon="-4.7490800">
        <ele>224.4</ele>
        <time>2021-12-29T13:14:44Z</time>
      </trkpt>
      <trkpt lat="37.3991010" lon="-4.7491240">
        <ele>224.2</ele>
        <time>2021-12-29T13:14:45Z</time>
      </trkpt>
      <trkpt lat="37.3990430" lon="-4.7491750">
        <ele>224.2</ele>
        <time>2021-12-29T13:14:46Z</time>
      </trkpt>
      <trkpt lat="37.3990020" lon="-4.7492080">
        <ele>224.0</ele>
        <time>2021-12-29T13:14:47Z</time>
      </trkpt>
      <trkpt lat="37.3989540" lon="-4.7492500">
        <ele>223.8</ele>
        <time>2021-12-29T13:14:48Z</time>
      </trkpt>
      <trkpt lat="37.3988990" lon="-4.7493050">
        <ele>223.8</ele>
        <time>2021-12-29T13:14:49Z</time>
      </trkpt>
      <trkpt lat="37.3988610" lon="-4.7493380">
        <ele>223.6</ele>
        <time>2021-12-29T13:14:50Z</time>
      </trkpt>
      <trkpt lat="37.3988160" lon="-4.7493820">
        <ele>223.6</ele>
        <time>2021-12-29T13:14:51Z</time>
      </trkpt>
      <trkpt lat="37.3987650" lon="-4.7494270">
        <ele>223.4</ele>
        <time>2021-12-29T13:14:52Z</time>
      </trkpt>
      <trkpt lat="37.3987200" lon="-4.7494680">
        <ele>223.4</ele>
        <time>2021-12-29T13:14:53Z</time>
      </trkpt>
      <trkpt lat="37.3986690" lon="-4.7495080">
        <ele>223.4</ele>
        <time>2021-12-29T13:14:54Z</time>
      </trkpt>
      <trkpt lat="37.3986240" lon="-4.7495480">
        <ele>223.2</ele>
        <time>2021-12-29T13:14:55Z</time>
      </trkpt>
      <trkpt lat="37.3985790" lon="-4.7495880">
        <ele>223.2</ele>
        <time>2021-12-29T13:14:56Z</time>
      </trkpt>
      <trkpt lat="37.3985380" lon="-4.7496280">
        <ele>223.2</ele>
        <time>2021-12-29T13:14:57Z</time>
      </trkpt>
      <trkpt lat="37.3984960" lon="-4.7496680">
        <ele>223.2</ele>
        <time>2021-12-29T13:14:58Z</time>
      </trkpt>
      <trkpt lat="37.3984480" lon="-4.7497070">
        <ele>223.0</ele>
        <time>2021-12-29T13:14:59Z</time>
      </trkpt>
      <trkpt lat="37.3984060" lon="-4.7497470">
        <ele>223.0</ele>
        <time>2021-12-29T13:15:00Z</time>
      </trkpt>
      <trkpt lat="37.3983650" lon="-4.7497920">
        <ele>223.0</ele>
        <time>2021-12-29T13:15:01Z</time>
      </trkpt>
      <trkpt lat="37.3983260" lon="-4.7498350">
        <ele>222.8</ele>
        <time>2021-12-29T13:15:02Z</time>
      </trkpt>
      <trkpt lat="37.3982850" lon="-4.7498780">
        <ele>222.8</ele>
        <time>2021-12-29T13:15:03Z</time>
      </trkpt>
      <trkpt lat="37.3982370" lon="-4.7499320">
        <ele>222.8</ele>
        <time>2021-12-29T13:15:04Z</time>
      </trkpt>
      <trkpt lat="37.3982050" lon="-4.7499650">
        <ele>222.8</ele>
        <time>2021-12-29T13:15:05Z</time>
      </trkpt>
      <trkpt lat="37.3981660" lon="-4.7500100">
        <ele>222.8</ele>
        <time>2021-12-29T13:15:06Z</time>
      </trkpt>
      <trkpt lat="37.3981280" lon="-4.7500580">
        <ele>222.6</ele>
        <time>2021-12-29T13:15:07Z</time>
      </trkpt>
      <trkpt lat="37.3980800" lon="-4.7501150">
        <ele>222.6</ele>
        <time>2021-12-29T13:15:08Z</time>
      </trkpt>
      <trkpt lat="37.3980480" lon="-4.7501520">
        <ele>222.6</ele>
        <time>2021-12-29T13:15:09Z</time>
      </trkpt>
      <trkpt lat="37.3980100" lon="-4.7501980">
        <ele>222.4</ele>
        <time>2021-12-29T13:15:10Z</time>
      </trkpt>
      <trkpt lat="37.3979680" lon="-4.7502460">
        <ele>222.4</ele>
        <time>2021-12-29T13:15:11Z</time>
      </trkpt>
      <trkpt lat="37.3979330" lon="-4.7502930">
        <ele>222.4</ele>
        <time>2021-12-29T13:15:12Z</time>
      </trkpt>
      <trkpt lat="37.3979010" lon="-4.7503450">
        <ele>222.2</ele>
        <time>2021-12-29T13:15:13Z</time>
      </trkpt>
      <trkpt lat="37.3978660" lon="-4.7503970">
        <ele>222.2</ele>
        <time>2021-12-29T13:15:14Z</time>
      </trkpt>
      <trkpt lat="37.3978340" lon="-4.7504480">
        <ele>222.0</ele>
        <time>2021-12-29T13:15:15Z</time>
      </trkpt>
      <trkpt lat="37.3977920" lon="-4.7505080">
        <ele>221.8</ele>
        <time>2021-12-29T13:15:16Z</time>
      </trkpt>
      <trkpt lat="37.3977600" lon="-4.7505580">
        <ele>221.8</ele>
        <time>2021-12-29T13:15:17Z</time>
      </trkpt>
      <trkpt lat="37.3977310" lon="-4.7505980">
        <ele>221.8</ele>
        <time>2021-12-29T13:15:18Z</time>
      </trkpt>
      <trkpt lat="37.3977020" lon="-4.7506500">
        <ele>221.6</ele>
        <time>2021-12-29T13:15:19Z</time>
      </trkpt>
      <trkpt lat="37.3976640" lon="-4.7507080">
        <ele>221.4</ele>
        <time>2021-12-29T13:15:20Z</time>
      </trkpt>
      <trkpt lat="37.3976320" lon="-4.7507550">
        <ele>221.4</ele>
        <time>2021-12-29T13:15:21Z</time>
      </trkpt>
      <trkpt lat="37.3976060" lon="-4.7507920">
        <ele>221.2</ele>
        <time>2021-12-29T13:15:22Z</time>
      </trkpt>
      <trkpt lat="37.3975780" lon="-4.7508420">
        <ele>221.2</ele>
        <time>2021-12-29T13:15:23Z</time>
      </trkpt>
      <trkpt lat="37.3975490" lon="-4.7508880">
        <ele>221.2</ele>
        <time>2021-12-29T13:15:24Z</time>
      </trkpt>
      <trkpt lat="37.3975260" lon="-4.7509360">
        <ele>221.2</ele>
        <time>2021-12-29T13:15:25Z</time>
      </trkpt>
      <trkpt lat="37.3975100" lon="-4.7509830">
        <ele>221.0</ele>
        <time>2021-12-29T13:15:26Z</time>
      </trkpt>
      <trkpt lat="37.3974980" lon="-4.7510250">
        <ele>221.0</ele>
        <time>2021-12-29T13:15:27Z</time>
      </trkpt>
      <trkpt lat="37.3974910" lon="-4.7510650">
        <ele>221.0</ele>
        <time>2021-12-29T13:15:28Z</time>
      </trkpt>
      <trkpt lat="37.3974850" lon="-4.7511070">
        <ele>220.8</ele>
        <time>2021-12-29T13:15:29Z</time>
      </trkpt>
      <trkpt lat="37.3974820" lon="-4.7511500">
        <ele>220.8</ele>
        <time>2021-12-29T13:15:30Z</time>
      </trkpt>
      <trkpt lat="37.3974690" lon="-4.7511940">
        <ele>220.8</ele>
        <time>2021-12-29T13:15:31Z</time>
      </trkpt>
      <trkpt lat="37.3974560" lon="-4.7512420">
        <ele>220.8</ele>
        <time>2021-12-29T13:15:32Z</time>
      </trkpt>
      <trkpt lat="37.3974430" lon="-4.7512830">
        <ele>220.8</ele>
        <time>2021-12-29T13:15:33Z</time>
      </trkpt>
      <trkpt lat="37.3974240" lon="-4.7513230">
        <ele>220.8</ele>
        <time>2021-12-29T13:15:34Z</time>
      </trkpt>
      <trkpt lat="37.3973980" lon="-4.7513630">
        <ele>220.8</ele>
        <time>2021-12-29T13:15:35Z</time>
      </trkpt>
      <trkpt lat="37.3973760" lon="-4.7514020">
        <ele>221.0</ele>
        <time>2021-12-29T13:15:36Z</time>
      </trkpt>
      <trkpt lat="37.3973540" lon="-4.7514380">
        <ele>220.8</ele>
        <time>2021-12-29T13:15:37Z</time>
      </trkpt>
      <trkpt lat="37.3973310" lon="-4.7514750">
        <ele>220.8</ele>
        <time>2021-12-29T13:15:38Z</time>
      </trkpt>
      <trkpt lat="37.3973090" lon="-4.7515100">
        <ele>220.8</ele>
        <time>2021-12-29T13:15:39Z</time>
      </trkpt>
      <trkpt lat="37.3972860" lon="-4.7515470">
        <ele>220.8</ele>
        <time>2021-12-29T13:15:40Z</time>
      </trkpt>
      <trkpt lat="37.3972580" lon="-4.7515800">
        <ele>220.8</ele>
        <time>2021-12-29T13:15:41Z</time>
      </trkpt>
      <trkpt lat="37.3972320" lon="-4.7516160">
        <ele>220.8</ele>
        <time>2021-12-29T13:15:42Z</time>
      </trkpt>
      <trkpt lat="37.3972060" lon="-4.7516550">
        <ele>220.8</ele>
        <time>2021-12-29T13:15:43Z</time>
      </trkpt>
      <trkpt lat="37.3971870" lon="-4.7516980">
        <ele>220.6</ele>
        <time>2021-12-29T13:15:44Z</time>
      </trkpt>
      <trkpt lat="37.3971650" lon="-4.7517430">
        <ele>220.6</ele>
        <time>2021-12-29T13:15:45Z</time>
      </trkpt>
      <trkpt lat="37.3971490" lon="-4.7517870">
        <ele>220.4</ele>
        <time>2021-12-29T13:15:46Z</time>
      </trkpt>
      <trkpt lat="37.3971300" lon="-4.7518320">
        <ele>220.2</ele>
        <time>2021-12-29T13:15:47Z</time>
      </trkpt>
      <trkpt lat="37.3971070" lon="-4.7518750">
        <ele>220.0</ele>
        <time>2021-12-29T13:15:48Z</time>
      </trkpt>
      <trkpt lat="37.3970850" lon="-4.7519180">
        <ele>219.8</ele>
        <time>2021-12-29T13:15:49Z</time>
      </trkpt>
      <trkpt lat="37.3970660" lon="-4.7519630">
        <ele>219.8</ele>
        <time>2021-12-29T13:15:50Z</time>
      </trkpt>
      <trkpt lat="37.3970400" lon="-4.7520100">
        <ele>219.6</ele>
        <time>2021-12-29T13:15:51Z</time>
      </trkpt>
      <trkpt lat="37.3970140" lon="-4.7520530">
        <ele>219.6</ele>
        <time>2021-12-29T13:15:52Z</time>
      </trkpt>
      <trkpt lat="37.3969920" lon="-4.7520950">
        <ele>219.6</ele>
        <time>2021-12-29T13:15:53Z</time>
      </trkpt>
      <trkpt lat="37.3969660" lon="-4.7521370">
        <ele>219.4</ele>
        <time>2021-12-29T13:15:54Z</time>
      </trkpt>
      <trkpt lat="37.3969470" lon="-4.7521780">
        <ele>219.4</ele>
        <time>2021-12-29T13:15:55Z</time>
      </trkpt>
      <trkpt lat="37.3969180" lon="-4.7522170">
        <ele>219.4</ele>
        <time>2021-12-29T13:15:56Z</time>
      </trkpt>
      <trkpt lat="37.3968930" lon="-4.7522520">
        <ele>219.4</ele>
        <time>2021-12-29T13:15:57Z</time>
      </trkpt>
      <trkpt lat="37.3968700" lon="-4.7522880">
        <ele>219.4</ele>
        <time>2021-12-29T13:15:58Z</time>
      </trkpt>
      <trkpt lat="37.3968420" lon="-4.7523230">
        <ele>219.2</ele>
        <time>2021-12-29T13:15:59Z</time>
      </trkpt>
      <trkpt lat="37.3968130" lon="-4.7523700">
        <ele>219.2</ele>
        <time>2021-12-29T13:16:00Z</time>
      </trkpt>
      <trkpt lat="37.3967940" lon="-4.7524030">
        <ele>219.2</ele>
        <time>2021-12-29T13:16:01Z</time>
      </trkpt>
      <trkpt lat="37.3967620" lon="-4.7524420">
        <ele>219.2</ele>
        <time>2021-12-29T13:16:02Z</time>
      </trkpt>
      <trkpt lat="37.3967360" lon="-4.7524800">
        <ele>219.2</ele>
        <time>2021-12-29T13:16:03Z</time>
      </trkpt>
      <trkpt lat="37.3967070" lon="-4.7525240">
        <ele>219.0</ele>
        <time>2021-12-29T13:16:04Z</time>
      </trkpt>
      <trkpt lat="37.3966880" lon="-4.7525540">
        <ele>219.0</ele>
        <time>2021-12-29T13:16:05Z</time>
      </trkpt>
      <trkpt lat="37.3966620" lon="-4.7525900">
        <ele>219.2</ele>
        <time>2021-12-29T13:16:06Z</time>
      </trkpt>
      <trkpt lat="37.3966400" lon="-4.7526300">
        <ele>219.2</ele>
        <time>2021-12-29T13:16:07Z</time>
      </trkpt>
      <trkpt lat="37.3966180" lon="-4.7526660">
        <ele>219.2</ele>
        <time>2021-12-29T13:16:08Z</time>
      </trkpt>
      <trkpt lat="37.3965920" lon="-4.7527020">
        <ele>219.2</ele>
        <time>2021-12-29T13:16:09Z</time>
      </trkpt>
      <trkpt lat="37.3965700" lon="-4.7527350">
        <ele>219.2</ele>
        <time>2021-12-29T13:16:10Z</time>
      </trkpt>
      <trkpt lat="37.3965500" lon="-4.7527650">
        <ele>219.0</ele>
        <time>2021-12-29T13:16:11Z</time>
      </trkpt>
      <trkpt lat="37.3965310" lon="-4.7527980">
        <ele>219.0</ele>
        <time>2021-12-29T13:16:12Z</time>
      </trkpt>
      <trkpt lat="37.3965120" lon="-4.7528280">
        <ele>219.0</ele>
        <time>2021-12-29T13:16:13Z</time>
      </trkpt>
      <trkpt lat="37.3964930" lon="-4.7528580">
        <ele>219.0</ele>
        <time>2021-12-29T13:16:14Z</time>
      </trkpt>
      <trkpt lat="37.3964770" lon="-4.7528850">
        <ele>218.8</ele>
        <time>2021-12-29T13:16:15Z</time>
      </trkpt>
      <trkpt lat="37.3964580" lon="-4.7529070">
        <ele>218.8</ele>
        <time>2021-12-29T13:16:16Z</time>
      </trkpt>
      <trkpt lat="37.3964380" lon="-4.7529280">
        <ele>218.8</ele>
        <time>2021-12-29T13:16:17Z</time>
      </trkpt>
      <trkpt lat="37.3964220" lon="-4.7529520">
        <ele>218.8</ele>
        <time>2021-12-29T13:16:18Z</time>
      </trkpt>
      <trkpt lat="37.3964030" lon="-4.7529750">
        <ele>218.8</ele>
        <time>2021-12-29T13:16:19Z</time>
      </trkpt>
      <trkpt lat="37.3963840" lon="-4.7529950">
        <ele>218.8</ele>
        <time>2021-12-29T13:16:20Z</time>
      </trkpt>
      <trkpt lat="37.3963620" lon="-4.7530080">
        <ele>218.8</ele>
        <time>2021-12-29T13:16:21Z</time>
      </trkpt>
      <trkpt lat="37.3963360" lon="-4.7530060">
        <ele>218.8</ele>
        <time>2021-12-29T13:16:22Z</time>
      </trkpt>
      <trkpt lat="37.3963100" lon="-4.7529980">
        <ele>218.8</ele>
        <time>2021-12-29T13:16:23Z</time>
      </trkpt>
      <trkpt lat="37.3962850" lon="-4.7529900">
        <ele>218.6</ele>
        <time>2021-12-29T13:16:24Z</time>
      </trkpt>
      <trkpt lat="37.3962620" lon="-4.7529900">
        <ele>218.8</ele>
        <time>2021-12-29T13:16:25Z</time>
      </trkpt>
      <trkpt lat="37.3962400" lon="-4.7530020">
        <ele>218.8</ele>
        <time>2021-12-29T13:16:26Z</time>
      </trkpt>
      <trkpt lat="37.3962180" lon="-4.7530180">
        <ele>218.8</ele>
        <time>2021-12-29T13:16:27Z</time>
      </trkpt>
      <trkpt lat="37.3961950" lon="-4.7530400">
        <ele>218.8</ele>
        <time>2021-12-29T13:16:28Z</time>
      </trkpt>
      <trkpt lat="37.3961790" lon="-4.7530550">
        <ele>218.8</ele>
        <time>2021-12-29T13:16:29Z</time>
      </trkpt>
      <trkpt lat="37.3961600" lon="-4.7530760">
        <ele>218.8</ele>
        <time>2021-12-29T13:16:30Z</time>
      </trkpt>
      <trkpt lat="37.3961440" lon="-4.7530960">
        <ele>219.0</ele>
        <time>2021-12-29T13:16:31Z</time>
      </trkpt>
      <trkpt lat="37.3961310" lon="-4.7531200">
        <ele>219.0</ele>
        <time>2021-12-29T13:16:32Z</time>
      </trkpt>
      <trkpt lat="37.3961150" lon="-4.7531380">
        <ele>219.2</ele>
        <time>2021-12-29T13:16:33Z</time>
      </trkpt>
      <trkpt lat="37.3960960" lon="-4.7531550">
        <ele>219.2</ele>
        <time>2021-12-29T13:16:34Z</time>
      </trkpt>
      <trkpt lat="37.3960800" lon="-4.7531700">
        <ele>219.2</ele>
        <time>2021-12-29T13:16:35Z</time>
      </trkpt>
      <trkpt lat="37.3960640" lon="-4.7531850">
        <ele>219.0</ele>
        <time>2021-12-29T13:16:36Z</time>
      </trkpt>
      <trkpt lat="37.3960480" lon="-4.7532030">
        <ele>219.0</ele>
        <time>2021-12-29T13:16:37Z</time>
      </trkpt>
      <trkpt lat="37.3960480" lon="-4.7532030">
        <ele>219.0</ele>
        <time>2021-12-29T13:16:38Z</time>
      </trkpt>
      <trkpt lat="37.3960350" lon="-4.7532340">
        <ele>218.8</ele>
        <time>2021-12-29T13:16:39Z</time>
      </trkpt>
      <trkpt lat="37.3960350" lon="-4.7532340">
        <ele>219.0</ele>
        <time>2021-12-29T13:16:40Z</time>
      </trkpt>
      <trkpt lat="37.3960350" lon="-4.7532340">
        <ele>219.0</ele>
        <time>2021-12-29T13:16:41Z</time>
      </trkpt>
      <trkpt lat="37.3960160" lon="-4.7532500">
        <ele>219.0</ele>
        <time>2021-12-29T13:16:42Z</time>
      </trkpt>
      <trkpt lat="37.3960160" lon="-4.7532500">
        <ele>219.0</ele>
        <time>2021-12-29T13:16:43Z</time>
      </trkpt>
      <trkpt lat="37.3960160" lon="-4.7532500">
        <ele>219.0</ele>
        <time>2021-12-29T13:16:44Z</time>
      </trkpt>
      <trkpt lat="37.3960160" lon="-4.7532500">
        <ele>219.0</ele>
        <time>2021-12-29T13:16:45Z</time>
      </trkpt>
      <trkpt lat="37.3960160" lon="-4.7532500">
        <ele>219.0</ele>
        <time>2021-12-29T13:20:05Z</time>
      </trkpt>
      <trkpt lat="37.3960160" lon="-4.7532500">
        <ele>223.0</ele>
        <time>2021-12-29T13:20:06Z</time>
      </trkpt>
      <trkpt lat="37.3960160" lon="-4.7532500">
        <ele>223.0</ele>
        <time>2021-12-29T13:20:07Z</time>
      </trkpt>
      <trkpt lat="37.3960160" lon="-4.7532500">
        <ele>223.0</ele>
        <time>2021-12-29T13:20:08Z</time>
      </trkpt>
      <trkpt lat="37.3960160" lon="-4.7532500">
        <ele>223.0</ele>
        <time>2021-12-29T13:20:09Z</time>
      </trkpt>
      <trkpt lat="37.3960160" lon="-4.7532500">
        <ele>223.0</ele>
        <time>2021-12-29T13:20:10Z</time>
      </trkpt>
    </trkseg>
  </trk>
</gpx>
